<?xml version="1.0" encoding="UTF-8"?>
<TrainingCenterDatabase xmlns="http://www.garmin.com/xmlschemas/TrainingCenterDatabase/v2" xmlns:xsi="http://www.w3.org/2001/XMLSchema-instance" xsi:schemaLocation="http://www.garmin.com/xmlschemas/TrainingCenterDatabase/v2 http://www.garmin.com/xmlschemas/TrainingCenterDatabasev2.xsd">
  <Activities>
    <Activity Sport="Other">
      <Id>2020-05-25T04:28:31.000Z</Id>
      <Lap StartTime="2020-05-25T04:28:31.000Z">
        <TotalTimeSeconds>12124</TotalTimeSeconds>
        <DistanceMeters>77270</DistanceMeters>
        <Track>
          <Trackpoint>
            <Time>2020-05-25T04:28:31.000Z</Time>
            <Position>
              <LatitudeDegrees>38.012272529304027557373046875</LatitudeDegrees>
              <LongitudeDegrees>-1.15111400373280048370361328125</LongitudeDegrees>
            </Position>
            <AltitudeMeters>74.59999847412109375</AltitudeMeters>
            <DistanceMeters>0</DistanceMeters>
          </Trackpoint>
          <Trackpoint>
            <Time>2020-05-25T04:28:32.000Z</Time>
            <Position>
              <LatitudeDegrees>38.0122755467891693115234375</LatitudeDegrees>
              <LongitudeDegrees>-1.1510641314089298248291015625</LongitudeDegrees>
            </Position>
            <AltitudeMeters>74.59999847412109375</AltitudeMeters>
            <DistanceMeters>4.385665608049</DistanceMeters>
          </Trackpoint>
          <Trackpoint>
            <Time>2020-05-25T04:28:33.000Z</Time>
            <Position>
              <LatitudeDegrees>38.01226993091404438018798828125</LatitudeDegrees>
              <LongitudeDegrees>-1.1510088108479976654052734375</LongitudeDegrees>
            </Position>
            <AltitudeMeters>74.40000152587890625</AltitudeMeters>
            <DistanceMeters>9.2765420632496</DistanceMeters>
          </Trackpoint>
          <Trackpoint>
            <Time>2020-05-25T04:28:34.000Z</Time>
            <Position>
              <LatitudeDegrees>38.01226012408733367919921875</LatitudeDegrees>
              <LongitudeDegrees>-1.15094921551644802093505859375</LongitudeDegrees>
            </Position>
            <AltitudeMeters>74.40000152587890625</AltitudeMeters>
            <DistanceMeters>14.614980154782</DistanceMeters>
          </Trackpoint>
          <Trackpoint>
            <Time>2020-05-25T04:28:35.000Z</Time>
            <Position>
              <LatitudeDegrees>38.01224528811872005462646484375</LatitudeDegrees>
              <LongitudeDegrees>-1.15088635124266147613525390625</LongitudeDegrees>
            </Position>
            <AltitudeMeters>74.40000152587890625</AltitudeMeters>
            <DistanceMeters>20.369395009481</DistanceMeters>
          </Trackpoint>
          <Trackpoint>
            <Time>2020-05-25T04:28:36.000Z</Time>
            <Position>
              <LatitudeDegrees>38.012226931750774383544921875</LatitudeDegrees>
              <LongitudeDegrees>-1.1508207209408283233642578125</LongitudeDegrees>
            </Position>
            <AltitudeMeters>74.40000152587890625</AltitudeMeters>
            <DistanceMeters>26.476294035462</DistanceMeters>
          </Trackpoint>
          <Trackpoint>
            <Time>2020-05-25T04:28:37.000Z</Time>
            <Position>
              <LatitudeDegrees>38.0122032947838306427001953125</LatitudeDegrees>
              <LongitudeDegrees>-1.150754503905773162841796875</LongitudeDegrees>
            </Position>
            <AltitudeMeters>74.40000152587890625</AltitudeMeters>
            <DistanceMeters>32.850879825755</DistanceMeters>
          </Trackpoint>
          <Trackpoint>
            <Time>2020-05-25T04:28:38.000Z</Time>
            <Position>
              <LatitudeDegrees>38.0121734552085399627685546875</LatitudeDegrees>
              <LongitudeDegrees>-1.15068568848073482513427734375</LongitudeDegrees>
            </Position>
            <AltitudeMeters>74.40000152587890625</AltitudeMeters>
            <DistanceMeters>39.738841907281</DistanceMeters>
          </Trackpoint>
          <Trackpoint>
            <Time>2020-05-25T04:28:39.000Z</Time>
            <Position>
              <LatitudeDegrees>38.01214277744293212890625</LatitudeDegrees>
              <LongitudeDegrees>-1.15061645396053791046142578125</LongitudeDegrees>
            </Position>
            <AltitudeMeters>74.40000152587890625</AltitudeMeters>
            <DistanceMeters>46.705019539944</DistanceMeters>
          </Trackpoint>
          <Trackpoint>
            <Time>2020-05-25T04:28:40.000Z</Time>
            <Position>
              <LatitudeDegrees>38.01211184822022914886474609375</LatitudeDegrees>
              <LongitudeDegrees>-1.15054537542164325714111328125</LongitudeDegrees>
            </Position>
            <AltitudeMeters>74.40000152587890625</AltitudeMeters>
            <DistanceMeters>53.825051081754</DistanceMeters>
          </Trackpoint>
          <Trackpoint>
            <Time>2020-05-25T04:28:41.000Z</Time>
            <Position>
              <LatitudeDegrees>38.01207932643592357635498046875</LatitudeDegrees>
              <LongitudeDegrees>-1.1504740454256534576416015625</LongitudeDegrees>
            </Position>
            <AltitudeMeters>74.40000152587890625</AltitudeMeters>
            <DistanceMeters>61.052081049302</DistanceMeters>
          </Trackpoint>
          <Trackpoint>
            <Time>2020-05-25T04:28:42.000Z</Time>
            <Position>
              <LatitudeDegrees>38.01204420626163482666015625</LatitudeDegrees>
              <LongitudeDegrees>-1.1504034698009490966796875</LongitudeDegrees>
            </Position>
            <AltitudeMeters>74.1999969482421875</AltitudeMeters>
            <DistanceMeters>68.371605865981</DistanceMeters>
          </Trackpoint>
          <Trackpoint>
            <Time>2020-05-25T04:28:43.000Z</Time>
            <Position>
              <LatitudeDegrees>38.01200506277382373809814453125</LatitudeDegrees>
              <LongitudeDegrees>-1.15033599548041820526123046875</LongitudeDegrees>
            </Position>
            <AltitudeMeters>74.1999969482421875</AltitudeMeters>
            <DistanceMeters>75.718836431437</DistanceMeters>
          </Trackpoint>
          <Trackpoint>
            <Time>2020-05-25T04:28:44.000Z</Time>
            <Position>
              <LatitudeDegrees>38.0119629018008708953857421875</LatitudeDegrees>
              <LongitudeDegrees>-1.1502712033689022064208984375</LongitudeDegrees>
            </Position>
            <AltitudeMeters>74</AltitudeMeters>
            <DistanceMeters>83.087543893231</DistanceMeters>
          </Trackpoint>
          <Trackpoint>
            <Time>2020-05-25T04:28:45.000Z</Time>
            <Position>
              <LatitudeDegrees>38.01191839389503002166748046875</LatitudeDegrees>
              <LongitudeDegrees>-1.1502075009047985076904296875</LongitudeDegrees>
            </Position>
            <AltitudeMeters>74</AltitudeMeters>
            <DistanceMeters>90.554249456261</DistanceMeters>
          </Trackpoint>
          <Trackpoint>
            <Time>2020-05-25T04:28:46.000Z</Time>
            <Position>
              <LatitudeDegrees>38.0118720419704914093017578125</LatitudeDegrees>
              <LongitudeDegrees>-1.1501448042690753936767578125</LongitudeDegrees>
            </Position>
            <AltitudeMeters>73.8000030517578125</AltitudeMeters>
            <DistanceMeters>98.094366251851</DistanceMeters>
          </Trackpoint>
          <Trackpoint>
            <Time>2020-05-25T04:28:47.000Z</Time>
            <Position>
              <LatitudeDegrees>38.011824600398540496826171875</LatitudeDegrees>
              <LongitudeDegrees>-1.1500817723572254180908203125</LongitudeDegrees>
            </Position>
            <AltitudeMeters>73.8000030517578125</AltitudeMeters>
            <DistanceMeters>105.73914582652</DistanceMeters>
          </Trackpoint>
          <Trackpoint>
            <Time>2020-05-25T04:28:48.000Z</Time>
            <Position>
              <LatitudeDegrees>38.0117761529982089996337890625</LatitudeDegrees>
              <LongitudeDegrees>-1.1500197462737560272216796875</LongitudeDegrees>
            </Position>
            <AltitudeMeters>73.59999847412109375</AltitudeMeters>
            <DistanceMeters>113.39808678333</DistanceMeters>
          </Trackpoint>
          <Trackpoint>
            <Time>2020-05-25T04:28:49.000Z</Time>
            <Position>
              <LatitudeDegrees>38.0117275379598140716552734375</LatitudeDegrees>
              <LongitudeDegrees>-1.14996115677058696746826171875</LongitudeDegrees>
            </Position>
            <AltitudeMeters>73.59999847412109375</AltitudeMeters>
            <DistanceMeters>120.85995326253</DistanceMeters>
          </Trackpoint>
          <Trackpoint>
            <Time>2020-05-25T04:28:50.000Z</Time>
            <Position>
              <LatitudeDegrees>38.0116745643317699432373046875</LatitudeDegrees>
              <LongitudeDegrees>-1.149905584752559661865234375</LongitudeDegrees>
            </Position>
            <AltitudeMeters>73.40000152587890625</AltitudeMeters>
            <DistanceMeters>128.50945621088</DistanceMeters>
          </Trackpoint>
          <Trackpoint>
            <Time>2020-05-25T04:28:51.000Z</Time>
            <Position>
              <LatitudeDegrees>38.01161915995180606842041015625</LatitudeDegrees>
              <LongitudeDegrees>-1.1498611606657505035400390625</LongitudeDegrees>
            </Position>
            <AltitudeMeters>73.40000152587890625</AltitudeMeters>
            <DistanceMeters>135.80302737537</DistanceMeters>
          </Trackpoint>
          <Trackpoint>
            <Time>2020-05-25T04:28:52.000Z</Time>
            <Position>
              <LatitudeDegrees>38.01161915995180606842041015625</LatitudeDegrees>
              <LongitudeDegrees>-1.1498611606657505035400390625</LongitudeDegrees>
            </Position>
            <AltitudeMeters>73.40000152587890625</AltitudeMeters>
            <DistanceMeters>135.80302737537</DistanceMeters>
          </Trackpoint>
          <Trackpoint>
            <Time>2020-05-25T04:28:53.000Z</Time>
            <Position>
              <LatitudeDegrees>38.01151312887668609619140625</LatitudeDegrees>
              <LongitudeDegrees>-1.1497785151004791259765625</LongitudeDegrees>
            </Position>
            <AltitudeMeters>73.1999969482421875</AltitudeMeters>
            <DistanceMeters>149.65217260782</DistanceMeters>
          </Trackpoint>
          <Trackpoint>
            <Time>2020-05-25T04:28:54.000Z</Time>
            <Position>
              <LatitudeDegrees>38.01145604811608791351318359375</LatitudeDegrees>
              <LongitudeDegrees>-1.14972964860498905181884765625</LongitudeDegrees>
            </Position>
            <AltitudeMeters>73.1999969482421875</AltitudeMeters>
            <DistanceMeters>157.31582821017</DistanceMeters>
          </Trackpoint>
          <Trackpoint>
            <Time>2020-05-25T04:28:55.000Z</Time>
            <Position>
              <LatitudeDegrees>38.01139804534614086151123046875</LatitudeDegrees>
              <LongitudeDegrees>-1.1496780999004840850830078125</LongitudeDegrees>
            </Position>
            <AltitudeMeters>73.1999969482421875</AltitudeMeters>
            <DistanceMeters>165.19674603626</DistanceMeters>
          </Trackpoint>
          <Trackpoint>
            <Time>2020-05-25T04:28:56.000Z</Time>
            <Position>
              <LatitudeDegrees>38.0113419704139232635498046875</LatitudeDegrees>
              <LongitudeDegrees>-1.1496244557201862335205078125</LongitudeDegrees>
            </Position>
            <AltitudeMeters>73</AltitudeMeters>
            <DistanceMeters>173.01323484005</DistanceMeters>
          </Trackpoint>
          <Trackpoint>
            <Time>2020-05-25T04:28:57.000Z</Time>
            <Position>
              <LatitudeDegrees>38.0112859793007373809814453125</LatitudeDegrees>
              <LongitudeDegrees>-1.1495708115398883819580078125</LongitudeDegrees>
            </Position>
            <AltitudeMeters>73</AltitudeMeters>
            <DistanceMeters>180.82163263663</DistanceMeters>
          </Trackpoint>
          <Trackpoint>
            <Time>2020-05-25T04:28:58.000Z</Time>
            <Position>
              <LatitudeDegrees>38.0112859793007373809814453125</LatitudeDegrees>
              <LongitudeDegrees>-1.1495708115398883819580078125</LongitudeDegrees>
            </Position>
            <AltitudeMeters>72.8000030517578125</AltitudeMeters>
            <DistanceMeters>180.82163263663</DistanceMeters>
          </Trackpoint>
          <Trackpoint>
            <Time>2020-05-25T04:28:59.000Z</Time>
            <Position>
              <LatitudeDegrees>38.01117458380758762359619140625</LatitudeDegrees>
              <LongitudeDegrees>-1.14946377463638782501220703125</LongitudeDegrees>
            </Position>
            <AltitudeMeters>72.8000030517578125</AltitudeMeters>
            <DistanceMeters>196.37237047023</DistanceMeters>
          </Trackpoint>
          <Trackpoint>
            <Time>2020-05-25T04:29:00.000Z</Time>
            <Position>
              <LatitudeDegrees>38.01112043671309947967529296875</LatitudeDegrees>
              <LongitudeDegrees>-1.149409376084804534912109375</LongitudeDegrees>
            </Position>
            <AltitudeMeters>72.59999847412109375</AltitudeMeters>
            <DistanceMeters>204.05838114523</DistanceMeters>
          </Trackpoint>
          <Trackpoint>
            <Time>2020-05-25T04:29:01.000Z</Time>
            <Position>
              <LatitudeDegrees>38.0110658705234527587890625</LatitudeDegrees>
              <LongitudeDegrees>-1.14935480989515781402587890625</LongitudeDegrees>
            </Position>
            <AltitudeMeters>72.59999847412109375</AltitudeMeters>
            <DistanceMeters>211.79007604732</DistanceMeters>
          </Trackpoint>
          <Trackpoint>
            <Time>2020-05-25T04:29:02.000Z</Time>
            <Position>
              <LatitudeDegrees>38.011010549962520599365234375</LatitudeDegrees>
              <LongitudeDegrees>-1.14930116571485996246337890625</LongitudeDegrees>
            </Position>
            <AltitudeMeters>72.59999847412109375</AltitudeMeters>
            <DistanceMeters>219.53927009266</DistanceMeters>
          </Trackpoint>
          <Trackpoint>
            <Time>2020-05-25T04:29:03.000Z</Time>
            <Position>
              <LatitudeDegrees>38.0109553970396518707275390625</LatitudeDegrees>
              <LongitudeDegrees>-1.14924835972487926483154296875</LongitudeDegrees>
            </Position>
            <AltitudeMeters>72.40000152587890625</AltitudeMeters>
            <DistanceMeters>227.22763015201</DistanceMeters>
          </Trackpoint>
          <Trackpoint>
            <Time>2020-05-25T04:29:04.000Z</Time>
            <Position>
              <LatitudeDegrees>38.0109553970396518707275390625</LatitudeDegrees>
              <LongitudeDegrees>-1.14924835972487926483154296875</LongitudeDegrees>
            </Position>
            <AltitudeMeters>72.40000152587890625</AltitudeMeters>
            <DistanceMeters>227.22763015201</DistanceMeters>
          </Trackpoint>
          <Trackpoint>
            <Time>2020-05-25T04:29:05.000Z</Time>
            <Position>
              <LatitudeDegrees>38.0108440853655338287353515625</LatitudeDegrees>
              <LongitudeDegrees>-1.14914081990718841552734375</LongitudeDegrees>
            </Position>
            <AltitudeMeters>72.40000152587890625</AltitudeMeters>
            <DistanceMeters>242.7980987502</DistanceMeters>
          </Trackpoint>
          <Trackpoint>
            <Time>2020-05-25T04:29:06.000Z</Time>
            <Position>
              <LatitudeDegrees>38.0107894353568553924560546875</LatitudeDegrees>
              <LongitudeDegrees>-1.14908625371754169464111328125</LongitudeDegrees>
            </Position>
            <AltitudeMeters>72.1999969482421875</AltitudeMeters>
            <DistanceMeters>250.53738147231</DistanceMeters>
          </Trackpoint>
          <Trackpoint>
            <Time>2020-05-25T04:29:07.000Z</Time>
            <Position>
              <LatitudeDegrees>38.01073386333882808685302734375</LatitudeDegrees>
              <LongitudeDegrees>-1.14903177134692668914794921875</LongitudeDegrees>
            </Position>
            <AltitudeMeters>72.40000152587890625</AltitudeMeters>
            <DistanceMeters>258.35271493077</DistanceMeters>
          </Trackpoint>
          <Trackpoint>
            <Time>2020-05-25T04:29:08.000Z</Time>
            <Position>
              <LatitudeDegrees>38.010676614940166473388671875</LatitudeDegrees>
              <LongitudeDegrees>-1.14897829480469226837158203125</LongitudeDegrees>
            </Position>
            <AltitudeMeters>72.40000152587890625</AltitudeMeters>
            <DistanceMeters>266.26336785936</DistanceMeters>
          </Trackpoint>
          <Trackpoint>
            <Time>2020-05-25T04:29:09.000Z</Time>
            <Position>
              <LatitudeDegrees>38.01061953417956829071044921875</LatitudeDegrees>
              <LongitudeDegrees>-1.14892548881471157073974609375</LongitudeDegrees>
            </Position>
            <AltitudeMeters>72.40000152587890625</AltitudeMeters>
            <DistanceMeters>274.12478269274</DistanceMeters>
          </Trackpoint>
          <Trackpoint>
            <Time>2020-05-25T04:29:10.000Z</Time>
            <Position>
              <LatitudeDegrees>38.01061953417956829071044921875</LatitudeDegrees>
              <LongitudeDegrees>-1.14892548881471157073974609375</LongitudeDegrees>
            </Position>
            <AltitudeMeters>72.40000152587890625</AltitudeMeters>
            <DistanceMeters>274.12478269274</DistanceMeters>
          </Trackpoint>
          <Trackpoint>
            <Time>2020-05-25T04:29:11.000Z</Time>
            <Position>
              <LatitudeDegrees>38.01050436682999134063720703125</LatitudeDegrees>
              <LongitudeDegrees>-1.1488164402544498443603515625</LongitudeDegrees>
            </Position>
            <AltitudeMeters>72.40000152587890625</AltitudeMeters>
            <DistanceMeters>290.11752746025</DistanceMeters>
          </Trackpoint>
          <Trackpoint>
            <Time>2020-05-25T04:29:12.000Z</Time>
            <Position>
              <LatitudeDegrees>38.01044569350779056549072265625</LatitudeDegrees>
              <LongitudeDegrees>-1.1487611196935176849365234375</LongitudeDegrees>
            </Position>
            <AltitudeMeters>72.40000152587890625</AltitudeMeters>
            <DistanceMeters>298.25216944262</DistanceMeters>
          </Trackpoint>
          <Trackpoint>
            <Time>2020-05-25T04:29:13.000Z</Time>
            <Position>
              <LatitudeDegrees>38.01038802601397037506103515625</LatitudeDegrees>
              <LongitudeDegrees>-1.14870722405612468719482421875</LongitudeDegrees>
            </Position>
            <AltitudeMeters>72.40000152587890625</AltitudeMeters>
            <DistanceMeters>306.22309271785</DistanceMeters>
          </Trackpoint>
          <Trackpoint>
            <Time>2020-05-25T04:29:14.000Z</Time>
            <Position>
              <LatitudeDegrees>38.01033019088208675384521484375</LatitudeDegrees>
              <LongitudeDegrees>-1.148653328418731689453125</LongitudeDegrees>
            </Position>
            <AltitudeMeters>72.40000152587890625</AltitudeMeters>
            <DistanceMeters>314.20929518984</DistanceMeters>
          </Trackpoint>
          <Trackpoint>
            <Time>2020-05-25T04:29:15.000Z</Time>
            <Position>
              <LatitudeDegrees>38.01027118228375911712646484375</LatitudeDegrees>
              <LongitudeDegrees>-1.148598678410053253173828125</LongitudeDegrees>
            </Position>
            <AltitudeMeters>72.40000152587890625</AltitudeMeters>
            <DistanceMeters>322.33949565292</DistanceMeters>
          </Trackpoint>
          <Trackpoint>
            <Time>2020-05-25T04:29:16.000Z</Time>
            <Position>
              <LatitudeDegrees>38.01027118228375911712646484375</LatitudeDegrees>
              <LongitudeDegrees>-1.148598678410053253173828125</LongitudeDegrees>
            </Position>
            <AltitudeMeters>72.40000152587890625</AltitudeMeters>
            <DistanceMeters>322.33949565292</DistanceMeters>
          </Trackpoint>
          <Trackpoint>
            <Time>2020-05-25T04:29:17.000Z</Time>
            <Position>
              <LatitudeDegrees>38.01015785895287990570068359375</LatitudeDegrees>
              <LongitudeDegrees>-1.1484845168888568878173828125</LongitudeDegrees>
            </Position>
            <AltitudeMeters>72.40000152587890625</AltitudeMeters>
            <DistanceMeters>338.44280913931</DistanceMeters>
          </Trackpoint>
          <Trackpoint>
            <Time>2020-05-25T04:29:18.000Z</Time>
            <Position>
              <LatitudeDegrees>38.010099940001964569091796875</LatitudeDegrees>
              <LongitudeDegrees>-1.14842760376632213592529296875</LongitudeDegrees>
            </Position>
            <AltitudeMeters>72.40000152587890625</AltitudeMeters>
            <DistanceMeters>346.59519300095</DistanceMeters>
          </Trackpoint>
          <Trackpoint>
            <Time>2020-05-25T04:29:19.000Z</Time>
            <Position>
              <LatitudeDegrees>38.0100421048700809478759765625</LatitudeDegrees>
              <LongitudeDegrees>-1.14837060682475566864013671875</LongitudeDegrees>
            </Position>
            <AltitudeMeters>72.40000152587890625</AltitudeMeters>
            <DistanceMeters>354.74536123981</DistanceMeters>
          </Trackpoint>
          <Trackpoint>
            <Time>2020-05-25T04:29:20.000Z</Time>
            <Position>
              <LatitudeDegrees>38.00998334772884845733642578125</LatitudeDegrees>
              <LongitudeDegrees>-1.14831260405480861663818359375</LongitudeDegrees>
            </Position>
            <AltitudeMeters>72.40000152587890625</AltitudeMeters>
            <DistanceMeters>363.03068809679</DistanceMeters>
          </Trackpoint>
          <Trackpoint>
            <Time>2020-05-25T04:29:21.000Z</Time>
            <Position>
              <LatitudeDegrees>38.00992031581699848175048828125</LatitudeDegrees>
              <LongitudeDegrees>-1.14825409837067127227783203125</LongitudeDegrees>
            </Position>
            <AltitudeMeters>72.40000152587890625</AltitudeMeters>
            <DistanceMeters>371.72238640783</DistanceMeters>
          </Trackpoint>
          <Trackpoint>
            <Time>2020-05-25T04:29:22.000Z</Time>
            <Position>
              <LatitudeDegrees>38.00992031581699848175048828125</LatitudeDegrees>
              <LongitudeDegrees>-1.14825409837067127227783203125</LongitudeDegrees>
            </Position>
            <AltitudeMeters>72.40000152587890625</AltitudeMeters>
            <DistanceMeters>371.72238640783</DistanceMeters>
          </Trackpoint>
          <Trackpoint>
            <Time>2020-05-25T04:29:23.000Z</Time>
            <Position>
              <LatitudeDegrees>38.009793497622013092041015625</LatitudeDegrees>
              <LongitudeDegrees>-1.14814043976366519927978515625</LongitudeDegrees>
            </Position>
            <AltitudeMeters>72.40000152587890625</AltitudeMeters>
            <DistanceMeters>389.00210016981</DistanceMeters>
          </Trackpoint>
          <Trackpoint>
            <Time>2020-05-25T04:29:24.000Z</Time>
            <Position>
              <LatitudeDegrees>38.0097313039004802703857421875</LatitudeDegrees>
              <LongitudeDegrees>-1.1480820178985595703125</LongitudeDegrees>
            </Position>
            <AltitudeMeters>72.40000152587890625</AltitudeMeters>
            <DistanceMeters>397.61395350311</DistanceMeters>
          </Trackpoint>
          <Trackpoint>
            <Time>2020-05-25T04:29:25.000Z</Time>
            <Position>
              <LatitudeDegrees>38.00966902635991573333740234375</LatitudeDegrees>
              <LongitudeDegrees>-1.14802292548120021820068359375</LongitudeDegrees>
            </Position>
            <AltitudeMeters>72.40000152587890625</AltitudeMeters>
            <DistanceMeters>406.26869117115</DistanceMeters>
          </Trackpoint>
          <Trackpoint>
            <Time>2020-05-25T04:29:26.000Z</Time>
            <Position>
              <LatitudeDegrees>38.00960616208612918853759765625</LatitudeDegrees>
              <LongitudeDegrees>-1.147964000701904296875</LongitudeDegrees>
            </Position>
            <AltitudeMeters>72.1999969482421875</AltitudeMeters>
            <DistanceMeters>414.96765896051</DistanceMeters>
          </Trackpoint>
          <Trackpoint>
            <Time>2020-05-25T04:29:27.000Z</Time>
            <Position>
              <LatitudeDegrees>38.00954229198396205902099609375</LatitudeDegrees>
              <LongitudeDegrees>-1.14790591411292552947998046875</LongitudeDegrees>
            </Position>
            <AltitudeMeters>72.1999969482421875</AltitudeMeters>
            <DistanceMeters>423.71373108214</DistanceMeters>
          </Trackpoint>
          <Trackpoint>
            <Time>2020-05-25T04:29:28.000Z</Time>
            <Position>
              <LatitudeDegrees>38.00954229198396205902099609375</LatitudeDegrees>
              <LongitudeDegrees>-1.14790591411292552947998046875</LongitudeDegrees>
            </Position>
            <AltitudeMeters>72.40000152587890625</AltitudeMeters>
            <DistanceMeters>423.71373108214</DistanceMeters>
          </Trackpoint>
          <Trackpoint>
            <Time>2020-05-25T04:29:29.000Z</Time>
            <Position>
              <LatitudeDegrees>38.00940901972353458404541015625</LatitudeDegrees>
              <LongitudeDegrees>-1.14779510535299777984619140625</LongitudeDegrees>
            </Position>
            <AltitudeMeters>72.1999969482421875</AltitudeMeters>
            <DistanceMeters>441.44684649045</DistanceMeters>
          </Trackpoint>
          <Trackpoint>
            <Time>2020-05-25T04:29:30.000Z</Time>
            <Position>
              <LatitudeDegrees>38.009340204298496246337890625</LatitudeDegrees>
              <LongitudeDegrees>-1.14774196408689022064208984375</LongitudeDegrees>
            </Position>
            <AltitudeMeters>72.1999969482421875</AltitudeMeters>
            <DistanceMeters>450.41315958896</DistanceMeters>
          </Trackpoint>
          <Trackpoint>
            <Time>2020-05-25T04:29:31.000Z</Time>
            <Position>
              <LatitudeDegrees>38.00927038304507732391357421875</LatitudeDegrees>
              <LongitudeDegrees>-1.14768815226852893829345703125</LongitudeDegrees>
            </Position>
            <AltitudeMeters>72.1999969482421875</AltitudeMeters>
            <DistanceMeters>459.50498667531</DistanceMeters>
          </Trackpoint>
          <Trackpoint>
            <Time>2020-05-25T04:29:32.000Z</Time>
            <Position>
              <LatitudeDegrees>38.00920064561069011688232421875</LatitudeDegrees>
              <LongitudeDegrees>-1.14763232879340648651123046875</LongitudeDegrees>
            </Position>
            <AltitudeMeters>72</AltitudeMeters>
            <DistanceMeters>468.68183215272</DistanceMeters>
          </Trackpoint>
          <Trackpoint>
            <Time>2020-05-25T04:29:33.000Z</Time>
            <Position>
              <LatitudeDegrees>38.0091318301856517791748046875</LatitudeDegrees>
              <LongitudeDegrees>-1.14757399074733257293701171875</LongitudeDegrees>
            </Position>
            <AltitudeMeters>72</AltitudeMeters>
            <DistanceMeters>477.89256329585</DistanceMeters>
          </Trackpoint>
          <Trackpoint>
            <Time>2020-05-25T04:29:34.000Z</Time>
            <Position>
              <LatitudeDegrees>38.0091318301856517791748046875</LatitudeDegrees>
              <LongitudeDegrees>-1.14757399074733257293701171875</LongitudeDegrees>
            </Position>
            <AltitudeMeters>71.8000030517578125</AltitudeMeters>
            <DistanceMeters>477.89256329585</DistanceMeters>
          </Trackpoint>
          <Trackpoint>
            <Time>2020-05-25T04:29:35.000Z</Time>
            <Position>
              <LatitudeDegrees>38.0089947022497653961181640625</LatitudeDegrees>
              <LongitudeDegrees>-1.14745236933231353759765625</LongitudeDegrees>
            </Position>
            <AltitudeMeters>71.8000030517578125</AltitudeMeters>
            <DistanceMeters>496.51246541668</DistanceMeters>
          </Trackpoint>
          <Trackpoint>
            <Time>2020-05-25T04:29:36.000Z</Time>
            <Position>
              <LatitudeDegrees>38.00892672501504421234130859375</LatitudeDegrees>
              <LongitudeDegrees>-1.14738858304917812347412109375</LongitudeDegrees>
            </Position>
            <AltitudeMeters>71.59999847412109375</AltitudeMeters>
            <DistanceMeters>505.92202967508</DistanceMeters>
          </Trackpoint>
          <Trackpoint>
            <Time>2020-05-25T04:29:37.000Z</Time>
            <Position>
              <LatitudeDegrees>38.00885849632322788238525390625</LatitudeDegrees>
              <LongitudeDegrees>-1.147323288023471832275390625</LongitudeDegrees>
            </Position>
            <AltitudeMeters>71.40000152587890625</AltitudeMeters>
            <DistanceMeters>515.43277495288</DistanceMeters>
          </Trackpoint>
          <Trackpoint>
            <Time>2020-05-25T04:29:38.000Z</Time>
            <Position>
              <LatitudeDegrees>38.00878926180303096771240234375</LatitudeDegrees>
              <LongitudeDegrees>-1.14725832827389240264892578125</LongitudeDegrees>
            </Position>
            <AltitudeMeters>71.1999969482421875</AltitudeMeters>
            <DistanceMeters>525.01587870036</DistanceMeters>
          </Trackpoint>
          <Trackpoint>
            <Time>2020-05-25T04:29:39.000Z</Time>
            <Position>
              <LatitudeDegrees>38.00872036255896091461181640625</LatitudeDegrees>
              <LongitudeDegrees>-1.1471928656101226806640625</LongitudeDegrees>
            </Position>
            <AltitudeMeters>71</AltitudeMeters>
            <DistanceMeters>534.59521254064</DistanceMeters>
          </Trackpoint>
          <Trackpoint>
            <Time>2020-05-25T04:29:40.000Z</Time>
            <Position>
              <LatitudeDegrees>38.00872036255896091461181640625</LatitudeDegrees>
              <LongitudeDegrees>-1.1471928656101226806640625</LongitudeDegrees>
            </Position>
            <AltitudeMeters>70.8000030517578125</AltitudeMeters>
            <DistanceMeters>534.59521254064</DistanceMeters>
          </Trackpoint>
          <Trackpoint>
            <Time>2020-05-25T04:29:41.000Z</Time>
            <Position>
              <LatitudeDegrees>38.0085823126137256622314453125</LatitudeDegrees>
              <LongitudeDegrees>-1.1470582522451877593994140625</LongitudeDegrees>
            </Position>
            <AltitudeMeters>70.8000030517578125</AltitudeMeters>
            <DistanceMeters>553.97157670708</DistanceMeters>
          </Trackpoint>
          <Trackpoint>
            <Time>2020-05-25T04:29:42.000Z</Time>
            <Position>
              <LatitudeDegrees>38.0085132457315921783447265625</LatitudeDegrees>
              <LongitudeDegrees>-1.1469901911914348602294921875</LongitudeDegrees>
            </Position>
            <AltitudeMeters>70.40000152587890625</AltitudeMeters>
            <DistanceMeters>563.70381549477</DistanceMeters>
          </Trackpoint>
          <Trackpoint>
            <Time>2020-05-25T04:29:43.000Z</Time>
            <Position>
              <LatitudeDegrees>38.00844493322074413299560546875</LatitudeDegrees>
              <LongitudeDegrees>-1.14692053757607936859130859375</LongitudeDegrees>
            </Position>
            <AltitudeMeters>70.1999969482421875</AltitudeMeters>
            <DistanceMeters>573.45690860725</DistanceMeters>
          </Trackpoint>
          <Trackpoint>
            <Time>2020-05-25T04:29:44.000Z</Time>
            <Position>
              <LatitudeDegrees>38.00837636925280094146728515625</LatitudeDegrees>
              <LongitudeDegrees>-1.14685021340847015380859375</LongitudeDegrees>
            </Position>
            <AltitudeMeters>70.1999969482421875</AltitudeMeters>
            <DistanceMeters>583.26907834923</DistanceMeters>
          </Trackpoint>
          <Trackpoint>
            <Time>2020-05-25T04:29:45.000Z</Time>
            <Position>
              <LatitudeDegrees>38.00837636925280094146728515625</LatitudeDegrees>
              <LongitudeDegrees>-1.14685021340847015380859375</LongitudeDegrees>
            </Position>
            <AltitudeMeters>69.59999847412109375</AltitudeMeters>
            <DistanceMeters>583.40346641748</DistanceMeters>
          </Trackpoint>
          <Trackpoint>
            <Time>2020-05-25T04:29:46.000Z</Time>
            <Position>
              <LatitudeDegrees>38.00830747000873088836669921875</LatitudeDegrees>
              <LongitudeDegrees>-1.14678055979311466217041015625</LongitudeDegrees>
            </Position>
            <AltitudeMeters>69.59999847412109375</AltitudeMeters>
            <DistanceMeters>593.20781054373</DistanceMeters>
          </Trackpoint>
          <Trackpoint>
            <Time>2020-05-25T04:29:47.000Z</Time>
            <Position>
              <LatitudeDegrees>38.00817084498703479766845703125</LatitudeDegrees>
              <LongitudeDegrees>-1.14663857035338878631591796875</LongitudeDegrees>
            </Position>
            <AltitudeMeters>69.59999847412109375</AltitudeMeters>
            <DistanceMeters>612.86249625153</DistanceMeters>
          </Trackpoint>
          <Trackpoint>
            <Time>2020-05-25T04:29:48.000Z</Time>
            <Position>
              <LatitudeDegrees>38.008103035390377044677734375</LatitudeDegrees>
              <LongitudeDegrees>-1.1465687490999698638916015625</LongitudeDegrees>
            </Position>
            <AltitudeMeters>69.1999969482421875</AltitudeMeters>
            <DistanceMeters>622.5812718742</DistanceMeters>
          </Trackpoint>
          <Trackpoint>
            <Time>2020-05-25T04:29:49.000Z</Time>
            <Position>
              <LatitudeDegrees>38.00803472287952899932861328125</LatitudeDegrees>
              <LongitudeDegrees>-1.1464990116655826568603515625</LongitudeDegrees>
            </Position>
            <AltitudeMeters>69.1999969482421875</AltitudeMeters>
            <DistanceMeters>632.33853050297</DistanceMeters>
          </Trackpoint>
          <Trackpoint>
            <Time>2020-05-25T04:29:50.000Z</Time>
            <Position>
              <LatitudeDegrees>38.00796515308320522308349609375</LatitudeDegrees>
              <LongitudeDegrees>-1.14642969332635402679443359375</LongitudeDegrees>
            </Position>
            <AltitudeMeters>69</AltitudeMeters>
            <DistanceMeters>642.18285782364</DistanceMeters>
          </Trackpoint>
          <Trackpoint>
            <Time>2020-05-25T04:29:51.000Z</Time>
            <Position>
              <LatitudeDegrees>38.00796515308320522308349609375</LatitudeDegrees>
              <LongitudeDegrees>-1.14642969332635402679443359375</LongitudeDegrees>
            </Position>
            <AltitudeMeters>69</AltitudeMeters>
            <DistanceMeters>642.31724589189</DistanceMeters>
          </Trackpoint>
          <Trackpoint>
            <Time>2020-05-25T04:29:52.000Z</Time>
            <Position>
              <LatitudeDegrees>38.00789675675332546234130859375</LatitudeDegrees>
              <LongitudeDegrees>-1.14635895006358623504638671875</LongitudeDegrees>
            </Position>
            <AltitudeMeters>68.59999847412109375</AltitudeMeters>
            <DistanceMeters>652.13861425757</DistanceMeters>
          </Trackpoint>
          <Trackpoint>
            <Time>2020-05-25T04:29:53.000Z</Time>
            <Position>
              <LatitudeDegrees>38.00776113756000995635986328125</LatitudeDegrees>
              <LongitudeDegrees>-1.14621587097644805908203125</LongitudeDegrees>
            </Position>
            <AltitudeMeters>68.40000152587890625</AltitudeMeters>
            <DistanceMeters>671.76778468801</DistanceMeters>
          </Trackpoint>
          <Trackpoint>
            <Time>2020-05-25T04:29:54.000Z</Time>
            <Position>
              <LatitudeDegrees>38.00769240595400333404541015625</LatitudeDegrees>
              <LongitudeDegrees>-1.146145798265933990478515625</LongitudeDegrees>
            </Position>
            <AltitudeMeters>68.40000152587890625</AltitudeMeters>
            <DistanceMeters>681.58087468038</DistanceMeters>
          </Trackpoint>
          <Trackpoint>
            <Time>2020-05-25T04:29:55.000Z</Time>
            <Position>
              <LatitudeDegrees>38.007623255252838134765625</LatitudeDegrees>
              <LongitudeDegrees>-1.14607564173638820648193359375</LongitudeDegrees>
            </Position>
            <AltitudeMeters>68</AltitudeMeters>
            <DistanceMeters>691.43437060444</DistanceMeters>
          </Trackpoint>
          <Trackpoint>
            <Time>2020-05-25T04:29:56.000Z</Time>
            <Position>
              <LatitudeDegrees>38.00755410455167293548583984375</LatitudeDegrees>
              <LongitudeDegrees>-1.14600456319749355316162109375</LongitudeDegrees>
            </Position>
            <AltitudeMeters>67.8000030517578125</AltitudeMeters>
            <DistanceMeters>701.33905386475</DistanceMeters>
          </Trackpoint>
          <Trackpoint>
            <Time>2020-05-25T04:29:57.000Z</Time>
            <Position>
              <LatitudeDegrees>38.007483780384063720703125</LatitudeDegrees>
              <LongitudeDegrees>-1.14593365229666233062744140625</LongitudeDegrees>
            </Position>
            <AltitudeMeters>67.59999847412109375</AltitudeMeters>
            <DistanceMeters>711.33584615055</DistanceMeters>
          </Trackpoint>
          <Trackpoint>
            <Time>2020-05-25T04:29:58.000Z</Time>
            <Position>
              <LatitudeDegrees>38.007483780384063720703125</LatitudeDegrees>
              <LongitudeDegrees>-1.14593365229666233062744140625</LongitudeDegrees>
            </Position>
            <AltitudeMeters>67.40000152587890625</AltitudeMeters>
            <DistanceMeters>NAN</DistanceMeters>
          </Trackpoint>
          <Trackpoint>
            <Time>2020-05-25T04:29:59.000Z</Time>
            <Position>
              <LatitudeDegrees>38.00734606571495532989501953125</LatitudeDegrees>
              <LongitudeDegrees>-1.1457922495901584625244140625</LongitudeDegrees>
            </Position>
            <AltitudeMeters>67</AltitudeMeters>
            <DistanceMeters>NAN</DistanceMeters>
          </Trackpoint>
          <Trackpoint>
            <Time>2020-05-25T04:30:00.000Z</Time>
            <Position>
              <LatitudeDegrees>38.00727657973766326904296875</LatitudeDegrees>
              <LongitudeDegrees>-1.14572209306061267852783203125</LongitudeDegrees>
            </Position>
            <AltitudeMeters>67</AltitudeMeters>
            <DistanceMeters>NAN</DistanceMeters>
          </Trackpoint>
          <Trackpoint>
            <Time>2020-05-25T04:30:01.000Z</Time>
            <Position>
              <LatitudeDegrees>38.00720692612230777740478515625</LatitudeDegrees>
              <LongitudeDegrees>-1.14565218798816204071044921875</LongitudeDegrees>
            </Position>
            <AltitudeMeters>66.8000030517578125</AltitudeMeters>
            <DistanceMeters>NAN</DistanceMeters>
          </Trackpoint>
          <Trackpoint>
            <Time>2020-05-25T04:30:02.000Z</Time>
            <Position>
              <LatitudeDegrees>38.00713702104985713958740234375</LatitudeDegrees>
              <LongitudeDegrees>-1.14558228291571140289306640625</LongitudeDegrees>
            </Position>
            <AltitudeMeters>66.8000030517578125</AltitudeMeters>
            <DistanceMeters>NAN</DistanceMeters>
          </Trackpoint>
          <Trackpoint>
            <Time>2020-05-25T04:30:03.000Z</Time>
            <Position>
              <LatitudeDegrees>38.00713702104985713958740234375</LatitudeDegrees>
              <LongitudeDegrees>-1.14558228291571140289306640625</LongitudeDegrees>
            </Position>
            <AltitudeMeters>66.59999847412109375</AltitudeMeters>
            <DistanceMeters>NAN</DistanceMeters>
          </Trackpoint>
          <Trackpoint>
            <Time>2020-05-25T04:30:04.000Z</Time>
            <Position>
              <LatitudeDegrees>38.00706745125353336334228515625</LatitudeDegrees>
              <LongitudeDegrees>-1.145513467490673065185546875</LongitudeDegrees>
            </Position>
            <AltitudeMeters>66.40000152587890625</AltitudeMeters>
            <DistanceMeters>NAN</DistanceMeters>
          </Trackpoint>
          <Trackpoint>
            <Time>2020-05-25T04:30:05.000Z</Time>
            <Position>
              <LatitudeDegrees>38.0069983005523681640625</LatitudeDegrees>
              <LongitudeDegrees>-1.145445741713047027587890625</LongitudeDegrees>
            </Position>
            <AltitudeMeters>66.1999969482421875</AltitudeMeters>
            <DistanceMeters>NAN</DistanceMeters>
          </Trackpoint>
          <Trackpoint>
            <Time>2020-05-25T04:30:06.000Z</Time>
            <Position>
              <LatitudeDegrees>38.00686393864452838897705078125</LatitudeDegrees>
              <LongitudeDegrees>-1.1453188396990299224853515625</LongitudeDegrees>
            </Position>
            <AltitudeMeters>66.40000152587890625</AltitudeMeters>
            <DistanceMeters>NAN</DistanceMeters>
          </Trackpoint>
          <Trackpoint>
            <Time>2020-05-25T04:30:07.000Z</Time>
            <Position>
              <LatitudeDegrees>38.00686393864452838897705078125</LatitudeDegrees>
              <LongitudeDegrees>-1.1453188396990299224853515625</LongitudeDegrees>
            </Position>
            <AltitudeMeters>66</AltitudeMeters>
            <DistanceMeters>NAN</DistanceMeters>
          </Trackpoint>
          <Trackpoint>
            <Time>2020-05-25T04:30:08.000Z</Time>
            <Position>
              <LatitudeDegrees>38.006727397441864013671875</LatitudeDegrees>
              <LongitudeDegrees>-1.14521716721355915069580078125</LongitudeDegrees>
            </Position>
            <AltitudeMeters>65.8000030517578125</AltitudeMeters>
            <DistanceMeters>NAN</DistanceMeters>
          </Trackpoint>
          <Trackpoint>
            <Time>2020-05-25T04:30:09.000Z</Time>
            <Position>
              <LatitudeDegrees>38.006727397441864013671875</LatitudeDegrees>
              <LongitudeDegrees>-1.14521716721355915069580078125</LongitudeDegrees>
            </Position>
            <AltitudeMeters>65.59999847412109375</AltitudeMeters>
            <DistanceMeters>NAN</DistanceMeters>
          </Trackpoint>
          <Trackpoint>
            <Time>2020-05-25T04:30:10.000Z</Time>
            <Position>
              <LatitudeDegrees>38.00665254704654216766357421875</LatitudeDegrees>
              <LongitudeDegrees>-1.14519126713275909423828125</LongitudeDegrees>
            </Position>
            <AltitudeMeters>65.59999847412109375</AltitudeMeters>
            <DistanceMeters>NAN</DistanceMeters>
          </Trackpoint>
          <Trackpoint>
            <Time>2020-05-25T04:30:11.000Z</Time>
            <Position>
              <LatitudeDegrees>38.00657794810831546783447265625</LatitudeDegrees>
              <LongitudeDegrees>-1.145172156393527984619140625</LongitudeDegrees>
            </Position>
            <AltitudeMeters>65.40000152587890625</AltitudeMeters>
            <DistanceMeters>NAN</DistanceMeters>
          </Trackpoint>
          <Trackpoint>
            <Time>2020-05-25T04:30:12.000Z</Time>
            <Position>
              <LatitudeDegrees>38.0064281634986400604248046875</LatitudeDegrees>
              <LongitudeDegrees>-1.145124547183513641357421875</LongitudeDegrees>
            </Position>
            <AltitudeMeters>65.1999969482421875</AltitudeMeters>
            <DistanceMeters>NAN</DistanceMeters>
          </Trackpoint>
          <Trackpoint>
            <Time>2020-05-25T04:30:13.000Z</Time>
            <Position>
              <LatitudeDegrees>38.0064281634986400604248046875</LatitudeDegrees>
              <LongitudeDegrees>-1.145124547183513641357421875</LongitudeDegrees>
            </Position>
            <AltitudeMeters>65</AltitudeMeters>
            <DistanceMeters>NAN</DistanceMeters>
          </Trackpoint>
          <Trackpoint>
            <Time>2020-05-25T04:30:14.000Z</Time>
            <Position>
              <LatitudeDegrees>38.00628558732569217681884765625</LatitudeDegrees>
              <LongitudeDegrees>-1.14503578282892704010009765625</LongitudeDegrees>
            </Position>
            <AltitudeMeters>64.8000030517578125</AltitudeMeters>
            <DistanceMeters>NAN</DistanceMeters>
          </Trackpoint>
          <Trackpoint>
            <Time>2020-05-25T04:30:15.000Z</Time>
            <Position>
              <LatitudeDegrees>38.00628558732569217681884765625</LatitudeDegrees>
              <LongitudeDegrees>-1.14503578282892704010009765625</LongitudeDegrees>
            </Position>
            <AltitudeMeters>64.8000030517578125</AltitudeMeters>
            <DistanceMeters>NAN</DistanceMeters>
          </Trackpoint>
          <Trackpoint>
            <Time>2020-05-25T04:30:16.000Z</Time>
            <Position>
              <LatitudeDegrees>38.00622389651834964752197265625</LatitudeDegrees>
              <LongitudeDegrees>-1.14497358910739421844482421875</LongitudeDegrees>
            </Position>
            <AltitudeMeters>64.8000030517578125</AltitudeMeters>
            <DistanceMeters>NAN</DistanceMeters>
          </Trackpoint>
          <Trackpoint>
            <Time>2020-05-25T04:30:17.000Z</Time>
            <Position>
              <LatitudeDegrees>38.0061708390712738037109375</LatitudeDegrees>
              <LongitudeDegrees>-1.14490133710205554962158203125</LongitudeDegrees>
            </Position>
            <AltitudeMeters>64.8000030517578125</AltitudeMeters>
            <DistanceMeters>NAN</DistanceMeters>
          </Trackpoint>
          <Trackpoint>
            <Time>2020-05-25T04:30:18.000Z</Time>
            <Position>
              <LatitudeDegrees>38.00608123652637004852294921875</LatitudeDegrees>
              <LongitudeDegrees>-1.14473671652376651763916015625</LongitudeDegrees>
            </Position>
            <AltitudeMeters>64.59999847412109375</AltitudeMeters>
            <DistanceMeters>NAN</DistanceMeters>
          </Trackpoint>
          <Trackpoint>
            <Time>2020-05-25T04:30:19.000Z</Time>
            <Position>
              <LatitudeDegrees>38.00608123652637004852294921875</LatitudeDegrees>
              <LongitudeDegrees>-1.14473671652376651763916015625</LongitudeDegrees>
            </Position>
            <AltitudeMeters>64.59999847412109375</AltitudeMeters>
            <DistanceMeters>NAN</DistanceMeters>
          </Trackpoint>
          <Trackpoint>
            <Time>2020-05-25T04:30:20.000Z</Time>
            <Position>
              <LatitudeDegrees>38.00599842332303524017333984375</LatitudeDegrees>
              <LongitudeDegrees>-1.1445577628910541534423828125</LongitudeDegrees>
            </Position>
            <AltitudeMeters>64.40000152587890625</AltitudeMeters>
            <DistanceMeters>NAN</DistanceMeters>
          </Trackpoint>
          <Trackpoint>
            <Time>2020-05-25T04:30:21.000Z</Time>
            <Position>
              <LatitudeDegrees>38.00599842332303524017333984375</LatitudeDegrees>
              <LongitudeDegrees>-1.1445577628910541534423828125</LongitudeDegrees>
            </Position>
            <AltitudeMeters>64.1999969482421875</AltitudeMeters>
            <DistanceMeters>NAN</DistanceMeters>
          </Trackpoint>
          <Trackpoint>
            <Time>2020-05-25T04:30:22.000Z</Time>
            <Position>
              <LatitudeDegrees>38.00595450215041637420654296875</LatitudeDegrees>
              <LongitudeDegrees>-1.14446799270808696746826171875</LongitudeDegrees>
            </Position>
            <AltitudeMeters>64</AltitudeMeters>
            <DistanceMeters>NAN</DistanceMeters>
          </Trackpoint>
          <Trackpoint>
            <Time>2020-05-25T04:30:23.000Z</Time>
            <Position>
              <LatitudeDegrees>38.0059078149497509002685546875</LatitudeDegrees>
              <LongitudeDegrees>-1.14438031800091266632080078125</LongitudeDegrees>
            </Position>
            <AltitudeMeters>64.1999969482421875</AltitudeMeters>
            <DistanceMeters>NAN</DistanceMeters>
          </Trackpoint>
          <Trackpoint>
            <Time>2020-05-25T04:30:24.000Z</Time>
            <Position>
              <LatitudeDegrees>38.00580463372170925140380859375</LatitudeDegrees>
              <LongitudeDegrees>-1.14421452395617961883544921875</LongitudeDegrees>
            </Position>
            <AltitudeMeters>64</AltitudeMeters>
            <DistanceMeters>NAN</DistanceMeters>
          </Trackpoint>
          <Trackpoint>
            <Time>2020-05-25T04:30:25.000Z</Time>
            <Position>
              <LatitudeDegrees>38.00580463372170925140380859375</LatitudeDegrees>
              <LongitudeDegrees>-1.14421452395617961883544921875</LongitudeDegrees>
            </Position>
            <AltitudeMeters>64</AltitudeMeters>
            <DistanceMeters>NAN</DistanceMeters>
          </Trackpoint>
          <Trackpoint>
            <Time>2020-05-25T04:30:26.000Z</Time>
            <Position>
              <LatitudeDegrees>38.0056808330118656158447265625</LatitudeDegrees>
              <LongitudeDegrees>-1.14407144486904144287109375</LongitudeDegrees>
            </Position>
            <AltitudeMeters>64</AltitudeMeters>
            <DistanceMeters>NAN</DistanceMeters>
          </Trackpoint>
          <Trackpoint>
            <Time>2020-05-25T04:30:27.000Z</Time>
            <Position>
              <LatitudeDegrees>38.0056808330118656158447265625</LatitudeDegrees>
              <LongitudeDegrees>-1.14407144486904144287109375</LongitudeDegrees>
            </Position>
            <AltitudeMeters>63.799999237060546875</AltitudeMeters>
            <DistanceMeters>NAN</DistanceMeters>
          </Trackpoint>
          <Trackpoint>
            <Time>2020-05-25T04:30:28.000Z</Time>
            <Position>
              <LatitudeDegrees>38.00561428070068359375</LatitudeDegrees>
              <LongitudeDegrees>-1.14400765858590602874755859375</LongitudeDegrees>
            </Position>
            <AltitudeMeters>63.59999847412109375</AltitudeMeters>
            <DistanceMeters>NAN</DistanceMeters>
          </Trackpoint>
          <Trackpoint>
            <Time>2020-05-25T04:30:29.000Z</Time>
            <Position>
              <LatitudeDegrees>38.00554655492305755615234375</LatitudeDegrees>
              <LongitudeDegrees>-1.14394479431211948394775390625</LongitudeDegrees>
            </Position>
            <AltitudeMeters>63.59999847412109375</AltitudeMeters>
            <DistanceMeters>NAN</DistanceMeters>
          </Trackpoint>
          <Trackpoint>
            <Time>2020-05-25T04:30:30.000Z</Time>
            <Position>
              <LatitudeDegrees>38.00541269592940807342529296875</LatitudeDegrees>
              <LongitudeDegrees>-1.14381588064134120941162109375</LongitudeDegrees>
            </Position>
            <AltitudeMeters>63.40000152587890625</AltitudeMeters>
            <DistanceMeters>NAN</DistanceMeters>
          </Trackpoint>
          <Trackpoint>
            <Time>2020-05-25T04:30:31.000Z</Time>
            <Position>
              <LatitudeDegrees>38.00541269592940807342529296875</LatitudeDegrees>
              <LongitudeDegrees>-1.14381588064134120941162109375</LongitudeDegrees>
            </Position>
            <AltitudeMeters>63.200000762939453125</AltitudeMeters>
            <DistanceMeters>NAN</DistanceMeters>
          </Trackpoint>
          <Trackpoint>
            <Time>2020-05-25T04:30:32.000Z</Time>
            <Position>
              <LatitudeDegrees>38.00528093241155147552490234375</LatitudeDegrees>
              <LongitudeDegrees>-1.14368428476154804229736328125</LongitudeDegrees>
            </Position>
            <AltitudeMeters>63</AltitudeMeters>
            <DistanceMeters>NAN</DistanceMeters>
          </Trackpoint>
          <Trackpoint>
            <Time>2020-05-25T04:30:33.000Z</Time>
            <Position>
              <LatitudeDegrees>38.00528093241155147552490234375</LatitudeDegrees>
              <LongitudeDegrees>-1.14368428476154804229736328125</LongitudeDegrees>
            </Position>
            <AltitudeMeters>62.799999237060546875</AltitudeMeters>
            <DistanceMeters>NAN</DistanceMeters>
          </Trackpoint>
          <Trackpoint>
            <Time>2020-05-25T04:30:34.000Z</Time>
            <Position>
              <LatitudeDegrees>38.0052154697477817535400390625</LatitudeDegrees>
              <LongitudeDegrees>-1.1436186544597148895263671875</LongitudeDegrees>
            </Position>
            <AltitudeMeters>62.59999847412109375</AltitudeMeters>
            <DistanceMeters>NAN</DistanceMeters>
          </Trackpoint>
          <Trackpoint>
            <Time>2020-05-25T04:30:35.000Z</Time>
            <Position>
              <LatitudeDegrees>38.00514866597950458526611328125</LatitudeDegrees>
              <LongitudeDegrees>-1.1435557901859283447265625</LongitudeDegrees>
            </Position>
            <AltitudeMeters>62.59999847412109375</AltitudeMeters>
            <DistanceMeters>NAN</DistanceMeters>
          </Trackpoint>
          <Trackpoint>
            <Time>2020-05-25T04:30:36.000Z</Time>
            <Position>
              <LatitudeDegrees>38.00500449724495410919189453125</LatitudeDegrees>
              <LongitudeDegrees>-1.14345143549144268035888671875</LongitudeDegrees>
            </Position>
            <AltitudeMeters>62.59999847412109375</AltitudeMeters>
            <DistanceMeters>NAN</DistanceMeters>
          </Trackpoint>
          <Trackpoint>
            <Time>2020-05-25T04:30:37.000Z</Time>
            <Position>
              <LatitudeDegrees>38.00500449724495410919189453125</LatitudeDegrees>
              <LongitudeDegrees>-1.14345143549144268035888671875</LongitudeDegrees>
            </Position>
            <AltitudeMeters>62.40000152587890625</AltitudeMeters>
            <DistanceMeters>NAN</DistanceMeters>
          </Trackpoint>
          <Trackpoint>
            <Time>2020-05-25T04:30:38.000Z</Time>
            <Position>
              <LatitudeDegrees>38.0048543773591518402099609375</LatitudeDegrees>
              <LongitudeDegrees>-1.143360994756221771240234375</LongitudeDegrees>
            </Position>
            <AltitudeMeters>62.40000152587890625</AltitudeMeters>
            <DistanceMeters>NAN</DistanceMeters>
          </Trackpoint>
          <Trackpoint>
            <Time>2020-05-25T04:30:39.000Z</Time>
            <Position>
              <LatitudeDegrees>38.0048543773591518402099609375</LatitudeDegrees>
              <LongitudeDegrees>-1.143360994756221771240234375</LongitudeDegrees>
            </Position>
            <AltitudeMeters>62.40000152587890625</AltitudeMeters>
            <DistanceMeters>NAN</DistanceMeters>
          </Trackpoint>
          <Trackpoint>
            <Time>2020-05-25T04:30:40.000Z</Time>
            <Position>
              <LatitudeDegrees>38.004786483943462371826171875</LatitudeDegrees>
              <LongitudeDegrees>-1.14330089651048183441162109375</LongitudeDegrees>
            </Position>
            <AltitudeMeters>62.200000762939453125</AltitudeMeters>
            <DistanceMeters>NAN</DistanceMeters>
          </Trackpoint>
          <Trackpoint>
            <Time>2020-05-25T04:30:41.000Z</Time>
            <Position>
              <LatitudeDegrees>38.004726469516754150390625</LatitudeDegrees>
              <LongitudeDegrees>-1.14323065616190433502197265625</LongitudeDegrees>
            </Position>
            <AltitudeMeters>62</AltitudeMeters>
            <DistanceMeters>NAN</DistanceMeters>
          </Trackpoint>
          <Trackpoint>
            <Time>2020-05-25T04:30:42.000Z</Time>
            <Position>
              <LatitudeDegrees>38.00461993552744388580322265625</LatitudeDegrees>
              <LongitudeDegrees>-1.1430688016116619110107421875</LongitudeDegrees>
            </Position>
            <AltitudeMeters>61.799999237060546875</AltitudeMeters>
            <DistanceMeters>NAN</DistanceMeters>
          </Trackpoint>
          <Trackpoint>
            <Time>2020-05-25T04:30:43.000Z</Time>
            <Position>
              <LatitudeDegrees>38.00461993552744388580322265625</LatitudeDegrees>
              <LongitudeDegrees>-1.1430688016116619110107421875</LongitudeDegrees>
            </Position>
            <AltitudeMeters>61.799999237060546875</AltitudeMeters>
            <DistanceMeters>NAN</DistanceMeters>
          </Trackpoint>
          <Trackpoint>
            <Time>2020-05-25T04:30:44.000Z</Time>
            <Position>
              <LatitudeDegrees>38.0045105516910552978515625</LatitudeDegrees>
              <LongitudeDegrees>-1.142907030880451202392578125</LongitudeDegrees>
            </Position>
            <AltitudeMeters>61.59999847412109375</AltitudeMeters>
            <DistanceMeters>NAN</DistanceMeters>
          </Trackpoint>
          <Trackpoint>
            <Time>2020-05-25T04:30:45.000Z</Time>
            <Position>
              <LatitudeDegrees>38.0045105516910552978515625</LatitudeDegrees>
              <LongitudeDegrees>-1.142907030880451202392578125</LongitudeDegrees>
            </Position>
            <AltitudeMeters>61.59999847412109375</AltitudeMeters>
            <DistanceMeters>NAN</DistanceMeters>
          </Trackpoint>
          <Trackpoint>
            <Time>2020-05-25T04:30:46.000Z</Time>
            <Position>
              <LatitudeDegrees>38.00444760359823703765869140625</LatitudeDegrees>
              <LongitudeDegrees>-1.1428367905318737030029296875</LongitudeDegrees>
            </Position>
            <AltitudeMeters>61.40000152587890625</AltitudeMeters>
            <DistanceMeters>NAN</DistanceMeters>
          </Trackpoint>
          <Trackpoint>
            <Time>2020-05-25T04:30:47.000Z</Time>
            <Position>
              <LatitudeDegrees>38.0043147504329681396484375</LatitudeDegrees>
              <LongitudeDegrees>-1.1427063681185245513916015625</LongitudeDegrees>
            </Position>
            <AltitudeMeters>61.59999847412109375</AltitudeMeters>
            <DistanceMeters>NAN</DistanceMeters>
          </Trackpoint>
          <Trackpoint>
            <Time>2020-05-25T04:30:48.000Z</Time>
            <Position>
              <LatitudeDegrees>38.00424828194081783294677734375</LatitudeDegrees>
              <LongitudeDegrees>-1.1426403187215328216552734375</LongitudeDegrees>
            </Position>
            <AltitudeMeters>61.40000152587890625</AltitudeMeters>
            <DistanceMeters>NAN</DistanceMeters>
          </Trackpoint>
          <Trackpoint>
            <Time>2020-05-25T04:30:49.000Z</Time>
            <Position>
              <LatitudeDegrees>38.00418022088706493377685546875</LatitudeDegrees>
              <LongitudeDegrees>-1.14257502369582653045654296875</LongitudeDegrees>
            </Position>
            <AltitudeMeters>61.200000762939453125</AltitudeMeters>
            <DistanceMeters>NAN</DistanceMeters>
          </Trackpoint>
          <Trackpoint>
            <Time>2020-05-25T04:30:50.000Z</Time>
            <Position>
              <LatitudeDegrees>38.004111237823963165283203125</LatitudeDegrees>
              <LongitudeDegrees>-1.1425098963081836700439453125</LongitudeDegrees>
            </Position>
            <AltitudeMeters>61</AltitudeMeters>
            <DistanceMeters>NAN</DistanceMeters>
          </Trackpoint>
          <Trackpoint>
            <Time>2020-05-25T04:30:51.000Z</Time>
            <Position>
              <LatitudeDegrees>38.004111237823963165283203125</LatitudeDegrees>
              <LongitudeDegrees>-1.1425098963081836700439453125</LongitudeDegrees>
            </Position>
            <AltitudeMeters>60.799999237060546875</AltitudeMeters>
            <DistanceMeters>NAN</DistanceMeters>
          </Trackpoint>
          <Trackpoint>
            <Time>2020-05-25T04:30:52.000Z</Time>
            <Position>
              <LatitudeDegrees>38.00404275767505168914794921875</LatitudeDegrees>
              <LongitudeDegrees>-1.142445020377635955810546875</LongitudeDegrees>
            </Position>
            <AltitudeMeters>60.799999237060546875</AltitudeMeters>
            <DistanceMeters>NAN</DistanceMeters>
          </Trackpoint>
          <Trackpoint>
            <Time>2020-05-25T04:30:53.000Z</Time>
            <Position>
              <LatitudeDegrees>38.00397318787872791290283203125</LatitudeDegrees>
              <LongitudeDegrees>-1.14238006062805652618408203125</LongitudeDegrees>
            </Position>
            <AltitudeMeters>60.59999847412109375</AltitudeMeters>
            <DistanceMeters>NAN</DistanceMeters>
          </Trackpoint>
          <Trackpoint>
            <Time>2020-05-25T04:30:54.000Z</Time>
            <Position>
              <LatitudeDegrees>38.00384075380861759185791015625</LatitudeDegrees>
              <LongitudeDegrees>-1.1422453634440898895263671875</LongitudeDegrees>
            </Position>
            <AltitudeMeters>60.59999847412109375</AltitudeMeters>
            <DistanceMeters>NAN</DistanceMeters>
          </Trackpoint>
          <Trackpoint>
            <Time>2020-05-25T04:30:55.000Z</Time>
            <Position>
              <LatitudeDegrees>38.00377822481095790863037109375</LatitudeDegrees>
              <LongitudeDegrees>-1.14217671565711498260498046875</LongitudeDegrees>
            </Position>
            <AltitudeMeters>60.59999847412109375</AltitudeMeters>
            <DistanceMeters>NAN</DistanceMeters>
          </Trackpoint>
          <Trackpoint>
            <Time>2020-05-25T04:30:56.000Z</Time>
            <Position>
              <LatitudeDegrees>38.00371552817523479461669921875</LatitudeDegrees>
              <LongitudeDegrees>-1.14210714586079120635986328125</LongitudeDegrees>
            </Position>
            <AltitudeMeters>60.40000152587890625</AltitudeMeters>
            <DistanceMeters>NAN</DistanceMeters>
          </Trackpoint>
          <Trackpoint>
            <Time>2020-05-25T04:30:57.000Z</Time>
            <Position>
              <LatitudeDegrees>38.00365350209176540374755859375</LatitudeDegrees>
              <LongitudeDegrees>-1.14203698933124542236328125</LongitudeDegrees>
            </Position>
            <AltitudeMeters>60.40000152587890625</AltitudeMeters>
            <DistanceMeters>NAN</DistanceMeters>
          </Trackpoint>
          <Trackpoint>
            <Time>2020-05-25T04:30:58.000Z</Time>
            <Position>
              <LatitudeDegrees>38.00365350209176540374755859375</LatitudeDegrees>
              <LongitudeDegrees>-1.14203698933124542236328125</LongitudeDegrees>
            </Position>
            <AltitudeMeters>60.40000152587890625</AltitudeMeters>
            <DistanceMeters>NAN</DistanceMeters>
          </Trackpoint>
          <Trackpoint>
            <Time>2020-05-25T04:30:59.000Z</Time>
            <Position>
              <LatitudeDegrees>38.00358929671347141265869140625</LatitudeDegrees>
              <LongitudeDegrees>-1.14196884445846080780029296875</LongitudeDegrees>
            </Position>
            <AltitudeMeters>60.200000762939453125</AltitudeMeters>
            <DistanceMeters>NAN</DistanceMeters>
          </Trackpoint>
          <Trackpoint>
            <Time>2020-05-25T04:31:00.000Z</Time>
            <Position>
              <LatitudeDegrees>38.0034596286714076995849609375</LatitudeDegrees>
              <LongitudeDegrees>-1.1418349854648113250732421875</LongitudeDegrees>
            </Position>
            <AltitudeMeters>60</AltitudeMeters>
            <DistanceMeters>NAN</DistanceMeters>
          </Trackpoint>
          <Trackpoint>
            <Time>2020-05-25T04:31:01.000Z</Time>
            <Position>
              <LatitudeDegrees>38.0034596286714076995849609375</LatitudeDegrees>
              <LongitudeDegrees>-1.1418349854648113250732421875</LongitudeDegrees>
            </Position>
            <AltitudeMeters>60</AltitudeMeters>
            <DistanceMeters>NAN</DistanceMeters>
          </Trackpoint>
          <Trackpoint>
            <Time>2020-05-25T04:31:02.000Z</Time>
            <Position>
              <LatitudeDegrees>38.003331720829010009765625</LatitudeDegrees>
              <LongitudeDegrees>-1.14170179702341556549072265625</LongitudeDegrees>
            </Position>
            <AltitudeMeters>60</AltitudeMeters>
            <DistanceMeters>NAN</DistanceMeters>
          </Trackpoint>
          <Trackpoint>
            <Time>2020-05-25T04:31:03.000Z</Time>
            <Position>
              <LatitudeDegrees>38.003331720829010009765625</LatitudeDegrees>
              <LongitudeDegrees>-1.14170179702341556549072265625</LongitudeDegrees>
            </Position>
            <AltitudeMeters>60</AltitudeMeters>
            <DistanceMeters>NAN</DistanceMeters>
          </Trackpoint>
          <Trackpoint>
            <Time>2020-05-25T04:31:04.000Z</Time>
            <Position>
              <LatitudeDegrees>38.00327011384069919586181640625</LatitudeDegrees>
              <LongitudeDegrees>-1.14163465797901153564453125</LongitudeDegrees>
            </Position>
            <AltitudeMeters>59.799999237060546875</AltitudeMeters>
            <DistanceMeters>NAN</DistanceMeters>
          </Trackpoint>
          <Trackpoint>
            <Time>2020-05-25T04:31:05.000Z</Time>
            <Position>
              <LatitudeDegrees>38.00320691429078578948974609375</LatitudeDegrees>
              <LongitudeDegrees>-1.14156760275363922119140625</LongitudeDegrees>
            </Position>
            <AltitudeMeters>59.799999237060546875</AltitudeMeters>
            <DistanceMeters>NAN</DistanceMeters>
          </Trackpoint>
          <Trackpoint>
            <Time>2020-05-25T04:31:06.000Z</Time>
            <Position>
              <LatitudeDegrees>38.0030834488570690155029296875</LatitudeDegrees>
              <LongitudeDegrees>-1.14143156446516513824462890625</LongitudeDegrees>
            </Position>
            <AltitudeMeters>59.799999237060546875</AltitudeMeters>
            <DistanceMeters>NAN</DistanceMeters>
          </Trackpoint>
          <Trackpoint>
            <Time>2020-05-25T04:31:07.000Z</Time>
            <Position>
              <LatitudeDegrees>38.00302033312618732452392578125</LatitudeDegrees>
              <LongitudeDegrees>-1.14136752672493457794189453125</LongitudeDegrees>
            </Position>
            <AltitudeMeters>59.799999237060546875</AltitudeMeters>
            <DistanceMeters>NAN</DistanceMeters>
          </Trackpoint>
          <Trackpoint>
            <Time>2020-05-25T04:31:08.000Z</Time>
            <Position>
              <LatitudeDegrees>38.00295646302402019500732421875</LatitudeDegrees>
              <LongitudeDegrees>-1.14130399189889430999755859375</LongitudeDegrees>
            </Position>
            <AltitudeMeters>59.799999237060546875</AltitudeMeters>
            <DistanceMeters>NAN</DistanceMeters>
          </Trackpoint>
          <Trackpoint>
            <Time>2020-05-25T04:31:09.000Z</Time>
            <Position>
              <LatitudeDegrees>38.00295646302402019500732421875</LatitudeDegrees>
              <LongitudeDegrees>-1.14130399189889430999755859375</LongitudeDegrees>
            </Position>
            <AltitudeMeters>59.799999237060546875</AltitudeMeters>
            <DistanceMeters>NAN</DistanceMeters>
          </Trackpoint>
          <Trackpoint>
            <Time>2020-05-25T04:31:10.000Z</Time>
            <Position>
              <LatitudeDegrees>38.00289225764572620391845703125</LatitudeDegrees>
              <LongitudeDegrees>-1.14124028943479061126708984375</LongitudeDegrees>
            </Position>
            <AltitudeMeters>59.59999847412109375</AltitudeMeters>
            <DistanceMeters>NAN</DistanceMeters>
          </Trackpoint>
          <Trackpoint>
            <Time>2020-05-25T04:31:11.000Z</Time>
            <Position>
              <LatitudeDegrees>38.00275965593755245208740234375</LatitudeDegrees>
              <LongitudeDegrees>-1.14111858420073986053466796875</LongitudeDegrees>
            </Position>
            <AltitudeMeters>59.59999847412109375</AltitudeMeters>
            <DistanceMeters>NAN</DistanceMeters>
          </Trackpoint>
          <Trackpoint>
            <Time>2020-05-25T04:31:12.000Z</Time>
            <Position>
              <LatitudeDegrees>38.0026915110647678375244140625</LatitudeDegrees>
              <LongitudeDegrees>-1.14105940796434879302978515625</LongitudeDegrees>
            </Position>
            <AltitudeMeters>59.59999847412109375</AltitudeMeters>
            <DistanceMeters>NAN</DistanceMeters>
          </Trackpoint>
          <Trackpoint>
            <Time>2020-05-25T04:31:13.000Z</Time>
            <Position>
              <LatitudeDegrees>38.0026915110647678375244140625</LatitudeDegrees>
              <LongitudeDegrees>-1.14105940796434879302978515625</LongitudeDegrees>
            </Position>
            <AltitudeMeters>59.59999847412109375</AltitudeMeters>
            <DistanceMeters>NAN</DistanceMeters>
          </Trackpoint>
          <Trackpoint>
            <Time>2020-05-25T04:31:14.000Z</Time>
            <Position>
              <LatitudeDegrees>38.00255597569048404693603515625</LatitudeDegrees>
              <LongitudeDegrees>-1.1409397982060909271240234375</LongitudeDegrees>
            </Position>
            <AltitudeMeters>59.59999847412109375</AltitudeMeters>
            <DistanceMeters>NAN</DistanceMeters>
          </Trackpoint>
          <Trackpoint>
            <Time>2020-05-25T04:31:15.000Z</Time>
            <Position>
              <LatitudeDegrees>38.00255597569048404693603515625</LatitudeDegrees>
              <LongitudeDegrees>-1.1409397982060909271240234375</LongitudeDegrees>
            </Position>
            <AltitudeMeters>59.59999847412109375</AltitudeMeters>
            <DistanceMeters>NAN</DistanceMeters>
          </Trackpoint>
          <Trackpoint>
            <Time>2020-05-25T04:31:16.000Z</Time>
            <Position>
              <LatitudeDegrees>38.00248942337930202484130859375</LatitudeDegrees>
              <LongitudeDegrees>-1.1408774368464946746826171875</LongitudeDegrees>
            </Position>
            <AltitudeMeters>59.59999847412109375</AltitudeMeters>
            <DistanceMeters>NAN</DistanceMeters>
          </Trackpoint>
          <Trackpoint>
            <Time>2020-05-25T04:31:17.000Z</Time>
            <Position>
              <LatitudeDegrees>38.0024239607155323028564453125</LatitudeDegrees>
              <LongitudeDegrees>-1.14081390202045440673828125</LongitudeDegrees>
            </Position>
            <AltitudeMeters>59.59999847412109375</AltitudeMeters>
            <DistanceMeters>NAN</DistanceMeters>
          </Trackpoint>
          <Trackpoint>
            <Time>2020-05-25T04:31:18.000Z</Time>
            <Position>
              <LatitudeDegrees>38.00229571759700775146484375</LatitudeDegrees>
              <LongitudeDegrees>-1.14068607799708843231201171875</LongitudeDegrees>
            </Position>
            <AltitudeMeters>59.40000152587890625</AltitudeMeters>
            <DistanceMeters>NAN</DistanceMeters>
          </Trackpoint>
          <Trackpoint>
            <Time>2020-05-25T04:31:19.000Z</Time>
            <Position>
              <LatitudeDegrees>38.00229571759700775146484375</LatitudeDegrees>
              <LongitudeDegrees>-1.14068607799708843231201171875</LongitudeDegrees>
            </Position>
            <AltitudeMeters>59.40000152587890625</AltitudeMeters>
            <DistanceMeters>NAN</DistanceMeters>
          </Trackpoint>
          <Trackpoint>
            <Time>2020-05-25T04:31:20.000Z</Time>
            <Position>
              <LatitudeDegrees>38.0021684803068637847900390625</LatitudeDegrees>
              <LongitudeDegrees>-1.140558086335659027099609375</LongitudeDegrees>
            </Position>
            <AltitudeMeters>59.40000152587890625</AltitudeMeters>
            <DistanceMeters>NAN</DistanceMeters>
          </Trackpoint>
          <Trackpoint>
            <Time>2020-05-25T04:31:21.000Z</Time>
            <Position>
              <LatitudeDegrees>38.0021684803068637847900390625</LatitudeDegrees>
              <LongitudeDegrees>-1.140558086335659027099609375</LongitudeDegrees>
            </Position>
            <AltitudeMeters>59.40000152587890625</AltitudeMeters>
            <DistanceMeters>NAN</DistanceMeters>
          </Trackpoint>
          <Trackpoint>
            <Time>2020-05-25T04:31:22.000Z</Time>
            <Position>
              <LatitudeDegrees>38.00210586749017238616943359375</LatitudeDegrees>
              <LongitudeDegrees>-1.14049279130995273590087890625</LongitudeDegrees>
            </Position>
            <AltitudeMeters>59.40000152587890625</AltitudeMeters>
            <DistanceMeters>NAN</DistanceMeters>
          </Trackpoint>
          <Trackpoint>
            <Time>2020-05-25T04:31:23.000Z</Time>
            <Position>
              <LatitudeDegrees>38.00197980366647243499755859375</LatitudeDegrees>
              <LongitudeDegrees>-1.14036303944885730743408203125</LongitudeDegrees>
            </Position>
            <AltitudeMeters>59.40000152587890625</AltitudeMeters>
            <DistanceMeters>NAN</DistanceMeters>
          </Trackpoint>
          <Trackpoint>
            <Time>2020-05-25T04:31:24.000Z</Time>
            <Position>
              <LatitudeDegrees>38.0019168555736541748046875</LatitudeDegrees>
              <LongitudeDegrees>-1.14029749296605587005615234375</LongitudeDegrees>
            </Position>
            <AltitudeMeters>59.40000152587890625</AltitudeMeters>
            <DistanceMeters>NAN</DistanceMeters>
          </Trackpoint>
          <Trackpoint>
            <Time>2020-05-25T04:31:25.000Z</Time>
            <Position>
              <LatitudeDegrees>38.0019168555736541748046875</LatitudeDegrees>
              <LongitudeDegrees>-1.14029749296605587005615234375</LongitudeDegrees>
            </Position>
            <AltitudeMeters>59.40000152587890625</AltitudeMeters>
            <DistanceMeters>NAN</DistanceMeters>
          </Trackpoint>
          <Trackpoint>
            <Time>2020-05-25T04:31:26.000Z</Time>
            <Position>
              <LatitudeDegrees>38.00185441039502620697021484375</LatitudeDegrees>
              <LongitudeDegrees>-1.14023144356906414031982421875</LongitudeDegrees>
            </Position>
            <AltitudeMeters>59.59999847412109375</AltitudeMeters>
            <DistanceMeters>NAN</DistanceMeters>
          </Trackpoint>
          <Trackpoint>
            <Time>2020-05-25T04:31:27.000Z</Time>
            <Position>
              <LatitudeDegrees>38.00179121084511280059814453125</LatitudeDegrees>
              <LongitudeDegrees>-1.14016640000045299530029296875</LongitudeDegrees>
            </Position>
            <AltitudeMeters>59.59999847412109375</AltitudeMeters>
            <DistanceMeters>NAN</DistanceMeters>
          </Trackpoint>
          <Trackpoint>
            <Time>2020-05-25T04:31:28.000Z</Time>
            <Position>
              <LatitudeDegrees>38.0017272569239139556884765625</LatitudeDegrees>
              <LongitudeDegrees>-1.14010202698409557342529296875</LongitudeDegrees>
            </Position>
            <AltitudeMeters>59.59999847412109375</AltitudeMeters>
            <DistanceMeters>NAN</DistanceMeters>
          </Trackpoint>
          <Trackpoint>
            <Time>2020-05-25T04:31:29.000Z</Time>
            <Position>
              <LatitudeDegrees>38.00166405737400054931640625</LatitudeDegrees>
              <LongitudeDegrees>-1.14003765396773815155029296875</LongitudeDegrees>
            </Position>
            <AltitudeMeters>59.59999847412109375</AltitudeMeters>
            <DistanceMeters>NAN</DistanceMeters>
          </Trackpoint>
          <Trackpoint>
            <Time>2020-05-25T04:31:30.000Z</Time>
            <Position>
              <LatitudeDegrees>38.001537658274173736572265625</LatitudeDegrees>
              <LongitudeDegrees>-1.13990731537342071533203125</LongitudeDegrees>
            </Position>
            <AltitudeMeters>59.59999847412109375</AltitudeMeters>
            <DistanceMeters>NAN</DistanceMeters>
          </Trackpoint>
          <Trackpoint>
            <Time>2020-05-25T04:31:31.000Z</Time>
            <Position>
              <LatitudeDegrees>38.00147336907684803009033203125</LatitudeDegrees>
              <LongitudeDegrees>-1.13984185270965099334716796875</LongitudeDegrees>
            </Position>
            <AltitudeMeters>59.59999847412109375</AltitudeMeters>
            <DistanceMeters>NAN</DistanceMeters>
          </Trackpoint>
          <Trackpoint>
            <Time>2020-05-25T04:31:32.000Z</Time>
            <Position>
              <LatitudeDegrees>38.0014080740511417388916015625</LatitudeDegrees>
              <LongitudeDegrees>-1.13977647386491298675537109375</LongitudeDegrees>
            </Position>
            <AltitudeMeters>59.59999847412109375</AltitudeMeters>
            <DistanceMeters>NAN</DistanceMeters>
          </Trackpoint>
          <Trackpoint>
            <Time>2020-05-25T04:31:33.000Z</Time>
            <Position>
              <LatitudeDegrees>38.0013426952064037322998046875</LatitudeDegrees>
              <LongitudeDegrees>-1.13971025682985782623291015625</LongitudeDegrees>
            </Position>
            <AltitudeMeters>59.59999847412109375</AltitudeMeters>
            <DistanceMeters>NAN</DistanceMeters>
          </Trackpoint>
          <Trackpoint>
            <Time>2020-05-25T04:31:34.000Z</Time>
            <Position>
              <LatitudeDegrees>38.0013426952064037322998046875</LatitudeDegrees>
              <LongitudeDegrees>-1.13971025682985782623291015625</LongitudeDegrees>
            </Position>
            <AltitudeMeters>59.59999847412109375</AltitudeMeters>
            <DistanceMeters>NAN</DistanceMeters>
          </Trackpoint>
          <Trackpoint>
            <Time>2020-05-25T04:31:35.000Z</Time>
            <Position>
              <LatitudeDegrees>38.0012095905840396881103515625</LatitudeDegrees>
              <LongitudeDegrees>-1.1395795829594135284423828125</LongitudeDegrees>
            </Position>
            <AltitudeMeters>59.59999847412109375</AltitudeMeters>
            <DistanceMeters>NAN</DistanceMeters>
          </Trackpoint>
          <Trackpoint>
            <Time>2020-05-25T04:31:36.000Z</Time>
            <Position>
              <LatitudeDegrees>38.0011452175676822662353515625</LatitudeDegrees>
              <LongitudeDegrees>-1.1395145393908023834228515625</LongitudeDegrees>
            </Position>
            <AltitudeMeters>59.59999847412109375</AltitudeMeters>
            <DistanceMeters>NAN</DistanceMeters>
          </Trackpoint>
          <Trackpoint>
            <Time>2020-05-25T04:31:37.000Z</Time>
            <Position>
              <LatitudeDegrees>38.001083694398403167724609375</LatitudeDegrees>
              <LongitudeDegrees>-1.13944823853671550750732421875</LongitudeDegrees>
            </Position>
            <AltitudeMeters>59.59999847412109375</AltitudeMeters>
            <DistanceMeters>NAN</DistanceMeters>
          </Trackpoint>
          <Trackpoint>
            <Time>2020-05-25T04:31:38.000Z</Time>
            <Position>
              <LatitudeDegrees>38.00101839937269687652587890625</LatitudeDegrees>
              <LongitudeDegrees>-1.1393822729587554931640625</LongitudeDegrees>
            </Position>
            <AltitudeMeters>59.40000152587890625</AltitudeMeters>
            <DistanceMeters>NAN</DistanceMeters>
          </Trackpoint>
          <Trackpoint>
            <Time>2020-05-25T04:31:39.000Z</Time>
            <Position>
              <LatitudeDegrees>38.0009507574141025543212890625</LatitudeDegrees>
              <LongitudeDegrees>-1.1393173970282077789306640625</LongitudeDegrees>
            </Position>
            <AltitudeMeters>59.40000152587890625</AltitudeMeters>
            <DistanceMeters>NAN</DistanceMeters>
          </Trackpoint>
          <Trackpoint>
            <Time>2020-05-25T04:31:40.000Z</Time>
            <Position>
              <LatitudeDegrees>38.0009507574141025543212890625</LatitudeDegrees>
              <LongitudeDegrees>-1.1393173970282077789306640625</LongitudeDegrees>
            </Position>
            <AltitudeMeters>59.40000152587890625</AltitudeMeters>
            <DistanceMeters>NAN</DistanceMeters>
          </Trackpoint>
          <Trackpoint>
            <Time>2020-05-25T04:31:41.000Z</Time>
            <Position>
              <LatitudeDegrees>38.000815473496913909912109375</LatitudeDegrees>
              <LongitudeDegrees>-1.1391913332045078277587890625</LongitudeDegrees>
            </Position>
            <AltitudeMeters>59.40000152587890625</AltitudeMeters>
            <DistanceMeters>NAN</DistanceMeters>
          </Trackpoint>
          <Trackpoint>
            <Time>2020-05-25T04:31:42.000Z</Time>
            <Position>
              <LatitudeDegrees>38.00074833445250988006591796875</LatitudeDegrees>
              <LongitudeDegrees>-1.13912679255008697509765625</LongitudeDegrees>
            </Position>
            <AltitudeMeters>59.40000152587890625</AltitudeMeters>
            <DistanceMeters>NAN</DistanceMeters>
          </Trackpoint>
          <Trackpoint>
            <Time>2020-05-25T04:31:43.000Z</Time>
            <Position>
              <LatitudeDegrees>38.0006828717887401580810546875</LatitudeDegrees>
              <LongitudeDegrees>-1.13906015641987323760986328125</LongitudeDegrees>
            </Position>
            <AltitudeMeters>59.40000152587890625</AltitudeMeters>
            <DistanceMeters>NAN</DistanceMeters>
          </Trackpoint>
          <Trackpoint>
            <Time>2020-05-25T04:31:44.000Z</Time>
            <Position>
              <LatitudeDegrees>38.00061908550560474395751953125</LatitudeDegrees>
              <LongitudeDegrees>-1.1389921791851520538330078125</LongitudeDegrees>
            </Position>
            <AltitudeMeters>59.200000762939453125</AltitudeMeters>
            <DistanceMeters>NAN</DistanceMeters>
          </Trackpoint>
          <Trackpoint>
            <Time>2020-05-25T04:31:45.000Z</Time>
            <Position>
              <LatitudeDegrees>38.0005561374127864837646484375</LatitudeDegrees>
              <LongitudeDegrees>-1.13892403431236743927001953125</LongitudeDegrees>
            </Position>
            <AltitudeMeters>59.200000762939453125</AltitudeMeters>
            <DistanceMeters>NAN</DistanceMeters>
          </Trackpoint>
          <Trackpoint>
            <Time>2020-05-25T04:31:46.000Z</Time>
            <Position>
              <LatitudeDegrees>38.0005561374127864837646484375</LatitudeDegrees>
              <LongitudeDegrees>-1.13892403431236743927001953125</LongitudeDegrees>
            </Position>
            <AltitudeMeters>59.200000762939453125</AltitudeMeters>
            <DistanceMeters>NAN</DistanceMeters>
          </Trackpoint>
          <Trackpoint>
            <Time>2020-05-25T04:31:47.000Z</Time>
            <Position>
              <LatitudeDegrees>38.00042487680912017822265625</LatitudeDegrees>
              <LongitudeDegrees>-1.13879377953708171844482421875</LongitudeDegrees>
            </Position>
            <AltitudeMeters>59.200000762939453125</AltitudeMeters>
            <DistanceMeters>NAN</DistanceMeters>
          </Trackpoint>
          <Trackpoint>
            <Time>2020-05-25T04:31:48.000Z</Time>
            <Position>
              <LatitudeDegrees>38.00035874359309673309326171875</LatitudeDegrees>
              <LongitudeDegrees>-1.138728149235248565673828125</LongitudeDegrees>
            </Position>
            <AltitudeMeters>59</AltitudeMeters>
            <DistanceMeters>NAN</DistanceMeters>
          </Trackpoint>
          <Trackpoint>
            <Time>2020-05-25T04:31:49.000Z</Time>
            <Position>
              <LatitudeDegrees>38.0002936162054538726806640625</LatitudeDegrees>
              <LongitudeDegrees>-1.13866168074309825897216796875</LongitudeDegrees>
            </Position>
            <AltitudeMeters>59</AltitudeMeters>
            <DistanceMeters>NAN</DistanceMeters>
          </Trackpoint>
          <Trackpoint>
            <Time>2020-05-25T04:31:50.000Z</Time>
            <Position>
              <LatitudeDegrees>38.0002289079129695892333984375</LatitudeDegrees>
              <LongitudeDegrees>-1.13859437406063079833984375</LongitudeDegrees>
            </Position>
            <AltitudeMeters>59</AltitudeMeters>
            <DistanceMeters>NAN</DistanceMeters>
          </Trackpoint>
          <Trackpoint>
            <Time>2020-05-25T04:31:51.000Z</Time>
            <Position>
              <LatitudeDegrees>38.0002289079129695892333984375</LatitudeDegrees>
              <LongitudeDegrees>-1.13859437406063079833984375</LongitudeDegrees>
            </Position>
            <AltitudeMeters>59</AltitudeMeters>
            <DistanceMeters>NAN</DistanceMeters>
          </Trackpoint>
          <Trackpoint>
            <Time>2020-05-25T04:31:52.000Z</Time>
            <Position>
              <LatitudeDegrees>38.00016478635370731353759765625</LatitudeDegrees>
              <LongitudeDegrees>-1.1385264806449413299560546875</LongitudeDegrees>
            </Position>
            <AltitudeMeters>59.200000762939453125</AltitudeMeters>
            <DistanceMeters>NAN</DistanceMeters>
          </Trackpoint>
          <Trackpoint>
            <Time>2020-05-25T04:31:53.000Z</Time>
            <Position>
              <LatitudeDegrees>38.000102341175079345703125</LatitudeDegrees>
              <LongitudeDegrees>-1.1384577490389347076416015625</LongitudeDegrees>
            </Position>
            <AltitudeMeters>59.200000762939453125</AltitudeMeters>
            <DistanceMeters>NAN</DistanceMeters>
          </Trackpoint>
          <Trackpoint>
            <Time>2020-05-25T04:31:54.000Z</Time>
            <Position>
              <LatitudeDegrees>37.99997233785688877105712890625</LatitudeDegrees>
              <LongitudeDegrees>-1.13832741044461727142333984375</LongitudeDegrees>
            </Position>
            <AltitudeMeters>59.200000762939453125</AltitudeMeters>
            <DistanceMeters>NAN</DistanceMeters>
          </Trackpoint>
          <Trackpoint>
            <Time>2020-05-25T04:31:55.000Z</Time>
            <Position>
              <LatitudeDegrees>37.99997233785688877105712890625</LatitudeDegrees>
              <LongitudeDegrees>-1.13832741044461727142333984375</LongitudeDegrees>
            </Position>
            <AltitudeMeters>59.200000762939453125</AltitudeMeters>
            <DistanceMeters>NAN</DistanceMeters>
          </Trackpoint>
          <Trackpoint>
            <Time>2020-05-25T04:31:56.000Z</Time>
            <Position>
              <LatitudeDegrees>37.9998507164418697357177734375</LatitudeDegrees>
              <LongitudeDegrees>-1.138200424611568450927734375</LongitudeDegrees>
            </Position>
            <AltitudeMeters>59</AltitudeMeters>
            <DistanceMeters>NAN</DistanceMeters>
          </Trackpoint>
          <Trackpoint>
            <Time>2020-05-25T04:31:57.000Z</Time>
            <Position>
              <LatitudeDegrees>37.9998507164418697357177734375</LatitudeDegrees>
              <LongitudeDegrees>-1.138200424611568450927734375</LongitudeDegrees>
            </Position>
            <AltitudeMeters>59</AltitudeMeters>
            <DistanceMeters>NAN</DistanceMeters>
          </Trackpoint>
          <Trackpoint>
            <Time>2020-05-25T04:31:58.000Z</Time>
            <Position>
              <LatitudeDegrees>37.9997920431196689605712890625</LatitudeDegrees>
              <LongitudeDegrees>-1.1381392367184162139892578125</LongitudeDegrees>
            </Position>
            <AltitudeMeters>59</AltitudeMeters>
            <DistanceMeters>NAN</DistanceMeters>
          </Trackpoint>
          <Trackpoint>
            <Time>2020-05-25T04:31:59.000Z</Time>
            <Position>
              <LatitudeDegrees>37.9997293464839458465576171875</LatitudeDegrees>
              <LongitudeDegrees>-1.138085424900054931640625</LongitudeDegrees>
            </Position>
            <AltitudeMeters>59</AltitudeMeters>
            <DistanceMeters>NAN</DistanceMeters>
          </Trackpoint>
          <Trackpoint>
            <Time>2020-05-25T04:32:00.000Z</Time>
            <Position>
              <LatitudeDegrees>37.999591045081615447998046875</LatitudeDegrees>
              <LongitudeDegrees>-1.13801124505698680877685546875</LongitudeDegrees>
            </Position>
            <AltitudeMeters>59</AltitudeMeters>
            <DistanceMeters>NAN</DistanceMeters>
          </Trackpoint>
          <Trackpoint>
            <Time>2020-05-25T04:32:01.000Z</Time>
            <Position>
              <LatitudeDegrees>37.9995216429233551025390625</LatitudeDegrees>
              <LongitudeDegrees>-1.1379883624613285064697265625</LongitudeDegrees>
            </Position>
            <AltitudeMeters>59</AltitudeMeters>
            <DistanceMeters>NAN</DistanceMeters>
          </Trackpoint>
          <Trackpoint>
            <Time>2020-05-25T04:32:02.000Z</Time>
            <Position>
              <LatitudeDegrees>37.99945316277444362640380859375</LatitudeDegrees>
              <LongitudeDegrees>-1.1379702575504779815673828125</LongitudeDegrees>
            </Position>
            <AltitudeMeters>58.799999237060546875</AltitudeMeters>
            <DistanceMeters>NAN</DistanceMeters>
          </Trackpoint>
          <Trackpoint>
            <Time>2020-05-25T04:32:03.000Z</Time>
            <Position>
              <LatitudeDegrees>37.99945316277444362640380859375</LatitudeDegrees>
              <LongitudeDegrees>-1.1379702575504779815673828125</LongitudeDegrees>
            </Position>
            <AltitudeMeters>58.799999237060546875</AltitudeMeters>
            <DistanceMeters>NAN</DistanceMeters>
          </Trackpoint>
          <Trackpoint>
            <Time>2020-05-25T04:32:04.000Z</Time>
            <Position>
              <LatitudeDegrees>37.9993887059390544891357421875</LatitudeDegrees>
              <LongitudeDegrees>-1.137952320277690887451171875</LongitudeDegrees>
            </Position>
            <AltitudeMeters>58.799999237060546875</AltitudeMeters>
            <DistanceMeters>NAN</DistanceMeters>
          </Trackpoint>
          <Trackpoint>
            <Time>2020-05-25T04:32:05.000Z</Time>
            <Position>
              <LatitudeDegrees>37.99933187663555145263671875</LatitudeDegrees>
              <LongitudeDegrees>-1.1379365622997283935546875</LongitudeDegrees>
            </Position>
            <AltitudeMeters>58.799999237060546875</AltitudeMeters>
            <DistanceMeters>NAN</DistanceMeters>
          </Trackpoint>
          <Trackpoint>
            <Time>2020-05-25T04:32:06.000Z</Time>
            <Position>
              <LatitudeDegrees>37.99924260936677455902099609375</LatitudeDegrees>
              <LongitudeDegrees>-1.13791711628437042236328125</LongitudeDegrees>
            </Position>
            <AltitudeMeters>58.799999237060546875</AltitudeMeters>
            <DistanceMeters>NAN</DistanceMeters>
          </Trackpoint>
          <Trackpoint>
            <Time>2020-05-25T04:32:07.000Z</Time>
            <Position>
              <LatitudeDegrees>37.99924260936677455902099609375</LatitudeDegrees>
              <LongitudeDegrees>-1.13791711628437042236328125</LongitudeDegrees>
            </Position>
            <AltitudeMeters>58.799999237060546875</AltitudeMeters>
            <DistanceMeters>NAN</DistanceMeters>
          </Trackpoint>
          <Trackpoint>
            <Time>2020-05-25T04:32:08.000Z</Time>
            <Position>
              <LatitudeDegrees>37.99920522607862949371337890625</LatitudeDegrees>
              <LongitudeDegrees>-1.13789104856550693511962890625</LongitudeDegrees>
            </Position>
            <AltitudeMeters>58.799999237060546875</AltitudeMeters>
            <DistanceMeters>NAN</DistanceMeters>
          </Trackpoint>
          <Trackpoint>
            <Time>2020-05-25T04:32:09.000Z</Time>
            <Position>
              <LatitudeDegrees>37.99920120276510715484619140625</LatitudeDegrees>
              <LongitudeDegrees>-1.1378787271678447723388671875</LongitudeDegrees>
            </Position>
            <AltitudeMeters>58.799999237060546875</AltitudeMeters>
            <DistanceMeters>NAN</DistanceMeters>
          </Trackpoint>
          <Trackpoint>
            <Time>2020-05-25T04:32:10.000Z</Time>
            <Position>
              <LatitudeDegrees>37.99920120276510715484619140625</LatitudeDegrees>
              <LongitudeDegrees>-1.1378787271678447723388671875</LongitudeDegrees>
            </Position>
            <AltitudeMeters>58.799999237060546875</AltitudeMeters>
            <DistanceMeters>NAN</DistanceMeters>
          </Trackpoint>
          <Trackpoint>
            <Time>2020-05-25T04:32:11.000Z</Time>
            <Position>
              <LatitudeDegrees>37.9991999454796314239501953125</LatitudeDegrees>
              <LongitudeDegrees>-1.1378726921975612640380859375</LongitudeDegrees>
            </Position>
            <AltitudeMeters>58.799999237060546875</AltitudeMeters>
            <DistanceMeters>NAN</DistanceMeters>
          </Trackpoint>
          <Trackpoint>
            <Time>2020-05-25T04:32:12.000Z</Time>
            <Position>
              <LatitudeDegrees>37.9991997778415679931640625</LatitudeDegrees>
              <LongitudeDegrees>-1.137876212596893310546875</LongitudeDegrees>
            </Position>
            <AltitudeMeters>58.799999237060546875</AltitudeMeters>
            <DistanceMeters>NAN</DistanceMeters>
          </Trackpoint>
          <Trackpoint>
            <Time>2020-05-25T04:32:31.000Z</Time>
            <Position>
              <LatitudeDegrees>37.99925803206861019134521484375</LatitudeDegrees>
              <LongitudeDegrees>-1.13787394948303699493408203125</LongitudeDegrees>
            </Position>
            <AltitudeMeters>59.59999847412109375</AltitudeMeters>
            <DistanceMeters>NAN</DistanceMeters>
          </Trackpoint>
          <Trackpoint>
            <Time>2020-05-25T04:32:32.000Z</Time>
            <Position>
              <LatitudeDegrees>37.99928225576877593994140625</LatitudeDegrees>
              <LongitudeDegrees>-1.13784871995449066162109375</LongitudeDegrees>
            </Position>
            <AltitudeMeters>59.59999847412109375</AltitudeMeters>
            <DistanceMeters>NAN</DistanceMeters>
          </Trackpoint>
          <Trackpoint>
            <Time>2020-05-25T04:32:33.000Z</Time>
            <Position>
              <LatitudeDegrees>37.99928225576877593994140625</LatitudeDegrees>
              <LongitudeDegrees>-1.13784871995449066162109375</LongitudeDegrees>
            </Position>
            <AltitudeMeters>59.59999847412109375</AltitudeMeters>
            <DistanceMeters>NAN</DistanceMeters>
          </Trackpoint>
          <Trackpoint>
            <Time>2020-05-25T04:32:34.000Z</Time>
            <Position>
              <LatitudeDegrees>37.99929625354707241058349609375</LatitudeDegrees>
              <LongitudeDegrees>-1.1378351412713527679443359375</LongitudeDegrees>
            </Position>
            <AltitudeMeters>59.40000152587890625</AltitudeMeters>
            <DistanceMeters>NAN</DistanceMeters>
          </Trackpoint>
          <Trackpoint>
            <Time>2020-05-25T04:32:35.000Z</Time>
            <Position>
              <LatitudeDegrees>37.99930773675441741943359375</LatitudeDegrees>
              <LongitudeDegrees>-1.1378207243978977203369140625</LongitudeDegrees>
            </Position>
            <AltitudeMeters>59.40000152587890625</AltitudeMeters>
            <DistanceMeters>NAN</DistanceMeters>
          </Trackpoint>
          <Trackpoint>
            <Time>2020-05-25T04:32:36.000Z</Time>
            <Position>
              <LatitudeDegrees>37.99932626076042652130126953125</LatitudeDegrees>
              <LongitudeDegrees>-1.1377888731658458709716796875</LongitudeDegrees>
            </Position>
            <AltitudeMeters>59.40000152587890625</AltitudeMeters>
            <DistanceMeters>NAN</DistanceMeters>
          </Trackpoint>
          <Trackpoint>
            <Time>2020-05-25T04:32:37.000Z</Time>
            <Position>
              <LatitudeDegrees>37.99932626076042652130126953125</LatitudeDegrees>
              <LongitudeDegrees>-1.1377888731658458709716796875</LongitudeDegrees>
            </Position>
            <AltitudeMeters>59.40000152587890625</AltitudeMeters>
            <DistanceMeters>NAN</DistanceMeters>
          </Trackpoint>
          <Trackpoint>
            <Time>2020-05-25T04:32:38.000Z</Time>
            <Position>
              <LatitudeDegrees>37.9993377439677715301513671875</LatitudeDegrees>
              <LongitudeDegrees>-1.1377385817468166351318359375</LongitudeDegrees>
            </Position>
            <AltitudeMeters>59.40000152587890625</AltitudeMeters>
            <DistanceMeters>NAN</DistanceMeters>
          </Trackpoint>
          <Trackpoint>
            <Time>2020-05-25T04:32:39.000Z</Time>
            <Position>
              <LatitudeDegrees>37.99934671260416507720947265625</LatitudeDegrees>
              <LongitudeDegrees>-1.13771067000925540924072265625</LongitudeDegrees>
            </Position>
            <AltitudeMeters>59.40000152587890625</AltitudeMeters>
            <DistanceMeters>NAN</DistanceMeters>
          </Trackpoint>
          <Trackpoint>
            <Time>2020-05-25T04:32:40.000Z</Time>
            <Position>
              <LatitudeDegrees>37.99934671260416507720947265625</LatitudeDegrees>
              <LongitudeDegrees>-1.13771067000925540924072265625</LongitudeDegrees>
            </Position>
            <AltitudeMeters>59.40000152587890625</AltitudeMeters>
            <DistanceMeters>NAN</DistanceMeters>
          </Trackpoint>
          <Trackpoint>
            <Time>2020-05-25T04:32:41.000Z</Time>
            <Position>
              <LatitudeDegrees>37.99936003983020782470703125</LatitudeDegrees>
              <LongitudeDegrees>-1.13768099807202816009521484375</LongitudeDegrees>
            </Position>
            <AltitudeMeters>59.200000762939453125</AltitudeMeters>
            <DistanceMeters>NAN</DistanceMeters>
          </Trackpoint>
          <Trackpoint>
            <Time>2020-05-25T04:32:42.000Z</Time>
            <Position>
              <LatitudeDegrees>37.99938552081584930419921875</LatitudeDegrees>
              <LongitudeDegrees>-1.1376227438449859619140625</LongitudeDegrees>
            </Position>
            <AltitudeMeters>59.200000762939453125</AltitudeMeters>
            <DistanceMeters>NAN</DistanceMeters>
          </Trackpoint>
          <Trackpoint>
            <Time>2020-05-25T04:32:43.000Z</Time>
            <Position>
              <LatitudeDegrees>37.99939624965190887451171875</LatitudeDegrees>
              <LongitudeDegrees>-1.1375974304974079132080078125</LongitudeDegrees>
            </Position>
            <AltitudeMeters>59.200000762939453125</AltitudeMeters>
            <DistanceMeters>NAN</DistanceMeters>
          </Trackpoint>
          <Trackpoint>
            <Time>2020-05-25T04:32:44.000Z</Time>
            <Position>
              <LatitudeDegrees>37.99940655939280986785888671875</LatitudeDegrees>
              <LongitudeDegrees>-1.13757572136819362640380859375</LongitudeDegrees>
            </Position>
            <AltitudeMeters>59.200000762939453125</AltitudeMeters>
            <DistanceMeters>NAN</DistanceMeters>
          </Trackpoint>
          <Trackpoint>
            <Time>2020-05-25T04:32:45.000Z</Time>
            <Position>
              <LatitudeDegrees>37.99941879697144031524658203125</LatitudeDegrees>
              <LongitudeDegrees>-1.13755644299089908599853515625</LongitudeDegrees>
            </Position>
            <AltitudeMeters>59.200000762939453125</AltitudeMeters>
            <DistanceMeters>NAN</DistanceMeters>
          </Trackpoint>
          <Trackpoint>
            <Time>2020-05-25T04:32:46.000Z</Time>
            <Position>
              <LatitudeDegrees>37.99941879697144031524658203125</LatitudeDegrees>
              <LongitudeDegrees>-1.13755644299089908599853515625</LongitudeDegrees>
            </Position>
            <AltitudeMeters>59.200000762939453125</AltitudeMeters>
            <DistanceMeters>NAN</DistanceMeters>
          </Trackpoint>
          <Trackpoint>
            <Time>2020-05-25T04:32:47.000Z</Time>
            <Position>
              <LatitudeDegrees>37.99943522550165653228759765625</LatitudeDegrees>
              <LongitudeDegrees>-1.13753951154649257659912109375</LongitudeDegrees>
            </Position>
            <AltitudeMeters>59.200000762939453125</AltitudeMeters>
            <DistanceMeters>NAN</DistanceMeters>
          </Trackpoint>
          <Trackpoint>
            <Time>2020-05-25T04:32:48.000Z</Time>
            <Position>
              <LatitudeDegrees>37.99948384054005146026611328125</LatitudeDegrees>
              <LongitudeDegrees>-1.13751570694148540496826171875</LongitudeDegrees>
            </Position>
            <AltitudeMeters>59.200000762939453125</AltitudeMeters>
            <DistanceMeters>NAN</DistanceMeters>
          </Trackpoint>
          <Trackpoint>
            <Time>2020-05-25T04:32:49.000Z</Time>
            <Position>
              <LatitudeDegrees>37.99948384054005146026611328125</LatitudeDegrees>
              <LongitudeDegrees>-1.13751570694148540496826171875</LongitudeDegrees>
            </Position>
            <AltitudeMeters>59.200000762939453125</AltitudeMeters>
            <DistanceMeters>NAN</DistanceMeters>
          </Trackpoint>
          <Trackpoint>
            <Time>2020-05-25T04:32:50.000Z</Time>
            <Position>
              <LatitudeDegrees>37.9995566792786121368408203125</LatitudeDegrees>
              <LongitudeDegrees>-1.137477569282054901123046875</LongitudeDegrees>
            </Position>
            <AltitudeMeters>59.40000152587890625</AltitudeMeters>
            <DistanceMeters>NAN</DistanceMeters>
          </Trackpoint>
          <Trackpoint>
            <Time>2020-05-25T04:32:51.000Z</Time>
            <Position>
              <LatitudeDegrees>37.9995566792786121368408203125</LatitudeDegrees>
              <LongitudeDegrees>-1.137477569282054901123046875</LongitudeDegrees>
            </Position>
            <AltitudeMeters>59.40000152587890625</AltitudeMeters>
            <DistanceMeters>NAN</DistanceMeters>
          </Trackpoint>
          <Trackpoint>
            <Time>2020-05-25T04:32:52.000Z</Time>
            <Position>
              <LatitudeDegrees>37.9995942302048206329345703125</LatitudeDegrees>
              <LongitudeDegrees>-1.1374495737254619598388671875</LongitudeDegrees>
            </Position>
            <AltitudeMeters>59.40000152587890625</AltitudeMeters>
            <DistanceMeters>NAN</DistanceMeters>
          </Trackpoint>
          <Trackpoint>
            <Time>2020-05-25T04:32:53.000Z</Time>
            <Position>
              <LatitudeDegrees>37.9996606148779392242431640625</LatitudeDegrees>
              <LongitudeDegrees>-1.13738360814750194549560546875</LongitudeDegrees>
            </Position>
            <AltitudeMeters>59.40000152587890625</AltitudeMeters>
            <DistanceMeters>NAN</DistanceMeters>
          </Trackpoint>
          <Trackpoint>
            <Time>2020-05-25T04:32:54.000Z</Time>
            <Position>
              <LatitudeDegrees>37.99968869425356388092041015625</LatitudeDegrees>
              <LongitudeDegrees>-1.137355864048004150390625</LongitudeDegrees>
            </Position>
            <AltitudeMeters>59.40000152587890625</AltitudeMeters>
            <DistanceMeters>NAN</DistanceMeters>
          </Trackpoint>
          <Trackpoint>
            <Time>2020-05-25T04:32:55.000Z</Time>
            <Position>
              <LatitudeDegrees>37.99968869425356388092041015625</LatitudeDegrees>
              <LongitudeDegrees>-1.137355864048004150390625</LongitudeDegrees>
            </Position>
            <AltitudeMeters>59.40000152587890625</AltitudeMeters>
            <DistanceMeters>NAN</DistanceMeters>
          </Trackpoint>
          <Trackpoint>
            <Time>2020-05-25T04:32:56.000Z</Time>
            <Position>
              <LatitudeDegrees>37.99972590990364551544189453125</LatitudeDegrees>
              <LongitudeDegrees>-1.137350834906101226806640625</LongitudeDegrees>
            </Position>
            <AltitudeMeters>59.40000152587890625</AltitudeMeters>
            <DistanceMeters>NAN</DistanceMeters>
          </Trackpoint>
          <Trackpoint>
            <Time>2020-05-25T04:32:57.000Z</Time>
            <Position>
              <LatitudeDegrees>37.99973228015005588531494140625</LatitudeDegrees>
              <LongitudeDegrees>-1.13736994564533233642578125</LongitudeDegrees>
            </Position>
            <AltitudeMeters>59.40000152587890625</AltitudeMeters>
            <DistanceMeters>NAN</DistanceMeters>
          </Trackpoint>
          <Trackpoint>
            <Time>2020-05-25T04:32:58.000Z</Time>
            <Position>
              <LatitudeDegrees>37.99973228015005588531494140625</LatitudeDegrees>
              <LongitudeDegrees>-1.13736994564533233642578125</LongitudeDegrees>
            </Position>
            <AltitudeMeters>59.40000152587890625</AltitudeMeters>
            <DistanceMeters>NAN</DistanceMeters>
          </Trackpoint>
          <Trackpoint>
            <Time>2020-05-25T04:32:59.000Z</Time>
            <Position>
              <LatitudeDegrees>37.9997518099844455718994140625</LatitudeDegrees>
              <LongitudeDegrees>-1.13743255846202373504638671875</LongitudeDegrees>
            </Position>
            <AltitudeMeters>59.40000152587890625</AltitudeMeters>
            <DistanceMeters>NAN</DistanceMeters>
          </Trackpoint>
          <Trackpoint>
            <Time>2020-05-25T04:33:00.000Z</Time>
            <Position>
              <LatitudeDegrees>37.999766059219837188720703125</LatitudeDegrees>
              <LongitudeDegrees>-1.13746658898890018463134765625</LongitudeDegrees>
            </Position>
            <AltitudeMeters>59.40000152587890625</AltitudeMeters>
            <DistanceMeters>NAN</DistanceMeters>
          </Trackpoint>
          <Trackpoint>
            <Time>2020-05-25T04:33:01.000Z</Time>
            <Position>
              <LatitudeDegrees>37.999766059219837188720703125</LatitudeDegrees>
              <LongitudeDegrees>-1.13746658898890018463134765625</LongitudeDegrees>
            </Position>
            <AltitudeMeters>59.200000762939453125</AltitudeMeters>
            <DistanceMeters>NAN</DistanceMeters>
          </Trackpoint>
          <Trackpoint>
            <Time>2020-05-25T04:33:02.000Z</Time>
            <Position>
              <LatitudeDegrees>37.9997920431196689605712890625</LatitudeDegrees>
              <LongitudeDegrees>-1.13753867335617542266845703125</LongitudeDegrees>
            </Position>
            <AltitudeMeters>59.200000762939453125</AltitudeMeters>
            <DistanceMeters>NAN</DistanceMeters>
          </Trackpoint>
          <Trackpoint>
            <Time>2020-05-25T04:33:03.000Z</Time>
            <Position>
              <LatitudeDegrees>37.9997920431196689605712890625</LatitudeDegrees>
              <LongitudeDegrees>-1.13753867335617542266845703125</LongitudeDegrees>
            </Position>
            <AltitudeMeters>59.200000762939453125</AltitudeMeters>
            <DistanceMeters>NAN</DistanceMeters>
          </Trackpoint>
          <Trackpoint>
            <Time>2020-05-25T04:33:04.000Z</Time>
            <Position>
              <LatitudeDegrees>37.99980654381215572357177734375</LatitudeDegrees>
              <LongitudeDegrees>-1.13757806830108165740966796875</LongitudeDegrees>
            </Position>
            <AltitudeMeters>59.200000762939453125</AltitudeMeters>
            <DistanceMeters>NAN</DistanceMeters>
          </Trackpoint>
          <Trackpoint>
            <Time>2020-05-25T04:33:05.000Z</Time>
            <Position>
              <LatitudeDegrees>37.99981911666691303253173828125</LatitudeDegrees>
              <LongitudeDegrees>-1.13761930726468563079833984375</LongitudeDegrees>
            </Position>
            <AltitudeMeters>59.200000762939453125</AltitudeMeters>
            <DistanceMeters>NAN</DistanceMeters>
          </Trackpoint>
          <Trackpoint>
            <Time>2020-05-25T04:33:06.000Z</Time>
            <Position>
              <LatitudeDegrees>37.99984208308160305023193359375</LatitudeDegrees>
              <LongitudeDegrees>-1.137702204287052154541015625</LongitudeDegrees>
            </Position>
            <AltitudeMeters>59.200000762939453125</AltitudeMeters>
            <DistanceMeters>NAN</DistanceMeters>
          </Trackpoint>
          <Trackpoint>
            <Time>2020-05-25T04:33:07.000Z</Time>
            <Position>
              <LatitudeDegrees>37.9998544044792652130126953125</LatitudeDegrees>
              <LongitudeDegrees>-1.13774268887937068939208984375</LongitudeDegrees>
            </Position>
            <AltitudeMeters>59.200000762939453125</AltitudeMeters>
            <DistanceMeters>NAN</DistanceMeters>
          </Trackpoint>
          <Trackpoint>
            <Time>2020-05-25T04:33:08.000Z</Time>
            <Position>
              <LatitudeDegrees>37.99986965954303741455078125</LatitudeDegrees>
              <LongitudeDegrees>-1.1377818323671817779541015625</LongitudeDegrees>
            </Position>
            <AltitudeMeters>59.200000762939453125</AltitudeMeters>
            <DistanceMeters>NAN</DistanceMeters>
          </Trackpoint>
          <Trackpoint>
            <Time>2020-05-25T04:33:09.000Z</Time>
            <Position>
              <LatitudeDegrees>37.999890781939029693603515625</LatitudeDegrees>
              <LongitudeDegrees>-1.13782298751175403594970703125</LongitudeDegrees>
            </Position>
            <AltitudeMeters>59.200000762939453125</AltitudeMeters>
            <DistanceMeters>NAN</DistanceMeters>
          </Trackpoint>
          <Trackpoint>
            <Time>2020-05-25T04:33:10.000Z</Time>
            <Position>
              <LatitudeDegrees>37.999890781939029693603515625</LatitudeDegrees>
              <LongitudeDegrees>-1.13782298751175403594970703125</LongitudeDegrees>
            </Position>
            <AltitudeMeters>59.200000762939453125</AltitudeMeters>
            <DistanceMeters>NAN</DistanceMeters>
          </Trackpoint>
          <Trackpoint>
            <Time>2020-05-25T04:33:11.000Z</Time>
            <Position>
              <LatitudeDegrees>37.99995037727057933807373046875</LatitudeDegrees>
              <LongitudeDegrees>-1.13789297640323638916015625</LongitudeDegrees>
            </Position>
            <AltitudeMeters>59.200000762939453125</AltitudeMeters>
            <DistanceMeters>NAN</DistanceMeters>
          </Trackpoint>
          <Trackpoint>
            <Time>2020-05-25T04:33:12.000Z</Time>
            <Position>
              <LatitudeDegrees>37.9999856650829315185546875</LatitudeDegrees>
              <LongitudeDegrees>-1.13792516291141510009765625</LongitudeDegrees>
            </Position>
            <AltitudeMeters>59.200000762939453125</AltitudeMeters>
            <DistanceMeters>NAN</DistanceMeters>
          </Trackpoint>
          <Trackpoint>
            <Time>2020-05-25T04:33:13.000Z</Time>
            <Position>
              <LatitudeDegrees>37.9999856650829315185546875</LatitudeDegrees>
              <LongitudeDegrees>-1.13792516291141510009765625</LongitudeDegrees>
            </Position>
            <AltitudeMeters>59.200000762939453125</AltitudeMeters>
            <DistanceMeters>NAN</DistanceMeters>
          </Trackpoint>
          <Trackpoint>
            <Time>2020-05-25T04:33:14.000Z</Time>
            <Position>
              <LatitudeDegrees>38.0000579170882701873779296875</LatitudeDegrees>
              <LongitudeDegrees>-1.1379954032599925994873046875</LongitudeDegrees>
            </Position>
            <AltitudeMeters>59.200000762939453125</AltitudeMeters>
            <DistanceMeters>NAN</DistanceMeters>
          </Trackpoint>
          <Trackpoint>
            <Time>2020-05-25T04:33:15.000Z</Time>
            <Position>
              <LatitudeDegrees>38.0000941269099712371826171875</LatitudeDegrees>
              <LongitudeDegrees>-1.13803379237651824951171875</LongitudeDegrees>
            </Position>
            <AltitudeMeters>59.200000762939453125</AltitudeMeters>
            <DistanceMeters>NAN</DistanceMeters>
          </Trackpoint>
          <Trackpoint>
            <Time>2020-05-25T04:33:16.000Z</Time>
            <Position>
              <LatitudeDegrees>38.0000941269099712371826171875</LatitudeDegrees>
              <LongitudeDegrees>-1.13803379237651824951171875</LongitudeDegrees>
            </Position>
            <AltitudeMeters>59.200000762939453125</AltitudeMeters>
            <DistanceMeters>NAN</DistanceMeters>
          </Trackpoint>
          <Trackpoint>
            <Time>2020-05-25T04:33:17.000Z</Time>
            <Position>
              <LatitudeDegrees>38.00017082132399082183837890625</LatitudeDegrees>
              <LongitudeDegrees>-1.13811400718986988067626953125</LongitudeDegrees>
            </Position>
            <AltitudeMeters>59.200000762939453125</AltitudeMeters>
            <DistanceMeters>NAN</DistanceMeters>
          </Trackpoint>
          <Trackpoint>
            <Time>2020-05-25T04:33:18.000Z</Time>
            <Position>
              <LatitudeDegrees>38.00021155737340450286865234375</LatitudeDegrees>
              <LongitudeDegrees>-1.13815189339220523834228515625</LongitudeDegrees>
            </Position>
            <AltitudeMeters>59.200000762939453125</AltitudeMeters>
            <DistanceMeters>NAN</DistanceMeters>
          </Trackpoint>
          <Trackpoint>
            <Time>2020-05-25T04:33:19.000Z</Time>
            <Position>
              <LatitudeDegrees>38.00021155737340450286865234375</LatitudeDegrees>
              <LongitudeDegrees>-1.13815189339220523834228515625</LongitudeDegrees>
            </Position>
            <AltitudeMeters>59.200000762939453125</AltitudeMeters>
            <DistanceMeters>NAN</DistanceMeters>
          </Trackpoint>
          <Trackpoint>
            <Time>2020-05-25T04:33:20.000Z</Time>
            <Position>
              <LatitudeDegrees>38.00029520876705646514892578125</LatitudeDegrees>
              <LongitudeDegrees>-1.13822917453944683074951171875</LongitudeDegrees>
            </Position>
            <AltitudeMeters>59.200000762939453125</AltitudeMeters>
            <DistanceMeters>NAN</DistanceMeters>
          </Trackpoint>
          <Trackpoint>
            <Time>2020-05-25T04:33:21.000Z</Time>
            <Position>
              <LatitudeDegrees>38.0003378726541996002197265625</LatitudeDegrees>
              <LongitudeDegrees>-1.13826940767467021942138671875</LongitudeDegrees>
            </Position>
            <AltitudeMeters>59.40000152587890625</AltitudeMeters>
            <DistanceMeters>NAN</DistanceMeters>
          </Trackpoint>
          <Trackpoint>
            <Time>2020-05-25T04:33:22.000Z</Time>
            <Position>
              <LatitudeDegrees>38.0003378726541996002197265625</LatitudeDegrees>
              <LongitudeDegrees>-1.13826940767467021942138671875</LongitudeDegrees>
            </Position>
            <AltitudeMeters>59.40000152587890625</AltitudeMeters>
            <DistanceMeters>NAN</DistanceMeters>
          </Trackpoint>
          <Trackpoint>
            <Time>2020-05-25T04:33:23.000Z</Time>
            <Position>
              <LatitudeDegrees>38.0004237033426761627197265625</LatitudeDegrees>
              <LongitudeDegrees>-1.13835037685930728912353515625</LongitudeDegrees>
            </Position>
            <AltitudeMeters>59.40000152587890625</AltitudeMeters>
            <DistanceMeters>NAN</DistanceMeters>
          </Trackpoint>
          <Trackpoint>
            <Time>2020-05-25T04:33:24.000Z</Time>
            <Position>
              <LatitudeDegrees>38.00046703778207302093505859375</LatitudeDegrees>
              <LongitudeDegrees>-1.1383927054703235626220703125</LongitudeDegrees>
            </Position>
            <AltitudeMeters>59.40000152587890625</AltitudeMeters>
            <DistanceMeters>NAN</DistanceMeters>
          </Trackpoint>
          <Trackpoint>
            <Time>2020-05-25T04:33:25.000Z</Time>
            <Position>
              <LatitudeDegrees>38.00051129423081874847412109375</LatitudeDegrees>
              <LongitudeDegrees>-1.13844006322324275970458984375</LongitudeDegrees>
            </Position>
            <AltitudeMeters>59.40000152587890625</AltitudeMeters>
            <DistanceMeters>NAN</DistanceMeters>
          </Trackpoint>
          <Trackpoint>
            <Time>2020-05-25T04:33:26.000Z</Time>
            <Position>
              <LatitudeDegrees>38.0005558021366596221923828125</LatitudeDegrees>
              <LongitudeDegrees>-1.138482727110385894775390625</LongitudeDegrees>
            </Position>
            <AltitudeMeters>59.40000152587890625</AltitudeMeters>
            <DistanceMeters>NAN</DistanceMeters>
          </Trackpoint>
          <Trackpoint>
            <Time>2020-05-25T04:33:27.000Z</Time>
            <Position>
              <LatitudeDegrees>38.00059880129992961883544921875</LatitudeDegrees>
              <LongitudeDegrees>-1.13852388225495815277099609375</LongitudeDegrees>
            </Position>
            <AltitudeMeters>59.40000152587890625</AltitudeMeters>
            <DistanceMeters>NAN</DistanceMeters>
          </Trackpoint>
          <Trackpoint>
            <Time>2020-05-25T04:33:28.000Z</Time>
            <Position>
              <LatitudeDegrees>38.00059880129992961883544921875</LatitudeDegrees>
              <LongitudeDegrees>-1.13852388225495815277099609375</LongitudeDegrees>
            </Position>
            <AltitudeMeters>59.40000152587890625</AltitudeMeters>
            <DistanceMeters>NAN</DistanceMeters>
          </Trackpoint>
          <Trackpoint>
            <Time>2020-05-25T04:33:29.000Z</Time>
            <Position>
              <LatitudeDegrees>38.00067977048456668853759765625</LatitudeDegrees>
              <LongitudeDegrees>-1.13860535435378551483154296875</LongitudeDegrees>
            </Position>
            <AltitudeMeters>59.40000152587890625</AltitudeMeters>
            <DistanceMeters>NAN</DistanceMeters>
          </Trackpoint>
          <Trackpoint>
            <Time>2020-05-25T04:33:30.000Z</Time>
            <Position>
              <LatitudeDegrees>38.0007207579910755157470703125</LatitudeDegrees>
              <LongitudeDegrees>-1.13864600658416748046875</LongitudeDegrees>
            </Position>
            <AltitudeMeters>59.40000152587890625</AltitudeMeters>
            <DistanceMeters>NAN</DistanceMeters>
          </Trackpoint>
          <Trackpoint>
            <Time>2020-05-25T04:33:31.000Z</Time>
            <Position>
              <LatitudeDegrees>38.0007630027830600738525390625</LatitudeDegrees>
              <LongitudeDegrees>-1.1386904306709766387939453125</LongitudeDegrees>
            </Position>
            <AltitudeMeters>59.40000152587890625</AltitudeMeters>
            <DistanceMeters>NAN</DistanceMeters>
          </Trackpoint>
          <Trackpoint>
            <Time>2020-05-25T04:33:32.000Z</Time>
            <Position>
              <LatitudeDegrees>38.0008062534034252166748046875</LatitudeDegrees>
              <LongitudeDegrees>-1.13873812370002269744873046875</LongitudeDegrees>
            </Position>
            <AltitudeMeters>59.40000152587890625</AltitudeMeters>
            <DistanceMeters>NAN</DistanceMeters>
          </Trackpoint>
          <Trackpoint>
            <Time>2020-05-25T04:33:33.000Z</Time>
            <Position>
              <LatitudeDegrees>38.00085009075701236724853515625</LatitudeDegrees>
              <LongitudeDegrees>-1.13878757692873477935791015625</LongitudeDegrees>
            </Position>
            <AltitudeMeters>59.59999847412109375</AltitudeMeters>
            <DistanceMeters>NAN</DistanceMeters>
          </Trackpoint>
          <Trackpoint>
            <Time>2020-05-25T04:33:34.000Z</Time>
            <Position>
              <LatitudeDegrees>38.00085009075701236724853515625</LatitudeDegrees>
              <LongitudeDegrees>-1.13878757692873477935791015625</LongitudeDegrees>
            </Position>
            <AltitudeMeters>59.59999847412109375</AltitudeMeters>
            <DistanceMeters>NAN</DistanceMeters>
          </Trackpoint>
          <Trackpoint>
            <Time>2020-05-25T04:33:35.000Z</Time>
            <Position>
              <LatitudeDegrees>38.0009393580257892608642578125</LatitudeDegrees>
              <LongitudeDegrees>-1.138876341283321380615234375</LongitudeDegrees>
            </Position>
            <AltitudeMeters>59.799999237060546875</AltitudeMeters>
            <DistanceMeters>NAN</DistanceMeters>
          </Trackpoint>
          <Trackpoint>
            <Time>2020-05-25T04:33:36.000Z</Time>
            <Position>
              <LatitudeDegrees>38.00098453648388385772705078125</LatitudeDegrees>
              <LongitudeDegrees>-1.13892353139817714691162109375</LongitudeDegrees>
            </Position>
            <AltitudeMeters>59.59999847412109375</AltitudeMeters>
            <DistanceMeters>NAN</DistanceMeters>
          </Trackpoint>
          <Trackpoint>
            <Time>2020-05-25T04:33:37.000Z</Time>
            <Position>
              <LatitudeDegrees>38.001029379665851593017578125</LatitudeDegrees>
              <LongitudeDegrees>-1.13897030241787433624267578125</LongitudeDegrees>
            </Position>
            <AltitudeMeters>59.799999237060546875</AltitudeMeters>
            <DistanceMeters>NAN</DistanceMeters>
          </Trackpoint>
          <Trackpoint>
            <Time>2020-05-25T04:33:38.000Z</Time>
            <Position>
              <LatitudeDegrees>38.0010744743049144744873046875</LatitudeDegrees>
              <LongitudeDegrees>-1.13901791162788867950439453125</LongitudeDegrees>
            </Position>
            <AltitudeMeters>60</AltitudeMeters>
            <DistanceMeters>NAN</DistanceMeters>
          </Trackpoint>
          <Trackpoint>
            <Time>2020-05-25T04:33:39.000Z</Time>
            <Position>
              <LatitudeDegrees>38.00111998803913593292236328125</LatitudeDegrees>
              <LongitudeDegrees>-1.13906652666628360748291015625</LongitudeDegrees>
            </Position>
            <AltitudeMeters>60</AltitudeMeters>
            <DistanceMeters>NAN</DistanceMeters>
          </Trackpoint>
          <Trackpoint>
            <Time>2020-05-25T04:33:40.000Z</Time>
            <Position>
              <LatitudeDegrees>38.00116642378270626068115234375</LatitudeDegrees>
              <LongitudeDegrees>-1.13911614753305912017822265625</LongitudeDegrees>
            </Position>
            <AltitudeMeters>60</AltitudeMeters>
            <DistanceMeters>NAN</DistanceMeters>
          </Trackpoint>
          <Trackpoint>
            <Time>2020-05-25T04:33:41.000Z</Time>
            <Position>
              <LatitudeDegrees>38.00121478736400604248046875</LatitudeDegrees>
              <LongitudeDegrees>-1.13916593603789806365966796875</LongitudeDegrees>
            </Position>
            <AltitudeMeters>60</AltitudeMeters>
            <DistanceMeters>NAN</DistanceMeters>
          </Trackpoint>
          <Trackpoint>
            <Time>2020-05-25T04:33:42.000Z</Time>
            <Position>
              <LatitudeDegrees>38.0012635700404644012451171875</LatitudeDegrees>
              <LongitudeDegrees>-1.13921404816210269927978515625</LongitudeDegrees>
            </Position>
            <AltitudeMeters>60</AltitudeMeters>
            <DistanceMeters>NAN</DistanceMeters>
          </Trackpoint>
          <Trackpoint>
            <Time>2020-05-25T04:33:43.000Z</Time>
            <Position>
              <LatitudeDegrees>38.00131394527852535247802734375</LatitudeDegrees>
              <LongitudeDegrees>-1.13926165737211704254150390625</LongitudeDegrees>
            </Position>
            <AltitudeMeters>60</AltitudeMeters>
            <DistanceMeters>NAN</DistanceMeters>
          </Trackpoint>
          <Trackpoint>
            <Time>2020-05-25T04:33:44.000Z</Time>
            <Position>
              <LatitudeDegrees>38.00136440433561801910400390625</LatitudeDegrees>
              <LongitudeDegrees>-1.13930993713438510894775390625</LongitudeDegrees>
            </Position>
            <AltitudeMeters>60</AltitudeMeters>
            <DistanceMeters>NAN</DistanceMeters>
          </Trackpoint>
          <Trackpoint>
            <Time>2020-05-25T04:33:45.000Z</Time>
            <Position>
              <LatitudeDegrees>38.00141436047852039337158203125</LatitudeDegrees>
              <LongitudeDegrees>-1.13936123438179492950439453125</LongitudeDegrees>
            </Position>
            <AltitudeMeters>60</AltitudeMeters>
            <DistanceMeters>NAN</DistanceMeters>
          </Trackpoint>
          <Trackpoint>
            <Time>2020-05-25T04:33:46.000Z</Time>
            <Position>
              <LatitudeDegrees>38.00141436047852039337158203125</LatitudeDegrees>
              <LongitudeDegrees>-1.13936123438179492950439453125</LongitudeDegrees>
            </Position>
            <AltitudeMeters>60</AltitudeMeters>
            <DistanceMeters>NAN</DistanceMeters>
          </Trackpoint>
          <Trackpoint>
            <Time>2020-05-25T04:33:47.000Z</Time>
            <Position>
              <LatitudeDegrees>38.0015113390982151031494140625</LatitudeDegrees>
              <LongitudeDegrees>-1.13947137258946895599365234375</LongitudeDegrees>
            </Position>
            <AltitudeMeters>60</AltitudeMeters>
            <DistanceMeters>NAN</DistanceMeters>
          </Trackpoint>
          <Trackpoint>
            <Time>2020-05-25T04:33:48.000Z</Time>
            <Position>
              <LatitudeDegrees>38.00155919976532459259033203125</LatitudeDegrees>
              <LongitudeDegrees>-1.13952417857944965362548828125</LongitudeDegrees>
            </Position>
            <AltitudeMeters>60.200000762939453125</AltitudeMeters>
            <DistanceMeters>NAN</DistanceMeters>
          </Trackpoint>
          <Trackpoint>
            <Time>2020-05-25T04:33:49.000Z</Time>
            <Position>
              <LatitudeDegrees>38.0016072280704975128173828125</LatitudeDegrees>
              <LongitudeDegrees>-1.139575727283954620361328125</LongitudeDegrees>
            </Position>
            <AltitudeMeters>60.200000762939453125</AltitudeMeters>
            <DistanceMeters>NAN</DistanceMeters>
          </Trackpoint>
          <Trackpoint>
            <Time>2020-05-25T04:33:50.000Z</Time>
            <Position>
              <LatitudeDegrees>38.00165575928986072540283203125</LatitudeDegrees>
              <LongitudeDegrees>-1.13962559960782527923583984375</LongitudeDegrees>
            </Position>
            <AltitudeMeters>60.200000762939453125</AltitudeMeters>
            <DistanceMeters>NAN</DistanceMeters>
          </Trackpoint>
          <Trackpoint>
            <Time>2020-05-25T04:33:51.000Z</Time>
            <Position>
              <LatitudeDegrees>38.0017037875950336456298828125</LatitudeDegrees>
              <LongitudeDegrees>-1.13967320881783962249755859375</LongitudeDegrees>
            </Position>
            <AltitudeMeters>60.200000762939453125</AltitudeMeters>
            <DistanceMeters>NAN</DistanceMeters>
          </Trackpoint>
          <Trackpoint>
            <Time>2020-05-25T04:33:52.000Z</Time>
            <Position>
              <LatitudeDegrees>38.0017037875950336456298828125</LatitudeDegrees>
              <LongitudeDegrees>-1.13967320881783962249755859375</LongitudeDegrees>
            </Position>
            <AltitudeMeters>60.200000762939453125</AltitudeMeters>
            <DistanceMeters>NAN</DistanceMeters>
          </Trackpoint>
          <Trackpoint>
            <Time>2020-05-25T04:33:53.000Z</Time>
            <Position>
              <LatitudeDegrees>38.0018040351569652557373046875</LatitudeDegrees>
              <LongitudeDegrees>-1.13978032954037189483642578125</LongitudeDegrees>
            </Position>
            <AltitudeMeters>60.200000762939453125</AltitudeMeters>
            <DistanceMeters>NAN</DistanceMeters>
          </Trackpoint>
          <Trackpoint>
            <Time>2020-05-25T04:33:54.000Z</Time>
            <Position>
              <LatitudeDegrees>38.00185508094727993011474609375</LatitudeDegrees>
              <LongitudeDegrees>-1.13983196206390857696533203125</LongitudeDegrees>
            </Position>
            <AltitudeMeters>60.200000762939453125</AltitudeMeters>
            <DistanceMeters>NAN</DistanceMeters>
          </Trackpoint>
          <Trackpoint>
            <Time>2020-05-25T04:33:55.000Z</Time>
            <Position>
              <LatitudeDegrees>38.00190470181405544281005859375</LatitudeDegrees>
              <LongitudeDegrees>-1.13988158293068408966064453125</LongitudeDegrees>
            </Position>
            <AltitudeMeters>60.200000762939453125</AltitudeMeters>
            <DistanceMeters>NAN</DistanceMeters>
          </Trackpoint>
          <Trackpoint>
            <Time>2020-05-25T04:33:56.000Z</Time>
            <Position>
              <LatitudeDegrees>38.001954071223735809326171875</LatitudeDegrees>
              <LongitudeDegrees>-1.13993220962584018707275390625</LongitudeDegrees>
            </Position>
            <AltitudeMeters>60.200000762939453125</AltitudeMeters>
            <DistanceMeters>NAN</DistanceMeters>
          </Trackpoint>
          <Trackpoint>
            <Time>2020-05-25T04:33:57.000Z</Time>
            <Position>
              <LatitudeDegrees>38.00200344063341617584228515625</LatitudeDegrees>
              <LongitudeDegrees>-1.13998333923518657684326171875</LongitudeDegrees>
            </Position>
            <AltitudeMeters>60.200000762939453125</AltitudeMeters>
            <DistanceMeters>NAN</DistanceMeters>
          </Trackpoint>
          <Trackpoint>
            <Time>2020-05-25T04:33:58.000Z</Time>
            <Position>
              <LatitudeDegrees>38.00200344063341617584228515625</LatitudeDegrees>
              <LongitudeDegrees>-1.13998333923518657684326171875</LongitudeDegrees>
            </Position>
            <AltitudeMeters>60.200000762939453125</AltitudeMeters>
            <DistanceMeters>NAN</DistanceMeters>
          </Trackpoint>
          <Trackpoint>
            <Time>2020-05-25T04:33:59.000Z</Time>
            <Position>
              <LatitudeDegrees>38.00210536457598209381103515625</LatitudeDegrees>
              <LongitudeDegrees>-1.140080653131008148193359375</LongitudeDegrees>
            </Position>
            <AltitudeMeters>60.200000762939453125</AltitudeMeters>
            <DistanceMeters>NAN</DistanceMeters>
          </Trackpoint>
          <Trackpoint>
            <Time>2020-05-25T04:34:00.000Z</Time>
            <Position>
              <LatitudeDegrees>38.00215783528983592987060546875</LatitudeDegrees>
              <LongitudeDegrees>-1.1401279270648956298828125</LongitudeDegrees>
            </Position>
            <AltitudeMeters>60.200000762939453125</AltitudeMeters>
            <DistanceMeters>NAN</DistanceMeters>
          </Trackpoint>
          <Trackpoint>
            <Time>2020-05-25T04:34:01.000Z</Time>
            <Position>
              <LatitudeDegrees>38.00215783528983592987060546875</LatitudeDegrees>
              <LongitudeDegrees>-1.1401279270648956298828125</LongitudeDegrees>
            </Position>
            <AltitudeMeters>60.200000762939453125</AltitudeMeters>
            <DistanceMeters>NAN</DistanceMeters>
          </Trackpoint>
          <Trackpoint>
            <Time>2020-05-25T04:34:02.000Z</Time>
            <Position>
              <LatitudeDegrees>38.002263195812702178955078125</LatitudeDegrees>
              <LongitudeDegrees>-1.14022725261747837066650390625</LongitudeDegrees>
            </Position>
            <AltitudeMeters>60.200000762939453125</AltitudeMeters>
            <DistanceMeters>NAN</DistanceMeters>
          </Trackpoint>
          <Trackpoint>
            <Time>2020-05-25T04:34:03.000Z</Time>
            <Position>
              <LatitudeDegrees>38.002263195812702178955078125</LatitudeDegrees>
              <LongitudeDegrees>-1.14022725261747837066650390625</LongitudeDegrees>
            </Position>
            <AltitudeMeters>60.200000762939453125</AltitudeMeters>
            <DistanceMeters>NAN</DistanceMeters>
          </Trackpoint>
          <Trackpoint>
            <Time>2020-05-25T04:34:04.000Z</Time>
            <Position>
              <LatitudeDegrees>38.0023146606981754302978515625</LatitudeDegrees>
              <LongitudeDegrees>-1.140277124941349029541015625</LongitudeDegrees>
            </Position>
            <AltitudeMeters>60.200000762939453125</AltitudeMeters>
            <DistanceMeters>NAN</DistanceMeters>
          </Trackpoint>
          <Trackpoint>
            <Time>2020-05-25T04:34:05.000Z</Time>
            <Position>
              <LatitudeDegrees>38.0023662932217121124267578125</LatitudeDegrees>
              <LongitudeDegrees>-1.14032716490328311920166015625</LongitudeDegrees>
            </Position>
            <AltitudeMeters>60.200000762939453125</AltitudeMeters>
            <DistanceMeters>NAN</DistanceMeters>
          </Trackpoint>
          <Trackpoint>
            <Time>2020-05-25T04:34:06.000Z</Time>
            <Position>
              <LatitudeDegrees>38.00246880389750003814697265625</LatitudeDegrees>
              <LongitudeDegrees>-1.14043193869292736053466796875</LongitudeDegrees>
            </Position>
            <AltitudeMeters>60.200000762939453125</AltitudeMeters>
            <DistanceMeters>NAN</DistanceMeters>
          </Trackpoint>
          <Trackpoint>
            <Time>2020-05-25T04:34:07.000Z</Time>
            <Position>
              <LatitudeDegrees>38.00252026878297328948974609375</LatitudeDegrees>
              <LongitudeDegrees>-1.1404824815690517425537109375</LongitudeDegrees>
            </Position>
            <AltitudeMeters>60.200000762939453125</AltitudeMeters>
            <DistanceMeters>NAN</DistanceMeters>
          </Trackpoint>
          <Trackpoint>
            <Time>2020-05-25T04:34:08.000Z</Time>
            <Position>
              <LatitudeDegrees>38.00257198512554168701171875</LatitudeDegrees>
              <LongitudeDegrees>-1.14053352735936641693115234375</LongitudeDegrees>
            </Position>
            <AltitudeMeters>60.200000762939453125</AltitudeMeters>
            <DistanceMeters>NAN</DistanceMeters>
          </Trackpoint>
          <Trackpoint>
            <Time>2020-05-25T04:34:09.000Z</Time>
            <Position>
              <LatitudeDegrees>38.00257198512554168701171875</LatitudeDegrees>
              <LongitudeDegrees>-1.14053352735936641693115234375</LongitudeDegrees>
            </Position>
            <AltitudeMeters>60.200000762939453125</AltitudeMeters>
            <DistanceMeters>NAN</DistanceMeters>
          </Trackpoint>
          <Trackpoint>
            <Time>2020-05-25T04:34:10.000Z</Time>
            <Position>
              <LatitudeDegrees>38.002623952925205230712890625</LatitudeDegrees>
              <LongitudeDegrees>-1.14058499224483966827392578125</LongitudeDegrees>
            </Position>
            <AltitudeMeters>60.200000762939453125</AltitudeMeters>
            <DistanceMeters>NAN</DistanceMeters>
          </Trackpoint>
          <Trackpoint>
            <Time>2020-05-25T04:34:11.000Z</Time>
            <Position>
              <LatitudeDegrees>38.002729900181293487548828125</LatitudeDegrees>
              <LongitudeDegrees>-1.14068708382546901702880859375</LongitudeDegrees>
            </Position>
            <AltitudeMeters>60.200000762939453125</AltitudeMeters>
            <DistanceMeters>NAN</DistanceMeters>
          </Trackpoint>
          <Trackpoint>
            <Time>2020-05-25T04:34:12.000Z</Time>
            <Position>
              <LatitudeDegrees>38.00278295762836933135986328125</LatitudeDegrees>
              <LongitudeDegrees>-1.1407406441867351531982421875</LongitudeDegrees>
            </Position>
            <AltitudeMeters>60.200000762939453125</AltitudeMeters>
            <DistanceMeters>NAN</DistanceMeters>
          </Trackpoint>
          <Trackpoint>
            <Time>2020-05-25T04:34:13.000Z</Time>
            <Position>
              <LatitudeDegrees>38.00278295762836933135986328125</LatitudeDegrees>
              <LongitudeDegrees>-1.1407406441867351531982421875</LongitudeDegrees>
            </Position>
            <AltitudeMeters>60.200000762939453125</AltitudeMeters>
            <DistanceMeters>NAN</DistanceMeters>
          </Trackpoint>
          <Trackpoint>
            <Time>2020-05-25T04:34:14.000Z</Time>
            <Position>
              <LatitudeDegrees>38.0028893239796161651611328125</LatitudeDegrees>
              <LongitudeDegrees>-1.14088104106485843658447265625</LongitudeDegrees>
            </Position>
            <AltitudeMeters>60.200000762939453125</AltitudeMeters>
            <DistanceMeters>NAN</DistanceMeters>
          </Trackpoint>
          <Trackpoint>
            <Time>2020-05-25T04:34:15.000Z</Time>
            <Position>
              <LatitudeDegrees>38.0029426328837871551513671875</LatitudeDegrees>
              <LongitudeDegrees>-1.14093233831226825714111328125</LongitudeDegrees>
            </Position>
            <AltitudeMeters>60.200000762939453125</AltitudeMeters>
            <DistanceMeters>NAN</DistanceMeters>
          </Trackpoint>
          <Trackpoint>
            <Time>2020-05-25T04:34:16.000Z</Time>
            <Position>
              <LatitudeDegrees>38.0029426328837871551513671875</LatitudeDegrees>
              <LongitudeDegrees>-1.14093233831226825714111328125</LongitudeDegrees>
            </Position>
            <AltitudeMeters>60.200000762939453125</AltitudeMeters>
            <DistanceMeters>NAN</DistanceMeters>
          </Trackpoint>
          <Trackpoint>
            <Time>2020-05-25T04:34:17.000Z</Time>
            <Position>
              <LatitudeDegrees>38.002995438873767852783203125</LatitudeDegrees>
              <LongitudeDegrees>-1.1409837193787097930908203125</LongitudeDegrees>
            </Position>
            <AltitudeMeters>60.200000762939453125</AltitudeMeters>
            <DistanceMeters>NAN</DistanceMeters>
          </Trackpoint>
          <Trackpoint>
            <Time>2020-05-25T04:34:18.000Z</Time>
            <Position>
              <LatitudeDegrees>38.0031012184917926788330078125</LatitudeDegrees>
              <LongitudeDegrees>-1.1410856433212757110595703125</LongitudeDegrees>
            </Position>
            <AltitudeMeters>60.200000762939453125</AltitudeMeters>
            <DistanceMeters>NAN</DistanceMeters>
          </Trackpoint>
          <Trackpoint>
            <Time>2020-05-25T04:34:19.000Z</Time>
            <Position>
              <LatitudeDegrees>38.00315402448177337646484375</LatitudeDegrees>
              <LongitudeDegrees>-1.14113710820674896240234375</LongitudeDegrees>
            </Position>
            <AltitudeMeters>60.200000762939453125</AltitudeMeters>
            <DistanceMeters>NAN</DistanceMeters>
          </Trackpoint>
          <Trackpoint>
            <Time>2020-05-25T04:34:20.000Z</Time>
            <Position>
              <LatitudeDegrees>38.00320691429078578948974609375</LatitudeDegrees>
              <LongitudeDegrees>-1.141189746558666229248046875</LongitudeDegrees>
            </Position>
            <AltitudeMeters>60</AltitudeMeters>
            <DistanceMeters>NAN</DistanceMeters>
          </Trackpoint>
          <Trackpoint>
            <Time>2020-05-25T04:34:21.000Z</Time>
            <Position>
              <LatitudeDegrees>38.0032598040997982025146484375</LatitudeDegrees>
              <LongitudeDegrees>-1.141243390738964080810546875</LongitudeDegrees>
            </Position>
            <AltitudeMeters>60</AltitudeMeters>
            <DistanceMeters>NAN</DistanceMeters>
          </Trackpoint>
          <Trackpoint>
            <Time>2020-05-25T04:34:22.000Z</Time>
            <Position>
              <LatitudeDegrees>38.0032598040997982025146484375</LatitudeDegrees>
              <LongitudeDegrees>-1.141243390738964080810546875</LongitudeDegrees>
            </Position>
            <AltitudeMeters>60</AltitudeMeters>
            <DistanceMeters>NAN</DistanceMeters>
          </Trackpoint>
          <Trackpoint>
            <Time>2020-05-25T04:34:23.000Z</Time>
            <Position>
              <LatitudeDegrees>38.00336365588009357452392578125</LatitudeDegrees>
              <LongitudeDegrees>-1.1413531936705112457275390625</LongitudeDegrees>
            </Position>
            <AltitudeMeters>60</AltitudeMeters>
            <DistanceMeters>NAN</DistanceMeters>
          </Trackpoint>
          <Trackpoint>
            <Time>2020-05-25T04:34:24.000Z</Time>
            <Position>
              <LatitudeDegrees>38.0034160427749156951904296875</LatitudeDegrees>
              <LongitudeDegrees>-1.14140608347952365875244140625</LongitudeDegrees>
            </Position>
            <AltitudeMeters>60</AltitudeMeters>
            <DistanceMeters>NAN</DistanceMeters>
          </Trackpoint>
          <Trackpoint>
            <Time>2020-05-25T04:34:25.000Z</Time>
            <Position>
              <LatitudeDegrees>38.0034160427749156951904296875</LatitudeDegrees>
              <LongitudeDegrees>-1.14140608347952365875244140625</LongitudeDegrees>
            </Position>
            <AltitudeMeters>60</AltitudeMeters>
            <DistanceMeters>NAN</DistanceMeters>
          </Trackpoint>
          <Trackpoint>
            <Time>2020-05-25T04:34:26.000Z</Time>
            <Position>
              <LatitudeDegrees>38.00351754762232303619384765625</LatitudeDegrees>
              <LongitudeDegrees>-1.14151672460138797760009765625</LongitudeDegrees>
            </Position>
            <AltitudeMeters>60</AltitudeMeters>
            <DistanceMeters>NAN</DistanceMeters>
          </Trackpoint>
          <Trackpoint>
            <Time>2020-05-25T04:34:27.000Z</Time>
            <Position>
              <LatitudeDegrees>38.00357152707874774932861328125</LatitudeDegrees>
              <LongitudeDegrees>-1.14156760275363922119140625</LongitudeDegrees>
            </Position>
            <AltitudeMeters>60.200000762939453125</AltitudeMeters>
            <DistanceMeters>NAN</DistanceMeters>
          </Trackpoint>
          <Trackpoint>
            <Time>2020-05-25T04:34:28.000Z</Time>
            <Position>
              <LatitudeDegrees>38.00357152707874774932861328125</LatitudeDegrees>
              <LongitudeDegrees>-1.14156760275363922119140625</LongitudeDegrees>
            </Position>
            <AltitudeMeters>60.200000762939453125</AltitudeMeters>
            <DistanceMeters>NAN</DistanceMeters>
          </Trackpoint>
          <Trackpoint>
            <Time>2020-05-25T04:34:29.000Z</Time>
            <Position>
              <LatitudeDegrees>38.00368015654385089874267578125</LatitudeDegrees>
              <LongitudeDegrees>-1.14167028106749057769775390625</LongitudeDegrees>
            </Position>
            <AltitudeMeters>60.200000762939453125</AltitudeMeters>
            <DistanceMeters>NAN</DistanceMeters>
          </Trackpoint>
          <Trackpoint>
            <Time>2020-05-25T04:34:30.000Z</Time>
            <Position>
              <LatitudeDegrees>38.00373497419059276580810546875</LatitudeDegrees>
              <LongitudeDegrees>-1.14172107540071010589599609375</LongitudeDegrees>
            </Position>
            <AltitudeMeters>60.200000762939453125</AltitudeMeters>
            <DistanceMeters>NAN</DistanceMeters>
          </Trackpoint>
          <Trackpoint>
            <Time>2020-05-25T04:34:31.000Z</Time>
            <Position>
              <LatitudeDegrees>38.00373497419059276580810546875</LatitudeDegrees>
              <LongitudeDegrees>-1.14172107540071010589599609375</LongitudeDegrees>
            </Position>
            <AltitudeMeters>60.200000762939453125</AltitudeMeters>
            <DistanceMeters>NAN</DistanceMeters>
          </Trackpoint>
          <Trackpoint>
            <Time>2020-05-25T04:34:32.000Z</Time>
            <Position>
              <LatitudeDegrees>38.003843016922473907470703125</LatitudeDegrees>
              <LongitudeDegrees>-1.14182719029486179351806640625</LongitudeDegrees>
            </Position>
            <AltitudeMeters>60.200000762939453125</AltitudeMeters>
            <DistanceMeters>NAN</DistanceMeters>
          </Trackpoint>
          <Trackpoint>
            <Time>2020-05-25T04:34:33.000Z</Time>
            <Position>
              <LatitudeDegrees>38.003843016922473907470703125</LatitudeDegrees>
              <LongitudeDegrees>-1.14182719029486179351806640625</LongitudeDegrees>
            </Position>
            <AltitudeMeters>60.200000762939453125</AltitudeMeters>
            <DistanceMeters>NAN</DistanceMeters>
          </Trackpoint>
          <Trackpoint>
            <Time>2020-05-25T04:34:34.000Z</Time>
            <Position>
              <LatitudeDegrees>38.0038961581885814666748046875</LatitudeDegrees>
              <LongitudeDegrees>-1.1418807506561279296875</LongitudeDegrees>
            </Position>
            <AltitudeMeters>60.200000762939453125</AltitudeMeters>
            <DistanceMeters>NAN</DistanceMeters>
          </Trackpoint>
          <Trackpoint>
            <Time>2020-05-25T04:34:35.000Z</Time>
            <Position>
              <LatitudeDegrees>38.004000596702098846435546875</LatitudeDegrees>
              <LongitudeDegrees>-1.1419841833412647247314453125</LongitudeDegrees>
            </Position>
            <AltitudeMeters>60.200000762939453125</AltitudeMeters>
            <DistanceMeters>NAN</DistanceMeters>
          </Trackpoint>
          <Trackpoint>
            <Time>2020-05-25T04:34:36.000Z</Time>
            <Position>
              <LatitudeDegrees>38.0040534026920795440673828125</LatitudeDegrees>
              <LongitudeDegrees>-1.1420348100364208221435546875</LongitudeDegrees>
            </Position>
            <AltitudeMeters>60.200000762939453125</AltitudeMeters>
            <DistanceMeters>NAN</DistanceMeters>
          </Trackpoint>
          <Trackpoint>
            <Time>2020-05-25T04:34:37.000Z</Time>
            <Position>
              <LatitudeDegrees>38.00410620868206024169921875</LatitudeDegrees>
              <LongitudeDegrees>-1.14208568818867206573486328125</LongitudeDegrees>
            </Position>
            <AltitudeMeters>60.200000762939453125</AltitudeMeters>
            <DistanceMeters>NAN</DistanceMeters>
          </Trackpoint>
          <Trackpoint>
            <Time>2020-05-25T04:34:38.000Z</Time>
            <Position>
              <LatitudeDegrees>38.0041576735675334930419921875</LatitudeDegrees>
              <LongitudeDegrees>-1.1421370692551136016845703125</LongitudeDegrees>
            </Position>
            <AltitudeMeters>60.200000762939453125</AltitudeMeters>
            <DistanceMeters>NAN</DistanceMeters>
          </Trackpoint>
          <Trackpoint>
            <Time>2020-05-25T04:34:39.000Z</Time>
            <Position>
              <LatitudeDegrees>38.0042079649865627288818359375</LatitudeDegrees>
              <LongitudeDegrees>-1.1421880312263965606689453125</LongitudeDegrees>
            </Position>
            <AltitudeMeters>60.200000762939453125</AltitudeMeters>
            <DistanceMeters>NAN</DistanceMeters>
          </Trackpoint>
          <Trackpoint>
            <Time>2020-05-25T04:34:40.000Z</Time>
            <Position>
              <LatitudeDegrees>38.0042079649865627288818359375</LatitudeDegrees>
              <LongitudeDegrees>-1.1421880312263965606689453125</LongitudeDegrees>
            </Position>
            <AltitudeMeters>60.200000762939453125</AltitudeMeters>
            <DistanceMeters>NAN</DistanceMeters>
          </Trackpoint>
          <Trackpoint>
            <Time>2020-05-25T04:34:41.000Z</Time>
            <Position>
              <LatitudeDegrees>38.0043055303394794464111328125</LatitudeDegrees>
              <LongitudeDegrees>-1.14229439757764339447021484375</LongitudeDegrees>
            </Position>
            <AltitudeMeters>60.200000762939453125</AltitudeMeters>
            <DistanceMeters>NAN</DistanceMeters>
          </Trackpoint>
          <Trackpoint>
            <Time>2020-05-25T04:34:42.000Z</Time>
            <Position>
              <LatitudeDegrees>38.00435339100658893585205078125</LatitudeDegrees>
              <LongitudeDegrees>-1.14234552718698978424072265625</LongitudeDegrees>
            </Position>
            <AltitudeMeters>60.200000762939453125</AltitudeMeters>
            <DistanceMeters>NAN</DistanceMeters>
          </Trackpoint>
          <Trackpoint>
            <Time>2020-05-25T04:34:43.000Z</Time>
            <Position>
              <LatitudeDegrees>38.004400245845317840576171875</LatitudeDegrees>
              <LongitudeDegrees>-1.1423955671489238739013671875</LongitudeDegrees>
            </Position>
            <AltitudeMeters>60.200000762939453125</AltitudeMeters>
            <DistanceMeters>NAN</DistanceMeters>
          </Trackpoint>
          <Trackpoint>
            <Time>2020-05-25T04:34:44.000Z</Time>
            <Position>
              <LatitudeDegrees>38.0044480226933956146240234375</LatitudeDegrees>
              <LongitudeDegrees>-1.142445690929889678955078125</LongitudeDegrees>
            </Position>
            <AltitudeMeters>60.40000152587890625</AltitudeMeters>
            <DistanceMeters>NAN</DistanceMeters>
          </Trackpoint>
          <Trackpoint>
            <Time>2020-05-25T04:34:45.000Z</Time>
            <Position>
              <LatitudeDegrees>38.00449755974113941192626953125</LatitudeDegrees>
              <LongitudeDegrees>-1.14249455742537975311279296875</LongitudeDegrees>
            </Position>
            <AltitudeMeters>60.40000152587890625</AltitudeMeters>
            <DistanceMeters>NAN</DistanceMeters>
          </Trackpoint>
          <Trackpoint>
            <Time>2020-05-25T04:34:46.000Z</Time>
            <Position>
              <LatitudeDegrees>38.00449755974113941192626953125</LatitudeDegrees>
              <LongitudeDegrees>-1.14249455742537975311279296875</LongitudeDegrees>
            </Position>
            <AltitudeMeters>60.59999847412109375</AltitudeMeters>
            <DistanceMeters>NAN</DistanceMeters>
          </Trackpoint>
          <Trackpoint>
            <Time>2020-05-25T04:34:47.000Z</Time>
            <Position>
              <LatitudeDegrees>38.00459596328437328338623046875</LatitudeDegrees>
              <LongitudeDegrees>-1.1425875127315521240234375</LongitudeDegrees>
            </Position>
            <AltitudeMeters>60.799999237060546875</AltitudeMeters>
            <DistanceMeters>NAN</DistanceMeters>
          </Trackpoint>
          <Trackpoint>
            <Time>2020-05-25T04:34:48.000Z</Time>
            <Position>
              <LatitudeDegrees>38.00464558415114879608154296875</LatitudeDegrees>
              <LongitudeDegrees>-1.14263369701802730560302734375</LongitudeDegrees>
            </Position>
            <AltitudeMeters>60.799999237060546875</AltitudeMeters>
            <DistanceMeters>NAN</DistanceMeters>
          </Trackpoint>
          <Trackpoint>
            <Time>2020-05-25T04:34:49.000Z</Time>
            <Position>
              <LatitudeDegrees>38.00469470210373401641845703125</LatitudeDegrees>
              <LongitudeDegrees>-1.14268013276159763336181640625</LongitudeDegrees>
            </Position>
            <AltitudeMeters>60.799999237060546875</AltitudeMeters>
            <DistanceMeters>NAN</DistanceMeters>
          </Trackpoint>
          <Trackpoint>
            <Time>2020-05-25T04:34:50.000Z</Time>
            <Position>
              <LatitudeDegrees>38.00474415533244609832763671875</LatitudeDegrees>
              <LongitudeDegrees>-1.14272606559097766876220703125</LongitudeDegrees>
            </Position>
            <AltitudeMeters>60.799999237060546875</AltitudeMeters>
            <DistanceMeters>NAN</DistanceMeters>
          </Trackpoint>
          <Trackpoint>
            <Time>2020-05-25T04:34:51.000Z</Time>
            <Position>
              <LatitudeDegrees>38.0047946982085704803466796875</LatitudeDegrees>
              <LongitudeDegrees>-1.14276998676359653472900390625</LongitudeDegrees>
            </Position>
            <AltitudeMeters>61</AltitudeMeters>
            <DistanceMeters>NAN</DistanceMeters>
          </Trackpoint>
          <Trackpoint>
            <Time>2020-05-25T04:34:52.000Z</Time>
            <Position>
              <LatitudeDegrees>38.0048476718366146087646484375</LatitudeDegrees>
              <LongitudeDegrees>-1.14280871115624904632568359375</LongitudeDegrees>
            </Position>
            <AltitudeMeters>61</AltitudeMeters>
            <DistanceMeters>NAN</DistanceMeters>
          </Trackpoint>
          <Trackpoint>
            <Time>2020-05-25T04:34:53.000Z</Time>
            <Position>
              <LatitudeDegrees>38.00490324385464191436767578125</LatitudeDegrees>
              <LongitudeDegrees>-1.1428451724350452423095703125</LongitudeDegrees>
            </Position>
            <AltitudeMeters>61.200000762939453125</AltitudeMeters>
            <DistanceMeters>NAN</DistanceMeters>
          </Trackpoint>
          <Trackpoint>
            <Time>2020-05-25T04:34:54.000Z</Time>
            <Position>
              <LatitudeDegrees>38.0049596540629863739013671875</LatitudeDegrees>
              <LongitudeDegrees>-1.14287853240966796875</LongitudeDegrees>
            </Position>
            <AltitudeMeters>61.200000762939453125</AltitudeMeters>
            <DistanceMeters>NAN</DistanceMeters>
          </Trackpoint>
          <Trackpoint>
            <Time>2020-05-25T04:34:55.000Z</Time>
            <Position>
              <LatitudeDegrees>38.00501354970037937164306640625</LatitudeDegrees>
              <LongitudeDegrees>-1.1429149098694324493408203125</LongitudeDegrees>
            </Position>
            <AltitudeMeters>61.200000762939453125</AltitudeMeters>
            <DistanceMeters>NAN</DistanceMeters>
          </Trackpoint>
          <Trackpoint>
            <Time>2020-05-25T04:34:56.000Z</Time>
            <Position>
              <LatitudeDegrees>38.005065433681011199951171875</LatitudeDegrees>
              <LongitudeDegrees>-1.14295405335724353790283203125</LongitudeDegrees>
            </Position>
            <AltitudeMeters>61.40000152587890625</AltitudeMeters>
            <DistanceMeters>NAN</DistanceMeters>
          </Trackpoint>
          <Trackpoint>
            <Time>2020-05-25T04:34:57.000Z</Time>
            <Position>
              <LatitudeDegrees>38.00511337816715240478515625</LatitudeDegrees>
              <LongitudeDegrees>-1.14299998618662357330322265625</LongitudeDegrees>
            </Position>
            <AltitudeMeters>61.40000152587890625</AltitudeMeters>
            <DistanceMeters>NAN</DistanceMeters>
          </Trackpoint>
          <Trackpoint>
            <Time>2020-05-25T04:34:58.000Z</Time>
            <Position>
              <LatitudeDegrees>38.00515704788267612457275390625</LatitudeDegrees>
              <LongitudeDegrees>-1.143053211271762847900390625</LongitudeDegrees>
            </Position>
            <AltitudeMeters>61.40000152587890625</AltitudeMeters>
            <DistanceMeters>NAN</DistanceMeters>
          </Trackpoint>
          <Trackpoint>
            <Time>2020-05-25T04:34:59.000Z</Time>
            <Position>
              <LatitudeDegrees>38.00519644282758235931396484375</LatitudeDegrees>
              <LongitudeDegrees>-1.1431130580604076385498046875</LongitudeDegrees>
            </Position>
            <AltitudeMeters>61.59999847412109375</AltitudeMeters>
            <DistanceMeters>NAN</DistanceMeters>
          </Trackpoint>
          <Trackpoint>
            <Time>2020-05-25T04:35:00.000Z</Time>
            <Position>
              <LatitudeDegrees>38.00523340702056884765625</LatitudeDegrees>
              <LongitudeDegrees>-1.1431717313826084136962890625</LongitudeDegrees>
            </Position>
            <AltitudeMeters>61.799999237060546875</AltitudeMeters>
            <DistanceMeters>NAN</DistanceMeters>
          </Trackpoint>
          <Trackpoint>
            <Time>2020-05-25T04:35:01.000Z</Time>
            <Position>
              <LatitudeDegrees>38.005271963775157928466796875</LatitudeDegrees>
              <LongitudeDegrees>-1.14323065616190433502197265625</LongitudeDegrees>
            </Position>
            <AltitudeMeters>61.799999237060546875</AltitudeMeters>
            <DistanceMeters>NAN</DistanceMeters>
          </Trackpoint>
          <Trackpoint>
            <Time>2020-05-25T04:35:02.000Z</Time>
            <Position>
              <LatitudeDegrees>38.00531320273876190185546875</LatitudeDegrees>
              <LongitudeDegrees>-1.14328647963702678680419921875</LongitudeDegrees>
            </Position>
            <AltitudeMeters>61.799999237060546875</AltitudeMeters>
            <DistanceMeters>NAN</DistanceMeters>
          </Trackpoint>
          <Trackpoint>
            <Time>2020-05-25T04:35:03.000Z</Time>
            <Position>
              <LatitudeDegrees>38.0053569562733173370361328125</LatitudeDegrees>
              <LongitudeDegrees>-1.14333911798894405364990234375</LongitudeDegrees>
            </Position>
            <AltitudeMeters>62</AltitudeMeters>
            <DistanceMeters>NAN</DistanceMeters>
          </Trackpoint>
          <Trackpoint>
            <Time>2020-05-25T04:35:04.000Z</Time>
            <Position>
              <LatitudeDegrees>38.0054037272930145263671875</LatitudeDegrees>
              <LongitudeDegrees>-1.14338748157024383544921875</LongitudeDegrees>
            </Position>
            <AltitudeMeters>62.200000762939453125</AltitudeMeters>
            <DistanceMeters>NAN</DistanceMeters>
          </Trackpoint>
          <Trackpoint>
            <Time>2020-05-25T04:35:05.000Z</Time>
            <Position>
              <LatitudeDegrees>38.00545158796012401580810546875</LatitudeDegrees>
              <LongitudeDegrees>-1.14343366585671901702880859375</LongitudeDegrees>
            </Position>
            <AltitudeMeters>62.200000762939453125</AltitudeMeters>
            <DistanceMeters>NAN</DistanceMeters>
          </Trackpoint>
          <Trackpoint>
            <Time>2020-05-25T04:35:06.000Z</Time>
            <Position>
              <LatitudeDegrees>38.0054971016943454742431640625</LatitudeDegrees>
              <LongitudeDegrees>-1.1434791795909404754638671875</LongitudeDegrees>
            </Position>
            <AltitudeMeters>62.40000152587890625</AltitudeMeters>
            <DistanceMeters>NAN</DistanceMeters>
          </Trackpoint>
          <Trackpoint>
            <Time>2020-05-25T04:35:07.000Z</Time>
            <Position>
              <LatitudeDegrees>38.0055403523147106170654296875</LatitudeDegrees>
              <LongitudeDegrees>-1.143523268401622772216796875</LongitudeDegrees>
            </Position>
            <AltitudeMeters>62.40000152587890625</AltitudeMeters>
            <DistanceMeters>NAN</DistanceMeters>
          </Trackpoint>
          <Trackpoint>
            <Time>2020-05-25T04:35:08.000Z</Time>
            <Position>
              <LatitudeDegrees>38.00558167509734630584716796875</LatitudeDegrees>
              <LongitudeDegrees>-1.1435656808316707611083984375</LongitudeDegrees>
            </Position>
            <AltitudeMeters>62.40000152587890625</AltitudeMeters>
            <DistanceMeters>NAN</DistanceMeters>
          </Trackpoint>
          <Trackpoint>
            <Time>2020-05-25T04:35:09.000Z</Time>
            <Position>
              <LatitudeDegrees>38.005621321499347686767578125</LatitudeDegrees>
              <LongitudeDegrees>-1.1436062492430210113525390625</LongitudeDegrees>
            </Position>
            <AltitudeMeters>62.59999847412109375</AltitudeMeters>
            <DistanceMeters>NAN</DistanceMeters>
          </Trackpoint>
          <Trackpoint>
            <Time>2020-05-25T04:35:10.000Z</Time>
            <Position>
              <LatitudeDegrees>38.005621321499347686767578125</LatitudeDegrees>
              <LongitudeDegrees>-1.1436062492430210113525390625</LongitudeDegrees>
            </Position>
            <AltitudeMeters>62.799999237060546875</AltitudeMeters>
            <DistanceMeters>NAN</DistanceMeters>
          </Trackpoint>
          <Trackpoint>
            <Time>2020-05-25T04:35:11.000Z</Time>
            <Position>
              <LatitudeDegrees>38.00569265149533748626708984375</LatitudeDegrees>
              <LongitudeDegrees>-1.14368428476154804229736328125</LongitudeDegrees>
            </Position>
            <AltitudeMeters>63</AltitudeMeters>
            <DistanceMeters>NAN</DistanceMeters>
          </Trackpoint>
          <Trackpoint>
            <Time>2020-05-25T04:35:12.000Z</Time>
            <Position>
              <LatitudeDegrees>38.0057250894606113433837890625</LatitudeDegrees>
              <LongitudeDegrees>-1.1437222547829151153564453125</LongitudeDegrees>
            </Position>
            <AltitudeMeters>63</AltitudeMeters>
            <DistanceMeters>NAN</DistanceMeters>
          </Trackpoint>
          <Trackpoint>
            <Time>2020-05-25T04:35:13.000Z</Time>
            <Position>
              <LatitudeDegrees>38.00575383938848972320556640625</LatitudeDegrees>
              <LongitudeDegrees>-1.143758632242679595947265625</LongitudeDegrees>
            </Position>
            <AltitudeMeters>63.200000762939453125</AltitudeMeters>
            <DistanceMeters>NAN</DistanceMeters>
          </Trackpoint>
          <Trackpoint>
            <Time>2020-05-25T04:35:14.000Z</Time>
            <Position>
              <LatitudeDegrees>38.00577948801219463348388671875</LatitudeDegrees>
              <LongitudeDegrees>-1.14379794336855411529541015625</LongitudeDegrees>
            </Position>
            <AltitudeMeters>63.200000762939453125</AltitudeMeters>
            <DistanceMeters>NAN</DistanceMeters>
          </Trackpoint>
          <Trackpoint>
            <Time>2020-05-25T04:35:15.000Z</Time>
            <Position>
              <LatitudeDegrees>38.00580513663589954376220703125</LatitudeDegrees>
              <LongitudeDegrees>-1.1438332311809062957763671875</LongitudeDegrees>
            </Position>
            <AltitudeMeters>63.40000152587890625</AltitudeMeters>
            <DistanceMeters>NAN</DistanceMeters>
          </Trackpoint>
          <Trackpoint>
            <Time>2020-05-25T04:35:16.000Z</Time>
            <Position>
              <LatitudeDegrees>38.00580513663589954376220703125</LatitudeDegrees>
              <LongitudeDegrees>-1.1438332311809062957763671875</LongitudeDegrees>
            </Position>
            <AltitudeMeters>63.40000152587890625</AltitudeMeters>
            <DistanceMeters>NAN</DistanceMeters>
          </Trackpoint>
          <Trackpoint>
            <Time>2020-05-25T04:35:17.000Z</Time>
            <Position>
              <LatitudeDegrees>38.0058323778212070465087890625</LatitudeDegrees>
              <LongitudeDegrees>-1.14386432804167270660400390625</LongitudeDegrees>
            </Position>
            <AltitudeMeters>63.40000152587890625</AltitudeMeters>
            <DistanceMeters>NAN</DistanceMeters>
          </Trackpoint>
          <Trackpoint>
            <Time>2020-05-25T04:35:18.000Z</Time>
            <Position>
              <LatitudeDegrees>38.00589700229465961456298828125</LatitudeDegrees>
              <LongitudeDegrees>-1.14392367191612720489501953125</LongitudeDegrees>
            </Position>
            <AltitudeMeters>63.59999847412109375</AltitudeMeters>
            <DistanceMeters>NAN</DistanceMeters>
          </Trackpoint>
          <Trackpoint>
            <Time>2020-05-25T04:35:19.000Z</Time>
            <Position>
              <LatitudeDegrees>38.00589700229465961456298828125</LatitudeDegrees>
              <LongitudeDegrees>-1.14392367191612720489501953125</LongitudeDegrees>
            </Position>
            <AltitudeMeters>63.59999847412109375</AltitudeMeters>
            <DistanceMeters>NAN</DistanceMeters>
          </Trackpoint>
          <Trackpoint>
            <Time>2020-05-25T04:35:20.000Z</Time>
            <Position>
              <LatitudeDegrees>38.00597780384123325347900390625</LatitudeDegrees>
              <LongitudeDegrees>-1.14398653618991374969482421875</LongitudeDegrees>
            </Position>
            <AltitudeMeters>63.799999237060546875</AltitudeMeters>
            <DistanceMeters>NAN</DistanceMeters>
          </Trackpoint>
          <Trackpoint>
            <Time>2020-05-25T04:35:21.000Z</Time>
            <Position>
              <LatitudeDegrees>38.00597780384123325347900390625</LatitudeDegrees>
              <LongitudeDegrees>-1.14398653618991374969482421875</LongitudeDegrees>
            </Position>
            <AltitudeMeters>63.799999237060546875</AltitudeMeters>
            <DistanceMeters>NAN</DistanceMeters>
          </Trackpoint>
          <Trackpoint>
            <Time>2020-05-25T04:35:22.000Z</Time>
            <Position>
              <LatitudeDegrees>38.00601837225258350372314453125</LatitudeDegrees>
              <LongitudeDegrees>-1.144022159278392791748046875</LongitudeDegrees>
            </Position>
            <AltitudeMeters>63.799999237060546875</AltitudeMeters>
            <DistanceMeters>NAN</DistanceMeters>
          </Trackpoint>
          <Trackpoint>
            <Time>2020-05-25T04:35:23.000Z</Time>
            <Position>
              <LatitudeDegrees>38.0060560069978237152099609375</LatitudeDegrees>
              <LongitudeDegrees>-1.14405811764299869537353515625</LongitudeDegrees>
            </Position>
            <AltitudeMeters>63.799999237060546875</AltitudeMeters>
            <DistanceMeters>NAN</DistanceMeters>
          </Trackpoint>
          <Trackpoint>
            <Time>2020-05-25T04:35:24.000Z</Time>
            <Position>
              <LatitudeDegrees>38.006131947040557861328125</LatitudeDegrees>
              <LongitudeDegrees>-1.1441262625157833099365234375</LongitudeDegrees>
            </Position>
            <AltitudeMeters>63.799999237060546875</AltitudeMeters>
            <DistanceMeters>NAN</DistanceMeters>
          </Trackpoint>
          <Trackpoint>
            <Time>2020-05-25T04:35:25.000Z</Time>
            <Position>
              <LatitudeDegrees>38.006131947040557861328125</LatitudeDegrees>
              <LongitudeDegrees>-1.1441262625157833099365234375</LongitudeDegrees>
            </Position>
            <AltitudeMeters>64</AltitudeMeters>
            <DistanceMeters>NAN</DistanceMeters>
          </Trackpoint>
          <Trackpoint>
            <Time>2020-05-25T04:35:26.000Z</Time>
            <Position>
              <LatitudeDegrees>38.0062068812549114227294921875</LatitudeDegrees>
              <LongitudeDegrees>-1.14419055171310901641845703125</LongitudeDegrees>
            </Position>
            <AltitudeMeters>64.1999969482421875</AltitudeMeters>
            <DistanceMeters>NAN</DistanceMeters>
          </Trackpoint>
          <Trackpoint>
            <Time>2020-05-25T04:35:27.000Z</Time>
            <Position>
              <LatitudeDegrees>38.0062068812549114227294921875</LatitudeDegrees>
              <LongitudeDegrees>-1.14419055171310901641845703125</LongitudeDegrees>
            </Position>
            <AltitudeMeters>64.40000152587890625</AltitudeMeters>
            <DistanceMeters>NAN</DistanceMeters>
          </Trackpoint>
          <Trackpoint>
            <Time>2020-05-25T04:35:28.000Z</Time>
            <Position>
              <LatitudeDegrees>38.00624652765691280364990234375</LatitudeDegrees>
              <LongitudeDegrees>-1.1442187987267971038818359375</LongitudeDegrees>
            </Position>
            <AltitudeMeters>64.40000152587890625</AltitudeMeters>
            <DistanceMeters>NAN</DistanceMeters>
          </Trackpoint>
          <Trackpoint>
            <Time>2020-05-25T04:35:29.000Z</Time>
            <Position>
              <LatitudeDegrees>38.00629178993403911590576171875</LatitudeDegrees>
              <LongitudeDegrees>-1.14424042403697967529296875</LongitudeDegrees>
            </Position>
            <AltitudeMeters>64.40000152587890625</AltitudeMeters>
            <DistanceMeters>NAN</DistanceMeters>
          </Trackpoint>
          <Trackpoint>
            <Time>2020-05-25T04:35:30.000Z</Time>
            <Position>
              <LatitudeDegrees>38.006393127143383026123046875</LatitudeDegrees>
              <LongitudeDegrees>-1.14426992833614349365234375</LongitudeDegrees>
            </Position>
            <AltitudeMeters>64.40000152587890625</AltitudeMeters>
            <DistanceMeters>NAN</DistanceMeters>
          </Trackpoint>
          <Trackpoint>
            <Time>2020-05-25T04:35:31.000Z</Time>
            <Position>
              <LatitudeDegrees>38.006393127143383026123046875</LatitudeDegrees>
              <LongitudeDegrees>-1.14426992833614349365234375</LongitudeDegrees>
            </Position>
            <AltitudeMeters>64.59999847412109375</AltitudeMeters>
            <DistanceMeters>NAN</DistanceMeters>
          </Trackpoint>
          <Trackpoint>
            <Time>2020-05-25T04:35:32.000Z</Time>
            <Position>
              <LatitudeDegrees>38.00650410354137420654296875</LatitudeDegrees>
              <LongitudeDegrees>-1.14428727887570858001708984375</LongitudeDegrees>
            </Position>
            <AltitudeMeters>64.59999847412109375</AltitudeMeters>
            <DistanceMeters>NAN</DistanceMeters>
          </Trackpoint>
          <Trackpoint>
            <Time>2020-05-25T04:35:33.000Z</Time>
            <Position>
              <LatitudeDegrees>38.00650410354137420654296875</LatitudeDegrees>
              <LongitudeDegrees>-1.14428727887570858001708984375</LongitudeDegrees>
            </Position>
            <AltitudeMeters>64.59999847412109375</AltitudeMeters>
            <DistanceMeters>NAN</DistanceMeters>
          </Trackpoint>
          <Trackpoint>
            <Time>2020-05-25T04:35:34.000Z</Time>
            <Position>
              <LatitudeDegrees>38.0065599270164966583251953125</LatitudeDegrees>
              <LongitudeDegrees>-1.14429649896919727325439453125</LongitudeDegrees>
            </Position>
            <AltitudeMeters>64.59999847412109375</AltitudeMeters>
            <DistanceMeters>NAN</DistanceMeters>
          </Trackpoint>
          <Trackpoint>
            <Time>2020-05-25T04:35:35.000Z</Time>
            <Position>
              <LatitudeDegrees>38.00661499612033367156982421875</LatitudeDegrees>
              <LongitudeDegrees>-1.144310496747493743896484375</LongitudeDegrees>
            </Position>
            <AltitudeMeters>64.59999847412109375</AltitudeMeters>
            <DistanceMeters>NAN</DistanceMeters>
          </Trackpoint>
          <Trackpoint>
            <Time>2020-05-25T04:35:36.000Z</Time>
            <Position>
              <LatitudeDegrees>38.00666914321482181549072265625</LatitudeDegrees>
              <LongitudeDegrees>-1.14433187060058116912841796875</LongitudeDegrees>
            </Position>
            <AltitudeMeters>64.59999847412109375</AltitudeMeters>
            <DistanceMeters>NAN</DistanceMeters>
          </Trackpoint>
          <Trackpoint>
            <Time>2020-05-25T04:35:37.000Z</Time>
            <Position>
              <LatitudeDegrees>38.00672111101448535919189453125</LatitudeDegrees>
              <LongitudeDegrees>-1.14436053670942783355712890625</LongitudeDegrees>
            </Position>
            <AltitudeMeters>64.59999847412109375</AltitudeMeters>
            <DistanceMeters>NAN</DistanceMeters>
          </Trackpoint>
          <Trackpoint>
            <Time>2020-05-25T04:35:38.000Z</Time>
            <Position>
              <LatitudeDegrees>38.00676939077675342559814453125</LatitudeDegrees>
              <LongitudeDegrees>-1.1443998478353023529052734375</LongitudeDegrees>
            </Position>
            <AltitudeMeters>64.8000030517578125</AltitudeMeters>
            <DistanceMeters>NAN</DistanceMeters>
          </Trackpoint>
          <Trackpoint>
            <Time>2020-05-25T04:35:39.000Z</Time>
            <Position>
              <LatitudeDegrees>38.00680995918810367584228515625</LatitudeDegrees>
              <LongitudeDegrees>-1.1444518156349658966064453125</LongitudeDegrees>
            </Position>
            <AltitudeMeters>64.8000030517578125</AltitudeMeters>
            <DistanceMeters>NAN</DistanceMeters>
          </Trackpoint>
          <Trackpoint>
            <Time>2020-05-25T04:35:40.000Z</Time>
            <Position>
              <LatitudeDegrees>38.006843067705631256103515625</LatitudeDegrees>
              <LongitudeDegrees>-1.144513003528118133544921875</LongitudeDegrees>
            </Position>
            <AltitudeMeters>65</AltitudeMeters>
            <DistanceMeters>NAN</DistanceMeters>
          </Trackpoint>
          <Trackpoint>
            <Time>2020-05-25T04:35:41.000Z</Time>
            <Position>
              <LatitudeDegrees>38.00687047652900218963623046875</LatitudeDegrees>
              <LongitudeDegrees>-1.14458031021058559417724609375</LongitudeDegrees>
            </Position>
            <AltitudeMeters>65</AltitudeMeters>
            <DistanceMeters>NAN</DistanceMeters>
          </Trackpoint>
          <Trackpoint>
            <Time>2020-05-25T04:35:42.000Z</Time>
            <Position>
              <LatitudeDegrees>38.006910793483257293701171875</LatitudeDegrees>
              <LongitudeDegrees>-1.14472724497318267822265625</LongitudeDegrees>
            </Position>
            <AltitudeMeters>65.1999969482421875</AltitudeMeters>
            <DistanceMeters>NAN</DistanceMeters>
          </Trackpoint>
          <Trackpoint>
            <Time>2020-05-25T04:35:43.000Z</Time>
            <Position>
              <LatitudeDegrees>38.006910793483257293701171875</LatitudeDegrees>
              <LongitudeDegrees>-1.14472724497318267822265625</LongitudeDegrees>
            </Position>
            <AltitudeMeters>65.1999969482421875</AltitudeMeters>
            <DistanceMeters>NAN</DistanceMeters>
          </Trackpoint>
          <Trackpoint>
            <Time>2020-05-25T04:35:44.000Z</Time>
            <Position>
              <LatitudeDegrees>38.00694775767624378204345703125</LatitudeDegrees>
              <LongitudeDegrees>-1.14487744867801666259765625</LongitudeDegrees>
            </Position>
            <AltitudeMeters>65.1999969482421875</AltitudeMeters>
            <DistanceMeters>NAN</DistanceMeters>
          </Trackpoint>
          <Trackpoint>
            <Time>2020-05-25T04:35:45.000Z</Time>
            <Position>
              <LatitudeDegrees>38.00694775767624378204345703125</LatitudeDegrees>
              <LongitudeDegrees>-1.14487744867801666259765625</LongitudeDegrees>
            </Position>
            <AltitudeMeters>65.1999969482421875</AltitudeMeters>
            <DistanceMeters>NAN</DistanceMeters>
          </Trackpoint>
          <Trackpoint>
            <Time>2020-05-25T04:35:46.000Z</Time>
            <Position>
              <LatitudeDegrees>38.00697139464318752288818359375</LatitudeDegrees>
              <LongitudeDegrees>-1.14494986832141876220703125</LongitudeDegrees>
            </Position>
            <AltitudeMeters>65.1999969482421875</AltitudeMeters>
            <DistanceMeters>NAN</DistanceMeters>
          </Trackpoint>
          <Trackpoint>
            <Time>2020-05-25T04:35:47.000Z</Time>
            <Position>
              <LatitudeDegrees>38.0069998092949390411376953125</LatitudeDegrees>
              <LongitudeDegrees>-1.14501901902258396148681640625</LongitudeDegrees>
            </Position>
            <AltitudeMeters>65.1999969482421875</AltitudeMeters>
            <DistanceMeters>NAN</DistanceMeters>
          </Trackpoint>
          <Trackpoint>
            <Time>2020-05-25T04:35:48.000Z</Time>
            <Position>
              <LatitudeDegrees>38.007073067128658294677734375</LatitudeDegrees>
              <LongitudeDegrees>-1.145143322646617889404296875</LongitudeDegrees>
            </Position>
            <AltitudeMeters>65.1999969482421875</AltitudeMeters>
            <DistanceMeters>NAN</DistanceMeters>
          </Trackpoint>
          <Trackpoint>
            <Time>2020-05-25T04:35:49.000Z</Time>
            <Position>
              <LatitudeDegrees>38.007073067128658294677734375</LatitudeDegrees>
              <LongitudeDegrees>-1.145143322646617889404296875</LongitudeDegrees>
            </Position>
            <AltitudeMeters>65.1999969482421875</AltitudeMeters>
            <DistanceMeters>NAN</DistanceMeters>
          </Trackpoint>
          <Trackpoint>
            <Time>2020-05-25T04:35:50.000Z</Time>
            <Position>
              <LatitudeDegrees>38.007159568369388580322265625</LatitudeDegrees>
              <LongitudeDegrees>-1.14525103010237216949462890625</LongitudeDegrees>
            </Position>
            <AltitudeMeters>65.40000152587890625</AltitudeMeters>
            <DistanceMeters>NAN</DistanceMeters>
          </Trackpoint>
          <Trackpoint>
            <Time>2020-05-25T04:35:51.000Z</Time>
            <Position>
              <LatitudeDegrees>38.007159568369388580322265625</LatitudeDegrees>
              <LongitudeDegrees>-1.14525103010237216949462890625</LongitudeDegrees>
            </Position>
            <AltitudeMeters>65.59999847412109375</AltitudeMeters>
            <DistanceMeters>NAN</DistanceMeters>
          </Trackpoint>
          <Trackpoint>
            <Time>2020-05-25T04:35:52.000Z</Time>
            <Position>
              <LatitudeDegrees>38.00720642320811748504638671875</LatitudeDegrees>
              <LongitudeDegrees>-1.1453000642359256744384765625</LongitudeDegrees>
            </Position>
            <AltitudeMeters>65.59999847412109375</AltitudeMeters>
            <DistanceMeters>NAN</DistanceMeters>
          </Trackpoint>
          <Trackpoint>
            <Time>2020-05-25T04:35:53.000Z</Time>
            <Position>
              <LatitudeDegrees>38.0072544515132904052734375</LatitudeDegrees>
              <LongitudeDegrees>-1.14534792490303516387939453125</LongitudeDegrees>
            </Position>
            <AltitudeMeters>65.59999847412109375</AltitudeMeters>
            <DistanceMeters>NAN</DistanceMeters>
          </Trackpoint>
          <Trackpoint>
            <Time>2020-05-25T04:35:54.000Z</Time>
            <Position>
              <LatitudeDegrees>38.00735042430460453033447265625</LatitudeDegrees>
              <LongitudeDegrees>-1.14544515497982501983642578125</LongitudeDegrees>
            </Position>
            <AltitudeMeters>65.40000152587890625</AltitudeMeters>
            <DistanceMeters>NAN</DistanceMeters>
          </Trackpoint>
          <Trackpoint>
            <Time>2020-05-25T04:35:55.000Z</Time>
            <Position>
              <LatitudeDegrees>38.00735042430460453033447265625</LatitudeDegrees>
              <LongitudeDegrees>-1.14544515497982501983642578125</LongitudeDegrees>
            </Position>
            <AltitudeMeters>65.8000030517578125</AltitudeMeters>
            <DistanceMeters>NAN</DistanceMeters>
          </Trackpoint>
          <Trackpoint>
            <Time>2020-05-25T04:35:56.000Z</Time>
            <Position>
              <LatitudeDegrees>38.00744430162012577056884765625</LatitudeDegrees>
              <LongitudeDegrees>-1.14554204978048801422119140625</LongitudeDegrees>
            </Position>
            <AltitudeMeters>66</AltitudeMeters>
            <DistanceMeters>NAN</DistanceMeters>
          </Trackpoint>
          <Trackpoint>
            <Time>2020-05-25T04:35:57.000Z</Time>
            <Position>
              <LatitudeDegrees>38.00744430162012577056884765625</LatitudeDegrees>
              <LongitudeDegrees>-1.14554204978048801422119140625</LongitudeDegrees>
            </Position>
            <AltitudeMeters>66</AltitudeMeters>
            <DistanceMeters>NAN</DistanceMeters>
          </Trackpoint>
          <Trackpoint>
            <Time>2020-05-25T04:35:58.000Z</Time>
            <Position>
              <LatitudeDegrees>38.00749056972563266754150390625</LatitudeDegrees>
              <LongitudeDegrees>-1.14558882080018520355224609375</LongitudeDegrees>
            </Position>
            <AltitudeMeters>66</AltitudeMeters>
            <DistanceMeters>NAN</DistanceMeters>
          </Trackpoint>
          <Trackpoint>
            <Time>2020-05-25T04:35:59.000Z</Time>
            <Position>
              <LatitudeDegrees>38.0075360834598541259765625</LatitudeDegrees>
              <LongitudeDegrees>-1.14563542418181896209716796875</LongitudeDegrees>
            </Position>
            <AltitudeMeters>66.1999969482421875</AltitudeMeters>
            <DistanceMeters>NAN</DistanceMeters>
          </Trackpoint>
          <Trackpoint>
            <Time>2020-05-25T04:36:00.000Z</Time>
            <Position>
              <LatitudeDegrees>38.00763004459440708160400390625</LatitudeDegrees>
              <LongitudeDegrees>-1.1457272060215473175048828125</LongitudeDegrees>
            </Position>
            <AltitudeMeters>66.1999969482421875</AltitudeMeters>
            <DistanceMeters>NAN</DistanceMeters>
          </Trackpoint>
          <Trackpoint>
            <Time>2020-05-25T04:36:01.000Z</Time>
            <Position>
              <LatitudeDegrees>38.00763004459440708160400390625</LatitudeDegrees>
              <LongitudeDegrees>-1.1457272060215473175048828125</LongitudeDegrees>
            </Position>
            <AltitudeMeters>66.40000152587890625</AltitudeMeters>
            <DistanceMeters>NAN</DistanceMeters>
          </Trackpoint>
          <Trackpoint>
            <Time>2020-05-25T04:36:02.000Z</Time>
            <Position>
              <LatitudeDegrees>38.00772291608154773712158203125</LatitudeDegrees>
              <LongitudeDegrees>-1.14581915549933910369873046875</LongitudeDegrees>
            </Position>
            <AltitudeMeters>66.59999847412109375</AltitudeMeters>
            <DistanceMeters>NAN</DistanceMeters>
          </Trackpoint>
          <Trackpoint>
            <Time>2020-05-25T04:36:03.000Z</Time>
            <Position>
              <LatitudeDegrees>38.00772291608154773712158203125</LatitudeDegrees>
              <LongitudeDegrees>-1.14581915549933910369873046875</LongitudeDegrees>
            </Position>
            <AltitudeMeters>66.59999847412109375</AltitudeMeters>
            <DistanceMeters>NAN</DistanceMeters>
          </Trackpoint>
          <Trackpoint>
            <Time>2020-05-25T04:36:04.000Z</Time>
            <Position>
              <LatitudeDegrees>38.0077706091105937957763671875</LatitudeDegrees>
              <LongitudeDegrees>-1.1458629928529262542724609375</LongitudeDegrees>
            </Position>
            <AltitudeMeters>66.8000030517578125</AltitudeMeters>
            <DistanceMeters>NAN</DistanceMeters>
          </Trackpoint>
          <Trackpoint>
            <Time>2020-05-25T04:36:05.000Z</Time>
            <Position>
              <LatitudeDegrees>38.00781779922544956207275390625</LatitudeDegrees>
              <LongitudeDegrees>-1.1459085904061794281005859375</LongitudeDegrees>
            </Position>
            <AltitudeMeters>66.8000030517578125</AltitudeMeters>
            <DistanceMeters>NAN</DistanceMeters>
          </Trackpoint>
          <Trackpoint>
            <Time>2020-05-25T04:36:06.000Z</Time>
            <Position>
              <LatitudeDegrees>38.0079114250838756561279296875</LatitudeDegrees>
              <LongitudeDegrees>-1.146000288426876068115234375</LongitudeDegrees>
            </Position>
            <AltitudeMeters>67</AltitudeMeters>
            <DistanceMeters>NAN</DistanceMeters>
          </Trackpoint>
          <Trackpoint>
            <Time>2020-05-25T04:36:07.000Z</Time>
            <Position>
              <LatitudeDegrees>38.0079114250838756561279296875</LatitudeDegrees>
              <LongitudeDegrees>-1.146000288426876068115234375</LongitudeDegrees>
            </Position>
            <AltitudeMeters>67.1999969482421875</AltitudeMeters>
            <DistanceMeters>NAN</DistanceMeters>
          </Trackpoint>
          <Trackpoint>
            <Time>2020-05-25T04:36:08.000Z</Time>
            <Position>
              <LatitudeDegrees>38.00800220109522342681884765625</LatitudeDegrees>
              <LongitudeDegrees>-1.14609357900917530059814453125</LongitudeDegrees>
            </Position>
            <AltitudeMeters>67.1999969482421875</AltitudeMeters>
            <DistanceMeters>NAN</DistanceMeters>
          </Trackpoint>
          <Trackpoint>
            <Time>2020-05-25T04:36:09.000Z</Time>
            <Position>
              <LatitudeDegrees>38.00800220109522342681884765625</LatitudeDegrees>
              <LongitudeDegrees>-1.14609357900917530059814453125</LongitudeDegrees>
            </Position>
            <AltitudeMeters>67.40000152587890625</AltitudeMeters>
            <DistanceMeters>NAN</DistanceMeters>
          </Trackpoint>
          <Trackpoint>
            <Time>2020-05-25T04:36:10.000Z</Time>
            <Position>
              <LatitudeDegrees>38.00804796628654003143310546875</LatitudeDegrees>
              <LongitudeDegrees>-1.14613967947661876678466796875</LongitudeDegrees>
            </Position>
            <AltitudeMeters>67.59999847412109375</AltitudeMeters>
            <DistanceMeters>NAN</DistanceMeters>
          </Trackpoint>
          <Trackpoint>
            <Time>2020-05-25T04:36:11.000Z</Time>
            <Position>
              <LatitudeDegrees>38.0080934800207614898681640625</LatitudeDegrees>
              <LongitudeDegrees>-1.14618561230599880218505859375</LongitudeDegrees>
            </Position>
            <AltitudeMeters>67.59999847412109375</AltitudeMeters>
            <DistanceMeters>NAN</DistanceMeters>
          </Trackpoint>
          <Trackpoint>
            <Time>2020-05-25T04:36:12.000Z</Time>
            <Position>
              <LatitudeDegrees>38.0081833340227603912353515625</LatitudeDegrees>
              <LongitudeDegrees>-1.14628016017377376556396484375</LongitudeDegrees>
            </Position>
            <AltitudeMeters>67.8000030517578125</AltitudeMeters>
            <DistanceMeters>NAN</DistanceMeters>
          </Trackpoint>
          <Trackpoint>
            <Time>2020-05-25T04:36:13.000Z</Time>
            <Position>
              <LatitudeDegrees>38.0081833340227603912353515625</LatitudeDegrees>
              <LongitudeDegrees>-1.14628016017377376556396484375</LongitudeDegrees>
            </Position>
            <AltitudeMeters>67.8000030517578125</AltitudeMeters>
            <DistanceMeters>NAN</DistanceMeters>
          </Trackpoint>
          <Trackpoint>
            <Time>2020-05-25T04:36:14.000Z</Time>
            <Position>
              <LatitudeDegrees>38.00827494822442531585693359375</LatitudeDegrees>
              <LongitudeDegrees>-1.1463722772896289825439453125</LongitudeDegrees>
            </Position>
            <AltitudeMeters>68</AltitudeMeters>
            <DistanceMeters>NAN</DistanceMeters>
          </Trackpoint>
          <Trackpoint>
            <Time>2020-05-25T04:36:15.000Z</Time>
            <Position>
              <LatitudeDegrees>38.00827494822442531585693359375</LatitudeDegrees>
              <LongitudeDegrees>-1.1463722772896289825439453125</LongitudeDegrees>
            </Position>
            <AltitudeMeters>68.1999969482421875</AltitudeMeters>
            <DistanceMeters>NAN</DistanceMeters>
          </Trackpoint>
          <Trackpoint>
            <Time>2020-05-25T04:36:16.000Z</Time>
            <Position>
              <LatitudeDegrees>38.00832171924412250518798828125</LatitudeDegrees>
              <LongitudeDegrees>-1.1464175395667552947998046875</LongitudeDegrees>
            </Position>
            <AltitudeMeters>68.40000152587890625</AltitudeMeters>
            <DistanceMeters>NAN</DistanceMeters>
          </Trackpoint>
          <Trackpoint>
            <Time>2020-05-25T04:36:17.000Z</Time>
            <Position>
              <LatitudeDegrees>38.0083670653402805328369140625</LatitudeDegrees>
              <LongitudeDegrees>-1.14646238274872303009033203125</LongitudeDegrees>
            </Position>
            <AltitudeMeters>68.40000152587890625</AltitudeMeters>
            <DistanceMeters>NAN</DistanceMeters>
          </Trackpoint>
          <Trackpoint>
            <Time>2020-05-25T04:36:18.000Z</Time>
            <Position>
              <LatitudeDegrees>38.00845851190388202667236328125</LatitudeDegrees>
              <LongitudeDegrees>-1.14655123092234134674072265625</LongitudeDegrees>
            </Position>
            <AltitudeMeters>68.59999847412109375</AltitudeMeters>
            <DistanceMeters>NAN</DistanceMeters>
          </Trackpoint>
          <Trackpoint>
            <Time>2020-05-25T04:36:19.000Z</Time>
            <Position>
              <LatitudeDegrees>38.00845851190388202667236328125</LatitudeDegrees>
              <LongitudeDegrees>-1.14655123092234134674072265625</LongitudeDegrees>
            </Position>
            <AltitudeMeters>68.59999847412109375</AltitudeMeters>
            <DistanceMeters>NAN</DistanceMeters>
          </Trackpoint>
          <Trackpoint>
            <Time>2020-05-25T04:36:20.000Z</Time>
            <Position>
              <LatitudeDegrees>38.008547611534595489501953125</LatitudeDegrees>
              <LongitudeDegrees>-1.14664259366691112518310546875</LongitudeDegrees>
            </Position>
            <AltitudeMeters>68.8000030517578125</AltitudeMeters>
            <DistanceMeters>NAN</DistanceMeters>
          </Trackpoint>
          <Trackpoint>
            <Time>2020-05-25T04:36:21.000Z</Time>
            <Position>
              <LatitudeDegrees>38.008547611534595489501953125</LatitudeDegrees>
              <LongitudeDegrees>-1.14664259366691112518310546875</LongitudeDegrees>
            </Position>
            <AltitudeMeters>68.8000030517578125</AltitudeMeters>
            <DistanceMeters>NAN</DistanceMeters>
          </Trackpoint>
          <Trackpoint>
            <Time>2020-05-25T04:36:22.000Z</Time>
            <Position>
              <LatitudeDegrees>38.00859220325946807861328125</LatitudeDegrees>
              <LongitudeDegrees>-1.1466877721250057220458984375</LongitudeDegrees>
            </Position>
            <AltitudeMeters>69</AltitudeMeters>
            <DistanceMeters>NAN</DistanceMeters>
          </Trackpoint>
          <Trackpoint>
            <Time>2020-05-25T04:36:23.000Z</Time>
            <Position>
              <LatitudeDegrees>38.008636124432086944580078125</LatitudeDegrees>
              <LongitudeDegrees>-1.1467326991260051727294921875</LongitudeDegrees>
            </Position>
            <AltitudeMeters>69.1999969482421875</AltitudeMeters>
            <DistanceMeters>NAN</DistanceMeters>
          </Trackpoint>
          <Trackpoint>
            <Time>2020-05-25T04:36:24.000Z</Time>
            <Position>
              <LatitudeDegrees>38.0087234638631343841552734375</LatitudeDegrees>
              <LongitudeDegrees>-1.14681945182383060455322265625</LongitudeDegrees>
            </Position>
            <AltitudeMeters>69.40000152587890625</AltitudeMeters>
            <DistanceMeters>NAN</DistanceMeters>
          </Trackpoint>
          <Trackpoint>
            <Time>2020-05-25T04:36:25.000Z</Time>
            <Position>
              <LatitudeDegrees>38.0087234638631343841552734375</LatitudeDegrees>
              <LongitudeDegrees>-1.14681945182383060455322265625</LongitudeDegrees>
            </Position>
            <AltitudeMeters>69.59999847412109375</AltitudeMeters>
            <DistanceMeters>NAN</DistanceMeters>
          </Trackpoint>
          <Trackpoint>
            <Time>2020-05-25T04:36:26.000Z</Time>
            <Position>
              <LatitudeDegrees>38.0088079534471035003662109375</LatitudeDegrees>
              <LongitudeDegrees>-1.14690653979778289794921875</LongitudeDegrees>
            </Position>
            <AltitudeMeters>69.8000030517578125</AltitudeMeters>
            <DistanceMeters>NAN</DistanceMeters>
          </Trackpoint>
          <Trackpoint>
            <Time>2020-05-25T04:36:27.000Z</Time>
            <Position>
              <LatitudeDegrees>38.0088079534471035003662109375</LatitudeDegrees>
              <LongitudeDegrees>-1.14690653979778289794921875</LongitudeDegrees>
            </Position>
            <AltitudeMeters>69.8000030517578125</AltitudeMeters>
            <DistanceMeters>NAN</DistanceMeters>
          </Trackpoint>
          <Trackpoint>
            <Time>2020-05-25T04:36:28.000Z</Time>
            <Position>
              <LatitudeDegrees>38.008850030601024627685546875</LatitudeDegrees>
              <LongitudeDegrees>-1.14694987423717975616455078125</LongitudeDegrees>
            </Position>
            <AltitudeMeters>70</AltitudeMeters>
            <DistanceMeters>NAN</DistanceMeters>
          </Trackpoint>
          <Trackpoint>
            <Time>2020-05-25T04:36:29.000Z</Time>
            <Position>
              <LatitudeDegrees>38.0088927783071994781494140625</LatitudeDegrees>
              <LongitudeDegrees>-1.1469935439527034759521484375</LongitudeDegrees>
            </Position>
            <AltitudeMeters>70</AltitudeMeters>
            <DistanceMeters>NAN</DistanceMeters>
          </Trackpoint>
          <Trackpoint>
            <Time>2020-05-25T04:36:30.000Z</Time>
            <Position>
              <LatitudeDegrees>38.008980117738246917724609375</LatitudeDegrees>
              <LongitudeDegrees>-1.14707996137440204620361328125</LongitudeDegrees>
            </Position>
            <AltitudeMeters>70</AltitudeMeters>
            <DistanceMeters>NAN</DistanceMeters>
          </Trackpoint>
          <Trackpoint>
            <Time>2020-05-25T04:36:31.000Z</Time>
            <Position>
              <LatitudeDegrees>38.008980117738246917724609375</LatitudeDegrees>
              <LongitudeDegrees>-1.14707996137440204620361328125</LongitudeDegrees>
            </Position>
            <AltitudeMeters>70.1999969482421875</AltitudeMeters>
            <DistanceMeters>NAN</DistanceMeters>
          </Trackpoint>
          <Trackpoint>
            <Time>2020-05-25T04:36:32.000Z</Time>
            <Position>
              <LatitudeDegrees>38.00906569696962833404541015625</LatitudeDegrees>
              <LongitudeDegrees>-1.14716830663383007049560546875</LongitudeDegrees>
            </Position>
            <AltitudeMeters>70.40000152587890625</AltitudeMeters>
            <DistanceMeters>NAN</DistanceMeters>
          </Trackpoint>
          <Trackpoint>
            <Time>2020-05-25T04:36:33.000Z</Time>
            <Position>
              <LatitudeDegrees>38.00906569696962833404541015625</LatitudeDegrees>
              <LongitudeDegrees>-1.14716830663383007049560546875</LongitudeDegrees>
            </Position>
            <AltitudeMeters>70.40000152587890625</AltitudeMeters>
            <DistanceMeters>NAN</DistanceMeters>
          </Trackpoint>
          <Trackpoint>
            <Time>2020-05-25T04:36:34.000Z</Time>
            <Position>
              <LatitudeDegrees>38.00910978578031063079833984375</LatitudeDegrees>
              <LongitudeDegrees>-1.14721356891095638275146484375</LongitudeDegrees>
            </Position>
            <AltitudeMeters>70.59999847412109375</AltitudeMeters>
            <DistanceMeters>NAN</DistanceMeters>
          </Trackpoint>
          <Trackpoint>
            <Time>2020-05-25T04:36:35.000Z</Time>
            <Position>
              <LatitudeDegrees>38.0091539584100246429443359375</LatitudeDegrees>
              <LongitudeDegrees>-1.14725916646420955657958984375</LongitudeDegrees>
            </Position>
            <AltitudeMeters>70.59999847412109375</AltitudeMeters>
            <DistanceMeters>NAN</DistanceMeters>
          </Trackpoint>
          <Trackpoint>
            <Time>2020-05-25T04:36:36.000Z</Time>
            <Position>
              <LatitudeDegrees>38.00924188457429409027099609375</LatitudeDegrees>
              <LongitudeDegrees>-1.147347427904605865478515625</LongitudeDegrees>
            </Position>
            <AltitudeMeters>70.59999847412109375</AltitudeMeters>
            <DistanceMeters>NAN</DistanceMeters>
          </Trackpoint>
          <Trackpoint>
            <Time>2020-05-25T04:36:37.000Z</Time>
            <Position>
              <LatitudeDegrees>38.00924188457429409027099609375</LatitudeDegrees>
              <LongitudeDegrees>-1.147347427904605865478515625</LongitudeDegrees>
            </Position>
            <AltitudeMeters>70.8000030517578125</AltitudeMeters>
            <DistanceMeters>NAN</DistanceMeters>
          </Trackpoint>
          <Trackpoint>
            <Time>2020-05-25T04:36:38.000Z</Time>
            <Position>
              <LatitudeDegrees>38.0093296431005001068115234375</LatitudeDegrees>
              <LongitudeDegrees>-1.1474377848207950592041015625</LongitudeDegrees>
            </Position>
            <AltitudeMeters>70.8000030517578125</AltitudeMeters>
            <DistanceMeters>NAN</DistanceMeters>
          </Trackpoint>
          <Trackpoint>
            <Time>2020-05-25T04:36:39.000Z</Time>
            <Position>
              <LatitudeDegrees>38.0093296431005001068115234375</LatitudeDegrees>
              <LongitudeDegrees>-1.1474377848207950592041015625</LongitudeDegrees>
            </Position>
            <AltitudeMeters>71</AltitudeMeters>
            <DistanceMeters>NAN</DistanceMeters>
          </Trackpoint>
          <Trackpoint>
            <Time>2020-05-25T04:36:40.000Z</Time>
            <Position>
              <LatitudeDegrees>38.00937272608280181884765625</LatitudeDegrees>
              <LongitudeDegrees>-1.14748313091695308685302734375</LongitudeDegrees>
            </Position>
            <AltitudeMeters>71.1999969482421875</AltitudeMeters>
            <DistanceMeters>NAN</DistanceMeters>
          </Trackpoint>
          <Trackpoint>
            <Time>2020-05-25T04:36:41.000Z</Time>
            <Position>
              <LatitudeDegrees>38.009416647255420684814453125</LatitudeDegrees>
              <LongitudeDegrees>-1.147527806460857391357421875</LongitudeDegrees>
            </Position>
            <AltitudeMeters>71.40000152587890625</AltitudeMeters>
            <DistanceMeters>NAN</DistanceMeters>
          </Trackpoint>
          <Trackpoint>
            <Time>2020-05-25T04:36:42.000Z</Time>
            <Position>
              <LatitudeDegrees>38.0095066688954830169677734375</LatitudeDegrees>
              <LongitudeDegrees>-1.1476158164441585540771484375</LongitudeDegrees>
            </Position>
            <AltitudeMeters>71.59999847412109375</AltitudeMeters>
            <DistanceMeters>NAN</DistanceMeters>
          </Trackpoint>
          <Trackpoint>
            <Time>2020-05-25T04:36:43.000Z</Time>
            <Position>
              <LatitudeDegrees>38.0095066688954830169677734375</LatitudeDegrees>
              <LongitudeDegrees>-1.1476158164441585540771484375</LongitudeDegrees>
            </Position>
            <AltitudeMeters>71.8000030517578125</AltitudeMeters>
            <DistanceMeters>NAN</DistanceMeters>
          </Trackpoint>
          <Trackpoint>
            <Time>2020-05-25T04:36:44.000Z</Time>
            <Position>
              <LatitudeDegrees>38.0095968581736087799072265625</LatitudeDegrees>
              <LongitudeDegrees>-1.14770659245550632476806640625</LongitudeDegrees>
            </Position>
            <AltitudeMeters>72</AltitudeMeters>
            <DistanceMeters>NAN</DistanceMeters>
          </Trackpoint>
          <Trackpoint>
            <Time>2020-05-25T04:36:45.000Z</Time>
            <Position>
              <LatitudeDegrees>38.0095968581736087799072265625</LatitudeDegrees>
              <LongitudeDegrees>-1.14770659245550632476806640625</LongitudeDegrees>
            </Position>
            <AltitudeMeters>72</AltitudeMeters>
            <DistanceMeters>NAN</DistanceMeters>
          </Trackpoint>
          <Trackpoint>
            <Time>2020-05-25T04:36:46.000Z</Time>
            <Position>
              <LatitudeDegrees>38.00964304246008396148681640625</LatitudeDegrees>
              <LongitudeDegrees>-1.14775168709456920623779296875</LongitudeDegrees>
            </Position>
            <AltitudeMeters>72.1999969482421875</AltitudeMeters>
            <DistanceMeters>NAN</DistanceMeters>
          </Trackpoint>
          <Trackpoint>
            <Time>2020-05-25T04:36:47.000Z</Time>
            <Position>
              <LatitudeDegrees>38.0096893943846225738525390625</LatitudeDegrees>
              <LongitudeDegrees>-1.14779644645750522613525390625</LongitudeDegrees>
            </Position>
            <AltitudeMeters>72.1999969482421875</AltitudeMeters>
            <DistanceMeters>NAN</DistanceMeters>
          </Trackpoint>
          <Trackpoint>
            <Time>2020-05-25T04:36:48.000Z</Time>
            <Position>
              <LatitudeDegrees>38.00978184677660465240478515625</LatitudeDegrees>
              <LongitudeDegrees>-1.14788688719272613525390625</LongitudeDegrees>
            </Position>
            <AltitudeMeters>72.40000152587890625</AltitudeMeters>
            <DistanceMeters>NAN</DistanceMeters>
          </Trackpoint>
          <Trackpoint>
            <Time>2020-05-25T04:36:49.000Z</Time>
            <Position>
              <LatitudeDegrees>38.00978184677660465240478515625</LatitudeDegrees>
              <LongitudeDegrees>-1.14788688719272613525390625</LongitudeDegrees>
            </Position>
            <AltitudeMeters>72.40000152587890625</AltitudeMeters>
            <DistanceMeters>NAN</DistanceMeters>
          </Trackpoint>
          <Trackpoint>
            <Time>2020-05-25T04:36:50.000Z</Time>
            <Position>
              <LatitudeDegrees>38.0098731257021427154541015625</LatitudeDegrees>
              <LongitudeDegrees>-1.147980429232120513916015625</LongitudeDegrees>
            </Position>
            <AltitudeMeters>72.59999847412109375</AltitudeMeters>
            <DistanceMeters>NAN</DistanceMeters>
          </Trackpoint>
          <Trackpoint>
            <Time>2020-05-25T04:36:51.000Z</Time>
            <Position>
              <LatitudeDegrees>38.0098731257021427154541015625</LatitudeDegrees>
              <LongitudeDegrees>-1.147980429232120513916015625</LongitudeDegrees>
            </Position>
            <AltitudeMeters>72.59999847412109375</AltitudeMeters>
            <DistanceMeters>NAN</DistanceMeters>
          </Trackpoint>
          <Trackpoint>
            <Time>2020-05-25T04:36:52.000Z</Time>
            <Position>
              <LatitudeDegrees>38.00991813652217388153076171875</LatitudeDegrees>
              <LongitudeDegrees>-1.148028708994388580322265625</LongitudeDegrees>
            </Position>
            <AltitudeMeters>72.59999847412109375</AltitudeMeters>
            <DistanceMeters>NAN</DistanceMeters>
          </Trackpoint>
          <Trackpoint>
            <Time>2020-05-25T04:36:53.000Z</Time>
            <Position>
              <LatitudeDegrees>38.01000648178160190582275390625</LatitudeDegrees>
              <LongitudeDegrees>-1.14812267012894153594970703125</LongitudeDegrees>
            </Position>
            <AltitudeMeters>72.8000030517578125</AltitudeMeters>
            <DistanceMeters>NAN</DistanceMeters>
          </Trackpoint>
          <Trackpoint>
            <Time>2020-05-25T04:36:54.000Z</Time>
            <Position>
              <LatitudeDegrees>38.01005191169679164886474609375</LatitudeDegrees>
              <LongitudeDegrees>-1.14816960878670215606689453125</LongitudeDegrees>
            </Position>
            <AltitudeMeters>73</AltitudeMeters>
            <DistanceMeters>NAN</DistanceMeters>
          </Trackpoint>
          <Trackpoint>
            <Time>2020-05-25T04:36:55.000Z</Time>
            <Position>
              <LatitudeDegrees>38.01005191169679164886474609375</LatitudeDegrees>
              <LongitudeDegrees>-1.14816960878670215606689453125</LongitudeDegrees>
            </Position>
            <AltitudeMeters>73</AltitudeMeters>
            <DistanceMeters>NAN</DistanceMeters>
          </Trackpoint>
          <Trackpoint>
            <Time>2020-05-25T04:36:56.000Z</Time>
            <Position>
              <LatitudeDegrees>38.01014092750847339630126953125</LatitudeDegrees>
              <LongitudeDegrees>-1.1482642404735088348388671875</LongitudeDegrees>
            </Position>
            <AltitudeMeters>73.1999969482421875</AltitudeMeters>
            <DistanceMeters>NAN</DistanceMeters>
          </Trackpoint>
          <Trackpoint>
            <Time>2020-05-25T04:36:57.000Z</Time>
            <Position>
              <LatitudeDegrees>38.01014092750847339630126953125</LatitudeDegrees>
              <LongitudeDegrees>-1.1482642404735088348388671875</LongitudeDegrees>
            </Position>
            <AltitudeMeters>73.1999969482421875</AltitudeMeters>
            <DistanceMeters>NAN</DistanceMeters>
          </Trackpoint>
          <Trackpoint>
            <Time>2020-05-25T04:36:58.000Z</Time>
            <Position>
              <LatitudeDegrees>38.01018702797591686248779296875</LatitudeDegrees>
              <LongitudeDegrees>-1.14831176586449146270751953125</LongitudeDegrees>
            </Position>
            <AltitudeMeters>73.1999969482421875</AltitudeMeters>
            <DistanceMeters>NAN</DistanceMeters>
          </Trackpoint>
          <Trackpoint>
            <Time>2020-05-25T04:36:59.000Z</Time>
            <Position>
              <LatitudeDegrees>38.0102811567485332489013671875</LatitudeDegrees>
              <LongitudeDegrees>-1.1484090797603130340576171875</LongitudeDegrees>
            </Position>
            <AltitudeMeters>73.1999969482421875</AltitudeMeters>
            <DistanceMeters>NAN</DistanceMeters>
          </Trackpoint>
          <Trackpoint>
            <Time>2020-05-25T04:37:00.000Z</Time>
            <Position>
              <LatitudeDegrees>38.01032834686338901519775390625</LatitudeDegrees>
              <LongitudeDegrees>-1.14845828153192996978759765625</LongitudeDegrees>
            </Position>
            <AltitudeMeters>73.40000152587890625</AltitudeMeters>
            <DistanceMeters>NAN</DistanceMeters>
          </Trackpoint>
          <Trackpoint>
            <Time>2020-05-25T04:37:01.000Z</Time>
            <Position>
              <LatitudeDegrees>38.01032834686338901519775390625</LatitudeDegrees>
              <LongitudeDegrees>-1.14845828153192996978759765625</LongitudeDegrees>
            </Position>
            <AltitudeMeters>73.8000030517578125</AltitudeMeters>
            <DistanceMeters>NAN</DistanceMeters>
          </Trackpoint>
          <Trackpoint>
            <Time>2020-05-25T04:37:02.000Z</Time>
            <Position>
              <LatitudeDegrees>38.01042423583567142486572265625</LatitudeDegrees>
              <LongitudeDegrees>-1.14855031482875347137451171875</LongitudeDegrees>
            </Position>
            <AltitudeMeters>73.8000030517578125</AltitudeMeters>
            <DistanceMeters>NAN</DistanceMeters>
          </Trackpoint>
          <Trackpoint>
            <Time>2020-05-25T04:37:03.000Z</Time>
            <Position>
              <LatitudeDegrees>38.01042423583567142486572265625</LatitudeDegrees>
              <LongitudeDegrees>-1.14855031482875347137451171875</LongitudeDegrees>
            </Position>
            <AltitudeMeters>74</AltitudeMeters>
            <DistanceMeters>NAN</DistanceMeters>
          </Trackpoint>
          <Trackpoint>
            <Time>2020-05-25T04:37:04.000Z</Time>
            <Position>
              <LatitudeDegrees>38.01047268323600292205810546875</LatitudeDegrees>
              <LongitudeDegrees>-1.148596666753292083740234375</LongitudeDegrees>
            </Position>
            <AltitudeMeters>74</AltitudeMeters>
            <DistanceMeters>NAN</DistanceMeters>
          </Trackpoint>
          <Trackpoint>
            <Time>2020-05-25T04:37:05.000Z</Time>
            <Position>
              <LatitudeDegrees>38.01052180118858814239501953125</LatitudeDegrees>
              <LongitudeDegrees>-1.14864419214427471160888671875</LongitudeDegrees>
            </Position>
            <AltitudeMeters>74</AltitudeMeters>
            <DistanceMeters>NAN</DistanceMeters>
          </Trackpoint>
          <Trackpoint>
            <Time>2020-05-25T04:37:06.000Z</Time>
            <Position>
              <LatitudeDegrees>38.01061886362731456756591796875</LatitudeDegrees>
              <LongitudeDegrees>-1.14874158985912799835205078125</LongitudeDegrees>
            </Position>
            <AltitudeMeters>74</AltitudeMeters>
            <DistanceMeters>NAN</DistanceMeters>
          </Trackpoint>
          <Trackpoint>
            <Time>2020-05-25T04:37:07.000Z</Time>
            <Position>
              <LatitudeDegrees>38.01061886362731456756591796875</LatitudeDegrees>
              <LongitudeDegrees>-1.14874158985912799835205078125</LongitudeDegrees>
            </Position>
            <AltitudeMeters>74</AltitudeMeters>
            <DistanceMeters>NAN</DistanceMeters>
          </Trackpoint>
          <Trackpoint>
            <Time>2020-05-25T04:37:08.000Z</Time>
            <Position>
              <LatitudeDegrees>38.01071693189442157745361328125</LatitudeDegrees>
              <LongitudeDegrees>-1.14884200505912303924560546875</LongitudeDegrees>
            </Position>
            <AltitudeMeters>74</AltitudeMeters>
            <DistanceMeters>NAN</DistanceMeters>
          </Trackpoint>
          <Trackpoint>
            <Time>2020-05-25T04:37:09.000Z</Time>
            <Position>
              <LatitudeDegrees>38.01071693189442157745361328125</LatitudeDegrees>
              <LongitudeDegrees>-1.14884200505912303924560546875</LongitudeDegrees>
            </Position>
            <AltitudeMeters>74.1999969482421875</AltitudeMeters>
            <DistanceMeters>NAN</DistanceMeters>
          </Trackpoint>
          <Trackpoint>
            <Time>2020-05-25T04:37:10.000Z</Time>
            <Position>
              <LatitudeDegrees>38.01076613366603851318359375</LatitudeDegrees>
              <LongitudeDegrees>-1.148892380297183990478515625</LongitudeDegrees>
            </Position>
            <AltitudeMeters>74.1999969482421875</AltitudeMeters>
            <DistanceMeters>NAN</DistanceMeters>
          </Trackpoint>
          <Trackpoint>
            <Time>2020-05-25T04:37:11.000Z</Time>
            <Position>
              <LatitudeDegrees>38.0108169279992580413818359375</LatitudeDegrees>
              <LongitudeDegrees>-1.148943342268466949462890625</LongitudeDegrees>
            </Position>
            <AltitudeMeters>74.1999969482421875</AltitudeMeters>
            <DistanceMeters>NAN</DistanceMeters>
          </Trackpoint>
          <Trackpoint>
            <Time>2020-05-25T04:37:12.000Z</Time>
            <Position>
              <LatitudeDegrees>38.01091893576085567474365234375</LatitudeDegrees>
              <LongitudeDegrees>-1.14904535003006458282470703125</LongitudeDegrees>
            </Position>
            <AltitudeMeters>74.1999969482421875</AltitudeMeters>
            <DistanceMeters>NAN</DistanceMeters>
          </Trackpoint>
          <Trackpoint>
            <Time>2020-05-25T04:37:13.000Z</Time>
            <Position>
              <LatitudeDegrees>38.01091893576085567474365234375</LatitudeDegrees>
              <LongitudeDegrees>-1.14904535003006458282470703125</LongitudeDegrees>
            </Position>
            <AltitudeMeters>74.1999969482421875</AltitudeMeters>
            <DistanceMeters>NAN</DistanceMeters>
          </Trackpoint>
          <Trackpoint>
            <Time>2020-05-25T04:37:14.000Z</Time>
            <Position>
              <LatitudeDegrees>38.01102119497954845428466796875</LatitudeDegrees>
              <LongitudeDegrees>-1.14914542995393276214599609375</LongitudeDegrees>
            </Position>
            <AltitudeMeters>74.1999969482421875</AltitudeMeters>
            <DistanceMeters>NAN</DistanceMeters>
          </Trackpoint>
          <Trackpoint>
            <Time>2020-05-25T04:37:15.000Z</Time>
            <Position>
              <LatitudeDegrees>38.01102119497954845428466796875</LatitudeDegrees>
              <LongitudeDegrees>-1.14914542995393276214599609375</LongitudeDegrees>
            </Position>
            <AltitudeMeters>74.1999969482421875</AltitudeMeters>
            <DistanceMeters>NAN</DistanceMeters>
          </Trackpoint>
          <Trackpoint>
            <Time>2020-05-25T04:37:16.000Z</Time>
            <Position>
              <LatitudeDegrees>38.01107190549373626708984375</LatitudeDegrees>
              <LongitudeDegrees>-1.14919605664908885955810546875</LongitudeDegrees>
            </Position>
            <AltitudeMeters>74.1999969482421875</AltitudeMeters>
            <DistanceMeters>NAN</DistanceMeters>
          </Trackpoint>
          <Trackpoint>
            <Time>2020-05-25T04:37:17.000Z</Time>
            <Position>
              <LatitudeDegrees>38.01112228073179721832275390625</LatitudeDegrees>
              <LongitudeDegrees>-1.14924685098230838775634765625</LongitudeDegrees>
            </Position>
            <AltitudeMeters>74.1999969482421875</AltitudeMeters>
            <DistanceMeters>NAN</DistanceMeters>
          </Trackpoint>
          <Trackpoint>
            <Time>2020-05-25T04:37:18.000Z</Time>
            <Position>
              <LatitudeDegrees>38.01122571341693401336669921875</LatitudeDegrees>
              <LongitudeDegrees>-1.1493488587439060211181640625</LongitudeDegrees>
            </Position>
            <AltitudeMeters>74.1999969482421875</AltitudeMeters>
            <DistanceMeters>NAN</DistanceMeters>
          </Trackpoint>
          <Trackpoint>
            <Time>2020-05-25T04:37:19.000Z</Time>
            <Position>
              <LatitudeDegrees>38.0112779326736927032470703125</LatitudeDegrees>
              <LongitudeDegrees>-1.1493998207151889801025390625</LongitudeDegrees>
            </Position>
            <AltitudeMeters>74.1999969482421875</AltitudeMeters>
            <DistanceMeters>NAN</DistanceMeters>
          </Trackpoint>
          <Trackpoint>
            <Time>2020-05-25T04:37:20.000Z</Time>
            <Position>
              <LatitudeDegrees>38.01133065484464168548583984375</LatitudeDegrees>
              <LongitudeDegrees>-1.14945153705775737762451171875</LongitudeDegrees>
            </Position>
            <AltitudeMeters>74.1999969482421875</AltitudeMeters>
            <DistanceMeters>NAN</DistanceMeters>
          </Trackpoint>
          <Trackpoint>
            <Time>2020-05-25T04:37:21.000Z</Time>
            <Position>
              <LatitudeDegrees>38.01133065484464168548583984375</LatitudeDegrees>
              <LongitudeDegrees>-1.14945153705775737762451171875</LongitudeDegrees>
            </Position>
            <AltitudeMeters>74.1999969482421875</AltitudeMeters>
            <DistanceMeters>NAN</DistanceMeters>
          </Trackpoint>
          <Trackpoint>
            <Time>2020-05-25T04:37:22.000Z</Time>
            <Position>
              <LatitudeDegrees>38.01138312555849552154541015625</LatitudeDegrees>
              <LongitudeDegrees>-1.14950367249548435211181640625</LongitudeDegrees>
            </Position>
            <AltitudeMeters>74.1999969482421875</AltitudeMeters>
            <DistanceMeters>NAN</DistanceMeters>
          </Trackpoint>
          <Trackpoint>
            <Time>2020-05-25T04:37:23.000Z</Time>
            <Position>
              <LatitudeDegrees>38.01143509335815906524658203125</LatitudeDegrees>
              <LongitudeDegrees>-1.14955547265708446502685546875</LongitudeDegrees>
            </Position>
            <AltitudeMeters>74.1999969482421875</AltitudeMeters>
            <DistanceMeters>NAN</DistanceMeters>
          </Trackpoint>
          <Trackpoint>
            <Time>2020-05-25T04:37:24.000Z</Time>
            <Position>
              <LatitudeDegrees>38.01153659820556640625</LatitudeDegrees>
              <LongitudeDegrees>-1.149656809866428375244140625</LongitudeDegrees>
            </Position>
            <AltitudeMeters>74.1999969482421875</AltitudeMeters>
            <DistanceMeters>NAN</DistanceMeters>
          </Trackpoint>
          <Trackpoint>
            <Time>2020-05-25T04:37:25.000Z</Time>
            <Position>
              <LatitudeDegrees>38.01153659820556640625</LatitudeDegrees>
              <LongitudeDegrees>-1.149656809866428375244140625</LongitudeDegrees>
            </Position>
            <AltitudeMeters>74.1999969482421875</AltitudeMeters>
            <DistanceMeters>NAN</DistanceMeters>
          </Trackpoint>
          <Trackpoint>
            <Time>2020-05-25T04:37:26.000Z</Time>
            <Position>
              <LatitudeDegrees>38.01163491792976856231689453125</LatitudeDegrees>
              <LongitudeDegrees>-1.14975714124739170074462890625</LongitudeDegrees>
            </Position>
            <AltitudeMeters>74.1999969482421875</AltitudeMeters>
            <DistanceMeters>NAN</DistanceMeters>
          </Trackpoint>
          <Trackpoint>
            <Time>2020-05-25T04:37:27.000Z</Time>
            <Position>
              <LatitudeDegrees>38.01163491792976856231689453125</LatitudeDegrees>
              <LongitudeDegrees>-1.14975714124739170074462890625</LongitudeDegrees>
            </Position>
            <AltitudeMeters>74.1999969482421875</AltitudeMeters>
            <DistanceMeters>NAN</DistanceMeters>
          </Trackpoint>
          <Trackpoint>
            <Time>2020-05-25T04:37:28.000Z</Time>
            <Position>
              <LatitudeDegrees>38.011683113873004913330078125</LatitudeDegrees>
              <LongitudeDegrees>-1.14980676211416721343994140625</LongitudeDegrees>
            </Position>
            <AltitudeMeters>74.1999969482421875</AltitudeMeters>
            <DistanceMeters>NAN</DistanceMeters>
          </Trackpoint>
          <Trackpoint>
            <Time>2020-05-25T04:37:29.000Z</Time>
            <Position>
              <LatitudeDegrees>38.01173181273043155670166015625</LatitudeDegrees>
              <LongitudeDegrees>-1.14985671825706958770751953125</LongitudeDegrees>
            </Position>
            <AltitudeMeters>74.1999969482421875</AltitudeMeters>
            <DistanceMeters>NAN</DistanceMeters>
          </Trackpoint>
          <Trackpoint>
            <Time>2020-05-25T04:37:30.000Z</Time>
            <Position>
              <LatitudeDegrees>38.0118249356746673583984375</LatitudeDegrees>
              <LongitudeDegrees>-1.14995797164738178253173828125</LongitudeDegrees>
            </Position>
            <AltitudeMeters>74.1999969482421875</AltitudeMeters>
            <DistanceMeters>NAN</DistanceMeters>
          </Trackpoint>
          <Trackpoint>
            <Time>2020-05-25T04:37:31.000Z</Time>
            <Position>
              <LatitudeDegrees>38.0118249356746673583984375</LatitudeDegrees>
              <LongitudeDegrees>-1.14995797164738178253173828125</LongitudeDegrees>
            </Position>
            <AltitudeMeters>74.1999969482421875</AltitudeMeters>
            <DistanceMeters>NAN</DistanceMeters>
          </Trackpoint>
          <Trackpoint>
            <Time>2020-05-25T04:37:32.000Z</Time>
            <Position>
              <LatitudeDegrees>38.0119122751057147979736328125</LatitudeDegrees>
              <LongitudeDegrees>-1.15006157197058200836181640625</LongitudeDegrees>
            </Position>
            <AltitudeMeters>74.40000152587890625</AltitudeMeters>
            <DistanceMeters>NAN</DistanceMeters>
          </Trackpoint>
          <Trackpoint>
            <Time>2020-05-25T04:37:33.000Z</Time>
            <Position>
              <LatitudeDegrees>38.0119122751057147979736328125</LatitudeDegrees>
              <LongitudeDegrees>-1.15006157197058200836181640625</LongitudeDegrees>
            </Position>
            <AltitudeMeters>74.40000152587890625</AltitudeMeters>
            <DistanceMeters>NAN</DistanceMeters>
          </Trackpoint>
          <Trackpoint>
            <Time>2020-05-25T04:37:34.000Z</Time>
            <Position>
              <LatitudeDegrees>38.01195477135479450225830078125</LatitudeDegrees>
              <LongitudeDegrees>-1.15011312067508697509765625</LongitudeDegrees>
            </Position>
            <AltitudeMeters>74.40000152587890625</AltitudeMeters>
            <DistanceMeters>NAN</DistanceMeters>
          </Trackpoint>
          <Trackpoint>
            <Time>2020-05-25T04:37:35.000Z</Time>
            <Position>
              <LatitudeDegrees>38.0119960941374301910400390625</LatitudeDegrees>
              <LongitudeDegrees>-1.1501655913889408111572265625</LongitudeDegrees>
            </Position>
            <AltitudeMeters>74.59999847412109375</AltitudeMeters>
            <DistanceMeters>NAN</DistanceMeters>
          </Trackpoint>
          <Trackpoint>
            <Time>2020-05-25T04:37:36.000Z</Time>
            <Position>
              <LatitudeDegrees>38.01207429729402065277099609375</LatitudeDegrees>
              <LongitudeDegrees>-1.15026877261698246002197265625</LongitudeDegrees>
            </Position>
            <AltitudeMeters>74.8000030517578125</AltitudeMeters>
            <DistanceMeters>NAN</DistanceMeters>
          </Trackpoint>
          <Trackpoint>
            <Time>2020-05-25T04:37:37.000Z</Time>
            <Position>
              <LatitudeDegrees>38.01207429729402065277099609375</LatitudeDegrees>
              <LongitudeDegrees>-1.15026877261698246002197265625</LongitudeDegrees>
            </Position>
            <AltitudeMeters>74.8000030517578125</AltitudeMeters>
            <DistanceMeters>NAN</DistanceMeters>
          </Trackpoint>
          <Trackpoint>
            <Time>2020-05-25T04:37:38.000Z</Time>
            <Position>
              <LatitudeDegrees>38.01214721985161304473876953125</LatitudeDegrees>
              <LongitudeDegrees>-1.15036927163600921630859375</LongitudeDegrees>
            </Position>
            <AltitudeMeters>74.8000030517578125</AltitudeMeters>
            <DistanceMeters>NAN</DistanceMeters>
          </Trackpoint>
          <Trackpoint>
            <Time>2020-05-25T04:37:39.000Z</Time>
            <Position>
              <LatitudeDegrees>38.01214721985161304473876953125</LatitudeDegrees>
              <LongitudeDegrees>-1.15036927163600921630859375</LongitudeDegrees>
            </Position>
            <AltitudeMeters>75</AltitudeMeters>
            <DistanceMeters>NAN</DistanceMeters>
          </Trackpoint>
          <Trackpoint>
            <Time>2020-05-25T04:37:40.000Z</Time>
            <Position>
              <LatitudeDegrees>38.01218024455010890960693359375</LatitudeDegrees>
              <LongitudeDegrees>-1.15042031742632389068603515625</LongitudeDegrees>
            </Position>
            <AltitudeMeters>75</AltitudeMeters>
            <DistanceMeters>NAN</DistanceMeters>
          </Trackpoint>
          <Trackpoint>
            <Time>2020-05-25T04:37:41.000Z</Time>
            <Position>
              <LatitudeDegrees>38.01221142522990703582763671875</LatitudeDegrees>
              <LongitudeDegrees>-1.15047077648341655731201171875</LongitudeDegrees>
            </Position>
            <AltitudeMeters>75</AltitudeMeters>
            <DistanceMeters>NAN</DistanceMeters>
          </Trackpoint>
          <Trackpoint>
            <Time>2020-05-25T04:37:42.000Z</Time>
            <Position>
              <LatitudeDegrees>38.0122693441808223724365234375</LatitudeDegrees>
              <LongitudeDegrees>-1.1505672521889209747314453125</LongitudeDegrees>
            </Position>
            <AltitudeMeters>75.1999969482421875</AltitudeMeters>
            <DistanceMeters>NAN</DistanceMeters>
          </Trackpoint>
          <Trackpoint>
            <Time>2020-05-25T04:37:43.000Z</Time>
            <Position>
              <LatitudeDegrees>38.0122693441808223724365234375</LatitudeDegrees>
              <LongitudeDegrees>-1.1505672521889209747314453125</LongitudeDegrees>
            </Position>
            <AltitudeMeters>75.1999969482421875</AltitudeMeters>
            <DistanceMeters>NAN</DistanceMeters>
          </Trackpoint>
          <Trackpoint>
            <Time>2020-05-25T04:37:44.000Z</Time>
            <Position>
              <LatitudeDegrees>38.01232038997113704681396484375</LatitudeDegrees>
              <LongitudeDegrees>-1.15065735764801502227783203125</LongitudeDegrees>
            </Position>
            <AltitudeMeters>75.1999969482421875</AltitudeMeters>
            <DistanceMeters>NAN</DistanceMeters>
          </Trackpoint>
          <Trackpoint>
            <Time>2020-05-25T04:37:45.000Z</Time>
            <Position>
              <LatitudeDegrees>38.01232038997113704681396484375</LatitudeDegrees>
              <LongitudeDegrees>-1.15065735764801502227783203125</LongitudeDegrees>
            </Position>
            <AltitudeMeters>75.1999969482421875</AltitudeMeters>
            <DistanceMeters>NAN</DistanceMeters>
          </Trackpoint>
          <Trackpoint>
            <Time>2020-05-25T04:37:46.000Z</Time>
            <Position>
              <LatitudeDegrees>38.0123437754809856414794921875</LatitudeDegrees>
              <LongitudeDegrees>-1.15070194937288761138916015625</LongitudeDegrees>
            </Position>
            <AltitudeMeters>75.1999969482421875</AltitudeMeters>
            <DistanceMeters>NAN</DistanceMeters>
          </Trackpoint>
          <Trackpoint>
            <Time>2020-05-25T04:37:47.000Z</Time>
            <Position>
              <LatitudeDegrees>38.01236649043858051300048828125</LatitudeDegrees>
              <LongitudeDegrees>-1.1507472954690456390380859375</LongitudeDegrees>
            </Position>
            <AltitudeMeters>75.1999969482421875</AltitudeMeters>
            <DistanceMeters>NAN</DistanceMeters>
          </Trackpoint>
          <Trackpoint>
            <Time>2020-05-25T04:37:48.000Z</Time>
            <Position>
              <LatitudeDegrees>38.01238979212939739227294921875</LatitudeDegrees>
              <LongitudeDegrees>-1.15079331211745738983154296875</LongitudeDegrees>
            </Position>
            <AltitudeMeters>75.1999969482421875</AltitudeMeters>
            <DistanceMeters>NAN</DistanceMeters>
          </Trackpoint>
          <Trackpoint>
            <Time>2020-05-25T04:37:49.000Z</Time>
            <Position>
              <LatitudeDegrees>38.01243857480585575103759765625</LatitudeDegrees>
              <LongitudeDegrees>-1.1508867703378200531005859375</LongitudeDegrees>
            </Position>
            <AltitudeMeters>75.59999847412109375</AltitudeMeters>
            <DistanceMeters>NAN</DistanceMeters>
          </Trackpoint>
          <Trackpoint>
            <Time>2020-05-25T04:37:50.000Z</Time>
            <Position>
              <LatitudeDegrees>38.01246388815343379974365234375</LatitudeDegrees>
              <LongitudeDegrees>-1.1509370617568492889404296875</LongitudeDegrees>
            </Position>
            <AltitudeMeters>75.59999847412109375</AltitudeMeters>
            <DistanceMeters>NAN</DistanceMeters>
          </Trackpoint>
          <Trackpoint>
            <Time>2020-05-25T04:37:51.000Z</Time>
            <Position>
              <LatitudeDegrees>38.01246388815343379974365234375</LatitudeDegrees>
              <LongitudeDegrees>-1.1509370617568492889404296875</LongitudeDegrees>
            </Position>
            <AltitudeMeters>75.8000030517578125</AltitudeMeters>
            <DistanceMeters>NAN</DistanceMeters>
          </Trackpoint>
          <Trackpoint>
            <Time>2020-05-25T04:37:52.000Z</Time>
            <Position>
              <LatitudeDegrees>38.01248811185359954833984375</LatitudeDegrees>
              <LongitudeDegrees>-1.15098861046135425567626953125</LongitudeDegrees>
            </Position>
            <AltitudeMeters>75.8000030517578125</AltitudeMeters>
            <DistanceMeters>NAN</DistanceMeters>
          </Trackpoint>
          <Trackpoint>
            <Time>2020-05-25T04:37:53.000Z</Time>
            <Position>
              <LatitudeDegrees>38.01253513433039188385009765625</LatitudeDegrees>
              <LongitudeDegrees>-1.15109883248805999755859375</LongitudeDegrees>
            </Position>
            <AltitudeMeters>75.8000030517578125</AltitudeMeters>
            <DistanceMeters>NAN</DistanceMeters>
          </Trackpoint>
          <Trackpoint>
            <Time>2020-05-25T04:37:54.000Z</Time>
            <Position>
              <LatitudeDegrees>38.01255960948765277862548828125</LatitudeDegrees>
              <LongitudeDegrees>-1.1511559970676898956298828125</LongitudeDegrees>
            </Position>
            <AltitudeMeters>76</AltitudeMeters>
            <DistanceMeters>NAN</DistanceMeters>
          </Trackpoint>
          <Trackpoint>
            <Time>2020-05-25T04:37:55.000Z</Time>
            <Position>
              <LatitudeDegrees>38.01255960948765277862548828125</LatitudeDegrees>
              <LongitudeDegrees>-1.1511559970676898956298828125</LongitudeDegrees>
            </Position>
            <AltitudeMeters>76</AltitudeMeters>
            <DistanceMeters>NAN</DistanceMeters>
          </Trackpoint>
          <Trackpoint>
            <Time>2020-05-25T04:37:56.000Z</Time>
            <Position>
              <LatitudeDegrees>38.01260403357446193695068359375</LatitudeDegrees>
              <LongitudeDegrees>-1.15127409808337688446044921875</LongitudeDegrees>
            </Position>
            <AltitudeMeters>76</AltitudeMeters>
            <DistanceMeters>NAN</DistanceMeters>
          </Trackpoint>
          <Trackpoint>
            <Time>2020-05-25T04:37:57.000Z</Time>
            <Position>
              <LatitudeDegrees>38.0126250721514225006103515625</LatitudeDegrees>
              <LongitudeDegrees>-1.151334531605243682861328125</LongitudeDegrees>
            </Position>
            <AltitudeMeters>76.1999969482421875</AltitudeMeters>
            <DistanceMeters>NAN</DistanceMeters>
          </Trackpoint>
          <Trackpoint>
            <Time>2020-05-25T04:37:58.000Z</Time>
            <Position>
              <LatitudeDegrees>38.0126250721514225006103515625</LatitudeDegrees>
              <LongitudeDegrees>-1.151334531605243682861328125</LongitudeDegrees>
            </Position>
            <AltitudeMeters>76.1999969482421875</AltitudeMeters>
            <DistanceMeters>NAN</DistanceMeters>
          </Trackpoint>
          <Trackpoint>
            <Time>2020-05-25T04:37:59.000Z</Time>
            <Position>
              <LatitudeDegrees>38.01266756840050220489501953125</LatitudeDegrees>
              <LongitudeDegrees>-1.151457913219928741455078125</LongitudeDegrees>
            </Position>
            <AltitudeMeters>76.1999969482421875</AltitudeMeters>
            <DistanceMeters>NAN</DistanceMeters>
          </Trackpoint>
          <Trackpoint>
            <Time>2020-05-25T04:38:00.000Z</Time>
            <Position>
              <LatitudeDegrees>38.0126884393393993377685546875</LatitudeDegrees>
              <LongitudeDegrees>-1.15152169950306415557861328125</LongitudeDegrees>
            </Position>
            <AltitudeMeters>76.1999969482421875</AltitudeMeters>
            <DistanceMeters>NAN</DistanceMeters>
          </Trackpoint>
          <Trackpoint>
            <Time>2020-05-25T04:38:01.000Z</Time>
            <Position>
              <LatitudeDegrees>38.01270780153572559356689453125</LatitudeDegrees>
              <LongitudeDegrees>-1.15158741362392902374267578125</LongitudeDegrees>
            </Position>
            <AltitudeMeters>76.40000152587890625</AltitudeMeters>
            <DistanceMeters>NAN</DistanceMeters>
          </Trackpoint>
          <Trackpoint>
            <Time>2020-05-25T04:38:02.000Z</Time>
            <Position>
              <LatitudeDegrees>38.01272624172270298004150390625</LatitudeDegrees>
              <LongitudeDegrees>-1.1516538821160793304443359375</LongitudeDegrees>
            </Position>
            <AltitudeMeters>76.40000152587890625</AltitudeMeters>
            <DistanceMeters>NAN</DistanceMeters>
          </Trackpoint>
          <Trackpoint>
            <Time>2020-05-25T04:38:03.000Z</Time>
            <Position>
              <LatitudeDegrees>38.01274384371936321258544921875</LatitudeDegrees>
              <LongitudeDegrees>-1.1517209373414516448974609375</LongitudeDegrees>
            </Position>
            <AltitudeMeters>76.40000152587890625</AltitudeMeters>
            <DistanceMeters>NAN</DistanceMeters>
          </Trackpoint>
          <Trackpoint>
            <Time>2020-05-25T04:38:04.000Z</Time>
            <Position>
              <LatitudeDegrees>38.01274384371936321258544921875</LatitudeDegrees>
              <LongitudeDegrees>-1.1517209373414516448974609375</LongitudeDegrees>
            </Position>
            <AltitudeMeters>76.40000152587890625</AltitudeMeters>
            <DistanceMeters>NAN</DistanceMeters>
          </Trackpoint>
          <Trackpoint>
            <Time>2020-05-25T04:38:05.000Z</Time>
            <Position>
              <LatitudeDegrees>38.0127798020839691162109375</LatitudeDegrees>
              <LongitudeDegrees>-1.151856221258640289306640625</LongitudeDegrees>
            </Position>
            <AltitudeMeters>76.59999847412109375</AltitudeMeters>
            <DistanceMeters>NAN</DistanceMeters>
          </Trackpoint>
          <Trackpoint>
            <Time>2020-05-25T04:38:06.000Z</Time>
            <Position>
              <LatitudeDegrees>38.01279648207128047943115234375</LatitudeDegrees>
              <LongitudeDegrees>-1.15192419849336147308349609375</LongitudeDegrees>
            </Position>
            <AltitudeMeters>76.59999847412109375</AltitudeMeters>
            <DistanceMeters>NAN</DistanceMeters>
          </Trackpoint>
          <Trackpoint>
            <Time>2020-05-25T04:38:07.000Z</Time>
            <Position>
              <LatitudeDegrees>38.0128118209540843963623046875</LatitudeDegrees>
              <LongitudeDegrees>-1.15199200809001922607421875</LongitudeDegrees>
            </Position>
            <AltitudeMeters>76.59999847412109375</AltitudeMeters>
            <DistanceMeters>NAN</DistanceMeters>
          </Trackpoint>
          <Trackpoint>
            <Time>2020-05-25T04:38:08.000Z</Time>
            <Position>
              <LatitudeDegrees>38.01282715983688831329345703125</LatitudeDegrees>
              <LongitudeDegrees>-1.15205981768667697906494140625</LongitudeDegrees>
            </Position>
            <AltitudeMeters>76.8000030517578125</AltitudeMeters>
            <DistanceMeters>NAN</DistanceMeters>
          </Trackpoint>
          <Trackpoint>
            <Time>2020-05-25T04:38:09.000Z</Time>
            <Position>
              <LatitudeDegrees>38.01284342072904109954833984375</LatitudeDegrees>
              <LongitudeDegrees>-1.1521272920072078704833984375</LongitudeDegrees>
            </Position>
            <AltitudeMeters>77</AltitudeMeters>
            <DistanceMeters>NAN</DistanceMeters>
          </Trackpoint>
          <Trackpoint>
            <Time>2020-05-25T04:38:10.000Z</Time>
            <Position>
              <LatitudeDegrees>38.01284342072904109954833984375</LatitudeDegrees>
              <LongitudeDegrees>-1.1521272920072078704833984375</LongitudeDegrees>
            </Position>
            <AltitudeMeters>77</AltitudeMeters>
            <DistanceMeters>NAN</DistanceMeters>
          </Trackpoint>
          <Trackpoint>
            <Time>2020-05-25T04:38:11.000Z</Time>
            <Position>
              <LatitudeDegrees>38.01285968162119388580322265625</LatitudeDegrees>
              <LongitudeDegrees>-1.15219476632773876190185546875</LongitudeDegrees>
            </Position>
            <AltitudeMeters>77</AltitudeMeters>
            <DistanceMeters>NAN</DistanceMeters>
          </Trackpoint>
          <Trackpoint>
            <Time>2020-05-25T04:38:12.000Z</Time>
            <Position>
              <LatitudeDegrees>38.01288968883454799652099609375</LatitudeDegrees>
              <LongitudeDegrees>-1.1523294635117053985595703125</LongitudeDegrees>
            </Position>
            <AltitudeMeters>77.1999969482421875</AltitudeMeters>
            <DistanceMeters>NAN</DistanceMeters>
          </Trackpoint>
          <Trackpoint>
            <Time>2020-05-25T04:38:13.000Z</Time>
            <Position>
              <LatitudeDegrees>38.01288968883454799652099609375</LatitudeDegrees>
              <LongitudeDegrees>-1.1523294635117053985595703125</LongitudeDegrees>
            </Position>
            <AltitudeMeters>77.1999969482421875</AltitudeMeters>
            <DistanceMeters>NAN</DistanceMeters>
          </Trackpoint>
          <Trackpoint>
            <Time>2020-05-25T04:38:14.000Z</Time>
            <Position>
              <LatitudeDegrees>38.01292103715240955352783203125</LatitudeDegrees>
              <LongitudeDegrees>-1.15246139466762542724609375</LongitudeDegrees>
            </Position>
            <AltitudeMeters>77.1999969482421875</AltitudeMeters>
            <DistanceMeters>NAN</DistanceMeters>
          </Trackpoint>
          <Trackpoint>
            <Time>2020-05-25T04:38:15.000Z</Time>
            <Position>
              <LatitudeDegrees>38.01292103715240955352783203125</LatitudeDegrees>
              <LongitudeDegrees>-1.15246139466762542724609375</LongitudeDegrees>
            </Position>
            <AltitudeMeters>77.1999969482421875</AltitudeMeters>
            <DistanceMeters>NAN</DistanceMeters>
          </Trackpoint>
          <Trackpoint>
            <Time>2020-05-25T04:38:16.000Z</Time>
            <Position>
              <LatitudeDegrees>38.0129368789494037628173828125</LatitudeDegrees>
              <LongitudeDegrees>-1.15252668969333171844482421875</LongitudeDegrees>
            </Position>
            <AltitudeMeters>77.40000152587890625</AltitudeMeters>
            <DistanceMeters>NAN</DistanceMeters>
          </Trackpoint>
          <Trackpoint>
            <Time>2020-05-25T04:38:17.000Z</Time>
            <Position>
              <LatitudeDegrees>38.01295213401317596435546875</LatitudeDegrees>
              <LongitudeDegrees>-1.15259190090000629425048828125</LongitudeDegrees>
            </Position>
            <AltitudeMeters>77.40000152587890625</AltitudeMeters>
            <DistanceMeters>NAN</DistanceMeters>
          </Trackpoint>
          <Trackpoint>
            <Time>2020-05-25T04:38:18.000Z</Time>
            <Position>
              <LatitudeDegrees>38.01298406906425952911376953125</LatitudeDegrees>
              <LongitudeDegrees>-1.15272148512303829193115234375</LongitudeDegrees>
            </Position>
            <AltitudeMeters>77.59999847412109375</AltitudeMeters>
            <DistanceMeters>NAN</DistanceMeters>
          </Trackpoint>
          <Trackpoint>
            <Time>2020-05-25T04:38:19.000Z</Time>
            <Position>
              <LatitudeDegrees>38.01298406906425952911376953125</LatitudeDegrees>
              <LongitudeDegrees>-1.15272148512303829193115234375</LongitudeDegrees>
            </Position>
            <AltitudeMeters>77.59999847412109375</AltitudeMeters>
            <DistanceMeters>NAN</DistanceMeters>
          </Trackpoint>
          <Trackpoint>
            <Time>2020-05-25T04:38:20.000Z</Time>
            <Position>
              <LatitudeDegrees>38.0130139924585819244384765625</LatitudeDegrees>
              <LongitudeDegrees>-1.15285224281251430511474609375</LongitudeDegrees>
            </Position>
            <AltitudeMeters>77.8000030517578125</AltitudeMeters>
            <DistanceMeters>NAN</DistanceMeters>
          </Trackpoint>
          <Trackpoint>
            <Time>2020-05-25T04:38:21.000Z</Time>
            <Position>
              <LatitudeDegrees>38.0130139924585819244384765625</LatitudeDegrees>
              <LongitudeDegrees>-1.15285224281251430511474609375</LongitudeDegrees>
            </Position>
            <AltitudeMeters>78</AltitudeMeters>
            <DistanceMeters>NAN</DistanceMeters>
          </Trackpoint>
          <Trackpoint>
            <Time>2020-05-25T04:38:22.000Z</Time>
            <Position>
              <LatitudeDegrees>38.013027571141719818115234375</LatitudeDegrees>
              <LongitudeDegrees>-1.15291778929531574249267578125</LongitudeDegrees>
            </Position>
            <AltitudeMeters>78.1999969482421875</AltitudeMeters>
            <DistanceMeters>NAN</DistanceMeters>
          </Trackpoint>
          <Trackpoint>
            <Time>2020-05-25T04:38:23.000Z</Time>
            <Position>
              <LatitudeDegrees>38.01304173655807971954345703125</LatitudeDegrees>
              <LongitudeDegrees>-1.1529825814068317413330078125</LongitudeDegrees>
            </Position>
            <AltitudeMeters>78.40000152587890625</AltitudeMeters>
            <DistanceMeters>NAN</DistanceMeters>
          </Trackpoint>
          <Trackpoint>
            <Time>2020-05-25T04:38:24.000Z</Time>
            <Position>
              <LatitudeDegrees>38.013067133724689483642578125</LatitudeDegrees>
              <LongitudeDegrees>-1.15311275236308574676513671875</LongitudeDegrees>
            </Position>
            <AltitudeMeters>78.40000152587890625</AltitudeMeters>
            <DistanceMeters>NAN</DistanceMeters>
          </Trackpoint>
          <Trackpoint>
            <Time>2020-05-25T04:38:25.000Z</Time>
            <Position>
              <LatitudeDegrees>38.013067133724689483642578125</LatitudeDegrees>
              <LongitudeDegrees>-1.15311275236308574676513671875</LongitudeDegrees>
            </Position>
            <AltitudeMeters>78.59999847412109375</AltitudeMeters>
            <DistanceMeters>NAN</DistanceMeters>
          </Trackpoint>
          <Trackpoint>
            <Time>2020-05-25T04:38:26.000Z</Time>
            <Position>
              <LatitudeDegrees>38.0130927823483943939208984375</LatitudeDegrees>
              <LongitudeDegrees>-1.15324216894805431365966796875</LongitudeDegrees>
            </Position>
            <AltitudeMeters>78.59999847412109375</AltitudeMeters>
            <DistanceMeters>NAN</DistanceMeters>
          </Trackpoint>
          <Trackpoint>
            <Time>2020-05-25T04:38:27.000Z</Time>
            <Position>
              <LatitudeDegrees>38.0130927823483943939208984375</LatitudeDegrees>
              <LongitudeDegrees>-1.15324216894805431365966796875</LongitudeDegrees>
            </Position>
            <AltitudeMeters>78.59999847412109375</AltitudeMeters>
            <DistanceMeters>NAN</DistanceMeters>
          </Trackpoint>
          <Trackpoint>
            <Time>2020-05-25T04:38:28.000Z</Time>
            <Position>
              <LatitudeDegrees>38.01310828886926174163818359375</LatitudeDegrees>
              <LongitudeDegrees>-1.15330654196441173553466796875</LongitudeDegrees>
            </Position>
            <AltitudeMeters>78.8000030517578125</AltitudeMeters>
            <DistanceMeters>NAN</DistanceMeters>
          </Trackpoint>
          <Trackpoint>
            <Time>2020-05-25T04:38:29.000Z</Time>
            <Position>
              <LatitudeDegrees>38.0131236277520656585693359375</LatitudeDegrees>
              <LongitudeDegrees>-1.15337175317108631134033203125</LongitudeDegrees>
            </Position>
            <AltitudeMeters>78.8000030517578125</AltitudeMeters>
            <DistanceMeters>NAN</DistanceMeters>
          </Trackpoint>
          <Trackpoint>
            <Time>2020-05-25T04:38:30.000Z</Time>
            <Position>
              <LatitudeDegrees>38.01315061748027801513671875</LatitudeDegrees>
              <LongitudeDegrees>-1.15350217558443546295166015625</LongitudeDegrees>
            </Position>
            <AltitudeMeters>79</AltitudeMeters>
            <DistanceMeters>NAN</DistanceMeters>
          </Trackpoint>
          <Trackpoint>
            <Time>2020-05-25T04:38:31.000Z</Time>
            <Position>
              <LatitudeDegrees>38.01315061748027801513671875</LatitudeDegrees>
              <LongitudeDegrees>-1.15350217558443546295166015625</LongitudeDegrees>
            </Position>
            <AltitudeMeters>79.1999969482421875</AltitudeMeters>
            <DistanceMeters>NAN</DistanceMeters>
          </Trackpoint>
          <Trackpoint>
            <Time>2020-05-25T04:38:32.000Z</Time>
            <Position>
              <LatitudeDegrees>38.01318012177944183349609375</LatitudeDegrees>
              <LongitudeDegrees>-1.1536320112645626068115234375</LongitudeDegrees>
            </Position>
            <AltitudeMeters>79.1999969482421875</AltitudeMeters>
            <DistanceMeters>NAN</DistanceMeters>
          </Trackpoint>
          <Trackpoint>
            <Time>2020-05-25T04:38:33.000Z</Time>
            <Position>
              <LatitudeDegrees>38.0131957121193408966064453125</LatitudeDegrees>
              <LongitudeDegrees>-1.1536963842809200286865234375</LongitudeDegrees>
            </Position>
            <AltitudeMeters>79.1999969482421875</AltitudeMeters>
            <DistanceMeters>NAN</DistanceMeters>
          </Trackpoint>
          <Trackpoint>
            <Time>2020-05-25T04:38:34.000Z</Time>
            <Position>
              <LatitudeDegrees>38.0131957121193408966064453125</LatitudeDegrees>
              <LongitudeDegrees>-1.1536963842809200286865234375</LongitudeDegrees>
            </Position>
            <AltitudeMeters>79.40000152587890625</AltitudeMeters>
            <DistanceMeters>NAN</DistanceMeters>
          </Trackpoint>
          <Trackpoint>
            <Time>2020-05-25T04:38:35.000Z</Time>
            <Position>
              <LatitudeDegrees>38.0132282339036464691162109375</LatitudeDegrees>
              <LongitudeDegrees>-1.15382588468492031097412109375</LongitudeDegrees>
            </Position>
            <AltitudeMeters>79.59999847412109375</AltitudeMeters>
            <DistanceMeters>NAN</DistanceMeters>
          </Trackpoint>
          <Trackpoint>
            <Time>2020-05-25T04:38:36.000Z</Time>
            <Position>
              <LatitudeDegrees>38.01324642263352870941162109375</LatitudeDegrees>
              <LongitudeDegrees>-1.1538911797106266021728515625</LongitudeDegrees>
            </Position>
            <AltitudeMeters>79.59999847412109375</AltitudeMeters>
            <DistanceMeters>NAN</DistanceMeters>
          </Trackpoint>
          <Trackpoint>
            <Time>2020-05-25T04:38:37.000Z</Time>
            <Position>
              <LatitudeDegrees>38.01324642263352870941162109375</LatitudeDegrees>
              <LongitudeDegrees>-1.1538911797106266021728515625</LongitudeDegrees>
            </Position>
            <AltitudeMeters>79.8000030517578125</AltitudeMeters>
            <DistanceMeters>NAN</DistanceMeters>
          </Trackpoint>
          <Trackpoint>
            <Time>2020-05-25T04:38:38.000Z</Time>
            <Position>
              <LatitudeDegrees>38.01328179426491260528564453125</LatitudeDegrees>
              <LongitudeDegrees>-1.15402512252330780029296875</LongitudeDegrees>
            </Position>
            <AltitudeMeters>80</AltitudeMeters>
            <DistanceMeters>NAN</DistanceMeters>
          </Trackpoint>
          <Trackpoint>
            <Time>2020-05-25T04:38:39.000Z</Time>
            <Position>
              <LatitudeDegrees>38.01328179426491260528564453125</LatitudeDegrees>
              <LongitudeDegrees>-1.15402512252330780029296875</LongitudeDegrees>
            </Position>
            <AltitudeMeters>80</AltitudeMeters>
            <DistanceMeters>NAN</DistanceMeters>
          </Trackpoint>
          <Trackpoint>
            <Time>2020-05-25T04:38:40.000Z</Time>
            <Position>
              <LatitudeDegrees>38.013299144804477691650390625</LatitudeDegrees>
              <LongitudeDegrees>-1.1540930159389972686767578125</LongitudeDegrees>
            </Position>
            <AltitudeMeters>80.1999969482421875</AltitudeMeters>
            <DistanceMeters>NAN</DistanceMeters>
          </Trackpoint>
          <Trackpoint>
            <Time>2020-05-25T04:38:41.000Z</Time>
            <Position>
              <LatitudeDegrees>38.01333376206457614898681640625</LatitudeDegrees>
              <LongitudeDegrees>-1.1542318202555179595947265625</LongitudeDegrees>
            </Position>
            <AltitudeMeters>80.1999969482421875</AltitudeMeters>
            <DistanceMeters>NAN</DistanceMeters>
          </Trackpoint>
          <Trackpoint>
            <Time>2020-05-25T04:38:42.000Z</Time>
            <Position>
              <LatitudeDegrees>38.01335136406123638153076171875</LatitudeDegrees>
              <LongitudeDegrees>-1.15430147387087345123291015625</LongitudeDegrees>
            </Position>
            <AltitudeMeters>80.1999969482421875</AltitudeMeters>
            <DistanceMeters>NAN</DistanceMeters>
          </Trackpoint>
          <Trackpoint>
            <Time>2020-05-25T04:38:43.000Z</Time>
            <Position>
              <LatitudeDegrees>38.01336745731532573699951171875</LatitudeDegrees>
              <LongitudeDegrees>-1.15437154658138751983642578125</LongitudeDegrees>
            </Position>
            <AltitudeMeters>80.40000152587890625</AltitudeMeters>
            <DistanceMeters>NAN</DistanceMeters>
          </Trackpoint>
          <Trackpoint>
            <Time>2020-05-25T04:38:44.000Z</Time>
            <Position>
              <LatitudeDegrees>38.0133832991123199462890625</LatitudeDegrees>
              <LongitudeDegrees>-1.15444178692996501922607421875</LongitudeDegrees>
            </Position>
            <AltitudeMeters>80.40000152587890625</AltitudeMeters>
            <DistanceMeters>NAN</DistanceMeters>
          </Trackpoint>
          <Trackpoint>
            <Time>2020-05-25T04:38:45.000Z</Time>
            <Position>
              <LatitudeDegrees>38.0133832991123199462890625</LatitudeDegrees>
              <LongitudeDegrees>-1.15444178692996501922607421875</LongitudeDegrees>
            </Position>
            <AltitudeMeters>80.59999847412109375</AltitudeMeters>
            <DistanceMeters>NAN</DistanceMeters>
          </Trackpoint>
          <Trackpoint>
            <Time>2020-05-25T04:38:46.000Z</Time>
            <Position>
              <LatitudeDegrees>38.013400398194789886474609375</LatitudeDegrees>
              <LongitudeDegrees>-1.15451194345951080322265625</LongitudeDegrees>
            </Position>
            <AltitudeMeters>80.59999847412109375</AltitudeMeters>
            <DistanceMeters>NAN</DistanceMeters>
          </Trackpoint>
          <Trackpoint>
            <Time>2020-05-25T04:38:47.000Z</Time>
            <Position>
              <LatitudeDegrees>38.013437278568744659423828125</LatitudeDegrees>
              <LongitudeDegrees>-1.1546509154140949249267578125</LongitudeDegrees>
            </Position>
            <AltitudeMeters>80.8000030517578125</AltitudeMeters>
            <DistanceMeters>NAN</DistanceMeters>
          </Trackpoint>
          <Trackpoint>
            <Time>2020-05-25T04:38:48.000Z</Time>
            <Position>
              <LatitudeDegrees>38.0134545452892780303955078125</LatitudeDegrees>
              <LongitudeDegrees>-1.15472023375332355499267578125</LongitudeDegrees>
            </Position>
            <AltitudeMeters>81</AltitudeMeters>
            <DistanceMeters>NAN</DistanceMeters>
          </Trackpoint>
          <Trackpoint>
            <Time>2020-05-25T04:38:49.000Z</Time>
            <Position>
              <LatitudeDegrees>38.0134545452892780303955078125</LatitudeDegrees>
              <LongitudeDegrees>-1.15472023375332355499267578125</LongitudeDegrees>
            </Position>
            <AltitudeMeters>81</AltitudeMeters>
            <DistanceMeters>NAN</DistanceMeters>
          </Trackpoint>
          <Trackpoint>
            <Time>2020-05-25T04:38:50.000Z</Time>
            <Position>
              <LatitudeDegrees>38.01349134184420108795166015625</LatitudeDegrees>
              <LongitudeDegrees>-1.1548591218888759613037109375</LongitudeDegrees>
            </Position>
            <AltitudeMeters>81.40000152587890625</AltitudeMeters>
            <DistanceMeters>NAN</DistanceMeters>
          </Trackpoint>
          <Trackpoint>
            <Time>2020-05-25T04:38:51.000Z</Time>
            <Position>
              <LatitudeDegrees>38.01349134184420108795166015625</LatitudeDegrees>
              <LongitudeDegrees>-1.1548591218888759613037109375</LongitudeDegrees>
            </Position>
            <AltitudeMeters>81.59999847412109375</AltitudeMeters>
            <DistanceMeters>NAN</DistanceMeters>
          </Trackpoint>
          <Trackpoint>
            <Time>2020-05-25T04:38:52.000Z</Time>
            <Position>
              <LatitudeDegrees>38.01351212896406650543212890625</LatitudeDegrees>
              <LongitudeDegrees>-1.15492760203778743743896484375</LongitudeDegrees>
            </Position>
            <AltitudeMeters>81.59999847412109375</AltitudeMeters>
            <DistanceMeters>NAN</DistanceMeters>
          </Trackpoint>
          <Trackpoint>
            <Time>2020-05-25T04:38:53.000Z</Time>
            <Position>
              <LatitudeDegrees>38.0135326646268367767333984375</LatitudeDegrees>
              <LongitudeDegrees>-1.1549982614815235137939453125</LongitudeDegrees>
            </Position>
            <AltitudeMeters>81.59999847412109375</AltitudeMeters>
            <DistanceMeters>NAN</DistanceMeters>
          </Trackpoint>
          <Trackpoint>
            <Time>2020-05-25T04:38:54.000Z</Time>
            <Position>
              <LatitudeDegrees>38.0135762505233287811279296875</LatitudeDegrees>
              <LongitudeDegrees>-1.15513832308351993560791015625</LongitudeDegrees>
            </Position>
            <AltitudeMeters>81.8000030517578125</AltitudeMeters>
            <DistanceMeters>NAN</DistanceMeters>
          </Trackpoint>
          <Trackpoint>
            <Time>2020-05-25T04:38:55.000Z</Time>
            <Position>
              <LatitudeDegrees>38.0135762505233287811279296875</LatitudeDegrees>
              <LongitudeDegrees>-1.15513832308351993560791015625</LongitudeDegrees>
            </Position>
            <AltitudeMeters>82.1999969482421875</AltitudeMeters>
            <DistanceMeters>NAN</DistanceMeters>
          </Trackpoint>
          <Trackpoint>
            <Time>2020-05-25T04:38:56.000Z</Time>
            <Position>
              <LatitudeDegrees>38.01361866295337677001953125</LatitudeDegrees>
              <LongitudeDegrees>-1.15527913905680179595947265625</LongitudeDegrees>
            </Position>
            <AltitudeMeters>82.40000152587890625</AltitudeMeters>
            <DistanceMeters>NAN</DistanceMeters>
          </Trackpoint>
          <Trackpoint>
            <Time>2020-05-25T04:38:57.000Z</Time>
            <Position>
              <LatitudeDegrees>38.0136409588158130645751953125</LatitudeDegrees>
              <LongitudeDegrees>-1.1553496308624744415283203125</LongitudeDegrees>
            </Position>
            <AltitudeMeters>82.40000152587890625</AltitudeMeters>
            <DistanceMeters>NAN</DistanceMeters>
          </Trackpoint>
          <Trackpoint>
            <Time>2020-05-25T04:38:58.000Z</Time>
            <Position>
              <LatitudeDegrees>38.0136409588158130645751953125</LatitudeDegrees>
              <LongitudeDegrees>-1.1553496308624744415283203125</LongitudeDegrees>
            </Position>
            <AltitudeMeters>82.59999847412109375</AltitudeMeters>
            <DistanceMeters>NAN</DistanceMeters>
          </Trackpoint>
          <Trackpoint>
            <Time>2020-05-25T04:38:59.000Z</Time>
            <Position>
              <LatitudeDegrees>38.01368529908359050750732421875</LatitudeDegrees>
              <LongitudeDegrees>-1.1554927937686443328857421875</LongitudeDegrees>
            </Position>
            <AltitudeMeters>82.59999847412109375</AltitudeMeters>
            <DistanceMeters>NAN</DistanceMeters>
          </Trackpoint>
          <Trackpoint>
            <Time>2020-05-25T04:39:00.000Z</Time>
            <Position>
              <LatitudeDegrees>38.0137078464031219482421875</LatitudeDegrees>
              <LongitudeDegrees>-1.15556546486914157867431640625</LongitudeDegrees>
            </Position>
            <AltitudeMeters>82.59999847412109375</AltitudeMeters>
            <DistanceMeters>NAN</DistanceMeters>
          </Trackpoint>
          <Trackpoint>
            <Time>2020-05-25T04:39:01.000Z</Time>
            <Position>
              <LatitudeDegrees>38.0137078464031219482421875</LatitudeDegrees>
              <LongitudeDegrees>-1.15556546486914157867431640625</LongitudeDegrees>
            </Position>
            <AltitudeMeters>82.8000030517578125</AltitudeMeters>
            <DistanceMeters>NAN</DistanceMeters>
          </Trackpoint>
          <Trackpoint>
            <Time>2020-05-25T04:39:02.000Z</Time>
            <Position>
              <LatitudeDegrees>38.013755120337009429931640625</LatitudeDegrees>
              <LongitudeDegrees>-1.15570954978466033935546875</LongitudeDegrees>
            </Position>
            <AltitudeMeters>82.8000030517578125</AltitudeMeters>
            <DistanceMeters>NAN</DistanceMeters>
          </Trackpoint>
          <Trackpoint>
            <Time>2020-05-25T04:39:03.000Z</Time>
            <Position>
              <LatitudeDegrees>38.01377766765654087066650390625</LatitudeDegrees>
              <LongitudeDegrees>-1.15578171797096729278564453125</LongitudeDegrees>
            </Position>
            <AltitudeMeters>82.8000030517578125</AltitudeMeters>
            <DistanceMeters>NAN</DistanceMeters>
          </Trackpoint>
          <Trackpoint>
            <Time>2020-05-25T04:39:04.000Z</Time>
            <Position>
              <LatitudeDegrees>38.01377766765654087066650390625</LatitudeDegrees>
              <LongitudeDegrees>-1.15578171797096729278564453125</LongitudeDegrees>
            </Position>
            <AltitudeMeters>82.8000030517578125</AltitudeMeters>
            <DistanceMeters>NAN</DistanceMeters>
          </Trackpoint>
          <Trackpoint>
            <Time>2020-05-25T04:39:05.000Z</Time>
            <Position>
              <LatitudeDegrees>38.013824522495269775390625</LatitudeDegrees>
              <LongitudeDegrees>-1.15592253394424915313720703125</LongitudeDegrees>
            </Position>
            <AltitudeMeters>83</AltitudeMeters>
            <DistanceMeters>NAN</DistanceMeters>
          </Trackpoint>
          <Trackpoint>
            <Time>2020-05-25T04:39:06.000Z</Time>
            <Position>
              <LatitudeDegrees>38.01384723745286464691162109375</LatitudeDegrees>
              <LongitudeDegrees>-1.15599227137863636016845703125</LongitudeDegrees>
            </Position>
            <AltitudeMeters>83</AltitudeMeters>
            <DistanceMeters>NAN</DistanceMeters>
          </Trackpoint>
          <Trackpoint>
            <Time>2020-05-25T04:39:07.000Z</Time>
            <Position>
              <LatitudeDegrees>38.0138709582388401031494140625</LatitudeDegrees>
              <LongitudeDegrees>-1.15606133826076984405517578125</LongitudeDegrees>
            </Position>
            <AltitudeMeters>83.1999969482421875</AltitudeMeters>
            <DistanceMeters>NAN</DistanceMeters>
          </Trackpoint>
          <Trackpoint>
            <Time>2020-05-25T04:39:08.000Z</Time>
            <Position>
              <LatitudeDegrees>38.0139007978141307830810546875</LatitudeDegrees>
              <LongitudeDegrees>-1.15612856112420558929443359375</LongitudeDegrees>
            </Position>
            <AltitudeMeters>83.1999969482421875</AltitudeMeters>
            <DistanceMeters>NAN</DistanceMeters>
          </Trackpoint>
          <Trackpoint>
            <Time>2020-05-25T04:39:09.000Z</Time>
            <Position>
              <LatitudeDegrees>38.0139007978141307830810546875</LatitudeDegrees>
              <LongitudeDegrees>-1.15612856112420558929443359375</LongitudeDegrees>
            </Position>
            <AltitudeMeters>83.40000152587890625</AltitudeMeters>
            <DistanceMeters>NAN</DistanceMeters>
          </Trackpoint>
          <Trackpoint>
            <Time>2020-05-25T04:39:10.000Z</Time>
            <Position>
              <LatitudeDegrees>38.01393675617873668670654296875</LatitudeDegrees>
              <LongitudeDegrees>-1.15618958137929439544677734375</LongitudeDegrees>
            </Position>
            <AltitudeMeters>83.40000152587890625</AltitudeMeters>
            <DistanceMeters>NAN</DistanceMeters>
          </Trackpoint>
          <Trackpoint>
            <Time>2020-05-25T04:39:11.000Z</Time>
            <Position>
              <LatitudeDegrees>38.01397866569459438323974609375</LatitudeDegrees>
              <LongitudeDegrees>-1.1562458239495754241943359375</LongitudeDegrees>
            </Position>
            <AltitudeMeters>83.40000152587890625</AltitudeMeters>
            <DistanceMeters>NAN</DistanceMeters>
          </Trackpoint>
          <Trackpoint>
            <Time>2020-05-25T04:39:12.000Z</Time>
            <Position>
              <LatitudeDegrees>38.0140697769820690155029296875</LatitudeDegrees>
              <LongitudeDegrees>-1.15634498186409473419189453125</LongitudeDegrees>
            </Position>
            <AltitudeMeters>83.59999847412109375</AltitudeMeters>
            <DistanceMeters>NAN</DistanceMeters>
          </Trackpoint>
          <Trackpoint>
            <Time>2020-05-25T04:39:13.000Z</Time>
            <Position>
              <LatitudeDegrees>38.0140697769820690155029296875</LatitudeDegrees>
              <LongitudeDegrees>-1.15634498186409473419189453125</LongitudeDegrees>
            </Position>
            <AltitudeMeters>83.59999847412109375</AltitudeMeters>
            <DistanceMeters>NAN</DistanceMeters>
          </Trackpoint>
          <Trackpoint>
            <Time>2020-05-25T04:39:14.000Z</Time>
            <Position>
              <LatitudeDegrees>38.01410841755568981170654296875</LatitudeDegrees>
              <LongitudeDegrees>-1.1564013920724391937255859375</LongitudeDegrees>
            </Position>
            <AltitudeMeters>83.59999847412109375</AltitudeMeters>
            <DistanceMeters>NAN</DistanceMeters>
          </Trackpoint>
          <Trackpoint>
            <Time>2020-05-25T04:39:15.000Z</Time>
            <Position>
              <LatitudeDegrees>38.014135658740997314453125</LatitudeDegrees>
              <LongitudeDegrees>-1.156466268002986907958984375</LongitudeDegrees>
            </Position>
            <AltitudeMeters>83.8000030517578125</AltitudeMeters>
            <DistanceMeters>NAN</DistanceMeters>
          </Trackpoint>
          <Trackpoint>
            <Time>2020-05-25T04:39:16.000Z</Time>
            <Position>
              <LatitudeDegrees>38.0141544342041015625</LatitudeDegrees>
              <LongitudeDegrees>-1.1565378494560718536376953125</LongitudeDegrees>
            </Position>
            <AltitudeMeters>84</AltitudeMeters>
            <DistanceMeters>NAN</DistanceMeters>
          </Trackpoint>
          <Trackpoint>
            <Time>2020-05-25T04:39:17.000Z</Time>
            <Position>
              <LatitudeDegrees>38.01416776143014430999755859375</LatitudeDegrees>
              <LongitudeDegrees>-1.1566112749278545379638671875</LongitudeDegrees>
            </Position>
            <AltitudeMeters>84</AltitudeMeters>
            <DistanceMeters>NAN</DistanceMeters>
          </Trackpoint>
          <Trackpoint>
            <Time>2020-05-25T04:39:18.000Z</Time>
            <Position>
              <LatitudeDegrees>38.01418318413197994232177734375</LatitudeDegrees>
              <LongitudeDegrees>-1.1566850356757640838623046875</LongitudeDegrees>
            </Position>
            <AltitudeMeters>84.1999969482421875</AltitudeMeters>
            <DistanceMeters>NAN</DistanceMeters>
          </Trackpoint>
          <Trackpoint>
            <Time>2020-05-25T04:39:19.000Z</Time>
            <Position>
              <LatitudeDegrees>38.0142040550708770751953125</LatitudeDegrees>
              <LongitudeDegrees>-1.1567567847669124603271484375</LongitudeDegrees>
            </Position>
            <AltitudeMeters>84.1999969482421875</AltitudeMeters>
            <DistanceMeters>NAN</DistanceMeters>
          </Trackpoint>
          <Trackpoint>
            <Time>2020-05-25T04:39:20.000Z</Time>
            <Position>
              <LatitudeDegrees>38.01423179917037487030029296875</LatitudeDegrees>
              <LongitudeDegrees>-1.15682425908744335174560546875</LongitudeDegrees>
            </Position>
            <AltitudeMeters>84.59999847412109375</AltitudeMeters>
            <DistanceMeters>NAN</DistanceMeters>
          </Trackpoint>
          <Trackpoint>
            <Time>2020-05-25T04:39:21.000Z</Time>
            <Position>
              <LatitudeDegrees>38.01426733843982219696044921875</LatitudeDegrees>
              <LongitudeDegrees>-1.15688544698059558868408203125</LongitudeDegrees>
            </Position>
            <AltitudeMeters>84.59999847412109375</AltitudeMeters>
            <DistanceMeters>NAN</DistanceMeters>
          </Trackpoint>
          <Trackpoint>
            <Time>2020-05-25T04:39:22.000Z</Time>
            <Position>
              <LatitudeDegrees>38.014309667050838470458984375</LatitudeDegrees>
              <LongitudeDegrees>-1.1569405160844326019287109375</LongitudeDegrees>
            </Position>
            <AltitudeMeters>84.8000030517578125</AltitudeMeters>
            <DistanceMeters>NAN</DistanceMeters>
          </Trackpoint>
          <Trackpoint>
            <Time>2020-05-25T04:39:23.000Z</Time>
            <Position>
              <LatitudeDegrees>38.0143547616899013519287109375</LatitudeDegrees>
              <LongitudeDegrees>-1.15699122659862041473388671875</LongitudeDegrees>
            </Position>
            <AltitudeMeters>85</AltitudeMeters>
            <DistanceMeters>NAN</DistanceMeters>
          </Trackpoint>
          <Trackpoint>
            <Time>2020-05-25T04:39:24.000Z</Time>
            <Position>
              <LatitudeDegrees>38.0144017003476619720458984375</LatitudeDegrees>
              <LongitudeDegrees>-1.15703917108476161956787109375</LongitudeDegrees>
            </Position>
            <AltitudeMeters>85.40000152587890625</AltitudeMeters>
            <DistanceMeters>NAN</DistanceMeters>
          </Trackpoint>
          <Trackpoint>
            <Time>2020-05-25T04:39:25.000Z</Time>
            <Position>
              <LatitudeDegrees>38.01444889046251773834228515625</LatitudeDegrees>
              <LongitudeDegrees>-1.15708552300930023193359375</LongitudeDegrees>
            </Position>
            <AltitudeMeters>85.40000152587890625</AltitudeMeters>
            <DistanceMeters>NAN</DistanceMeters>
          </Trackpoint>
          <Trackpoint>
            <Time>2020-05-25T04:39:26.000Z</Time>
            <Position>
              <LatitudeDegrees>38.0144959129393100738525390625</LatitudeDegrees>
              <LongitudeDegrees>-1.157130785286426544189453125</LongitudeDegrees>
            </Position>
            <AltitudeMeters>85.59999847412109375</AltitudeMeters>
            <DistanceMeters>NAN</DistanceMeters>
          </Trackpoint>
          <Trackpoint>
            <Time>2020-05-25T04:39:27.000Z</Time>
            <Position>
              <LatitudeDegrees>38.01454310305416584014892578125</LatitudeDegrees>
              <LongitudeDegrees>-1.1571745388209819793701171875</LongitudeDegrees>
            </Position>
            <AltitudeMeters>86</AltitudeMeters>
            <DistanceMeters>NAN</DistanceMeters>
          </Trackpoint>
          <Trackpoint>
            <Time>2020-05-25T04:39:28.000Z</Time>
            <Position>
              <LatitudeDegrees>38.01458970643579959869384765625</LatitudeDegrees>
              <LongitudeDegrees>-1.1572171188890933990478515625</LongitudeDegrees>
            </Position>
            <AltitudeMeters>86</AltitudeMeters>
            <DistanceMeters>NAN</DistanceMeters>
          </Trackpoint>
          <Trackpoint>
            <Time>2020-05-25T04:39:29.000Z</Time>
            <Position>
              <LatitudeDegrees>38.01463614217936992645263671875</LatitudeDegrees>
              <LongitudeDegrees>-1.1572580225765705108642578125</LongitudeDegrees>
            </Position>
            <AltitudeMeters>86.1999969482421875</AltitudeMeters>
            <DistanceMeters>NAN</DistanceMeters>
          </Trackpoint>
          <Trackpoint>
            <Time>2020-05-25T04:39:30.000Z</Time>
            <Position>
              <LatitudeDegrees>38.014731109142303466796875</LatitudeDegrees>
              <LongitudeDegrees>-1.15733052603900432586669921875</LongitudeDegrees>
            </Position>
            <AltitudeMeters>86.1999969482421875</AltitudeMeters>
            <DistanceMeters>NAN</DistanceMeters>
          </Trackpoint>
          <Trackpoint>
            <Time>2020-05-25T04:39:31.000Z</Time>
            <Position>
              <LatitudeDegrees>38.014731109142303466796875</LatitudeDegrees>
              <LongitudeDegrees>-1.15733052603900432586669921875</LongitudeDegrees>
            </Position>
            <AltitudeMeters>86.1999969482421875</AltitudeMeters>
            <DistanceMeters>NAN</DistanceMeters>
          </Trackpoint>
          <Trackpoint>
            <Time>2020-05-25T04:39:32.000Z</Time>
            <Position>
              <LatitudeDegrees>38.01477980799973011016845703125</LatitudeDegrees>
              <LongitudeDegrees>-1.15736573003232479095458984375</LongitudeDegrees>
            </Position>
            <AltitudeMeters>86.40000152587890625</AltitudeMeters>
            <DistanceMeters>NAN</DistanceMeters>
          </Trackpoint>
          <Trackpoint>
            <Time>2020-05-25T04:39:33.000Z</Time>
            <Position>
              <LatitudeDegrees>38.0148285068571567535400390625</LatitudeDegrees>
              <LongitudeDegrees>-1.15739942528307437896728515625</LongitudeDegrees>
            </Position>
            <AltitudeMeters>86.59999847412109375</AltitudeMeters>
            <DistanceMeters>NAN</DistanceMeters>
          </Trackpoint>
          <Trackpoint>
            <Time>2020-05-25T04:39:34.000Z</Time>
            <Position>
              <LatitudeDegrees>38.01487552933394908905029296875</LatitudeDegrees>
              <LongitudeDegrees>-1.15743278525769710540771484375</LongitudeDegrees>
            </Position>
            <AltitudeMeters>86.59999847412109375</AltitudeMeters>
            <DistanceMeters>NAN</DistanceMeters>
          </Trackpoint>
          <Trackpoint>
            <Time>2020-05-25T04:39:35.000Z</Time>
            <Position>
              <LatitudeDegrees>38.01496504805982112884521484375</LatitudeDegrees>
              <LongitudeDegrees>-1.1575005948543548583984375</LongitudeDegrees>
            </Position>
            <AltitudeMeters>86.8000030517578125</AltitudeMeters>
            <DistanceMeters>NAN</DistanceMeters>
          </Trackpoint>
          <Trackpoint>
            <Time>2020-05-25T04:39:36.000Z</Time>
            <Position>
              <LatitudeDegrees>38.01501131616532802581787109375</LatitudeDegrees>
              <LongitudeDegrees>-1.15753454156219959259033203125</LongitudeDegrees>
            </Position>
            <AltitudeMeters>87</AltitudeMeters>
            <DistanceMeters>NAN</DistanceMeters>
          </Trackpoint>
          <Trackpoint>
            <Time>2020-05-25T04:39:37.000Z</Time>
            <Position>
              <LatitudeDegrees>38.01501131616532802581787109375</LatitudeDegrees>
              <LongitudeDegrees>-1.15753454156219959259033203125</LongitudeDegrees>
            </Position>
            <AltitudeMeters>87.1999969482421875</AltitudeMeters>
            <DistanceMeters>NAN</DistanceMeters>
          </Trackpoint>
          <Trackpoint>
            <Time>2020-05-25T04:39:38.000Z</Time>
            <Position>
              <LatitudeDegrees>38.015108294785022735595703125</LatitudeDegrees>
              <LongitudeDegrees>-1.15760327316820621490478515625</LongitudeDegrees>
            </Position>
            <AltitudeMeters>87.40000152587890625</AltitudeMeters>
            <DistanceMeters>NAN</DistanceMeters>
          </Trackpoint>
          <Trackpoint>
            <Time>2020-05-25T04:39:39.000Z</Time>
            <Position>
              <LatitudeDegrees>38.015108294785022735595703125</LatitudeDegrees>
              <LongitudeDegrees>-1.15760327316820621490478515625</LongitudeDegrees>
            </Position>
            <AltitudeMeters>87.59999847412109375</AltitudeMeters>
            <DistanceMeters>NAN</DistanceMeters>
          </Trackpoint>
          <Trackpoint>
            <Time>2020-05-25T04:39:40.000Z</Time>
            <Position>
              <LatitudeDegrees>38.0151543952524662017822265625</LatitudeDegrees>
              <LongitudeDegrees>-1.1576358787715435028076171875</LongitudeDegrees>
            </Position>
            <AltitudeMeters>87.8000030517578125</AltitudeMeters>
            <DistanceMeters>NAN</DistanceMeters>
          </Trackpoint>
          <Trackpoint>
            <Time>2020-05-25T04:39:41.000Z</Time>
            <Position>
              <LatitudeDegrees>38.01520108245313167572021484375</LatitudeDegrees>
              <LongitudeDegrees>-1.15766831673681735992431640625</LongitudeDegrees>
            </Position>
            <AltitudeMeters>87.8000030517578125</AltitudeMeters>
            <DistanceMeters>NAN</DistanceMeters>
          </Trackpoint>
          <Trackpoint>
            <Time>2020-05-25T04:39:42.000Z</Time>
            <Position>
              <LatitudeDegrees>38.01529646851122379302978515625</LatitudeDegrees>
              <LongitudeDegrees>-1.15773260593414306640625</LongitudeDegrees>
            </Position>
            <AltitudeMeters>88.1999969482421875</AltitudeMeters>
            <DistanceMeters>NAN</DistanceMeters>
          </Trackpoint>
          <Trackpoint>
            <Time>2020-05-25T04:39:43.000Z</Time>
            <Position>
              <LatitudeDegrees>38.01529646851122379302978515625</LatitudeDegrees>
              <LongitudeDegrees>-1.15773260593414306640625</LongitudeDegrees>
            </Position>
            <AltitudeMeters>88.40000152587890625</AltitudeMeters>
            <DistanceMeters>NAN</DistanceMeters>
          </Trackpoint>
          <Trackpoint>
            <Time>2020-05-25T04:39:44.000Z</Time>
            <Position>
              <LatitudeDegrees>38.0153934471309185028076171875</LatitudeDegrees>
              <LongitudeDegrees>-1.1577964760363101959228515625</LongitudeDegrees>
            </Position>
            <AltitudeMeters>88.40000152587890625</AltitudeMeters>
            <DistanceMeters>NAN</DistanceMeters>
          </Trackpoint>
          <Trackpoint>
            <Time>2020-05-25T04:39:45.000Z</Time>
            <Position>
              <LatitudeDegrees>38.0153934471309185028076171875</LatitudeDegrees>
              <LongitudeDegrees>-1.1577964760363101959228515625</LongitudeDegrees>
            </Position>
            <AltitudeMeters>88.59999847412109375</AltitudeMeters>
            <DistanceMeters>NAN</DistanceMeters>
          </Trackpoint>
          <Trackpoint>
            <Time>2020-05-25T04:39:46.000Z</Time>
            <Position>
              <LatitudeDegrees>38.0154420621693134307861328125</LatitudeDegrees>
              <LongitudeDegrees>-1.1578286625444889068603515625</LongitudeDegrees>
            </Position>
            <AltitudeMeters>89</AltitudeMeters>
            <DistanceMeters>NAN</DistanceMeters>
          </Trackpoint>
          <Trackpoint>
            <Time>2020-05-25T04:39:47.000Z</Time>
            <Position>
              <LatitudeDegrees>38.01549009047448635101318359375</LatitudeDegrees>
              <LongitudeDegrees>-1.15786160342395305633544921875</LongitudeDegrees>
            </Position>
            <AltitudeMeters>89.1999969482421875</AltitudeMeters>
            <DistanceMeters>NAN</DistanceMeters>
          </Trackpoint>
          <Trackpoint>
            <Time>2020-05-25T04:39:48.000Z</Time>
            <Position>
              <LatitudeDegrees>38.0155858956277370452880859375</LatitudeDegrees>
              <LongitudeDegrees>-1.15792907774448394775390625</LongitudeDegrees>
            </Position>
            <AltitudeMeters>89.1999969482421875</AltitudeMeters>
            <DistanceMeters>NAN</DistanceMeters>
          </Trackpoint>
          <Trackpoint>
            <Time>2020-05-25T04:39:49.000Z</Time>
            <Position>
              <LatitudeDegrees>38.0155858956277370452880859375</LatitudeDegrees>
              <LongitudeDegrees>-1.15792907774448394775390625</LongitudeDegrees>
            </Position>
            <AltitudeMeters>89.40000152587890625</AltitudeMeters>
            <DistanceMeters>NAN</DistanceMeters>
          </Trackpoint>
          <Trackpoint>
            <Time>2020-05-25T04:39:50.000Z</Time>
            <Position>
              <LatitudeDegrees>38.0156819522380828857421875</LatitudeDegrees>
              <LongitudeDegrees>-1.1579941213130950927734375</LongitudeDegrees>
            </Position>
            <AltitudeMeters>89.40000152587890625</AltitudeMeters>
            <DistanceMeters>NAN</DistanceMeters>
          </Trackpoint>
          <Trackpoint>
            <Time>2020-05-25T04:39:51.000Z</Time>
            <Position>
              <LatitudeDegrees>38.0156819522380828857421875</LatitudeDegrees>
              <LongitudeDegrees>-1.1579941213130950927734375</LongitudeDegrees>
            </Position>
            <AltitudeMeters>89.8000030517578125</AltitudeMeters>
            <DistanceMeters>NAN</DistanceMeters>
          </Trackpoint>
          <Trackpoint>
            <Time>2020-05-25T04:39:52.000Z</Time>
            <Position>
              <LatitudeDegrees>38.01573065109550952911376953125</LatitudeDegrees>
              <LongitudeDegrees>-1.1580258049070835113525390625</LongitudeDegrees>
            </Position>
            <AltitudeMeters>89.8000030517578125</AltitudeMeters>
            <DistanceMeters>NAN</DistanceMeters>
          </Trackpoint>
          <Trackpoint>
            <Time>2020-05-25T04:39:53.000Z</Time>
            <Position>
              <LatitudeDegrees>38.01578052341938018798828125</LatitudeDegrees>
              <LongitudeDegrees>-1.15805639885365962982177734375</LongitudeDegrees>
            </Position>
            <AltitudeMeters>90</AltitudeMeters>
            <DistanceMeters>NAN</DistanceMeters>
          </Trackpoint>
          <Trackpoint>
            <Time>2020-05-25T04:39:54.000Z</Time>
            <Position>
              <LatitudeDegrees>38.01587842404842376708984375</LatitudeDegrees>
              <LongitudeDegrees>-1.1581200174987316131591796875</LongitudeDegrees>
            </Position>
            <AltitudeMeters>90.1999969482421875</AltitudeMeters>
            <DistanceMeters>NAN</DistanceMeters>
          </Trackpoint>
          <Trackpoint>
            <Time>2020-05-25T04:39:55.000Z</Time>
            <Position>
              <LatitudeDegrees>38.01587842404842376708984375</LatitudeDegrees>
              <LongitudeDegrees>-1.1581200174987316131591796875</LongitudeDegrees>
            </Position>
            <AltitudeMeters>90.1999969482421875</AltitudeMeters>
            <DistanceMeters>NAN</DistanceMeters>
          </Trackpoint>
          <Trackpoint>
            <Time>2020-05-25T04:39:56.000Z</Time>
            <Position>
              <LatitudeDegrees>38.01597632467746734619140625</LatitudeDegrees>
              <LongitudeDegrees>-1.158183552324771881103515625</LongitudeDegrees>
            </Position>
            <AltitudeMeters>90.40000152587890625</AltitudeMeters>
            <DistanceMeters>NAN</DistanceMeters>
          </Trackpoint>
          <Trackpoint>
            <Time>2020-05-25T04:39:57.000Z</Time>
            <Position>
              <LatitudeDegrees>38.01597632467746734619140625</LatitudeDegrees>
              <LongitudeDegrees>-1.158183552324771881103515625</LongitudeDegrees>
            </Position>
            <AltitudeMeters>90.40000152587890625</AltitudeMeters>
            <DistanceMeters>NAN</DistanceMeters>
          </Trackpoint>
          <Trackpoint>
            <Time>2020-05-25T04:39:58.000Z</Time>
            <Position>
              <LatitudeDegrees>38.01602502353489398956298828125</LatitudeDegrees>
              <LongitudeDegrees>-1.1582155711948871612548828125</LongitudeDegrees>
            </Position>
            <AltitudeMeters>90.59999847412109375</AltitudeMeters>
            <DistanceMeters>NAN</DistanceMeters>
          </Trackpoint>
          <Trackpoint>
            <Time>2020-05-25T04:39:59.000Z</Time>
            <Position>
              <LatitudeDegrees>38.01607263274490833282470703125</LatitudeDegrees>
              <LongitudeDegrees>-1.15824834443628787994384765625</LongitudeDegrees>
            </Position>
            <AltitudeMeters>90.8000030517578125</AltitudeMeters>
            <DistanceMeters>NAN</DistanceMeters>
          </Trackpoint>
          <Trackpoint>
            <Time>2020-05-25T04:40:00.000Z</Time>
            <Position>
              <LatitudeDegrees>38.0161674320697784423828125</LatitudeDegrees>
              <LongitudeDegrees>-1.15831607021391391754150390625</LongitudeDegrees>
            </Position>
            <AltitudeMeters>90.8000030517578125</AltitudeMeters>
            <DistanceMeters>NAN</DistanceMeters>
          </Trackpoint>
          <Trackpoint>
            <Time>2020-05-25T04:40:01.000Z</Time>
            <Position>
              <LatitudeDegrees>38.0161674320697784423828125</LatitudeDegrees>
              <LongitudeDegrees>-1.15831607021391391754150390625</LongitudeDegrees>
            </Position>
            <AltitudeMeters>90.8000030517578125</AltitudeMeters>
            <DistanceMeters>NAN</DistanceMeters>
          </Trackpoint>
          <Trackpoint>
            <Time>2020-05-25T04:40:02.000Z</Time>
            <Position>
              <LatitudeDegrees>38.01626374013721942901611328125</LatitudeDegrees>
              <LongitudeDegrees>-1.15838279016315937042236328125</LongitudeDegrees>
            </Position>
            <AltitudeMeters>91</AltitudeMeters>
            <DistanceMeters>NAN</DistanceMeters>
          </Trackpoint>
          <Trackpoint>
            <Time>2020-05-25T04:40:03.000Z</Time>
            <Position>
              <LatitudeDegrees>38.01626374013721942901611328125</LatitudeDegrees>
              <LongitudeDegrees>-1.15838279016315937042236328125</LongitudeDegrees>
            </Position>
            <AltitudeMeters>91.1999969482421875</AltitudeMeters>
            <DistanceMeters>NAN</DistanceMeters>
          </Trackpoint>
          <Trackpoint>
            <Time>2020-05-25T04:40:04.000Z</Time>
            <Position>
              <LatitudeDegrees>38.0163134448230266571044921875</LatitudeDegrees>
              <LongitudeDegrees>-1.158416904509067535400390625</LongitudeDegrees>
            </Position>
            <AltitudeMeters>91.1999969482421875</AltitudeMeters>
            <DistanceMeters>NAN</DistanceMeters>
          </Trackpoint>
          <Trackpoint>
            <Time>2020-05-25T04:40:05.000Z</Time>
            <Position>
              <LatitudeDegrees>38.016414530575275421142578125</LatitudeDegrees>
              <LongitudeDegrees>-1.158487983047962188720703125</LongitudeDegrees>
            </Position>
            <AltitudeMeters>91.40000152587890625</AltitudeMeters>
            <DistanceMeters>NAN</DistanceMeters>
          </Trackpoint>
          <Trackpoint>
            <Time>2020-05-25T04:40:06.000Z</Time>
            <Position>
              <LatitudeDegrees>38.0164639838039875030517578125</LatitudeDegrees>
              <LongitudeDegrees>-1.158523857593536376953125</LongitudeDegrees>
            </Position>
            <AltitudeMeters>91.59999847412109375</AltitudeMeters>
            <DistanceMeters>NAN</DistanceMeters>
          </Trackpoint>
          <Trackpoint>
            <Time>2020-05-25T04:40:07.000Z</Time>
            <Position>
              <LatitudeDegrees>38.0164639838039875030517578125</LatitudeDegrees>
              <LongitudeDegrees>-1.158523857593536376953125</LongitudeDegrees>
            </Position>
            <AltitudeMeters>91.8000030517578125</AltitudeMeters>
            <DistanceMeters>NAN</DistanceMeters>
          </Trackpoint>
          <Trackpoint>
            <Time>2020-05-25T04:40:08.000Z</Time>
            <Position>
              <LatitudeDegrees>38.01656104624271392822265625</LatitudeDegrees>
              <LongitudeDegrees>-1.1585920862853527069091796875</LongitudeDegrees>
            </Position>
            <AltitudeMeters>91.8000030517578125</AltitudeMeters>
            <DistanceMeters>NAN</DistanceMeters>
          </Trackpoint>
          <Trackpoint>
            <Time>2020-05-25T04:40:09.000Z</Time>
            <Position>
              <LatitudeDegrees>38.0166104994714260101318359375</LatitudeDegrees>
              <LongitudeDegrees>-1.158628128468990325927734375</LongitudeDegrees>
            </Position>
            <AltitudeMeters>92</AltitudeMeters>
            <DistanceMeters>NAN</DistanceMeters>
          </Trackpoint>
          <Trackpoint>
            <Time>2020-05-25T04:40:10.000Z</Time>
            <Position>
              <LatitudeDegrees>38.0166104994714260101318359375</LatitudeDegrees>
              <LongitudeDegrees>-1.158628128468990325927734375</LongitudeDegrees>
            </Position>
            <AltitudeMeters>92</AltitudeMeters>
            <DistanceMeters>NAN</DistanceMeters>
          </Trackpoint>
          <Trackpoint>
            <Time>2020-05-25T04:40:11.000Z</Time>
            <Position>
              <LatitudeDegrees>38.0167114175856113433837890625</LatitudeDegrees>
              <LongitudeDegrees>-1.1586990393698215484619140625</LongitudeDegrees>
            </Position>
            <AltitudeMeters>92.1999969482421875</AltitudeMeters>
            <DistanceMeters>NAN</DistanceMeters>
          </Trackpoint>
          <Trackpoint>
            <Time>2020-05-25T04:40:12.000Z</Time>
            <Position>
              <LatitudeDegrees>38.0167633853852748870849609375</LatitudeDegrees>
              <LongitudeDegrees>-1.158731393516063690185546875</LongitudeDegrees>
            </Position>
            <AltitudeMeters>92.40000152587890625</AltitudeMeters>
            <DistanceMeters>NAN</DistanceMeters>
          </Trackpoint>
          <Trackpoint>
            <Time>2020-05-25T04:40:13.000Z</Time>
            <Position>
              <LatitudeDegrees>38.0167633853852748870849609375</LatitudeDegrees>
              <LongitudeDegrees>-1.158731393516063690185546875</LongitudeDegrees>
            </Position>
            <AltitudeMeters>92.59999847412109375</AltitudeMeters>
            <DistanceMeters>NAN</DistanceMeters>
          </Trackpoint>
          <Trackpoint>
            <Time>2020-05-25T04:40:14.000Z</Time>
            <Position>
              <LatitudeDegrees>38.01687494851648807525634765625</LatitudeDegrees>
              <LongitudeDegrees>-1.15876592695713043212890625</LongitudeDegrees>
            </Position>
            <AltitudeMeters>92.8000030517578125</AltitudeMeters>
            <DistanceMeters>NAN</DistanceMeters>
          </Trackpoint>
          <Trackpoint>
            <Time>2020-05-25T04:40:15.000Z</Time>
            <Position>
              <LatitudeDegrees>38.01687494851648807525634765625</LatitudeDegrees>
              <LongitudeDegrees>-1.15876592695713043212890625</LongitudeDegrees>
            </Position>
            <AltitudeMeters>92.8000030517578125</AltitudeMeters>
            <DistanceMeters>NAN</DistanceMeters>
          </Trackpoint>
          <Trackpoint>
            <Time>2020-05-25T04:40:16.000Z</Time>
            <Position>
              <LatitudeDegrees>38.0169326998293399810791015625</LatitudeDegrees>
              <LongitudeDegrees>-1.15876466967165470123291015625</LongitudeDegrees>
            </Position>
            <AltitudeMeters>93</AltitudeMeters>
            <DistanceMeters>NAN</DistanceMeters>
          </Trackpoint>
          <Trackpoint>
            <Time>2020-05-25T04:40:17.000Z</Time>
            <Position>
              <LatitudeDegrees>38.01704652607440948486328125</LatitudeDegrees>
              <LongitudeDegrees>-1.15874354727566242218017578125</LongitudeDegrees>
            </Position>
            <AltitudeMeters>93.1999969482421875</AltitudeMeters>
            <DistanceMeters>NAN</DistanceMeters>
          </Trackpoint>
          <Trackpoint>
            <Time>2020-05-25T04:40:18.000Z</Time>
            <Position>
              <LatitudeDegrees>38.01710360683500766754150390625</LatitudeDegrees>
              <LongitudeDegrees>-1.1587295494973659515380859375</LongitudeDegrees>
            </Position>
            <AltitudeMeters>93.40000152587890625</AltitudeMeters>
            <DistanceMeters>NAN</DistanceMeters>
          </Trackpoint>
          <Trackpoint>
            <Time>2020-05-25T04:40:19.000Z</Time>
            <Position>
              <LatitudeDegrees>38.01715917885303497314453125</LatitudeDegrees>
              <LongitudeDegrees>-1.15870431996881961822509765625</LongitudeDegrees>
            </Position>
            <AltitudeMeters>93.59999847412109375</AltitudeMeters>
            <DistanceMeters>NAN</DistanceMeters>
          </Trackpoint>
          <Trackpoint>
            <Time>2020-05-25T04:40:20.000Z</Time>
            <Position>
              <LatitudeDegrees>38.01721014082431793212890625</LatitudeDegrees>
              <LongitudeDegrees>-1.15866425447165966033935546875</LongitudeDegrees>
            </Position>
            <AltitudeMeters>93.8000030517578125</AltitudeMeters>
            <DistanceMeters>NAN</DistanceMeters>
          </Trackpoint>
          <Trackpoint>
            <Time>2020-05-25T04:40:21.000Z</Time>
            <Position>
              <LatitudeDegrees>38.01721014082431793212890625</LatitudeDegrees>
              <LongitudeDegrees>-1.15866425447165966033935546875</LongitudeDegrees>
            </Position>
            <AltitudeMeters>94</AltitudeMeters>
            <DistanceMeters>NAN</DistanceMeters>
          </Trackpoint>
          <Trackpoint>
            <Time>2020-05-25T04:40:22.000Z</Time>
            <Position>
              <LatitudeDegrees>38.01725498400628566741943359375</LatitudeDegrees>
              <LongitudeDegrees>-1.15861094556748867034912109375</LongitudeDegrees>
            </Position>
            <AltitudeMeters>94</AltitudeMeters>
            <DistanceMeters>NAN</DistanceMeters>
          </Trackpoint>
          <Trackpoint>
            <Time>2020-05-25T04:40:23.000Z</Time>
            <Position>
              <LatitudeDegrees>38.0172944627702236175537109375</LatitudeDegrees>
              <LongitudeDegrees>-1.15854908712208271026611328125</LongitudeDegrees>
            </Position>
            <AltitudeMeters>94</AltitudeMeters>
            <DistanceMeters>NAN</DistanceMeters>
          </Trackpoint>
          <Trackpoint>
            <Time>2020-05-25T04:40:24.000Z</Time>
            <Position>
              <LatitudeDegrees>38.0173663794994354248046875</LatitudeDegrees>
              <LongitudeDegrees>-1.15841413848102092742919921875</LongitudeDegrees>
            </Position>
            <AltitudeMeters>94.1999969482421875</AltitudeMeters>
            <DistanceMeters>NAN</DistanceMeters>
          </Trackpoint>
          <Trackpoint>
            <Time>2020-05-25T04:40:25.000Z</Time>
            <Position>
              <LatitudeDegrees>38.0173663794994354248046875</LatitudeDegrees>
              <LongitudeDegrees>-1.15841413848102092742919921875</LongitudeDegrees>
            </Position>
            <AltitudeMeters>94.1999969482421875</AltitudeMeters>
            <DistanceMeters>NAN</DistanceMeters>
          </Trackpoint>
          <Trackpoint>
            <Time>2020-05-25T04:40:26.000Z</Time>
            <Position>
              <LatitudeDegrees>38.01744005642831325531005859375</LatitudeDegrees>
              <LongitudeDegrees>-1.15827751345932483673095703125</LongitudeDegrees>
            </Position>
            <AltitudeMeters>94.40000152587890625</AltitudeMeters>
            <DistanceMeters>NAN</DistanceMeters>
          </Trackpoint>
          <Trackpoint>
            <Time>2020-05-25T04:40:27.000Z</Time>
            <Position>
              <LatitudeDegrees>38.01744005642831325531005859375</LatitudeDegrees>
              <LongitudeDegrees>-1.15827751345932483673095703125</LongitudeDegrees>
            </Position>
            <AltitudeMeters>94.40000152587890625</AltitudeMeters>
            <DistanceMeters>NAN</DistanceMeters>
          </Trackpoint>
          <Trackpoint>
            <Time>2020-05-25T04:40:28.000Z</Time>
            <Position>
              <LatitudeDegrees>38.0174771882593631744384765625</LatitudeDegrees>
              <LongitudeDegrees>-1.158210374414920806884765625</LongitudeDegrees>
            </Position>
            <AltitudeMeters>94.40000152587890625</AltitudeMeters>
            <DistanceMeters>NAN</DistanceMeters>
          </Trackpoint>
          <Trackpoint>
            <Time>2020-05-25T04:40:29.000Z</Time>
            <Position>
              <LatitudeDegrees>38.0175144039094448089599609375</LatitudeDegrees>
              <LongitudeDegrees>-1.158142648637294769287109375</LongitudeDegrees>
            </Position>
            <AltitudeMeters>94.40000152587890625</AltitudeMeters>
            <DistanceMeters>NAN</DistanceMeters>
          </Trackpoint>
          <Trackpoint>
            <Time>2020-05-25T04:40:30.000Z</Time>
            <Position>
              <LatitudeDegrees>38.01758958958089351654052734375</LatitudeDegrees>
              <LongitudeDegrees>-1.15800510160624980926513671875</LongitudeDegrees>
            </Position>
            <AltitudeMeters>94.40000152587890625</AltitudeMeters>
            <DistanceMeters>NAN</DistanceMeters>
          </Trackpoint>
          <Trackpoint>
            <Time>2020-05-25T04:40:31.000Z</Time>
            <Position>
              <LatitudeDegrees>38.01762722432613372802734375</LatitudeDegrees>
              <LongitudeDegrees>-1.15793536417186260223388671875</LongitudeDegrees>
            </Position>
            <AltitudeMeters>94.40000152587890625</AltitudeMeters>
            <DistanceMeters>NAN</DistanceMeters>
          </Trackpoint>
          <Trackpoint>
            <Time>2020-05-25T04:40:32.000Z</Time>
            <Position>
              <LatitudeDegrees>38.017665445804595947265625</LatitudeDegrees>
              <LongitudeDegrees>-1.1578653752803802490234375</LongitudeDegrees>
            </Position>
            <AltitudeMeters>94.1999969482421875</AltitudeMeters>
            <DistanceMeters>NAN</DistanceMeters>
          </Trackpoint>
          <Trackpoint>
            <Time>2020-05-25T04:40:33.000Z</Time>
            <Position>
              <LatitudeDegrees>38.017665445804595947265625</LatitudeDegrees>
              <LongitudeDegrees>-1.1578653752803802490234375</LongitudeDegrees>
            </Position>
            <AltitudeMeters>94.40000152587890625</AltitudeMeters>
            <DistanceMeters>NAN</DistanceMeters>
          </Trackpoint>
          <Trackpoint>
            <Time>2020-05-25T04:40:34.000Z</Time>
            <Position>
              <LatitudeDegrees>38.01770375110208988189697265625</LatitudeDegrees>
              <LongitudeDegrees>-1.15779438056051731109619140625</LongitudeDegrees>
            </Position>
            <AltitudeMeters>94.40000152587890625</AltitudeMeters>
            <DistanceMeters>NAN</DistanceMeters>
          </Trackpoint>
          <Trackpoint>
            <Time>2020-05-25T04:40:35.000Z</Time>
            <Position>
              <LatitudeDegrees>38.0177792720496654510498046875</LatitudeDegrees>
              <LongitudeDegrees>-1.157650463283061981201171875</LongitudeDegrees>
            </Position>
            <AltitudeMeters>94.1999969482421875</AltitudeMeters>
            <DistanceMeters>NAN</DistanceMeters>
          </Trackpoint>
          <Trackpoint>
            <Time>2020-05-25T04:40:36.000Z</Time>
            <Position>
              <LatitudeDegrees>38.01781673915684223175048828125</LatitudeDegrees>
              <LongitudeDegrees>-1.15757846273481845855712890625</LongitudeDegrees>
            </Position>
            <AltitudeMeters>94.1999969482421875</AltitudeMeters>
            <DistanceMeters>NAN</DistanceMeters>
          </Trackpoint>
          <Trackpoint>
            <Time>2020-05-25T04:40:37.000Z</Time>
            <Position>
              <LatitudeDegrees>38.01781673915684223175048828125</LatitudeDegrees>
              <LongitudeDegrees>-1.15757846273481845855712890625</LongitudeDegrees>
            </Position>
            <AltitudeMeters>94.1999969482421875</AltitudeMeters>
            <DistanceMeters>NAN</DistanceMeters>
          </Trackpoint>
          <Trackpoint>
            <Time>2020-05-25T04:40:38.000Z</Time>
            <Position>
              <LatitudeDegrees>38.01789334975183010101318359375</LatitudeDegrees>
              <LongitudeDegrees>-1.1574337072670459747314453125</LongitudeDegrees>
            </Position>
            <AltitudeMeters>94</AltitudeMeters>
            <DistanceMeters>NAN</DistanceMeters>
          </Trackpoint>
          <Trackpoint>
            <Time>2020-05-25T04:40:39.000Z</Time>
            <Position>
              <LatitudeDegrees>38.01789334975183010101318359375</LatitudeDegrees>
              <LongitudeDegrees>-1.1574337072670459747314453125</LongitudeDegrees>
            </Position>
            <AltitudeMeters>94</AltitudeMeters>
            <DistanceMeters>NAN</DistanceMeters>
          </Trackpoint>
          <Trackpoint>
            <Time>2020-05-25T04:40:40.000Z</Time>
            <Position>
              <LatitudeDegrees>38.01793123595416545867919921875</LatitudeDegrees>
              <LongitudeDegrees>-1.1573599465191364288330078125</LongitudeDegrees>
            </Position>
            <AltitudeMeters>94</AltitudeMeters>
            <DistanceMeters>NAN</DistanceMeters>
          </Trackpoint>
          <Trackpoint>
            <Time>2020-05-25T04:40:41.000Z</Time>
            <Position>
              <LatitudeDegrees>38.017967529594898223876953125</LatitudeDegrees>
              <LongitudeDegrees>-1.15728459320962429046630859375</LongitudeDegrees>
            </Position>
            <AltitudeMeters>94</AltitudeMeters>
            <DistanceMeters>NAN</DistanceMeters>
          </Trackpoint>
          <Trackpoint>
            <Time>2020-05-25T04:40:42.000Z</Time>
            <Position>
              <LatitudeDegrees>38.01803433336317539215087890625</LatitudeDegrees>
              <LongitudeDegrees>-1.157128773629665374755859375</LongitudeDegrees>
            </Position>
            <AltitudeMeters>94</AltitudeMeters>
            <DistanceMeters>NAN</DistanceMeters>
          </Trackpoint>
          <Trackpoint>
            <Time>2020-05-25T04:40:43.000Z</Time>
            <Position>
              <LatitudeDegrees>38.01806584931910037994384765625</LatitudeDegrees>
              <LongitudeDegrees>-1.15705057047307491302490234375</LongitudeDegrees>
            </Position>
            <AltitudeMeters>93.8000030517578125</AltitudeMeters>
            <DistanceMeters>NAN</DistanceMeters>
          </Trackpoint>
          <Trackpoint>
            <Time>2020-05-25T04:40:44.000Z</Time>
            <Position>
              <LatitudeDegrees>38.01809719763696193695068359375</LatitudeDegrees>
              <LongitudeDegrees>-1.1569723673164844512939453125</LongitudeDegrees>
            </Position>
            <AltitudeMeters>93.8000030517578125</AltitudeMeters>
            <DistanceMeters>NAN</DistanceMeters>
          </Trackpoint>
          <Trackpoint>
            <Time>2020-05-25T04:40:45.000Z</Time>
            <Position>
              <LatitudeDegrees>38.01809719763696193695068359375</LatitudeDegrees>
              <LongitudeDegrees>-1.1569723673164844512939453125</LongitudeDegrees>
            </Position>
            <AltitudeMeters>93.8000030517578125</AltitudeMeters>
            <DistanceMeters>NAN</DistanceMeters>
          </Trackpoint>
          <Trackpoint>
            <Time>2020-05-25T04:40:46.000Z</Time>
            <Position>
              <LatitudeDegrees>38.01812745630741119384765625</LatitudeDegrees>
              <LongitudeDegrees>-1.15689198486506938934326171875</LongitudeDegrees>
            </Position>
            <AltitudeMeters>93.8000030517578125</AltitudeMeters>
            <DistanceMeters>NAN</DistanceMeters>
          </Trackpoint>
          <Trackpoint>
            <Time>2020-05-25T04:40:47.000Z</Time>
            <Position>
              <LatitudeDegrees>38.01818520762026309967041015625</LatitudeDegrees>
              <LongitudeDegrees>-1.15672610700130462646484375</LongitudeDegrees>
            </Position>
            <AltitudeMeters>93.8000030517578125</AltitudeMeters>
            <DistanceMeters>NAN</DistanceMeters>
          </Trackpoint>
          <Trackpoint>
            <Time>2020-05-25T04:40:48.000Z</Time>
            <Position>
              <LatitudeDegrees>38.01821420900523662567138671875</LatitudeDegrees>
              <LongitudeDegrees>-1.15664161741733551025390625</LongitudeDegrees>
            </Position>
            <AltitudeMeters>93.59999847412109375</AltitudeMeters>
            <DistanceMeters>NAN</DistanceMeters>
          </Trackpoint>
          <Trackpoint>
            <Time>2020-05-25T04:40:49.000Z</Time>
            <Position>
              <LatitudeDegrees>38.01824270747601985931396484375</LatitudeDegrees>
              <LongitudeDegrees>-1.1565564572811126708984375</LongitudeDegrees>
            </Position>
            <AltitudeMeters>93.59999847412109375</AltitudeMeters>
            <DistanceMeters>NAN</DistanceMeters>
          </Trackpoint>
          <Trackpoint>
            <Time>2020-05-25T04:40:50.000Z</Time>
            <Position>
              <LatitudeDegrees>38.018271960318088531494140625</LatitudeDegrees>
              <LongitudeDegrees>-1.15647154860198497772216796875</LongitudeDegrees>
            </Position>
            <AltitudeMeters>93.59999847412109375</AltitudeMeters>
            <DistanceMeters>NAN</DistanceMeters>
          </Trackpoint>
          <Trackpoint>
            <Time>2020-05-25T04:40:51.000Z</Time>
            <Position>
              <LatitudeDegrees>38.018271960318088531494140625</LatitudeDegrees>
              <LongitudeDegrees>-1.15647154860198497772216796875</LongitudeDegrees>
            </Position>
            <AltitudeMeters>93.59999847412109375</AltitudeMeters>
            <DistanceMeters>NAN</DistanceMeters>
          </Trackpoint>
          <Trackpoint>
            <Time>2020-05-25T04:40:52.000Z</Time>
            <Position>
              <LatitudeDegrees>38.01830238662660121917724609375</LatitudeDegrees>
              <LongitudeDegrees>-1.156387142837047576904296875</LongitudeDegrees>
            </Position>
            <AltitudeMeters>93.59999847412109375</AltitudeMeters>
            <DistanceMeters>NAN</DistanceMeters>
          </Trackpoint>
          <Trackpoint>
            <Time>2020-05-25T04:40:53.000Z</Time>
            <Position>
              <LatitudeDegrees>38.0183633230626583099365234375</LatitudeDegrees>
              <LongitudeDegrees>-1.1562176607549190521240234375</LongitudeDegrees>
            </Position>
            <AltitudeMeters>93.59999847412109375</AltitudeMeters>
            <DistanceMeters>NAN</DistanceMeters>
          </Trackpoint>
          <Trackpoint>
            <Time>2020-05-25T04:40:54.000Z</Time>
            <Position>
              <LatitudeDegrees>38.01839257590472698211669921875</LatitudeDegrees>
              <LongitudeDegrees>-1.1561314947903156280517578125</LongitudeDegrees>
            </Position>
            <AltitudeMeters>93.59999847412109375</AltitudeMeters>
            <DistanceMeters>NAN</DistanceMeters>
          </Trackpoint>
          <Trackpoint>
            <Time>2020-05-25T04:40:55.000Z</Time>
            <Position>
              <LatitudeDegrees>38.01839257590472698211669921875</LatitudeDegrees>
              <LongitudeDegrees>-1.1561314947903156280517578125</LongitudeDegrees>
            </Position>
            <AltitudeMeters>93.59999847412109375</AltitudeMeters>
            <DistanceMeters>NAN</DistanceMeters>
          </Trackpoint>
          <Trackpoint>
            <Time>2020-05-25T04:40:56.000Z</Time>
            <Position>
              <LatitudeDegrees>38.018450327217578887939453125</LatitudeDegrees>
              <LongitudeDegrees>-1.15595790557563304901123046875</LongitudeDegrees>
            </Position>
            <AltitudeMeters>93.40000152587890625</AltitudeMeters>
            <DistanceMeters>NAN</DistanceMeters>
          </Trackpoint>
          <Trackpoint>
            <Time>2020-05-25T04:40:57.000Z</Time>
            <Position>
              <LatitudeDegrees>38.018450327217578887939453125</LatitudeDegrees>
              <LongitudeDegrees>-1.15595790557563304901123046875</LongitudeDegrees>
            </Position>
            <AltitudeMeters>93.40000152587890625</AltitudeMeters>
            <DistanceMeters>NAN</DistanceMeters>
          </Trackpoint>
          <Trackpoint>
            <Time>2020-05-25T04:40:58.000Z</Time>
            <Position>
              <LatitudeDegrees>38.0184796638786792755126953125</LatitudeDegrees>
              <LongitudeDegrees>-1.15587073378264904022216796875</LongitudeDegrees>
            </Position>
            <AltitudeMeters>93.1999969482421875</AltitudeMeters>
            <DistanceMeters>NAN</DistanceMeters>
          </Trackpoint>
          <Trackpoint>
            <Time>2020-05-25T04:40:59.000Z</Time>
            <Position>
              <LatitudeDegrees>38.01853925921022891998291015625</LatitudeDegrees>
              <LongitudeDegrees>-1.15569639019668102264404296875</LongitudeDegrees>
            </Position>
            <AltitudeMeters>93.1999969482421875</AltitudeMeters>
            <DistanceMeters>NAN</DistanceMeters>
          </Trackpoint>
          <Trackpoint>
            <Time>2020-05-25T04:41:00.000Z</Time>
            <Position>
              <LatitudeDegrees>38.01856842823326587677001953125</LatitudeDegrees>
              <LongitudeDegrees>-1.155608631670475006103515625</LongitudeDegrees>
            </Position>
            <AltitudeMeters>93.1999969482421875</AltitudeMeters>
            <DistanceMeters>NAN</DistanceMeters>
          </Trackpoint>
          <Trackpoint>
            <Time>2020-05-25T04:41:01.000Z</Time>
            <Position>
              <LatitudeDegrees>38.01856842823326587677001953125</LatitudeDegrees>
              <LongitudeDegrees>-1.155608631670475006103515625</LongitudeDegrees>
            </Position>
            <AltitudeMeters>93.1999969482421875</AltitudeMeters>
            <DistanceMeters>NAN</DistanceMeters>
          </Trackpoint>
          <Trackpoint>
            <Time>2020-05-25T04:41:02.000Z</Time>
            <Position>
              <LatitudeDegrees>38.01862743683159351348876953125</LatitudeDegrees>
              <LongitudeDegrees>-1.15543336607515811920166015625</LongitudeDegrees>
            </Position>
            <AltitudeMeters>93</AltitudeMeters>
            <DistanceMeters>NAN</DistanceMeters>
          </Trackpoint>
          <Trackpoint>
            <Time>2020-05-25T04:41:03.000Z</Time>
            <Position>
              <LatitudeDegrees>38.01862743683159351348876953125</LatitudeDegrees>
              <LongitudeDegrees>-1.15543336607515811920166015625</LongitudeDegrees>
            </Position>
            <AltitudeMeters>93</AltitudeMeters>
            <DistanceMeters>NAN</DistanceMeters>
          </Trackpoint>
          <Trackpoint>
            <Time>2020-05-25T04:41:04.000Z</Time>
            <Position>
              <LatitudeDegrees>38.018658198416233062744140625</LatitudeDegrees>
              <LongitudeDegrees>-1.15534611046314239501953125</LongitudeDegrees>
            </Position>
            <AltitudeMeters>93</AltitudeMeters>
            <DistanceMeters>NAN</DistanceMeters>
          </Trackpoint>
          <Trackpoint>
            <Time>2020-05-25T04:41:05.000Z</Time>
            <Position>
              <LatitudeDegrees>38.0186888761818408966064453125</LatitudeDegrees>
              <LongitudeDegrees>-1.15525885485112667083740234375</LongitudeDegrees>
            </Position>
            <AltitudeMeters>92.8000030517578125</AltitudeMeters>
            <DistanceMeters>NAN</DistanceMeters>
          </Trackpoint>
          <Trackpoint>
            <Time>2020-05-25T04:41:06.000Z</Time>
            <Position>
              <LatitudeDegrees>38.01875031553208827972412109375</LatitudeDegrees>
              <LongitudeDegrees>-1.15508551709353923797607421875</LongitudeDegrees>
            </Position>
            <AltitudeMeters>92.8000030517578125</AltitudeMeters>
            <DistanceMeters>NAN</DistanceMeters>
          </Trackpoint>
          <Trackpoint>
            <Time>2020-05-25T04:41:07.000Z</Time>
            <Position>
              <LatitudeDegrees>38.01875031553208827972412109375</LatitudeDegrees>
              <LongitudeDegrees>-1.15508551709353923797607421875</LongitudeDegrees>
            </Position>
            <AltitudeMeters>92.8000030517578125</AltitudeMeters>
            <DistanceMeters>NAN</DistanceMeters>
          </Trackpoint>
          <Trackpoint>
            <Time>2020-05-25T04:41:08.000Z</Time>
            <Position>
              <LatitudeDegrees>38.01881133578717708587646484375</LatitudeDegrees>
              <LongitudeDegrees>-1.154913268983364105224609375</LongitudeDegrees>
            </Position>
            <AltitudeMeters>92.8000030517578125</AltitudeMeters>
            <DistanceMeters>NAN</DistanceMeters>
          </Trackpoint>
          <Trackpoint>
            <Time>2020-05-25T04:41:09.000Z</Time>
            <Position>
              <LatitudeDegrees>38.01881133578717708587646484375</LatitudeDegrees>
              <LongitudeDegrees>-1.154913268983364105224609375</LongitudeDegrees>
            </Position>
            <AltitudeMeters>92.8000030517578125</AltitudeMeters>
            <DistanceMeters>NAN</DistanceMeters>
          </Trackpoint>
          <Trackpoint>
            <Time>2020-05-25T04:41:10.000Z</Time>
            <Position>
              <LatitudeDegrees>38.0188404209911823272705078125</LatitudeDegrees>
              <LongitudeDegrees>-1.1548262648284435272216796875</LongitudeDegrees>
            </Position>
            <AltitudeMeters>92.8000030517578125</AltitudeMeters>
            <DistanceMeters>NAN</DistanceMeters>
          </Trackpoint>
          <Trackpoint>
            <Time>2020-05-25T04:41:11.000Z</Time>
            <Position>
              <LatitudeDegrees>38.01886933855712413787841796875</LatitudeDegrees>
              <LongitudeDegrees>-1.154738925397396087646484375</LongitudeDegrees>
            </Position>
            <AltitudeMeters>92.8000030517578125</AltitudeMeters>
            <DistanceMeters>NAN</DistanceMeters>
          </Trackpoint>
          <Trackpoint>
            <Time>2020-05-25T04:41:12.000Z</Time>
            <Position>
              <LatitudeDegrees>38.0189289338886737823486328125</LatitudeDegrees>
              <LongitudeDegrees>-1.15456600673496723175048828125</LongitudeDegrees>
            </Position>
            <AltitudeMeters>92.8000030517578125</AltitudeMeters>
            <DistanceMeters>NAN</DistanceMeters>
          </Trackpoint>
          <Trackpoint>
            <Time>2020-05-25T04:41:13.000Z</Time>
            <Position>
              <LatitudeDegrees>38.0189289338886737823486328125</LatitudeDegrees>
              <LongitudeDegrees>-1.15456600673496723175048828125</LongitudeDegrees>
            </Position>
            <AltitudeMeters>92.8000030517578125</AltitudeMeters>
            <DistanceMeters>NAN</DistanceMeters>
          </Trackpoint>
          <Trackpoint>
            <Time>2020-05-25T04:41:14.000Z</Time>
            <Position>
              <LatitudeDegrees>38.01898802630603313446044921875</LatitudeDegrees>
              <LongitudeDegrees>-1.15439526736736297607421875</LongitudeDegrees>
            </Position>
            <AltitudeMeters>92.8000030517578125</AltitudeMeters>
            <DistanceMeters>NAN</DistanceMeters>
          </Trackpoint>
          <Trackpoint>
            <Time>2020-05-25T04:41:15.000Z</Time>
            <Position>
              <LatitudeDegrees>38.01898802630603313446044921875</LatitudeDegrees>
              <LongitudeDegrees>-1.15439526736736297607421875</LongitudeDegrees>
            </Position>
            <AltitudeMeters>92.8000030517578125</AltitudeMeters>
            <DistanceMeters>NAN</DistanceMeters>
          </Trackpoint>
          <Trackpoint>
            <Time>2020-05-25T04:41:16.000Z</Time>
            <Position>
              <LatitudeDegrees>38.019017279148101806640625</LatitudeDegrees>
              <LongitudeDegrees>-1.1543102748692035675048828125</LongitudeDegrees>
            </Position>
            <AltitudeMeters>93</AltitudeMeters>
            <DistanceMeters>NAN</DistanceMeters>
          </Trackpoint>
          <Trackpoint>
            <Time>2020-05-25T04:41:17.000Z</Time>
            <Position>
              <LatitudeDegrees>38.01904720254242420196533203125</LatitudeDegrees>
              <LongitudeDegrees>-1.1542261205613613128662109375</LongitudeDegrees>
            </Position>
            <AltitudeMeters>93</AltitudeMeters>
            <DistanceMeters>NAN</DistanceMeters>
          </Trackpoint>
          <Trackpoint>
            <Time>2020-05-25T04:41:18.000Z</Time>
            <Position>
              <LatitudeDegrees>38.0191071331501007080078125</LatitudeDegrees>
              <LongitudeDegrees>-1.15405906923115253448486328125</LongitudeDegrees>
            </Position>
            <AltitudeMeters>93</AltitudeMeters>
            <DistanceMeters>NAN</DistanceMeters>
          </Trackpoint>
          <Trackpoint>
            <Time>2020-05-25T04:41:19.000Z</Time>
            <Position>
              <LatitudeDegrees>38.0191071331501007080078125</LatitudeDegrees>
              <LongitudeDegrees>-1.15405906923115253448486328125</LongitudeDegrees>
            </Position>
            <AltitudeMeters>93</AltitudeMeters>
            <DistanceMeters>NAN</DistanceMeters>
          </Trackpoint>
          <Trackpoint>
            <Time>2020-05-25T04:41:20.000Z</Time>
            <Position>
              <LatitudeDegrees>38.019170500338077545166015625</LatitudeDegrees>
              <LongitudeDegrees>-1.1538958735764026641845703125</LongitudeDegrees>
            </Position>
            <AltitudeMeters>93</AltitudeMeters>
            <DistanceMeters>NAN</DistanceMeters>
          </Trackpoint>
          <Trackpoint>
            <Time>2020-05-25T04:41:21.000Z</Time>
            <Position>
              <LatitudeDegrees>38.019170500338077545166015625</LatitudeDegrees>
              <LongitudeDegrees>-1.1538958735764026641845703125</LongitudeDegrees>
            </Position>
            <AltitudeMeters>93.1999969482421875</AltitudeMeters>
            <DistanceMeters>NAN</DistanceMeters>
          </Trackpoint>
          <Trackpoint>
            <Time>2020-05-25T04:41:22.000Z</Time>
            <Position>
              <LatitudeDegrees>38.01920210011303424835205078125</LatitudeDegrees>
              <LongitudeDegrees>-1.1538137309253215789794921875</LongitudeDegrees>
            </Position>
            <AltitudeMeters>93.1999969482421875</AltitudeMeters>
            <DistanceMeters>NAN</DistanceMeters>
          </Trackpoint>
          <Trackpoint>
            <Time>2020-05-25T04:41:23.000Z</Time>
            <Position>
              <LatitudeDegrees>38.0192323587834835052490234375</LatitudeDegrees>
              <LongitudeDegrees>-1.1537305824458599090576171875</LongitudeDegrees>
            </Position>
            <AltitudeMeters>93.1999969482421875</AltitudeMeters>
            <DistanceMeters>NAN</DistanceMeters>
          </Trackpoint>
          <Trackpoint>
            <Time>2020-05-25T04:41:24.000Z</Time>
            <Position>
              <LatitudeDegrees>38.01928927190601825714111328125</LatitudeDegrees>
              <LongitudeDegrees>-1.1535619385540485382080078125</LongitudeDegrees>
            </Position>
            <AltitudeMeters>93.1999969482421875</AltitudeMeters>
            <DistanceMeters>NAN</DistanceMeters>
          </Trackpoint>
          <Trackpoint>
            <Time>2020-05-25T04:41:25.000Z</Time>
            <Position>
              <LatitudeDegrees>38.01928927190601825714111328125</LatitudeDegrees>
              <LongitudeDegrees>-1.1535619385540485382080078125</LongitudeDegrees>
            </Position>
            <AltitudeMeters>93.1999969482421875</AltitudeMeters>
            <DistanceMeters>NAN</DistanceMeters>
          </Trackpoint>
          <Trackpoint>
            <Time>2020-05-25T04:41:26.000Z</Time>
            <Position>
              <LatitudeDegrees>38.0193450115621089935302734375</LatitudeDegrees>
              <LongitudeDegrees>-1.15339237265288829803466796875</LongitudeDegrees>
            </Position>
            <AltitudeMeters>93.1999969482421875</AltitudeMeters>
            <DistanceMeters>NAN</DistanceMeters>
          </Trackpoint>
          <Trackpoint>
            <Time>2020-05-25T04:41:27.000Z</Time>
            <Position>
              <LatitudeDegrees>38.0193450115621089935302734375</LatitudeDegrees>
              <LongitudeDegrees>-1.15339237265288829803466796875</LongitudeDegrees>
            </Position>
            <AltitudeMeters>93.1999969482421875</AltitudeMeters>
            <DistanceMeters>NAN</DistanceMeters>
          </Trackpoint>
          <Trackpoint>
            <Time>2020-05-25T04:41:28.000Z</Time>
            <Position>
              <LatitudeDegrees>38.019375018775463104248046875</LatitudeDegrees>
              <LongitudeDegrees>-1.1533091403543949127197265625</LongitudeDegrees>
            </Position>
            <AltitudeMeters>93.1999969482421875</AltitudeMeters>
            <DistanceMeters>NAN</DistanceMeters>
          </Trackpoint>
          <Trackpoint>
            <Time>2020-05-25T04:41:29.000Z</Time>
            <Position>
              <LatitudeDegrees>38.01940661855041980743408203125</LatitudeDegrees>
              <LongitudeDegrees>-1.153227500617504119873046875</LongitudeDegrees>
            </Position>
            <AltitudeMeters>93.1999969482421875</AltitudeMeters>
            <DistanceMeters>NAN</DistanceMeters>
          </Trackpoint>
          <Trackpoint>
            <Time>2020-05-25T04:41:30.000Z</Time>
            <Position>
              <LatitudeDegrees>38.019473589956760406494140625</LatitudeDegrees>
              <LongitudeDegrees>-1.15306598134338855743408203125</LongitudeDegrees>
            </Position>
            <AltitudeMeters>93.1999969482421875</AltitudeMeters>
            <DistanceMeters>NAN</DistanceMeters>
          </Trackpoint>
          <Trackpoint>
            <Time>2020-05-25T04:41:31.000Z</Time>
            <Position>
              <LatitudeDegrees>38.019473589956760406494140625</LatitudeDegrees>
              <LongitudeDegrees>-1.15306598134338855743408203125</LongitudeDegrees>
            </Position>
            <AltitudeMeters>93.40000152587890625</AltitudeMeters>
            <DistanceMeters>NAN</DistanceMeters>
          </Trackpoint>
          <Trackpoint>
            <Time>2020-05-25T04:41:32.000Z</Time>
            <Position>
              <LatitudeDegrees>38.01954827271401882171630859375</LatitudeDegrees>
              <LongitudeDegrees>-1.15291007794439792633056640625</LongitudeDegrees>
            </Position>
            <AltitudeMeters>93.40000152587890625</AltitudeMeters>
            <DistanceMeters>NAN</DistanceMeters>
          </Trackpoint>
          <Trackpoint>
            <Time>2020-05-25T04:41:33.000Z</Time>
            <Position>
              <LatitudeDegrees>38.01954827271401882171630859375</LatitudeDegrees>
              <LongitudeDegrees>-1.15291007794439792633056640625</LongitudeDegrees>
            </Position>
            <AltitudeMeters>93.40000152587890625</AltitudeMeters>
            <DistanceMeters>NAN</DistanceMeters>
          </Trackpoint>
          <Trackpoint>
            <Time>2020-05-25T04:41:34.000Z</Time>
            <Position>
              <LatitudeDegrees>38.01958548836410045623779296875</LatitudeDegrees>
              <LongitudeDegrees>-1.1528327129781246185302734375</LongitudeDegrees>
            </Position>
            <AltitudeMeters>93.40000152587890625</AltitudeMeters>
            <DistanceMeters>NAN</DistanceMeters>
          </Trackpoint>
          <Trackpoint>
            <Time>2020-05-25T04:41:35.000Z</Time>
            <Position>
              <LatitudeDegrees>38.01962303929030895233154296875</LatitudeDegrees>
              <LongitudeDegrees>-1.15275484509766101837158203125</LongitudeDegrees>
            </Position>
            <AltitudeMeters>93.40000152587890625</AltitudeMeters>
            <DistanceMeters>NAN</DistanceMeters>
          </Trackpoint>
          <Trackpoint>
            <Time>2020-05-25T04:41:36.000Z</Time>
            <Position>
              <LatitudeDegrees>38.01970233209431171417236328125</LatitudeDegrees>
              <LongitudeDegrees>-1.15260380320250988006591796875</LongitudeDegrees>
            </Position>
            <AltitudeMeters>93.40000152587890625</AltitudeMeters>
            <DistanceMeters>NAN</DistanceMeters>
          </Trackpoint>
          <Trackpoint>
            <Time>2020-05-25T04:41:37.000Z</Time>
            <Position>
              <LatitudeDegrees>38.01970233209431171417236328125</LatitudeDegrees>
              <LongitudeDegrees>-1.15260380320250988006591796875</LongitudeDegrees>
            </Position>
            <AltitudeMeters>93.40000152587890625</AltitudeMeters>
            <DistanceMeters>NAN</DistanceMeters>
          </Trackpoint>
          <Trackpoint>
            <Time>2020-05-25T04:41:38.000Z</Time>
            <Position>
              <LatitudeDegrees>38.01978237926959991455078125</LatitudeDegrees>
              <LongitudeDegrees>-1.15245058201253414154052734375</LongitudeDegrees>
            </Position>
            <AltitudeMeters>93.40000152587890625</AltitudeMeters>
            <DistanceMeters>NAN</DistanceMeters>
          </Trackpoint>
          <Trackpoint>
            <Time>2020-05-25T04:41:39.000Z</Time>
            <Position>
              <LatitudeDegrees>38.01978237926959991455078125</LatitudeDegrees>
              <LongitudeDegrees>-1.15245058201253414154052734375</LongitudeDegrees>
            </Position>
            <AltitudeMeters>93.40000152587890625</AltitudeMeters>
            <DistanceMeters>NAN</DistanceMeters>
          </Trackpoint>
          <Trackpoint>
            <Time>2020-05-25T04:41:40.000Z</Time>
            <Position>
              <LatitudeDegrees>38.0198221094906330108642578125</LatitudeDegrees>
              <LongitudeDegrees>-1.15237246267497539520263671875</LongitudeDegrees>
            </Position>
            <AltitudeMeters>93.59999847412109375</AltitudeMeters>
            <DistanceMeters>NAN</DistanceMeters>
          </Trackpoint>
          <Trackpoint>
            <Time>2020-05-25T04:41:41.000Z</Time>
            <Position>
              <LatitudeDegrees>38.01986209116876125335693359375</LatitudeDegrees>
              <LongitudeDegrees>-1.1522942595183849334716796875</LongitudeDegrees>
            </Position>
            <AltitudeMeters>93.59999847412109375</AltitudeMeters>
            <DistanceMeters>NAN</DistanceMeters>
          </Trackpoint>
          <Trackpoint>
            <Time>2020-05-25T04:41:42.000Z</Time>
            <Position>
              <LatitudeDegrees>38.01994456909596920013427734375</LatitudeDegrees>
              <LongitudeDegrees>-1.152137853205204010009765625</LongitudeDegrees>
            </Position>
            <AltitudeMeters>93.59999847412109375</AltitudeMeters>
            <DistanceMeters>NAN</DistanceMeters>
          </Trackpoint>
          <Trackpoint>
            <Time>2020-05-25T04:41:43.000Z</Time>
            <Position>
              <LatitudeDegrees>38.01994456909596920013427734375</LatitudeDegrees>
              <LongitudeDegrees>-1.152137853205204010009765625</LongitudeDegrees>
            </Position>
            <AltitudeMeters>93.59999847412109375</AltitudeMeters>
            <DistanceMeters>NAN</DistanceMeters>
          </Trackpoint>
          <Trackpoint>
            <Time>2020-05-25T04:41:44.000Z</Time>
            <Position>
              <LatitudeDegrees>38.02002972923219203948974609375</LatitudeDegrees>
              <LongitudeDegrees>-1.15198253653943538665771484375</LongitudeDegrees>
            </Position>
            <AltitudeMeters>93.8000030517578125</AltitudeMeters>
            <DistanceMeters>NAN</DistanceMeters>
          </Trackpoint>
          <Trackpoint>
            <Time>2020-05-25T04:41:45.000Z</Time>
            <Position>
              <LatitudeDegrees>38.02002972923219203948974609375</LatitudeDegrees>
              <LongitudeDegrees>-1.15198253653943538665771484375</LongitudeDegrees>
            </Position>
            <AltitudeMeters>93.8000030517578125</AltitudeMeters>
            <DistanceMeters>NAN</DistanceMeters>
          </Trackpoint>
          <Trackpoint>
            <Time>2020-05-25T04:41:46.000Z</Time>
            <Position>
              <LatitudeDegrees>38.0200728960335254669189453125</LatitudeDegrees>
              <LongitudeDegrees>-1.151904501020908355712890625</LongitudeDegrees>
            </Position>
            <AltitudeMeters>93.8000030517578125</AltitudeMeters>
            <DistanceMeters>NAN</DistanceMeters>
          </Trackpoint>
          <Trackpoint>
            <Time>2020-05-25T04:41:47.000Z</Time>
            <Position>
              <LatitudeDegrees>38.020115979015827178955078125</LatitudeDegrees>
              <LongitudeDegrees>-1.151826046407222747802734375</LongitudeDegrees>
            </Position>
            <AltitudeMeters>93.8000030517578125</AltitudeMeters>
            <DistanceMeters>NAN</DistanceMeters>
          </Trackpoint>
          <Trackpoint>
            <Time>2020-05-25T04:41:48.000Z</Time>
            <Position>
              <LatitudeDegrees>38.02020323462784290313720703125</LatitudeDegrees>
              <LongitudeDegrees>-1.1516686342656612396240234375</LongitudeDegrees>
            </Position>
            <AltitudeMeters>93.8000030517578125</AltitudeMeters>
            <DistanceMeters>NAN</DistanceMeters>
          </Trackpoint>
          <Trackpoint>
            <Time>2020-05-25T04:41:49.000Z</Time>
            <Position>
              <LatitudeDegrees>38.02020323462784290313720703125</LatitudeDegrees>
              <LongitudeDegrees>-1.1516686342656612396240234375</LongitudeDegrees>
            </Position>
            <AltitudeMeters>93.8000030517578125</AltitudeMeters>
            <DistanceMeters>NAN</DistanceMeters>
          </Trackpoint>
          <Trackpoint>
            <Time>2020-05-25T04:41:50.000Z</Time>
            <Position>
              <LatitudeDegrees>38.02029065787792205810546875</LatitudeDegrees>
              <LongitudeDegrees>-1.1515090428292751312255859375</LongitudeDegrees>
            </Position>
            <AltitudeMeters>93.8000030517578125</AltitudeMeters>
            <DistanceMeters>NAN</DistanceMeters>
          </Trackpoint>
          <Trackpoint>
            <Time>2020-05-25T04:41:51.000Z</Time>
            <Position>
              <LatitudeDegrees>38.02029065787792205810546875</LatitudeDegrees>
              <LongitudeDegrees>-1.1515090428292751312255859375</LongitudeDegrees>
            </Position>
            <AltitudeMeters>93.8000030517578125</AltitudeMeters>
            <DistanceMeters>NAN</DistanceMeters>
          </Trackpoint>
          <Trackpoint>
            <Time>2020-05-25T04:41:52.000Z</Time>
            <Position>
              <LatitudeDegrees>38.0203350819647312164306640625</LatitudeDegrees>
              <LongitudeDegrees>-1.15143000148236751556396484375</LongitudeDegrees>
            </Position>
            <AltitudeMeters>93.8000030517578125</AltitudeMeters>
            <DistanceMeters>NAN</DistanceMeters>
          </Trackpoint>
          <Trackpoint>
            <Time>2020-05-25T04:41:53.000Z</Time>
            <Position>
              <LatitudeDegrees>38.02038009278476238250732421875</LatitudeDegrees>
              <LongitudeDegrees>-1.1513511277735233306884765625</LongitudeDegrees>
            </Position>
            <AltitudeMeters>93.8000030517578125</AltitudeMeters>
            <DistanceMeters>NAN</DistanceMeters>
          </Trackpoint>
          <Trackpoint>
            <Time>2020-05-25T04:41:54.000Z</Time>
            <Position>
              <LatitudeDegrees>38.0204718746244907379150390625</LatitudeDegrees>
              <LongitudeDegrees>-1.151194386184215545654296875</LongitudeDegrees>
            </Position>
            <AltitudeMeters>93.8000030517578125</AltitudeMeters>
            <DistanceMeters>NAN</DistanceMeters>
          </Trackpoint>
          <Trackpoint>
            <Time>2020-05-25T04:41:55.000Z</Time>
            <Position>
              <LatitudeDegrees>38.0204718746244907379150390625</LatitudeDegrees>
              <LongitudeDegrees>-1.151194386184215545654296875</LongitudeDegrees>
            </Position>
            <AltitudeMeters>93.8000030517578125</AltitudeMeters>
            <DistanceMeters>NAN</DistanceMeters>
          </Trackpoint>
          <Trackpoint>
            <Time>2020-05-25T04:41:56.000Z</Time>
            <Position>
              <LatitudeDegrees>38.02056466229259967803955078125</LatitudeDegrees>
              <LongitudeDegrees>-1.1510379798710346221923828125</LongitudeDegrees>
            </Position>
            <AltitudeMeters>93.59999847412109375</AltitudeMeters>
            <DistanceMeters>NAN</DistanceMeters>
          </Trackpoint>
          <Trackpoint>
            <Time>2020-05-25T04:41:57.000Z</Time>
            <Position>
              <LatitudeDegrees>38.02056466229259967803955078125</LatitudeDegrees>
              <LongitudeDegrees>-1.1510379798710346221923828125</LongitudeDegrees>
            </Position>
            <AltitudeMeters>93.59999847412109375</AltitudeMeters>
            <DistanceMeters>NAN</DistanceMeters>
          </Trackpoint>
          <Trackpoint>
            <Time>2020-05-25T04:41:58.000Z</Time>
            <Position>
              <LatitudeDegrees>38.02061176858842372894287109375</LatitudeDegrees>
              <LongitudeDegrees>-1.15096061490476131439208984375</LongitudeDegrees>
            </Position>
            <AltitudeMeters>93.59999847412109375</AltitudeMeters>
            <DistanceMeters>NAN</DistanceMeters>
          </Trackpoint>
          <Trackpoint>
            <Time>2020-05-25T04:41:59.000Z</Time>
            <Position>
              <LatitudeDegrees>38.0206589587032794952392578125</LatitudeDegrees>
              <LongitudeDegrees>-1.15088249556720256805419921875</LongitudeDegrees>
            </Position>
            <AltitudeMeters>93.59999847412109375</AltitudeMeters>
            <DistanceMeters>NAN</DistanceMeters>
          </Trackpoint>
          <Trackpoint>
            <Time>2020-05-25T04:42:00.000Z</Time>
            <Position>
              <LatitudeDegrees>38.02075291983783245086669921875</LatitudeDegrees>
              <LongitudeDegrees>-1.150723993778228759765625</LongitudeDegrees>
            </Position>
            <AltitudeMeters>93.40000152587890625</AltitudeMeters>
            <DistanceMeters>NAN</DistanceMeters>
          </Trackpoint>
          <Trackpoint>
            <Time>2020-05-25T04:42:01.000Z</Time>
            <Position>
              <LatitudeDegrees>38.02075291983783245086669921875</LatitudeDegrees>
              <LongitudeDegrees>-1.150723993778228759765625</LongitudeDegrees>
            </Position>
            <AltitudeMeters>93.40000152587890625</AltitudeMeters>
            <DistanceMeters>NAN</DistanceMeters>
          </Trackpoint>
          <Trackpoint>
            <Time>2020-05-25T04:42:02.000Z</Time>
            <Position>
              <LatitudeDegrees>38.02084662951529026031494140625</LatitudeDegrees>
              <LongitudeDegrees>-1.150564737617969512939453125</LongitudeDegrees>
            </Position>
            <AltitudeMeters>93.1999969482421875</AltitudeMeters>
            <DistanceMeters>NAN</DistanceMeters>
          </Trackpoint>
          <Trackpoint>
            <Time>2020-05-25T04:42:03.000Z</Time>
            <Position>
              <LatitudeDegrees>38.02084662951529026031494140625</LatitudeDegrees>
              <LongitudeDegrees>-1.150564737617969512939453125</LongitudeDegrees>
            </Position>
            <AltitudeMeters>93</AltitudeMeters>
            <DistanceMeters>NAN</DistanceMeters>
          </Trackpoint>
          <Trackpoint>
            <Time>2020-05-25T04:42:04.000Z</Time>
            <Position>
              <LatitudeDegrees>38.02089440636336803436279296875</LatitudeDegrees>
              <LongitudeDegrees>-1.150485612452030181884765625</LongitudeDegrees>
            </Position>
            <AltitudeMeters>93</AltitudeMeters>
            <DistanceMeters>NAN</DistanceMeters>
          </Trackpoint>
          <Trackpoint>
            <Time>2020-05-25T04:42:05.000Z</Time>
            <Position>
              <LatitudeDegrees>38.02094218321144580841064453125</LatitudeDegrees>
              <LongitudeDegrees>-1.15040657110512256622314453125</LongitudeDegrees>
            </Position>
            <AltitudeMeters>93</AltitudeMeters>
            <DistanceMeters>NAN</DistanceMeters>
          </Trackpoint>
          <Trackpoint>
            <Time>2020-05-25T04:42:06.000Z</Time>
            <Position>
              <LatitudeDegrees>38.0210378207266330718994140625</LatitudeDegrees>
              <LongitudeDegrees>-1.15024798549711704254150390625</LongitudeDegrees>
            </Position>
            <AltitudeMeters>92.8000030517578125</AltitudeMeters>
            <DistanceMeters>NAN</DistanceMeters>
          </Trackpoint>
          <Trackpoint>
            <Time>2020-05-25T04:42:07.000Z</Time>
            <Position>
              <LatitudeDegrees>38.0210378207266330718994140625</LatitudeDegrees>
              <LongitudeDegrees>-1.15024798549711704254150390625</LongitudeDegrees>
            </Position>
            <AltitudeMeters>92.8000030517578125</AltitudeMeters>
            <DistanceMeters>NAN</DistanceMeters>
          </Trackpoint>
          <Trackpoint>
            <Time>2020-05-25T04:42:08.000Z</Time>
            <Position>
              <LatitudeDegrees>38.02113446407020092010498046875</LatitudeDegrees>
              <LongitudeDegrees>-1.15008906461298465728759765625</LongitudeDegrees>
            </Position>
            <AltitudeMeters>92.59999847412109375</AltitudeMeters>
            <DistanceMeters>NAN</DistanceMeters>
          </Trackpoint>
          <Trackpoint>
            <Time>2020-05-25T04:42:09.000Z</Time>
            <Position>
              <LatitudeDegrees>38.02113446407020092010498046875</LatitudeDegrees>
              <LongitudeDegrees>-1.15008906461298465728759765625</LongitudeDegrees>
            </Position>
            <AltitudeMeters>92.59999847412109375</AltitudeMeters>
            <DistanceMeters>NAN</DistanceMeters>
          </Trackpoint>
          <Trackpoint>
            <Time>2020-05-25T04:42:10.000Z</Time>
            <Position>
              <LatitudeDegrees>38.0211826600134372711181640625</LatitudeDegrees>
              <LongitudeDegrees>-1.1500090174376964569091796875</LongitudeDegrees>
            </Position>
            <AltitudeMeters>92.40000152587890625</AltitudeMeters>
            <DistanceMeters>NAN</DistanceMeters>
          </Trackpoint>
          <Trackpoint>
            <Time>2020-05-25T04:42:11.000Z</Time>
            <Position>
              <LatitudeDegrees>38.0212312750518321990966796875</LatitudeDegrees>
              <LongitudeDegrees>-1.14992913790047168731689453125</LongitudeDegrees>
            </Position>
            <AltitudeMeters>92.40000152587890625</AltitudeMeters>
            <DistanceMeters>NAN</DistanceMeters>
          </Trackpoint>
          <Trackpoint>
            <Time>2020-05-25T04:42:12.000Z</Time>
            <Position>
              <LatitudeDegrees>38.02132791839540004730224609375</LatitudeDegrees>
              <LongitudeDegrees>-1.14976837299764156341552734375</LongitudeDegrees>
            </Position>
            <AltitudeMeters>92.1999969482421875</AltitudeMeters>
            <DistanceMeters>NAN</DistanceMeters>
          </Trackpoint>
          <Trackpoint>
            <Time>2020-05-25T04:42:13.000Z</Time>
            <Position>
              <LatitudeDegrees>38.02132791839540004730224609375</LatitudeDegrees>
              <LongitudeDegrees>-1.14976837299764156341552734375</LongitudeDegrees>
            </Position>
            <AltitudeMeters>92.1999969482421875</AltitudeMeters>
            <DistanceMeters>NAN</DistanceMeters>
          </Trackpoint>
          <Trackpoint>
            <Time>2020-05-25T04:42:14.000Z</Time>
            <Position>
              <LatitudeDegrees>38.02142498083412647247314453125</LatitudeDegrees>
              <LongitudeDegrees>-1.14960618317127227783203125</LongitudeDegrees>
            </Position>
            <AltitudeMeters>92.1999969482421875</AltitudeMeters>
            <DistanceMeters>NAN</DistanceMeters>
          </Trackpoint>
          <Trackpoint>
            <Time>2020-05-25T04:42:15.000Z</Time>
            <Position>
              <LatitudeDegrees>38.02142498083412647247314453125</LatitudeDegrees>
              <LongitudeDegrees>-1.14960618317127227783203125</LongitudeDegrees>
            </Position>
            <AltitudeMeters>92.1999969482421875</AltitudeMeters>
            <DistanceMeters>NAN</DistanceMeters>
          </Trackpoint>
          <Trackpoint>
            <Time>2020-05-25T04:42:16.000Z</Time>
            <Position>
              <LatitudeDegrees>38.021474182605743408203125</LatitudeDegrees>
              <LongitudeDegrees>-1.149526052176952362060546875</LongitudeDegrees>
            </Position>
            <AltitudeMeters>92</AltitudeMeters>
            <DistanceMeters>NAN</DistanceMeters>
          </Trackpoint>
          <Trackpoint>
            <Time>2020-05-25T04:42:17.000Z</Time>
            <Position>
              <LatitudeDegrees>38.02152338437736034393310546875</LatitudeDegrees>
              <LongitudeDegrees>-1.1494457535445690155029296875</LongitudeDegrees>
            </Position>
            <AltitudeMeters>92</AltitudeMeters>
            <DistanceMeters>NAN</DistanceMeters>
          </Trackpoint>
          <Trackpoint>
            <Time>2020-05-25T04:42:18.000Z</Time>
            <Position>
              <LatitudeDegrees>38.02162061445415019989013671875</LatitudeDegrees>
              <LongitudeDegrees>-1.14928490482270717620849609375</LongitudeDegrees>
            </Position>
            <AltitudeMeters>92</AltitudeMeters>
            <DistanceMeters>NAN</DistanceMeters>
          </Trackpoint>
          <Trackpoint>
            <Time>2020-05-25T04:42:19.000Z</Time>
            <Position>
              <LatitudeDegrees>38.021668978035449981689453125</LatitudeDegrees>
              <LongitudeDegrees>-1.14920519292354583740234375</LongitudeDegrees>
            </Position>
            <AltitudeMeters>92</AltitudeMeters>
            <DistanceMeters>NAN</DistanceMeters>
          </Trackpoint>
          <Trackpoint>
            <Time>2020-05-25T04:42:20.000Z</Time>
            <Position>
              <LatitudeDegrees>38.02171717397868633270263671875</LatitudeDegrees>
              <LongitudeDegrees>-1.149125732481479644775390625</LongitudeDegrees>
            </Position>
            <AltitudeMeters>92</AltitudeMeters>
            <DistanceMeters>NAN</DistanceMeters>
          </Trackpoint>
          <Trackpoint>
            <Time>2020-05-25T04:42:21.000Z</Time>
            <Position>
              <LatitudeDegrees>38.02171717397868633270263671875</LatitudeDegrees>
              <LongitudeDegrees>-1.149125732481479644775390625</LongitudeDegrees>
            </Position>
            <AltitudeMeters>92</AltitudeMeters>
            <DistanceMeters>NAN</DistanceMeters>
          </Trackpoint>
          <Trackpoint>
            <Time>2020-05-25T04:42:22.000Z</Time>
            <Position>
              <LatitudeDegrees>38.02176545374095439910888671875</LatitudeDegrees>
              <LongitudeDegrees>-1.14904551766812801361083984375</LongitudeDegrees>
            </Position>
            <AltitudeMeters>91.8000030517578125</AltitudeMeters>
            <DistanceMeters>NAN</DistanceMeters>
          </Trackpoint>
          <Trackpoint>
            <Time>2020-05-25T04:42:23.000Z</Time>
            <Position>
              <LatitudeDegrees>38.02181373350322246551513671875</LatitudeDegrees>
              <LongitudeDegrees>-1.14896488375961780548095703125</LongitudeDegrees>
            </Position>
            <AltitudeMeters>91.8000030517578125</AltitudeMeters>
            <DistanceMeters>NAN</DistanceMeters>
          </Trackpoint>
          <Trackpoint>
            <Time>2020-05-25T04:42:24.000Z</Time>
            <Position>
              <LatitudeDegrees>38.02190962247550487518310546875</LatitudeDegrees>
              <LongitudeDegrees>-1.14880328066647052764892578125</LongitudeDegrees>
            </Position>
            <AltitudeMeters>91.8000030517578125</AltitudeMeters>
            <DistanceMeters>NAN</DistanceMeters>
          </Trackpoint>
          <Trackpoint>
            <Time>2020-05-25T04:42:25.000Z</Time>
            <Position>
              <LatitudeDegrees>38.02190962247550487518310546875</LatitudeDegrees>
              <LongitudeDegrees>-1.14880328066647052764892578125</LongitudeDegrees>
            </Position>
            <AltitudeMeters>91.8000030517578125</AltitudeMeters>
            <DistanceMeters>NAN</DistanceMeters>
          </Trackpoint>
          <Trackpoint>
            <Time>2020-05-25T04:42:26.000Z</Time>
            <Position>
              <LatitudeDegrees>38.0220066010951995849609375</LatitudeDegrees>
              <LongitudeDegrees>-1.148643605411052703857421875</LongitudeDegrees>
            </Position>
            <AltitudeMeters>91.8000030517578125</AltitudeMeters>
            <DistanceMeters>NAN</DistanceMeters>
          </Trackpoint>
          <Trackpoint>
            <Time>2020-05-25T04:42:27.000Z</Time>
            <Position>
              <LatitudeDegrees>38.0220066010951995849609375</LatitudeDegrees>
              <LongitudeDegrees>-1.148643605411052703857421875</LongitudeDegrees>
            </Position>
            <AltitudeMeters>91.59999847412109375</AltitudeMeters>
            <DistanceMeters>NAN</DistanceMeters>
          </Trackpoint>
          <Trackpoint>
            <Time>2020-05-25T04:42:28.000Z</Time>
            <Position>
              <LatitudeDegrees>38.02205513231456279754638671875</LatitudeDegrees>
              <LongitudeDegrees>-1.14856406114995479583740234375</LongitudeDegrees>
            </Position>
            <AltitudeMeters>91.59999847412109375</AltitudeMeters>
            <DistanceMeters>NAN</DistanceMeters>
          </Trackpoint>
          <Trackpoint>
            <Time>2020-05-25T04:42:29.000Z</Time>
            <Position>
              <LatitudeDegrees>38.02210383117198944091796875</LatitudeDegrees>
              <LongitudeDegrees>-1.14848443306982517242431640625</LongitudeDegrees>
            </Position>
            <AltitudeMeters>91.59999847412109375</AltitudeMeters>
            <DistanceMeters>NAN</DistanceMeters>
          </Trackpoint>
          <Trackpoint>
            <Time>2020-05-25T04:42:30.000Z</Time>
            <Position>
              <LatitudeDegrees>38.02220047451555728912353515625</LatitudeDegrees>
              <LongitudeDegrees>-1.14832333289086818695068359375</LongitudeDegrees>
            </Position>
            <AltitudeMeters>91.40000152587890625</AltitudeMeters>
            <DistanceMeters>NAN</DistanceMeters>
          </Trackpoint>
          <Trackpoint>
            <Time>2020-05-25T04:42:31.000Z</Time>
            <Position>
              <LatitudeDegrees>38.02220047451555728912353515625</LatitudeDegrees>
              <LongitudeDegrees>-1.14832333289086818695068359375</LongitudeDegrees>
            </Position>
            <AltitudeMeters>91.40000152587890625</AltitudeMeters>
            <DistanceMeters>NAN</DistanceMeters>
          </Trackpoint>
          <Trackpoint>
            <Time>2020-05-25T04:42:32.000Z</Time>
            <Position>
              <LatitudeDegrees>38.02229770459234714508056640625</LatitudeDegrees>
              <LongitudeDegrees>-1.1481636576354503631591796875</LongitudeDegrees>
            </Position>
            <AltitudeMeters>91.1999969482421875</AltitudeMeters>
            <DistanceMeters>NAN</DistanceMeters>
          </Trackpoint>
          <Trackpoint>
            <Time>2020-05-25T04:42:33.000Z</Time>
            <Position>
              <LatitudeDegrees>38.02229770459234714508056640625</LatitudeDegrees>
              <LongitudeDegrees>-1.1481636576354503631591796875</LongitudeDegrees>
            </Position>
            <AltitudeMeters>91</AltitudeMeters>
            <DistanceMeters>NAN</DistanceMeters>
          </Trackpoint>
          <Trackpoint>
            <Time>2020-05-25T04:42:34.000Z</Time>
            <Position>
              <LatitudeDegrees>38.02234581671655178070068359375</LatitudeDegrees>
              <LongitudeDegrees>-1.1480841971933841705322265625</LongitudeDegrees>
            </Position>
            <AltitudeMeters>90.8000030517578125</AltitudeMeters>
            <DistanceMeters>NAN</DistanceMeters>
          </Trackpoint>
          <Trackpoint>
            <Time>2020-05-25T04:42:35.000Z</Time>
            <Position>
              <LatitudeDegrees>38.022393174469470977783203125</LatitudeDegrees>
              <LongitudeDegrees>-1.148004569113254547119140625</LongitudeDegrees>
            </Position>
            <AltitudeMeters>90.8000030517578125</AltitudeMeters>
            <DistanceMeters>NAN</DistanceMeters>
          </Trackpoint>
          <Trackpoint>
            <Time>2020-05-25T04:42:36.000Z</Time>
            <Position>
              <LatitudeDegrees>38.0224885605275630950927734375</LatitudeDegrees>
              <LongitudeDegrees>-1.14784657023847103118896484375</LongitudeDegrees>
            </Position>
            <AltitudeMeters>90.8000030517578125</AltitudeMeters>
            <DistanceMeters>NAN</DistanceMeters>
          </Trackpoint>
          <Trackpoint>
            <Time>2020-05-25T04:42:37.000Z</Time>
            <Position>
              <LatitudeDegrees>38.0224885605275630950927734375</LatitudeDegrees>
              <LongitudeDegrees>-1.14784657023847103118896484375</LongitudeDegrees>
            </Position>
            <AltitudeMeters>90.8000030517578125</AltitudeMeters>
            <DistanceMeters>NAN</DistanceMeters>
          </Trackpoint>
          <Trackpoint>
            <Time>2020-05-25T04:42:38.000Z</Time>
            <Position>
              <LatitudeDegrees>38.02258453331887722015380859375</LatitudeDegrees>
              <LongitudeDegrees>-1.14768831990659236907958984375</LongitudeDegrees>
            </Position>
            <AltitudeMeters>90.8000030517578125</AltitudeMeters>
            <DistanceMeters>NAN</DistanceMeters>
          </Trackpoint>
          <Trackpoint>
            <Time>2020-05-25T04:42:39.000Z</Time>
            <Position>
              <LatitudeDegrees>38.02258453331887722015380859375</LatitudeDegrees>
              <LongitudeDegrees>-1.14768831990659236907958984375</LongitudeDegrees>
            </Position>
            <AltitudeMeters>90.59999847412109375</AltitudeMeters>
            <DistanceMeters>NAN</DistanceMeters>
          </Trackpoint>
          <Trackpoint>
            <Time>2020-05-25T04:42:40.000Z</Time>
            <Position>
              <LatitudeDegrees>38.02263231016695499420166015625</LatitudeDegrees>
              <LongitudeDegrees>-1.14760919474065303802490234375</LongitudeDegrees>
            </Position>
            <AltitudeMeters>90.59999847412109375</AltitudeMeters>
            <DistanceMeters>NAN</DistanceMeters>
          </Trackpoint>
          <Trackpoint>
            <Time>2020-05-25T04:42:41.000Z</Time>
            <Position>
              <LatitudeDegrees>38.02267941646277904510498046875</LatitudeDegrees>
              <LongitudeDegrees>-1.147529147565364837646484375</LongitudeDegrees>
            </Position>
            <AltitudeMeters>90.8000030517578125</AltitudeMeters>
            <DistanceMeters>NAN</DistanceMeters>
          </Trackpoint>
          <Trackpoint>
            <Time>2020-05-25T04:42:42.000Z</Time>
            <Position>
              <LatitudeDegrees>38.02277429960668087005615234375</LatitudeDegrees>
              <LongitudeDegrees>-1.1473687179386615753173828125</LongitudeDegrees>
            </Position>
            <AltitudeMeters>90.8000030517578125</AltitudeMeters>
            <DistanceMeters>NAN</DistanceMeters>
          </Trackpoint>
          <Trackpoint>
            <Time>2020-05-25T04:42:43.000Z</Time>
            <Position>
              <LatitudeDegrees>38.02282257936894893646240234375</LatitudeDegrees>
              <LongitudeDegrees>-1.147288419306278228759765625</LongitudeDegrees>
            </Position>
            <AltitudeMeters>90.59999847412109375</AltitudeMeters>
            <DistanceMeters>NAN</DistanceMeters>
          </Trackpoint>
          <Trackpoint>
            <Time>2020-05-25T04:42:44.000Z</Time>
            <Position>
              <LatitudeDegrees>38.02287152968347072601318359375</LatitudeDegrees>
              <LongitudeDegrees>-1.14720837213099002838134765625</LongitudeDegrees>
            </Position>
            <AltitudeMeters>90.59999847412109375</AltitudeMeters>
            <DistanceMeters>NAN</DistanceMeters>
          </Trackpoint>
          <Trackpoint>
            <Time>2020-05-25T04:42:45.000Z</Time>
            <Position>
              <LatitudeDegrees>38.02287152968347072601318359375</LatitudeDegrees>
              <LongitudeDegrees>-1.14720837213099002838134765625</LongitudeDegrees>
            </Position>
            <AltitudeMeters>90.40000152587890625</AltitudeMeters>
            <DistanceMeters>NAN</DistanceMeters>
          </Trackpoint>
          <Trackpoint>
            <Time>2020-05-25T04:42:46.000Z</Time>
            <Position>
              <LatitudeDegrees>38.02292031235992908477783203125</LatitudeDegrees>
              <LongitudeDegrees>-1.1471283249557018280029296875</LongitudeDegrees>
            </Position>
            <AltitudeMeters>90.40000152587890625</AltitudeMeters>
            <DistanceMeters>NAN</DistanceMeters>
          </Trackpoint>
          <Trackpoint>
            <Time>2020-05-25T04:42:47.000Z</Time>
            <Position>
              <LatitudeDegrees>38.02296875976026058197021484375</LatitudeDegrees>
              <LongitudeDegrees>-1.14704827778041362762451171875</LongitudeDegrees>
            </Position>
            <AltitudeMeters>90.40000152587890625</AltitudeMeters>
            <DistanceMeters>NAN</DistanceMeters>
          </Trackpoint>
          <Trackpoint>
            <Time>2020-05-25T04:42:48.000Z</Time>
            <Position>
              <LatitudeDegrees>38.02306397818028926849365234375</LatitudeDegrees>
              <LongitudeDegrees>-1.14688575267791748046875</LongitudeDegrees>
            </Position>
            <AltitudeMeters>90.1999969482421875</AltitudeMeters>
            <DistanceMeters>NAN</DistanceMeters>
          </Trackpoint>
          <Trackpoint>
            <Time>2020-05-25T04:42:49.000Z</Time>
            <Position>
              <LatitudeDegrees>38.02306397818028926849365234375</LatitudeDegrees>
              <LongitudeDegrees>-1.14688575267791748046875</LongitudeDegrees>
            </Position>
            <AltitudeMeters>90.1999969482421875</AltitudeMeters>
            <DistanceMeters>NAN</DistanceMeters>
          </Trackpoint>
          <Trackpoint>
            <Time>2020-05-25T04:42:50.000Z</Time>
            <Position>
              <LatitudeDegrees>38.02316104061901569366455078125</LatitudeDegrees>
              <LongitudeDegrees>-1.14672389812767505645751953125</LongitudeDegrees>
            </Position>
            <AltitudeMeters>90.1999969482421875</AltitudeMeters>
            <DistanceMeters>NAN</DistanceMeters>
          </Trackpoint>
          <Trackpoint>
            <Time>2020-05-25T04:42:51.000Z</Time>
            <Position>
              <LatitudeDegrees>38.02316104061901569366455078125</LatitudeDegrees>
              <LongitudeDegrees>-1.14672389812767505645751953125</LongitudeDegrees>
            </Position>
            <AltitudeMeters>90.1999969482421875</AltitudeMeters>
            <DistanceMeters>NAN</DistanceMeters>
          </Trackpoint>
          <Trackpoint>
            <Time>2020-05-25T04:42:52.000Z</Time>
            <Position>
              <LatitudeDegrees>38.02320999093353748321533203125</LatitudeDegrees>
              <LongitudeDegrees>-1.1466435156762599945068359375</LongitudeDegrees>
            </Position>
            <AltitudeMeters>90.1999969482421875</AltitudeMeters>
            <DistanceMeters>NAN</DistanceMeters>
          </Trackpoint>
          <Trackpoint>
            <Time>2020-05-25T04:42:53.000Z</Time>
            <Position>
              <LatitudeDegrees>38.02325944416224956512451171875</LatitudeDegrees>
              <LongitudeDegrees>-1.14656321704387664794921875</LongitudeDegrees>
            </Position>
            <AltitudeMeters>90</AltitudeMeters>
            <DistanceMeters>NAN</DistanceMeters>
          </Trackpoint>
          <Trackpoint>
            <Time>2020-05-25T04:42:54.000Z</Time>
            <Position>
              <LatitudeDegrees>38.0233565904200077056884765625</LatitudeDegrees>
              <LongitudeDegrees>-1.146403290331363677978515625</LongitudeDegrees>
            </Position>
            <AltitudeMeters>90</AltitudeMeters>
            <DistanceMeters>NAN</DistanceMeters>
          </Trackpoint>
          <Trackpoint>
            <Time>2020-05-25T04:42:55.000Z</Time>
            <Position>
              <LatitudeDegrees>38.0233565904200077056884765625</LatitudeDegrees>
              <LongitudeDegrees>-1.146403290331363677978515625</LongitudeDegrees>
            </Position>
            <AltitudeMeters>90</AltitudeMeters>
            <DistanceMeters>NAN</DistanceMeters>
          </Trackpoint>
          <Trackpoint>
            <Time>2020-05-25T04:42:56.000Z</Time>
            <Position>
              <LatitudeDegrees>38.023453988134860992431640625</LatitudeDegrees>
              <LongitudeDegrees>-1.14624612964689731597900390625</LongitudeDegrees>
            </Position>
            <AltitudeMeters>90</AltitudeMeters>
            <DistanceMeters>NAN</DistanceMeters>
          </Trackpoint>
          <Trackpoint>
            <Time>2020-05-25T04:42:57.000Z</Time>
            <Position>
              <LatitudeDegrees>38.023453988134860992431640625</LatitudeDegrees>
              <LongitudeDegrees>-1.14624612964689731597900390625</LongitudeDegrees>
            </Position>
            <AltitudeMeters>89.8000030517578125</AltitudeMeters>
            <DistanceMeters>NAN</DistanceMeters>
          </Trackpoint>
          <Trackpoint>
            <Time>2020-05-25T04:42:58.000Z</Time>
            <Position>
              <LatitudeDegrees>38.0235007591545581817626953125</LatitudeDegrees>
              <LongitudeDegrees>-1.14616868086159229278564453125</LongitudeDegrees>
            </Position>
            <AltitudeMeters>89.8000030517578125</AltitudeMeters>
            <DistanceMeters>NAN</DistanceMeters>
          </Trackpoint>
          <Trackpoint>
            <Time>2020-05-25T04:42:59.000Z</Time>
            <Position>
              <LatitudeDegrees>38.02354711107909679412841796875</LatitudeDegrees>
              <LongitudeDegrees>-1.14609240554273128509521484375</LongitudeDegrees>
            </Position>
            <AltitudeMeters>89.8000030517578125</AltitudeMeters>
            <DistanceMeters>NAN</DistanceMeters>
          </Trackpoint>
          <Trackpoint>
            <Time>2020-05-25T04:43:00.000Z</Time>
            <Position>
              <LatitudeDegrees>38.0236392281949520111083984375</LatitudeDegrees>
              <LongitudeDegrees>-1.1459427885711193084716796875</LongitudeDegrees>
            </Position>
            <AltitudeMeters>89.59999847412109375</AltitudeMeters>
            <DistanceMeters>NAN</DistanceMeters>
          </Trackpoint>
          <Trackpoint>
            <Time>2020-05-25T04:43:01.000Z</Time>
            <Position>
              <LatitudeDegrees>38.0236392281949520111083984375</LatitudeDegrees>
              <LongitudeDegrees>-1.1459427885711193084716796875</LongitudeDegrees>
            </Position>
            <AltitudeMeters>89.59999847412109375</AltitudeMeters>
            <DistanceMeters>NAN</DistanceMeters>
          </Trackpoint>
          <Trackpoint>
            <Time>2020-05-25T04:43:02.000Z</Time>
            <Position>
              <LatitudeDegrees>38.02372782491147518157958984375</LatitudeDegrees>
              <LongitudeDegrees>-1.14579903893172740936279296875</LongitudeDegrees>
            </Position>
            <AltitudeMeters>89.59999847412109375</AltitudeMeters>
            <DistanceMeters>NAN</DistanceMeters>
          </Trackpoint>
          <Trackpoint>
            <Time>2020-05-25T04:43:03.000Z</Time>
            <Position>
              <LatitudeDegrees>38.02372782491147518157958984375</LatitudeDegrees>
              <LongitudeDegrees>-1.14579903893172740936279296875</LongitudeDegrees>
            </Position>
            <AltitudeMeters>89.59999847412109375</AltitudeMeters>
            <DistanceMeters>NAN</DistanceMeters>
          </Trackpoint>
          <Trackpoint>
            <Time>2020-05-25T04:43:04.000Z</Time>
            <Position>
              <LatitudeDegrees>38.0237706564366817474365234375</LatitudeDegrees>
              <LongitudeDegrees>-1.14572905004024505615234375</LongitudeDegrees>
            </Position>
            <AltitudeMeters>89.59999847412109375</AltitudeMeters>
            <DistanceMeters>NAN</DistanceMeters>
          </Trackpoint>
          <Trackpoint>
            <Time>2020-05-25T04:43:05.000Z</Time>
            <Position>
              <LatitudeDegrees>38.0238125659525394439697265625</LatitudeDegrees>
              <LongitudeDegrees>-1.14566107280552387237548828125</LongitudeDegrees>
            </Position>
            <AltitudeMeters>89.59999847412109375</AltitudeMeters>
            <DistanceMeters>NAN</DistanceMeters>
          </Trackpoint>
          <Trackpoint>
            <Time>2020-05-25T04:43:06.000Z</Time>
            <Position>
              <LatitudeDegrees>38.02389085292816162109375</LatitudeDegrees>
              <LongitudeDegrees>-1.145531572401523590087890625</LongitudeDegrees>
            </Position>
            <AltitudeMeters>89.59999847412109375</AltitudeMeters>
            <DistanceMeters>NAN</DistanceMeters>
          </Trackpoint>
          <Trackpoint>
            <Time>2020-05-25T04:43:07.000Z</Time>
            <Position>
              <LatitudeDegrees>38.02389085292816162109375</LatitudeDegrees>
              <LongitudeDegrees>-1.145531572401523590087890625</LongitudeDegrees>
            </Position>
            <AltitudeMeters>89.59999847412109375</AltitudeMeters>
            <DistanceMeters>NAN</DistanceMeters>
          </Trackpoint>
          <Trackpoint>
            <Time>2020-05-25T04:43:08.000Z</Time>
            <Position>
              <LatitudeDegrees>38.023960590362548828125</LatitudeDegrees>
              <LongitudeDegrees>-1.1454120464622974395751953125</LongitudeDegrees>
            </Position>
            <AltitudeMeters>89.59999847412109375</AltitudeMeters>
            <DistanceMeters>NAN</DistanceMeters>
          </Trackpoint>
          <Trackpoint>
            <Time>2020-05-25T04:43:09.000Z</Time>
            <Position>
              <LatitudeDegrees>38.02399302832782268524169921875</LatitudeDegrees>
              <LongitudeDegrees>-1.1453563906252384185791015625</LongitudeDegrees>
            </Position>
            <AltitudeMeters>89.59999847412109375</AltitudeMeters>
            <DistanceMeters>NAN</DistanceMeters>
          </Trackpoint>
          <Trackpoint>
            <Time>2020-05-25T04:43:10.000Z</Time>
            <Position>
              <LatitudeDegrees>38.02399302832782268524169921875</LatitudeDegrees>
              <LongitudeDegrees>-1.1453563906252384185791015625</LongitudeDegrees>
            </Position>
            <AltitudeMeters>89.8000030517578125</AltitudeMeters>
            <DistanceMeters>NAN</DistanceMeters>
          </Trackpoint>
          <Trackpoint>
            <Time>2020-05-25T04:43:11.000Z</Time>
            <Position>
              <LatitudeDegrees>38.0240549705922603607177734375</LatitudeDegrees>
              <LongitudeDegrees>-1.14525689743459224700927734375</LongitudeDegrees>
            </Position>
            <AltitudeMeters>89.8000030517578125</AltitudeMeters>
            <DistanceMeters>NAN</DistanceMeters>
          </Trackpoint>
          <Trackpoint>
            <Time>2020-05-25T04:43:12.000Z</Time>
            <Position>
              <LatitudeDegrees>38.02408003248274326324462890625</LatitudeDegrees>
              <LongitudeDegrees>-1.1452165804803371429443359375</LongitudeDegrees>
            </Position>
            <AltitudeMeters>89.8000030517578125</AltitudeMeters>
            <DistanceMeters>NAN</DistanceMeters>
          </Trackpoint>
          <Trackpoint>
            <Time>2020-05-25T04:43:13.000Z</Time>
            <Position>
              <LatitudeDegrees>38.02408003248274326324462890625</LatitudeDegrees>
              <LongitudeDegrees>-1.1452165804803371429443359375</LongitudeDegrees>
            </Position>
            <AltitudeMeters>89.8000030517578125</AltitudeMeters>
            <DistanceMeters>NAN</DistanceMeters>
          </Trackpoint>
          <Trackpoint>
            <Time>2020-05-25T04:43:14.000Z</Time>
            <Position>
              <LatitudeDegrees>38.024116493761539459228515625</LatitudeDegrees>
              <LongitudeDegrees>-1.14515648223459720611572265625</LongitudeDegrees>
            </Position>
            <AltitudeMeters>90</AltitudeMeters>
            <DistanceMeters>NAN</DistanceMeters>
          </Trackpoint>
          <Trackpoint>
            <Time>2020-05-25T04:43:15.000Z</Time>
            <Position>
              <LatitudeDegrees>38.024116493761539459228515625</LatitudeDegrees>
              <LongitudeDegrees>-1.14515648223459720611572265625</LongitudeDegrees>
            </Position>
            <AltitudeMeters>90</AltitudeMeters>
            <DistanceMeters>NAN</DistanceMeters>
          </Trackpoint>
          <Trackpoint>
            <Time>2020-05-25T04:43:16.000Z</Time>
            <Position>
              <LatitudeDegrees>38.0241277255117893218994140625</LatitudeDegrees>
              <LongitudeDegrees>-1.14513351581990718841552734375</LongitudeDegrees>
            </Position>
            <AltitudeMeters>90.1999969482421875</AltitudeMeters>
            <DistanceMeters>NAN</DistanceMeters>
          </Trackpoint>
          <Trackpoint>
            <Time>2020-05-25T04:43:17.000Z</Time>
            <Position>
              <LatitudeDegrees>38.02413619123399257659912109375</LatitudeDegrees>
              <LongitudeDegrees>-1.14511440508067607879638671875</LongitudeDegrees>
            </Position>
            <AltitudeMeters>90.1999969482421875</AltitudeMeters>
            <DistanceMeters>NAN</DistanceMeters>
          </Trackpoint>
          <Trackpoint>
            <Time>2020-05-25T04:43:18.000Z</Time>
            <Position>
              <LatitudeDegrees>38.02415278740227222442626953125</LatitudeDegrees>
              <LongitudeDegrees>-1.14508557133376598358154296875</LongitudeDegrees>
            </Position>
            <AltitudeMeters>90.1999969482421875</AltitudeMeters>
            <DistanceMeters>NAN</DistanceMeters>
          </Trackpoint>
          <Trackpoint>
            <Time>2020-05-25T04:43:19.000Z</Time>
            <Position>
              <LatitudeDegrees>38.02415278740227222442626953125</LatitudeDegrees>
              <LongitudeDegrees>-1.14508557133376598358154296875</LongitudeDegrees>
            </Position>
            <AltitudeMeters>90.1999969482421875</AltitudeMeters>
            <DistanceMeters>NAN</DistanceMeters>
          </Trackpoint>
          <Trackpoint>
            <Time>2020-05-25T04:43:20.000Z</Time>
            <Position>
              <LatitudeDegrees>38.0241636000573635101318359375</LatitudeDegrees>
              <LongitudeDegrees>-1.1450623534619808197021484375</LongitudeDegrees>
            </Position>
            <AltitudeMeters>90.40000152587890625</AltitudeMeters>
            <DistanceMeters>NAN</DistanceMeters>
          </Trackpoint>
          <Trackpoint>
            <Time>2020-05-25T04:43:21.000Z</Time>
            <Position>
              <LatitudeDegrees>38.0241636000573635101318359375</LatitudeDegrees>
              <LongitudeDegrees>-1.1450623534619808197021484375</LongitudeDegrees>
            </Position>
            <AltitudeMeters>90.40000152587890625</AltitudeMeters>
            <DistanceMeters>NAN</DistanceMeters>
          </Trackpoint>
          <Trackpoint>
            <Time>2020-05-25T04:43:22.000Z</Time>
            <Position>
              <LatitudeDegrees>38.02416804246604442596435546875</LatitudeDegrees>
              <LongitudeDegrees>-1.1450519599020481109619140625</LongitudeDegrees>
            </Position>
            <AltitudeMeters>90.40000152587890625</AltitudeMeters>
            <DistanceMeters>NAN</DistanceMeters>
          </Trackpoint>
          <Trackpoint>
            <Time>2020-05-25T04:43:23.000Z</Time>
            <Position>
              <LatitudeDegrees>38.024175502359867095947265625</LatitudeDegrees>
              <LongitudeDegrees>-1.14503142423927783966064453125</LongitudeDegrees>
            </Position>
            <AltitudeMeters>90.59999847412109375</AltitudeMeters>
            <DistanceMeters>NAN</DistanceMeters>
          </Trackpoint>
          <Trackpoint>
            <Time>2020-05-25T04:43:24.000Z</Time>
            <Position>
              <LatitudeDegrees>38.0241813696920871734619140625</LatitudeDegrees>
              <LongitudeDegrees>-1.1450167559087276458740234375</LongitudeDegrees>
            </Position>
            <AltitudeMeters>90.59999847412109375</AltitudeMeters>
            <DistanceMeters>NAN</DistanceMeters>
          </Trackpoint>
          <Trackpoint>
            <Time>2020-05-25T04:43:25.000Z</Time>
            <Position>
              <LatitudeDegrees>38.0241813696920871734619140625</LatitudeDegrees>
              <LongitudeDegrees>-1.1450167559087276458740234375</LongitudeDegrees>
            </Position>
            <AltitudeMeters>90.8000030517578125</AltitudeMeters>
            <DistanceMeters>NAN</DistanceMeters>
          </Trackpoint>
          <Trackpoint>
            <Time>2020-05-25T04:43:26.000Z</Time>
            <Position>
              <LatitudeDegrees>38.0242065154016017913818359375</LatitudeDegrees>
              <LongitudeDegrees>-1.14497660659253597259521484375</LongitudeDegrees>
            </Position>
            <AltitudeMeters>90.8000030517578125</AltitudeMeters>
            <DistanceMeters>NAN</DistanceMeters>
          </Trackpoint>
          <Trackpoint>
            <Time>2020-05-25T04:43:27.000Z</Time>
            <Position>
              <LatitudeDegrees>38.0242065154016017913818359375</LatitudeDegrees>
              <LongitudeDegrees>-1.14497660659253597259521484375</LongitudeDegrees>
            </Position>
            <AltitudeMeters>90.8000030517578125</AltitudeMeters>
            <DistanceMeters>NAN</DistanceMeters>
          </Trackpoint>
          <Trackpoint>
            <Time>2020-05-25T04:43:28.000Z</Time>
            <Position>
              <LatitudeDegrees>38.02422403357923030853271484375</LatitudeDegrees>
              <LongitudeDegrees>-1.14494777284562587738037109375</LongitudeDegrees>
            </Position>
            <AltitudeMeters>90.8000030517578125</AltitudeMeters>
            <DistanceMeters>NAN</DistanceMeters>
          </Trackpoint>
          <Trackpoint>
            <Time>2020-05-25T04:43:29.000Z</Time>
            <Position>
              <LatitudeDegrees>38.02424599416553974151611328125</LatitudeDegrees>
              <LongitudeDegrees>-1.1449128203094005584716796875</LongitudeDegrees>
            </Position>
            <AltitudeMeters>90.8000030517578125</AltitudeMeters>
            <DistanceMeters>NAN</DistanceMeters>
          </Trackpoint>
          <Trackpoint>
            <Time>2020-05-25T04:43:30.000Z</Time>
            <Position>
              <LatitudeDegrees>38.02429762668907642364501953125</LatitudeDegrees>
              <LongitudeDegrees>-1.144828163087368011474609375</LongitudeDegrees>
            </Position>
            <AltitudeMeters>90.8000030517578125</AltitudeMeters>
            <DistanceMeters>NAN</DistanceMeters>
          </Trackpoint>
          <Trackpoint>
            <Time>2020-05-25T04:43:31.000Z</Time>
            <Position>
              <LatitudeDegrees>38.02429762668907642364501953125</LatitudeDegrees>
              <LongitudeDegrees>-1.144828163087368011474609375</LongitudeDegrees>
            </Position>
            <AltitudeMeters>90.8000030517578125</AltitudeMeters>
            <DistanceMeters>NAN</DistanceMeters>
          </Trackpoint>
          <Trackpoint>
            <Time>2020-05-25T04:43:32.000Z</Time>
            <Position>
              <LatitudeDegrees>38.024357892572879791259765625</LatitudeDegrees>
              <LongitudeDegrees>-1.14472833462059497833251953125</LongitudeDegrees>
            </Position>
            <AltitudeMeters>90.8000030517578125</AltitudeMeters>
            <DistanceMeters>NAN</DistanceMeters>
          </Trackpoint>
          <Trackpoint>
            <Time>2020-05-25T04:43:33.000Z</Time>
            <Position>
              <LatitudeDegrees>38.024357892572879791259765625</LatitudeDegrees>
              <LongitudeDegrees>-1.14472833462059497833251953125</LongitudeDegrees>
            </Position>
            <AltitudeMeters>90.8000030517578125</AltitudeMeters>
            <DistanceMeters>NAN</DistanceMeters>
          </Trackpoint>
          <Trackpoint>
            <Time>2020-05-25T04:43:34.000Z</Time>
            <Position>
              <LatitudeDegrees>38.024384044110774993896484375</LatitudeDegrees>
              <LongitudeDegrees>-1.144669242203235626220703125</LongitudeDegrees>
            </Position>
            <AltitudeMeters>90.8000030517578125</AltitudeMeters>
            <DistanceMeters>NAN</DistanceMeters>
          </Trackpoint>
          <Trackpoint>
            <Time>2020-05-25T04:43:35.000Z</Time>
            <Position>
              <LatitudeDegrees>38.024400137364864349365234375</LatitudeDegrees>
              <LongitudeDegrees>-1.14460126496851444244384765625</LongitudeDegrees>
            </Position>
            <AltitudeMeters>90.8000030517578125</AltitudeMeters>
            <DistanceMeters>NAN</DistanceMeters>
          </Trackpoint>
          <Trackpoint>
            <Time>2020-05-25T04:43:36.000Z</Time>
            <Position>
              <LatitudeDegrees>38.02441212348639965057373046875</LatitudeDegrees>
              <LongitudeDegrees>-1.14444821141660213470458984375</LongitudeDegrees>
            </Position>
            <AltitudeMeters>90.8000030517578125</AltitudeMeters>
            <DistanceMeters>NAN</DistanceMeters>
          </Trackpoint>
          <Trackpoint>
            <Time>2020-05-25T04:43:37.000Z</Time>
            <Position>
              <LatitudeDegrees>38.02441212348639965057373046875</LatitudeDegrees>
              <LongitudeDegrees>-1.14444821141660213470458984375</LongitudeDegrees>
            </Position>
            <AltitudeMeters>90.8000030517578125</AltitudeMeters>
            <DistanceMeters>NAN</DistanceMeters>
          </Trackpoint>
          <Trackpoint>
            <Time>2020-05-25T04:43:38.000Z</Time>
            <Position>
              <LatitudeDegrees>38.024432659149169921875</LatitudeDegrees>
              <LongitudeDegrees>-1.1442799866199493408203125</LongitudeDegrees>
            </Position>
            <AltitudeMeters>90.8000030517578125</AltitudeMeters>
            <DistanceMeters>NAN</DistanceMeters>
          </Trackpoint>
          <Trackpoint>
            <Time>2020-05-25T04:43:39.000Z</Time>
            <Position>
              <LatitudeDegrees>38.0244482494890689849853515625</LatitudeDegrees>
              <LongitudeDegrees>-1.1441949941217899322509765625</LongitudeDegrees>
            </Position>
            <AltitudeMeters>90.8000030517578125</AltitudeMeters>
            <DistanceMeters>NAN</DistanceMeters>
          </Trackpoint>
          <Trackpoint>
            <Time>2020-05-25T04:43:40.000Z</Time>
            <Position>
              <LatitudeDegrees>38.0244482494890689849853515625</LatitudeDegrees>
              <LongitudeDegrees>-1.1441949941217899322509765625</LongitudeDegrees>
            </Position>
            <AltitudeMeters>90.8000030517578125</AltitudeMeters>
            <DistanceMeters>NAN</DistanceMeters>
          </Trackpoint>
          <Trackpoint>
            <Time>2020-05-25T04:43:41.000Z</Time>
            <Position>
              <LatitudeDegrees>38.02447088062763214111328125</LatitudeDegrees>
              <LongitudeDegrees>-1.14410924725234508514404296875</LongitudeDegrees>
            </Position>
            <AltitudeMeters>90.8000030517578125</AltitudeMeters>
            <DistanceMeters>NAN</DistanceMeters>
          </Trackpoint>
          <Trackpoint>
            <Time>2020-05-25T04:43:42.000Z</Time>
            <Position>
              <LatitudeDegrees>38.02454170770943164825439453125</LatitudeDegrees>
              <LongitudeDegrees>-1.143948398530483245849609375</LongitudeDegrees>
            </Position>
            <AltitudeMeters>90.8000030517578125</AltitudeMeters>
            <DistanceMeters>NAN</DistanceMeters>
          </Trackpoint>
          <Trackpoint>
            <Time>2020-05-25T04:43:43.000Z</Time>
            <Position>
              <LatitudeDegrees>38.02454170770943164825439453125</LatitudeDegrees>
              <LongitudeDegrees>-1.143948398530483245849609375</LongitudeDegrees>
            </Position>
            <AltitudeMeters>90.8000030517578125</AltitudeMeters>
            <DistanceMeters>NAN</DistanceMeters>
          </Trackpoint>
          <Trackpoint>
            <Time>2020-05-25T04:43:44.000Z</Time>
            <Position>
              <LatitudeDegrees>38.02464094944298267364501953125</LatitudeDegrees>
              <LongitudeDegrees>-1.143819987773895263671875</LongitudeDegrees>
            </Position>
            <AltitudeMeters>91</AltitudeMeters>
            <DistanceMeters>NAN</DistanceMeters>
          </Trackpoint>
          <Trackpoint>
            <Time>2020-05-25T04:43:45.000Z</Time>
            <Position>
              <LatitudeDegrees>38.02464094944298267364501953125</LatitudeDegrees>
              <LongitudeDegrees>-1.143819987773895263671875</LongitudeDegrees>
            </Position>
            <AltitudeMeters>90.8000030517578125</AltitudeMeters>
            <DistanceMeters>NAN</DistanceMeters>
          </Trackpoint>
          <Trackpoint>
            <Time>2020-05-25T04:43:46.000Z</Time>
            <Position>
              <LatitudeDegrees>38.02469643764197826385498046875</LatitudeDegrees>
              <LongitudeDegrees>-1.1437676846981048583984375</LongitudeDegrees>
            </Position>
            <AltitudeMeters>90.8000030517578125</AltitudeMeters>
            <DistanceMeters>NAN</DistanceMeters>
          </Trackpoint>
          <Trackpoint>
            <Time>2020-05-25T04:43:47.000Z</Time>
            <Position>
              <LatitudeDegrees>38.02475561387836933135986328125</LatitudeDegrees>
              <LongitudeDegrees>-1.143722422420978546142578125</LongitudeDegrees>
            </Position>
            <AltitudeMeters>90.8000030517578125</AltitudeMeters>
            <DistanceMeters>NAN</DistanceMeters>
          </Trackpoint>
          <Trackpoint>
            <Time>2020-05-25T04:43:48.000Z</Time>
            <Position>
              <LatitudeDegrees>38.02481428720057010650634765625</LatitudeDegrees>
              <LongitudeDegrees>-1.14367724396288394927978515625</LongitudeDegrees>
            </Position>
            <AltitudeMeters>90.59999847412109375</AltitudeMeters>
            <DistanceMeters>NAN</DistanceMeters>
          </Trackpoint>
          <Trackpoint>
            <Time>2020-05-25T04:43:49.000Z</Time>
            <Position>
              <LatitudeDegrees>38.0248725414276123046875</LatitudeDegrees>
              <LongitudeDegrees>-1.143631227314472198486328125</LongitudeDegrees>
            </Position>
            <AltitudeMeters>90.59999847412109375</AltitudeMeters>
            <DistanceMeters>NAN</DistanceMeters>
          </Trackpoint>
          <Trackpoint>
            <Time>2020-05-25T04:43:50.000Z</Time>
            <Position>
              <LatitudeDegrees>38.02493079565465450286865234375</LatitudeDegrees>
              <LongitudeDegrees>-1.1435844562947750091552734375</LongitudeDegrees>
            </Position>
            <AltitudeMeters>90.59999847412109375</AltitudeMeters>
            <DistanceMeters>NAN</DistanceMeters>
          </Trackpoint>
          <Trackpoint>
            <Time>2020-05-25T04:43:51.000Z</Time>
            <Position>
              <LatitudeDegrees>38.0249865353107452392578125</LatitudeDegrees>
              <LongitudeDegrees>-1.1435331590473651885986328125</LongitudeDegrees>
            </Position>
            <AltitudeMeters>90.59999847412109375</AltitudeMeters>
            <DistanceMeters>NAN</DistanceMeters>
          </Trackpoint>
          <Trackpoint>
            <Time>2020-05-25T04:43:52.000Z</Time>
            <Position>
              <LatitudeDegrees>38.0250383354723453521728515625</LatitudeDegrees>
              <LongitudeDegrees>-1.14347540773451328277587890625</LongitudeDegrees>
            </Position>
            <AltitudeMeters>90.59999847412109375</AltitudeMeters>
            <DistanceMeters>NAN</DistanceMeters>
          </Trackpoint>
          <Trackpoint>
            <Time>2020-05-25T04:43:53.000Z</Time>
            <Position>
              <LatitudeDegrees>38.025084435939788818359375</LatitudeDegrees>
              <LongitudeDegrees>-1.1434101127088069915771484375</LongitudeDegrees>
            </Position>
            <AltitudeMeters>90.59999847412109375</AltitudeMeters>
            <DistanceMeters>NAN</DistanceMeters>
          </Trackpoint>
          <Trackpoint>
            <Time>2020-05-25T04:43:54.000Z</Time>
            <Position>
              <LatitudeDegrees>38.02512575872242450714111328125</LatitudeDegrees>
              <LongitudeDegrees>-1.14333928562700748443603515625</LongitudeDegrees>
            </Position>
            <AltitudeMeters>90.59999847412109375</AltitudeMeters>
            <DistanceMeters>NAN</DistanceMeters>
          </Trackpoint>
          <Trackpoint>
            <Time>2020-05-25T04:43:55.000Z</Time>
            <Position>
              <LatitudeDegrees>38.025166578590869903564453125</LatitudeDegrees>
              <LongitudeDegrees>-1.1432661116123199462890625</LongitudeDegrees>
            </Position>
            <AltitudeMeters>90.59999847412109375</AltitudeMeters>
            <DistanceMeters>NAN</DistanceMeters>
          </Trackpoint>
          <Trackpoint>
            <Time>2020-05-25T04:43:56.000Z</Time>
            <Position>
              <LatitudeDegrees>38.0252073146402835845947265625</LatitudeDegrees>
              <LongitudeDegrees>-1.14319059066474437713623046875</LongitudeDegrees>
            </Position>
            <AltitudeMeters>90.59999847412109375</AltitudeMeters>
            <DistanceMeters>NAN</DistanceMeters>
          </Trackpoint>
          <Trackpoint>
            <Time>2020-05-25T04:43:57.000Z</Time>
            <Position>
              <LatitudeDegrees>38.02524746395647525787353515625</LatitudeDegrees>
              <LongitudeDegrees>-1.1431130580604076385498046875</LongitudeDegrees>
            </Position>
            <AltitudeMeters>90.40000152587890625</AltitudeMeters>
            <DistanceMeters>NAN</DistanceMeters>
          </Trackpoint>
          <Trackpoint>
            <Time>2020-05-25T04:43:58.000Z</Time>
            <Position>
              <LatitudeDegrees>38.02528786472976207733154296875</LatitudeDegrees>
              <LongitudeDegrees>-1.14303435198962688446044921875</LongitudeDegrees>
            </Position>
            <AltitudeMeters>90.59999847412109375</AltitudeMeters>
            <DistanceMeters>NAN</DistanceMeters>
          </Trackpoint>
          <Trackpoint>
            <Time>2020-05-25T04:43:59.000Z</Time>
            <Position>
              <LatitudeDegrees>38.02532860077917575836181640625</LatitudeDegrees>
              <LongitudeDegrees>-1.14295438863337039947509765625</LongitudeDegrees>
            </Position>
            <AltitudeMeters>90.59999847412109375</AltitudeMeters>
            <DistanceMeters>NAN</DistanceMeters>
          </Trackpoint>
          <Trackpoint>
            <Time>2020-05-25T04:44:00.000Z</Time>
            <Position>
              <LatitudeDegrees>38.0253705941140651702880859375</LatitudeDegrees>
              <LongitudeDegrees>-1.14287442527711391448974609375</LongitudeDegrees>
            </Position>
            <AltitudeMeters>90.59999847412109375</AltitudeMeters>
            <DistanceMeters>NAN</DistanceMeters>
          </Trackpoint>
          <Trackpoint>
            <Time>2020-05-25T04:44:01.000Z</Time>
            <Position>
              <LatitudeDegrees>38.0254557542502880096435546875</LatitudeDegrees>
              <LongitudeDegrees>-1.14271290600299835205078125</LongitudeDegrees>
            </Position>
            <AltitudeMeters>90.59999847412109375</AltitudeMeters>
            <DistanceMeters>NAN</DistanceMeters>
          </Trackpoint>
          <Trackpoint>
            <Time>2020-05-25T04:44:02.000Z</Time>
            <Position>
              <LatitudeDegrees>38.0254986695945262908935546875</LatitudeDegrees>
              <LongitudeDegrees>-1.142632104456424713134765625</LongitudeDegrees>
            </Position>
            <AltitudeMeters>90.59999847412109375</AltitudeMeters>
            <DistanceMeters>NAN</DistanceMeters>
          </Trackpoint>
          <Trackpoint>
            <Time>2020-05-25T04:44:03.000Z</Time>
            <Position>
              <LatitudeDegrees>38.0255422554910182952880859375</LatitudeDegrees>
              <LongitudeDegrees>-1.1425518058240413665771484375</LongitudeDegrees>
            </Position>
            <AltitudeMeters>90.59999847412109375</AltitudeMeters>
            <DistanceMeters>NAN</DistanceMeters>
          </Trackpoint>
          <Trackpoint>
            <Time>2020-05-25T04:44:04.000Z</Time>
            <Position>
              <LatitudeDegrees>38.0255422554910182952880859375</LatitudeDegrees>
              <LongitudeDegrees>-1.1425518058240413665771484375</LongitudeDegrees>
            </Position>
            <AltitudeMeters>90.59999847412109375</AltitudeMeters>
            <DistanceMeters>NAN</DistanceMeters>
          </Trackpoint>
          <Trackpoint>
            <Time>2020-05-25T04:44:05.000Z</Time>
            <Position>
              <LatitudeDegrees>38.02558600902557373046875</LatitudeDegrees>
              <LongitudeDegrees>-1.1424720101058483123779296875</LongitudeDegrees>
            </Position>
            <AltitudeMeters>90.40000152587890625</AltitudeMeters>
            <DistanceMeters>NAN</DistanceMeters>
          </Trackpoint>
          <Trackpoint>
            <Time>2020-05-25T04:44:06.000Z</Time>
            <Position>
              <LatitudeDegrees>38.02567158825695514678955078125</LatitudeDegrees>
              <LongitudeDegrees>-1.142314933240413665771484375</LongitudeDegrees>
            </Position>
            <AltitudeMeters>90.40000152587890625</AltitudeMeters>
            <DistanceMeters>NAN</DistanceMeters>
          </Trackpoint>
          <Trackpoint>
            <Time>2020-05-25T04:44:07.000Z</Time>
            <Position>
              <LatitudeDegrees>38.02567158825695514678955078125</LatitudeDegrees>
              <LongitudeDegrees>-1.142314933240413665771484375</LongitudeDegrees>
            </Position>
            <AltitudeMeters>90.1999969482421875</AltitudeMeters>
            <DistanceMeters>NAN</DistanceMeters>
          </Trackpoint>
          <Trackpoint>
            <Time>2020-05-25T04:44:08.000Z</Time>
            <Position>
              <LatitudeDegrees>38.025745935738086700439453125</LatitudeDegrees>
              <LongitudeDegrees>-1.1421471275389194488525390625</LongitudeDegrees>
            </Position>
            <AltitudeMeters>90</AltitudeMeters>
            <DistanceMeters>NAN</DistanceMeters>
          </Trackpoint>
          <Trackpoint>
            <Time>2020-05-25T04:44:09.000Z</Time>
            <Position>
              <LatitudeDegrees>38.025745935738086700439453125</LatitudeDegrees>
              <LongitudeDegrees>-1.1421471275389194488525390625</LongitudeDegrees>
            </Position>
            <AltitudeMeters>90</AltitudeMeters>
            <DistanceMeters>NAN</DistanceMeters>
          </Trackpoint>
          <Trackpoint>
            <Time>2020-05-25T04:44:10.000Z</Time>
            <Position>
              <LatitudeDegrees>38.02577041089534759521484375</LatitudeDegrees>
              <LongitudeDegrees>-1.14205685444176197052001953125</LongitudeDegrees>
            </Position>
            <AltitudeMeters>89.8000030517578125</AltitudeMeters>
            <DistanceMeters>NAN</DistanceMeters>
          </Trackpoint>
          <Trackpoint>
            <Time>2020-05-25T04:44:11.000Z</Time>
            <Position>
              <LatitudeDegrees>38.02578306756913661956787109375</LatitudeDegrees>
              <LongitudeDegrees>-1.14196549169719219207763671875</LongitudeDegrees>
            </Position>
            <AltitudeMeters>89.59999847412109375</AltitudeMeters>
            <DistanceMeters>NAN</DistanceMeters>
          </Trackpoint>
          <Trackpoint>
            <Time>2020-05-25T04:44:12.000Z</Time>
            <Position>
              <LatitudeDegrees>38.0257940478622913360595703125</LatitudeDegrees>
              <LongitudeDegrees>-1.141789220273494720458984375</LongitudeDegrees>
            </Position>
            <AltitudeMeters>89.59999847412109375</AltitudeMeters>
            <DistanceMeters>NAN</DistanceMeters>
          </Trackpoint>
          <Trackpoint>
            <Time>2020-05-25T04:44:13.000Z</Time>
            <Position>
              <LatitudeDegrees>38.0257940478622913360595703125</LatitudeDegrees>
              <LongitudeDegrees>-1.141789220273494720458984375</LongitudeDegrees>
            </Position>
            <AltitudeMeters>89.59999847412109375</AltitudeMeters>
            <DistanceMeters>NAN</DistanceMeters>
          </Trackpoint>
          <Trackpoint>
            <Time>2020-05-25T04:44:14.000Z</Time>
            <Position>
              <LatitudeDegrees>38.02583520300686359405517578125</LatitudeDegrees>
              <LongitudeDegrees>-1.14162795245647430419921875</LongitudeDegrees>
            </Position>
            <AltitudeMeters>89.59999847412109375</AltitudeMeters>
            <DistanceMeters>NAN</DistanceMeters>
          </Trackpoint>
          <Trackpoint>
            <Time>2020-05-25T04:44:15.000Z</Time>
            <Position>
              <LatitudeDegrees>38.02583520300686359405517578125</LatitudeDegrees>
              <LongitudeDegrees>-1.14162795245647430419921875</LongitudeDegrees>
            </Position>
            <AltitudeMeters>89.40000152587890625</AltitudeMeters>
            <DistanceMeters>NAN</DistanceMeters>
          </Trackpoint>
          <Trackpoint>
            <Time>2020-05-25T04:44:16.000Z</Time>
            <Position>
              <LatitudeDegrees>38.0258728377521038055419921875</LatitudeDegrees>
              <LongitudeDegrees>-1.141558550298213958740234375</LongitudeDegrees>
            </Position>
            <AltitudeMeters>89.40000152587890625</AltitudeMeters>
            <DistanceMeters>NAN</DistanceMeters>
          </Trackpoint>
          <Trackpoint>
            <Time>2020-05-25T04:44:17.000Z</Time>
            <Position>
              <LatitudeDegrees>38.02592069841921329498291015625</LatitudeDegrees>
              <LongitudeDegrees>-1.14149845205247402191162109375</LongitudeDegrees>
            </Position>
            <AltitudeMeters>89.40000152587890625</AltitudeMeters>
            <DistanceMeters>NAN</DistanceMeters>
          </Trackpoint>
          <Trackpoint>
            <Time>2020-05-25T04:44:18.000Z</Time>
            <Position>
              <LatitudeDegrees>38.02603703923523426055908203125</LatitudeDegrees>
              <LongitudeDegrees>-1.1414075084030628204345703125</LongitudeDegrees>
            </Position>
            <AltitudeMeters>89.40000152587890625</AltitudeMeters>
            <DistanceMeters>NAN</DistanceMeters>
          </Trackpoint>
          <Trackpoint>
            <Time>2020-05-25T04:44:19.000Z</Time>
            <Position>
              <LatitudeDegrees>38.02603703923523426055908203125</LatitudeDegrees>
              <LongitudeDegrees>-1.1414075084030628204345703125</LongitudeDegrees>
            </Position>
            <AltitudeMeters>89.1999969482421875</AltitudeMeters>
            <DistanceMeters>NAN</DistanceMeters>
          </Trackpoint>
          <Trackpoint>
            <Time>2020-05-25T04:44:20.000Z</Time>
            <Position>
              <LatitudeDegrees>38.0261594988405704498291015625</LatitudeDegrees>
              <LongitudeDegrees>-1.14132712595164775848388671875</LongitudeDegrees>
            </Position>
            <AltitudeMeters>89.1999969482421875</AltitudeMeters>
            <DistanceMeters>NAN</DistanceMeters>
          </Trackpoint>
          <Trackpoint>
            <Time>2020-05-25T04:44:21.000Z</Time>
            <Position>
              <LatitudeDegrees>38.0261594988405704498291015625</LatitudeDegrees>
              <LongitudeDegrees>-1.14132712595164775848388671875</LongitudeDegrees>
            </Position>
            <AltitudeMeters>89.1999969482421875</AltitudeMeters>
            <DistanceMeters>NAN</DistanceMeters>
          </Trackpoint>
          <Trackpoint>
            <Time>2020-05-25T04:44:22.000Z</Time>
            <Position>
              <LatitudeDegrees>38.0262171663343906402587890625</LatitudeDegrees>
              <LongitudeDegrees>-1.141277253627777099609375</LongitudeDegrees>
            </Position>
            <AltitudeMeters>89.1999969482421875</AltitudeMeters>
            <DistanceMeters>NAN</DistanceMeters>
          </Trackpoint>
          <Trackpoint>
            <Time>2020-05-25T04:44:23.000Z</Time>
            <Position>
              <LatitudeDegrees>38.0262691341340541839599609375</LatitudeDegrees>
              <LongitudeDegrees>-1.14121891558170318603515625</LongitudeDegrees>
            </Position>
            <AltitudeMeters>89.1999969482421875</AltitudeMeters>
            <DistanceMeters>NAN</DistanceMeters>
          </Trackpoint>
          <Trackpoint>
            <Time>2020-05-25T04:44:24.000Z</Time>
            <Position>
              <LatitudeDegrees>38.0263506062328815460205078125</LatitudeDegrees>
              <LongitudeDegrees>-1.14107969217002391815185546875</LongitudeDegrees>
            </Position>
            <AltitudeMeters>89.1999969482421875</AltitudeMeters>
            <DistanceMeters>NAN</DistanceMeters>
          </Trackpoint>
          <Trackpoint>
            <Time>2020-05-25T04:44:25.000Z</Time>
            <Position>
              <LatitudeDegrees>38.02638421766459941864013671875</LatitudeDegrees>
              <LongitudeDegrees>-1.1410055123269557952880859375</LongitudeDegrees>
            </Position>
            <AltitudeMeters>89.1999969482421875</AltitudeMeters>
            <DistanceMeters>NAN</DistanceMeters>
          </Trackpoint>
          <Trackpoint>
            <Time>2020-05-25T04:44:26.000Z</Time>
            <Position>
              <LatitudeDegrees>38.0264169909060001373291015625</LatitudeDegrees>
              <LongitudeDegrees>-1.140932254493236541748046875</LongitudeDegrees>
            </Position>
            <AltitudeMeters>89.1999969482421875</AltitudeMeters>
            <DistanceMeters>NAN</DistanceMeters>
          </Trackpoint>
          <Trackpoint>
            <Time>2020-05-25T04:44:27.000Z</Time>
            <Position>
              <LatitudeDegrees>38.0264169909060001373291015625</LatitudeDegrees>
              <LongitudeDegrees>-1.140932254493236541748046875</LongitudeDegrees>
            </Position>
            <AltitudeMeters>89.1999969482421875</AltitudeMeters>
            <DistanceMeters>NAN</DistanceMeters>
          </Trackpoint>
          <Trackpoint>
            <Time>2020-05-25T04:44:28.000Z</Time>
            <Position>
              <LatitudeDegrees>38.026448674499988555908203125</LatitudeDegrees>
              <LongitudeDegrees>-1.1408593319356441497802734375</LongitudeDegrees>
            </Position>
            <AltitudeMeters>89.1999969482421875</AltitudeMeters>
            <DistanceMeters>NAN</DistanceMeters>
          </Trackpoint>
          <Trackpoint>
            <Time>2020-05-25T04:44:29.000Z</Time>
            <Position>
              <LatitudeDegrees>38.026480190455913543701171875</LatitudeDegrees>
              <LongitudeDegrees>-1.14078716374933719635009765625</LongitudeDegrees>
            </Position>
            <AltitudeMeters>89.1999969482421875</AltitudeMeters>
            <DistanceMeters>NAN</DistanceMeters>
          </Trackpoint>
          <Trackpoint>
            <Time>2020-05-25T04:44:30.000Z</Time>
            <Position>
              <LatitudeDegrees>38.0265440605580806732177734375</LatitudeDegrees>
              <LongitudeDegrees>-1.140644252300262451171875</LongitudeDegrees>
            </Position>
            <AltitudeMeters>89.59999847412109375</AltitudeMeters>
            <DistanceMeters>NAN</DistanceMeters>
          </Trackpoint>
          <Trackpoint>
            <Time>2020-05-25T04:44:31.000Z</Time>
            <Position>
              <LatitudeDegrees>38.0265440605580806732177734375</LatitudeDegrees>
              <LongitudeDegrees>-1.140644252300262451171875</LongitudeDegrees>
            </Position>
            <AltitudeMeters>89.59999847412109375</AltitudeMeters>
            <DistanceMeters>NAN</DistanceMeters>
          </Trackpoint>
          <Trackpoint>
            <Time>2020-05-25T04:44:32.000Z</Time>
            <Position>
              <LatitudeDegrees>38.0266074277460575103759765625</LatitudeDegrees>
              <LongitudeDegrees>-1.140499748289585113525390625</LongitudeDegrees>
            </Position>
            <AltitudeMeters>89.59999847412109375</AltitudeMeters>
            <DistanceMeters>NAN</DistanceMeters>
          </Trackpoint>
          <Trackpoint>
            <Time>2020-05-25T04:44:33.000Z</Time>
            <Position>
              <LatitudeDegrees>38.0266074277460575103759765625</LatitudeDegrees>
              <LongitudeDegrees>-1.140499748289585113525390625</LongitudeDegrees>
            </Position>
            <AltitudeMeters>89.59999847412109375</AltitudeMeters>
            <DistanceMeters>NAN</DistanceMeters>
          </Trackpoint>
          <Trackpoint>
            <Time>2020-05-25T04:44:34.000Z</Time>
            <Position>
              <LatitudeDegrees>38.02664070390164852142333984375</LatitudeDegrees>
              <LongitudeDegrees>-1.1404281668365001678466796875</LongitudeDegrees>
            </Position>
            <AltitudeMeters>89.8000030517578125</AltitudeMeters>
            <DistanceMeters>NAN</DistanceMeters>
          </Trackpoint>
          <Trackpoint>
            <Time>2020-05-25T04:44:35.000Z</Time>
            <Position>
              <LatitudeDegrees>38.02667490206658840179443359375</LatitudeDegrees>
              <LongitudeDegrees>-1.14035717211663722991943359375</LongitudeDegrees>
            </Position>
            <AltitudeMeters>90</AltitudeMeters>
            <DistanceMeters>NAN</DistanceMeters>
          </Trackpoint>
          <Trackpoint>
            <Time>2020-05-25T04:44:36.000Z</Time>
            <Position>
              <LatitudeDegrees>38.026741705834865570068359375</LatitudeDegrees>
              <LongitudeDegrees>-1.1402129195630550384521484375</LongitudeDegrees>
            </Position>
            <AltitudeMeters>90.1999969482421875</AltitudeMeters>
            <DistanceMeters>NAN</DistanceMeters>
          </Trackpoint>
          <Trackpoint>
            <Time>2020-05-25T04:44:37.000Z</Time>
            <Position>
              <LatitudeDegrees>38.0267754010856151580810546875</LatitudeDegrees>
              <LongitudeDegrees>-1.14014041610062122344970703125</LongitudeDegrees>
            </Position>
            <AltitudeMeters>90.40000152587890625</AltitudeMeters>
            <DistanceMeters>NAN</DistanceMeters>
          </Trackpoint>
          <Trackpoint>
            <Time>2020-05-25T04:44:38.000Z</Time>
            <Position>
              <LatitudeDegrees>38.026807419955730438232421875</LatitudeDegrees>
              <LongitudeDegrees>-1.14006715826690196990966796875</LongitudeDegrees>
            </Position>
            <AltitudeMeters>90.59999847412109375</AltitudeMeters>
            <DistanceMeters>NAN</DistanceMeters>
          </Trackpoint>
          <Trackpoint>
            <Time>2020-05-25T04:44:39.000Z</Time>
            <Position>
              <LatitudeDegrees>38.026807419955730438232421875</LatitudeDegrees>
              <LongitudeDegrees>-1.14006715826690196990966796875</LongitudeDegrees>
            </Position>
            <AltitudeMeters>90.59999847412109375</AltitudeMeters>
            <DistanceMeters>NAN</DistanceMeters>
          </Trackpoint>
          <Trackpoint>
            <Time>2020-05-25T04:44:40.000Z</Time>
            <Position>
              <LatitudeDegrees>38.02683834917843341827392578125</LatitudeDegrees>
              <LongitudeDegrees>-1.1399939842522144317626953125</LongitudeDegrees>
            </Position>
            <AltitudeMeters>90.59999847412109375</AltitudeMeters>
            <DistanceMeters>NAN</DistanceMeters>
          </Trackpoint>
          <Trackpoint>
            <Time>2020-05-25T04:44:41.000Z</Time>
            <Position>
              <LatitudeDegrees>38.02690104581415653228759765625</LatitudeDegrees>
              <LongitudeDegrees>-1.13984830677509307861328125</LongitudeDegrees>
            </Position>
            <AltitudeMeters>90.59999847412109375</AltitudeMeters>
            <DistanceMeters>NAN</DistanceMeters>
          </Trackpoint>
          <Trackpoint>
            <Time>2020-05-25T04:44:42.000Z</Time>
            <Position>
              <LatitudeDegrees>38.0269323103129863739013671875</LatitudeDegrees>
              <LongitudeDegrees>-1.13977479748427867889404296875</LongitudeDegrees>
            </Position>
            <AltitudeMeters>90.8000030517578125</AltitudeMeters>
            <DistanceMeters>NAN</DistanceMeters>
          </Trackpoint>
          <Trackpoint>
            <Time>2020-05-25T04:44:43.000Z</Time>
            <Position>
              <LatitudeDegrees>38.0269323103129863739013671875</LatitudeDegrees>
              <LongitudeDegrees>-1.13977479748427867889404296875</LongitudeDegrees>
            </Position>
            <AltitudeMeters>91</AltitudeMeters>
            <DistanceMeters>NAN</DistanceMeters>
          </Trackpoint>
          <Trackpoint>
            <Time>2020-05-25T04:44:44.000Z</Time>
            <Position>
              <LatitudeDegrees>38.02699408493936061859130859375</LatitudeDegrees>
              <LongitudeDegrees>-1.1396265216171741485595703125</LongitudeDegrees>
            </Position>
            <AltitudeMeters>91.1999969482421875</AltitudeMeters>
            <DistanceMeters>NAN</DistanceMeters>
          </Trackpoint>
          <Trackpoint>
            <Time>2020-05-25T04:44:45.000Z</Time>
            <Position>
              <LatitudeDegrees>38.02702493034303188323974609375</LatitudeDegrees>
              <LongitudeDegrees>-1.13955234177410602569580078125</LongitudeDegrees>
            </Position>
            <AltitudeMeters>91.1999969482421875</AltitudeMeters>
            <DistanceMeters>NAN</DistanceMeters>
          </Trackpoint>
          <Trackpoint>
            <Time>2020-05-25T04:44:46.000Z</Time>
            <Position>
              <LatitudeDegrees>38.02702493034303188323974609375</LatitudeDegrees>
              <LongitudeDegrees>-1.13955234177410602569580078125</LongitudeDegrees>
            </Position>
            <AltitudeMeters>91.1999969482421875</AltitudeMeters>
            <DistanceMeters>NAN</DistanceMeters>
          </Trackpoint>
          <Trackpoint>
            <Time>2020-05-25T04:44:47.000Z</Time>
            <Position>
              <LatitudeDegrees>38.02705711685121059417724609375</LatitudeDegrees>
              <LongitudeDegrees>-1.13947858102619647979736328125</LongitudeDegrees>
            </Position>
            <AltitudeMeters>91.40000152587890625</AltitudeMeters>
            <DistanceMeters>NAN</DistanceMeters>
          </Trackpoint>
          <Trackpoint>
            <Time>2020-05-25T04:44:48.000Z</Time>
            <Position>
              <LatitudeDegrees>38.027122579514980316162109375</LatitudeDegrees>
              <LongitudeDegrees>-1.13932703621685504913330078125</LongitudeDegrees>
            </Position>
            <AltitudeMeters>91.40000152587890625</AltitudeMeters>
            <DistanceMeters>NAN</DistanceMeters>
          </Trackpoint>
          <Trackpoint>
            <Time>2020-05-25T04:44:49.000Z</Time>
            <Position>
              <LatitudeDegrees>38.027156107127666473388671875</LatitudeDegrees>
              <LongitudeDegrees>-1.13924841396510601043701171875</LongitudeDegrees>
            </Position>
            <AltitudeMeters>91.59999847412109375</AltitudeMeters>
            <DistanceMeters>NAN</DistanceMeters>
          </Trackpoint>
          <Trackpoint>
            <Time>2020-05-25T04:44:50.000Z</Time>
            <Position>
              <LatitudeDegrees>38.0271913111209869384765625</LatitudeDegrees>
              <LongitudeDegrees>-1.13916912116110324859619140625</LongitudeDegrees>
            </Position>
            <AltitudeMeters>91.8000030517578125</AltitudeMeters>
            <DistanceMeters>NAN</DistanceMeters>
          </Trackpoint>
          <Trackpoint>
            <Time>2020-05-25T04:44:51.000Z</Time>
            <Position>
              <LatitudeDegrees>38.0272270180284976959228515625</LatitudeDegrees>
              <LongitudeDegrees>-1.1390890739858150482177734375</LongitudeDegrees>
            </Position>
            <AltitudeMeters>91.8000030517578125</AltitudeMeters>
            <DistanceMeters>NAN</DistanceMeters>
          </Trackpoint>
          <Trackpoint>
            <Time>2020-05-25T04:44:52.000Z</Time>
            <Position>
              <LatitudeDegrees>38.0272270180284976959228515625</LatitudeDegrees>
              <LongitudeDegrees>-1.1390890739858150482177734375</LongitudeDegrees>
            </Position>
            <AltitudeMeters>92</AltitudeMeters>
            <DistanceMeters>NAN</DistanceMeters>
          </Trackpoint>
          <Trackpoint>
            <Time>2020-05-25T04:44:53.000Z</Time>
            <Position>
              <LatitudeDegrees>38.0272970907390117645263671875</LatitudeDegrees>
              <LongitudeDegrees>-1.13892638124525547027587890625</LongitudeDegrees>
            </Position>
            <AltitudeMeters>92.1999969482421875</AltitudeMeters>
            <DistanceMeters>NAN</DistanceMeters>
          </Trackpoint>
          <Trackpoint>
            <Time>2020-05-25T04:44:54.000Z</Time>
            <Position>
              <LatitudeDegrees>38.02733388729393482208251953125</LatitudeDegrees>
              <LongitudeDegrees>-1.1388456635177135467529296875</LongitudeDegrees>
            </Position>
            <AltitudeMeters>92.1999969482421875</AltitudeMeters>
            <DistanceMeters>NAN</DistanceMeters>
          </Trackpoint>
          <Trackpoint>
            <Time>2020-05-25T04:44:55.000Z</Time>
            <Position>
              <LatitudeDegrees>38.02736959420144557952880859375</LatitudeDegrees>
              <LongitudeDegrees>-1.13876402378082275390625</LongitudeDegrees>
            </Position>
            <AltitudeMeters>92.1999969482421875</AltitudeMeters>
            <DistanceMeters>NAN</DistanceMeters>
          </Trackpoint>
          <Trackpoint>
            <Time>2020-05-25T04:44:56.000Z</Time>
            <Position>
              <LatitudeDegrees>38.02740412764251232147216796875</LatitudeDegrees>
              <LongitudeDegrees>-1.13868129439651966094970703125</LongitudeDegrees>
            </Position>
            <AltitudeMeters>92.1999969482421875</AltitudeMeters>
            <DistanceMeters>NAN</DistanceMeters>
          </Trackpoint>
          <Trackpoint>
            <Time>2020-05-25T04:44:57.000Z</Time>
            <Position>
              <LatitudeDegrees>38.02740412764251232147216796875</LatitudeDegrees>
              <LongitudeDegrees>-1.13868129439651966094970703125</LongitudeDegrees>
            </Position>
            <AltitudeMeters>92.1999969482421875</AltitudeMeters>
            <DistanceMeters>NAN</DistanceMeters>
          </Trackpoint>
          <Trackpoint>
            <Time>2020-05-25T04:44:58.000Z</Time>
            <Position>
              <LatitudeDegrees>38.0274399183690547943115234375</LatitudeDegrees>
              <LongitudeDegrees>-1.138600073754787445068359375</LongitudeDegrees>
            </Position>
            <AltitudeMeters>92.1999969482421875</AltitudeMeters>
            <DistanceMeters>NAN</DistanceMeters>
          </Trackpoint>
          <Trackpoint>
            <Time>2020-05-25T04:44:59.000Z</Time>
            <Position>
              <LatitudeDegrees>38.02747470326721668243408203125</LatitudeDegrees>
              <LongitudeDegrees>-1.13851985894143581390380859375</LongitudeDegrees>
            </Position>
            <AltitudeMeters>92.1999969482421875</AltitudeMeters>
            <DistanceMeters>NAN</DistanceMeters>
          </Trackpoint>
          <Trackpoint>
            <Time>2020-05-25T04:45:00.000Z</Time>
            <Position>
              <LatitudeDegrees>38.02754259668290615081787109375</LatitudeDegrees>
              <LongitudeDegrees>-1.13835741765797138214111328125</LongitudeDegrees>
            </Position>
            <AltitudeMeters>92.1999969482421875</AltitudeMeters>
            <DistanceMeters>NAN</DistanceMeters>
          </Trackpoint>
          <Trackpoint>
            <Time>2020-05-25T04:45:01.000Z</Time>
            <Position>
              <LatitudeDegrees>38.027578890323638916015625</LatitudeDegrees>
              <LongitudeDegrees>-1.1382760293781757354736328125</LongitudeDegrees>
            </Position>
            <AltitudeMeters>92.1999969482421875</AltitudeMeters>
            <DistanceMeters>NAN</DistanceMeters>
          </Trackpoint>
          <Trackpoint>
            <Time>2020-05-25T04:45:02.000Z</Time>
            <Position>
              <LatitudeDegrees>38.02761635743081569671630859375</LatitudeDegrees>
              <LongitudeDegrees>-1.1381945572793483734130859375</LongitudeDegrees>
            </Position>
            <AltitudeMeters>92.1999969482421875</AltitudeMeters>
            <DistanceMeters>NAN</DistanceMeters>
          </Trackpoint>
          <Trackpoint>
            <Time>2020-05-25T04:45:03.000Z</Time>
            <Position>
              <LatitudeDegrees>38.02765340544283390045166015625</LatitudeDegrees>
              <LongitudeDegrees>-1.138111911714076995849609375</LongitudeDegrees>
            </Position>
            <AltitudeMeters>92</AltitudeMeters>
            <DistanceMeters>NAN</DistanceMeters>
          </Trackpoint>
          <Trackpoint>
            <Time>2020-05-25T04:45:04.000Z</Time>
            <Position>
              <LatitudeDegrees>38.02765340544283390045166015625</LatitudeDegrees>
              <LongitudeDegrees>-1.138111911714076995849609375</LongitudeDegrees>
            </Position>
            <AltitudeMeters>92</AltitudeMeters>
            <DistanceMeters>NAN</DistanceMeters>
          </Trackpoint>
          <Trackpoint>
            <Time>2020-05-25T04:45:05.000Z</Time>
            <Position>
              <LatitudeDegrees>38.02772599272429943084716796875</LatitudeDegrees>
              <LongitudeDegrees>-1.137944273650646209716796875</LongitudeDegrees>
            </Position>
            <AltitudeMeters>92</AltitudeMeters>
            <DistanceMeters>NAN</DistanceMeters>
          </Trackpoint>
          <Trackpoint>
            <Time>2020-05-25T04:45:06.000Z</Time>
            <Position>
              <LatitudeDegrees>38.02776060998439788818359375</LatitudeDegrees>
              <LongitudeDegrees>-1.137860119342803955078125</LongitudeDegrees>
            </Position>
            <AltitudeMeters>92</AltitudeMeters>
            <DistanceMeters>NAN</DistanceMeters>
          </Trackpoint>
          <Trackpoint>
            <Time>2020-05-25T04:45:07.000Z</Time>
            <Position>
              <LatitudeDegrees>38.02776060998439788818359375</LatitudeDegrees>
              <LongitudeDegrees>-1.137860119342803955078125</LongitudeDegrees>
            </Position>
            <AltitudeMeters>91.8000030517578125</AltitudeMeters>
            <DistanceMeters>NAN</DistanceMeters>
          </Trackpoint>
          <Trackpoint>
            <Time>2020-05-25T04:45:08.000Z</Time>
            <Position>
              <LatitudeDegrees>38.027805872261524200439453125</LatitudeDegrees>
              <LongitudeDegrees>-1.13767999224364757537841796875</LongitudeDegrees>
            </Position>
            <AltitudeMeters>91.8000030517578125</AltitudeMeters>
            <DistanceMeters>NAN</DistanceMeters>
          </Trackpoint>
          <Trackpoint>
            <Time>2020-05-25T04:45:09.000Z</Time>
            <Position>
              <LatitudeDegrees>38.027805872261524200439453125</LatitudeDegrees>
              <LongitudeDegrees>-1.13767999224364757537841796875</LongitudeDegrees>
            </Position>
            <AltitudeMeters>91.59999847412109375</AltitudeMeters>
            <DistanceMeters>NAN</DistanceMeters>
          </Trackpoint>
          <Trackpoint>
            <Time>2020-05-25T04:45:10.000Z</Time>
            <Position>
              <LatitudeDegrees>38.02781584672629833221435546875</LatitudeDegrees>
              <LongitudeDegrees>-1.1375880427658557891845703125</LongitudeDegrees>
            </Position>
            <AltitudeMeters>91.40000152587890625</AltitudeMeters>
            <DistanceMeters>NAN</DistanceMeters>
          </Trackpoint>
          <Trackpoint>
            <Time>2020-05-25T04:45:11.000Z</Time>
            <Position>
              <LatitudeDegrees>38.0278305150568485260009765625</LatitudeDegrees>
              <LongitudeDegrees>-1.13750028423964977264404296875</LongitudeDegrees>
            </Position>
            <AltitudeMeters>91.40000152587890625</AltitudeMeters>
            <DistanceMeters>NAN</DistanceMeters>
          </Trackpoint>
          <Trackpoint>
            <Time>2020-05-25T04:45:12.000Z</Time>
            <Position>
              <LatitudeDegrees>38.0279036052525043487548828125</LatitudeDegrees>
              <LongitudeDegrees>-1.13735058344900608062744140625</LongitudeDegrees>
            </Position>
            <AltitudeMeters>91.1999969482421875</AltitudeMeters>
            <DistanceMeters>NAN</DistanceMeters>
          </Trackpoint>
          <Trackpoint>
            <Time>2020-05-25T04:45:13.000Z</Time>
            <Position>
              <LatitudeDegrees>38.0279036052525043487548828125</LatitudeDegrees>
              <LongitudeDegrees>-1.13735058344900608062744140625</LongitudeDegrees>
            </Position>
            <AltitudeMeters>91</AltitudeMeters>
            <DistanceMeters>NAN</DistanceMeters>
          </Trackpoint>
          <Trackpoint>
            <Time>2020-05-25T04:45:14.000Z</Time>
            <Position>
              <LatitudeDegrees>38.02800737321376800537109375</LatitudeDegrees>
              <LongitudeDegrees>-1.13722552545368671417236328125</LongitudeDegrees>
            </Position>
            <AltitudeMeters>90.8000030517578125</AltitudeMeters>
            <DistanceMeters>NAN</DistanceMeters>
          </Trackpoint>
          <Trackpoint>
            <Time>2020-05-25T04:45:15.000Z</Time>
            <Position>
              <LatitudeDegrees>38.02800737321376800537109375</LatitudeDegrees>
              <LongitudeDegrees>-1.13722552545368671417236328125</LongitudeDegrees>
            </Position>
            <AltitudeMeters>90.8000030517578125</AltitudeMeters>
            <DistanceMeters>NAN</DistanceMeters>
          </Trackpoint>
          <Trackpoint>
            <Time>2020-05-25T04:45:16.000Z</Time>
            <Position>
              <LatitudeDegrees>38.0280551500618457794189453125</LatitudeDegrees>
              <LongitudeDegrees>-1.13715478219091892242431640625</LongitudeDegrees>
            </Position>
            <AltitudeMeters>90.8000030517578125</AltitudeMeters>
            <DistanceMeters>NAN</DistanceMeters>
          </Trackpoint>
          <Trackpoint>
            <Time>2020-05-25T04:45:17.000Z</Time>
            <Position>
              <LatitudeDegrees>38.02813435904681682586669921875</LatitudeDegrees>
              <LongitudeDegrees>-1.13699401728808879852294921875</LongitudeDegrees>
            </Position>
            <AltitudeMeters>90.8000030517578125</AltitudeMeters>
            <DistanceMeters>NAN</DistanceMeters>
          </Trackpoint>
          <Trackpoint>
            <Time>2020-05-25T04:45:18.000Z</Time>
            <Position>
              <LatitudeDegrees>38.0281714908778667449951171875</LatitudeDegrees>
              <LongitudeDegrees>-1.13691003061830997467041015625</LongitudeDegrees>
            </Position>
            <AltitudeMeters>90.59999847412109375</AltitudeMeters>
            <DistanceMeters>NAN</DistanceMeters>
          </Trackpoint>
          <Trackpoint>
            <Time>2020-05-25T04:45:19.000Z</Time>
            <Position>
              <LatitudeDegrees>38.0281714908778667449951171875</LatitudeDegrees>
              <LongitudeDegrees>-1.13691003061830997467041015625</LongitudeDegrees>
            </Position>
            <AltitudeMeters>90.59999847412109375</AltitudeMeters>
            <DistanceMeters>NAN</DistanceMeters>
          </Trackpoint>
          <Trackpoint>
            <Time>2020-05-25T04:45:20.000Z</Time>
            <Position>
              <LatitudeDegrees>38.02824466489255428314208984375</LatitudeDegrees>
              <LongitudeDegrees>-1.1367394588887691497802734375</LongitudeDegrees>
            </Position>
            <AltitudeMeters>90.59999847412109375</AltitudeMeters>
            <DistanceMeters>NAN</DistanceMeters>
          </Trackpoint>
          <Trackpoint>
            <Time>2020-05-25T04:45:21.000Z</Time>
            <Position>
              <LatitudeDegrees>38.02824466489255428314208984375</LatitudeDegrees>
              <LongitudeDegrees>-1.1367394588887691497802734375</LongitudeDegrees>
            </Position>
            <AltitudeMeters>90.59999847412109375</AltitudeMeters>
            <DistanceMeters>NAN</DistanceMeters>
          </Trackpoint>
          <Trackpoint>
            <Time>2020-05-25T04:45:22.000Z</Time>
            <Position>
              <LatitudeDegrees>38.02828255109488964080810546875</LatitudeDegrees>
              <LongitudeDegrees>-1.1366549693048000335693359375</LongitudeDegrees>
            </Position>
            <AltitudeMeters>90.59999847412109375</AltitudeMeters>
            <DistanceMeters>NAN</DistanceMeters>
          </Trackpoint>
          <Trackpoint>
            <Time>2020-05-25T04:45:23.000Z</Time>
            <Position>
              <LatitudeDegrees>38.02832026965916156768798828125</LatitudeDegrees>
              <LongitudeDegrees>-1.13657089881598949432373046875</LongitudeDegrees>
            </Position>
            <AltitudeMeters>90.59999847412109375</AltitudeMeters>
            <DistanceMeters>NAN</DistanceMeters>
          </Trackpoint>
          <Trackpoint>
            <Time>2020-05-25T04:45:24.000Z</Time>
            <Position>
              <LatitudeDegrees>38.02839403040707111358642578125</LatitudeDegrees>
              <LongitudeDegrees>-1.13640191964805126190185546875</LongitudeDegrees>
            </Position>
            <AltitudeMeters>90.40000152587890625</AltitudeMeters>
            <DistanceMeters>NAN</DistanceMeters>
          </Trackpoint>
          <Trackpoint>
            <Time>2020-05-25T04:45:25.000Z</Time>
            <Position>
              <LatitudeDegrees>38.02839403040707111358642578125</LatitudeDegrees>
              <LongitudeDegrees>-1.13640191964805126190185546875</LongitudeDegrees>
            </Position>
            <AltitudeMeters>90.40000152587890625</AltitudeMeters>
            <DistanceMeters>NAN</DistanceMeters>
          </Trackpoint>
          <Trackpoint>
            <Time>2020-05-25T04:45:26.000Z</Time>
            <Position>
              <LatitudeDegrees>38.028468377888202667236328125</LatitudeDegrees>
              <LongitudeDegrees>-1.13623260520398616790771484375</LongitudeDegrees>
            </Position>
            <AltitudeMeters>90.40000152587890625</AltitudeMeters>
            <DistanceMeters>NAN</DistanceMeters>
          </Trackpoint>
          <Trackpoint>
            <Time>2020-05-25T04:45:27.000Z</Time>
            <Position>
              <LatitudeDegrees>38.02850550971925258636474609375</LatitudeDegrees>
              <LongitudeDegrees>-1.136148534715175628662109375</LongitudeDegrees>
            </Position>
            <AltitudeMeters>90.40000152587890625</AltitudeMeters>
            <DistanceMeters>NAN</DistanceMeters>
          </Trackpoint>
          <Trackpoint>
            <Time>2020-05-25T04:45:28.000Z</Time>
            <Position>
              <LatitudeDegrees>38.02850550971925258636474609375</LatitudeDegrees>
              <LongitudeDegrees>-1.136148534715175628662109375</LongitudeDegrees>
            </Position>
            <AltitudeMeters>90.40000152587890625</AltitudeMeters>
            <DistanceMeters>NAN</DistanceMeters>
          </Trackpoint>
          <Trackpoint>
            <Time>2020-05-25T04:45:29.000Z</Time>
            <Position>
              <LatitudeDegrees>38.0285423062741756439208984375</LatitudeDegrees>
              <LongitudeDegrees>-1.1360648833215236663818359375</LongitudeDegrees>
            </Position>
            <AltitudeMeters>90.40000152587890625</AltitudeMeters>
            <DistanceMeters>NAN</DistanceMeters>
          </Trackpoint>
          <Trackpoint>
            <Time>2020-05-25T04:45:30.000Z</Time>
            <Position>
              <LatitudeDegrees>38.02861598320305347442626953125</LatitudeDegrees>
              <LongitudeDegrees>-1.1358985863626003265380859375</LongitudeDegrees>
            </Position>
            <AltitudeMeters>90.1999969482421875</AltitudeMeters>
            <DistanceMeters>NAN</DistanceMeters>
          </Trackpoint>
          <Trackpoint>
            <Time>2020-05-25T04:45:31.000Z</Time>
            <Position>
              <LatitudeDegrees>38.02861598320305347442626953125</LatitudeDegrees>
              <LongitudeDegrees>-1.1358985863626003265380859375</LongitudeDegrees>
            </Position>
            <AltitudeMeters>90.1999969482421875</AltitudeMeters>
            <DistanceMeters>NAN</DistanceMeters>
          </Trackpoint>
          <Trackpoint>
            <Time>2020-05-25T04:45:32.000Z</Time>
            <Position>
              <LatitudeDegrees>38.02868722938001155853271484375</LatitudeDegrees>
              <LongitudeDegrees>-1.13573220558464527130126953125</LongitudeDegrees>
            </Position>
            <AltitudeMeters>90.1999969482421875</AltitudeMeters>
            <DistanceMeters>NAN</DistanceMeters>
          </Trackpoint>
          <Trackpoint>
            <Time>2020-05-25T04:45:33.000Z</Time>
            <Position>
              <LatitudeDegrees>38.02868722938001155853271484375</LatitudeDegrees>
              <LongitudeDegrees>-1.13573220558464527130126953125</LongitudeDegrees>
            </Position>
            <AltitudeMeters>90.1999969482421875</AltitudeMeters>
            <DistanceMeters>NAN</DistanceMeters>
          </Trackpoint>
          <Trackpoint>
            <Time>2020-05-25T04:45:34.000Z</Time>
            <Position>
              <LatitudeDegrees>38.02871841005980968475341796875</LatitudeDegrees>
              <LongitudeDegrees>-1.1356488056480884552001953125</LongitudeDegrees>
            </Position>
            <AltitudeMeters>90.1999969482421875</AltitudeMeters>
            <DistanceMeters>NAN</DistanceMeters>
          </Trackpoint>
          <Trackpoint>
            <Time>2020-05-25T04:45:35.000Z</Time>
            <Position>
              <LatitudeDegrees>38.0287387780845165252685546875</LatitudeDegrees>
              <LongitudeDegrees>-1.13556255586445331573486328125</LongitudeDegrees>
            </Position>
            <AltitudeMeters>90</AltitudeMeters>
            <DistanceMeters>NAN</DistanceMeters>
          </Trackpoint>
          <Trackpoint>
            <Time>2020-05-25T04:45:36.000Z</Time>
            <Position>
              <LatitudeDegrees>38.02875210531055927276611328125</LatitudeDegrees>
              <LongitudeDegrees>-1.13538645207881927490234375</LongitudeDegrees>
            </Position>
            <AltitudeMeters>90.1999969482421875</AltitudeMeters>
            <DistanceMeters>NAN</DistanceMeters>
          </Trackpoint>
          <Trackpoint>
            <Time>2020-05-25T04:45:37.000Z</Time>
            <Position>
              <LatitudeDegrees>38.02875210531055927276611328125</LatitudeDegrees>
              <LongitudeDegrees>-1.13538645207881927490234375</LongitudeDegrees>
            </Position>
            <AltitudeMeters>90.1999969482421875</AltitudeMeters>
            <DistanceMeters>NAN</DistanceMeters>
          </Trackpoint>
          <Trackpoint>
            <Time>2020-05-25T04:45:38.000Z</Time>
            <Position>
              <LatitudeDegrees>38.02879728376865386962890625</LatitudeDegrees>
              <LongitudeDegrees>-1.1352213285863399505615234375</LongitudeDegrees>
            </Position>
            <AltitudeMeters>90.1999969482421875</AltitudeMeters>
            <DistanceMeters>NAN</DistanceMeters>
          </Trackpoint>
          <Trackpoint>
            <Time>2020-05-25T04:45:39.000Z</Time>
            <Position>
              <LatitudeDegrees>38.02879728376865386962890625</LatitudeDegrees>
              <LongitudeDegrees>-1.1352213285863399505615234375</LongitudeDegrees>
            </Position>
            <AltitudeMeters>90.1999969482421875</AltitudeMeters>
            <DistanceMeters>NAN</DistanceMeters>
          </Trackpoint>
          <Trackpoint>
            <Time>2020-05-25T04:45:40.000Z</Time>
            <Position>
              <LatitudeDegrees>38.02884078584611415863037109375</LatitudeDegrees>
              <LongitudeDegrees>-1.13515318371355533599853515625</LongitudeDegrees>
            </Position>
            <AltitudeMeters>90.1999969482421875</AltitudeMeters>
            <DistanceMeters>NAN</DistanceMeters>
          </Trackpoint>
          <Trackpoint>
            <Time>2020-05-25T04:45:41.000Z</Time>
            <Position>
              <LatitudeDegrees>38.0288945138454437255859375</LatitudeDegrees>
              <LongitudeDegrees>-1.13509803079068660736083984375</LongitudeDegrees>
            </Position>
            <AltitudeMeters>90.1999969482421875</AltitudeMeters>
            <DistanceMeters>NAN</DistanceMeters>
          </Trackpoint>
          <Trackpoint>
            <Time>2020-05-25T04:45:42.000Z</Time>
            <Position>
              <LatitudeDegrees>38.02895260043442249298095703125</LatitudeDegrees>
              <LongitudeDegrees>-1.135049164295196533203125</LongitudeDegrees>
            </Position>
            <AltitudeMeters>90</AltitudeMeters>
            <DistanceMeters>NAN</DistanceMeters>
          </Trackpoint>
          <Trackpoint>
            <Time>2020-05-25T04:45:43.000Z</Time>
            <Position>
              <LatitudeDegrees>38.02900993265211582183837890625</LatitudeDegrees>
              <LongitudeDegrees>-1.13499593921005725860595703125</LongitudeDegrees>
            </Position>
            <AltitudeMeters>90</AltitudeMeters>
            <DistanceMeters>NAN</DistanceMeters>
          </Trackpoint>
          <Trackpoint>
            <Time>2020-05-25T04:45:44.000Z</Time>
            <Position>
              <LatitudeDegrees>38.02910632453858852386474609375</LatitudeDegrees>
              <LongitudeDegrees>-1.13486099056899547576904296875</LongitudeDegrees>
            </Position>
            <AltitudeMeters>90</AltitudeMeters>
            <DistanceMeters>NAN</DistanceMeters>
          </Trackpoint>
          <Trackpoint>
            <Time>2020-05-25T04:45:45.000Z</Time>
            <Position>
              <LatitudeDegrees>38.02910632453858852386474609375</LatitudeDegrees>
              <LongitudeDegrees>-1.13486099056899547576904296875</LongitudeDegrees>
            </Position>
            <AltitudeMeters>90</AltitudeMeters>
            <DistanceMeters>NAN</DistanceMeters>
          </Trackpoint>
          <Trackpoint>
            <Time>2020-05-25T04:45:46.000Z</Time>
            <Position>
              <LatitudeDegrees>38.0291466414928436279296875</LatitudeDegrees>
              <LongitudeDegrees>-1.13478505052626132965087890625</LongitudeDegrees>
            </Position>
            <AltitudeMeters>90</AltitudeMeters>
            <DistanceMeters>NAN</DistanceMeters>
          </Trackpoint>
          <Trackpoint>
            <Time>2020-05-25T04:45:47.000Z</Time>
            <Position>
              <LatitudeDegrees>38.0291857011616230010986328125</LatitudeDegrees>
              <LongitudeDegrees>-1.1347083561122417449951171875</LongitudeDegrees>
            </Position>
            <AltitudeMeters>90</AltitudeMeters>
            <DistanceMeters>NAN</DistanceMeters>
          </Trackpoint>
          <Trackpoint>
            <Time>2020-05-25T04:45:48.000Z</Time>
            <Position>
              <LatitudeDegrees>38.029261641204357147216796875</LatitudeDegrees>
              <LongitudeDegrees>-1.13455337472259998321533203125</LongitudeDegrees>
            </Position>
            <AltitudeMeters>90</AltitudeMeters>
            <DistanceMeters>NAN</DistanceMeters>
          </Trackpoint>
          <Trackpoint>
            <Time>2020-05-25T04:45:49.000Z</Time>
            <Position>
              <LatitudeDegrees>38.029261641204357147216796875</LatitudeDegrees>
              <LongitudeDegrees>-1.13455337472259998321533203125</LongitudeDegrees>
            </Position>
            <AltitudeMeters>90</AltitudeMeters>
            <DistanceMeters>NAN</DistanceMeters>
          </Trackpoint>
          <Trackpoint>
            <Time>2020-05-25T04:45:50.000Z</Time>
            <Position>
              <LatitudeDegrees>38.0293372459709644317626953125</LatitudeDegrees>
              <LongitudeDegrees>-1.1344014108180999755859375</LongitudeDegrees>
            </Position>
            <AltitudeMeters>90</AltitudeMeters>
            <DistanceMeters>NAN</DistanceMeters>
          </Trackpoint>
          <Trackpoint>
            <Time>2020-05-25T04:45:51.000Z</Time>
            <Position>
              <LatitudeDegrees>38.0293372459709644317626953125</LatitudeDegrees>
              <LongitudeDegrees>-1.1344014108180999755859375</LongitudeDegrees>
            </Position>
            <AltitudeMeters>90</AltitudeMeters>
            <DistanceMeters>NAN</DistanceMeters>
          </Trackpoint>
          <Trackpoint>
            <Time>2020-05-25T04:45:52.000Z</Time>
            <Position>
              <LatitudeDegrees>38.0293741263449192047119140625</LatitudeDegrees>
              <LongitudeDegrees>-1.1343251354992389678955078125</LongitudeDegrees>
            </Position>
            <AltitudeMeters>90</AltitudeMeters>
            <DistanceMeters>NAN</DistanceMeters>
          </Trackpoint>
          <Trackpoint>
            <Time>2020-05-25T04:45:53.000Z</Time>
            <Position>
              <LatitudeDegrees>38.02944897674024105072021484375</LatitudeDegrees>
              <LongitudeDegrees>-1.1341739259660243988037109375</LongitudeDegrees>
            </Position>
            <AltitudeMeters>90</AltitudeMeters>
            <DistanceMeters>NAN</DistanceMeters>
          </Trackpoint>
          <Trackpoint>
            <Time>2020-05-25T04:45:54.000Z</Time>
            <Position>
              <LatitudeDegrees>38.02948803640902042388916015625</LatitudeDegrees>
              <LongitudeDegrees>-1.13409957848489284515380859375</LongitudeDegrees>
            </Position>
            <AltitudeMeters>90</AltitudeMeters>
            <DistanceMeters>NAN</DistanceMeters>
          </Trackpoint>
          <Trackpoint>
            <Time>2020-05-25T04:45:55.000Z</Time>
            <Position>
              <LatitudeDegrees>38.02948803640902042388916015625</LatitudeDegrees>
              <LongitudeDegrees>-1.13409957848489284515380859375</LongitudeDegrees>
            </Position>
            <AltitudeMeters>90</AltitudeMeters>
            <DistanceMeters>NAN</DistanceMeters>
          </Trackpoint>
          <Trackpoint>
            <Time>2020-05-25T04:45:56.000Z</Time>
            <Position>
              <LatitudeDegrees>38.02956397645175457000732421875</LatitudeDegrees>
              <LongitudeDegrees>-1.1339469440281391143798828125</LongitudeDegrees>
            </Position>
            <AltitudeMeters>90</AltitudeMeters>
            <DistanceMeters>NAN</DistanceMeters>
          </Trackpoint>
          <Trackpoint>
            <Time>2020-05-25T04:45:57.000Z</Time>
            <Position>
              <LatitudeDegrees>38.02956397645175457000732421875</LatitudeDegrees>
              <LongitudeDegrees>-1.1339469440281391143798828125</LongitudeDegrees>
            </Position>
            <AltitudeMeters>90</AltitudeMeters>
            <DistanceMeters>NAN</DistanceMeters>
          </Trackpoint>
          <Trackpoint>
            <Time>2020-05-25T04:45:58.000Z</Time>
            <Position>
              <LatitudeDegrees>38.0296026170253753662109375</LatitudeDegrees>
              <LongitudeDegrees>-1.1338705010712146759033203125</LongitudeDegrees>
            </Position>
            <AltitudeMeters>90</AltitudeMeters>
            <DistanceMeters>NAN</DistanceMeters>
          </Trackpoint>
          <Trackpoint>
            <Time>2020-05-25T04:45:59.000Z</Time>
            <Position>
              <LatitudeDegrees>38.0296428501605987548828125</LatitudeDegrees>
              <LongitudeDegrees>-1.13379456102848052978515625</LongitudeDegrees>
            </Position>
            <AltitudeMeters>90.1999969482421875</AltitudeMeters>
            <DistanceMeters>NAN</DistanceMeters>
          </Trackpoint>
          <Trackpoint>
            <Time>2020-05-25T04:46:00.000Z</Time>
            <Position>
              <LatitudeDegrees>38.0297241546213626861572265625</LatitudeDegrees>
              <LongitudeDegrees>-1.1336401663720607757568359375</LongitudeDegrees>
            </Position>
            <AltitudeMeters>90.1999969482421875</AltitudeMeters>
            <DistanceMeters>NAN</DistanceMeters>
          </Trackpoint>
          <Trackpoint>
            <Time>2020-05-25T04:46:01.000Z</Time>
            <Position>
              <LatitudeDegrees>38.0297241546213626861572265625</LatitudeDegrees>
              <LongitudeDegrees>-1.1336401663720607757568359375</LongitudeDegrees>
            </Position>
            <AltitudeMeters>90.1999969482421875</AltitudeMeters>
            <DistanceMeters>NAN</DistanceMeters>
          </Trackpoint>
          <Trackpoint>
            <Time>2020-05-25T04:46:02.000Z</Time>
            <Position>
              <LatitudeDegrees>38.02980688400566577911376953125</LatitudeDegrees>
              <LongitudeDegrees>-1.1334825865924358367919921875</LongitudeDegrees>
            </Position>
            <AltitudeMeters>90.1999969482421875</AltitudeMeters>
            <DistanceMeters>NAN</DistanceMeters>
          </Trackpoint>
          <Trackpoint>
            <Time>2020-05-25T04:46:03.000Z</Time>
            <Position>
              <LatitudeDegrees>38.02980688400566577911376953125</LatitudeDegrees>
              <LongitudeDegrees>-1.1334825865924358367919921875</LongitudeDegrees>
            </Position>
            <AltitudeMeters>90.1999969482421875</AltitudeMeters>
            <DistanceMeters>NAN</DistanceMeters>
          </Trackpoint>
          <Trackpoint>
            <Time>2020-05-25T04:46:04.000Z</Time>
            <Position>
              <LatitudeDegrees>38.02984862588346004486083984375</LatitudeDegrees>
              <LongitudeDegrees>-1.13340270705521106719970703125</LongitudeDegrees>
            </Position>
            <AltitudeMeters>90.1999969482421875</AltitudeMeters>
            <DistanceMeters>NAN</DistanceMeters>
          </Trackpoint>
          <Trackpoint>
            <Time>2020-05-25T04:46:05.000Z</Time>
            <Position>
              <LatitudeDegrees>38.029890954494476318359375</LatitudeDegrees>
              <LongitudeDegrees>-1.13332240842282772064208984375</LongitudeDegrees>
            </Position>
            <AltitudeMeters>90.1999969482421875</AltitudeMeters>
            <DistanceMeters>NAN</DistanceMeters>
          </Trackpoint>
          <Trackpoint>
            <Time>2020-05-25T04:46:06.000Z</Time>
            <Position>
              <LatitudeDegrees>38.0299762822687625885009765625</LatitudeDegrees>
              <LongitudeDegrees>-1.1331613920629024505615234375</LongitudeDegrees>
            </Position>
            <AltitudeMeters>90.1999969482421875</AltitudeMeters>
            <DistanceMeters>NAN</DistanceMeters>
          </Trackpoint>
          <Trackpoint>
            <Time>2020-05-25T04:46:07.000Z</Time>
            <Position>
              <LatitudeDegrees>38.0299762822687625885009765625</LatitudeDegrees>
              <LongitudeDegrees>-1.1331613920629024505615234375</LongitudeDegrees>
            </Position>
            <AltitudeMeters>90.1999969482421875</AltitudeMeters>
            <DistanceMeters>NAN</DistanceMeters>
          </Trackpoint>
          <Trackpoint>
            <Time>2020-05-25T04:46:08.000Z</Time>
            <Position>
              <LatitudeDegrees>38.03006102330982685089111328125</LatitudeDegrees>
              <LongitudeDegrees>-1.1329997889697551727294921875</LongitudeDegrees>
            </Position>
            <AltitudeMeters>90.1999969482421875</AltitudeMeters>
            <DistanceMeters>NAN</DistanceMeters>
          </Trackpoint>
          <Trackpoint>
            <Time>2020-05-25T04:46:09.000Z</Time>
            <Position>
              <LatitudeDegrees>38.03006102330982685089111328125</LatitudeDegrees>
              <LongitudeDegrees>-1.1329997889697551727294921875</LongitudeDegrees>
            </Position>
            <AltitudeMeters>90.1999969482421875</AltitudeMeters>
            <DistanceMeters>NAN</DistanceMeters>
          </Trackpoint>
          <Trackpoint>
            <Time>2020-05-25T04:46:10.000Z</Time>
            <Position>
              <LatitudeDegrees>38.03010310046374797821044921875</LatitudeDegrees>
              <LongitudeDegrees>-1.13291856832802295684814453125</LongitudeDegrees>
            </Position>
            <AltitudeMeters>90</AltitudeMeters>
            <DistanceMeters>NAN</DistanceMeters>
          </Trackpoint>
          <Trackpoint>
            <Time>2020-05-25T04:46:11.000Z</Time>
            <Position>
              <LatitudeDegrees>38.0301459319889545440673828125</LatitudeDegrees>
              <LongitudeDegrees>-1.13283793441951274871826171875</LongitudeDegrees>
            </Position>
            <AltitudeMeters>90</AltitudeMeters>
            <DistanceMeters>NAN</DistanceMeters>
          </Trackpoint>
          <Trackpoint>
            <Time>2020-05-25T04:46:12.000Z</Time>
            <Position>
              <LatitudeDegrees>38.030234612524509429931640625</LatitudeDegrees>
              <LongitudeDegrees>-1.132678091526031494140625</LongitudeDegrees>
            </Position>
            <AltitudeMeters>90</AltitudeMeters>
            <DistanceMeters>NAN</DistanceMeters>
          </Trackpoint>
          <Trackpoint>
            <Time>2020-05-25T04:46:13.000Z</Time>
            <Position>
              <LatitudeDegrees>38.030234612524509429931640625</LatitudeDegrees>
              <LongitudeDegrees>-1.132678091526031494140625</LongitudeDegrees>
            </Position>
            <AltitudeMeters>90</AltitudeMeters>
            <DistanceMeters>NAN</DistanceMeters>
          </Trackpoint>
          <Trackpoint>
            <Time>2020-05-25T04:46:14.000Z</Time>
            <Position>
              <LatitudeDegrees>38.03032170049846172332763671875</LatitudeDegrees>
              <LongitudeDegrees>-1.13251791335642337799072265625</LongitudeDegrees>
            </Position>
            <AltitudeMeters>89.8000030517578125</AltitudeMeters>
            <DistanceMeters>NAN</DistanceMeters>
          </Trackpoint>
          <Trackpoint>
            <Time>2020-05-25T04:46:15.000Z</Time>
            <Position>
              <LatitudeDegrees>38.03032170049846172332763671875</LatitudeDegrees>
              <LongitudeDegrees>-1.13251791335642337799072265625</LongitudeDegrees>
            </Position>
            <AltitudeMeters>89.59999847412109375</AltitudeMeters>
            <DistanceMeters>NAN</DistanceMeters>
          </Trackpoint>
          <Trackpoint>
            <Time>2020-05-25T04:46:16.000Z</Time>
            <Position>
              <LatitudeDegrees>38.0303662084043025970458984375</LatitudeDegrees>
              <LongitudeDegrees>-1.13243795000016689300537109375</LongitudeDegrees>
            </Position>
            <AltitudeMeters>89.40000152587890625</AltitudeMeters>
            <DistanceMeters>NAN</DistanceMeters>
          </Trackpoint>
          <Trackpoint>
            <Time>2020-05-25T04:46:17.000Z</Time>
            <Position>
              <LatitudeDegrees>38.03041071631014347076416015625</LatitudeDegrees>
              <LongitudeDegrees>-1.13235832192003726959228515625</LongitudeDegrees>
            </Position>
            <AltitudeMeters>89.40000152587890625</AltitudeMeters>
            <DistanceMeters>NAN</DistanceMeters>
          </Trackpoint>
          <Trackpoint>
            <Time>2020-05-25T04:46:18.000Z</Time>
            <Position>
              <LatitudeDegrees>38.030500821769237518310546875</LatitudeDegrees>
              <LongitudeDegrees>-1.13219956867396831512451171875</LongitudeDegrees>
            </Position>
            <AltitudeMeters>89.40000152587890625</AltitudeMeters>
            <DistanceMeters>NAN</DistanceMeters>
          </Trackpoint>
          <Trackpoint>
            <Time>2020-05-25T04:46:19.000Z</Time>
            <Position>
              <LatitudeDegrees>38.030500821769237518310546875</LatitudeDegrees>
              <LongitudeDegrees>-1.13219956867396831512451171875</LongitudeDegrees>
            </Position>
            <AltitudeMeters>89.40000152587890625</AltitudeMeters>
            <DistanceMeters>NAN</DistanceMeters>
          </Trackpoint>
          <Trackpoint>
            <Time>2020-05-25T04:46:20.000Z</Time>
            <Position>
              <LatitudeDegrees>38.03059302270412445068359375</LatitudeDegrees>
              <LongitudeDegrees>-1.13204098306596279144287109375</LongitudeDegrees>
            </Position>
            <AltitudeMeters>89.1999969482421875</AltitudeMeters>
            <DistanceMeters>NAN</DistanceMeters>
          </Trackpoint>
          <Trackpoint>
            <Time>2020-05-25T04:46:21.000Z</Time>
            <Position>
              <LatitudeDegrees>38.03059302270412445068359375</LatitudeDegrees>
              <LongitudeDegrees>-1.13204098306596279144287109375</LongitudeDegrees>
            </Position>
            <AltitudeMeters>89</AltitudeMeters>
            <DistanceMeters>NAN</DistanceMeters>
          </Trackpoint>
          <Trackpoint>
            <Time>2020-05-25T04:46:22.000Z</Time>
            <Position>
              <LatitudeDegrees>38.0306377820670604705810546875</LatitudeDegrees>
              <LongitudeDegrees>-1.13196101970970630645751953125</LongitudeDegrees>
            </Position>
            <AltitudeMeters>89</AltitudeMeters>
            <DistanceMeters>NAN</DistanceMeters>
          </Trackpoint>
          <Trackpoint>
            <Time>2020-05-25T04:46:23.000Z</Time>
            <Position>
              <LatitudeDegrees>38.030682541429996490478515625</LatitudeDegrees>
              <LongitudeDegrees>-1.13188189454376697540283203125</LongitudeDegrees>
            </Position>
            <AltitudeMeters>88.8000030517578125</AltitudeMeters>
            <DistanceMeters>NAN</DistanceMeters>
          </Trackpoint>
          <Trackpoint>
            <Time>2020-05-25T04:46:24.000Z</Time>
            <Position>
              <LatitudeDegrees>38.030775077641010284423828125</LatitudeDegrees>
              <LongitudeDegrees>-1.1317257396876811981201171875</LongitudeDegrees>
            </Position>
            <AltitudeMeters>88.59999847412109375</AltitudeMeters>
            <DistanceMeters>NAN</DistanceMeters>
          </Trackpoint>
          <Trackpoint>
            <Time>2020-05-25T04:46:25.000Z</Time>
            <Position>
              <LatitudeDegrees>38.030775077641010284423828125</LatitudeDegrees>
              <LongitudeDegrees>-1.1317257396876811981201171875</LongitudeDegrees>
            </Position>
            <AltitudeMeters>88.59999847412109375</AltitudeMeters>
            <DistanceMeters>NAN</DistanceMeters>
          </Trackpoint>
          <Trackpoint>
            <Time>2020-05-25T04:46:26.000Z</Time>
            <Position>
              <LatitudeDegrees>38.03086769767105579376220703125</LatitudeDegrees>
              <LongitudeDegrees>-1.1315688304603099822998046875</LongitudeDegrees>
            </Position>
            <AltitudeMeters>88.59999847412109375</AltitudeMeters>
            <DistanceMeters>NAN</DistanceMeters>
          </Trackpoint>
          <Trackpoint>
            <Time>2020-05-25T04:46:27.000Z</Time>
            <Position>
              <LatitudeDegrees>38.03086769767105579376220703125</LatitudeDegrees>
              <LongitudeDegrees>-1.1315688304603099822998046875</LongitudeDegrees>
            </Position>
            <AltitudeMeters>88.40000152587890625</AltitudeMeters>
            <DistanceMeters>NAN</DistanceMeters>
          </Trackpoint>
          <Trackpoint>
            <Time>2020-05-25T04:46:28.000Z</Time>
            <Position>
              <LatitudeDegrees>38.030913881957530975341796875</LatitudeDegrees>
              <LongitudeDegrees>-1.13148995675146579742431640625</LongitudeDegrees>
            </Position>
            <AltitudeMeters>88.1999969482421875</AltitudeMeters>
            <DistanceMeters>NAN</DistanceMeters>
          </Trackpoint>
          <Trackpoint>
            <Time>2020-05-25T04:46:29.000Z</Time>
            <Position>
              <LatitudeDegrees>38.03096107207238674163818359375</LatitudeDegrees>
              <LongitudeDegrees>-1.131411753594875335693359375</LongitudeDegrees>
            </Position>
            <AltitudeMeters>88.1999969482421875</AltitudeMeters>
            <DistanceMeters>NAN</DistanceMeters>
          </Trackpoint>
          <Trackpoint>
            <Time>2020-05-25T04:46:30.000Z</Time>
            <Position>
              <LatitudeDegrees>38.031055368483066558837890625</LatitudeDegrees>
              <LongitudeDegrees>-1.13125442527234554290771484375</LongitudeDegrees>
            </Position>
            <AltitudeMeters>88.1999969482421875</AltitudeMeters>
            <DistanceMeters>NAN</DistanceMeters>
          </Trackpoint>
          <Trackpoint>
            <Time>2020-05-25T04:46:31.000Z</Time>
            <Position>
              <LatitudeDegrees>38.031055368483066558837890625</LatitudeDegrees>
              <LongitudeDegrees>-1.13125442527234554290771484375</LongitudeDegrees>
            </Position>
            <AltitudeMeters>88</AltitudeMeters>
            <DistanceMeters>NAN</DistanceMeters>
          </Trackpoint>
          <Trackpoint>
            <Time>2020-05-25T04:46:32.000Z</Time>
            <Position>
              <LatitudeDegrees>38.03115092217922210693359375</LatitudeDegrees>
              <LongitudeDegrees>-1.13109852187335491180419921875</LongitudeDegrees>
            </Position>
            <AltitudeMeters>88</AltitudeMeters>
            <DistanceMeters>NAN</DistanceMeters>
          </Trackpoint>
          <Trackpoint>
            <Time>2020-05-25T04:46:33.000Z</Time>
            <Position>
              <LatitudeDegrees>38.03115092217922210693359375</LatitudeDegrees>
              <LongitudeDegrees>-1.13109852187335491180419921875</LongitudeDegrees>
            </Position>
            <AltitudeMeters>88</AltitudeMeters>
            <DistanceMeters>NAN</DistanceMeters>
          </Trackpoint>
          <Trackpoint>
            <Time>2020-05-25T04:46:34.000Z</Time>
            <Position>
              <LatitudeDegrees>38.03119727410376071929931640625</LatitudeDegrees>
              <LongitudeDegrees>-1.1310209892690181732177734375</LongitudeDegrees>
            </Position>
            <AltitudeMeters>87.8000030517578125</AltitudeMeters>
            <DistanceMeters>NAN</DistanceMeters>
          </Trackpoint>
          <Trackpoint>
            <Time>2020-05-25T04:46:35.000Z</Time>
            <Position>
              <LatitudeDegrees>38.031242452561855316162109375</LatitudeDegrees>
              <LongitudeDegrees>-1.130943037569522857666015625</LongitudeDegrees>
            </Position>
            <AltitudeMeters>87.8000030517578125</AltitudeMeters>
            <DistanceMeters>NAN</DistanceMeters>
          </Trackpoint>
          <Trackpoint>
            <Time>2020-05-25T04:46:36.000Z</Time>
            <Position>
              <LatitudeDegrees>38.031332977116107940673828125</LatitudeDegrees>
              <LongitudeDegrees>-1.130789816379547119140625</LongitudeDegrees>
            </Position>
            <AltitudeMeters>87.8000030517578125</AltitudeMeters>
            <DistanceMeters>NAN</DistanceMeters>
          </Trackpoint>
          <Trackpoint>
            <Time>2020-05-25T04:46:37.000Z</Time>
            <Position>
              <LatitudeDegrees>38.031332977116107940673828125</LatitudeDegrees>
              <LongitudeDegrees>-1.130789816379547119140625</LongitudeDegrees>
            </Position>
            <AltitudeMeters>87.8000030517578125</AltitudeMeters>
            <DistanceMeters>NAN</DistanceMeters>
          </Trackpoint>
          <Trackpoint>
            <Time>2020-05-25T04:46:38.000Z</Time>
            <Position>
              <LatitudeDegrees>38.03142450749874114990234375</LatitudeDegrees>
              <LongitudeDegrees>-1.13063734956085681915283203125</LongitudeDegrees>
            </Position>
            <AltitudeMeters>87.59999847412109375</AltitudeMeters>
            <DistanceMeters>NAN</DistanceMeters>
          </Trackpoint>
          <Trackpoint>
            <Time>2020-05-25T04:46:39.000Z</Time>
            <Position>
              <LatitudeDegrees>38.03142450749874114990234375</LatitudeDegrees>
              <LongitudeDegrees>-1.13063734956085681915283203125</LongitudeDegrees>
            </Position>
            <AltitudeMeters>87.59999847412109375</AltitudeMeters>
            <DistanceMeters>NAN</DistanceMeters>
          </Trackpoint>
          <Trackpoint>
            <Time>2020-05-25T04:46:40.000Z</Time>
            <Position>
              <LatitudeDegrees>38.0314699374139308929443359375</LatitudeDegrees>
              <LongitudeDegrees>-1.1305604875087738037109375</LongitudeDegrees>
            </Position>
            <AltitudeMeters>87.59999847412109375</AltitudeMeters>
            <DistanceMeters>NAN</DistanceMeters>
          </Trackpoint>
          <Trackpoint>
            <Time>2020-05-25T04:46:41.000Z</Time>
            <Position>
              <LatitudeDegrees>38.0315145291388034820556640625</LatitudeDegrees>
              <LongitudeDegrees>-1.13048329018056392669677734375</LongitudeDegrees>
            </Position>
            <AltitudeMeters>87.59999847412109375</AltitudeMeters>
            <DistanceMeters>NAN</DistanceMeters>
          </Trackpoint>
          <Trackpoint>
            <Time>2020-05-25T04:46:42.000Z</Time>
            <Position>
              <LatitudeDegrees>38.0316035449504852294921875</LatitudeDegrees>
              <LongitudeDegrees>-1.1303273029625415802001953125</LongitudeDegrees>
            </Position>
            <AltitudeMeters>87.59999847412109375</AltitudeMeters>
            <DistanceMeters>NAN</DistanceMeters>
          </Trackpoint>
          <Trackpoint>
            <Time>2020-05-25T04:46:43.000Z</Time>
            <Position>
              <LatitudeDegrees>38.0316035449504852294921875</LatitudeDegrees>
              <LongitudeDegrees>-1.1303273029625415802001953125</LongitudeDegrees>
            </Position>
            <AltitudeMeters>87.59999847412109375</AltitudeMeters>
            <DistanceMeters>NAN</DistanceMeters>
          </Trackpoint>
          <Trackpoint>
            <Time>2020-05-25T04:46:44.000Z</Time>
            <Position>
              <LatitudeDegrees>38.03169130347669124603271484375</LatitudeDegrees>
              <LongitudeDegrees>-1.13016779534518718719482421875</LongitudeDegrees>
            </Position>
            <AltitudeMeters>87.59999847412109375</AltitudeMeters>
            <DistanceMeters>NAN</DistanceMeters>
          </Trackpoint>
          <Trackpoint>
            <Time>2020-05-25T04:46:45.000Z</Time>
            <Position>
              <LatitudeDegrees>38.03169130347669124603271484375</LatitudeDegrees>
              <LongitudeDegrees>-1.13016779534518718719482421875</LongitudeDegrees>
            </Position>
            <AltitudeMeters>87.8000030517578125</AltitudeMeters>
            <DistanceMeters>NAN</DistanceMeters>
          </Trackpoint>
          <Trackpoint>
            <Time>2020-05-25T04:46:46.000Z</Time>
            <Position>
              <LatitudeDegrees>38.0317349731922149658203125</LatitudeDegrees>
              <LongitudeDegrees>-1.1300855688750743865966796875</LongitudeDegrees>
            </Position>
            <AltitudeMeters>87.8000030517578125</AltitudeMeters>
            <DistanceMeters>NAN</DistanceMeters>
          </Trackpoint>
          <Trackpoint>
            <Time>2020-05-25T04:46:47.000Z</Time>
            <Position>
              <LatitudeDegrees>38.031823150813579559326171875</LatitudeDegrees>
              <LongitudeDegrees>-1.12991667352616786956787109375</LongitudeDegrees>
            </Position>
            <AltitudeMeters>87.8000030517578125</AltitudeMeters>
            <DistanceMeters>NAN</DistanceMeters>
          </Trackpoint>
          <Trackpoint>
            <Time>2020-05-25T04:46:48.000Z</Time>
            <Position>
              <LatitudeDegrees>38.03186866454780101776123046875</LatitudeDegrees>
              <LongitudeDegrees>-1.12983117811381816864013671875</LongitudeDegrees>
            </Position>
            <AltitudeMeters>87.8000030517578125</AltitudeMeters>
            <DistanceMeters>NAN</DistanceMeters>
          </Trackpoint>
          <Trackpoint>
            <Time>2020-05-25T04:46:49.000Z</Time>
            <Position>
              <LatitudeDegrees>38.03191401064395904541015625</LatitudeDegrees>
              <LongitudeDegrees>-1.1297449283301830291748046875</LongitudeDegrees>
            </Position>
            <AltitudeMeters>87.8000030517578125</AltitudeMeters>
            <DistanceMeters>NAN</DistanceMeters>
          </Trackpoint>
          <Trackpoint>
            <Time>2020-05-25T04:46:50.000Z</Time>
            <Position>
              <LatitudeDegrees>38.031959943473339080810546875</LatitudeDegrees>
              <LongitudeDegrees>-1.1296577565371990203857421875</LongitudeDegrees>
            </Position>
            <AltitudeMeters>87.8000030517578125</AltitudeMeters>
            <DistanceMeters>NAN</DistanceMeters>
          </Trackpoint>
          <Trackpoint>
            <Time>2020-05-25T04:46:51.000Z</Time>
            <Position>
              <LatitudeDegrees>38.031959943473339080810546875</LatitudeDegrees>
              <LongitudeDegrees>-1.1296577565371990203857421875</LongitudeDegrees>
            </Position>
            <AltitudeMeters>87.8000030517578125</AltitudeMeters>
            <DistanceMeters>NAN</DistanceMeters>
          </Trackpoint>
          <Trackpoint>
            <Time>2020-05-25T04:46:52.000Z</Time>
            <Position>
              <LatitudeDegrees>38.0320063792169094085693359375</LatitudeDegrees>
              <LongitudeDegrees>-1.12957050092518329620361328125</LongitudeDegrees>
            </Position>
            <AltitudeMeters>87.8000030517578125</AltitudeMeters>
            <DistanceMeters>NAN</DistanceMeters>
          </Trackpoint>
          <Trackpoint>
            <Time>2020-05-25T04:46:53.000Z</Time>
            <Position>
              <LatitudeDegrees>38.03205172531306743621826171875</LatitudeDegrees>
              <LongitudeDegrees>-1.12948232330381870269775390625</LongitudeDegrees>
            </Position>
            <AltitudeMeters>87.8000030517578125</AltitudeMeters>
            <DistanceMeters>NAN</DistanceMeters>
          </Trackpoint>
          <Trackpoint>
            <Time>2020-05-25T04:46:54.000Z</Time>
            <Position>
              <LatitudeDegrees>38.03213805891573429107666015625</LatitudeDegrees>
              <LongitudeDegrees>-1.1293026991188526153564453125</LongitudeDegrees>
            </Position>
            <AltitudeMeters>87.8000030517578125</AltitudeMeters>
            <DistanceMeters>NAN</DistanceMeters>
          </Trackpoint>
          <Trackpoint>
            <Time>2020-05-25T04:46:55.000Z</Time>
            <Position>
              <LatitudeDegrees>38.03213805891573429107666015625</LatitudeDegrees>
              <LongitudeDegrees>-1.1293026991188526153564453125</LongitudeDegrees>
            </Position>
            <AltitudeMeters>87.8000030517578125</AltitudeMeters>
            <DistanceMeters>NAN</DistanceMeters>
          </Trackpoint>
          <Trackpoint>
            <Time>2020-05-25T04:46:56.000Z</Time>
            <Position>
              <LatitudeDegrees>38.0322239734232425689697265625</LatitudeDegrees>
              <LongitudeDegrees>-1.129123158752918243408203125</LongitudeDegrees>
            </Position>
            <AltitudeMeters>87.8000030517578125</AltitudeMeters>
            <DistanceMeters>NAN</DistanceMeters>
          </Trackpoint>
          <Trackpoint>
            <Time>2020-05-25T04:46:57.000Z</Time>
            <Position>
              <LatitudeDegrees>38.0322239734232425689697265625</LatitudeDegrees>
              <LongitudeDegrees>-1.129123158752918243408203125</LongitudeDegrees>
            </Position>
            <AltitudeMeters>87.8000030517578125</AltitudeMeters>
            <DistanceMeters>NAN</DistanceMeters>
          </Trackpoint>
          <Trackpoint>
            <Time>2020-05-25T04:46:58.000Z</Time>
            <Position>
              <LatitudeDegrees>38.0322678945958614349365234375</LatitudeDegrees>
              <LongitudeDegrees>-1.12903364002704620361328125</LongitudeDegrees>
            </Position>
            <AltitudeMeters>87.59999847412109375</AltitudeMeters>
            <DistanceMeters>NAN</DistanceMeters>
          </Trackpoint>
          <Trackpoint>
            <Time>2020-05-25T04:46:59.000Z</Time>
            <Position>
              <LatitudeDegrees>38.0323121510446071624755859375</LatitudeDegrees>
              <LongitudeDegrees>-1.128944456577301025390625</LongitudeDegrees>
            </Position>
            <AltitudeMeters>87.59999847412109375</AltitudeMeters>
            <DistanceMeters>NAN</DistanceMeters>
          </Trackpoint>
          <Trackpoint>
            <Time>2020-05-25T04:47:00.000Z</Time>
            <Position>
              <LatitudeDegrees>38.03239814937114715576171875</LatitudeDegrees>
              <LongitudeDegrees>-1.1287659220397472381591796875</LongitudeDegrees>
            </Position>
            <AltitudeMeters>87.1999969482421875</AltitudeMeters>
            <DistanceMeters>NAN</DistanceMeters>
          </Trackpoint>
          <Trackpoint>
            <Time>2020-05-25T04:47:01.000Z</Time>
            <Position>
              <LatitudeDegrees>38.03239814937114715576171875</LatitudeDegrees>
              <LongitudeDegrees>-1.1287659220397472381591796875</LongitudeDegrees>
            </Position>
            <AltitudeMeters>87.1999969482421875</AltitudeMeters>
            <DistanceMeters>NAN</DistanceMeters>
          </Trackpoint>
          <Trackpoint>
            <Time>2020-05-25T04:47:02.000Z</Time>
            <Position>
              <LatitudeDegrees>38.0324811302125453948974609375</LatitudeDegrees>
              <LongitudeDegrees>-1.12858763895928859710693359375</LongitudeDegrees>
            </Position>
            <AltitudeMeters>87</AltitudeMeters>
            <DistanceMeters>NAN</DistanceMeters>
          </Trackpoint>
          <Trackpoint>
            <Time>2020-05-25T04:47:03.000Z</Time>
            <Position>
              <LatitudeDegrees>38.0324811302125453948974609375</LatitudeDegrees>
              <LongitudeDegrees>-1.12858763895928859710693359375</LongitudeDegrees>
            </Position>
            <AltitudeMeters>86.8000030517578125</AltitudeMeters>
            <DistanceMeters>NAN</DistanceMeters>
          </Trackpoint>
          <Trackpoint>
            <Time>2020-05-25T04:47:04.000Z</Time>
            <Position>
              <LatitudeDegrees>38.032521866261959075927734375</LatitudeDegrees>
              <LongitudeDegrees>-1.12849979661405086517333984375</LongitudeDegrees>
            </Position>
            <AltitudeMeters>86.8000030517578125</AltitudeMeters>
            <DistanceMeters>NAN</DistanceMeters>
          </Trackpoint>
          <Trackpoint>
            <Time>2020-05-25T04:47:05.000Z</Time>
            <Position>
              <LatitudeDegrees>38.03256168030202388763427734375</LatitudeDegrees>
              <LongitudeDegrees>-1.12841069698333740234375</LongitudeDegrees>
            </Position>
            <AltitudeMeters>86.59999847412109375</AltitudeMeters>
            <DistanceMeters>NAN</DistanceMeters>
          </Trackpoint>
          <Trackpoint>
            <Time>2020-05-25T04:47:06.000Z</Time>
            <Position>
              <LatitudeDegrees>38.0326356925070285797119140625</LatitudeDegrees>
              <LongitudeDegrees>-1.12822855822741985321044921875</LongitudeDegrees>
            </Position>
            <AltitudeMeters>86.59999847412109375</AltitudeMeters>
            <DistanceMeters>NAN</DistanceMeters>
          </Trackpoint>
          <Trackpoint>
            <Time>2020-05-25T04:47:07.000Z</Time>
            <Position>
              <LatitudeDegrees>38.0326356925070285797119140625</LatitudeDegrees>
              <LongitudeDegrees>-1.12822855822741985321044921875</LongitudeDegrees>
            </Position>
            <AltitudeMeters>86.59999847412109375</AltitudeMeters>
            <DistanceMeters>NAN</DistanceMeters>
          </Trackpoint>
          <Trackpoint>
            <Time>2020-05-25T04:47:08.000Z</Time>
            <Position>
              <LatitudeDegrees>38.03270836360752582550048828125</LatitudeDegrees>
              <LongitudeDegrees>-1.1280454136431217193603515625</LongitudeDegrees>
            </Position>
            <AltitudeMeters>86.40000152587890625</AltitudeMeters>
            <DistanceMeters>NAN</DistanceMeters>
          </Trackpoint>
          <Trackpoint>
            <Time>2020-05-25T04:47:09.000Z</Time>
            <Position>
              <LatitudeDegrees>38.03270836360752582550048828125</LatitudeDegrees>
              <LongitudeDegrees>-1.1280454136431217193603515625</LongitudeDegrees>
            </Position>
            <AltitudeMeters>86.40000152587890625</AltitudeMeters>
            <DistanceMeters>NAN</DistanceMeters>
          </Trackpoint>
          <Trackpoint>
            <Time>2020-05-25T04:47:10.000Z</Time>
            <Position>
              <LatitudeDegrees>38.0327443219721317291259765625</LatitudeDegrees>
              <LongitudeDegrees>-1.12795379944145679473876953125</LongitudeDegrees>
            </Position>
            <AltitudeMeters>86.40000152587890625</AltitudeMeters>
            <DistanceMeters>NAN</DistanceMeters>
          </Trackpoint>
          <Trackpoint>
            <Time>2020-05-25T04:47:11.000Z</Time>
            <Position>
              <LatitudeDegrees>38.03278028033673763275146484375</LatitudeDegrees>
              <LongitudeDegrees>-1.12786226905882358551025390625</LongitudeDegrees>
            </Position>
            <AltitudeMeters>86.40000152587890625</AltitudeMeters>
            <DistanceMeters>NAN</DistanceMeters>
          </Trackpoint>
          <Trackpoint>
            <Time>2020-05-25T04:47:12.000Z</Time>
            <Position>
              <LatitudeDegrees>38.03285454399883747100830078125</LatitudeDegrees>
              <LongitudeDegrees>-1.1276792921125888824462890625</LongitudeDegrees>
            </Position>
            <AltitudeMeters>86.40000152587890625</AltitudeMeters>
            <DistanceMeters>NAN</DistanceMeters>
          </Trackpoint>
          <Trackpoint>
            <Time>2020-05-25T04:47:13.000Z</Time>
            <Position>
              <LatitudeDegrees>38.03285454399883747100830078125</LatitudeDegrees>
              <LongitudeDegrees>-1.1276792921125888824462890625</LongitudeDegrees>
            </Position>
            <AltitudeMeters>86.40000152587890625</AltitudeMeters>
            <DistanceMeters>NAN</DistanceMeters>
          </Trackpoint>
          <Trackpoint>
            <Time>2020-05-25T04:47:14.000Z</Time>
            <Position>
              <LatitudeDegrees>38.03293325006961822509765625</LatitudeDegrees>
              <LongitudeDegrees>-1.12749631516635417938232421875</LongitudeDegrees>
            </Position>
            <AltitudeMeters>86.40000152587890625</AltitudeMeters>
            <DistanceMeters>NAN</DistanceMeters>
          </Trackpoint>
          <Trackpoint>
            <Time>2020-05-25T04:47:15.000Z</Time>
            <Position>
              <LatitudeDegrees>38.03293325006961822509765625</LatitudeDegrees>
              <LongitudeDegrees>-1.12749631516635417938232421875</LongitudeDegrees>
            </Position>
            <AltitudeMeters>86.40000152587890625</AltitudeMeters>
            <DistanceMeters>NAN</DistanceMeters>
          </Trackpoint>
          <Trackpoint>
            <Time>2020-05-25T04:47:16.000Z</Time>
            <Position>
              <LatitudeDegrees>38.0329726450145244598388671875</LatitudeDegrees>
              <LongitudeDegrees>-1.12740495242178440093994140625</LongitudeDegrees>
            </Position>
            <AltitudeMeters>86.40000152587890625</AltitudeMeters>
            <DistanceMeters>NAN</DistanceMeters>
          </Trackpoint>
          <Trackpoint>
            <Time>2020-05-25T04:47:17.000Z</Time>
            <Position>
              <LatitudeDegrees>38.03301036357879638671875</LatitudeDegrees>
              <LongitudeDegrees>-1.1273123323917388916015625</LongitudeDegrees>
            </Position>
            <AltitudeMeters>86.40000152587890625</AltitudeMeters>
            <DistanceMeters>NAN</DistanceMeters>
          </Trackpoint>
          <Trackpoint>
            <Time>2020-05-25T04:47:18.000Z</Time>
            <Position>
              <LatitudeDegrees>38.03308487869799137115478515625</LatitudeDegrees>
              <LongitudeDegrees>-1.12712793052196502685546875</LongitudeDegrees>
            </Position>
            <AltitudeMeters>86.1999969482421875</AltitudeMeters>
            <DistanceMeters>NAN</DistanceMeters>
          </Trackpoint>
          <Trackpoint>
            <Time>2020-05-25T04:47:19.000Z</Time>
            <Position>
              <LatitudeDegrees>38.03308487869799137115478515625</LatitudeDegrees>
              <LongitudeDegrees>-1.12712793052196502685546875</LongitudeDegrees>
            </Position>
            <AltitudeMeters>86.1999969482421875</AltitudeMeters>
            <DistanceMeters>NAN</DistanceMeters>
          </Trackpoint>
          <Trackpoint>
            <Time>2020-05-25T04:47:20.000Z</Time>
            <Position>
              <LatitudeDegrees>38.03316123783588409423828125</LatitudeDegrees>
              <LongitudeDegrees>-1.1269447021186351776123046875</LongitudeDegrees>
            </Position>
            <AltitudeMeters>86.1999969482421875</AltitudeMeters>
            <DistanceMeters>NAN</DistanceMeters>
          </Trackpoint>
          <Trackpoint>
            <Time>2020-05-25T04:47:21.000Z</Time>
            <Position>
              <LatitudeDegrees>38.03316123783588409423828125</LatitudeDegrees>
              <LongitudeDegrees>-1.1269447021186351776123046875</LongitudeDegrees>
            </Position>
            <AltitudeMeters>86.1999969482421875</AltitudeMeters>
            <DistanceMeters>NAN</DistanceMeters>
          </Trackpoint>
          <Trackpoint>
            <Time>2020-05-25T04:47:22.000Z</Time>
            <Position>
              <LatitudeDegrees>38.0332002975046634674072265625</LatitudeDegrees>
              <LongitudeDegrees>-1.12685325555503368377685546875</LongitudeDegrees>
            </Position>
            <AltitudeMeters>86.1999969482421875</AltitudeMeters>
            <DistanceMeters>NAN</DistanceMeters>
          </Trackpoint>
          <Trackpoint>
            <Time>2020-05-25T04:47:23.000Z</Time>
            <Position>
              <LatitudeDegrees>38.03323809988796710968017578125</LatitudeDegrees>
              <LongitudeDegrees>-1.126761473715305328369140625</LongitudeDegrees>
            </Position>
            <AltitudeMeters>86.1999969482421875</AltitudeMeters>
            <DistanceMeters>NAN</DistanceMeters>
          </Trackpoint>
          <Trackpoint>
            <Time>2020-05-25T04:47:24.000Z</Time>
            <Position>
              <LatitudeDegrees>38.03331119008362293243408203125</LatitudeDegrees>
              <LongitudeDegrees>-1.12658067606389522552490234375</LongitudeDegrees>
            </Position>
            <AltitudeMeters>86.1999969482421875</AltitudeMeters>
            <DistanceMeters>NAN</DistanceMeters>
          </Trackpoint>
          <Trackpoint>
            <Time>2020-05-25T04:47:25.000Z</Time>
            <Position>
              <LatitudeDegrees>38.03331119008362293243408203125</LatitudeDegrees>
              <LongitudeDegrees>-1.12658067606389522552490234375</LongitudeDegrees>
            </Position>
            <AltitudeMeters>86.1999969482421875</AltitudeMeters>
            <DistanceMeters>NAN</DistanceMeters>
          </Trackpoint>
          <Trackpoint>
            <Time>2020-05-25T04:47:26.000Z</Time>
            <Position>
              <LatitudeDegrees>38.0333846993744373321533203125</LatitudeDegrees>
              <LongitudeDegrees>-1.12640348263084888458251953125</LongitudeDegrees>
            </Position>
            <AltitudeMeters>86.1999969482421875</AltitudeMeters>
            <DistanceMeters>NAN</DistanceMeters>
          </Trackpoint>
          <Trackpoint>
            <Time>2020-05-25T04:47:27.000Z</Time>
            <Position>
              <LatitudeDegrees>38.0333846993744373321533203125</LatitudeDegrees>
              <LongitudeDegrees>-1.12640348263084888458251953125</LongitudeDegrees>
            </Position>
            <AltitudeMeters>86.1999969482421875</AltitudeMeters>
            <DistanceMeters>NAN</DistanceMeters>
          </Trackpoint>
          <Trackpoint>
            <Time>2020-05-25T04:47:28.000Z</Time>
            <Position>
              <LatitudeDegrees>38.0334212444722652435302734375</LatitudeDegrees>
              <LongitudeDegrees>-1.1263150535523891448974609375</LongitudeDegrees>
            </Position>
            <AltitudeMeters>86.1999969482421875</AltitudeMeters>
            <DistanceMeters>NAN</DistanceMeters>
          </Trackpoint>
          <Trackpoint>
            <Time>2020-05-25T04:47:29.000Z</Time>
            <Position>
              <LatitudeDegrees>38.03345762193202972412109375</LatitudeDegrees>
              <LongitudeDegrees>-1.12622645683586597442626953125</LongitudeDegrees>
            </Position>
            <AltitudeMeters>86.1999969482421875</AltitudeMeters>
            <DistanceMeters>NAN</DistanceMeters>
          </Trackpoint>
          <Trackpoint>
            <Time>2020-05-25T04:47:30.000Z</Time>
            <Position>
              <LatitudeDegrees>38.0335325561463832855224609375</LatitudeDegrees>
              <LongitudeDegrees>-1.1260525323450565338134765625</LongitudeDegrees>
            </Position>
            <AltitudeMeters>86.1999969482421875</AltitudeMeters>
            <DistanceMeters>NAN</DistanceMeters>
          </Trackpoint>
          <Trackpoint>
            <Time>2020-05-25T04:47:31.000Z</Time>
            <Position>
              <LatitudeDegrees>38.0335325561463832855224609375</LatitudeDegrees>
              <LongitudeDegrees>-1.1260525323450565338134765625</LongitudeDegrees>
            </Position>
            <AltitudeMeters>86.1999969482421875</AltitudeMeters>
            <DistanceMeters>NAN</DistanceMeters>
          </Trackpoint>
          <Trackpoint>
            <Time>2020-05-25T04:47:32.000Z</Time>
            <Position>
              <LatitudeDegrees>38.033612854778766632080078125</LatitudeDegrees>
              <LongitudeDegrees>-1.125882379710674285888671875</LongitudeDegrees>
            </Position>
            <AltitudeMeters>86.1999969482421875</AltitudeMeters>
            <DistanceMeters>NAN</DistanceMeters>
          </Trackpoint>
          <Trackpoint>
            <Time>2020-05-25T04:47:33.000Z</Time>
            <Position>
              <LatitudeDegrees>38.033612854778766632080078125</LatitudeDegrees>
              <LongitudeDegrees>-1.125882379710674285888671875</LongitudeDegrees>
            </Position>
            <AltitudeMeters>86.1999969482421875</AltitudeMeters>
            <DistanceMeters>NAN</DistanceMeters>
          </Trackpoint>
          <Trackpoint>
            <Time>2020-05-25T04:47:34.000Z</Time>
            <Position>
              <LatitudeDegrees>38.033654429018497467041015625</LatitudeDegrees>
              <LongitudeDegrees>-1.12579897977411746978759765625</LongitudeDegrees>
            </Position>
            <AltitudeMeters>86.1999969482421875</AltitudeMeters>
            <DistanceMeters>NAN</DistanceMeters>
          </Trackpoint>
          <Trackpoint>
            <Time>2020-05-25T04:47:35.000Z</Time>
            <Position>
              <LatitudeDegrees>38.03369675762951374053955078125</LatitudeDegrees>
              <LongitudeDegrees>-1.1257172562181949615478515625</LongitudeDegrees>
            </Position>
            <AltitudeMeters>86.1999969482421875</AltitudeMeters>
            <DistanceMeters>NAN</DistanceMeters>
          </Trackpoint>
          <Trackpoint>
            <Time>2020-05-25T04:47:36.000Z</Time>
            <Position>
              <LatitudeDegrees>38.033780492842197418212890625</LatitudeDegrees>
              <LongitudeDegrees>-1.125555820763111114501953125</LongitudeDegrees>
            </Position>
            <AltitudeMeters>86.1999969482421875</AltitudeMeters>
            <DistanceMeters>NAN</DistanceMeters>
          </Trackpoint>
          <Trackpoint>
            <Time>2020-05-25T04:47:37.000Z</Time>
            <Position>
              <LatitudeDegrees>38.033780492842197418212890625</LatitudeDegrees>
              <LongitudeDegrees>-1.125555820763111114501953125</LongitudeDegrees>
            </Position>
            <AltitudeMeters>86.1999969482421875</AltitudeMeters>
            <DistanceMeters>NAN</DistanceMeters>
          </Trackpoint>
          <Trackpoint>
            <Time>2020-05-25T04:47:38.000Z</Time>
            <Position>
              <LatitudeDegrees>38.03386305458843708038330078125</LatitudeDegrees>
              <LongitudeDegrees>-1.12539480440318584442138671875</LongitudeDegrees>
            </Position>
            <AltitudeMeters>86.40000152587890625</AltitudeMeters>
            <DistanceMeters>NAN</DistanceMeters>
          </Trackpoint>
          <Trackpoint>
            <Time>2020-05-25T04:47:39.000Z</Time>
            <Position>
              <LatitudeDegrees>38.03386305458843708038330078125</LatitudeDegrees>
              <LongitudeDegrees>-1.12539480440318584442138671875</LongitudeDegrees>
            </Position>
            <AltitudeMeters>86.40000152587890625</AltitudeMeters>
            <DistanceMeters>NAN</DistanceMeters>
          </Trackpoint>
          <Trackpoint>
            <Time>2020-05-25T04:47:40.000Z</Time>
            <Position>
              <LatitudeDegrees>38.0339040420949459075927734375</LatitudeDegrees>
              <LongitudeDegrees>-1.12531467340886592864990234375</LongitudeDegrees>
            </Position>
            <AltitudeMeters>86.40000152587890625</AltitudeMeters>
            <DistanceMeters>NAN</DistanceMeters>
          </Trackpoint>
          <Trackpoint>
            <Time>2020-05-25T04:47:41.000Z</Time>
            <Position>
              <LatitudeDegrees>38.0339456163346767425537109375</LatitudeDegrees>
              <LongitudeDegrees>-1.1252344585955142974853515625</LongitudeDegrees>
            </Position>
            <AltitudeMeters>86.59999847412109375</AltitudeMeters>
            <DistanceMeters>NAN</DistanceMeters>
          </Trackpoint>
          <Trackpoint>
            <Time>2020-05-25T04:47:42.000Z</Time>
            <Position>
              <LatitudeDegrees>38.0340277589857578277587890625</LatitudeDegrees>
              <LongitudeDegrees>-1.1250731907784938812255859375</LongitudeDegrees>
            </Position>
            <AltitudeMeters>86.59999847412109375</AltitudeMeters>
            <DistanceMeters>NAN</DistanceMeters>
          </Trackpoint>
          <Trackpoint>
            <Time>2020-05-25T04:47:43.000Z</Time>
            <Position>
              <LatitudeDegrees>38.0340277589857578277587890625</LatitudeDegrees>
              <LongitudeDegrees>-1.1250731907784938812255859375</LongitudeDegrees>
            </Position>
            <AltitudeMeters>86.8000030517578125</AltitudeMeters>
            <DistanceMeters>NAN</DistanceMeters>
          </Trackpoint>
          <Trackpoint>
            <Time>2020-05-25T04:47:44.000Z</Time>
            <Position>
              <LatitudeDegrees>38.03411065600812435150146484375</LatitudeDegrees>
              <LongitudeDegrees>-1.1249109171330928802490234375</LongitudeDegrees>
            </Position>
            <AltitudeMeters>87</AltitudeMeters>
            <DistanceMeters>NAN</DistanceMeters>
          </Trackpoint>
          <Trackpoint>
            <Time>2020-05-25T04:47:45.000Z</Time>
            <Position>
              <LatitudeDegrees>38.03411065600812435150146484375</LatitudeDegrees>
              <LongitudeDegrees>-1.1249109171330928802490234375</LongitudeDegrees>
            </Position>
            <AltitudeMeters>87</AltitudeMeters>
            <DistanceMeters>NAN</DistanceMeters>
          </Trackpoint>
          <Trackpoint>
            <Time>2020-05-25T04:47:46.000Z</Time>
            <Position>
              <LatitudeDegrees>38.03415290080010890960693359375</LatitudeDegrees>
              <LongitudeDegrees>-1.12483137287199497222900390625</LongitudeDegrees>
            </Position>
            <AltitudeMeters>87.1999969482421875</AltitudeMeters>
            <DistanceMeters>NAN</DistanceMeters>
          </Trackpoint>
          <Trackpoint>
            <Time>2020-05-25T04:47:47.000Z</Time>
            <Position>
              <LatitudeDegrees>38.03419464267790317535400390625</LatitudeDegrees>
              <LongitudeDegrees>-1.124751828610897064208984375</LongitudeDegrees>
            </Position>
            <AltitudeMeters>87.1999969482421875</AltitudeMeters>
            <DistanceMeters>NAN</DistanceMeters>
          </Trackpoint>
          <Trackpoint>
            <Time>2020-05-25T04:47:48.000Z</Time>
            <Position>
              <LatitudeDegrees>38.0342768691480159759521484375</LatitudeDegrees>
              <LongitudeDegrees>-1.12459332682192325592041015625</LongitudeDegrees>
            </Position>
            <AltitudeMeters>87.40000152587890625</AltitudeMeters>
            <DistanceMeters>NAN</DistanceMeters>
          </Trackpoint>
          <Trackpoint>
            <Time>2020-05-25T04:47:49.000Z</Time>
            <Position>
              <LatitudeDegrees>38.0342768691480159759521484375</LatitudeDegrees>
              <LongitudeDegrees>-1.12459332682192325592041015625</LongitudeDegrees>
            </Position>
            <AltitudeMeters>87.40000152587890625</AltitudeMeters>
            <DistanceMeters>NAN</DistanceMeters>
          </Trackpoint>
          <Trackpoint>
            <Time>2020-05-25T04:47:50.000Z</Time>
            <Position>
              <LatitudeDegrees>38.03435909561812877655029296875</LatitudeDegrees>
              <LongitudeDegrees>-1.12443499267101287841796875</LongitudeDegrees>
            </Position>
            <AltitudeMeters>87.40000152587890625</AltitudeMeters>
            <DistanceMeters>NAN</DistanceMeters>
          </Trackpoint>
          <Trackpoint>
            <Time>2020-05-25T04:47:51.000Z</Time>
            <Position>
              <LatitudeDegrees>38.03435909561812877655029296875</LatitudeDegrees>
              <LongitudeDegrees>-1.12443499267101287841796875</LongitudeDegrees>
            </Position>
            <AltitudeMeters>87.59999847412109375</AltitudeMeters>
            <DistanceMeters>NAN</DistanceMeters>
          </Trackpoint>
          <Trackpoint>
            <Time>2020-05-25T04:47:52.000Z</Time>
            <Position>
              <LatitudeDegrees>38.03439999930560588836669921875</LatitudeDegrees>
              <LongitudeDegrees>-1.12435586750507354736328125</LongitudeDegrees>
            </Position>
            <AltitudeMeters>87.59999847412109375</AltitudeMeters>
            <DistanceMeters>NAN</DistanceMeters>
          </Trackpoint>
          <Trackpoint>
            <Time>2020-05-25T04:47:53.000Z</Time>
            <Position>
              <LatitudeDegrees>38.034441657364368438720703125</LatitudeDegrees>
              <LongitudeDegrees>-1.12427615560591220855712890625</LongitudeDegrees>
            </Position>
            <AltitudeMeters>87.59999847412109375</AltitudeMeters>
            <DistanceMeters>NAN</DistanceMeters>
          </Trackpoint>
          <Trackpoint>
            <Time>2020-05-25T04:47:54.000Z</Time>
            <Position>
              <LatitudeDegrees>38.03452623076736927032470703125</LatitudeDegrees>
              <LongitudeDegrees>-1.124114803969860076904296875</LongitudeDegrees>
            </Position>
            <AltitudeMeters>87.8000030517578125</AltitudeMeters>
            <DistanceMeters>NAN</DistanceMeters>
          </Trackpoint>
          <Trackpoint>
            <Time>2020-05-25T04:47:55.000Z</Time>
            <Position>
              <LatitudeDegrees>38.03452623076736927032470703125</LatitudeDegrees>
              <LongitudeDegrees>-1.124114803969860076904296875</LongitudeDegrees>
            </Position>
            <AltitudeMeters>87.8000030517578125</AltitudeMeters>
            <DistanceMeters>NAN</DistanceMeters>
          </Trackpoint>
          <Trackpoint>
            <Time>2020-05-25T04:47:56.000Z</Time>
            <Position>
              <LatitudeDegrees>38.03461424075067043304443359375</LatitudeDegrees>
              <LongitudeDegrees>-1.1239526979625225067138671875</LongitudeDegrees>
            </Position>
            <AltitudeMeters>87.8000030517578125</AltitudeMeters>
            <DistanceMeters>NAN</DistanceMeters>
          </Trackpoint>
          <Trackpoint>
            <Time>2020-05-25T04:47:57.000Z</Time>
            <Position>
              <LatitudeDegrees>38.03461424075067043304443359375</LatitudeDegrees>
              <LongitudeDegrees>-1.1239526979625225067138671875</LongitudeDegrees>
            </Position>
            <AltitudeMeters>88</AltitudeMeters>
            <DistanceMeters>NAN</DistanceMeters>
          </Trackpoint>
          <Trackpoint>
            <Time>2020-05-25T04:47:58.000Z</Time>
            <Position>
              <LatitudeDegrees>38.0346580781042575836181640625</LatitudeDegrees>
              <LongitudeDegrees>-1.12386996857821941375732421875</LongitudeDegrees>
            </Position>
            <AltitudeMeters>88</AltitudeMeters>
            <DistanceMeters>NAN</DistanceMeters>
          </Trackpoint>
          <Trackpoint>
            <Time>2020-05-25T04:47:59.000Z</Time>
            <Position>
              <LatitudeDegrees>38.0347019992768764495849609375</LatitudeDegrees>
              <LongitudeDegrees>-1.12378631718456745147705078125</LongitudeDegrees>
            </Position>
            <AltitudeMeters>88</AltitudeMeters>
            <DistanceMeters>NAN</DistanceMeters>
          </Trackpoint>
          <Trackpoint>
            <Time>2020-05-25T04:48:00.000Z</Time>
            <Position>
              <LatitudeDegrees>38.03478933870792388916015625</LatitudeDegrees>
              <LongitudeDegrees>-1.123615242540836334228515625</LongitudeDegrees>
            </Position>
            <AltitudeMeters>88.1999969482421875</AltitudeMeters>
            <DistanceMeters>NAN</DistanceMeters>
          </Trackpoint>
          <Trackpoint>
            <Time>2020-05-25T04:48:01.000Z</Time>
            <Position>
              <LatitudeDegrees>38.03478933870792388916015625</LatitudeDegrees>
              <LongitudeDegrees>-1.123615242540836334228515625</LongitudeDegrees>
            </Position>
            <AltitudeMeters>88.1999969482421875</AltitudeMeters>
            <DistanceMeters>NAN</DistanceMeters>
          </Trackpoint>
          <Trackpoint>
            <Time>2020-05-25T04:48:02.000Z</Time>
            <Position>
              <LatitudeDegrees>38.0348786897957324981689453125</LatitudeDegrees>
              <LongitudeDegrees>-1.12344198860228061676025390625</LongitudeDegrees>
            </Position>
            <AltitudeMeters>88.1999969482421875</AltitudeMeters>
            <DistanceMeters>NAN</DistanceMeters>
          </Trackpoint>
          <Trackpoint>
            <Time>2020-05-25T04:48:03.000Z</Time>
            <Position>
              <LatitudeDegrees>38.0348786897957324981689453125</LatitudeDegrees>
              <LongitudeDegrees>-1.12344198860228061676025390625</LongitudeDegrees>
            </Position>
            <AltitudeMeters>88.1999969482421875</AltitudeMeters>
            <DistanceMeters>NAN</DistanceMeters>
          </Trackpoint>
          <Trackpoint>
            <Time>2020-05-25T04:48:04.000Z</Time>
            <Position>
              <LatitudeDegrees>38.03492487408220767974853515625</LatitudeDegrees>
              <LongitudeDegrees>-1.1233575828373432159423828125</LongitudeDegrees>
            </Position>
            <AltitudeMeters>88.1999969482421875</AltitudeMeters>
            <DistanceMeters>NAN</DistanceMeters>
          </Trackpoint>
          <Trackpoint>
            <Time>2020-05-25T04:48:05.000Z</Time>
            <Position>
              <LatitudeDegrees>38.03497030399739742279052734375</LatitudeDegrees>
              <LongitudeDegrees>-1.1232737638056278228759765625</LongitudeDegrees>
            </Position>
            <AltitudeMeters>88.1999969482421875</AltitudeMeters>
            <DistanceMeters>NAN</DistanceMeters>
          </Trackpoint>
          <Trackpoint>
            <Time>2020-05-25T04:48:06.000Z</Time>
            <Position>
              <LatitudeDegrees>38.0350594036281108856201171875</LatitudeDegrees>
              <LongitudeDegrees>-1.1231044493615627288818359375</LongitudeDegrees>
            </Position>
            <AltitudeMeters>88.40000152587890625</AltitudeMeters>
            <DistanceMeters>NAN</DistanceMeters>
          </Trackpoint>
          <Trackpoint>
            <Time>2020-05-25T04:48:07.000Z</Time>
            <Position>
              <LatitudeDegrees>38.0350594036281108856201171875</LatitudeDegrees>
              <LongitudeDegrees>-1.1231044493615627288818359375</LongitudeDegrees>
            </Position>
            <AltitudeMeters>88.1999969482421875</AltitudeMeters>
            <DistanceMeters>NAN</DistanceMeters>
          </Trackpoint>
          <Trackpoint>
            <Time>2020-05-25T04:48:08.000Z</Time>
            <Position>
              <LatitudeDegrees>38.03514867089688777923583984375</LatitudeDegrees>
              <LongitudeDegrees>-1.1229368112981319427490234375</LongitudeDegrees>
            </Position>
            <AltitudeMeters>88.1999969482421875</AltitudeMeters>
            <DistanceMeters>NAN</DistanceMeters>
          </Trackpoint>
          <Trackpoint>
            <Time>2020-05-25T04:48:09.000Z</Time>
            <Position>
              <LatitudeDegrees>38.03514867089688777923583984375</LatitudeDegrees>
              <LongitudeDegrees>-1.1229368112981319427490234375</LongitudeDegrees>
            </Position>
            <AltitudeMeters>88.1999969482421875</AltitudeMeters>
            <DistanceMeters>NAN</DistanceMeters>
          </Trackpoint>
          <Trackpoint>
            <Time>2020-05-25T04:48:10.000Z</Time>
            <Position>
              <LatitudeDegrees>38.03519141860306262969970703125</LatitudeDegrees>
              <LongitudeDegrees>-1.12285248935222625732421875</LongitudeDegrees>
            </Position>
            <AltitudeMeters>88.1999969482421875</AltitudeMeters>
            <DistanceMeters>NAN</DistanceMeters>
          </Trackpoint>
          <Trackpoint>
            <Time>2020-05-25T04:48:11.000Z</Time>
            <Position>
              <LatitudeDegrees>38.035233914852142333984375</LatitudeDegrees>
              <LongitudeDegrees>-1.12276841886341571807861328125</LongitudeDegrees>
            </Position>
            <AltitudeMeters>88.1999969482421875</AltitudeMeters>
            <DistanceMeters>NAN</DistanceMeters>
          </Trackpoint>
          <Trackpoint>
            <Time>2020-05-25T04:48:12.000Z</Time>
            <Position>
              <LatitudeDegrees>38.0353195779025554656982421875</LatitudeDegrees>
              <LongitudeDegrees>-1.12260304391384124755859375</LongitudeDegrees>
            </Position>
            <AltitudeMeters>88.1999969482421875</AltitudeMeters>
            <DistanceMeters>NAN</DistanceMeters>
          </Trackpoint>
          <Trackpoint>
            <Time>2020-05-25T04:48:13.000Z</Time>
            <Position>
              <LatitudeDegrees>38.0353195779025554656982421875</LatitudeDegrees>
              <LongitudeDegrees>-1.12260304391384124755859375</LongitudeDegrees>
            </Position>
            <AltitudeMeters>88.1999969482421875</AltitudeMeters>
            <DistanceMeters>NAN</DistanceMeters>
          </Trackpoint>
          <Trackpoint>
            <Time>2020-05-25T04:48:14.000Z</Time>
            <Position>
              <LatitudeDegrees>38.03540448658168315887451171875</LatitudeDegrees>
              <LongitudeDegrees>-1.12244018353521823883056640625</LongitudeDegrees>
            </Position>
            <AltitudeMeters>88.1999969482421875</AltitudeMeters>
            <DistanceMeters>NAN</DistanceMeters>
          </Trackpoint>
          <Trackpoint>
            <Time>2020-05-25T04:48:15.000Z</Time>
            <Position>
              <LatitudeDegrees>38.03540448658168315887451171875</LatitudeDegrees>
              <LongitudeDegrees>-1.12244018353521823883056640625</LongitudeDegrees>
            </Position>
            <AltitudeMeters>88.1999969482421875</AltitudeMeters>
            <DistanceMeters>NAN</DistanceMeters>
          </Trackpoint>
          <Trackpoint>
            <Time>2020-05-25T04:48:16.000Z</Time>
            <Position>
              <LatitudeDegrees>38.0354473181068897247314453125</LatitudeDegrees>
              <LongitudeDegrees>-1.12236089073121547698974609375</LongitudeDegrees>
            </Position>
            <AltitudeMeters>88.1999969482421875</AltitudeMeters>
            <DistanceMeters>NAN</DistanceMeters>
          </Trackpoint>
          <Trackpoint>
            <Time>2020-05-25T04:48:17.000Z</Time>
            <Position>
              <LatitudeDegrees>38.03548981435596942901611328125</LatitudeDegrees>
              <LongitudeDegrees>-1.12228226847946643829345703125</LongitudeDegrees>
            </Position>
            <AltitudeMeters>88.1999969482421875</AltitudeMeters>
            <DistanceMeters>NAN</DistanceMeters>
          </Trackpoint>
          <Trackpoint>
            <Time>2020-05-25T04:48:18.000Z</Time>
            <Position>
              <LatitudeDegrees>38.0355723761022090911865234375</LatitudeDegrees>
              <LongitudeDegrees>-1.122123934328556060791015625</LongitudeDegrees>
            </Position>
            <AltitudeMeters>88.1999969482421875</AltitudeMeters>
            <DistanceMeters>NAN</DistanceMeters>
          </Trackpoint>
          <Trackpoint>
            <Time>2020-05-25T04:48:19.000Z</Time>
            <Position>
              <LatitudeDegrees>38.0355723761022090911865234375</LatitudeDegrees>
              <LongitudeDegrees>-1.122123934328556060791015625</LongitudeDegrees>
            </Position>
            <AltitudeMeters>88.1999969482421875</AltitudeMeters>
            <DistanceMeters>NAN</DistanceMeters>
          </Trackpoint>
          <Trackpoint>
            <Time>2020-05-25T04:48:20.000Z</Time>
            <Position>
              <LatitudeDegrees>38.0356545187532901763916015625</LatitudeDegrees>
              <LongitudeDegrees>-1.1219668574631214141845703125</LongitudeDegrees>
            </Position>
            <AltitudeMeters>88.1999969482421875</AltitudeMeters>
            <DistanceMeters>NAN</DistanceMeters>
          </Trackpoint>
          <Trackpoint>
            <Time>2020-05-25T04:48:21.000Z</Time>
            <Position>
              <LatitudeDegrees>38.0356545187532901763916015625</LatitudeDegrees>
              <LongitudeDegrees>-1.1219668574631214141845703125</LongitudeDegrees>
            </Position>
            <AltitudeMeters>88.1999969482421875</AltitudeMeters>
            <DistanceMeters>NAN</DistanceMeters>
          </Trackpoint>
          <Trackpoint>
            <Time>2020-05-25T04:48:22.000Z</Time>
            <Position>
              <LatitudeDegrees>38.0356950871646404266357421875</LatitudeDegrees>
              <LongitudeDegrees>-1.12188882194459438323974609375</LongitudeDegrees>
            </Position>
            <AltitudeMeters>88.1999969482421875</AltitudeMeters>
            <DistanceMeters>NAN</DistanceMeters>
          </Trackpoint>
          <Trackpoint>
            <Time>2020-05-25T04:48:23.000Z</Time>
            <Position>
              <LatitudeDegrees>38.0357346497476100921630859375</LatitudeDegrees>
              <LongitudeDegrees>-1.1218102835118770599365234375</LongitudeDegrees>
            </Position>
            <AltitudeMeters>88.1999969482421875</AltitudeMeters>
            <DistanceMeters>NAN</DistanceMeters>
          </Trackpoint>
          <Trackpoint>
            <Time>2020-05-25T04:48:24.000Z</Time>
            <Position>
              <LatitudeDegrees>38.035812266170978546142578125</LatitudeDegrees>
              <LongitudeDegrees>-1.12165412865579128265380859375</LongitudeDegrees>
            </Position>
            <AltitudeMeters>88.40000152587890625</AltitudeMeters>
            <DistanceMeters>NAN</DistanceMeters>
          </Trackpoint>
          <Trackpoint>
            <Time>2020-05-25T04:48:25.000Z</Time>
            <Position>
              <LatitudeDegrees>38.035812266170978546142578125</LatitudeDegrees>
              <LongitudeDegrees>-1.12165412865579128265380859375</LongitudeDegrees>
            </Position>
            <AltitudeMeters>88.40000152587890625</AltitudeMeters>
            <DistanceMeters>NAN</DistanceMeters>
          </Trackpoint>
          <Trackpoint>
            <Time>2020-05-25T04:48:26.000Z</Time>
            <Position>
              <LatitudeDegrees>38.035883344709873199462890625</LatitudeDegrees>
              <LongitudeDegrees>-1.12149604596197605133056640625</LongitudeDegrees>
            </Position>
            <AltitudeMeters>88.40000152587890625</AltitudeMeters>
            <DistanceMeters>NAN</DistanceMeters>
          </Trackpoint>
          <Trackpoint>
            <Time>2020-05-25T04:48:27.000Z</Time>
            <Position>
              <LatitudeDegrees>38.035883344709873199462890625</LatitudeDegrees>
              <LongitudeDegrees>-1.12149604596197605133056640625</LongitudeDegrees>
            </Position>
            <AltitudeMeters>88.8000030517578125</AltitudeMeters>
            <DistanceMeters>NAN</DistanceMeters>
          </Trackpoint>
          <Trackpoint>
            <Time>2020-05-25T04:48:28.000Z</Time>
            <Position>
              <LatitudeDegrees>38.035916201770305633544921875</LatitudeDegrees>
              <LongitudeDegrees>-1.1214159987866878509521484375</LongitudeDegrees>
            </Position>
            <AltitudeMeters>88.8000030517578125</AltitudeMeters>
            <DistanceMeters>NAN</DistanceMeters>
          </Trackpoint>
          <Trackpoint>
            <Time>2020-05-25T04:48:29.000Z</Time>
            <Position>
              <LatitudeDegrees>38.0359472148120403289794921875</LatitudeDegrees>
              <LongitudeDegrees>-1.12133494578301906585693359375</LongitudeDegrees>
            </Position>
            <AltitudeMeters>89</AltitudeMeters>
            <DistanceMeters>NAN</DistanceMeters>
          </Trackpoint>
          <Trackpoint>
            <Time>2020-05-25T04:48:30.000Z</Time>
            <Position>
              <LatitudeDegrees>38.036006391048431396484375</LatitudeDegrees>
              <LongitudeDegrees>-1.12117133103311061859130859375</LongitudeDegrees>
            </Position>
            <AltitudeMeters>89</AltitudeMeters>
            <DistanceMeters>NAN</DistanceMeters>
          </Trackpoint>
          <Trackpoint>
            <Time>2020-05-25T04:48:31.000Z</Time>
            <Position>
              <LatitudeDegrees>38.036006391048431396484375</LatitudeDegrees>
              <LongitudeDegrees>-1.12117133103311061859130859375</LongitudeDegrees>
            </Position>
            <AltitudeMeters>89</AltitudeMeters>
            <DistanceMeters>NAN</DistanceMeters>
          </Trackpoint>
          <Trackpoint>
            <Time>2020-05-25T04:48:32.000Z</Time>
            <Position>
              <LatitudeDegrees>38.03605894558131694793701171875</LatitudeDegrees>
              <LongitudeDegrees>-1.121005453169345855712890625</LongitudeDegrees>
            </Position>
            <AltitudeMeters>89.1999969482421875</AltitudeMeters>
            <DistanceMeters>NAN</DistanceMeters>
          </Trackpoint>
          <Trackpoint>
            <Time>2020-05-25T04:48:33.000Z</Time>
            <Position>
              <LatitudeDegrees>38.03605894558131694793701171875</LatitudeDegrees>
              <LongitudeDegrees>-1.121005453169345855712890625</LongitudeDegrees>
            </Position>
            <AltitudeMeters>89.1999969482421875</AltitudeMeters>
            <DistanceMeters>NAN</DistanceMeters>
          </Trackpoint>
          <Trackpoint>
            <Time>2020-05-25T04:48:34.000Z</Time>
            <Position>
              <LatitudeDegrees>38.036083839833736419677734375</LatitudeDegrees>
              <LongitudeDegrees>-1.1209218017756938934326171875</LongitudeDegrees>
            </Position>
            <AltitudeMeters>89.40000152587890625</AltitudeMeters>
            <DistanceMeters>NAN</DistanceMeters>
          </Trackpoint>
          <Trackpoint>
            <Time>2020-05-25T04:48:35.000Z</Time>
            <Position>
              <LatitudeDegrees>38.0361084826290607452392578125</LatitudeDegrees>
              <LongitudeDegrees>-1.1208379827439785003662109375</LongitudeDegrees>
            </Position>
            <AltitudeMeters>89.40000152587890625</AltitudeMeters>
            <DistanceMeters>NAN</DistanceMeters>
          </Trackpoint>
          <Trackpoint>
            <Time>2020-05-25T04:48:36.000Z</Time>
            <Position>
              <LatitudeDegrees>38.03615315817296504974365234375</LatitudeDegrees>
              <LongitudeDegrees>-1.12067076377570629119873046875</LongitudeDegrees>
            </Position>
            <AltitudeMeters>89.40000152587890625</AltitudeMeters>
            <DistanceMeters>NAN</DistanceMeters>
          </Trackpoint>
          <Trackpoint>
            <Time>2020-05-25T04:48:37.000Z</Time>
            <Position>
              <LatitudeDegrees>38.03615315817296504974365234375</LatitudeDegrees>
              <LongitudeDegrees>-1.12067076377570629119873046875</LongitudeDegrees>
            </Position>
            <AltitudeMeters>89.59999847412109375</AltitudeMeters>
            <DistanceMeters>NAN</DistanceMeters>
          </Trackpoint>
          <Trackpoint>
            <Time>2020-05-25T04:48:38.000Z</Time>
            <Position>
              <LatitudeDegrees>38.0361928045749664306640625</LatitudeDegrees>
              <LongitudeDegrees>-1.12050295807421207427978515625</LongitudeDegrees>
            </Position>
            <AltitudeMeters>89.8000030517578125</AltitudeMeters>
            <DistanceMeters>NAN</DistanceMeters>
          </Trackpoint>
          <Trackpoint>
            <Time>2020-05-25T04:48:39.000Z</Time>
            <Position>
              <LatitudeDegrees>38.0361928045749664306640625</LatitudeDegrees>
              <LongitudeDegrees>-1.12050295807421207427978515625</LongitudeDegrees>
            </Position>
            <AltitudeMeters>89.8000030517578125</AltitudeMeters>
            <DistanceMeters>NAN</DistanceMeters>
          </Trackpoint>
          <Trackpoint>
            <Time>2020-05-25T04:48:40.000Z</Time>
            <Position>
              <LatitudeDegrees>38.03621417842805385589599609375</LatitudeDegrees>
              <LongitudeDegrees>-1.12041972577571868896484375</LongitudeDegrees>
            </Position>
            <AltitudeMeters>89.8000030517578125</AltitudeMeters>
            <DistanceMeters>NAN</DistanceMeters>
          </Trackpoint>
          <Trackpoint>
            <Time>2020-05-25T04:48:41.000Z</Time>
            <Position>
              <LatitudeDegrees>38.03623496554791927337646484375</LatitudeDegrees>
              <LongitudeDegrees>-1.1203364096581935882568359375</LongitudeDegrees>
            </Position>
            <AltitudeMeters>90</AltitudeMeters>
            <DistanceMeters>NAN</DistanceMeters>
          </Trackpoint>
          <Trackpoint>
            <Time>2020-05-25T04:48:42.000Z</Time>
            <Position>
              <LatitudeDegrees>38.0362777970731258392333984375</LatitudeDegrees>
              <LongitudeDegrees>-1.12017053179442882537841796875</LongitudeDegrees>
            </Position>
            <AltitudeMeters>90</AltitudeMeters>
            <DistanceMeters>NAN</DistanceMeters>
          </Trackpoint>
          <Trackpoint>
            <Time>2020-05-25T04:48:43.000Z</Time>
            <Position>
              <LatitudeDegrees>38.0362777970731258392333984375</LatitudeDegrees>
              <LongitudeDegrees>-1.12017053179442882537841796875</LongitudeDegrees>
            </Position>
            <AltitudeMeters>90</AltitudeMeters>
            <DistanceMeters>NAN</DistanceMeters>
          </Trackpoint>
          <Trackpoint>
            <Time>2020-05-25T04:48:44.000Z</Time>
            <Position>
              <LatitudeDegrees>38.03631979040801525115966796875</LatitudeDegrees>
              <LongitudeDegrees>-1.12000490538775920867919921875</LongitudeDegrees>
            </Position>
            <AltitudeMeters>90</AltitudeMeters>
            <DistanceMeters>NAN</DistanceMeters>
          </Trackpoint>
          <Trackpoint>
            <Time>2020-05-25T04:48:45.000Z</Time>
            <Position>
              <LatitudeDegrees>38.03631979040801525115966796875</LatitudeDegrees>
              <LongitudeDegrees>-1.12000490538775920867919921875</LongitudeDegrees>
            </Position>
            <AltitudeMeters>90.1999969482421875</AltitudeMeters>
            <DistanceMeters>NAN</DistanceMeters>
          </Trackpoint>
          <Trackpoint>
            <Time>2020-05-25T04:48:46.000Z</Time>
            <Position>
              <LatitudeDegrees>38.03634099662303924560546875</LatitudeDegrees>
              <LongitudeDegrees>-1.11992209218442440032958984375</LongitudeDegrees>
            </Position>
            <AltitudeMeters>90.1999969482421875</AltitudeMeters>
            <DistanceMeters>NAN</DistanceMeters>
          </Trackpoint>
          <Trackpoint>
            <Time>2020-05-25T04:48:47.000Z</Time>
            <Position>
              <LatitudeDegrees>38.03636169992387294769287109375</LatitudeDegrees>
              <LongitudeDegrees>-1.11983877606689929962158203125</LongitudeDegrees>
            </Position>
            <AltitudeMeters>90.1999969482421875</AltitudeMeters>
            <DistanceMeters>NAN</DistanceMeters>
          </Trackpoint>
          <Trackpoint>
            <Time>2020-05-25T04:48:48.000Z</Time>
            <Position>
              <LatitudeDegrees>38.03640478290617465972900390625</LatitudeDegrees>
              <LongitudeDegrees>-1.11967080272734165191650390625</LongitudeDegrees>
            </Position>
            <AltitudeMeters>90.1999969482421875</AltitudeMeters>
            <DistanceMeters>NAN</DistanceMeters>
          </Trackpoint>
          <Trackpoint>
            <Time>2020-05-25T04:48:49.000Z</Time>
            <Position>
              <LatitudeDegrees>38.03640478290617465972900390625</LatitudeDegrees>
              <LongitudeDegrees>-1.11967080272734165191650390625</LongitudeDegrees>
            </Position>
            <AltitudeMeters>90.1999969482421875</AltitudeMeters>
            <DistanceMeters>NAN</DistanceMeters>
          </Trackpoint>
          <Trackpoint>
            <Time>2020-05-25T04:48:50.000Z</Time>
            <Position>
              <LatitudeDegrees>38.03644853644073009490966796875</LatitudeDegrees>
              <LongitudeDegrees>-1.11950249411165714263916015625</LongitudeDegrees>
            </Position>
            <AltitudeMeters>90.1999969482421875</AltitudeMeters>
            <DistanceMeters>NAN</DistanceMeters>
          </Trackpoint>
          <Trackpoint>
            <Time>2020-05-25T04:48:51.000Z</Time>
            <Position>
              <LatitudeDegrees>38.03644853644073009490966796875</LatitudeDegrees>
              <LongitudeDegrees>-1.11950249411165714263916015625</LongitudeDegrees>
            </Position>
            <AltitudeMeters>90.40000152587890625</AltitudeMeters>
            <DistanceMeters>NAN</DistanceMeters>
          </Trackpoint>
          <Trackpoint>
            <Time>2020-05-25T04:48:52.000Z</Time>
            <Position>
              <LatitudeDegrees>38.0364695750176906585693359375</LatitudeDegrees>
              <LongitudeDegrees>-1.11941792070865631103515625</LongitudeDegrees>
            </Position>
            <AltitudeMeters>90.40000152587890625</AltitudeMeters>
            <DistanceMeters>NAN</DistanceMeters>
          </Trackpoint>
          <Trackpoint>
            <Time>2020-05-25T04:48:53.000Z</Time>
            <Position>
              <LatitudeDegrees>38.03649111650884151458740234375</LatitudeDegrees>
              <LongitudeDegrees>-1.11933267675340175628662109375</LongitudeDegrees>
            </Position>
            <AltitudeMeters>90.40000152587890625</AltitudeMeters>
            <DistanceMeters>NAN</DistanceMeters>
          </Trackpoint>
          <Trackpoint>
            <Time>2020-05-25T04:48:54.000Z</Time>
            <Position>
              <LatitudeDegrees>38.0365339480340480804443359375</LatitudeDegrees>
              <LongitudeDegrees>-1.11916202120482921600341796875</LongitudeDegrees>
            </Position>
            <AltitudeMeters>90.40000152587890625</AltitudeMeters>
            <DistanceMeters>NAN</DistanceMeters>
          </Trackpoint>
          <Trackpoint>
            <Time>2020-05-25T04:48:55.000Z</Time>
            <Position>
              <LatitudeDegrees>38.0365339480340480804443359375</LatitudeDegrees>
              <LongitudeDegrees>-1.11916202120482921600341796875</LongitudeDegrees>
            </Position>
            <AltitudeMeters>90.40000152587890625</AltitudeMeters>
            <DistanceMeters>NAN</DistanceMeters>
          </Trackpoint>
          <Trackpoint>
            <Time>2020-05-25T04:48:56.000Z</Time>
            <Position>
              <LatitudeDegrees>38.03657837212085723876953125</LatitudeDegrees>
              <LongitudeDegrees>-1.118991784751415252685546875</LongitudeDegrees>
            </Position>
            <AltitudeMeters>90.40000152587890625</AltitudeMeters>
            <DistanceMeters>NAN</DistanceMeters>
          </Trackpoint>
          <Trackpoint>
            <Time>2020-05-25T04:48:57.000Z</Time>
            <Position>
              <LatitudeDegrees>38.03657837212085723876953125</LatitudeDegrees>
              <LongitudeDegrees>-1.118991784751415252685546875</LongitudeDegrees>
            </Position>
            <AltitudeMeters>90.59999847412109375</AltitudeMeters>
            <DistanceMeters>NAN</DistanceMeters>
          </Trackpoint>
          <Trackpoint>
            <Time>2020-05-25T04:48:58.000Z</Time>
            <Position>
              <LatitudeDegrees>38.03660117089748382568359375</LatitudeDegrees>
              <LongitudeDegrees>-1.1189064569771289825439453125</LongitudeDegrees>
            </Position>
            <AltitudeMeters>90.59999847412109375</AltitudeMeters>
            <DistanceMeters>NAN</DistanceMeters>
          </Trackpoint>
          <Trackpoint>
            <Time>2020-05-25T04:48:59.000Z</Time>
            <Position>
              <LatitudeDegrees>38.036624304950237274169921875</LatitudeDegrees>
              <LongitudeDegrees>-1.11882054246962070465087890625</LongitudeDegrees>
            </Position>
            <AltitudeMeters>90.59999847412109375</AltitudeMeters>
            <DistanceMeters>NAN</DistanceMeters>
          </Trackpoint>
          <Trackpoint>
            <Time>2020-05-25T04:49:00.000Z</Time>
            <Position>
              <LatitudeDegrees>38.03667493164539337158203125</LatitudeDegrees>
              <LongitudeDegrees>-1.11864988692104816436767578125</LongitudeDegrees>
            </Position>
            <AltitudeMeters>90.59999847412109375</AltitudeMeters>
            <DistanceMeters>NAN</DistanceMeters>
          </Trackpoint>
          <Trackpoint>
            <Time>2020-05-25T04:49:01.000Z</Time>
            <Position>
              <LatitudeDegrees>38.03667493164539337158203125</LatitudeDegrees>
              <LongitudeDegrees>-1.11864988692104816436767578125</LongitudeDegrees>
            </Position>
            <AltitudeMeters>90.59999847412109375</AltitudeMeters>
            <DistanceMeters>NAN</DistanceMeters>
          </Trackpoint>
          <Trackpoint>
            <Time>2020-05-25T04:49:02.000Z</Time>
            <Position>
              <LatitudeDegrees>38.03673653863370418548583984375</LatitudeDegrees>
              <LongitudeDegrees>-1.11848308704793453216552734375</LongitudeDegrees>
            </Position>
            <AltitudeMeters>90.59999847412109375</AltitudeMeters>
            <DistanceMeters>NAN</DistanceMeters>
          </Trackpoint>
          <Trackpoint>
            <Time>2020-05-25T04:49:03.000Z</Time>
            <Position>
              <LatitudeDegrees>38.03673653863370418548583984375</LatitudeDegrees>
              <LongitudeDegrees>-1.11848308704793453216552734375</LongitudeDegrees>
            </Position>
            <AltitudeMeters>90.40000152587890625</AltitudeMeters>
            <DistanceMeters>NAN</DistanceMeters>
          </Trackpoint>
          <Trackpoint>
            <Time>2020-05-25T04:49:04.000Z</Time>
            <Position>
              <LatitudeDegrees>38.03676956333220005035400390625</LatitudeDegrees>
              <LongitudeDegrees>-1.11840044148266315460205078125</LongitudeDegrees>
            </Position>
            <AltitudeMeters>90.59999847412109375</AltitudeMeters>
            <DistanceMeters>NAN</DistanceMeters>
          </Trackpoint>
          <Trackpoint>
            <Time>2020-05-25T04:49:05.000Z</Time>
            <Position>
              <LatitudeDegrees>38.03680409677326679229736328125</LatitudeDegrees>
              <LongitudeDegrees>-1.1183177120983600616455078125</LongitudeDegrees>
            </Position>
            <AltitudeMeters>90.59999847412109375</AltitudeMeters>
            <DistanceMeters>NAN</DistanceMeters>
          </Trackpoint>
          <Trackpoint>
            <Time>2020-05-25T04:49:06.000Z</Time>
            <Position>
              <LatitudeDegrees>38.036877773702144622802734375</LatitudeDegrees>
              <LongitudeDegrees>-1.11815367825329303741455078125</LongitudeDegrees>
            </Position>
            <AltitudeMeters>90.59999847412109375</AltitudeMeters>
            <DistanceMeters>NAN</DistanceMeters>
          </Trackpoint>
          <Trackpoint>
            <Time>2020-05-25T04:49:07.000Z</Time>
            <Position>
              <LatitudeDegrees>38.036877773702144622802734375</LatitudeDegrees>
              <LongitudeDegrees>-1.11815367825329303741455078125</LongitudeDegrees>
            </Position>
            <AltitudeMeters>90.40000152587890625</AltitudeMeters>
            <DistanceMeters>NAN</DistanceMeters>
          </Trackpoint>
          <Trackpoint>
            <Time>2020-05-25T04:49:08.000Z</Time>
            <Position>
              <LatitudeDegrees>38.0369584076106548309326171875</LatitudeDegrees>
              <LongitudeDegrees>-1.11799224279820919036865234375</LongitudeDegrees>
            </Position>
            <AltitudeMeters>90.40000152587890625</AltitudeMeters>
            <DistanceMeters>NAN</DistanceMeters>
          </Trackpoint>
          <Trackpoint>
            <Time>2020-05-25T04:49:09.000Z</Time>
            <Position>
              <LatitudeDegrees>38.0369584076106548309326171875</LatitudeDegrees>
              <LongitudeDegrees>-1.11799224279820919036865234375</LongitudeDegrees>
            </Position>
            <AltitudeMeters>90.40000152587890625</AltitudeMeters>
            <DistanceMeters>NAN</DistanceMeters>
          </Trackpoint>
          <Trackpoint>
            <Time>2020-05-25T04:49:10.000Z</Time>
            <Position>
              <LatitudeDegrees>38.03700258024036884307861328125</LatitudeDegrees>
              <LongitudeDegrees>-1.1179137043654918670654296875</LongitudeDegrees>
            </Position>
            <AltitudeMeters>90.1999969482421875</AltitudeMeters>
            <DistanceMeters>NAN</DistanceMeters>
          </Trackpoint>
          <Trackpoint>
            <Time>2020-05-25T04:49:11.000Z</Time>
            <Position>
              <LatitudeDegrees>38.037049770355224609375</LatitudeDegrees>
              <LongitudeDegrees>-1.117837093770503997802734375</LongitudeDegrees>
            </Position>
            <AltitudeMeters>90.1999969482421875</AltitudeMeters>
            <DistanceMeters>NAN</DistanceMeters>
          </Trackpoint>
          <Trackpoint>
            <Time>2020-05-25T04:49:12.000Z</Time>
            <Position>
              <LatitudeDegrees>38.03714842535555362701416015625</LatitudeDegrees>
              <LongitudeDegrees>-1.11768881790339946746826171875</LongitudeDegrees>
            </Position>
            <AltitudeMeters>90.1999969482421875</AltitudeMeters>
            <DistanceMeters>NAN</DistanceMeters>
          </Trackpoint>
          <Trackpoint>
            <Time>2020-05-25T04:49:13.000Z</Time>
            <Position>
              <LatitudeDegrees>38.03714842535555362701416015625</LatitudeDegrees>
              <LongitudeDegrees>-1.11768881790339946746826171875</LongitudeDegrees>
            </Position>
            <AltitudeMeters>90</AltitudeMeters>
            <DistanceMeters>NAN</DistanceMeters>
          </Trackpoint>
          <Trackpoint>
            <Time>2020-05-25T04:49:14.000Z</Time>
            <Position>
              <LatitudeDegrees>38.0372557975351810455322265625</LatitudeDegrees>
              <LongitudeDegrees>-1.117548756301403045654296875</LongitudeDegrees>
            </Position>
            <AltitudeMeters>90</AltitudeMeters>
            <DistanceMeters>NAN</DistanceMeters>
          </Trackpoint>
          <Trackpoint>
            <Time>2020-05-25T04:49:15.000Z</Time>
            <Position>
              <LatitudeDegrees>38.0372557975351810455322265625</LatitudeDegrees>
              <LongitudeDegrees>-1.117548756301403045654296875</LongitudeDegrees>
            </Position>
            <AltitudeMeters>90</AltitudeMeters>
            <DistanceMeters>NAN</DistanceMeters>
          </Trackpoint>
          <Trackpoint>
            <Time>2020-05-25T04:49:16.000Z</Time>
            <Position>
              <LatitudeDegrees>38.03731120191514492034912109375</LatitudeDegrees>
              <LongitudeDegrees>-1.11748077906668186187744140625</LongitudeDegrees>
            </Position>
            <AltitudeMeters>89.8000030517578125</AltitudeMeters>
            <DistanceMeters>NAN</DistanceMeters>
          </Trackpoint>
          <Trackpoint>
            <Time>2020-05-25T04:49:17.000Z</Time>
            <Position>
              <LatitudeDegrees>38.037365265190601348876953125</LatitudeDegrees>
              <LongitudeDegrees>-1.11741120927035808563232421875</LongitudeDegrees>
            </Position>
            <AltitudeMeters>89.8000030517578125</AltitudeMeters>
            <DistanceMeters>NAN</DistanceMeters>
          </Trackpoint>
          <Trackpoint>
            <Time>2020-05-25T04:49:18.000Z</Time>
            <Position>
              <LatitudeDegrees>38.037467189133167266845703125</LatitudeDegrees>
              <LongitudeDegrees>-1.1172669567167758941650390625</LongitudeDegrees>
            </Position>
            <AltitudeMeters>89.8000030517578125</AltitudeMeters>
            <DistanceMeters>NAN</DistanceMeters>
          </Trackpoint>
          <Trackpoint>
            <Time>2020-05-25T04:49:19.000Z</Time>
            <Position>
              <LatitudeDegrees>38.037467189133167266845703125</LatitudeDegrees>
              <LongitudeDegrees>-1.1172669567167758941650390625</LongitudeDegrees>
            </Position>
            <AltitudeMeters>89.59999847412109375</AltitudeMeters>
            <DistanceMeters>NAN</DistanceMeters>
          </Trackpoint>
          <Trackpoint>
            <Time>2020-05-25T04:49:20.000Z</Time>
            <Position>
              <LatitudeDegrees>38.03756584413349628448486328125</LatitudeDegrees>
              <LongitudeDegrees>-1.1171201057732105255126953125</LongitudeDegrees>
            </Position>
            <AltitudeMeters>89.59999847412109375</AltitudeMeters>
            <DistanceMeters>NAN</DistanceMeters>
          </Trackpoint>
          <Trackpoint>
            <Time>2020-05-25T04:49:21.000Z</Time>
            <Position>
              <LatitudeDegrees>38.03756584413349628448486328125</LatitudeDegrees>
              <LongitudeDegrees>-1.1171201057732105255126953125</LongitudeDegrees>
            </Position>
            <AltitudeMeters>89.59999847412109375</AltitudeMeters>
            <DistanceMeters>NAN</DistanceMeters>
          </Trackpoint>
          <Trackpoint>
            <Time>2020-05-25T04:49:22.000Z</Time>
            <Position>
              <LatitudeDegrees>38.03761412389576435089111328125</LatitudeDegrees>
              <LongitudeDegrees>-1.11704575829207897186279296875</LongitudeDegrees>
            </Position>
            <AltitudeMeters>89.40000152587890625</AltitudeMeters>
            <DistanceMeters>NAN</DistanceMeters>
          </Trackpoint>
          <Trackpoint>
            <Time>2020-05-25T04:49:23.000Z</Time>
            <Position>
              <LatitudeDegrees>38.03766089491546154022216796875</LatitudeDegrees>
              <LongitudeDegrees>-1.1169712431728839874267578125</LongitudeDegrees>
            </Position>
            <AltitudeMeters>89.40000152587890625</AltitudeMeters>
            <DistanceMeters>NAN</DistanceMeters>
          </Trackpoint>
          <Trackpoint>
            <Time>2020-05-25T04:49:24.000Z</Time>
            <Position>
              <LatitudeDegrees>38.037753514945507049560546875</LatitudeDegrees>
              <LongitudeDegrees>-1.11682154238224029541015625</LongitudeDegrees>
            </Position>
            <AltitudeMeters>89.40000152587890625</AltitudeMeters>
            <DistanceMeters>NAN</DistanceMeters>
          </Trackpoint>
          <Trackpoint>
            <Time>2020-05-25T04:49:25.000Z</Time>
            <Position>
              <LatitudeDegrees>38.03780003450810909271240234375</LatitudeDegrees>
              <LongitudeDegrees>-1.1167471110820770263671875</LongitudeDegrees>
            </Position>
            <AltitudeMeters>89.1999969482421875</AltitudeMeters>
            <DistanceMeters>NAN</DistanceMeters>
          </Trackpoint>
          <Trackpoint>
            <Time>2020-05-25T04:49:26.000Z</Time>
            <Position>
              <LatitudeDegrees>38.0378458835184574127197265625</LatitudeDegrees>
              <LongitudeDegrees>-1.116672344505786895751953125</LongitudeDegrees>
            </Position>
            <AltitudeMeters>89</AltitudeMeters>
            <DistanceMeters>NAN</DistanceMeters>
          </Trackpoint>
          <Trackpoint>
            <Time>2020-05-25T04:49:27.000Z</Time>
            <Position>
              <LatitudeDegrees>38.0378458835184574127197265625</LatitudeDegrees>
              <LongitudeDegrees>-1.116672344505786895751953125</LongitudeDegrees>
            </Position>
            <AltitudeMeters>89</AltitudeMeters>
            <DistanceMeters>NAN</DistanceMeters>
          </Trackpoint>
          <Trackpoint>
            <Time>2020-05-25T04:49:28.000Z</Time>
            <Position>
              <LatitudeDegrees>38.03789106197655200958251953125</LatitudeDegrees>
              <LongitudeDegrees>-1.116597242653369903564453125</LongitudeDegrees>
            </Position>
            <AltitudeMeters>88.8000030517578125</AltitudeMeters>
            <DistanceMeters>NAN</DistanceMeters>
          </Trackpoint>
          <Trackpoint>
            <Time>2020-05-25T04:49:29.000Z</Time>
            <Position>
              <LatitudeDegrees>38.0379826761782169342041015625</LatitudeDegrees>
              <LongitudeDegrees>-1.11644678749144077301025390625</LongitudeDegrees>
            </Position>
            <AltitudeMeters>89</AltitudeMeters>
            <DistanceMeters>NAN</DistanceMeters>
          </Trackpoint>
          <Trackpoint>
            <Time>2020-05-25T04:49:30.000Z</Time>
            <Position>
              <LatitudeDegrees>38.03802785463631153106689453125</LatitudeDegrees>
              <LongitudeDegrees>-1.11637067981064319610595703125</LongitudeDegrees>
            </Position>
            <AltitudeMeters>89</AltitudeMeters>
            <DistanceMeters>NAN</DistanceMeters>
          </Trackpoint>
          <Trackpoint>
            <Time>2020-05-25T04:49:31.000Z</Time>
            <Position>
              <LatitudeDegrees>38.03807378746569156646728515625</LatitudeDegrees>
              <LongitudeDegrees>-1.1162953265011310577392578125</LongitudeDegrees>
            </Position>
            <AltitudeMeters>89</AltitudeMeters>
            <DistanceMeters>NAN</DistanceMeters>
          </Trackpoint>
          <Trackpoint>
            <Time>2020-05-25T04:49:32.000Z</Time>
            <Position>
              <LatitudeDegrees>38.038120307028293609619140625</LatitudeDegrees>
              <LongitudeDegrees>-1.11621980555355548858642578125</LongitudeDegrees>
            </Position>
            <AltitudeMeters>89</AltitudeMeters>
            <DistanceMeters>NAN</DistanceMeters>
          </Trackpoint>
          <Trackpoint>
            <Time>2020-05-25T04:49:33.000Z</Time>
            <Position>
              <LatitudeDegrees>38.038120307028293609619140625</LatitudeDegrees>
              <LongitudeDegrees>-1.11621980555355548858642578125</LongitudeDegrees>
            </Position>
            <AltitudeMeters>89</AltitudeMeters>
            <DistanceMeters>NAN</DistanceMeters>
          </Trackpoint>
          <Trackpoint>
            <Time>2020-05-25T04:49:34.000Z</Time>
            <Position>
              <LatitudeDegrees>38.0381677486002445220947265625</LatitudeDegrees>
              <LongitudeDegrees>-1.11614520661532878875732421875</LongitudeDegrees>
            </Position>
            <AltitudeMeters>89</AltitudeMeters>
            <DistanceMeters>NAN</DistanceMeters>
          </Trackpoint>
          <Trackpoint>
            <Time>2020-05-25T04:49:35.000Z</Time>
            <Position>
              <LatitudeDegrees>38.03821544162929058074951171875</LatitudeDegrees>
              <LongitudeDegrees>-1.116070859134197235107421875</LongitudeDegrees>
            </Position>
            <AltitudeMeters>89</AltitudeMeters>
            <DistanceMeters>NAN</DistanceMeters>
          </Trackpoint>
          <Trackpoint>
            <Time>2020-05-25T04:49:36.000Z</Time>
            <Position>
              <LatitudeDegrees>38.038309402763843536376953125</LatitudeDegrees>
              <LongitudeDegrees>-1.11591772176325321197509765625</LongitudeDegrees>
            </Position>
            <AltitudeMeters>88.8000030517578125</AltitudeMeters>
            <DistanceMeters>NAN</DistanceMeters>
          </Trackpoint>
          <Trackpoint>
            <Time>2020-05-25T04:49:37.000Z</Time>
            <Position>
              <LatitudeDegrees>38.038309402763843536376953125</LatitudeDegrees>
              <LongitudeDegrees>-1.11591772176325321197509765625</LongitudeDegrees>
            </Position>
            <AltitudeMeters>88.8000030517578125</AltitudeMeters>
            <DistanceMeters>NAN</DistanceMeters>
          </Trackpoint>
          <Trackpoint>
            <Time>2020-05-25T04:49:38.000Z</Time>
            <Position>
              <LatitudeDegrees>38.038405291736125946044921875</LatitudeDegrees>
              <LongitudeDegrees>-1.11576299183070659637451171875</LongitudeDegrees>
            </Position>
            <AltitudeMeters>89</AltitudeMeters>
            <DistanceMeters>NAN</DistanceMeters>
          </Trackpoint>
          <Trackpoint>
            <Time>2020-05-25T04:49:39.000Z</Time>
            <Position>
              <LatitudeDegrees>38.038405291736125946044921875</LatitudeDegrees>
              <LongitudeDegrees>-1.11576299183070659637451171875</LongitudeDegrees>
            </Position>
            <AltitudeMeters>89</AltitudeMeters>
            <DistanceMeters>NAN</DistanceMeters>
          </Trackpoint>
          <Trackpoint>
            <Time>2020-05-25T04:49:40.000Z</Time>
            <Position>
              <LatitudeDegrees>38.0384527333080768585205078125</LatitudeDegrees>
              <LongitudeDegrees>-1.11568436957895755767822265625</LongitudeDegrees>
            </Position>
            <AltitudeMeters>88.8000030517578125</AltitudeMeters>
            <DistanceMeters>NAN</DistanceMeters>
          </Trackpoint>
          <Trackpoint>
            <Time>2020-05-25T04:49:41.000Z</Time>
            <Position>
              <LatitudeDegrees>38.03854535333812236785888671875</LatitudeDegrees>
              <LongitudeDegrees>-1.11552461050450801849365234375</LongitudeDegrees>
            </Position>
            <AltitudeMeters>88.8000030517578125</AltitudeMeters>
            <DistanceMeters>NAN</DistanceMeters>
          </Trackpoint>
          <Trackpoint>
            <Time>2020-05-25T04:49:42.000Z</Time>
            <Position>
              <LatitudeDegrees>38.03859136998653411865234375</LatitudeDegrees>
              <LongitudeDegrees>-1.11544481478631496429443359375</LongitudeDegrees>
            </Position>
            <AltitudeMeters>88.8000030517578125</AltitudeMeters>
            <DistanceMeters>NAN</DistanceMeters>
          </Trackpoint>
          <Trackpoint>
            <Time>2020-05-25T04:49:43.000Z</Time>
            <Position>
              <LatitudeDegrees>38.03859136998653411865234375</LatitudeDegrees>
              <LongitudeDegrees>-1.11544481478631496429443359375</LongitudeDegrees>
            </Position>
            <AltitudeMeters>88.8000030517578125</AltitudeMeters>
            <DistanceMeters>NAN</DistanceMeters>
          </Trackpoint>
          <Trackpoint>
            <Time>2020-05-25T04:49:44.000Z</Time>
            <Position>
              <LatitudeDegrees>38.03868122398853302001953125</LatitudeDegrees>
              <LongitudeDegrees>-1.1152837984263896942138671875</LongitudeDegrees>
            </Position>
            <AltitudeMeters>88.8000030517578125</AltitudeMeters>
            <DistanceMeters>NAN</DistanceMeters>
          </Trackpoint>
          <Trackpoint>
            <Time>2020-05-25T04:49:45.000Z</Time>
            <Position>
              <LatitudeDegrees>38.03868122398853302001953125</LatitudeDegrees>
              <LongitudeDegrees>-1.1152837984263896942138671875</LongitudeDegrees>
            </Position>
            <AltitudeMeters>88.8000030517578125</AltitudeMeters>
            <DistanceMeters>NAN</DistanceMeters>
          </Trackpoint>
          <Trackpoint>
            <Time>2020-05-25T04:49:46.000Z</Time>
            <Position>
              <LatitudeDegrees>38.03872506134212017059326171875</LatitudeDegrees>
              <LongitudeDegrees>-1.11520148813724517822265625</LongitudeDegrees>
            </Position>
            <AltitudeMeters>88.8000030517578125</AltitudeMeters>
            <DistanceMeters>NAN</DistanceMeters>
          </Trackpoint>
          <Trackpoint>
            <Time>2020-05-25T04:49:47.000Z</Time>
            <Position>
              <LatitudeDegrees>38.038768731057643890380859375</LatitudeDegrees>
              <LongitudeDegrees>-1.1151190102100372314453125</LongitudeDegrees>
            </Position>
            <AltitudeMeters>88.8000030517578125</AltitudeMeters>
            <DistanceMeters>NAN</DistanceMeters>
          </Trackpoint>
          <Trackpoint>
            <Time>2020-05-25T04:49:48.000Z</Time>
            <Position>
              <LatitudeDegrees>38.038856573402881622314453125</LatitudeDegrees>
              <LongitudeDegrees>-1.11495338380336761474609375</LongitudeDegrees>
            </Position>
            <AltitudeMeters>88.8000030517578125</AltitudeMeters>
            <DistanceMeters>NAN</DistanceMeters>
          </Trackpoint>
          <Trackpoint>
            <Time>2020-05-25T04:49:49.000Z</Time>
            <Position>
              <LatitudeDegrees>38.038856573402881622314453125</LatitudeDegrees>
              <LongitudeDegrees>-1.11495338380336761474609375</LongitudeDegrees>
            </Position>
            <AltitudeMeters>88.8000030517578125</AltitudeMeters>
            <DistanceMeters>NAN</DistanceMeters>
          </Trackpoint>
          <Trackpoint>
            <Time>2020-05-25T04:49:50.000Z</Time>
            <Position>
              <LatitudeDegrees>38.03894651122391223907470703125</LatitudeDegrees>
              <LongitudeDegrees>-1.11478750593960285186767578125</LongitudeDegrees>
            </Position>
            <AltitudeMeters>88.8000030517578125</AltitudeMeters>
            <DistanceMeters>NAN</DistanceMeters>
          </Trackpoint>
          <Trackpoint>
            <Time>2020-05-25T04:49:51.000Z</Time>
            <Position>
              <LatitudeDegrees>38.03894651122391223907470703125</LatitudeDegrees>
              <LongitudeDegrees>-1.11478750593960285186767578125</LongitudeDegrees>
            </Position>
            <AltitudeMeters>88.8000030517578125</AltitudeMeters>
            <DistanceMeters>NAN</DistanceMeters>
          </Trackpoint>
          <Trackpoint>
            <Time>2020-05-25T04:49:52.000Z</Time>
            <Position>
              <LatitudeDegrees>38.03899093531072139739990234375</LatitudeDegrees>
              <LongitudeDegrees>-1.114703603088855743408203125</LongitudeDegrees>
            </Position>
            <AltitudeMeters>88.59999847412109375</AltitudeMeters>
            <DistanceMeters>NAN</DistanceMeters>
          </Trackpoint>
          <Trackpoint>
            <Time>2020-05-25T04:49:53.000Z</Time>
            <Position>
              <LatitudeDegrees>38.03903569467365741729736328125</LatitudeDegrees>
              <LongitudeDegrees>-1.11462003551423549652099609375</LongitudeDegrees>
            </Position>
            <AltitudeMeters>88.59999847412109375</AltitudeMeters>
            <DistanceMeters>NAN</DistanceMeters>
          </Trackpoint>
          <Trackpoint>
            <Time>2020-05-25T04:49:54.000Z</Time>
            <Position>
              <LatitudeDegrees>38.03912370465695858001708984375</LatitudeDegrees>
              <LongitudeDegrees>-1.114453487098217010498046875</LongitudeDegrees>
            </Position>
            <AltitudeMeters>88.40000152587890625</AltitudeMeters>
            <DistanceMeters>NAN</DistanceMeters>
          </Trackpoint>
          <Trackpoint>
            <Time>2020-05-25T04:49:55.000Z</Time>
            <Position>
              <LatitudeDegrees>38.03912370465695858001708984375</LatitudeDegrees>
              <LongitudeDegrees>-1.114453487098217010498046875</LongitudeDegrees>
            </Position>
            <AltitudeMeters>88.40000152587890625</AltitudeMeters>
            <DistanceMeters>NAN</DistanceMeters>
          </Trackpoint>
          <Trackpoint>
            <Time>2020-05-25T04:49:56.000Z</Time>
            <Position>
              <LatitudeDegrees>38.03921163082122802734375</LatitudeDegrees>
              <LongitudeDegrees>-1.11428895033895969390869140625</LongitudeDegrees>
            </Position>
            <AltitudeMeters>88</AltitudeMeters>
            <DistanceMeters>NAN</DistanceMeters>
          </Trackpoint>
          <Trackpoint>
            <Time>2020-05-25T04:49:57.000Z</Time>
            <Position>
              <LatitudeDegrees>38.03921163082122802734375</LatitudeDegrees>
              <LongitudeDegrees>-1.11428895033895969390869140625</LongitudeDegrees>
            </Position>
            <AltitudeMeters>88</AltitudeMeters>
            <DistanceMeters>NAN</DistanceMeters>
          </Trackpoint>
          <Trackpoint>
            <Time>2020-05-25T04:49:58.000Z</Time>
            <Position>
              <LatitudeDegrees>38.0392553843557834625244140625</LatitudeDegrees>
              <LongitudeDegrees>-1.1142065562307834625244140625</LongitudeDegrees>
            </Position>
            <AltitudeMeters>87.8000030517578125</AltitudeMeters>
            <DistanceMeters>NAN</DistanceMeters>
          </Trackpoint>
          <Trackpoint>
            <Time>2020-05-25T04:49:59.000Z</Time>
            <Position>
              <LatitudeDegrees>38.03929922170937061309814453125</LatitudeDegrees>
              <LongitudeDegrees>-1.11412466503679752349853515625</LongitudeDegrees>
            </Position>
            <AltitudeMeters>87.59999847412109375</AltitudeMeters>
            <DistanceMeters>NAN</DistanceMeters>
          </Trackpoint>
          <Trackpoint>
            <Time>2020-05-25T04:50:00.000Z</Time>
            <Position>
              <LatitudeDegrees>38.0393873155117034912109375</LatitudeDegrees>
              <LongitudeDegrees>-1.113963313400745391845703125</LongitudeDegrees>
            </Position>
            <AltitudeMeters>87.40000152587890625</AltitudeMeters>
            <DistanceMeters>NAN</DistanceMeters>
          </Trackpoint>
          <Trackpoint>
            <Time>2020-05-25T04:50:01.000Z</Time>
            <Position>
              <LatitudeDegrees>38.0393873155117034912109375</LatitudeDegrees>
              <LongitudeDegrees>-1.113963313400745391845703125</LongitudeDegrees>
            </Position>
            <AltitudeMeters>87.1999969482421875</AltitudeMeters>
            <DistanceMeters>NAN</DistanceMeters>
          </Trackpoint>
          <Trackpoint>
            <Time>2020-05-25T04:50:02.000Z</Time>
            <Position>
              <LatitudeDegrees>38.03947356529533863067626953125</LatitudeDegrees>
              <LongitudeDegrees>-1.11380271613597869873046875</LongitudeDegrees>
            </Position>
            <AltitudeMeters>87.1999969482421875</AltitudeMeters>
            <DistanceMeters>NAN</DistanceMeters>
          </Trackpoint>
          <Trackpoint>
            <Time>2020-05-25T04:50:03.000Z</Time>
            <Position>
              <LatitudeDegrees>38.03947356529533863067626953125</LatitudeDegrees>
              <LongitudeDegrees>-1.11380271613597869873046875</LongitudeDegrees>
            </Position>
            <AltitudeMeters>87</AltitudeMeters>
            <DistanceMeters>NAN</DistanceMeters>
          </Trackpoint>
          <Trackpoint>
            <Time>2020-05-25T04:50:04.000Z</Time>
            <Position>
              <LatitudeDegrees>38.03951681591570377349853515625</LatitudeDegrees>
              <LongitudeDegrees>-1.11372333951294422149658203125</LongitudeDegrees>
            </Position>
            <AltitudeMeters>87</AltitudeMeters>
            <DistanceMeters>NAN</DistanceMeters>
          </Trackpoint>
          <Trackpoint>
            <Time>2020-05-25T04:50:05.000Z</Time>
            <Position>
              <LatitudeDegrees>38.03955805487930774688720703125</LatitudeDegrees>
              <LongitudeDegrees>-1.1136429570615291595458984375</LongitudeDegrees>
            </Position>
            <AltitudeMeters>87</AltitudeMeters>
            <DistanceMeters>NAN</DistanceMeters>
          </Trackpoint>
          <Trackpoint>
            <Time>2020-05-25T04:50:06.000Z</Time>
            <Position>
              <LatitudeDegrees>38.039638437330722808837890625</LatitudeDegrees>
              <LongitudeDegrees>-1.11348244361579418182373046875</LongitudeDegrees>
            </Position>
            <AltitudeMeters>87</AltitudeMeters>
            <DistanceMeters>NAN</DistanceMeters>
          </Trackpoint>
          <Trackpoint>
            <Time>2020-05-25T04:50:07.000Z</Time>
            <Position>
              <LatitudeDegrees>38.039638437330722808837890625</LatitudeDegrees>
              <LongitudeDegrees>-1.11348244361579418182373046875</LongitudeDegrees>
            </Position>
            <AltitudeMeters>87</AltitudeMeters>
            <DistanceMeters>NAN</DistanceMeters>
          </Trackpoint>
          <Trackpoint>
            <Time>2020-05-25T04:50:08.000Z</Time>
            <Position>
              <LatitudeDegrees>38.0397210828959941864013671875</LatitudeDegrees>
              <LongitudeDegrees>-1.11332737840712070465087890625</LongitudeDegrees>
            </Position>
            <AltitudeMeters>87</AltitudeMeters>
            <DistanceMeters>NAN</DistanceMeters>
          </Trackpoint>
          <Trackpoint>
            <Time>2020-05-25T04:50:09.000Z</Time>
            <Position>
              <LatitudeDegrees>38.0397210828959941864013671875</LatitudeDegrees>
              <LongitudeDegrees>-1.11332737840712070465087890625</LongitudeDegrees>
            </Position>
            <AltitudeMeters>87</AltitudeMeters>
            <DistanceMeters>NAN</DistanceMeters>
          </Trackpoint>
          <Trackpoint>
            <Time>2020-05-25T04:50:10.000Z</Time>
            <Position>
              <LatitudeDegrees>38.0397626571357250213623046875</LatitudeDegrees>
              <LongitudeDegrees>-1.113250516355037689208984375</LongitudeDegrees>
            </Position>
            <AltitudeMeters>87</AltitudeMeters>
            <DistanceMeters>NAN</DistanceMeters>
          </Trackpoint>
          <Trackpoint>
            <Time>2020-05-25T04:50:11.000Z</Time>
            <Position>
              <LatitudeDegrees>38.039804734289646148681640625</LatitudeDegrees>
              <LongitudeDegrees>-1.11317365430295467376708984375</LongitudeDegrees>
            </Position>
            <AltitudeMeters>87</AltitudeMeters>
            <DistanceMeters>NAN</DistanceMeters>
          </Trackpoint>
          <Trackpoint>
            <Time>2020-05-25T04:50:12.000Z</Time>
            <Position>
              <LatitudeDegrees>38.0398903973400592803955078125</LatitudeDegrees>
              <LongitudeDegrees>-1.11301590688526630401611328125</LongitudeDegrees>
            </Position>
            <AltitudeMeters>87</AltitudeMeters>
            <DistanceMeters>NAN</DistanceMeters>
          </Trackpoint>
          <Trackpoint>
            <Time>2020-05-25T04:50:13.000Z</Time>
            <Position>
              <LatitudeDegrees>38.0398903973400592803955078125</LatitudeDegrees>
              <LongitudeDegrees>-1.11301590688526630401611328125</LongitudeDegrees>
            </Position>
            <AltitudeMeters>87</AltitudeMeters>
            <DistanceMeters>NAN</DistanceMeters>
          </Trackpoint>
          <Trackpoint>
            <Time>2020-05-25T04:50:14.000Z</Time>
            <Position>
              <LatitudeDegrees>38.039978407323360443115234375</LatitudeDegrees>
              <LongitudeDegrees>-1.11285296268761157989501953125</LongitudeDegrees>
            </Position>
            <AltitudeMeters>87.1999969482421875</AltitudeMeters>
            <DistanceMeters>NAN</DistanceMeters>
          </Trackpoint>
          <Trackpoint>
            <Time>2020-05-25T04:50:15.000Z</Time>
            <Position>
              <LatitudeDegrees>38.039978407323360443115234375</LatitudeDegrees>
              <LongitudeDegrees>-1.11285296268761157989501953125</LongitudeDegrees>
            </Position>
            <AltitudeMeters>87.1999969482421875</AltitudeMeters>
            <DistanceMeters>NAN</DistanceMeters>
          </Trackpoint>
          <Trackpoint>
            <Time>2020-05-25T04:50:16.000Z</Time>
            <Position>
              <LatitudeDegrees>38.0400229990482330322265625</LatitudeDegrees>
              <LongitudeDegrees>-1.112769730389118194580078125</LongitudeDegrees>
            </Position>
            <AltitudeMeters>87.1999969482421875</AltitudeMeters>
            <DistanceMeters>NAN</DistanceMeters>
          </Trackpoint>
          <Trackpoint>
            <Time>2020-05-25T04:50:17.000Z</Time>
            <Position>
              <LatitudeDegrees>38.040067255496978759765625</LatitudeDegrees>
              <LongitudeDegrees>-1.112684905529022216796875</LongitudeDegrees>
            </Position>
            <AltitudeMeters>87.1999969482421875</AltitudeMeters>
            <DistanceMeters>NAN</DistanceMeters>
          </Trackpoint>
          <Trackpoint>
            <Time>2020-05-25T04:50:18.000Z</Time>
            <Position>
              <LatitudeDegrees>38.04015752859413623809814453125</LatitudeDegrees>
              <LongitudeDegrees>-1.11251232214272022247314453125</LongitudeDegrees>
            </Position>
            <AltitudeMeters>87.1999969482421875</AltitudeMeters>
            <DistanceMeters>NAN</DistanceMeters>
          </Trackpoint>
          <Trackpoint>
            <Time>2020-05-25T04:50:19.000Z</Time>
            <Position>
              <LatitudeDegrees>38.04015752859413623809814453125</LatitudeDegrees>
              <LongitudeDegrees>-1.11251232214272022247314453125</LongitudeDegrees>
            </Position>
            <AltitudeMeters>87.1999969482421875</AltitudeMeters>
            <DistanceMeters>NAN</DistanceMeters>
          </Trackpoint>
          <Trackpoint>
            <Time>2020-05-25T04:50:20.000Z</Time>
            <Position>
              <LatitudeDegrees>38.04024889133870601654052734375</LatitudeDegrees>
              <LongitudeDegrees>-1.112335212528705596923828125</LongitudeDegrees>
            </Position>
            <AltitudeMeters>87.1999969482421875</AltitudeMeters>
            <DistanceMeters>NAN</DistanceMeters>
          </Trackpoint>
          <Trackpoint>
            <Time>2020-05-25T04:50:21.000Z</Time>
            <Position>
              <LatitudeDegrees>38.04024889133870601654052734375</LatitudeDegrees>
              <LongitudeDegrees>-1.112335212528705596923828125</LongitudeDegrees>
            </Position>
            <AltitudeMeters>87.1999969482421875</AltitudeMeters>
            <DistanceMeters>NAN</DistanceMeters>
          </Trackpoint>
          <Trackpoint>
            <Time>2020-05-25T04:50:22.000Z</Time>
            <Position>
              <LatitudeDegrees>38.04029566235840320587158203125</LatitudeDegrees>
              <LongitudeDegrees>-1.11224527470767498016357421875</LongitudeDegrees>
            </Position>
            <AltitudeMeters>87.1999969482421875</AltitudeMeters>
            <DistanceMeters>NAN</DistanceMeters>
          </Trackpoint>
          <Trackpoint>
            <Time>2020-05-25T04:50:23.000Z</Time>
            <Position>
              <LatitudeDegrees>38.0403433553874492645263671875</LatitudeDegrees>
              <LongitudeDegrees>-1.11215583980083465576171875</LongitudeDegrees>
            </Position>
            <AltitudeMeters>86.59999847412109375</AltitudeMeters>
            <DistanceMeters>NAN</DistanceMeters>
          </Trackpoint>
          <Trackpoint>
            <Time>2020-05-25T04:50:24.000Z</Time>
            <Position>
              <LatitudeDegrees>38.04043966345489025115966796875</LatitudeDegrees>
              <LongitudeDegrees>-1.11197604797780513763427734375</LongitudeDegrees>
            </Position>
            <AltitudeMeters>86.40000152587890625</AltitudeMeters>
            <DistanceMeters>NAN</DistanceMeters>
          </Trackpoint>
          <Trackpoint>
            <Time>2020-05-25T04:50:25.000Z</Time>
            <Position>
              <LatitudeDegrees>38.04043966345489025115966796875</LatitudeDegrees>
              <LongitudeDegrees>-1.11197604797780513763427734375</LongitudeDegrees>
            </Position>
            <AltitudeMeters>86.40000152587890625</AltitudeMeters>
            <DistanceMeters>NAN</DistanceMeters>
          </Trackpoint>
          <Trackpoint>
            <Time>2020-05-25T04:50:26.000Z</Time>
            <Position>
              <LatitudeDegrees>38.04053672589361667633056640625</LatitudeDegrees>
              <LongitudeDegrees>-1.11179600469768047332763671875</LongitudeDegrees>
            </Position>
            <AltitudeMeters>86.1999969482421875</AltitudeMeters>
            <DistanceMeters>NAN</DistanceMeters>
          </Trackpoint>
          <Trackpoint>
            <Time>2020-05-25T04:50:27.000Z</Time>
            <Position>
              <LatitudeDegrees>38.04053672589361667633056640625</LatitudeDegrees>
              <LongitudeDegrees>-1.11179600469768047332763671875</LongitudeDegrees>
            </Position>
            <AltitudeMeters>85.8000030517578125</AltitudeMeters>
            <DistanceMeters>NAN</DistanceMeters>
          </Trackpoint>
          <Trackpoint>
            <Time>2020-05-25T04:50:28.000Z</Time>
            <Position>
              <LatitudeDegrees>38.0405854247510433197021484375</LatitudeDegrees>
              <LongitudeDegrees>-1.111706905066967010498046875</LongitudeDegrees>
            </Position>
            <AltitudeMeters>85.59999847412109375</AltitudeMeters>
            <DistanceMeters>NAN</DistanceMeters>
          </Trackpoint>
          <Trackpoint>
            <Time>2020-05-25T04:50:29.000Z</Time>
            <Position>
              <LatitudeDegrees>38.0406333692371845245361328125</LatitudeDegrees>
              <LongitudeDegrees>-1.11161763779819011688232421875</LongitudeDegrees>
            </Position>
            <AltitudeMeters>85.40000152587890625</AltitudeMeters>
            <DistanceMeters>NAN</DistanceMeters>
          </Trackpoint>
          <Trackpoint>
            <Time>2020-05-25T04:50:30.000Z</Time>
            <Position>
              <LatitudeDegrees>38.0407235585153102874755859375</LatitudeDegrees>
              <LongitudeDegrees>-1.11143876798450946807861328125</LongitudeDegrees>
            </Position>
            <AltitudeMeters>85.1999969482421875</AltitudeMeters>
            <DistanceMeters>NAN</DistanceMeters>
          </Trackpoint>
          <Trackpoint>
            <Time>2020-05-25T04:50:31.000Z</Time>
            <Position>
              <LatitudeDegrees>38.0407235585153102874755859375</LatitudeDegrees>
              <LongitudeDegrees>-1.11143876798450946807861328125</LongitudeDegrees>
            </Position>
            <AltitudeMeters>85</AltitudeMeters>
            <DistanceMeters>NAN</DistanceMeters>
          </Trackpoint>
          <Trackpoint>
            <Time>2020-05-25T04:50:32.000Z</Time>
            <Position>
              <LatitudeDegrees>38.0408087186515331268310546875</LatitudeDegrees>
              <LongitudeDegrees>-1.111265011131763458251953125</LongitudeDegrees>
            </Position>
            <AltitudeMeters>84.8000030517578125</AltitudeMeters>
            <DistanceMeters>NAN</DistanceMeters>
          </Trackpoint>
          <Trackpoint>
            <Time>2020-05-25T04:50:33.000Z</Time>
            <Position>
              <LatitudeDegrees>38.0408087186515331268310546875</LatitudeDegrees>
              <LongitudeDegrees>-1.111265011131763458251953125</LongitudeDegrees>
            </Position>
            <AltitudeMeters>84.59999847412109375</AltitudeMeters>
            <DistanceMeters>NAN</DistanceMeters>
          </Trackpoint>
          <Trackpoint>
            <Time>2020-05-25T04:50:34.000Z</Time>
            <Position>
              <LatitudeDegrees>38.0408509634435176849365234375</LatitudeDegrees>
              <LongitudeDegrees>-1.11118211410939693450927734375</LongitudeDegrees>
            </Position>
            <AltitudeMeters>84.59999847412109375</AltitudeMeters>
            <DistanceMeters>NAN</DistanceMeters>
          </Trackpoint>
          <Trackpoint>
            <Time>2020-05-25T04:50:35.000Z</Time>
            <Position>
              <LatitudeDegrees>38.04089228622615337371826171875</LatitudeDegrees>
              <LongitudeDegrees>-1.11110064201056957244873046875</LongitudeDegrees>
            </Position>
            <AltitudeMeters>84.59999847412109375</AltitudeMeters>
            <DistanceMeters>NAN</DistanceMeters>
          </Trackpoint>
          <Trackpoint>
            <Time>2020-05-25T04:50:36.000Z</Time>
            <Position>
              <LatitudeDegrees>38.04096923209726810455322265625</LatitudeDegrees>
              <LongitudeDegrees>-1.11094214022159576416015625</LongitudeDegrees>
            </Position>
            <AltitudeMeters>84.59999847412109375</AltitudeMeters>
            <DistanceMeters>NAN</DistanceMeters>
          </Trackpoint>
          <Trackpoint>
            <Time>2020-05-25T04:50:37.000Z</Time>
            <Position>
              <LatitudeDegrees>38.04100669920444488525390625</LatitudeDegrees>
              <LongitudeDegrees>-1.110866703093051910400390625</LongitudeDegrees>
            </Position>
            <AltitudeMeters>84.59999847412109375</AltitudeMeters>
            <DistanceMeters>NAN</DistanceMeters>
          </Trackpoint>
          <Trackpoint>
            <Time>2020-05-25T04:50:38.000Z</Time>
            <Position>
              <LatitudeDegrees>38.04104316048324108123779296875</LatitudeDegrees>
              <LongitudeDegrees>-1.1107917688786983489990234375</LongitudeDegrees>
            </Position>
            <AltitudeMeters>84.40000152587890625</AltitudeMeters>
            <DistanceMeters>NAN</DistanceMeters>
          </Trackpoint>
          <Trackpoint>
            <Time>2020-05-25T04:50:39.000Z</Time>
            <Position>
              <LatitudeDegrees>38.04107836447656154632568359375</LatitudeDegrees>
              <LongitudeDegrees>-1.11071691848337650299072265625</LongitudeDegrees>
            </Position>
            <AltitudeMeters>84.40000152587890625</AltitudeMeters>
            <DistanceMeters>NAN</DistanceMeters>
          </Trackpoint>
          <Trackpoint>
            <Time>2020-05-25T04:50:40.000Z</Time>
            <Position>
              <LatitudeDegrees>38.04107836447656154632568359375</LatitudeDegrees>
              <LongitudeDegrees>-1.11071691848337650299072265625</LongitudeDegrees>
            </Position>
            <AltitudeMeters>84.40000152587890625</AltitudeMeters>
            <DistanceMeters>NAN</DistanceMeters>
          </Trackpoint>
          <Trackpoint>
            <Time>2020-05-25T04:50:41.000Z</Time>
            <Position>
              <LatitudeDegrees>38.0411134846508502960205078125</LatitudeDegrees>
              <LongitudeDegrees>-1.1106425710022449493408203125</LongitudeDegrees>
            </Position>
            <AltitudeMeters>84.40000152587890625</AltitudeMeters>
            <DistanceMeters>NAN</DistanceMeters>
          </Trackpoint>
          <Trackpoint>
            <Time>2020-05-25T04:50:42.000Z</Time>
            <Position>
              <LatitudeDegrees>38.04118104279041290283203125</LatitudeDegrees>
              <LongitudeDegrees>-1.11049362458288669586181640625</LongitudeDegrees>
            </Position>
            <AltitudeMeters>84.40000152587890625</AltitudeMeters>
            <DistanceMeters>NAN</DistanceMeters>
          </Trackpoint>
          <Trackpoint>
            <Time>2020-05-25T04:50:43.000Z</Time>
            <Position>
              <LatitudeDegrees>38.04118104279041290283203125</LatitudeDegrees>
              <LongitudeDegrees>-1.11049362458288669586181640625</LongitudeDegrees>
            </Position>
            <AltitudeMeters>84.59999847412109375</AltitudeMeters>
            <DistanceMeters>NAN</DistanceMeters>
          </Trackpoint>
          <Trackpoint>
            <Time>2020-05-25T04:50:44.000Z</Time>
            <Position>
              <LatitudeDegrees>38.04124684073030948638916015625</LatitudeDegrees>
              <LongitudeDegrees>-1.11034643836319446563720703125</LongitudeDegrees>
            </Position>
            <AltitudeMeters>84.8000030517578125</AltitudeMeters>
            <DistanceMeters>NAN</DistanceMeters>
          </Trackpoint>
          <Trackpoint>
            <Time>2020-05-25T04:50:45.000Z</Time>
            <Position>
              <LatitudeDegrees>38.04124684073030948638916015625</LatitudeDegrees>
              <LongitudeDegrees>-1.11034643836319446563720703125</LongitudeDegrees>
            </Position>
            <AltitudeMeters>85</AltitudeMeters>
            <DistanceMeters>NAN</DistanceMeters>
          </Trackpoint>
          <Trackpoint>
            <Time>2020-05-25T04:50:46.000Z</Time>
            <Position>
              <LatitudeDegrees>38.041278608143329620361328125</LatitudeDegrees>
              <LongitudeDegrees>-1.11027217470109462738037109375</LongitudeDegrees>
            </Position>
            <AltitudeMeters>85.40000152587890625</AltitudeMeters>
            <DistanceMeters>NAN</DistanceMeters>
          </Trackpoint>
          <Trackpoint>
            <Time>2020-05-25T04:50:47.000Z</Time>
            <Position>
              <LatitudeDegrees>38.04131004028022289276123046875</LatitudeDegrees>
              <LongitudeDegrees>-1.1101979948580265045166015625</LongitudeDegrees>
            </Position>
            <AltitudeMeters>85.8000030517578125</AltitudeMeters>
            <DistanceMeters>NAN</DistanceMeters>
          </Trackpoint>
          <Trackpoint>
            <Time>2020-05-25T04:50:48.000Z</Time>
            <Position>
              <LatitudeDegrees>38.04137290455400943756103515625</LatitudeDegrees>
              <LongitudeDegrees>-1.11004720441997051239013671875</LongitudeDegrees>
            </Position>
            <AltitudeMeters>86</AltitudeMeters>
            <DistanceMeters>NAN</DistanceMeters>
          </Trackpoint>
          <Trackpoint>
            <Time>2020-05-25T04:50:49.000Z</Time>
            <Position>
              <LatitudeDegrees>38.041406013071537017822265625</LatitudeDegrees>
              <LongitudeDegrees>-1.1099706776440143585205078125</LongitudeDegrees>
            </Position>
            <AltitudeMeters>86.40000152587890625</AltitudeMeters>
            <DistanceMeters>NAN</DistanceMeters>
          </Trackpoint>
          <Trackpoint>
            <Time>2020-05-25T04:50:50.000Z</Time>
            <Position>
              <LatitudeDegrees>38.04143845103681087493896484375</LatitudeDegrees>
              <LongitudeDegrees>-1.10989339649677276611328125</LongitudeDegrees>
            </Position>
            <AltitudeMeters>86.59999847412109375</AltitudeMeters>
            <DistanceMeters>NAN</DistanceMeters>
          </Trackpoint>
          <Trackpoint>
            <Time>2020-05-25T04:50:51.000Z</Time>
            <Position>
              <LatitudeDegrees>38.04143845103681087493896484375</LatitudeDegrees>
              <LongitudeDegrees>-1.10989339649677276611328125</LongitudeDegrees>
            </Position>
            <AltitudeMeters>86.8000030517578125</AltitudeMeters>
            <DistanceMeters>NAN</DistanceMeters>
          </Trackpoint>
          <Trackpoint>
            <Time>2020-05-25T04:50:52.000Z</Time>
            <Position>
              <LatitudeDegrees>38.04146912880241870880126953125</LatitudeDegrees>
              <LongitudeDegrees>-1.1098147742450237274169921875</LongitudeDegrees>
            </Position>
            <AltitudeMeters>87</AltitudeMeters>
            <DistanceMeters>NAN</DistanceMeters>
          </Trackpoint>
          <Trackpoint>
            <Time>2020-05-25T04:50:53.000Z</Time>
            <Position>
              <LatitudeDegrees>38.04149947129189968109130859375</LatitudeDegrees>
              <LongitudeDegrees>-1.1097353138029575347900390625</LongitudeDegrees>
            </Position>
            <AltitudeMeters>87.1999969482421875</AltitudeMeters>
            <DistanceMeters>NAN</DistanceMeters>
          </Trackpoint>
          <Trackpoint>
            <Time>2020-05-25T04:50:54.000Z</Time>
            <Position>
              <LatitudeDegrees>38.0415594018995761871337890625</LatitudeDegrees>
              <LongitudeDegrees>-1.1095753870904445648193359375</LongitudeDegrees>
            </Position>
            <AltitudeMeters>87.40000152587890625</AltitudeMeters>
            <DistanceMeters>NAN</DistanceMeters>
          </Trackpoint>
          <Trackpoint>
            <Time>2020-05-25T04:50:55.000Z</Time>
            <Position>
              <LatitudeDegrees>38.0415594018995761871337890625</LatitudeDegrees>
              <LongitudeDegrees>-1.1095753870904445648193359375</LongitudeDegrees>
            </Position>
            <AltitudeMeters>87.40000152587890625</AltitudeMeters>
            <DistanceMeters>NAN</DistanceMeters>
          </Trackpoint>
          <Trackpoint>
            <Time>2020-05-25T04:50:56.000Z</Time>
            <Position>
              <LatitudeDegrees>38.04161447100341320037841796875</LatitudeDegrees>
              <LongitudeDegrees>-1.1094147898256778717041015625</LongitudeDegrees>
            </Position>
            <AltitudeMeters>87.59999847412109375</AltitudeMeters>
            <DistanceMeters>NAN</DistanceMeters>
          </Trackpoint>
          <Trackpoint>
            <Time>2020-05-25T04:50:57.000Z</Time>
            <Position>
              <LatitudeDegrees>38.04161447100341320037841796875</LatitudeDegrees>
              <LongitudeDegrees>-1.1094147898256778717041015625</LongitudeDegrees>
            </Position>
            <AltitudeMeters>87.59999847412109375</AltitudeMeters>
            <DistanceMeters>NAN</DistanceMeters>
          </Trackpoint>
          <Trackpoint>
            <Time>2020-05-25T04:50:58.000Z</Time>
            <Position>
              <LatitudeDegrees>38.04164263419806957244873046875</LatitudeDegrees>
              <LongitudeDegrees>-1.10933658666908740997314453125</LongitudeDegrees>
            </Position>
            <AltitudeMeters>87.59999847412109375</AltitudeMeters>
            <DistanceMeters>NAN</DistanceMeters>
          </Trackpoint>
          <Trackpoint>
            <Time>2020-05-25T04:50:59.000Z</Time>
            <Position>
              <LatitudeDegrees>38.041670210659503936767578125</LatitudeDegrees>
              <LongitudeDegrees>-1.10926098190248012542724609375</LongitudeDegrees>
            </Position>
            <AltitudeMeters>87.59999847412109375</AltitudeMeters>
            <DistanceMeters>NAN</DistanceMeters>
          </Trackpoint>
          <Trackpoint>
            <Time>2020-05-25T04:51:00.000Z</Time>
            <Position>
              <LatitudeDegrees>38.0417233519256114959716796875</LatitudeDegrees>
              <LongitudeDegrees>-1.1091162264347076416015625</LongitudeDegrees>
            </Position>
            <AltitudeMeters>87.59999847412109375</AltitudeMeters>
            <DistanceMeters>NAN</DistanceMeters>
          </Trackpoint>
          <Trackpoint>
            <Time>2020-05-25T04:51:01.000Z</Time>
            <Position>
              <LatitudeDegrees>38.0417233519256114959716796875</LatitudeDegrees>
              <LongitudeDegrees>-1.1091162264347076416015625</LongitudeDegrees>
            </Position>
            <AltitudeMeters>87.59999847412109375</AltitudeMeters>
            <DistanceMeters>NAN</DistanceMeters>
          </Trackpoint>
          <Trackpoint>
            <Time>2020-05-25T04:51:02.000Z</Time>
            <Position>
              <LatitudeDegrees>38.04177221842110157012939453125</LatitudeDegrees>
              <LongitudeDegrees>-1.10898052342236042022705078125</LongitudeDegrees>
            </Position>
            <AltitudeMeters>87.8000030517578125</AltitudeMeters>
            <DistanceMeters>NAN</DistanceMeters>
          </Trackpoint>
          <Trackpoint>
            <Time>2020-05-25T04:51:03.000Z</Time>
            <Position>
              <LatitudeDegrees>38.04177221842110157012939453125</LatitudeDegrees>
              <LongitudeDegrees>-1.10898052342236042022705078125</LongitudeDegrees>
            </Position>
            <AltitudeMeters>87.8000030517578125</AltitudeMeters>
            <DistanceMeters>NAN</DistanceMeters>
          </Trackpoint>
          <Trackpoint>
            <Time>2020-05-25T04:51:04.000Z</Time>
            <Position>
              <LatitudeDegrees>38.0417951010167598724365234375</LatitudeDegrees>
              <LongitudeDegrees>-1.10891397111117839813232421875</LongitudeDegrees>
            </Position>
            <AltitudeMeters>87.8000030517578125</AltitudeMeters>
            <DistanceMeters>NAN</DistanceMeters>
          </Trackpoint>
          <Trackpoint>
            <Time>2020-05-25T04:51:05.000Z</Time>
            <Position>
              <LatitudeDegrees>38.04181714542210102081298828125</LatitudeDegrees>
              <LongitudeDegrees>-1.10884741879999637603759765625</LongitudeDegrees>
            </Position>
            <AltitudeMeters>88</AltitudeMeters>
            <DistanceMeters>NAN</DistanceMeters>
          </Trackpoint>
          <Trackpoint>
            <Time>2020-05-25T04:51:06.000Z</Time>
            <Position>
              <LatitudeDegrees>38.04186358116567134857177734375</LatitudeDegrees>
              <LongitudeDegrees>-1.1087157391011714935302734375</LongitudeDegrees>
            </Position>
            <AltitudeMeters>88.1999969482421875</AltitudeMeters>
            <DistanceMeters>NAN</DistanceMeters>
          </Trackpoint>
          <Trackpoint>
            <Time>2020-05-25T04:51:07.000Z</Time>
            <Position>
              <LatitudeDegrees>38.04186358116567134857177734375</LatitudeDegrees>
              <LongitudeDegrees>-1.1087157391011714935302734375</LongitudeDegrees>
            </Position>
            <AltitudeMeters>88.40000152587890625</AltitudeMeters>
            <DistanceMeters>NAN</DistanceMeters>
          </Trackpoint>
          <Trackpoint>
            <Time>2020-05-25T04:51:08.000Z</Time>
            <Position>
              <LatitudeDegrees>38.0419255234301090240478515625</LatitudeDegrees>
              <LongitudeDegrees>-1.10859378241002559661865234375</LongitudeDegrees>
            </Position>
            <AltitudeMeters>88.8000030517578125</AltitudeMeters>
            <DistanceMeters>NAN</DistanceMeters>
          </Trackpoint>
          <Trackpoint>
            <Time>2020-05-25T04:51:09.000Z</Time>
            <Position>
              <LatitudeDegrees>38.0419255234301090240478515625</LatitudeDegrees>
              <LongitudeDegrees>-1.10859378241002559661865234375</LongitudeDegrees>
            </Position>
            <AltitudeMeters>89.1999969482421875</AltitudeMeters>
            <DistanceMeters>NAN</DistanceMeters>
          </Trackpoint>
          <Trackpoint>
            <Time>2020-05-25T04:51:10.000Z</Time>
            <Position>
              <LatitudeDegrees>38.04196097888052463531494140625</LatitudeDegrees>
              <LongitudeDegrees>-1.10853745602071285247802734375</LongitudeDegrees>
            </Position>
            <AltitudeMeters>89.59999847412109375</AltitudeMeters>
            <DistanceMeters>NAN</DistanceMeters>
          </Trackpoint>
          <Trackpoint>
            <Time>2020-05-25T04:51:11.000Z</Time>
            <Position>
              <LatitudeDegrees>38.04199769161641597747802734375</LatitudeDegrees>
              <LongitudeDegrees>-1.10848314128816127777099609375</LongitudeDegrees>
            </Position>
            <AltitudeMeters>90</AltitudeMeters>
            <DistanceMeters>NAN</DistanceMeters>
          </Trackpoint>
          <Trackpoint>
            <Time>2020-05-25T04:51:12.000Z</Time>
            <Position>
              <LatitudeDegrees>38.04203658364713191986083984375</LatitudeDegrees>
              <LongitudeDegrees>-1.1084317602217197418212890625</LongitudeDegrees>
            </Position>
            <AltitudeMeters>90.40000152587890625</AltitudeMeters>
            <DistanceMeters>NAN</DistanceMeters>
          </Trackpoint>
          <Trackpoint>
            <Time>2020-05-25T04:51:13.000Z</Time>
            <Position>
              <LatitudeDegrees>38.0420777387917041778564453125</LatitudeDegrees>
              <LongitudeDegrees>-1.1083838157355785369873046875</LongitudeDegrees>
            </Position>
            <AltitudeMeters>90.8000030517578125</AltitudeMeters>
            <DistanceMeters>NAN</DistanceMeters>
          </Trackpoint>
          <Trackpoint>
            <Time>2020-05-25T04:51:14.000Z</Time>
            <Position>
              <LatitudeDegrees>38.04214588366448879241943359375</LatitudeDegrees>
              <LongitudeDegrees>-1.1082922853529453277587890625</LongitudeDegrees>
            </Position>
            <AltitudeMeters>91</AltitudeMeters>
            <DistanceMeters>NAN</DistanceMeters>
          </Trackpoint>
          <Trackpoint>
            <Time>2020-05-25T04:51:15.000Z</Time>
            <Position>
              <LatitudeDegrees>38.04214588366448879241943359375</LatitudeDegrees>
              <LongitudeDegrees>-1.1082922853529453277587890625</LongitudeDegrees>
            </Position>
            <AltitudeMeters>91.40000152587890625</AltitudeMeters>
            <DistanceMeters>NAN</DistanceMeters>
          </Trackpoint>
          <Trackpoint>
            <Time>2020-05-25T04:51:16.000Z</Time>
            <Position>
              <LatitudeDegrees>38.0421699397265911102294921875</LatitudeDegrees>
              <LongitudeDegrees>-1.108252219855785369873046875</LongitudeDegrees>
            </Position>
            <AltitudeMeters>91.8000030517578125</AltitudeMeters>
            <DistanceMeters>NAN</DistanceMeters>
          </Trackpoint>
          <Trackpoint>
            <Time>2020-05-25T04:51:17.000Z</Time>
            <Position>
              <LatitudeDegrees>38.04218846373260021209716796875</LatitudeDegrees>
              <LongitudeDegrees>-1.10821391455829143524169921875</LongitudeDegrees>
            </Position>
            <AltitudeMeters>92</AltitudeMeters>
            <DistanceMeters>NAN</DistanceMeters>
          </Trackpoint>
          <Trackpoint>
            <Time>2020-05-25T04:51:18.000Z</Time>
            <Position>
              <LatitudeDegrees>38.04220204241573810577392578125</LatitudeDegrees>
              <LongitudeDegrees>-1.1081682331860065460205078125</LongitudeDegrees>
            </Position>
            <AltitudeMeters>92</AltitudeMeters>
            <DistanceMeters>NAN</DistanceMeters>
          </Trackpoint>
          <Trackpoint>
            <Time>2020-05-25T04:51:19.000Z</Time>
            <Position>
              <LatitudeDegrees>38.042212687432765960693359375</LatitudeDegrees>
              <LongitudeDegrees>-1.10811433754861354827880859375</LongitudeDegrees>
            </Position>
            <AltitudeMeters>92.59999847412109375</AltitudeMeters>
            <DistanceMeters>NAN</DistanceMeters>
          </Trackpoint>
          <Trackpoint>
            <Time>2020-05-25T04:51:20.000Z</Time>
            <Position>
              <LatitudeDegrees>38.0422447063028812408447265625</LatitudeDegrees>
              <LongitudeDegrees>-1.10799581743776798248291015625</LongitudeDegrees>
            </Position>
            <AltitudeMeters>92.8000030517578125</AltitudeMeters>
            <DistanceMeters>NAN</DistanceMeters>
          </Trackpoint>
          <Trackpoint>
            <Time>2020-05-25T04:51:21.000Z</Time>
            <Position>
              <LatitudeDegrees>38.0422447063028812408447265625</LatitudeDegrees>
              <LongitudeDegrees>-1.10799581743776798248291015625</LongitudeDegrees>
            </Position>
            <AltitudeMeters>93</AltitudeMeters>
            <DistanceMeters>NAN</DistanceMeters>
          </Trackpoint>
          <Trackpoint>
            <Time>2020-05-25T04:51:22.000Z</Time>
            <Position>
              <LatitudeDegrees>38.04226658307015895843505859375</LatitudeDegrees>
              <LongitudeDegrees>-1.1079338751733303070068359375</LongitudeDegrees>
            </Position>
            <AltitudeMeters>93.1999969482421875</AltitudeMeters>
            <DistanceMeters>NAN</DistanceMeters>
          </Trackpoint>
          <Trackpoint>
            <Time>2020-05-25T04:51:23.000Z</Time>
            <Position>
              <LatitudeDegrees>38.0422892980277538299560546875</LatitudeDegrees>
              <LongitudeDegrees>-1.10786858014762401580810546875</LongitudeDegrees>
            </Position>
            <AltitudeMeters>93.59999847412109375</AltitudeMeters>
            <DistanceMeters>NAN</DistanceMeters>
          </Trackpoint>
          <Trackpoint>
            <Time>2020-05-25T04:51:24.000Z</Time>
            <Position>
              <LatitudeDegrees>38.0423090793192386627197265625</LatitudeDegrees>
              <LongitudeDegrees>-1.10779884271323680877685546875</LongitudeDegrees>
            </Position>
            <AltitudeMeters>93.8000030517578125</AltitudeMeters>
            <DistanceMeters>NAN</DistanceMeters>
          </Trackpoint>
          <Trackpoint>
            <Time>2020-05-25T04:51:25.000Z</Time>
            <Position>
              <LatitudeDegrees>38.0423228256404399871826171875</LatitudeDegrees>
              <LongitudeDegrees>-1.1077249981462955474853515625</LongitudeDegrees>
            </Position>
            <AltitudeMeters>93.8000030517578125</AltitudeMeters>
            <DistanceMeters>NAN</DistanceMeters>
          </Trackpoint>
          <Trackpoint>
            <Time>2020-05-25T04:51:26.000Z</Time>
            <Position>
              <LatitudeDegrees>38.04232995025813579559326171875</LatitudeDegrees>
              <LongitudeDegrees>-1.10764838755130767822265625</LongitudeDegrees>
            </Position>
            <AltitudeMeters>94</AltitudeMeters>
            <DistanceMeters>NAN</DistanceMeters>
          </Trackpoint>
          <Trackpoint>
            <Time>2020-05-25T04:51:27.000Z</Time>
            <Position>
              <LatitudeDegrees>38.0423318780958652496337890625</LatitudeDegrees>
              <LongitudeDegrees>-1.10757060348987579345703125</LongitudeDegrees>
            </Position>
            <AltitudeMeters>94.1999969482421875</AltitudeMeters>
            <DistanceMeters>NAN</DistanceMeters>
          </Trackpoint>
          <Trackpoint>
            <Time>2020-05-25T04:51:28.000Z</Time>
            <Position>
              <LatitudeDegrees>38.0423302017152309417724609375</LatitudeDegrees>
              <LongitudeDegrees>-1.1074926517903804779052734375</LongitudeDegrees>
            </Position>
            <AltitudeMeters>94.40000152587890625</AltitudeMeters>
            <DistanceMeters>NAN</DistanceMeters>
          </Trackpoint>
          <Trackpoint>
            <Time>2020-05-25T04:51:29.000Z</Time>
            <Position>
              <LatitudeDegrees>38.04232609458267688751220703125</LatitudeDegrees>
              <LongitudeDegrees>-1.10741495154798030853271484375</LongitudeDegrees>
            </Position>
            <AltitudeMeters>94.40000152587890625</AltitudeMeters>
            <DistanceMeters>NAN</DistanceMeters>
          </Trackpoint>
          <Trackpoint>
            <Time>2020-05-25T04:51:30.000Z</Time>
            <Position>
              <LatitudeDegrees>38.0423161201179027557373046875</LatitudeDegrees>
              <LongitudeDegrees>-1.1072601377964019775390625</LongitudeDegrees>
            </Position>
            <AltitudeMeters>94.59999847412109375</AltitudeMeters>
            <DistanceMeters>NAN</DistanceMeters>
          </Trackpoint>
          <Trackpoint>
            <Time>2020-05-25T04:51:31.000Z</Time>
            <Position>
              <LatitudeDegrees>38.0423161201179027557373046875</LatitudeDegrees>
              <LongitudeDegrees>-1.1072601377964019775390625</LongitudeDegrees>
            </Position>
            <AltitudeMeters>94.59999847412109375</AltitudeMeters>
            <DistanceMeters>NAN</DistanceMeters>
          </Trackpoint>
          <Trackpoint>
            <Time>2020-05-25T04:51:32.000Z</Time>
            <Position>
              <LatitudeDegrees>38.0423067323863506317138671875</LatitudeDegrees>
              <LongitudeDegrees>-1.10710381530225276947021484375</LongitudeDegrees>
            </Position>
            <AltitudeMeters>94.59999847412109375</AltitudeMeters>
            <DistanceMeters>NAN</DistanceMeters>
          </Trackpoint>
          <Trackpoint>
            <Time>2020-05-25T04:51:33.000Z</Time>
            <Position>
              <LatitudeDegrees>38.0423067323863506317138671875</LatitudeDegrees>
              <LongitudeDegrees>-1.10710381530225276947021484375</LongitudeDegrees>
            </Position>
            <AltitudeMeters>94.59999847412109375</AltitudeMeters>
            <DistanceMeters>NAN</DistanceMeters>
          </Trackpoint>
          <Trackpoint>
            <Time>2020-05-25T04:51:34.000Z</Time>
            <Position>
              <LatitudeDegrees>38.04230296052992343902587890625</LatitudeDegrees>
              <LongitudeDegrees>-1.10702519305050373077392578125</LongitudeDegrees>
            </Position>
            <AltitudeMeters>94.59999847412109375</AltitudeMeters>
            <DistanceMeters>NAN</DistanceMeters>
          </Trackpoint>
          <Trackpoint>
            <Time>2020-05-25T04:51:35.000Z</Time>
            <Position>
              <LatitudeDegrees>38.04230011068284511566162109375</LatitudeDegrees>
              <LongitudeDegrees>-1.10694556497037410736083984375</LongitudeDegrees>
            </Position>
            <AltitudeMeters>94.8000030517578125</AltitudeMeters>
            <DistanceMeters>NAN</DistanceMeters>
          </Trackpoint>
          <Trackpoint>
            <Time>2020-05-25T04:51:36.000Z</Time>
            <Position>
              <LatitudeDegrees>38.0422973446547985076904296875</LatitudeDegrees>
              <LongitudeDegrees>-1.10686459578573703765869140625</LongitudeDegrees>
            </Position>
            <AltitudeMeters>95</AltitudeMeters>
            <DistanceMeters>NAN</DistanceMeters>
          </Trackpoint>
          <Trackpoint>
            <Time>2020-05-25T04:51:37.000Z</Time>
            <Position>
              <LatitudeDegrees>38.042293824255466461181640625</LatitudeDegrees>
              <LongitudeDegrees>-1.10678312368690967559814453125</LongitudeDegrees>
            </Position>
            <AltitudeMeters>95.1999969482421875</AltitudeMeters>
            <DistanceMeters>NAN</DistanceMeters>
          </Trackpoint>
          <Trackpoint>
            <Time>2020-05-25T04:51:38.000Z</Time>
            <Position>
              <LatitudeDegrees>38.0422916449606418609619140625</LatitudeDegrees>
              <LongitudeDegrees>-1.10670047812163829803466796875</LongitudeDegrees>
            </Position>
            <AltitudeMeters>95.1999969482421875</AltitudeMeters>
            <DistanceMeters>NAN</DistanceMeters>
          </Trackpoint>
          <Trackpoint>
            <Time>2020-05-25T04:51:39.000Z</Time>
            <Position>
              <LatitudeDegrees>38.04229055531322956085205078125</LatitudeDegrees>
              <LongitudeDegrees>-1.1066172458231449127197265625</LongitudeDegrees>
            </Position>
            <AltitudeMeters>95.40000152587890625</AltitudeMeters>
            <DistanceMeters>NAN</DistanceMeters>
          </Trackpoint>
          <Trackpoint>
            <Time>2020-05-25T04:51:40.000Z</Time>
            <Position>
              <LatitudeDegrees>38.04229038767516613006591796875</LatitudeDegrees>
              <LongitudeDegrees>-1.10653334297239780426025390625</LongitudeDegrees>
            </Position>
            <AltitudeMeters>95.59999847412109375</AltitudeMeters>
            <DistanceMeters>NAN</DistanceMeters>
          </Trackpoint>
          <Trackpoint>
            <Time>2020-05-25T04:51:41.000Z</Time>
            <Position>
              <LatitudeDegrees>38.0422909744083881378173828125</LatitudeDegrees>
              <LongitudeDegrees>-1.106449775397777557373046875</LongitudeDegrees>
            </Position>
            <AltitudeMeters>95.8000030517578125</AltitudeMeters>
            <DistanceMeters>NAN</DistanceMeters>
          </Trackpoint>
          <Trackpoint>
            <Time>2020-05-25T04:51:42.000Z</Time>
            <Position>
              <LatitudeDegrees>38.0422923155128955841064453125</LatitudeDegrees>
              <LongitudeDegrees>-1.1063664592802524566650390625</LongitudeDegrees>
            </Position>
            <AltitudeMeters>95.8000030517578125</AltitudeMeters>
            <DistanceMeters>NAN</DistanceMeters>
          </Trackpoint>
          <Trackpoint>
            <Time>2020-05-25T04:51:43.000Z</Time>
            <Position>
              <LatitudeDegrees>38.0422961711883544921875</LatitudeDegrees>
              <LongitudeDegrees>-1.106282807886600494384765625</LongitudeDegrees>
            </Position>
            <AltitudeMeters>96</AltitudeMeters>
            <DistanceMeters>NAN</DistanceMeters>
          </Trackpoint>
          <Trackpoint>
            <Time>2020-05-25T04:51:44.000Z</Time>
            <Position>
              <LatitudeDegrees>38.04230782203376293182373046875</LatitudeDegrees>
              <LongitudeDegrees>-1.106117852032184600830078125</LongitudeDegrees>
            </Position>
            <AltitudeMeters>96</AltitudeMeters>
            <DistanceMeters>NAN</DistanceMeters>
          </Trackpoint>
          <Trackpoint>
            <Time>2020-05-25T04:51:45.000Z</Time>
            <Position>
              <LatitudeDegrees>38.04230782203376293182373046875</LatitudeDegrees>
              <LongitudeDegrees>-1.106117852032184600830078125</LongitudeDegrees>
            </Position>
            <AltitudeMeters>96</AltitudeMeters>
            <DistanceMeters>NAN</DistanceMeters>
          </Trackpoint>
          <Trackpoint>
            <Time>2020-05-25T04:51:46.000Z</Time>
            <Position>
              <LatitudeDegrees>38.0423164553940296173095703125</LatitudeDegrees>
              <LongitudeDegrees>-1.106035709381103515625</LongitudeDegrees>
            </Position>
            <AltitudeMeters>96</AltitudeMeters>
            <DistanceMeters>NAN</DistanceMeters>
          </Trackpoint>
          <Trackpoint>
            <Time>2020-05-25T04:51:47.000Z</Time>
            <Position>
              <LatitudeDegrees>38.04232676513493061065673828125</LatitudeDegrees>
              <LongitudeDegrees>-1.10595398582518100738525390625</LongitudeDegrees>
            </Position>
            <AltitudeMeters>96.1999969482421875</AltitudeMeters>
            <DistanceMeters>NAN</DistanceMeters>
          </Trackpoint>
          <Trackpoint>
            <Time>2020-05-25T04:51:48.000Z</Time>
            <Position>
              <LatitudeDegrees>38.04233732633292675018310546875</LatitudeDegrees>
              <LongitudeDegrees>-1.1058722622692584991455078125</LongitudeDegrees>
            </Position>
            <AltitudeMeters>96.1999969482421875</AltitudeMeters>
            <DistanceMeters>NAN</DistanceMeters>
          </Trackpoint>
          <Trackpoint>
            <Time>2020-05-25T04:51:49.000Z</Time>
            <Position>
              <LatitudeDegrees>38.04234822280704975128173828125</LatitudeDegrees>
              <LongitudeDegrees>-1.10579053871333599090576171875</LongitudeDegrees>
            </Position>
            <AltitudeMeters>96.1999969482421875</AltitudeMeters>
            <DistanceMeters>NAN</DistanceMeters>
          </Trackpoint>
          <Trackpoint>
            <Time>2020-05-25T04:51:50.000Z</Time>
            <Position>
              <LatitudeDegrees>38.04235962219536304473876953125</LatitudeDegrees>
              <LongitudeDegrees>-1.105709485709667205810546875</LongitudeDegrees>
            </Position>
            <AltitudeMeters>96.1999969482421875</AltitudeMeters>
            <DistanceMeters>NAN</DistanceMeters>
          </Trackpoint>
          <Trackpoint>
            <Time>2020-05-25T04:51:51.000Z</Time>
            <Position>
              <LatitudeDegrees>38.04236917756497859954833984375</LatitudeDegrees>
              <LongitudeDegrees>-1.105627678334712982177734375</LongitudeDegrees>
            </Position>
            <AltitudeMeters>96.40000152587890625</AltitudeMeters>
            <DistanceMeters>NAN</DistanceMeters>
          </Trackpoint>
          <Trackpoint>
            <Time>2020-05-25T04:51:52.000Z</Time>
            <Position>
              <LatitudeDegrees>38.04237638600170612335205078125</LatitudeDegrees>
              <LongitudeDegrees>-1.10554494895040988922119140625</LongitudeDegrees>
            </Position>
            <AltitudeMeters>96.40000152587890625</AltitudeMeters>
            <DistanceMeters>NAN</DistanceMeters>
          </Trackpoint>
          <Trackpoint>
            <Time>2020-05-25T04:51:53.000Z</Time>
            <Position>
              <LatitudeDegrees>38.04238359443843364715576171875</LatitudeDegrees>
              <LongitudeDegrees>-1.10546163283288478851318359375</LongitudeDegrees>
            </Position>
            <AltitudeMeters>96.40000152587890625</AltitudeMeters>
            <DistanceMeters>NAN</DistanceMeters>
          </Trackpoint>
          <Trackpoint>
            <Time>2020-05-25T04:51:54.000Z</Time>
            <Position>
              <LatitudeDegrees>38.0424019508063793182373046875</LatitudeDegrees>
              <LongitudeDegrees>-1.10529500059783458709716796875</LongitudeDegrees>
            </Position>
            <AltitudeMeters>96.40000152587890625</AltitudeMeters>
            <DistanceMeters>NAN</DistanceMeters>
          </Trackpoint>
          <Trackpoint>
            <Time>2020-05-25T04:51:55.000Z</Time>
            <Position>
              <LatitudeDegrees>38.0424019508063793182373046875</LatitudeDegrees>
              <LongitudeDegrees>-1.10529500059783458709716796875</LongitudeDegrees>
            </Position>
            <AltitudeMeters>96.40000152587890625</AltitudeMeters>
            <DistanceMeters>NAN</DistanceMeters>
          </Trackpoint>
          <Trackpoint>
            <Time>2020-05-25T04:51:56.000Z</Time>
            <Position>
              <LatitudeDegrees>38.04241158999502658843994140625</LatitudeDegrees>
              <LongitudeDegrees>-1.10521218739449977874755859375</LongitudeDegrees>
            </Position>
            <AltitudeMeters>96.59999847412109375</AltitudeMeters>
            <DistanceMeters>NAN</DistanceMeters>
          </Trackpoint>
          <Trackpoint>
            <Time>2020-05-25T04:51:57.000Z</Time>
            <Position>
              <LatitudeDegrees>38.0424190498888492584228515625</LatitudeDegrees>
              <LongitudeDegrees>-1.105129458010196685791015625</LongitudeDegrees>
            </Position>
            <AltitudeMeters>96.59999847412109375</AltitudeMeters>
            <DistanceMeters>NAN</DistanceMeters>
          </Trackpoint>
          <Trackpoint>
            <Time>2020-05-25T04:51:58.000Z</Time>
            <Position>
              <LatitudeDegrees>38.04242718033492565155029296875</LatitudeDegrees>
              <LongitudeDegrees>-1.10504773445427417755126953125</LongitudeDegrees>
            </Position>
            <AltitudeMeters>96.59999847412109375</AltitudeMeters>
            <DistanceMeters>NAN</DistanceMeters>
          </Trackpoint>
          <Trackpoint>
            <Time>2020-05-25T04:51:59.000Z</Time>
            <Position>
              <LatitudeDegrees>38.04243656806647777557373046875</LatitudeDegrees>
              <LongitudeDegrees>-1.104966513812541961669921875</LongitudeDegrees>
            </Position>
            <AltitudeMeters>96.59999847412109375</AltitudeMeters>
            <DistanceMeters>NAN</DistanceMeters>
          </Trackpoint>
          <Trackpoint>
            <Time>2020-05-25T04:52:00.000Z</Time>
            <Position>
              <LatitudeDegrees>38.0424450337886810302734375</LatitudeDegrees>
              <LongitudeDegrees>-1.10488571226596832275390625</LongitudeDegrees>
            </Position>
            <AltitudeMeters>96.8000030517578125</AltitudeMeters>
            <DistanceMeters>NAN</DistanceMeters>
          </Trackpoint>
          <Trackpoint>
            <Time>2020-05-25T04:52:01.000Z</Time>
            <Position>
              <LatitudeDegrees>38.04245299659669399261474609375</LatitudeDegrees>
              <LongitudeDegrees>-1.104806922376155853271484375</LongitudeDegrees>
            </Position>
            <AltitudeMeters>96.8000030517578125</AltitudeMeters>
            <DistanceMeters>NAN</DistanceMeters>
          </Trackpoint>
          <Trackpoint>
            <Time>2020-05-25T04:52:02.000Z</Time>
            <Position>
              <LatitudeDegrees>38.0424611270427703857421875</LatitudeDegrees>
              <LongitudeDegrees>-1.1047286354005336761474609375</LongitudeDegrees>
            </Position>
            <AltitudeMeters>97</AltitudeMeters>
            <DistanceMeters>NAN</DistanceMeters>
          </Trackpoint>
          <Trackpoint>
            <Time>2020-05-25T04:52:03.000Z</Time>
            <Position>
              <LatitudeDegrees>38.0424696765840053558349609375</LatitudeDegrees>
              <LongitudeDegrees>-1.1046503484249114990234375</LongitudeDegrees>
            </Position>
            <AltitudeMeters>97</AltitudeMeters>
            <DistanceMeters>NAN</DistanceMeters>
          </Trackpoint>
          <Trackpoint>
            <Time>2020-05-25T04:52:04.000Z</Time>
            <Position>
              <LatitudeDegrees>38.0424800701439380645751953125</LatitudeDegrees>
              <LongitudeDegrees>-1.10457248054444789886474609375</LongitudeDegrees>
            </Position>
            <AltitudeMeters>97</AltitudeMeters>
            <DistanceMeters>NAN</DistanceMeters>
          </Trackpoint>
          <Trackpoint>
            <Time>2020-05-25T04:52:05.000Z</Time>
            <Position>
              <LatitudeDegrees>38.0424901284277439117431640625</LatitudeDegrees>
              <LongitudeDegrees>-1.10449486412107944488525390625</LongitudeDegrees>
            </Position>
            <AltitudeMeters>97.1999969482421875</AltitudeMeters>
            <DistanceMeters>NAN</DistanceMeters>
          </Trackpoint>
          <Trackpoint>
            <Time>2020-05-25T04:52:06.000Z</Time>
            <Position>
              <LatitudeDegrees>38.042499013245105743408203125</LatitudeDegrees>
              <LongitudeDegrees>-1.104415319859981536865234375</LongitudeDegrees>
            </Position>
            <AltitudeMeters>97.1999969482421875</AltitudeMeters>
            <DistanceMeters>NAN</DistanceMeters>
          </Trackpoint>
          <Trackpoint>
            <Time>2020-05-25T04:52:07.000Z</Time>
            <Position>
              <LatitudeDegrees>38.04250664077699184417724609375</LatitudeDegrees>
              <LongitudeDegrees>-1.10433627851307392120361328125</LongitudeDegrees>
            </Position>
            <AltitudeMeters>97.40000152587890625</AltitudeMeters>
            <DistanceMeters>NAN</DistanceMeters>
          </Trackpoint>
          <Trackpoint>
            <Time>2020-05-25T04:52:08.000Z</Time>
            <Position>
              <LatitudeDegrees>38.0425156094133853912353515625</LatitudeDegrees>
              <LongitudeDegrees>-1.1042572371661663055419921875</LongitudeDegrees>
            </Position>
            <AltitudeMeters>97.40000152587890625</AltitudeMeters>
            <DistanceMeters>NAN</DistanceMeters>
          </Trackpoint>
          <Trackpoint>
            <Time>2020-05-25T04:52:09.000Z</Time>
            <Position>
              <LatitudeDegrees>38.04252357222139835357666015625</LatitudeDegrees>
              <LongitudeDegrees>-1.10417786054313182830810546875</LongitudeDegrees>
            </Position>
            <AltitudeMeters>97.8000030517578125</AltitudeMeters>
            <DistanceMeters>NAN</DistanceMeters>
          </Trackpoint>
          <Trackpoint>
            <Time>2020-05-25T04:52:10.000Z</Time>
            <Position>
              <LatitudeDegrees>38.04252943955361843109130859375</LatitudeDegrees>
              <LongitudeDegrees>-1.10409856773912906646728515625</LongitudeDegrees>
            </Position>
            <AltitudeMeters>98</AltitudeMeters>
            <DistanceMeters>NAN</DistanceMeters>
          </Trackpoint>
          <Trackpoint>
            <Time>2020-05-25T04:52:11.000Z</Time>
            <Position>
              <LatitudeDegrees>38.04253597743809223175048828125</LatitudeDegrees>
              <LongitudeDegrees>-1.10401944257318973541259765625</LongitudeDegrees>
            </Position>
            <AltitudeMeters>98.1999969482421875</AltitudeMeters>
            <DistanceMeters>NAN</DistanceMeters>
          </Trackpoint>
          <Trackpoint>
            <Time>2020-05-25T04:52:12.000Z</Time>
            <Position>
              <LatitudeDegrees>38.04254972375929355621337890625</LatitudeDegrees>
              <LongitudeDegrees>-1.10385985113680362701416015625</LongitudeDegrees>
            </Position>
            <AltitudeMeters>98.40000152587890625</AltitudeMeters>
            <DistanceMeters>NAN</DistanceMeters>
          </Trackpoint>
          <Trackpoint>
            <Time>2020-05-25T04:52:13.000Z</Time>
            <Position>
              <LatitudeDegrees>38.04254972375929355621337890625</LatitudeDegrees>
              <LongitudeDegrees>-1.10385985113680362701416015625</LongitudeDegrees>
            </Position>
            <AltitudeMeters>98.59999847412109375</AltitudeMeters>
            <DistanceMeters>NAN</DistanceMeters>
          </Trackpoint>
          <Trackpoint>
            <Time>2020-05-25T04:52:14.000Z</Time>
            <Position>
              <LatitudeDegrees>38.04255994968116283416748046875</LatitudeDegrees>
              <LongitudeDegrees>-1.10369707457721233367919921875</LongitudeDegrees>
            </Position>
            <AltitudeMeters>98.59999847412109375</AltitudeMeters>
            <DistanceMeters>NAN</DistanceMeters>
          </Trackpoint>
          <Trackpoint>
            <Time>2020-05-25T04:52:15.000Z</Time>
            <Position>
              <LatitudeDegrees>38.04255994968116283416748046875</LatitudeDegrees>
              <LongitudeDegrees>-1.10369707457721233367919921875</LongitudeDegrees>
            </Position>
            <AltitudeMeters>98.8000030517578125</AltitudeMeters>
            <DistanceMeters>NAN</DistanceMeters>
          </Trackpoint>
          <Trackpoint>
            <Time>2020-05-25T04:52:16.000Z</Time>
            <Position>
              <LatitudeDegrees>38.04256481118500232696533203125</LatitudeDegrees>
              <LongitudeDegrees>-1.1036150157451629638671875</LongitudeDegrees>
            </Position>
            <AltitudeMeters>98.8000030517578125</AltitudeMeters>
            <DistanceMeters>NAN</DistanceMeters>
          </Trackpoint>
          <Trackpoint>
            <Time>2020-05-25T04:52:17.000Z</Time>
            <Position>
              <LatitudeDegrees>38.0425692535936832427978515625</LatitudeDegrees>
              <LongitudeDegrees>-1.103532202541828155517578125</LongitudeDegrees>
            </Position>
            <AltitudeMeters>99</AltitudeMeters>
            <DistanceMeters>NAN</DistanceMeters>
          </Trackpoint>
          <Trackpoint>
            <Time>2020-05-25T04:52:18.000Z</Time>
            <Position>
              <LatitudeDegrees>38.04257369600236415863037109375</LatitudeDegrees>
              <LongitudeDegrees>-1.103448383510112762451171875</LongitudeDegrees>
            </Position>
            <AltitudeMeters>99.1999969482421875</AltitudeMeters>
            <DistanceMeters>NAN</DistanceMeters>
          </Trackpoint>
          <Trackpoint>
            <Time>2020-05-25T04:52:19.000Z</Time>
            <Position>
              <LatitudeDegrees>38.04257704876363277435302734375</LatitudeDegrees>
              <LongitudeDegrees>-1.1033643968403339385986328125</LongitudeDegrees>
            </Position>
            <AltitudeMeters>99.1999969482421875</AltitudeMeters>
            <DistanceMeters>NAN</DistanceMeters>
          </Trackpoint>
          <Trackpoint>
            <Time>2020-05-25T04:52:20.000Z</Time>
            <Position>
              <LatitudeDegrees>38.042580820620059967041015625</LatitudeDegrees>
              <LongitudeDegrees>-1.10327881760895252227783203125</LongitudeDegrees>
            </Position>
            <AltitudeMeters>99.40000152587890625</AltitudeMeters>
            <DistanceMeters>NAN</DistanceMeters>
          </Trackpoint>
          <Trackpoint>
            <Time>2020-05-25T04:52:21.000Z</Time>
            <Position>
              <LatitudeDegrees>38.0425833351910114288330078125</LatitudeDegrees>
              <LongitudeDegrees>-1.10319281928241252899169921875</LongitudeDegrees>
            </Position>
            <AltitudeMeters>99.40000152587890625</AltitudeMeters>
            <DistanceMeters>NAN</DistanceMeters>
          </Trackpoint>
          <Trackpoint>
            <Time>2020-05-25T04:52:22.000Z</Time>
            <Position>
              <LatitudeDegrees>38.0425853468477725982666015625</LatitudeDegrees>
              <LongitudeDegrees>-1.10310665331780910491943359375</LongitudeDegrees>
            </Position>
            <AltitudeMeters>99.59999847412109375</AltitudeMeters>
            <DistanceMeters>NAN</DistanceMeters>
          </Trackpoint>
          <Trackpoint>
            <Time>2020-05-25T04:52:23.000Z</Time>
            <Position>
              <LatitudeDegrees>38.04258760996162891387939453125</LatitudeDegrees>
              <LongitudeDegrees>-1.10302023589611053466796875</LongitudeDegrees>
            </Position>
            <AltitudeMeters>99.59999847412109375</AltitudeMeters>
            <DistanceMeters>NAN</DistanceMeters>
          </Trackpoint>
          <Trackpoint>
            <Time>2020-05-25T04:52:24.000Z</Time>
            <Position>
              <LatitudeDegrees>38.04259012453258037567138671875</LatitudeDegrees>
              <LongitudeDegrees>-1.10293298028409481048583984375</LongitudeDegrees>
            </Position>
            <AltitudeMeters>99.59999847412109375</AltitudeMeters>
            <DistanceMeters>NAN</DistanceMeters>
          </Trackpoint>
          <Trackpoint>
            <Time>2020-05-25T04:52:25.000Z</Time>
            <Position>
              <LatitudeDegrees>38.04259465076029300689697265625</LatitudeDegrees>
              <LongitudeDegrees>-1.10284446738660335540771484375</LongitudeDegrees>
            </Position>
            <AltitudeMeters>99.59999847412109375</AltitudeMeters>
            <DistanceMeters>NAN</DistanceMeters>
          </Trackpoint>
          <Trackpoint>
            <Time>2020-05-25T04:52:26.000Z</Time>
            <Position>
              <LatitudeDegrees>38.0425994284451007843017578125</LatitudeDegrees>
              <LongitudeDegrees>-1.10275293700397014617919921875</LongitudeDegrees>
            </Position>
            <AltitudeMeters>99.59999847412109375</AltitudeMeters>
            <DistanceMeters>NAN</DistanceMeters>
          </Trackpoint>
          <Trackpoint>
            <Time>2020-05-25T04:52:27.000Z</Time>
            <Position>
              <LatitudeDegrees>38.04260387085378170013427734375</LatitudeDegrees>
              <LongitudeDegrees>-1.102658472955226898193359375</LongitudeDegrees>
            </Position>
            <AltitudeMeters>99.59999847412109375</AltitudeMeters>
            <DistanceMeters>NAN</DistanceMeters>
          </Trackpoint>
          <Trackpoint>
            <Time>2020-05-25T04:52:28.000Z</Time>
            <Position>
              <LatitudeDegrees>38.04260931909084320068359375</LatitudeDegrees>
              <LongitudeDegrees>-1.10256350599229335784912109375</LongitudeDegrees>
            </Position>
            <AltitudeMeters>99.59999847412109375</AltitudeMeters>
            <DistanceMeters>NAN</DistanceMeters>
          </Trackpoint>
          <Trackpoint>
            <Time>2020-05-25T04:52:29.000Z</Time>
            <Position>
              <LatitudeDegrees>38.042615354061126708984375</LatitudeDegrees>
              <LongitudeDegrees>-1.10247113741934299468994140625</LongitudeDegrees>
            </Position>
            <AltitudeMeters>99.59999847412109375</AltitudeMeters>
            <DistanceMeters>NAN</DistanceMeters>
          </Trackpoint>
          <Trackpoint>
            <Time>2020-05-25T04:52:30.000Z</Time>
            <Position>
              <LatitudeDegrees>38.04263371042907238006591796875</LatitudeDegrees>
              <LongitudeDegrees>-1.102285645902156829833984375</LongitudeDegrees>
            </Position>
            <AltitudeMeters>99.59999847412109375</AltitudeMeters>
            <DistanceMeters>NAN</DistanceMeters>
          </Trackpoint>
          <Trackpoint>
            <Time>2020-05-25T04:52:31.000Z</Time>
            <Position>
              <LatitudeDegrees>38.04263371042907238006591796875</LatitudeDegrees>
              <LongitudeDegrees>-1.102285645902156829833984375</LongitudeDegrees>
            </Position>
            <AltitudeMeters>99.59999847412109375</AltitudeMeters>
            <DistanceMeters>NAN</DistanceMeters>
          </Trackpoint>
          <Trackpoint>
            <Time>2020-05-25T04:52:32.000Z</Time>
            <Position>
              <LatitudeDegrees>38.04264418780803680419921875</LatitudeDegrees>
              <LongitudeDegrees>-1.10219185240566730499267578125</LongitudeDegrees>
            </Position>
            <AltitudeMeters>99.59999847412109375</AltitudeMeters>
            <DistanceMeters>NAN</DistanceMeters>
          </Trackpoint>
          <Trackpoint>
            <Time>2020-05-25T04:52:33.000Z</Time>
            <Position>
              <LatitudeDegrees>38.04265558719635009765625</LatitudeDegrees>
              <LongitudeDegrees>-1.10209730453789234161376953125</LongitudeDegrees>
            </Position>
            <AltitudeMeters>99.59999847412109375</AltitudeMeters>
            <DistanceMeters>NAN</DistanceMeters>
          </Trackpoint>
          <Trackpoint>
            <Time>2020-05-25T04:52:34.000Z</Time>
            <Position>
              <LatitudeDegrees>38.0426691658794879913330078125</LatitudeDegrees>
              <LongitudeDegrees>-1.1020031757652759552001953125</LongitudeDegrees>
            </Position>
            <AltitudeMeters>99.59999847412109375</AltitudeMeters>
            <DistanceMeters>NAN</DistanceMeters>
          </Trackpoint>
          <Trackpoint>
            <Time>2020-05-25T04:52:35.000Z</Time>
            <Position>
              <LatitudeDegrees>38.04268551059067249298095703125</LatitudeDegrees>
              <LongitudeDegrees>-1.1019086278975009918212890625</LongitudeDegrees>
            </Position>
            <AltitudeMeters>99.40000152587890625</AltitudeMeters>
            <DistanceMeters>NAN</DistanceMeters>
          </Trackpoint>
          <Trackpoint>
            <Time>2020-05-25T04:52:36.000Z</Time>
            <Position>
              <LatitudeDegrees>38.04272054694592952728271484375</LatitudeDegrees>
              <LongitudeDegrees>-1.1017168499529361724853515625</LongitudeDegrees>
            </Position>
            <AltitudeMeters>99.40000152587890625</AltitudeMeters>
            <DistanceMeters>NAN</DistanceMeters>
          </Trackpoint>
          <Trackpoint>
            <Time>2020-05-25T04:52:37.000Z</Time>
            <Position>
              <LatitudeDegrees>38.04272054694592952728271484375</LatitudeDegrees>
              <LongitudeDegrees>-1.1017168499529361724853515625</LongitudeDegrees>
            </Position>
            <AltitudeMeters>99.1999969482421875</AltitudeMeters>
            <DistanceMeters>NAN</DistanceMeters>
          </Trackpoint>
          <Trackpoint>
            <Time>2020-05-25T04:52:38.000Z</Time>
            <Position>
              <LatitudeDegrees>38.04275725968182086944580078125</LatitudeDegrees>
              <LongitudeDegrees>-1.1015213839709758758544921875</LongitudeDegrees>
            </Position>
            <AltitudeMeters>99.1999969482421875</AltitudeMeters>
            <DistanceMeters>NAN</DistanceMeters>
          </Trackpoint>
          <Trackpoint>
            <Time>2020-05-25T04:52:39.000Z</Time>
            <Position>
              <LatitudeDegrees>38.04275725968182086944580078125</LatitudeDegrees>
              <LongitudeDegrees>-1.1015213839709758758544921875</LongitudeDegrees>
            </Position>
            <AltitudeMeters>99</AltitudeMeters>
            <DistanceMeters>NAN</DistanceMeters>
          </Trackpoint>
          <Trackpoint>
            <Time>2020-05-25T04:52:40.000Z</Time>
            <Position>
              <LatitudeDegrees>38.0427710898220539093017578125</LatitudeDegrees>
              <LongitudeDegrees>-1.10142088495194911956787109375</LongitudeDegrees>
            </Position>
            <AltitudeMeters>98.8000030517578125</AltitudeMeters>
            <DistanceMeters>NAN</DistanceMeters>
          </Trackpoint>
          <Trackpoint>
            <Time>2020-05-25T04:52:41.000Z</Time>
            <Position>
              <LatitudeDegrees>38.0427731014788150787353515625</LatitudeDegrees>
              <LongitudeDegrees>-1.10131795518100261688232421875</LongitudeDegrees>
            </Position>
            <AltitudeMeters>98.59999847412109375</AltitudeMeters>
            <DistanceMeters>NAN</DistanceMeters>
          </Trackpoint>
          <Trackpoint>
            <Time>2020-05-25T04:52:42.000Z</Time>
            <Position>
              <LatitudeDegrees>38.04276362992823123931884765625</LatitudeDegrees>
              <LongitudeDegrees>-1.10121552832424640655517578125</LongitudeDegrees>
            </Position>
            <AltitudeMeters>98.40000152587890625</AltitudeMeters>
            <DistanceMeters>NAN</DistanceMeters>
          </Trackpoint>
          <Trackpoint>
            <Time>2020-05-25T04:52:43.000Z</Time>
            <Position>
              <LatitudeDegrees>38.0427561700344085693359375</LatitudeDegrees>
              <LongitudeDegrees>-1.1011133529245853424072265625</LongitudeDegrees>
            </Position>
            <AltitudeMeters>98</AltitudeMeters>
            <DistanceMeters>NAN</DistanceMeters>
          </Trackpoint>
          <Trackpoint>
            <Time>2020-05-25T04:52:44.000Z</Time>
            <Position>
              <LatitudeDegrees>38.04276882670819759368896484375</LatitudeDegrees>
              <LongitudeDegrees>-1.10101050697267055511474609375</LongitudeDegrees>
            </Position>
            <AltitudeMeters>97.8000030517578125</AltitudeMeters>
            <DistanceMeters>NAN</DistanceMeters>
          </Trackpoint>
          <Trackpoint>
            <Time>2020-05-25T04:52:45.000Z</Time>
            <Position>
              <LatitudeDegrees>38.04280419833958148956298828125</LatitudeDegrees>
              <LongitudeDegrees>-1.1009148694574832916259765625</LongitudeDegrees>
            </Position>
            <AltitudeMeters>97.40000152587890625</AltitudeMeters>
            <DistanceMeters>NAN</DistanceMeters>
          </Trackpoint>
          <Trackpoint>
            <Time>2020-05-25T04:52:46.000Z</Time>
            <Position>
              <LatitudeDegrees>38.04285633377730846405029296875</LatitudeDegrees>
              <LongitudeDegrees>-1.10083197243511676788330078125</LongitudeDegrees>
            </Position>
            <AltitudeMeters>97.1999969482421875</AltitudeMeters>
            <DistanceMeters>NAN</DistanceMeters>
          </Trackpoint>
          <Trackpoint>
            <Time>2020-05-25T04:52:47.000Z</Time>
            <Position>
              <LatitudeDegrees>38.04291534237563610076904296875</LatitudeDegrees>
              <LongitudeDegrees>-1.100756786763668060302734375</LongitudeDegrees>
            </Position>
            <AltitudeMeters>97</AltitudeMeters>
            <DistanceMeters>NAN</DistanceMeters>
          </Trackpoint>
          <Trackpoint>
            <Time>2020-05-25T04:52:48.000Z</Time>
            <Position>
              <LatitudeDegrees>38.04297141730785369873046875</LatitudeDegrees>
              <LongitudeDegrees>-1.1006801761686801910400390625</LongitudeDegrees>
            </Position>
            <AltitudeMeters>96.8000030517578125</AltitudeMeters>
            <DistanceMeters>NAN</DistanceMeters>
          </Trackpoint>
          <Trackpoint>
            <Time>2020-05-25T04:52:49.000Z</Time>
            <Position>
              <LatitudeDegrees>38.043020702898502349853515625</LatitudeDegrees>
              <LongitudeDegrees>-1.1005950160324573516845703125</LongitudeDegrees>
            </Position>
            <AltitudeMeters>96.40000152587890625</AltitudeMeters>
            <DistanceMeters>NAN</DistanceMeters>
          </Trackpoint>
          <Trackpoint>
            <Time>2020-05-25T04:52:50.000Z</Time>
            <Position>
              <LatitudeDegrees>38.04310192354023456573486328125</LatitudeDegrees>
              <LongitudeDegrees>-1.10040164552628993988037109375</LongitudeDegrees>
            </Position>
            <AltitudeMeters>96.1999969482421875</AltitudeMeters>
            <DistanceMeters>NAN</DistanceMeters>
          </Trackpoint>
          <Trackpoint>
            <Time>2020-05-25T04:52:51.000Z</Time>
            <Position>
              <LatitudeDegrees>38.04310192354023456573486328125</LatitudeDegrees>
              <LongitudeDegrees>-1.10040164552628993988037109375</LongitudeDegrees>
            </Position>
            <AltitudeMeters>95.8000030517578125</AltitudeMeters>
            <DistanceMeters>NAN</DistanceMeters>
          </Trackpoint>
          <Trackpoint>
            <Time>2020-05-25T04:52:52.000Z</Time>
            <Position>
              <LatitudeDegrees>38.04313503205776214599609375</LatitudeDegrees>
              <LongitudeDegrees>-1.10029888339340686798095703125</LongitudeDegrees>
            </Position>
            <AltitudeMeters>95.40000152587890625</AltitudeMeters>
            <DistanceMeters>NAN</DistanceMeters>
          </Trackpoint>
          <Trackpoint>
            <Time>2020-05-25T04:52:53.000Z</Time>
            <Position>
              <LatitudeDegrees>38.043164201080799102783203125</LatitudeDegrees>
              <LongitudeDegrees>-1.10019385814666748046875</LongitudeDegrees>
            </Position>
            <AltitudeMeters>95</AltitudeMeters>
            <DistanceMeters>NAN</DistanceMeters>
          </Trackpoint>
          <Trackpoint>
            <Time>2020-05-25T04:52:54.000Z</Time>
            <Position>
              <LatitudeDegrees>38.04321683943271636962890625</LatitudeDegrees>
              <LongitudeDegrees>-1.0999774374067783355712890625</LongitudeDegrees>
            </Position>
            <AltitudeMeters>94.8000030517578125</AltitudeMeters>
            <DistanceMeters>NAN</DistanceMeters>
          </Trackpoint>
          <Trackpoint>
            <Time>2020-05-25T04:52:55.000Z</Time>
            <Position>
              <LatitudeDegrees>38.04321683943271636962890625</LatitudeDegrees>
              <LongitudeDegrees>-1.0999774374067783355712890625</LongitudeDegrees>
            </Position>
            <AltitudeMeters>94.8000030517578125</AltitudeMeters>
            <DistanceMeters>NAN</DistanceMeters>
          </Trackpoint>
          <Trackpoint>
            <Time>2020-05-25T04:52:56.000Z</Time>
            <Position>
              <LatitudeDegrees>38.043259084224700927734375</LatitudeDegrees>
              <LongitudeDegrees>-1.099751628935337066650390625</LongitudeDegrees>
            </Position>
            <AltitudeMeters>94.59999847412109375</AltitudeMeters>
            <DistanceMeters>NAN</DistanceMeters>
          </Trackpoint>
          <Trackpoint>
            <Time>2020-05-25T04:52:57.000Z</Time>
            <Position>
              <LatitudeDegrees>38.043259084224700927734375</LatitudeDegrees>
              <LongitudeDegrees>-1.099751628935337066650390625</LongitudeDegrees>
            </Position>
            <AltitudeMeters>94.59999847412109375</AltitudeMeters>
            <DistanceMeters>NAN</DistanceMeters>
          </Trackpoint>
          <Trackpoint>
            <Time>2020-05-25T04:52:58.000Z</Time>
            <Position>
              <LatitudeDegrees>38.043276183307170867919921875</LatitudeDegrees>
              <LongitudeDegrees>-1.0996371321380138397216796875</LongitudeDegrees>
            </Position>
            <AltitudeMeters>94.1999969482421875</AltitudeMeters>
            <DistanceMeters>NAN</DistanceMeters>
          </Trackpoint>
          <Trackpoint>
            <Time>2020-05-25T04:52:59.000Z</Time>
            <Position>
              <LatitudeDegrees>38.0432900972664356231689453125</LatitudeDegrees>
              <LongitudeDegrees>-1.0995204560458660125732421875</LongitudeDegrees>
            </Position>
            <AltitudeMeters>93.8000030517578125</AltitudeMeters>
            <DistanceMeters>NAN</DistanceMeters>
          </Trackpoint>
          <Trackpoint>
            <Time>2020-05-25T04:53:00.000Z</Time>
            <Position>
              <LatitudeDegrees>38.043307028710842132568359375</LatitudeDegrees>
              <LongitudeDegrees>-1.09927930869162082672119140625</LongitudeDegrees>
            </Position>
            <AltitudeMeters>93.59999847412109375</AltitudeMeters>
            <DistanceMeters>NAN</DistanceMeters>
          </Trackpoint>
          <Trackpoint>
            <Time>2020-05-25T04:53:01.000Z</Time>
            <Position>
              <LatitudeDegrees>38.043307028710842132568359375</LatitudeDegrees>
              <LongitudeDegrees>-1.09927930869162082672119140625</LongitudeDegrees>
            </Position>
            <AltitudeMeters>93.1999969482421875</AltitudeMeters>
            <DistanceMeters>NAN</DistanceMeters>
          </Trackpoint>
          <Trackpoint>
            <Time>2020-05-25T04:53:02.000Z</Time>
            <Position>
              <LatitudeDegrees>38.04331700317561626434326171875</LatitudeDegrees>
              <LongitudeDegrees>-1.099036149680614471435546875</LongitudeDegrees>
            </Position>
            <AltitudeMeters>92.8000030517578125</AltitudeMeters>
            <DistanceMeters>NAN</DistanceMeters>
          </Trackpoint>
          <Trackpoint>
            <Time>2020-05-25T04:53:03.000Z</Time>
            <Position>
              <LatitudeDegrees>38.04331700317561626434326171875</LatitudeDegrees>
              <LongitudeDegrees>-1.099036149680614471435546875</LongitudeDegrees>
            </Position>
            <AltitudeMeters>92.40000152587890625</AltitudeMeters>
            <DistanceMeters>NAN</DistanceMeters>
          </Trackpoint>
          <Trackpoint>
            <Time>2020-05-25T04:53:04.000Z</Time>
            <Position>
              <LatitudeDegrees>38.04332136176526546478271484375</LatitudeDegrees>
              <LongitudeDegrees>-1.09891586937010288238525390625</LongitudeDegrees>
            </Position>
            <AltitudeMeters>92.1999969482421875</AltitudeMeters>
            <DistanceMeters>NAN</DistanceMeters>
          </Trackpoint>
          <Trackpoint>
            <Time>2020-05-25T04:53:05.000Z</Time>
            <Position>
              <LatitudeDegrees>38.04332504980266094207763671875</LatitudeDegrees>
              <LongitudeDegrees>-1.098795421421527862548828125</LongitudeDegrees>
            </Position>
            <AltitudeMeters>91.8000030517578125</AltitudeMeters>
            <DistanceMeters>NAN</DistanceMeters>
          </Trackpoint>
          <Trackpoint>
            <Time>2020-05-25T04:53:06.000Z</Time>
            <Position>
              <LatitudeDegrees>38.04332949221134185791015625</LatitudeDegrees>
              <LongitudeDegrees>-1.09867396764457225799560546875</LongitudeDegrees>
            </Position>
            <AltitudeMeters>91.1999969482421875</AltitudeMeters>
            <DistanceMeters>NAN</DistanceMeters>
          </Trackpoint>
          <Trackpoint>
            <Time>2020-05-25T04:53:07.000Z</Time>
            <Position>
              <LatitudeDegrees>38.0433336831629276275634765625</LatitudeDegrees>
              <LongitudeDegrees>-1.09855226241052150726318359375</LongitudeDegrees>
            </Position>
            <AltitudeMeters>91</AltitudeMeters>
            <DistanceMeters>NAN</DistanceMeters>
          </Trackpoint>
          <Trackpoint>
            <Time>2020-05-25T04:53:08.000Z</Time>
            <Position>
              <LatitudeDegrees>38.04334382526576519012451171875</LatitudeDegrees>
              <LongitudeDegrees>-1.09830717556178569793701171875</LongitudeDegrees>
            </Position>
            <AltitudeMeters>90.40000152587890625</AltitudeMeters>
            <DistanceMeters>NAN</DistanceMeters>
          </Trackpoint>
          <Trackpoint>
            <Time>2020-05-25T04:53:09.000Z</Time>
            <Position>
              <LatitudeDegrees>38.04334382526576519012451171875</LatitudeDegrees>
              <LongitudeDegrees>-1.09830717556178569793701171875</LongitudeDegrees>
            </Position>
            <AltitudeMeters>90</AltitudeMeters>
            <DistanceMeters>NAN</DistanceMeters>
          </Trackpoint>
          <Trackpoint>
            <Time>2020-05-25T04:53:10.000Z</Time>
            <Position>
              <LatitudeDegrees>38.04335354827344417572021484375</LatitudeDegrees>
              <LongitudeDegrees>-1.0981823690235614776611328125</LongitudeDegrees>
            </Position>
            <AltitudeMeters>89.59999847412109375</AltitudeMeters>
            <DistanceMeters>NAN</DistanceMeters>
          </Trackpoint>
          <Trackpoint>
            <Time>2020-05-25T04:53:11.000Z</Time>
            <Position>
              <LatitudeDegrees>38.0433645285665988922119140625</LatitudeDegrees>
              <LongitudeDegrees>-1.0980576463043689727783203125</LongitudeDegrees>
            </Position>
            <AltitudeMeters>88.8000030517578125</AltitudeMeters>
            <DistanceMeters>NAN</DistanceMeters>
          </Trackpoint>
          <Trackpoint>
            <Time>2020-05-25T04:53:12.000Z</Time>
            <Position>
              <LatitudeDegrees>38.04339277558028697967529296875</LatitudeDegrees>
              <LongitudeDegrees>-1.09780602157115936279296875</LongitudeDegrees>
            </Position>
            <AltitudeMeters>88.59999847412109375</AltitudeMeters>
            <DistanceMeters>NAN</DistanceMeters>
          </Trackpoint>
          <Trackpoint>
            <Time>2020-05-25T04:53:13.000Z</Time>
            <Position>
              <LatitudeDegrees>38.04339277558028697967529296875</LatitudeDegrees>
              <LongitudeDegrees>-1.09780602157115936279296875</LongitudeDegrees>
            </Position>
            <AltitudeMeters>88.1999969482421875</AltitudeMeters>
            <DistanceMeters>NAN</DistanceMeters>
          </Trackpoint>
          <Trackpoint>
            <Time>2020-05-25T04:53:14.000Z</Time>
            <Position>
              <LatitudeDegrees>38.0434265546500682830810546875</LatitudeDegrees>
              <LongitudeDegrees>-1.09755456447601318359375</LongitudeDegrees>
            </Position>
            <AltitudeMeters>88</AltitudeMeters>
            <DistanceMeters>NAN</DistanceMeters>
          </Trackpoint>
          <Trackpoint>
            <Time>2020-05-25T04:53:15.000Z</Time>
            <Position>
              <LatitudeDegrees>38.0434265546500682830810546875</LatitudeDegrees>
              <LongitudeDegrees>-1.09755456447601318359375</LongitudeDegrees>
            </Position>
            <AltitudeMeters>87.8000030517578125</AltitudeMeters>
            <DistanceMeters>NAN</DistanceMeters>
          </Trackpoint>
          <Trackpoint>
            <Time>2020-05-25T04:53:16.000Z</Time>
            <Position>
              <LatitudeDegrees>38.04344440810382366180419921875</LatitudeDegrees>
              <LongitudeDegrees>-1.097428835928440093994140625</LongitudeDegrees>
            </Position>
            <AltitudeMeters>87.40000152587890625</AltitudeMeters>
            <DistanceMeters>NAN</DistanceMeters>
          </Trackpoint>
          <Trackpoint>
            <Time>2020-05-25T04:53:17.000Z</Time>
            <Position>
              <LatitudeDegrees>38.04346318356692790985107421875</LatitudeDegrees>
              <LongitudeDegrees>-1.09730335883796215057373046875</LongitudeDegrees>
            </Position>
            <AltitudeMeters>87.1999969482421875</AltitudeMeters>
            <DistanceMeters>NAN</DistanceMeters>
          </Trackpoint>
          <Trackpoint>
            <Time>2020-05-25T04:53:18.000Z</Time>
            <Position>
              <LatitudeDegrees>38.04348330013453960418701171875</LatitudeDegrees>
              <LongitudeDegrees>-1.09717813320457935333251953125</LongitudeDegrees>
            </Position>
            <AltitudeMeters>87</AltitudeMeters>
            <DistanceMeters>NAN</DistanceMeters>
          </Trackpoint>
          <Trackpoint>
            <Time>2020-05-25T04:53:19.000Z</Time>
            <Position>
              <LatitudeDegrees>38.0435040034353733062744140625</LatitudeDegrees>
              <LongitudeDegrees>-1.09705391339957714080810546875</LongitudeDegrees>
            </Position>
            <AltitudeMeters>86.8000030517578125</AltitudeMeters>
            <DistanceMeters>NAN</DistanceMeters>
          </Trackpoint>
          <Trackpoint>
            <Time>2020-05-25T04:53:20.000Z</Time>
            <Position>
              <LatitudeDegrees>38.0435257963836193084716796875</LatitudeDegrees>
              <LongitudeDegrees>-1.09693053178489208221435546875</LongitudeDegrees>
            </Position>
            <AltitudeMeters>86.59999847412109375</AltitudeMeters>
            <DistanceMeters>NAN</DistanceMeters>
          </Trackpoint>
          <Trackpoint>
            <Time>2020-05-25T04:53:21.000Z</Time>
            <Position>
              <LatitudeDegrees>38.0435502715408802032470703125</LatitudeDegrees>
              <LongitudeDegrees>-1.0968080721795558929443359375</LongitudeDegrees>
            </Position>
            <AltitudeMeters>86.1999969482421875</AltitudeMeters>
            <DistanceMeters>NAN</DistanceMeters>
          </Trackpoint>
          <Trackpoint>
            <Time>2020-05-25T04:53:22.000Z</Time>
            <Position>
              <LatitudeDegrees>38.04357684217393398284912109375</LatitudeDegrees>
              <LongitudeDegrees>-1.0966863669455051422119140625</LongitudeDegrees>
            </Position>
            <AltitudeMeters>86</AltitudeMeters>
            <DistanceMeters>NAN</DistanceMeters>
          </Trackpoint>
          <Trackpoint>
            <Time>2020-05-25T04:53:23.000Z</Time>
            <Position>
              <LatitudeDegrees>38.043604083359241485595703125</LatitudeDegrees>
              <LongitudeDegrees>-1.09656474553048610687255859375</LongitudeDegrees>
            </Position>
            <AltitudeMeters>85.59999847412109375</AltitudeMeters>
            <DistanceMeters>NAN</DistanceMeters>
          </Trackpoint>
          <Trackpoint>
            <Time>2020-05-25T04:53:24.000Z</Time>
            <Position>
              <LatitudeDegrees>38.0436627566814422607421875</LatitudeDegrees>
              <LongitudeDegrees>-1.0963225923478603363037109375</LongitudeDegrees>
            </Position>
            <AltitudeMeters>85.40000152587890625</AltitudeMeters>
            <DistanceMeters>NAN</DistanceMeters>
          </Trackpoint>
          <Trackpoint>
            <Time>2020-05-25T04:53:25.000Z</Time>
            <Position>
              <LatitudeDegrees>38.0436627566814422607421875</LatitudeDegrees>
              <LongitudeDegrees>-1.0963225923478603363037109375</LongitudeDegrees>
            </Position>
            <AltitudeMeters>85.1999969482421875</AltitudeMeters>
            <DistanceMeters>NAN</DistanceMeters>
          </Trackpoint>
          <Trackpoint>
            <Time>2020-05-25T04:53:26.000Z</Time>
            <Position>
              <LatitudeDegrees>38.0437296442687511444091796875</LatitudeDegrees>
              <LongitudeDegrees>-1.0960838757455348968505859375</LongitudeDegrees>
            </Position>
            <AltitudeMeters>84.8000030517578125</AltitudeMeters>
            <DistanceMeters>NAN</DistanceMeters>
          </Trackpoint>
          <Trackpoint>
            <Time>2020-05-25T04:53:27.000Z</Time>
            <Position>
              <LatitudeDegrees>38.0437296442687511444091796875</LatitudeDegrees>
              <LongitudeDegrees>-1.0960838757455348968505859375</LongitudeDegrees>
            </Position>
            <AltitudeMeters>84.59999847412109375</AltitudeMeters>
            <DistanceMeters>NAN</DistanceMeters>
          </Trackpoint>
          <Trackpoint>
            <Time>2020-05-25T04:53:28.000Z</Time>
            <Position>
              <LatitudeDegrees>38.04376778192818164825439453125</LatitudeDegrees>
              <LongitudeDegrees>-1.0959668643772602081298828125</LongitudeDegrees>
            </Position>
            <AltitudeMeters>84.40000152587890625</AltitudeMeters>
            <DistanceMeters>NAN</DistanceMeters>
          </Trackpoint>
          <Trackpoint>
            <Time>2020-05-25T04:53:29.000Z</Time>
            <Position>
              <LatitudeDegrees>38.04380784742534160614013671875</LatitudeDegrees>
              <LongitudeDegrees>-1.09585178084671497344970703125</LongitudeDegrees>
            </Position>
            <AltitudeMeters>84.1999969482421875</AltitudeMeters>
            <DistanceMeters>NAN</DistanceMeters>
          </Trackpoint>
          <Trackpoint>
            <Time>2020-05-25T04:53:30.000Z</Time>
            <Position>
              <LatitudeDegrees>38.04385025985538959503173828125</LatitudeDegrees>
              <LongitudeDegrees>-1.095737703144550323486328125</LongitudeDegrees>
            </Position>
            <AltitudeMeters>84</AltitudeMeters>
            <DistanceMeters>NAN</DistanceMeters>
          </Trackpoint>
          <Trackpoint>
            <Time>2020-05-25T04:53:31.000Z</Time>
            <Position>
              <LatitudeDegrees>38.04389602504670619964599609375</LatitudeDegrees>
              <LongitudeDegrees>-1.09562580473721027374267578125</LongitudeDegrees>
            </Position>
            <AltitudeMeters>83.8000030517578125</AltitudeMeters>
            <DistanceMeters>NAN</DistanceMeters>
          </Trackpoint>
          <Trackpoint>
            <Time>2020-05-25T04:53:32.000Z</Time>
            <Position>
              <LatitudeDegrees>38.0439971946179866790771484375</LatitudeDegrees>
              <LongitudeDegrees>-1.09540971927344799041748046875</LongitudeDegrees>
            </Position>
            <AltitudeMeters>83.59999847412109375</AltitudeMeters>
            <DistanceMeters>NAN</DistanceMeters>
          </Trackpoint>
          <Trackpoint>
            <Time>2020-05-25T04:53:33.000Z</Time>
            <Position>
              <LatitudeDegrees>38.0439971946179866790771484375</LatitudeDegrees>
              <LongitudeDegrees>-1.09540971927344799041748046875</LongitudeDegrees>
            </Position>
            <AltitudeMeters>83.59999847412109375</AltitudeMeters>
            <DistanceMeters>NAN</DistanceMeters>
          </Trackpoint>
          <Trackpoint>
            <Time>2020-05-25T04:53:34.000Z</Time>
            <Position>
              <LatitudeDegrees>38.04404991678893566131591796875</LatitudeDegrees>
              <LongitudeDegrees>-1.09530326910316944122314453125</LongitudeDegrees>
            </Position>
            <AltitudeMeters>83.40000152587890625</AltitudeMeters>
            <DistanceMeters>NAN</DistanceMeters>
          </Trackpoint>
          <Trackpoint>
            <Time>2020-05-25T04:53:35.000Z</Time>
            <Position>
              <LatitudeDegrees>38.04410322569310665130615234375</LatitudeDegrees>
              <LongitudeDegrees>-1.0951977409422397613525390625</LongitudeDegrees>
            </Position>
            <AltitudeMeters>83.1999969482421875</AltitudeMeters>
            <DistanceMeters>NAN</DistanceMeters>
          </Trackpoint>
          <Trackpoint>
            <Time>2020-05-25T04:53:36.000Z</Time>
            <Position>
              <LatitudeDegrees>38.0442126095294952392578125</LatitudeDegrees>
              <LongitudeDegrees>-1.09499037265777587890625</LongitudeDegrees>
            </Position>
            <AltitudeMeters>82.8000030517578125</AltitudeMeters>
            <DistanceMeters>NAN</DistanceMeters>
          </Trackpoint>
          <Trackpoint>
            <Time>2020-05-25T04:53:37.000Z</Time>
            <Position>
              <LatitudeDegrees>38.0442126095294952392578125</LatitudeDegrees>
              <LongitudeDegrees>-1.09499037265777587890625</LongitudeDegrees>
            </Position>
            <AltitudeMeters>82.40000152587890625</AltitudeMeters>
            <DistanceMeters>NAN</DistanceMeters>
          </Trackpoint>
          <Trackpoint>
            <Time>2020-05-25T04:53:38.000Z</Time>
            <Position>
              <LatitudeDegrees>38.04432115517556667327880859375</LatitudeDegrees>
              <LongitudeDegrees>-1.09477940015494823455810546875</LongitudeDegrees>
            </Position>
            <AltitudeMeters>81.59999847412109375</AltitudeMeters>
            <DistanceMeters>NAN</DistanceMeters>
          </Trackpoint>
          <Trackpoint>
            <Time>2020-05-25T04:53:39.000Z</Time>
            <Position>
              <LatitudeDegrees>38.04432115517556667327880859375</LatitudeDegrees>
              <LongitudeDegrees>-1.09477940015494823455810546875</LongitudeDegrees>
            </Position>
            <AltitudeMeters>81.1999969482421875</AltitudeMeters>
            <DistanceMeters>NAN</DistanceMeters>
          </Trackpoint>
          <Trackpoint>
            <Time>2020-05-25T04:53:40.000Z</Time>
            <Position>
              <LatitudeDegrees>38.04437396116554737091064453125</LatitudeDegrees>
              <LongitudeDegrees>-1.094672195613384246826171875</LongitudeDegrees>
            </Position>
            <AltitudeMeters>80.8000030517578125</AltitudeMeters>
            <DistanceMeters>NAN</DistanceMeters>
          </Trackpoint>
          <Trackpoint>
            <Time>2020-05-25T04:53:41.000Z</Time>
            <Position>
              <LatitudeDegrees>38.0444280244410037994384765625</LatitudeDegrees>
              <LongitudeDegrees>-1.094565577805042266845703125</LongitudeDegrees>
            </Position>
            <AltitudeMeters>80.59999847412109375</AltitudeMeters>
            <DistanceMeters>NAN</DistanceMeters>
          </Trackpoint>
          <Trackpoint>
            <Time>2020-05-25T04:53:42.000Z</Time>
            <Position>
              <LatitudeDegrees>38.04453355260193347930908203125</LatitudeDegrees>
              <LongitudeDegrees>-1.09435393474996089935302734375</LongitudeDegrees>
            </Position>
            <AltitudeMeters>80.1999969482421875</AltitudeMeters>
            <DistanceMeters>NAN</DistanceMeters>
          </Trackpoint>
          <Trackpoint>
            <Time>2020-05-25T04:53:43.000Z</Time>
            <Position>
              <LatitudeDegrees>38.04453355260193347930908203125</LatitudeDegrees>
              <LongitudeDegrees>-1.09435393474996089935302734375</LongitudeDegrees>
            </Position>
            <AltitudeMeters>80</AltitudeMeters>
            <DistanceMeters>NAN</DistanceMeters>
          </Trackpoint>
          <Trackpoint>
            <Time>2020-05-25T04:53:44.000Z</Time>
            <Position>
              <LatitudeDegrees>38.04463882930576801300048828125</LatitudeDegrees>
              <LongitudeDegrees>-1.0941439680755138397216796875</LongitudeDegrees>
            </Position>
            <AltitudeMeters>79.8000030517578125</AltitudeMeters>
            <DistanceMeters>NAN</DistanceMeters>
          </Trackpoint>
          <Trackpoint>
            <Time>2020-05-25T04:53:45.000Z</Time>
            <Position>
              <LatitudeDegrees>38.04463882930576801300048828125</LatitudeDegrees>
              <LongitudeDegrees>-1.0941439680755138397216796875</LongitudeDegrees>
            </Position>
            <AltitudeMeters>79.59999847412109375</AltitudeMeters>
            <DistanceMeters>NAN</DistanceMeters>
          </Trackpoint>
          <Trackpoint>
            <Time>2020-05-25T04:53:46.000Z</Time>
            <Position>
              <LatitudeDegrees>38.04469314403831958770751953125</LatitudeDegrees>
              <LongitudeDegrees>-1.09404154121875762939453125</LongitudeDegrees>
            </Position>
            <AltitudeMeters>79.1999969482421875</AltitudeMeters>
            <DistanceMeters>NAN</DistanceMeters>
          </Trackpoint>
          <Trackpoint>
            <Time>2020-05-25T04:53:47.000Z</Time>
            <Position>
              <LatitudeDegrees>38.0447462014853954315185546875</LatitudeDegrees>
              <LongitudeDegrees>-1.09393852762877941131591796875</LongitudeDegrees>
            </Position>
            <AltitudeMeters>78.8000030517578125</AltitudeMeters>
            <DistanceMeters>NAN</DistanceMeters>
          </Trackpoint>
          <Trackpoint>
            <Time>2020-05-25T04:53:48.000Z</Time>
            <Position>
              <LatitudeDegrees>38.0448474548757076263427734375</LatitudeDegrees>
              <LongitudeDegrees>-1.0937310755252838134765625</LongitudeDegrees>
            </Position>
            <AltitudeMeters>78.1999969482421875</AltitudeMeters>
            <DistanceMeters>NAN</DistanceMeters>
          </Trackpoint>
          <Trackpoint>
            <Time>2020-05-25T04:53:49.000Z</Time>
            <Position>
              <LatitudeDegrees>38.0448474548757076263427734375</LatitudeDegrees>
              <LongitudeDegrees>-1.0937310755252838134765625</LongitudeDegrees>
            </Position>
            <AltitudeMeters>78</AltitudeMeters>
            <DistanceMeters>NAN</DistanceMeters>
          </Trackpoint>
          <Trackpoint>
            <Time>2020-05-25T04:53:50.000Z</Time>
            <Position>
              <LatitudeDegrees>38.04495063610374927520751953125</LatitudeDegrees>
              <LongitudeDegrees>-1.09352714382112026214599609375</LongitudeDegrees>
            </Position>
            <AltitudeMeters>77.59999847412109375</AltitudeMeters>
            <DistanceMeters>NAN</DistanceMeters>
          </Trackpoint>
          <Trackpoint>
            <Time>2020-05-25T04:53:51.000Z</Time>
            <Position>
              <LatitudeDegrees>38.04495063610374927520751953125</LatitudeDegrees>
              <LongitudeDegrees>-1.09352714382112026214599609375</LongitudeDegrees>
            </Position>
            <AltitudeMeters>77.1999969482421875</AltitudeMeters>
            <DistanceMeters>NAN</DistanceMeters>
          </Trackpoint>
          <Trackpoint>
            <Time>2020-05-25T04:53:52.000Z</Time>
            <Position>
              <LatitudeDegrees>38.04500126279890537261962890625</LatitudeDegrees>
              <LongitudeDegrees>-1.09342521987855434417724609375</LongitudeDegrees>
            </Position>
            <AltitudeMeters>76.59999847412109375</AltitudeMeters>
            <DistanceMeters>NAN</DistanceMeters>
          </Trackpoint>
          <Trackpoint>
            <Time>2020-05-25T04:53:53.000Z</Time>
            <Position>
              <LatitudeDegrees>38.04505188949406147003173828125</LatitudeDegrees>
              <LongitudeDegrees>-1.09332229010760784149169921875</LongitudeDegrees>
            </Position>
            <AltitudeMeters>76</AltitudeMeters>
            <DistanceMeters>NAN</DistanceMeters>
          </Trackpoint>
          <Trackpoint>
            <Time>2020-05-25T04:53:54.000Z</Time>
            <Position>
              <LatitudeDegrees>38.0451545678079128265380859375</LatitudeDegrees>
              <LongitudeDegrees>-1.09311643056571483612060546875</LongitudeDegrees>
            </Position>
            <AltitudeMeters>75.59999847412109375</AltitudeMeters>
            <DistanceMeters>NAN</DistanceMeters>
          </Trackpoint>
          <Trackpoint>
            <Time>2020-05-25T04:53:55.000Z</Time>
            <Position>
              <LatitudeDegrees>38.0451545678079128265380859375</LatitudeDegrees>
              <LongitudeDegrees>-1.09311643056571483612060546875</LongitudeDegrees>
            </Position>
            <AltitudeMeters>75.1999969482421875</AltitudeMeters>
            <DistanceMeters>NAN</DistanceMeters>
          </Trackpoint>
          <Trackpoint>
            <Time>2020-05-25T04:53:56.000Z</Time>
            <Position>
              <LatitudeDegrees>38.045206367969512939453125</LatitudeDegrees>
              <LongitudeDegrees>-1.09301366843283176422119140625</LongitudeDegrees>
            </Position>
            <AltitudeMeters>74.8000030517578125</AltitudeMeters>
            <DistanceMeters>NAN</DistanceMeters>
          </Trackpoint>
          <Trackpoint>
            <Time>2020-05-25T04:53:57.000Z</Time>
            <Position>
              <LatitudeDegrees>38.04525875486433506011962890625</LatitudeDegrees>
              <LongitudeDegrees>-1.0929108224809169769287109375</LongitudeDegrees>
            </Position>
            <AltitudeMeters>74.59999847412109375</AltitudeMeters>
            <DistanceMeters>NAN</DistanceMeters>
          </Trackpoint>
          <Trackpoint>
            <Time>2020-05-25T04:53:58.000Z</Time>
            <Position>
              <LatitudeDegrees>38.0453111417591571807861328125</LatitudeDegrees>
              <LongitudeDegrees>-1.0928068868815898895263671875</LongitudeDegrees>
            </Position>
            <AltitudeMeters>74.40000152587890625</AltitudeMeters>
            <DistanceMeters>NAN</DistanceMeters>
          </Trackpoint>
          <Trackpoint>
            <Time>2020-05-25T04:53:59.000Z</Time>
            <Position>
              <LatitudeDegrees>38.04536336101591587066650390625</LatitudeDegrees>
              <LongitudeDegrees>-1.09270219691097736358642578125</LongitudeDegrees>
            </Position>
            <AltitudeMeters>74.1999969482421875</AltitudeMeters>
            <DistanceMeters>NAN</DistanceMeters>
          </Trackpoint>
          <Trackpoint>
            <Time>2020-05-25T04:54:00.000Z</Time>
            <Position>
              <LatitudeDegrees>38.04547014646232128143310546875</LatitudeDegrees>
              <LongitudeDegrees>-1.09249281696975231170654296875</LongitudeDegrees>
            </Position>
            <AltitudeMeters>74</AltitudeMeters>
            <DistanceMeters>NAN</DistanceMeters>
          </Trackpoint>
          <Trackpoint>
            <Time>2020-05-25T04:54:01.000Z</Time>
            <Position>
              <LatitudeDegrees>38.04547014646232128143310546875</LatitudeDegrees>
              <LongitudeDegrees>-1.09249281696975231170654296875</LongitudeDegrees>
            </Position>
            <AltitudeMeters>73.59999847412109375</AltitudeMeters>
            <DistanceMeters>NAN</DistanceMeters>
          </Trackpoint>
          <Trackpoint>
            <Time>2020-05-25T04:54:02.000Z</Time>
            <Position>
              <LatitudeDegrees>38.045579530298709869384765625</LatitudeDegrees>
              <LongitudeDegrees>-1.09228670597076416015625</LongitudeDegrees>
            </Position>
            <AltitudeMeters>73.40000152587890625</AltitudeMeters>
            <DistanceMeters>NAN</DistanceMeters>
          </Trackpoint>
          <Trackpoint>
            <Time>2020-05-25T04:54:03.000Z</Time>
            <Position>
              <LatitudeDegrees>38.045579530298709869384765625</LatitudeDegrees>
              <LongitudeDegrees>-1.09228670597076416015625</LongitudeDegrees>
            </Position>
            <AltitudeMeters>73.1999969482421875</AltitudeMeters>
            <DistanceMeters>NAN</DistanceMeters>
          </Trackpoint>
          <Trackpoint>
            <Time>2020-05-25T04:54:04.000Z</Time>
            <Position>
              <LatitudeDegrees>38.0456330068409442901611328125</LatitudeDegrees>
              <LongitudeDegrees>-1.09218251891434192657470703125</LongitudeDegrees>
            </Position>
            <AltitudeMeters>73</AltitudeMeters>
            <DistanceMeters>NAN</DistanceMeters>
          </Trackpoint>
          <Trackpoint>
            <Time>2020-05-25T04:54:05.000Z</Time>
            <Position>
              <LatitudeDegrees>38.045685477554798126220703125</LatitudeDegrees>
              <LongitudeDegrees>-1.09207556582987308502197265625</LongitudeDegrees>
            </Position>
            <AltitudeMeters>72.59999847412109375</AltitudeMeters>
            <DistanceMeters>NAN</DistanceMeters>
          </Trackpoint>
          <Trackpoint>
            <Time>2020-05-25T04:54:06.000Z</Time>
            <Position>
              <LatitudeDegrees>38.0457870662212371826171875</LatitudeDegrees>
              <LongitudeDegrees>-1.0918526910245418548583984375</LongitudeDegrees>
            </Position>
            <AltitudeMeters>72</AltitudeMeters>
            <DistanceMeters>NAN</DistanceMeters>
          </Trackpoint>
          <Trackpoint>
            <Time>2020-05-25T04:54:07.000Z</Time>
            <Position>
              <LatitudeDegrees>38.0457870662212371826171875</LatitudeDegrees>
              <LongitudeDegrees>-1.0918526910245418548583984375</LongitudeDegrees>
            </Position>
            <AltitudeMeters>71.8000030517578125</AltitudeMeters>
            <DistanceMeters>NAN</DistanceMeters>
          </Trackpoint>
          <Trackpoint>
            <Time>2020-05-25T04:54:08.000Z</Time>
            <Position>
              <LatitudeDegrees>38.0458834581077098846435546875</LatitudeDegrees>
              <LongitudeDegrees>-1.09162277542054653167724609375</LongitudeDegrees>
            </Position>
            <AltitudeMeters>71.8000030517578125</AltitudeMeters>
            <DistanceMeters>NAN</DistanceMeters>
          </Trackpoint>
          <Trackpoint>
            <Time>2020-05-25T04:54:09.000Z</Time>
            <Position>
              <LatitudeDegrees>38.0458834581077098846435546875</LatitudeDegrees>
              <LongitudeDegrees>-1.09162277542054653167724609375</LongitudeDegrees>
            </Position>
            <AltitudeMeters>71.59999847412109375</AltitudeMeters>
            <DistanceMeters>NAN</DistanceMeters>
          </Trackpoint>
          <Trackpoint>
            <Time>2020-05-25T04:54:10.000Z</Time>
            <Position>
              <LatitudeDegrees>38.045930564403533935546875</LatitudeDegrees>
              <LongitudeDegrees>-1.091505847871303558349609375</LongitudeDegrees>
            </Position>
            <AltitudeMeters>71.40000152587890625</AltitudeMeters>
            <DistanceMeters>NAN</DistanceMeters>
          </Trackpoint>
          <Trackpoint>
            <Time>2020-05-25T04:54:11.000Z</Time>
            <Position>
              <LatitudeDegrees>38.0459763295948505401611328125</LatitudeDegrees>
              <LongitudeDegrees>-1.0913890041410923004150390625</LongitudeDegrees>
            </Position>
            <AltitudeMeters>71.1999969482421875</AltitudeMeters>
            <DistanceMeters>NAN</DistanceMeters>
          </Trackpoint>
          <Trackpoint>
            <Time>2020-05-25T04:54:12.000Z</Time>
            <Position>
              <LatitudeDegrees>38.04602050222456455230712890625</LatitudeDegrees>
              <LongitudeDegrees>-1.09127291478216648101806640625</LongitudeDegrees>
            </Position>
            <AltitudeMeters>71</AltitudeMeters>
            <DistanceMeters>NAN</DistanceMeters>
          </Trackpoint>
          <Trackpoint>
            <Time>2020-05-25T04:54:13.000Z</Time>
            <Position>
              <LatitudeDegrees>38.04606358520686626434326171875</LatitudeDegrees>
              <LongitudeDegrees>-1.09115682542324066162109375</LongitudeDegrees>
            </Position>
            <AltitudeMeters>70.59999847412109375</AltitudeMeters>
            <DistanceMeters>NAN</DistanceMeters>
          </Trackpoint>
          <Trackpoint>
            <Time>2020-05-25T04:54:14.000Z</Time>
            <Position>
              <LatitudeDegrees>38.046152852475643157958984375</LatitudeDegrees>
              <LongitudeDegrees>-1.09092690981924533843994140625</LongitudeDegrees>
            </Position>
            <AltitudeMeters>70.40000152587890625</AltitudeMeters>
            <DistanceMeters>NAN</DistanceMeters>
          </Trackpoint>
          <Trackpoint>
            <Time>2020-05-25T04:54:15.000Z</Time>
            <Position>
              <LatitudeDegrees>38.046152852475643157958984375</LatitudeDegrees>
              <LongitudeDegrees>-1.09092690981924533843994140625</LongitudeDegrees>
            </Position>
            <AltitudeMeters>70.1999969482421875</AltitudeMeters>
            <DistanceMeters>NAN</DistanceMeters>
          </Trackpoint>
          <Trackpoint>
            <Time>2020-05-25T04:54:16.000Z</Time>
            <Position>
              <LatitudeDegrees>38.0461966060101985931396484375</LatitudeDegrees>
              <LongitudeDegrees>-1.0908113233745098114013671875</LongitudeDegrees>
            </Position>
            <AltitudeMeters>69.8000030517578125</AltitudeMeters>
            <DistanceMeters>NAN</DistanceMeters>
          </Trackpoint>
          <Trackpoint>
            <Time>2020-05-25T04:54:17.000Z</Time>
            <Position>
              <LatitudeDegrees>38.04623994044959545135498046875</LatitudeDegrees>
              <LongitudeDegrees>-1.09069573692977428436279296875</LongitudeDegrees>
            </Position>
            <AltitudeMeters>69.40000152587890625</AltitudeMeters>
            <DistanceMeters>NAN</DistanceMeters>
          </Trackpoint>
          <Trackpoint>
            <Time>2020-05-25T04:54:18.000Z</Time>
            <Position>
              <LatitudeDegrees>38.046327531337738037109375</LatitudeDegrees>
              <LongitudeDegrees>-1.09046657569706439971923828125</LongitudeDegrees>
            </Position>
            <AltitudeMeters>68.8000030517578125</AltitudeMeters>
            <DistanceMeters>NAN</DistanceMeters>
          </Trackpoint>
          <Trackpoint>
            <Time>2020-05-25T04:54:19.000Z</Time>
            <Position>
              <LatitudeDegrees>38.046327531337738037109375</LatitudeDegrees>
              <LongitudeDegrees>-1.09046657569706439971923828125</LongitudeDegrees>
            </Position>
            <AltitudeMeters>68.40000152587890625</AltitudeMeters>
            <DistanceMeters>NAN</DistanceMeters>
          </Trackpoint>
          <Trackpoint>
            <Time>2020-05-25T04:54:20.000Z</Time>
            <Position>
              <LatitudeDegrees>38.04641579277813434600830078125</LatitudeDegrees>
              <LongitudeDegrees>-1.0902380011975765228271484375</LongitudeDegrees>
            </Position>
            <AltitudeMeters>68.1999969482421875</AltitudeMeters>
            <DistanceMeters>NAN</DistanceMeters>
          </Trackpoint>
          <Trackpoint>
            <Time>2020-05-25T04:54:21.000Z</Time>
            <Position>
              <LatitudeDegrees>38.04641579277813434600830078125</LatitudeDegrees>
              <LongitudeDegrees>-1.0902380011975765228271484375</LongitudeDegrees>
            </Position>
            <AltitudeMeters>68</AltitudeMeters>
            <DistanceMeters>NAN</DistanceMeters>
          </Trackpoint>
          <Trackpoint>
            <Time>2020-05-25T04:54:22.000Z</Time>
            <Position>
              <LatitudeDegrees>38.04645963013172149658203125</LatitudeDegrees>
              <LongitudeDegrees>-1.09012476168572902679443359375</LongitudeDegrees>
            </Position>
            <AltitudeMeters>67.8000030517578125</AltitudeMeters>
            <DistanceMeters>NAN</DistanceMeters>
          </Trackpoint>
          <Trackpoint>
            <Time>2020-05-25T04:54:23.000Z</Time>
            <Position>
              <LatitudeDegrees>38.0465032160282135009765625</LatitudeDegrees>
              <LongitudeDegrees>-1.09001152217388153076171875</LongitudeDegrees>
            </Position>
            <AltitudeMeters>67.59999847412109375</AltitudeMeters>
            <DistanceMeters>NAN</DistanceMeters>
          </Trackpoint>
          <Trackpoint>
            <Time>2020-05-25T04:54:24.000Z</Time>
            <Position>
              <LatitudeDegrees>38.04659030400216579437255859375</LatitudeDegrees>
              <LongitudeDegrees>-1.08978680334985256195068359375</LongitudeDegrees>
            </Position>
            <AltitudeMeters>67.59999847412109375</AltitudeMeters>
            <DistanceMeters>NAN</DistanceMeters>
          </Trackpoint>
          <Trackpoint>
            <Time>2020-05-25T04:54:25.000Z</Time>
            <Position>
              <LatitudeDegrees>38.04659030400216579437255859375</LatitudeDegrees>
              <LongitudeDegrees>-1.08978680334985256195068359375</LongitudeDegrees>
            </Position>
            <AltitudeMeters>67.40000152587890625</AltitudeMeters>
            <DistanceMeters>NAN</DistanceMeters>
          </Trackpoint>
          <Trackpoint>
            <Time>2020-05-25T04:54:26.000Z</Time>
            <Position>
              <LatitudeDegrees>38.04667529650032520294189453125</LatitudeDegrees>
              <LongitudeDegrees>-1.08956418000161647796630859375</LongitudeDegrees>
            </Position>
            <AltitudeMeters>67.40000152587890625</AltitudeMeters>
            <DistanceMeters>NAN</DistanceMeters>
          </Trackpoint>
          <Trackpoint>
            <Time>2020-05-25T04:54:27.000Z</Time>
            <Position>
              <LatitudeDegrees>38.04667529650032520294189453125</LatitudeDegrees>
              <LongitudeDegrees>-1.08956418000161647796630859375</LongitudeDegrees>
            </Position>
            <AltitudeMeters>67.1999969482421875</AltitudeMeters>
            <DistanceMeters>NAN</DistanceMeters>
          </Trackpoint>
          <Trackpoint>
            <Time>2020-05-25T04:54:28.000Z</Time>
            <Position>
              <LatitudeDegrees>38.04671837948262691497802734375</LatitudeDegrees>
              <LongitudeDegrees>-1.08945370651781558990478515625</LongitudeDegrees>
            </Position>
            <AltitudeMeters>67</AltitudeMeters>
            <DistanceMeters>NAN</DistanceMeters>
          </Trackpoint>
          <Trackpoint>
            <Time>2020-05-25T04:54:29.000Z</Time>
            <Position>
              <LatitudeDegrees>38.04676112718880176544189453125</LatitudeDegrees>
              <LongitudeDegrees>-1.08934390358626842498779296875</LongitudeDegrees>
            </Position>
            <AltitudeMeters>66.8000030517578125</AltitudeMeters>
            <DistanceMeters>NAN</DistanceMeters>
          </Trackpoint>
          <Trackpoint>
            <Time>2020-05-25T04:54:30.000Z</Time>
            <Position>
              <LatitudeDegrees>38.04684863425791263580322265625</LatitudeDegrees>
              <LongitudeDegrees>-1.089127063751220703125</LongitudeDegrees>
            </Position>
            <AltitudeMeters>66.8000030517578125</AltitudeMeters>
            <DistanceMeters>NAN</DistanceMeters>
          </Trackpoint>
          <Trackpoint>
            <Time>2020-05-25T04:54:31.000Z</Time>
            <Position>
              <LatitudeDegrees>38.04684863425791263580322265625</LatitudeDegrees>
              <LongitudeDegrees>-1.089127063751220703125</LongitudeDegrees>
            </Position>
            <AltitudeMeters>66.40000152587890625</AltitudeMeters>
            <DistanceMeters>NAN</DistanceMeters>
          </Trackpoint>
          <Trackpoint>
            <Time>2020-05-25T04:54:32.000Z</Time>
            <Position>
              <LatitudeDegrees>38.04693513549864292144775390625</LatitudeDegrees>
              <LongitudeDegrees>-1.0889126546680927276611328125</LongitudeDegrees>
            </Position>
            <AltitudeMeters>66</AltitudeMeters>
            <DistanceMeters>NAN</DistanceMeters>
          </Trackpoint>
          <Trackpoint>
            <Time>2020-05-25T04:54:33.000Z</Time>
            <Position>
              <LatitudeDegrees>38.04693513549864292144775390625</LatitudeDegrees>
              <LongitudeDegrees>-1.0889126546680927276611328125</LongitudeDegrees>
            </Position>
            <AltitudeMeters>65.59999847412109375</AltitudeMeters>
            <DistanceMeters>NAN</DistanceMeters>
          </Trackpoint>
          <Trackpoint>
            <Time>2020-05-25T04:54:34.000Z</Time>
            <Position>
              <LatitudeDegrees>38.04697888903319835662841796875</LatitudeDegrees>
              <LongitudeDegrees>-1.08880721032619476318359375</LongitudeDegrees>
            </Position>
            <AltitudeMeters>65.40000152587890625</AltitudeMeters>
            <DistanceMeters>NAN</DistanceMeters>
          </Trackpoint>
          <Trackpoint>
            <Time>2020-05-25T04:54:35.000Z</Time>
            <Position>
              <LatitudeDegrees>38.04702666588127613067626953125</LatitudeDegrees>
              <LongitudeDegrees>-1.0887047834694385528564453125</LongitudeDegrees>
            </Position>
            <AltitudeMeters>65.1999969482421875</AltitudeMeters>
            <DistanceMeters>NAN</DistanceMeters>
          </Trackpoint>
          <Trackpoint>
            <Time>2020-05-25T04:54:36.000Z</Time>
            <Position>
              <LatitudeDegrees>38.0471259914338588714599609375</LatitudeDegrees>
              <LongitudeDegrees>-1.088502109050750732421875</LongitudeDegrees>
            </Position>
            <AltitudeMeters>65</AltitudeMeters>
            <DistanceMeters>NAN</DistanceMeters>
          </Trackpoint>
          <Trackpoint>
            <Time>2020-05-25T04:54:37.000Z</Time>
            <Position>
              <LatitudeDegrees>38.0471259914338588714599609375</LatitudeDegrees>
              <LongitudeDegrees>-1.088502109050750732421875</LongitudeDegrees>
            </Position>
            <AltitudeMeters>65</AltitudeMeters>
            <DistanceMeters>NAN</DistanceMeters>
          </Trackpoint>
          <Trackpoint>
            <Time>2020-05-25T04:54:38.000Z</Time>
            <Position>
              <LatitudeDegrees>38.047222383320331573486328125</LatitudeDegrees>
              <LongitudeDegrees>-1.0882940702140331268310546875</LongitudeDegrees>
            </Position>
            <AltitudeMeters>65</AltitudeMeters>
            <DistanceMeters>NAN</DistanceMeters>
          </Trackpoint>
          <Trackpoint>
            <Time>2020-05-25T04:54:39.000Z</Time>
            <Position>
              <LatitudeDegrees>38.047222383320331573486328125</LatitudeDegrees>
              <LongitudeDegrees>-1.0882940702140331268310546875</LongitudeDegrees>
            </Position>
            <AltitudeMeters>64.59999847412109375</AltitudeMeters>
            <DistanceMeters>NAN</DistanceMeters>
          </Trackpoint>
          <Trackpoint>
            <Time>2020-05-25T04:54:40.000Z</Time>
            <Position>
              <LatitudeDegrees>38.04727342911064624786376953125</LatitudeDegrees>
              <LongitudeDegrees>-1.08819273300468921661376953125</LongitudeDegrees>
            </Position>
            <AltitudeMeters>64.40000152587890625</AltitudeMeters>
            <DistanceMeters>NAN</DistanceMeters>
          </Trackpoint>
          <Trackpoint>
            <Time>2020-05-25T04:54:41.000Z</Time>
            <Position>
              <LatitudeDegrees>38.04732598364353179931640625</LatitudeDegrees>
              <LongitudeDegrees>-1.0880932398140430450439453125</LongitudeDegrees>
            </Position>
            <AltitudeMeters>64.1999969482421875</AltitudeMeters>
            <DistanceMeters>NAN</DistanceMeters>
          </Trackpoint>
          <Trackpoint>
            <Time>2020-05-25T04:54:42.000Z</Time>
            <Position>
              <LatitudeDegrees>38.0474314279854297637939453125</LatitudeDegrees>
              <LongitudeDegrees>-1.087896265089511871337890625</LongitudeDegrees>
            </Position>
            <AltitudeMeters>64</AltitudeMeters>
            <DistanceMeters>NAN</DistanceMeters>
          </Trackpoint>
          <Trackpoint>
            <Time>2020-05-25T04:54:43.000Z</Time>
            <Position>
              <LatitudeDegrees>38.0474314279854297637939453125</LatitudeDegrees>
              <LongitudeDegrees>-1.087896265089511871337890625</LongitudeDegrees>
            </Position>
            <AltitudeMeters>63.799999237060546875</AltitudeMeters>
            <DistanceMeters>NAN</DistanceMeters>
          </Trackpoint>
          <Trackpoint>
            <Time>2020-05-25T04:54:44.000Z</Time>
            <Position>
              <LatitudeDegrees>38.04754584096372127532958984375</LatitudeDegrees>
              <LongitudeDegrees>-1.0877100192010402679443359375</LongitudeDegrees>
            </Position>
            <AltitudeMeters>63.59999847412109375</AltitudeMeters>
            <DistanceMeters>NAN</DistanceMeters>
          </Trackpoint>
          <Trackpoint>
            <Time>2020-05-25T04:54:45.000Z</Time>
            <Position>
              <LatitudeDegrees>38.04754584096372127532958984375</LatitudeDegrees>
              <LongitudeDegrees>-1.0877100192010402679443359375</LongitudeDegrees>
            </Position>
            <AltitudeMeters>63.40000152587890625</AltitudeMeters>
            <DistanceMeters>NAN</DistanceMeters>
          </Trackpoint>
          <Trackpoint>
            <Time>2020-05-25T04:54:46.000Z</Time>
            <Position>
              <LatitudeDegrees>38.04760568775236606597900390625</LatitudeDegrees>
              <LongitudeDegrees>-1.0876211710274219512939453125</LongitudeDegrees>
            </Position>
            <AltitudeMeters>63.40000152587890625</AltitudeMeters>
            <DistanceMeters>NAN</DistanceMeters>
          </Trackpoint>
          <Trackpoint>
            <Time>2020-05-25T04:54:47.000Z</Time>
            <Position>
              <LatitudeDegrees>38.04766586981713771820068359375</LatitudeDegrees>
              <LongitudeDegrees>-1.08753341250121593475341796875</LongitudeDegrees>
            </Position>
            <AltitudeMeters>63.200000762939453125</AltitudeMeters>
            <DistanceMeters>NAN</DistanceMeters>
          </Trackpoint>
          <Trackpoint>
            <Time>2020-05-25T04:54:48.000Z</Time>
            <Position>
              <LatitudeDegrees>38.04778707213699817657470703125</LatitudeDegrees>
              <LongitudeDegrees>-1.08735973946750164031982421875</LongitudeDegrees>
            </Position>
            <AltitudeMeters>63.200000762939453125</AltitudeMeters>
            <DistanceMeters>NAN</DistanceMeters>
          </Trackpoint>
          <Trackpoint>
            <Time>2020-05-25T04:54:49.000Z</Time>
            <Position>
              <LatitudeDegrees>38.04778707213699817657470703125</LatitudeDegrees>
              <LongitudeDegrees>-1.08735973946750164031982421875</LongitudeDegrees>
            </Position>
            <AltitudeMeters>63</AltitudeMeters>
            <DistanceMeters>NAN</DistanceMeters>
          </Trackpoint>
          <Trackpoint>
            <Time>2020-05-25T04:54:50.000Z</Time>
            <Position>
              <LatitudeDegrees>38.04790626280009746551513671875</LatitudeDegrees>
              <LongitudeDegrees>-1.0871856473386287689208984375</LongitudeDegrees>
            </Position>
            <AltitudeMeters>62.799999237060546875</AltitudeMeters>
            <DistanceMeters>NAN</DistanceMeters>
          </Trackpoint>
          <Trackpoint>
            <Time>2020-05-25T04:54:51.000Z</Time>
            <Position>
              <LatitudeDegrees>38.04790626280009746551513671875</LatitudeDegrees>
              <LongitudeDegrees>-1.0871856473386287689208984375</LongitudeDegrees>
            </Position>
            <AltitudeMeters>62.59999847412109375</AltitudeMeters>
            <DistanceMeters>NAN</DistanceMeters>
          </Trackpoint>
          <Trackpoint>
            <Time>2020-05-25T04:54:52.000Z</Time>
            <Position>
              <LatitudeDegrees>38.04796342737972736358642578125</LatitudeDegrees>
              <LongitudeDegrees>-1.08709788881242275238037109375</LongitudeDegrees>
            </Position>
            <AltitudeMeters>62.40000152587890625</AltitudeMeters>
            <DistanceMeters>NAN</DistanceMeters>
          </Trackpoint>
          <Trackpoint>
            <Time>2020-05-25T04:54:53.000Z</Time>
            <Position>
              <LatitudeDegrees>38.0480211786925792694091796875</LatitudeDegrees>
              <LongitudeDegrees>-1.08701205812394618988037109375</LongitudeDegrees>
            </Position>
            <AltitudeMeters>62.40000152587890625</AltitudeMeters>
            <DistanceMeters>NAN</DistanceMeters>
          </Trackpoint>
          <Trackpoint>
            <Time>2020-05-25T04:54:54.000Z</Time>
            <Position>
              <LatitudeDegrees>38.04813492111861705780029296875</LatitudeDegrees>
              <LongitudeDegrees>-1.0868476890027523040771484375</LongitudeDegrees>
            </Position>
            <AltitudeMeters>62.40000152587890625</AltitudeMeters>
            <DistanceMeters>NAN</DistanceMeters>
          </Trackpoint>
          <Trackpoint>
            <Time>2020-05-25T04:54:55.000Z</Time>
            <Position>
              <LatitudeDegrees>38.04813492111861705780029296875</LatitudeDegrees>
              <LongitudeDegrees>-1.0868476890027523040771484375</LongitudeDegrees>
            </Position>
            <AltitudeMeters>62.200000762939453125</AltitudeMeters>
            <DistanceMeters>NAN</DistanceMeters>
          </Trackpoint>
          <Trackpoint>
            <Time>2020-05-25T04:54:56.000Z</Time>
            <Position>
              <LatitudeDegrees>38.04824472405016422271728515625</LatitudeDegrees>
              <LongitudeDegrees>-1.086689941585063934326171875</LongitudeDegrees>
            </Position>
            <AltitudeMeters>62.200000762939453125</AltitudeMeters>
            <DistanceMeters>NAN</DistanceMeters>
          </Trackpoint>
          <Trackpoint>
            <Time>2020-05-25T04:54:57.000Z</Time>
            <Position>
              <LatitudeDegrees>38.04824472405016422271728515625</LatitudeDegrees>
              <LongitudeDegrees>-1.086689941585063934326171875</LongitudeDegrees>
            </Position>
            <AltitudeMeters>62.200000762939453125</AltitudeMeters>
            <DistanceMeters>NAN</DistanceMeters>
          </Trackpoint>
          <Trackpoint>
            <Time>2020-05-25T04:54:58.000Z</Time>
            <Position>
              <LatitudeDegrees>38.04829685948789119720458984375</LatitudeDegrees>
              <LongitudeDegrees>-1.0866136662662029266357421875</LongitudeDegrees>
            </Position>
            <AltitudeMeters>62.200000762939453125</AltitudeMeters>
            <DistanceMeters>NAN</DistanceMeters>
          </Trackpoint>
          <Trackpoint>
            <Time>2020-05-25T04:54:59.000Z</Time>
            <Position>
              <LatitudeDegrees>38.0483413673937320709228515625</LatitudeDegrees>
              <LongitudeDegrees>-1.08653345145285129547119140625</LongitudeDegrees>
            </Position>
            <AltitudeMeters>62.200000762939453125</AltitudeMeters>
            <DistanceMeters>NAN</DistanceMeters>
          </Trackpoint>
          <Trackpoint>
            <Time>2020-05-25T04:55:00.000Z</Time>
            <Position>
              <LatitudeDegrees>38.0483735539019107818603515625</LatitudeDegrees>
              <LongitudeDegrees>-1.08644544146955013275146484375</LongitudeDegrees>
            </Position>
            <AltitudeMeters>62</AltitudeMeters>
            <DistanceMeters>NAN</DistanceMeters>
          </Trackpoint>
          <Trackpoint>
            <Time>2020-05-25T04:55:01.000Z</Time>
            <Position>
              <LatitudeDegrees>38.04838755168020725250244140625</LatitudeDegrees>
              <LongitudeDegrees>-1.086350977420806884765625</LongitudeDegrees>
            </Position>
            <AltitudeMeters>62</AltitudeMeters>
            <DistanceMeters>NAN</DistanceMeters>
          </Trackpoint>
          <Trackpoint>
            <Time>2020-05-25T04:55:02.000Z</Time>
            <Position>
              <LatitudeDegrees>38.04838201962411403656005859375</LatitudeDegrees>
              <LongitudeDegrees>-1.08625517226755619049072265625</LongitudeDegrees>
            </Position>
            <AltitudeMeters>62</AltitudeMeters>
            <DistanceMeters>NAN</DistanceMeters>
          </Trackpoint>
          <Trackpoint>
            <Time>2020-05-25T04:55:03.000Z</Time>
            <Position>
              <LatitudeDegrees>38.048360645771026611328125</LatitudeDegrees>
              <LongitudeDegrees>-1.086164899170398712158203125</LongitudeDegrees>
            </Position>
            <AltitudeMeters>62</AltitudeMeters>
            <DistanceMeters>NAN</DistanceMeters>
          </Trackpoint>
          <Trackpoint>
            <Time>2020-05-25T04:55:04.000Z</Time>
            <Position>
              <LatitudeDegrees>38.04833273403346538543701171875</LatitudeDegrees>
              <LongitudeDegrees>-1.086077392101287841796875</LongitudeDegrees>
            </Position>
            <AltitudeMeters>62</AltitudeMeters>
            <DistanceMeters>NAN</DistanceMeters>
          </Trackpoint>
          <Trackpoint>
            <Time>2020-05-25T04:55:05.000Z</Time>
            <Position>
              <LatitudeDegrees>38.048312030732631683349609375</LatitudeDegrees>
              <LongitudeDegrees>-1.08598896302282810211181640625</LongitudeDegrees>
            </Position>
            <AltitudeMeters>61.799999237060546875</AltitudeMeters>
            <DistanceMeters>NAN</DistanceMeters>
          </Trackpoint>
          <Trackpoint>
            <Time>2020-05-25T04:55:06.000Z</Time>
            <Position>
              <LatitudeDegrees>38.0483091808855533599853515625</LatitudeDegrees>
              <LongitudeDegrees>-1.08589894138276576995849609375</LongitudeDegrees>
            </Position>
            <AltitudeMeters>61.799999237060546875</AltitudeMeters>
            <DistanceMeters>NAN</DistanceMeters>
          </Trackpoint>
          <Trackpoint>
            <Time>2020-05-25T04:55:07.000Z</Time>
            <Position>
              <LatitudeDegrees>38.04832904599606990814208984375</LatitudeDegrees>
              <LongitudeDegrees>-1.08581411652266979217529296875</LongitudeDegrees>
            </Position>
            <AltitudeMeters>61.799999237060546875</AltitudeMeters>
            <DistanceMeters>NAN</DistanceMeters>
          </Trackpoint>
          <Trackpoint>
            <Time>2020-05-25T04:55:08.000Z</Time>
            <Position>
              <LatitudeDegrees>38.04836978204548358917236328125</LatitudeDegrees>
              <LongitudeDegrees>-1.08574454672634601593017578125</LongitudeDegrees>
            </Position>
            <AltitudeMeters>61.799999237060546875</AltitudeMeters>
            <DistanceMeters>NAN</DistanceMeters>
          </Trackpoint>
          <Trackpoint>
            <Time>2020-05-25T04:55:09.000Z</Time>
            <Position>
              <LatitudeDegrees>38.04842527024447917938232421875</LatitudeDegrees>
              <LongitudeDegrees>-1.08569542877376079559326171875</LongitudeDegrees>
            </Position>
            <AltitudeMeters>61.799999237060546875</AltitudeMeters>
            <DistanceMeters>NAN</DistanceMeters>
          </Trackpoint>
          <Trackpoint>
            <Time>2020-05-25T04:55:10.000Z</Time>
            <Position>
              <LatitudeDegrees>38.0484885536134243011474609375</LatitudeDegrees>
              <LongitudeDegrees>-1.08565871603786945343017578125</LongitudeDegrees>
            </Position>
            <AltitudeMeters>61.799999237060546875</AltitudeMeters>
            <DistanceMeters>NAN</DistanceMeters>
          </Trackpoint>
          <Trackpoint>
            <Time>2020-05-25T04:55:11.000Z</Time>
            <Position>
              <LatitudeDegrees>38.0485529266297817230224609375</LatitudeDegrees>
              <LongitudeDegrees>-1.08561881817877292633056640625</LongitudeDegrees>
            </Position>
            <AltitudeMeters>61.799999237060546875</AltitudeMeters>
            <DistanceMeters>NAN</DistanceMeters>
          </Trackpoint>
          <Trackpoint>
            <Time>2020-05-25T04:55:12.000Z</Time>
            <Position>
              <LatitudeDegrees>38.04866516031324863433837890625</LatitudeDegrees>
              <LongitudeDegrees>-1.08549526892602443695068359375</LongitudeDegrees>
            </Position>
            <AltitudeMeters>61.799999237060546875</AltitudeMeters>
            <DistanceMeters>NAN</DistanceMeters>
          </Trackpoint>
          <Trackpoint>
            <Time>2020-05-25T04:55:13.000Z</Time>
            <Position>
              <LatitudeDegrees>38.04866516031324863433837890625</LatitudeDegrees>
              <LongitudeDegrees>-1.08549526892602443695068359375</LongitudeDegrees>
            </Position>
            <AltitudeMeters>61.59999847412109375</AltitudeMeters>
            <DistanceMeters>NAN</DistanceMeters>
          </Trackpoint>
          <Trackpoint>
            <Time>2020-05-25T04:55:14.000Z</Time>
            <Position>
              <LatitudeDegrees>38.04873355664312839508056640625</LatitudeDegrees>
              <LongitudeDegrees>-1.08532377518713474273681640625</LongitudeDegrees>
            </Position>
            <AltitudeMeters>61.59999847412109375</AltitudeMeters>
            <DistanceMeters>NAN</DistanceMeters>
          </Trackpoint>
          <Trackpoint>
            <Time>2020-05-25T04:55:15.000Z</Time>
            <Position>
              <LatitudeDegrees>38.04873355664312839508056640625</LatitudeDegrees>
              <LongitudeDegrees>-1.08532377518713474273681640625</LongitudeDegrees>
            </Position>
            <AltitudeMeters>61.59999847412109375</AltitudeMeters>
            <DistanceMeters>NAN</DistanceMeters>
          </Trackpoint>
          <Trackpoint>
            <Time>2020-05-25T04:55:16.000Z</Time>
            <Position>
              <LatitudeDegrees>38.04874964989721775054931640625</LatitudeDegrees>
              <LongitudeDegrees>-1.0852296464145183563232421875</LongitudeDegrees>
            </Position>
            <AltitudeMeters>61.59999847412109375</AltitudeMeters>
            <DistanceMeters>NAN</DistanceMeters>
          </Trackpoint>
          <Trackpoint>
            <Time>2020-05-25T04:55:17.000Z</Time>
            <Position>
              <LatitudeDegrees>38.04875694215297698974609375</LatitudeDegrees>
              <LongitudeDegrees>-1.0851345956325531005859375</LongitudeDegrees>
            </Position>
            <AltitudeMeters>61.59999847412109375</AltitudeMeters>
            <DistanceMeters>NAN</DistanceMeters>
          </Trackpoint>
          <Trackpoint>
            <Time>2020-05-25T04:55:18.000Z</Time>
            <Position>
              <LatitudeDegrees>38.04874428547918796539306640625</LatitudeDegrees>
              <LongitudeDegrees>-1.084947846829891204833984375</LongitudeDegrees>
            </Position>
            <AltitudeMeters>61.40000152587890625</AltitudeMeters>
            <DistanceMeters>NAN</DistanceMeters>
          </Trackpoint>
          <Trackpoint>
            <Time>2020-05-25T04:55:19.000Z</Time>
            <Position>
              <LatitudeDegrees>38.04874428547918796539306640625</LatitudeDegrees>
              <LongitudeDegrees>-1.084947846829891204833984375</LongitudeDegrees>
            </Position>
            <AltitudeMeters>61.40000152587890625</AltitudeMeters>
            <DistanceMeters>NAN</DistanceMeters>
          </Trackpoint>
          <Trackpoint>
            <Time>2020-05-25T04:55:20.000Z</Time>
            <Position>
              <LatitudeDegrees>38.0487336404621601104736328125</LatitudeDegrees>
              <LongitudeDegrees>-1.08485740609467029571533203125</LongitudeDegrees>
            </Position>
            <AltitudeMeters>61.40000152587890625</AltitudeMeters>
            <DistanceMeters>NAN</DistanceMeters>
          </Trackpoint>
          <Trackpoint>
            <Time>2020-05-25T04:55:21.000Z</Time>
            <Position>
              <LatitudeDegrees>38.04873741231858730316162109375</LatitudeDegrees>
              <LongitudeDegrees>-1.0847683064639568328857421875</LongitudeDegrees>
            </Position>
            <AltitudeMeters>61.200000762939453125</AltitudeMeters>
            <DistanceMeters>NAN</DistanceMeters>
          </Trackpoint>
          <Trackpoint>
            <Time>2020-05-25T04:55:22.000Z</Time>
            <Position>
              <LatitudeDegrees>38.04876222275197505950927734375</LatitudeDegrees>
              <LongitudeDegrees>-1.084686331450939178466796875</LongitudeDegrees>
            </Position>
            <AltitudeMeters>61.200000762939453125</AltitudeMeters>
            <DistanceMeters>NAN</DistanceMeters>
          </Trackpoint>
          <Trackpoint>
            <Time>2020-05-25T04:55:23.000Z</Time>
            <Position>
              <LatitudeDegrees>38.04880513809621334075927734375</LatitudeDegrees>
              <LongitudeDegrees>-1.0846211202442646026611328125</LongitudeDegrees>
            </Position>
            <AltitudeMeters>61</AltitudeMeters>
            <DistanceMeters>NAN</DistanceMeters>
          </Trackpoint>
          <Trackpoint>
            <Time>2020-05-25T04:55:24.000Z</Time>
            <Position>
              <LatitudeDegrees>38.04886062629520893096923828125</LatitudeDegrees>
              <LongitudeDegrees>-1.0845798812806606292724609375</LongitudeDegrees>
            </Position>
            <AltitudeMeters>60.799999237060546875</AltitudeMeters>
            <DistanceMeters>NAN</DistanceMeters>
          </Trackpoint>
          <Trackpoint>
            <Time>2020-05-25T04:55:25.000Z</Time>
            <Position>
              <LatitudeDegrees>38.0489207245409488677978515625</LatitudeDegrees>
              <LongitudeDegrees>-1.0845651291310787200927734375</LongitudeDegrees>
            </Position>
            <AltitudeMeters>60.799999237060546875</AltitudeMeters>
            <DistanceMeters>NAN</DistanceMeters>
          </Trackpoint>
          <Trackpoint>
            <Time>2020-05-25T04:55:26.000Z</Time>
            <Position>
              <LatitudeDegrees>38.048979900777339935302734375</LatitudeDegrees>
              <LongitudeDegrees>-1.08457812108099460601806640625</LongitudeDegrees>
            </Position>
            <AltitudeMeters>60.59999847412109375</AltitudeMeters>
            <DistanceMeters>NAN</DistanceMeters>
          </Trackpoint>
          <Trackpoint>
            <Time>2020-05-25T04:55:27.000Z</Time>
            <Position>
              <LatitudeDegrees>38.04903379641473293304443359375</LatitudeDegrees>
              <LongitudeDegrees>-1.08461357653141021728515625</LongitudeDegrees>
            </Position>
            <AltitudeMeters>60.59999847412109375</AltitudeMeters>
            <DistanceMeters>NAN</DistanceMeters>
          </Trackpoint>
          <Trackpoint>
            <Time>2020-05-25T04:55:28.000Z</Time>
            <Position>
              <LatitudeDegrees>38.04907788522541522979736328125</LatitudeDegrees>
              <LongitudeDegrees>-1.084667555987834930419921875</LongitudeDegrees>
            </Position>
            <AltitudeMeters>60.59999847412109375</AltitudeMeters>
            <DistanceMeters>NAN</DistanceMeters>
          </Trackpoint>
          <Trackpoint>
            <Time>2020-05-25T04:55:29.000Z</Time>
            <Position>
              <LatitudeDegrees>38.04911493323743343353271484375</LatitudeDegrees>
              <LongitudeDegrees>-1.08473402447998523712158203125</LongitudeDegrees>
            </Position>
            <AltitudeMeters>60.59999847412109375</AltitudeMeters>
            <DistanceMeters>NAN</DistanceMeters>
          </Trackpoint>
          <Trackpoint>
            <Time>2020-05-25T04:55:30.000Z</Time>
            <Position>
              <LatitudeDegrees>38.04915332235395908355712890625</LatitudeDegrees>
              <LongitudeDegrees>-1.08480242080986499786376953125</LongitudeDegrees>
            </Position>
            <AltitudeMeters>60.59999847412109375</AltitudeMeters>
            <DistanceMeters>NAN</DistanceMeters>
          </Trackpoint>
          <Trackpoint>
            <Time>2020-05-25T04:55:31.000Z</Time>
            <Position>
              <LatitudeDegrees>38.0492042005062103271484375</LatitudeDegrees>
              <LongitudeDegrees>-1.08486008830368518829345703125</LongitudeDegrees>
            </Position>
            <AltitudeMeters>60.59999847412109375</AltitudeMeters>
            <DistanceMeters>NAN</DistanceMeters>
          </Trackpoint>
          <Trackpoint>
            <Time>2020-05-25T04:55:32.000Z</Time>
            <Position>
              <LatitudeDegrees>38.04926379583775997161865234375</LatitudeDegrees>
              <LongitudeDegrees>-1.0849017463624477386474609375</LongitudeDegrees>
            </Position>
            <AltitudeMeters>60.59999847412109375</AltitudeMeters>
            <DistanceMeters>NAN</DistanceMeters>
          </Trackpoint>
          <Trackpoint>
            <Time>2020-05-25T04:55:33.000Z</Time>
            <Position>
              <LatitudeDegrees>38.04932892322540283203125</LatitudeDegrees>
              <LongitudeDegrees>-1.084935106337070465087890625</LongitudeDegrees>
            </Position>
            <AltitudeMeters>60.59999847412109375</AltitudeMeters>
            <DistanceMeters>NAN</DistanceMeters>
          </Trackpoint>
          <Trackpoint>
            <Time>2020-05-25T04:55:34.000Z</Time>
            <Position>
              <LatitudeDegrees>38.04939664900302886962890625</LatitudeDegrees>
              <LongitudeDegrees>-1.08496251516044139862060546875</LongitudeDegrees>
            </Position>
            <AltitudeMeters>60.59999847412109375</AltitudeMeters>
            <DistanceMeters>NAN</DistanceMeters>
          </Trackpoint>
          <Trackpoint>
            <Time>2020-05-25T04:55:35.000Z</Time>
            <Position>
              <LatitudeDegrees>38.049468062818050384521484375</LatitudeDegrees>
              <LongitudeDegrees>-1.08498833142220973968505859375</LongitudeDegrees>
            </Position>
            <AltitudeMeters>60.59999847412109375</AltitudeMeters>
            <DistanceMeters>NAN</DistanceMeters>
          </Trackpoint>
          <Trackpoint>
            <Time>2020-05-25T04:55:36.000Z</Time>
            <Position>
              <LatitudeDegrees>38.0495366267859935760498046875</LatitudeDegrees>
              <LongitudeDegrees>-1.0850138962268829345703125</LongitudeDegrees>
            </Position>
            <AltitudeMeters>60.59999847412109375</AltitudeMeters>
            <DistanceMeters>NAN</DistanceMeters>
          </Trackpoint>
          <Trackpoint>
            <Time>2020-05-25T04:55:37.000Z</Time>
            <Position>
              <LatitudeDegrees>38.04960586130619049072265625</LatitudeDegrees>
              <LongitudeDegrees>-1.08504147268831729888916015625</LongitudeDegrees>
            </Position>
            <AltitudeMeters>60.59999847412109375</AltitudeMeters>
            <DistanceMeters>NAN</DistanceMeters>
          </Trackpoint>
          <Trackpoint>
            <Time>2020-05-25T04:55:38.000Z</Time>
            <Position>
              <LatitudeDegrees>38.04974759928882122039794921875</LatitudeDegrees>
              <LongitudeDegrees>-1.085097379982471466064453125</LongitudeDegrees>
            </Position>
            <AltitudeMeters>60.59999847412109375</AltitudeMeters>
            <DistanceMeters>NAN</DistanceMeters>
          </Trackpoint>
          <Trackpoint>
            <Time>2020-05-25T04:55:39.000Z</Time>
            <Position>
              <LatitudeDegrees>38.04974759928882122039794921875</LatitudeDegrees>
              <LongitudeDegrees>-1.085097379982471466064453125</LongitudeDegrees>
            </Position>
            <AltitudeMeters>60.59999847412109375</AltitudeMeters>
            <DistanceMeters>NAN</DistanceMeters>
          </Trackpoint>
          <Trackpoint>
            <Time>2020-05-25T04:55:40.000Z</Time>
            <Position>
              <LatitudeDegrees>38.0498184263706207275390625</LatitudeDegrees>
              <LongitudeDegrees>-1.085124872624874114990234375</LongitudeDegrees>
            </Position>
            <AltitudeMeters>60.799999237060546875</AltitudeMeters>
            <DistanceMeters>NAN</DistanceMeters>
          </Trackpoint>
          <Trackpoint>
            <Time>2020-05-25T04:55:41.000Z</Time>
            <Position>
              <LatitudeDegrees>38.0498893372714519500732421875</LatitudeDegrees>
              <LongitudeDegrees>-1.08515228144824504852294921875</LongitudeDegrees>
            </Position>
            <AltitudeMeters>60.799999237060546875</AltitudeMeters>
            <DistanceMeters>NAN</DistanceMeters>
          </Trackpoint>
          <Trackpoint>
            <Time>2020-05-25T04:55:42.000Z</Time>
            <Position>
              <LatitudeDegrees>38.05003174580633640289306640625</LatitudeDegrees>
              <LongitudeDegrees>-1.08520458452403545379638671875</LongitudeDegrees>
            </Position>
            <AltitudeMeters>60.799999237060546875</AltitudeMeters>
            <DistanceMeters>NAN</DistanceMeters>
          </Trackpoint>
          <Trackpoint>
            <Time>2020-05-25T04:55:43.000Z</Time>
            <Position>
              <LatitudeDegrees>38.05003174580633640289306640625</LatitudeDegrees>
              <LongitudeDegrees>-1.08520458452403545379638671875</LongitudeDegrees>
            </Position>
            <AltitudeMeters>61</AltitudeMeters>
            <DistanceMeters>NAN</DistanceMeters>
          </Trackpoint>
          <Trackpoint>
            <Time>2020-05-25T04:55:44.000Z</Time>
            <Position>
              <LatitudeDegrees>38.0501751601696014404296875</LatitudeDegrees>
              <LongitudeDegrees>-1.08525102026760578155517578125</LongitudeDegrees>
            </Position>
            <AltitudeMeters>61</AltitudeMeters>
            <DistanceMeters>NAN</DistanceMeters>
          </Trackpoint>
          <Trackpoint>
            <Time>2020-05-25T04:55:45.000Z</Time>
            <Position>
              <LatitudeDegrees>38.0501751601696014404296875</LatitudeDegrees>
              <LongitudeDegrees>-1.08525102026760578155517578125</LongitudeDegrees>
            </Position>
            <AltitudeMeters>61</AltitudeMeters>
            <DistanceMeters>NAN</DistanceMeters>
          </Trackpoint>
          <Trackpoint>
            <Time>2020-05-25T04:55:46.000Z</Time>
            <Position>
              <LatitudeDegrees>38.05024556815624237060546875</LatitudeDegrees>
              <LongitudeDegrees>-1.08527448959648609161376953125</LongitudeDegrees>
            </Position>
            <AltitudeMeters>61.200000762939453125</AltitudeMeters>
            <DistanceMeters>NAN</DistanceMeters>
          </Trackpoint>
          <Trackpoint>
            <Time>2020-05-25T04:55:47.000Z</Time>
            <Position>
              <LatitudeDegrees>38.05031522177159786224365234375</LatitudeDegrees>
              <LongitudeDegrees>-1.085298545658588409423828125</LongitudeDegrees>
            </Position>
            <AltitudeMeters>61.200000762939453125</AltitudeMeters>
            <DistanceMeters>NAN</DistanceMeters>
          </Trackpoint>
          <Trackpoint>
            <Time>2020-05-25T04:55:48.000Z</Time>
            <Position>
              <LatitudeDegrees>38.050453774631023406982421875</LatitudeDegrees>
              <LongitudeDegrees>-1.08534841798245906829833984375</LongitudeDegrees>
            </Position>
            <AltitudeMeters>61.40000152587890625</AltitudeMeters>
            <DistanceMeters>NAN</DistanceMeters>
          </Trackpoint>
          <Trackpoint>
            <Time>2020-05-25T04:55:49.000Z</Time>
            <Position>
              <LatitudeDegrees>38.050453774631023406982421875</LatitudeDegrees>
              <LongitudeDegrees>-1.08534841798245906829833984375</LongitudeDegrees>
            </Position>
            <AltitudeMeters>61.40000152587890625</AltitudeMeters>
            <DistanceMeters>NAN</DistanceMeters>
          </Trackpoint>
          <Trackpoint>
            <Time>2020-05-25T04:55:50.000Z</Time>
            <Position>
              <LatitudeDegrees>38.05059215985238552093505859375</LatitudeDegrees>
              <LongitudeDegrees>-1.0854001343250274658203125</LongitudeDegrees>
            </Position>
            <AltitudeMeters>61.59999847412109375</AltitudeMeters>
            <DistanceMeters>NAN</DistanceMeters>
          </Trackpoint>
          <Trackpoint>
            <Time>2020-05-25T04:55:51.000Z</Time>
            <Position>
              <LatitudeDegrees>38.05059215985238552093505859375</LatitudeDegrees>
              <LongitudeDegrees>-1.0854001343250274658203125</LongitudeDegrees>
            </Position>
            <AltitudeMeters>61.59999847412109375</AltitudeMeters>
            <DistanceMeters>NAN</DistanceMeters>
          </Trackpoint>
          <Trackpoint>
            <Time>2020-05-25T04:55:52.000Z</Time>
            <Position>
              <LatitudeDegrees>38.050661645829677581787109375</LatitudeDegrees>
              <LongitudeDegrees>-1.085425280034542083740234375</LongitudeDegrees>
            </Position>
            <AltitudeMeters>61.799999237060546875</AltitudeMeters>
            <DistanceMeters>NAN</DistanceMeters>
          </Trackpoint>
          <Trackpoint>
            <Time>2020-05-25T04:55:53.000Z</Time>
            <Position>
              <LatitudeDegrees>38.0507322214543819427490234375</LatitudeDegrees>
              <LongitudeDegrees>-1.08544950373470783233642578125</LongitudeDegrees>
            </Position>
            <AltitudeMeters>62</AltitudeMeters>
            <DistanceMeters>NAN</DistanceMeters>
          </Trackpoint>
          <Trackpoint>
            <Time>2020-05-25T04:55:54.000Z</Time>
            <Position>
              <LatitudeDegrees>38.05087362416088581085205078125</LatitudeDegrees>
              <LongitudeDegrees>-1.08549694530665874481201171875</LongitudeDegrees>
            </Position>
            <AltitudeMeters>62</AltitudeMeters>
            <DistanceMeters>NAN</DistanceMeters>
          </Trackpoint>
          <Trackpoint>
            <Time>2020-05-25T04:55:55.000Z</Time>
            <Position>
              <LatitudeDegrees>38.05087362416088581085205078125</LatitudeDegrees>
              <LongitudeDegrees>-1.08549694530665874481201171875</LongitudeDegrees>
            </Position>
            <AltitudeMeters>62.40000152587890625</AltitudeMeters>
            <DistanceMeters>NAN</DistanceMeters>
          </Trackpoint>
          <Trackpoint>
            <Time>2020-05-25T04:55:56.000Z</Time>
            <Position>
              <LatitudeDegrees>38.05101494304835796356201171875</LatitudeDegrees>
              <LongitudeDegrees>-1.08554421924054622650146484375</LongitudeDegrees>
            </Position>
            <AltitudeMeters>62.40000152587890625</AltitudeMeters>
            <DistanceMeters>NAN</DistanceMeters>
          </Trackpoint>
          <Trackpoint>
            <Time>2020-05-25T04:55:57.000Z</Time>
            <Position>
              <LatitudeDegrees>38.05101494304835796356201171875</LatitudeDegrees>
              <LongitudeDegrees>-1.08554421924054622650146484375</LongitudeDegrees>
            </Position>
            <AltitudeMeters>62.59999847412109375</AltitudeMeters>
            <DistanceMeters>NAN</DistanceMeters>
          </Trackpoint>
          <Trackpoint>
            <Time>2020-05-25T04:55:58.000Z</Time>
            <Position>
              <LatitudeDegrees>38.0510845966637134552001953125</LatitudeDegrees>
              <LongitudeDegrees>-1.08557020314037799835205078125</LongitudeDegrees>
            </Position>
            <AltitudeMeters>63</AltitudeMeters>
            <DistanceMeters>NAN</DistanceMeters>
          </Trackpoint>
          <Trackpoint>
            <Time>2020-05-25T04:55:59.000Z</Time>
            <Position>
              <LatitudeDegrees>38.0511541664600372314453125</LatitudeDegrees>
              <LongitudeDegrees>-1.08559668995440006256103515625</LongitudeDegrees>
            </Position>
            <AltitudeMeters>63.200000762939453125</AltitudeMeters>
            <DistanceMeters>NAN</DistanceMeters>
          </Trackpoint>
          <Trackpoint>
            <Time>2020-05-25T04:56:00.000Z</Time>
            <Position>
              <LatitudeDegrees>38.05129322223365306854248046875</LatitudeDegrees>
              <LongitudeDegrees>-1.08564614318311214447021484375</LongitudeDegrees>
            </Position>
            <AltitudeMeters>63.200000762939453125</AltitudeMeters>
            <DistanceMeters>NAN</DistanceMeters>
          </Trackpoint>
          <Trackpoint>
            <Time>2020-05-25T04:56:01.000Z</Time>
            <Position>
              <LatitudeDegrees>38.05129322223365306854248046875</LatitudeDegrees>
              <LongitudeDegrees>-1.08564614318311214447021484375</LongitudeDegrees>
            </Position>
            <AltitudeMeters>63.40000152587890625</AltitudeMeters>
            <DistanceMeters>NAN</DistanceMeters>
          </Trackpoint>
          <Trackpoint>
            <Time>2020-05-25T04:56:02.000Z</Time>
            <Position>
              <LatitudeDegrees>38.0514309369027614593505859375</LatitudeDegrees>
              <LongitudeDegrees>-1.085692830383777618408203125</LongitudeDegrees>
            </Position>
            <AltitudeMeters>63.40000152587890625</AltitudeMeters>
            <DistanceMeters>NAN</DistanceMeters>
          </Trackpoint>
          <Trackpoint>
            <Time>2020-05-25T04:56:03.000Z</Time>
            <Position>
              <LatitudeDegrees>38.0514309369027614593505859375</LatitudeDegrees>
              <LongitudeDegrees>-1.085692830383777618408203125</LongitudeDegrees>
            </Position>
            <AltitudeMeters>63.59999847412109375</AltitudeMeters>
            <DistanceMeters>NAN</DistanceMeters>
          </Trackpoint>
          <Trackpoint>
            <Time>2020-05-25T04:56:04.000Z</Time>
            <Position>
              <LatitudeDegrees>38.0514996685087680816650390625</LatitudeDegrees>
              <LongitudeDegrees>-1.0857174731791019439697265625</LongitudeDegrees>
            </Position>
            <AltitudeMeters>63.799999237060546875</AltitudeMeters>
            <DistanceMeters>NAN</DistanceMeters>
          </Trackpoint>
          <Trackpoint>
            <Time>2020-05-25T04:56:05.000Z</Time>
            <Position>
              <LatitudeDegrees>38.051568567752838134765625</LatitudeDegrees>
              <LongitudeDegrees>-1.0857426188886165618896484375</LongitudeDegrees>
            </Position>
            <AltitudeMeters>64</AltitudeMeters>
            <DistanceMeters>NAN</DistanceMeters>
          </Trackpoint>
          <Trackpoint>
            <Time>2020-05-25T04:56:06.000Z</Time>
            <Position>
              <LatitudeDegrees>38.0516374669969081878662109375</LatitudeDegrees>
              <LongitudeDegrees>-1.08576784841716289520263671875</LongitudeDegrees>
            </Position>
            <AltitudeMeters>64</AltitudeMeters>
            <DistanceMeters>NAN</DistanceMeters>
          </Trackpoint>
          <Trackpoint>
            <Time>2020-05-25T04:56:07.000Z</Time>
            <Position>
              <LatitudeDegrees>38.05170561186969280242919921875</LatitudeDegrees>
              <LongitudeDegrees>-1.085791401565074920654296875</LongitudeDegrees>
            </Position>
            <AltitudeMeters>64.1999969482421875</AltitudeMeters>
            <DistanceMeters>NAN</DistanceMeters>
          </Trackpoint>
          <Trackpoint>
            <Time>2020-05-25T04:56:08.000Z</Time>
            <Position>
              <LatitudeDegrees>38.05177350528538227081298828125</LatitudeDegrees>
              <LongitudeDegrees>-1.08581411652266979217529296875</LongitudeDegrees>
            </Position>
            <AltitudeMeters>64.1999969482421875</AltitudeMeters>
            <DistanceMeters>NAN</DistanceMeters>
          </Trackpoint>
          <Trackpoint>
            <Time>2020-05-25T04:56:09.000Z</Time>
            <Position>
              <LatitudeDegrees>38.0518413148820400238037109375</LatitudeDegrees>
              <LongitudeDegrees>-1.0858375020325183868408203125</LongitudeDegrees>
            </Position>
            <AltitudeMeters>64.1999969482421875</AltitudeMeters>
            <DistanceMeters>NAN</DistanceMeters>
          </Trackpoint>
          <Trackpoint>
            <Time>2020-05-25T04:56:10.000Z</Time>
            <Position>
              <LatitudeDegrees>38.05190862156450748443603515625</LatitudeDegrees>
              <LongitudeDegrees>-1.0858603008091449737548828125</LongitudeDegrees>
            </Position>
            <AltitudeMeters>64.1999969482421875</AltitudeMeters>
            <DistanceMeters>NAN</DistanceMeters>
          </Trackpoint>
          <Trackpoint>
            <Time>2020-05-25T04:56:11.000Z</Time>
            <Position>
              <LatitudeDegrees>38.05197601206600666046142578125</LatitudeDegrees>
              <LongitudeDegrees>-1.08588351868093013763427734375</LongitudeDegrees>
            </Position>
            <AltitudeMeters>64.1999969482421875</AltitudeMeters>
            <DistanceMeters>NAN</DistanceMeters>
          </Trackpoint>
          <Trackpoint>
            <Time>2020-05-25T04:56:12.000Z</Time>
            <Position>
              <LatitudeDegrees>38.052109368145465850830078125</LatitudeDegrees>
              <LongitudeDegrees>-1.085931546986103057861328125</LongitudeDegrees>
            </Position>
            <AltitudeMeters>64.40000152587890625</AltitudeMeters>
            <DistanceMeters>NAN</DistanceMeters>
          </Trackpoint>
          <Trackpoint>
            <Time>2020-05-25T04:56:13.000Z</Time>
            <Position>
              <LatitudeDegrees>38.052109368145465850830078125</LatitudeDegrees>
              <LongitudeDegrees>-1.085931546986103057861328125</LongitudeDegrees>
            </Position>
            <AltitudeMeters>64.40000152587890625</AltitudeMeters>
            <DistanceMeters>NAN</DistanceMeters>
          </Trackpoint>
          <Trackpoint>
            <Time>2020-05-25T04:56:14.000Z</Time>
            <Position>
              <LatitudeDegrees>38.0521782673895359039306640625</LatitudeDegrees>
              <LongitudeDegrees>-1.085956357419490814208984375</LongitudeDegrees>
            </Position>
            <AltitudeMeters>64.59999847412109375</AltitudeMeters>
            <DistanceMeters>NAN</DistanceMeters>
          </Trackpoint>
          <Trackpoint>
            <Time>2020-05-25T04:56:15.000Z</Time>
            <Position>
              <LatitudeDegrees>38.0522453226149082183837890625</LatitudeDegrees>
              <LongitudeDegrees>-1.08597940765321254730224609375</LongitudeDegrees>
            </Position>
            <AltitudeMeters>64.8000030517578125</AltitudeMeters>
            <DistanceMeters>NAN</DistanceMeters>
          </Trackpoint>
          <Trackpoint>
            <Time>2020-05-25T04:56:16.000Z</Time>
            <Position>
              <LatitudeDegrees>38.0523128807544708251953125</LatitudeDegrees>
              <LongitudeDegrees>-1.0860017873346805572509765625</LongitudeDegrees>
            </Position>
            <AltitudeMeters>64.8000030517578125</AltitudeMeters>
            <DistanceMeters>NAN</DistanceMeters>
          </Trackpoint>
          <Trackpoint>
            <Time>2020-05-25T04:56:17.000Z</Time>
            <Position>
              <LatitudeDegrees>38.0523817799985408782958984375</LatitudeDegrees>
              <LongitudeDegrees>-1.086026094853878021240234375</LongitudeDegrees>
            </Position>
            <AltitudeMeters>65</AltitudeMeters>
            <DistanceMeters>NAN</DistanceMeters>
          </Trackpoint>
          <Trackpoint>
            <Time>2020-05-25T04:56:18.000Z</Time>
            <Position>
              <LatitudeDegrees>38.0524525232613086700439453125</LatitudeDegrees>
              <LongitudeDegrees>-1.086050905287265777587890625</LongitudeDegrees>
            </Position>
            <AltitudeMeters>65.1999969482421875</AltitudeMeters>
            <DistanceMeters>NAN</DistanceMeters>
          </Trackpoint>
          <Trackpoint>
            <Time>2020-05-25T04:56:19.000Z</Time>
            <Position>
              <LatitudeDegrees>38.0525209195911884307861328125</LatitudeDegrees>
              <LongitudeDegrees>-1.08607479371130466461181640625</LongitudeDegrees>
            </Position>
            <AltitudeMeters>65.40000152587890625</AltitudeMeters>
            <DistanceMeters>NAN</DistanceMeters>
          </Trackpoint>
          <Trackpoint>
            <Time>2020-05-25T04:56:20.000Z</Time>
            <Position>
              <LatitudeDegrees>38.05258805863559246063232421875</LatitudeDegrees>
              <LongitudeDegrees>-1.086098849773406982421875</LongitudeDegrees>
            </Position>
            <AltitudeMeters>65.59999847412109375</AltitudeMeters>
            <DistanceMeters>NAN</DistanceMeters>
          </Trackpoint>
          <Trackpoint>
            <Time>2020-05-25T04:56:21.000Z</Time>
            <Position>
              <LatitudeDegrees>38.052655197679996490478515625</LatitudeDegrees>
              <LongitudeDegrees>-1.086121313273906707763671875</LongitudeDegrees>
            </Position>
            <AltitudeMeters>65.8000030517578125</AltitudeMeters>
            <DistanceMeters>NAN</DistanceMeters>
          </Trackpoint>
          <Trackpoint>
            <Time>2020-05-25T04:56:22.000Z</Time>
            <Position>
              <LatitudeDegrees>38.05272133089601993560791015625</LatitudeDegrees>
              <LongitudeDegrees>-1.08614536933600902557373046875</LongitudeDegrees>
            </Position>
            <AltitudeMeters>65.8000030517578125</AltitudeMeters>
            <DistanceMeters>NAN</DistanceMeters>
          </Trackpoint>
          <Trackpoint>
            <Time>2020-05-25T04:56:23.000Z</Time>
            <Position>
              <LatitudeDegrees>38.05278771556913852691650390625</LatitudeDegrees>
              <LongitudeDegrees>-1.0861704312264919281005859375</LongitudeDegrees>
            </Position>
            <AltitudeMeters>66</AltitudeMeters>
            <DistanceMeters>NAN</DistanceMeters>
          </Trackpoint>
          <Trackpoint>
            <Time>2020-05-25T04:56:24.000Z</Time>
            <Position>
              <LatitudeDegrees>38.0528541840612888336181640625</LatitudeDegrees>
              <LongitudeDegrees>-1.0861940681934356689453125</LongitudeDegrees>
            </Position>
            <AltitudeMeters>66</AltitudeMeters>
            <DistanceMeters>NAN</DistanceMeters>
          </Trackpoint>
          <Trackpoint>
            <Time>2020-05-25T04:56:25.000Z</Time>
            <Position>
              <LatitudeDegrees>38.05292048491537570953369140625</LatitudeDegrees>
              <LongitudeDegrees>-1.086216531693935394287109375</LongitudeDegrees>
            </Position>
            <AltitudeMeters>66.1999969482421875</AltitudeMeters>
            <DistanceMeters>NAN</DistanceMeters>
          </Trackpoint>
          <Trackpoint>
            <Time>2020-05-25T04:56:26.000Z</Time>
            <Position>
              <LatitudeDegrees>38.05304856039583683013916015625</LatitudeDegrees>
              <LongitudeDegrees>-1.0862636379897594451904296875</LongitudeDegrees>
            </Position>
            <AltitudeMeters>66.40000152587890625</AltitudeMeters>
            <DistanceMeters>NAN</DistanceMeters>
          </Trackpoint>
          <Trackpoint>
            <Time>2020-05-25T04:56:27.000Z</Time>
            <Position>
              <LatitudeDegrees>38.05304856039583683013916015625</LatitudeDegrees>
              <LongitudeDegrees>-1.0862636379897594451904296875</LongitudeDegrees>
            </Position>
            <AltitudeMeters>66.40000152587890625</AltitudeMeters>
            <DistanceMeters>NAN</DistanceMeters>
          </Trackpoint>
          <Trackpoint>
            <Time>2020-05-25T04:56:28.000Z</Time>
            <Position>
              <LatitudeDegrees>38.0531133525073528289794921875</LatitudeDegrees>
              <LongitudeDegrees>-1.086286269128322601318359375</LongitudeDegrees>
            </Position>
            <AltitudeMeters>66.40000152587890625</AltitudeMeters>
            <DistanceMeters>NAN</DistanceMeters>
          </Trackpoint>
          <Trackpoint>
            <Time>2020-05-25T04:56:29.000Z</Time>
            <Position>
              <LatitudeDegrees>38.05317864753305912017822265625</LatitudeDegrees>
              <LongitudeDegrees>-1.0863082297146320343017578125</LongitudeDegrees>
            </Position>
            <AltitudeMeters>66.40000152587890625</AltitudeMeters>
            <DistanceMeters>NAN</DistanceMeters>
          </Trackpoint>
          <Trackpoint>
            <Time>2020-05-25T04:56:30.000Z</Time>
            <Position>
              <LatitudeDegrees>38.053310327231884002685546875</LatitudeDegrees>
              <LongitudeDegrees>-1.08635357581079006195068359375</LongitudeDegrees>
            </Position>
            <AltitudeMeters>66.40000152587890625</AltitudeMeters>
            <DistanceMeters>NAN</DistanceMeters>
          </Trackpoint>
          <Trackpoint>
            <Time>2020-05-25T04:56:31.000Z</Time>
            <Position>
              <LatitudeDegrees>38.053310327231884002685546875</LatitudeDegrees>
              <LongitudeDegrees>-1.08635357581079006195068359375</LongitudeDegrees>
            </Position>
            <AltitudeMeters>66.40000152587890625</AltitudeMeters>
            <DistanceMeters>NAN</DistanceMeters>
          </Trackpoint>
          <Trackpoint>
            <Time>2020-05-25T04:56:32.000Z</Time>
            <Position>
              <LatitudeDegrees>38.0534419231116771697998046875</LatitudeDegrees>
              <LongitudeDegrees>-1.08639665879309177398681640625</LongitudeDegrees>
            </Position>
            <AltitudeMeters>66.59999847412109375</AltitudeMeters>
            <DistanceMeters>NAN</DistanceMeters>
          </Trackpoint>
          <Trackpoint>
            <Time>2020-05-25T04:56:33.000Z</Time>
            <Position>
              <LatitudeDegrees>38.0534419231116771697998046875</LatitudeDegrees>
              <LongitudeDegrees>-1.08639665879309177398681640625</LongitudeDegrees>
            </Position>
            <AltitudeMeters>66.59999847412109375</AltitudeMeters>
            <DistanceMeters>NAN</DistanceMeters>
          </Trackpoint>
          <Trackpoint>
            <Time>2020-05-25T04:56:34.000Z</Time>
            <Position>
              <LatitudeDegrees>38.05350788868963718414306640625</LatitudeDegrees>
              <LongitudeDegrees>-1.08641861937940120697021484375</LongitudeDegrees>
            </Position>
            <AltitudeMeters>66.59999847412109375</AltitudeMeters>
            <DistanceMeters>NAN</DistanceMeters>
          </Trackpoint>
          <Trackpoint>
            <Time>2020-05-25T04:56:35.000Z</Time>
            <Position>
              <LatitudeDegrees>38.05357377044856548309326171875</LatitudeDegrees>
              <LongitudeDegrees>-1.08644175343215465545654296875</LongitudeDegrees>
            </Position>
            <AltitudeMeters>66.8000030517578125</AltitudeMeters>
            <DistanceMeters>NAN</DistanceMeters>
          </Trackpoint>
          <Trackpoint>
            <Time>2020-05-25T04:56:36.000Z</Time>
            <Position>
              <LatitudeDegrees>38.05370536632835865020751953125</LatitudeDegrees>
              <LongitudeDegrees>-1.086490452289581298828125</LongitudeDegrees>
            </Position>
            <AltitudeMeters>66.8000030517578125</AltitudeMeters>
            <DistanceMeters>NAN</DistanceMeters>
          </Trackpoint>
          <Trackpoint>
            <Time>2020-05-25T04:56:37.000Z</Time>
            <Position>
              <LatitudeDegrees>38.05370536632835865020751953125</LatitudeDegrees>
              <LongitudeDegrees>-1.086490452289581298828125</LongitudeDegrees>
            </Position>
            <AltitudeMeters>67</AltitudeMeters>
            <DistanceMeters>NAN</DistanceMeters>
          </Trackpoint>
          <Trackpoint>
            <Time>2020-05-25T04:56:38.000Z</Time>
            <Position>
              <LatitudeDegrees>38.05383947677910327911376953125</LatitudeDegrees>
              <LongitudeDegrees>-1.08653529547154903411865234375</LongitudeDegrees>
            </Position>
            <AltitudeMeters>67</AltitudeMeters>
            <DistanceMeters>NAN</DistanceMeters>
          </Trackpoint>
          <Trackpoint>
            <Time>2020-05-25T04:56:39.000Z</Time>
            <Position>
              <LatitudeDegrees>38.05383947677910327911376953125</LatitudeDegrees>
              <LongitudeDegrees>-1.08653529547154903411865234375</LongitudeDegrees>
            </Position>
            <AltitudeMeters>67.1999969482421875</AltitudeMeters>
            <DistanceMeters>NAN</DistanceMeters>
          </Trackpoint>
          <Trackpoint>
            <Time>2020-05-25T04:56:40.000Z</Time>
            <Position>
              <LatitudeDegrees>38.05390703491866588592529296875</LatitudeDegrees>
              <LongitudeDegrees>-1.0865573398768901824951171875</LongitudeDegrees>
            </Position>
            <AltitudeMeters>67.1999969482421875</AltitudeMeters>
            <DistanceMeters>NAN</DistanceMeters>
          </Trackpoint>
          <Trackpoint>
            <Time>2020-05-25T04:56:41.000Z</Time>
            <Position>
              <LatitudeDegrees>38.053973503410816192626953125</LatitudeDegrees>
              <LongitudeDegrees>-1.08658072538673877716064453125</LongitudeDegrees>
            </Position>
            <AltitudeMeters>67.40000152587890625</AltitudeMeters>
            <DistanceMeters>NAN</DistanceMeters>
          </Trackpoint>
          <Trackpoint>
            <Time>2020-05-25T04:56:42.000Z</Time>
            <Position>
              <LatitudeDegrees>38.05410484783351421356201171875</LatitudeDegrees>
              <LongitudeDegrees>-1.086627580225467681884765625</LongitudeDegrees>
            </Position>
            <AltitudeMeters>67.40000152587890625</AltitudeMeters>
            <DistanceMeters>NAN</DistanceMeters>
          </Trackpoint>
          <Trackpoint>
            <Time>2020-05-25T04:56:43.000Z</Time>
            <Position>
              <LatitudeDegrees>38.05410484783351421356201171875</LatitudeDegrees>
              <LongitudeDegrees>-1.086627580225467681884765625</LongitudeDegrees>
            </Position>
            <AltitudeMeters>67.59999847412109375</AltitudeMeters>
            <DistanceMeters>NAN</DistanceMeters>
          </Trackpoint>
          <Trackpoint>
            <Time>2020-05-25T04:56:44.000Z</Time>
            <Position>
              <LatitudeDegrees>38.054236359894275665283203125</LatitudeDegrees>
              <LongitudeDegrees>-1.08667242340743541717529296875</LongitudeDegrees>
            </Position>
            <AltitudeMeters>67.59999847412109375</AltitudeMeters>
            <DistanceMeters>NAN</DistanceMeters>
          </Trackpoint>
          <Trackpoint>
            <Time>2020-05-25T04:56:45.000Z</Time>
            <Position>
              <LatitudeDegrees>38.054236359894275665283203125</LatitudeDegrees>
              <LongitudeDegrees>-1.08667242340743541717529296875</LongitudeDegrees>
            </Position>
            <AltitudeMeters>67.8000030517578125</AltitudeMeters>
            <DistanceMeters>NAN</DistanceMeters>
          </Trackpoint>
          <Trackpoint>
            <Time>2020-05-25T04:56:46.000Z</Time>
            <Position>
              <LatitudeDegrees>38.0543025769293308258056640625</LatitudeDegrees>
              <LongitudeDegrees>-1.08669505454599857330322265625</LongitudeDegrees>
            </Position>
            <AltitudeMeters>67.8000030517578125</AltitudeMeters>
            <DistanceMeters>NAN</DistanceMeters>
          </Trackpoint>
          <Trackpoint>
            <Time>2020-05-25T04:56:47.000Z</Time>
            <Position>
              <LatitudeDegrees>38.0543699674308300018310546875</LatitudeDegrees>
              <LongitudeDegrees>-1.08671718277037143707275390625</LongitudeDegrees>
            </Position>
            <AltitudeMeters>68</AltitudeMeters>
            <DistanceMeters>NAN</DistanceMeters>
          </Trackpoint>
          <Trackpoint>
            <Time>2020-05-25T04:56:48.000Z</Time>
            <Position>
              <LatitudeDegrees>38.0545057542622089385986328125</LatitudeDegrees>
              <LongitudeDegrees>-1.08676110394299030303955078125</LongitudeDegrees>
            </Position>
            <AltitudeMeters>68</AltitudeMeters>
            <DistanceMeters>NAN</DistanceMeters>
          </Trackpoint>
          <Trackpoint>
            <Time>2020-05-25T04:56:49.000Z</Time>
            <Position>
              <LatitudeDegrees>38.0545057542622089385986328125</LatitudeDegrees>
              <LongitudeDegrees>-1.08676110394299030303955078125</LongitudeDegrees>
            </Position>
            <AltitudeMeters>68.1999969482421875</AltitudeMeters>
            <DistanceMeters>NAN</DistanceMeters>
          </Trackpoint>
          <Trackpoint>
            <Time>2020-05-25T04:56:50.000Z</Time>
            <Position>
              <LatitudeDegrees>38.05464128963649272918701171875</LatitudeDegrees>
              <LongitudeDegrees>-1.08680536039173603057861328125</LongitudeDegrees>
            </Position>
            <AltitudeMeters>68.40000152587890625</AltitudeMeters>
            <DistanceMeters>NAN</DistanceMeters>
          </Trackpoint>
          <Trackpoint>
            <Time>2020-05-25T04:56:51.000Z</Time>
            <Position>
              <LatitudeDegrees>38.05464128963649272918701171875</LatitudeDegrees>
              <LongitudeDegrees>-1.08680536039173603057861328125</LongitudeDegrees>
            </Position>
            <AltitudeMeters>68.59999847412109375</AltitudeMeters>
            <DistanceMeters>NAN</DistanceMeters>
          </Trackpoint>
          <Trackpoint>
            <Time>2020-05-25T04:56:52.000Z</Time>
            <Position>
              <LatitudeDegrees>38.05471010506153106689453125</LatitudeDegrees>
              <LongitudeDegrees>-1.08682698570191860198974609375</LongitudeDegrees>
            </Position>
            <AltitudeMeters>68.59999847412109375</AltitudeMeters>
            <DistanceMeters>NAN</DistanceMeters>
          </Trackpoint>
          <Trackpoint>
            <Time>2020-05-25T04:56:53.000Z</Time>
            <Position>
              <LatitudeDegrees>38.05477917194366455078125</LatitudeDegrees>
              <LongitudeDegrees>-1.086850203573703765869140625</LongitudeDegrees>
            </Position>
            <AltitudeMeters>69</AltitudeMeters>
            <DistanceMeters>NAN</DistanceMeters>
          </Trackpoint>
          <Trackpoint>
            <Time>2020-05-25T04:56:54.000Z</Time>
            <Position>
              <LatitudeDegrees>38.05491772480309009552001953125</LatitudeDegrees>
              <LongitudeDegrees>-1.08689806424081325531005859375</LongitudeDegrees>
            </Position>
            <AltitudeMeters>69</AltitudeMeters>
            <DistanceMeters>NAN</DistanceMeters>
          </Trackpoint>
          <Trackpoint>
            <Time>2020-05-25T04:56:55.000Z</Time>
            <Position>
              <LatitudeDegrees>38.05491772480309009552001953125</LatitudeDegrees>
              <LongitudeDegrees>-1.08689806424081325531005859375</LongitudeDegrees>
            </Position>
            <AltitudeMeters>69</AltitudeMeters>
            <DistanceMeters>NAN</DistanceMeters>
          </Trackpoint>
          <Trackpoint>
            <Time>2020-05-25T04:56:56.000Z</Time>
            <Position>
              <LatitudeDegrees>38.0550542660057544708251953125</LatitudeDegrees>
              <LongitudeDegrees>-1.08694584108889102935791015625</LongitudeDegrees>
            </Position>
            <AltitudeMeters>69.1999969482421875</AltitudeMeters>
            <DistanceMeters>NAN</DistanceMeters>
          </Trackpoint>
          <Trackpoint>
            <Time>2020-05-25T04:56:57.000Z</Time>
            <Position>
              <LatitudeDegrees>38.0550542660057544708251953125</LatitudeDegrees>
              <LongitudeDegrees>-1.08694584108889102935791015625</LongitudeDegrees>
            </Position>
            <AltitudeMeters>69.1999969482421875</AltitudeMeters>
            <DistanceMeters>NAN</DistanceMeters>
          </Trackpoint>
          <Trackpoint>
            <Time>2020-05-25T04:56:58.000Z</Time>
            <Position>
              <LatitudeDegrees>38.05512174032628536224365234375</LatitudeDegrees>
              <LongitudeDegrees>-1.08697132207453250885009765625</LongitudeDegrees>
            </Position>
            <AltitudeMeters>69.40000152587890625</AltitudeMeters>
            <DistanceMeters>NAN</DistanceMeters>
          </Trackpoint>
          <Trackpoint>
            <Time>2020-05-25T04:56:59.000Z</Time>
            <Position>
              <LatitudeDegrees>38.05518846027553081512451171875</LatitudeDegrees>
              <LongitudeDegrees>-1.0869999043643474578857421875</LongitudeDegrees>
            </Position>
            <AltitudeMeters>69.40000152587890625</AltitudeMeters>
            <DistanceMeters>NAN</DistanceMeters>
          </Trackpoint>
          <Trackpoint>
            <Time>2020-05-25T04:57:00.000Z</Time>
            <Position>
              <LatitudeDegrees>38.0553194694221019744873046875</LatitudeDegrees>
              <LongitudeDegrees>-1.08706469647586345672607421875</LongitudeDegrees>
            </Position>
            <AltitudeMeters>69.40000152587890625</AltitudeMeters>
            <DistanceMeters>NAN</DistanceMeters>
          </Trackpoint>
          <Trackpoint>
            <Time>2020-05-25T04:57:01.000Z</Time>
            <Position>
              <LatitudeDegrees>38.0553194694221019744873046875</LatitudeDegrees>
              <LongitudeDegrees>-1.08706469647586345672607421875</LongitudeDegrees>
            </Position>
            <AltitudeMeters>69.40000152587890625</AltitudeMeters>
            <DistanceMeters>NAN</DistanceMeters>
          </Trackpoint>
          <Trackpoint>
            <Time>2020-05-25T04:57:02.000Z</Time>
            <Position>
              <LatitudeDegrees>38.05544611997902393341064453125</LatitudeDegrees>
              <LongitudeDegrees>-1.087135858833789825439453125</LongitudeDegrees>
            </Position>
            <AltitudeMeters>69.59999847412109375</AltitudeMeters>
            <DistanceMeters>NAN</DistanceMeters>
          </Trackpoint>
          <Trackpoint>
            <Time>2020-05-25T04:57:03.000Z</Time>
            <Position>
              <LatitudeDegrees>38.05544611997902393341064453125</LatitudeDegrees>
              <LongitudeDegrees>-1.087135858833789825439453125</LongitudeDegrees>
            </Position>
            <AltitudeMeters>69.59999847412109375</AltitudeMeters>
            <DistanceMeters>NAN</DistanceMeters>
          </Trackpoint>
          <Trackpoint>
            <Time>2020-05-25T04:57:04.000Z</Time>
            <Position>
              <LatitudeDegrees>38.05550814606249332427978515625</LatitudeDegrees>
              <LongitudeDegrees>-1.08717315830290317535400390625</LongitudeDegrees>
            </Position>
            <AltitudeMeters>69.59999847412109375</AltitudeMeters>
            <DistanceMeters>NAN</DistanceMeters>
          </Trackpoint>
          <Trackpoint>
            <Time>2020-05-25T04:57:05.000Z</Time>
            <Position>
              <LatitudeDegrees>38.05556950159370899200439453125</LatitudeDegrees>
              <LongitudeDegrees>-1.0872121341526508331298828125</LongitudeDegrees>
            </Position>
            <AltitudeMeters>69.59999847412109375</AltitudeMeters>
            <DistanceMeters>NAN</DistanceMeters>
          </Trackpoint>
          <Trackpoint>
            <Time>2020-05-25T04:57:06.000Z</Time>
            <Position>
              <LatitudeDegrees>38.05562851019203662872314453125</LatitudeDegrees>
              <LongitudeDegrees>-1.08725178055465221405029296875</LongitudeDegrees>
            </Position>
            <AltitudeMeters>69.59999847412109375</AltitudeMeters>
            <DistanceMeters>NAN</DistanceMeters>
          </Trackpoint>
          <Trackpoint>
            <Time>2020-05-25T04:57:07.000Z</Time>
            <Position>
              <LatitudeDegrees>38.05568835698068141937255859375</LatitudeDegrees>
              <LongitudeDegrees>-1.08729234896600246429443359375</LongitudeDegrees>
            </Position>
            <AltitudeMeters>69.59999847412109375</AltitudeMeters>
            <DistanceMeters>NAN</DistanceMeters>
          </Trackpoint>
          <Trackpoint>
            <Time>2020-05-25T04:57:08.000Z</Time>
            <Position>
              <LatitudeDegrees>38.0558086372911930084228515625</LatitudeDegrees>
              <LongitudeDegrees>-1.08737365342676639556884765625</LongitudeDegrees>
            </Position>
            <AltitudeMeters>69.8000030517578125</AltitudeMeters>
            <DistanceMeters>NAN</DistanceMeters>
          </Trackpoint>
          <Trackpoint>
            <Time>2020-05-25T04:57:09.000Z</Time>
            <Position>
              <LatitudeDegrees>38.0558086372911930084228515625</LatitudeDegrees>
              <LongitudeDegrees>-1.08737365342676639556884765625</LongitudeDegrees>
            </Position>
            <AltitudeMeters>69.8000030517578125</AltitudeMeters>
            <DistanceMeters>NAN</DistanceMeters>
          </Trackpoint>
          <Trackpoint>
            <Time>2020-05-25T04:57:10.000Z</Time>
            <Position>
              <LatitudeDegrees>38.05587091483175754547119140625</LatitudeDegrees>
              <LongitudeDegrees>-1.08741489239037036895751953125</LongitudeDegrees>
            </Position>
            <AltitudeMeters>69.8000030517578125</AltitudeMeters>
            <DistanceMeters>NAN</DistanceMeters>
          </Trackpoint>
          <Trackpoint>
            <Time>2020-05-25T04:57:11.000Z</Time>
            <Position>
              <LatitudeDegrees>38.05593210272490978240966796875</LatitudeDegrees>
              <LongitudeDegrees>-1.087455041706562042236328125</LongitudeDegrees>
            </Position>
            <AltitudeMeters>70</AltitudeMeters>
            <DistanceMeters>NAN</DistanceMeters>
          </Trackpoint>
          <Trackpoint>
            <Time>2020-05-25T04:57:12.000Z</Time>
            <Position>
              <LatitudeDegrees>38.0560537241399288177490234375</LatitudeDegrees>
              <LongitudeDegrees>-1.087532155215740203857421875</LongitudeDegrees>
            </Position>
            <AltitudeMeters>70.1999969482421875</AltitudeMeters>
            <DistanceMeters>NAN</DistanceMeters>
          </Trackpoint>
          <Trackpoint>
            <Time>2020-05-25T04:57:13.000Z</Time>
            <Position>
              <LatitudeDegrees>38.0560537241399288177490234375</LatitudeDegrees>
              <LongitudeDegrees>-1.087532155215740203857421875</LongitudeDegrees>
            </Position>
            <AltitudeMeters>70.1999969482421875</AltitudeMeters>
            <DistanceMeters>NAN</DistanceMeters>
          </Trackpoint>
          <Trackpoint>
            <Time>2020-05-25T04:57:14.000Z</Time>
            <Position>
              <LatitudeDegrees>38.05617232806980609893798828125</LatitudeDegrees>
              <LongitudeDegrees>-1.08760918490588665008544921875</LongitudeDegrees>
            </Position>
            <AltitudeMeters>70.40000152587890625</AltitudeMeters>
            <DistanceMeters>NAN</DistanceMeters>
          </Trackpoint>
          <Trackpoint>
            <Time>2020-05-25T04:57:15.000Z</Time>
            <Position>
              <LatitudeDegrees>38.05617232806980609893798828125</LatitudeDegrees>
              <LongitudeDegrees>-1.08760918490588665008544921875</LongitudeDegrees>
            </Position>
            <AltitudeMeters>70.40000152587890625</AltitudeMeters>
            <DistanceMeters>NAN</DistanceMeters>
          </Trackpoint>
          <Trackpoint>
            <Time>2020-05-25T04:57:16.000Z</Time>
            <Position>
              <LatitudeDegrees>38.05623083375394344329833984375</LatitudeDegrees>
              <LongitudeDegrees>-1.08764824457466602325439453125</LongitudeDegrees>
            </Position>
            <AltitudeMeters>70.40000152587890625</AltitudeMeters>
            <DistanceMeters>NAN</DistanceMeters>
          </Trackpoint>
          <Trackpoint>
            <Time>2020-05-25T04:57:17.000Z</Time>
            <Position>
              <LatitudeDegrees>38.05629000999033451080322265625</LatitudeDegrees>
              <LongitudeDegrees>-1.0876855440437793731689453125</LongitudeDegrees>
            </Position>
            <AltitudeMeters>70.59999847412109375</AltitudeMeters>
            <DistanceMeters>NAN</DistanceMeters>
          </Trackpoint>
          <Trackpoint>
            <Time>2020-05-25T04:57:18.000Z</Time>
            <Position>
              <LatitudeDegrees>38.05634885095059871673583984375</LatitudeDegrees>
              <LongitudeDegrees>-1.0877229273319244384765625</LongitudeDegrees>
            </Position>
            <AltitudeMeters>70.8000030517578125</AltitudeMeters>
            <DistanceMeters>NAN</DistanceMeters>
          </Trackpoint>
          <Trackpoint>
            <Time>2020-05-25T04:57:19.000Z</Time>
            <Position>
              <LatitudeDegrees>38.05640752427279949188232421875</LatitudeDegrees>
              <LongitudeDegrees>-1.08776005916297435760498046875</LongitudeDegrees>
            </Position>
            <AltitudeMeters>70.8000030517578125</AltitudeMeters>
            <DistanceMeters>NAN</DistanceMeters>
          </Trackpoint>
          <Trackpoint>
            <Time>2020-05-25T04:57:20.000Z</Time>
            <Position>
              <LatitudeDegrees>38.05646602995693683624267578125</LatitudeDegrees>
              <LongitudeDegrees>-1.0877968557178974151611328125</LongitudeDegrees>
            </Position>
            <AltitudeMeters>71</AltitudeMeters>
            <DistanceMeters>NAN</DistanceMeters>
          </Trackpoint>
          <Trackpoint>
            <Time>2020-05-25T04:57:21.000Z</Time>
            <Position>
              <LatitudeDegrees>38.05652436800301074981689453125</LatitudeDegrees>
              <LongitudeDegrees>-1.0878330655395984649658203125</LongitudeDegrees>
            </Position>
            <AltitudeMeters>71.1999969482421875</AltitudeMeters>
            <DistanceMeters>NAN</DistanceMeters>
          </Trackpoint>
          <Trackpoint>
            <Time>2020-05-25T04:57:22.000Z</Time>
            <Position>
              <LatitudeDegrees>38.05658228695392608642578125</LatitudeDegrees>
              <LongitudeDegrees>-1.087868101894855499267578125</LongitudeDegrees>
            </Position>
            <AltitudeMeters>71.59999847412109375</AltitudeMeters>
            <DistanceMeters>NAN</DistanceMeters>
          </Trackpoint>
          <Trackpoint>
            <Time>2020-05-25T04:57:23.000Z</Time>
            <Position>
              <LatitudeDegrees>38.0566397868096828460693359375</LatitudeDegrees>
              <LongitudeDegrees>-1.08790271915495395660400390625</LongitudeDegrees>
            </Position>
            <AltitudeMeters>71.59999847412109375</AltitudeMeters>
            <DistanceMeters>NAN</DistanceMeters>
          </Trackpoint>
          <Trackpoint>
            <Time>2020-05-25T04:57:24.000Z</Time>
            <Position>
              <LatitudeDegrees>38.0567531101405620574951171875</LatitudeDegrees>
              <LongitudeDegrees>-1.087972037494182586669921875</LongitudeDegrees>
            </Position>
            <AltitudeMeters>71.8000030517578125</AltitudeMeters>
            <DistanceMeters>NAN</DistanceMeters>
          </Trackpoint>
          <Trackpoint>
            <Time>2020-05-25T04:57:25.000Z</Time>
            <Position>
              <LatitudeDegrees>38.0567531101405620574951171875</LatitudeDegrees>
              <LongitudeDegrees>-1.087972037494182586669921875</LongitudeDegrees>
            </Position>
            <AltitudeMeters>71.8000030517578125</AltitudeMeters>
            <DistanceMeters>NAN</DistanceMeters>
          </Trackpoint>
          <Trackpoint>
            <Time>2020-05-25T04:57:26.000Z</Time>
            <Position>
              <LatitudeDegrees>38.05680767633020877838134765625</LatitudeDegrees>
              <LongitudeDegrees>-1.08801101334393024444580078125</LongitudeDegrees>
            </Position>
            <AltitudeMeters>71.8000030517578125</AltitudeMeters>
            <DistanceMeters>NAN</DistanceMeters>
          </Trackpoint>
          <Trackpoint>
            <Time>2020-05-25T04:57:27.000Z</Time>
            <Position>
              <LatitudeDegrees>38.0568645894527435302734375</LatitudeDegrees>
              <LongitudeDegrees>-1.0880449600517749786376953125</LongitudeDegrees>
            </Position>
            <AltitudeMeters>72</AltitudeMeters>
            <DistanceMeters>NAN</DistanceMeters>
          </Trackpoint>
          <Trackpoint>
            <Time>2020-05-25T04:57:28.000Z</Time>
            <Position>
              <LatitudeDegrees>38.05692150257527828216552734375</LatitudeDegrees>
              <LongitudeDegrees>-1.08808175660669803619384765625</LongitudeDegrees>
            </Position>
            <AltitudeMeters>72</AltitudeMeters>
            <DistanceMeters>NAN</DistanceMeters>
          </Trackpoint>
          <Trackpoint>
            <Time>2020-05-25T04:57:29.000Z</Time>
            <Position>
              <LatitudeDegrees>38.0569777451455593109130859375</LatitudeDegrees>
              <LongitudeDegrees>-1.088119558990001678466796875</LongitudeDegrees>
            </Position>
            <AltitudeMeters>72.1999969482421875</AltitudeMeters>
            <DistanceMeters>NAN</DistanceMeters>
          </Trackpoint>
          <Trackpoint>
            <Time>2020-05-25T04:57:30.000Z</Time>
            <Position>
              <LatitudeDegrees>38.0570900626480579376220703125</LatitudeDegrees>
              <LongitudeDegrees>-1.08819239772856235504150390625</LongitudeDegrees>
            </Position>
            <AltitudeMeters>72.1999969482421875</AltitudeMeters>
            <DistanceMeters>NAN</DistanceMeters>
          </Trackpoint>
          <Trackpoint>
            <Time>2020-05-25T04:57:31.000Z</Time>
            <Position>
              <LatitudeDegrees>38.0570900626480579376220703125</LatitudeDegrees>
              <LongitudeDegrees>-1.08819239772856235504150390625</LongitudeDegrees>
            </Position>
            <AltitudeMeters>72.40000152587890625</AltitudeMeters>
            <DistanceMeters>NAN</DistanceMeters>
          </Trackpoint>
          <Trackpoint>
            <Time>2020-05-25T04:57:32.000Z</Time>
            <Position>
              <LatitudeDegrees>38.05714555084705352783203125</LatitudeDegrees>
              <LongitudeDegrees>-1.08822843991219997406005859375</LongitudeDegrees>
            </Position>
            <AltitudeMeters>72.40000152587890625</AltitudeMeters>
            <DistanceMeters>NAN</DistanceMeters>
          </Trackpoint>
          <Trackpoint>
            <Time>2020-05-25T04:57:33.000Z</Time>
            <Position>
              <LatitudeDegrees>38.05720095522701740264892578125</LatitudeDegrees>
              <LongitudeDegrees>-1.08826397918164730072021484375</LongitudeDegrees>
            </Position>
            <AltitudeMeters>72.59999847412109375</AltitudeMeters>
            <DistanceMeters>NAN</DistanceMeters>
          </Trackpoint>
          <Trackpoint>
            <Time>2020-05-25T04:57:34.000Z</Time>
            <Position>
              <LatitudeDegrees>38.0572566948831081390380859375</LatitudeDegrees>
              <LongitudeDegrees>-1.08829935081303119659423828125</LongitudeDegrees>
            </Position>
            <AltitudeMeters>72.8000030517578125</AltitudeMeters>
            <DistanceMeters>NAN</DistanceMeters>
          </Trackpoint>
          <Trackpoint>
            <Time>2020-05-25T04:57:35.000Z</Time>
            <Position>
              <LatitudeDegrees>38.05731293745338916778564453125</LatitudeDegrees>
              <LongitudeDegrees>-1.0883346386253833770751953125</LongitudeDegrees>
            </Position>
            <AltitudeMeters>73</AltitudeMeters>
            <DistanceMeters>NAN</DistanceMeters>
          </Trackpoint>
          <Trackpoint>
            <Time>2020-05-25T04:57:36.000Z</Time>
            <Position>
              <LatitudeDegrees>38.05736817419528961181640625</LatitudeDegrees>
              <LongitudeDegrees>-1.08837126754224300384521484375</LongitudeDegrees>
            </Position>
            <AltitudeMeters>73.1999969482421875</AltitudeMeters>
            <DistanceMeters>NAN</DistanceMeters>
          </Trackpoint>
          <Trackpoint>
            <Time>2020-05-25T04:57:37.000Z</Time>
            <Position>
              <LatitudeDegrees>38.05742290802299976348876953125</LatitudeDegrees>
              <LongitudeDegrees>-1.088408567011356353759765625</LongitudeDegrees>
            </Position>
            <AltitudeMeters>73.1999969482421875</AltitudeMeters>
            <DistanceMeters>NAN</DistanceMeters>
          </Trackpoint>
          <Trackpoint>
            <Time>2020-05-25T04:57:38.000Z</Time>
            <Position>
              <LatitudeDegrees>38.05747873149812221527099609375</LatitudeDegrees>
              <LongitudeDegrees>-1.0884452797472476959228515625</LongitudeDegrees>
            </Position>
            <AltitudeMeters>73.40000152587890625</AltitudeMeters>
            <DistanceMeters>NAN</DistanceMeters>
          </Trackpoint>
          <Trackpoint>
            <Time>2020-05-25T04:57:39.000Z</Time>
            <Position>
              <LatitudeDegrees>38.05753447115421295166015625</LatitudeDegrees>
              <LongitudeDegrees>-1.08848207630217075347900390625</LongitudeDegrees>
            </Position>
            <AltitudeMeters>73.59999847412109375</AltitudeMeters>
            <DistanceMeters>NAN</DistanceMeters>
          </Trackpoint>
          <Trackpoint>
            <Time>2020-05-25T04:57:40.000Z</Time>
            <Position>
              <LatitudeDegrees>38.05759037844836711883544921875</LatitudeDegrees>
              <LongitudeDegrees>-1.0885190404951572418212890625</LongitudeDegrees>
            </Position>
            <AltitudeMeters>73.8000030517578125</AltitudeMeters>
            <DistanceMeters>NAN</DistanceMeters>
          </Trackpoint>
          <Trackpoint>
            <Time>2020-05-25T04:57:41.000Z</Time>
            <Position>
              <LatitudeDegrees>38.05764452554285526275634765625</LatitudeDegrees>
              <LongitudeDegrees>-1.08855667524039745330810546875</LongitudeDegrees>
            </Position>
            <AltitudeMeters>73.8000030517578125</AltitudeMeters>
            <DistanceMeters>NAN</DistanceMeters>
          </Trackpoint>
          <Trackpoint>
            <Time>2020-05-25T04:57:42.000Z</Time>
            <Position>
              <LatitudeDegrees>38.05769733153283596038818359375</LatitudeDegrees>
              <LongitudeDegrees>-1.088592968881130218505859375</LongitudeDegrees>
            </Position>
            <AltitudeMeters>74</AltitudeMeters>
            <DistanceMeters>NAN</DistanceMeters>
          </Trackpoint>
          <Trackpoint>
            <Time>2020-05-25T04:57:43.000Z</Time>
            <Position>
              <LatitudeDegrees>38.05774996988475322723388671875</LatitudeDegrees>
              <LongitudeDegrees>-1.08862691558897495269775390625</LongitudeDegrees>
            </Position>
            <AltitudeMeters>74</AltitudeMeters>
            <DistanceMeters>NAN</DistanceMeters>
          </Trackpoint>
          <Trackpoint>
            <Time>2020-05-25T04:57:44.000Z</Time>
            <Position>
              <LatitudeDegrees>38.057803027331829071044921875</LatitudeDegrees>
              <LongitudeDegrees>-1.08866061083972454071044921875</LongitudeDegrees>
            </Position>
            <AltitudeMeters>74.1999969482421875</AltitudeMeters>
            <DistanceMeters>NAN</DistanceMeters>
          </Trackpoint>
          <Trackpoint>
            <Time>2020-05-25T04:57:45.000Z</Time>
            <Position>
              <LatitudeDegrees>38.0578565038740634918212890625</LatitudeDegrees>
              <LongitudeDegrees>-1.088694892823696136474609375</LongitudeDegrees>
            </Position>
            <AltitudeMeters>74.1999969482421875</AltitudeMeters>
            <DistanceMeters>NAN</DistanceMeters>
          </Trackpoint>
          <Trackpoint>
            <Time>2020-05-25T04:57:46.000Z</Time>
            <Position>
              <LatitudeDegrees>38.0579101480543613433837890625</LatitudeDegrees>
              <LongitudeDegrees>-1.0887289233505725860595703125</LongitudeDegrees>
            </Position>
            <AltitudeMeters>74.40000152587890625</AltitudeMeters>
            <DistanceMeters>NAN</DistanceMeters>
          </Trackpoint>
          <Trackpoint>
            <Time>2020-05-25T04:57:47.000Z</Time>
            <Position>
              <LatitudeDegrees>38.05796320550143718719482421875</LatitudeDegrees>
              <LongitudeDegrees>-1.0887622833251953125</LongitudeDegrees>
            </Position>
            <AltitudeMeters>74.59999847412109375</AltitudeMeters>
            <DistanceMeters>NAN</DistanceMeters>
          </Trackpoint>
          <Trackpoint>
            <Time>2020-05-25T04:57:48.000Z</Time>
            <Position>
              <LatitudeDegrees>38.05801483802497386932373046875</LatitudeDegrees>
              <LongitudeDegrees>-1.0887949727475643157958984375</LongitudeDegrees>
            </Position>
            <AltitudeMeters>74.8000030517578125</AltitudeMeters>
            <DistanceMeters>NAN</DistanceMeters>
          </Trackpoint>
          <Trackpoint>
            <Time>2020-05-25T04:57:49.000Z</Time>
            <Position>
              <LatitudeDegrees>38.05806554853916168212890625</LatitudeDegrees>
              <LongitudeDegrees>-1.08882791362702846527099609375</LongitudeDegrees>
            </Position>
            <AltitudeMeters>75</AltitudeMeters>
            <DistanceMeters>NAN</DistanceMeters>
          </Trackpoint>
          <Trackpoint>
            <Time>2020-05-25T04:57:50.000Z</Time>
            <Position>
              <LatitudeDegrees>38.05816537700593471527099609375</LatitudeDegrees>
              <LongitudeDegrees>-1.088892035186290740966796875</LongitudeDegrees>
            </Position>
            <AltitudeMeters>75.59999847412109375</AltitudeMeters>
            <DistanceMeters>NAN</DistanceMeters>
          </Trackpoint>
          <Trackpoint>
            <Time>2020-05-25T04:57:51.000Z</Time>
            <Position>
              <LatitudeDegrees>38.05816537700593471527099609375</LatitudeDegrees>
              <LongitudeDegrees>-1.088892035186290740966796875</LongitudeDegrees>
            </Position>
            <AltitudeMeters>75.59999847412109375</AltitudeMeters>
            <DistanceMeters>NAN</DistanceMeters>
          </Trackpoint>
          <Trackpoint>
            <Time>2020-05-25T04:57:52.000Z</Time>
            <Position>
              <LatitudeDegrees>38.05821441113948822021484375</LatitudeDegrees>
              <LongitudeDegrees>-1.0889243893325328826904296875</LongitudeDegrees>
            </Position>
            <AltitudeMeters>75.8000030517578125</AltitudeMeters>
            <DistanceMeters>NAN</DistanceMeters>
          </Trackpoint>
          <Trackpoint>
            <Time>2020-05-25T04:57:53.000Z</Time>
            <Position>
              <LatitudeDegrees>38.058263026177883148193359375</LatitudeDegrees>
              <LongitudeDegrees>-1.0889562405645847320556640625</LongitudeDegrees>
            </Position>
            <AltitudeMeters>75.8000030517578125</AltitudeMeters>
            <DistanceMeters>NAN</DistanceMeters>
          </Trackpoint>
          <Trackpoint>
            <Time>2020-05-25T04:57:54.000Z</Time>
            <Position>
              <LatitudeDegrees>38.05830853991210460662841796875</LatitudeDegrees>
              <LongitudeDegrees>-1.08898733742535114288330078125</LongitudeDegrees>
            </Position>
            <AltitudeMeters>76</AltitudeMeters>
            <DistanceMeters>NAN</DistanceMeters>
          </Trackpoint>
          <Trackpoint>
            <Time>2020-05-25T04:57:55.000Z</Time>
            <Position>
              <LatitudeDegrees>38.0583560653030872344970703125</LatitudeDegrees>
              <LongitudeDegrees>-1.08901734463870525360107421875</LongitudeDegrees>
            </Position>
            <AltitudeMeters>76.1999969482421875</AltitudeMeters>
            <DistanceMeters>NAN</DistanceMeters>
          </Trackpoint>
          <Trackpoint>
            <Time>2020-05-25T04:57:56.000Z</Time>
            <Position>
              <LatitudeDegrees>38.05844801478087902069091796875</LatitudeDegrees>
              <LongitudeDegrees>-1.08907635323703289031982421875</LongitudeDegrees>
            </Position>
            <AltitudeMeters>76.40000152587890625</AltitudeMeters>
            <DistanceMeters>NAN</DistanceMeters>
          </Trackpoint>
          <Trackpoint>
            <Time>2020-05-25T04:57:57.000Z</Time>
            <Position>
              <LatitudeDegrees>38.05844801478087902069091796875</LatitudeDegrees>
              <LongitudeDegrees>-1.08907635323703289031982421875</LongitudeDegrees>
            </Position>
            <AltitudeMeters>76.59999847412109375</AltitudeMeters>
            <DistanceMeters>NAN</DistanceMeters>
          </Trackpoint>
          <Trackpoint>
            <Time>2020-05-25T04:57:58.000Z</Time>
            <Position>
              <LatitudeDegrees>38.0584926903247833251953125</LatitudeDegrees>
              <LongitudeDegrees>-1.08910535462200641632080078125</LongitudeDegrees>
            </Position>
            <AltitudeMeters>76.8000030517578125</AltitudeMeters>
            <DistanceMeters>NAN</DistanceMeters>
          </Trackpoint>
          <Trackpoint>
            <Time>2020-05-25T04:57:59.000Z</Time>
            <Position>
              <LatitudeDegrees>38.058536611497402191162109375</LatitudeDegrees>
              <LongitudeDegrees>-1.08913435600697994232177734375</LongitudeDegrees>
            </Position>
            <AltitudeMeters>77</AltitudeMeters>
            <DistanceMeters>NAN</DistanceMeters>
          </Trackpoint>
          <Trackpoint>
            <Time>2020-05-25T04:58:00.000Z</Time>
            <Position>
              <LatitudeDegrees>38.05862571112811565399169921875</LatitudeDegrees>
              <LongitudeDegrees>-1.0891919396817684173583984375</LongitudeDegrees>
            </Position>
            <AltitudeMeters>77.1999969482421875</AltitudeMeters>
            <DistanceMeters>NAN</DistanceMeters>
          </Trackpoint>
          <Trackpoint>
            <Time>2020-05-25T04:58:01.000Z</Time>
            <Position>
              <LatitudeDegrees>38.05862571112811565399169921875</LatitudeDegrees>
              <LongitudeDegrees>-1.0891919396817684173583984375</LongitudeDegrees>
            </Position>
            <AltitudeMeters>77.40000152587890625</AltitudeMeters>
            <DistanceMeters>NAN</DistanceMeters>
          </Trackpoint>
          <Trackpoint>
            <Time>2020-05-25T04:58:02.000Z</Time>
            <Position>
              <LatitudeDegrees>38.05871590040624141693115234375</LatitudeDegrees>
              <LongitudeDegrees>-1.0892472602427005767822265625</LongitudeDegrees>
            </Position>
            <AltitudeMeters>77.59999847412109375</AltitudeMeters>
            <DistanceMeters>NAN</DistanceMeters>
          </Trackpoint>
          <Trackpoint>
            <Time>2020-05-25T04:58:03.000Z</Time>
            <Position>
              <LatitudeDegrees>38.05871590040624141693115234375</LatitudeDegrees>
              <LongitudeDegrees>-1.0892472602427005767822265625</LongitudeDegrees>
            </Position>
            <AltitudeMeters>77.8000030517578125</AltitudeMeters>
            <DistanceMeters>NAN</DistanceMeters>
          </Trackpoint>
          <Trackpoint>
            <Time>2020-05-25T04:58:04.000Z</Time>
            <Position>
              <LatitudeDegrees>38.05876032449305057525634765625</LatitudeDegrees>
              <LongitudeDegrees>-1.08927299268543720245361328125</LongitudeDegrees>
            </Position>
            <AltitudeMeters>78.1999969482421875</AltitudeMeters>
            <DistanceMeters>NAN</DistanceMeters>
          </Trackpoint>
          <Trackpoint>
            <Time>2020-05-25T04:58:05.000Z</Time>
            <Position>
              <LatitudeDegrees>38.05880491621792316436767578125</LatitudeDegrees>
              <LongitudeDegrees>-1.08929847367107868194580078125</LongitudeDegrees>
            </Position>
            <AltitudeMeters>78.40000152587890625</AltitudeMeters>
            <DistanceMeters>NAN</DistanceMeters>
          </Trackpoint>
          <Trackpoint>
            <Time>2020-05-25T04:58:06.000Z</Time>
            <Position>
              <LatitudeDegrees>38.05889225564897060394287109375</LatitudeDegrees>
              <LongitudeDegrees>-1.08934792689979076385498046875</LongitudeDegrees>
            </Position>
            <AltitudeMeters>78.59999847412109375</AltitudeMeters>
            <DistanceMeters>NAN</DistanceMeters>
          </Trackpoint>
          <Trackpoint>
            <Time>2020-05-25T04:58:07.000Z</Time>
            <Position>
              <LatitudeDegrees>38.05889225564897060394287109375</LatitudeDegrees>
              <LongitudeDegrees>-1.08934792689979076385498046875</LongitudeDegrees>
            </Position>
            <AltitudeMeters>78.8000030517578125</AltitudeMeters>
            <DistanceMeters>NAN</DistanceMeters>
          </Trackpoint>
          <Trackpoint>
            <Time>2020-05-25T04:58:08.000Z</Time>
            <Position>
              <LatitudeDegrees>38.0589739792048931121826171875</LatitudeDegrees>
              <LongitudeDegrees>-1.089391596615314483642578125</LongitudeDegrees>
            </Position>
            <AltitudeMeters>79.1999969482421875</AltitudeMeters>
            <DistanceMeters>NAN</DistanceMeters>
          </Trackpoint>
          <Trackpoint>
            <Time>2020-05-25T04:58:09.000Z</Time>
            <Position>
              <LatitudeDegrees>38.0589739792048931121826171875</LatitudeDegrees>
              <LongitudeDegrees>-1.089391596615314483642578125</LongitudeDegrees>
            </Position>
            <AltitudeMeters>79.40000152587890625</AltitudeMeters>
            <DistanceMeters>NAN</DistanceMeters>
          </Trackpoint>
          <Trackpoint>
            <Time>2020-05-25T04:58:10.000Z</Time>
            <Position>
              <LatitudeDegrees>38.059012703597545623779296875</LatitudeDegrees>
              <LongitudeDegrees>-1.0894115455448627471923828125</LongitudeDegrees>
            </Position>
            <AltitudeMeters>79.59999847412109375</AltitudeMeters>
            <DistanceMeters>NAN</DistanceMeters>
          </Trackpoint>
          <Trackpoint>
            <Time>2020-05-25T04:58:11.000Z</Time>
            <Position>
              <LatitudeDegrees>38.0590517632663249969482421875</LatitudeDegrees>
              <LongitudeDegrees>-1.08943141065537929534912109375</LongitudeDegrees>
            </Position>
            <AltitudeMeters>79.8000030517578125</AltitudeMeters>
            <DistanceMeters>NAN</DistanceMeters>
          </Trackpoint>
          <Trackpoint>
            <Time>2020-05-25T04:58:12.000Z</Time>
            <Position>
              <LatitudeDegrees>38.05909107439219951629638671875</LatitudeDegrees>
              <LongitudeDegrees>-1.08945203013718128204345703125</LongitudeDegrees>
            </Position>
            <AltitudeMeters>80</AltitudeMeters>
            <DistanceMeters>NAN</DistanceMeters>
          </Trackpoint>
          <Trackpoint>
            <Time>2020-05-25T04:58:13.000Z</Time>
            <Position>
              <LatitudeDegrees>38.0591282062232494354248046875</LatitudeDegrees>
              <LongitudeDegrees>-1.0894732363522052764892578125</LongitudeDegrees>
            </Position>
            <AltitudeMeters>80.1999969482421875</AltitudeMeters>
            <DistanceMeters>NAN</DistanceMeters>
          </Trackpoint>
          <Trackpoint>
            <Time>2020-05-25T04:58:14.000Z</Time>
            <Position>
              <LatitudeDegrees>38.059165589511394500732421875</LatitudeDegrees>
              <LongitudeDegrees>-1.08949326910078525543212890625</LongitudeDegrees>
            </Position>
            <AltitudeMeters>80.59999847412109375</AltitudeMeters>
            <DistanceMeters>NAN</DistanceMeters>
          </Trackpoint>
          <Trackpoint>
            <Time>2020-05-25T04:58:15.000Z</Time>
            <Position>
              <LatitudeDegrees>38.059203140437602996826171875</LatitudeDegrees>
              <LongitudeDegrees>-1.0895119607448577880859375</LongitudeDegrees>
            </Position>
            <AltitudeMeters>80.8000030517578125</AltitudeMeters>
            <DistanceMeters>NAN</DistanceMeters>
          </Trackpoint>
          <Trackpoint>
            <Time>2020-05-25T04:58:16.000Z</Time>
            <Position>
              <LatitudeDegrees>38.0592425353825092315673828125</LatitudeDegrees>
              <LongitudeDegrees>-1.08953006565570831298828125</LongitudeDegrees>
            </Position>
            <AltitudeMeters>81.1999969482421875</AltitudeMeters>
            <DistanceMeters>NAN</DistanceMeters>
          </Trackpoint>
          <Trackpoint>
            <Time>2020-05-25T04:58:17.000Z</Time>
            <Position>
              <LatitudeDegrees>38.0592812597751617431640625</LatitudeDegrees>
              <LongitudeDegrees>-1.0895473323762416839599609375</LongitudeDegrees>
            </Position>
            <AltitudeMeters>81.59999847412109375</AltitudeMeters>
            <DistanceMeters>NAN</DistanceMeters>
          </Trackpoint>
          <Trackpoint>
            <Time>2020-05-25T04:58:18.000Z</Time>
            <Position>
              <LatitudeDegrees>38.05935946293175220489501953125</LatitudeDegrees>
              <LongitudeDegrees>-1.08958060853183269500732421875</LongitudeDegrees>
            </Position>
            <AltitudeMeters>82.1999969482421875</AltitudeMeters>
            <DistanceMeters>NAN</DistanceMeters>
          </Trackpoint>
          <Trackpoint>
            <Time>2020-05-25T04:58:19.000Z</Time>
            <Position>
              <LatitudeDegrees>38.05935946293175220489501953125</LatitudeDegrees>
              <LongitudeDegrees>-1.08958060853183269500732421875</LongitudeDegrees>
            </Position>
            <AltitudeMeters>82.59999847412109375</AltitudeMeters>
            <DistanceMeters>NAN</DistanceMeters>
          </Trackpoint>
          <Trackpoint>
            <Time>2020-05-25T04:58:20.000Z</Time>
            <Position>
              <LatitudeDegrees>38.05944009684026241302490234375</LatitudeDegrees>
              <LongitudeDegrees>-1.08961187303066253662109375</LongitudeDegrees>
            </Position>
            <AltitudeMeters>83</AltitudeMeters>
            <DistanceMeters>NAN</DistanceMeters>
          </Trackpoint>
          <Trackpoint>
            <Time>2020-05-25T04:58:21.000Z</Time>
            <Position>
              <LatitudeDegrees>38.05944009684026241302490234375</LatitudeDegrees>
              <LongitudeDegrees>-1.08961187303066253662109375</LongitudeDegrees>
            </Position>
            <AltitudeMeters>83.1999969482421875</AltitudeMeters>
            <DistanceMeters>NAN</DistanceMeters>
          </Trackpoint>
          <Trackpoint>
            <Time>2020-05-25T04:58:22.000Z</Time>
            <Position>
              <LatitudeDegrees>38.059481419622898101806640625</LatitudeDegrees>
              <LongitudeDegrees>-1.08962662518024444580078125</LongitudeDegrees>
            </Position>
            <AltitudeMeters>83.59999847412109375</AltitudeMeters>
            <DistanceMeters>NAN</DistanceMeters>
          </Trackpoint>
          <Trackpoint>
            <Time>2020-05-25T04:58:23.000Z</Time>
            <Position>
              <LatitudeDegrees>38.05952207185328006744384765625</LatitudeDegrees>
              <LongitudeDegrees>-1.08964045532047748565673828125</LongitudeDegrees>
            </Position>
            <AltitudeMeters>83.8000030517578125</AltitudeMeters>
            <DistanceMeters>NAN</DistanceMeters>
          </Trackpoint>
          <Trackpoint>
            <Time>2020-05-25T04:58:24.000Z</Time>
            <Position>
              <LatitudeDegrees>38.0596012808382511138916015625</LatitudeDegrees>
              <LongitudeDegrees>-1.0896656848490238189697265625</LongitudeDegrees>
            </Position>
            <AltitudeMeters>84.1999969482421875</AltitudeMeters>
            <DistanceMeters>NAN</DistanceMeters>
          </Trackpoint>
          <Trackpoint>
            <Time>2020-05-25T04:58:25.000Z</Time>
            <Position>
              <LatitudeDegrees>38.0596012808382511138916015625</LatitudeDegrees>
              <LongitudeDegrees>-1.0896656848490238189697265625</LongitudeDegrees>
            </Position>
            <AltitudeMeters>84.40000152587890625</AltitudeMeters>
            <DistanceMeters>NAN</DistanceMeters>
          </Trackpoint>
          <Trackpoint>
            <Time>2020-05-25T04:58:26.000Z</Time>
            <Position>
              <LatitudeDegrees>38.05968032218515872955322265625</LatitudeDegrees>
              <LongitudeDegrees>-1.08968471176922321319580078125</LongitudeDegrees>
            </Position>
            <AltitudeMeters>84.59999847412109375</AltitudeMeters>
            <DistanceMeters>NAN</DistanceMeters>
          </Trackpoint>
          <Trackpoint>
            <Time>2020-05-25T04:58:27.000Z</Time>
            <Position>
              <LatitudeDegrees>38.05968032218515872955322265625</LatitudeDegrees>
              <LongitudeDegrees>-1.08968471176922321319580078125</LongitudeDegrees>
            </Position>
            <AltitudeMeters>85</AltitudeMeters>
            <DistanceMeters>NAN</DistanceMeters>
          </Trackpoint>
          <Trackpoint>
            <Time>2020-05-25T04:58:28.000Z</Time>
            <Position>
              <LatitudeDegrees>38.05971988476812839508056640625</LatitudeDegrees>
              <LongitudeDegrees>-1.0896925069391727447509765625</LongitudeDegrees>
            </Position>
            <AltitudeMeters>85.1999969482421875</AltitudeMeters>
            <DistanceMeters>NAN</DistanceMeters>
          </Trackpoint>
          <Trackpoint>
            <Time>2020-05-25T04:58:29.000Z</Time>
            <Position>
              <LatitudeDegrees>38.05975936353206634521484375</LatitudeDegrees>
              <LongitudeDegrees>-1.08970046974718570709228515625</LongitudeDegrees>
            </Position>
            <AltitudeMeters>85.59999847412109375</AltitudeMeters>
            <DistanceMeters>NAN</DistanceMeters>
          </Trackpoint>
          <Trackpoint>
            <Time>2020-05-25T04:58:30.000Z</Time>
            <Position>
              <LatitudeDegrees>38.05983656086027622222900390625</LatitudeDegrees>
              <LongitudeDegrees>-1.0897166468203067779541015625</LongitudeDegrees>
            </Position>
            <AltitudeMeters>85.8000030517578125</AltitudeMeters>
            <DistanceMeters>NAN</DistanceMeters>
          </Trackpoint>
          <Trackpoint>
            <Time>2020-05-25T04:58:31.000Z</Time>
            <Position>
              <LatitudeDegrees>38.05983656086027622222900390625</LatitudeDegrees>
              <LongitudeDegrees>-1.0897166468203067779541015625</LongitudeDegrees>
            </Position>
            <AltitudeMeters>86.1999969482421875</AltitudeMeters>
            <DistanceMeters>NAN</DistanceMeters>
          </Trackpoint>
          <Trackpoint>
            <Time>2020-05-25T04:58:32.000Z</Time>
            <Position>
              <LatitudeDegrees>38.0599150992929935455322265625</LatitudeDegrees>
              <LongitudeDegrees>-1.08972511254251003265380859375</LongitudeDegrees>
            </Position>
            <AltitudeMeters>86.40000152587890625</AltitudeMeters>
            <DistanceMeters>NAN</DistanceMeters>
          </Trackpoint>
          <Trackpoint>
            <Time>2020-05-25T04:58:33.000Z</Time>
            <Position>
              <LatitudeDegrees>38.0599150992929935455322265625</LatitudeDegrees>
              <LongitudeDegrees>-1.08972511254251003265380859375</LongitudeDegrees>
            </Position>
            <AltitudeMeters>86.8000030517578125</AltitudeMeters>
            <DistanceMeters>NAN</DistanceMeters>
          </Trackpoint>
          <Trackpoint>
            <Time>2020-05-25T04:58:34.000Z</Time>
            <Position>
              <LatitudeDegrees>38.05995407514274120330810546875</LatitudeDegrees>
              <LongitudeDegrees>-1.089728884398937225341796875</LongitudeDegrees>
            </Position>
            <AltitudeMeters>87.1999969482421875</AltitudeMeters>
            <DistanceMeters>NAN</DistanceMeters>
          </Trackpoint>
          <Trackpoint>
            <Time>2020-05-25T04:58:35.000Z</Time>
            <Position>
              <LatitudeDegrees>38.0599932186305522918701171875</LatitudeDegrees>
              <LongitudeDegrees>-1.08973232097923755645751953125</LongitudeDegrees>
            </Position>
            <AltitudeMeters>87.40000152587890625</AltitudeMeters>
            <DistanceMeters>NAN</DistanceMeters>
          </Trackpoint>
          <Trackpoint>
            <Time>2020-05-25T04:58:36.000Z</Time>
            <Position>
              <LatitudeDegrees>38.0600738525390625</LatitudeDegrees>
              <LongitudeDegrees>-1.08973366208374500274658203125</LongitudeDegrees>
            </Position>
            <AltitudeMeters>87.59999847412109375</AltitudeMeters>
            <DistanceMeters>NAN</DistanceMeters>
          </Trackpoint>
          <Trackpoint>
            <Time>2020-05-25T04:58:37.000Z</Time>
            <Position>
              <LatitudeDegrees>38.0600738525390625</LatitudeDegrees>
              <LongitudeDegrees>-1.08973366208374500274658203125</LongitudeDegrees>
            </Position>
            <AltitudeMeters>88</AltitudeMeters>
            <DistanceMeters>NAN</DistanceMeters>
          </Trackpoint>
          <Trackpoint>
            <Time>2020-05-25T04:58:38.000Z</Time>
            <Position>
              <LatitudeDegrees>38.06015289388597011566162109375</LatitudeDegrees>
              <LongitudeDegrees>-1.08973550610244274139404296875</LongitudeDegrees>
            </Position>
            <AltitudeMeters>88.40000152587890625</AltitudeMeters>
            <DistanceMeters>NAN</DistanceMeters>
          </Trackpoint>
          <Trackpoint>
            <Time>2020-05-25T04:58:39.000Z</Time>
            <Position>
              <LatitudeDegrees>38.06015289388597011566162109375</LatitudeDegrees>
              <LongitudeDegrees>-1.08973550610244274139404296875</LongitudeDegrees>
            </Position>
            <AltitudeMeters>88.8000030517578125</AltitudeMeters>
            <DistanceMeters>NAN</DistanceMeters>
          </Trackpoint>
          <Trackpoint>
            <Time>2020-05-25T04:58:40.000Z</Time>
            <Position>
              <LatitudeDegrees>38.06019078008830547332763671875</LatitudeDegrees>
              <LongitudeDegrees>-1.0897340811789035797119140625</LongitudeDegrees>
            </Position>
            <AltitudeMeters>89.1999969482421875</AltitudeMeters>
            <DistanceMeters>NAN</DistanceMeters>
          </Trackpoint>
          <Trackpoint>
            <Time>2020-05-25T04:58:41.000Z</Time>
            <Position>
              <LatitudeDegrees>38.0602282471954822540283203125</LatitudeDegrees>
              <LongitudeDegrees>-1.089732237160205841064453125</LongitudeDegrees>
            </Position>
            <AltitudeMeters>89.40000152587890625</AltitudeMeters>
            <DistanceMeters>NAN</DistanceMeters>
          </Trackpoint>
          <Trackpoint>
            <Time>2020-05-25T04:58:42.000Z</Time>
            <Position>
              <LatitudeDegrees>38.0603036843240261077880859375</LatitudeDegrees>
              <LongitudeDegrees>-1.0897250287234783172607421875</LongitudeDegrees>
            </Position>
            <AltitudeMeters>89.8000030517578125</AltitudeMeters>
            <DistanceMeters>NAN</DistanceMeters>
          </Trackpoint>
          <Trackpoint>
            <Time>2020-05-25T04:58:43.000Z</Time>
            <Position>
              <LatitudeDegrees>38.0603036843240261077880859375</LatitudeDegrees>
              <LongitudeDegrees>-1.0897250287234783172607421875</LongitudeDegrees>
            </Position>
            <AltitudeMeters>90</AltitudeMeters>
            <DistanceMeters>NAN</DistanceMeters>
          </Trackpoint>
          <Trackpoint>
            <Time>2020-05-25T04:58:44.000Z</Time>
            <Position>
              <LatitudeDegrees>38.06037937290966510772705078125</LatitudeDegrees>
              <LongitudeDegrees>-1.08971706591546535491943359375</LongitudeDegrees>
            </Position>
            <AltitudeMeters>90.40000152587890625</AltitudeMeters>
            <DistanceMeters>NAN</DistanceMeters>
          </Trackpoint>
          <Trackpoint>
            <Time>2020-05-25T04:58:45.000Z</Time>
            <Position>
              <LatitudeDegrees>38.06037937290966510772705078125</LatitudeDegrees>
              <LongitudeDegrees>-1.08971706591546535491943359375</LongitudeDegrees>
            </Position>
            <AltitudeMeters>90.8000030517578125</AltitudeMeters>
            <DistanceMeters>NAN</DistanceMeters>
          </Trackpoint>
          <Trackpoint>
            <Time>2020-05-25T04:58:46.000Z</Time>
            <Position>
              <LatitudeDegrees>38.06041658855974674224853515625</LatitudeDegrees>
              <LongitudeDegrees>-1.08971153385937213897705078125</LongitudeDegrees>
            </Position>
            <AltitudeMeters>91.1999969482421875</AltitudeMeters>
            <DistanceMeters>NAN</DistanceMeters>
          </Trackpoint>
          <Trackpoint>
            <Time>2020-05-25T04:58:47.000Z</Time>
            <Position>
              <LatitudeDegrees>38.06045229546725749969482421875</LatitudeDegrees>
              <LongitudeDegrees>-1.0897045768797397613525390625</LongitudeDegrees>
            </Position>
            <AltitudeMeters>91.8000030517578125</AltitudeMeters>
            <DistanceMeters>NAN</DistanceMeters>
          </Trackpoint>
          <Trackpoint>
            <Time>2020-05-25T04:58:48.000Z</Time>
            <Position>
              <LatitudeDegrees>38.06052437983453273773193359375</LatitudeDegrees>
              <LongitudeDegrees>-1.0896881483495235443115234375</LongitudeDegrees>
            </Position>
            <AltitudeMeters>92.1999969482421875</AltitudeMeters>
            <DistanceMeters>NAN</DistanceMeters>
          </Trackpoint>
          <Trackpoint>
            <Time>2020-05-25T04:58:49.000Z</Time>
            <Position>
              <LatitudeDegrees>38.06052437983453273773193359375</LatitudeDegrees>
              <LongitudeDegrees>-1.0896881483495235443115234375</LongitudeDegrees>
            </Position>
            <AltitudeMeters>92.40000152587890625</AltitudeMeters>
            <DistanceMeters>NAN</DistanceMeters>
          </Trackpoint>
          <Trackpoint>
            <Time>2020-05-25T04:58:50.000Z</Time>
            <Position>
              <LatitudeDegrees>38.0605947040021419525146484375</LatitudeDegrees>
              <LongitudeDegrees>-1.0896693728864192962646484375</LongitudeDegrees>
            </Position>
            <AltitudeMeters>92.8000030517578125</AltitudeMeters>
            <DistanceMeters>NAN</DistanceMeters>
          </Trackpoint>
          <Trackpoint>
            <Time>2020-05-25T04:58:51.000Z</Time>
            <Position>
              <LatitudeDegrees>38.0605947040021419525146484375</LatitudeDegrees>
              <LongitudeDegrees>-1.0896693728864192962646484375</LongitudeDegrees>
            </Position>
            <AltitudeMeters>93</AltitudeMeters>
            <DistanceMeters>NAN</DistanceMeters>
          </Trackpoint>
          <Trackpoint>
            <Time>2020-05-25T04:58:52.000Z</Time>
            <Position>
              <LatitudeDegrees>38.060629405081272125244140625</LatitudeDegrees>
              <LongitudeDegrees>-1.0896589793264865875244140625</LongitudeDegrees>
            </Position>
            <AltitudeMeters>93.1999969482421875</AltitudeMeters>
            <DistanceMeters>NAN</DistanceMeters>
          </Trackpoint>
          <Trackpoint>
            <Time>2020-05-25T04:58:53.000Z</Time>
            <Position>
              <LatitudeDegrees>38.0606639385223388671875</LatitudeDegrees>
              <LongitudeDegrees>-1.08965001069009304046630859375</LongitudeDegrees>
            </Position>
            <AltitudeMeters>93.59999847412109375</AltitudeMeters>
            <DistanceMeters>NAN</DistanceMeters>
          </Trackpoint>
          <Trackpoint>
            <Time>2020-05-25T04:58:54.000Z</Time>
            <Position>
              <LatitudeDegrees>38.060730993747711181640625</LatitudeDegrees>
              <LongitudeDegrees>-1.08962872065603733062744140625</LongitudeDegrees>
            </Position>
            <AltitudeMeters>93.8000030517578125</AltitudeMeters>
            <DistanceMeters>NAN</DistanceMeters>
          </Trackpoint>
          <Trackpoint>
            <Time>2020-05-25T04:58:55.000Z</Time>
            <Position>
              <LatitudeDegrees>38.060730993747711181640625</LatitudeDegrees>
              <LongitudeDegrees>-1.08962872065603733062744140625</LongitudeDegrees>
            </Position>
            <AltitudeMeters>94.1999969482421875</AltitudeMeters>
            <DistanceMeters>NAN</DistanceMeters>
          </Trackpoint>
          <Trackpoint>
            <Time>2020-05-25T04:58:56.000Z</Time>
            <Position>
              <LatitudeDegrees>38.06079695932567119598388671875</LatitudeDegrees>
              <LongitudeDegrees>-1.08960474841296672821044921875</LongitudeDegrees>
            </Position>
            <AltitudeMeters>94.59999847412109375</AltitudeMeters>
            <DistanceMeters>NAN</DistanceMeters>
          </Trackpoint>
          <Trackpoint>
            <Time>2020-05-25T04:58:57.000Z</Time>
            <Position>
              <LatitudeDegrees>38.06079695932567119598388671875</LatitudeDegrees>
              <LongitudeDegrees>-1.08960474841296672821044921875</LongitudeDegrees>
            </Position>
            <AltitudeMeters>95</AltitudeMeters>
            <DistanceMeters>NAN</DistanceMeters>
          </Trackpoint>
          <Trackpoint>
            <Time>2020-05-25T04:58:58.000Z</Time>
            <Position>
              <LatitudeDegrees>38.06082931347191333770751953125</LatitudeDegrees>
              <LongitudeDegrees>-1.08959217555820941925048828125</LongitudeDegrees>
            </Position>
            <AltitudeMeters>95.1999969482421875</AltitudeMeters>
            <DistanceMeters>NAN</DistanceMeters>
          </Trackpoint>
          <Trackpoint>
            <Time>2020-05-25T04:58:59.000Z</Time>
            <Position>
              <LatitudeDegrees>38.06085982359945774078369140625</LatitudeDegrees>
              <LongitudeDegrees>-1.08957893215119838714599609375</LongitudeDegrees>
            </Position>
            <AltitudeMeters>95.40000152587890625</AltitudeMeters>
            <DistanceMeters>NAN</DistanceMeters>
          </Trackpoint>
          <Trackpoint>
            <Time>2020-05-25T04:59:00.000Z</Time>
            <Position>
              <LatitudeDegrees>38.06088966317474842071533203125</LatitudeDegrees>
              <LongitudeDegrees>-1.0895654372870922088623046875</LongitudeDegrees>
            </Position>
            <AltitudeMeters>95.59999847412109375</AltitudeMeters>
            <DistanceMeters>NAN</DistanceMeters>
          </Trackpoint>
          <Trackpoint>
            <Time>2020-05-25T04:59:01.000Z</Time>
            <Position>
              <LatitudeDegrees>38.06091983802616596221923828125</LatitudeDegrees>
              <LongitudeDegrees>-1.089552529156208038330078125</LongitudeDegrees>
            </Position>
            <AltitudeMeters>96</AltitudeMeters>
            <DistanceMeters>NAN</DistanceMeters>
          </Trackpoint>
          <Trackpoint>
            <Time>2020-05-25T04:59:02.000Z</Time>
            <Position>
              <LatitudeDegrees>38.0609500966966152191162109375</LatitudeDegrees>
              <LongitudeDegrees>-1.08953970484435558319091796875</LongitudeDegrees>
            </Position>
            <AltitudeMeters>96.1999969482421875</AltitudeMeters>
            <DistanceMeters>NAN</DistanceMeters>
          </Trackpoint>
          <Trackpoint>
            <Time>2020-05-25T04:59:03.000Z</Time>
            <Position>
              <LatitudeDegrees>38.06098102591931819915771484375</LatitudeDegrees>
              <LongitudeDegrees>-1.08952746726572513580322265625</LongitudeDegrees>
            </Position>
            <AltitudeMeters>96.40000152587890625</AltitudeMeters>
            <DistanceMeters>NAN</DistanceMeters>
          </Trackpoint>
          <Trackpoint>
            <Time>2020-05-25T04:59:04.000Z</Time>
            <Position>
              <LatitudeDegrees>38.0610124580562114715576171875</LatitudeDegrees>
              <LongitudeDegrees>-1.0895148105919361114501953125</LongitudeDegrees>
            </Position>
            <AltitudeMeters>96.8000030517578125</AltitudeMeters>
            <DistanceMeters>NAN</DistanceMeters>
          </Trackpoint>
          <Trackpoint>
            <Time>2020-05-25T04:59:05.000Z</Time>
            <Position>
              <LatitudeDegrees>38.0610443092882633209228515625</LatitudeDegrees>
              <LongitudeDegrees>-1.08950047753751277923583984375</LongitudeDegrees>
            </Position>
            <AltitudeMeters>97</AltitudeMeters>
            <DistanceMeters>NAN</DistanceMeters>
          </Trackpoint>
          <Trackpoint>
            <Time>2020-05-25T04:59:06.000Z</Time>
            <Position>
              <LatitudeDegrees>38.06107624433934688568115234375</LatitudeDegrees>
              <LongitudeDegrees>-1.0894851386547088623046875</LongitudeDegrees>
            </Position>
            <AltitudeMeters>97.1999969482421875</AltitudeMeters>
            <DistanceMeters>NAN</DistanceMeters>
          </Trackpoint>
          <Trackpoint>
            <Time>2020-05-25T04:59:07.000Z</Time>
            <Position>
              <LatitudeDegrees>38.06110759265720844268798828125</LatitudeDegrees>
              <LongitudeDegrees>-1.0894705541431903839111328125</LongitudeDegrees>
            </Position>
            <AltitudeMeters>97.40000152587890625</AltitudeMeters>
            <DistanceMeters>NAN</DistanceMeters>
          </Trackpoint>
          <Trackpoint>
            <Time>2020-05-25T04:59:08.000Z</Time>
            <Position>
              <LatitudeDegrees>38.06113843806087970733642578125</LatitudeDegrees>
              <LongitudeDegrees>-1.08945672400295734405517578125</LongitudeDegrees>
            </Position>
            <AltitudeMeters>97.59999847412109375</AltitudeMeters>
            <DistanceMeters>NAN</DistanceMeters>
          </Trackpoint>
          <Trackpoint>
            <Time>2020-05-25T04:59:09.000Z</Time>
            <Position>
              <LatitudeDegrees>38.0611686967313289642333984375</LatitudeDegrees>
              <LongitudeDegrees>-1.08944163657724857330322265625</LongitudeDegrees>
            </Position>
            <AltitudeMeters>98</AltitudeMeters>
            <DistanceMeters>NAN</DistanceMeters>
          </Trackpoint>
          <Trackpoint>
            <Time>2020-05-25T04:59:10.000Z</Time>
            <Position>
              <LatitudeDegrees>38.06119895540177822113037109375</LatitudeDegrees>
              <LongitudeDegrees>-1.0894252918660640716552734375</LongitudeDegrees>
            </Position>
            <AltitudeMeters>98.1999969482421875</AltitudeMeters>
            <DistanceMeters>NAN</DistanceMeters>
          </Trackpoint>
          <Trackpoint>
            <Time>2020-05-25T04:59:11.000Z</Time>
            <Position>
              <LatitudeDegrees>38.06122963316738605499267578125</LatitudeDegrees>
              <LongitudeDegrees>-1.0894105397164821624755859375</LongitudeDegrees>
            </Position>
            <AltitudeMeters>98.40000152587890625</AltitudeMeters>
            <DistanceMeters>NAN</DistanceMeters>
          </Trackpoint>
          <Trackpoint>
            <Time>2020-05-25T04:59:12.000Z</Time>
            <Position>
              <LatitudeDegrees>38.06128947995603084564208984375</LatitudeDegrees>
              <LongitudeDegrees>-1.08937977813184261322021484375</LongitudeDegrees>
            </Position>
            <AltitudeMeters>98.8000030517578125</AltitudeMeters>
            <DistanceMeters>NAN</DistanceMeters>
          </Trackpoint>
          <Trackpoint>
            <Time>2020-05-25T04:59:13.000Z</Time>
            <Position>
              <LatitudeDegrees>38.06128947995603084564208984375</LatitudeDegrees>
              <LongitudeDegrees>-1.08937977813184261322021484375</LongitudeDegrees>
            </Position>
            <AltitudeMeters>99</AltitudeMeters>
            <DistanceMeters>NAN</DistanceMeters>
          </Trackpoint>
          <Trackpoint>
            <Time>2020-05-25T04:59:14.000Z</Time>
            <Position>
              <LatitudeDegrees>38.06131965480744838714599609375</LatitudeDegrees>
              <LongitudeDegrees>-1.089364774525165557861328125</LongitudeDegrees>
            </Position>
            <AltitudeMeters>99.1999969482421875</AltitudeMeters>
            <DistanceMeters>NAN</DistanceMeters>
          </Trackpoint>
          <Trackpoint>
            <Time>2020-05-25T04:59:15.000Z</Time>
            <Position>
              <LatitudeDegrees>38.0613497458398342132568359375</LatitudeDegrees>
              <LongitudeDegrees>-1.089350022375583648681640625</LongitudeDegrees>
            </Position>
            <AltitudeMeters>99.8000030517578125</AltitudeMeters>
            <DistanceMeters>NAN</DistanceMeters>
          </Trackpoint>
          <Trackpoint>
            <Time>2020-05-25T04:59:16.000Z</Time>
            <Position>
              <LatitudeDegrees>38.06138084270060062408447265625</LatitudeDegrees>
              <LongitudeDegrees>-1.08933367766439914703369140625</LongitudeDegrees>
            </Position>
            <AltitudeMeters>100</AltitudeMeters>
            <DistanceMeters>NAN</DistanceMeters>
          </Trackpoint>
          <Trackpoint>
            <Time>2020-05-25T04:59:17.000Z</Time>
            <Position>
              <LatitudeDegrees>38.0614117719233036041259765625</LatitudeDegrees>
              <LongitudeDegrees>-1.089317500591278076171875</LongitudeDegrees>
            </Position>
            <AltitudeMeters>100.40000152587890625</AltitudeMeters>
            <DistanceMeters>NAN</DistanceMeters>
          </Trackpoint>
          <Trackpoint>
            <Time>2020-05-25T04:59:18.000Z</Time>
            <Position>
              <LatitudeDegrees>38.0614426173269748687744140625</LatitudeDegrees>
              <LongitudeDegrees>-1.0893029160797595977783203125</LongitudeDegrees>
            </Position>
            <AltitudeMeters>100.59999847412109375</AltitudeMeters>
            <DistanceMeters>NAN</DistanceMeters>
          </Trackpoint>
          <Trackpoint>
            <Time>2020-05-25T04:59:19.000Z</Time>
            <Position>
              <LatitudeDegrees>38.06147321127355098724365234375</LatitudeDegrees>
              <LongitudeDegrees>-1.08928925357758998870849609375</LongitudeDegrees>
            </Position>
            <AltitudeMeters>100.8000030517578125</AltitudeMeters>
            <DistanceMeters>NAN</DistanceMeters>
          </Trackpoint>
          <Trackpoint>
            <Time>2020-05-25T04:59:20.000Z</Time>
            <Position>
              <LatitudeDegrees>38.06150355376303195953369140625</LatitudeDegrees>
              <LongitudeDegrees>-1.08927399851381778717041015625</LongitudeDegrees>
            </Position>
            <AltitudeMeters>101.1999969482421875</AltitudeMeters>
            <DistanceMeters>NAN</DistanceMeters>
          </Trackpoint>
          <Trackpoint>
            <Time>2020-05-25T04:59:21.000Z</Time>
            <Position>
              <LatitudeDegrees>38.0615343153476715087890625</LatitudeDegrees>
              <LongitudeDegrees>-1.08925522305071353912353515625</LongitudeDegrees>
            </Position>
            <AltitudeMeters>101.59999847412109375</AltitudeMeters>
            <DistanceMeters>NAN</DistanceMeters>
          </Trackpoint>
          <Trackpoint>
            <Time>2020-05-25T04:59:22.000Z</Time>
            <Position>
              <LatitudeDegrees>38.0615638196468353271484375</LatitudeDegrees>
              <LongitudeDegrees>-1.08923745341598987579345703125</LongitudeDegrees>
            </Position>
            <AltitudeMeters>102</AltitudeMeters>
            <DistanceMeters>NAN</DistanceMeters>
          </Trackpoint>
          <Trackpoint>
            <Time>2020-05-25T04:59:23.000Z</Time>
            <Position>
              <LatitudeDegrees>38.06159357540309429168701171875</LatitudeDegrees>
              <LongitudeDegrees>-1.08922035433351993560791015625</LongitudeDegrees>
            </Position>
            <AltitudeMeters>102.1999969482421875</AltitudeMeters>
            <DistanceMeters>NAN</DistanceMeters>
          </Trackpoint>
          <Trackpoint>
            <Time>2020-05-25T04:59:24.000Z</Time>
            <Position>
              <LatitudeDegrees>38.0616233311593532562255859375</LatitudeDegrees>
              <LongitudeDegrees>-1.08920459635555744171142578125</LongitudeDegrees>
            </Position>
            <AltitudeMeters>102.59999847412109375</AltitudeMeters>
            <DistanceMeters>NAN</DistanceMeters>
          </Trackpoint>
          <Trackpoint>
            <Time>2020-05-25T04:59:25.000Z</Time>
            <Position>
              <LatitudeDegrees>38.061652667820453643798828125</LatitudeDegrees>
              <LongitudeDegrees>-1.089188419282436370849609375</LongitudeDegrees>
            </Position>
            <AltitudeMeters>102.8000030517578125</AltitudeMeters>
            <DistanceMeters>NAN</DistanceMeters>
          </Trackpoint>
          <Trackpoint>
            <Time>2020-05-25T04:59:26.000Z</Time>
            <Position>
              <LatitudeDegrees>38.06171293370425701141357421875</LatitudeDegrees>
              <LongitudeDegrees>-1.08915614895522594451904296875</LongitudeDegrees>
            </Position>
            <AltitudeMeters>103.1999969482421875</AltitudeMeters>
            <DistanceMeters>NAN</DistanceMeters>
          </Trackpoint>
          <Trackpoint>
            <Time>2020-05-25T04:59:27.000Z</Time>
            <Position>
              <LatitudeDegrees>38.06171293370425701141357421875</LatitudeDegrees>
              <LongitudeDegrees>-1.08915614895522594451904296875</LongitudeDegrees>
            </Position>
            <AltitudeMeters>103.40000152587890625</AltitudeMeters>
            <DistanceMeters>NAN</DistanceMeters>
          </Trackpoint>
          <Trackpoint>
            <Time>2020-05-25T04:59:28.000Z</Time>
            <Position>
              <LatitudeDegrees>38.06174260564148426055908203125</LatitudeDegrees>
              <LongitudeDegrees>-1.08913921751081943511962890625</LongitudeDegrees>
            </Position>
            <AltitudeMeters>103.8000030517578125</AltitudeMeters>
            <DistanceMeters>NAN</DistanceMeters>
          </Trackpoint>
          <Trackpoint>
            <Time>2020-05-25T04:59:29.000Z</Time>
            <Position>
              <LatitudeDegrees>38.06177177466452121734619140625</LatitudeDegrees>
              <LongitudeDegrees>-1.089122034609317779541015625</LongitudeDegrees>
            </Position>
            <AltitudeMeters>104</AltitudeMeters>
            <DistanceMeters>NAN</DistanceMeters>
          </Trackpoint>
          <Trackpoint>
            <Time>2020-05-25T04:59:30.000Z</Time>
            <Position>
              <LatitudeDegrees>38.06180186569690704345703125</LatitudeDegrees>
              <LongitudeDegrees>-1.08910468406975269317626953125</LongitudeDegrees>
            </Position>
            <AltitudeMeters>104.1999969482421875</AltitudeMeters>
            <DistanceMeters>NAN</DistanceMeters>
          </Trackpoint>
          <Trackpoint>
            <Time>2020-05-25T04:59:31.000Z</Time>
            <Position>
              <LatitudeDegrees>38.06183245964348316192626953125</LatitudeDegrees>
              <LongitudeDegrees>-1.0890880040824413299560546875</LongitudeDegrees>
            </Position>
            <AltitudeMeters>104.40000152587890625</AltitudeMeters>
            <DistanceMeters>NAN</DistanceMeters>
          </Trackpoint>
          <Trackpoint>
            <Time>2020-05-25T04:59:32.000Z</Time>
            <Position>
              <LatitudeDegrees>38.0618613772094249725341796875</LatitudeDegrees>
              <LongitudeDegrees>-1.08907132409512996673583984375</LongitudeDegrees>
            </Position>
            <AltitudeMeters>104.8000030517578125</AltitudeMeters>
            <DistanceMeters>NAN</DistanceMeters>
          </Trackpoint>
          <Trackpoint>
            <Time>2020-05-25T04:59:33.000Z</Time>
            <Position>
              <LatitudeDegrees>38.0618928931653499603271484375</LatitudeDegrees>
              <LongitudeDegrees>-1.08905254863202571868896484375</LongitudeDegrees>
            </Position>
            <AltitudeMeters>105</AltitudeMeters>
            <DistanceMeters>NAN</DistanceMeters>
          </Trackpoint>
          <Trackpoint>
            <Time>2020-05-25T04:59:34.000Z</Time>
            <Position>
              <LatitudeDegrees>38.06192415766417980194091796875</LatitudeDegrees>
              <LongitudeDegrees>-1.0890373773872852325439453125</LongitudeDegrees>
            </Position>
            <AltitudeMeters>105</AltitudeMeters>
            <DistanceMeters>NAN</DistanceMeters>
          </Trackpoint>
          <Trackpoint>
            <Time>2020-05-25T04:59:35.000Z</Time>
            <Position>
              <LatitudeDegrees>38.0619562603533267974853515625</LatitudeDegrees>
              <LongitudeDegrees>-1.0890222899615764617919921875</LongitudeDegrees>
            </Position>
            <AltitudeMeters>105.1999969482421875</AltitudeMeters>
            <DistanceMeters>NAN</DistanceMeters>
          </Trackpoint>
          <Trackpoint>
            <Time>2020-05-25T04:59:36.000Z</Time>
            <Position>
              <LatitudeDegrees>38.06201853789389133453369140625</LatitudeDegrees>
              <LongitudeDegrees>-1.08899169601500034332275390625</LongitudeDegrees>
            </Position>
            <AltitudeMeters>105.59999847412109375</AltitudeMeters>
            <DistanceMeters>NAN</DistanceMeters>
          </Trackpoint>
          <Trackpoint>
            <Time>2020-05-25T04:59:37.000Z</Time>
            <Position>
              <LatitudeDegrees>38.06201853789389133453369140625</LatitudeDegrees>
              <LongitudeDegrees>-1.08899169601500034332275390625</LongitudeDegrees>
            </Position>
            <AltitudeMeters>105.8000030517578125</AltitudeMeters>
            <DistanceMeters>NAN</DistanceMeters>
          </Trackpoint>
          <Trackpoint>
            <Time>2020-05-25T04:59:38.000Z</Time>
            <Position>
              <LatitudeDegrees>38.062048964202404022216796875</LatitudeDegrees>
              <LongitudeDegrees>-1.0889760218560695648193359375</LongitudeDegrees>
            </Position>
            <AltitudeMeters>106</AltitudeMeters>
            <DistanceMeters>NAN</DistanceMeters>
          </Trackpoint>
          <Trackpoint>
            <Time>2020-05-25T04:59:39.000Z</Time>
            <Position>
              <LatitudeDegrees>38.06207947432994842529296875</LatitudeDegrees>
              <LongitudeDegrees>-1.0889599286019802093505859375</LongitudeDegrees>
            </Position>
            <AltitudeMeters>106.1999969482421875</AltitudeMeters>
            <DistanceMeters>NAN</DistanceMeters>
          </Trackpoint>
          <Trackpoint>
            <Time>2020-05-25T04:59:40.000Z</Time>
            <Position>
              <LatitudeDegrees>38.06211006827652454376220703125</LatitudeDegrees>
              <LongitudeDegrees>-1.08894400298595428466796875</LongitudeDegrees>
            </Position>
            <AltitudeMeters>106.40000152587890625</AltitudeMeters>
            <DistanceMeters>NAN</DistanceMeters>
          </Trackpoint>
          <Trackpoint>
            <Time>2020-05-25T04:59:41.000Z</Time>
            <Position>
              <LatitudeDegrees>38.062140159308910369873046875</LatitudeDegrees>
              <LongitudeDegrees>-1.088927574455738067626953125</LongitudeDegrees>
            </Position>
            <AltitudeMeters>106.59999847412109375</AltitudeMeters>
            <DistanceMeters>NAN</DistanceMeters>
          </Trackpoint>
          <Trackpoint>
            <Time>2020-05-25T04:59:42.000Z</Time>
            <Position>
              <LatitudeDegrees>38.0621701665222644805908203125</LatitudeDegrees>
              <LongitudeDegrees>-1.08891181647777557373046875</LongitudeDegrees>
            </Position>
            <AltitudeMeters>107</AltitudeMeters>
            <DistanceMeters>NAN</DistanceMeters>
          </Trackpoint>
          <Trackpoint>
            <Time>2020-05-25T04:59:43.000Z</Time>
            <Position>
              <LatitudeDegrees>38.06220151484012603759765625</LatitudeDegrees>
              <LongitudeDegrees>-1.08889698050916194915771484375</LongitudeDegrees>
            </Position>
            <AltitudeMeters>107.59999847412109375</AltitudeMeters>
            <DistanceMeters>NAN</DistanceMeters>
          </Trackpoint>
          <Trackpoint>
            <Time>2020-05-25T04:59:44.000Z</Time>
            <Position>
              <LatitudeDegrees>38.06223261170089244842529296875</LatitudeDegrees>
              <LongitudeDegrees>-1.08888155780732631683349609375</LongitudeDegrees>
            </Position>
            <AltitudeMeters>107.8000030517578125</AltitudeMeters>
            <DistanceMeters>NAN</DistanceMeters>
          </Trackpoint>
          <Trackpoint>
            <Time>2020-05-25T04:59:45.000Z</Time>
            <Position>
              <LatitudeDegrees>38.0622637085616588592529296875</LatitudeDegrees>
              <LongitudeDegrees>-1.088867895305156707763671875</LongitudeDegrees>
            </Position>
            <AltitudeMeters>108</AltitudeMeters>
            <DistanceMeters>NAN</DistanceMeters>
          </Trackpoint>
          <Trackpoint>
            <Time>2020-05-25T04:59:46.000Z</Time>
            <Position>
              <LatitudeDegrees>38.0622948892414569854736328125</LatitudeDegrees>
              <LongitudeDegrees>-1.088855825364589691162109375</LongitudeDegrees>
            </Position>
            <AltitudeMeters>108</AltitudeMeters>
            <DistanceMeters>NAN</DistanceMeters>
          </Trackpoint>
          <Trackpoint>
            <Time>2020-05-25T04:59:47.000Z</Time>
            <Position>
              <LatitudeDegrees>38.0623255670070648193359375</LatitudeDegrees>
              <LongitudeDegrees>-1.0888415761291980743408203125</LongitudeDegrees>
            </Position>
            <AltitudeMeters>108.1999969482421875</AltitudeMeters>
            <DistanceMeters>NAN</DistanceMeters>
          </Trackpoint>
          <Trackpoint>
            <Time>2020-05-25T04:59:48.000Z</Time>
            <Position>
              <LatitudeDegrees>38.06235599331557750701904296875</LatitudeDegrees>
              <LongitudeDegrees>-1.0888238064944744110107421875</LongitudeDegrees>
            </Position>
            <AltitudeMeters>108.59999847412109375</AltitudeMeters>
            <DistanceMeters>NAN</DistanceMeters>
          </Trackpoint>
          <Trackpoint>
            <Time>2020-05-25T04:59:49.000Z</Time>
            <Position>
              <LatitudeDegrees>38.06238616816699504852294921875</LatitudeDegrees>
              <LongitudeDegrees>-1.0888060368597507476806640625</LongitudeDegrees>
            </Position>
            <AltitudeMeters>108.8000030517578125</AltitudeMeters>
            <DistanceMeters>NAN</DistanceMeters>
          </Trackpoint>
          <Trackpoint>
            <Time>2020-05-25T04:59:50.000Z</Time>
            <Position>
              <LatitudeDegrees>38.06244735606014728546142578125</LatitudeDegrees>
              <LongitudeDegrees>-1.08877594582736492156982421875</LongitudeDegrees>
            </Position>
            <AltitudeMeters>109.1999969482421875</AltitudeMeters>
            <DistanceMeters>NAN</DistanceMeters>
          </Trackpoint>
          <Trackpoint>
            <Time>2020-05-25T04:59:51.000Z</Time>
            <Position>
              <LatitudeDegrees>38.06244735606014728546142578125</LatitudeDegrees>
              <LongitudeDegrees>-1.08877594582736492156982421875</LongitudeDegrees>
            </Position>
            <AltitudeMeters>109.40000152587890625</AltitudeMeters>
            <DistanceMeters>NAN</DistanceMeters>
          </Trackpoint>
          <Trackpoint>
            <Time>2020-05-25T04:59:52.000Z</Time>
            <Position>
              <LatitudeDegrees>38.06247769854962825775146484375</LatitudeDegrees>
              <LongitudeDegrees>-1.08876203186810016632080078125</LongitudeDegrees>
            </Position>
            <AltitudeMeters>109.59999847412109375</AltitudeMeters>
            <DistanceMeters>NAN</DistanceMeters>
          </Trackpoint>
          <Trackpoint>
            <Time>2020-05-25T04:59:53.000Z</Time>
            <Position>
              <LatitudeDegrees>38.0625081248581409454345703125</LatitudeDegrees>
              <LongitudeDegrees>-1.0887480340898036956787109375</LongitudeDegrees>
            </Position>
            <AltitudeMeters>109.59999847412109375</AltitudeMeters>
            <DistanceMeters>NAN</DistanceMeters>
          </Trackpoint>
          <Trackpoint>
            <Time>2020-05-25T04:59:54.000Z</Time>
            <Position>
              <LatitudeDegrees>38.06253821589052677154541015625</LatitudeDegrees>
              <LongitudeDegrees>-1.08873453922569751739501953125</LongitudeDegrees>
            </Position>
            <AltitudeMeters>110</AltitudeMeters>
            <DistanceMeters>NAN</DistanceMeters>
          </Trackpoint>
          <Trackpoint>
            <Time>2020-05-25T04:59:55.000Z</Time>
            <Position>
              <LatitudeDegrees>38.06256906129419803619384765625</LatitudeDegrees>
              <LongitudeDegrees>-1.08872280456125736236572265625</LongitudeDegrees>
            </Position>
            <AltitudeMeters>110.1999969482421875</AltitudeMeters>
            <DistanceMeters>NAN</DistanceMeters>
          </Trackpoint>
          <Trackpoint>
            <Time>2020-05-25T04:59:56.000Z</Time>
            <Position>
              <LatitudeDegrees>38.06263159029185771942138671875</LatitudeDegrees>
              <LongitudeDegrees>-1.0886967368423938751220703125</LongitudeDegrees>
            </Position>
            <AltitudeMeters>110.59999847412109375</AltitudeMeters>
            <DistanceMeters>NAN</DistanceMeters>
          </Trackpoint>
          <Trackpoint>
            <Time>2020-05-25T04:59:57.000Z</Time>
            <Position>
              <LatitudeDegrees>38.06263159029185771942138671875</LatitudeDegrees>
              <LongitudeDegrees>-1.0886967368423938751220703125</LongitudeDegrees>
            </Position>
            <AltitudeMeters>110.8000030517578125</AltitudeMeters>
            <DistanceMeters>NAN</DistanceMeters>
          </Trackpoint>
          <Trackpoint>
            <Time>2020-05-25T04:59:58.000Z</Time>
            <Position>
              <LatitudeDegrees>38.0626626871526241302490234375</LatitudeDegrees>
              <LongitudeDegrees>-1.0886823199689388275146484375</LongitudeDegrees>
            </Position>
            <AltitudeMeters>111</AltitudeMeters>
            <DistanceMeters>NAN</DistanceMeters>
          </Trackpoint>
          <Trackpoint>
            <Time>2020-05-25T04:59:59.000Z</Time>
            <Position>
              <LatitudeDegrees>38.0626935325562953948974609375</LatitudeDegrees>
              <LongitudeDegrees>-1.088668070733547210693359375</LongitudeDegrees>
            </Position>
            <AltitudeMeters>111.1999969482421875</AltitudeMeters>
            <DistanceMeters>NAN</DistanceMeters>
          </Trackpoint>
          <Trackpoint>
            <Time>2020-05-25T05:00:00.000Z</Time>
            <Position>
              <LatitudeDegrees>38.06272429414093494415283203125</LatitudeDegrees>
              <LongitudeDegrees>-1.08865566551685333251953125</LongitudeDegrees>
            </Position>
            <AltitudeMeters>111.40000152587890625</AltitudeMeters>
            <DistanceMeters>NAN</DistanceMeters>
          </Trackpoint>
          <Trackpoint>
            <Time>2020-05-25T05:00:01.000Z</Time>
            <Position>
              <LatitudeDegrees>38.062755726277828216552734375</LatitudeDegrees>
              <LongitudeDegrees>-1.0886442661285400390625</LongitudeDegrees>
            </Position>
            <AltitudeMeters>111.59999847412109375</AltitudeMeters>
            <DistanceMeters>NAN</DistanceMeters>
          </Trackpoint>
          <Trackpoint>
            <Time>2020-05-25T05:00:02.000Z</Time>
            <Position>
              <LatitudeDegrees>38.06281900964677333831787109375</LatitudeDegrees>
              <LongitudeDegrees>-1.08861937187612056732177734375</LongitudeDegrees>
            </Position>
            <AltitudeMeters>111.8000030517578125</AltitudeMeters>
            <DistanceMeters>NAN</DistanceMeters>
          </Trackpoint>
          <Trackpoint>
            <Time>2020-05-25T05:00:03.000Z</Time>
            <Position>
              <LatitudeDegrees>38.06281900964677333831787109375</LatitudeDegrees>
              <LongitudeDegrees>-1.08861937187612056732177734375</LongitudeDegrees>
            </Position>
            <AltitudeMeters>111.8000030517578125</AltitudeMeters>
            <DistanceMeters>NAN</DistanceMeters>
          </Trackpoint>
          <Trackpoint>
            <Time>2020-05-25T05:00:04.000Z</Time>
            <Position>
              <LatitudeDegrees>38.06285119615495204925537109375</LatitudeDegrees>
              <LongitudeDegrees>-1.088609397411346435546875</LongitudeDegrees>
            </Position>
            <AltitudeMeters>112</AltitudeMeters>
            <DistanceMeters>NAN</DistanceMeters>
          </Trackpoint>
          <Trackpoint>
            <Time>2020-05-25T05:00:05.000Z</Time>
            <Position>
              <LatitudeDegrees>38.0628836341202259063720703125</LatitudeDegrees>
              <LongitudeDegrees>-1.0885991714894771575927734375</LongitudeDegrees>
            </Position>
            <AltitudeMeters>112.1999969482421875</AltitudeMeters>
            <DistanceMeters>NAN</DistanceMeters>
          </Trackpoint>
          <Trackpoint>
            <Time>2020-05-25T05:00:06.000Z</Time>
            <Position>
              <LatitudeDegrees>38.062915988266468048095703125</LatitudeDegrees>
              <LongitudeDegrees>-1.088587604463100433349609375</LongitudeDegrees>
            </Position>
            <AltitudeMeters>112.1999969482421875</AltitudeMeters>
            <DistanceMeters>NAN</DistanceMeters>
          </Trackpoint>
          <Trackpoint>
            <Time>2020-05-25T05:00:07.000Z</Time>
            <Position>
              <LatitudeDegrees>38.06294851005077362060546875</LatitudeDegrees>
              <LongitudeDegrees>-1.0885770432651042938232421875</LongitudeDegrees>
            </Position>
            <AltitudeMeters>112.59999847412109375</AltitudeMeters>
            <DistanceMeters>NAN</DistanceMeters>
          </Trackpoint>
          <Trackpoint>
            <Time>2020-05-25T05:00:08.000Z</Time>
            <Position>
              <LatitudeDegrees>38.06301615200936794281005859375</LatitudeDegrees>
              <LongitudeDegrees>-1.0885572619736194610595703125</LongitudeDegrees>
            </Position>
            <AltitudeMeters>112.59999847412109375</AltitudeMeters>
            <DistanceMeters>NAN</DistanceMeters>
          </Trackpoint>
          <Trackpoint>
            <Time>2020-05-25T05:00:09.000Z</Time>
            <Position>
              <LatitudeDegrees>38.06301615200936794281005859375</LatitudeDegrees>
              <LongitudeDegrees>-1.0885572619736194610595703125</LongitudeDegrees>
            </Position>
            <AltitudeMeters>112.8000030517578125</AltitudeMeters>
            <DistanceMeters>NAN</DistanceMeters>
          </Trackpoint>
          <Trackpoint>
            <Time>2020-05-25T05:00:10.000Z</Time>
            <Position>
              <LatitudeDegrees>38.0630495958030223846435546875</LatitudeDegrees>
              <LongitudeDegrees>-1.0885461978614330291748046875</LongitudeDegrees>
            </Position>
            <AltitudeMeters>113</AltitudeMeters>
            <DistanceMeters>NAN</DistanceMeters>
          </Trackpoint>
          <Trackpoint>
            <Time>2020-05-25T05:00:11.000Z</Time>
            <Position>
              <LatitudeDegrees>38.06308303959667682647705078125</LatitudeDegrees>
              <LongitudeDegrees>-1.08853639103472232818603515625</LongitudeDegrees>
            </Position>
            <AltitudeMeters>113.1999969482421875</AltitudeMeters>
            <DistanceMeters>NAN</DistanceMeters>
          </Trackpoint>
          <Trackpoint>
            <Time>2020-05-25T05:00:12.000Z</Time>
            <Position>
              <LatitudeDegrees>38.06315227411687374114990234375</LatitudeDegrees>
              <LongitudeDegrees>-1.08852063305675983428955078125</LongitudeDegrees>
            </Position>
            <AltitudeMeters>113.40000152587890625</AltitudeMeters>
            <DistanceMeters>NAN</DistanceMeters>
          </Trackpoint>
          <Trackpoint>
            <Time>2020-05-25T05:00:13.000Z</Time>
            <Position>
              <LatitudeDegrees>38.06315227411687374114990234375</LatitudeDegrees>
              <LongitudeDegrees>-1.08852063305675983428955078125</LongitudeDegrees>
            </Position>
            <AltitudeMeters>113.59999847412109375</AltitudeMeters>
            <DistanceMeters>NAN</DistanceMeters>
          </Trackpoint>
          <Trackpoint>
            <Time>2020-05-25T05:00:14.000Z</Time>
            <Position>
              <LatitudeDegrees>38.06322276592254638671875</LatitudeDegrees>
              <LongitudeDegrees>-1.0885086469352245330810546875</LongitudeDegrees>
            </Position>
            <AltitudeMeters>113.8000030517578125</AltitudeMeters>
            <DistanceMeters>NAN</DistanceMeters>
          </Trackpoint>
          <Trackpoint>
            <Time>2020-05-25T05:00:15.000Z</Time>
            <Position>
              <LatitudeDegrees>38.06322276592254638671875</LatitudeDegrees>
              <LongitudeDegrees>-1.0885086469352245330810546875</LongitudeDegrees>
            </Position>
            <AltitudeMeters>113.8000030517578125</AltitudeMeters>
            <DistanceMeters>NAN</DistanceMeters>
          </Trackpoint>
          <Trackpoint>
            <Time>2020-05-25T05:00:16.000Z</Time>
            <Position>
              <LatitudeDegrees>38.063257634639739990234375</LatitudeDegrees>
              <LongitudeDegrees>-1.0885036177933216094970703125</LongitudeDegrees>
            </Position>
            <AltitudeMeters>114</AltitudeMeters>
            <DistanceMeters>NAN</DistanceMeters>
          </Trackpoint>
          <Trackpoint>
            <Time>2020-05-25T05:00:17.000Z</Time>
            <Position>
              <LatitudeDegrees>38.06329292245209217071533203125</LatitudeDegrees>
              <LongitudeDegrees>-1.088499091565608978271484375</LongitudeDegrees>
            </Position>
            <AltitudeMeters>114.1999969482421875</AltitudeMeters>
            <DistanceMeters>NAN</DistanceMeters>
          </Trackpoint>
          <Trackpoint>
            <Time>2020-05-25T05:00:18.000Z</Time>
            <Position>
              <LatitudeDegrees>38.06332929991185665130615234375</LatitudeDegrees>
              <LongitudeDegrees>-1.08849481679499149322509765625</LongitudeDegrees>
            </Position>
            <AltitudeMeters>114.40000152587890625</AltitudeMeters>
            <DistanceMeters>NAN</DistanceMeters>
          </Trackpoint>
          <Trackpoint>
            <Time>2020-05-25T05:00:19.000Z</Time>
            <Position>
              <LatitudeDegrees>38.06336601264774799346923828125</LatitudeDegrees>
              <LongitudeDegrees>-1.08849079348146915435791015625</LongitudeDegrees>
            </Position>
            <AltitudeMeters>114.59999847412109375</AltitudeMeters>
            <DistanceMeters>NAN</DistanceMeters>
          </Trackpoint>
          <Trackpoint>
            <Time>2020-05-25T05:00:20.000Z</Time>
            <Position>
              <LatitudeDegrees>38.06343943811953067779541015625</LatitudeDegrees>
              <LongitudeDegrees>-1.088487692177295684814453125</LongitudeDegrees>
            </Position>
            <AltitudeMeters>114.8000030517578125</AltitudeMeters>
            <DistanceMeters>NAN</DistanceMeters>
          </Trackpoint>
          <Trackpoint>
            <Time>2020-05-25T05:00:21.000Z</Time>
            <Position>
              <LatitudeDegrees>38.06343943811953067779541015625</LatitudeDegrees>
              <LongitudeDegrees>-1.088487692177295684814453125</LongitudeDegrees>
            </Position>
            <AltitudeMeters>115</AltitudeMeters>
            <DistanceMeters>NAN</DistanceMeters>
          </Trackpoint>
          <Trackpoint>
            <Time>2020-05-25T05:00:22.000Z</Time>
            <Position>
              <LatitudeDegrees>38.06347690522670745849609375</LatitudeDegrees>
              <LongitudeDegrees>-1.08848668634891510009765625</LongitudeDegrees>
            </Position>
            <AltitudeMeters>115.1999969482421875</AltitudeMeters>
            <DistanceMeters>NAN</DistanceMeters>
          </Trackpoint>
          <Trackpoint>
            <Time>2020-05-25T05:00:23.000Z</Time>
            <Position>
              <LatitudeDegrees>38.0635142885148525238037109375</LatitudeDegrees>
              <LongitudeDegrees>-1.0884848423302173614501953125</LongitudeDegrees>
            </Position>
            <AltitudeMeters>115.40000152587890625</AltitudeMeters>
            <DistanceMeters>NAN</DistanceMeters>
          </Trackpoint>
          <Trackpoint>
            <Time>2020-05-25T05:00:24.000Z</Time>
            <Position>
              <LatitudeDegrees>38.06358813308179378509521484375</LatitudeDegrees>
              <LongitudeDegrees>-1.08848241157829761505126953125</LongitudeDegrees>
            </Position>
            <AltitudeMeters>115.40000152587890625</AltitudeMeters>
            <DistanceMeters>NAN</DistanceMeters>
          </Trackpoint>
          <Trackpoint>
            <Time>2020-05-25T05:00:25.000Z</Time>
            <Position>
              <LatitudeDegrees>38.06358813308179378509521484375</LatitudeDegrees>
              <LongitudeDegrees>-1.08848241157829761505126953125</LongitudeDegrees>
            </Position>
            <AltitudeMeters>115.59999847412109375</AltitudeMeters>
            <DistanceMeters>NAN</DistanceMeters>
          </Trackpoint>
          <Trackpoint>
            <Time>2020-05-25T05:00:26.000Z</Time>
            <Position>
              <LatitudeDegrees>38.06366197764873504638671875</LatitudeDegrees>
              <LongitudeDegrees>-1.08848936855792999267578125</LongitudeDegrees>
            </Position>
            <AltitudeMeters>115.8000030517578125</AltitudeMeters>
            <DistanceMeters>NAN</DistanceMeters>
          </Trackpoint>
          <Trackpoint>
            <Time>2020-05-25T05:00:27.000Z</Time>
            <Position>
              <LatitudeDegrees>38.06366197764873504638671875</LatitudeDegrees>
              <LongitudeDegrees>-1.08848936855792999267578125</LongitudeDegrees>
            </Position>
            <AltitudeMeters>115.8000030517578125</AltitudeMeters>
            <DistanceMeters>NAN</DistanceMeters>
          </Trackpoint>
          <Trackpoint>
            <Time>2020-05-25T05:00:28.000Z</Time>
            <Position>
              <LatitudeDegrees>38.06369894184172153472900390625</LatitudeDegrees>
              <LongitudeDegrees>-1.08849347569048404693603515625</LongitudeDegrees>
            </Position>
            <AltitudeMeters>116</AltitudeMeters>
            <DistanceMeters>NAN</DistanceMeters>
          </Trackpoint>
          <Trackpoint>
            <Time>2020-05-25T05:00:29.000Z</Time>
            <Position>
              <LatitudeDegrees>38.0637359060347080230712890625</LatitudeDegrees>
              <LongitudeDegrees>-1.08849749900400638580322265625</LongitudeDegrees>
            </Position>
            <AltitudeMeters>116.1999969482421875</AltitudeMeters>
            <DistanceMeters>NAN</DistanceMeters>
          </Trackpoint>
          <Trackpoint>
            <Time>2020-05-25T05:00:30.000Z</Time>
            <Position>
              <LatitudeDegrees>38.0638088285923004150390625</LatitudeDegrees>
              <LongitudeDegrees>-1.08850537799298763275146484375</LongitudeDegrees>
            </Position>
            <AltitudeMeters>116.40000152587890625</AltitudeMeters>
            <DistanceMeters>NAN</DistanceMeters>
          </Trackpoint>
          <Trackpoint>
            <Time>2020-05-25T05:00:31.000Z</Time>
            <Position>
              <LatitudeDegrees>38.0638088285923004150390625</LatitudeDegrees>
              <LongitudeDegrees>-1.08850537799298763275146484375</LongitudeDegrees>
            </Position>
            <AltitudeMeters>116.59999847412109375</AltitudeMeters>
            <DistanceMeters>NAN</DistanceMeters>
          </Trackpoint>
          <Trackpoint>
            <Time>2020-05-25T05:00:32.000Z</Time>
            <Position>
              <LatitudeDegrees>38.0638814158737659454345703125</LatitudeDegrees>
              <LongitudeDegrees>-1.0885173641145229339599609375</LongitudeDegrees>
            </Position>
            <AltitudeMeters>116.8000030517578125</AltitudeMeters>
            <DistanceMeters>NAN</DistanceMeters>
          </Trackpoint>
          <Trackpoint>
            <Time>2020-05-25T05:00:33.000Z</Time>
            <Position>
              <LatitudeDegrees>38.0638814158737659454345703125</LatitudeDegrees>
              <LongitudeDegrees>-1.0885173641145229339599609375</LongitudeDegrees>
            </Position>
            <AltitudeMeters>117</AltitudeMeters>
            <DistanceMeters>NAN</DistanceMeters>
          </Trackpoint>
          <Trackpoint>
            <Time>2020-05-25T05:00:34.000Z</Time>
            <Position>
              <LatitudeDegrees>38.06391821242868900299072265625</LatitudeDegrees>
              <LongitudeDegrees>-1.08852381817996501922607421875</LongitudeDegrees>
            </Position>
            <AltitudeMeters>117.1999969482421875</AltitudeMeters>
            <DistanceMeters>NAN</DistanceMeters>
          </Trackpoint>
          <Trackpoint>
            <Time>2020-05-25T05:00:35.000Z</Time>
            <Position>
              <LatitudeDegrees>38.0639545060694217681884765625</LatitudeDegrees>
              <LongitudeDegrees>-1.08853052370250225067138671875</LongitudeDegrees>
            </Position>
            <AltitudeMeters>117.1999969482421875</AltitudeMeters>
            <DistanceMeters>NAN</DistanceMeters>
          </Trackpoint>
          <Trackpoint>
            <Time>2020-05-25T05:00:36.000Z</Time>
            <Position>
              <LatitudeDegrees>38.0640272609889507293701171875</LatitudeDegrees>
              <LongitudeDegrees>-1.088550724089145660400390625</LongitudeDegrees>
            </Position>
            <AltitudeMeters>117.40000152587890625</AltitudeMeters>
            <DistanceMeters>NAN</DistanceMeters>
          </Trackpoint>
          <Trackpoint>
            <Time>2020-05-25T05:00:37.000Z</Time>
            <Position>
              <LatitudeDegrees>38.0640272609889507293701171875</LatitudeDegrees>
              <LongitudeDegrees>-1.088550724089145660400390625</LongitudeDegrees>
            </Position>
            <AltitudeMeters>117.59999847412109375</AltitudeMeters>
            <DistanceMeters>NAN</DistanceMeters>
          </Trackpoint>
          <Trackpoint>
            <Time>2020-05-25T05:00:38.000Z</Time>
            <Position>
              <LatitudeDegrees>38.0641003511846065521240234375</LatitudeDegrees>
              <LongitudeDegrees>-1.0885720141232013702392578125</LongitudeDegrees>
            </Position>
            <AltitudeMeters>118.1999969482421875</AltitudeMeters>
            <DistanceMeters>NAN</DistanceMeters>
          </Trackpoint>
          <Trackpoint>
            <Time>2020-05-25T05:00:39.000Z</Time>
            <Position>
              <LatitudeDegrees>38.0641003511846065521240234375</LatitudeDegrees>
              <LongitudeDegrees>-1.0885720141232013702392578125</LongitudeDegrees>
            </Position>
            <AltitudeMeters>118.40000152587890625</AltitudeMeters>
            <DistanceMeters>NAN</DistanceMeters>
          </Trackpoint>
          <Trackpoint>
            <Time>2020-05-25T05:00:40.000Z</Time>
            <Position>
              <LatitudeDegrees>38.0641360580921173095703125</LatitudeDegrees>
              <LongitudeDegrees>-1.08858265914022922515869140625</LongitudeDegrees>
            </Position>
            <AltitudeMeters>118.59999847412109375</AltitudeMeters>
            <DistanceMeters>NAN</DistanceMeters>
          </Trackpoint>
          <Trackpoint>
            <Time>2020-05-25T05:00:41.000Z</Time>
            <Position>
              <LatitudeDegrees>38.06417235173285007476806640625</LatitudeDegrees>
              <LongitudeDegrees>-1.08859397470951080322265625</LongitudeDegrees>
            </Position>
            <AltitudeMeters>118.59999847412109375</AltitudeMeters>
            <DistanceMeters>NAN</DistanceMeters>
          </Trackpoint>
          <Trackpoint>
            <Time>2020-05-25T05:00:42.000Z</Time>
            <Position>
              <LatitudeDegrees>38.064245022833347320556640625</LatitudeDegrees>
              <LongitudeDegrees>-1.08861501328647136688232421875</LongitudeDegrees>
            </Position>
            <AltitudeMeters>118.8000030517578125</AltitudeMeters>
            <DistanceMeters>NAN</DistanceMeters>
          </Trackpoint>
          <Trackpoint>
            <Time>2020-05-25T05:00:43.000Z</Time>
            <Position>
              <LatitudeDegrees>38.064245022833347320556640625</LatitudeDegrees>
              <LongitudeDegrees>-1.08861501328647136688232421875</LongitudeDegrees>
            </Position>
            <AltitudeMeters>119.1999969482421875</AltitudeMeters>
            <DistanceMeters>NAN</DistanceMeters>
          </Trackpoint>
          <Trackpoint>
            <Time>2020-05-25T05:00:44.000Z</Time>
            <Position>
              <LatitudeDegrees>38.0643179453909397125244140625</LatitudeDegrees>
              <LongitudeDegrees>-1.0886343754827976226806640625</LongitudeDegrees>
            </Position>
            <AltitudeMeters>119.40000152587890625</AltitudeMeters>
            <DistanceMeters>NAN</DistanceMeters>
          </Trackpoint>
          <Trackpoint>
            <Time>2020-05-25T05:00:45.000Z</Time>
            <Position>
              <LatitudeDegrees>38.0643179453909397125244140625</LatitudeDegrees>
              <LongitudeDegrees>-1.0886343754827976226806640625</LongitudeDegrees>
            </Position>
            <AltitudeMeters>119.59999847412109375</AltitudeMeters>
            <DistanceMeters>NAN</DistanceMeters>
          </Trackpoint>
          <Trackpoint>
            <Time>2020-05-25T05:00:46.000Z</Time>
            <Position>
              <LatitudeDegrees>38.06435440666973590850830078125</LatitudeDegrees>
              <LongitudeDegrees>-1.08864359557628631591796875</LongitudeDegrees>
            </Position>
            <AltitudeMeters>119.59999847412109375</AltitudeMeters>
            <DistanceMeters>NAN</DistanceMeters>
          </Trackpoint>
          <Trackpoint>
            <Time>2020-05-25T05:00:47.000Z</Time>
            <Position>
              <LatitudeDegrees>38.0643910355865955352783203125</LatitudeDegrees>
              <LongitudeDegrees>-1.0886534862220287322998046875</LongitudeDegrees>
            </Position>
            <AltitudeMeters>119.8000030517578125</AltitudeMeters>
            <DistanceMeters>NAN</DistanceMeters>
          </Trackpoint>
          <Trackpoint>
            <Time>2020-05-25T05:00:48.000Z</Time>
            <Position>
              <LatitudeDegrees>38.06446521542966365814208984375</LatitudeDegrees>
              <LongitudeDegrees>-1.08867201022803783416748046875</LongitudeDegrees>
            </Position>
            <AltitudeMeters>120</AltitudeMeters>
            <DistanceMeters>NAN</DistanceMeters>
          </Trackpoint>
          <Trackpoint>
            <Time>2020-05-25T05:00:49.000Z</Time>
            <Position>
              <LatitudeDegrees>38.06446521542966365814208984375</LatitudeDegrees>
              <LongitudeDegrees>-1.08867201022803783416748046875</LongitudeDegrees>
            </Position>
            <AltitudeMeters>120.40000152587890625</AltitudeMeters>
            <DistanceMeters>NAN</DistanceMeters>
          </Trackpoint>
          <Trackpoint>
            <Time>2020-05-25T05:00:50.000Z</Time>
            <Position>
              <LatitudeDegrees>38.064538054168224334716796875</LatitudeDegrees>
              <LongitudeDegrees>-1.0886913724243640899658203125</LongitudeDegrees>
            </Position>
            <AltitudeMeters>120.40000152587890625</AltitudeMeters>
            <DistanceMeters>NAN</DistanceMeters>
          </Trackpoint>
          <Trackpoint>
            <Time>2020-05-25T05:00:51.000Z</Time>
            <Position>
              <LatitudeDegrees>38.064538054168224334716796875</LatitudeDegrees>
              <LongitudeDegrees>-1.0886913724243640899658203125</LongitudeDegrees>
            </Position>
            <AltitudeMeters>120.59999847412109375</AltitudeMeters>
            <DistanceMeters>NAN</DistanceMeters>
          </Trackpoint>
          <Trackpoint>
            <Time>2020-05-25T05:00:52.000Z</Time>
            <Position>
              <LatitudeDegrees>38.06457485072314739227294921875</LatitudeDegrees>
              <LongitudeDegrees>-1.08869983814656734466552734375</LongitudeDegrees>
            </Position>
            <AltitudeMeters>120.8000030517578125</AltitudeMeters>
            <DistanceMeters>NAN</DistanceMeters>
          </Trackpoint>
          <Trackpoint>
            <Time>2020-05-25T05:00:53.000Z</Time>
            <Position>
              <LatitudeDegrees>38.06461223401129245758056640625</LatitudeDegrees>
              <LongitudeDegrees>-1.088708303868770599365234375</LongitudeDegrees>
            </Position>
            <AltitudeMeters>121</AltitudeMeters>
            <DistanceMeters>NAN</DistanceMeters>
          </Trackpoint>
          <Trackpoint>
            <Time>2020-05-25T05:00:54.000Z</Time>
            <Position>
              <LatitudeDegrees>38.06468666531145572662353515625</LatitudeDegrees>
              <LongitudeDegrees>-1.08872615732252597808837890625</LongitudeDegrees>
            </Position>
            <AltitudeMeters>121.1999969482421875</AltitudeMeters>
            <DistanceMeters>NAN</DistanceMeters>
          </Trackpoint>
          <Trackpoint>
            <Time>2020-05-25T05:00:55.000Z</Time>
            <Position>
              <LatitudeDegrees>38.06468666531145572662353515625</LatitudeDegrees>
              <LongitudeDegrees>-1.08872615732252597808837890625</LongitudeDegrees>
            </Position>
            <AltitudeMeters>121.1999969482421875</AltitudeMeters>
            <DistanceMeters>NAN</DistanceMeters>
          </Trackpoint>
          <Trackpoint>
            <Time>2020-05-25T05:00:56.000Z</Time>
            <Position>
              <LatitudeDegrees>38.06476302444934844970703125</LatitudeDegrees>
              <LongitudeDegrees>-1.0887436755001544952392578125</LongitudeDegrees>
            </Position>
            <AltitudeMeters>121.40000152587890625</AltitudeMeters>
            <DistanceMeters>NAN</DistanceMeters>
          </Trackpoint>
          <Trackpoint>
            <Time>2020-05-25T05:00:57.000Z</Time>
            <Position>
              <LatitudeDegrees>38.06476302444934844970703125</LatitudeDegrees>
              <LongitudeDegrees>-1.0887436755001544952392578125</LongitudeDegrees>
            </Position>
            <AltitudeMeters>121.40000152587890625</AltitudeMeters>
            <DistanceMeters>NAN</DistanceMeters>
          </Trackpoint>
          <Trackpoint>
            <Time>2020-05-25T05:00:58.000Z</Time>
            <Position>
              <LatitudeDegrees>38.0648012459278106689453125</LatitudeDegrees>
              <LongitudeDegrees>-1.08875130303204059600830078125</LongitudeDegrees>
            </Position>
            <AltitudeMeters>121.8000030517578125</AltitudeMeters>
            <DistanceMeters>NAN</DistanceMeters>
          </Trackpoint>
          <Trackpoint>
            <Time>2020-05-25T05:00:59.000Z</Time>
            <Position>
              <LatitudeDegrees>38.06483904831111431121826171875</LatitudeDegrees>
              <LongitudeDegrees>-1.088759265840053558349609375</LongitudeDegrees>
            </Position>
            <AltitudeMeters>122</AltitudeMeters>
            <DistanceMeters>NAN</DistanceMeters>
          </Trackpoint>
          <Trackpoint>
            <Time>2020-05-25T05:01:00.000Z</Time>
            <Position>
              <LatitudeDegrees>38.064914233982563018798828125</LatitudeDegrees>
              <LongitudeDegrees>-1.088776700198650360107421875</LongitudeDegrees>
            </Position>
            <AltitudeMeters>122.1999969482421875</AltitudeMeters>
            <DistanceMeters>NAN</DistanceMeters>
          </Trackpoint>
          <Trackpoint>
            <Time>2020-05-25T05:01:01.000Z</Time>
            <Position>
              <LatitudeDegrees>38.064914233982563018798828125</LatitudeDegrees>
              <LongitudeDegrees>-1.088776700198650360107421875</LongitudeDegrees>
            </Position>
            <AltitudeMeters>122.1999969482421875</AltitudeMeters>
            <DistanceMeters>NAN</DistanceMeters>
          </Trackpoint>
          <Trackpoint>
            <Time>2020-05-25T05:01:02.000Z</Time>
            <Position>
              <LatitudeDegrees>38.0649895034730434417724609375</LatitudeDegrees>
              <LongitudeDegrees>-1.088791787624359130859375</LongitudeDegrees>
            </Position>
            <AltitudeMeters>122.40000152587890625</AltitudeMeters>
            <DistanceMeters>NAN</DistanceMeters>
          </Trackpoint>
          <Trackpoint>
            <Time>2020-05-25T05:01:03.000Z</Time>
            <Position>
              <LatitudeDegrees>38.0649895034730434417724609375</LatitudeDegrees>
              <LongitudeDegrees>-1.088791787624359130859375</LongitudeDegrees>
            </Position>
            <AltitudeMeters>122.59999847412109375</AltitudeMeters>
            <DistanceMeters>NAN</DistanceMeters>
          </Trackpoint>
          <Trackpoint>
            <Time>2020-05-25T05:01:04.000Z</Time>
            <Position>
              <LatitudeDegrees>38.06502722203731536865234375</LatitudeDegrees>
              <LongitudeDegrees>-1.0887969844043254852294921875</LongitudeDegrees>
            </Position>
            <AltitudeMeters>122.59999847412109375</AltitudeMeters>
            <DistanceMeters>NAN</DistanceMeters>
          </Trackpoint>
          <Trackpoint>
            <Time>2020-05-25T05:01:05.000Z</Time>
            <Position>
              <LatitudeDegrees>38.06506485678255558013916015625</LatitudeDegrees>
              <LongitudeDegrees>-1.0888020135462284088134765625</LongitudeDegrees>
            </Position>
            <AltitudeMeters>122.8000030517578125</AltitudeMeters>
            <DistanceMeters>NAN</DistanceMeters>
          </Trackpoint>
          <Trackpoint>
            <Time>2020-05-25T05:01:06.000Z</Time>
            <Position>
              <LatitudeDegrees>38.06513878516852855682373046875</LatitudeDegrees>
              <LongitudeDegrees>-1.088813245296478271484375</LongitudeDegrees>
            </Position>
            <AltitudeMeters>123.1999969482421875</AltitudeMeters>
            <DistanceMeters>NAN</DistanceMeters>
          </Trackpoint>
          <Trackpoint>
            <Time>2020-05-25T05:01:07.000Z</Time>
            <Position>
              <LatitudeDegrees>38.06513878516852855682373046875</LatitudeDegrees>
              <LongitudeDegrees>-1.088813245296478271484375</LongitudeDegrees>
            </Position>
            <AltitudeMeters>123.40000152587890625</AltitudeMeters>
            <DistanceMeters>NAN</DistanceMeters>
          </Trackpoint>
          <Trackpoint>
            <Time>2020-05-25T05:01:08.000Z</Time>
            <Position>
              <LatitudeDegrees>38.06517474353313446044921875</LatitudeDegrees>
              <LongitudeDegrees>-1.08881919644773006439208984375</LongitudeDegrees>
            </Position>
            <AltitudeMeters>123.40000152587890625</AltitudeMeters>
            <DistanceMeters>NAN</DistanceMeters>
          </Trackpoint>
          <Trackpoint>
            <Time>2020-05-25T05:01:09.000Z</Time>
            <Position>
              <LatitudeDegrees>38.06521254591643810272216796875</LatitudeDegrees>
              <LongitudeDegrees>-1.08882556669414043426513671875</LongitudeDegrees>
            </Position>
            <AltitudeMeters>123.8000030517578125</AltitudeMeters>
            <DistanceMeters>NAN</DistanceMeters>
          </Trackpoint>
          <Trackpoint>
            <Time>2020-05-25T05:01:10.000Z</Time>
            <Position>
              <LatitudeDegrees>38.06525160558521747589111328125</LatitudeDegrees>
              <LongitudeDegrees>-1.0888315178453922271728515625</LongitudeDegrees>
            </Position>
            <AltitudeMeters>124</AltitudeMeters>
            <DistanceMeters>NAN</DistanceMeters>
          </Trackpoint>
          <Trackpoint>
            <Time>2020-05-25T05:01:11.000Z</Time>
            <Position>
              <LatitudeDegrees>38.0652892403304576873779296875</LatitudeDegrees>
              <LongitudeDegrees>-1.08883528970181941986083984375</LongitudeDegrees>
            </Position>
            <AltitudeMeters>124.1999969482421875</AltitudeMeters>
            <DistanceMeters>NAN</DistanceMeters>
          </Trackpoint>
          <Trackpoint>
            <Time>2020-05-25T05:01:12.000Z</Time>
            <Position>
              <LatitudeDegrees>38.06536543183028697967529296875</LatitudeDegrees>
              <LongitudeDegrees>-1.08884165994822978973388671875</LongitudeDegrees>
            </Position>
            <AltitudeMeters>124.40000152587890625</AltitudeMeters>
            <DistanceMeters>NAN</DistanceMeters>
          </Trackpoint>
          <Trackpoint>
            <Time>2020-05-25T05:01:13.000Z</Time>
            <Position>
              <LatitudeDegrees>38.06536543183028697967529296875</LatitudeDegrees>
              <LongitudeDegrees>-1.08884165994822978973388671875</LongitudeDegrees>
            </Position>
            <AltitudeMeters>124.59999847412109375</AltitudeMeters>
            <DistanceMeters>NAN</DistanceMeters>
          </Trackpoint>
          <Trackpoint>
            <Time>2020-05-25T05:01:14.000Z</Time>
            <Position>
              <LatitudeDegrees>38.06544422172009944915771484375</LatitudeDegrees>
              <LongitudeDegrees>-1.08884342014789581298828125</LongitudeDegrees>
            </Position>
            <AltitudeMeters>124.8000030517578125</AltitudeMeters>
            <DistanceMeters>NAN</DistanceMeters>
          </Trackpoint>
          <Trackpoint>
            <Time>2020-05-25T05:01:15.000Z</Time>
            <Position>
              <LatitudeDegrees>38.06544422172009944915771484375</LatitudeDegrees>
              <LongitudeDegrees>-1.08884342014789581298828125</LongitudeDegrees>
            </Position>
            <AltitudeMeters>125</AltitudeMeters>
            <DistanceMeters>NAN</DistanceMeters>
          </Trackpoint>
          <Trackpoint>
            <Time>2020-05-25T05:01:16.000Z</Time>
            <Position>
              <LatitudeDegrees>38.06548411957919597625732421875</LatitudeDegrees>
              <LongitudeDegrees>-1.08884484507143497467041015625</LongitudeDegrees>
            </Position>
            <AltitudeMeters>125.1999969482421875</AltitudeMeters>
            <DistanceMeters>NAN</DistanceMeters>
          </Trackpoint>
          <Trackpoint>
            <Time>2020-05-25T05:01:17.000Z</Time>
            <Position>
              <LatitudeDegrees>38.0655232630670070648193359375</LatitudeDegrees>
              <LongitudeDegrees>-1.08884476125240325927734375</LongitudeDegrees>
            </Position>
            <AltitudeMeters>125.59999847412109375</AltitudeMeters>
            <DistanceMeters>NAN</DistanceMeters>
          </Trackpoint>
          <Trackpoint>
            <Time>2020-05-25T05:01:18.000Z</Time>
            <Position>
              <LatitudeDegrees>38.06556257419288158416748046875</LatitudeDegrees>
              <LongitudeDegrees>-1.08884283341467380523681640625</LongitudeDegrees>
            </Position>
            <AltitudeMeters>125.8000030517578125</AltitudeMeters>
            <DistanceMeters>NAN</DistanceMeters>
          </Trackpoint>
          <Trackpoint>
            <Time>2020-05-25T05:01:19.000Z</Time>
            <Position>
              <LatitudeDegrees>38.0656033940613269805908203125</LatitudeDegrees>
              <LongitudeDegrees>-1.088839732110500335693359375</LongitudeDegrees>
            </Position>
            <AltitudeMeters>126</AltitudeMeters>
            <DistanceMeters>NAN</DistanceMeters>
          </Trackpoint>
          <Trackpoint>
            <Time>2020-05-25T05:01:20.000Z</Time>
            <Position>
              <LatitudeDegrees>38.06568511761724948883056640625</LatitudeDegrees>
              <LongitudeDegrees>-1.08882875181734561920166015625</LongitudeDegrees>
            </Position>
            <AltitudeMeters>126</AltitudeMeters>
            <DistanceMeters>NAN</DistanceMeters>
          </Trackpoint>
          <Trackpoint>
            <Time>2020-05-25T05:01:21.000Z</Time>
            <Position>
              <LatitudeDegrees>38.06568511761724948883056640625</LatitudeDegrees>
              <LongitudeDegrees>-1.08882875181734561920166015625</LongitudeDegrees>
            </Position>
            <AltitudeMeters>126.1999969482421875</AltitudeMeters>
            <DistanceMeters>NAN</DistanceMeters>
          </Trackpoint>
          <Trackpoint>
            <Time>2020-05-25T05:01:22.000Z</Time>
            <Position>
              <LatitudeDegrees>38.06572669185698032379150390625</LatitudeDegrees>
              <LongitudeDegrees>-1.0888224653899669647216796875</LongitudeDegrees>
            </Position>
            <AltitudeMeters>126.40000152587890625</AltitudeMeters>
            <DistanceMeters>NAN</DistanceMeters>
          </Trackpoint>
          <Trackpoint>
            <Time>2020-05-25T05:01:23.000Z</Time>
            <Position>
              <LatitudeDegrees>38.065767176449298858642578125</LatitudeDegrees>
              <LongitudeDegrees>-1.08881701715290546417236328125</LongitudeDegrees>
            </Position>
            <AltitudeMeters>126.59999847412109375</AltitudeMeters>
            <DistanceMeters>NAN</DistanceMeters>
          </Trackpoint>
          <Trackpoint>
            <Time>2020-05-25T05:01:24.000Z</Time>
            <Position>
              <LatitudeDegrees>38.065847642719745635986328125</LatitudeDegrees>
              <LongitudeDegrees>-1.0888073779642581939697265625</LongitudeDegrees>
            </Position>
            <AltitudeMeters>126.8000030517578125</AltitudeMeters>
            <DistanceMeters>NAN</DistanceMeters>
          </Trackpoint>
          <Trackpoint>
            <Time>2020-05-25T05:01:25.000Z</Time>
            <Position>
              <LatitudeDegrees>38.065847642719745635986328125</LatitudeDegrees>
              <LongitudeDegrees>-1.0888073779642581939697265625</LongitudeDegrees>
            </Position>
            <AltitudeMeters>127</AltitudeMeters>
            <DistanceMeters>NAN</DistanceMeters>
          </Trackpoint>
          <Trackpoint>
            <Time>2020-05-25T05:01:26.000Z</Time>
            <Position>
              <LatitudeDegrees>38.0659296177327632904052734375</LatitudeDegrees>
              <LongitudeDegrees>-1.08879790641367435455322265625</LongitudeDegrees>
            </Position>
            <AltitudeMeters>127</AltitudeMeters>
            <DistanceMeters>NAN</DistanceMeters>
          </Trackpoint>
          <Trackpoint>
            <Time>2020-05-25T05:01:27.000Z</Time>
            <Position>
              <LatitudeDegrees>38.0659296177327632904052734375</LatitudeDegrees>
              <LongitudeDegrees>-1.08879790641367435455322265625</LongitudeDegrees>
            </Position>
            <AltitudeMeters>127.1999969482421875</AltitudeMeters>
            <DistanceMeters>NAN</DistanceMeters>
          </Trackpoint>
          <Trackpoint>
            <Time>2020-05-25T05:01:28.000Z</Time>
            <Position>
              <LatitudeDegrees>38.0659711919724941253662109375</LatitudeDegrees>
              <LongitudeDegrees>-1.08879405073821544647216796875</LongitudeDegrees>
            </Position>
            <AltitudeMeters>127.40000152587890625</AltitudeMeters>
            <DistanceMeters>NAN</DistanceMeters>
          </Trackpoint>
          <Trackpoint>
            <Time>2020-05-25T05:01:29.000Z</Time>
            <Position>
              <LatitudeDegrees>38.06601285003125667572021484375</LatitudeDegrees>
              <LongitudeDegrees>-1.08878902159631252288818359375</LongitudeDegrees>
            </Position>
            <AltitudeMeters>127.59999847412109375</AltitudeMeters>
            <DistanceMeters>NAN</DistanceMeters>
          </Trackpoint>
          <Trackpoint>
            <Time>2020-05-25T05:01:30.000Z</Time>
            <Position>
              <LatitudeDegrees>38.06609683670103549957275390625</LatitudeDegrees>
              <LongitudeDegrees>-1.088773347437381744384765625</LongitudeDegrees>
            </Position>
            <AltitudeMeters>127.59999847412109375</AltitudeMeters>
            <DistanceMeters>NAN</DistanceMeters>
          </Trackpoint>
          <Trackpoint>
            <Time>2020-05-25T05:01:31.000Z</Time>
            <Position>
              <LatitudeDegrees>38.06609683670103549957275390625</LatitudeDegrees>
              <LongitudeDegrees>-1.088773347437381744384765625</LongitudeDegrees>
            </Position>
            <AltitudeMeters>128</AltitudeMeters>
            <DistanceMeters>NAN</DistanceMeters>
          </Trackpoint>
          <Trackpoint>
            <Time>2020-05-25T05:01:32.000Z</Time>
            <Position>
              <LatitudeDegrees>38.06617981754243373870849609375</LatitudeDegrees>
              <LongitudeDegrees>-1.08875717036426067352294921875</LongitudeDegrees>
            </Position>
            <AltitudeMeters>128.1999969482421875</AltitudeMeters>
            <DistanceMeters>NAN</DistanceMeters>
          </Trackpoint>
          <Trackpoint>
            <Time>2020-05-25T05:01:33.000Z</Time>
            <Position>
              <LatitudeDegrees>38.06617981754243373870849609375</LatitudeDegrees>
              <LongitudeDegrees>-1.08875717036426067352294921875</LongitudeDegrees>
            </Position>
            <AltitudeMeters>128.399993896484375</AltitudeMeters>
            <DistanceMeters>NAN</DistanceMeters>
          </Trackpoint>
          <Trackpoint>
            <Time>2020-05-25T05:01:34.000Z</Time>
            <Position>
              <LatitudeDegrees>38.06622256524860858917236328125</LatitudeDegrees>
              <LongitudeDegrees>-1.08875180594623088836669921875</LongitudeDegrees>
            </Position>
            <AltitudeMeters>128.600006103515625</AltitudeMeters>
            <DistanceMeters>NAN</DistanceMeters>
          </Trackpoint>
          <Trackpoint>
            <Time>2020-05-25T05:01:35.000Z</Time>
            <Position>
              <LatitudeDegrees>38.06626648642122745513916015625</LatitudeDegrees>
              <LongitudeDegrees>-1.08874493278563022613525390625</LongitudeDegrees>
            </Position>
            <AltitudeMeters>128.8000030517578125</AltitudeMeters>
            <DistanceMeters>NAN</DistanceMeters>
          </Trackpoint>
          <Trackpoint>
            <Time>2020-05-25T05:01:36.000Z</Time>
            <Position>
              <LatitudeDegrees>38.06635516695678234100341796875</LatitudeDegrees>
              <LongitudeDegrees>-1.0887302644550800323486328125</LongitudeDegrees>
            </Position>
            <AltitudeMeters>128.8000030517578125</AltitudeMeters>
            <DistanceMeters>NAN</DistanceMeters>
          </Trackpoint>
          <Trackpoint>
            <Time>2020-05-25T05:01:37.000Z</Time>
            <Position>
              <LatitudeDegrees>38.06635516695678234100341796875</LatitudeDegrees>
              <LongitudeDegrees>-1.0887302644550800323486328125</LongitudeDegrees>
            </Position>
            <AltitudeMeters>129</AltitudeMeters>
            <DistanceMeters>NAN</DistanceMeters>
          </Trackpoint>
          <Trackpoint>
            <Time>2020-05-25T05:01:38.000Z</Time>
            <Position>
              <LatitudeDegrees>38.066446781158447265625</LatitudeDegrees>
              <LongitudeDegrees>-1.08871727250516414642333984375</LongitudeDegrees>
            </Position>
            <AltitudeMeters>129</AltitudeMeters>
            <DistanceMeters>NAN</DistanceMeters>
          </Trackpoint>
          <Trackpoint>
            <Time>2020-05-25T05:01:39.000Z</Time>
            <Position>
              <LatitudeDegrees>38.066446781158447265625</LatitudeDegrees>
              <LongitudeDegrees>-1.08871727250516414642333984375</LongitudeDegrees>
            </Position>
            <AltitudeMeters>129.1999969482421875</AltitudeMeters>
            <DistanceMeters>NAN</DistanceMeters>
          </Trackpoint>
          <Trackpoint>
            <Time>2020-05-25T05:01:40.000Z</Time>
            <Position>
              <LatitudeDegrees>38.06649413891136646270751953125</LatitudeDegrees>
              <LongitudeDegrees>-1.08871123753488063812255859375</LongitudeDegrees>
            </Position>
            <AltitudeMeters>129.1999969482421875</AltitudeMeters>
            <DistanceMeters>NAN</DistanceMeters>
          </Trackpoint>
          <Trackpoint>
            <Time>2020-05-25T05:01:41.000Z</Time>
            <Position>
              <LatitudeDegrees>38.06654241867363452911376953125</LatitudeDegrees>
              <LongitudeDegrees>-1.0887041129171848297119140625</LongitudeDegrees>
            </Position>
            <AltitudeMeters>129.399993896484375</AltitudeMeters>
            <DistanceMeters>NAN</DistanceMeters>
          </Trackpoint>
          <Trackpoint>
            <Time>2020-05-25T05:01:42.000Z</Time>
            <Position>
              <LatitudeDegrees>38.0665914528071880340576171875</LatitudeDegrees>
              <LongitudeDegrees>-1.0886967368423938751220703125</LongitudeDegrees>
            </Position>
            <AltitudeMeters>129.399993896484375</AltitudeMeters>
            <DistanceMeters>NAN</DistanceMeters>
          </Trackpoint>
          <Trackpoint>
            <Time>2020-05-25T05:01:43.000Z</Time>
            <Position>
              <LatitudeDegrees>38.0666424147784709930419921875</LatitudeDegrees>
              <LongitudeDegrees>-1.0886900313198566436767578125</LongitudeDegrees>
            </Position>
            <AltitudeMeters>129.600006103515625</AltitudeMeters>
            <DistanceMeters>NAN</DistanceMeters>
          </Trackpoint>
          <Trackpoint>
            <Time>2020-05-25T05:01:44.000Z</Time>
            <Position>
              <LatitudeDegrees>38.0667507089674472808837890625</LatitudeDegrees>
              <LongitudeDegrees>-1.088679470121860504150390625</LongitudeDegrees>
            </Position>
            <AltitudeMeters>129.600006103515625</AltitudeMeters>
            <DistanceMeters>NAN</DistanceMeters>
          </Trackpoint>
          <Trackpoint>
            <Time>2020-05-25T05:01:45.000Z</Time>
            <Position>
              <LatitudeDegrees>38.0667507089674472808837890625</LatitudeDegrees>
              <LongitudeDegrees>-1.088679470121860504150390625</LongitudeDegrees>
            </Position>
            <AltitudeMeters>129.8000030517578125</AltitudeMeters>
            <DistanceMeters>NAN</DistanceMeters>
          </Trackpoint>
          <Trackpoint>
            <Time>2020-05-25T05:01:46.000Z</Time>
            <Position>
              <LatitudeDegrees>38.06680728681385517120361328125</LatitudeDegrees>
              <LongitudeDegrees>-1.08867754228413105010986328125</LongitudeDegrees>
            </Position>
            <AltitudeMeters>129.8000030517578125</AltitudeMeters>
            <DistanceMeters>NAN</DistanceMeters>
          </Trackpoint>
          <Trackpoint>
            <Time>2020-05-25T05:01:47.000Z</Time>
            <Position>
              <LatitudeDegrees>38.06686319410800933837890625</LatitudeDegrees>
              <LongitudeDegrees>-1.08867737464606761932373046875</LongitudeDegrees>
            </Position>
            <AltitudeMeters>130</AltitudeMeters>
            <DistanceMeters>NAN</DistanceMeters>
          </Trackpoint>
          <Trackpoint>
            <Time>2020-05-25T05:01:48.000Z</Time>
            <Position>
              <LatitudeDegrees>38.06697777472436428070068359375</LatitudeDegrees>
              <LongitudeDegrees>-1.0886782966554164886474609375</LongitudeDegrees>
            </Position>
            <AltitudeMeters>130</AltitudeMeters>
            <DistanceMeters>NAN</DistanceMeters>
          </Trackpoint>
          <Trackpoint>
            <Time>2020-05-25T05:01:49.000Z</Time>
            <Position>
              <LatitudeDegrees>38.06697777472436428070068359375</LatitudeDegrees>
              <LongitudeDegrees>-1.0886782966554164886474609375</LongitudeDegrees>
            </Position>
            <AltitudeMeters>130</AltitudeMeters>
            <DistanceMeters>NAN</DistanceMeters>
          </Trackpoint>
          <Trackpoint>
            <Time>2020-05-25T05:01:50.000Z</Time>
            <Position>
              <LatitudeDegrees>38.06709797121584415435791015625</LatitudeDegrees>
              <LongitudeDegrees>-1.0886839963495731353759765625</LongitudeDegrees>
            </Position>
            <AltitudeMeters>130.1999969482421875</AltitudeMeters>
            <DistanceMeters>NAN</DistanceMeters>
          </Trackpoint>
          <Trackpoint>
            <Time>2020-05-25T05:01:51.000Z</Time>
            <Position>
              <LatitudeDegrees>38.06709797121584415435791015625</LatitudeDegrees>
              <LongitudeDegrees>-1.0886839963495731353759765625</LongitudeDegrees>
            </Position>
            <AltitudeMeters>130</AltitudeMeters>
            <DistanceMeters>NAN</DistanceMeters>
          </Trackpoint>
          <Trackpoint>
            <Time>2020-05-25T05:01:52.000Z</Time>
            <Position>
              <LatitudeDegrees>38.06716117076575756072998046875</LatitudeDegrees>
              <LongitudeDegrees>-1.0886885225772857666015625</LongitudeDegrees>
            </Position>
            <AltitudeMeters>130.1999969482421875</AltitudeMeters>
            <DistanceMeters>NAN</DistanceMeters>
          </Trackpoint>
          <Trackpoint>
            <Time>2020-05-25T05:01:53.000Z</Time>
            <Position>
              <LatitudeDegrees>38.06722487322986125946044921875</LatitudeDegrees>
              <LongitudeDegrees>-1.08869480900466442108154296875</LongitudeDegrees>
            </Position>
            <AltitudeMeters>130.1999969482421875</AltitudeMeters>
            <DistanceMeters>NAN</DistanceMeters>
          </Trackpoint>
          <Trackpoint>
            <Time>2020-05-25T05:01:54.000Z</Time>
            <Position>
              <LatitudeDegrees>38.06735596619546413421630859375</LatitudeDegrees>
              <LongitudeDegrees>-1.08870989643037319183349609375</LongitudeDegrees>
            </Position>
            <AltitudeMeters>130.1999969482421875</AltitudeMeters>
            <DistanceMeters>NAN</DistanceMeters>
          </Trackpoint>
          <Trackpoint>
            <Time>2020-05-25T05:01:55.000Z</Time>
            <Position>
              <LatitudeDegrees>38.06735596619546413421630859375</LatitudeDegrees>
              <LongitudeDegrees>-1.08870989643037319183349609375</LongitudeDegrees>
            </Position>
            <AltitudeMeters>130.1999969482421875</AltitudeMeters>
            <DistanceMeters>NAN</DistanceMeters>
          </Trackpoint>
          <Trackpoint>
            <Time>2020-05-25T05:01:56.000Z</Time>
            <Position>
              <LatitudeDegrees>38.06749376468360424041748046875</LatitudeDegrees>
              <LongitudeDegrees>-1.0887285880744457244873046875</LongitudeDegrees>
            </Position>
            <AltitudeMeters>130.1999969482421875</AltitudeMeters>
            <DistanceMeters>NAN</DistanceMeters>
          </Trackpoint>
          <Trackpoint>
            <Time>2020-05-25T05:01:57.000Z</Time>
            <Position>
              <LatitudeDegrees>38.06749376468360424041748046875</LatitudeDegrees>
              <LongitudeDegrees>-1.0887285880744457244873046875</LongitudeDegrees>
            </Position>
            <AltitudeMeters>130.1999969482421875</AltitudeMeters>
            <DistanceMeters>NAN</DistanceMeters>
          </Trackpoint>
          <Trackpoint>
            <Time>2020-05-25T05:01:58.000Z</Time>
            <Position>
              <LatitudeDegrees>38.06756325066089630126953125</LatitudeDegrees>
              <LongitudeDegrees>-1.0887394845485687255859375</LongitudeDegrees>
            </Position>
            <AltitudeMeters>130.1999969482421875</AltitudeMeters>
            <DistanceMeters>NAN</DistanceMeters>
          </Trackpoint>
          <Trackpoint>
            <Time>2020-05-25T05:01:59.000Z</Time>
            <Position>
              <LatitudeDegrees>38.06763575412333011627197265625</LatitudeDegrees>
              <LongitudeDegrees>-1.08875063247978687286376953125</LongitudeDegrees>
            </Position>
            <AltitudeMeters>130</AltitudeMeters>
            <DistanceMeters>NAN</DistanceMeters>
          </Trackpoint>
          <Trackpoint>
            <Time>2020-05-25T05:02:00.000Z</Time>
            <Position>
              <LatitudeDegrees>38.06778562255203723907470703125</LatitudeDegrees>
              <LongitudeDegrees>-1.0887751914560794830322265625</LongitudeDegrees>
            </Position>
            <AltitudeMeters>129.8000030517578125</AltitudeMeters>
            <DistanceMeters>NAN</DistanceMeters>
          </Trackpoint>
          <Trackpoint>
            <Time>2020-05-25T05:02:01.000Z</Time>
            <Position>
              <LatitudeDegrees>38.06778562255203723907470703125</LatitudeDegrees>
              <LongitudeDegrees>-1.0887751914560794830322265625</LongitudeDegrees>
            </Position>
            <AltitudeMeters>129.8000030517578125</AltitudeMeters>
            <DistanceMeters>NAN</DistanceMeters>
          </Trackpoint>
          <Trackpoint>
            <Time>2020-05-25T05:02:02.000Z</Time>
            <Position>
              <LatitudeDegrees>38.06793582625687122344970703125</LatitudeDegrees>
              <LongitudeDegrees>-1.088802181184291839599609375</LongitudeDegrees>
            </Position>
            <AltitudeMeters>129.399993896484375</AltitudeMeters>
            <DistanceMeters>NAN</DistanceMeters>
          </Trackpoint>
          <Trackpoint>
            <Time>2020-05-25T05:02:03.000Z</Time>
            <Position>
              <LatitudeDegrees>38.06793582625687122344970703125</LatitudeDegrees>
              <LongitudeDegrees>-1.088802181184291839599609375</LongitudeDegrees>
            </Position>
            <AltitudeMeters>129.1999969482421875</AltitudeMeters>
            <DistanceMeters>NAN</DistanceMeters>
          </Trackpoint>
          <Trackpoint>
            <Time>2020-05-25T05:02:04.000Z</Time>
            <Position>
              <LatitudeDegrees>38.06801143102347850799560546875</LatitudeDegrees>
              <LongitudeDegrees>-1.08881399966776371002197265625</LongitudeDegrees>
            </Position>
            <AltitudeMeters>129</AltitudeMeters>
            <DistanceMeters>NAN</DistanceMeters>
          </Trackpoint>
          <Trackpoint>
            <Time>2020-05-25T05:02:05.000Z</Time>
            <Position>
              <LatitudeDegrees>38.06808820925652980804443359375</LatitudeDegrees>
              <LongitudeDegrees>-1.0888241417706012725830078125</LongitudeDegrees>
            </Position>
            <AltitudeMeters>128.600006103515625</AltitudeMeters>
            <DistanceMeters>NAN</DistanceMeters>
          </Trackpoint>
          <Trackpoint>
            <Time>2020-05-25T05:02:06.000Z</Time>
            <Position>
              <LatitudeDegrees>38.06824528612196445465087890625</LatitudeDegrees>
              <LongitudeDegrees>-1.088845767080783843994140625</LongitudeDegrees>
            </Position>
            <AltitudeMeters>128.399993896484375</AltitudeMeters>
            <DistanceMeters>NAN</DistanceMeters>
          </Trackpoint>
          <Trackpoint>
            <Time>2020-05-25T05:02:07.000Z</Time>
            <Position>
              <LatitudeDegrees>38.06824528612196445465087890625</LatitudeDegrees>
              <LongitudeDegrees>-1.088845767080783843994140625</LongitudeDegrees>
            </Position>
            <AltitudeMeters>128.1999969482421875</AltitudeMeters>
            <DistanceMeters>NAN</DistanceMeters>
          </Trackpoint>
          <Trackpoint>
            <Time>2020-05-25T05:02:08.000Z</Time>
            <Position>
              <LatitudeDegrees>38.068407475948333740234375</LatitudeDegrees>
              <LongitudeDegrees>-1.08886965550482273101806640625</LongitudeDegrees>
            </Position>
            <AltitudeMeters>128</AltitudeMeters>
            <DistanceMeters>NAN</DistanceMeters>
          </Trackpoint>
          <Trackpoint>
            <Time>2020-05-25T05:02:09.000Z</Time>
            <Position>
              <LatitudeDegrees>38.068407475948333740234375</LatitudeDegrees>
              <LongitudeDegrees>-1.08886965550482273101806640625</LongitudeDegrees>
            </Position>
            <AltitudeMeters>127.8000030517578125</AltitudeMeters>
            <DistanceMeters>NAN</DistanceMeters>
          </Trackpoint>
          <Trackpoint>
            <Time>2020-05-25T05:02:10.000Z</Time>
            <Position>
              <LatitudeDegrees>38.06848919950425624847412109375</LatitudeDegrees>
              <LongitudeDegrees>-1.08888088725507259368896484375</LongitudeDegrees>
            </Position>
            <AltitudeMeters>127.59999847412109375</AltitudeMeters>
            <DistanceMeters>NAN</DistanceMeters>
          </Trackpoint>
          <Trackpoint>
            <Time>2020-05-25T05:02:11.000Z</Time>
            <Position>
              <LatitudeDegrees>38.06857218034565448760986328125</LatitudeDegrees>
              <LongitudeDegrees>-1.088892035186290740966796875</LongitudeDegrees>
            </Position>
            <AltitudeMeters>127.40000152587890625</AltitudeMeters>
            <DistanceMeters>NAN</DistanceMeters>
          </Trackpoint>
          <Trackpoint>
            <Time>2020-05-25T05:02:12.000Z</Time>
            <Position>
              <LatitudeDegrees>38.0687414109706878662109375</LatitudeDegrees>
              <LongitudeDegrees>-1.088915504515171051025390625</LongitudeDegrees>
            </Position>
            <AltitudeMeters>127.1999969482421875</AltitudeMeters>
            <DistanceMeters>NAN</DistanceMeters>
          </Trackpoint>
          <Trackpoint>
            <Time>2020-05-25T05:02:13.000Z</Time>
            <Position>
              <LatitudeDegrees>38.0687414109706878662109375</LatitudeDegrees>
              <LongitudeDegrees>-1.088915504515171051025390625</LongitudeDegrees>
            </Position>
            <AltitudeMeters>127.1999969482421875</AltitudeMeters>
            <DistanceMeters>NAN</DistanceMeters>
          </Trackpoint>
          <Trackpoint>
            <Time>2020-05-25T05:02:14.000Z</Time>
            <Position>
              <LatitudeDegrees>38.06891332380473613739013671875</LatitudeDegrees>
              <LongitudeDegrees>-1.08893821947276592254638671875</LongitudeDegrees>
            </Position>
            <AltitudeMeters>127</AltitudeMeters>
            <DistanceMeters>NAN</DistanceMeters>
          </Trackpoint>
          <Trackpoint>
            <Time>2020-05-25T05:02:15.000Z</Time>
            <Position>
              <LatitudeDegrees>38.06891332380473613739013671875</LatitudeDegrees>
              <LongitudeDegrees>-1.08893821947276592254638671875</LongitudeDegrees>
            </Position>
            <AltitudeMeters>126.8000030517578125</AltitudeMeters>
            <DistanceMeters>NAN</DistanceMeters>
          </Trackpoint>
          <Trackpoint>
            <Time>2020-05-25T05:02:16.000Z</Time>
            <Position>
              <LatitudeDegrees>38.068997226655483245849609375</LatitudeDegrees>
              <LongitudeDegrees>-1.08895012177526950836181640625</LongitudeDegrees>
            </Position>
            <AltitudeMeters>126.59999847412109375</AltitudeMeters>
            <DistanceMeters>NAN</DistanceMeters>
          </Trackpoint>
          <Trackpoint>
            <Time>2020-05-25T05:02:17.000Z</Time>
            <Position>
              <LatitudeDegrees>38.06908129714429378509521484375</LatitudeDegrees>
              <LongitudeDegrees>-1.0889626108109951019287109375</LongitudeDegrees>
            </Position>
            <AltitudeMeters>126.40000152587890625</AltitudeMeters>
            <DistanceMeters>NAN</DistanceMeters>
          </Trackpoint>
          <Trackpoint>
            <Time>2020-05-25T05:02:18.000Z</Time>
            <Position>
              <LatitudeDegrees>38.06925128214061260223388671875</LatitudeDegrees>
              <LongitudeDegrees>-1.08898633159697055816650390625</LongitudeDegrees>
            </Position>
            <AltitudeMeters>126.1999969482421875</AltitudeMeters>
            <DistanceMeters>NAN</DistanceMeters>
          </Trackpoint>
          <Trackpoint>
            <Time>2020-05-25T05:02:19.000Z</Time>
            <Position>
              <LatitudeDegrees>38.06925128214061260223388671875</LatitudeDegrees>
              <LongitudeDegrees>-1.08898633159697055816650390625</LongitudeDegrees>
            </Position>
            <AltitudeMeters>125.8000030517578125</AltitudeMeters>
            <DistanceMeters>NAN</DistanceMeters>
          </Trackpoint>
          <Trackpoint>
            <Time>2020-05-25T05:02:20.000Z</Time>
            <Position>
              <LatitudeDegrees>38.06942478753626346588134765625</LatitudeDegrees>
              <LongitudeDegrees>-1.089010722935199737548828125</LongitudeDegrees>
            </Position>
            <AltitudeMeters>125.59999847412109375</AltitudeMeters>
            <DistanceMeters>NAN</DistanceMeters>
          </Trackpoint>
          <Trackpoint>
            <Time>2020-05-25T05:02:21.000Z</Time>
            <Position>
              <LatitudeDegrees>38.06942478753626346588134765625</LatitudeDegrees>
              <LongitudeDegrees>-1.089010722935199737548828125</LongitudeDegrees>
            </Position>
            <AltitudeMeters>125.40000152587890625</AltitudeMeters>
            <DistanceMeters>NAN</DistanceMeters>
          </Trackpoint>
          <Trackpoint>
            <Time>2020-05-25T05:02:22.000Z</Time>
            <Position>
              <LatitudeDegrees>38.069512210786342620849609375</LatitudeDegrees>
              <LongitudeDegrees>-1.08902287669479846954345703125</LongitudeDegrees>
            </Position>
            <AltitudeMeters>125.40000152587890625</AltitudeMeters>
            <DistanceMeters>NAN</DistanceMeters>
          </Trackpoint>
          <Trackpoint>
            <Time>2020-05-25T05:02:23.000Z</Time>
            <Position>
              <LatitudeDegrees>38.0695992149412631988525390625</LatitudeDegrees>
              <LongitudeDegrees>-1.0890350304543972015380859375</LongitudeDegrees>
            </Position>
            <AltitudeMeters>125.1999969482421875</AltitudeMeters>
            <DistanceMeters>NAN</DistanceMeters>
          </Trackpoint>
          <Trackpoint>
            <Time>2020-05-25T05:02:24.000Z</Time>
            <Position>
              <LatitudeDegrees>38.0697725526988506317138671875</LatitudeDegrees>
              <LongitudeDegrees>-1.0890598408877849578857421875</LongitudeDegrees>
            </Position>
            <AltitudeMeters>125</AltitudeMeters>
            <DistanceMeters>NAN</DistanceMeters>
          </Trackpoint>
          <Trackpoint>
            <Time>2020-05-25T05:02:25.000Z</Time>
            <Position>
              <LatitudeDegrees>38.0697725526988506317138671875</LatitudeDegrees>
              <LongitudeDegrees>-1.0890598408877849578857421875</LongitudeDegrees>
            </Position>
            <AltitudeMeters>124.8000030517578125</AltitudeMeters>
            <DistanceMeters>NAN</DistanceMeters>
          </Trackpoint>
          <Trackpoint>
            <Time>2020-05-25T05:02:26.000Z</Time>
            <Position>
              <LatitudeDegrees>38.0699430406093597412109375</LatitudeDegrees>
              <LongitudeDegrees>-1.08908859081566333770751953125</LongitudeDegrees>
            </Position>
            <AltitudeMeters>124.8000030517578125</AltitudeMeters>
            <DistanceMeters>NAN</DistanceMeters>
          </Trackpoint>
          <Trackpoint>
            <Time>2020-05-25T05:02:27.000Z</Time>
            <Position>
              <LatitudeDegrees>38.0699430406093597412109375</LatitudeDegrees>
              <LongitudeDegrees>-1.08908859081566333770751953125</LongitudeDegrees>
            </Position>
            <AltitudeMeters>124.59999847412109375</AltitudeMeters>
            <DistanceMeters>NAN</DistanceMeters>
          </Trackpoint>
          <Trackpoint>
            <Time>2020-05-25T05:02:28.000Z</Time>
            <Position>
              <LatitudeDegrees>38.07002794928848743438720703125</LatitudeDegrees>
              <LongitudeDegrees>-1.08910434879362583160400390625</LongitudeDegrees>
            </Position>
            <AltitudeMeters>124.59999847412109375</AltitudeMeters>
            <DistanceMeters>NAN</DistanceMeters>
          </Trackpoint>
          <Trackpoint>
            <Time>2020-05-25T05:02:29.000Z</Time>
            <Position>
              <LatitudeDegrees>38.07011260651051998138427734375</LatitudeDegrees>
              <LongitudeDegrees>-1.08912044204771518707275390625</LongitudeDegrees>
            </Position>
            <AltitudeMeters>124.40000152587890625</AltitudeMeters>
            <DistanceMeters>NAN</DistanceMeters>
          </Trackpoint>
          <Trackpoint>
            <Time>2020-05-25T05:02:30.000Z</Time>
            <Position>
              <LatitudeDegrees>38.07028192095458507537841796875</LatitudeDegrees>
              <LongitudeDegrees>-1.0891533829271793365478515625</LongitudeDegrees>
            </Position>
            <AltitudeMeters>124.1999969482421875</AltitudeMeters>
            <DistanceMeters>NAN</DistanceMeters>
          </Trackpoint>
          <Trackpoint>
            <Time>2020-05-25T05:02:31.000Z</Time>
            <Position>
              <LatitudeDegrees>38.07028192095458507537841796875</LatitudeDegrees>
              <LongitudeDegrees>-1.0891533829271793365478515625</LongitudeDegrees>
            </Position>
            <AltitudeMeters>124.1999969482421875</AltitudeMeters>
            <DistanceMeters>NAN</DistanceMeters>
          </Trackpoint>
          <Trackpoint>
            <Time>2020-05-25T05:02:32.000Z</Time>
            <Position>
              <LatitudeDegrees>38.0704498104751110076904296875</LatitudeDegrees>
              <LongitudeDegrees>-1.0891832225024700164794921875</LongitudeDegrees>
            </Position>
            <AltitudeMeters>124.1999969482421875</AltitudeMeters>
            <DistanceMeters>NAN</DistanceMeters>
          </Trackpoint>
          <Trackpoint>
            <Time>2020-05-25T05:02:33.000Z</Time>
            <Position>
              <LatitudeDegrees>38.0704498104751110076904296875</LatitudeDegrees>
              <LongitudeDegrees>-1.0891832225024700164794921875</LongitudeDegrees>
            </Position>
            <AltitudeMeters>124</AltitudeMeters>
            <DistanceMeters>NAN</DistanceMeters>
          </Trackpoint>
          <Trackpoint>
            <Time>2020-05-25T05:02:34.000Z</Time>
            <Position>
              <LatitudeDegrees>38.0705339647829532623291015625</LatitudeDegrees>
              <LongitudeDegrees>-1.089196465909481048583984375</LongitudeDegrees>
            </Position>
            <AltitudeMeters>123.8000030517578125</AltitudeMeters>
            <DistanceMeters>NAN</DistanceMeters>
          </Trackpoint>
          <Trackpoint>
            <Time>2020-05-25T05:02:35.000Z</Time>
            <Position>
              <LatitudeDegrees>38.07061853818595409393310546875</LatitudeDegrees>
              <LongitudeDegrees>-1.08920912258327007293701171875</LongitudeDegrees>
            </Position>
            <AltitudeMeters>123.59999847412109375</AltitudeMeters>
            <DistanceMeters>NAN</DistanceMeters>
          </Trackpoint>
          <Trackpoint>
            <Time>2020-05-25T05:02:36.000Z</Time>
            <Position>
              <LatitudeDegrees>38.07078785263001918792724609375</LatitudeDegrees>
              <LongitudeDegrees>-1.08923041261732578277587890625</LongitudeDegrees>
            </Position>
            <AltitudeMeters>123.59999847412109375</AltitudeMeters>
            <DistanceMeters>NAN</DistanceMeters>
          </Trackpoint>
          <Trackpoint>
            <Time>2020-05-25T05:02:37.000Z</Time>
            <Position>
              <LatitudeDegrees>38.07078785263001918792724609375</LatitudeDegrees>
              <LongitudeDegrees>-1.08923041261732578277587890625</LongitudeDegrees>
            </Position>
            <AltitudeMeters>123.40000152587890625</AltitudeMeters>
            <DistanceMeters>NAN</DistanceMeters>
          </Trackpoint>
          <Trackpoint>
            <Time>2020-05-25T05:02:38.000Z</Time>
            <Position>
              <LatitudeDegrees>38.07095758616924285888671875</LatitudeDegrees>
              <LongitudeDegrees>-1.08925379812717437744140625</LongitudeDegrees>
            </Position>
            <AltitudeMeters>123.40000152587890625</AltitudeMeters>
            <DistanceMeters>NAN</DistanceMeters>
          </Trackpoint>
          <Trackpoint>
            <Time>2020-05-25T05:02:39.000Z</Time>
            <Position>
              <LatitudeDegrees>38.07095758616924285888671875</LatitudeDegrees>
              <LongitudeDegrees>-1.08925379812717437744140625</LongitudeDegrees>
            </Position>
            <AltitudeMeters>123.1999969482421875</AltitudeMeters>
            <DistanceMeters>NAN</DistanceMeters>
          </Trackpoint>
          <Trackpoint>
            <Time>2020-05-25T05:02:40.000Z</Time>
            <Position>
              <LatitudeDegrees>38.07104215957224369049072265625</LatitudeDegrees>
              <LongitudeDegrees>-1.08926544897258281707763671875</LongitudeDegrees>
            </Position>
            <AltitudeMeters>123</AltitudeMeters>
            <DistanceMeters>NAN</DistanceMeters>
          </Trackpoint>
          <Trackpoint>
            <Time>2020-05-25T05:02:41.000Z</Time>
            <Position>
              <LatitudeDegrees>38.071126900613307952880859375</LatitudeDegrees>
              <LongitudeDegrees>-1.08927751891314983367919921875</LongitudeDegrees>
            </Position>
            <AltitudeMeters>122.8000030517578125</AltitudeMeters>
            <DistanceMeters>NAN</DistanceMeters>
          </Trackpoint>
          <Trackpoint>
            <Time>2020-05-25T05:02:42.000Z</Time>
            <Position>
              <LatitudeDegrees>38.0712963826954364776611328125</LatitudeDegrees>
              <LongitudeDegrees>-1.08930165879428386688232421875</LongitudeDegrees>
            </Position>
            <AltitudeMeters>122.8000030517578125</AltitudeMeters>
            <DistanceMeters>NAN</DistanceMeters>
          </Trackpoint>
          <Trackpoint>
            <Time>2020-05-25T05:02:43.000Z</Time>
            <Position>
              <LatitudeDegrees>38.0712963826954364776611328125</LatitudeDegrees>
              <LongitudeDegrees>-1.08930165879428386688232421875</LongitudeDegrees>
            </Position>
            <AltitudeMeters>122.59999847412109375</AltitudeMeters>
            <DistanceMeters>NAN</DistanceMeters>
          </Trackpoint>
          <Trackpoint>
            <Time>2020-05-25T05:02:44.000Z</Time>
            <Position>
              <LatitudeDegrees>38.071466200053691864013671875</LatitudeDegrees>
              <LongitudeDegrees>-1.0893247090280055999755859375</LongitudeDegrees>
            </Position>
            <AltitudeMeters>122.59999847412109375</AltitudeMeters>
            <DistanceMeters>NAN</DistanceMeters>
          </Trackpoint>
          <Trackpoint>
            <Time>2020-05-25T05:02:45.000Z</Time>
            <Position>
              <LatitudeDegrees>38.071466200053691864013671875</LatitudeDegrees>
              <LongitudeDegrees>-1.0893247090280055999755859375</LongitudeDegrees>
            </Position>
            <AltitudeMeters>122.40000152587890625</AltitudeMeters>
            <DistanceMeters>NAN</DistanceMeters>
          </Trackpoint>
          <Trackpoint>
            <Time>2020-05-25T05:02:46.000Z</Time>
            <Position>
              <LatitudeDegrees>38.07155211456120014190673828125</LatitudeDegrees>
              <LongitudeDegrees>-1.08933627605438232421875</LongitudeDegrees>
            </Position>
            <AltitudeMeters>122.1999969482421875</AltitudeMeters>
            <DistanceMeters>NAN</DistanceMeters>
          </Trackpoint>
          <Trackpoint>
            <Time>2020-05-25T05:02:47.000Z</Time>
            <Position>
              <LatitudeDegrees>38.0716356821358203887939453125</LatitudeDegrees>
              <LongitudeDegrees>-1.08934767544269561767578125</LongitudeDegrees>
            </Position>
            <AltitudeMeters>122.1999969482421875</AltitudeMeters>
            <DistanceMeters>NAN</DistanceMeters>
          </Trackpoint>
          <Trackpoint>
            <Time>2020-05-25T05:02:48.000Z</Time>
            <Position>
              <LatitudeDegrees>38.071802817285060882568359375</LatitudeDegrees>
              <LongitudeDegrees>-1.0893706418573856353759765625</LongitudeDegrees>
            </Position>
            <AltitudeMeters>122</AltitudeMeters>
            <DistanceMeters>NAN</DistanceMeters>
          </Trackpoint>
          <Trackpoint>
            <Time>2020-05-25T05:02:49.000Z</Time>
            <Position>
              <LatitudeDegrees>38.071802817285060882568359375</LatitudeDegrees>
              <LongitudeDegrees>-1.0893706418573856353759765625</LongitudeDegrees>
            </Position>
            <AltitudeMeters>121.8000030517578125</AltitudeMeters>
            <DistanceMeters>NAN</DistanceMeters>
          </Trackpoint>
          <Trackpoint>
            <Time>2020-05-25T05:02:50.000Z</Time>
            <Position>
              <LatitudeDegrees>38.07196517474949359893798828125</LatitudeDegrees>
              <LongitudeDegrees>-1.08939453028142452239990234375</LongitudeDegrees>
            </Position>
            <AltitudeMeters>121.8000030517578125</AltitudeMeters>
            <DistanceMeters>NAN</DistanceMeters>
          </Trackpoint>
          <Trackpoint>
            <Time>2020-05-25T05:02:51.000Z</Time>
            <Position>
              <LatitudeDegrees>38.07196517474949359893798828125</LatitudeDegrees>
              <LongitudeDegrees>-1.08939453028142452239990234375</LongitudeDegrees>
            </Position>
            <AltitudeMeters>121.8000030517578125</AltitudeMeters>
            <DistanceMeters>NAN</DistanceMeters>
          </Trackpoint>
          <Trackpoint>
            <Time>2020-05-25T05:02:52.000Z</Time>
            <Position>
              <LatitudeDegrees>38.07204631157219409942626953125</LatitudeDegrees>
              <LongitudeDegrees>-1.08940601348876953125</LongitudeDegrees>
            </Position>
            <AltitudeMeters>121.8000030517578125</AltitudeMeters>
            <DistanceMeters>NAN</DistanceMeters>
          </Trackpoint>
          <Trackpoint>
            <Time>2020-05-25T05:02:53.000Z</Time>
            <Position>
              <LatitudeDegrees>38.07212769985198974609375</LatitudeDegrees>
              <LongitudeDegrees>-1.08941682614386081695556640625</LongitudeDegrees>
            </Position>
            <AltitudeMeters>121.8000030517578125</AltitudeMeters>
            <DistanceMeters>NAN</DistanceMeters>
          </Trackpoint>
          <Trackpoint>
            <Time>2020-05-25T05:02:54.000Z</Time>
            <Position>
              <LatitudeDegrees>38.07229056023061275482177734375</LatitudeDegrees>
              <LongitudeDegrees>-1.08943878673017024993896484375</LongitudeDegrees>
            </Position>
            <AltitudeMeters>121.8000030517578125</AltitudeMeters>
            <DistanceMeters>NAN</DistanceMeters>
          </Trackpoint>
          <Trackpoint>
            <Time>2020-05-25T05:02:55.000Z</Time>
            <Position>
              <LatitudeDegrees>38.07229056023061275482177734375</LatitudeDegrees>
              <LongitudeDegrees>-1.08943878673017024993896484375</LongitudeDegrees>
            </Position>
            <AltitudeMeters>121.8000030517578125</AltitudeMeters>
            <DistanceMeters>NAN</DistanceMeters>
          </Trackpoint>
          <Trackpoint>
            <Time>2020-05-25T05:02:56.000Z</Time>
            <Position>
              <LatitudeDegrees>38.0724524147808551788330078125</LatitudeDegrees>
              <LongitudeDegrees>-1.08946166932582855224609375</LongitudeDegrees>
            </Position>
            <AltitudeMeters>121.8000030517578125</AltitudeMeters>
            <DistanceMeters>NAN</DistanceMeters>
          </Trackpoint>
          <Trackpoint>
            <Time>2020-05-25T05:02:57.000Z</Time>
            <Position>
              <LatitudeDegrees>38.0724524147808551788330078125</LatitudeDegrees>
              <LongitudeDegrees>-1.08946166932582855224609375</LongitudeDegrees>
            </Position>
            <AltitudeMeters>121.59999847412109375</AltitudeMeters>
            <DistanceMeters>NAN</DistanceMeters>
          </Trackpoint>
          <Trackpoint>
            <Time>2020-05-25T05:02:58.000Z</Time>
            <Position>
              <LatitudeDegrees>38.07253262959420680999755859375</LatitudeDegrees>
              <LongitudeDegrees>-1.0894729010760784149169921875</LongitudeDegrees>
            </Position>
            <AltitudeMeters>121.59999847412109375</AltitudeMeters>
            <DistanceMeters>NAN</DistanceMeters>
          </Trackpoint>
          <Trackpoint>
            <Time>2020-05-25T05:02:59.000Z</Time>
            <Position>
              <LatitudeDegrees>38.0726118385791778564453125</LatitudeDegrees>
              <LongitudeDegrees>-1.089484132826328277587890625</LongitudeDegrees>
            </Position>
            <AltitudeMeters>121.59999847412109375</AltitudeMeters>
            <DistanceMeters>NAN</DistanceMeters>
          </Trackpoint>
          <Trackpoint>
            <Time>2020-05-25T05:03:00.000Z</Time>
            <Position>
              <LatitudeDegrees>38.07276899926364421844482421875</LatitudeDegrees>
              <LongitudeDegrees>-1.0895050875842571258544921875</LongitudeDegrees>
            </Position>
            <AltitudeMeters>121.59999847412109375</AltitudeMeters>
            <DistanceMeters>NAN</DistanceMeters>
          </Trackpoint>
          <Trackpoint>
            <Time>2020-05-25T05:03:01.000Z</Time>
            <Position>
              <LatitudeDegrees>38.07276899926364421844482421875</LatitudeDegrees>
              <LongitudeDegrees>-1.0895050875842571258544921875</LongitudeDegrees>
            </Position>
            <AltitudeMeters>121.59999847412109375</AltitudeMeters>
            <DistanceMeters>NAN</DistanceMeters>
          </Trackpoint>
          <Trackpoint>
            <Time>2020-05-25T05:03:02.000Z</Time>
            <Position>
              <LatitudeDegrees>38.07292423211038112640380859375</LatitudeDegrees>
              <LongitudeDegrees>-1.089526712894439697265625</LongitudeDegrees>
            </Position>
            <AltitudeMeters>121.8000030517578125</AltitudeMeters>
            <DistanceMeters>NAN</DistanceMeters>
          </Trackpoint>
          <Trackpoint>
            <Time>2020-05-25T05:03:03.000Z</Time>
            <Position>
              <LatitudeDegrees>38.07292423211038112640380859375</LatitudeDegrees>
              <LongitudeDegrees>-1.089526712894439697265625</LongitudeDegrees>
            </Position>
            <AltitudeMeters>121.8000030517578125</AltitudeMeters>
            <DistanceMeters>NAN</DistanceMeters>
          </Trackpoint>
          <Trackpoint>
            <Time>2020-05-25T05:03:04.000Z</Time>
            <Position>
              <LatitudeDegrees>38.0730015970766544342041015625</LatitudeDegrees>
              <LongitudeDegrees>-1.08953752554953098297119140625</LongitudeDegrees>
            </Position>
            <AltitudeMeters>121.8000030517578125</AltitudeMeters>
            <DistanceMeters>NAN</DistanceMeters>
          </Trackpoint>
          <Trackpoint>
            <Time>2020-05-25T05:03:05.000Z</Time>
            <Position>
              <LatitudeDegrees>38.07307787239551544189453125</LatitudeDegrees>
              <LongitudeDegrees>-1.0895486734807491302490234375</LongitudeDegrees>
            </Position>
            <AltitudeMeters>121.8000030517578125</AltitudeMeters>
            <DistanceMeters>NAN</DistanceMeters>
          </Trackpoint>
          <Trackpoint>
            <Time>2020-05-25T05:03:06.000Z</Time>
            <Position>
              <LatitudeDegrees>38.07322983630001544952392578125</LatitudeDegrees>
              <LongitudeDegrees>-1.08957172371447086334228515625</LongitudeDegrees>
            </Position>
            <AltitudeMeters>121.8000030517578125</AltitudeMeters>
            <DistanceMeters>NAN</DistanceMeters>
          </Trackpoint>
          <Trackpoint>
            <Time>2020-05-25T05:03:07.000Z</Time>
            <Position>
              <LatitudeDegrees>38.07322983630001544952392578125</LatitudeDegrees>
              <LongitudeDegrees>-1.08957172371447086334228515625</LongitudeDegrees>
            </Position>
            <AltitudeMeters>121.8000030517578125</AltitudeMeters>
            <DistanceMeters>NAN</DistanceMeters>
          </Trackpoint>
          <Trackpoint>
            <Time>2020-05-25T05:03:08.000Z</Time>
            <Position>
              <LatitudeDegrees>38.073381297290325164794921875</LatitudeDegrees>
              <LongitudeDegrees>-1.08959376811981201171875</LongitudeDegrees>
            </Position>
            <AltitudeMeters>121.8000030517578125</AltitudeMeters>
            <DistanceMeters>NAN</DistanceMeters>
          </Trackpoint>
          <Trackpoint>
            <Time>2020-05-25T05:03:09.000Z</Time>
            <Position>
              <LatitudeDegrees>38.073381297290325164794921875</LatitudeDegrees>
              <LongitudeDegrees>-1.08959376811981201171875</LongitudeDegrees>
            </Position>
            <AltitudeMeters>121.59999847412109375</AltitudeMeters>
            <DistanceMeters>NAN</DistanceMeters>
          </Trackpoint>
          <Trackpoint>
            <Time>2020-05-25T05:03:10.000Z</Time>
            <Position>
              <LatitudeDegrees>38.0734572373330593109130859375</LatitudeDegrees>
              <LongitudeDegrees>-1.0896043293178081512451171875</LongitudeDegrees>
            </Position>
            <AltitudeMeters>121.59999847412109375</AltitudeMeters>
            <DistanceMeters>NAN</DistanceMeters>
          </Trackpoint>
          <Trackpoint>
            <Time>2020-05-25T05:03:11.000Z</Time>
            <Position>
              <LatitudeDegrees>38.07353326119482517242431640625</LatitudeDegrees>
              <LongitudeDegrees>-1.08961430378258228302001953125</LongitudeDegrees>
            </Position>
            <AltitudeMeters>121.8000030517578125</AltitudeMeters>
            <DistanceMeters>NAN</DistanceMeters>
          </Trackpoint>
          <Trackpoint>
            <Time>2020-05-25T05:03:12.000Z</Time>
            <Position>
              <LatitudeDegrees>38.0736855603754520416259765625</LatitudeDegrees>
              <LongitudeDegrees>-1.08963844366371631622314453125</LongitudeDegrees>
            </Position>
            <AltitudeMeters>121.59999847412109375</AltitudeMeters>
            <DistanceMeters>NAN</DistanceMeters>
          </Trackpoint>
          <Trackpoint>
            <Time>2020-05-25T05:03:13.000Z</Time>
            <Position>
              <LatitudeDegrees>38.0736855603754520416259765625</LatitudeDegrees>
              <LongitudeDegrees>-1.08963844366371631622314453125</LongitudeDegrees>
            </Position>
            <AltitudeMeters>121.59999847412109375</AltitudeMeters>
            <DistanceMeters>NAN</DistanceMeters>
          </Trackpoint>
          <Trackpoint>
            <Time>2020-05-25T05:03:14.000Z</Time>
            <Position>
              <LatitudeDegrees>38.07383961975574493408203125</LatitudeDegrees>
              <LongitudeDegrees>-1.08966141007840633392333984375</LongitudeDegrees>
            </Position>
            <AltitudeMeters>121.8000030517578125</AltitudeMeters>
            <DistanceMeters>NAN</DistanceMeters>
          </Trackpoint>
          <Trackpoint>
            <Time>2020-05-25T05:03:15.000Z</Time>
            <Position>
              <LatitudeDegrees>38.07383961975574493408203125</LatitudeDegrees>
              <LongitudeDegrees>-1.08966141007840633392333984375</LongitudeDegrees>
            </Position>
            <AltitudeMeters>121.8000030517578125</AltitudeMeters>
            <DistanceMeters>NAN</DistanceMeters>
          </Trackpoint>
          <Trackpoint>
            <Time>2020-05-25T05:03:16.000Z</Time>
            <Position>
              <LatitudeDegrees>38.073916733264923095703125</LatitudeDegrees>
              <LongitudeDegrees>-1.0896717198193073272705078125</LongitudeDegrees>
            </Position>
            <AltitudeMeters>121.8000030517578125</AltitudeMeters>
            <DistanceMeters>NAN</DistanceMeters>
          </Trackpoint>
          <Trackpoint>
            <Time>2020-05-25T05:03:17.000Z</Time>
            <Position>
              <LatitudeDegrees>38.07399393059313297271728515625</LatitudeDegrees>
              <LongitudeDegrees>-1.0896824486553668975830078125</LongitudeDegrees>
            </Position>
            <AltitudeMeters>121.8000030517578125</AltitudeMeters>
            <DistanceMeters>NAN</DistanceMeters>
          </Trackpoint>
          <Trackpoint>
            <Time>2020-05-25T05:03:18.000Z</Time>
            <Position>
              <LatitudeDegrees>38.07414581067860126495361328125</LatitudeDegrees>
              <LongitudeDegrees>-1.08970315195620059967041015625</LongitudeDegrees>
            </Position>
            <AltitudeMeters>121.8000030517578125</AltitudeMeters>
            <DistanceMeters>NAN</DistanceMeters>
          </Trackpoint>
          <Trackpoint>
            <Time>2020-05-25T05:03:19.000Z</Time>
            <Position>
              <LatitudeDegrees>38.07414581067860126495361328125</LatitudeDegrees>
              <LongitudeDegrees>-1.08970315195620059967041015625</LongitudeDegrees>
            </Position>
            <AltitudeMeters>121.8000030517578125</AltitudeMeters>
            <DistanceMeters>NAN</DistanceMeters>
          </Trackpoint>
          <Trackpoint>
            <Time>2020-05-25T05:03:20.000Z</Time>
            <Position>
              <LatitudeDegrees>38.07422074489295482635498046875</LatitudeDegrees>
              <LongitudeDegrees>-1.0897136293351650238037109375</LongitudeDegrees>
            </Position>
            <AltitudeMeters>121.8000030517578125</AltitudeMeters>
            <DistanceMeters>NAN</DistanceMeters>
          </Trackpoint>
          <Trackpoint>
            <Time>2020-05-25T05:03:21.000Z</Time>
            <Position>
              <LatitudeDegrees>38.07429567910730838775634765625</LatitudeDegrees>
              <LongitudeDegrees>-1.0897230170667171478271484375</LongitudeDegrees>
            </Position>
            <AltitudeMeters>121.8000030517578125</AltitudeMeters>
            <DistanceMeters>NAN</DistanceMeters>
          </Trackpoint>
          <Trackpoint>
            <Time>2020-05-25T05:03:22.000Z</Time>
            <Position>
              <LatitudeDegrees>38.07437128387391567230224609375</LatitudeDegrees>
              <LongitudeDegrees>-1.089732237160205841064453125</LongitudeDegrees>
            </Position>
            <AltitudeMeters>121.59999847412109375</AltitudeMeters>
            <DistanceMeters>NAN</DistanceMeters>
          </Trackpoint>
          <Trackpoint>
            <Time>2020-05-25T05:03:23.000Z</Time>
            <Position>
              <LatitudeDegrees>38.07444579899311065673828125</LatitudeDegrees>
              <LongitudeDegrees>-1.0897438041865825653076171875</LongitudeDegrees>
            </Position>
            <AltitudeMeters>121.59999847412109375</AltitudeMeters>
            <DistanceMeters>NAN</DistanceMeters>
          </Trackpoint>
          <Trackpoint>
            <Time>2020-05-25T05:03:24.000Z</Time>
            <Position>
              <LatitudeDegrees>38.07459290139377117156982421875</LatitudeDegrees>
              <LongitudeDegrees>-1.0897632502019405364990234375</LongitudeDegrees>
            </Position>
            <AltitudeMeters>121.59999847412109375</AltitudeMeters>
            <DistanceMeters>NAN</DistanceMeters>
          </Trackpoint>
          <Trackpoint>
            <Time>2020-05-25T05:03:25.000Z</Time>
            <Position>
              <LatitudeDegrees>38.07459290139377117156982421875</LatitudeDegrees>
              <LongitudeDegrees>-1.0897632502019405364990234375</LongitudeDegrees>
            </Position>
            <AltitudeMeters>121.59999847412109375</AltitudeMeters>
            <DistanceMeters>NAN</DistanceMeters>
          </Trackpoint>
          <Trackpoint>
            <Time>2020-05-25T05:03:26.000Z</Time>
            <Position>
              <LatitudeDegrees>38.07474008761346340179443359375</LatitudeDegrees>
              <LongitudeDegrees>-1.08978244476020336151123046875</LongitudeDegrees>
            </Position>
            <AltitudeMeters>121.40000152587890625</AltitudeMeters>
            <DistanceMeters>NAN</DistanceMeters>
          </Trackpoint>
          <Trackpoint>
            <Time>2020-05-25T05:03:27.000Z</Time>
            <Position>
              <LatitudeDegrees>38.07474008761346340179443359375</LatitudeDegrees>
              <LongitudeDegrees>-1.08978244476020336151123046875</LongitudeDegrees>
            </Position>
            <AltitudeMeters>121.40000152587890625</AltitudeMeters>
            <DistanceMeters>NAN</DistanceMeters>
          </Trackpoint>
          <Trackpoint>
            <Time>2020-05-25T05:03:28.000Z</Time>
            <Position>
              <LatitudeDegrees>38.07481317780911922454833984375</LatitudeDegrees>
              <LongitudeDegrees>-1.08979384414851665496826171875</LongitudeDegrees>
            </Position>
            <AltitudeMeters>121.40000152587890625</AltitudeMeters>
            <DistanceMeters>NAN</DistanceMeters>
          </Trackpoint>
          <Trackpoint>
            <Time>2020-05-25T05:03:29.000Z</Time>
            <Position>
              <LatitudeDegrees>38.07488643564283847808837890625</LatitudeDegrees>
              <LongitudeDegrees>-1.08980624936521053314208984375</LongitudeDegrees>
            </Position>
            <AltitudeMeters>121.40000152587890625</AltitudeMeters>
            <DistanceMeters>NAN</DistanceMeters>
          </Trackpoint>
          <Trackpoint>
            <Time>2020-05-25T05:03:30.000Z</Time>
            <Position>
              <LatitudeDegrees>38.07495935820043087005615234375</LatitudeDegrees>
              <LongitudeDegrees>-1.089818738400936126708984375</LongitudeDegrees>
            </Position>
            <AltitudeMeters>121.40000152587890625</AltitudeMeters>
            <DistanceMeters>NAN</DistanceMeters>
          </Trackpoint>
          <Trackpoint>
            <Time>2020-05-25T05:03:31.000Z</Time>
            <Position>
              <LatitudeDegrees>38.075032196938991546630859375</LatitudeDegrees>
              <LongitudeDegrees>-1.0898309759795665740966796875</LongitudeDegrees>
            </Position>
            <AltitudeMeters>121.40000152587890625</AltitudeMeters>
            <DistanceMeters>NAN</DistanceMeters>
          </Trackpoint>
          <Trackpoint>
            <Time>2020-05-25T05:03:32.000Z</Time>
            <Position>
              <LatitudeDegrees>38.07517846114933490753173828125</LatitudeDegrees>
              <LongitudeDegrees>-1.08985754661262035369873046875</LongitudeDegrees>
            </Position>
            <AltitudeMeters>121.40000152587890625</AltitudeMeters>
            <DistanceMeters>NAN</DistanceMeters>
          </Trackpoint>
          <Trackpoint>
            <Time>2020-05-25T05:03:33.000Z</Time>
            <Position>
              <LatitudeDegrees>38.07517846114933490753173828125</LatitudeDegrees>
              <LongitudeDegrees>-1.08985754661262035369873046875</LongitudeDegrees>
            </Position>
            <AltitudeMeters>121.40000152587890625</AltitudeMeters>
            <DistanceMeters>NAN</DistanceMeters>
          </Trackpoint>
          <Trackpoint>
            <Time>2020-05-25T05:03:34.000Z</Time>
            <Position>
              <LatitudeDegrees>38.07525138370692729949951171875</LatitudeDegrees>
              <LongitudeDegrees>-1.08987313695251941680908203125</LongitudeDegrees>
            </Position>
            <AltitudeMeters>121.40000152587890625</AltitudeMeters>
            <DistanceMeters>NAN</DistanceMeters>
          </Trackpoint>
          <Trackpoint>
            <Time>2020-05-25T05:03:35.000Z</Time>
            <Position>
              <LatitudeDegrees>38.07532422244548797607421875</LatitudeDegrees>
              <LongitudeDegrees>-1.08989124186336994171142578125</LongitudeDegrees>
            </Position>
            <AltitudeMeters>121.59999847412109375</AltitudeMeters>
            <DistanceMeters>NAN</DistanceMeters>
          </Trackpoint>
          <Trackpoint>
            <Time>2020-05-25T05:03:36.000Z</Time>
            <Position>
              <LatitudeDegrees>38.07547132484614849090576171875</LatitudeDegrees>
              <LongitudeDegrees>-1.08993600122630596160888671875</LongitudeDegrees>
            </Position>
            <AltitudeMeters>121.59999847412109375</AltitudeMeters>
            <DistanceMeters>NAN</DistanceMeters>
          </Trackpoint>
          <Trackpoint>
            <Time>2020-05-25T05:03:37.000Z</Time>
            <Position>
              <LatitudeDegrees>38.07547132484614849090576171875</LatitudeDegrees>
              <LongitudeDegrees>-1.08993600122630596160888671875</LongitudeDegrees>
            </Position>
            <AltitudeMeters>121.8000030517578125</AltitudeMeters>
            <DistanceMeters>NAN</DistanceMeters>
          </Trackpoint>
          <Trackpoint>
            <Time>2020-05-25T05:03:38.000Z</Time>
            <Position>
              <LatitudeDegrees>38.0756160803139209747314453125</LatitudeDegrees>
              <LongitudeDegrees>-1.08998813666403293609619140625</LongitudeDegrees>
            </Position>
            <AltitudeMeters>121.8000030517578125</AltitudeMeters>
            <DistanceMeters>NAN</DistanceMeters>
          </Trackpoint>
          <Trackpoint>
            <Time>2020-05-25T05:03:39.000Z</Time>
            <Position>
              <LatitudeDegrees>38.0756160803139209747314453125</LatitudeDegrees>
              <LongitudeDegrees>-1.08998813666403293609619140625</LongitudeDegrees>
            </Position>
            <AltitudeMeters>122</AltitudeMeters>
            <DistanceMeters>NAN</DistanceMeters>
          </Trackpoint>
          <Trackpoint>
            <Time>2020-05-25T05:03:40.000Z</Time>
            <Position>
              <LatitudeDegrees>38.07568774558603763580322265625</LatitudeDegrees>
              <LongitudeDegrees>-1.0900175571441650390625</LongitudeDegrees>
            </Position>
            <AltitudeMeters>122</AltitudeMeters>
            <DistanceMeters>NAN</DistanceMeters>
          </Trackpoint>
          <Trackpoint>
            <Time>2020-05-25T05:03:41.000Z</Time>
            <Position>
              <LatitudeDegrees>38.07575932703912258148193359375</LatitudeDegrees>
              <LongitudeDegrees>-1.0900478996336460113525390625</LongitudeDegrees>
            </Position>
            <AltitudeMeters>122</AltitudeMeters>
            <DistanceMeters>NAN</DistanceMeters>
          </Trackpoint>
          <Trackpoint>
            <Time>2020-05-25T05:03:42.000Z</Time>
            <Position>
              <LatitudeDegrees>38.075903914868831634521484375</LatitudeDegrees>
              <LongitudeDegrees>-1.09011344611644744873046875</LongitudeDegrees>
            </Position>
            <AltitudeMeters>122</AltitudeMeters>
            <DistanceMeters>NAN</DistanceMeters>
          </Trackpoint>
          <Trackpoint>
            <Time>2020-05-25T05:03:43.000Z</Time>
            <Position>
              <LatitudeDegrees>38.075903914868831634521484375</LatitudeDegrees>
              <LongitudeDegrees>-1.09011344611644744873046875</LongitudeDegrees>
            </Position>
            <AltitudeMeters>122</AltitudeMeters>
            <DistanceMeters>NAN</DistanceMeters>
          </Trackpoint>
          <Trackpoint>
            <Time>2020-05-25T05:03:44.000Z</Time>
            <Position>
              <LatitudeDegrees>38.075977675616741180419921875</LatitudeDegrees>
              <LongitudeDegrees>-1.09015191905200481414794921875</LongitudeDegrees>
            </Position>
            <AltitudeMeters>122</AltitudeMeters>
            <DistanceMeters>NAN</DistanceMeters>
          </Trackpoint>
          <Trackpoint>
            <Time>2020-05-25T05:03:45.000Z</Time>
            <Position>
              <LatitudeDegrees>38.07605168782174587249755859375</LatitudeDegrees>
              <LongitudeDegrees>-1.09019148163497447967529296875</LongitudeDegrees>
            </Position>
            <AltitudeMeters>122</AltitudeMeters>
            <DistanceMeters>NAN</DistanceMeters>
          </Trackpoint>
          <Trackpoint>
            <Time>2020-05-25T05:03:46.000Z</Time>
            <Position>
              <LatitudeDegrees>38.0761267058551311492919921875</LatitudeDegrees>
              <LongitudeDegrees>-1.09023137949407100677490234375</LongitudeDegrees>
            </Position>
            <AltitudeMeters>122</AltitudeMeters>
            <DistanceMeters>NAN</DistanceMeters>
          </Trackpoint>
          <Trackpoint>
            <Time>2020-05-25T05:03:47.000Z</Time>
            <Position>
              <LatitudeDegrees>38.0762028135359287261962890625</LatitudeDegrees>
              <LongitudeDegrees>-1.09027127735316753387451171875</LongitudeDegrees>
            </Position>
            <AltitudeMeters>122</AltitudeMeters>
            <DistanceMeters>NAN</DistanceMeters>
          </Trackpoint>
          <Trackpoint>
            <Time>2020-05-25T05:03:48.000Z</Time>
            <Position>
              <LatitudeDegrees>38.07636014185845851898193359375</LatitudeDegrees>
              <LongitudeDegrees>-1.09035157598555088043212890625</LongitudeDegrees>
            </Position>
            <AltitudeMeters>122</AltitudeMeters>
            <DistanceMeters>NAN</DistanceMeters>
          </Trackpoint>
          <Trackpoint>
            <Time>2020-05-25T05:03:49.000Z</Time>
            <Position>
              <LatitudeDegrees>38.07636014185845851898193359375</LatitudeDegrees>
              <LongitudeDegrees>-1.09035157598555088043212890625</LongitudeDegrees>
            </Position>
            <AltitudeMeters>122</AltitudeMeters>
            <DistanceMeters>NAN</DistanceMeters>
          </Trackpoint>
          <Trackpoint>
            <Time>2020-05-25T05:03:50.000Z</Time>
            <Position>
              <LatitudeDegrees>38.07651923038065433502197265625</LatitudeDegrees>
              <LongitudeDegrees>-1.09043489210307598114013671875</LongitudeDegrees>
            </Position>
            <AltitudeMeters>122</AltitudeMeters>
            <DistanceMeters>NAN</DistanceMeters>
          </Trackpoint>
          <Trackpoint>
            <Time>2020-05-25T05:03:51.000Z</Time>
            <Position>
              <LatitudeDegrees>38.07651923038065433502197265625</LatitudeDegrees>
              <LongitudeDegrees>-1.09043489210307598114013671875</LongitudeDegrees>
            </Position>
            <AltitudeMeters>122</AltitudeMeters>
            <DistanceMeters>NAN</DistanceMeters>
          </Trackpoint>
          <Trackpoint>
            <Time>2020-05-25T05:03:52.000Z</Time>
            <Position>
              <LatitudeDegrees>38.07659919373691082000732421875</LatitudeDegrees>
              <LongitudeDegrees>-1.0904770530760288238525390625</LongitudeDegrees>
            </Position>
            <AltitudeMeters>121.8000030517578125</AltitudeMeters>
            <DistanceMeters>NAN</DistanceMeters>
          </Trackpoint>
          <Trackpoint>
            <Time>2020-05-25T05:03:53.000Z</Time>
            <Position>
              <LatitudeDegrees>38.07668049819767475128173828125</LatitudeDegrees>
              <LongitudeDegrees>-1.09051980078220367431640625</LongitudeDegrees>
            </Position>
            <AltitudeMeters>121.59999847412109375</AltitudeMeters>
            <DistanceMeters>NAN</DistanceMeters>
          </Trackpoint>
          <Trackpoint>
            <Time>2020-05-25T05:03:54.000Z</Time>
            <Position>
              <LatitudeDegrees>38.0767620541155338287353515625</LatitudeDegrees>
              <LongitudeDegrees>-1.090562045574188232421875</LongitudeDegrees>
            </Position>
            <AltitudeMeters>121.40000152587890625</AltitudeMeters>
            <DistanceMeters>NAN</DistanceMeters>
          </Trackpoint>
          <Trackpoint>
            <Time>2020-05-25T05:03:55.000Z</Time>
            <Position>
              <LatitudeDegrees>38.0768431909382343292236328125</LatitudeDegrees>
              <LongitudeDegrees>-1.09060269780457019805908203125</LongitudeDegrees>
            </Position>
            <AltitudeMeters>121</AltitudeMeters>
            <DistanceMeters>NAN</DistanceMeters>
          </Trackpoint>
          <Trackpoint>
            <Time>2020-05-25T05:03:56.000Z</Time>
            <Position>
              <LatitudeDegrees>38.0769256688654422760009765625</LatitudeDegrees>
              <LongitudeDegrees>-1.0906433500349521636962890625</LongitudeDegrees>
            </Position>
            <AltitudeMeters>120.40000152587890625</AltitudeMeters>
            <DistanceMeters>NAN</DistanceMeters>
          </Trackpoint>
          <Trackpoint>
            <Time>2020-05-25T05:03:57.000Z</Time>
            <Position>
              <LatitudeDegrees>38.0770091526210308074951171875</LatitudeDegrees>
              <LongitudeDegrees>-1.09068609774112701416015625</LongitudeDegrees>
            </Position>
            <AltitudeMeters>120</AltitudeMeters>
            <DistanceMeters>NAN</DistanceMeters>
          </Trackpoint>
          <Trackpoint>
            <Time>2020-05-25T05:03:58.000Z</Time>
            <Position>
              <LatitudeDegrees>38.07709339074790477752685546875</LatitudeDegrees>
              <LongitudeDegrees>-1.09073027037084102630615234375</LongitudeDegrees>
            </Position>
            <AltitudeMeters>119.8000030517578125</AltitudeMeters>
            <DistanceMeters>NAN</DistanceMeters>
          </Trackpoint>
          <Trackpoint>
            <Time>2020-05-25T05:03:59.000Z</Time>
            <Position>
              <LatitudeDegrees>38.07717821560800075531005859375</LatitudeDegrees>
              <LongitudeDegrees>-1.0907751135528087615966796875</LongitudeDegrees>
            </Position>
            <AltitudeMeters>119.40000152587890625</AltitudeMeters>
            <DistanceMeters>NAN</DistanceMeters>
          </Trackpoint>
          <Trackpoint>
            <Time>2020-05-25T05:04:00.000Z</Time>
            <Position>
              <LatitudeDegrees>38.07726287283003330230712890625</LatitudeDegrees>
              <LongitudeDegrees>-1.0908193700015544891357421875</LongitudeDegrees>
            </Position>
            <AltitudeMeters>119.1999969482421875</AltitudeMeters>
            <DistanceMeters>NAN</DistanceMeters>
          </Trackpoint>
          <Trackpoint>
            <Time>2020-05-25T05:04:01.000Z</Time>
            <Position>
              <LatitudeDegrees>38.07734736241400241851806640625</LatitudeDegrees>
              <LongitudeDegrees>-1.090862452983856201171875</LongitudeDegrees>
            </Position>
            <AltitudeMeters>118.59999847412109375</AltitudeMeters>
            <DistanceMeters>NAN</DistanceMeters>
          </Trackpoint>
          <Trackpoint>
            <Time>2020-05-25T05:04:02.000Z</Time>
            <Position>
              <LatitudeDegrees>38.07751692831516265869140625</LatitudeDegrees>
              <LongitudeDegrees>-1.0909474454820156097412109375</LongitudeDegrees>
            </Position>
            <AltitudeMeters>118.40000152587890625</AltitudeMeters>
            <DistanceMeters>NAN</DistanceMeters>
          </Trackpoint>
          <Trackpoint>
            <Time>2020-05-25T05:04:03.000Z</Time>
            <Position>
              <LatitudeDegrees>38.07751692831516265869140625</LatitudeDegrees>
              <LongitudeDegrees>-1.0909474454820156097412109375</LongitudeDegrees>
            </Position>
            <AltitudeMeters>118.1999969482421875</AltitudeMeters>
            <DistanceMeters>NAN</DistanceMeters>
          </Trackpoint>
          <Trackpoint>
            <Time>2020-05-25T05:04:04.000Z</Time>
            <Position>
              <LatitudeDegrees>38.077602423727512359619140625</LatitudeDegrees>
              <LongitudeDegrees>-1.09099077992141246795654296875</LongitudeDegrees>
            </Position>
            <AltitudeMeters>117.8000030517578125</AltitudeMeters>
            <DistanceMeters>NAN</DistanceMeters>
          </Trackpoint>
          <Trackpoint>
            <Time>2020-05-25T05:04:05.000Z</Time>
            <Position>
              <LatitudeDegrees>38.07768858969211578369140625</LatitudeDegrees>
              <LongitudeDegrees>-1.09103570692241191864013671875</LongitudeDegrees>
            </Position>
            <AltitudeMeters>117.59999847412109375</AltitudeMeters>
            <DistanceMeters>NAN</DistanceMeters>
          </Trackpoint>
          <Trackpoint>
            <Time>2020-05-25T05:04:06.000Z</Time>
            <Position>
              <LatitudeDegrees>38.077862262725830078125</LatitudeDegrees>
              <LongitudeDegrees>-1.09112438745796680450439453125</LongitudeDegrees>
            </Position>
            <AltitudeMeters>117.1999969482421875</AltitudeMeters>
            <DistanceMeters>NAN</DistanceMeters>
          </Trackpoint>
          <Trackpoint>
            <Time>2020-05-25T05:04:07.000Z</Time>
            <Position>
              <LatitudeDegrees>38.077862262725830078125</LatitudeDegrees>
              <LongitudeDegrees>-1.09112438745796680450439453125</LongitudeDegrees>
            </Position>
            <AltitudeMeters>116.8000030517578125</AltitudeMeters>
            <DistanceMeters>NAN</DistanceMeters>
          </Trackpoint>
          <Trackpoint>
            <Time>2020-05-25T05:04:08.000Z</Time>
            <Position>
              <LatitudeDegrees>38.0779496021568775177001953125</LatitudeDegrees>
              <LongitudeDegrees>-1.0911690630018711090087890625</LongitudeDegrees>
            </Position>
            <AltitudeMeters>116.59999847412109375</AltitudeMeters>
            <DistanceMeters>NAN</DistanceMeters>
          </Trackpoint>
          <Trackpoint>
            <Time>2020-05-25T05:04:09.000Z</Time>
            <Position>
              <LatitudeDegrees>38.07803685776889324188232421875</LatitudeDegrees>
              <LongitudeDegrees>-1.09121541492640972137451171875</LongitudeDegrees>
            </Position>
            <AltitudeMeters>116.1999969482421875</AltitudeMeters>
            <DistanceMeters>NAN</DistanceMeters>
          </Trackpoint>
          <Trackpoint>
            <Time>2020-05-25T05:04:10.000Z</Time>
            <Position>
              <LatitudeDegrees>38.0781242810189723968505859375</LatitudeDegrees>
              <LongitudeDegrees>-1.09126034192740917205810546875</LongitudeDegrees>
            </Position>
            <AltitudeMeters>115.8000030517578125</AltitudeMeters>
            <DistanceMeters>NAN</DistanceMeters>
          </Trackpoint>
          <Trackpoint>
            <Time>2020-05-25T05:04:11.000Z</Time>
            <Position>
              <LatitudeDegrees>38.0782114528119564056396484375</LatitudeDegrees>
              <LongitudeDegrees>-1.09130493365228176116943359375</LongitudeDegrees>
            </Position>
            <AltitudeMeters>115.40000152587890625</AltitudeMeters>
            <DistanceMeters>NAN</DistanceMeters>
          </Trackpoint>
          <Trackpoint>
            <Time>2020-05-25T05:04:12.000Z</Time>
            <Position>
              <LatitudeDegrees>38.078298456966876983642578125</LatitudeDegrees>
              <LongitudeDegrees>-1.09134952537715435028076171875</LongitudeDegrees>
            </Position>
            <AltitudeMeters>115</AltitudeMeters>
            <DistanceMeters>NAN</DistanceMeters>
          </Trackpoint>
          <Trackpoint>
            <Time>2020-05-25T05:04:13.000Z</Time>
            <Position>
              <LatitudeDegrees>38.0783847905695438385009765625</LatitudeDegrees>
              <LongitudeDegrees>-1.09139462001621723175048828125</LongitudeDegrees>
            </Position>
            <AltitudeMeters>115</AltitudeMeters>
            <DistanceMeters>NAN</DistanceMeters>
          </Trackpoint>
          <Trackpoint>
            <Time>2020-05-25T05:04:14.000Z</Time>
            <Position>
              <LatitudeDegrees>38.078470788896083831787109375</LatitudeDegrees>
              <LongitudeDegrees>-1.09143988229334354400634765625</LongitudeDegrees>
            </Position>
            <AltitudeMeters>114.59999847412109375</AltitudeMeters>
            <DistanceMeters>NAN</DistanceMeters>
          </Trackpoint>
          <Trackpoint>
            <Time>2020-05-25T05:04:15.000Z</Time>
            <Position>
              <LatitudeDegrees>38.07855670340359210968017578125</LatitudeDegrees>
              <LongitudeDegrees>-1.09148397110402584075927734375</LongitudeDegrees>
            </Position>
            <AltitudeMeters>114.1999969482421875</AltitudeMeters>
            <DistanceMeters>NAN</DistanceMeters>
          </Trackpoint>
          <Trackpoint>
            <Time>2020-05-25T05:04:16.000Z</Time>
            <Position>
              <LatitudeDegrees>38.0786426179111003875732421875</LatitudeDegrees>
              <LongitudeDegrees>-1.0915274731814861297607421875</LongitudeDegrees>
            </Position>
            <AltitudeMeters>113.59999847412109375</AltitudeMeters>
            <DistanceMeters>NAN</DistanceMeters>
          </Trackpoint>
          <Trackpoint>
            <Time>2020-05-25T05:04:17.000Z</Time>
            <Position>
              <LatitudeDegrees>38.0787281133234500885009765625</LatitudeDegrees>
              <LongitudeDegrees>-1.0915710590779781341552734375</LongitudeDegrees>
            </Position>
            <AltitudeMeters>113.1999969482421875</AltitudeMeters>
            <DistanceMeters>NAN</DistanceMeters>
          </Trackpoint>
          <Trackpoint>
            <Time>2020-05-25T05:04:18.000Z</Time>
            <Position>
              <LatitudeDegrees>38.07881235145032405853271484375</LatitudeDegrees>
              <LongitudeDegrees>-1.0916143096983432769775390625</LongitudeDegrees>
            </Position>
            <AltitudeMeters>113</AltitudeMeters>
            <DistanceMeters>NAN</DistanceMeters>
          </Trackpoint>
          <Trackpoint>
            <Time>2020-05-25T05:04:19.000Z</Time>
            <Position>
              <LatitudeDegrees>38.07889424264430999755859375</LatitudeDegrees>
              <LongitudeDegrees>-1.091658733785152435302734375</LongitudeDegrees>
            </Position>
            <AltitudeMeters>112.8000030517578125</AltitudeMeters>
            <DistanceMeters>NAN</DistanceMeters>
          </Trackpoint>
          <Trackpoint>
            <Time>2020-05-25T05:04:20.000Z</Time>
            <Position>
              <LatitudeDegrees>38.07897605001926422119140625</LatitudeDegrees>
              <LongitudeDegrees>-1.09170173294842243194580078125</LongitudeDegrees>
            </Position>
            <AltitudeMeters>112.40000152587890625</AltitudeMeters>
            <DistanceMeters>NAN</DistanceMeters>
          </Trackpoint>
          <Trackpoint>
            <Time>2020-05-25T05:04:21.000Z</Time>
            <Position>
              <LatitudeDegrees>38.0790600366890430450439453125</LatitudeDegrees>
              <LongitudeDegrees>-1.091743223369121551513671875</LongitudeDegrees>
            </Position>
            <AltitudeMeters>111.8000030517578125</AltitudeMeters>
            <DistanceMeters>NAN</DistanceMeters>
          </Trackpoint>
          <Trackpoint>
            <Time>2020-05-25T05:04:22.000Z</Time>
            <Position>
              <LatitudeDegrees>38.07914368808269500732421875</LatitudeDegrees>
              <LongitudeDegrees>-1.09178588725626468658447265625</LongitudeDegrees>
            </Position>
            <AltitudeMeters>111.8000030517578125</AltitudeMeters>
            <DistanceMeters>NAN</DistanceMeters>
          </Trackpoint>
          <Trackpoint>
            <Time>2020-05-25T05:04:23.000Z</Time>
            <Position>
              <LatitudeDegrees>38.07922742329537868499755859375</LatitudeDegrees>
              <LongitudeDegrees>-1.09182930551469326019287109375</LongitudeDegrees>
            </Position>
            <AltitudeMeters>111.59999847412109375</AltitudeMeters>
            <DistanceMeters>NAN</DistanceMeters>
          </Trackpoint>
          <Trackpoint>
            <Time>2020-05-25T05:04:24.000Z</Time>
            <Position>
              <LatitudeDegrees>38.07931208051741123199462890625</LatitudeDegrees>
              <LongitudeDegrees>-1.09187297523021697998046875</LongitudeDegrees>
            </Position>
            <AltitudeMeters>111.40000152587890625</AltitudeMeters>
            <DistanceMeters>NAN</DistanceMeters>
          </Trackpoint>
          <Trackpoint>
            <Time>2020-05-25T05:04:25.000Z</Time>
            <Position>
              <LatitudeDegrees>38.07939824648201465606689453125</LatitudeDegrees>
              <LongitudeDegrees>-1.091916561126708984375</LongitudeDegrees>
            </Position>
            <AltitudeMeters>111.1999969482421875</AltitudeMeters>
            <DistanceMeters>NAN</DistanceMeters>
          </Trackpoint>
          <Trackpoint>
            <Time>2020-05-25T05:04:26.000Z</Time>
            <Position>
              <LatitudeDegrees>38.07957342825829982757568359375</LatitudeDegrees>
              <LongitudeDegrees>-1.09200297854840755462646484375</LongitudeDegrees>
            </Position>
            <AltitudeMeters>110.8000030517578125</AltitudeMeters>
            <DistanceMeters>NAN</DistanceMeters>
          </Trackpoint>
          <Trackpoint>
            <Time>2020-05-25T05:04:27.000Z</Time>
            <Position>
              <LatitudeDegrees>38.07957342825829982757568359375</LatitudeDegrees>
              <LongitudeDegrees>-1.09200297854840755462646484375</LongitudeDegrees>
            </Position>
            <AltitudeMeters>110.59999847412109375</AltitudeMeters>
            <DistanceMeters>NAN</DistanceMeters>
          </Trackpoint>
          <Trackpoint>
            <Time>2020-05-25T05:04:28.000Z</Time>
            <Position>
              <LatitudeDegrees>38.0796615220606327056884765625</LatitudeDegrees>
              <LongitudeDegrees>-1.0920461453497409820556640625</LongitudeDegrees>
            </Position>
            <AltitudeMeters>110.40000152587890625</AltitudeMeters>
            <DistanceMeters>NAN</DistanceMeters>
          </Trackpoint>
          <Trackpoint>
            <Time>2020-05-25T05:04:29.000Z</Time>
            <Position>
              <LatitudeDegrees>38.07974978350102901458740234375</LatitudeDegrees>
              <LongitudeDegrees>-1.092090904712677001953125</LongitudeDegrees>
            </Position>
            <AltitudeMeters>110.40000152587890625</AltitudeMeters>
            <DistanceMeters>NAN</DistanceMeters>
          </Trackpoint>
          <Trackpoint>
            <Time>2020-05-25T05:04:30.000Z</Time>
            <Position>
              <LatitudeDegrees>38.07992647401988506317138671875</LatitudeDegrees>
              <LongitudeDegrees>-1.09218302182853221893310546875</LongitudeDegrees>
            </Position>
            <AltitudeMeters>110.1999969482421875</AltitudeMeters>
            <DistanceMeters>NAN</DistanceMeters>
          </Trackpoint>
          <Trackpoint>
            <Time>2020-05-25T05:04:31.000Z</Time>
            <Position>
              <LatitudeDegrees>38.07992647401988506317138671875</LatitudeDegrees>
              <LongitudeDegrees>-1.09218302182853221893310546875</LongitudeDegrees>
            </Position>
            <AltitudeMeters>110.1999969482421875</AltitudeMeters>
            <DistanceMeters>NAN</DistanceMeters>
          </Trackpoint>
          <Trackpoint>
            <Time>2020-05-25T05:04:32.000Z</Time>
            <Position>
              <LatitudeDegrees>38.080015741288661956787109375</LatitudeDegrees>
              <LongitudeDegrees>-1.09222912229597568511962890625</LongitudeDegrees>
            </Position>
            <AltitudeMeters>110</AltitudeMeters>
            <DistanceMeters>NAN</DistanceMeters>
          </Trackpoint>
          <Trackpoint>
            <Time>2020-05-25T05:04:33.000Z</Time>
            <Position>
              <LatitudeDegrees>38.08010534383356571197509765625</LatitudeDegrees>
              <LongitudeDegrees>-1.092274300754070281982421875</LongitudeDegrees>
            </Position>
            <AltitudeMeters>110</AltitudeMeters>
            <DistanceMeters>NAN</DistanceMeters>
          </Trackpoint>
          <Trackpoint>
            <Time>2020-05-25T05:04:34.000Z</Time>
            <Position>
              <LatitudeDegrees>38.08019511401653289794921875</LatitudeDegrees>
              <LongitudeDegrees>-1.09231847338378429412841796875</LongitudeDegrees>
            </Position>
            <AltitudeMeters>109.8000030517578125</AltitudeMeters>
            <DistanceMeters>NAN</DistanceMeters>
          </Trackpoint>
          <Trackpoint>
            <Time>2020-05-25T05:04:35.000Z</Time>
            <Position>
              <LatitudeDegrees>38.08028505183756351470947265625</LatitudeDegrees>
              <LongitudeDegrees>-1.09236306510865688323974609375</LongitudeDegrees>
            </Position>
            <AltitudeMeters>109.8000030517578125</AltitudeMeters>
            <DistanceMeters>NAN</DistanceMeters>
          </Trackpoint>
          <Trackpoint>
            <Time>2020-05-25T05:04:36.000Z</Time>
            <Position>
              <LatitudeDegrees>38.0804668553173542022705078125</LatitudeDegrees>
              <LongitudeDegrees>-1.09245275147259235382080078125</LongitudeDegrees>
            </Position>
            <AltitudeMeters>109.40000152587890625</AltitudeMeters>
            <DistanceMeters>NAN</DistanceMeters>
          </Trackpoint>
          <Trackpoint>
            <Time>2020-05-25T05:04:37.000Z</Time>
            <Position>
              <LatitudeDegrees>38.0804668553173542022705078125</LatitudeDegrees>
              <LongitudeDegrees>-1.09245275147259235382080078125</LongitudeDegrees>
            </Position>
            <AltitudeMeters>109</AltitudeMeters>
            <DistanceMeters>NAN</DistanceMeters>
          </Trackpoint>
          <Trackpoint>
            <Time>2020-05-25T05:04:38.000Z</Time>
            <Position>
              <LatitudeDegrees>38.080648742616176605224609375</LatitudeDegrees>
              <LongitudeDegrees>-1.0925430245697498321533203125</LongitudeDegrees>
            </Position>
            <AltitudeMeters>108.59999847412109375</AltitudeMeters>
            <DistanceMeters>NAN</DistanceMeters>
          </Trackpoint>
          <Trackpoint>
            <Time>2020-05-25T05:04:39.000Z</Time>
            <Position>
              <LatitudeDegrees>38.080648742616176605224609375</LatitudeDegrees>
              <LongitudeDegrees>-1.0925430245697498321533203125</LongitudeDegrees>
            </Position>
            <AltitudeMeters>108.40000152587890625</AltitudeMeters>
            <DistanceMeters>NAN</DistanceMeters>
          </Trackpoint>
          <Trackpoint>
            <Time>2020-05-25T05:04:40.000Z</Time>
            <Position>
              <LatitudeDegrees>38.0807397700846195220947265625</LatitudeDegrees>
              <LongitudeDegrees>-1.09258644282817840576171875</LongitudeDegrees>
            </Position>
            <AltitudeMeters>108.1999969482421875</AltitudeMeters>
            <DistanceMeters>NAN</DistanceMeters>
          </Trackpoint>
          <Trackpoint>
            <Time>2020-05-25T05:04:41.000Z</Time>
            <Position>
              <LatitudeDegrees>38.08083213865756988525390625</LatitudeDegrees>
              <LongitudeDegrees>-1.092627346515655517578125</LongitudeDegrees>
            </Position>
            <AltitudeMeters>108</AltitudeMeters>
            <DistanceMeters>NAN</DistanceMeters>
          </Trackpoint>
          <Trackpoint>
            <Time>2020-05-25T05:04:42.000Z</Time>
            <Position>
              <LatitudeDegrees>38.081020228564739227294921875</LatitudeDegrees>
              <LongitudeDegrees>-1.0927037894725799560546875</LongitudeDegrees>
            </Position>
            <AltitudeMeters>107.59999847412109375</AltitudeMeters>
            <DistanceMeters>NAN</DistanceMeters>
          </Trackpoint>
          <Trackpoint>
            <Time>2020-05-25T05:04:43.000Z</Time>
            <Position>
              <LatitudeDegrees>38.081020228564739227294921875</LatitudeDegrees>
              <LongitudeDegrees>-1.0927037894725799560546875</LongitudeDegrees>
            </Position>
            <AltitudeMeters>107.40000152587890625</AltitudeMeters>
            <DistanceMeters>NAN</DistanceMeters>
          </Trackpoint>
          <Trackpoint>
            <Time>2020-05-25T05:04:44.000Z</Time>
            <Position>
              <LatitudeDegrees>38.081214688718318939208984375</LatitudeDegrees>
              <LongitudeDegrees>-1.09277377836406230926513671875</LongitudeDegrees>
            </Position>
            <AltitudeMeters>107</AltitudeMeters>
            <DistanceMeters>NAN</DistanceMeters>
          </Trackpoint>
          <Trackpoint>
            <Time>2020-05-25T05:04:45.000Z</Time>
            <Position>
              <LatitudeDegrees>38.081214688718318939208984375</LatitudeDegrees>
              <LongitudeDegrees>-1.09277377836406230926513671875</LongitudeDegrees>
            </Position>
            <AltitudeMeters>106.8000030517578125</AltitudeMeters>
            <DistanceMeters>NAN</DistanceMeters>
          </Trackpoint>
          <Trackpoint>
            <Time>2020-05-25T05:04:46.000Z</Time>
            <Position>
              <LatitudeDegrees>38.08131359517574310302734375</LatitudeDegrees>
              <LongitudeDegrees>-1.09280428849160671234130859375</LongitudeDegrees>
            </Position>
            <AltitudeMeters>106.40000152587890625</AltitudeMeters>
            <DistanceMeters>NAN</DistanceMeters>
          </Trackpoint>
          <Trackpoint>
            <Time>2020-05-25T05:04:47.000Z</Time>
            <Position>
              <LatitudeDegrees>38.08141283690929412841796875</LatitudeDegrees>
              <LongitudeDegrees>-1.09283312223851680755615234375</LongitudeDegrees>
            </Position>
            <AltitudeMeters>106.1999969482421875</AltitudeMeters>
            <DistanceMeters>NAN</DistanceMeters>
          </Trackpoint>
          <Trackpoint>
            <Time>2020-05-25T05:04:48.000Z</Time>
            <Position>
              <LatitudeDegrees>38.08161542750895023345947265625</LatitudeDegrees>
              <LongitudeDegrees>-1.0928754508495330810546875</LongitudeDegrees>
            </Position>
            <AltitudeMeters>105.59999847412109375</AltitudeMeters>
            <DistanceMeters>NAN</DistanceMeters>
          </Trackpoint>
          <Trackpoint>
            <Time>2020-05-25T05:04:49.000Z</Time>
            <Position>
              <LatitudeDegrees>38.08161542750895023345947265625</LatitudeDegrees>
              <LongitudeDegrees>-1.0928754508495330810546875</LongitudeDegrees>
            </Position>
            <AltitudeMeters>105.40000152587890625</AltitudeMeters>
            <DistanceMeters>NAN</DistanceMeters>
          </Trackpoint>
          <Trackpoint>
            <Time>2020-05-25T05:04:50.000Z</Time>
            <Position>
              <LatitudeDegrees>38.0818190239369869232177734375</LatitudeDegrees>
              <LongitudeDegrees>-1.09290026128292083740234375</LongitudeDegrees>
            </Position>
            <AltitudeMeters>105.1999969482421875</AltitudeMeters>
            <DistanceMeters>NAN</DistanceMeters>
          </Trackpoint>
          <Trackpoint>
            <Time>2020-05-25T05:04:51.000Z</Time>
            <Position>
              <LatitudeDegrees>38.0818190239369869232177734375</LatitudeDegrees>
              <LongitudeDegrees>-1.09290026128292083740234375</LongitudeDegrees>
            </Position>
            <AltitudeMeters>105</AltitudeMeters>
            <DistanceMeters>NAN</DistanceMeters>
          </Trackpoint>
          <Trackpoint>
            <Time>2020-05-25T05:04:52.000Z</Time>
            <Position>
              <LatitudeDegrees>38.08192052878439426422119140625</LatitudeDegrees>
              <LongitudeDegrees>-1.0929064638912677764892578125</LongitudeDegrees>
            </Position>
            <AltitudeMeters>104.8000030517578125</AltitudeMeters>
            <DistanceMeters>NAN</DistanceMeters>
          </Trackpoint>
          <Trackpoint>
            <Time>2020-05-25T05:04:53.000Z</Time>
            <Position>
              <LatitudeDegrees>38.08202111162245273590087890625</LatitudeDegrees>
              <LongitudeDegrees>-1.09290839172899723052978515625</LongitudeDegrees>
            </Position>
            <AltitudeMeters>104.59999847412109375</AltitudeMeters>
            <DistanceMeters>NAN</DistanceMeters>
          </Trackpoint>
          <Trackpoint>
            <Time>2020-05-25T05:04:54.000Z</Time>
            <Position>
              <LatitudeDegrees>38.08222043327987194061279296875</LatitudeDegrees>
              <LongitudeDegrees>-1.09289431013166904449462890625</LongitudeDegrees>
            </Position>
            <AltitudeMeters>104.40000152587890625</AltitudeMeters>
            <DistanceMeters>NAN</DistanceMeters>
          </Trackpoint>
          <Trackpoint>
            <Time>2020-05-25T05:04:55.000Z</Time>
            <Position>
              <LatitudeDegrees>38.08222043327987194061279296875</LatitudeDegrees>
              <LongitudeDegrees>-1.09289431013166904449462890625</LongitudeDegrees>
            </Position>
            <AltitudeMeters>103.8000030517578125</AltitudeMeters>
            <DistanceMeters>NAN</DistanceMeters>
          </Trackpoint>
          <Trackpoint>
            <Time>2020-05-25T05:04:56.000Z</Time>
            <Position>
              <LatitudeDegrees>38.08241371996700763702392578125</LatitudeDegrees>
              <LongitudeDegrees>-1.0928625427186489105224609375</LongitudeDegrees>
            </Position>
            <AltitudeMeters>103.59999847412109375</AltitudeMeters>
            <DistanceMeters>NAN</DistanceMeters>
          </Trackpoint>
          <Trackpoint>
            <Time>2020-05-25T05:04:57.000Z</Time>
            <Position>
              <LatitudeDegrees>38.08241371996700763702392578125</LatitudeDegrees>
              <LongitudeDegrees>-1.0928625427186489105224609375</LongitudeDegrees>
            </Position>
            <AltitudeMeters>103.40000152587890625</AltitudeMeters>
            <DistanceMeters>NAN</DistanceMeters>
          </Trackpoint>
          <Trackpoint>
            <Time>2020-05-25T05:04:58.000Z</Time>
            <Position>
              <LatitudeDegrees>38.082508854568004608154296875</LatitudeDegrees>
              <LongitudeDegrees>-1.0928404144942760467529296875</LongitudeDegrees>
            </Position>
            <AltitudeMeters>103.1999969482421875</AltitudeMeters>
            <DistanceMeters>NAN</DistanceMeters>
          </Trackpoint>
          <Trackpoint>
            <Time>2020-05-25T05:04:59.000Z</Time>
            <Position>
              <LatitudeDegrees>38.08260197751224040985107421875</LatitudeDegrees>
              <LongitudeDegrees>-1.0928137600421905517578125</LongitudeDegrees>
            </Position>
            <AltitudeMeters>103.1999969482421875</AltitudeMeters>
            <DistanceMeters>NAN</DistanceMeters>
          </Trackpoint>
          <Trackpoint>
            <Time>2020-05-25T05:05:00.000Z</Time>
            <Position>
              <LatitudeDegrees>38.08278386481106281280517578125</LatitudeDegrees>
              <LongitudeDegrees>-1.09274863265454769134521484375</LongitudeDegrees>
            </Position>
            <AltitudeMeters>103</AltitudeMeters>
            <DistanceMeters>NAN</DistanceMeters>
          </Trackpoint>
          <Trackpoint>
            <Time>2020-05-25T05:05:01.000Z</Time>
            <Position>
              <LatitudeDegrees>38.08278386481106281280517578125</LatitudeDegrees>
              <LongitudeDegrees>-1.09274863265454769134521484375</LongitudeDegrees>
            </Position>
            <AltitudeMeters>103</AltitudeMeters>
            <DistanceMeters>NAN</DistanceMeters>
          </Trackpoint>
          <Trackpoint>
            <Time>2020-05-25T05:05:02.000Z</Time>
            <Position>
              <LatitudeDegrees>38.08295770548284053802490234375</LatitudeDegrees>
              <LongitudeDegrees>-1.09266556799411773681640625</LongitudeDegrees>
            </Position>
            <AltitudeMeters>103</AltitudeMeters>
            <DistanceMeters>NAN</DistanceMeters>
          </Trackpoint>
          <Trackpoint>
            <Time>2020-05-25T05:05:03.000Z</Time>
            <Position>
              <LatitudeDegrees>38.08295770548284053802490234375</LatitudeDegrees>
              <LongitudeDegrees>-1.09266556799411773681640625</LongitudeDegrees>
            </Position>
            <AltitudeMeters>103</AltitudeMeters>
            <DistanceMeters>NAN</DistanceMeters>
          </Trackpoint>
          <Trackpoint>
            <Time>2020-05-25T05:05:04.000Z</Time>
            <Position>
              <LatitudeDegrees>38.083041943609714508056640625</LatitudeDegrees>
              <LongitudeDegrees>-1.09261888079345226287841796875</LongitudeDegrees>
            </Position>
            <AltitudeMeters>102.8000030517578125</AltitudeMeters>
            <DistanceMeters>NAN</DistanceMeters>
          </Trackpoint>
          <Trackpoint>
            <Time>2020-05-25T05:05:05.000Z</Time>
            <Position>
              <LatitudeDegrees>38.08312500827014446258544921875</LatitudeDegrees>
              <LongitudeDegrees>-1.092568673193454742431640625</LongitudeDegrees>
            </Position>
            <AltitudeMeters>102.8000030517578125</AltitudeMeters>
            <DistanceMeters>NAN</DistanceMeters>
          </Trackpoint>
          <Trackpoint>
            <Time>2020-05-25T05:05:06.000Z</Time>
            <Position>
              <LatitudeDegrees>38.0832898803055286407470703125</LatitudeDegrees>
              <LongitudeDegrees>-1.09245979227125644683837890625</LongitudeDegrees>
            </Position>
            <AltitudeMeters>102.8000030517578125</AltitudeMeters>
            <DistanceMeters>NAN</DistanceMeters>
          </Trackpoint>
          <Trackpoint>
            <Time>2020-05-25T05:05:07.000Z</Time>
            <Position>
              <LatitudeDegrees>38.0832898803055286407470703125</LatitudeDegrees>
              <LongitudeDegrees>-1.09245979227125644683837890625</LongitudeDegrees>
            </Position>
            <AltitudeMeters>102.8000030517578125</AltitudeMeters>
            <DistanceMeters>NAN</DistanceMeters>
          </Trackpoint>
          <Trackpoint>
            <Time>2020-05-25T05:05:08.000Z</Time>
            <Position>
              <LatitudeDegrees>38.08345207013189792633056640625</LatitudeDegrees>
              <LongitudeDegrees>-1.09233691357076168060302734375</LongitudeDegrees>
            </Position>
            <AltitudeMeters>102.8000030517578125</AltitudeMeters>
            <DistanceMeters>NAN</DistanceMeters>
          </Trackpoint>
          <Trackpoint>
            <Time>2020-05-25T05:05:09.000Z</Time>
            <Position>
              <LatitudeDegrees>38.08345207013189792633056640625</LatitudeDegrees>
              <LongitudeDegrees>-1.09233691357076168060302734375</LongitudeDegrees>
            </Position>
            <AltitudeMeters>102.8000030517578125</AltitudeMeters>
            <DistanceMeters>NAN</DistanceMeters>
          </Trackpoint>
          <Trackpoint>
            <Time>2020-05-25T05:05:10.000Z</Time>
            <Position>
              <LatitudeDegrees>38.0835316143929958343505859375</LatitudeDegrees>
              <LongitudeDegrees>-1.09226751141250133514404296875</LongitudeDegrees>
            </Position>
            <AltitudeMeters>102.59999847412109375</AltitudeMeters>
            <DistanceMeters>NAN</DistanceMeters>
          </Trackpoint>
          <Trackpoint>
            <Time>2020-05-25T05:05:11.000Z</Time>
            <Position>
              <LatitudeDegrees>38.0836093984544277191162109375</LatitudeDegrees>
              <LongitudeDegrees>-1.092193834483623504638671875</LongitudeDegrees>
            </Position>
            <AltitudeMeters>102.59999847412109375</AltitudeMeters>
            <DistanceMeters>NAN</DistanceMeters>
          </Trackpoint>
          <Trackpoint>
            <Time>2020-05-25T05:05:12.000Z</Time>
            <Position>
              <LatitudeDegrees>38.08368776924908161163330078125</LatitudeDegrees>
              <LongitudeDegrees>-1.09211663715541362762451171875</LongitudeDegrees>
            </Position>
            <AltitudeMeters>102.59999847412109375</AltitudeMeters>
            <DistanceMeters>NAN</DistanceMeters>
          </Trackpoint>
          <Trackpoint>
            <Time>2020-05-25T05:05:13.000Z</Time>
            <Position>
              <LatitudeDegrees>38.08376639150083065032958984375</LatitudeDegrees>
              <LongitudeDegrees>-1.09203650616109371185302734375</LongitudeDegrees>
            </Position>
            <AltitudeMeters>102.59999847412109375</AltitudeMeters>
            <DistanceMeters>NAN</DistanceMeters>
          </Trackpoint>
          <Trackpoint>
            <Time>2020-05-25T05:05:14.000Z</Time>
            <Position>
              <LatitudeDegrees>38.0838447622954845428466796875</LatitudeDegrees>
              <LongitudeDegrees>-1.09195344150066375732421875</LongitudeDegrees>
            </Position>
            <AltitudeMeters>102.59999847412109375</AltitudeMeters>
            <DistanceMeters>NAN</DistanceMeters>
          </Trackpoint>
          <Trackpoint>
            <Time>2020-05-25T05:05:15.000Z</Time>
            <Position>
              <LatitudeDegrees>38.08392246253788471221923828125</LatitudeDegrees>
              <LongitudeDegrees>-1.09186752699315547943115234375</LongitudeDegrees>
            </Position>
            <AltitudeMeters>102.59999847412109375</AltitudeMeters>
            <DistanceMeters>NAN</DistanceMeters>
          </Trackpoint>
          <Trackpoint>
            <Time>2020-05-25T05:05:16.000Z</Time>
            <Position>
              <LatitudeDegrees>38.08399940840899944305419921875</LatitudeDegrees>
              <LongitudeDegrees>-1.09177800826728343963623046875</LongitudeDegrees>
            </Position>
            <AltitudeMeters>102.59999847412109375</AltitudeMeters>
            <DistanceMeters>NAN</DistanceMeters>
          </Trackpoint>
          <Trackpoint>
            <Time>2020-05-25T05:05:17.000Z</Time>
            <Position>
              <LatitudeDegrees>38.0840761028230190277099609375</LatitudeDegrees>
              <LongitudeDegrees>-1.0916840471327304840087890625</LongitudeDegrees>
            </Position>
            <AltitudeMeters>102.1999969482421875</AltitudeMeters>
            <DistanceMeters>NAN</DistanceMeters>
          </Trackpoint>
          <Trackpoint>
            <Time>2020-05-25T05:05:18.000Z</Time>
            <Position>
              <LatitudeDegrees>38.08415246196091175079345703125</LatitudeDegrees>
              <LongitudeDegrees>-1.0915864817798137664794921875</LongitudeDegrees>
            </Position>
            <AltitudeMeters>102</AltitudeMeters>
            <DistanceMeters>NAN</DistanceMeters>
          </Trackpoint>
          <Trackpoint>
            <Time>2020-05-25T05:05:19.000Z</Time>
            <Position>
              <LatitudeDegrees>38.08422840200364589691162109375</LatitudeDegrees>
              <LongitudeDegrees>-1.0914865694940090179443359375</LongitudeDegrees>
            </Position>
            <AltitudeMeters>101.59999847412109375</AltitudeMeters>
            <DistanceMeters>NAN</DistanceMeters>
          </Trackpoint>
          <Trackpoint>
            <Time>2020-05-25T05:05:20.000Z</Time>
            <Position>
              <LatitudeDegrees>38.084302581846714019775390625</LatitudeDegrees>
              <LongitudeDegrees>-1.09138456173241138458251953125</LongitudeDegrees>
            </Position>
            <AltitudeMeters>101.1999969482421875</AltitudeMeters>
            <DistanceMeters>NAN</DistanceMeters>
          </Trackpoint>
          <Trackpoint>
            <Time>2020-05-25T05:05:21.000Z</Time>
            <Position>
              <LatitudeDegrees>38.08437491767108440399169921875</LatitudeDegrees>
              <LongitudeDegrees>-1.091281212866306304931640625</LongitudeDegrees>
            </Position>
            <AltitudeMeters>100.8000030517578125</AltitudeMeters>
            <DistanceMeters>NAN</DistanceMeters>
          </Trackpoint>
          <Trackpoint>
            <Time>2020-05-25T05:05:22.000Z</Time>
            <Position>
              <LatitudeDegrees>38.08444867841899394989013671875</LatitudeDegrees>
              <LongitudeDegrees>-1.09117719344794750213623046875</LongitudeDegrees>
            </Position>
            <AltitudeMeters>100.40000152587890625</AltitudeMeters>
            <DistanceMeters>NAN</DistanceMeters>
          </Trackpoint>
          <Trackpoint>
            <Time>2020-05-25T05:05:23.000Z</Time>
            <Position>
              <LatitudeDegrees>38.08452378027141094207763671875</LatitudeDegrees>
              <LongitudeDegrees>-1.09107208438217639923095703125</LongitudeDegrees>
            </Position>
            <AltitudeMeters>99.8000030517578125</AltitudeMeters>
            <DistanceMeters>NAN</DistanceMeters>
          </Trackpoint>
          <Trackpoint>
            <Time>2020-05-25T05:05:24.000Z</Time>
            <Position>
              <LatitudeDegrees>38.0845991335809230804443359375</LatitudeDegrees>
              <LongitudeDegrees>-1.09096613712608814239501953125</LongitudeDegrees>
            </Position>
            <AltitudeMeters>99.40000152587890625</AltitudeMeters>
            <DistanceMeters>NAN</DistanceMeters>
          </Trackpoint>
          <Trackpoint>
            <Time>2020-05-25T05:05:25.000Z</Time>
            <Position>
              <LatitudeDegrees>38.08467851020395755767822265625</LatitudeDegrees>
              <LongitudeDegrees>-1.09086102806031703948974609375</LongitudeDegrees>
            </Position>
            <AltitudeMeters>98.8000030517578125</AltitudeMeters>
            <DistanceMeters>NAN</DistanceMeters>
          </Trackpoint>
          <Trackpoint>
            <Time>2020-05-25T05:05:26.000Z</Time>
            <Position>
              <LatitudeDegrees>38.08475880883634090423583984375</LatitudeDegrees>
              <LongitudeDegrees>-1.09076010994613170623779296875</LongitudeDegrees>
            </Position>
            <AltitudeMeters>98.1999969482421875</AltitudeMeters>
            <DistanceMeters>NAN</DistanceMeters>
          </Trackpoint>
          <Trackpoint>
            <Time>2020-05-25T05:05:27.000Z</Time>
            <Position>
              <LatitudeDegrees>38.084844052791595458984375</LatitudeDegrees>
              <LongitudeDegrees>-1.09066623263061046600341796875</LongitudeDegrees>
            </Position>
            <AltitudeMeters>97.40000152587890625</AltitudeMeters>
            <DistanceMeters>NAN</DistanceMeters>
          </Trackpoint>
          <Trackpoint>
            <Time>2020-05-25T05:05:28.000Z</Time>
            <Position>
              <LatitudeDegrees>38.08493348769843578338623046875</LatitudeDegrees>
              <LongitudeDegrees>-1.0905806533992290496826171875</LongitudeDegrees>
            </Position>
            <AltitudeMeters>97</AltitudeMeters>
            <DistanceMeters>NAN</DistanceMeters>
          </Trackpoint>
          <Trackpoint>
            <Time>2020-05-25T05:05:29.000Z</Time>
            <Position>
              <LatitudeDegrees>38.08502635918557643890380859375</LatitudeDegrees>
              <LongitudeDegrees>-1.0905038751661777496337890625</LongitudeDegrees>
            </Position>
            <AltitudeMeters>96.8000030517578125</AltitudeMeters>
            <DistanceMeters>NAN</DistanceMeters>
          </Trackpoint>
          <Trackpoint>
            <Time>2020-05-25T05:05:30.000Z</Time>
            <Position>
              <LatitudeDegrees>38.0851218290627002716064453125</LatitudeDegrees>
              <LongitudeDegrees>-1.09043472446501255035400390625</LongitudeDegrees>
            </Position>
            <AltitudeMeters>96.40000152587890625</AltitudeMeters>
            <DistanceMeters>NAN</DistanceMeters>
          </Trackpoint>
          <Trackpoint>
            <Time>2020-05-25T05:05:31.000Z</Time>
            <Position>
              <LatitudeDegrees>38.08521964587271213531494140625</LatitudeDegrees>
              <LongitudeDegrees>-1.0903754644095897674560546875</LongitudeDegrees>
            </Position>
            <AltitudeMeters>96</AltitudeMeters>
            <DistanceMeters>NAN</DistanceMeters>
          </Trackpoint>
          <Trackpoint>
            <Time>2020-05-25T05:05:32.000Z</Time>
            <Position>
              <LatitudeDegrees>38.08542097918689250946044921875</LatitudeDegrees>
              <LongitudeDegrees>-1.09028854407370090484619140625</LongitudeDegrees>
            </Position>
            <AltitudeMeters>95.59999847412109375</AltitudeMeters>
            <DistanceMeters>NAN</DistanceMeters>
          </Trackpoint>
          <Trackpoint>
            <Time>2020-05-25T05:05:33.000Z</Time>
            <Position>
              <LatitudeDegrees>38.08542097918689250946044921875</LatitudeDegrees>
              <LongitudeDegrees>-1.09028854407370090484619140625</LongitudeDegrees>
            </Position>
            <AltitudeMeters>95.40000152587890625</AltitudeMeters>
            <DistanceMeters>NAN</DistanceMeters>
          </Trackpoint>
          <Trackpoint>
            <Time>2020-05-25T05:05:34.000Z</Time>
            <Position>
              <LatitudeDegrees>38.08552172966301441192626953125</LatitudeDegrees>
              <LongitudeDegrees>-1.09025870449841022491455078125</LongitudeDegrees>
            </Position>
            <AltitudeMeters>95.1999969482421875</AltitudeMeters>
            <DistanceMeters>NAN</DistanceMeters>
          </Trackpoint>
          <Trackpoint>
            <Time>2020-05-25T05:05:35.000Z</Time>
            <Position>
              <LatitudeDegrees>38.085622228682041168212890625</LatitudeDegrees>
              <LongitudeDegrees>-1.0902373306453227996826171875</LongitudeDegrees>
            </Position>
            <AltitudeMeters>95</AltitudeMeters>
            <DistanceMeters>NAN</DistanceMeters>
          </Trackpoint>
          <Trackpoint>
            <Time>2020-05-25T05:05:36.000Z</Time>
            <Position>
              <LatitudeDegrees>38.08582079596817493438720703125</LatitudeDegrees>
              <LongitudeDegrees>-1.09021134674549102783203125</LongitudeDegrees>
            </Position>
            <AltitudeMeters>94.8000030517578125</AltitudeMeters>
            <DistanceMeters>NAN</DistanceMeters>
          </Trackpoint>
          <Trackpoint>
            <Time>2020-05-25T05:05:37.000Z</Time>
            <Position>
              <LatitudeDegrees>38.08582079596817493438720703125</LatitudeDegrees>
              <LongitudeDegrees>-1.09021134674549102783203125</LongitudeDegrees>
            </Position>
            <AltitudeMeters>94.59999847412109375</AltitudeMeters>
            <DistanceMeters>NAN</DistanceMeters>
          </Trackpoint>
          <Trackpoint>
            <Time>2020-05-25T05:05:38.000Z</Time>
            <Position>
              <LatitudeDegrees>38.08601374737918376922607421875</LatitudeDegrees>
              <LongitudeDegrees>-1.09018913470208644866943359375</LongitudeDegrees>
            </Position>
            <AltitudeMeters>94.40000152587890625</AltitudeMeters>
            <DistanceMeters>NAN</DistanceMeters>
          </Trackpoint>
          <Trackpoint>
            <Time>2020-05-25T05:05:39.000Z</Time>
            <Position>
              <LatitudeDegrees>38.08601374737918376922607421875</LatitudeDegrees>
              <LongitudeDegrees>-1.09018913470208644866943359375</LongitudeDegrees>
            </Position>
            <AltitudeMeters>94.40000152587890625</AltitudeMeters>
            <DistanceMeters>NAN</DistanceMeters>
          </Trackpoint>
          <Trackpoint>
            <Time>2020-05-25T05:05:40.000Z</Time>
            <Position>
              <LatitudeDegrees>38.08610812760889530181884765625</LatitudeDegrees>
              <LongitudeDegrees>-1.09017848968505859375</LongitudeDegrees>
            </Position>
            <AltitudeMeters>94.1999969482421875</AltitudeMeters>
            <DistanceMeters>NAN</DistanceMeters>
          </Trackpoint>
          <Trackpoint>
            <Time>2020-05-25T05:05:41.000Z</Time>
            <Position>
              <LatitudeDegrees>38.08620066381990909576416015625</LatitudeDegrees>
              <LongitudeDegrees>-1.0901685990393161773681640625</LongitudeDegrees>
            </Position>
            <AltitudeMeters>94.1999969482421875</AltitudeMeters>
            <DistanceMeters>NAN</DistanceMeters>
          </Trackpoint>
          <Trackpoint>
            <Time>2020-05-25T05:05:42.000Z</Time>
            <Position>
              <LatitudeDegrees>38.08629177510738372802734375</LatitudeDegrees>
              <LongitudeDegrees>-1.09015778638422489166259765625</LongitudeDegrees>
            </Position>
            <AltitudeMeters>94.1999969482421875</AltitudeMeters>
            <DistanceMeters>NAN</DistanceMeters>
          </Trackpoint>
          <Trackpoint>
            <Time>2020-05-25T05:05:43.000Z</Time>
            <Position>
              <LatitudeDegrees>38.0863828025758266448974609375</LatitudeDegrees>
              <LongitudeDegrees>-1.09014621935784816741943359375</LongitudeDegrees>
            </Position>
            <AltitudeMeters>94.1999969482421875</AltitudeMeters>
            <DistanceMeters>NAN</DistanceMeters>
          </Trackpoint>
          <Trackpoint>
            <Time>2020-05-25T05:05:44.000Z</Time>
            <Position>
              <LatitudeDegrees>38.0864719860255718231201171875</LatitudeDegrees>
              <LongitudeDegrees>-1.09013532288372516632080078125</LongitudeDegrees>
            </Position>
            <AltitudeMeters>94.1999969482421875</AltitudeMeters>
            <DistanceMeters>NAN</DistanceMeters>
          </Trackpoint>
          <Trackpoint>
            <Time>2020-05-25T05:05:45.000Z</Time>
            <Position>
              <LatitudeDegrees>38.086560331284999847412109375</LatitudeDegrees>
              <LongitudeDegrees>-1.0901260189712047576904296875</LongitudeDegrees>
            </Position>
            <AltitudeMeters>94.1999969482421875</AltitudeMeters>
            <DistanceMeters>NAN</DistanceMeters>
          </Trackpoint>
          <Trackpoint>
            <Time>2020-05-25T05:05:46.000Z</Time>
            <Position>
              <LatitudeDegrees>38.08664716780185699462890625</LatitudeDegrees>
              <LongitudeDegrees>-1.09011788852512836456298828125</LongitudeDegrees>
            </Position>
            <AltitudeMeters>94.1999969482421875</AltitudeMeters>
            <DistanceMeters>NAN</DistanceMeters>
          </Trackpoint>
          <Trackpoint>
            <Time>2020-05-25T05:05:47.000Z</Time>
            <Position>
              <LatitudeDegrees>38.08673341758549213409423828125</LatitudeDegrees>
              <LongitudeDegrees>-1.09010850079357624053955078125</LongitudeDegrees>
            </Position>
            <AltitudeMeters>94.1999969482421875</AltitudeMeters>
            <DistanceMeters>NAN</DistanceMeters>
          </Trackpoint>
          <Trackpoint>
            <Time>2020-05-25T05:05:48.000Z</Time>
            <Position>
              <LatitudeDegrees>38.08681882917881011962890625</LatitudeDegrees>
              <LongitudeDegrees>-1.0900985263288021087646484375</LongitudeDegrees>
            </Position>
            <AltitudeMeters>94.1999969482421875</AltitudeMeters>
            <DistanceMeters>NAN</DistanceMeters>
          </Trackpoint>
          <Trackpoint>
            <Time>2020-05-25T05:05:49.000Z</Time>
            <Position>
              <LatitudeDegrees>38.08690206147730350494384765625</LatitudeDegrees>
              <LongitudeDegrees>-1.0900888033211231231689453125</LongitudeDegrees>
            </Position>
            <AltitudeMeters>94.1999969482421875</AltitudeMeters>
            <DistanceMeters>NAN</DistanceMeters>
          </Trackpoint>
          <Trackpoint>
            <Time>2020-05-25T05:05:50.000Z</Time>
            <Position>
              <LatitudeDegrees>38.087059222161769866943359375</LatitudeDegrees>
              <LongitudeDegrees>-1.09007027931511402130126953125</LongitudeDegrees>
            </Position>
            <AltitudeMeters>94.40000152587890625</AltitudeMeters>
            <DistanceMeters>NAN</DistanceMeters>
          </Trackpoint>
          <Trackpoint>
            <Time>2020-05-25T05:05:51.000Z</Time>
            <Position>
              <LatitudeDegrees>38.087059222161769866943359375</LatitudeDegrees>
              <LongitudeDegrees>-1.09007027931511402130126953125</LongitudeDegrees>
            </Position>
            <AltitudeMeters>94.40000152587890625</AltitudeMeters>
            <DistanceMeters>NAN</DistanceMeters>
          </Trackpoint>
          <Trackpoint>
            <Time>2020-05-25T05:05:52.000Z</Time>
            <Position>
              <LatitudeDegrees>38.08713424019515514373779296875</LatitudeDegrees>
              <LongitudeDegrees>-1.09006122685968875885009765625</LongitudeDegrees>
            </Position>
            <AltitudeMeters>94.40000152587890625</AltitudeMeters>
            <DistanceMeters>NAN</DistanceMeters>
          </Trackpoint>
          <Trackpoint>
            <Time>2020-05-25T05:05:53.000Z</Time>
            <Position>
              <LatitudeDegrees>38.08720582164824008941650390625</LatitudeDegrees>
              <LongitudeDegrees>-1.090052425861358642578125</LongitudeDegrees>
            </Position>
            <AltitudeMeters>94.59999847412109375</AltitudeMeters>
            <DistanceMeters>NAN</DistanceMeters>
          </Trackpoint>
          <Trackpoint>
            <Time>2020-05-25T05:05:54.000Z</Time>
            <Position>
              <LatitudeDegrees>38.08727455325424671173095703125</LatitudeDegrees>
              <LongitudeDegrees>-1.09004245139658451080322265625</LongitudeDegrees>
            </Position>
            <AltitudeMeters>94.59999847412109375</AltitudeMeters>
            <DistanceMeters>NAN</DistanceMeters>
          </Trackpoint>
          <Trackpoint>
            <Time>2020-05-25T05:05:55.000Z</Time>
            <Position>
              <LatitudeDegrees>38.08734144084155559539794921875</LatitudeDegrees>
              <LongitudeDegrees>-1.09003323130309581756591796875</LongitudeDegrees>
            </Position>
            <AltitudeMeters>94.8000030517578125</AltitudeMeters>
            <DistanceMeters>NAN</DistanceMeters>
          </Trackpoint>
          <Trackpoint>
            <Time>2020-05-25T05:05:56.000Z</Time>
            <Position>
              <LatitudeDegrees>38.08747353963553905487060546875</LatitudeDegrees>
              <LongitudeDegrees>-1.0900175571441650390625</LongitudeDegrees>
            </Position>
            <AltitudeMeters>94.8000030517578125</AltitudeMeters>
            <DistanceMeters>NAN</DistanceMeters>
          </Trackpoint>
          <Trackpoint>
            <Time>2020-05-25T05:05:57.000Z</Time>
            <Position>
              <LatitudeDegrees>38.08747353963553905487060546875</LatitudeDegrees>
              <LongitudeDegrees>-1.0900175571441650390625</LongitudeDegrees>
            </Position>
            <AltitudeMeters>95</AltitudeMeters>
            <DistanceMeters>NAN</DistanceMeters>
          </Trackpoint>
          <Trackpoint>
            <Time>2020-05-25T05:05:58.000Z</Time>
            <Position>
              <LatitudeDegrees>38.0875354818999767303466796875</LatitudeDegrees>
              <LongitudeDegrees>-1.090011186897754669189453125</LongitudeDegrees>
            </Position>
            <AltitudeMeters>95.59999847412109375</AltitudeMeters>
            <DistanceMeters>NAN</DistanceMeters>
          </Trackpoint>
          <Trackpoint>
            <Time>2020-05-25T05:05:59.000Z</Time>
            <Position>
              <LatitudeDegrees>38.087596334517002105712890625</LatitudeDegrees>
              <LongitudeDegrees>-1.09000439755618572235107421875</LongitudeDegrees>
            </Position>
            <AltitudeMeters>95.8000030517578125</AltitudeMeters>
            <DistanceMeters>NAN</DistanceMeters>
          </Trackpoint>
          <Trackpoint>
            <Time>2020-05-25T05:06:00.000Z</Time>
            <Position>
              <LatitudeDegrees>38.0877115018665790557861328125</LatitudeDegrees>
              <LongitudeDegrees>-1.08998998068273067474365234375</LongitudeDegrees>
            </Position>
            <AltitudeMeters>96</AltitudeMeters>
            <DistanceMeters>NAN</DistanceMeters>
          </Trackpoint>
          <Trackpoint>
            <Time>2020-05-25T05:06:01.000Z</Time>
            <Position>
              <LatitudeDegrees>38.0877115018665790557861328125</LatitudeDegrees>
              <LongitudeDegrees>-1.08998998068273067474365234375</LongitudeDegrees>
            </Position>
            <AltitudeMeters>96.1999969482421875</AltitudeMeters>
            <DistanceMeters>NAN</DistanceMeters>
          </Trackpoint>
          <Trackpoint>
            <Time>2020-05-25T05:06:02.000Z</Time>
            <Position>
              <LatitudeDegrees>38.08782105334103107452392578125</LatitudeDegrees>
              <LongitudeDegrees>-1.08997975476086139678955078125</LongitudeDegrees>
            </Position>
            <AltitudeMeters>96.59999847412109375</AltitudeMeters>
            <DistanceMeters>NAN</DistanceMeters>
          </Trackpoint>
          <Trackpoint>
            <Time>2020-05-25T05:06:03.000Z</Time>
            <Position>
              <LatitudeDegrees>38.08782105334103107452392578125</LatitudeDegrees>
              <LongitudeDegrees>-1.08997975476086139678955078125</LongitudeDegrees>
            </Position>
            <AltitudeMeters>96.8000030517578125</AltitudeMeters>
            <DistanceMeters>NAN</DistanceMeters>
          </Trackpoint>
          <Trackpoint>
            <Time>2020-05-25T05:06:04.000Z</Time>
            <Position>
              <LatitudeDegrees>38.0878741107881069183349609375</LatitudeDegrees>
              <LongitudeDegrees>-1.089973635971546173095703125</LongitudeDegrees>
            </Position>
            <AltitudeMeters>97.1999969482421875</AltitudeMeters>
            <DistanceMeters>NAN</DistanceMeters>
          </Trackpoint>
          <Trackpoint>
            <Time>2020-05-25T05:06:05.000Z</Time>
            <Position>
              <LatitudeDegrees>38.08792800642549991607666015625</LatitudeDegrees>
              <LongitudeDegrees>-1.08996852301061153411865234375</LongitudeDegrees>
            </Position>
            <AltitudeMeters>97.40000152587890625</AltitudeMeters>
            <DistanceMeters>NAN</DistanceMeters>
          </Trackpoint>
          <Trackpoint>
            <Time>2020-05-25T05:06:06.000Z</Time>
            <Position>
              <LatitudeDegrees>38.088034875690937042236328125</LatitudeDegrees>
              <LongitudeDegrees>-1.089960895478725433349609375</LongitudeDegrees>
            </Position>
            <AltitudeMeters>97.8000030517578125</AltitudeMeters>
            <DistanceMeters>NAN</DistanceMeters>
          </Trackpoint>
          <Trackpoint>
            <Time>2020-05-25T05:06:07.000Z</Time>
            <Position>
              <LatitudeDegrees>38.088034875690937042236328125</LatitudeDegrees>
              <LongitudeDegrees>-1.089960895478725433349609375</LongitudeDegrees>
            </Position>
            <AltitudeMeters>98.40000152587890625</AltitudeMeters>
            <DistanceMeters>NAN</DistanceMeters>
          </Trackpoint>
          <Trackpoint>
            <Time>2020-05-25T05:06:08.000Z</Time>
            <Position>
              <LatitudeDegrees>38.08813286013901233673095703125</LatitudeDegrees>
              <LongitudeDegrees>-1.08995444141328334808349609375</LongitudeDegrees>
            </Position>
            <AltitudeMeters>98.8000030517578125</AltitudeMeters>
            <DistanceMeters>NAN</DistanceMeters>
          </Trackpoint>
          <Trackpoint>
            <Time>2020-05-25T05:06:09.000Z</Time>
            <Position>
              <LatitudeDegrees>38.08813286013901233673095703125</LatitudeDegrees>
              <LongitudeDegrees>-1.08995444141328334808349609375</LongitudeDegrees>
            </Position>
            <AltitudeMeters>99.1999969482421875</AltitudeMeters>
            <DistanceMeters>NAN</DistanceMeters>
          </Trackpoint>
          <Trackpoint>
            <Time>2020-05-25T05:06:10.000Z</Time>
            <Position>
              <LatitudeDegrees>38.0881808884441852569580078125</LatitudeDegrees>
              <LongitudeDegrees>-1.08995092101395130157470703125</LongitudeDegrees>
            </Position>
            <AltitudeMeters>99.40000152587890625</AltitudeMeters>
            <DistanceMeters>NAN</DistanceMeters>
          </Trackpoint>
          <Trackpoint>
            <Time>2020-05-25T05:06:11.000Z</Time>
            <Position>
              <LatitudeDegrees>38.08822858147323131561279296875</LatitudeDegrees>
              <LongitudeDegrees>-1.0899473167955875396728515625</LongitudeDegrees>
            </Position>
            <AltitudeMeters>99.59999847412109375</AltitudeMeters>
            <DistanceMeters>NAN</DistanceMeters>
          </Trackpoint>
          <Trackpoint>
            <Time>2020-05-25T05:06:12.000Z</Time>
            <Position>
              <LatitudeDegrees>38.0883227102458477020263671875</LatitudeDegrees>
              <LongitudeDegrees>-1.08994304202497005462646484375</LongitudeDegrees>
            </Position>
            <AltitudeMeters>100.1999969482421875</AltitudeMeters>
            <DistanceMeters>NAN</DistanceMeters>
          </Trackpoint>
          <Trackpoint>
            <Time>2020-05-25T05:06:13.000Z</Time>
            <Position>
              <LatitudeDegrees>38.0883227102458477020263671875</LatitudeDegrees>
              <LongitudeDegrees>-1.08994304202497005462646484375</LongitudeDegrees>
            </Position>
            <AltitudeMeters>100.59999847412109375</AltitudeMeters>
            <DistanceMeters>NAN</DistanceMeters>
          </Trackpoint>
          <Trackpoint>
            <Time>2020-05-25T05:06:14.000Z</Time>
            <Position>
              <LatitudeDegrees>38.08841566555202007293701171875</LatitudeDegrees>
              <LongitudeDegrees>-1.0899466462433338165283203125</LongitudeDegrees>
            </Position>
            <AltitudeMeters>101</AltitudeMeters>
            <DistanceMeters>NAN</DistanceMeters>
          </Trackpoint>
          <Trackpoint>
            <Time>2020-05-25T05:06:15.000Z</Time>
            <Position>
              <LatitudeDegrees>38.08841566555202007293701171875</LatitudeDegrees>
              <LongitudeDegrees>-1.0899466462433338165283203125</LongitudeDegrees>
            </Position>
            <AltitudeMeters>101.1999969482421875</AltitudeMeters>
            <DistanceMeters>NAN</DistanceMeters>
          </Trackpoint>
          <Trackpoint>
            <Time>2020-05-25T05:06:16.000Z</Time>
            <Position>
              <LatitudeDegrees>38.08846293948590755462646484375</LatitudeDegrees>
              <LongitudeDegrees>-1.08994907699525356292724609375</LongitudeDegrees>
            </Position>
            <AltitudeMeters>101.40000152587890625</AltitudeMeters>
            <DistanceMeters>NAN</DistanceMeters>
          </Trackpoint>
          <Trackpoint>
            <Time>2020-05-25T05:06:17.000Z</Time>
            <Position>
              <LatitudeDegrees>38.0885092914104461669921875</LatitudeDegrees>
              <LongitudeDegrees>-1.08995108865201473236083984375</LongitudeDegrees>
            </Position>
            <AltitudeMeters>101.8000030517578125</AltitudeMeters>
            <DistanceMeters>NAN</DistanceMeters>
          </Trackpoint>
          <Trackpoint>
            <Time>2020-05-25T05:06:18.000Z</Time>
            <Position>
              <LatitudeDegrees>38.08860040269792079925537109375</LatitudeDegrees>
              <LongitudeDegrees>-1.08995427377521991729736328125</LongitudeDegrees>
            </Position>
            <AltitudeMeters>101.8000030517578125</AltitudeMeters>
            <DistanceMeters>NAN</DistanceMeters>
          </Trackpoint>
          <Trackpoint>
            <Time>2020-05-25T05:06:19.000Z</Time>
            <Position>
              <LatitudeDegrees>38.08860040269792079925537109375</LatitudeDegrees>
              <LongitudeDegrees>-1.08995427377521991729736328125</LongitudeDegrees>
            </Position>
            <AltitudeMeters>102.1999969482421875</AltitudeMeters>
            <DistanceMeters>NAN</DistanceMeters>
          </Trackpoint>
          <Trackpoint>
            <Time>2020-05-25T05:06:20.000Z</Time>
            <Position>
              <LatitudeDegrees>38.0886925198137760162353515625</LatitudeDegrees>
              <LongitudeDegrees>-1.08996030874550342559814453125</LongitudeDegrees>
            </Position>
            <AltitudeMeters>102.40000152587890625</AltitudeMeters>
            <DistanceMeters>NAN</DistanceMeters>
          </Trackpoint>
          <Trackpoint>
            <Time>2020-05-25T05:06:21.000Z</Time>
            <Position>
              <LatitudeDegrees>38.0886925198137760162353515625</LatitudeDegrees>
              <LongitudeDegrees>-1.08996030874550342559814453125</LongitudeDegrees>
            </Position>
            <AltitudeMeters>102.8000030517578125</AltitudeMeters>
            <DistanceMeters>NAN</DistanceMeters>
          </Trackpoint>
          <Trackpoint>
            <Time>2020-05-25T05:06:22.000Z</Time>
            <Position>
              <LatitudeDegrees>38.0887384526431560516357421875</LatitudeDegrees>
              <LongitudeDegrees>-1.0899627394974231719970703125</LongitudeDegrees>
            </Position>
            <AltitudeMeters>103</AltitudeMeters>
            <DistanceMeters>NAN</DistanceMeters>
          </Trackpoint>
          <Trackpoint>
            <Time>2020-05-25T05:06:23.000Z</Time>
            <Position>
              <LatitudeDegrees>38.088781870901584625244140625</LatitudeDegrees>
              <LongitudeDegrees>-1.0899679362773895263671875</LongitudeDegrees>
            </Position>
            <AltitudeMeters>103.1999969482421875</AltitudeMeters>
            <DistanceMeters>NAN</DistanceMeters>
          </Trackpoint>
          <Trackpoint>
            <Time>2020-05-25T05:06:24.000Z</Time>
            <Position>
              <LatitudeDegrees>38.08887130580842494964599609375</LatitudeDegrees>
              <LongitudeDegrees>-1.0899798385798931121826171875</LongitudeDegrees>
            </Position>
            <AltitudeMeters>103.40000152587890625</AltitudeMeters>
            <DistanceMeters>NAN</DistanceMeters>
          </Trackpoint>
          <Trackpoint>
            <Time>2020-05-25T05:06:25.000Z</Time>
            <Position>
              <LatitudeDegrees>38.08887130580842494964599609375</LatitudeDegrees>
              <LongitudeDegrees>-1.0899798385798931121826171875</LongitudeDegrees>
            </Position>
            <AltitudeMeters>103.8000030517578125</AltitudeMeters>
            <DistanceMeters>NAN</DistanceMeters>
          </Trackpoint>
          <Trackpoint>
            <Time>2020-05-25T05:06:26.000Z</Time>
            <Position>
              <LatitudeDegrees>38.08896283619105815887451171875</LatitudeDegrees>
              <LongitudeDegrees>-1.08999601565301418304443359375</LongitudeDegrees>
            </Position>
            <AltitudeMeters>104</AltitudeMeters>
            <DistanceMeters>NAN</DistanceMeters>
          </Trackpoint>
          <Trackpoint>
            <Time>2020-05-25T05:06:27.000Z</Time>
            <Position>
              <LatitudeDegrees>38.08896283619105815887451171875</LatitudeDegrees>
              <LongitudeDegrees>-1.08999601565301418304443359375</LongitudeDegrees>
            </Position>
            <AltitudeMeters>104.1999969482421875</AltitudeMeters>
            <DistanceMeters>NAN</DistanceMeters>
          </Trackpoint>
          <Trackpoint>
            <Time>2020-05-25T05:06:28.000Z</Time>
            <Position>
              <LatitudeDegrees>38.08900876902043819427490234375</LatitudeDegrees>
              <LongitudeDegrees>-1.09000490047037601470947265625</LongitudeDegrees>
            </Position>
            <AltitudeMeters>104.40000152587890625</AltitudeMeters>
            <DistanceMeters>NAN</DistanceMeters>
          </Trackpoint>
          <Trackpoint>
            <Time>2020-05-25T05:06:29.000Z</Time>
            <Position>
              <LatitudeDegrees>38.0890536122024059295654296875</LatitudeDegrees>
              <LongitudeDegrees>-1.09001512639224529266357421875</LongitudeDegrees>
            </Position>
            <AltitudeMeters>104.8000030517578125</AltitudeMeters>
            <DistanceMeters>NAN</DistanceMeters>
          </Trackpoint>
          <Trackpoint>
            <Time>2020-05-25T05:06:30.000Z</Time>
            <Position>
              <LatitudeDegrees>38.08909828774631023406982421875</LatitudeDegrees>
              <LongitudeDegrees>-1.0900271125137805938720703125</LongitudeDegrees>
            </Position>
            <AltitudeMeters>105.40000152587890625</AltitudeMeters>
            <DistanceMeters>NAN</DistanceMeters>
          </Trackpoint>
          <Trackpoint>
            <Time>2020-05-25T05:06:31.000Z</Time>
            <Position>
              <LatitudeDegrees>38.08914321474730968475341796875</LatitudeDegrees>
              <LongitudeDegrees>-1.090040020644664764404296875</LongitudeDegrees>
            </Position>
            <AltitudeMeters>105.59999847412109375</AltitudeMeters>
            <DistanceMeters>NAN</DistanceMeters>
          </Trackpoint>
          <Trackpoint>
            <Time>2020-05-25T05:06:32.000Z</Time>
            <Position>
              <LatitudeDegrees>38.0892319791018962860107421875</LatitudeDegrees>
              <LongitudeDegrees>-1.09007363207638263702392578125</LongitudeDegrees>
            </Position>
            <AltitudeMeters>105.8000030517578125</AltitudeMeters>
            <DistanceMeters>NAN</DistanceMeters>
          </Trackpoint>
          <Trackpoint>
            <Time>2020-05-25T05:06:33.000Z</Time>
            <Position>
              <LatitudeDegrees>38.0892319791018962860107421875</LatitudeDegrees>
              <LongitudeDegrees>-1.09007363207638263702392578125</LongitudeDegrees>
            </Position>
            <AltitudeMeters>106.1999969482421875</AltitudeMeters>
            <DistanceMeters>NAN</DistanceMeters>
          </Trackpoint>
          <Trackpoint>
            <Time>2020-05-25T05:06:34.000Z</Time>
            <Position>
              <LatitudeDegrees>38.0892764031887054443359375</LatitudeDegrees>
              <LongitudeDegrees>-1.09009022824466228485107421875</LongitudeDegrees>
            </Position>
            <AltitudeMeters>106.40000152587890625</AltitudeMeters>
            <DistanceMeters>NAN</DistanceMeters>
          </Trackpoint>
          <Trackpoint>
            <Time>2020-05-25T05:06:35.000Z</Time>
            <Position>
              <LatitudeDegrees>38.08932057581841945648193359375</LatitudeDegrees>
              <LongitudeDegrees>-1.09010799787938594818115234375</LongitudeDegrees>
            </Position>
            <AltitudeMeters>106.59999847412109375</AltitudeMeters>
            <DistanceMeters>NAN</DistanceMeters>
          </Trackpoint>
          <Trackpoint>
            <Time>2020-05-25T05:06:36.000Z</Time>
            <Position>
              <LatitudeDegrees>38.08940757997334003448486328125</LatitudeDegrees>
              <LongitudeDegrees>-1.0901484824717044830322265625</LongitudeDegrees>
            </Position>
            <AltitudeMeters>106.8000030517578125</AltitudeMeters>
            <DistanceMeters>NAN</DistanceMeters>
          </Trackpoint>
          <Trackpoint>
            <Time>2020-05-25T05:06:37.000Z</Time>
            <Position>
              <LatitudeDegrees>38.08940757997334003448486328125</LatitudeDegrees>
              <LongitudeDegrees>-1.0901484824717044830322265625</LongitudeDegrees>
            </Position>
            <AltitudeMeters>107</AltitudeMeters>
            <DistanceMeters>NAN</DistanceMeters>
          </Trackpoint>
          <Trackpoint>
            <Time>2020-05-25T05:06:38.000Z</Time>
            <Position>
              <LatitudeDegrees>38.08949642814695835113525390625</LatitudeDegrees>
              <LongitudeDegrees>-1.09018511138856410980224609375</LongitudeDegrees>
            </Position>
            <AltitudeMeters>107.1999969482421875</AltitudeMeters>
            <DistanceMeters>NAN</DistanceMeters>
          </Trackpoint>
          <Trackpoint>
            <Time>2020-05-25T05:06:39.000Z</Time>
            <Position>
              <LatitudeDegrees>38.08949642814695835113525390625</LatitudeDegrees>
              <LongitudeDegrees>-1.09018511138856410980224609375</LongitudeDegrees>
            </Position>
            <AltitudeMeters>107.40000152587890625</AltitudeMeters>
            <DistanceMeters>NAN</DistanceMeters>
          </Trackpoint>
          <Trackpoint>
            <Time>2020-05-25T05:06:40.000Z</Time>
            <Position>
              <LatitudeDegrees>38.08954085223376750946044921875</LatitudeDegrees>
              <LongitudeDegrees>-1.09020522795617580413818359375</LongitudeDegrees>
            </Position>
            <AltitudeMeters>107.8000030517578125</AltitudeMeters>
            <DistanceMeters>NAN</DistanceMeters>
          </Trackpoint>
          <Trackpoint>
            <Time>2020-05-25T05:06:41.000Z</Time>
            <Position>
              <LatitudeDegrees>38.08958427049219608306884765625</LatitudeDegrees>
              <LongitudeDegrees>-1.09022676944732666015625</LongitudeDegrees>
            </Position>
            <AltitudeMeters>108</AltitudeMeters>
            <DistanceMeters>NAN</DistanceMeters>
          </Trackpoint>
          <Trackpoint>
            <Time>2020-05-25T05:06:42.000Z</Time>
            <Position>
              <LatitudeDegrees>38.08967144228518009185791015625</LatitudeDegrees>
              <LongitudeDegrees>-1.0902656614780426025390625</LongitudeDegrees>
            </Position>
            <AltitudeMeters>108.1999969482421875</AltitudeMeters>
            <DistanceMeters>NAN</DistanceMeters>
          </Trackpoint>
          <Trackpoint>
            <Time>2020-05-25T05:06:43.000Z</Time>
            <Position>
              <LatitudeDegrees>38.08967144228518009185791015625</LatitudeDegrees>
              <LongitudeDegrees>-1.0902656614780426025390625</LongitudeDegrees>
            </Position>
            <AltitudeMeters>108.1999969482421875</AltitudeMeters>
            <DistanceMeters>NAN</DistanceMeters>
          </Trackpoint>
          <Trackpoint>
            <Time>2020-05-25T05:06:44.000Z</Time>
            <Position>
              <LatitudeDegrees>38.08975559659302234649658203125</LatitudeDegrees>
              <LongitudeDegrees>-1.09030983410775661468505859375</LongitudeDegrees>
            </Position>
            <AltitudeMeters>108.40000152587890625</AltitudeMeters>
            <DistanceMeters>NAN</DistanceMeters>
          </Trackpoint>
          <Trackpoint>
            <Time>2020-05-25T05:06:45.000Z</Time>
            <Position>
              <LatitudeDegrees>38.08975559659302234649658203125</LatitudeDegrees>
              <LongitudeDegrees>-1.09030983410775661468505859375</LongitudeDegrees>
            </Position>
            <AltitudeMeters>108.59999847412109375</AltitudeMeters>
            <DistanceMeters>NAN</DistanceMeters>
          </Trackpoint>
          <Trackpoint>
            <Time>2020-05-25T05:06:46.000Z</Time>
            <Position>
              <LatitudeDegrees>38.0897969193756580352783203125</LatitudeDegrees>
              <LongitudeDegrees>-1.09033212997019290924072265625</LongitudeDegrees>
            </Position>
            <AltitudeMeters>108.8000030517578125</AltitudeMeters>
            <DistanceMeters>NAN</DistanceMeters>
          </Trackpoint>
          <Trackpoint>
            <Time>2020-05-25T05:06:47.000Z</Time>
            <Position>
              <LatitudeDegrees>38.089837990701198577880859375</LatitudeDegrees>
              <LongitudeDegrees>-1.09035350382328033447265625</LongitudeDegrees>
            </Position>
            <AltitudeMeters>109</AltitudeMeters>
            <DistanceMeters>NAN</DistanceMeters>
          </Trackpoint>
          <Trackpoint>
            <Time>2020-05-25T05:06:48.000Z</Time>
            <Position>
              <LatitudeDegrees>38.08991820551455020904541015625</LatitudeDegrees>
              <LongitudeDegrees>-1.090399436652660369873046875</LongitudeDegrees>
            </Position>
            <AltitudeMeters>109.1999969482421875</AltitudeMeters>
            <DistanceMeters>NAN</DistanceMeters>
          </Trackpoint>
          <Trackpoint>
            <Time>2020-05-25T05:06:49.000Z</Time>
            <Position>
              <LatitudeDegrees>38.08991820551455020904541015625</LatitudeDegrees>
              <LongitudeDegrees>-1.090399436652660369873046875</LongitudeDegrees>
            </Position>
            <AltitudeMeters>109.40000152587890625</AltitudeMeters>
            <DistanceMeters>NAN</DistanceMeters>
          </Trackpoint>
          <Trackpoint>
            <Time>2020-05-25T05:06:50.000Z</Time>
            <Position>
              <LatitudeDegrees>38.0899980850517749786376953125</LatitudeDegrees>
              <LongitudeDegrees>-1.09044495038688182830810546875</LongitudeDegrees>
            </Position>
            <AltitudeMeters>109.59999847412109375</AltitudeMeters>
            <DistanceMeters>NAN</DistanceMeters>
          </Trackpoint>
          <Trackpoint>
            <Time>2020-05-25T05:06:51.000Z</Time>
            <Position>
              <LatitudeDegrees>38.0899980850517749786376953125</LatitudeDegrees>
              <LongitudeDegrees>-1.09044495038688182830810546875</LongitudeDegrees>
            </Position>
            <AltitudeMeters>109.8000030517578125</AltitudeMeters>
            <DistanceMeters>NAN</DistanceMeters>
          </Trackpoint>
          <Trackpoint>
            <Time>2020-05-25T05:06:52.000Z</Time>
            <Position>
              <LatitudeDegrees>38.09003907255828380584716796875</LatitudeDegrees>
              <LongitudeDegrees>-1.090467162430286407470703125</LongitudeDegrees>
            </Position>
            <AltitudeMeters>110</AltitudeMeters>
            <DistanceMeters>NAN</DistanceMeters>
          </Trackpoint>
          <Trackpoint>
            <Time>2020-05-25T05:06:53.000Z</Time>
            <Position>
              <LatitudeDegrees>38.09008031152188777923583984375</LatitudeDegrees>
              <LongitudeDegrees>-1.09048820100724697113037109375</LongitudeDegrees>
            </Position>
            <AltitudeMeters>110.1999969482421875</AltitudeMeters>
            <DistanceMeters>NAN</DistanceMeters>
          </Trackpoint>
          <Trackpoint>
            <Time>2020-05-25T05:06:54.000Z</Time>
            <Position>
              <LatitudeDegrees>38.09016245417296886444091796875</LatitudeDegrees>
              <LongitudeDegrees>-1.09052843414247035980224609375</LongitudeDegrees>
            </Position>
            <AltitudeMeters>110.40000152587890625</AltitudeMeters>
            <DistanceMeters>NAN</DistanceMeters>
          </Trackpoint>
          <Trackpoint>
            <Time>2020-05-25T05:06:55.000Z</Time>
            <Position>
              <LatitudeDegrees>38.09016245417296886444091796875</LatitudeDegrees>
              <LongitudeDegrees>-1.09052843414247035980224609375</LongitudeDegrees>
            </Position>
            <AltitudeMeters>110.59999847412109375</AltitudeMeters>
            <DistanceMeters>NAN</DistanceMeters>
          </Trackpoint>
          <Trackpoint>
            <Time>2020-05-25T05:06:56.000Z</Time>
            <Position>
              <LatitudeDegrees>38.09024862013757228851318359375</LatitudeDegrees>
              <LongitudeDegrees>-1.09057051129639148712158203125</LongitudeDegrees>
            </Position>
            <AltitudeMeters>110.8000030517578125</AltitudeMeters>
            <DistanceMeters>NAN</DistanceMeters>
          </Trackpoint>
          <Trackpoint>
            <Time>2020-05-25T05:06:57.000Z</Time>
            <Position>
              <LatitudeDegrees>38.09024862013757228851318359375</LatitudeDegrees>
              <LongitudeDegrees>-1.09057051129639148712158203125</LongitudeDegrees>
            </Position>
            <AltitudeMeters>111</AltitudeMeters>
            <DistanceMeters>NAN</DistanceMeters>
          </Trackpoint>
          <Trackpoint>
            <Time>2020-05-25T05:06:58.000Z</Time>
            <Position>
              <LatitudeDegrees>38.0902914516627788543701171875</LatitudeDegrees>
              <LongitudeDegrees>-1.0905910469591617584228515625</LongitudeDegrees>
            </Position>
            <AltitudeMeters>111</AltitudeMeters>
            <DistanceMeters>NAN</DistanceMeters>
          </Trackpoint>
          <Trackpoint>
            <Time>2020-05-25T05:06:59.000Z</Time>
            <Position>
              <LatitudeDegrees>38.09033428318798542022705078125</LatitudeDegrees>
              <LongitudeDegrees>-1.09061124734580516815185546875</LongitudeDegrees>
            </Position>
            <AltitudeMeters>111.1999969482421875</AltitudeMeters>
            <DistanceMeters>NAN</DistanceMeters>
          </Trackpoint>
          <Trackpoint>
            <Time>2020-05-25T05:07:00.000Z</Time>
            <Position>
              <LatitudeDegrees>38.090420030057430267333984375</LatitudeDegrees>
              <LongitudeDegrees>-1.0906527377665042877197265625</LongitudeDegrees>
            </Position>
            <AltitudeMeters>111.40000152587890625</AltitudeMeters>
            <DistanceMeters>NAN</DistanceMeters>
          </Trackpoint>
          <Trackpoint>
            <Time>2020-05-25T05:07:01.000Z</Time>
            <Position>
              <LatitudeDegrees>38.090420030057430267333984375</LatitudeDegrees>
              <LongitudeDegrees>-1.0906527377665042877197265625</LongitudeDegrees>
            </Position>
            <AltitudeMeters>111.40000152587890625</AltitudeMeters>
            <DistanceMeters>NAN</DistanceMeters>
          </Trackpoint>
          <Trackpoint>
            <Time>2020-05-25T05:07:02.000Z</Time>
            <Position>
              <LatitudeDegrees>38.09050695039331912994384765625</LatitudeDegrees>
              <LongitudeDegrees>-1.0906948149204254150390625</LongitudeDegrees>
            </Position>
            <AltitudeMeters>111.59999847412109375</AltitudeMeters>
            <DistanceMeters>NAN</DistanceMeters>
          </Trackpoint>
          <Trackpoint>
            <Time>2020-05-25T05:07:03.000Z</Time>
            <Position>
              <LatitudeDegrees>38.09050695039331912994384765625</LatitudeDegrees>
              <LongitudeDegrees>-1.0906948149204254150390625</LongitudeDegrees>
            </Position>
            <AltitudeMeters>111.8000030517578125</AltitudeMeters>
            <DistanceMeters>NAN</DistanceMeters>
          </Trackpoint>
          <Trackpoint>
            <Time>2020-05-25T05:07:04.000Z</Time>
            <Position>
              <LatitudeDegrees>38.0905499495565891265869140625</LatitudeDegrees>
              <LongitudeDegrees>-1.090716607868671417236328125</LongitudeDegrees>
            </Position>
            <AltitudeMeters>112</AltitudeMeters>
            <DistanceMeters>NAN</DistanceMeters>
          </Trackpoint>
          <Trackpoint>
            <Time>2020-05-25T05:07:05.000Z</Time>
            <Position>
              <LatitudeDegrees>38.09059278108179569244384765625</LatitudeDegrees>
              <LongitudeDegrees>-1.09073731116950511932373046875</LongitudeDegrees>
            </Position>
            <AltitudeMeters>112.1999969482421875</AltitudeMeters>
            <DistanceMeters>NAN</DistanceMeters>
          </Trackpoint>
          <Trackpoint>
            <Time>2020-05-25T05:07:06.000Z</Time>
            <Position>
              <LatitudeDegrees>38.09067852795124053955078125</LatitudeDegrees>
              <LongitudeDegrees>-1.0907747782766819000244140625</LongitudeDegrees>
            </Position>
            <AltitudeMeters>112.1999969482421875</AltitudeMeters>
            <DistanceMeters>NAN</DistanceMeters>
          </Trackpoint>
          <Trackpoint>
            <Time>2020-05-25T05:07:07.000Z</Time>
            <Position>
              <LatitudeDegrees>38.09067852795124053955078125</LatitudeDegrees>
              <LongitudeDegrees>-1.0907747782766819000244140625</LongitudeDegrees>
            </Position>
            <AltitudeMeters>112.40000152587890625</AltitudeMeters>
            <DistanceMeters>NAN</DistanceMeters>
          </Trackpoint>
          <Trackpoint>
            <Time>2020-05-25T05:07:08.000Z</Time>
            <Position>
              <LatitudeDegrees>38.09076276607811450958251953125</LatitudeDegrees>
              <LongitudeDegrees>-1.09081777743995189666748046875</LongitudeDegrees>
            </Position>
            <AltitudeMeters>112.59999847412109375</AltitudeMeters>
            <DistanceMeters>NAN</DistanceMeters>
          </Trackpoint>
          <Trackpoint>
            <Time>2020-05-25T05:07:09.000Z</Time>
            <Position>
              <LatitudeDegrees>38.09076276607811450958251953125</LatitudeDegrees>
              <LongitudeDegrees>-1.09081777743995189666748046875</LongitudeDegrees>
            </Position>
            <AltitudeMeters>112.8000030517578125</AltitudeMeters>
            <DistanceMeters>NAN</DistanceMeters>
          </Trackpoint>
          <Trackpoint>
            <Time>2020-05-25T05:07:10.000Z</Time>
            <Position>
              <LatitudeDegrees>38.09080660343170166015625</LatitudeDegrees>
              <LongitudeDegrees>-1.090837307274341583251953125</LongitudeDegrees>
            </Position>
            <AltitudeMeters>113</AltitudeMeters>
            <DistanceMeters>NAN</DistanceMeters>
          </Trackpoint>
          <Trackpoint>
            <Time>2020-05-25T05:07:11.000Z</Time>
            <Position>
              <LatitudeDegrees>38.09085060842335224151611328125</LatitudeDegrees>
              <LongitudeDegrees>-1.09085750766098499298095703125</LongitudeDegrees>
            </Position>
            <AltitudeMeters>113.1999969482421875</AltitudeMeters>
            <DistanceMeters>NAN</DistanceMeters>
          </Trackpoint>
          <Trackpoint>
            <Time>2020-05-25T05:07:12.000Z</Time>
            <Position>
              <LatitudeDegrees>38.09093962423503398895263671875</LatitudeDegrees>
              <LongitudeDegrees>-1.09089799225330352783203125</LongitudeDegrees>
            </Position>
            <AltitudeMeters>113.40000152587890625</AltitudeMeters>
            <DistanceMeters>NAN</DistanceMeters>
          </Trackpoint>
          <Trackpoint>
            <Time>2020-05-25T05:07:13.000Z</Time>
            <Position>
              <LatitudeDegrees>38.09093962423503398895263671875</LatitudeDegrees>
              <LongitudeDegrees>-1.09089799225330352783203125</LongitudeDegrees>
            </Position>
            <AltitudeMeters>113.40000152587890625</AltitudeMeters>
            <DistanceMeters>NAN</DistanceMeters>
          </Trackpoint>
          <Trackpoint>
            <Time>2020-05-25T05:07:14.000Z</Time>
            <Position>
              <LatitudeDegrees>38.0910280533134937286376953125</LatitudeDegrees>
              <LongitudeDegrees>-1.0909434221684932708740234375</LongitudeDegrees>
            </Position>
            <AltitudeMeters>113.59999847412109375</AltitudeMeters>
            <DistanceMeters>NAN</DistanceMeters>
          </Trackpoint>
          <Trackpoint>
            <Time>2020-05-25T05:07:15.000Z</Time>
            <Position>
              <LatitudeDegrees>38.0910280533134937286376953125</LatitudeDegrees>
              <LongitudeDegrees>-1.0909434221684932708740234375</LongitudeDegrees>
            </Position>
            <AltitudeMeters>114</AltitudeMeters>
            <DistanceMeters>NAN</DistanceMeters>
          </Trackpoint>
          <Trackpoint>
            <Time>2020-05-25T05:07:16.000Z</Time>
            <Position>
              <LatitudeDegrees>38.091072142124176025390625</LatitudeDegrees>
              <LongitudeDegrees>-1.09096697531640529632568359375</LongitudeDegrees>
            </Position>
            <AltitudeMeters>114.1999969482421875</AltitudeMeters>
            <DistanceMeters>NAN</DistanceMeters>
          </Trackpoint>
          <Trackpoint>
            <Time>2020-05-25T05:07:17.000Z</Time>
            <Position>
              <LatitudeDegrees>38.09111648239195346832275390625</LatitudeDegrees>
              <LongitudeDegrees>-1.09099111519753932952880859375</LongitudeDegrees>
            </Position>
            <AltitudeMeters>114.40000152587890625</AltitudeMeters>
            <DistanceMeters>NAN</DistanceMeters>
          </Trackpoint>
          <Trackpoint>
            <Time>2020-05-25T05:07:18.000Z</Time>
            <Position>
              <LatitudeDegrees>38.0912054143846035003662109375</LatitudeDegrees>
              <LongitudeDegrees>-1.09104861505329608917236328125</LongitudeDegrees>
            </Position>
            <AltitudeMeters>114.59999847412109375</AltitudeMeters>
            <DistanceMeters>NAN</DistanceMeters>
          </Trackpoint>
          <Trackpoint>
            <Time>2020-05-25T05:07:19.000Z</Time>
            <Position>
              <LatitudeDegrees>38.0912054143846035003662109375</LatitudeDegrees>
              <LongitudeDegrees>-1.09104861505329608917236328125</LongitudeDegrees>
            </Position>
            <AltitudeMeters>114.8000030517578125</AltitudeMeters>
            <DistanceMeters>NAN</DistanceMeters>
          </Trackpoint>
          <Trackpoint>
            <Time>2020-05-25T05:07:20.000Z</Time>
            <Position>
              <LatitudeDegrees>38.09124975465238094329833984375</LatitudeDegrees>
              <LongitudeDegrees>-1.0910810530185699462890625</LongitudeDegrees>
            </Position>
            <AltitudeMeters>114.8000030517578125</AltitudeMeters>
            <DistanceMeters>NAN</DistanceMeters>
          </Trackpoint>
          <Trackpoint>
            <Time>2020-05-25T05:07:21.000Z</Time>
            <Position>
              <LatitudeDegrees>38.091293089091777801513671875</LatitudeDegrees>
              <LongitudeDegrees>-1.0911177657544612884521484375</LongitudeDegrees>
            </Position>
            <AltitudeMeters>115</AltitudeMeters>
            <DistanceMeters>NAN</DistanceMeters>
          </Trackpoint>
          <Trackpoint>
            <Time>2020-05-25T05:07:22.000Z</Time>
            <Position>
              <LatitudeDegrees>38.09133424423635005950927734375</LatitudeDegrees>
              <LongitudeDegrees>-1.09115825034677982330322265625</LongitudeDegrees>
            </Position>
            <AltitudeMeters>115.1999969482421875</AltitudeMeters>
            <DistanceMeters>NAN</DistanceMeters>
          </Trackpoint>
          <Trackpoint>
            <Time>2020-05-25T05:07:23.000Z</Time>
            <Position>
              <LatitudeDegrees>38.09137464500963687896728515625</LatitudeDegrees>
              <LongitudeDegrees>-1.0912015847861766815185546875</LongitudeDegrees>
            </Position>
            <AltitudeMeters>115.1999969482421875</AltitudeMeters>
            <DistanceMeters>NAN</DistanceMeters>
          </Trackpoint>
          <Trackpoint>
            <Time>2020-05-25T05:07:24.000Z</Time>
            <Position>
              <LatitudeDegrees>38.0914136208593845367431640625</LatitudeDegrees>
              <LongitudeDegrees>-1.0912491939961910247802734375</LongitudeDegrees>
            </Position>
            <AltitudeMeters>115.40000152587890625</AltitudeMeters>
            <DistanceMeters>NAN</DistanceMeters>
          </Trackpoint>
          <Trackpoint>
            <Time>2020-05-25T05:07:25.000Z</Time>
            <Position>
              <LatitudeDegrees>38.0914508365094661712646484375</LatitudeDegrees>
              <LongitudeDegrees>-1.09130007214844226837158203125</LongitudeDegrees>
            </Position>
            <AltitudeMeters>115.40000152587890625</AltitudeMeters>
            <DistanceMeters>NAN</DistanceMeters>
          </Trackpoint>
          <Trackpoint>
            <Time>2020-05-25T05:07:26.000Z</Time>
            <Position>
              <LatitudeDegrees>38.0915222503244876861572265625</LatitudeDegrees>
              <LongitudeDegrees>-1.0914061032235622406005859375</LongitudeDegrees>
            </Position>
            <AltitudeMeters>115.40000152587890625</AltitudeMeters>
            <DistanceMeters>NAN</DistanceMeters>
          </Trackpoint>
          <Trackpoint>
            <Time>2020-05-25T05:07:27.000Z</Time>
            <Position>
              <LatitudeDegrees>38.0915222503244876861572265625</LatitudeDegrees>
              <LongitudeDegrees>-1.0914061032235622406005859375</LongitudeDegrees>
            </Position>
            <AltitudeMeters>115.40000152587890625</AltitudeMeters>
            <DistanceMeters>NAN</DistanceMeters>
          </Trackpoint>
          <Trackpoint>
            <Time>2020-05-25T05:07:28.000Z</Time>
            <Position>
              <LatitudeDegrees>38.0915571190416812896728515625</LatitudeDegrees>
              <LongitudeDegrees>-1.09146083705127239227294921875</LongitudeDegrees>
            </Position>
            <AltitudeMeters>115.8000030517578125</AltitudeMeters>
            <DistanceMeters>NAN</DistanceMeters>
          </Trackpoint>
          <Trackpoint>
            <Time>2020-05-25T05:07:29.000Z</Time>
            <Position>
              <LatitudeDegrees>38.09159039519727230072021484375</LatitudeDegrees>
              <LongitudeDegrees>-1.09151783399283885955810546875</LongitudeDegrees>
            </Position>
            <AltitudeMeters>115.8000030517578125</AltitudeMeters>
            <DistanceMeters>NAN</DistanceMeters>
          </Trackpoint>
          <Trackpoint>
            <Time>2020-05-25T05:07:30.000Z</Time>
            <Position>
              <LatitudeDegrees>38.09166180901229381561279296875</LatitudeDegrees>
              <LongitudeDegrees>-1.09163157641887664794921875</LongitudeDegrees>
            </Position>
            <AltitudeMeters>115.8000030517578125</AltitudeMeters>
            <DistanceMeters>NAN</DistanceMeters>
          </Trackpoint>
          <Trackpoint>
            <Time>2020-05-25T05:07:31.000Z</Time>
            <Position>
              <LatitudeDegrees>38.09166180901229381561279296875</LatitudeDegrees>
              <LongitudeDegrees>-1.09163157641887664794921875</LongitudeDegrees>
            </Position>
            <AltitudeMeters>115.8000030517578125</AltitudeMeters>
            <DistanceMeters>NAN</DistanceMeters>
          </Trackpoint>
          <Trackpoint>
            <Time>2020-05-25T05:07:32.000Z</Time>
            <Position>
              <LatitudeDegrees>38.09173305518925189971923828125</LatitudeDegrees>
              <LongitudeDegrees>-1.091747246682643890380859375</LongitudeDegrees>
            </Position>
            <AltitudeMeters>115.8000030517578125</AltitudeMeters>
            <DistanceMeters>NAN</DistanceMeters>
          </Trackpoint>
          <Trackpoint>
            <Time>2020-05-25T05:07:33.000Z</Time>
            <Position>
              <LatitudeDegrees>38.09173305518925189971923828125</LatitudeDegrees>
              <LongitudeDegrees>-1.091747246682643890380859375</LongitudeDegrees>
            </Position>
            <AltitudeMeters>116</AltitudeMeters>
            <DistanceMeters>NAN</DistanceMeters>
          </Trackpoint>
          <Trackpoint>
            <Time>2020-05-25T05:07:34.000Z</Time>
            <Position>
              <LatitudeDegrees>38.09177077375352382659912109375</LatitudeDegrees>
              <LongitudeDegrees>-1.0918040759861469268798828125</LongitudeDegrees>
            </Position>
            <AltitudeMeters>116</AltitudeMeters>
            <DistanceMeters>NAN</DistanceMeters>
          </Trackpoint>
          <Trackpoint>
            <Time>2020-05-25T05:07:35.000Z</Time>
            <Position>
              <LatitudeDegrees>38.09181050397455692291259765625</LatitudeDegrees>
              <LongitudeDegrees>-1.0918587259948253631591796875</LongitudeDegrees>
            </Position>
            <AltitudeMeters>116</AltitudeMeters>
            <DistanceMeters>NAN</DistanceMeters>
          </Trackpoint>
          <Trackpoint>
            <Time>2020-05-25T05:07:36.000Z</Time>
            <Position>
              <LatitudeDegrees>38.0918521620333194732666015625</LatitudeDegrees>
              <LongitudeDegrees>-1.09191077761352062225341796875</LongitudeDegrees>
            </Position>
            <AltitudeMeters>116</AltitudeMeters>
            <DistanceMeters>NAN</DistanceMeters>
          </Trackpoint>
          <Trackpoint>
            <Time>2020-05-25T05:07:37.000Z</Time>
            <Position>
              <LatitudeDegrees>38.09189566411077976226806640625</LatitudeDegrees>
              <LongitudeDegrees>-1.09196056611835956573486328125</LongitudeDegrees>
            </Position>
            <AltitudeMeters>116</AltitudeMeters>
            <DistanceMeters>NAN</DistanceMeters>
          </Trackpoint>
          <Trackpoint>
            <Time>2020-05-25T05:07:38.000Z</Time>
            <Position>
              <LatitudeDegrees>38.091987110674381256103515625</LatitudeDegrees>
              <LongitudeDegrees>-1.0920518450438976287841796875</LongitudeDegrees>
            </Position>
            <AltitudeMeters>116</AltitudeMeters>
            <DistanceMeters>NAN</DistanceMeters>
          </Trackpoint>
          <Trackpoint>
            <Time>2020-05-25T05:07:39.000Z</Time>
            <Position>
              <LatitudeDegrees>38.091987110674381256103515625</LatitudeDegrees>
              <LongitudeDegrees>-1.0920518450438976287841796875</LongitudeDegrees>
            </Position>
            <AltitudeMeters>116</AltitudeMeters>
            <DistanceMeters>NAN</DistanceMeters>
          </Trackpoint>
          <Trackpoint>
            <Time>2020-05-25T05:07:40.000Z</Time>
            <Position>
              <LatitudeDegrees>38.0920365639030933380126953125</LatitudeDegrees>
              <LongitudeDegrees>-1.0920934192836284637451171875</LongitudeDegrees>
            </Position>
            <AltitudeMeters>116.1999969482421875</AltitudeMeters>
            <DistanceMeters>NAN</DistanceMeters>
          </Trackpoint>
          <Trackpoint>
            <Time>2020-05-25T05:07:41.000Z</Time>
            <Position>
              <LatitudeDegrees>38.09208677150309085845947265625</LatitudeDegrees>
              <LongitudeDegrees>-1.09213340096175670623779296875</LongitudeDegrees>
            </Position>
            <AltitudeMeters>116.1999969482421875</AltitudeMeters>
            <DistanceMeters>NAN</DistanceMeters>
          </Trackpoint>
          <Trackpoint>
            <Time>2020-05-25T05:07:42.000Z</Time>
            <Position>
              <LatitudeDegrees>38.09219087474048137664794921875</LatitudeDegrees>
              <LongitudeDegrees>-1.092204563319683074951171875</LongitudeDegrees>
            </Position>
            <AltitudeMeters>116.1999969482421875</AltitudeMeters>
            <DistanceMeters>NAN</DistanceMeters>
          </Trackpoint>
          <Trackpoint>
            <Time>2020-05-25T05:07:43.000Z</Time>
            <Position>
              <LatitudeDegrees>38.09219087474048137664794921875</LatitudeDegrees>
              <LongitudeDegrees>-1.092204563319683074951171875</LongitudeDegrees>
            </Position>
            <AltitudeMeters>116.1999969482421875</AltitudeMeters>
            <DistanceMeters>NAN</DistanceMeters>
          </Trackpoint>
          <Trackpoint>
            <Time>2020-05-25T05:07:44.000Z</Time>
            <Position>
              <LatitudeDegrees>38.09224267490208148956298828125</LatitudeDegrees>
              <LongitudeDegrees>-1.09223834238946437835693359375</LongitudeDegrees>
            </Position>
            <AltitudeMeters>116.1999969482421875</AltitudeMeters>
            <DistanceMeters>NAN</DistanceMeters>
          </Trackpoint>
          <Trackpoint>
            <Time>2020-05-25T05:07:45.000Z</Time>
            <Position>
              <LatitudeDegrees>38.0922950617969036102294921875</LatitudeDegrees>
              <LongitudeDegrees>-1.0922707803547382354736328125</LongitudeDegrees>
            </Position>
            <AltitudeMeters>116.1999969482421875</AltitudeMeters>
            <DistanceMeters>NAN</DistanceMeters>
          </Trackpoint>
          <Trackpoint>
            <Time>2020-05-25T05:07:46.000Z</Time>
            <Position>
              <LatitudeDegrees>38.09234811924397945404052734375</LatitudeDegrees>
              <LongitudeDegrees>-1.09230187721550464630126953125</LongitudeDegrees>
            </Position>
            <AltitudeMeters>116.1999969482421875</AltitudeMeters>
            <DistanceMeters>NAN</DistanceMeters>
          </Trackpoint>
          <Trackpoint>
            <Time>2020-05-25T05:07:47.000Z</Time>
            <Position>
              <LatitudeDegrees>38.092400841414928436279296875</LatitudeDegrees>
              <LongitudeDegrees>-1.092332303524017333984375</LongitudeDegrees>
            </Position>
            <AltitudeMeters>116.1999969482421875</AltitudeMeters>
            <DistanceMeters>NAN</DistanceMeters>
          </Trackpoint>
          <Trackpoint>
            <Time>2020-05-25T05:07:48.000Z</Time>
            <Position>
              <LatitudeDegrees>38.09250553138554096221923828125</LatitudeDegrees>
              <LongitudeDegrees>-1.09239273704588413238525390625</LongitudeDegrees>
            </Position>
            <AltitudeMeters>116.1999969482421875</AltitudeMeters>
            <DistanceMeters>NAN</DistanceMeters>
          </Trackpoint>
          <Trackpoint>
            <Time>2020-05-25T05:07:49.000Z</Time>
            <Position>
              <LatitudeDegrees>38.09250553138554096221923828125</LatitudeDegrees>
              <LongitudeDegrees>-1.09239273704588413238525390625</LongitudeDegrees>
            </Position>
            <AltitudeMeters>116.1999969482421875</AltitudeMeters>
            <DistanceMeters>NAN</DistanceMeters>
          </Trackpoint>
          <Trackpoint>
            <Time>2020-05-25T05:07:50.000Z</Time>
            <Position>
              <LatitudeDegrees>38.09255733154714107513427734375</LatitudeDegrees>
              <LongitudeDegrees>-1.0924229957163333892822265625</LongitudeDegrees>
            </Position>
            <AltitudeMeters>116.1999969482421875</AltitudeMeters>
            <DistanceMeters>NAN</DistanceMeters>
          </Trackpoint>
          <Trackpoint>
            <Time>2020-05-25T05:07:51.000Z</Time>
            <Position>
              <LatitudeDegrees>38.0926078744232654571533203125</LatitudeDegrees>
              <LongitudeDegrees>-1.09245392493903636932373046875</LongitudeDegrees>
            </Position>
            <AltitudeMeters>116.40000152587890625</AltitudeMeters>
            <DistanceMeters>NAN</DistanceMeters>
          </Trackpoint>
          <Trackpoint>
            <Time>2020-05-25T05:07:52.000Z</Time>
            <Position>
              <LatitudeDegrees>38.0926588363945484161376953125</LatitudeDegrees>
              <LongitudeDegrees>-1.09248544089496135711669921875</LongitudeDegrees>
            </Position>
            <AltitudeMeters>116.40000152587890625</AltitudeMeters>
            <DistanceMeters>NAN</DistanceMeters>
          </Trackpoint>
          <Trackpoint>
            <Time>2020-05-25T05:07:53.000Z</Time>
            <Position>
              <LatitudeDegrees>38.09270921163260936737060546875</LatitudeDegrees>
              <LongitudeDegrees>-1.092516370117664337158203125</LongitudeDegrees>
            </Position>
            <AltitudeMeters>116.40000152587890625</AltitudeMeters>
            <DistanceMeters>NAN</DistanceMeters>
          </Trackpoint>
          <Trackpoint>
            <Time>2020-05-25T05:07:54.000Z</Time>
            <Position>
              <LatitudeDegrees>38.09281012974679470062255859375</LatitudeDegrees>
              <LongitudeDegrees>-1.0925778932869434356689453125</LongitudeDegrees>
            </Position>
            <AltitudeMeters>116.40000152587890625</AltitudeMeters>
            <DistanceMeters>NAN</DistanceMeters>
          </Trackpoint>
          <Trackpoint>
            <Time>2020-05-25T05:07:55.000Z</Time>
            <Position>
              <LatitudeDegrees>38.09281012974679470062255859375</LatitudeDegrees>
              <LongitudeDegrees>-1.0925778932869434356689453125</LongitudeDegrees>
            </Position>
            <AltitudeMeters>116.40000152587890625</AltitudeMeters>
            <DistanceMeters>NAN</DistanceMeters>
          </Trackpoint>
          <Trackpoint>
            <Time>2020-05-25T05:07:56.000Z</Time>
            <Position>
              <LatitudeDegrees>38.0929109640419483184814453125</LatitudeDegrees>
              <LongitudeDegrees>-1.09264000318944454193115234375</LongitudeDegrees>
            </Position>
            <AltitudeMeters>116.40000152587890625</AltitudeMeters>
            <DistanceMeters>NAN</DistanceMeters>
          </Trackpoint>
          <Trackpoint>
            <Time>2020-05-25T05:07:57.000Z</Time>
            <Position>
              <LatitudeDegrees>38.0929109640419483184814453125</LatitudeDegrees>
              <LongitudeDegrees>-1.09264000318944454193115234375</LongitudeDegrees>
            </Position>
            <AltitudeMeters>116.40000152587890625</AltitudeMeters>
            <DistanceMeters>NAN</DistanceMeters>
          </Trackpoint>
          <Trackpoint>
            <Time>2020-05-25T05:07:58.000Z</Time>
            <Position>
              <LatitudeDegrees>38.09296318329870700836181640625</LatitudeDegrees>
              <LongitudeDegrees>-1.09266959130764007568359375</LongitudeDegrees>
            </Position>
            <AltitudeMeters>116.59999847412109375</AltitudeMeters>
            <DistanceMeters>NAN</DistanceMeters>
          </Trackpoint>
          <Trackpoint>
            <Time>2020-05-25T05:07:59.000Z</Time>
            <Position>
              <LatitudeDegrees>38.09301733039319515228271484375</LatitudeDegrees>
              <LongitudeDegrees>-1.092698760330677032470703125</LongitudeDegrees>
            </Position>
            <AltitudeMeters>116.59999847412109375</AltitudeMeters>
            <DistanceMeters>NAN</DistanceMeters>
          </Trackpoint>
          <Trackpoint>
            <Time>2020-05-25T05:08:00.000Z</Time>
            <Position>
              <LatitudeDegrees>38.0931195057928562164306640625</LatitudeDegrees>
              <LongitudeDegrees>-1.09276036731898784637451171875</LongitudeDegrees>
            </Position>
            <AltitudeMeters>116.59999847412109375</AltitudeMeters>
            <DistanceMeters>NAN</DistanceMeters>
          </Trackpoint>
          <Trackpoint>
            <Time>2020-05-25T05:08:01.000Z</Time>
            <Position>
              <LatitudeDegrees>38.0931195057928562164306640625</LatitudeDegrees>
              <LongitudeDegrees>-1.09276036731898784637451171875</LongitudeDegrees>
            </Position>
            <AltitudeMeters>116.8000030517578125</AltitudeMeters>
            <DistanceMeters>NAN</DistanceMeters>
          </Trackpoint>
          <Trackpoint>
            <Time>2020-05-25T05:08:02.000Z</Time>
            <Position>
              <LatitudeDegrees>38.093217574059963226318359375</LatitudeDegrees>
              <LongitudeDegrees>-1.09282381832599639892578125</LongitudeDegrees>
            </Position>
            <AltitudeMeters>117</AltitudeMeters>
            <DistanceMeters>NAN</DistanceMeters>
          </Trackpoint>
          <Trackpoint>
            <Time>2020-05-25T05:08:03.000Z</Time>
            <Position>
              <LatitudeDegrees>38.093217574059963226318359375</LatitudeDegrees>
              <LongitudeDegrees>-1.09282381832599639892578125</LongitudeDegrees>
            </Position>
            <AltitudeMeters>117.1999969482421875</AltitudeMeters>
            <DistanceMeters>NAN</DistanceMeters>
          </Trackpoint>
          <Trackpoint>
            <Time>2020-05-25T05:08:04.000Z</Time>
            <Position>
              <LatitudeDegrees>38.093265853822231292724609375</LatitudeDegrees>
              <LongitudeDegrees>-1.092857010662555694580078125</LongitudeDegrees>
            </Position>
            <AltitudeMeters>117.1999969482421875</AltitudeMeters>
            <DistanceMeters>NAN</DistanceMeters>
          </Trackpoint>
          <Trackpoint>
            <Time>2020-05-25T05:08:05.000Z</Time>
            <Position>
              <LatitudeDegrees>38.09331237338483333587646484375</LatitudeDegrees>
              <LongitudeDegrees>-1.0928942263126373291015625</LongitudeDegrees>
            </Position>
            <AltitudeMeters>117.40000152587890625</AltitudeMeters>
            <DistanceMeters>NAN</DistanceMeters>
          </Trackpoint>
          <Trackpoint>
            <Time>2020-05-25T05:08:06.000Z</Time>
            <Position>
              <LatitudeDegrees>38.093357719480991363525390625</LatitudeDegrees>
              <LongitudeDegrees>-1.092934794723987579345703125</LongitudeDegrees>
            </Position>
            <AltitudeMeters>117.40000152587890625</AltitudeMeters>
            <DistanceMeters>NAN</DistanceMeters>
          </Trackpoint>
          <Trackpoint>
            <Time>2020-05-25T05:08:07.000Z</Time>
            <Position>
              <LatitudeDegrees>38.0934021435678005218505859375</LatitudeDegrees>
              <LongitudeDegrees>-1.0929768718779087066650390625</LongitudeDegrees>
            </Position>
            <AltitudeMeters>117.59999847412109375</AltitudeMeters>
            <DistanceMeters>NAN</DistanceMeters>
          </Trackpoint>
          <Trackpoint>
            <Time>2020-05-25T05:08:08.000Z</Time>
            <Position>
              <LatitudeDegrees>38.09348487295210361480712890625</LatitudeDegrees>
              <LongitudeDegrees>-1.09306965954601764678955078125</LongitudeDegrees>
            </Position>
            <AltitudeMeters>117.59999847412109375</AltitudeMeters>
            <DistanceMeters>NAN</DistanceMeters>
          </Trackpoint>
          <Trackpoint>
            <Time>2020-05-25T05:08:09.000Z</Time>
            <Position>
              <LatitudeDegrees>38.09348487295210361480712890625</LatitudeDegrees>
              <LongitudeDegrees>-1.09306965954601764678955078125</LongitudeDegrees>
            </Position>
            <AltitudeMeters>117.59999847412109375</AltitudeMeters>
            <DistanceMeters>NAN</DistanceMeters>
          </Trackpoint>
          <Trackpoint>
            <Time>2020-05-25T05:08:10.000Z</Time>
            <Position>
              <LatitudeDegrees>38.09352301061153411865234375</LatitudeDegrees>
              <LongitudeDegrees>-1.0931196995079517364501953125</LongitudeDegrees>
            </Position>
            <AltitudeMeters>117.59999847412109375</AltitudeMeters>
            <DistanceMeters>NAN</DistanceMeters>
          </Trackpoint>
          <Trackpoint>
            <Time>2020-05-25T05:08:11.000Z</Time>
            <Position>
              <LatitudeDegrees>38.0935580469667911529541015625</LatitudeDegrees>
              <LongitudeDegrees>-1.09317325986921787261962890625</LongitudeDegrees>
            </Position>
            <AltitudeMeters>117.8000030517578125</AltitudeMeters>
            <DistanceMeters>NAN</DistanceMeters>
          </Trackpoint>
          <Trackpoint>
            <Time>2020-05-25T05:08:12.000Z</Time>
            <Position>
              <LatitudeDegrees>38.09362183324992656707763671875</LatitudeDegrees>
              <LongitudeDegrees>-1.09328490681946277618408203125</LongitudeDegrees>
            </Position>
            <AltitudeMeters>118</AltitudeMeters>
            <DistanceMeters>NAN</DistanceMeters>
          </Trackpoint>
          <Trackpoint>
            <Time>2020-05-25T05:08:13.000Z</Time>
            <Position>
              <LatitudeDegrees>38.09362183324992656707763671875</LatitudeDegrees>
              <LongitudeDegrees>-1.09328490681946277618408203125</LongitudeDegrees>
            </Position>
            <AltitudeMeters>118.1999969482421875</AltitudeMeters>
            <DistanceMeters>NAN</DistanceMeters>
          </Trackpoint>
          <Trackpoint>
            <Time>2020-05-25T05:08:14.000Z</Time>
            <Position>
              <LatitudeDegrees>38.0936820991337299346923828125</LatitudeDegrees>
              <LongitudeDegrees>-1.09340057708323001861572265625</LongitudeDegrees>
            </Position>
            <AltitudeMeters>118.1999969482421875</AltitudeMeters>
            <DistanceMeters>NAN</DistanceMeters>
          </Trackpoint>
          <Trackpoint>
            <Time>2020-05-25T05:08:15.000Z</Time>
            <Position>
              <LatitudeDegrees>38.0936820991337299346923828125</LatitudeDegrees>
              <LongitudeDegrees>-1.09340057708323001861572265625</LongitudeDegrees>
            </Position>
            <AltitudeMeters>118.40000152587890625</AltitudeMeters>
            <DistanceMeters>NAN</DistanceMeters>
          </Trackpoint>
          <Trackpoint>
            <Time>2020-05-25T05:08:16.000Z</Time>
            <Position>
              <LatitudeDegrees>38.09371210634708404541015625</LatitudeDegrees>
              <LongitudeDegrees>-1.093458496034145355224609375</LongitudeDegrees>
            </Position>
            <AltitudeMeters>118.40000152587890625</AltitudeMeters>
            <DistanceMeters>NAN</DistanceMeters>
          </Trackpoint>
          <Trackpoint>
            <Time>2020-05-25T05:08:17.000Z</Time>
            <Position>
              <LatitudeDegrees>38.093742616474628448486328125</LatitudeDegrees>
              <LongitudeDegrees>-1.0935159958899021148681640625</LongitudeDegrees>
            </Position>
            <AltitudeMeters>118.59999847412109375</AltitudeMeters>
            <DistanceMeters>NAN</DistanceMeters>
          </Trackpoint>
          <Trackpoint>
            <Time>2020-05-25T05:08:18.000Z</Time>
            <Position>
              <LatitudeDegrees>38.09380196034908294677734375</LatitudeDegrees>
              <LongitudeDegrees>-1.09363024123013019561767578125</LongitudeDegrees>
            </Position>
            <AltitudeMeters>119</AltitudeMeters>
            <DistanceMeters>NAN</DistanceMeters>
          </Trackpoint>
          <Trackpoint>
            <Time>2020-05-25T05:08:19.000Z</Time>
            <Position>
              <LatitudeDegrees>38.09380196034908294677734375</LatitudeDegrees>
              <LongitudeDegrees>-1.09363024123013019561767578125</LongitudeDegrees>
            </Position>
            <AltitudeMeters>119</AltitudeMeters>
            <DistanceMeters>NAN</DistanceMeters>
          </Trackpoint>
          <Trackpoint>
            <Time>2020-05-25T05:08:20.000Z</Time>
            <Position>
              <LatitudeDegrees>38.0938326381146907806396484375</LatitudeDegrees>
              <LongitudeDegrees>-1.09368673525750637054443359375</LongitudeDegrees>
            </Position>
            <AltitudeMeters>119.1999969482421875</AltitudeMeters>
            <DistanceMeters>NAN</DistanceMeters>
          </Trackpoint>
          <Trackpoint>
            <Time>2020-05-25T05:08:21.000Z</Time>
            <Position>
              <LatitudeDegrees>38.093865327537059783935546875</LatitudeDegrees>
              <LongitudeDegrees>-1.0937423072755336761474609375</LongitudeDegrees>
            </Position>
            <AltitudeMeters>119.1999969482421875</AltitudeMeters>
            <DistanceMeters>NAN</DistanceMeters>
          </Trackpoint>
          <Trackpoint>
            <Time>2020-05-25T05:08:22.000Z</Time>
            <Position>
              <LatitudeDegrees>38.093900196254253387451171875</LatitudeDegrees>
              <LongitudeDegrees>-1.0937952809035778045654296875</LongitudeDegrees>
            </Position>
            <AltitudeMeters>119.40000152587890625</AltitudeMeters>
            <DistanceMeters>NAN</DistanceMeters>
          </Trackpoint>
          <Trackpoint>
            <Time>2020-05-25T05:08:23.000Z</Time>
            <Position>
              <LatitudeDegrees>38.09393749572336673736572265625</LatitudeDegrees>
              <LongitudeDegrees>-1.093846075236797332763671875</LongitudeDegrees>
            </Position>
            <AltitudeMeters>119.59999847412109375</AltitudeMeters>
            <DistanceMeters>NAN</DistanceMeters>
          </Trackpoint>
          <Trackpoint>
            <Time>2020-05-25T05:08:24.000Z</Time>
            <Position>
              <LatitudeDegrees>38.09397722594439983367919921875</LatitudeDegrees>
              <LongitudeDegrees>-1.09389393590390682220458984375</LongitudeDegrees>
            </Position>
            <AltitudeMeters>119.8000030517578125</AltitudeMeters>
            <DistanceMeters>NAN</DistanceMeters>
          </Trackpoint>
          <Trackpoint>
            <Time>2020-05-25T05:08:25.000Z</Time>
            <Position>
              <LatitudeDegrees>38.09401880018413066864013671875</LatitudeDegrees>
              <LongitudeDegrees>-1.093939282000064849853515625</LongitudeDegrees>
            </Position>
            <AltitudeMeters>120</AltitudeMeters>
            <DistanceMeters>NAN</DistanceMeters>
          </Trackpoint>
          <Trackpoint>
            <Time>2020-05-25T05:08:26.000Z</Time>
            <Position>
              <LatitudeDegrees>38.0940626375377178192138671875</LatitudeDegrees>
              <LongitudeDegrees>-1.09398253262042999267578125</LongitudeDegrees>
            </Position>
            <AltitudeMeters>120.1999969482421875</AltitudeMeters>
            <DistanceMeters>NAN</DistanceMeters>
          </Trackpoint>
          <Trackpoint>
            <Time>2020-05-25T05:08:27.000Z</Time>
            <Position>
              <LatitudeDegrees>38.09410982765257358551025390625</LatitudeDegrees>
              <LongitudeDegrees>-1.0940215922892093658447265625</LongitudeDegrees>
            </Position>
            <AltitudeMeters>120.1999969482421875</AltitudeMeters>
            <DistanceMeters>NAN</DistanceMeters>
          </Trackpoint>
          <Trackpoint>
            <Time>2020-05-25T05:08:28.000Z</Time>
            <Position>
              <LatitudeDegrees>38.0941595323383808135986328125</LatitudeDegrees>
              <LongitudeDegrees>-1.0940551199018955230712890625</LongitudeDegrees>
            </Position>
            <AltitudeMeters>120.40000152587890625</AltitudeMeters>
            <DistanceMeters>NAN</DistanceMeters>
          </Trackpoint>
          <Trackpoint>
            <Time>2020-05-25T05:08:29.000Z</Time>
            <Position>
              <LatitudeDegrees>38.0942116677761077880859375</LatitudeDegrees>
              <LongitudeDegrees>-1.0940849594771862030029296875</LongitudeDegrees>
            </Position>
            <AltitudeMeters>120.40000152587890625</AltitudeMeters>
            <DistanceMeters>NAN</DistanceMeters>
          </Trackpoint>
          <Trackpoint>
            <Time>2020-05-25T05:08:30.000Z</Time>
            <Position>
              <LatitudeDegrees>38.0942651443183422088623046875</LatitudeDegrees>
              <LongitudeDegrees>-1.094111613929271697998046875</LongitudeDegrees>
            </Position>
            <AltitudeMeters>120.59999847412109375</AltitudeMeters>
            <DistanceMeters>NAN</DistanceMeters>
          </Trackpoint>
          <Trackpoint>
            <Time>2020-05-25T05:08:31.000Z</Time>
            <Position>
              <LatitudeDegrees>38.094318620860576629638671875</LatitudeDegrees>
              <LongitudeDegrees>-1.0941342450678348541259765625</LongitudeDegrees>
            </Position>
            <AltitudeMeters>120.8000030517578125</AltitudeMeters>
            <DistanceMeters>NAN</DistanceMeters>
          </Trackpoint>
          <Trackpoint>
            <Time>2020-05-25T05:08:32.000Z</Time>
            <Position>
              <LatitudeDegrees>38.0943727679550647735595703125</LatitudeDegrees>
              <LongitudeDegrees>-1.094151847064495086669921875</LongitudeDegrees>
            </Position>
            <AltitudeMeters>120.8000030517578125</AltitudeMeters>
            <DistanceMeters>NAN</DistanceMeters>
          </Trackpoint>
          <Trackpoint>
            <Time>2020-05-25T05:08:33.000Z</Time>
            <Position>
              <LatitudeDegrees>38.094429261982440948486328125</LatitudeDegrees>
              <LongitudeDegrees>-1.0941677726805210113525390625</LongitudeDegrees>
            </Position>
            <AltitudeMeters>121</AltitudeMeters>
            <DistanceMeters>NAN</DistanceMeters>
          </Trackpoint>
          <Trackpoint>
            <Time>2020-05-25T05:08:34.000Z</Time>
            <Position>
              <LatitudeDegrees>38.0944857560098171234130859375</LatitudeDegrees>
              <LongitudeDegrees>-1.09418126754462718963623046875</LongitudeDegrees>
            </Position>
            <AltitudeMeters>121</AltitudeMeters>
            <DistanceMeters>NAN</DistanceMeters>
          </Trackpoint>
          <Trackpoint>
            <Time>2020-05-25T05:08:35.000Z</Time>
            <Position>
              <LatitudeDegrees>38.094542585313320159912109375</LatitudeDegrees>
              <LongitudeDegrees>-1.09419333748519420623779296875</LongitudeDegrees>
            </Position>
            <AltitudeMeters>121.1999969482421875</AltitudeMeters>
            <DistanceMeters>NAN</DistanceMeters>
          </Trackpoint>
          <Trackpoint>
            <Time>2020-05-25T05:08:36.000Z</Time>
            <Position>
              <LatitudeDegrees>38.09459983371198177337646484375</LatitudeDegrees>
              <LongitudeDegrees>-1.09420339576900005340576171875</LongitudeDegrees>
            </Position>
            <AltitudeMeters>121.40000152587890625</AltitudeMeters>
            <DistanceMeters>NAN</DistanceMeters>
          </Trackpoint>
          <Trackpoint>
            <Time>2020-05-25T05:08:37.000Z</Time>
            <Position>
              <LatitudeDegrees>38.0946577526628971099853515625</LatitudeDegrees>
              <LongitudeDegrees>-1.0942116938531398773193359375</LongitudeDegrees>
            </Position>
            <AltitudeMeters>121.40000152587890625</AltitudeMeters>
            <DistanceMeters>NAN</DistanceMeters>
          </Trackpoint>
          <Trackpoint>
            <Time>2020-05-25T05:08:38.000Z</Time>
            <Position>
              <LatitudeDegrees>38.094716928899288177490234375</LatitudeDegrees>
              <LongitudeDegrees>-1.09421990811824798583984375</LongitudeDegrees>
            </Position>
            <AltitudeMeters>121.40000152587890625</AltitudeMeters>
            <DistanceMeters>NAN</DistanceMeters>
          </Trackpoint>
          <Trackpoint>
            <Time>2020-05-25T05:08:39.000Z</Time>
            <Position>
              <LatitudeDegrees>38.09477518312633037567138671875</LatitudeDegrees>
              <LongitudeDegrees>-1.0942277871072292327880859375</LongitudeDegrees>
            </Position>
            <AltitudeMeters>121.59999847412109375</AltitudeMeters>
            <DistanceMeters>NAN</DistanceMeters>
          </Trackpoint>
          <Trackpoint>
            <Time>2020-05-25T05:08:40.000Z</Time>
            <Position>
              <LatitudeDegrees>38.0948334373533725738525390625</LatitudeDegrees>
              <LongitudeDegrees>-1.0942358337342739105224609375</LongitudeDegrees>
            </Position>
            <AltitudeMeters>121.59999847412109375</AltitudeMeters>
            <DistanceMeters>NAN</DistanceMeters>
          </Trackpoint>
          <Trackpoint>
            <Time>2020-05-25T05:08:41.000Z</Time>
            <Position>
              <LatitudeDegrees>38.09489236213266849517822265625</LatitudeDegrees>
              <LongitudeDegrees>-1.09424404799938201904296875</LongitudeDegrees>
            </Position>
            <AltitudeMeters>121.8000030517578125</AltitudeMeters>
            <DistanceMeters>NAN</DistanceMeters>
          </Trackpoint>
          <Trackpoint>
            <Time>2020-05-25T05:08:42.000Z</Time>
            <Position>
              <LatitudeDegrees>38.0949514545500278472900390625</LatitudeDegrees>
              <LongitudeDegrees>-1.094251088798046112060546875</LongitudeDegrees>
            </Position>
            <AltitudeMeters>121.8000030517578125</AltitudeMeters>
            <DistanceMeters>NAN</DistanceMeters>
          </Trackpoint>
          <Trackpoint>
            <Time>2020-05-25T05:08:43.000Z</Time>
            <Position>
              <LatitudeDegrees>38.09501071460545063018798828125</LatitudeDegrees>
              <LongitudeDegrees>-1.0942576266825199127197265625</LongitudeDegrees>
            </Position>
            <AltitudeMeters>121.8000030517578125</AltitudeMeters>
            <DistanceMeters>NAN</DistanceMeters>
          </Trackpoint>
          <Trackpoint>
            <Time>2020-05-25T05:08:44.000Z</Time>
            <Position>
              <LatitudeDegrees>38.09506922028958797454833984375</LatitudeDegrees>
              <LongitudeDegrees>-1.09426542185246944427490234375</LongitudeDegrees>
            </Position>
            <AltitudeMeters>122</AltitudeMeters>
            <DistanceMeters>NAN</DistanceMeters>
          </Trackpoint>
          <Trackpoint>
            <Time>2020-05-25T05:08:45.000Z</Time>
            <Position>
              <LatitudeDegrees>38.09512789361178874969482421875</LatitudeDegrees>
              <LongitudeDegrees>-1.0942733846604824066162109375</LongitudeDegrees>
            </Position>
            <AltitudeMeters>122</AltitudeMeters>
            <DistanceMeters>NAN</DistanceMeters>
          </Trackpoint>
          <Trackpoint>
            <Time>2020-05-25T05:08:46.000Z</Time>
            <Position>
              <LatitudeDegrees>38.09518774040043354034423828125</LatitudeDegrees>
              <LongitudeDegrees>-1.0942810960114002227783203125</LongitudeDegrees>
            </Position>
            <AltitudeMeters>122.1999969482421875</AltitudeMeters>
            <DistanceMeters>NAN</DistanceMeters>
          </Trackpoint>
          <Trackpoint>
            <Time>2020-05-25T05:08:47.000Z</Time>
            <Position>
              <LatitudeDegrees>38.09524741955101490020751953125</LatitudeDegrees>
              <LongitudeDegrees>-1.09428889118134975433349609375</LongitudeDegrees>
            </Position>
            <AltitudeMeters>122.1999969482421875</AltitudeMeters>
            <DistanceMeters>NAN</DistanceMeters>
          </Trackpoint>
          <Trackpoint>
            <Time>2020-05-25T05:08:48.000Z</Time>
            <Position>
              <LatitudeDegrees>38.0953071825206279754638671875</LatitudeDegrees>
              <LongitudeDegrees>-1.09429593198001384735107421875</LongitudeDegrees>
            </Position>
            <AltitudeMeters>122.1999969482421875</AltitudeMeters>
            <DistanceMeters>NAN</DistanceMeters>
          </Trackpoint>
          <Trackpoint>
            <Time>2020-05-25T05:08:49.000Z</Time>
            <Position>
              <LatitudeDegrees>38.09536635875701904296875</LatitudeDegrees>
              <LongitudeDegrees>-1.0943042300641536712646484375</LongitudeDegrees>
            </Position>
            <AltitudeMeters>122.40000152587890625</AltitudeMeters>
            <DistanceMeters>NAN</DistanceMeters>
          </Trackpoint>
          <Trackpoint>
            <Time>2020-05-25T05:08:50.000Z</Time>
            <Position>
              <LatitudeDegrees>38.09542494826018810272216796875</LatitudeDegrees>
              <LongitudeDegrees>-1.094315461814403533935546875</LongitudeDegrees>
            </Position>
            <AltitudeMeters>122.40000152587890625</AltitudeMeters>
            <DistanceMeters>NAN</DistanceMeters>
          </Trackpoint>
          <Trackpoint>
            <Time>2020-05-25T05:08:51.000Z</Time>
            <Position>
              <LatitudeDegrees>38.09548295103013515472412109375</LatitudeDegrees>
              <LongitudeDegrees>-1.094328202307224273681640625</LongitudeDegrees>
            </Position>
            <AltitudeMeters>122.59999847412109375</AltitudeMeters>
            <DistanceMeters>NAN</DistanceMeters>
          </Trackpoint>
          <Trackpoint>
            <Time>2020-05-25T05:08:52.000Z</Time>
            <Position>
              <LatitudeDegrees>38.095540367066860198974609375</LatitudeDegrees>
              <LongitudeDegrees>-1.09434303827583789825439453125</LongitudeDegrees>
            </Position>
            <AltitudeMeters>122.59999847412109375</AltitudeMeters>
            <DistanceMeters>NAN</DistanceMeters>
          </Trackpoint>
          <Trackpoint>
            <Time>2020-05-25T05:08:53.000Z</Time>
            <Position>
              <LatitudeDegrees>38.09559711255133152008056640625</LatitudeDegrees>
              <LongitudeDegrees>-1.09436097554862499237060546875</LongitudeDegrees>
            </Position>
            <AltitudeMeters>122.8000030517578125</AltitudeMeters>
            <DistanceMeters>NAN</DistanceMeters>
          </Trackpoint>
          <Trackpoint>
            <Time>2020-05-25T05:08:54.000Z</Time>
            <Position>
              <LatitudeDegrees>38.0956531874835491180419921875</LatitudeDegrees>
              <LongitudeDegrees>-1.09438276849687099456787109375</LongitudeDegrees>
            </Position>
            <AltitudeMeters>123</AltitudeMeters>
            <DistanceMeters>NAN</DistanceMeters>
          </Trackpoint>
          <Trackpoint>
            <Time>2020-05-25T05:08:55.000Z</Time>
            <Position>
              <LatitudeDegrees>38.09570808894932270050048828125</LatitudeDegrees>
              <LongitudeDegrees>-1.09440858475863933563232421875</LongitudeDegrees>
            </Position>
            <AltitudeMeters>123</AltitudeMeters>
            <DistanceMeters>NAN</DistanceMeters>
          </Trackpoint>
          <Trackpoint>
            <Time>2020-05-25T05:08:56.000Z</Time>
            <Position>
              <LatitudeDegrees>38.09581185691058635711669921875</LatitudeDegrees>
              <LongitudeDegrees>-1.09447681345045566558837890625</LongitudeDegrees>
            </Position>
            <AltitudeMeters>123.1999969482421875</AltitudeMeters>
            <DistanceMeters>NAN</DistanceMeters>
          </Trackpoint>
          <Trackpoint>
            <Time>2020-05-25T05:08:57.000Z</Time>
            <Position>
              <LatitudeDegrees>38.09581185691058635711669921875</LatitudeDegrees>
              <LongitudeDegrees>-1.09447681345045566558837890625</LongitudeDegrees>
            </Position>
            <AltitudeMeters>123.40000152587890625</AltitudeMeters>
            <DistanceMeters>NAN</DistanceMeters>
          </Trackpoint>
          <Trackpoint>
            <Time>2020-05-25T05:08:58.000Z</Time>
            <Position>
              <LatitudeDegrees>38.0958613939583301544189453125</LatitudeDegrees>
              <LongitudeDegrees>-1.0945174656808376312255859375</LongitudeDegrees>
            </Position>
            <AltitudeMeters>123.40000152587890625</AltitudeMeters>
            <DistanceMeters>NAN</DistanceMeters>
          </Trackpoint>
          <Trackpoint>
            <Time>2020-05-25T05:08:59.000Z</Time>
            <Position>
              <LatitudeDegrees>38.09590958990156650543212890625</LatitudeDegrees>
              <LongitudeDegrees>-1.09456080012023448944091796875</LongitudeDegrees>
            </Position>
            <AltitudeMeters>123.59999847412109375</AltitudeMeters>
            <DistanceMeters>NAN</DistanceMeters>
          </Trackpoint>
          <Trackpoint>
            <Time>2020-05-25T05:09:00.000Z</Time>
            <Position>
              <LatitudeDegrees>38.09595585800707340240478515625</LatitudeDegrees>
              <LongitudeDegrees>-1.0946079902350902557373046875</LongitudeDegrees>
            </Position>
            <AltitudeMeters>123.8000030517578125</AltitudeMeters>
            <DistanceMeters>NAN</DistanceMeters>
          </Trackpoint>
          <Trackpoint>
            <Time>2020-05-25T05:09:01.000Z</Time>
            <Position>
              <LatitudeDegrees>38.0959991924464702606201171875</LatitudeDegrees>
              <LongitudeDegrees>-1.0946586169302463531494140625</LongitudeDegrees>
            </Position>
            <AltitudeMeters>123.8000030517578125</AltitudeMeters>
            <DistanceMeters>NAN</DistanceMeters>
          </Trackpoint>
          <Trackpoint>
            <Time>2020-05-25T05:09:02.000Z</Time>
            <Position>
              <LatitudeDegrees>38.0960394255816936492919921875</LatitudeDegrees>
              <LongitudeDegrees>-1.0947112552821636199951171875</LongitudeDegrees>
            </Position>
            <AltitudeMeters>123.8000030517578125</AltitudeMeters>
            <DistanceMeters>NAN</DistanceMeters>
          </Trackpoint>
          <Trackpoint>
            <Time>2020-05-25T05:09:03.000Z</Time>
            <Position>
              <LatitudeDegrees>38.09607672505080699920654296875</LatitudeDegrees>
              <LongitudeDegrees>-1.094766743481159210205078125</LongitudeDegrees>
            </Position>
            <AltitudeMeters>124</AltitudeMeters>
            <DistanceMeters>NAN</DistanceMeters>
          </Trackpoint>
          <Trackpoint>
            <Time>2020-05-25T05:09:04.000Z</Time>
            <Position>
              <LatitudeDegrees>38.09611109085381031036376953125</LatitudeDegrees>
              <LongitudeDegrees>-1.09482466243207454681396484375</LongitudeDegrees>
            </Position>
            <AltitudeMeters>124</AltitudeMeters>
            <DistanceMeters>NAN</DistanceMeters>
          </Trackpoint>
          <Trackpoint>
            <Time>2020-05-25T05:09:05.000Z</Time>
            <Position>
              <LatitudeDegrees>38.09614277444779872894287109375</LatitudeDegrees>
              <LongitudeDegrees>-1.0948855988681316375732421875</LongitudeDegrees>
            </Position>
            <AltitudeMeters>124.1999969482421875</AltitudeMeters>
            <DistanceMeters>NAN</DistanceMeters>
          </Trackpoint>
          <Trackpoint>
            <Time>2020-05-25T05:09:06.000Z</Time>
            <Position>
              <LatitudeDegrees>38.0961725302040576934814453125</LatitudeDegrees>
              <LongitudeDegrees>-1.094947122037410736083984375</LongitudeDegrees>
            </Position>
            <AltitudeMeters>124.1999969482421875</AltitudeMeters>
            <DistanceMeters>NAN</DistanceMeters>
          </Trackpoint>
          <Trackpoint>
            <Time>2020-05-25T05:09:07.000Z</Time>
            <Position>
              <LatitudeDegrees>38.09620144776999950408935546875</LatitudeDegrees>
              <LongitudeDegrees>-1.09500889666378498077392578125</LongitudeDegrees>
            </Position>
            <AltitudeMeters>124.40000152587890625</AltitudeMeters>
            <DistanceMeters>NAN</DistanceMeters>
          </Trackpoint>
          <Trackpoint>
            <Time>2020-05-25T05:09:08.000Z</Time>
            <Position>
              <LatitudeDegrees>38.09622810222208499908447265625</LatitudeDegrees>
              <LongitudeDegrees>-1.0950710065662860870361328125</LongitudeDegrees>
            </Position>
            <AltitudeMeters>124.40000152587890625</AltitudeMeters>
            <DistanceMeters>NAN</DistanceMeters>
          </Trackpoint>
          <Trackpoint>
            <Time>2020-05-25T05:09:09.000Z</Time>
            <Position>
              <LatitudeDegrees>38.0962509848177433013916015625</LatitudeDegrees>
              <LongitudeDegrees>-1.095134206116199493408203125</LongitudeDegrees>
            </Position>
            <AltitudeMeters>124.59999847412109375</AltitudeMeters>
            <DistanceMeters>NAN</DistanceMeters>
          </Trackpoint>
          <Trackpoint>
            <Time>2020-05-25T05:09:10.000Z</Time>
            <Position>
              <LatitudeDegrees>38.0962721072137355804443359375</LatitudeDegrees>
              <LongitudeDegrees>-1.09519598074257373809814453125</LongitudeDegrees>
            </Position>
            <AltitudeMeters>124.8000030517578125</AltitudeMeters>
            <DistanceMeters>NAN</DistanceMeters>
          </Trackpoint>
          <Trackpoint>
            <Time>2020-05-25T05:09:11.000Z</Time>
            <Position>
              <LatitudeDegrees>38.09629063121974468231201171875</LatitudeDegrees>
              <LongitudeDegrees>-1.09525666572153568267822265625</LongitudeDegrees>
            </Position>
            <AltitudeMeters>124.8000030517578125</AltitudeMeters>
            <DistanceMeters>NAN</DistanceMeters>
          </Trackpoint>
          <Trackpoint>
            <Time>2020-05-25T05:09:12.000Z</Time>
            <Position>
              <LatitudeDegrees>38.09632457792758941650390625</LatitudeDegrees>
              <LongitudeDegrees>-1.09537451528012752532958984375</LongitudeDegrees>
            </Position>
            <AltitudeMeters>124.8000030517578125</AltitudeMeters>
            <DistanceMeters>NAN</DistanceMeters>
          </Trackpoint>
          <Trackpoint>
            <Time>2020-05-25T05:09:13.000Z</Time>
            <Position>
              <LatitudeDegrees>38.09632457792758941650390625</LatitudeDegrees>
              <LongitudeDegrees>-1.09537451528012752532958984375</LongitudeDegrees>
            </Position>
            <AltitudeMeters>125</AltitudeMeters>
            <DistanceMeters>NAN</DistanceMeters>
          </Trackpoint>
          <Trackpoint>
            <Time>2020-05-25T05:09:14.000Z</Time>
            <Position>
              <LatitudeDegrees>38.09635416604578495025634765625</LatitudeDegrees>
              <LongitudeDegrees>-1.09548532404005527496337890625</LongitudeDegrees>
            </Position>
            <AltitudeMeters>125</AltitudeMeters>
            <DistanceMeters>NAN</DistanceMeters>
          </Trackpoint>
          <Trackpoint>
            <Time>2020-05-25T05:09:15.000Z</Time>
            <Position>
              <LatitudeDegrees>38.09635416604578495025634765625</LatitudeDegrees>
              <LongitudeDegrees>-1.09548532404005527496337890625</LongitudeDegrees>
            </Position>
            <AltitudeMeters>125.40000152587890625</AltitudeMeters>
            <DistanceMeters>NAN</DistanceMeters>
          </Trackpoint>
          <Trackpoint>
            <Time>2020-05-25T05:09:16.000Z</Time>
            <Position>
              <LatitudeDegrees>38.096370510756969451904296875</LatitudeDegrees>
              <LongitudeDegrees>-1.09553896822035312652587890625</LongitudeDegrees>
            </Position>
            <AltitudeMeters>125.59999847412109375</AltitudeMeters>
            <DistanceMeters>NAN</DistanceMeters>
          </Trackpoint>
          <Trackpoint>
            <Time>2020-05-25T05:09:17.000Z</Time>
            <Position>
              <LatitudeDegrees>38.0963857658207416534423828125</LatitudeDegrees>
              <LongitudeDegrees>-1.09559143893420696258544921875</LongitudeDegrees>
            </Position>
            <AltitudeMeters>125.8000030517578125</AltitudeMeters>
            <DistanceMeters>NAN</DistanceMeters>
          </Trackpoint>
          <Trackpoint>
            <Time>2020-05-25T05:09:18.000Z</Time>
            <Position>
              <LatitudeDegrees>38.09640026651322841644287109375</LatitudeDegrees>
              <LongitudeDegrees>-1.09564290381968021392822265625</LongitudeDegrees>
            </Position>
            <AltitudeMeters>126</AltitudeMeters>
            <DistanceMeters>NAN</DistanceMeters>
          </Trackpoint>
          <Trackpoint>
            <Time>2020-05-25T05:09:19.000Z</Time>
            <Position>
              <LatitudeDegrees>38.09641309082508087158203125</LatitudeDegrees>
              <LongitudeDegrees>-1.0956946201622486114501953125</LongitudeDegrees>
            </Position>
            <AltitudeMeters>126.1999969482421875</AltitudeMeters>
            <DistanceMeters>NAN</DistanceMeters>
          </Trackpoint>
          <Trackpoint>
            <Time>2020-05-25T05:09:20.000Z</Time>
            <Position>
              <LatitudeDegrees>38.0964414216578006744384765625</LatitudeDegrees>
              <LongitudeDegrees>-1.0957945324480533599853515625</LongitudeDegrees>
            </Position>
            <AltitudeMeters>126.59999847412109375</AltitudeMeters>
            <DistanceMeters>NAN</DistanceMeters>
          </Trackpoint>
          <Trackpoint>
            <Time>2020-05-25T05:09:21.000Z</Time>
            <Position>
              <LatitudeDegrees>38.0964414216578006744384765625</LatitudeDegrees>
              <LongitudeDegrees>-1.0957945324480533599853515625</LongitudeDegrees>
            </Position>
            <AltitudeMeters>127</AltitudeMeters>
            <DistanceMeters>NAN</DistanceMeters>
          </Trackpoint>
          <Trackpoint>
            <Time>2020-05-25T05:09:22.000Z</Time>
            <Position>
              <LatitudeDegrees>38.09645676054060459136962890625</LatitudeDegrees>
              <LongitudeDegrees>-1.09584256075322628021240234375</LongitudeDegrees>
            </Position>
            <AltitudeMeters>127.40000152587890625</AltitudeMeters>
            <DistanceMeters>NAN</DistanceMeters>
          </Trackpoint>
          <Trackpoint>
            <Time>2020-05-25T05:09:23.000Z</Time>
            <Position>
              <LatitudeDegrees>38.09647251851856708526611328125</LatitudeDegrees>
              <LongitudeDegrees>-1.09588958323001861572265625</LongitudeDegrees>
            </Position>
            <AltitudeMeters>127.8000030517578125</AltitudeMeters>
            <DistanceMeters>NAN</DistanceMeters>
          </Trackpoint>
          <Trackpoint>
            <Time>2020-05-25T05:09:24.000Z</Time>
            <Position>
              <LatitudeDegrees>38.09650286100804805755615234375</LatitudeDegrees>
              <LongitudeDegrees>-1.09598203562200069427490234375</LongitudeDegrees>
            </Position>
            <AltitudeMeters>128.1999969482421875</AltitudeMeters>
            <DistanceMeters>NAN</DistanceMeters>
          </Trackpoint>
          <Trackpoint>
            <Time>2020-05-25T05:09:25.000Z</Time>
            <Position>
              <LatitudeDegrees>38.09650286100804805755615234375</LatitudeDegrees>
              <LongitudeDegrees>-1.09598203562200069427490234375</LongitudeDegrees>
            </Position>
            <AltitudeMeters>128.600006103515625</AltitudeMeters>
            <DistanceMeters>NAN</DistanceMeters>
          </Trackpoint>
          <Trackpoint>
            <Time>2020-05-25T05:09:26.000Z</Time>
            <Position>
              <LatitudeDegrees>38.09653647243976593017578125</LatitudeDegrees>
              <LongitudeDegrees>-1.09606929123401641845703125</LongitudeDegrees>
            </Position>
            <AltitudeMeters>129.1999969482421875</AltitudeMeters>
            <DistanceMeters>NAN</DistanceMeters>
          </Trackpoint>
          <Trackpoint>
            <Time>2020-05-25T05:09:27.000Z</Time>
            <Position>
              <LatitudeDegrees>38.09653647243976593017578125</LatitudeDegrees>
              <LongitudeDegrees>-1.09606929123401641845703125</LongitudeDegrees>
            </Position>
            <AltitudeMeters>129.399993896484375</AltitudeMeters>
            <DistanceMeters>NAN</DistanceMeters>
          </Trackpoint>
          <Trackpoint>
            <Time>2020-05-25T05:09:28.000Z</Time>
            <Position>
              <LatitudeDegrees>38.096554912626743316650390625</LatitudeDegrees>
              <LongitudeDegrees>-1.0961106978356838226318359375</LongitudeDegrees>
            </Position>
            <AltitudeMeters>129.8000030517578125</AltitudeMeters>
            <DistanceMeters>NAN</DistanceMeters>
          </Trackpoint>
          <Trackpoint>
            <Time>2020-05-25T05:09:29.000Z</Time>
            <Position>
              <LatitudeDegrees>38.09657477773725986480712890625</LatitudeDegrees>
              <LongitudeDegrees>-1.09615084715187549591064453125</LongitudeDegrees>
            </Position>
            <AltitudeMeters>130</AltitudeMeters>
            <DistanceMeters>NAN</DistanceMeters>
          </Trackpoint>
          <Trackpoint>
            <Time>2020-05-25T05:09:30.000Z</Time>
            <Position>
              <LatitudeDegrees>38.096614591777324676513671875</LatitudeDegrees>
              <LongitudeDegrees>-1.09623181633651256561279296875</LongitudeDegrees>
            </Position>
            <AltitudeMeters>130.1999969482421875</AltitudeMeters>
            <DistanceMeters>NAN</DistanceMeters>
          </Trackpoint>
          <Trackpoint>
            <Time>2020-05-25T05:09:31.000Z</Time>
            <Position>
              <LatitudeDegrees>38.096614591777324676513671875</LatitudeDegrees>
              <LongitudeDegrees>-1.09623181633651256561279296875</LongitudeDegrees>
            </Position>
            <AltitudeMeters>130.600006103515625</AltitudeMeters>
            <DistanceMeters>NAN</DistanceMeters>
          </Trackpoint>
          <Trackpoint>
            <Time>2020-05-25T05:09:32.000Z</Time>
            <Position>
              <LatitudeDegrees>38.09666111133992671966552734375</LatitudeDegrees>
              <LongitudeDegrees>-1.09630658291280269622802734375</LongitudeDegrees>
            </Position>
            <AltitudeMeters>131</AltitudeMeters>
            <DistanceMeters>NAN</DistanceMeters>
          </Trackpoint>
          <Trackpoint>
            <Time>2020-05-25T05:09:33.000Z</Time>
            <Position>
              <LatitudeDegrees>38.09666111133992671966552734375</LatitudeDegrees>
              <LongitudeDegrees>-1.09630658291280269622802734375</LongitudeDegrees>
            </Position>
            <AltitudeMeters>131.1999969482421875</AltitudeMeters>
            <DistanceMeters>NAN</DistanceMeters>
          </Trackpoint>
          <Trackpoint>
            <Time>2020-05-25T05:09:34.000Z</Time>
            <Position>
              <LatitudeDegrees>38.09668642468750476837158203125</LatitudeDegrees>
              <LongitudeDegrees>-1.09634044580161571502685546875</LongitudeDegrees>
            </Position>
            <AltitudeMeters>131.600006103515625</AltitudeMeters>
            <DistanceMeters>NAN</DistanceMeters>
          </Trackpoint>
          <Trackpoint>
            <Time>2020-05-25T05:09:35.000Z</Time>
            <Position>
              <LatitudeDegrees>38.09671291150152683258056640625</LatitudeDegrees>
              <LongitudeDegrees>-1.0963722132146358489990234375</LongitudeDegrees>
            </Position>
            <AltitudeMeters>131.8000030517578125</AltitudeMeters>
            <DistanceMeters>NAN</DistanceMeters>
          </Trackpoint>
          <Trackpoint>
            <Time>2020-05-25T05:09:36.000Z</Time>
            <Position>
              <LatitudeDegrees>38.09674208052456378936767578125</LatitudeDegrees>
              <LongitudeDegrees>-1.096402890980243682861328125</LongitudeDegrees>
            </Position>
            <AltitudeMeters>132.1999969482421875</AltitudeMeters>
            <DistanceMeters>NAN</DistanceMeters>
          </Trackpoint>
          <Trackpoint>
            <Time>2020-05-25T05:09:37.000Z</Time>
            <Position>
              <LatitudeDegrees>38.09677183628082275390625</LatitudeDegrees>
              <LongitudeDegrees>-1.0964308865368366241455078125</LongitudeDegrees>
            </Position>
            <AltitudeMeters>132.600006103515625</AltitudeMeters>
            <DistanceMeters>NAN</DistanceMeters>
          </Trackpoint>
          <Trackpoint>
            <Time>2020-05-25T05:09:38.000Z</Time>
            <Position>
              <LatitudeDegrees>38.0968031845986843109130859375</LatitudeDegrees>
              <LongitudeDegrees>-1.0964570380747318267822265625</LongitudeDegrees>
            </Position>
            <AltitudeMeters>132.8000030517578125</AltitudeMeters>
            <DistanceMeters>NAN</DistanceMeters>
          </Trackpoint>
          <Trackpoint>
            <Time>2020-05-25T05:09:39.000Z</Time>
            <Position>
              <LatitudeDegrees>38.0968350358307361602783203125</LatitudeDegrees>
              <LongitudeDegrees>-1.0964825190603733062744140625</LongitudeDegrees>
            </Position>
            <AltitudeMeters>133</AltitudeMeters>
            <DistanceMeters>NAN</DistanceMeters>
          </Trackpoint>
          <Trackpoint>
            <Time>2020-05-25T05:09:40.000Z</Time>
            <Position>
              <LatitudeDegrees>38.096868060529232025146484375</LatitudeDegrees>
              <LongitudeDegrees>-1.0965086705982685089111328125</LongitudeDegrees>
            </Position>
            <AltitudeMeters>133.399993896484375</AltitudeMeters>
            <DistanceMeters>NAN</DistanceMeters>
          </Trackpoint>
          <Trackpoint>
            <Time>2020-05-25T05:09:41.000Z</Time>
            <Position>
              <LatitudeDegrees>38.09690234251320362091064453125</LatitudeDegrees>
              <LongitudeDegrees>-1.09653063118457794189453125</LongitudeDegrees>
            </Position>
            <AltitudeMeters>133.600006103515625</AltitudeMeters>
            <DistanceMeters>NAN</DistanceMeters>
          </Trackpoint>
          <Trackpoint>
            <Time>2020-05-25T05:09:42.000Z</Time>
            <Position>
              <LatitudeDegrees>38.09693788178265094757080078125</LatitudeDegrees>
              <LongitudeDegrees>-1.09654965810477733612060546875</LongitudeDegrees>
            </Position>
            <AltitudeMeters>134</AltitudeMeters>
            <DistanceMeters>NAN</DistanceMeters>
          </Trackpoint>
          <Trackpoint>
            <Time>2020-05-25T05:09:43.000Z</Time>
            <Position>
              <LatitudeDegrees>38.09697241522371768951416015625</LatitudeDegrees>
              <LongitudeDegrees>-1.09656625427305698394775390625</LongitudeDegrees>
            </Position>
            <AltitudeMeters>134.1999969482421875</AltitudeMeters>
            <DistanceMeters>NAN</DistanceMeters>
          </Trackpoint>
          <Trackpoint>
            <Time>2020-05-25T05:09:44.000Z</Time>
            <Position>
              <LatitudeDegrees>38.097008205950260162353515625</LatitudeDegrees>
              <LongitudeDegrees>-1.09658335335552692413330078125</LongitudeDegrees>
            </Position>
            <AltitudeMeters>134.600006103515625</AltitudeMeters>
            <DistanceMeters>NAN</DistanceMeters>
          </Trackpoint>
          <Trackpoint>
            <Time>2020-05-25T05:09:45.000Z</Time>
            <Position>
              <LatitudeDegrees>38.097045421600341796875</LatitudeDegrees>
              <LongitudeDegrees>-1.0965998657047748565673828125</LongitudeDegrees>
            </Position>
            <AltitudeMeters>134.8000030517578125</AltitudeMeters>
            <DistanceMeters>NAN</DistanceMeters>
          </Trackpoint>
          <Trackpoint>
            <Time>2020-05-25T05:09:46.000Z</Time>
            <Position>
              <LatitudeDegrees>38.09708070941269397735595703125</LatitudeDegrees>
              <LongitudeDegrees>-1.0966179706156253814697265625</LongitudeDegrees>
            </Position>
            <AltitudeMeters>135.1999969482421875</AltitudeMeters>
            <DistanceMeters>NAN</DistanceMeters>
          </Trackpoint>
          <Trackpoint>
            <Time>2020-05-25T05:09:47.000Z</Time>
            <Position>
              <LatitudeDegrees>38.09711691923439502716064453125</LatitudeDegrees>
              <LongitudeDegrees>-1.09663297422230243682861328125</LongitudeDegrees>
            </Position>
            <AltitudeMeters>135.600006103515625</AltitudeMeters>
            <DistanceMeters>NAN</DistanceMeters>
          </Trackpoint>
          <Trackpoint>
            <Time>2020-05-25T05:09:48.000Z</Time>
            <Position>
              <LatitudeDegrees>38.0971535481512546539306640625</LatitudeDegrees>
              <LongitudeDegrees>-1.096644960343837738037109375</LongitudeDegrees>
            </Position>
            <AltitudeMeters>136</AltitudeMeters>
            <DistanceMeters>NAN</DistanceMeters>
          </Trackpoint>
          <Trackpoint>
            <Time>2020-05-25T05:09:49.000Z</Time>
            <Position>
              <LatitudeDegrees>38.097190596163272857666015625</LatitudeDegrees>
              <LongitudeDegrees>-1.09665409661829471588134765625</LongitudeDegrees>
            </Position>
            <AltitudeMeters>136.1999969482421875</AltitudeMeters>
            <DistanceMeters>NAN</DistanceMeters>
          </Trackpoint>
          <Trackpoint>
            <Time>2020-05-25T05:09:50.000Z</Time>
            <Position>
              <LatitudeDegrees>38.09726594947278499603271484375</LatitudeDegrees>
              <LongitudeDegrees>-1.096669100224971771240234375</LongitudeDegrees>
            </Position>
            <AltitudeMeters>136.1999969482421875</AltitudeMeters>
            <DistanceMeters>NAN</DistanceMeters>
          </Trackpoint>
          <Trackpoint>
            <Time>2020-05-25T05:09:51.000Z</Time>
            <Position>
              <LatitudeDegrees>38.09726594947278499603271484375</LatitudeDegrees>
              <LongitudeDegrees>-1.096669100224971771240234375</LongitudeDegrees>
            </Position>
            <AltitudeMeters>136.600006103515625</AltitudeMeters>
            <DistanceMeters>NAN</DistanceMeters>
          </Trackpoint>
          <Trackpoint>
            <Time>2020-05-25T05:09:52.000Z</Time>
            <Position>
              <LatitudeDegrees>38.09730249457061290740966796875</LatitudeDegrees>
              <LongitudeDegrees>-1.0966783203184604644775390625</LongitudeDegrees>
            </Position>
            <AltitudeMeters>137</AltitudeMeters>
            <DistanceMeters>NAN</DistanceMeters>
          </Trackpoint>
          <Trackpoint>
            <Time>2020-05-25T05:09:53.000Z</Time>
            <Position>
              <LatitudeDegrees>38.09733903966844081878662109375</LatitudeDegrees>
              <LongitudeDegrees>-1.09668661840260028839111328125</LongitudeDegrees>
            </Position>
            <AltitudeMeters>137.1999969482421875</AltitudeMeters>
            <DistanceMeters>NAN</DistanceMeters>
          </Trackpoint>
          <Trackpoint>
            <Time>2020-05-25T05:09:54.000Z</Time>
            <Position>
              <LatitudeDegrees>38.097374998033046722412109375</LatitudeDegrees>
              <LongitudeDegrees>-1.09669432975351810455322265625</LongitudeDegrees>
            </Position>
            <AltitudeMeters>137.399993896484375</AltitudeMeters>
            <DistanceMeters>NAN</DistanceMeters>
          </Trackpoint>
          <Trackpoint>
            <Time>2020-05-25T05:09:55.000Z</Time>
            <Position>
              <LatitudeDegrees>38.0974102020263671875</LatitudeDegrees>
              <LongitudeDegrees>-1.09670405276119709014892578125</LongitudeDegrees>
            </Position>
            <AltitudeMeters>138.1999969482421875</AltitudeMeters>
            <DistanceMeters>NAN</DistanceMeters>
          </Trackpoint>
          <Trackpoint>
            <Time>2020-05-25T05:09:56.000Z</Time>
            <Position>
              <LatitudeDegrees>38.09744465164840221405029296875</LatitudeDegrees>
              <LongitudeDegrees>-1.09671545214951038360595703125</LongitudeDegrees>
            </Position>
            <AltitudeMeters>138.399993896484375</AltitudeMeters>
            <DistanceMeters>NAN</DistanceMeters>
          </Trackpoint>
          <Trackpoint>
            <Time>2020-05-25T05:09:57.000Z</Time>
            <Position>
              <LatitudeDegrees>38.0974787659943103790283203125</LatitudeDegrees>
              <LongitudeDegrees>-1.09672534279525279998779296875</LongitudeDegrees>
            </Position>
            <AltitudeMeters>138.600006103515625</AltitudeMeters>
            <DistanceMeters>NAN</DistanceMeters>
          </Trackpoint>
          <Trackpoint>
            <Time>2020-05-25T05:09:58.000Z</Time>
            <Position>
              <LatitudeDegrees>38.097513802349567413330078125</LatitudeDegrees>
              <LongitudeDegrees>-1.09673238359391689300537109375</LongitudeDegrees>
            </Position>
            <AltitudeMeters>139</AltitudeMeters>
            <DistanceMeters>NAN</DistanceMeters>
          </Trackpoint>
          <Trackpoint>
            <Time>2020-05-25T05:09:59.000Z</Time>
            <Position>
              <LatitudeDegrees>38.0975485034286975860595703125</LatitudeDegrees>
              <LongitudeDegrees>-1.09674026258289813995361328125</LongitudeDegrees>
            </Position>
            <AltitudeMeters>139.1999969482421875</AltitudeMeters>
            <DistanceMeters>NAN</DistanceMeters>
          </Trackpoint>
          <Trackpoint>
            <Time>2020-05-25T05:10:00.000Z</Time>
            <Position>
              <LatitudeDegrees>38.0975832045078277587890625</LatitudeDegrees>
              <LongitudeDegrees>-1.0967490635812282562255859375</LongitudeDegrees>
            </Position>
            <AltitudeMeters>139.399993896484375</AltitudeMeters>
            <DistanceMeters>NAN</DistanceMeters>
          </Trackpoint>
          <Trackpoint>
            <Time>2020-05-25T05:10:01.000Z</Time>
            <Position>
              <LatitudeDegrees>38.097619749605655670166015625</LatitudeDegrees>
              <LongitudeDegrees>-1.09675451181828975677490234375</LongitudeDegrees>
            </Position>
            <AltitudeMeters>139.600006103515625</AltitudeMeters>
            <DistanceMeters>NAN</DistanceMeters>
          </Trackpoint>
          <Trackpoint>
            <Time>2020-05-25T05:10:02.000Z</Time>
            <Position>
              <LatitudeDegrees>38.0976547859609127044677734375</LatitudeDegrees>
              <LongitudeDegrees>-1.096762306988239288330078125</LongitudeDegrees>
            </Position>
            <AltitudeMeters>139.8000030517578125</AltitudeMeters>
            <DistanceMeters>NAN</DistanceMeters>
          </Trackpoint>
          <Trackpoint>
            <Time>2020-05-25T05:10:03.000Z</Time>
            <Position>
              <LatitudeDegrees>38.09768923558294773101806640625</LatitudeDegrees>
              <LongitudeDegrees>-1.09677010215818881988525390625</LongitudeDegrees>
            </Position>
            <AltitudeMeters>140.1999969482421875</AltitudeMeters>
            <DistanceMeters>NAN</DistanceMeters>
          </Trackpoint>
          <Trackpoint>
            <Time>2020-05-25T05:10:04.000Z</Time>
            <Position>
              <LatitudeDegrees>38.097724020481109619140625</LatitudeDegrees>
              <LongitudeDegrees>-1.0967768914997577667236328125</LongitudeDegrees>
            </Position>
            <AltitudeMeters>140.399993896484375</AltitudeMeters>
            <DistanceMeters>NAN</DistanceMeters>
          </Trackpoint>
          <Trackpoint>
            <Time>2020-05-25T05:10:05.000Z</Time>
            <Position>
              <LatitudeDegrees>38.0977593921124935150146484375</LatitudeDegrees>
              <LongitudeDegrees>-1.0967872850596904754638671875</LongitudeDegrees>
            </Position>
            <AltitudeMeters>140.600006103515625</AltitudeMeters>
            <DistanceMeters>NAN</DistanceMeters>
          </Trackpoint>
          <Trackpoint>
            <Time>2020-05-25T05:10:06.000Z</Time>
            <Position>
              <LatitudeDegrees>38.09779367409646511077880859375</LatitudeDegrees>
              <LongitudeDegrees>-1.0967986844480037689208984375</LongitudeDegrees>
            </Position>
            <AltitudeMeters>140.8000030517578125</AltitudeMeters>
            <DistanceMeters>NAN</DistanceMeters>
          </Trackpoint>
          <Trackpoint>
            <Time>2020-05-25T05:10:07.000Z</Time>
            <Position>
              <LatitudeDegrees>38.09782669879496097564697265625</LatitudeDegrees>
              <LongitudeDegrees>-1.09681083820760250091552734375</LongitudeDegrees>
            </Position>
            <AltitudeMeters>141.1999969482421875</AltitudeMeters>
            <DistanceMeters>NAN</DistanceMeters>
          </Trackpoint>
          <Trackpoint>
            <Time>2020-05-25T05:10:08.000Z</Time>
            <Position>
              <LatitudeDegrees>38.09785838238894939422607421875</LatitudeDegrees>
              <LongitudeDegrees>-1.09682257287204265594482421875</LongitudeDegrees>
            </Position>
            <AltitudeMeters>141.399993896484375</AltitudeMeters>
            <DistanceMeters>NAN</DistanceMeters>
          </Trackpoint>
          <Trackpoint>
            <Time>2020-05-25T05:10:09.000Z</Time>
            <Position>
              <LatitudeDegrees>38.09788973070681095123291015625</LatitudeDegrees>
              <LongitudeDegrees>-1.09683548100292682647705078125</LongitudeDegrees>
            </Position>
            <AltitudeMeters>141.600006103515625</AltitudeMeters>
            <DistanceMeters>NAN</DistanceMeters>
          </Trackpoint>
          <Trackpoint>
            <Time>2020-05-25T05:10:10.000Z</Time>
            <Position>
              <LatitudeDegrees>38.097920827567577362060546875</LatitudeDegrees>
              <LongitudeDegrees>-1.09684989787638187408447265625</LongitudeDegrees>
            </Position>
            <AltitudeMeters>142</AltitudeMeters>
            <DistanceMeters>NAN</DistanceMeters>
          </Trackpoint>
          <Trackpoint>
            <Time>2020-05-25T05:10:11.000Z</Time>
            <Position>
              <LatitudeDegrees>38.09795125387609004974365234375</LatitudeDegrees>
              <LongitudeDegrees>-1.096865572035312652587890625</LongitudeDegrees>
            </Position>
            <AltitudeMeters>142.1999969482421875</AltitudeMeters>
            <DistanceMeters>NAN</DistanceMeters>
          </Trackpoint>
          <Trackpoint>
            <Time>2020-05-25T05:10:12.000Z</Time>
            <Position>
              <LatitudeDegrees>38.09798645786941051483154296875</LatitudeDegrees>
              <LongitudeDegrees>-1.0968814976513385772705078125</LongitudeDegrees>
            </Position>
            <AltitudeMeters>142.399993896484375</AltitudeMeters>
            <DistanceMeters>NAN</DistanceMeters>
          </Trackpoint>
          <Trackpoint>
            <Time>2020-05-25T05:10:13.000Z</Time>
            <Position>
              <LatitudeDegrees>38.09801847673952579498291015625</LatitudeDegrees>
              <LongitudeDegrees>-1.09689985401928424835205078125</LongitudeDegrees>
            </Position>
            <AltitudeMeters>142.8000030517578125</AltitudeMeters>
            <DistanceMeters>NAN</DistanceMeters>
          </Trackpoint>
          <Trackpoint>
            <Time>2020-05-25T05:10:14.000Z</Time>
            <Position>
              <LatitudeDegrees>38.09808016754686832427978515625</LatitudeDegrees>
              <LongitudeDegrees>-1.09694159589707851409912109375</LongitudeDegrees>
            </Position>
            <AltitudeMeters>143</AltitudeMeters>
            <DistanceMeters>NAN</DistanceMeters>
          </Trackpoint>
          <Trackpoint>
            <Time>2020-05-25T05:10:15.000Z</Time>
            <Position>
              <LatitudeDegrees>38.09808016754686832427978515625</LatitudeDegrees>
              <LongitudeDegrees>-1.09694159589707851409912109375</LongitudeDegrees>
            </Position>
            <AltitudeMeters>143.1999969482421875</AltitudeMeters>
            <DistanceMeters>NAN</DistanceMeters>
          </Trackpoint>
          <Trackpoint>
            <Time>2020-05-25T05:10:16.000Z</Time>
            <Position>
              <LatitudeDegrees>38.09811067767441272735595703125</LatitudeDegrees>
              <LongitudeDegrees>-1.0969653166830539703369140625</LongitudeDegrees>
            </Position>
            <AltitudeMeters>143.600006103515625</AltitudeMeters>
            <DistanceMeters>NAN</DistanceMeters>
          </Trackpoint>
          <Trackpoint>
            <Time>2020-05-25T05:10:17.000Z</Time>
            <Position>
              <LatitudeDegrees>38.09814169071614742279052734375</LatitudeDegrees>
              <LongitudeDegrees>-1.09699021093547344207763671875</LongitudeDegrees>
            </Position>
            <AltitudeMeters>143.8000030517578125</AltitudeMeters>
            <DistanceMeters>NAN</DistanceMeters>
          </Trackpoint>
          <Trackpoint>
            <Time>2020-05-25T05:10:18.000Z</Time>
            <Position>
              <LatitudeDegrees>38.09816784225404262542724609375</LatitudeDegrees>
              <LongitudeDegrees>-1.09701401554048061370849609375</LongitudeDegrees>
            </Position>
            <AltitudeMeters>144</AltitudeMeters>
            <DistanceMeters>NAN</DistanceMeters>
          </Trackpoint>
          <Trackpoint>
            <Time>2020-05-25T05:10:19.000Z</Time>
            <Position>
              <LatitudeDegrees>38.09819818474352359771728515625</LatitudeDegrees>
              <LongitudeDegrees>-1.09704184345901012420654296875</LongitudeDegrees>
            </Position>
            <AltitudeMeters>144.1999969482421875</AltitudeMeters>
            <DistanceMeters>NAN</DistanceMeters>
          </Trackpoint>
          <Trackpoint>
            <Time>2020-05-25T05:10:20.000Z</Time>
            <Position>
              <LatitudeDegrees>38.098227269947528839111328125</LatitudeDegrees>
              <LongitudeDegrees>-1.0970692522823810577392578125</LongitudeDegrees>
            </Position>
            <AltitudeMeters>144.399993896484375</AltitudeMeters>
            <DistanceMeters>NAN</DistanceMeters>
          </Trackpoint>
          <Trackpoint>
            <Time>2020-05-25T05:10:21.000Z</Time>
            <Position>
              <LatitudeDegrees>38.09825576841831207275390625</LatitudeDegrees>
              <LongitudeDegrees>-1.0970972478389739990234375</LongitudeDegrees>
            </Position>
            <AltitudeMeters>144.8000030517578125</AltitudeMeters>
            <DistanceMeters>NAN</DistanceMeters>
          </Trackpoint>
          <Trackpoint>
            <Time>2020-05-25T05:10:22.000Z</Time>
            <Position>
              <LatitudeDegrees>38.09828300960361957550048828125</LatitudeDegrees>
              <LongitudeDegrees>-1.09712633304297924041748046875</LongitudeDegrees>
            </Position>
            <AltitudeMeters>145</AltitudeMeters>
            <DistanceMeters>NAN</DistanceMeters>
          </Trackpoint>
          <Trackpoint>
            <Time>2020-05-25T05:10:23.000Z</Time>
            <Position>
              <LatitudeDegrees>38.09830916114151477813720703125</LatitudeDegrees>
              <LongitudeDegrees>-1.097155250608921051025390625</LongitudeDegrees>
            </Position>
            <AltitudeMeters>145.600006103515625</AltitudeMeters>
            <DistanceMeters>NAN</DistanceMeters>
          </Trackpoint>
          <Trackpoint>
            <Time>2020-05-25T05:10:24.000Z</Time>
            <Position>
              <LatitudeDegrees>38.0983360670506954193115234375</LatitudeDegrees>
              <LongitudeDegrees>-1.09718265943229198455810546875</LongitudeDegrees>
            </Position>
            <AltitudeMeters>145.8000030517578125</AltitudeMeters>
            <DistanceMeters>NAN</DistanceMeters>
          </Trackpoint>
          <Trackpoint>
            <Time>2020-05-25T05:10:25.000Z</Time>
            <Position>
              <LatitudeDegrees>38.09836414642632007598876953125</LatitudeDegrees>
              <LongitudeDegrees>-1.09720981679856777191162109375</LongitudeDegrees>
            </Position>
            <AltitudeMeters>146.1999969482421875</AltitudeMeters>
            <DistanceMeters>NAN</DistanceMeters>
          </Trackpoint>
          <Trackpoint>
            <Time>2020-05-25T05:10:26.000Z</Time>
            <Position>
              <LatitudeDegrees>38.0983927287161350250244140625</LatitudeDegrees>
              <LongitudeDegrees>-1.09723965637385845184326171875</LongitudeDegrees>
            </Position>
            <AltitudeMeters>146.399993896484375</AltitudeMeters>
            <DistanceMeters>NAN</DistanceMeters>
          </Trackpoint>
          <Trackpoint>
            <Time>2020-05-25T05:10:27.000Z</Time>
            <Position>
              <LatitudeDegrees>38.0984235741198062896728515625</LatitudeDegrees>
              <LongitudeDegrees>-1.0972720943391323089599609375</LongitudeDegrees>
            </Position>
            <AltitudeMeters>146.600006103515625</AltitudeMeters>
            <DistanceMeters>NAN</DistanceMeters>
          </Trackpoint>
          <Trackpoint>
            <Time>2020-05-25T05:10:28.000Z</Time>
            <Position>
              <LatitudeDegrees>38.098456598818302154541015625</LatitudeDegrees>
              <LongitudeDegrees>-1.09730419702827930450439453125</LongitudeDegrees>
            </Position>
            <AltitudeMeters>146.8000030517578125</AltitudeMeters>
            <DistanceMeters>NAN</DistanceMeters>
          </Trackpoint>
          <Trackpoint>
            <Time>2020-05-25T05:10:29.000Z</Time>
            <Position>
              <LatitudeDegrees>38.09848920442163944244384765625</LatitudeDegrees>
              <LongitudeDegrees>-1.0973359644412994384765625</LongitudeDegrees>
            </Position>
            <AltitudeMeters>147.1999969482421875</AltitudeMeters>
            <DistanceMeters>NAN</DistanceMeters>
          </Trackpoint>
          <Trackpoint>
            <Time>2020-05-25T05:10:30.000Z</Time>
            <Position>
              <LatitudeDegrees>38.0985214747488498687744140625</LatitudeDegrees>
              <LongitudeDegrees>-1.09736748039722442626953125</LongitudeDegrees>
            </Position>
            <AltitudeMeters>147.399993896484375</AltitudeMeters>
            <DistanceMeters>NAN</DistanceMeters>
          </Trackpoint>
          <Trackpoint>
            <Time>2020-05-25T05:10:31.000Z</Time>
            <Position>
              <LatitudeDegrees>38.098552487790584564208984375</LatitudeDegrees>
              <LongitudeDegrees>-1.09739874489605426788330078125</LongitudeDegrees>
            </Position>
            <AltitudeMeters>147.600006103515625</AltitudeMeters>
            <DistanceMeters>NAN</DistanceMeters>
          </Trackpoint>
          <Trackpoint>
            <Time>2020-05-25T05:10:32.000Z</Time>
            <Position>
              <LatitudeDegrees>38.09861577115952968597412109375</LatitudeDegrees>
              <LongitudeDegrees>-1.0974621959030628204345703125</LongitudeDegrees>
            </Position>
            <AltitudeMeters>147.8000030517578125</AltitudeMeters>
            <DistanceMeters>NAN</DistanceMeters>
          </Trackpoint>
          <Trackpoint>
            <Time>2020-05-25T05:10:33.000Z</Time>
            <Position>
              <LatitudeDegrees>38.09861577115952968597412109375</LatitudeDegrees>
              <LongitudeDegrees>-1.0974621959030628204345703125</LongitudeDegrees>
            </Position>
            <AltitudeMeters>148</AltitudeMeters>
            <DistanceMeters>NAN</DistanceMeters>
          </Trackpoint>
          <Trackpoint>
            <Time>2020-05-25T05:10:34.000Z</Time>
            <Position>
              <LatitudeDegrees>38.098649047315120697021484375</LatitudeDegrees>
              <LongitudeDegrees>-1.09749195165932178497314453125</LongitudeDegrees>
            </Position>
            <AltitudeMeters>148.1999969482421875</AltitudeMeters>
            <DistanceMeters>NAN</DistanceMeters>
          </Trackpoint>
          <Trackpoint>
            <Time>2020-05-25T05:10:35.000Z</Time>
            <Position>
              <LatitudeDegrees>38.098683245480060577392578125</LatitudeDegrees>
              <LongitudeDegrees>-1.0975210368633270263671875</LongitudeDegrees>
            </Position>
            <AltitudeMeters>148.399993896484375</AltitudeMeters>
            <DistanceMeters>NAN</DistanceMeters>
          </Trackpoint>
          <Trackpoint>
            <Time>2020-05-25T05:10:36.000Z</Time>
            <Position>
              <LatitudeDegrees>38.09871844947338104248046875</LatitudeDegrees>
              <LongitudeDegrees>-1.09754852950572967529296875</LongitudeDegrees>
            </Position>
            <AltitudeMeters>148.600006103515625</AltitudeMeters>
            <DistanceMeters>NAN</DistanceMeters>
          </Trackpoint>
          <Trackpoint>
            <Time>2020-05-25T05:10:37.000Z</Time>
            <Position>
              <LatitudeDegrees>38.098753653466701507568359375</LatitudeDegrees>
              <LongitudeDegrees>-1.097574345767498016357421875</LongitudeDegrees>
            </Position>
            <AltitudeMeters>149</AltitudeMeters>
            <DistanceMeters>NAN</DistanceMeters>
          </Trackpoint>
          <Trackpoint>
            <Time>2020-05-25T05:10:38.000Z</Time>
            <Position>
              <LatitudeDegrees>38.0987930484116077423095703125</LatitudeDegrees>
              <LongitudeDegrees>-1.0975969769060611724853515625</LongitudeDegrees>
            </Position>
            <AltitudeMeters>149.1999969482421875</AltitudeMeters>
            <DistanceMeters>NAN</DistanceMeters>
          </Trackpoint>
          <Trackpoint>
            <Time>2020-05-25T05:10:39.000Z</Time>
            <Position>
              <LatitudeDegrees>38.0988346226513385772705078125</LatitudeDegrees>
              <LongitudeDegrees>-1.0976147465407848358154296875</LongitudeDegrees>
            </Position>
            <AltitudeMeters>149.600006103515625</AltitudeMeters>
            <DistanceMeters>NAN</DistanceMeters>
          </Trackpoint>
          <Trackpoint>
            <Time>2020-05-25T05:10:40.000Z</Time>
            <Position>
              <LatitudeDegrees>38.0988778732717037200927734375</LatitudeDegrees>
              <LongitudeDegrees>-1.09762740321457386016845703125</LongitudeDegrees>
            </Position>
            <AltitudeMeters>149.8000030517578125</AltitudeMeters>
            <DistanceMeters>NAN</DistanceMeters>
          </Trackpoint>
          <Trackpoint>
            <Time>2020-05-25T05:10:41.000Z</Time>
            <Position>
              <LatitudeDegrees>38.09892120771110057830810546875</LatitudeDegrees>
              <LongitudeDegrees>-1.09763561747968196868896484375</LongitudeDegrees>
            </Position>
            <AltitudeMeters>150.399993896484375</AltitudeMeters>
            <DistanceMeters>NAN</DistanceMeters>
          </Trackpoint>
          <Trackpoint>
            <Time>2020-05-25T05:10:42.000Z</Time>
            <Position>
              <LatitudeDegrees>38.09896362014114856719970703125</LatitudeDegrees>
              <LongitudeDegrees>-1.0976432450115680694580078125</LongitudeDegrees>
            </Position>
            <AltitudeMeters>150.600006103515625</AltitudeMeters>
            <DistanceMeters>NAN</DistanceMeters>
          </Trackpoint>
          <Trackpoint>
            <Time>2020-05-25T05:10:43.000Z</Time>
            <Position>
              <LatitudeDegrees>38.0990056134760379791259765625</LatitudeDegrees>
              <LongitudeDegrees>-1.09764953143894672393798828125</LongitudeDegrees>
            </Position>
            <AltitudeMeters>150.8000030517578125</AltitudeMeters>
            <DistanceMeters>NAN</DistanceMeters>
          </Trackpoint>
          <Trackpoint>
            <Time>2020-05-25T05:10:44.000Z</Time>
            <Position>
              <LatitudeDegrees>38.0990884266793727874755859375</LatitudeDegrees>
              <LongitudeDegrees>-1.09765673987567424774169921875</LongitudeDegrees>
            </Position>
            <AltitudeMeters>150.8000030517578125</AltitudeMeters>
            <DistanceMeters>NAN</DistanceMeters>
          </Trackpoint>
          <Trackpoint>
            <Time>2020-05-25T05:10:45.000Z</Time>
            <Position>
              <LatitudeDegrees>38.0990884266793727874755859375</LatitudeDegrees>
              <LongitudeDegrees>-1.09765673987567424774169921875</LongitudeDegrees>
            </Position>
            <AltitudeMeters>151</AltitudeMeters>
            <DistanceMeters>NAN</DistanceMeters>
          </Trackpoint>
          <Trackpoint>
            <Time>2020-05-25T05:10:46.000Z</Time>
            <Position>
              <LatitudeDegrees>38.09912874363362789154052734375</LatitudeDegrees>
              <LongitudeDegrees>-1.09765942208468914031982421875</LongitudeDegrees>
            </Position>
            <AltitudeMeters>151.1999969482421875</AltitudeMeters>
            <DistanceMeters>NAN</DistanceMeters>
          </Trackpoint>
          <Trackpoint>
            <Time>2020-05-25T05:10:47.000Z</Time>
            <Position>
              <LatitudeDegrees>38.09916914440691471099853515625</LatitudeDegrees>
              <LongitudeDegrees>-1.09766210429370403289794921875</LongitudeDegrees>
            </Position>
            <AltitudeMeters>151.399993896484375</AltitudeMeters>
            <DistanceMeters>NAN</DistanceMeters>
          </Trackpoint>
          <Trackpoint>
            <Time>2020-05-25T05:10:48.000Z</Time>
            <Position>
              <LatitudeDegrees>38.09920929372310638427734375</LatitudeDegrees>
              <LongitudeDegrees>-1.097664199769496917724609375</LongitudeDegrees>
            </Position>
            <AltitudeMeters>151.600006103515625</AltitudeMeters>
            <DistanceMeters>NAN</DistanceMeters>
          </Trackpoint>
          <Trackpoint>
            <Time>2020-05-25T05:10:49.000Z</Time>
            <Position>
              <LatitudeDegrees>38.09924944303929805755615234375</LatitudeDegrees>
              <LongitudeDegrees>-1.09766646288335323333740234375</LongitudeDegrees>
            </Position>
            <AltitudeMeters>151.8000030517578125</AltitudeMeters>
            <DistanceMeters>NAN</DistanceMeters>
          </Trackpoint>
          <Trackpoint>
            <Time>2020-05-25T05:10:50.000Z</Time>
            <Position>
              <LatitudeDegrees>38.0992892570793628692626953125</LatitudeDegrees>
              <LongitudeDegrees>-1.09766847454011440277099609375</LongitudeDegrees>
            </Position>
            <AltitudeMeters>152.1999969482421875</AltitudeMeters>
            <DistanceMeters>NAN</DistanceMeters>
          </Trackpoint>
          <Trackpoint>
            <Time>2020-05-25T05:10:51.000Z</Time>
            <Position>
              <LatitudeDegrees>38.0993284843862056732177734375</LatitudeDegrees>
              <LongitudeDegrees>-1.09767057001590728759765625</LongitudeDegrees>
            </Position>
            <AltitudeMeters>152.399993896484375</AltitudeMeters>
            <DistanceMeters>NAN</DistanceMeters>
          </Trackpoint>
          <Trackpoint>
            <Time>2020-05-25T05:10:52.000Z</Time>
            <Position>
              <LatitudeDegrees>38.09936712495982646942138671875</LatitudeDegrees>
              <LongitudeDegrees>-1.09767233021557331085205078125</LongitudeDegrees>
            </Position>
            <AltitudeMeters>152.8000030517578125</AltitudeMeters>
            <DistanceMeters>NAN</DistanceMeters>
          </Trackpoint>
          <Trackpoint>
            <Time>2020-05-25T05:10:53.000Z</Time>
            <Position>
              <LatitudeDegrees>38.09940651990473270416259765625</LatitudeDegrees>
              <LongitudeDegrees>-1.09767367132008075714111328125</LongitudeDegrees>
            </Position>
            <AltitudeMeters>153</AltitudeMeters>
            <DistanceMeters>NAN</DistanceMeters>
          </Trackpoint>
          <Trackpoint>
            <Time>2020-05-25T05:10:54.000Z</Time>
            <Position>
              <LatitudeDegrees>38.0994458310306072235107421875</LatitudeDegrees>
              <LongitudeDegrees>-1.09767518006265163421630859375</LongitudeDegrees>
            </Position>
            <AltitudeMeters>153.1999969482421875</AltitudeMeters>
            <DistanceMeters>NAN</DistanceMeters>
          </Trackpoint>
          <Trackpoint>
            <Time>2020-05-25T05:10:55.000Z</Time>
            <Position>
              <LatitudeDegrees>38.099483549594879150390625</LatitudeDegrees>
              <LongitudeDegrees>-1.09767618589103221893310546875</LongitudeDegrees>
            </Position>
            <AltitudeMeters>153.399993896484375</AltitudeMeters>
            <DistanceMeters>NAN</DistanceMeters>
          </Trackpoint>
          <Trackpoint>
            <Time>2020-05-25T05:10:56.000Z</Time>
            <Position>
              <LatitudeDegrees>38.099520094692707061767578125</LatitudeDegrees>
              <LongitudeDegrees>-1.09767769463360309600830078125</LongitudeDegrees>
            </Position>
            <AltitudeMeters>153.8000030517578125</AltitudeMeters>
            <DistanceMeters>NAN</DistanceMeters>
          </Trackpoint>
          <Trackpoint>
            <Time>2020-05-25T05:10:57.000Z</Time>
            <Position>
              <LatitudeDegrees>38.099558316171169281005859375</LatitudeDegrees>
              <LongitudeDegrees>-1.09768129885196685791015625</LongitudeDegrees>
            </Position>
            <AltitudeMeters>154</AltitudeMeters>
            <DistanceMeters>NAN</DistanceMeters>
          </Trackpoint>
          <Trackpoint>
            <Time>2020-05-25T05:10:58.000Z</Time>
            <Position>
              <LatitudeDegrees>38.09959595091640949249267578125</LatitudeDegrees>
              <LongitudeDegrees>-1.0976854898035526275634765625</LongitudeDegrees>
            </Position>
            <AltitudeMeters>154.1999969482421875</AltitudeMeters>
            <DistanceMeters>NAN</DistanceMeters>
          </Trackpoint>
          <Trackpoint>
            <Time>2020-05-25T05:10:59.000Z</Time>
            <Position>
              <LatitudeDegrees>38.0996345914900302886962890625</LatitudeDegrees>
              <LongitudeDegrees>-1.097690351307392120361328125</LongitudeDegrees>
            </Position>
            <AltitudeMeters>154.399993896484375</AltitudeMeters>
            <DistanceMeters>NAN</DistanceMeters>
          </Trackpoint>
          <Trackpoint>
            <Time>2020-05-25T05:11:00.000Z</Time>
            <Position>
              <LatitudeDegrees>38.099676333367824554443359375</LatitudeDegrees>
              <LongitudeDegrees>-1.09769730828702449798583984375</LongitudeDegrees>
            </Position>
            <AltitudeMeters>154.600006103515625</AltitudeMeters>
            <DistanceMeters>NAN</DistanceMeters>
          </Trackpoint>
          <Trackpoint>
            <Time>2020-05-25T05:11:01.000Z</Time>
            <Position>
              <LatitudeDegrees>38.09972025454044342041015625</LatitudeDegrees>
              <LongitudeDegrees>-1.0977066121995449066162109375</LongitudeDegrees>
            </Position>
            <AltitudeMeters>154.8000030517578125</AltitudeMeters>
            <DistanceMeters>NAN</DistanceMeters>
          </Trackpoint>
          <Trackpoint>
            <Time>2020-05-25T05:11:02.000Z</Time>
            <Position>
              <LatitudeDegrees>38.09976308606564998626708984375</LatitudeDegrees>
              <LongitudeDegrees>-1.09771491028368473052978515625</LongitudeDegrees>
            </Position>
            <AltitudeMeters>155.1999969482421875</AltitudeMeters>
            <DistanceMeters>NAN</DistanceMeters>
          </Trackpoint>
          <Trackpoint>
            <Time>2020-05-25T05:11:03.000Z</Time>
            <Position>
              <LatitudeDegrees>38.09980734251439571380615234375</LatitudeDegrees>
              <LongitudeDegrees>-1.09772396273910999298095703125</LongitudeDegrees>
            </Position>
            <AltitudeMeters>155.399993896484375</AltitudeMeters>
            <DistanceMeters>NAN</DistanceMeters>
          </Trackpoint>
          <Trackpoint>
            <Time>2020-05-25T05:11:04.000Z</Time>
            <Position>
              <LatitudeDegrees>38.0998523533344268798828125</LatitudeDegrees>
              <LongitudeDegrees>-1.0977356135845184326171875</LongitudeDegrees>
            </Position>
            <AltitudeMeters>155.600006103515625</AltitudeMeters>
            <DistanceMeters>NAN</DistanceMeters>
          </Trackpoint>
          <Trackpoint>
            <Time>2020-05-25T05:11:05.000Z</Time>
            <Position>
              <LatitudeDegrees>38.09989736415445804595947265625</LatitudeDegrees>
              <LongitudeDegrees>-1.0977501980960369110107421875</LongitudeDegrees>
            </Position>
            <AltitudeMeters>155.8000030517578125</AltitudeMeters>
            <DistanceMeters>NAN</DistanceMeters>
          </Trackpoint>
          <Trackpoint>
            <Time>2020-05-25T05:11:06.000Z</Time>
            <Position>
              <LatitudeDegrees>38.09994262643158435821533203125</LatitudeDegrees>
              <LongitudeDegrees>-1.0977696441113948822021484375</LongitudeDegrees>
            </Position>
            <AltitudeMeters>156</AltitudeMeters>
            <DistanceMeters>NAN</DistanceMeters>
          </Trackpoint>
          <Trackpoint>
            <Time>2020-05-25T05:11:07.000Z</Time>
            <Position>
              <LatitudeDegrees>38.0999883078038692474365234375</LatitudeDegrees>
              <LongitudeDegrees>-1.0977927781641483306884765625</LongitudeDegrees>
            </Position>
            <AltitudeMeters>156.1999969482421875</AltitudeMeters>
            <DistanceMeters>NAN</DistanceMeters>
          </Trackpoint>
          <Trackpoint>
            <Time>2020-05-25T05:11:08.000Z</Time>
            <Position>
              <LatitudeDegrees>38.100033737719058990478515625</LatitudeDegrees>
              <LongitudeDegrees>-1.09781742095947265625</LongitudeDegrees>
            </Position>
            <AltitudeMeters>156.399993896484375</AltitudeMeters>
            <DistanceMeters>NAN</DistanceMeters>
          </Trackpoint>
          <Trackpoint>
            <Time>2020-05-25T05:11:09.000Z</Time>
            <Position>
              <LatitudeDegrees>38.10008042491972446441650390625</LatitudeDegrees>
              <LongitudeDegrees>-1.0978430695831775665283203125</LongitudeDegrees>
            </Position>
            <AltitudeMeters>156.600006103515625</AltitudeMeters>
            <DistanceMeters>NAN</DistanceMeters>
          </Trackpoint>
          <Trackpoint>
            <Time>2020-05-25T05:11:10.000Z</Time>
            <Position>
              <LatitudeDegrees>38.100126944482326507568359375</LatitudeDegrees>
              <LongitudeDegrees>-1.09787047840654850006103515625</LongitudeDegrees>
            </Position>
            <AltitudeMeters>156.600006103515625</AltitudeMeters>
            <DistanceMeters>NAN</DistanceMeters>
          </Trackpoint>
          <Trackpoint>
            <Time>2020-05-25T05:11:11.000Z</Time>
            <Position>
              <LatitudeDegrees>38.10017396695911884307861328125</LatitudeDegrees>
              <LongitudeDegrees>-1.0978992283344268798828125</LongitudeDegrees>
            </Position>
            <AltitudeMeters>156.8000030517578125</AltitudeMeters>
            <DistanceMeters>NAN</DistanceMeters>
          </Trackpoint>
          <Trackpoint>
            <Time>2020-05-25T05:11:12.000Z</Time>
            <Position>
              <LatitudeDegrees>38.100220821797847747802734375</LatitudeDegrees>
              <LongitudeDegrees>-1.09792747534811496734619140625</LongitudeDegrees>
            </Position>
            <AltitudeMeters>156.8000030517578125</AltitudeMeters>
            <DistanceMeters>NAN</DistanceMeters>
          </Trackpoint>
          <Trackpoint>
            <Time>2020-05-25T05:11:13.000Z</Time>
            <Position>
              <LatitudeDegrees>38.10026817955076694488525390625</LatitudeDegrees>
              <LongitudeDegrees>-1.097959578037261962890625</LongitudeDegrees>
            </Position>
            <AltitudeMeters>156.8000030517578125</AltitudeMeters>
            <DistanceMeters>NAN</DistanceMeters>
          </Trackpoint>
          <Trackpoint>
            <Time>2020-05-25T05:11:14.000Z</Time>
            <Position>
              <LatitudeDegrees>38.10036624781787395477294921875</LatitudeDegrees>
              <LongitudeDegrees>-1.098019592463970184326171875</LongitudeDegrees>
            </Position>
            <AltitudeMeters>156.8000030517578125</AltitudeMeters>
            <DistanceMeters>NAN</DistanceMeters>
          </Trackpoint>
          <Trackpoint>
            <Time>2020-05-25T05:11:15.000Z</Time>
            <Position>
              <LatitudeDegrees>38.10036624781787395477294921875</LatitudeDegrees>
              <LongitudeDegrees>-1.098019592463970184326171875</LongitudeDegrees>
            </Position>
            <AltitudeMeters>156.8000030517578125</AltitudeMeters>
            <DistanceMeters>NAN</DistanceMeters>
          </Trackpoint>
          <Trackpoint>
            <Time>2020-05-25T05:11:16.000Z</Time>
            <Position>
              <LatitudeDegrees>38.1004154495894908905029296875</LatitudeDegrees>
              <LongitudeDegrees>-1.0980489291250705718994140625</LongitudeDegrees>
            </Position>
            <AltitudeMeters>157</AltitudeMeters>
            <DistanceMeters>NAN</DistanceMeters>
          </Trackpoint>
          <Trackpoint>
            <Time>2020-05-25T05:11:17.000Z</Time>
            <Position>
              <LatitudeDegrees>38.10046456754207611083984375</LatitudeDegrees>
              <LongitudeDegrees>-1.0980777628719806671142578125</LongitudeDegrees>
            </Position>
            <AltitudeMeters>157</AltitudeMeters>
            <DistanceMeters>NAN</DistanceMeters>
          </Trackpoint>
          <Trackpoint>
            <Time>2020-05-25T05:11:18.000Z</Time>
            <Position>
              <LatitudeDegrees>38.10051343403756618499755859375</LatitudeDegrees>
              <LongitudeDegrees>-1.09810567460954189300537109375</LongitudeDegrees>
            </Position>
            <AltitudeMeters>157</AltitudeMeters>
            <DistanceMeters>NAN</DistanceMeters>
          </Trackpoint>
          <Trackpoint>
            <Time>2020-05-25T05:11:19.000Z</Time>
            <Position>
              <LatitudeDegrees>38.100562803447246551513671875</LatitudeDegrees>
              <LongitudeDegrees>-1.098132245242595672607421875</LongitudeDegrees>
            </Position>
            <AltitudeMeters>157.1999969482421875</AltitudeMeters>
            <DistanceMeters>NAN</DistanceMeters>
          </Trackpoint>
          <Trackpoint>
            <Time>2020-05-25T05:11:20.000Z</Time>
            <Position>
              <LatitudeDegrees>38.100611753761768341064453125</LatitudeDegrees>
              <LongitudeDegrees>-1.0981585644185543060302734375</LongitudeDegrees>
            </Position>
            <AltitudeMeters>157.1999969482421875</AltitudeMeters>
            <DistanceMeters>NAN</DistanceMeters>
          </Trackpoint>
          <Trackpoint>
            <Time>2020-05-25T05:11:21.000Z</Time>
            <Position>
              <LatitudeDegrees>38.100657351315021514892578125</LatitudeDegrees>
              <LongitudeDegrees>-1.098187901079654693603515625</LongitudeDegrees>
            </Position>
            <AltitudeMeters>157.1999969482421875</AltitudeMeters>
            <DistanceMeters>NAN</DistanceMeters>
          </Trackpoint>
          <Trackpoint>
            <Time>2020-05-25T05:11:22.000Z</Time>
            <Position>
              <LatitudeDegrees>38.10070252977311611175537109375</LatitudeDegrees>
              <LongitudeDegrees>-1.09821631573140621185302734375</LongitudeDegrees>
            </Position>
            <AltitudeMeters>157.1999969482421875</AltitudeMeters>
            <DistanceMeters>NAN</DistanceMeters>
          </Trackpoint>
          <Trackpoint>
            <Time>2020-05-25T05:11:23.000Z</Time>
            <Position>
              <LatitudeDegrees>38.10074812732636928558349609375</LatitudeDegrees>
              <LongitudeDegrees>-1.09824397601187229156494140625</LongitudeDegrees>
            </Position>
            <AltitudeMeters>157.399993896484375</AltitudeMeters>
            <DistanceMeters>NAN</DistanceMeters>
          </Trackpoint>
          <Trackpoint>
            <Time>2020-05-25T05:11:24.000Z</Time>
            <Position>
              <LatitudeDegrees>38.1007936410605907440185546875</LatitudeDegrees>
              <LongitudeDegrees>-1.09827280975878238677978515625</LongitudeDegrees>
            </Position>
            <AltitudeMeters>157.399993896484375</AltitudeMeters>
            <DistanceMeters>NAN</DistanceMeters>
          </Trackpoint>
          <Trackpoint>
            <Time>2020-05-25T05:11:25.000Z</Time>
            <Position>
              <LatitudeDegrees>38.10083865188062191009521484375</LatitudeDegrees>
              <LongitudeDegrees>-1.0983027331531047821044921875</LongitudeDegrees>
            </Position>
            <AltitudeMeters>157.600006103515625</AltitudeMeters>
            <DistanceMeters>NAN</DistanceMeters>
          </Trackpoint>
          <Trackpoint>
            <Time>2020-05-25T05:11:26.000Z</Time>
            <Position>
              <LatitudeDegrees>38.1008824892342090606689453125</LatitudeDegrees>
              <LongitudeDegrees>-1.0983339138329029083251953125</LongitudeDegrees>
            </Position>
            <AltitudeMeters>157.600006103515625</AltitudeMeters>
            <DistanceMeters>NAN</DistanceMeters>
          </Trackpoint>
          <Trackpoint>
            <Time>2020-05-25T05:11:27.000Z</Time>
            <Position>
              <LatitudeDegrees>38.1009270809590816497802734375</LatitudeDegrees>
              <LongitudeDegrees>-1.0983664356172084808349609375</LongitudeDegrees>
            </Position>
            <AltitudeMeters>157.8000030517578125</AltitudeMeters>
            <DistanceMeters>NAN</DistanceMeters>
          </Trackpoint>
          <Trackpoint>
            <Time>2020-05-25T05:11:28.000Z</Time>
            <Position>
              <LatitudeDegrees>38.10097075067460536956787109375</LatitudeDegrees>
              <LongitudeDegrees>-1.098401136696338653564453125</LongitudeDegrees>
            </Position>
            <AltitudeMeters>158</AltitudeMeters>
            <DistanceMeters>NAN</DistanceMeters>
          </Trackpoint>
          <Trackpoint>
            <Time>2020-05-25T05:11:29.000Z</Time>
            <Position>
              <LatitudeDegrees>38.10101249255239963531494140625</LatitudeDegrees>
              <LongitudeDegrees>-1.09844011254608631134033203125</LongitudeDegrees>
            </Position>
            <AltitudeMeters>158</AltitudeMeters>
            <DistanceMeters>NAN</DistanceMeters>
          </Trackpoint>
          <Trackpoint>
            <Time>2020-05-25T05:11:30.000Z</Time>
            <Position>
              <LatitudeDegrees>38.10105222277343273162841796875</LatitudeDegrees>
              <LongitudeDegrees>-1.09848252497613430023193359375</LongitudeDegrees>
            </Position>
            <AltitudeMeters>158.1999969482421875</AltitudeMeters>
            <DistanceMeters>NAN</DistanceMeters>
          </Trackpoint>
          <Trackpoint>
            <Time>2020-05-25T05:11:31.000Z</Time>
            <Position>
              <LatitudeDegrees>38.1010906957089900970458984375</LatitudeDegrees>
              <LongitudeDegrees>-1.0985280387103557586669921875</LongitudeDegrees>
            </Position>
            <AltitudeMeters>158.399993896484375</AltitudeMeters>
            <DistanceMeters>NAN</DistanceMeters>
          </Trackpoint>
          <Trackpoint>
            <Time>2020-05-25T05:11:32.000Z</Time>
            <Position>
              <LatitudeDegrees>38.10112698934972286224365234375</LatitudeDegrees>
              <LongitudeDegrees>-1.09857724048197269439697265625</LongitudeDegrees>
            </Position>
            <AltitudeMeters>158.600006103515625</AltitudeMeters>
            <DistanceMeters>NAN</DistanceMeters>
          </Trackpoint>
          <Trackpoint>
            <Time>2020-05-25T05:11:33.000Z</Time>
            <Position>
              <LatitudeDegrees>38.1011612713336944580078125</LatitudeDegrees>
              <LongitudeDegrees>-1.098629795014858245849609375</LongitudeDegrees>
            </Position>
            <AltitudeMeters>158.600006103515625</AltitudeMeters>
            <DistanceMeters>NAN</DistanceMeters>
          </Trackpoint>
          <Trackpoint>
            <Time>2020-05-25T05:11:34.000Z</Time>
            <Position>
              <LatitudeDegrees>38.101194463670253753662109375</LatitudeDegrees>
              <LongitudeDegrees>-1.09868444502353668212890625</LongitudeDegrees>
            </Position>
            <AltitudeMeters>158.8000030517578125</AltitudeMeters>
            <DistanceMeters>NAN</DistanceMeters>
          </Trackpoint>
          <Trackpoint>
            <Time>2020-05-25T05:11:35.000Z</Time>
            <Position>
              <LatitudeDegrees>38.1012261472642421722412109375</LatitudeDegrees>
              <LongitudeDegrees>-1.09874135814607143402099609375</LongitudeDegrees>
            </Position>
            <AltitudeMeters>159</AltitudeMeters>
            <DistanceMeters>NAN</DistanceMeters>
          </Trackpoint>
          <Trackpoint>
            <Time>2020-05-25T05:11:36.000Z</Time>
            <Position>
              <LatitudeDegrees>38.10125581920146942138671875</LatitudeDegrees>
              <LongitudeDegrees>-1.09879969619214534759521484375</LongitudeDegrees>
            </Position>
            <AltitudeMeters>159</AltitudeMeters>
            <DistanceMeters>NAN</DistanceMeters>
          </Trackpoint>
          <Trackpoint>
            <Time>2020-05-25T05:11:37.000Z</Time>
            <Position>
              <LatitudeDegrees>38.1012819707393646240234375</LatitudeDegrees>
              <LongitudeDegrees>-1.09886147081851959228515625</LongitudeDegrees>
            </Position>
            <AltitudeMeters>159</AltitudeMeters>
            <DistanceMeters>NAN</DistanceMeters>
          </Trackpoint>
          <Trackpoint>
            <Time>2020-05-25T05:11:38.000Z</Time>
            <Position>
              <LatitudeDegrees>38.10130820609629154205322265625</LatitudeDegrees>
              <LongitudeDegrees>-1.09892441891133785247802734375</LongitudeDegrees>
            </Position>
            <AltitudeMeters>159</AltitudeMeters>
            <DistanceMeters>NAN</DistanceMeters>
          </Trackpoint>
          <Trackpoint>
            <Time>2020-05-25T05:11:39.000Z</Time>
            <Position>
              <LatitudeDegrees>38.10133268125355243682861328125</LatitudeDegrees>
              <LongitudeDegrees>-1.0989897139370441436767578125</LongitudeDegrees>
            </Position>
            <AltitudeMeters>159.1999969482421875</AltitudeMeters>
            <DistanceMeters>NAN</DistanceMeters>
          </Trackpoint>
          <Trackpoint>
            <Time>2020-05-25T05:11:40.000Z</Time>
            <Position>
              <LatitudeDegrees>38.10135732404887676239013671875</LatitudeDegrees>
              <LongitudeDegrees>-1.099054254591464996337890625</LongitudeDegrees>
            </Position>
            <AltitudeMeters>159.1999969482421875</AltitudeMeters>
            <DistanceMeters>NAN</DistanceMeters>
          </Trackpoint>
          <Trackpoint>
            <Time>2020-05-25T05:11:41.000Z</Time>
            <Position>
              <LatitudeDegrees>38.10138054192066192626953125</LatitudeDegrees>
              <LongitudeDegrees>-1.09912055544555187225341796875</LongitudeDegrees>
            </Position>
            <AltitudeMeters>159.399993896484375</AltitudeMeters>
            <DistanceMeters>NAN</DistanceMeters>
          </Trackpoint>
          <Trackpoint>
            <Time>2020-05-25T05:11:42.000Z</Time>
            <Position>
              <LatitudeDegrees>38.10140334069728851318359375</LatitudeDegrees>
              <LongitudeDegrees>-1.09918735921382904052734375</LongitudeDegrees>
            </Position>
            <AltitudeMeters>159.399993896484375</AltitudeMeters>
            <DistanceMeters>NAN</DistanceMeters>
          </Trackpoint>
          <Trackpoint>
            <Time>2020-05-25T05:11:43.000Z</Time>
            <Position>
              <LatitudeDegrees>38.101427145302295684814453125</LatitudeDegrees>
              <LongitudeDegrees>-1.0992532409727573394775390625</LongitudeDegrees>
            </Position>
            <AltitudeMeters>159.399993896484375</AltitudeMeters>
            <DistanceMeters>NAN</DistanceMeters>
          </Trackpoint>
          <Trackpoint>
            <Time>2020-05-25T05:11:44.000Z</Time>
            <Position>
              <LatitudeDegrees>38.10145153664052486419677734375</LatitudeDegrees>
              <LongitudeDegrees>-1.09931878745555877685546875</LongitudeDegrees>
            </Position>
            <AltitudeMeters>159.600006103515625</AltitudeMeters>
            <DistanceMeters>NAN</DistanceMeters>
          </Trackpoint>
          <Trackpoint>
            <Time>2020-05-25T05:11:45.000Z</Time>
            <Position>
              <LatitudeDegrees>38.10147668235003948211669921875</LatitudeDegrees>
              <LongitudeDegrees>-1.09938240610063076019287109375</LongitudeDegrees>
            </Position>
            <AltitudeMeters>159.600006103515625</AltitudeMeters>
            <DistanceMeters>NAN</DistanceMeters>
          </Trackpoint>
          <Trackpoint>
            <Time>2020-05-25T05:11:46.000Z</Time>
            <Position>
              <LatitudeDegrees>38.10150266624987125396728515625</LatitudeDegrees>
              <LongitudeDegrees>-1.099446527659893035888671875</LongitudeDegrees>
            </Position>
            <AltitudeMeters>159.8000030517578125</AltitudeMeters>
            <DistanceMeters>NAN</DistanceMeters>
          </Trackpoint>
          <Trackpoint>
            <Time>2020-05-25T05:11:47.000Z</Time>
            <Position>
              <LatitudeDegrees>38.10152848251163959503173828125</LatitudeDegrees>
              <LongitudeDegrees>-1.09951249323785305023193359375</LongitudeDegrees>
            </Position>
            <AltitudeMeters>160</AltitudeMeters>
            <DistanceMeters>NAN</DistanceMeters>
          </Trackpoint>
          <Trackpoint>
            <Time>2020-05-25T05:11:48.000Z</Time>
            <Position>
              <LatitudeDegrees>38.10155262239277362823486328125</LatitudeDegrees>
              <LongitudeDegrees>-1.0995804704725742340087890625</LongitudeDegrees>
            </Position>
            <AltitudeMeters>160</AltitudeMeters>
            <DistanceMeters>NAN</DistanceMeters>
          </Trackpoint>
          <Trackpoint>
            <Time>2020-05-25T05:11:49.000Z</Time>
            <Position>
              <LatitudeDegrees>38.1015775166451930999755859375</LatitudeDegrees>
              <LongitudeDegrees>-1.09964844770729541778564453125</LongitudeDegrees>
            </Position>
            <AltitudeMeters>160</AltitudeMeters>
            <DistanceMeters>NAN</DistanceMeters>
          </Trackpoint>
          <Trackpoint>
            <Time>2020-05-25T05:11:50.000Z</Time>
            <Position>
              <LatitudeDegrees>38.1016040034592151641845703125</LatitudeDegrees>
              <LongitudeDegrees>-1.099716089665889739990234375</LongitudeDegrees>
            </Position>
            <AltitudeMeters>160.1999969482421875</AltitudeMeters>
            <DistanceMeters>NAN</DistanceMeters>
          </Trackpoint>
          <Trackpoint>
            <Time>2020-05-25T05:11:51.000Z</Time>
            <Position>
              <LatitudeDegrees>38.10163191519677639007568359375</LatitudeDegrees>
              <LongitudeDegrees>-1.09978205524384975433349609375</LongitudeDegrees>
            </Position>
            <AltitudeMeters>160.1999969482421875</AltitudeMeters>
            <DistanceMeters>NAN</DistanceMeters>
          </Trackpoint>
          <Trackpoint>
            <Time>2020-05-25T05:11:52.000Z</Time>
            <Position>
              <LatitudeDegrees>38.10166158713400363922119140625</LatitudeDegrees>
              <LongitudeDegrees>-1.09984626062214374542236328125</LongitudeDegrees>
            </Position>
            <AltitudeMeters>160.1999969482421875</AltitudeMeters>
            <DistanceMeters>NAN</DistanceMeters>
          </Trackpoint>
          <Trackpoint>
            <Time>2020-05-25T05:11:53.000Z</Time>
            <Position>
              <LatitudeDegrees>38.1016945280134677886962890625</LatitudeDegrees>
              <LongitudeDegrees>-1.0999087058007717132568359375</LongitudeDegrees>
            </Position>
            <AltitudeMeters>160.1999969482421875</AltitudeMeters>
            <DistanceMeters>NAN</DistanceMeters>
          </Trackpoint>
          <Trackpoint>
            <Time>2020-05-25T05:11:54.000Z</Time>
            <Position>
              <LatitudeDegrees>38.101731240749359130859375</LatitudeDegrees>
              <LongitudeDegrees>-1.09997048042714595794677734375</LongitudeDegrees>
            </Position>
            <AltitudeMeters>160.399993896484375</AltitudeMeters>
            <DistanceMeters>NAN</DistanceMeters>
          </Trackpoint>
          <Trackpoint>
            <Time>2020-05-25T05:11:55.000Z</Time>
            <Position>
              <LatitudeDegrees>38.10177155770361423492431640625</LatitudeDegrees>
              <LongitudeDegrees>-1.10002965666353702545166015625</LongitudeDegrees>
            </Position>
            <AltitudeMeters>160.399993896484375</AltitudeMeters>
            <DistanceMeters>NAN</DistanceMeters>
          </Trackpoint>
          <Trackpoint>
            <Time>2020-05-25T05:11:56.000Z</Time>
            <Position>
              <LatitudeDegrees>38.101812712848186492919921875</LatitudeDegrees>
              <LongitudeDegrees>-1.1000874079763889312744140625</LongitudeDegrees>
            </Position>
            <AltitudeMeters>160.399993896484375</AltitudeMeters>
            <DistanceMeters>NAN</DistanceMeters>
          </Trackpoint>
          <Trackpoint>
            <Time>2020-05-25T05:11:57.000Z</Time>
            <Position>
              <LatitudeDegrees>38.1018547900021076202392578125</LatitudeDegrees>
              <LongitudeDegrees>-1.10014314763247966766357421875</LongitudeDegrees>
            </Position>
            <AltitudeMeters>160.399993896484375</AltitudeMeters>
            <DistanceMeters>NAN</DistanceMeters>
          </Trackpoint>
          <Trackpoint>
            <Time>2020-05-25T05:11:58.000Z</Time>
            <Position>
              <LatitudeDegrees>38.10189678333699703216552734375</LatitudeDegrees>
              <LongitudeDegrees>-1.10020047985017299652099609375</LongitudeDegrees>
            </Position>
            <AltitudeMeters>160.399993896484375</AltitudeMeters>
            <DistanceMeters>NAN</DistanceMeters>
          </Trackpoint>
          <Trackpoint>
            <Time>2020-05-25T05:11:59.000Z</Time>
            <Position>
              <LatitudeDegrees>38.10193684883415699005126953125</LatitudeDegrees>
              <LongitudeDegrees>-1.10025814734399318695068359375</LongitudeDegrees>
            </Position>
            <AltitudeMeters>160.600006103515625</AltitudeMeters>
            <DistanceMeters>NAN</DistanceMeters>
          </Trackpoint>
          <Trackpoint>
            <Time>2020-05-25T05:12:00.000Z</Time>
            <Position>
              <LatitudeDegrees>38.1019785068929195404052734375</LatitudeDegrees>
              <LongitudeDegrees>-1.100312881171703338623046875</LongitudeDegrees>
            </Position>
            <AltitudeMeters>160.600006103515625</AltitudeMeters>
            <DistanceMeters>NAN</DistanceMeters>
          </Trackpoint>
          <Trackpoint>
            <Time>2020-05-25T05:12:01.000Z</Time>
            <Position>
              <LatitudeDegrees>38.10202066786587238311767578125</LatitudeDegrees>
              <LongitudeDegrees>-1.10036895610392093658447265625</LongitudeDegrees>
            </Position>
            <AltitudeMeters>160.600006103515625</AltitudeMeters>
            <DistanceMeters>NAN</DistanceMeters>
          </Trackpoint>
          <Trackpoint>
            <Time>2020-05-25T05:12:02.000Z</Time>
            <Position>
              <LatitudeDegrees>38.10206316411495208740234375</LatitudeDegrees>
              <LongitudeDegrees>-1.10042360611259937286376953125</LongitudeDegrees>
            </Position>
            <AltitudeMeters>160.8000030517578125</AltitudeMeters>
            <DistanceMeters>NAN</DistanceMeters>
          </Trackpoint>
          <Trackpoint>
            <Time>2020-05-25T05:12:03.000Z</Time>
            <Position>
              <LatitudeDegrees>38.102104403078556060791015625</LatitudeDegrees>
              <LongitudeDegrees>-1.1004783399403095245361328125</LongitudeDegrees>
            </Position>
            <AltitudeMeters>160.8000030517578125</AltitudeMeters>
            <DistanceMeters>NAN</DistanceMeters>
          </Trackpoint>
          <Trackpoint>
            <Time>2020-05-25T05:12:04.000Z</Time>
            <Position>
              <LatitudeDegrees>38.10214639641344547271728515625</LatitudeDegrees>
              <LongitudeDegrees>-1.1005326546728610992431640625</LongitudeDegrees>
            </Position>
            <AltitudeMeters>161</AltitudeMeters>
            <DistanceMeters>NAN</DistanceMeters>
          </Trackpoint>
          <Trackpoint>
            <Time>2020-05-25T05:12:05.000Z</Time>
            <Position>
              <LatitudeDegrees>38.1021885573863983154296875</LatitudeDegrees>
              <LongitudeDegrees>-1.1005879752337932586669921875</LongitudeDegrees>
            </Position>
            <AltitudeMeters>161.1999969482421875</AltitudeMeters>
            <DistanceMeters>NAN</DistanceMeters>
          </Trackpoint>
          <Trackpoint>
            <Time>2020-05-25T05:12:06.000Z</Time>
            <Position>
              <LatitudeDegrees>38.10223105363547801971435546875</LatitudeDegrees>
              <LongitudeDegrees>-1.10064337961375713348388671875</LongitudeDegrees>
            </Position>
            <AltitudeMeters>161.399993896484375</AltitudeMeters>
            <DistanceMeters>NAN</DistanceMeters>
          </Trackpoint>
          <Trackpoint>
            <Time>2020-05-25T05:12:07.000Z</Time>
            <Position>
              <LatitudeDegrees>38.1022743880748748779296875</LatitudeDegrees>
              <LongitudeDegrees>-1.10069853253662586212158203125</LongitudeDegrees>
            </Position>
            <AltitudeMeters>161.399993896484375</AltitudeMeters>
            <DistanceMeters>NAN</DistanceMeters>
          </Trackpoint>
          <Trackpoint>
            <Time>2020-05-25T05:12:08.000Z</Time>
            <Position>
              <LatitudeDegrees>38.10231906361877918243408203125</LatitudeDegrees>
              <LongitudeDegrees>-1.1007536016404628753662109375</LongitudeDegrees>
            </Position>
            <AltitudeMeters>161.600006103515625</AltitudeMeters>
            <DistanceMeters>NAN</DistanceMeters>
          </Trackpoint>
          <Trackpoint>
            <Time>2020-05-25T05:12:09.000Z</Time>
            <Position>
              <LatitudeDegrees>38.10236332006752490997314453125</LatitudeDegrees>
              <LongitudeDegrees>-1.10080967657268047332763671875</LongitudeDegrees>
            </Position>
            <AltitudeMeters>161.8000030517578125</AltitudeMeters>
            <DistanceMeters>NAN</DistanceMeters>
          </Trackpoint>
          <Trackpoint>
            <Time>2020-05-25T05:12:10.000Z</Time>
            <Position>
              <LatitudeDegrees>38.102408163249492645263671875</LatitudeDegrees>
              <LongitudeDegrees>-1.10086600296199321746826171875</LongitudeDegrees>
            </Position>
            <AltitudeMeters>161.8000030517578125</AltitudeMeters>
            <DistanceMeters>NAN</DistanceMeters>
          </Trackpoint>
          <Trackpoint>
            <Time>2020-05-25T05:12:11.000Z</Time>
            <Position>
              <LatitudeDegrees>38.1024535931646823883056640625</LatitudeDegrees>
              <LongitudeDegrees>-1.1009220778942108154296875</LongitudeDegrees>
            </Position>
            <AltitudeMeters>162</AltitudeMeters>
            <DistanceMeters>NAN</DistanceMeters>
          </Trackpoint>
          <Trackpoint>
            <Time>2020-05-25T05:12:12.000Z</Time>
            <Position>
              <LatitudeDegrees>38.10250028036534786224365234375</LatitudeDegrees>
              <LongitudeDegrees>-1.10097664408385753631591796875</LongitudeDegrees>
            </Position>
            <AltitudeMeters>162</AltitudeMeters>
            <DistanceMeters>NAN</DistanceMeters>
          </Trackpoint>
          <Trackpoint>
            <Time>2020-05-25T05:12:13.000Z</Time>
            <Position>
              <LatitudeDegrees>38.10254671610891819000244140625</LatitudeDegrees>
              <LongitudeDegrees>-1.10103062354028224945068359375</LongitudeDegrees>
            </Position>
            <AltitudeMeters>162</AltitudeMeters>
            <DistanceMeters>NAN</DistanceMeters>
          </Trackpoint>
          <Trackpoint>
            <Time>2020-05-25T05:12:14.000Z</Time>
            <Position>
              <LatitudeDegrees>38.10259331949055194854736328125</LatitudeDegrees>
              <LongitudeDegrees>-1.10108275897800922393798828125</LongitudeDegrees>
            </Position>
            <AltitudeMeters>162.1999969482421875</AltitudeMeters>
            <DistanceMeters>NAN</DistanceMeters>
          </Trackpoint>
          <Trackpoint>
            <Time>2020-05-25T05:12:15.000Z</Time>
            <Position>
              <LatitudeDegrees>38.102640174329280853271484375</LatitudeDegrees>
              <LongitudeDegrees>-1.1011317931115627288818359375</LongitudeDegrees>
            </Position>
            <AltitudeMeters>162.399993896484375</AltitudeMeters>
            <DistanceMeters>NAN</DistanceMeters>
          </Trackpoint>
          <Trackpoint>
            <Time>2020-05-25T05:12:16.000Z</Time>
            <Position>
              <LatitudeDegrees>38.1026852689683437347412109375</LatitudeDegrees>
              <LongitudeDegrees>-1.10117965377867221832275390625</LongitudeDegrees>
            </Position>
            <AltitudeMeters>162.399993896484375</AltitudeMeters>
            <DistanceMeters>NAN</DistanceMeters>
          </Trackpoint>
          <Trackpoint>
            <Time>2020-05-25T05:12:17.000Z</Time>
            <Position>
              <LatitudeDegrees>38.102728687226772308349609375</LatitudeDegrees>
              <LongitudeDegrees>-1.10122491605579853057861328125</LongitudeDegrees>
            </Position>
            <AltitudeMeters>162.600006103515625</AltitudeMeters>
            <DistanceMeters>NAN</DistanceMeters>
          </Trackpoint>
          <Trackpoint>
            <Time>2020-05-25T05:12:18.000Z</Time>
            <Position>
              <LatitudeDegrees>38.10277151875197887420654296875</LatitudeDegrees>
              <LongitudeDegrees>-1.1012689210474491119384765625</LongitudeDegrees>
            </Position>
            <AltitudeMeters>162.600006103515625</AltitudeMeters>
            <DistanceMeters>NAN</DistanceMeters>
          </Trackpoint>
          <Trackpoint>
            <Time>2020-05-25T05:12:19.000Z</Time>
            <Position>
              <LatitudeDegrees>38.1028160266578197479248046875</LatitudeDegrees>
              <LongitudeDegrees>-1.10130898654460906982421875</LongitudeDegrees>
            </Position>
            <AltitudeMeters>162.600006103515625</AltitudeMeters>
            <DistanceMeters>NAN</DistanceMeters>
          </Trackpoint>
          <Trackpoint>
            <Time>2020-05-25T05:12:20.000Z</Time>
            <Position>
              <LatitudeDegrees>38.10286221094429492950439453125</LatitudeDegrees>
              <LongitudeDegrees>-1.1013460345566272735595703125</LongitudeDegrees>
            </Position>
            <AltitudeMeters>162.600006103515625</AltitudeMeters>
            <DistanceMeters>NAN</DistanceMeters>
          </Trackpoint>
          <Trackpoint>
            <Time>2020-05-25T05:12:21.000Z</Time>
            <Position>
              <LatitudeDegrees>38.1029073894023895263671875</LatitudeDegrees>
              <LongitudeDegrees>-1.10138417221605777740478515625</LongitudeDegrees>
            </Position>
            <AltitudeMeters>162.8000030517578125</AltitudeMeters>
            <DistanceMeters>NAN</DistanceMeters>
          </Trackpoint>
          <Trackpoint>
            <Time>2020-05-25T05:12:22.000Z</Time>
            <Position>
              <LatitudeDegrees>38.10295340605080127716064453125</LatitudeDegrees>
              <LongitudeDegrees>-1.10142323188483715057373046875</LongitudeDegrees>
            </Position>
            <AltitudeMeters>162.8000030517578125</AltitudeMeters>
            <DistanceMeters>NAN</DistanceMeters>
          </Trackpoint>
          <Trackpoint>
            <Time>2020-05-25T05:12:23.000Z</Time>
            <Position>
              <LatitudeDegrees>38.1030004285275936126708984375</LatitudeDegrees>
              <LongitudeDegrees>-1.1014612019062042236328125</LongitudeDegrees>
            </Position>
            <AltitudeMeters>162.8000030517578125</AltitudeMeters>
            <DistanceMeters>NAN</DistanceMeters>
          </Trackpoint>
          <Trackpoint>
            <Time>2020-05-25T05:12:24.000Z</Time>
            <Position>
              <LatitudeDegrees>38.10304845683276653289794921875</LatitudeDegrees>
              <LongitudeDegrees>-1.10149799846112728118896484375</LongitudeDegrees>
            </Position>
            <AltitudeMeters>162.8000030517578125</AltitudeMeters>
            <DistanceMeters>NAN</DistanceMeters>
          </Trackpoint>
          <Trackpoint>
            <Time>2020-05-25T05:12:25.000Z</Time>
            <Position>
              <LatitudeDegrees>38.10309723950922489166259765625</LatitudeDegrees>
              <LongitudeDegrees>-1.10153429210186004638671875</LongitudeDegrees>
            </Position>
            <AltitudeMeters>163.1999969482421875</AltitudeMeters>
            <DistanceMeters>NAN</DistanceMeters>
          </Trackpoint>
          <Trackpoint>
            <Time>2020-05-25T05:12:26.000Z</Time>
            <Position>
              <LatitudeDegrees>38.10314719565212726593017578125</LatitudeDegrees>
              <LongitudeDegrees>-1.1015710048377513885498046875</LongitudeDegrees>
            </Position>
            <AltitudeMeters>163.1999969482421875</AltitudeMeters>
            <DistanceMeters>NAN</DistanceMeters>
          </Trackpoint>
          <Trackpoint>
            <Time>2020-05-25T05:12:27.000Z</Time>
            <Position>
              <LatitudeDegrees>38.10319882817566394805908203125</LatitudeDegrees>
              <LongitudeDegrees>-1.10160729847848415374755859375</LongitudeDegrees>
            </Position>
            <AltitudeMeters>163.1999969482421875</AltitudeMeters>
            <DistanceMeters>NAN</DistanceMeters>
          </Trackpoint>
          <Trackpoint>
            <Time>2020-05-25T05:12:28.000Z</Time>
            <Position>
              <LatitudeDegrees>38.10325146652758121490478515625</LatitudeDegrees>
              <LongitudeDegrees>-1.101645939052104949951171875</LongitudeDegrees>
            </Position>
            <AltitudeMeters>163.399993896484375</AltitudeMeters>
            <DistanceMeters>NAN</DistanceMeters>
          </Trackpoint>
          <Trackpoint>
            <Time>2020-05-25T05:12:29.000Z</Time>
            <Position>
              <LatitudeDegrees>38.1033051945269107818603515625</LatitudeDegrees>
              <LongitudeDegrees>-1.101685501635074615478515625</LongitudeDegrees>
            </Position>
            <AltitudeMeters>163.399993896484375</AltitudeMeters>
            <DistanceMeters>NAN</DistanceMeters>
          </Trackpoint>
          <Trackpoint>
            <Time>2020-05-25T05:12:30.000Z</Time>
            <Position>
              <LatitudeDegrees>38.103360347449779510498046875</LatitudeDegrees>
              <LongitudeDegrees>-1.10172548331320285797119140625</LongitudeDegrees>
            </Position>
            <AltitudeMeters>163.600006103515625</AltitudeMeters>
            <DistanceMeters>NAN</DistanceMeters>
          </Trackpoint>
          <Trackpoint>
            <Time>2020-05-25T05:12:31.000Z</Time>
            <Position>
              <LatitudeDegrees>38.103416003286838531494140625</LatitudeDegrees>
              <LongitudeDegrees>-1.10176672227680683135986328125</LongitudeDegrees>
            </Position>
            <AltitudeMeters>163.600006103515625</AltitudeMeters>
            <DistanceMeters>NAN</DistanceMeters>
          </Trackpoint>
          <Trackpoint>
            <Time>2020-05-25T05:12:32.000Z</Time>
            <Position>
              <LatitudeDegrees>38.10347266495227813720703125</LatitudeDegrees>
              <LongitudeDegrees>-1.101806871592998504638671875</LongitudeDegrees>
            </Position>
            <AltitudeMeters>163.600006103515625</AltitudeMeters>
            <DistanceMeters>NAN</DistanceMeters>
          </Trackpoint>
          <Trackpoint>
            <Time>2020-05-25T05:12:33.000Z</Time>
            <Position>
              <LatitudeDegrees>38.10353024862706661224365234375</LatitudeDegrees>
              <LongitudeDegrees>-1.10184836201369762420654296875</LongitudeDegrees>
            </Position>
            <AltitudeMeters>163.600006103515625</AltitudeMeters>
            <DistanceMeters>NAN</DistanceMeters>
          </Trackpoint>
          <Trackpoint>
            <Time>2020-05-25T05:12:34.000Z</Time>
            <Position>
              <LatitudeDegrees>38.103588335216045379638671875</LatitudeDegrees>
              <LongitudeDegrees>-1.1018915288150310516357421875</LongitudeDegrees>
            </Position>
            <AltitudeMeters>163.8000030517578125</AltitudeMeters>
            <DistanceMeters>NAN</DistanceMeters>
          </Trackpoint>
          <Trackpoint>
            <Time>2020-05-25T05:12:35.000Z</Time>
            <Position>
              <LatitudeDegrees>38.10364642180502414703369140625</LatitudeDegrees>
              <LongitudeDegrees>-1.10193368978798389434814453125</LongitudeDegrees>
            </Position>
            <AltitudeMeters>163.8000030517578125</AltitudeMeters>
            <DistanceMeters>NAN</DistanceMeters>
          </Trackpoint>
          <Trackpoint>
            <Time>2020-05-25T05:12:36.000Z</Time>
            <Position>
              <LatitudeDegrees>38.10370442457497119903564453125</LatitudeDegrees>
              <LongitudeDegrees>-1.10197476111352443695068359375</LongitudeDegrees>
            </Position>
            <AltitudeMeters>163.8000030517578125</AltitudeMeters>
            <DistanceMeters>NAN</DistanceMeters>
          </Trackpoint>
          <Trackpoint>
            <Time>2020-05-25T05:12:37.000Z</Time>
            <Position>
              <LatitudeDegrees>38.1037598289549350738525390625</LatitudeDegrees>
              <LongitudeDegrees>-1.10201650299131870269775390625</LongitudeDegrees>
            </Position>
            <AltitudeMeters>163.8000030517578125</AltitudeMeters>
            <DistanceMeters>NAN</DistanceMeters>
          </Trackpoint>
          <Trackpoint>
            <Time>2020-05-25T05:12:38.000Z</Time>
            <Position>
              <LatitudeDegrees>38.103812299668788909912109375</LatitudeDegrees>
              <LongitudeDegrees>-1.10206293873488903045654296875</LongitudeDegrees>
            </Position>
            <AltitudeMeters>163.8000030517578125</AltitudeMeters>
            <DistanceMeters>NAN</DistanceMeters>
          </Trackpoint>
          <Trackpoint>
            <Time>2020-05-25T05:12:39.000Z</Time>
            <Position>
              <LatitudeDegrees>38.1038630940020084381103515625</LatitudeDegrees>
              <LongitudeDegrees>-1.10211188904941082000732421875</LongitudeDegrees>
            </Position>
            <AltitudeMeters>163.8000030517578125</AltitudeMeters>
            <DistanceMeters>NAN</DistanceMeters>
          </Trackpoint>
          <Trackpoint>
            <Time>2020-05-25T05:12:40.000Z</Time>
            <Position>
              <LatitudeDegrees>38.10391246341168880462646484375</LatitudeDegrees>
              <LongitudeDegrees>-1.10216083936393260955810546875</LongitudeDegrees>
            </Position>
            <AltitudeMeters>163.8000030517578125</AltitudeMeters>
            <DistanceMeters>NAN</DistanceMeters>
          </Trackpoint>
          <Trackpoint>
            <Time>2020-05-25T05:12:41.000Z</Time>
            <Position>
              <LatitudeDegrees>38.1039589829742908477783203125</LatitudeDegrees>
              <LongitudeDegrees>-1.1022137291729450225830078125</LongitudeDegrees>
            </Position>
            <AltitudeMeters>163.8000030517578125</AltitudeMeters>
            <DistanceMeters>NAN</DistanceMeters>
          </Trackpoint>
          <Trackpoint>
            <Time>2020-05-25T05:12:42.000Z</Time>
            <Position>
              <LatitudeDegrees>38.10400399379432201385498046875</LatitudeDegrees>
              <LongitudeDegrees>-1.1022690497338771820068359375</LongitudeDegrees>
            </Position>
            <AltitudeMeters>163.8000030517578125</AltitudeMeters>
            <DistanceMeters>NAN</DistanceMeters>
          </Trackpoint>
          <Trackpoint>
            <Time>2020-05-25T05:12:43.000Z</Time>
            <Position>
              <LatitudeDegrees>38.10404741205275058746337890625</LatitudeDegrees>
              <LongitudeDegrees>-1.1023280583322048187255859375</LongitudeDegrees>
            </Position>
            <AltitudeMeters>163.8000030517578125</AltitudeMeters>
            <DistanceMeters>NAN</DistanceMeters>
          </Trackpoint>
          <Trackpoint>
            <Time>2020-05-25T05:12:44.000Z</Time>
            <Position>
              <LatitudeDegrees>38.104087896645069122314453125</LatitudeDegrees>
              <LongitudeDegrees>-1.10239100642502307891845703125</LongitudeDegrees>
            </Position>
            <AltitudeMeters>163.8000030517578125</AltitudeMeters>
            <DistanceMeters>NAN</DistanceMeters>
          </Trackpoint>
          <Trackpoint>
            <Time>2020-05-25T05:12:45.000Z</Time>
            <Position>
              <LatitudeDegrees>38.104124777019023895263671875</LatitudeDegrees>
              <LongitudeDegrees>-1.10245923511683940887451171875</LongitudeDegrees>
            </Position>
            <AltitudeMeters>163.8000030517578125</AltitudeMeters>
            <DistanceMeters>NAN</DistanceMeters>
          </Trackpoint>
          <Trackpoint>
            <Time>2020-05-25T05:12:46.000Z</Time>
            <Position>
              <LatitudeDegrees>38.1041581369936466217041015625</LatitudeDegrees>
              <LongitudeDegrees>-1.102533079683780670166015625</LongitudeDegrees>
            </Position>
            <AltitudeMeters>163.8000030517578125</AltitudeMeters>
            <DistanceMeters>NAN</DistanceMeters>
          </Trackpoint>
          <Trackpoint>
            <Time>2020-05-25T05:12:47.000Z</Time>
            <Position>
              <LatitudeDegrees>38.1041873060166835784912109375</LatitudeDegrees>
              <LongitudeDegrees>-1.10261044465005397796630859375</LongitudeDegrees>
            </Position>
            <AltitudeMeters>163.8000030517578125</AltitudeMeters>
            <DistanceMeters>NAN</DistanceMeters>
          </Trackpoint>
          <Trackpoint>
            <Time>2020-05-25T05:12:48.000Z</Time>
            <Position>
              <LatitudeDegrees>38.10421505011618137359619140625</LatitudeDegrees>
              <LongitudeDegrees>-1.10268973745405673980712890625</LongitudeDegrees>
            </Position>
            <AltitudeMeters>163.8000030517578125</AltitudeMeters>
            <DistanceMeters>NAN</DistanceMeters>
          </Trackpoint>
          <Trackpoint>
            <Time>2020-05-25T05:12:49.000Z</Time>
            <Position>
              <LatitudeDegrees>38.10424002818763256072998046875</LatitudeDegrees>
              <LongitudeDegrees>-1.102773137390613555908203125</LongitudeDegrees>
            </Position>
            <AltitudeMeters>164</AltitudeMeters>
            <DistanceMeters>NAN</DistanceMeters>
          </Trackpoint>
          <Trackpoint>
            <Time>2020-05-25T05:12:50.000Z</Time>
            <Position>
              <LatitudeDegrees>38.1042645871639251708984375</LatitudeDegrees>
              <LongitudeDegrees>-1.10285838134586811065673828125</LongitudeDegrees>
            </Position>
            <AltitudeMeters>164</AltitudeMeters>
            <DistanceMeters>NAN</DistanceMeters>
          </Trackpoint>
          <Trackpoint>
            <Time>2020-05-25T05:12:51.000Z</Time>
            <Position>
              <LatitudeDegrees>38.10428679920732975006103515625</LatitudeDegrees>
              <LongitudeDegrees>-1.10294538550078868865966796875</LongitudeDegrees>
            </Position>
            <AltitudeMeters>164</AltitudeMeters>
            <DistanceMeters>NAN</DistanceMeters>
          </Trackpoint>
          <Trackpoint>
            <Time>2020-05-25T05:12:52.000Z</Time>
            <Position>
              <LatitudeDegrees>38.10431085526943206787109375</LatitudeDegrees>
              <LongitudeDegrees>-1.1030294559895992279052734375</LongitudeDegrees>
            </Position>
            <AltitudeMeters>164.1999969482421875</AltitudeMeters>
            <DistanceMeters>NAN</DistanceMeters>
          </Trackpoint>
          <Trackpoint>
            <Time>2020-05-25T05:12:53.000Z</Time>
            <Position>
              <LatitudeDegrees>38.10433457605540752410888671875</LatitudeDegrees>
              <LongitudeDegrees>-1.103114448487758636474609375</LongitudeDegrees>
            </Position>
            <AltitudeMeters>164.1999969482421875</AltitudeMeters>
            <DistanceMeters>NAN</DistanceMeters>
          </Trackpoint>
          <Trackpoint>
            <Time>2020-05-25T05:12:54.000Z</Time>
            <Position>
              <LatitudeDegrees>38.10435779392719268798828125</LatitudeDegrees>
              <LongitudeDegrees>-1.10320069827139377593994140625</LongitudeDegrees>
            </Position>
            <AltitudeMeters>164.1999969482421875</AltitudeMeters>
            <DistanceMeters>NAN</DistanceMeters>
          </Trackpoint>
          <Trackpoint>
            <Time>2020-05-25T05:12:55.000Z</Time>
            <Position>
              <LatitudeDegrees>38.104382939636707305908203125</LatitudeDegrees>
              <LongitudeDegrees>-1.10328636132180690765380859375</LongitudeDegrees>
            </Position>
            <AltitudeMeters>164.1999969482421875</AltitudeMeters>
            <DistanceMeters>NAN</DistanceMeters>
          </Trackpoint>
          <Trackpoint>
            <Time>2020-05-25T05:12:56.000Z</Time>
            <Position>
              <LatitudeDegrees>38.10443113557994365692138671875</LatitudeDegrees>
              <LongitudeDegrees>-1.1034545861184597015380859375</LongitudeDegrees>
            </Position>
            <AltitudeMeters>164.1999969482421875</AltitudeMeters>
            <DistanceMeters>NAN</DistanceMeters>
          </Trackpoint>
          <Trackpoint>
            <Time>2020-05-25T05:12:57.000Z</Time>
            <Position>
              <LatitudeDegrees>38.10443113557994365692138671875</LatitudeDegrees>
              <LongitudeDegrees>-1.1034545861184597015380859375</LongitudeDegrees>
            </Position>
            <AltitudeMeters>164.399993896484375</AltitudeMeters>
            <DistanceMeters>NAN</DistanceMeters>
          </Trackpoint>
          <Trackpoint>
            <Time>2020-05-25T05:12:58.000Z</Time>
            <Position>
              <LatitudeDegrees>38.10445410199463367462158203125</LatitudeDegrees>
              <LongitudeDegrees>-1.10353832133114337921142578125</LongitudeDegrees>
            </Position>
            <AltitudeMeters>164.399993896484375</AltitudeMeters>
            <DistanceMeters>NAN</DistanceMeters>
          </Trackpoint>
          <Trackpoint>
            <Time>2020-05-25T05:12:59.000Z</Time>
            <Position>
              <LatitudeDegrees>38.1044764816761016845703125</LatitudeDegrees>
              <LongitudeDegrees>-1.103622056543827056884765625</LongitudeDegrees>
            </Position>
            <AltitudeMeters>164.399993896484375</AltitudeMeters>
            <DistanceMeters>NAN</DistanceMeters>
          </Trackpoint>
          <Trackpoint>
            <Time>2020-05-25T05:13:00.000Z</Time>
            <Position>
              <LatitudeDegrees>38.104500286281108856201171875</LatitudeDegrees>
              <LongitudeDegrees>-1.10370646230876445770263671875</LongitudeDegrees>
            </Position>
            <AltitudeMeters>164.399993896484375</AltitudeMeters>
            <DistanceMeters>NAN</DistanceMeters>
          </Trackpoint>
          <Trackpoint>
            <Time>2020-05-25T05:13:01.000Z</Time>
            <Position>
              <LatitudeDegrees>38.10452551580965518951416015625</LatitudeDegrees>
              <LongitudeDegrees>-1.1037925444543361663818359375</LongitudeDegrees>
            </Position>
            <AltitudeMeters>164.399993896484375</AltitudeMeters>
            <DistanceMeters>NAN</DistanceMeters>
          </Trackpoint>
          <Trackpoint>
            <Time>2020-05-25T05:13:02.000Z</Time>
            <Position>
              <LatitudeDegrees>38.10455284081399440765380859375</LatitudeDegrees>
              <LongitudeDegrees>-1.10388231463730335235595703125</LongitudeDegrees>
            </Position>
            <AltitudeMeters>164.399993896484375</AltitudeMeters>
            <DistanceMeters>NAN</DistanceMeters>
          </Trackpoint>
          <Trackpoint>
            <Time>2020-05-25T05:13:03.000Z</Time>
            <Position>
              <LatitudeDegrees>38.10457932762801647186279296875</LatitudeDegrees>
              <LongitudeDegrees>-1.103978119790554046630859375</LongitudeDegrees>
            </Position>
            <AltitudeMeters>164.399993896484375</AltitudeMeters>
            <DistanceMeters>NAN</DistanceMeters>
          </Trackpoint>
          <Trackpoint>
            <Time>2020-05-25T05:13:04.000Z</Time>
            <Position>
              <LatitudeDegrees>38.10460723936557769775390625</LatitudeDegrees>
              <LongitudeDegrees>-1.10407945699989795684814453125</LongitudeDegrees>
            </Position>
            <AltitudeMeters>164.399993896484375</AltitudeMeters>
            <DistanceMeters>NAN</DistanceMeters>
          </Trackpoint>
          <Trackpoint>
            <Time>2020-05-25T05:13:05.000Z</Time>
            <Position>
              <LatitudeDegrees>38.10463632456958293914794921875</LatitudeDegrees>
              <LongitudeDegrees>-1.1041851527988910675048828125</LongitudeDegrees>
            </Position>
            <AltitudeMeters>164.399993896484375</AltitudeMeters>
            <DistanceMeters>NAN</DistanceMeters>
          </Trackpoint>
          <Trackpoint>
            <Time>2020-05-25T05:13:06.000Z</Time>
            <Position>
              <LatitudeDegrees>38.1046991050243377685546875</LatitudeDegrees>
              <LongitudeDegrees>-1.10440869815647602081298828125</LongitudeDegrees>
            </Position>
            <AltitudeMeters>164.399993896484375</AltitudeMeters>
            <DistanceMeters>NAN</DistanceMeters>
          </Trackpoint>
          <Trackpoint>
            <Time>2020-05-25T05:13:07.000Z</Time>
            <Position>
              <LatitudeDegrees>38.1046991050243377685546875</LatitudeDegrees>
              <LongitudeDegrees>-1.10440869815647602081298828125</LongitudeDegrees>
            </Position>
            <AltitudeMeters>164.399993896484375</AltitudeMeters>
            <DistanceMeters>NAN</DistanceMeters>
          </Trackpoint>
          <Trackpoint>
            <Time>2020-05-25T05:13:08.000Z</Time>
            <Position>
              <LatitudeDegrees>38.104734979569911956787109375</LatitudeDegrees>
              <LongitudeDegrees>-1.10452604480087757110595703125</LongitudeDegrees>
            </Position>
            <AltitudeMeters>164.399993896484375</AltitudeMeters>
            <DistanceMeters>NAN</DistanceMeters>
          </Trackpoint>
          <Trackpoint>
            <Time>2020-05-25T05:13:09.000Z</Time>
            <Position>
              <LatitudeDegrees>38.10477814637124538421630859375</LatitudeDegrees>
              <LongitudeDegrees>-1.10464473254978656768798828125</LongitudeDegrees>
            </Position>
            <AltitudeMeters>164.399993896484375</AltitudeMeters>
            <DistanceMeters>NAN</DistanceMeters>
          </Trackpoint>
          <Trackpoint>
            <Time>2020-05-25T05:13:10.000Z</Time>
            <Position>
              <LatitudeDegrees>38.104832209646701812744140625</LatitudeDegrees>
              <LongitudeDegrees>-1.10476023517549037933349609375</LongitudeDegrees>
            </Position>
            <AltitudeMeters>164</AltitudeMeters>
            <DistanceMeters>NAN</DistanceMeters>
          </Trackpoint>
          <Trackpoint>
            <Time>2020-05-25T05:13:11.000Z</Time>
            <Position>
              <LatitudeDegrees>38.1048975884914398193359375</LatitudeDegrees>
              <LongitudeDegrees>-1.104869954288005828857421875</LongitudeDegrees>
            </Position>
            <AltitudeMeters>163</AltitudeMeters>
            <DistanceMeters>NAN</DistanceMeters>
          </Trackpoint>
          <Trackpoint>
            <Time>2020-05-25T05:13:12.000Z</Time>
            <Position>
              <LatitudeDegrees>38.10497143305838108062744140625</LatitudeDegrees>
              <LongitudeDegrees>-1.10497531481087207794189453125</LongitudeDegrees>
            </Position>
            <AltitudeMeters>162.1999969482421875</AltitudeMeters>
            <DistanceMeters>NAN</DistanceMeters>
          </Trackpoint>
          <Trackpoint>
            <Time>2020-05-25T05:13:13.000Z</Time>
            <Position>
              <LatitudeDegrees>38.10505424626171588897705078125</LatitudeDegrees>
              <LongitudeDegrees>-1.1050741374492645263671875</LongitudeDegrees>
            </Position>
            <AltitudeMeters>161.399993896484375</AltitudeMeters>
            <DistanceMeters>NAN</DistanceMeters>
          </Trackpoint>
          <Trackpoint>
            <Time>2020-05-25T05:13:14.000Z</Time>
            <Position>
              <LatitudeDegrees>38.10514661483466625213623046875</LatitudeDegrees>
              <LongitudeDegrees>-1.1051598004996776580810546875</LongitudeDegrees>
            </Position>
            <AltitudeMeters>160.600006103515625</AltitudeMeters>
            <DistanceMeters>NAN</DistanceMeters>
          </Trackpoint>
          <Trackpoint>
            <Time>2020-05-25T05:13:15.000Z</Time>
            <Position>
              <LatitudeDegrees>38.10525189153850078582763671875</LatitudeDegrees>
              <LongitudeDegrees>-1.10522543080151081085205078125</LongitudeDegrees>
            </Position>
            <AltitudeMeters>160</AltitudeMeters>
            <DistanceMeters>NAN</DistanceMeters>
          </Trackpoint>
          <Trackpoint>
            <Time>2020-05-25T05:13:16.000Z</Time>
            <Position>
              <LatitudeDegrees>38.10536638833582401275634765625</LatitudeDegrees>
              <LongitudeDegrees>-1.105267591774463653564453125</LongitudeDegrees>
            </Position>
            <AltitudeMeters>159.1999969482421875</AltitudeMeters>
            <DistanceMeters>NAN</DistanceMeters>
          </Trackpoint>
          <Trackpoint>
            <Time>2020-05-25T05:13:17.000Z</Time>
            <Position>
              <LatitudeDegrees>38.10548490844666957855224609375</LatitudeDegrees>
              <LongitudeDegrees>-1.10529114492237567901611328125</LongitudeDegrees>
            </Position>
            <AltitudeMeters>158.399993896484375</AltitudeMeters>
            <DistanceMeters>NAN</DistanceMeters>
          </Trackpoint>
          <Trackpoint>
            <Time>2020-05-25T05:13:18.000Z</Time>
            <Position>
              <LatitudeDegrees>38.10560644604265689849853515625</LatitudeDegrees>
              <LongitudeDegrees>-1.10529952682554721832275390625</LongitudeDegrees>
            </Position>
            <AltitudeMeters>157.399993896484375</AltitudeMeters>
            <DistanceMeters>NAN</DistanceMeters>
          </Trackpoint>
          <Trackpoint>
            <Time>2020-05-25T05:13:19.000Z</Time>
            <Position>
              <LatitudeDegrees>38.10572748072445392608642578125</LatitudeDegrees>
              <LongitudeDegrees>-1.1052949167788028717041015625</LongitudeDegrees>
            </Position>
            <AltitudeMeters>157</AltitudeMeters>
            <DistanceMeters>NAN</DistanceMeters>
          </Trackpoint>
          <Trackpoint>
            <Time>2020-05-25T05:13:20.000Z</Time>
            <Position>
              <LatitudeDegrees>38.10584851540625095367431640625</LatitudeDegrees>
              <LongitudeDegrees>-1.105279661715030670166015625</LongitudeDegrees>
            </Position>
            <AltitudeMeters>156.1999969482421875</AltitudeMeters>
            <DistanceMeters>NAN</DistanceMeters>
          </Trackpoint>
          <Trackpoint>
            <Time>2020-05-25T05:13:21.000Z</Time>
            <Position>
              <LatitudeDegrees>38.105971477925777435302734375</LatitudeDegrees>
              <LongitudeDegrees>-1.105251498520374298095703125</LongitudeDegrees>
            </Position>
            <AltitudeMeters>155.600006103515625</AltitudeMeters>
            <DistanceMeters>NAN</DistanceMeters>
          </Trackpoint>
          <Trackpoint>
            <Time>2020-05-25T05:13:22.000Z</Time>
            <Position>
              <LatitudeDegrees>38.1060926802456378936767578125</LatitudeDegrees>
              <LongitudeDegrees>-1.10520950518548488616943359375</LongitudeDegrees>
            </Position>
            <AltitudeMeters>154.600006103515625</AltitudeMeters>
            <DistanceMeters>NAN</DistanceMeters>
          </Trackpoint>
          <Trackpoint>
            <Time>2020-05-25T05:13:23.000Z</Time>
            <Position>
              <LatitudeDegrees>38.10620944015681743621826171875</LatitudeDegrees>
              <LongitudeDegrees>-1.105154268443584442138671875</LongitudeDegrees>
            </Position>
            <AltitudeMeters>154</AltitudeMeters>
            <DistanceMeters>NAN</DistanceMeters>
          </Trackpoint>
          <Trackpoint>
            <Time>2020-05-25T05:13:24.000Z</Time>
            <Position>
              <LatitudeDegrees>38.10631924308836460113525390625</LatitudeDegrees>
              <LongitudeDegrees>-1.1050863750278949737548828125</LongitudeDegrees>
            </Position>
            <AltitudeMeters>153.399993896484375</AltitudeMeters>
            <DistanceMeters>NAN</DistanceMeters>
          </Trackpoint>
          <Trackpoint>
            <Time>2020-05-25T05:13:25.000Z</Time>
            <Position>
              <LatitudeDegrees>38.10642049647867679595947265625</LatitudeDegrees>
              <LongitudeDegrees>-1.104996688663959503173828125</LongitudeDegrees>
            </Position>
            <AltitudeMeters>152.600006103515625</AltitudeMeters>
            <DistanceMeters>NAN</DistanceMeters>
          </Trackpoint>
          <Trackpoint>
            <Time>2020-05-25T05:13:26.000Z</Time>
            <Position>
              <LatitudeDegrees>38.1066116876900196075439453125</LatitudeDegrees>
              <LongitudeDegrees>-1.1047930084168910980224609375</LongitudeDegrees>
            </Position>
            <AltitudeMeters>151.399993896484375</AltitudeMeters>
            <DistanceMeters>NAN</DistanceMeters>
          </Trackpoint>
          <Trackpoint>
            <Time>2020-05-25T05:13:27.000Z</Time>
            <Position>
              <LatitudeDegrees>38.1066116876900196075439453125</LatitudeDegrees>
              <LongitudeDegrees>-1.1047930084168910980224609375</LongitudeDegrees>
            </Position>
            <AltitudeMeters>150.600006103515625</AltitudeMeters>
            <DistanceMeters>NAN</DistanceMeters>
          </Trackpoint>
          <Trackpoint>
            <Time>2020-05-25T05:13:28.000Z</Time>
            <Position>
              <LatitudeDegrees>38.10670229606330394744873046875</LatitudeDegrees>
              <LongitudeDegrees>-1.1046905815601348876953125</LongitudeDegrees>
            </Position>
            <AltitudeMeters>149.8000030517578125</AltitudeMeters>
            <DistanceMeters>NAN</DistanceMeters>
          </Trackpoint>
          <Trackpoint>
            <Time>2020-05-25T05:13:29.000Z</Time>
            <Position>
              <LatitudeDegrees>38.106789886951446533203125</LatitudeDegrees>
              <LongitudeDegrees>-1.10458957962691783905029296875</LongitudeDegrees>
            </Position>
            <AltitudeMeters>149.399993896484375</AltitudeMeters>
            <DistanceMeters>NAN</DistanceMeters>
          </Trackpoint>
          <Trackpoint>
            <Time>2020-05-25T05:13:30.000Z</Time>
            <Position>
              <LatitudeDegrees>38.106960542500019073486328125</LatitudeDegrees>
              <LongitudeDegrees>-1.104389838874340057373046875</LongitudeDegrees>
            </Position>
            <AltitudeMeters>149</AltitudeMeters>
            <DistanceMeters>NAN</DistanceMeters>
          </Trackpoint>
          <Trackpoint>
            <Time>2020-05-25T05:13:31.000Z</Time>
            <Position>
              <LatitudeDegrees>38.106960542500019073486328125</LatitudeDegrees>
              <LongitudeDegrees>-1.104389838874340057373046875</LongitudeDegrees>
            </Position>
            <AltitudeMeters>148.399993896484375</AltitudeMeters>
            <DistanceMeters>NAN</DistanceMeters>
          </Trackpoint>
          <Trackpoint>
            <Time>2020-05-25T05:13:32.000Z</Time>
            <Position>
              <LatitudeDegrees>38.1071343831717967987060546875</LatitudeDegrees>
              <LongitudeDegrees>-1.1041992343962192535400390625</LongitudeDegrees>
            </Position>
            <AltitudeMeters>148</AltitudeMeters>
            <DistanceMeters>NAN</DistanceMeters>
          </Trackpoint>
          <Trackpoint>
            <Time>2020-05-25T05:13:33.000Z</Time>
            <Position>
              <LatitudeDegrees>38.1071343831717967987060546875</LatitudeDegrees>
              <LongitudeDegrees>-1.1041992343962192535400390625</LongitudeDegrees>
            </Position>
            <AltitudeMeters>147.399993896484375</AltitudeMeters>
            <DistanceMeters>NAN</DistanceMeters>
          </Trackpoint>
          <Trackpoint>
            <Time>2020-05-25T05:13:34.000Z</Time>
            <Position>
              <LatitudeDegrees>38.1072228960692882537841796875</LatitudeDegrees>
              <LongitudeDegrees>-1.10410644672811031341552734375</LongitudeDegrees>
            </Position>
            <AltitudeMeters>146.600006103515625</AltitudeMeters>
            <DistanceMeters>NAN</DistanceMeters>
          </Trackpoint>
          <Trackpoint>
            <Time>2020-05-25T05:13:35.000Z</Time>
            <Position>
              <LatitudeDegrees>38.10731585137546062469482421875</LatitudeDegrees>
              <LongitudeDegrees>-1.104018352925777435302734375</LongitudeDegrees>
            </Position>
            <AltitudeMeters>146</AltitudeMeters>
            <DistanceMeters>NAN</DistanceMeters>
          </Trackpoint>
          <Trackpoint>
            <Time>2020-05-25T05:13:36.000Z</Time>
            <Position>
              <LatitudeDegrees>38.1075259856879711151123046875</LatitudeDegrees>
              <LongitudeDegrees>-1.1038887687027454376220703125</LongitudeDegrees>
            </Position>
            <AltitudeMeters>145.8000030517578125</AltitudeMeters>
            <DistanceMeters>NAN</DistanceMeters>
          </Trackpoint>
          <Trackpoint>
            <Time>2020-05-25T05:13:37.000Z</Time>
            <Position>
              <LatitudeDegrees>38.1075259856879711151123046875</LatitudeDegrees>
              <LongitudeDegrees>-1.1038887687027454376220703125</LongitudeDegrees>
            </Position>
            <AltitudeMeters>145.1999969482421875</AltitudeMeters>
            <DistanceMeters>NAN</DistanceMeters>
          </Trackpoint>
          <Trackpoint>
            <Time>2020-05-25T05:13:38.000Z</Time>
            <Position>
              <LatitudeDegrees>38.107640482485294342041015625</LatitudeDegrees>
              <LongitudeDegrees>-1.10386203043162822723388671875</LongitudeDegrees>
            </Position>
            <AltitudeMeters>144.600006103515625</AltitudeMeters>
            <DistanceMeters>NAN</DistanceMeters>
          </Trackpoint>
          <Trackpoint>
            <Time>2020-05-25T05:13:39.000Z</Time>
            <Position>
              <LatitudeDegrees>38.10775481164455413818359375</LatitudeDegrees>
              <LongitudeDegrees>-1.10385834239423274993896484375</LongitudeDegrees>
            </Position>
            <AltitudeMeters>143.399993896484375</AltitudeMeters>
            <DistanceMeters>NAN</DistanceMeters>
          </Trackpoint>
          <Trackpoint>
            <Time>2020-05-25T05:13:40.000Z</Time>
            <Position>
              <LatitudeDegrees>38.10787324793636798858642578125</LatitudeDegrees>
              <LongitudeDegrees>-1.10388114117085933685302734375</LongitudeDegrees>
            </Position>
            <AltitudeMeters>142.600006103515625</AltitudeMeters>
            <DistanceMeters>NAN</DistanceMeters>
          </Trackpoint>
          <Trackpoint>
            <Time>2020-05-25T05:13:41.000Z</Time>
            <Position>
              <LatitudeDegrees>38.1079910136759281158447265625</LatitudeDegrees>
              <LongitudeDegrees>-1.10392958857119083404541015625</LongitudeDegrees>
            </Position>
            <AltitudeMeters>142</AltitudeMeters>
            <DistanceMeters>NAN</DistanceMeters>
          </Trackpoint>
          <Trackpoint>
            <Time>2020-05-25T05:13:42.000Z</Time>
            <Position>
              <LatitudeDegrees>38.1082183308899402618408203125</LatitudeDegrees>
              <LongitudeDegrees>-1.10405464656651020050048828125</LongitudeDegrees>
            </Position>
            <AltitudeMeters>141.1999969482421875</AltitudeMeters>
            <DistanceMeters>NAN</DistanceMeters>
          </Trackpoint>
          <Trackpoint>
            <Time>2020-05-25T05:13:43.000Z</Time>
            <Position>
              <LatitudeDegrees>38.1082183308899402618408203125</LatitudeDegrees>
              <LongitudeDegrees>-1.10405464656651020050048828125</LongitudeDegrees>
            </Position>
            <AltitudeMeters>140.399993896484375</AltitudeMeters>
            <DistanceMeters>NAN</DistanceMeters>
          </Trackpoint>
          <Trackpoint>
            <Time>2020-05-25T05:13:44.000Z</Time>
            <Position>
              <LatitudeDegrees>38.10844690538942813873291015625</LatitudeDegrees>
              <LongitudeDegrees>-1.10417735762894153594970703125</LongitudeDegrees>
            </Position>
            <AltitudeMeters>139.399993896484375</AltitudeMeters>
            <DistanceMeters>NAN</DistanceMeters>
          </Trackpoint>
          <Trackpoint>
            <Time>2020-05-25T05:13:45.000Z</Time>
            <Position>
              <LatitudeDegrees>38.10844690538942813873291015625</LatitudeDegrees>
              <LongitudeDegrees>-1.10417735762894153594970703125</LongitudeDegrees>
            </Position>
            <AltitudeMeters>138.8000030517578125</AltitudeMeters>
            <DistanceMeters>NAN</DistanceMeters>
          </Trackpoint>
          <Trackpoint>
            <Time>2020-05-25T05:13:46.000Z</Time>
            <Position>
              <LatitudeDegrees>38.10856257565319538116455078125</LatitudeDegrees>
              <LongitudeDegrees>-1.1042371205985546112060546875</LongitudeDegrees>
            </Position>
            <AltitudeMeters>138.399993896484375</AltitudeMeters>
            <DistanceMeters>NAN</DistanceMeters>
          </Trackpoint>
          <Trackpoint>
            <Time>2020-05-25T05:13:47.000Z</Time>
            <Position>
              <LatitudeDegrees>38.108679838478565216064453125</LatitudeDegrees>
              <LongitudeDegrees>-1.1042934469878673553466796875</LongitudeDegrees>
            </Position>
            <AltitudeMeters>138</AltitudeMeters>
            <DistanceMeters>NAN</DistanceMeters>
          </Trackpoint>
          <Trackpoint>
            <Time>2020-05-25T05:13:48.000Z</Time>
            <Position>
              <LatitudeDegrees>38.10879693366587162017822265625</LatitudeDegrees>
              <LongitudeDegrees>-1.10434566624462604522705078125</LongitudeDegrees>
            </Position>
            <AltitudeMeters>137</AltitudeMeters>
            <DistanceMeters>NAN</DistanceMeters>
          </Trackpoint>
          <Trackpoint>
            <Time>2020-05-25T05:13:49.000Z</Time>
            <Position>
              <LatitudeDegrees>38.108911849558353424072265625</LatitudeDegrees>
              <LongitudeDegrees>-1.10439612530171871185302734375</LongitudeDegrees>
            </Position>
            <AltitudeMeters>136</AltitudeMeters>
            <DistanceMeters>NAN</DistanceMeters>
          </Trackpoint>
          <Trackpoint>
            <Time>2020-05-25T05:13:50.000Z</Time>
            <Position>
              <LatitudeDegrees>38.1090228259563446044921875</LatitudeDegrees>
              <LongitudeDegrees>-1.1044409684836864471435546875</LongitudeDegrees>
            </Position>
            <AltitudeMeters>134.600006103515625</AltitudeMeters>
            <DistanceMeters>NAN</DistanceMeters>
          </Trackpoint>
          <Trackpoint>
            <Time>2020-05-25T05:13:51.000Z</Time>
            <Position>
              <LatitudeDegrees>38.10912852175533771514892578125</LatitudeDegrees>
              <LongitudeDegrees>-1.10447457991540431976318359375</LongitudeDegrees>
            </Position>
            <AltitudeMeters>133.399993896484375</AltitudeMeters>
            <DistanceMeters>NAN</DistanceMeters>
          </Trackpoint>
          <Trackpoint>
            <Time>2020-05-25T05:13:52.000Z</Time>
            <Position>
              <LatitudeDegrees>38.10923539102077484130859375</LatitudeDegrees>
              <LongitudeDegrees>-1.1044885776937007904052734375</LongitudeDegrees>
            </Position>
            <AltitudeMeters>132.600006103515625</AltitudeMeters>
            <DistanceMeters>NAN</DistanceMeters>
          </Trackpoint>
          <Trackpoint>
            <Time>2020-05-25T05:13:53.000Z</Time>
            <Position>
              <LatitudeDegrees>38.10934443958103656768798828125</LatitudeDegrees>
              <LongitudeDegrees>-1.10447541810572147369384765625</LongitudeDegrees>
            </Position>
            <AltitudeMeters>131.600006103515625</AltitudeMeters>
            <DistanceMeters>NAN</DistanceMeters>
          </Trackpoint>
          <Trackpoint>
            <Time>2020-05-25T05:13:54.000Z</Time>
            <Position>
              <LatitudeDegrees>38.1095123291015625</LatitudeDegrees>
              <LongitudeDegrees>-1.10435019247233867645263671875</LongitudeDegrees>
            </Position>
            <AltitudeMeters>130.600006103515625</AltitudeMeters>
            <DistanceMeters>NAN</DistanceMeters>
          </Trackpoint>
          <Trackpoint>
            <Time>2020-05-25T05:13:55.000Z</Time>
            <Position>
              <LatitudeDegrees>38.1095123291015625</LatitudeDegrees>
              <LongitudeDegrees>-1.10435019247233867645263671875</LongitudeDegrees>
            </Position>
            <AltitudeMeters>129.8000030517578125</AltitudeMeters>
            <DistanceMeters>NAN</DistanceMeters>
          </Trackpoint>
          <Trackpoint>
            <Time>2020-05-25T05:13:56.000Z</Time>
            <Position>
              <LatitudeDegrees>38.10964635573327541351318359375</LatitudeDegrees>
              <LongitudeDegrees>-1.10417350195348262786865234375</LongitudeDegrees>
            </Position>
            <AltitudeMeters>129</AltitudeMeters>
            <DistanceMeters>NAN</DistanceMeters>
          </Trackpoint>
          <Trackpoint>
            <Time>2020-05-25T05:13:57.000Z</Time>
            <Position>
              <LatitudeDegrees>38.10964635573327541351318359375</LatitudeDegrees>
              <LongitudeDegrees>-1.10417350195348262786865234375</LongitudeDegrees>
            </Position>
            <AltitudeMeters>128.1999969482421875</AltitudeMeters>
            <DistanceMeters>NAN</DistanceMeters>
          </Trackpoint>
          <Trackpoint>
            <Time>2020-05-25T05:13:58.000Z</Time>
            <Position>
              <LatitudeDegrees>38.1097123213112354278564453125</LatitudeDegrees>
              <LongitudeDegrees>-1.10408381558954715728759765625</LongitudeDegrees>
            </Position>
            <AltitudeMeters>127.40000152587890625</AltitudeMeters>
            <DistanceMeters>NAN</DistanceMeters>
          </Trackpoint>
          <Trackpoint>
            <Time>2020-05-25T05:13:59.000Z</Time>
            <Position>
              <LatitudeDegrees>38.1097756884992122650146484375</LatitudeDegrees>
              <LongitudeDegrees>-1.1039950512349605560302734375</LongitudeDegrees>
            </Position>
            <AltitudeMeters>127.1999969482421875</AltitudeMeters>
            <DistanceMeters>NAN</DistanceMeters>
          </Trackpoint>
          <Trackpoint>
            <Time>2020-05-25T05:14:00.000Z</Time>
            <Position>
              <LatitudeDegrees>38.1098903529345989227294921875</LatitudeDegrees>
              <LongitudeDegrees>-1.10381953418254852294921875</LongitudeDegrees>
            </Position>
            <AltitudeMeters>127</AltitudeMeters>
            <DistanceMeters>NAN</DistanceMeters>
          </Trackpoint>
          <Trackpoint>
            <Time>2020-05-25T05:14:01.000Z</Time>
            <Position>
              <LatitudeDegrees>38.1098903529345989227294921875</LatitudeDegrees>
              <LongitudeDegrees>-1.10381953418254852294921875</LongitudeDegrees>
            </Position>
            <AltitudeMeters>127</AltitudeMeters>
            <DistanceMeters>NAN</DistanceMeters>
          </Trackpoint>
          <Trackpoint>
            <Time>2020-05-25T05:14:02.000Z</Time>
            <Position>
              <LatitudeDegrees>38.10997844673693180084228515625</LatitudeDegrees>
              <LongitudeDegrees>-1.10363856889307498931884765625</LongitudeDegrees>
            </Position>
            <AltitudeMeters>126.8000030517578125</AltitudeMeters>
            <DistanceMeters>NAN</DistanceMeters>
          </Trackpoint>
          <Trackpoint>
            <Time>2020-05-25T05:14:03.000Z</Time>
            <Position>
              <LatitudeDegrees>38.10997844673693180084228515625</LatitudeDegrees>
              <LongitudeDegrees>-1.10363856889307498931884765625</LongitudeDegrees>
            </Position>
            <AltitudeMeters>126.8000030517578125</AltitudeMeters>
            <DistanceMeters>NAN</DistanceMeters>
          </Trackpoint>
          <Trackpoint>
            <Time>2020-05-25T05:14:04.000Z</Time>
            <Position>
              <LatitudeDegrees>38.11002119444310665130615234375</LatitudeDegrees>
              <LongitudeDegrees>-1.1035506427288055419921875</LongitudeDegrees>
            </Position>
            <AltitudeMeters>126.8000030517578125</AltitudeMeters>
            <DistanceMeters>NAN</DistanceMeters>
          </Trackpoint>
          <Trackpoint>
            <Time>2020-05-25T05:14:05.000Z</Time>
            <Position>
              <LatitudeDegrees>38.11006260104477405548095703125</LatitudeDegrees>
              <LongitudeDegrees>-1.103464476764202117919921875</LongitudeDegrees>
            </Position>
            <AltitudeMeters>126.8000030517578125</AltitudeMeters>
            <DistanceMeters>NAN</DistanceMeters>
          </Trackpoint>
          <Trackpoint>
            <Time>2020-05-25T05:14:06.000Z</Time>
            <Position>
              <LatitudeDegrees>38.11014373786747455596923828125</LatitudeDegrees>
              <LongitudeDegrees>-1.10330044291913509368896484375</LongitudeDegrees>
            </Position>
            <AltitudeMeters>126.8000030517578125</AltitudeMeters>
            <DistanceMeters>NAN</DistanceMeters>
          </Trackpoint>
          <Trackpoint>
            <Time>2020-05-25T05:14:07.000Z</Time>
            <Position>
              <LatitudeDegrees>38.11014373786747455596923828125</LatitudeDegrees>
              <LongitudeDegrees>-1.10330044291913509368896484375</LongitudeDegrees>
            </Position>
            <AltitudeMeters>126.8000030517578125</AltitudeMeters>
            <DistanceMeters>NAN</DistanceMeters>
          </Trackpoint>
          <Trackpoint>
            <Time>2020-05-25T05:14:08.000Z</Time>
            <Position>
              <LatitudeDegrees>38.11022269539535045623779296875</LatitudeDegrees>
              <LongitudeDegrees>-1.1031451262533664703369140625</LongitudeDegrees>
            </Position>
            <AltitudeMeters>126.8000030517578125</AltitudeMeters>
            <DistanceMeters>NAN</DistanceMeters>
          </Trackpoint>
          <Trackpoint>
            <Time>2020-05-25T05:14:09.000Z</Time>
            <Position>
              <LatitudeDegrees>38.11022269539535045623779296875</LatitudeDegrees>
              <LongitudeDegrees>-1.1031451262533664703369140625</LongitudeDegrees>
            </Position>
            <AltitudeMeters>127</AltitudeMeters>
            <DistanceMeters>NAN</DistanceMeters>
          </Trackpoint>
          <Trackpoint>
            <Time>2020-05-25T05:14:10.000Z</Time>
            <Position>
              <LatitudeDegrees>38.11026091687381267547607421875</LatitudeDegrees>
              <LongitudeDegrees>-1.10306776128709316253662109375</LongitudeDegrees>
            </Position>
            <AltitudeMeters>127.1999969482421875</AltitudeMeters>
            <DistanceMeters>NAN</DistanceMeters>
          </Trackpoint>
          <Trackpoint>
            <Time>2020-05-25T05:14:11.000Z</Time>
            <Position>
              <LatitudeDegrees>38.1102987192571163177490234375</LatitudeDegrees>
              <LongitudeDegrees>-1.10298980958759784698486328125</LongitudeDegrees>
            </Position>
            <AltitudeMeters>127.40000152587890625</AltitudeMeters>
            <DistanceMeters>NAN</DistanceMeters>
          </Trackpoint>
          <Trackpoint>
            <Time>2020-05-25T05:14:12.000Z</Time>
            <Position>
              <LatitudeDegrees>38.11037725768983364105224609375</LatitudeDegrees>
              <LongitudeDegrees>-1.10283407382667064666748046875</LongitudeDegrees>
            </Position>
            <AltitudeMeters>127.59999847412109375</AltitudeMeters>
            <DistanceMeters>NAN</DistanceMeters>
          </Trackpoint>
          <Trackpoint>
            <Time>2020-05-25T05:14:13.000Z</Time>
            <Position>
              <LatitudeDegrees>38.11037725768983364105224609375</LatitudeDegrees>
              <LongitudeDegrees>-1.10283407382667064666748046875</LongitudeDegrees>
            </Position>
            <AltitudeMeters>127.8000030517578125</AltitudeMeters>
            <DistanceMeters>NAN</DistanceMeters>
          </Trackpoint>
          <Trackpoint>
            <Time>2020-05-25T05:14:14.000Z</Time>
            <Position>
              <LatitudeDegrees>38.110451437532901763916015625</LatitudeDegrees>
              <LongitudeDegrees>-1.10267900861799716949462890625</LongitudeDegrees>
            </Position>
            <AltitudeMeters>128.1999969482421875</AltitudeMeters>
            <DistanceMeters>NAN</DistanceMeters>
          </Trackpoint>
          <Trackpoint>
            <Time>2020-05-25T05:14:15.000Z</Time>
            <Position>
              <LatitudeDegrees>38.110451437532901763916015625</LatitudeDegrees>
              <LongitudeDegrees>-1.10267900861799716949462890625</LongitudeDegrees>
            </Position>
            <AltitudeMeters>128.399993896484375</AltitudeMeters>
            <DistanceMeters>NAN</DistanceMeters>
          </Trackpoint>
          <Trackpoint>
            <Time>2020-05-25T05:14:16.000Z</Time>
            <Position>
              <LatitudeDegrees>38.110489659011363983154296875</LatitudeDegrees>
              <LongitudeDegrees>-1.10260189510881900787353515625</LongitudeDegrees>
            </Position>
            <AltitudeMeters>128.8000030517578125</AltitudeMeters>
            <DistanceMeters>NAN</DistanceMeters>
          </Trackpoint>
          <Trackpoint>
            <Time>2020-05-25T05:14:17.000Z</Time>
            <Position>
              <LatitudeDegrees>38.1105293892323970794677734375</LatitudeDegrees>
              <LongitudeDegrees>-1.102525033056735992431640625</LongitudeDegrees>
            </Position>
            <AltitudeMeters>129</AltitudeMeters>
            <DistanceMeters>NAN</DistanceMeters>
          </Trackpoint>
          <Trackpoint>
            <Time>2020-05-25T05:14:18.000Z</Time>
            <Position>
              <LatitudeDegrees>38.11061002314090728759765625</LatitudeDegrees>
              <LongitudeDegrees>-1.10236804001033306121826171875</LongitudeDegrees>
            </Position>
            <AltitudeMeters>129.1999969482421875</AltitudeMeters>
            <DistanceMeters>NAN</DistanceMeters>
          </Trackpoint>
          <Trackpoint>
            <Time>2020-05-25T05:14:19.000Z</Time>
            <Position>
              <LatitudeDegrees>38.11061002314090728759765625</LatitudeDegrees>
              <LongitudeDegrees>-1.10236804001033306121826171875</LongitudeDegrees>
            </Position>
            <AltitudeMeters>129.399993896484375</AltitudeMeters>
            <DistanceMeters>NAN</DistanceMeters>
          </Trackpoint>
          <Trackpoint>
            <Time>2020-05-25T05:14:20.000Z</Time>
            <Position>
              <LatitudeDegrees>38.1106906570494174957275390625</LatitudeDegrees>
              <LongitudeDegrees>-1.10220878385007381439208984375</LongitudeDegrees>
            </Position>
            <AltitudeMeters>129.399993896484375</AltitudeMeters>
            <DistanceMeters>NAN</DistanceMeters>
          </Trackpoint>
          <Trackpoint>
            <Time>2020-05-25T05:14:21.000Z</Time>
            <Position>
              <LatitudeDegrees>38.1106906570494174957275390625</LatitudeDegrees>
              <LongitudeDegrees>-1.10220878385007381439208984375</LongitudeDegrees>
            </Position>
            <AltitudeMeters>129.399993896484375</AltitudeMeters>
            <DistanceMeters>NAN</DistanceMeters>
          </Trackpoint>
          <Trackpoint>
            <Time>2020-05-25T05:14:22.000Z</Time>
            <Position>
              <LatitudeDegrees>38.11073005199432373046875</LatitudeDegrees>
              <LongitudeDegrees>-1.10212680883705615997314453125</LongitudeDegrees>
            </Position>
            <AltitudeMeters>129.399993896484375</AltitudeMeters>
            <DistanceMeters>NAN</DistanceMeters>
          </Trackpoint>
          <Trackpoint>
            <Time>2020-05-25T05:14:23.000Z</Time>
            <Position>
              <LatitudeDegrees>38.1107694469392299652099609375</LatitudeDegrees>
              <LongitudeDegrees>-1.10204298980534076690673828125</LongitudeDegrees>
            </Position>
            <AltitudeMeters>129.399993896484375</AltitudeMeters>
            <DistanceMeters>NAN</DistanceMeters>
          </Trackpoint>
          <Trackpoint>
            <Time>2020-05-25T05:14:24.000Z</Time>
            <Position>
              <LatitudeDegrees>38.11085049994289875030517578125</LatitudeDegrees>
              <LongitudeDegrees>-1.1018727533519268035888671875</LongitudeDegrees>
            </Position>
            <AltitudeMeters>129.399993896484375</AltitudeMeters>
            <DistanceMeters>NAN</DistanceMeters>
          </Trackpoint>
          <Trackpoint>
            <Time>2020-05-25T05:14:25.000Z</Time>
            <Position>
              <LatitudeDegrees>38.11085049994289875030517578125</LatitudeDegrees>
              <LongitudeDegrees>-1.1018727533519268035888671875</LongitudeDegrees>
            </Position>
            <AltitudeMeters>129.399993896484375</AltitudeMeters>
            <DistanceMeters>NAN</DistanceMeters>
          </Trackpoint>
          <Trackpoint>
            <Time>2020-05-25T05:14:26.000Z</Time>
            <Position>
              <LatitudeDegrees>38.11093398369848728179931640625</LatitudeDegrees>
              <LongitudeDegrees>-1.101701259613037109375</LongitudeDegrees>
            </Position>
            <AltitudeMeters>129.399993896484375</AltitudeMeters>
            <DistanceMeters>NAN</DistanceMeters>
          </Trackpoint>
          <Trackpoint>
            <Time>2020-05-25T05:14:27.000Z</Time>
            <Position>
              <LatitudeDegrees>38.11093398369848728179931640625</LatitudeDegrees>
              <LongitudeDegrees>-1.101701259613037109375</LongitudeDegrees>
            </Position>
            <AltitudeMeters>129.399993896484375</AltitudeMeters>
            <DistanceMeters>NAN</DistanceMeters>
          </Trackpoint>
          <Trackpoint>
            <Time>2020-05-25T05:14:28.000Z</Time>
            <Position>
              <LatitudeDegrees>38.110975809395313262939453125</LatitudeDegrees>
              <LongitudeDegrees>-1.10161475837230682373046875</LongitudeDegrees>
            </Position>
            <AltitudeMeters>129.1999969482421875</AltitudeMeters>
            <DistanceMeters>NAN</DistanceMeters>
          </Trackpoint>
          <Trackpoint>
            <Time>2020-05-25T05:14:29.000Z</Time>
            <Position>
              <LatitudeDegrees>38.11101830564439296722412109375</LatitudeDegrees>
              <LongitudeDegrees>-1.10152951441705226898193359375</LongitudeDegrees>
            </Position>
            <AltitudeMeters>129</AltitudeMeters>
            <DistanceMeters>NAN</DistanceMeters>
          </Trackpoint>
          <Trackpoint>
            <Time>2020-05-25T05:14:30.000Z</Time>
            <Position>
              <LatitudeDegrees>38.1110608018934726715087890625</LatitudeDegrees>
              <LongitudeDegrees>-1.10144519247114658355712890625</LongitudeDegrees>
            </Position>
            <AltitudeMeters>129</AltitudeMeters>
            <DistanceMeters>NAN</DistanceMeters>
          </Trackpoint>
          <Trackpoint>
            <Time>2020-05-25T05:14:31.000Z</Time>
            <Position>
              <LatitudeDegrees>38.111103884875774383544921875</LatitudeDegrees>
              <LongitudeDegrees>-1.10136254690587520599365234375</LongitudeDegrees>
            </Position>
            <AltitudeMeters>129</AltitudeMeters>
            <DistanceMeters>NAN</DistanceMeters>
          </Trackpoint>
          <Trackpoint>
            <Time>2020-05-25T05:14:32.000Z</Time>
            <Position>
              <LatitudeDegrees>38.11114738695323467254638671875</LatitudeDegrees>
              <LongitudeDegrees>-1.101281158626079559326171875</LongitudeDegrees>
            </Position>
            <AltitudeMeters>129</AltitudeMeters>
            <DistanceMeters>NAN</DistanceMeters>
          </Trackpoint>
          <Trackpoint>
            <Time>2020-05-25T05:14:33.000Z</Time>
            <Position>
              <LatitudeDegrees>38.11119164340198040008544921875</LatitudeDegrees>
              <LongitudeDegrees>-1.1012010276317596435546875</LongitudeDegrees>
            </Position>
            <AltitudeMeters>128.8000030517578125</AltitudeMeters>
            <DistanceMeters>NAN</DistanceMeters>
          </Trackpoint>
          <Trackpoint>
            <Time>2020-05-25T05:14:34.000Z</Time>
            <Position>
              <LatitudeDegrees>38.1112388335168361663818359375</LatitudeDegrees>
              <LongitudeDegrees>-1.101124249398708343505859375</LongitudeDegrees>
            </Position>
            <AltitudeMeters>128.8000030517578125</AltitudeMeters>
            <DistanceMeters>NAN</DistanceMeters>
          </Trackpoint>
          <Trackpoint>
            <Time>2020-05-25T05:14:35.000Z</Time>
            <Position>
              <LatitudeDegrees>38.1112891249358654022216796875</LatitudeDegrees>
              <LongitudeDegrees>-1.101051829755306243896484375</LongitudeDegrees>
            </Position>
            <AltitudeMeters>128.600006103515625</AltitudeMeters>
            <DistanceMeters>NAN</DistanceMeters>
          </Trackpoint>
          <Trackpoint>
            <Time>2020-05-25T05:14:36.000Z</Time>
            <Position>
              <LatitudeDegrees>38.11134251765906810760498046875</LatitudeDegrees>
              <LongitudeDegrees>-1.10098402015864849090576171875</LongitudeDegrees>
            </Position>
            <AltitudeMeters>128.399993896484375</AltitudeMeters>
            <DistanceMeters>NAN</DistanceMeters>
          </Trackpoint>
          <Trackpoint>
            <Time>2020-05-25T05:14:37.000Z</Time>
            <Position>
              <LatitudeDegrees>38.1113992631435394287109375</LatitudeDegrees>
              <LongitudeDegrees>-1.100921072065830230712890625</LongitudeDegrees>
            </Position>
            <AltitudeMeters>128.399993896484375</AltitudeMeters>
            <DistanceMeters>NAN</DistanceMeters>
          </Trackpoint>
          <Trackpoint>
            <Time>2020-05-25T05:14:38.000Z</Time>
            <Position>
              <LatitudeDegrees>38.11145852319896221160888671875</LatitudeDegrees>
              <LongitudeDegrees>-1.1008639074862003326416015625</LongitudeDegrees>
            </Position>
            <AltitudeMeters>128.399993896484375</AltitudeMeters>
            <DistanceMeters>NAN</DistanceMeters>
          </Trackpoint>
          <Trackpoint>
            <Time>2020-05-25T05:14:39.000Z</Time>
            <Position>
              <LatitudeDegrees>38.11152105219662189483642578125</LatitudeDegrees>
              <LongitudeDegrees>-1.10081411898136138916015625</LongitudeDegrees>
            </Position>
            <AltitudeMeters>128.399993896484375</AltitudeMeters>
            <DistanceMeters>NAN</DistanceMeters>
          </Trackpoint>
          <Trackpoint>
            <Time>2020-05-25T05:14:40.000Z</Time>
            <Position>
              <LatitudeDegrees>38.11158643104135990142822265625</LatitudeDegrees>
              <LongitudeDegrees>-1.100772880017757415771484375</LongitudeDegrees>
            </Position>
            <AltitudeMeters>128.399993896484375</AltitudeMeters>
            <DistanceMeters>NAN</DistanceMeters>
          </Trackpoint>
          <Trackpoint>
            <Time>2020-05-25T05:14:41.000Z</Time>
            <Position>
              <LatitudeDegrees>38.11165365390479564666748046875</LatitudeDegrees>
              <LongitudeDegrees>-1.10073977150022983551025390625</LongitudeDegrees>
            </Position>
            <AltitudeMeters>128.399993896484375</AltitudeMeters>
            <DistanceMeters>NAN</DistanceMeters>
          </Trackpoint>
          <Trackpoint>
            <Time>2020-05-25T05:14:42.000Z</Time>
            <Position>
              <LatitudeDegrees>38.11172171495854854583740234375</LatitudeDegrees>
              <LongitudeDegrees>-1.1007133685052394866943359375</LongitudeDegrees>
            </Position>
            <AltitudeMeters>128.399993896484375</AltitudeMeters>
            <DistanceMeters>NAN</DistanceMeters>
          </Trackpoint>
          <Trackpoint>
            <Time>2020-05-25T05:14:43.000Z</Time>
            <Position>
              <LatitudeDegrees>38.1117923744022846221923828125</LatitudeDegrees>
              <LongitudeDegrees>-1.10069283284246921539306640625</LongitudeDegrees>
            </Position>
            <AltitudeMeters>128.399993896484375</AltitudeMeters>
            <DistanceMeters>NAN</DistanceMeters>
          </Trackpoint>
          <Trackpoint>
            <Time>2020-05-25T05:14:44.000Z</Time>
            <Position>
              <LatitudeDegrees>38.11186722479760646820068359375</LatitudeDegrees>
              <LongitudeDegrees>-1.10067657195031642913818359375</LongitudeDegrees>
            </Position>
            <AltitudeMeters>128.399993896484375</AltitudeMeters>
            <DistanceMeters>NAN</DistanceMeters>
          </Trackpoint>
          <Trackpoint>
            <Time>2020-05-25T05:14:45.000Z</Time>
            <Position>
              <LatitudeDegrees>38.11194383539259433746337890625</LatitudeDegrees>
              <LongitudeDegrees>-1.100665591657161712646484375</LongitudeDegrees>
            </Position>
            <AltitudeMeters>128.399993896484375</AltitudeMeters>
            <DistanceMeters>NAN</DistanceMeters>
          </Trackpoint>
          <Trackpoint>
            <Time>2020-05-25T05:14:46.000Z</Time>
            <Position>
              <LatitudeDegrees>38.11202195473015308380126953125</LatitudeDegrees>
              <LongitudeDegrees>-1.10066349618136882781982421875</LongitudeDegrees>
            </Position>
            <AltitudeMeters>128.399993896484375</AltitudeMeters>
            <DistanceMeters>NAN</DistanceMeters>
          </Trackpoint>
          <Trackpoint>
            <Time>2020-05-25T05:14:47.000Z</Time>
            <Position>
              <LatitudeDegrees>38.11209856532514095306396484375</LatitudeDegrees>
              <LongitudeDegrees>-1.100670956075191497802734375</LongitudeDegrees>
            </Position>
            <AltitudeMeters>128.399993896484375</AltitudeMeters>
            <DistanceMeters>NAN</DistanceMeters>
          </Trackpoint>
          <Trackpoint>
            <Time>2020-05-25T05:14:48.000Z</Time>
            <Position>
              <LatitudeDegrees>38.1121752597391605377197265625</LatitudeDegrees>
              <LongitudeDegrees>-1.10068495385348796844482421875</LongitudeDegrees>
            </Position>
            <AltitudeMeters>128.399993896484375</AltitudeMeters>
            <DistanceMeters>NAN</DistanceMeters>
          </Trackpoint>
          <Trackpoint>
            <Time>2020-05-25T05:14:49.000Z</Time>
            <Position>
              <LatitudeDegrees>38.1122506968677043914794921875</LatitudeDegrees>
              <LongitudeDegrees>-1.1007066629827022552490234375</LongitudeDegrees>
            </Position>
            <AltitudeMeters>128.399993896484375</AltitudeMeters>
            <DistanceMeters>NAN</DistanceMeters>
          </Trackpoint>
          <Trackpoint>
            <Time>2020-05-25T05:14:50.000Z</Time>
            <Position>
              <LatitudeDegrees>38.11232470907270908355712890625</LatitudeDegrees>
              <LongitudeDegrees>-1.10073356889188289642333984375</LongitudeDegrees>
            </Position>
            <AltitudeMeters>128.600006103515625</AltitudeMeters>
            <DistanceMeters>NAN</DistanceMeters>
          </Trackpoint>
          <Trackpoint>
            <Time>2020-05-25T05:14:51.000Z</Time>
            <Position>
              <LatitudeDegrees>38.1123978830873966217041015625</LatitudeDegrees>
              <LongitudeDegrees>-1.10076055862009525299072265625</LongitudeDegrees>
            </Position>
            <AltitudeMeters>128.600006103515625</AltitudeMeters>
            <DistanceMeters>NAN</DistanceMeters>
          </Trackpoint>
          <Trackpoint>
            <Time>2020-05-25T05:14:52.000Z</Time>
            <Position>
              <LatitudeDegrees>38.112470470368862152099609375</LatitudeDegrees>
              <LongitudeDegrees>-1.1007867939770221710205078125</LongitudeDegrees>
            </Position>
            <AltitudeMeters>128.600006103515625</AltitudeMeters>
            <DistanceMeters>NAN</DistanceMeters>
          </Trackpoint>
          <Trackpoint>
            <Time>2020-05-25T05:14:53.000Z</Time>
            <Position>
              <LatitudeDegrees>38.112541548907756805419921875</LatitudeDegrees>
              <LongitudeDegrees>-1.10081453807651996612548828125</LongitudeDegrees>
            </Position>
            <AltitudeMeters>128.8000030517578125</AltitudeMeters>
            <DistanceMeters>NAN</DistanceMeters>
          </Trackpoint>
          <Trackpoint>
            <Time>2020-05-25T05:14:54.000Z</Time>
            <Position>
              <LatitudeDegrees>38.1126117892563343048095703125</LatitudeDegrees>
              <LongitudeDegrees>-1.10084270127117633819580078125</LongitudeDegrees>
            </Position>
            <AltitudeMeters>128.8000030517578125</AltitudeMeters>
            <DistanceMeters>NAN</DistanceMeters>
          </Trackpoint>
          <Trackpoint>
            <Time>2020-05-25T05:14:55.000Z</Time>
            <Position>
              <LatitudeDegrees>38.1126811914145946502685546875</LatitudeDegrees>
              <LongitudeDegrees>-1.1008696071803569793701171875</LongitudeDegrees>
            </Position>
            <AltitudeMeters>129</AltitudeMeters>
            <DistanceMeters>NAN</DistanceMeters>
          </Trackpoint>
          <Trackpoint>
            <Time>2020-05-25T05:14:56.000Z</Time>
            <Position>
              <LatitudeDegrees>38.1127495877444744110107421875</LatitudeDegrees>
              <LongitudeDegrees>-1.10089592635631561279296875</LongitudeDegrees>
            </Position>
            <AltitudeMeters>129</AltitudeMeters>
            <DistanceMeters>NAN</DistanceMeters>
          </Trackpoint>
          <Trackpoint>
            <Time>2020-05-25T05:14:57.000Z</Time>
            <Position>
              <LatitudeDegrees>38.11281722970306873321533203125</LatitudeDegrees>
              <LongitudeDegrees>-1.100922413170337677001953125</LongitudeDegrees>
            </Position>
            <AltitudeMeters>129.1999969482421875</AltitudeMeters>
            <DistanceMeters>NAN</DistanceMeters>
          </Trackpoint>
          <Trackpoint>
            <Time>2020-05-25T05:14:58.000Z</Time>
            <Position>
              <LatitudeDegrees>38.1128833629190921783447265625</LatitudeDegrees>
              <LongitudeDegrees>-1.10094688832759857177734375</LongitudeDegrees>
            </Position>
            <AltitudeMeters>129.1999969482421875</AltitudeMeters>
            <DistanceMeters>NAN</DistanceMeters>
          </Trackpoint>
          <Trackpoint>
            <Time>2020-05-25T05:14:59.000Z</Time>
            <Position>
              <LatitudeDegrees>38.11294966377317905426025390625</LatitudeDegrees>
              <LongitudeDegrees>-1.10097161494195461273193359375</LongitudeDegrees>
            </Position>
            <AltitudeMeters>129.399993896484375</AltitudeMeters>
            <DistanceMeters>NAN</DistanceMeters>
          </Trackpoint>
          <Trackpoint>
            <Time>2020-05-25T05:15:00.000Z</Time>
            <Position>
              <LatitudeDegrees>38.11301655136048793792724609375</LatitudeDegrees>
              <LongitudeDegrees>-1.1009973473846912384033203125</LongitudeDegrees>
            </Position>
            <AltitudeMeters>129.399993896484375</AltitudeMeters>
            <DistanceMeters>NAN</DistanceMeters>
          </Trackpoint>
          <Trackpoint>
            <Time>2020-05-25T05:15:01.000Z</Time>
            <Position>
              <LatitudeDegrees>38.11308545060455799102783203125</LatitudeDegrees>
              <LongitudeDegrees>-1.10102274455130100250244140625</LongitudeDegrees>
            </Position>
            <AltitudeMeters>129.399993896484375</AltitudeMeters>
            <DistanceMeters>NAN</DistanceMeters>
          </Trackpoint>
          <Trackpoint>
            <Time>2020-05-25T05:15:02.000Z</Time>
            <Position>
              <LatitudeDegrees>38.11315502040088176727294921875</LatitudeDegrees>
              <LongitudeDegrees>-1.1010481417179107666015625</LongitudeDegrees>
            </Position>
            <AltitudeMeters>129.399993896484375</AltitudeMeters>
            <DistanceMeters>NAN</DistanceMeters>
          </Trackpoint>
          <Trackpoint>
            <Time>2020-05-25T05:15:03.000Z</Time>
            <Position>
              <LatitudeDegrees>38.1132260151207447052001953125</LatitudeDegrees>
              <LongitudeDegrees>-1.10107437707483768463134765625</LongitudeDegrees>
            </Position>
            <AltitudeMeters>129.600006103515625</AltitudeMeters>
            <DistanceMeters>NAN</DistanceMeters>
          </Trackpoint>
          <Trackpoint>
            <Time>2020-05-25T05:15:04.000Z</Time>
            <Position>
              <LatitudeDegrees>38.11329751275479793548583984375</LatitudeDegrees>
              <LongitudeDegrees>-1.10109935514628887176513671875</LongitudeDegrees>
            </Position>
            <AltitudeMeters>129.600006103515625</AltitudeMeters>
            <DistanceMeters>NAN</DistanceMeters>
          </Trackpoint>
          <Trackpoint>
            <Time>2020-05-25T05:15:05.000Z</Time>
            <Position>
              <LatitudeDegrees>38.11336808837950229644775390625</LatitudeDegrees>
              <LongitudeDegrees>-1.101124249398708343505859375</LongitudeDegrees>
            </Position>
            <AltitudeMeters>129.8000030517578125</AltitudeMeters>
            <DistanceMeters>NAN</DistanceMeters>
          </Trackpoint>
          <Trackpoint>
            <Time>2020-05-25T05:15:06.000Z</Time>
            <Position>
              <LatitudeDegrees>38.1134382449090480804443359375</LatitudeDegrees>
              <LongitudeDegrees>-1.10114998184144496917724609375</LongitudeDegrees>
            </Position>
            <AltitudeMeters>129.8000030517578125</AltitudeMeters>
            <DistanceMeters>NAN</DistanceMeters>
          </Trackpoint>
          <Trackpoint>
            <Time>2020-05-25T05:15:07.000Z</Time>
            <Position>
              <LatitudeDegrees>38.11350789852440357208251953125</LatitudeDegrees>
              <LongitudeDegrees>-1.10117462463676929473876953125</LongitudeDegrees>
            </Position>
            <AltitudeMeters>130.1999969482421875</AltitudeMeters>
            <DistanceMeters>NAN</DistanceMeters>
          </Trackpoint>
          <Trackpoint>
            <Time>2020-05-25T05:15:08.000Z</Time>
            <Position>
              <LatitudeDegrees>38.11357713304460048675537109375</LatitudeDegrees>
              <LongitudeDegrees>-1.101198680698871612548828125</LongitudeDegrees>
            </Position>
            <AltitudeMeters>130.399993896484375</AltitudeMeters>
            <DistanceMeters>NAN</DistanceMeters>
          </Trackpoint>
          <Trackpoint>
            <Time>2020-05-25T05:15:09.000Z</Time>
            <Position>
              <LatitudeDegrees>38.11364636756479740142822265625</LatitudeDegrees>
              <LongitudeDegrees>-1.10122424550354480743408203125</LongitudeDegrees>
            </Position>
            <AltitudeMeters>130.600006103515625</AltitudeMeters>
            <DistanceMeters>NAN</DistanceMeters>
          </Trackpoint>
          <Trackpoint>
            <Time>2020-05-25T05:15:10.000Z</Time>
            <Position>
              <LatitudeDegrees>38.11371509917080402374267578125</LatitudeDegrees>
              <LongitudeDegrees>-1.1012524925172328948974609375</LongitudeDegrees>
            </Position>
            <AltitudeMeters>130.8000030517578125</AltitudeMeters>
            <DistanceMeters>NAN</DistanceMeters>
          </Trackpoint>
          <Trackpoint>
            <Time>2020-05-25T05:15:11.000Z</Time>
            <Position>
              <LatitudeDegrees>38.11378466896712779998779296875</LatitudeDegrees>
              <LongitudeDegrees>-1.10127872787415981292724609375</LongitudeDegrees>
            </Position>
            <AltitudeMeters>130.8000030517578125</AltitudeMeters>
            <DistanceMeters>NAN</DistanceMeters>
          </Trackpoint>
          <Trackpoint>
            <Time>2020-05-25T05:15:12.000Z</Time>
            <Position>
              <LatitudeDegrees>38.11385574750602245330810546875</LatitudeDegrees>
              <LongitudeDegrees>-1.10130303539335727691650390625</LongitudeDegrees>
            </Position>
            <AltitudeMeters>130.8000030517578125</AltitudeMeters>
            <DistanceMeters>NAN</DistanceMeters>
          </Trackpoint>
          <Trackpoint>
            <Time>2020-05-25T05:15:13.000Z</Time>
            <Position>
              <LatitudeDegrees>38.113927580416202545166015625</LatitudeDegrees>
              <LongitudeDegrees>-1.1013292707502841949462890625</LongitudeDegrees>
            </Position>
            <AltitudeMeters>131</AltitudeMeters>
            <DistanceMeters>NAN</DistanceMeters>
          </Trackpoint>
          <Trackpoint>
            <Time>2020-05-25T05:15:14.000Z</Time>
            <Position>
              <LatitudeDegrees>38.113999329507350921630859375</LatitudeDegrees>
              <LongitudeDegrees>-1.1013567633926868438720703125</LongitudeDegrees>
            </Position>
            <AltitudeMeters>131</AltitudeMeters>
            <DistanceMeters>NAN</DistanceMeters>
          </Trackpoint>
          <Trackpoint>
            <Time>2020-05-25T05:15:15.000Z</Time>
            <Position>
              <LatitudeDegrees>38.11407141387462615966796875</LatitudeDegrees>
              <LongitudeDegrees>-1.10138383693993091583251953125</LongitudeDegrees>
            </Position>
            <AltitudeMeters>131</AltitudeMeters>
            <DistanceMeters>NAN</DistanceMeters>
          </Trackpoint>
          <Trackpoint>
            <Time>2020-05-25T05:15:16.000Z</Time>
            <Position>
              <LatitudeDegrees>38.11414525844156742095947265625</LatitudeDegrees>
              <LongitudeDegrees>-1.1014094017446041107177734375</LongitudeDegrees>
            </Position>
            <AltitudeMeters>131</AltitudeMeters>
            <DistanceMeters>NAN</DistanceMeters>
          </Trackpoint>
          <Trackpoint>
            <Time>2020-05-25T05:15:17.000Z</Time>
            <Position>
              <LatitudeDegrees>38.114219941198825836181640625</LatitudeDegrees>
              <LongitudeDegrees>-1.101435720920562744140625</LongitudeDegrees>
            </Position>
            <AltitudeMeters>131</AltitudeMeters>
            <DistanceMeters>NAN</DistanceMeters>
          </Trackpoint>
          <Trackpoint>
            <Time>2020-05-25T05:15:18.000Z</Time>
            <Position>
              <LatitudeDegrees>38.11429546214640140533447265625</LatitudeDegrees>
              <LongitudeDegrees>-1.10146312974393367767333984375</LongitudeDegrees>
            </Position>
            <AltitudeMeters>131</AltitudeMeters>
            <DistanceMeters>NAN</DistanceMeters>
          </Trackpoint>
          <Trackpoint>
            <Time>2020-05-25T05:15:19.000Z</Time>
            <Position>
              <LatitudeDegrees>38.11437156982719898223876953125</LatitudeDegrees>
              <LongitudeDegrees>-1.10149129293859004974365234375</LongitudeDegrees>
            </Position>
            <AltitudeMeters>131</AltitudeMeters>
            <DistanceMeters>NAN</DistanceMeters>
          </Trackpoint>
          <Trackpoint>
            <Time>2020-05-25T05:15:20.000Z</Time>
            <Position>
              <LatitudeDegrees>38.11444851569831371307373046875</LatitudeDegrees>
              <LongitudeDegrees>-1.1015187017619609832763671875</LongitudeDegrees>
            </Position>
            <AltitudeMeters>131</AltitudeMeters>
            <DistanceMeters>NAN</DistanceMeters>
          </Trackpoint>
          <Trackpoint>
            <Time>2020-05-25T05:15:21.000Z</Time>
            <Position>
              <LatitudeDegrees>38.114525713026523590087890625</LatitudeDegrees>
              <LongitudeDegrees>-1.1015455238521099090576171875</LongitudeDegrees>
            </Position>
            <AltitudeMeters>131</AltitudeMeters>
            <DistanceMeters>NAN</DistanceMeters>
          </Trackpoint>
          <Trackpoint>
            <Time>2020-05-25T05:15:22.000Z</Time>
            <Position>
              <LatitudeDegrees>38.114603497087955474853515625</LatitudeDegrees>
              <LongitudeDegrees>-1.10157377086579799652099609375</LongitudeDegrees>
            </Position>
            <AltitudeMeters>131</AltitudeMeters>
            <DistanceMeters>NAN</DistanceMeters>
          </Trackpoint>
          <Trackpoint>
            <Time>2020-05-25T05:15:23.000Z</Time>
            <Position>
              <LatitudeDegrees>38.11468170024454593658447265625</LatitudeDegrees>
              <LongitudeDegrees>-1.101603023707866668701171875</LongitudeDegrees>
            </Position>
            <AltitudeMeters>131</AltitudeMeters>
            <DistanceMeters>NAN</DistanceMeters>
          </Trackpoint>
          <Trackpoint>
            <Time>2020-05-25T05:15:24.000Z</Time>
            <Position>
              <LatitudeDegrees>38.11476065777242183685302734375</LatitudeDegrees>
              <LongitudeDegrees>-1.1016316898167133331298828125</LongitudeDegrees>
            </Position>
            <AltitudeMeters>131</AltitudeMeters>
            <DistanceMeters>NAN</DistanceMeters>
          </Trackpoint>
          <Trackpoint>
            <Time>2020-05-25T05:15:25.000Z</Time>
            <Position>
              <LatitudeDegrees>38.11483978293836116790771484375</LatitudeDegrees>
              <LongitudeDegrees>-1.10165893100202083587646484375</LongitudeDegrees>
            </Position>
            <AltitudeMeters>131</AltitudeMeters>
            <DistanceMeters>NAN</DistanceMeters>
          </Trackpoint>
          <Trackpoint>
            <Time>2020-05-25T05:15:26.000Z</Time>
            <Position>
              <LatitudeDegrees>38.11491840519011020660400390625</LatitudeDegrees>
              <LongitudeDegrees>-1.10168642364442348480224609375</LongitudeDegrees>
            </Position>
            <AltitudeMeters>130.8000030517578125</AltitudeMeters>
            <DistanceMeters>NAN</DistanceMeters>
          </Trackpoint>
          <Trackpoint>
            <Time>2020-05-25T05:15:27.000Z</Time>
            <Position>
              <LatitudeDegrees>38.11499685980379581451416015625</LatitudeDegrees>
              <LongitudeDegrees>-1.10171668231487274169921875</LongitudeDegrees>
            </Position>
            <AltitudeMeters>130.8000030517578125</AltitudeMeters>
            <DistanceMeters>NAN</DistanceMeters>
          </Trackpoint>
          <Trackpoint>
            <Time>2020-05-25T05:15:28.000Z</Time>
            <Position>
              <LatitudeDegrees>38.11507447622716426849365234375</LatitudeDegrees>
              <LongitudeDegrees>-1.10175096429884433746337890625</LongitudeDegrees>
            </Position>
            <AltitudeMeters>130.600006103515625</AltitudeMeters>
            <DistanceMeters>NAN</DistanceMeters>
          </Trackpoint>
          <Trackpoint>
            <Time>2020-05-25T05:15:29.000Z</Time>
            <Position>
              <LatitudeDegrees>38.115152008831501007080078125</LatitudeDegrees>
              <LongitudeDegrees>-1.10178968869149684906005859375</LongitudeDegrees>
            </Position>
            <AltitudeMeters>130.600006103515625</AltitudeMeters>
            <DistanceMeters>NAN</DistanceMeters>
          </Trackpoint>
          <Trackpoint>
            <Time>2020-05-25T05:15:30.000Z</Time>
            <Position>
              <LatitudeDegrees>38.115230463445186614990234375</LatitudeDegrees>
              <LongitudeDegrees>-1.1018311791121959686279296875</LongitudeDegrees>
            </Position>
            <AltitudeMeters>130.600006103515625</AltitudeMeters>
            <DistanceMeters>NAN</DistanceMeters>
          </Trackpoint>
          <Trackpoint>
            <Time>2020-05-25T05:15:31.000Z</Time>
            <Position>
              <LatitudeDegrees>38.11530849896371364593505859375</LatitudeDegrees>
              <LongitudeDegrees>-1.10187652520835399627685546875</LongitudeDegrees>
            </Position>
            <AltitudeMeters>130.399993896484375</AltitudeMeters>
            <DistanceMeters>NAN</DistanceMeters>
          </Trackpoint>
          <Trackpoint>
            <Time>2020-05-25T05:15:32.000Z</Time>
            <Position>
              <LatitudeDegrees>38.11538636684417724609375</LatitudeDegrees>
              <LongitudeDegrees>-1.101925559341907501220703125</LongitudeDegrees>
            </Position>
            <AltitudeMeters>130.399993896484375</AltitudeMeters>
            <DistanceMeters>NAN</DistanceMeters>
          </Trackpoint>
          <Trackpoint>
            <Time>2020-05-25T05:15:33.000Z</Time>
            <Position>
              <LatitudeDegrees>38.1154646538197994232177734375</LatitudeDegrees>
              <LongitudeDegrees>-1.1019766889512538909912109375</LongitudeDegrees>
            </Position>
            <AltitudeMeters>130.399993896484375</AltitudeMeters>
            <DistanceMeters>NAN</DistanceMeters>
          </Trackpoint>
          <Trackpoint>
            <Time>2020-05-25T05:15:34.000Z</Time>
            <Position>
              <LatitudeDegrees>38.11554302461445331573486328125</LatitudeDegrees>
              <LongitudeDegrees>-1.1020306684076786041259765625</LongitudeDegrees>
            </Position>
            <AltitudeMeters>130.399993896484375</AltitudeMeters>
            <DistanceMeters>NAN</DistanceMeters>
          </Trackpoint>
          <Trackpoint>
            <Time>2020-05-25T05:15:35.000Z</Time>
            <Position>
              <LatitudeDegrees>38.115622065961360931396484375</LatitudeDegrees>
              <LongitudeDegrees>-1.10208573751151561737060546875</LongitudeDegrees>
            </Position>
            <AltitudeMeters>130.1999969482421875</AltitudeMeters>
            <DistanceMeters>NAN</DistanceMeters>
          </Trackpoint>
          <Trackpoint>
            <Time>2020-05-25T05:15:36.000Z</Time>
            <Position>
              <LatitudeDegrees>38.1157020293176174163818359375</LatitudeDegrees>
              <LongitudeDegrees>-1.1021411418914794921875</LongitudeDegrees>
            </Position>
            <AltitudeMeters>130.1999969482421875</AltitudeMeters>
            <DistanceMeters>NAN</DistanceMeters>
          </Trackpoint>
          <Trackpoint>
            <Time>2020-05-25T05:15:37.000Z</Time>
            <Position>
              <LatitudeDegrees>38.11578241176903247833251953125</LatitudeDegrees>
              <LongitudeDegrees>-1.10219738446176052093505859375</LongitudeDegrees>
            </Position>
            <AltitudeMeters>130</AltitudeMeters>
            <DistanceMeters>NAN</DistanceMeters>
          </Trackpoint>
          <Trackpoint>
            <Time>2020-05-25T05:15:38.000Z</Time>
            <Position>
              <LatitudeDegrees>38.11586354859173297882080078125</LatitudeDegrees>
              <LongitudeDegrees>-1.10225371085107326507568359375</LongitudeDegrees>
            </Position>
            <AltitudeMeters>129.8000030517578125</AltitudeMeters>
            <DistanceMeters>NAN</DistanceMeters>
          </Trackpoint>
          <Trackpoint>
            <Time>2020-05-25T05:15:39.000Z</Time>
            <Position>
              <LatitudeDegrees>38.11594485305249691009521484375</LatitudeDegrees>
              <LongitudeDegrees>-1.1023102886974811553955078125</LongitudeDegrees>
            </Position>
            <AltitudeMeters>129.1999969482421875</AltitudeMeters>
            <DistanceMeters>NAN</DistanceMeters>
          </Trackpoint>
          <Trackpoint>
            <Time>2020-05-25T05:15:40.000Z</Time>
            <Position>
              <LatitudeDegrees>38.11602540314197540283203125</LatitudeDegrees>
              <LongitudeDegrees>-1.1023677885532379150390625</LongitudeDegrees>
            </Position>
            <AltitudeMeters>128.600006103515625</AltitudeMeters>
            <DistanceMeters>NAN</DistanceMeters>
          </Trackpoint>
          <Trackpoint>
            <Time>2020-05-25T05:15:41.000Z</Time>
            <Position>
              <LatitudeDegrees>38.11610612086951732635498046875</LatitudeDegrees>
              <LongitudeDegrees>-1.10242545604705810546875</LongitudeDegrees>
            </Position>
            <AltitudeMeters>128.1999969482421875</AltitudeMeters>
            <DistanceMeters>NAN</DistanceMeters>
          </Trackpoint>
          <Trackpoint>
            <Time>2020-05-25T05:15:42.000Z</Time>
            <Position>
              <LatitudeDegrees>38.11618759296834468841552734375</LatitudeDegrees>
              <LongitudeDegrees>-1.10248220153152942657470703125</LongitudeDegrees>
            </Position>
            <AltitudeMeters>127.8000030517578125</AltitudeMeters>
            <DistanceMeters>NAN</DistanceMeters>
          </Trackpoint>
          <Trackpoint>
            <Time>2020-05-25T05:15:43.000Z</Time>
            <Position>
              <LatitudeDegrees>38.116268813610076904296875</LatitudeDegrees>
              <LongitudeDegrees>-1.10253903083503246307373046875</LongitudeDegrees>
            </Position>
            <AltitudeMeters>127.59999847412109375</AltitudeMeters>
            <DistanceMeters>NAN</DistanceMeters>
          </Trackpoint>
          <Trackpoint>
            <Time>2020-05-25T05:15:44.000Z</Time>
            <Position>
              <LatitudeDegrees>38.11634986661374568939208984375</LatitudeDegrees>
              <LongitudeDegrees>-1.10259619541466236114501953125</LongitudeDegrees>
            </Position>
            <AltitudeMeters>127.1999969482421875</AltitudeMeters>
            <DistanceMeters>NAN</DistanceMeters>
          </Trackpoint>
          <Trackpoint>
            <Time>2020-05-25T05:15:45.000Z</Time>
            <Position>
              <LatitudeDegrees>38.1164322607219219207763671875</LatitudeDegrees>
              <LongitudeDegrees>-1.10265201888978481292724609375</LongitudeDegrees>
            </Position>
            <AltitudeMeters>126.8000030517578125</AltitudeMeters>
            <DistanceMeters>NAN</DistanceMeters>
          </Trackpoint>
          <Trackpoint>
            <Time>2020-05-25T05:15:46.000Z</Time>
            <Position>
              <LatitudeDegrees>38.116514571011066436767578125</LatitudeDegrees>
              <LongitudeDegrees>-1.10270884819328784942626953125</LongitudeDegrees>
            </Position>
            <AltitudeMeters>126.40000152587890625</AltitudeMeters>
            <DistanceMeters>NAN</DistanceMeters>
          </Trackpoint>
          <Trackpoint>
            <Time>2020-05-25T05:15:47.000Z</Time>
            <Position>
              <LatitudeDegrees>38.11659612692892551422119140625</LatitudeDegrees>
              <LongitudeDegrees>-1.10276701860129833221435546875</LongitudeDegrees>
            </Position>
            <AltitudeMeters>126.1999969482421875</AltitudeMeters>
            <DistanceMeters>NAN</DistanceMeters>
          </Trackpoint>
          <Trackpoint>
            <Time>2020-05-25T05:15:48.000Z</Time>
            <Position>
              <LatitudeDegrees>38.11667659319937229156494140625</LatitudeDegrees>
              <LongitudeDegrees>-1.1028252728283405303955078125</LongitudeDegrees>
            </Position>
            <AltitudeMeters>126</AltitudeMeters>
            <DistanceMeters>NAN</DistanceMeters>
          </Trackpoint>
          <Trackpoint>
            <Time>2020-05-25T05:15:49.000Z</Time>
            <Position>
              <LatitudeDegrees>38.11675605364143848419189453125</LatitudeDegrees>
              <LongitudeDegrees>-1.10288335941731929779052734375</LongitudeDegrees>
            </Position>
            <AltitudeMeters>125.59999847412109375</AltitudeMeters>
            <DistanceMeters>NAN</DistanceMeters>
          </Trackpoint>
          <Trackpoint>
            <Time>2020-05-25T05:15:50.000Z</Time>
            <Position>
              <LatitudeDegrees>38.11683501116931438446044921875</LatitudeDegrees>
              <LongitudeDegrees>-1.102940104901790618896484375</LongitudeDegrees>
            </Position>
            <AltitudeMeters>125.40000152587890625</AltitudeMeters>
            <DistanceMeters>NAN</DistanceMeters>
          </Trackpoint>
          <Trackpoint>
            <Time>2020-05-25T05:15:51.000Z</Time>
            <Position>
              <LatitudeDegrees>38.11691413633525371551513671875</LatitudeDegrees>
              <LongitudeDegrees>-1.1029949225485324859619140625</LongitudeDegrees>
            </Position>
            <AltitudeMeters>125.1999969482421875</AltitudeMeters>
            <DistanceMeters>NAN</DistanceMeters>
          </Trackpoint>
          <Trackpoint>
            <Time>2020-05-25T05:15:52.000Z</Time>
            <Position>
              <LatitudeDegrees>38.11699233949184417724609375</LatitudeDegrees>
              <LongitudeDegrees>-1.10304965637624263763427734375</LongitudeDegrees>
            </Position>
            <AltitudeMeters>125</AltitudeMeters>
            <DistanceMeters>NAN</DistanceMeters>
          </Trackpoint>
          <Trackpoint>
            <Time>2020-05-25T05:15:53.000Z</Time>
            <Position>
              <LatitudeDegrees>38.11706987209618091583251953125</LatitudeDegrees>
              <LongitudeDegrees>-1.103103719651699066162109375</LongitudeDegrees>
            </Position>
            <AltitudeMeters>124.8000030517578125</AltitudeMeters>
            <DistanceMeters>NAN</DistanceMeters>
          </Trackpoint>
          <Trackpoint>
            <Time>2020-05-25T05:15:54.000Z</Time>
            <Position>
              <LatitudeDegrees>38.1171463988721370697021484375</LatitudeDegrees>
              <LongitudeDegrees>-1.10315610654652118682861328125</LongitudeDegrees>
            </Position>
            <AltitudeMeters>124.59999847412109375</AltitudeMeters>
            <DistanceMeters>NAN</DistanceMeters>
          </Trackpoint>
          <Trackpoint>
            <Time>2020-05-25T05:15:55.000Z</Time>
            <Position>
              <LatitudeDegrees>38.1172225065529346466064453125</LatitudeDegrees>
              <LongitudeDegrees>-1.103207655251026153564453125</LongitudeDegrees>
            </Position>
            <AltitudeMeters>124.59999847412109375</AltitudeMeters>
            <DistanceMeters>NAN</DistanceMeters>
          </Trackpoint>
          <Trackpoint>
            <Time>2020-05-25T05:15:56.000Z</Time>
            <Position>
              <LatitudeDegrees>38.11729785986244678497314453125</LatitudeDegrees>
              <LongitudeDegrees>-1.10325895249843597412109375</LongitudeDegrees>
            </Position>
            <AltitudeMeters>124.40000152587890625</AltitudeMeters>
            <DistanceMeters>NAN</DistanceMeters>
          </Trackpoint>
          <Trackpoint>
            <Time>2020-05-25T05:15:57.000Z</Time>
            <Position>
              <LatitudeDegrees>38.117372207343578338623046875</LatitudeDegrees>
              <LongitudeDegrees>-1.10331100411713123321533203125</LongitudeDegrees>
            </Position>
            <AltitudeMeters>124.40000152587890625</AltitudeMeters>
            <DistanceMeters>NAN</DistanceMeters>
          </Trackpoint>
          <Trackpoint>
            <Time>2020-05-25T05:15:58.000Z</Time>
            <Position>
              <LatitudeDegrees>38.11744697391986846923828125</LatitudeDegrees>
              <LongitudeDegrees>-1.1033628880977630615234375</LongitudeDegrees>
            </Position>
            <AltitudeMeters>124.1999969482421875</AltitudeMeters>
            <DistanceMeters>NAN</DistanceMeters>
          </Trackpoint>
          <Trackpoint>
            <Time>2020-05-25T05:15:59.000Z</Time>
            <Position>
              <LatitudeDegrees>38.1175227463245391845703125</LatitudeDegrees>
              <LongitudeDegrees>-1.10341426916420459747314453125</LongitudeDegrees>
            </Position>
            <AltitudeMeters>124.1999969482421875</AltitudeMeters>
            <DistanceMeters>NAN</DistanceMeters>
          </Trackpoint>
          <Trackpoint>
            <Time>2020-05-25T05:16:00.000Z</Time>
            <Position>
              <LatitudeDegrees>38.11759927310049533843994140625</LatitudeDegrees>
              <LongitudeDegrees>-1.10346606932580471038818359375</LongitudeDegrees>
            </Position>
            <AltitudeMeters>124</AltitudeMeters>
            <DistanceMeters>NAN</DistanceMeters>
          </Trackpoint>
          <Trackpoint>
            <Time>2020-05-25T05:16:01.000Z</Time>
            <Position>
              <LatitudeDegrees>38.1176751293241977691650390625</LatitudeDegrees>
              <LongitudeDegrees>-1.1035182885825634002685546875</LongitudeDegrees>
            </Position>
            <AltitudeMeters>124</AltitudeMeters>
            <DistanceMeters>NAN</DistanceMeters>
          </Trackpoint>
          <Trackpoint>
            <Time>2020-05-25T05:16:02.000Z</Time>
            <Position>
              <LatitudeDegrees>38.117751069366931915283203125</LatitudeDegrees>
              <LongitudeDegrees>-1.1035712622106075286865234375</LongitudeDegrees>
            </Position>
            <AltitudeMeters>124</AltitudeMeters>
            <DistanceMeters>NAN</DistanceMeters>
          </Trackpoint>
          <Trackpoint>
            <Time>2020-05-25T05:16:03.000Z</Time>
            <Position>
              <LatitudeDegrees>38.1178258359432220458984375</LatitudeDegrees>
              <LongitudeDegrees>-1.10362348146736621856689453125</LongitudeDegrees>
            </Position>
            <AltitudeMeters>124</AltitudeMeters>
            <DistanceMeters>NAN</DistanceMeters>
          </Trackpoint>
          <Trackpoint>
            <Time>2020-05-25T05:16:04.000Z</Time>
            <Position>
              <LatitudeDegrees>38.11789951287209987640380859375</LatitudeDegrees>
              <LongitudeDegrees>-1.103675365447998046875</LongitudeDegrees>
            </Position>
            <AltitudeMeters>123.8000030517578125</AltitudeMeters>
            <DistanceMeters>NAN</DistanceMeters>
          </Trackpoint>
          <Trackpoint>
            <Time>2020-05-25T05:16:05.000Z</Time>
            <Position>
              <LatitudeDegrees>38.11797201633453369140625</LatitudeDegrees>
              <LongitudeDegrees>-1.10372624360024929046630859375</LongitudeDegrees>
            </Position>
            <AltitudeMeters>123.40000152587890625</AltitudeMeters>
            <DistanceMeters>NAN</DistanceMeters>
          </Trackpoint>
          <Trackpoint>
            <Time>2020-05-25T05:16:06.000Z</Time>
            <Position>
              <LatitudeDegrees>38.11804418452084064483642578125</LatitudeDegrees>
              <LongitudeDegrees>-1.10377661883831024169921875</LongitudeDegrees>
            </Position>
            <AltitudeMeters>123.40000152587890625</AltitudeMeters>
            <DistanceMeters>NAN</DistanceMeters>
          </Trackpoint>
          <Trackpoint>
            <Time>2020-05-25T05:16:07.000Z</Time>
            <Position>
              <LatitudeDegrees>38.1181156821548938751220703125</LatitudeDegrees>
              <LongitudeDegrees>-1.1038269102573394775390625</LongitudeDegrees>
            </Position>
            <AltitudeMeters>123.40000152587890625</AltitudeMeters>
            <DistanceMeters>NAN</DistanceMeters>
          </Trackpoint>
          <Trackpoint>
            <Time>2020-05-25T05:16:08.000Z</Time>
            <Position>
              <LatitudeDegrees>38.1181870959699153900146484375</LatitudeDegrees>
              <LongitudeDegrees>-1.1038770340383052825927734375</LongitudeDegrees>
            </Position>
            <AltitudeMeters>123.1999969482421875</AltitudeMeters>
            <DistanceMeters>NAN</DistanceMeters>
          </Trackpoint>
          <Trackpoint>
            <Time>2020-05-25T05:16:09.000Z</Time>
            <Position>
              <LatitudeDegrees>38.1182581745088100433349609375</LatitudeDegrees>
              <LongitudeDegrees>-1.10392690636217594146728515625</LongitudeDegrees>
            </Position>
            <AltitudeMeters>123</AltitudeMeters>
            <DistanceMeters>NAN</DistanceMeters>
          </Trackpoint>
          <Trackpoint>
            <Time>2020-05-25T05:16:10.000Z</Time>
            <Position>
              <LatitudeDegrees>38.1183285824954509735107421875</LatitudeDegrees>
              <LongitudeDegrees>-1.1039769463241100311279296875</LongitudeDegrees>
            </Position>
            <AltitudeMeters>122.8000030517578125</AltitudeMeters>
            <DistanceMeters>NAN</DistanceMeters>
          </Trackpoint>
          <Trackpoint>
            <Time>2020-05-25T05:16:11.000Z</Time>
            <Position>
              <LatitudeDegrees>38.11839823611080646514892578125</LatitudeDegrees>
              <LongitudeDegrees>-1.10402614809572696685791015625</LongitudeDegrees>
            </Position>
            <AltitudeMeters>122.8000030517578125</AltitudeMeters>
            <DistanceMeters>NAN</DistanceMeters>
          </Trackpoint>
          <Trackpoint>
            <Time>2020-05-25T05:16:12.000Z</Time>
            <Position>
              <LatitudeDegrees>38.11846747063100337982177734375</LatitudeDegrees>
              <LongitudeDegrees>-1.104074008762836456298828125</LongitudeDegrees>
            </Position>
            <AltitudeMeters>122.8000030517578125</AltitudeMeters>
            <DistanceMeters>NAN</DistanceMeters>
          </Trackpoint>
          <Trackpoint>
            <Time>2020-05-25T05:16:13.000Z</Time>
            <Position>
              <LatitudeDegrees>38.11853636987507343292236328125</LatitudeDegrees>
              <LongitudeDegrees>-1.10412153415381908416748046875</LongitudeDegrees>
            </Position>
            <AltitudeMeters>122.59999847412109375</AltitudeMeters>
            <DistanceMeters>NAN</DistanceMeters>
          </Trackpoint>
          <Trackpoint>
            <Time>2020-05-25T05:16:14.000Z</Time>
            <Position>
              <LatitudeDegrees>38.11860543675720691680908203125</LatitudeDegrees>
              <LongitudeDegrees>-1.10416956245899200439453125</LongitudeDegrees>
            </Position>
            <AltitudeMeters>122.59999847412109375</AltitudeMeters>
            <DistanceMeters>NAN</DistanceMeters>
          </Trackpoint>
          <Trackpoint>
            <Time>2020-05-25T05:16:15.000Z</Time>
            <Position>
              <LatitudeDegrees>38.11867483891546726226806640625</LatitudeDegrees>
              <LongitudeDegrees>-1.1042176745831966400146484375</LongitudeDegrees>
            </Position>
            <AltitudeMeters>122.59999847412109375</AltitudeMeters>
            <DistanceMeters>NAN</DistanceMeters>
          </Trackpoint>
          <Trackpoint>
            <Time>2020-05-25T05:16:16.000Z</Time>
            <Position>
              <LatitudeDegrees>38.1187439896166324615478515625</LatitudeDegrees>
              <LongitudeDegrees>-1.10426612198352813720703125</LongitudeDegrees>
            </Position>
            <AltitudeMeters>122.59999847412109375</AltitudeMeters>
            <DistanceMeters>NAN</DistanceMeters>
          </Trackpoint>
          <Trackpoint>
            <Time>2020-05-25T05:16:17.000Z</Time>
            <Position>
              <LatitudeDegrees>38.1188133917748928070068359375</LatitudeDegrees>
              <LongitudeDegrees>-1.1043142341077327728271484375</LongitudeDegrees>
            </Position>
            <AltitudeMeters>122.40000152587890625</AltitudeMeters>
            <DistanceMeters>NAN</DistanceMeters>
          </Trackpoint>
          <Trackpoint>
            <Time>2020-05-25T05:16:18.000Z</Time>
            <Position>
              <LatitudeDegrees>38.11888338066637516021728515625</LatitudeDegrees>
              <LongitudeDegrees>-1.10436058603227138519287109375</LongitudeDegrees>
            </Position>
            <AltitudeMeters>122.40000152587890625</AltitudeMeters>
            <DistanceMeters>NAN</DistanceMeters>
          </Trackpoint>
          <Trackpoint>
            <Time>2020-05-25T05:16:19.000Z</Time>
            <Position>
              <LatitudeDegrees>38.11895395629107952117919921875</LatitudeDegrees>
              <LongitudeDegrees>-1.10440769232809543609619140625</LongitudeDegrees>
            </Position>
            <AltitudeMeters>122.1999969482421875</AltitudeMeters>
            <DistanceMeters>NAN</DistanceMeters>
          </Trackpoint>
          <Trackpoint>
            <Time>2020-05-25T05:16:20.000Z</Time>
            <Position>
              <LatitudeDegrees>38.1190246157348155975341796875</LatitudeDegrees>
              <LongitudeDegrees>-1.10445597209036350250244140625</LongitudeDegrees>
            </Position>
            <AltitudeMeters>122.1999969482421875</AltitudeMeters>
            <DistanceMeters>NAN</DistanceMeters>
          </Trackpoint>
          <Trackpoint>
            <Time>2020-05-25T05:16:21.000Z</Time>
            <Position>
              <LatitudeDegrees>38.11909510754048824310302734375</LatitudeDegrees>
              <LongitudeDegrees>-1.104504168033599853515625</LongitudeDegrees>
            </Position>
            <AltitudeMeters>122</AltitudeMeters>
            <DistanceMeters>NAN</DistanceMeters>
          </Trackpoint>
          <Trackpoint>
            <Time>2020-05-25T05:16:22.000Z</Time>
            <Position>
              <LatitudeDegrees>38.11916484497487545013427734375</LatitudeDegrees>
              <LongitudeDegrees>-1.10455186106264591217041015625</LongitudeDegrees>
            </Position>
            <AltitudeMeters>122</AltitudeMeters>
            <DistanceMeters>NAN</DistanceMeters>
          </Trackpoint>
          <Trackpoint>
            <Time>2020-05-25T05:16:23.000Z</Time>
            <Position>
              <LatitudeDegrees>38.11923475004732608795166015625</LatitudeDegrees>
              <LongitudeDegrees>-1.10459812916815280914306640625</LongitudeDegrees>
            </Position>
            <AltitudeMeters>122</AltitudeMeters>
            <DistanceMeters>NAN</DistanceMeters>
          </Trackpoint>
          <Trackpoint>
            <Time>2020-05-25T05:16:24.000Z</Time>
            <Position>
              <LatitudeDegrees>38.11930364929139614105224609375</LatitudeDegrees>
              <LongitudeDegrees>-1.10464456491172313690185546875</LongitudeDegrees>
            </Position>
            <AltitudeMeters>121.8000030517578125</AltitudeMeters>
            <DistanceMeters>NAN</DistanceMeters>
          </Trackpoint>
          <Trackpoint>
            <Time>2020-05-25T05:16:25.000Z</Time>
            <Position>
              <LatitudeDegrees>38.1193722970783710479736328125</LatitudeDegrees>
              <LongitudeDegrees>-1.10469125211238861083984375</LongitudeDegrees>
            </Position>
            <AltitudeMeters>121.8000030517578125</AltitudeMeters>
            <DistanceMeters>NAN</DistanceMeters>
          </Trackpoint>
          <Trackpoint>
            <Time>2020-05-25T05:16:26.000Z</Time>
            <Position>
              <LatitudeDegrees>38.1194405257701873779296875</LatitudeDegrees>
              <LongitudeDegrees>-1.10473819077014923095703125</LongitudeDegrees>
            </Position>
            <AltitudeMeters>121.59999847412109375</AltitudeMeters>
            <DistanceMeters>NAN</DistanceMeters>
          </Trackpoint>
          <Trackpoint>
            <Time>2020-05-25T05:16:27.000Z</Time>
            <Position>
              <LatitudeDegrees>38.1195075809955596923828125</LatitudeDegrees>
              <LongitudeDegrees>-1.10478579998016357421875</LongitudeDegrees>
            </Position>
            <AltitudeMeters>121.40000152587890625</AltitudeMeters>
            <DistanceMeters>NAN</DistanceMeters>
          </Trackpoint>
          <Trackpoint>
            <Time>2020-05-25T05:16:28.000Z</Time>
            <Position>
              <LatitudeDegrees>38.119574300944805145263671875</LatitudeDegrees>
              <LongitudeDegrees>-1.1048319004476070404052734375</LongitudeDegrees>
            </Position>
            <AltitudeMeters>121.1999969482421875</AltitudeMeters>
            <DistanceMeters>NAN</DistanceMeters>
          </Trackpoint>
          <Trackpoint>
            <Time>2020-05-25T05:16:29.000Z</Time>
            <Position>
              <LatitudeDegrees>38.1196408532559871673583984375</LatitudeDegrees>
              <LongitudeDegrees>-1.1048768274486064910888671875</LongitudeDegrees>
            </Position>
            <AltitudeMeters>121.1999969482421875</AltitudeMeters>
            <DistanceMeters>NAN</DistanceMeters>
          </Trackpoint>
          <Trackpoint>
            <Time>2020-05-25T05:16:30.000Z</Time>
            <Position>
              <LatitudeDegrees>38.11970698647201061248779296875</LatitudeDegrees>
              <LongitudeDegrees>-1.10492183826863765716552734375</LongitudeDegrees>
            </Position>
            <AltitudeMeters>121</AltitudeMeters>
            <DistanceMeters>NAN</DistanceMeters>
          </Trackpoint>
          <Trackpoint>
            <Time>2020-05-25T05:16:31.000Z</Time>
            <Position>
              <LatitudeDegrees>38.1197731196880340576171875</LatitudeDegrees>
              <LongitudeDegrees>-1.10496642999351024627685546875</LongitudeDegrees>
            </Position>
            <AltitudeMeters>121</AltitudeMeters>
            <DistanceMeters>NAN</DistanceMeters>
          </Trackpoint>
          <Trackpoint>
            <Time>2020-05-25T05:16:32.000Z</Time>
            <Position>
              <LatitudeDegrees>38.11983841471374034881591796875</LatitudeDegrees>
              <LongitudeDegrees>-1.10501035116612911224365234375</LongitudeDegrees>
            </Position>
            <AltitudeMeters>121</AltitudeMeters>
            <DistanceMeters>NAN</DistanceMeters>
          </Trackpoint>
          <Trackpoint>
            <Time>2020-05-25T05:16:33.000Z</Time>
            <Position>
              <LatitudeDegrees>38.1199033744633197784423828125</LatitudeDegrees>
              <LongitudeDegrees>-1.10505402088165283203125</LongitudeDegrees>
            </Position>
            <AltitudeMeters>121</AltitudeMeters>
            <DistanceMeters>NAN</DistanceMeters>
          </Trackpoint>
          <Trackpoint>
            <Time>2020-05-25T05:16:34.000Z</Time>
            <Position>
              <LatitudeDegrees>38.11996783129870891571044921875</LatitudeDegrees>
              <LongitudeDegrees>-1.1050982773303985595703125</LongitudeDegrees>
            </Position>
            <AltitudeMeters>120.8000030517578125</AltitudeMeters>
            <DistanceMeters>NAN</DistanceMeters>
          </Trackpoint>
          <Trackpoint>
            <Time>2020-05-25T05:16:35.000Z</Time>
            <Position>
              <LatitudeDegrees>38.12003195285797119140625</LatitudeDegrees>
              <LongitudeDegrees>-1.1051433719694614410400390625</LongitudeDegrees>
            </Position>
            <AltitudeMeters>120.8000030517578125</AltitudeMeters>
            <DistanceMeters>NAN</DistanceMeters>
          </Trackpoint>
          <Trackpoint>
            <Time>2020-05-25T05:16:36.000Z</Time>
            <Position>
              <LatitudeDegrees>38.120095990598201751708984375</LatitudeDegrees>
              <LongitudeDegrees>-1.105187796056270599365234375</LongitudeDegrees>
            </Position>
            <AltitudeMeters>120.59999847412109375</AltitudeMeters>
            <DistanceMeters>NAN</DistanceMeters>
          </Trackpoint>
          <Trackpoint>
            <Time>2020-05-25T05:16:37.000Z</Time>
            <Position>
              <LatitudeDegrees>38.1201605312526226043701171875</LatitudeDegrees>
              <LongitudeDegrees>-1.10523230396211147308349609375</LongitudeDegrees>
            </Position>
            <AltitudeMeters>120.59999847412109375</AltitudeMeters>
            <DistanceMeters>NAN</DistanceMeters>
          </Trackpoint>
          <Trackpoint>
            <Time>2020-05-25T05:16:38.000Z</Time>
            <Position>
              <LatitudeDegrees>38.12022574245929718017578125</LatitudeDegrees>
              <LongitudeDegrees>-1.1052779853343963623046875</LongitudeDegrees>
            </Position>
            <AltitudeMeters>120.40000152587890625</AltitudeMeters>
            <DistanceMeters>NAN</DistanceMeters>
          </Trackpoint>
          <Trackpoint>
            <Time>2020-05-25T05:16:39.000Z</Time>
            <Position>
              <LatitudeDegrees>38.1202909536659717559814453125</LatitudeDegrees>
              <LongitudeDegrees>-1.1053240858018398284912109375</LongitudeDegrees>
            </Position>
            <AltitudeMeters>120.40000152587890625</AltitudeMeters>
            <DistanceMeters>NAN</DistanceMeters>
          </Trackpoint>
          <Trackpoint>
            <Time>2020-05-25T05:16:40.000Z</Time>
            <Position>
              <LatitudeDegrees>38.12035574577748775482177734375</LatitudeDegrees>
              <LongitudeDegrees>-1.1053710244596004486083984375</LongitudeDegrees>
            </Position>
            <AltitudeMeters>120.40000152587890625</AltitudeMeters>
            <DistanceMeters>NAN</DistanceMeters>
          </Trackpoint>
          <Trackpoint>
            <Time>2020-05-25T05:16:41.000Z</Time>
            <Position>
              <LatitudeDegrees>38.120419867336750030517578125</LatitudeDegrees>
              <LongitudeDegrees>-1.1054186336696147918701171875</LongitudeDegrees>
            </Position>
            <AltitudeMeters>120.40000152587890625</AltitudeMeters>
            <DistanceMeters>NAN</DistanceMeters>
          </Trackpoint>
          <Trackpoint>
            <Time>2020-05-25T05:16:42.000Z</Time>
            <Position>
              <LatitudeDegrees>38.1204834021627902984619140625</LatitudeDegrees>
              <LongitudeDegrees>-1.105468757450580596923828125</LongitudeDegrees>
            </Position>
            <AltitudeMeters>120.40000152587890625</AltitudeMeters>
            <DistanceMeters>NAN</DistanceMeters>
          </Trackpoint>
          <Trackpoint>
            <Time>2020-05-25T05:16:43.000Z</Time>
            <Position>
              <LatitudeDegrees>38.12054567970335483551025390625</LatitudeDegrees>
              <LongitudeDegrees>-1.1055215634405612945556640625</LongitudeDegrees>
            </Position>
            <AltitudeMeters>120.40000152587890625</AltitudeMeters>
            <DistanceMeters>NAN</DistanceMeters>
          </Trackpoint>
          <Trackpoint>
            <Time>2020-05-25T05:16:44.000Z</Time>
            <Position>
              <LatitudeDegrees>38.12060619704425334930419921875</LatitudeDegrees>
              <LongitudeDegrees>-1.1055762134492397308349609375</LongitudeDegrees>
            </Position>
            <AltitudeMeters>120.1999969482421875</AltitudeMeters>
            <DistanceMeters>NAN</DistanceMeters>
          </Trackpoint>
          <Trackpoint>
            <Time>2020-05-25T05:16:45.000Z</Time>
            <Position>
              <LatitudeDegrees>38.12066495418548583984375</LatitudeDegrees>
              <LongitudeDegrees>-1.1056342162191867828369140625</LongitudeDegrees>
            </Position>
            <AltitudeMeters>120.1999969482421875</AltitudeMeters>
            <DistanceMeters>NAN</DistanceMeters>
          </Trackpoint>
          <Trackpoint>
            <Time>2020-05-25T05:16:46.000Z</Time>
            <Position>
              <LatitudeDegrees>38.1207224540412425994873046875</LatitudeDegrees>
              <LongitudeDegrees>-1.1056965775787830352783203125</LongitudeDegrees>
            </Position>
            <AltitudeMeters>120.1999969482421875</AltitudeMeters>
            <DistanceMeters>NAN</DistanceMeters>
          </Trackpoint>
          <Trackpoint>
            <Time>2020-05-25T05:16:47.000Z</Time>
            <Position>
              <LatitudeDegrees>38.12077852897346019744873046875</LatitudeDegrees>
              <LongitudeDegrees>-1.10576187260448932647705078125</LongitudeDegrees>
            </Position>
            <AltitudeMeters>120.1999969482421875</AltitudeMeters>
            <DistanceMeters>NAN</DistanceMeters>
          </Trackpoint>
          <Trackpoint>
            <Time>2020-05-25T05:16:48.000Z</Time>
            <Position>
              <LatitudeDegrees>38.1208330951631069183349609375</LatitudeDegrees>
              <LongitudeDegrees>-1.10582876019179821014404296875</LongitudeDegrees>
            </Position>
            <AltitudeMeters>120.1999969482421875</AltitudeMeters>
            <DistanceMeters>NAN</DistanceMeters>
          </Trackpoint>
          <Trackpoint>
            <Time>2020-05-25T05:16:49.000Z</Time>
            <Position>
              <LatitudeDegrees>38.12088556587696075439453125</LatitudeDegrees>
              <LongitudeDegrees>-1.1058975756168365478515625</LongitudeDegrees>
            </Position>
            <AltitudeMeters>120.1999969482421875</AltitudeMeters>
            <DistanceMeters>NAN</DistanceMeters>
          </Trackpoint>
          <Trackpoint>
            <Time>2020-05-25T05:16:50.000Z</Time>
            <Position>
              <LatitudeDegrees>38.12093661166727542877197265625</LatitudeDegrees>
              <LongitudeDegrees>-1.10596840269863605499267578125</LongitudeDegrees>
            </Position>
            <AltitudeMeters>120.1999969482421875</AltitudeMeters>
            <DistanceMeters>NAN</DistanceMeters>
          </Trackpoint>
          <Trackpoint>
            <Time>2020-05-25T05:16:51.000Z</Time>
            <Position>
              <LatitudeDegrees>38.120986483991146087646484375</LatitudeDegrees>
              <LongitudeDegrees>-1.1060399003326892852783203125</LongitudeDegrees>
            </Position>
            <AltitudeMeters>120.1999969482421875</AltitudeMeters>
            <DistanceMeters>NAN</DistanceMeters>
          </Trackpoint>
          <Trackpoint>
            <Time>2020-05-25T05:16:52.000Z</Time>
            <Position>
              <LatitudeDegrees>38.12103501521050930023193359375</LatitudeDegrees>
              <LongitudeDegrees>-1.1061108112335205078125</LongitudeDegrees>
            </Position>
            <AltitudeMeters>120.1999969482421875</AltitudeMeters>
            <DistanceMeters>NAN</DistanceMeters>
          </Trackpoint>
          <Trackpoint>
            <Time>2020-05-25T05:16:53.000Z</Time>
            <Position>
              <LatitudeDegrees>38.12108270823955535888671875</LatitudeDegrees>
              <LongitudeDegrees>-1.1061807163059711456298828125</LongitudeDegrees>
            </Position>
            <AltitudeMeters>120.1999969482421875</AltitudeMeters>
            <DistanceMeters>NAN</DistanceMeters>
          </Trackpoint>
          <Trackpoint>
            <Time>2020-05-25T05:16:54.000Z</Time>
            <Position>
              <LatitudeDegrees>38.12113040126860141754150390625</LatitudeDegrees>
              <LongitudeDegrees>-1.10625020228326320648193359375</LongitudeDegrees>
            </Position>
            <AltitudeMeters>120.1999969482421875</AltitudeMeters>
            <DistanceMeters>NAN</DistanceMeters>
          </Trackpoint>
          <Trackpoint>
            <Time>2020-05-25T05:16:55.000Z</Time>
            <Position>
              <LatitudeDegrees>38.1211770884692668914794921875</LatitudeDegrees>
              <LongitudeDegrees>-1.10631893388926982879638671875</LongitudeDegrees>
            </Position>
            <AltitudeMeters>120</AltitudeMeters>
            <DistanceMeters>NAN</DistanceMeters>
          </Trackpoint>
          <Trackpoint>
            <Time>2020-05-25T05:16:56.000Z</Time>
            <Position>
              <LatitudeDegrees>38.12122360803186893463134765625</LatitudeDegrees>
              <LongitudeDegrees>-1.10638565383851528167724609375</LongitudeDegrees>
            </Position>
            <AltitudeMeters>120.1999969482421875</AltitudeMeters>
            <DistanceMeters>NAN</DistanceMeters>
          </Trackpoint>
          <Trackpoint>
            <Time>2020-05-25T05:16:57.000Z</Time>
            <Position>
              <LatitudeDegrees>38.121269457042217254638671875</LatitudeDegrees>
              <LongitudeDegrees>-1.1064509488642215728759765625</LongitudeDegrees>
            </Position>
            <AltitudeMeters>120.1999969482421875</AltitudeMeters>
            <DistanceMeters>NAN</DistanceMeters>
          </Trackpoint>
          <Trackpoint>
            <Time>2020-05-25T05:16:58.000Z</Time>
            <Position>
              <LatitudeDegrees>38.1213145516812801361083984375</LatitudeDegrees>
              <LongitudeDegrees>-1.10651590861380100250244140625</LongitudeDegrees>
            </Position>
            <AltitudeMeters>120.1999969482421875</AltitudeMeters>
            <DistanceMeters>NAN</DistanceMeters>
          </Trackpoint>
          <Trackpoint>
            <Time>2020-05-25T05:16:59.000Z</Time>
            <Position>
              <LatitudeDegrees>38.12135905958712100982666015625</LatitudeDegrees>
              <LongitudeDegrees>-1.10658044926822185516357421875</LongitudeDegrees>
            </Position>
            <AltitudeMeters>120.1999969482421875</AltitudeMeters>
            <DistanceMeters>NAN</DistanceMeters>
          </Trackpoint>
          <Trackpoint>
            <Time>2020-05-25T05:17:00.000Z</Time>
            <Position>
              <LatitudeDegrees>38.12140348367393016815185546875</LatitudeDegrees>
              <LongitudeDegrees>-1.10664431937038898468017578125</LongitudeDegrees>
            </Position>
            <AltitudeMeters>120.1999969482421875</AltitudeMeters>
            <DistanceMeters>NAN</DistanceMeters>
          </Trackpoint>
          <Trackpoint>
            <Time>2020-05-25T05:17:01.000Z</Time>
            <Position>
              <LatitudeDegrees>38.12144790776073932647705078125</LatitudeDegrees>
              <LongitudeDegrees>-1.10670785419642925262451171875</LongitudeDegrees>
            </Position>
            <AltitudeMeters>120.1999969482421875</AltitudeMeters>
            <DistanceMeters>NAN</DistanceMeters>
          </Trackpoint>
          <Trackpoint>
            <Time>2020-05-25T05:17:02.000Z</Time>
            <Position>
              <LatitudeDegrees>38.12149182893335819244384765625</LatitudeDegrees>
              <LongitudeDegrees>-1.10677130520343780517578125</LongitudeDegrees>
            </Position>
            <AltitudeMeters>120.1999969482421875</AltitudeMeters>
            <DistanceMeters>NAN</DistanceMeters>
          </Trackpoint>
          <Trackpoint>
            <Time>2020-05-25T05:17:03.000Z</Time>
            <Position>
              <LatitudeDegrees>38.12153491191565990447998046875</LatitudeDegrees>
              <LongitudeDegrees>-1.1068334989249706268310546875</LongitudeDegrees>
            </Position>
            <AltitudeMeters>120.1999969482421875</AltitudeMeters>
            <DistanceMeters>NAN</DistanceMeters>
          </Trackpoint>
          <Trackpoint>
            <Time>2020-05-25T05:17:04.000Z</Time>
            <Position>
              <LatitudeDegrees>38.1215784139931201934814453125</LatitudeDegrees>
              <LongitudeDegrees>-1.1068951897323131561279296875</LongitudeDegrees>
            </Position>
            <AltitudeMeters>120.1999969482421875</AltitudeMeters>
            <DistanceMeters>NAN</DistanceMeters>
          </Trackpoint>
          <Trackpoint>
            <Time>2020-05-25T05:17:05.000Z</Time>
            <Position>
              <LatitudeDegrees>38.1216216646134853363037109375</LatitudeDegrees>
              <LongitudeDegrees>-1.10695729963481426239013671875</LongitudeDegrees>
            </Position>
            <AltitudeMeters>120.40000152587890625</AltitudeMeters>
            <DistanceMeters>NAN</DistanceMeters>
          </Trackpoint>
          <Trackpoint>
            <Time>2020-05-25T05:17:06.000Z</Time>
            <Position>
              <LatitudeDegrees>38.12166416086256504058837890625</LatitudeDegrees>
              <LongitudeDegrees>-1.10701940953731536865234375</LongitudeDegrees>
            </Position>
            <AltitudeMeters>120.40000152587890625</AltitudeMeters>
            <DistanceMeters>NAN</DistanceMeters>
          </Trackpoint>
          <Trackpoint>
            <Time>2020-05-25T05:17:07.000Z</Time>
            <Position>
              <LatitudeDegrees>38.1217064894735813140869140625</LatitudeDegrees>
              <LongitudeDegrees>-1.10708135180175304412841796875</LongitudeDegrees>
            </Position>
            <AltitudeMeters>120.59999847412109375</AltitudeMeters>
            <DistanceMeters>NAN</DistanceMeters>
          </Trackpoint>
          <Trackpoint>
            <Time>2020-05-25T05:17:08.000Z</Time>
            <Position>
              <LatitudeDegrees>38.121748231351375579833984375</LatitudeDegrees>
              <LongitudeDegrees>-1.10714337788522243499755859375</LongitudeDegrees>
            </Position>
            <AltitudeMeters>120.59999847412109375</AltitudeMeters>
            <DistanceMeters>NAN</DistanceMeters>
          </Trackpoint>
          <Trackpoint>
            <Time>2020-05-25T05:17:09.000Z</Time>
            <Position>
              <LatitudeDegrees>38.12178947031497955322265625</LatitudeDegrees>
              <LongitudeDegrees>-1.107205487787723541259765625</LongitudeDegrees>
            </Position>
            <AltitudeMeters>120.59999847412109375</AltitudeMeters>
            <DistanceMeters>NAN</DistanceMeters>
          </Trackpoint>
          <Trackpoint>
            <Time>2020-05-25T05:17:10.000Z</Time>
            <Position>
              <LatitudeDegrees>38.12183096073567867279052734375</LatitudeDegrees>
              <LongitudeDegrees>-1.1072690226137638092041015625</LongitudeDegrees>
            </Position>
            <AltitudeMeters>120.8000030517578125</AltitudeMeters>
            <DistanceMeters>NAN</DistanceMeters>
          </Trackpoint>
          <Trackpoint>
            <Time>2020-05-25T05:17:11.000Z</Time>
            <Position>
              <LatitudeDegrees>38.12187253497540950775146484375</LatitudeDegrees>
              <LongitudeDegrees>-1.10733322799205780029296875</LongitudeDegrees>
            </Position>
            <AltitudeMeters>120.8000030517578125</AltitudeMeters>
            <DistanceMeters>NAN</DistanceMeters>
          </Trackpoint>
          <Trackpoint>
            <Time>2020-05-25T05:17:12.000Z</Time>
            <Position>
              <LatitudeDegrees>38.12191377393901348114013671875</LatitudeDegrees>
              <LongitudeDegrees>-1.10739785246551036834716796875</LongitudeDegrees>
            </Position>
            <AltitudeMeters>120.8000030517578125</AltitudeMeters>
            <DistanceMeters>NAN</DistanceMeters>
          </Trackpoint>
          <Trackpoint>
            <Time>2020-05-25T05:17:13.000Z</Time>
            <Position>
              <LatitudeDegrees>38.1219539232552051544189453125</LatitudeDegrees>
              <LongitudeDegrees>-1.107462979853153228759765625</LongitudeDegrees>
            </Position>
            <AltitudeMeters>120.8000030517578125</AltitudeMeters>
            <DistanceMeters>NAN</DistanceMeters>
          </Trackpoint>
          <Trackpoint>
            <Time>2020-05-25T05:17:14.000Z</Time>
            <Position>
              <LatitudeDegrees>38.1219931505620479583740234375</LatitudeDegrees>
              <LongitudeDegrees>-1.10752844251692295074462890625</LongitudeDegrees>
            </Position>
            <AltitudeMeters>121</AltitudeMeters>
            <DistanceMeters>NAN</DistanceMeters>
          </Trackpoint>
          <Trackpoint>
            <Time>2020-05-25T05:17:15.000Z</Time>
            <Position>
              <LatitudeDegrees>38.12203128822147846221923828125</LatitudeDegrees>
              <LongitudeDegrees>-1.1075939051806926727294921875</LongitudeDegrees>
            </Position>
            <AltitudeMeters>121</AltitudeMeters>
            <DistanceMeters>NAN</DistanceMeters>
          </Trackpoint>
          <Trackpoint>
            <Time>2020-05-25T05:17:16.000Z</Time>
            <Position>
              <LatitudeDegrees>38.1220692582428455352783203125</LatitudeDegrees>
              <LongitudeDegrees>-1.1076606251299381256103515625</LongitudeDegrees>
            </Position>
            <AltitudeMeters>121.1999969482421875</AltitudeMeters>
            <DistanceMeters>NAN</DistanceMeters>
          </Trackpoint>
          <Trackpoint>
            <Time>2020-05-25T05:17:17.000Z</Time>
            <Position>
              <LatitudeDegrees>38.12210672535002231597900390625</LatitudeDegrees>
              <LongitudeDegrees>-1.10772742889821529388427734375</LongitudeDegrees>
            </Position>
            <AltitudeMeters>121.1999969482421875</AltitudeMeters>
            <DistanceMeters>NAN</DistanceMeters>
          </Trackpoint>
          <Trackpoint>
            <Time>2020-05-25T05:17:18.000Z</Time>
            <Position>
              <LatitudeDegrees>38.122143857181072235107421875</LatitudeDegrees>
              <LongitudeDegrees>-1.1077930592000484466552734375</LongitudeDegrees>
            </Position>
            <AltitudeMeters>121.40000152587890625</AltitudeMeters>
            <DistanceMeters>NAN</DistanceMeters>
          </Trackpoint>
          <Trackpoint>
            <Time>2020-05-25T05:17:19.000Z</Time>
            <Position>
              <LatitudeDegrees>38.1221817433834075927734375</LatitudeDegrees>
              <LongitudeDegrees>-1.107858605682849884033203125</LongitudeDegrees>
            </Position>
            <AltitudeMeters>121.40000152587890625</AltitudeMeters>
            <DistanceMeters>NAN</DistanceMeters>
          </Trackpoint>
          <Trackpoint>
            <Time>2020-05-25T05:17:20.000Z</Time>
            <Position>
              <LatitudeDegrees>38.1222194619476795196533203125</LatitudeDegrees>
              <LongitudeDegrees>-1.10792423598468303680419921875</LongitudeDegrees>
            </Position>
            <AltitudeMeters>121.40000152587890625</AltitudeMeters>
            <DistanceMeters>NAN</DistanceMeters>
          </Trackpoint>
          <Trackpoint>
            <Time>2020-05-25T05:17:21.000Z</Time>
            <Position>
              <LatitudeDegrees>38.122256509959697723388671875</LatitudeDegrees>
              <LongitudeDegrees>-1.1079896986484527587890625</LongitudeDegrees>
            </Position>
            <AltitudeMeters>121.40000152587890625</AltitudeMeters>
            <DistanceMeters>NAN</DistanceMeters>
          </Trackpoint>
          <Trackpoint>
            <Time>2020-05-25T05:17:22.000Z</Time>
            <Position>
              <LatitudeDegrees>38.12229364179074764251708984375</LatitudeDegrees>
              <LongitudeDegrees>-1.10805474221706390380859375</LongitudeDegrees>
            </Position>
            <AltitudeMeters>121.59999847412109375</AltitudeMeters>
            <DistanceMeters>NAN</DistanceMeters>
          </Trackpoint>
          <Trackpoint>
            <Time>2020-05-25T05:17:23.000Z</Time>
            <Position>
              <LatitudeDegrees>38.12233052216470241546630859375</LatitudeDegrees>
              <LongitudeDegrees>-1.1081196181476116180419921875</LongitudeDegrees>
            </Position>
            <AltitudeMeters>121.59999847412109375</AltitudeMeters>
            <DistanceMeters>NAN</DistanceMeters>
          </Trackpoint>
          <Trackpoint>
            <Time>2020-05-25T05:17:24.000Z</Time>
            <Position>
              <LatitudeDegrees>38.122367821633815765380859375</LatitudeDegrees>
              <LongitudeDegrees>-1.1081846617162227630615234375</LongitudeDegrees>
            </Position>
            <AltitudeMeters>121.59999847412109375</AltitudeMeters>
            <DistanceMeters>NAN</DistanceMeters>
          </Trackpoint>
          <Trackpoint>
            <Time>2020-05-25T05:17:25.000Z</Time>
            <Position>
              <LatitudeDegrees>38.1224048696458339691162109375</LatitudeDegrees>
              <LongitudeDegrees>-1.10825029201805591583251953125</LongitudeDegrees>
            </Position>
            <AltitudeMeters>121.8000030517578125</AltitudeMeters>
            <DistanceMeters>NAN</DistanceMeters>
          </Trackpoint>
          <Trackpoint>
            <Time>2020-05-25T05:17:26.000Z</Time>
            <Position>
              <LatitudeDegrees>38.122441582381725311279296875</LatitudeDegrees>
              <LongitudeDegrees>-1.10831617377698421478271484375</LongitudeDegrees>
            </Position>
            <AltitudeMeters>121.8000030517578125</AltitudeMeters>
            <DistanceMeters>NAN</DistanceMeters>
          </Trackpoint>
          <Trackpoint>
            <Time>2020-05-25T05:17:27.000Z</Time>
            <Position>
              <LatitudeDegrees>38.12247854657471179962158203125</LatitudeDegrees>
              <LongitudeDegrees>-1.10838306136429309844970703125</LongitudeDegrees>
            </Position>
            <AltitudeMeters>121.8000030517578125</AltitudeMeters>
            <DistanceMeters>NAN</DistanceMeters>
          </Trackpoint>
          <Trackpoint>
            <Time>2020-05-25T05:17:28.000Z</Time>
            <Position>
              <LatitudeDegrees>38.12251626513898372650146484375</LatitudeDegrees>
              <LongitudeDegrees>-1.1084508709609508514404296875</LongitudeDegrees>
            </Position>
            <AltitudeMeters>121.8000030517578125</AltitudeMeters>
            <DistanceMeters>NAN</DistanceMeters>
          </Trackpoint>
          <Trackpoint>
            <Time>2020-05-25T05:17:29.000Z</Time>
            <Position>
              <LatitudeDegrees>38.12255465425550937652587890625</LatitudeDegrees>
              <LongitudeDegrees>-1.10851851291954517364501953125</LongitudeDegrees>
            </Position>
            <AltitudeMeters>122</AltitudeMeters>
            <DistanceMeters>NAN</DistanceMeters>
          </Trackpoint>
          <Trackpoint>
            <Time>2020-05-25T05:17:30.000Z</Time>
            <Position>
              <LatitudeDegrees>38.1225939653813838958740234375</LatitudeDegrees>
              <LongitudeDegrees>-1.108586490154266357421875</LongitudeDegrees>
            </Position>
            <AltitudeMeters>122</AltitudeMeters>
            <DistanceMeters>NAN</DistanceMeters>
          </Trackpoint>
          <Trackpoint>
            <Time>2020-05-25T05:17:31.000Z</Time>
            <Position>
              <LatitudeDegrees>38.12263294123113155364990234375</LatitudeDegrees>
              <LongitudeDegrees>-1.1086547188460826873779296875</LongitudeDegrees>
            </Position>
            <AltitudeMeters>122</AltitudeMeters>
            <DistanceMeters>NAN</DistanceMeters>
          </Trackpoint>
          <Trackpoint>
            <Time>2020-05-25T05:17:32.000Z</Time>
            <Position>
              <LatitudeDegrees>38.1226714141666889190673828125</LatitudeDegrees>
              <LongitudeDegrees>-1.10872303135693073272705078125</LongitudeDegrees>
            </Position>
            <AltitudeMeters>122.1999969482421875</AltitudeMeters>
            <DistanceMeters>NAN</DistanceMeters>
          </Trackpoint>
          <Trackpoint>
            <Time>2020-05-25T05:17:33.000Z</Time>
            <Position>
              <LatitudeDegrees>38.12271089293062686920166015625</LatitudeDegrees>
              <LongitudeDegrees>-1.10879159532487392425537109375</LongitudeDegrees>
            </Position>
            <AltitudeMeters>122.40000152587890625</AltitudeMeters>
            <DistanceMeters>NAN</DistanceMeters>
          </Trackpoint>
          <Trackpoint>
            <Time>2020-05-25T05:17:34.000Z</Time>
            <Position>
              <LatitudeDegrees>38.12274995259940624237060546875</LatitudeDegrees>
              <LongitudeDegrees>-1.10886082984507083892822265625</LongitudeDegrees>
            </Position>
            <AltitudeMeters>122.40000152587890625</AltitudeMeters>
            <DistanceMeters>NAN</DistanceMeters>
          </Trackpoint>
          <Trackpoint>
            <Time>2020-05-25T05:17:35.000Z</Time>
            <Position>
              <LatitudeDegrees>38.122789599001407623291015625</LatitudeDegrees>
              <LongitudeDegrees>-1.10893123783171176910400390625</LongitudeDegrees>
            </Position>
            <AltitudeMeters>122.59999847412109375</AltitudeMeters>
            <DistanceMeters>NAN</DistanceMeters>
          </Trackpoint>
          <Trackpoint>
            <Time>2020-05-25T05:17:36.000Z</Time>
            <Position>
              <LatitudeDegrees>38.12282974831759929656982421875</LatitudeDegrees>
              <LongitudeDegrees>-1.10900156199932098388671875</LongitudeDegrees>
            </Position>
            <AltitudeMeters>122.8000030517578125</AltitudeMeters>
            <DistanceMeters>NAN</DistanceMeters>
          </Trackpoint>
          <Trackpoint>
            <Time>2020-05-25T05:17:37.000Z</Time>
            <Position>
              <LatitudeDegrees>38.12287031672894954681396484375</LatitudeDegrees>
              <LongitudeDegrees>-1.1090719699859619140625</LongitudeDegrees>
            </Position>
            <AltitudeMeters>122.8000030517578125</AltitudeMeters>
            <DistanceMeters>NAN</DistanceMeters>
          </Trackpoint>
          <Trackpoint>
            <Time>2020-05-25T05:17:38.000Z</Time>
            <Position>
              <LatitudeDegrees>38.12291138805449008941650390625</LatitudeDegrees>
              <LongitudeDegrees>-1.10914296470582485198974609375</LongitudeDegrees>
            </Position>
            <AltitudeMeters>123</AltitudeMeters>
            <DistanceMeters>NAN</DistanceMeters>
          </Trackpoint>
          <Trackpoint>
            <Time>2020-05-25T05:17:39.000Z</Time>
            <Position>
              <LatitudeDegrees>38.1229530461132526397705078125</LatitudeDegrees>
              <LongitudeDegrees>-1.10921345651149749755859375</LongitudeDegrees>
            </Position>
            <AltitudeMeters>123</AltitudeMeters>
            <DistanceMeters>NAN</DistanceMeters>
          </Trackpoint>
          <Trackpoint>
            <Time>2020-05-25T05:17:40.000Z</Time>
            <Position>
              <LatitudeDegrees>38.1229949556291103363037109375</LatitudeDegrees>
              <LongitudeDegrees>-1.10928528942167758941650390625</LongitudeDegrees>
            </Position>
            <AltitudeMeters>123</AltitudeMeters>
            <DistanceMeters>NAN</DistanceMeters>
          </Trackpoint>
          <Trackpoint>
            <Time>2020-05-25T05:17:41.000Z</Time>
            <Position>
              <LatitudeDegrees>38.12303669750690460205078125</LatitudeDegrees>
              <LongitudeDegrees>-1.109357960522174835205078125</LongitudeDegrees>
            </Position>
            <AltitudeMeters>123</AltitudeMeters>
            <DistanceMeters>NAN</DistanceMeters>
          </Trackpoint>
          <Trackpoint>
            <Time>2020-05-25T05:17:42.000Z</Time>
            <Position>
              <LatitudeDegrees>38.1230781041085720062255859375</LatitudeDegrees>
              <LongitudeDegrees>-1.10943029634654521942138671875</LongitudeDegrees>
            </Position>
            <AltitudeMeters>123</AltitudeMeters>
            <DistanceMeters>NAN</DistanceMeters>
          </Trackpoint>
          <Trackpoint>
            <Time>2020-05-25T05:17:43.000Z</Time>
            <Position>
              <LatitudeDegrees>38.1231193430721759796142578125</LatitudeDegrees>
              <LongitudeDegrees>-1.10950204543769359588623046875</LongitudeDegrees>
            </Position>
            <AltitudeMeters>123.1999969482421875</AltitudeMeters>
            <DistanceMeters>NAN</DistanceMeters>
          </Trackpoint>
          <Trackpoint>
            <Time>2020-05-25T05:17:44.000Z</Time>
            <Position>
              <LatitudeDegrees>38.1231602467596530914306640625</LatitudeDegrees>
              <LongitudeDegrees>-1.1095733754336833953857421875</LongitudeDegrees>
            </Position>
            <AltitudeMeters>123.1999969482421875</AltitudeMeters>
            <DistanceMeters>NAN</DistanceMeters>
          </Trackpoint>
          <Trackpoint>
            <Time>2020-05-25T05:17:45.000Z</Time>
            <Position>
              <LatitudeDegrees>38.12320106662809848785400390625</LatitudeDegrees>
              <LongitudeDegrees>-1.1096447892487049102783203125</LongitudeDegrees>
            </Position>
            <AltitudeMeters>123.1999969482421875</AltitudeMeters>
            <DistanceMeters>NAN</DistanceMeters>
          </Trackpoint>
          <Trackpoint>
            <Time>2020-05-25T05:17:46.000Z</Time>
            <Position>
              <LatitudeDegrees>38.12324146740138530731201171875</LatitudeDegrees>
              <LongitudeDegrees>-1.10971544869244098663330078125</LongitudeDegrees>
            </Position>
            <AltitudeMeters>123.1999969482421875</AltitudeMeters>
            <DistanceMeters>NAN</DistanceMeters>
          </Trackpoint>
          <Trackpoint>
            <Time>2020-05-25T05:17:47.000Z</Time>
            <Position>
              <LatitudeDegrees>38.1232819519937038421630859375</LatitudeDegrees>
              <LongitudeDegrees>-1.10978568904101848602294921875</LongitudeDegrees>
            </Position>
            <AltitudeMeters>123.1999969482421875</AltitudeMeters>
            <DistanceMeters>NAN</DistanceMeters>
          </Trackpoint>
          <Trackpoint>
            <Time>2020-05-25T05:17:48.000Z</Time>
            <Position>
              <LatitudeDegrees>38.1233225204050540924072265625</LatitudeDegrees>
              <LongitudeDegrees>-1.109855510294437408447265625</LongitudeDegrees>
            </Position>
            <AltitudeMeters>123.40000152587890625</AltitudeMeters>
            <DistanceMeters>NAN</DistanceMeters>
          </Trackpoint>
          <Trackpoint>
            <Time>2020-05-25T05:17:49.000Z</Time>
            <Position>
              <LatitudeDegrees>38.12336300499737262725830078125</LatitudeDegrees>
              <LongitudeDegrees>-1.10992491245269775390625</LongitudeDegrees>
            </Position>
            <AltitudeMeters>123.40000152587890625</AltitudeMeters>
            <DistanceMeters>NAN</DistanceMeters>
          </Trackpoint>
          <Trackpoint>
            <Time>2020-05-25T05:17:50.000Z</Time>
            <Position>
              <LatitudeDegrees>38.1234039925038814544677734375</LatitudeDegrees>
              <LongitudeDegrees>-1.1099946498870849609375</LongitudeDegrees>
            </Position>
            <AltitudeMeters>123.40000152587890625</AltitudeMeters>
            <DistanceMeters>NAN</DistanceMeters>
          </Trackpoint>
          <Trackpoint>
            <Time>2020-05-25T05:17:51.000Z</Time>
            <Position>
              <LatitudeDegrees>38.12344481237232685089111328125</LatitudeDegrees>
              <LongitudeDegrees>-1.11006296239793300628662109375</LongitudeDegrees>
            </Position>
            <AltitudeMeters>123.40000152587890625</AltitudeMeters>
            <DistanceMeters>NAN</DistanceMeters>
          </Trackpoint>
          <Trackpoint>
            <Time>2020-05-25T05:17:52.000Z</Time>
            <Position>
              <LatitudeDegrees>38.1234852969646453857421875</LatitudeDegrees>
              <LongitudeDegrees>-1.1101309396326541900634765625</LongitudeDegrees>
            </Position>
            <AltitudeMeters>123.40000152587890625</AltitudeMeters>
            <DistanceMeters>NAN</DistanceMeters>
          </Trackpoint>
          <Trackpoint>
            <Time>2020-05-25T05:17:53.000Z</Time>
            <Position>
              <LatitudeDegrees>38.1235240213572978973388671875</LatitudeDegrees>
              <LongitudeDegrees>-1.11019874922931194305419921875</LongitudeDegrees>
            </Position>
            <AltitudeMeters>123.40000152587890625</AltitudeMeters>
            <DistanceMeters>NAN</DistanceMeters>
          </Trackpoint>
          <Trackpoint>
            <Time>2020-05-25T05:17:54.000Z</Time>
            <Position>
              <LatitudeDegrees>38.12356165610253810882568359375</LatitudeDegrees>
              <LongitudeDegrees>-1.1102670617401599884033203125</LongitudeDegrees>
            </Position>
            <AltitudeMeters>123.40000152587890625</AltitudeMeters>
            <DistanceMeters>NAN</DistanceMeters>
          </Trackpoint>
          <Trackpoint>
            <Time>2020-05-25T05:17:55.000Z</Time>
            <Position>
              <LatitudeDegrees>38.12359887175261974334716796875</LatitudeDegrees>
              <LongitudeDegrees>-1.11033461987972259521484375</LongitudeDegrees>
            </Position>
            <AltitudeMeters>123.40000152587890625</AltitudeMeters>
            <DistanceMeters>NAN</DistanceMeters>
          </Trackpoint>
          <Trackpoint>
            <Time>2020-05-25T05:17:56.000Z</Time>
            <Position>
              <LatitudeDegrees>38.123636506497859954833984375</LatitudeDegrees>
              <LongitudeDegrees>-1.11040092073380947113037109375</LongitudeDegrees>
            </Position>
            <AltitudeMeters>123.40000152587890625</AltitudeMeters>
            <DistanceMeters>NAN</DistanceMeters>
          </Trackpoint>
          <Trackpoint>
            <Time>2020-05-25T05:17:57.000Z</Time>
            <Position>
              <LatitudeDegrees>38.123675398528575897216796875</LatitudeDegrees>
              <LongitudeDegrees>-1.1104667186737060546875</LongitudeDegrees>
            </Position>
            <AltitudeMeters>123.40000152587890625</AltitudeMeters>
            <DistanceMeters>NAN</DistanceMeters>
          </Trackpoint>
          <Trackpoint>
            <Time>2020-05-25T05:17:58.000Z</Time>
            <Position>
              <LatitudeDegrees>38.12371470965445041656494140625</LatitudeDegrees>
              <LongitudeDegrees>-1.1105322651565074920654296875</LongitudeDegrees>
            </Position>
            <AltitudeMeters>123.40000152587890625</AltitudeMeters>
            <DistanceMeters>NAN</DistanceMeters>
          </Trackpoint>
          <Trackpoint>
            <Time>2020-05-25T05:17:59.000Z</Time>
            <Position>
              <LatitudeDegrees>38.12375410459935665130615234375</LatitudeDegrees>
              <LongitudeDegrees>-1.11059806309640407562255859375</LongitudeDegrees>
            </Position>
            <AltitudeMeters>123.59999847412109375</AltitudeMeters>
            <DistanceMeters>NAN</DistanceMeters>
          </Trackpoint>
          <Trackpoint>
            <Time>2020-05-25T05:18:00.000Z</Time>
            <Position>
              <LatitudeDegrees>38.123792745172977447509765625</LatitudeDegrees>
              <LongitudeDegrees>-1.11066360957920551300048828125</LongitudeDegrees>
            </Position>
            <AltitudeMeters>123.59999847412109375</AltitudeMeters>
            <DistanceMeters>NAN</DistanceMeters>
          </Trackpoint>
          <Trackpoint>
            <Time>2020-05-25T05:18:01.000Z</Time>
            <Position>
              <LatitudeDegrees>38.1238311342895030975341796875</LatitudeDegrees>
              <LongitudeDegrees>-1.11072882078588008880615234375</LongitudeDegrees>
            </Position>
            <AltitudeMeters>123.59999847412109375</AltitudeMeters>
            <DistanceMeters>NAN</DistanceMeters>
          </Trackpoint>
          <Trackpoint>
            <Time>2020-05-25T05:18:02.000Z</Time>
            <Position>
              <LatitudeDegrees>38.1238686852157115936279296875</LatitudeDegrees>
              <LongitudeDegrees>-1.110794283449649810791015625</LongitudeDegrees>
            </Position>
            <AltitudeMeters>123.59999847412109375</AltitudeMeters>
            <DistanceMeters>NAN</DistanceMeters>
          </Trackpoint>
          <Trackpoint>
            <Time>2020-05-25T05:18:03.000Z</Time>
            <Position>
              <LatitudeDegrees>38.12390531413257122039794921875</LatitudeDegrees>
              <LongitudeDegrees>-1.11086041666567325592041015625</LongitudeDegrees>
            </Position>
            <AltitudeMeters>123.8000030517578125</AltitudeMeters>
            <DistanceMeters>NAN</DistanceMeters>
          </Trackpoint>
          <Trackpoint>
            <Time>2020-05-25T05:18:04.000Z</Time>
            <Position>
              <LatitudeDegrees>38.12394219450652599334716796875</LatitudeDegrees>
              <LongitudeDegrees>-1.110925041139125823974609375</LongitudeDegrees>
            </Position>
            <AltitudeMeters>123.8000030517578125</AltitudeMeters>
            <DistanceMeters>NAN</DistanceMeters>
          </Trackpoint>
          <Trackpoint>
            <Time>2020-05-25T05:18:05.000Z</Time>
            <Position>
              <LatitudeDegrees>38.12397907488048076629638671875</LatitudeDegrees>
              <LongitudeDegrees>-1.11098907887935638427734375</LongitudeDegrees>
            </Position>
            <AltitudeMeters>123.8000030517578125</AltitudeMeters>
            <DistanceMeters>NAN</DistanceMeters>
          </Trackpoint>
          <Trackpoint>
            <Time>2020-05-25T05:18:06.000Z</Time>
            <Position>
              <LatitudeDegrees>38.1240152008831501007080078125</LatitudeDegrees>
              <LongitudeDegrees>-1.1110522784292697906494140625</LongitudeDegrees>
            </Position>
            <AltitudeMeters>124</AltitudeMeters>
            <DistanceMeters>NAN</DistanceMeters>
          </Trackpoint>
          <Trackpoint>
            <Time>2020-05-25T05:18:07.000Z</Time>
            <Position>
              <LatitudeDegrees>38.1240517459809780120849609375</LatitudeDegrees>
              <LongitudeDegrees>-1.11111489124596118927001953125</LongitudeDegrees>
            </Position>
            <AltitudeMeters>124</AltitudeMeters>
            <DistanceMeters>NAN</DistanceMeters>
          </Trackpoint>
          <Trackpoint>
            <Time>2020-05-25T05:18:08.000Z</Time>
            <Position>
              <LatitudeDegrees>38.12412525527179241180419921875</LatitudeDegrees>
              <LongitudeDegrees>-1.11123776994645595550537109375</LongitudeDegrees>
            </Position>
            <AltitudeMeters>124</AltitudeMeters>
            <DistanceMeters>NAN</DistanceMeters>
          </Trackpoint>
          <Trackpoint>
            <Time>2020-05-25T05:18:09.000Z</Time>
            <Position>
              <LatitudeDegrees>38.12412525527179241180419921875</LatitudeDegrees>
              <LongitudeDegrees>-1.11123776994645595550537109375</LongitudeDegrees>
            </Position>
            <AltitudeMeters>124</AltitudeMeters>
            <DistanceMeters>NAN</DistanceMeters>
          </Trackpoint>
          <Trackpoint>
            <Time>2020-05-25T05:18:10.000Z</Time>
            <Position>
              <LatitudeDegrees>38.1241612136363983154296875</LatitudeDegrees>
              <LongitudeDegrees>-1.111299209296703338623046875</LongitudeDegrees>
            </Position>
            <AltitudeMeters>124.1999969482421875</AltitudeMeters>
            <DistanceMeters>NAN</DistanceMeters>
          </Trackpoint>
          <Trackpoint>
            <Time>2020-05-25T05:18:11.000Z</Time>
            <Position>
              <LatitudeDegrees>38.12419616617262363433837890625</LatitudeDegrees>
              <LongitudeDegrees>-1.1113610677421092987060546875</LongitudeDegrees>
            </Position>
            <AltitudeMeters>124.40000152587890625</AltitudeMeters>
            <DistanceMeters>NAN</DistanceMeters>
          </Trackpoint>
          <Trackpoint>
            <Time>2020-05-25T05:18:12.000Z</Time>
            <Position>
              <LatitudeDegrees>38.12423086725175380706787109375</LatitudeDegrees>
              <LongitudeDegrees>-1.11142166890203952789306640625</LongitudeDegrees>
            </Position>
            <AltitudeMeters>124.40000152587890625</AltitudeMeters>
            <DistanceMeters>NAN</DistanceMeters>
          </Trackpoint>
          <Trackpoint>
            <Time>2020-05-25T05:18:13.000Z</Time>
            <Position>
              <LatitudeDegrees>38.1242659874260425567626953125</LatitudeDegrees>
              <LongitudeDegrees>-1.1114824377000331878662109375</LongitudeDegrees>
            </Position>
            <AltitudeMeters>124.59999847412109375</AltitudeMeters>
            <DistanceMeters>NAN</DistanceMeters>
          </Trackpoint>
          <Trackpoint>
            <Time>2020-05-25T05:18:14.000Z</Time>
            <Position>
              <LatitudeDegrees>38.1243005208671092987060546875</LatitudeDegrees>
              <LongitudeDegrees>-1.1115424521267414093017578125</LongitudeDegrees>
            </Position>
            <AltitudeMeters>124.59999847412109375</AltitudeMeters>
            <DistanceMeters>NAN</DistanceMeters>
          </Trackpoint>
          <Trackpoint>
            <Time>2020-05-25T05:18:15.000Z</Time>
            <Position>
              <LatitudeDegrees>38.1243360601365566253662109375</LatitudeDegrees>
              <LongitudeDegrees>-1.11160104162991046905517578125</LongitudeDegrees>
            </Position>
            <AltitudeMeters>124.8000030517578125</AltitudeMeters>
            <DistanceMeters>NAN</DistanceMeters>
          </Trackpoint>
          <Trackpoint>
            <Time>2020-05-25T05:18:16.000Z</Time>
            <Position>
              <LatitudeDegrees>38.12437218613922595977783203125</LatitudeDegrees>
              <LongitudeDegrees>-1.111660301685333251953125</LongitudeDegrees>
            </Position>
            <AltitudeMeters>125</AltitudeMeters>
            <DistanceMeters>NAN</DistanceMeters>
          </Trackpoint>
          <Trackpoint>
            <Time>2020-05-25T05:18:17.000Z</Time>
            <Position>
              <LatitudeDegrees>38.12440789304673671722412109375</LatitudeDegrees>
              <LongitudeDegrees>-1.11171922646462917327880859375</LongitudeDegrees>
            </Position>
            <AltitudeMeters>125.40000152587890625</AltitudeMeters>
            <DistanceMeters>NAN</DistanceMeters>
          </Trackpoint>
          <Trackpoint>
            <Time>2020-05-25T05:18:18.000Z</Time>
            <Position>
              <LatitudeDegrees>38.12444292940199375152587890625</LatitudeDegrees>
              <LongitudeDegrees>-1.11177756451070308685302734375</LongitudeDegrees>
            </Position>
            <AltitudeMeters>125.59999847412109375</AltitudeMeters>
            <DistanceMeters>NAN</DistanceMeters>
          </Trackpoint>
          <Trackpoint>
            <Time>2020-05-25T05:18:19.000Z</Time>
            <Position>
              <LatitudeDegrees>38.1244772113859653472900390625</LatitudeDegrees>
              <LongitudeDegrees>-1.111836321651935577392578125</LongitudeDegrees>
            </Position>
            <AltitudeMeters>125.8000030517578125</AltitudeMeters>
            <DistanceMeters>NAN</DistanceMeters>
          </Trackpoint>
          <Trackpoint>
            <Time>2020-05-25T05:18:20.000Z</Time>
            <Position>
              <LatitudeDegrees>38.1245114095509052276611328125</LatitudeDegrees>
              <LongitudeDegrees>-1.11189491115510463714599609375</LongitudeDegrees>
            </Position>
            <AltitudeMeters>126</AltitudeMeters>
            <DistanceMeters>NAN</DistanceMeters>
          </Trackpoint>
          <Trackpoint>
            <Time>2020-05-25T05:18:21.000Z</Time>
            <Position>
              <LatitudeDegrees>38.12454544007778167724609375</LatitudeDegrees>
              <LongitudeDegrees>-1.11195190809667110443115234375</LongitudeDegrees>
            </Position>
            <AltitudeMeters>126</AltitudeMeters>
            <DistanceMeters>NAN</DistanceMeters>
          </Trackpoint>
          <Trackpoint>
            <Time>2020-05-25T05:18:22.000Z</Time>
            <Position>
              <LatitudeDegrees>38.12458039261400699615478515625</LatitudeDegrees>
              <LongitudeDegrees>-1.11200806684792041778564453125</LongitudeDegrees>
            </Position>
            <AltitudeMeters>126.40000152587890625</AltitudeMeters>
            <DistanceMeters>NAN</DistanceMeters>
          </Trackpoint>
          <Trackpoint>
            <Time>2020-05-25T05:18:23.000Z</Time>
            <Position>
              <LatitudeDegrees>38.12461576424539089202880859375</LatitudeDegrees>
              <LongitudeDegrees>-1.1120638065040111541748046875</LongitudeDegrees>
            </Position>
            <AltitudeMeters>126.40000152587890625</AltitudeMeters>
            <DistanceMeters>NAN</DistanceMeters>
          </Trackpoint>
          <Trackpoint>
            <Time>2020-05-25T05:18:24.000Z</Time>
            <Position>
              <LatitudeDegrees>38.12465147115290164947509765625</LatitudeDegrees>
              <LongitudeDegrees>-1.11212071962654590606689453125</LongitudeDegrees>
            </Position>
            <AltitudeMeters>126.40000152587890625</AltitudeMeters>
            <DistanceMeters>NAN</DistanceMeters>
          </Trackpoint>
          <Trackpoint>
            <Time>2020-05-25T05:18:25.000Z</Time>
            <Position>
              <LatitudeDegrees>38.12468667514622211456298828125</LatitudeDegrees>
              <LongitudeDegrees>-1.1121774651110172271728515625</LongitudeDegrees>
            </Position>
            <AltitudeMeters>126.59999847412109375</AltitudeMeters>
            <DistanceMeters>NAN</DistanceMeters>
          </Trackpoint>
          <Trackpoint>
            <Time>2020-05-25T05:18:26.000Z</Time>
            <Position>
              <LatitudeDegrees>38.1247222982347011566162109375</LatitudeDegrees>
              <LongitudeDegrees>-1.11223354004323482513427734375</LongitudeDegrees>
            </Position>
            <AltitudeMeters>126.8000030517578125</AltitudeMeters>
            <DistanceMeters>NAN</DistanceMeters>
          </Trackpoint>
          <Trackpoint>
            <Time>2020-05-25T05:18:27.000Z</Time>
            <Position>
              <LatitudeDegrees>38.124757669866085052490234375</LatitudeDegrees>
              <LongitudeDegrees>-1.11228953115642070770263671875</LongitudeDegrees>
            </Position>
            <AltitudeMeters>126.8000030517578125</AltitudeMeters>
            <DistanceMeters>NAN</DistanceMeters>
          </Trackpoint>
          <Trackpoint>
            <Time>2020-05-25T05:18:28.000Z</Time>
            <Position>
              <LatitudeDegrees>38.12479413114488124847412109375</LatitudeDegrees>
              <LongitudeDegrees>-1.11234552226960659027099609375</LongitudeDegrees>
            </Position>
            <AltitudeMeters>127</AltitudeMeters>
            <DistanceMeters>NAN</DistanceMeters>
          </Trackpoint>
          <Trackpoint>
            <Time>2020-05-25T05:18:29.000Z</Time>
            <Position>
              <LatitudeDegrees>38.1248309276998043060302734375</LatitudeDegrees>
              <LongitudeDegrees>-1.112401597201824188232421875</LongitudeDegrees>
            </Position>
            <AltitudeMeters>127</AltitudeMeters>
            <DistanceMeters>NAN</DistanceMeters>
          </Trackpoint>
          <Trackpoint>
            <Time>2020-05-25T05:18:30.000Z</Time>
            <Position>
              <LatitudeDegrees>38.12486722134053707122802734375</LatitudeDegrees>
              <LongitudeDegrees>-1.11245800741016864776611328125</LongitudeDegrees>
            </Position>
            <AltitudeMeters>127.1999969482421875</AltitudeMeters>
            <DistanceMeters>NAN</DistanceMeters>
          </Trackpoint>
          <Trackpoint>
            <Time>2020-05-25T05:18:31.000Z</Time>
            <Position>
              <LatitudeDegrees>38.1249040178954601287841796875</LatitudeDegrees>
              <LongitudeDegrees>-1.11251391470432281494140625</LongitudeDegrees>
            </Position>
            <AltitudeMeters>127.1999969482421875</AltitudeMeters>
            <DistanceMeters>NAN</DistanceMeters>
          </Trackpoint>
          <Trackpoint>
            <Time>2020-05-25T05:18:32.000Z</Time>
            <Position>
              <LatitudeDegrees>38.12494215555489063262939453125</LatitudeDegrees>
              <LongitudeDegrees>-1.1125680617988109588623046875</LongitudeDegrees>
            </Position>
            <AltitudeMeters>127.40000152587890625</AltitudeMeters>
            <DistanceMeters>NAN</DistanceMeters>
          </Trackpoint>
          <Trackpoint>
            <Time>2020-05-25T05:18:33.000Z</Time>
            <Position>
              <LatitudeDegrees>38.1249811314046382904052734375</LatitudeDegrees>
              <LongitudeDegrees>-1.11262229271233081817626953125</LongitudeDegrees>
            </Position>
            <AltitudeMeters>127.40000152587890625</AltitudeMeters>
            <DistanceMeters>NAN</DistanceMeters>
          </Trackpoint>
          <Trackpoint>
            <Time>2020-05-25T05:18:34.000Z</Time>
            <Position>
              <LatitudeDegrees>38.12502010725438594818115234375</LatitudeDegrees>
              <LongitudeDegrees>-1.1126770265400409698486328125</LongitudeDegrees>
            </Position>
            <AltitudeMeters>127.59999847412109375</AltitudeMeters>
            <DistanceMeters>NAN</DistanceMeters>
          </Trackpoint>
          <Trackpoint>
            <Time>2020-05-25T05:18:35.000Z</Time>
            <Position>
              <LatitudeDegrees>38.12505983747541904449462890625</LatitudeDegrees>
              <LongitudeDegrees>-1.11273008398711681365966796875</LongitudeDegrees>
            </Position>
            <AltitudeMeters>127.8000030517578125</AltitudeMeters>
            <DistanceMeters>NAN</DistanceMeters>
          </Trackpoint>
          <Trackpoint>
            <Time>2020-05-25T05:18:36.000Z</Time>
            <Position>
              <LatitudeDegrees>38.12510007061064243316650390625</LatitudeDegrees>
              <LongitudeDegrees>-1.11278221942484378814697265625</LongitudeDegrees>
            </Position>
            <AltitudeMeters>128</AltitudeMeters>
            <DistanceMeters>NAN</DistanceMeters>
          </Trackpoint>
          <Trackpoint>
            <Time>2020-05-25T05:18:37.000Z</Time>
            <Position>
              <LatitudeDegrees>38.1251410581171512603759765625</LatitudeDegrees>
              <LongitudeDegrees>-1.11283301375806331634521484375</LongitudeDegrees>
            </Position>
            <AltitudeMeters>128.1999969482421875</AltitudeMeters>
            <DistanceMeters>NAN</DistanceMeters>
          </Trackpoint>
          <Trackpoint>
            <Time>2020-05-25T05:18:38.000Z</Time>
            <Position>
              <LatitudeDegrees>38.1251829676330089569091796875</LatitudeDegrees>
              <LongitudeDegrees>-1.112882383167743682861328125</LongitudeDegrees>
            </Position>
            <AltitudeMeters>128.399993896484375</AltitudeMeters>
            <DistanceMeters>NAN</DistanceMeters>
          </Trackpoint>
          <Trackpoint>
            <Time>2020-05-25T05:18:39.000Z</Time>
            <Position>
              <LatitudeDegrees>38.12522579915821552276611328125</LatitudeDegrees>
              <LongitudeDegrees>-1.112930662930011749267578125</LongitudeDegrees>
            </Position>
            <AltitudeMeters>128.600006103515625</AltitudeMeters>
            <DistanceMeters>NAN</DistanceMeters>
          </Trackpoint>
          <Trackpoint>
            <Time>2020-05-25T05:18:40.000Z</Time>
            <Position>
              <LatitudeDegrees>38.12526871450245380401611328125</LatitudeDegrees>
              <LongitudeDegrees>-1.11297885887324810028076171875</LongitudeDegrees>
            </Position>
            <AltitudeMeters>128.600006103515625</AltitudeMeters>
            <DistanceMeters>NAN</DistanceMeters>
          </Trackpoint>
          <Trackpoint>
            <Time>2020-05-25T05:18:41.000Z</Time>
            <Position>
              <LatitudeDegrees>38.12531263567507266998291015625</LatitudeDegrees>
              <LongitudeDegrees>-1.1130270548164844512939453125</LongitudeDegrees>
            </Position>
            <AltitudeMeters>128.8000030517578125</AltitudeMeters>
            <DistanceMeters>NAN</DistanceMeters>
          </Trackpoint>
          <Trackpoint>
            <Time>2020-05-25T05:18:42.000Z</Time>
            <Position>
              <LatitudeDegrees>38.125357814133167266845703125</LatitudeDegrees>
              <LongitudeDegrees>-1.11307390965521335601806640625</LongitudeDegrees>
            </Position>
            <AltitudeMeters>128.8000030517578125</AltitudeMeters>
            <DistanceMeters>NAN</DistanceMeters>
          </Trackpoint>
          <Trackpoint>
            <Time>2020-05-25T05:18:43.000Z</Time>
            <Position>
              <LatitudeDegrees>38.12540366314351558685302734375</LatitudeDegrees>
              <LongitudeDegrees>-1.113119423389434814453125</LongitudeDegrees>
            </Position>
            <AltitudeMeters>129</AltitudeMeters>
            <DistanceMeters>NAN</DistanceMeters>
          </Trackpoint>
          <Trackpoint>
            <Time>2020-05-25T05:18:44.000Z</Time>
            <Position>
              <LatitudeDegrees>38.12544959597289562225341796875</LatitudeDegrees>
              <LongitudeDegrees>-1.1131641827523708343505859375</LongitudeDegrees>
            </Position>
            <AltitudeMeters>129.399993896484375</AltitudeMeters>
            <DistanceMeters>NAN</DistanceMeters>
          </Trackpoint>
          <Trackpoint>
            <Time>2020-05-25T05:18:45.000Z</Time>
            <Position>
              <LatitudeDegrees>38.12549502588808536529541015625</LatitudeDegrees>
              <LongitudeDegrees>-1.11320936121046543121337890625</LongitudeDegrees>
            </Position>
            <AltitudeMeters>129.600006103515625</AltitudeMeters>
            <DistanceMeters>NAN</DistanceMeters>
          </Trackpoint>
          <Trackpoint>
            <Time>2020-05-25T05:18:46.000Z</Time>
            <Position>
              <LatitudeDegrees>38.12554053962230682373046875</LatitudeDegrees>
              <LongitudeDegrees>-1.11325445584952831268310546875</LongitudeDegrees>
            </Position>
            <AltitudeMeters>129.600006103515625</AltitudeMeters>
            <DistanceMeters>NAN</DistanceMeters>
          </Trackpoint>
          <Trackpoint>
            <Time>2020-05-25T05:18:47.000Z</Time>
            <Position>
              <LatitudeDegrees>38.125586472451686859130859375</LatitudeDegrees>
              <LongitudeDegrees>-1.11329887993633747100830078125</LongitudeDegrees>
            </Position>
            <AltitudeMeters>129.8000030517578125</AltitudeMeters>
            <DistanceMeters>NAN</DistanceMeters>
          </Trackpoint>
          <Trackpoint>
            <Time>2020-05-25T05:18:48.000Z</Time>
            <Position>
              <LatitudeDegrees>38.1256322376430034637451171875</LatitudeDegrees>
              <LongitudeDegrees>-1.11334146000444889068603515625</LongitudeDegrees>
            </Position>
            <AltitudeMeters>130</AltitudeMeters>
            <DistanceMeters>NAN</DistanceMeters>
          </Trackpoint>
          <Trackpoint>
            <Time>2020-05-25T05:18:49.000Z</Time>
            <Position>
              <LatitudeDegrees>38.125678338110446929931640625</LatitudeDegrees>
              <LongitudeDegrees>-1.11338236369192600250244140625</LongitudeDegrees>
            </Position>
            <AltitudeMeters>130.1999969482421875</AltitudeMeters>
            <DistanceMeters>NAN</DistanceMeters>
          </Trackpoint>
          <Trackpoint>
            <Time>2020-05-25T05:18:50.000Z</Time>
            <Position>
              <LatitudeDegrees>38.12572502531111240386962890625</LatitudeDegrees>
              <LongitudeDegrees>-1.113421507179737091064453125</LongitudeDegrees>
            </Position>
            <AltitudeMeters>130.1999969482421875</AltitudeMeters>
            <DistanceMeters>NAN</DistanceMeters>
          </Trackpoint>
          <Trackpoint>
            <Time>2020-05-25T05:18:51.000Z</Time>
            <Position>
              <LatitudeDegrees>38.12577188014984130859375</LatitudeDegrees>
              <LongitudeDegrees>-1.1134598962962627410888671875</LongitudeDegrees>
            </Position>
            <AltitudeMeters>130.399993896484375</AltitudeMeters>
            <DistanceMeters>NAN</DistanceMeters>
          </Trackpoint>
          <Trackpoint>
            <Time>2020-05-25T05:18:52.000Z</Time>
            <Position>
              <LatitudeDegrees>38.1258189864456653594970703125</LatitudeDegrees>
              <LongitudeDegrees>-1.11349836923182010650634765625</LongitudeDegrees>
            </Position>
            <AltitudeMeters>130.399993896484375</AltitudeMeters>
            <DistanceMeters>NAN</DistanceMeters>
          </Trackpoint>
          <Trackpoint>
            <Time>2020-05-25T05:18:53.000Z</Time>
            <Position>
              <LatitudeDegrees>38.12586684711277484893798828125</LatitudeDegrees>
              <LongitudeDegrees>-1.11353608779609203338623046875</LongitudeDegrees>
            </Position>
            <AltitudeMeters>130.600006103515625</AltitudeMeters>
            <DistanceMeters>NAN</DistanceMeters>
          </Trackpoint>
          <Trackpoint>
            <Time>2020-05-25T05:18:54.000Z</Time>
            <Position>
              <LatitudeDegrees>38.12591512687504291534423828125</LatitudeDegrees>
              <LongitudeDegrees>-1.11357397399842739105224609375</LongitudeDegrees>
            </Position>
            <AltitudeMeters>130.8000030517578125</AltitudeMeters>
            <DistanceMeters>NAN</DistanceMeters>
          </Trackpoint>
          <Trackpoint>
            <Time>2020-05-25T05:18:55.000Z</Time>
            <Position>
              <LatitudeDegrees>38.1259636580944061279296875</LatitudeDegrees>
              <LongitudeDegrees>-1.1136111058294773101806640625</LongitudeDegrees>
            </Position>
            <AltitudeMeters>131</AltitudeMeters>
            <DistanceMeters>NAN</DistanceMeters>
          </Trackpoint>
          <Trackpoint>
            <Time>2020-05-25T05:18:56.000Z</Time>
            <Position>
              <LatitudeDegrees>38.12601302750408649444580078125</LatitudeDegrees>
              <LongitudeDegrees>-1.11364706419408321380615234375</LongitudeDegrees>
            </Position>
            <AltitudeMeters>131.1999969482421875</AltitudeMeters>
            <DistanceMeters>NAN</DistanceMeters>
          </Trackpoint>
          <Trackpoint>
            <Time>2020-05-25T05:18:57.000Z</Time>
            <Position>
              <LatitudeDegrees>38.1260630674660205841064453125</LatitudeDegrees>
              <LongitudeDegrees>-1.11368243582546710968017578125</LongitudeDegrees>
            </Position>
            <AltitudeMeters>131.399993896484375</AltitudeMeters>
            <DistanceMeters>NAN</DistanceMeters>
          </Trackpoint>
          <Trackpoint>
            <Time>2020-05-25T05:18:58.000Z</Time>
            <Position>
              <LatitudeDegrees>38.1261140294373035430908203125</LatitudeDegrees>
              <LongitudeDegrees>-1.11371814273297786712646484375</LongitudeDegrees>
            </Position>
            <AltitudeMeters>131.8000030517578125</AltitudeMeters>
            <DistanceMeters>NAN</DistanceMeters>
          </Trackpoint>
          <Trackpoint>
            <Time>2020-05-25T05:18:59.000Z</Time>
            <Position>
              <LatitudeDegrees>38.12616507522761821746826171875</LatitudeDegrees>
              <LongitudeDegrees>-1.11375418491661548614501953125</LongitudeDegrees>
            </Position>
            <AltitudeMeters>131.8000030517578125</AltitudeMeters>
            <DistanceMeters>NAN</DistanceMeters>
          </Trackpoint>
          <Trackpoint>
            <Time>2020-05-25T05:19:00.000Z</Time>
            <Position>
              <LatitudeDegrees>38.12621645629405975341796875</LatitudeDegrees>
              <LongitudeDegrees>-1.113788969814777374267578125</LongitudeDegrees>
            </Position>
            <AltitudeMeters>132.1999969482421875</AltitudeMeters>
            <DistanceMeters>NAN</DistanceMeters>
          </Trackpoint>
          <Trackpoint>
            <Time>2020-05-25T05:19:01.000Z</Time>
            <Position>
              <LatitudeDegrees>38.126268424093723297119140625</LatitudeDegrees>
              <LongitudeDegrees>-1.1138206534087657928466796875</LongitudeDegrees>
            </Position>
            <AltitudeMeters>132.1999969482421875</AltitudeMeters>
            <DistanceMeters>NAN</DistanceMeters>
          </Trackpoint>
          <Trackpoint>
            <Time>2020-05-25T05:19:02.000Z</Time>
            <Position>
              <LatitudeDegrees>38.12632148154079914093017578125</LatitudeDegrees>
              <LongitudeDegrees>-1.11385091207921504974365234375</LongitudeDegrees>
            </Position>
            <AltitudeMeters>132.399993896484375</AltitudeMeters>
            <DistanceMeters>NAN</DistanceMeters>
          </Trackpoint>
          <Trackpoint>
            <Time>2020-05-25T05:19:03.000Z</Time>
            <Position>
              <LatitudeDegrees>38.12637462280690670013427734375</LatitudeDegrees>
              <LongitudeDegrees>-1.113881170749664306640625</LongitudeDegrees>
            </Position>
            <AltitudeMeters>132.399993896484375</AltitudeMeters>
            <DistanceMeters>NAN</DistanceMeters>
          </Trackpoint>
          <Trackpoint>
            <Time>2020-05-25T05:19:04.000Z</Time>
            <Position>
              <LatitudeDegrees>38.12642776407301425933837890625</LatitudeDegrees>
              <LongitudeDegrees>-1.1139118485152721405029296875</LongitudeDegrees>
            </Position>
            <AltitudeMeters>132.600006103515625</AltitudeMeters>
            <DistanceMeters>NAN</DistanceMeters>
          </Trackpoint>
          <Trackpoint>
            <Time>2020-05-25T05:19:05.000Z</Time>
            <Position>
              <LatitudeDegrees>38.12648207880556583404541015625</LatitudeDegrees>
              <LongitudeDegrees>-1.11394177190959453582763671875</LongitudeDegrees>
            </Position>
            <AltitudeMeters>132.600006103515625</AltitudeMeters>
            <DistanceMeters>NAN</DistanceMeters>
          </Trackpoint>
          <Trackpoint>
            <Time>2020-05-25T05:19:06.000Z</Time>
            <Position>
              <LatitudeDegrees>38.12653689645230770111083984375</LatitudeDegrees>
              <LongitudeDegrees>-1.1139705218374729156494140625</LongitudeDegrees>
            </Position>
            <AltitudeMeters>132.8000030517578125</AltitudeMeters>
            <DistanceMeters>NAN</DistanceMeters>
          </Trackpoint>
          <Trackpoint>
            <Time>2020-05-25T05:19:07.000Z</Time>
            <Position>
              <LatitudeDegrees>38.1265924684703350067138671875</LatitudeDegrees>
              <LongitudeDegrees>-1.1139986850321292877197265625</LongitudeDegrees>
            </Position>
            <AltitudeMeters>132.8000030517578125</AltitudeMeters>
            <DistanceMeters>NAN</DistanceMeters>
          </Trackpoint>
          <Trackpoint>
            <Time>2020-05-25T05:19:08.000Z</Time>
            <Position>
              <LatitudeDegrees>38.12664904631674289703369140625</LatitudeDegrees>
              <LongitudeDegrees>-1.114027686417102813720703125</LongitudeDegrees>
            </Position>
            <AltitudeMeters>133</AltitudeMeters>
            <DistanceMeters>NAN</DistanceMeters>
          </Trackpoint>
          <Trackpoint>
            <Time>2020-05-25T05:19:09.000Z</Time>
            <Position>
              <LatitudeDegrees>38.12670671381056308746337890625</LatitudeDegrees>
              <LongitudeDegrees>-1.11405677162110805511474609375</LongitudeDegrees>
            </Position>
            <AltitudeMeters>133</AltitudeMeters>
            <DistanceMeters>NAN</DistanceMeters>
          </Trackpoint>
          <Trackpoint>
            <Time>2020-05-25T05:19:10.000Z</Time>
            <Position>
              <LatitudeDegrees>38.126765303313732147216796875</LatitudeDegrees>
              <LongitudeDegrees>-1.11408459953963756561279296875</LongitudeDegrees>
            </Position>
            <AltitudeMeters>133.1999969482421875</AltitudeMeters>
            <DistanceMeters>NAN</DistanceMeters>
          </Trackpoint>
          <Trackpoint>
            <Time>2020-05-25T05:19:11.000Z</Time>
            <Position>
              <LatitudeDegrees>38.1268251501023769378662109375</LatitudeDegrees>
              <LongitudeDegrees>-1.11411075107753276824951171875</LongitudeDegrees>
            </Position>
            <AltitudeMeters>133.399993896484375</AltitudeMeters>
            <DistanceMeters>NAN</DistanceMeters>
          </Trackpoint>
          <Trackpoint>
            <Time>2020-05-25T05:19:12.000Z</Time>
            <Position>
              <LatitudeDegrees>38.126886673271656036376953125</LatitudeDegrees>
              <LongitudeDegrees>-1.11413522623479366302490234375</LongitudeDegrees>
            </Position>
            <AltitudeMeters>133.399993896484375</AltitudeMeters>
            <DistanceMeters>NAN</DistanceMeters>
          </Trackpoint>
          <Trackpoint>
            <Time>2020-05-25T05:19:13.000Z</Time>
            <Position>
              <LatitudeDegrees>38.12694869935512542724609375</LatitudeDegrees>
              <LongitudeDegrees>-1.11415819264948368072509765625</LongitudeDegrees>
            </Position>
            <AltitudeMeters>133.600006103515625</AltitudeMeters>
            <DistanceMeters>NAN</DistanceMeters>
          </Trackpoint>
          <Trackpoint>
            <Time>2020-05-25T05:19:14.000Z</Time>
            <Position>
              <LatitudeDegrees>38.1270735897123813629150390625</LatitudeDegrees>
              <LongitudeDegrees>-1.11419976688921451568603515625</LongitudeDegrees>
            </Position>
            <AltitudeMeters>133.600006103515625</AltitudeMeters>
            <DistanceMeters>NAN</DistanceMeters>
          </Trackpoint>
          <Trackpoint>
            <Time>2020-05-25T05:19:15.000Z</Time>
            <Position>
              <LatitudeDegrees>38.1270735897123813629150390625</LatitudeDegrees>
              <LongitudeDegrees>-1.11419976688921451568603515625</LongitudeDegrees>
            </Position>
            <AltitudeMeters>133.8000030517578125</AltitudeMeters>
            <DistanceMeters>NAN</DistanceMeters>
          </Trackpoint>
          <Trackpoint>
            <Time>2020-05-25T05:19:16.000Z</Time>
            <Position>
              <LatitudeDegrees>38.1271362863481044769287109375</LatitudeDegrees>
              <LongitudeDegrees>-1.11421971581876277923583984375</LongitudeDegrees>
            </Position>
            <AltitudeMeters>133.8000030517578125</AltitudeMeters>
            <DistanceMeters>NAN</DistanceMeters>
          </Trackpoint>
          <Trackpoint>
            <Time>2020-05-25T05:19:17.000Z</Time>
            <Position>
              <LatitudeDegrees>38.12719906680285930633544921875</LatitudeDegrees>
              <LongitudeDegrees>-1.1142387427389621734619140625</LongitudeDegrees>
            </Position>
            <AltitudeMeters>133.8000030517578125</AltitudeMeters>
            <DistanceMeters>NAN</DistanceMeters>
          </Trackpoint>
          <Trackpoint>
            <Time>2020-05-25T05:19:18.000Z</Time>
            <Position>
              <LatitudeDegrees>38.12726251780986785888671875</LatitudeDegrees>
              <LongitudeDegrees>-1.11425475217401981353759765625</LongitudeDegrees>
            </Position>
            <AltitudeMeters>133.8000030517578125</AltitudeMeters>
            <DistanceMeters>NAN</DistanceMeters>
          </Trackpoint>
          <Trackpoint>
            <Time>2020-05-25T05:19:19.000Z</Time>
            <Position>
              <LatitudeDegrees>38.127326555550098419189453125</LatitudeDegrees>
              <LongitudeDegrees>-1.11426942050457000732421875</LongitudeDegrees>
            </Position>
            <AltitudeMeters>134</AltitudeMeters>
            <DistanceMeters>NAN</DistanceMeters>
          </Trackpoint>
          <Trackpoint>
            <Time>2020-05-25T05:19:20.000Z</Time>
            <Position>
              <LatitudeDegrees>38.1273907609283924102783203125</LatitudeDegrees>
              <LongitudeDegrees>-1.11428408883512020111083984375</LongitudeDegrees>
            </Position>
            <AltitudeMeters>134</AltitudeMeters>
            <DistanceMeters>NAN</DistanceMeters>
          </Trackpoint>
          <Trackpoint>
            <Time>2020-05-25T05:19:21.000Z</Time>
            <Position>
              <LatitudeDegrees>38.12745538540184497833251953125</LatitudeDegrees>
              <LongitudeDegrees>-1.11429900862276554107666015625</LongitudeDegrees>
            </Position>
            <AltitudeMeters>134</AltitudeMeters>
            <DistanceMeters>NAN</DistanceMeters>
          </Trackpoint>
          <Trackpoint>
            <Time>2020-05-25T05:19:22.000Z</Time>
            <Position>
              <LatitudeDegrees>38.12752026133239269256591796875</LatitudeDegrees>
              <LongitudeDegrees>-1.11431258730590343475341796875</LongitudeDegrees>
            </Position>
            <AltitudeMeters>134</AltitudeMeters>
            <DistanceMeters>NAN</DistanceMeters>
          </Trackpoint>
          <Trackpoint>
            <Time>2020-05-25T05:19:23.000Z</Time>
            <Position>
              <LatitudeDegrees>38.1275855563580989837646484375</LatitudeDegrees>
              <LongitudeDegrees>-1.11432532779872417449951171875</LongitudeDegrees>
            </Position>
            <AltitudeMeters>134</AltitudeMeters>
            <DistanceMeters>NAN</DistanceMeters>
          </Trackpoint>
          <Trackpoint>
            <Time>2020-05-25T05:19:24.000Z</Time>
            <Position>
              <LatitudeDegrees>38.12765101902186870574951171875</LatitudeDegrees>
              <LongitudeDegrees>-1.114337146282196044921875</LongitudeDegrees>
            </Position>
            <AltitudeMeters>134</AltitudeMeters>
            <DistanceMeters>NAN</DistanceMeters>
          </Trackpoint>
          <Trackpoint>
            <Time>2020-05-25T05:19:25.000Z</Time>
            <Position>
              <LatitudeDegrees>38.127716816961765289306640625</LatitudeDegrees>
              <LongitudeDegrees>-1.11434762366116046905517578125</LongitudeDegrees>
            </Position>
            <AltitudeMeters>134</AltitudeMeters>
            <DistanceMeters>NAN</DistanceMeters>
          </Trackpoint>
          <Trackpoint>
            <Time>2020-05-25T05:19:26.000Z</Time>
            <Position>
              <LatitudeDegrees>38.1277823634445667266845703125</LatitudeDegrees>
              <LongitudeDegrees>-1.114357598125934600830078125</LongitudeDegrees>
            </Position>
            <AltitudeMeters>134</AltitudeMeters>
            <DistanceMeters>NAN</DistanceMeters>
          </Trackpoint>
          <Trackpoint>
            <Time>2020-05-25T05:19:27.000Z</Time>
            <Position>
              <LatitudeDegrees>38.127848245203495025634765625</LatitudeDegrees>
              <LongitudeDegrees>-1.114365644752979278564453125</LongitudeDegrees>
            </Position>
            <AltitudeMeters>134</AltitudeMeters>
            <DistanceMeters>NAN</DistanceMeters>
          </Trackpoint>
          <Trackpoint>
            <Time>2020-05-25T05:19:28.000Z</Time>
            <Position>
              <LatitudeDegrees>38.12791421078145503997802734375</LatitudeDegrees>
              <LongitudeDegrees>-1.11437126062810420989990234375</LongitudeDegrees>
            </Position>
            <AltitudeMeters>134</AltitudeMeters>
            <DistanceMeters>NAN</DistanceMeters>
          </Trackpoint>
          <Trackpoint>
            <Time>2020-05-25T05:19:29.000Z</Time>
            <Position>
              <LatitudeDegrees>38.1279806792736053466796875</LatitudeDegrees>
              <LongitudeDegrees>-1.11437712796032428741455078125</LongitudeDegrees>
            </Position>
            <AltitudeMeters>134</AltitudeMeters>
            <DistanceMeters>NAN</DistanceMeters>
          </Trackpoint>
          <Trackpoint>
            <Time>2020-05-25T05:19:30.000Z</Time>
            <Position>
              <LatitudeDegrees>38.128046728670597076416015625</LatitudeDegrees>
              <LongitudeDegrees>-1.11438249237835407257080078125</LongitudeDegrees>
            </Position>
            <AltitudeMeters>134</AltitudeMeters>
            <DistanceMeters>NAN</DistanceMeters>
          </Trackpoint>
          <Trackpoint>
            <Time>2020-05-25T05:19:31.000Z</Time>
            <Position>
              <LatitudeDegrees>38.12811219133436679840087890625</LatitudeDegrees>
              <LongitudeDegrees>-1.11438651569187641143798828125</LongitudeDegrees>
            </Position>
            <AltitudeMeters>134</AltitudeMeters>
            <DistanceMeters>NAN</DistanceMeters>
          </Trackpoint>
          <Trackpoint>
            <Time>2020-05-25T05:19:32.000Z</Time>
            <Position>
              <LatitudeDegrees>38.1281776539981365203857421875</LatitudeDegrees>
              <LongitudeDegrees>-1.11438869498670101165771484375</LongitudeDegrees>
            </Position>
            <AltitudeMeters>134</AltitudeMeters>
            <DistanceMeters>NAN</DistanceMeters>
          </Trackpoint>
          <Trackpoint>
            <Time>2020-05-25T05:19:33.000Z</Time>
            <Position>
              <LatitudeDegrees>38.128243200480937957763671875</LatitudeDegrees>
              <LongitudeDegrees>-1.1143886111676692962646484375</LongitudeDegrees>
            </Position>
            <AltitudeMeters>134</AltitudeMeters>
            <DistanceMeters>NAN</DistanceMeters>
          </Trackpoint>
          <Trackpoint>
            <Time>2020-05-25T05:19:34.000Z</Time>
            <Position>
              <LatitudeDegrees>38.1283084116876125335693359375</LatitudeDegrees>
              <LongitudeDegrees>-1.11438735388219356536865234375</LongitudeDegrees>
            </Position>
            <AltitudeMeters>134.1999969482421875</AltitudeMeters>
            <DistanceMeters>NAN</DistanceMeters>
          </Trackpoint>
          <Trackpoint>
            <Time>2020-05-25T05:19:35.000Z</Time>
            <Position>
              <LatitudeDegrees>38.12837337143719196319580078125</LatitudeDegrees>
              <LongitudeDegrees>-1.11438668332993984222412109375</LongitudeDegrees>
            </Position>
            <AltitudeMeters>134.1999969482421875</AltitudeMeters>
            <DistanceMeters>NAN</DistanceMeters>
          </Trackpoint>
          <Trackpoint>
            <Time>2020-05-25T05:19:36.000Z</Time>
            <Position>
              <LatitudeDegrees>38.12843799591064453125</LatitudeDegrees>
              <LongitudeDegrees>-1.11438609659671783447265625</LongitudeDegrees>
            </Position>
            <AltitudeMeters>134.1999969482421875</AltitudeMeters>
            <DistanceMeters>NAN</DistanceMeters>
          </Trackpoint>
          <Trackpoint>
            <Time>2020-05-25T05:19:37.000Z</Time>
            <Position>
              <LatitudeDegrees>38.1285018660128116607666015625</LatitudeDegrees>
              <LongitudeDegrees>-1.114385090768337249755859375</LongitudeDegrees>
            </Position>
            <AltitudeMeters>134.1999969482421875</AltitudeMeters>
            <DistanceMeters>NAN</DistanceMeters>
          </Trackpoint>
          <Trackpoint>
            <Time>2020-05-25T05:19:38.000Z</Time>
            <Position>
              <LatitudeDegrees>38.1285659037530422210693359375</LatitudeDegrees>
              <LongitudeDegrees>-1.1143822409212589263916015625</LongitudeDegrees>
            </Position>
            <AltitudeMeters>134.1999969482421875</AltitudeMeters>
            <DistanceMeters>NAN</DistanceMeters>
          </Trackpoint>
          <Trackpoint>
            <Time>2020-05-25T05:19:39.000Z</Time>
            <Position>
              <LatitudeDegrees>38.12863036058843135833740234375</LatitudeDegrees>
              <LongitudeDegrees>-1.11437930725514888763427734375</LongitudeDegrees>
            </Position>
            <AltitudeMeters>134.399993896484375</AltitudeMeters>
            <DistanceMeters>NAN</DistanceMeters>
          </Trackpoint>
          <Trackpoint>
            <Time>2020-05-25T05:19:40.000Z</Time>
            <Position>
              <LatitudeDegrees>38.12869456596672534942626953125</LatitudeDegrees>
              <LongitudeDegrees>-1.11437813378870487213134765625</LongitudeDegrees>
            </Position>
            <AltitudeMeters>134.399993896484375</AltitudeMeters>
            <DistanceMeters>NAN</DistanceMeters>
          </Trackpoint>
          <Trackpoint>
            <Time>2020-05-25T05:19:41.000Z</Time>
            <Position>
              <LatitudeDegrees>38.12875843606889247894287109375</LatitudeDegrees>
              <LongitudeDegrees>-1.11437796615064144134521484375</LongitudeDegrees>
            </Position>
            <AltitudeMeters>134.600006103515625</AltitudeMeters>
            <DistanceMeters>NAN</DistanceMeters>
          </Trackpoint>
          <Trackpoint>
            <Time>2020-05-25T05:19:42.000Z</Time>
            <Position>
              <LatitudeDegrees>38.12882213853299617767333984375</LatitudeDegrees>
              <LongitudeDegrees>-1.1143772117793560028076171875</LongitudeDegrees>
            </Position>
            <AltitudeMeters>134.600006103515625</AltitudeMeters>
            <DistanceMeters>NAN</DistanceMeters>
          </Trackpoint>
          <Trackpoint>
            <Time>2020-05-25T05:19:43.000Z</Time>
            <Position>
              <LatitudeDegrees>38.12888567335903644561767578125</LatitudeDegrees>
              <LongitudeDegrees>-1.1143760383129119873046875</LongitudeDegrees>
            </Position>
            <AltitudeMeters>134.600006103515625</AltitudeMeters>
            <DistanceMeters>NAN</DistanceMeters>
          </Trackpoint>
          <Trackpoint>
            <Time>2020-05-25T05:19:44.000Z</Time>
            <Position>
              <LatitudeDegrees>38.12894937582314014434814453125</LatitudeDegrees>
              <LongitudeDegrees>-1.1143760383129119873046875</LongitudeDegrees>
            </Position>
            <AltitudeMeters>134.600006103515625</AltitudeMeters>
            <DistanceMeters>NAN</DistanceMeters>
          </Trackpoint>
          <Trackpoint>
            <Time>2020-05-25T05:19:45.000Z</Time>
            <Position>
              <LatitudeDegrees>38.12901207245886325836181640625</LatitudeDegrees>
              <LongitudeDegrees>-1.11437612213194370269775390625</LongitudeDegrees>
            </Position>
            <AltitudeMeters>134.8000030517578125</AltitudeMeters>
            <DistanceMeters>NAN</DistanceMeters>
          </Trackpoint>
          <Trackpoint>
            <Time>2020-05-25T05:19:46.000Z</Time>
            <Position>
              <LatitudeDegrees>38.12907426618039608001708984375</LatitudeDegrees>
              <LongitudeDegrees>-1.11437612213194370269775390625</LongitudeDegrees>
            </Position>
            <AltitudeMeters>134.8000030517578125</AltitudeMeters>
            <DistanceMeters>NAN</DistanceMeters>
          </Trackpoint>
          <Trackpoint>
            <Time>2020-05-25T05:19:47.000Z</Time>
            <Position>
              <LatitudeDegrees>38.12913604080677032470703125</LatitudeDegrees>
              <LongitudeDegrees>-1.11437561921775341033935546875</LongitudeDegrees>
            </Position>
            <AltitudeMeters>134.8000030517578125</AltitudeMeters>
            <DistanceMeters>NAN</DistanceMeters>
          </Trackpoint>
          <Trackpoint>
            <Time>2020-05-25T05:19:48.000Z</Time>
            <Position>
              <LatitudeDegrees>38.1291972286999225616455078125</LatitudeDegrees>
              <LongitudeDegrees>-1.11437478102743625640869140625</LongitudeDegrees>
            </Position>
            <AltitudeMeters>135</AltitudeMeters>
            <DistanceMeters>NAN</DistanceMeters>
          </Trackpoint>
          <Trackpoint>
            <Time>2020-05-25T05:19:49.000Z</Time>
            <Position>
              <LatitudeDegrees>38.12925816513597965240478515625</LatitudeDegrees>
              <LongitudeDegrees>-1.1143733561038970947265625</LongitudeDegrees>
            </Position>
            <AltitudeMeters>135</AltitudeMeters>
            <DistanceMeters>NAN</DistanceMeters>
          </Trackpoint>
          <Trackpoint>
            <Time>2020-05-25T05:19:50.000Z</Time>
            <Position>
              <LatitudeDegrees>38.129318766295909881591796875</LatitudeDegrees>
              <LongitudeDegrees>-1.11437176354229450225830078125</LongitudeDegrees>
            </Position>
            <AltitudeMeters>135.1999969482421875</AltitudeMeters>
            <DistanceMeters>NAN</DistanceMeters>
          </Trackpoint>
          <Trackpoint>
            <Time>2020-05-25T05:19:51.000Z</Time>
            <Position>
              <LatitudeDegrees>38.129377774894237518310546875</LatitudeDegrees>
              <LongitudeDegrees>-1.1143711768090724945068359375</LongitudeDegrees>
            </Position>
            <AltitudeMeters>135.1999969482421875</AltitudeMeters>
            <DistanceMeters>NAN</DistanceMeters>
          </Trackpoint>
          <Trackpoint>
            <Time>2020-05-25T05:19:52.000Z</Time>
            <Position>
              <LatitudeDegrees>38.1294357776641845703125</LatitudeDegrees>
              <LongitudeDegrees>-1.11437075771391391754150390625</LongitudeDegrees>
            </Position>
            <AltitudeMeters>135.1999969482421875</AltitudeMeters>
            <DistanceMeters>NAN</DistanceMeters>
          </Trackpoint>
          <Trackpoint>
            <Time>2020-05-25T05:19:53.000Z</Time>
            <Position>
              <LatitudeDegrees>38.1294929422438144683837890625</LatitudeDegrees>
              <LongitudeDegrees>-1.11437042243778705596923828125</LongitudeDegrees>
            </Position>
            <AltitudeMeters>135.399993896484375</AltitudeMeters>
            <DistanceMeters>NAN</DistanceMeters>
          </Trackpoint>
          <Trackpoint>
            <Time>2020-05-25T05:19:54.000Z</Time>
            <Position>
              <LatitudeDegrees>38.12954968772828578948974609375</LatitudeDegrees>
              <LongitudeDegrees>-1.11436958424746990203857421875</LongitudeDegrees>
            </Position>
            <AltitudeMeters>135.399993896484375</AltitudeMeters>
            <DistanceMeters>NAN</DistanceMeters>
          </Trackpoint>
          <Trackpoint>
            <Time>2020-05-25T05:19:55.000Z</Time>
            <Position>
              <LatitudeDegrees>38.12960601411759853363037109375</LatitudeDegrees>
              <LongitudeDegrees>-1.11436958424746990203857421875</LongitudeDegrees>
            </Position>
            <AltitudeMeters>135.399993896484375</AltitudeMeters>
            <DistanceMeters>NAN</DistanceMeters>
          </Trackpoint>
          <Trackpoint>
            <Time>2020-05-25T05:19:56.000Z</Time>
            <Position>
              <LatitudeDegrees>38.129662089049816131591796875</LatitudeDegrees>
              <LongitudeDegrees>-1.114370338618755340576171875</LongitudeDegrees>
            </Position>
            <AltitudeMeters>135.600006103515625</AltitudeMeters>
            <DistanceMeters>NAN</DistanceMeters>
          </Trackpoint>
          <Trackpoint>
            <Time>2020-05-25T05:19:57.000Z</Time>
            <Position>
              <LatitudeDegrees>38.129717409610748291015625</LatitudeDegrees>
              <LongitudeDegrees>-1.11437059007585048675537109375</LongitudeDegrees>
            </Position>
            <AltitudeMeters>135.600006103515625</AltitudeMeters>
            <DistanceMeters>NAN</DistanceMeters>
          </Trackpoint>
          <Trackpoint>
            <Time>2020-05-25T05:19:58.000Z</Time>
            <Position>
              <LatitudeDegrees>38.12977164052426815032958984375</LatitudeDegrees>
              <LongitudeDegrees>-1.1143706738948822021484375</LongitudeDegrees>
            </Position>
            <AltitudeMeters>135.600006103515625</AltitudeMeters>
            <DistanceMeters>NAN</DistanceMeters>
          </Trackpoint>
          <Trackpoint>
            <Time>2020-05-25T05:19:59.000Z</Time>
            <Position>
              <LatitudeDegrees>38.129825703799724578857421875</LatitudeDegrees>
              <LongitudeDegrees>-1.114371679723262786865234375</LongitudeDegrees>
            </Position>
            <AltitudeMeters>135.8000030517578125</AltitudeMeters>
            <DistanceMeters>NAN</DistanceMeters>
          </Trackpoint>
          <Trackpoint>
            <Time>2020-05-25T05:20:00.000Z</Time>
            <Position>
              <LatitudeDegrees>38.12987909652292728424072265625</LatitudeDegrees>
              <LongitudeDegrees>-1.11437360756099224090576171875</LongitudeDegrees>
            </Position>
            <AltitudeMeters>136.1999969482421875</AltitudeMeters>
            <DistanceMeters>NAN</DistanceMeters>
          </Trackpoint>
          <Trackpoint>
            <Time>2020-05-25T05:20:01.000Z</Time>
            <Position>
              <LatitudeDegrees>38.12993123196065425872802734375</LatitudeDegrees>
              <LongitudeDegrees>-1.114375703036785125732421875</LongitudeDegrees>
            </Position>
            <AltitudeMeters>136.399993896484375</AltitudeMeters>
            <DistanceMeters>NAN</DistanceMeters>
          </Trackpoint>
          <Trackpoint>
            <Time>2020-05-25T05:20:02.000Z</Time>
            <Position>
              <LatitudeDegrees>38.12998252920806407928466796875</LatitudeDegrees>
              <LongitudeDegrees>-1.11437897197902202606201171875</LongitudeDegrees>
            </Position>
            <AltitudeMeters>136.399993896484375</AltitudeMeters>
            <DistanceMeters>NAN</DistanceMeters>
          </Trackpoint>
          <Trackpoint>
            <Time>2020-05-25T05:20:03.000Z</Time>
            <Position>
              <LatitudeDegrees>38.1300340779125690460205078125</LatitudeDegrees>
              <LongitudeDegrees>-1.114383749663829803466796875</LongitudeDegrees>
            </Position>
            <AltitudeMeters>136.399993896484375</AltitudeMeters>
            <DistanceMeters>NAN</DistanceMeters>
          </Trackpoint>
          <Trackpoint>
            <Time>2020-05-25T05:20:04.000Z</Time>
            <Position>
              <LatitudeDegrees>38.13008612953126430511474609375</LatitudeDegrees>
              <LongitudeDegrees>-1.11438919790089130401611328125</LongitudeDegrees>
            </Position>
            <AltitudeMeters>136.8000030517578125</AltitudeMeters>
            <DistanceMeters>NAN</DistanceMeters>
          </Trackpoint>
          <Trackpoint>
            <Time>2020-05-25T05:20:05.000Z</Time>
            <Position>
              <LatitudeDegrees>38.13013851642608642578125</LatitudeDegrees>
              <LongitudeDegrees>-1.11439338885247707366943359375</LongitudeDegrees>
            </Position>
            <AltitudeMeters>137</AltitudeMeters>
            <DistanceMeters>NAN</DistanceMeters>
          </Trackpoint>
          <Trackpoint>
            <Time>2020-05-25T05:20:06.000Z</Time>
            <Position>
              <LatitudeDegrees>38.13019023276865482330322265625</LatitudeDegrees>
              <LongitudeDegrees>-1.114397160708904266357421875</LongitudeDegrees>
            </Position>
            <AltitudeMeters>137</AltitudeMeters>
            <DistanceMeters>NAN</DistanceMeters>
          </Trackpoint>
          <Trackpoint>
            <Time>2020-05-25T05:20:07.000Z</Time>
            <Position>
              <LatitudeDegrees>38.130241446197032928466796875</LatitudeDegrees>
              <LongitudeDegrees>-1.114402525126934051513671875</LongitudeDegrees>
            </Position>
            <AltitudeMeters>137.1999969482421875</AltitudeMeters>
            <DistanceMeters>NAN</DistanceMeters>
          </Trackpoint>
          <Trackpoint>
            <Time>2020-05-25T05:20:08.000Z</Time>
            <Position>
              <LatitudeDegrees>38.13029207289218902587890625</LatitudeDegrees>
              <LongitudeDegrees>-1.11441015265882015228271484375</LongitudeDegrees>
            </Position>
            <AltitudeMeters>137.8000030517578125</AltitudeMeters>
            <DistanceMeters>NAN</DistanceMeters>
          </Trackpoint>
          <Trackpoint>
            <Time>2020-05-25T05:20:09.000Z</Time>
            <Position>
              <LatitudeDegrees>38.13034228049218654632568359375</LatitudeDegrees>
              <LongitudeDegrees>-1.11441803164780139923095703125</LongitudeDegrees>
            </Position>
            <AltitudeMeters>137.8000030517578125</AltitudeMeters>
            <DistanceMeters>NAN</DistanceMeters>
          </Trackpoint>
          <Trackpoint>
            <Time>2020-05-25T05:20:10.000Z</Time>
            <Position>
              <LatitudeDegrees>38.13039190135896205902099609375</LatitudeDegrees>
              <LongitudeDegrees>-1.11442490480840206146240234375</LongitudeDegrees>
            </Position>
            <AltitudeMeters>138</AltitudeMeters>
            <DistanceMeters>NAN</DistanceMeters>
          </Trackpoint>
          <Trackpoint>
            <Time>2020-05-25T05:20:11.000Z</Time>
            <Position>
              <LatitudeDegrees>38.13044051639735698699951171875</LatitudeDegrees>
              <LongitudeDegrees>-1.11443295143544673919677734375</LongitudeDegrees>
            </Position>
            <AltitudeMeters>138.1999969482421875</AltitudeMeters>
            <DistanceMeters>NAN</DistanceMeters>
          </Trackpoint>
          <Trackpoint>
            <Time>2020-05-25T05:20:12.000Z</Time>
            <Position>
              <LatitudeDegrees>38.13048711977899074554443359375</LatitudeDegrees>
              <LongitudeDegrees>-1.1144432611763477325439453125</LongitudeDegrees>
            </Position>
            <AltitudeMeters>138.1999969482421875</AltitudeMeters>
            <DistanceMeters>NAN</DistanceMeters>
          </Trackpoint>
          <Trackpoint>
            <Time>2020-05-25T05:20:13.000Z</Time>
            <Position>
              <LatitudeDegrees>38.13053288497030735015869140625</LatitudeDegrees>
              <LongitudeDegrees>-1.11445273272693157196044921875</LongitudeDegrees>
            </Position>
            <AltitudeMeters>138.1999969482421875</AltitudeMeters>
            <DistanceMeters>NAN</DistanceMeters>
          </Trackpoint>
          <Trackpoint>
            <Time>2020-05-25T05:20:14.000Z</Time>
            <Position>
              <LatitudeDegrees>38.1305778957903385162353515625</LatitudeDegrees>
              <LongitudeDegrees>-1.1144623719155788421630859375</LongitudeDegrees>
            </Position>
            <AltitudeMeters>138.399993896484375</AltitudeMeters>
            <DistanceMeters>NAN</DistanceMeters>
          </Trackpoint>
          <Trackpoint>
            <Time>2020-05-25T05:20:15.000Z</Time>
            <Position>
              <LatitudeDegrees>38.130622319877147674560546875</LatitudeDegrees>
              <LongitudeDegrees>-1.1144727654755115509033203125</LongitudeDegrees>
            </Position>
            <AltitudeMeters>138.8000030517578125</AltitudeMeters>
            <DistanceMeters>NAN</DistanceMeters>
          </Trackpoint>
          <Trackpoint>
            <Time>2020-05-25T05:20:16.000Z</Time>
            <Position>
              <LatitudeDegrees>38.13066632486879825592041015625</LatitudeDegrees>
              <LongitudeDegrees>-1.11448257230222225189208984375</LongitudeDegrees>
            </Position>
            <AltitudeMeters>138.8000030517578125</AltitudeMeters>
            <DistanceMeters>NAN</DistanceMeters>
          </Trackpoint>
          <Trackpoint>
            <Time>2020-05-25T05:20:17.000Z</Time>
            <Position>
              <LatitudeDegrees>38.13070974312722682952880859375</LatitudeDegrees>
              <LongitudeDegrees>-1.1144932173192501068115234375</LongitudeDegrees>
            </Position>
            <AltitudeMeters>139.1999969482421875</AltitudeMeters>
            <DistanceMeters>NAN</DistanceMeters>
          </Trackpoint>
          <Trackpoint>
            <Time>2020-05-25T05:20:18.000Z</Time>
            <Position>
              <LatitudeDegrees>38.1307529099285602569580078125</LatitudeDegrees>
              <LongitudeDegrees>-1.1145059578120708465576171875</LongitudeDegrees>
            </Position>
            <AltitudeMeters>139.399993896484375</AltitudeMeters>
            <DistanceMeters>NAN</DistanceMeters>
          </Trackpoint>
          <Trackpoint>
            <Time>2020-05-25T05:20:19.000Z</Time>
            <Position>
              <LatitudeDegrees>38.13079590909183025360107421875</LatitudeDegrees>
              <LongitudeDegrees>-1.114520542323589324951171875</LongitudeDegrees>
            </Position>
            <AltitudeMeters>139.399993896484375</AltitudeMeters>
            <DistanceMeters>NAN</DistanceMeters>
          </Trackpoint>
          <Trackpoint>
            <Time>2020-05-25T05:20:20.000Z</Time>
            <Position>
              <LatitudeDegrees>38.1308387406170368194580078125</LatitudeDegrees>
              <LongitudeDegrees>-1.11453504301607608795166015625</LongitudeDegrees>
            </Position>
            <AltitudeMeters>139.600006103515625</AltitudeMeters>
            <DistanceMeters>NAN</DistanceMeters>
          </Trackpoint>
          <Trackpoint>
            <Time>2020-05-25T05:20:21.000Z</Time>
            <Position>
              <LatitudeDegrees>38.13088123686611652374267578125</LatitudeDegrees>
              <LongitudeDegrees>-1.11454929225146770477294921875</LongitudeDegrees>
            </Position>
            <AltitudeMeters>139.8000030517578125</AltitudeMeters>
            <DistanceMeters>NAN</DistanceMeters>
          </Trackpoint>
          <Trackpoint>
            <Time>2020-05-25T05:20:22.000Z</Time>
            <Position>
              <LatitudeDegrees>38.13092431984841823577880859375</LatitudeDegrees>
              <LongitudeDegrees>-1.114562451839447021484375</LongitudeDegrees>
            </Position>
            <AltitudeMeters>140.1999969482421875</AltitudeMeters>
            <DistanceMeters>NAN</DistanceMeters>
          </Trackpoint>
          <Trackpoint>
            <Time>2020-05-25T05:20:23.000Z</Time>
            <Position>
              <LatitudeDegrees>38.1309688277542591094970703125</LatitudeDegrees>
              <LongitudeDegrees>-1.1145760305225849151611328125</LongitudeDegrees>
            </Position>
            <AltitudeMeters>140.600006103515625</AltitudeMeters>
            <DistanceMeters>NAN</DistanceMeters>
          </Trackpoint>
          <Trackpoint>
            <Time>2020-05-25T05:20:24.000Z</Time>
            <Position>
              <LatitudeDegrees>38.1310137547552585601806640625</LatitudeDegrees>
              <LongitudeDegrees>-1.11459271050989627838134765625</LongitudeDegrees>
            </Position>
            <AltitudeMeters>140.8000030517578125</AltitudeMeters>
            <DistanceMeters>NAN</DistanceMeters>
          </Trackpoint>
          <Trackpoint>
            <Time>2020-05-25T05:20:25.000Z</Time>
            <Position>
              <LatitudeDegrees>38.131058514118194580078125</LatitudeDegrees>
              <LongitudeDegrees>-1.11461140215396881103515625</LongitudeDegrees>
            </Position>
            <AltitudeMeters>141</AltitudeMeters>
            <DistanceMeters>NAN</DistanceMeters>
          </Trackpoint>
          <Trackpoint>
            <Time>2020-05-25T05:20:26.000Z</Time>
            <Position>
              <LatitudeDegrees>38.13110235147178173065185546875</LatitudeDegrees>
              <LongitudeDegrees>-1.11463076435029506683349609375</LongitudeDegrees>
            </Position>
            <AltitudeMeters>141.399993896484375</AltitudeMeters>
            <DistanceMeters>NAN</DistanceMeters>
          </Trackpoint>
          <Trackpoint>
            <Time>2020-05-25T05:20:27.000Z</Time>
            <Position>
              <LatitudeDegrees>38.13114635646343231201171875</LatitudeDegrees>
              <LongitudeDegrees>-1.11464987508952617645263671875</LongitudeDegrees>
            </Position>
            <AltitudeMeters>141.600006103515625</AltitudeMeters>
            <DistanceMeters>NAN</DistanceMeters>
          </Trackpoint>
          <Trackpoint>
            <Time>2020-05-25T05:20:28.000Z</Time>
            <Position>
              <LatitudeDegrees>38.131190277636051177978515625</LatitudeDegrees>
              <LongitudeDegrees>-1.1146683990955352783203125</LongitudeDegrees>
            </Position>
            <AltitudeMeters>141.600006103515625</AltitudeMeters>
            <DistanceMeters>NAN</DistanceMeters>
          </Trackpoint>
          <Trackpoint>
            <Time>2020-05-25T05:20:29.000Z</Time>
            <Position>
              <LatitudeDegrees>38.13123411498963832855224609375</LatitudeDegrees>
              <LongitudeDegrees>-1.11468725837767124176025390625</LongitudeDegrees>
            </Position>
            <AltitudeMeters>141.8000030517578125</AltitudeMeters>
            <DistanceMeters>NAN</DistanceMeters>
          </Trackpoint>
          <Trackpoint>
            <Time>2020-05-25T05:20:30.000Z</Time>
            <Position>
              <LatitudeDegrees>38.131278119981288909912109375</LatitudeDegrees>
              <LongitudeDegrees>-1.114707626402378082275390625</LongitudeDegrees>
            </Position>
            <AltitudeMeters>142.1999969482421875</AltitudeMeters>
            <DistanceMeters>NAN</DistanceMeters>
          </Trackpoint>
          <Trackpoint>
            <Time>2020-05-25T05:20:31.000Z</Time>
            <Position>
              <LatitudeDegrees>38.1313228793442249298095703125</LatitudeDegrees>
              <LongitudeDegrees>-1.11472715623676776885986328125</LongitudeDegrees>
            </Position>
            <AltitudeMeters>142.600006103515625</AltitudeMeters>
            <DistanceMeters>NAN</DistanceMeters>
          </Trackpoint>
          <Trackpoint>
            <Time>2020-05-25T05:20:32.000Z</Time>
            <Position>
              <LatitudeDegrees>38.1313678063452243804931640625</LatitudeDegrees>
              <LongitudeDegrees>-1.11474609933793544769287109375</LongitudeDegrees>
            </Position>
            <AltitudeMeters>143</AltitudeMeters>
            <DistanceMeters>NAN</DistanceMeters>
          </Trackpoint>
          <Trackpoint>
            <Time>2020-05-25T05:20:33.000Z</Time>
            <Position>
              <LatitudeDegrees>38.13141181133687496185302734375</LatitudeDegrees>
              <LongitudeDegrees>-1.1147678084671497344970703125</LongitudeDegrees>
            </Position>
            <AltitudeMeters>143.1999969482421875</AltitudeMeters>
            <DistanceMeters>NAN</DistanceMeters>
          </Trackpoint>
          <Trackpoint>
            <Time>2020-05-25T05:20:34.000Z</Time>
            <Position>
              <LatitudeDegrees>38.1314553134143352508544921875</LatitudeDegrees>
              <LongitudeDegrees>-1.11479035578668117523193359375</LongitudeDegrees>
            </Position>
            <AltitudeMeters>143.600006103515625</AltitudeMeters>
            <DistanceMeters>NAN</DistanceMeters>
          </Trackpoint>
          <Trackpoint>
            <Time>2020-05-25T05:20:35.000Z</Time>
            <Position>
              <LatitudeDegrees>38.13149831257760524749755859375</LatitudeDegrees>
              <LongitudeDegrees>-1.1148132383823394775390625</LongitudeDegrees>
            </Position>
            <AltitudeMeters>144</AltitudeMeters>
            <DistanceMeters>NAN</DistanceMeters>
          </Trackpoint>
          <Trackpoint>
            <Time>2020-05-25T05:20:36.000Z</Time>
            <Position>
              <LatitudeDegrees>38.13154206611216068267822265625</LatitudeDegrees>
              <LongitudeDegrees>-1.11483662389218807220458984375</LongitudeDegrees>
            </Position>
            <AltitudeMeters>144.399993896484375</AltitudeMeters>
            <DistanceMeters>NAN</DistanceMeters>
          </Trackpoint>
          <Trackpoint>
            <Time>2020-05-25T05:20:37.000Z</Time>
            <Position>
              <LatitudeDegrees>38.13158665783703327178955078125</LatitudeDegrees>
              <LongitudeDegrees>-1.11486017704010009765625</LongitudeDegrees>
            </Position>
            <AltitudeMeters>144.600006103515625</AltitudeMeters>
            <DistanceMeters>NAN</DistanceMeters>
          </Trackpoint>
          <Trackpoint>
            <Time>2020-05-25T05:20:38.000Z</Time>
            <Position>
              <LatitudeDegrees>38.1316313333809375762939453125</LatitudeDegrees>
              <LongitudeDegrees>-1.11488624475896358489990234375</LongitudeDegrees>
            </Position>
            <AltitudeMeters>144.600006103515625</AltitudeMeters>
            <DistanceMeters>NAN</DistanceMeters>
          </Trackpoint>
          <Trackpoint>
            <Time>2020-05-25T05:20:39.000Z</Time>
            <Position>
              <LatitudeDegrees>38.13167701475322246551513671875</LatitudeDegrees>
              <LongitudeDegrees>-1.11491289921104907989501953125</LongitudeDegrees>
            </Position>
            <AltitudeMeters>145.1999969482421875</AltitudeMeters>
            <DistanceMeters>NAN</DistanceMeters>
          </Trackpoint>
          <Trackpoint>
            <Time>2020-05-25T05:20:40.000Z</Time>
            <Position>
              <LatitudeDegrees>38.1317238695919513702392578125</LatitudeDegrees>
              <LongitudeDegrees>-1.11493871547281742095947265625</LongitudeDegrees>
            </Position>
            <AltitudeMeters>145.399993896484375</AltitudeMeters>
            <DistanceMeters>NAN</DistanceMeters>
          </Trackpoint>
          <Trackpoint>
            <Time>2020-05-25T05:20:41.000Z</Time>
            <Position>
              <LatitudeDegrees>38.13177089206874370574951171875</LatitudeDegrees>
              <LongitudeDegrees>-1.1149659566581249237060546875</LongitudeDegrees>
            </Position>
            <AltitudeMeters>145.600006103515625</AltitudeMeters>
            <DistanceMeters>NAN</DistanceMeters>
          </Trackpoint>
          <Trackpoint>
            <Time>2020-05-25T05:20:42.000Z</Time>
            <Position>
              <LatitudeDegrees>38.13181833364069461822509765625</LatitudeDegrees>
              <LongitudeDegrees>-1.1149921081960201263427734375</LongitudeDegrees>
            </Position>
            <AltitudeMeters>146</AltitudeMeters>
            <DistanceMeters>NAN</DistanceMeters>
          </Trackpoint>
          <Trackpoint>
            <Time>2020-05-25T05:20:43.000Z</Time>
            <Position>
              <LatitudeDegrees>38.13186644576489925384521484375</LatitudeDegrees>
              <LongitudeDegrees>-1.11501733772456645965576171875</LongitudeDegrees>
            </Position>
            <AltitudeMeters>146.1999969482421875</AltitudeMeters>
            <DistanceMeters>NAN</DistanceMeters>
          </Trackpoint>
          <Trackpoint>
            <Time>2020-05-25T05:20:44.000Z</Time>
            <Position>
              <LatitudeDegrees>38.13191405497491359710693359375</LatitudeDegrees>
              <LongitudeDegrees>-1.115044243633747100830078125</LongitudeDegrees>
            </Position>
            <AltitudeMeters>146.600006103515625</AltitudeMeters>
            <DistanceMeters>NAN</DistanceMeters>
          </Trackpoint>
          <Trackpoint>
            <Time>2020-05-25T05:20:45.000Z</Time>
            <Position>
              <LatitudeDegrees>38.1319635920226573944091796875</LatitudeDegrees>
              <LongitudeDegrees>-1.1150715686380863189697265625</LongitudeDegrees>
            </Position>
            <AltitudeMeters>146.8000030517578125</AltitudeMeters>
            <DistanceMeters>NAN</DistanceMeters>
          </Trackpoint>
          <Trackpoint>
            <Time>2020-05-25T05:20:46.000Z</Time>
            <Position>
              <LatitudeDegrees>38.13201405107975006103515625</LatitudeDegrees>
              <LongitudeDegrees>-1.11510082148015499114990234375</LongitudeDegrees>
            </Position>
            <AltitudeMeters>146.8000030517578125</AltitudeMeters>
            <DistanceMeters>NAN</DistanceMeters>
          </Trackpoint>
          <Trackpoint>
            <Time>2020-05-25T05:20:47.000Z</Time>
            <Position>
              <LatitudeDegrees>38.13206501305103302001953125</LatitudeDegrees>
              <LongitudeDegrees>-1.11513082869350910186767578125</LongitudeDegrees>
            </Position>
            <AltitudeMeters>147</AltitudeMeters>
            <DistanceMeters>NAN</DistanceMeters>
          </Trackpoint>
          <Trackpoint>
            <Time>2020-05-25T05:20:48.000Z</Time>
            <Position>
              <LatitudeDegrees>38.13211656175553798675537109375</LatitudeDegrees>
              <LongitudeDegrees>-1.11516058444976806640625</LongitudeDegrees>
            </Position>
            <AltitudeMeters>147.1999969482421875</AltitudeMeters>
            <DistanceMeters>NAN</DistanceMeters>
          </Trackpoint>
          <Trackpoint>
            <Time>2020-05-25T05:20:49.000Z</Time>
            <Position>
              <LatitudeDegrees>38.132167942821979522705078125</LatitudeDegrees>
              <LongitudeDegrees>-1.11519000492990016937255859375</LongitudeDegrees>
            </Position>
            <AltitudeMeters>147.399993896484375</AltitudeMeters>
            <DistanceMeters>NAN</DistanceMeters>
          </Trackpoint>
          <Trackpoint>
            <Time>2020-05-25T05:20:50.000Z</Time>
            <Position>
              <LatitudeDegrees>38.13221932388842105865478515625</LatitudeDegrees>
              <LongitudeDegrees>-1.1152197606861591339111328125</LongitudeDegrees>
            </Position>
            <AltitudeMeters>147.600006103515625</AltitudeMeters>
            <DistanceMeters>NAN</DistanceMeters>
          </Trackpoint>
          <Trackpoint>
            <Time>2020-05-25T05:20:51.000Z</Time>
            <Position>
              <LatitudeDegrees>38.13227062113583087921142578125</LatitudeDegrees>
              <LongitudeDegrees>-1.1152502708137035369873046875</LongitudeDegrees>
            </Position>
            <AltitudeMeters>147.8000030517578125</AltitudeMeters>
            <DistanceMeters>NAN</DistanceMeters>
          </Trackpoint>
          <Trackpoint>
            <Time>2020-05-25T05:20:52.000Z</Time>
            <Position>
              <LatitudeDegrees>38.13232158310711383819580078125</LatitudeDegrees>
              <LongitudeDegrees>-1.11528237350285053253173828125</LongitudeDegrees>
            </Position>
            <AltitudeMeters>147.600006103515625</AltitudeMeters>
            <DistanceMeters>NAN</DistanceMeters>
          </Trackpoint>
          <Trackpoint>
            <Time>2020-05-25T05:20:53.000Z</Time>
            <Position>
              <LatitudeDegrees>38.1323729641735553741455078125</LatitudeDegrees>
              <LongitudeDegrees>-1.11531422473490238189697265625</LongitudeDegrees>
            </Position>
            <AltitudeMeters>147.8000030517578125</AltitudeMeters>
            <DistanceMeters>NAN</DistanceMeters>
          </Trackpoint>
          <Trackpoint>
            <Time>2020-05-25T05:20:54.000Z</Time>
            <Position>
              <LatitudeDegrees>38.1324245966970920562744140625</LatitudeDegrees>
              <LongitudeDegrees>-1.115345656871795654296875</LongitudeDegrees>
            </Position>
            <AltitudeMeters>148</AltitudeMeters>
            <DistanceMeters>NAN</DistanceMeters>
          </Trackpoint>
          <Trackpoint>
            <Time>2020-05-25T05:20:55.000Z</Time>
            <Position>
              <LatitudeDegrees>38.13247698359191417694091796875</LatitudeDegrees>
              <LongitudeDegrees>-1.11537759192287921905517578125</LongitudeDegrees>
            </Position>
            <AltitudeMeters>148</AltitudeMeters>
            <DistanceMeters>NAN</DistanceMeters>
          </Trackpoint>
          <Trackpoint>
            <Time>2020-05-25T05:20:56.000Z</Time>
            <Position>
              <LatitudeDegrees>38.1325305439531803131103515625</LatitudeDegrees>
              <LongitudeDegrees>-1.11540935933589935302734375</LongitudeDegrees>
            </Position>
            <AltitudeMeters>148.399993896484375</AltitudeMeters>
            <DistanceMeters>NAN</DistanceMeters>
          </Trackpoint>
          <Trackpoint>
            <Time>2020-05-25T05:20:57.000Z</Time>
            <Position>
              <LatitudeDegrees>38.132584355771541595458984375</LatitudeDegrees>
              <LongitudeDegrees>-1.1154413782060146331787109375</LongitudeDegrees>
            </Position>
            <AltitudeMeters>148.399993896484375</AltitudeMeters>
            <DistanceMeters>NAN</DistanceMeters>
          </Trackpoint>
          <Trackpoint>
            <Time>2020-05-25T05:20:58.000Z</Time>
            <Position>
              <LatitudeDegrees>38.13263892196118831634521484375</LatitudeDegrees>
              <LongitudeDegrees>-1.11547415144741535186767578125</LongitudeDegrees>
            </Position>
            <AltitudeMeters>148.399993896484375</AltitudeMeters>
            <DistanceMeters>NAN</DistanceMeters>
          </Trackpoint>
          <Trackpoint>
            <Time>2020-05-25T05:20:59.000Z</Time>
            <Position>
              <LatitudeDegrees>38.132693655788898468017578125</LatitudeDegrees>
              <LongitudeDegrees>-1.11550751142203807830810546875</LongitudeDegrees>
            </Position>
            <AltitudeMeters>148.8000030517578125</AltitudeMeters>
            <DistanceMeters>NAN</DistanceMeters>
          </Trackpoint>
          <Trackpoint>
            <Time>2020-05-25T05:21:00.000Z</Time>
            <Position>
              <LatitudeDegrees>38.13274889253079891204833984375</LatitudeDegrees>
              <LongitudeDegrees>-1.11554070375859737396240234375</LongitudeDegrees>
            </Position>
            <AltitudeMeters>149</AltitudeMeters>
            <DistanceMeters>NAN</DistanceMeters>
          </Trackpoint>
          <Trackpoint>
            <Time>2020-05-25T05:21:01.000Z</Time>
            <Position>
              <LatitudeDegrees>38.13280438072979450225830078125</LatitudeDegrees>
              <LongitudeDegrees>-1.1155736446380615234375</LongitudeDegrees>
            </Position>
            <AltitudeMeters>149</AltitudeMeters>
            <DistanceMeters>NAN</DistanceMeters>
          </Trackpoint>
          <Trackpoint>
            <Time>2020-05-25T05:21:02.000Z</Time>
            <Position>
              <LatitudeDegrees>38.1328607909381389617919921875</LatitudeDegrees>
              <LongitudeDegrees>-1.1156071722507476806640625</LongitudeDegrees>
            </Position>
            <AltitudeMeters>149</AltitudeMeters>
            <DistanceMeters>NAN</DistanceMeters>
          </Trackpoint>
          <Trackpoint>
            <Time>2020-05-25T05:21:03.000Z</Time>
            <Position>
              <LatitudeDegrees>38.13291803933680057525634765625</LatitudeDegrees>
              <LongitudeDegrees>-1.11564195714890956878662109375</LongitudeDegrees>
            </Position>
            <AltitudeMeters>149</AltitudeMeters>
            <DistanceMeters>NAN</DistanceMeters>
          </Trackpoint>
          <Trackpoint>
            <Time>2020-05-25T05:21:04.000Z</Time>
            <Position>
              <LatitudeDegrees>38.13297587446868419647216796875</LatitudeDegrees>
              <LongitudeDegrees>-1.11567649058997631072998046875</LongitudeDegrees>
            </Position>
            <AltitudeMeters>149</AltitudeMeters>
            <DistanceMeters>NAN</DistanceMeters>
          </Trackpoint>
          <Trackpoint>
            <Time>2020-05-25T05:21:05.000Z</Time>
            <Position>
              <LatitudeDegrees>38.13303387723863124847412109375</LatitudeDegrees>
              <LongitudeDegrees>-1.1157117784023284912109375</LongitudeDegrees>
            </Position>
            <AltitudeMeters>149</AltitudeMeters>
            <DistanceMeters>NAN</DistanceMeters>
          </Trackpoint>
          <Trackpoint>
            <Time>2020-05-25T05:21:06.000Z</Time>
            <Position>
              <LatitudeDegrees>38.133092634379863739013671875</LatitudeDegrees>
              <LongitudeDegrees>-1.11574840731918811798095703125</LongitudeDegrees>
            </Position>
            <AltitudeMeters>149</AltitudeMeters>
            <DistanceMeters>NAN</DistanceMeters>
          </Trackpoint>
          <Trackpoint>
            <Time>2020-05-25T05:21:07.000Z</Time>
            <Position>
              <LatitudeDegrees>38.1331524811685085296630859375</LatitudeDegrees>
              <LongitudeDegrees>-1.11578411422669887542724609375</LongitudeDegrees>
            </Position>
            <AltitudeMeters>149</AltitudeMeters>
            <DistanceMeters>NAN</DistanceMeters>
          </Trackpoint>
          <Trackpoint>
            <Time>2020-05-25T05:21:08.000Z</Time>
            <Position>
              <LatitudeDegrees>38.1332131661474704742431640625</LatitudeDegrees>
              <LongitudeDegrees>-1.11582015641033649444580078125</LongitudeDegrees>
            </Position>
            <AltitudeMeters>149</AltitudeMeters>
            <DistanceMeters>NAN</DistanceMeters>
          </Trackpoint>
          <Trackpoint>
            <Time>2020-05-25T05:21:09.000Z</Time>
            <Position>
              <LatitudeDegrees>38.13327468931674957275390625</LatitudeDegrees>
              <LongitudeDegrees>-1.115856952965259552001953125</LongitudeDegrees>
            </Position>
            <AltitudeMeters>149</AltitudeMeters>
            <DistanceMeters>NAN</DistanceMeters>
          </Trackpoint>
          <Trackpoint>
            <Time>2020-05-25T05:21:10.000Z</Time>
            <Position>
              <LatitudeDegrees>38.13333646394312381744384765625</LatitudeDegrees>
              <LongitudeDegrees>-1.115894503891468048095703125</LongitudeDegrees>
            </Position>
            <AltitudeMeters>148.8000030517578125</AltitudeMeters>
            <DistanceMeters>NAN</DistanceMeters>
          </Trackpoint>
          <Trackpoint>
            <Time>2020-05-25T05:21:11.000Z</Time>
            <Position>
              <LatitudeDegrees>38.13339865766465663909912109375</LatitudeDegrees>
              <LongitudeDegrees>-1.115932725369930267333984375</LongitudeDegrees>
            </Position>
            <AltitudeMeters>148.8000030517578125</AltitudeMeters>
            <DistanceMeters>NAN</DistanceMeters>
          </Trackpoint>
          <Trackpoint>
            <Time>2020-05-25T05:21:12.000Z</Time>
            <Position>
              <LatitudeDegrees>38.13352673314511775970458984375</LatitudeDegrees>
              <LongitudeDegrees>-1.11601143144071102142333984375</LongitudeDegrees>
            </Position>
            <AltitudeMeters>148.399993896484375</AltitudeMeters>
            <DistanceMeters>NAN</DistanceMeters>
          </Trackpoint>
          <Trackpoint>
            <Time>2020-05-25T05:21:13.000Z</Time>
            <Position>
              <LatitudeDegrees>38.13352673314511775970458984375</LatitudeDegrees>
              <LongitudeDegrees>-1.11601143144071102142333984375</LongitudeDegrees>
            </Position>
            <AltitudeMeters>148.399993896484375</AltitudeMeters>
            <DistanceMeters>NAN</DistanceMeters>
          </Trackpoint>
          <Trackpoint>
            <Time>2020-05-25T05:21:14.000Z</Time>
            <Position>
              <LatitudeDegrees>38.1335933692753314971923828125</LatitudeDegrees>
              <LongitudeDegrees>-1.11605099402368068695068359375</LongitudeDegrees>
            </Position>
            <AltitudeMeters>148</AltitudeMeters>
            <DistanceMeters>NAN</DistanceMeters>
          </Trackpoint>
          <Trackpoint>
            <Time>2020-05-25T05:21:15.000Z</Time>
            <Position>
              <LatitudeDegrees>38.13366092741489410400390625</LatitudeDegrees>
              <LongitudeDegrees>-1.1160921491682529449462890625</LongitudeDegrees>
            </Position>
            <AltitudeMeters>147.8000030517578125</AltitudeMeters>
            <DistanceMeters>NAN</DistanceMeters>
          </Trackpoint>
          <Trackpoint>
            <Time>2020-05-25T05:21:16.000Z</Time>
            <Position>
              <LatitudeDegrees>38.13373024575412273406982421875</LatitudeDegrees>
              <LongitudeDegrees>-1.1161343939602375030517578125</LongitudeDegrees>
            </Position>
            <AltitudeMeters>147.600006103515625</AltitudeMeters>
            <DistanceMeters>NAN</DistanceMeters>
          </Trackpoint>
          <Trackpoint>
            <Time>2020-05-25T05:21:17.000Z</Time>
            <Position>
              <LatitudeDegrees>38.13380115665495395660400390625</LatitudeDegrees>
              <LongitudeDegrees>-1.11617672257125377655029296875</LongitudeDegrees>
            </Position>
            <AltitudeMeters>147.1999969482421875</AltitudeMeters>
            <DistanceMeters>NAN</DistanceMeters>
          </Trackpoint>
          <Trackpoint>
            <Time>2020-05-25T05:21:18.000Z</Time>
            <Position>
              <LatitudeDegrees>38.13387290574610233306884765625</LatitudeDegrees>
              <LongitudeDegrees>-1.116220057010650634765625</LongitudeDegrees>
            </Position>
            <AltitudeMeters>146.8000030517578125</AltitudeMeters>
            <DistanceMeters>NAN</DistanceMeters>
          </Trackpoint>
          <Trackpoint>
            <Time>2020-05-25T05:21:19.000Z</Time>
            <Position>
              <LatitudeDegrees>38.13394566066563129425048828125</LatitudeDegrees>
              <LongitudeDegrees>-1.11626364290714263916015625</LongitudeDegrees>
            </Position>
            <AltitudeMeters>146.600006103515625</AltitudeMeters>
            <DistanceMeters>NAN</DistanceMeters>
          </Trackpoint>
          <Trackpoint>
            <Time>2020-05-25T05:21:20.000Z</Time>
            <Position>
              <LatitudeDegrees>38.1340915895998477935791015625</LatitudeDegrees>
              <LongitudeDegrees>-1.11635291017591953277587890625</LongitudeDegrees>
            </Position>
            <AltitudeMeters>146.399993896484375</AltitudeMeters>
            <DistanceMeters>NAN</DistanceMeters>
          </Trackpoint>
          <Trackpoint>
            <Time>2020-05-25T05:21:21.000Z</Time>
            <Position>
              <LatitudeDegrees>38.1340915895998477935791015625</LatitudeDegrees>
              <LongitudeDegrees>-1.11635291017591953277587890625</LongitudeDegrees>
            </Position>
            <AltitudeMeters>146.399993896484375</AltitudeMeters>
            <DistanceMeters>NAN</DistanceMeters>
          </Trackpoint>
          <Trackpoint>
            <Time>2020-05-25T05:21:22.000Z</Time>
            <Position>
              <LatitudeDegrees>38.13416476361453533172607421875</LatitudeDegrees>
              <LongitudeDegrees>-1.11639775335788726806640625</LongitudeDegrees>
            </Position>
            <AltitudeMeters>146</AltitudeMeters>
            <DistanceMeters>NAN</DistanceMeters>
          </Trackpoint>
          <Trackpoint>
            <Time>2020-05-25T05:21:23.000Z</Time>
            <Position>
              <LatitudeDegrees>38.13423768617212772369384765625</LatitudeDegrees>
              <LongitudeDegrees>-1.11644159071147441864013671875</LongitudeDegrees>
            </Position>
            <AltitudeMeters>145.8000030517578125</AltitudeMeters>
            <DistanceMeters>NAN</DistanceMeters>
          </Trackpoint>
          <Trackpoint>
            <Time>2020-05-25T05:21:24.000Z</Time>
            <Position>
              <LatitudeDegrees>38.13430977053940296173095703125</LatitudeDegrees>
              <LongitudeDegrees>-1.1164844222366809844970703125</LongitudeDegrees>
            </Position>
            <AltitudeMeters>145.399993896484375</AltitudeMeters>
            <DistanceMeters>NAN</DistanceMeters>
          </Trackpoint>
          <Trackpoint>
            <Time>2020-05-25T05:21:25.000Z</Time>
            <Position>
              <LatitudeDegrees>38.134380094707012176513671875</LatitudeDegrees>
              <LongitudeDegrees>-1.11652708612382411956787109375</LongitudeDegrees>
            </Position>
            <AltitudeMeters>145</AltitudeMeters>
            <DistanceMeters>NAN</DistanceMeters>
          </Trackpoint>
          <Trackpoint>
            <Time>2020-05-25T05:21:26.000Z</Time>
            <Position>
              <LatitudeDegrees>38.134449161589145660400390625</LatitudeDegrees>
              <LongitudeDegrees>-1.116568408906459808349609375</LongitudeDegrees>
            </Position>
            <AltitudeMeters>144.8000030517578125</AltitudeMeters>
            <DistanceMeters>NAN</DistanceMeters>
          </Trackpoint>
          <Trackpoint>
            <Time>2020-05-25T05:21:27.000Z</Time>
            <Position>
              <LatitudeDegrees>38.1345170550048351287841796875</LatitudeDegrees>
              <LongitudeDegrees>-1.11660897731781005859375</LongitudeDegrees>
            </Position>
            <AltitudeMeters>144.399993896484375</AltitudeMeters>
            <DistanceMeters>NAN</DistanceMeters>
          </Trackpoint>
          <Trackpoint>
            <Time>2020-05-25T05:21:28.000Z</Time>
            <Position>
              <LatitudeDegrees>38.13458486460149288177490234375</LatitudeDegrees>
              <LongitudeDegrees>-1.11664879135787487030029296875</LongitudeDegrees>
            </Position>
            <AltitudeMeters>144</AltitudeMeters>
            <DistanceMeters>NAN</DistanceMeters>
          </Trackpoint>
          <Trackpoint>
            <Time>2020-05-25T05:21:29.000Z</Time>
            <Position>
              <LatitudeDegrees>38.13465242274105548858642578125</LatitudeDegrees>
              <LongitudeDegrees>-1.116687096655368804931640625</LongitudeDegrees>
            </Position>
            <AltitudeMeters>143.600006103515625</AltitudeMeters>
            <DistanceMeters>NAN</DistanceMeters>
          </Trackpoint>
          <Trackpoint>
            <Time>2020-05-25T05:21:30.000Z</Time>
            <Position>
              <LatitudeDegrees>38.13471905887126922607421875</LatitudeDegrees>
              <LongitudeDegrees>-1.11672439612448215484619140625</LongitudeDegrees>
            </Position>
            <AltitudeMeters>143.399993896484375</AltitudeMeters>
            <DistanceMeters>NAN</DistanceMeters>
          </Trackpoint>
          <Trackpoint>
            <Time>2020-05-25T05:21:31.000Z</Time>
            <Position>
              <LatitudeDegrees>38.13478334806859493255615234375</LatitudeDegrees>
              <LongitudeDegrees>-1.1167620308697223663330078125</LongitudeDegrees>
            </Position>
            <AltitudeMeters>143.1999969482421875</AltitudeMeters>
            <DistanceMeters>NAN</DistanceMeters>
          </Trackpoint>
          <Trackpoint>
            <Time>2020-05-25T05:21:32.000Z</Time>
            <Position>
              <LatitudeDegrees>38.13484436832368373870849609375</LatitudeDegrees>
              <LongitudeDegrees>-1.11679899506270885467529296875</LongitudeDegrees>
            </Position>
            <AltitudeMeters>143</AltitudeMeters>
            <DistanceMeters>NAN</DistanceMeters>
          </Trackpoint>
          <Trackpoint>
            <Time>2020-05-25T05:21:33.000Z</Time>
            <Position>
              <LatitudeDegrees>38.13490421511232852935791015625</LatitudeDegrees>
              <LongitudeDegrees>-1.11683503724634647369384765625</LongitudeDegrees>
            </Position>
            <AltitudeMeters>143</AltitudeMeters>
            <DistanceMeters>NAN</DistanceMeters>
          </Trackpoint>
          <Trackpoint>
            <Time>2020-05-25T05:21:34.000Z</Time>
            <Position>
              <LatitudeDegrees>38.1349651515483856201171875</LatitudeDegrees>
              <LongitudeDegrees>-1.11687342636287212371826171875</LongitudeDegrees>
            </Position>
            <AltitudeMeters>143</AltitudeMeters>
            <DistanceMeters>NAN</DistanceMeters>
          </Trackpoint>
          <Trackpoint>
            <Time>2020-05-25T05:21:35.000Z</Time>
            <Position>
              <LatitudeDegrees>38.13502960838377475738525390625</LatitudeDegrees>
              <LongitudeDegrees>-1.1169147491455078125</LongitudeDegrees>
            </Position>
            <AltitudeMeters>143</AltitudeMeters>
            <DistanceMeters>NAN</DistanceMeters>
          </Trackpoint>
          <Trackpoint>
            <Time>2020-05-25T05:21:36.000Z</Time>
            <Position>
              <LatitudeDegrees>38.13509649597108364105224609375</LatitudeDegrees>
              <LongitudeDegrees>-1.1169571615755558013916015625</LongitudeDegrees>
            </Position>
            <AltitudeMeters>143</AltitudeMeters>
            <DistanceMeters>NAN</DistanceMeters>
          </Trackpoint>
          <Trackpoint>
            <Time>2020-05-25T05:21:37.000Z</Time>
            <Position>
              <LatitudeDegrees>38.1351641379296779632568359375</LatitudeDegrees>
              <LongitudeDegrees>-1.11699831672012805938720703125</LongitudeDegrees>
            </Position>
            <AltitudeMeters>143</AltitudeMeters>
            <DistanceMeters>NAN</DistanceMeters>
          </Trackpoint>
          <Trackpoint>
            <Time>2020-05-25T05:21:38.000Z</Time>
            <Position>
              <LatitudeDegrees>38.13523211516439914703369140625</LatitudeDegrees>
              <LongitudeDegrees>-1.1170382983982563018798828125</LongitudeDegrees>
            </Position>
            <AltitudeMeters>142.8000030517578125</AltitudeMeters>
            <DistanceMeters>NAN</DistanceMeters>
          </Trackpoint>
          <Trackpoint>
            <Time>2020-05-25T05:21:39.000Z</Time>
            <Position>
              <LatitudeDegrees>38.1352995894849300384521484375</LatitudeDegrees>
              <LongitudeDegrees>-1.1170775257050991058349609375</LongitudeDegrees>
            </Position>
            <AltitudeMeters>142.8000030517578125</AltitudeMeters>
            <DistanceMeters>NAN</DistanceMeters>
          </Trackpoint>
          <Trackpoint>
            <Time>2020-05-25T05:21:40.000Z</Time>
            <Position>
              <LatitudeDegrees>38.13536622561514377593994140625</LatitudeDegrees>
              <LongitudeDegrees>-1.1171170882880687713623046875</LongitudeDegrees>
            </Position>
            <AltitudeMeters>143</AltitudeMeters>
            <DistanceMeters>NAN</DistanceMeters>
          </Trackpoint>
          <Trackpoint>
            <Time>2020-05-25T05:21:41.000Z</Time>
            <Position>
              <LatitudeDegrees>38.1354316882789134979248046875</LatitudeDegrees>
              <LongitudeDegrees>-1.11715757288038730621337890625</LongitudeDegrees>
            </Position>
            <AltitudeMeters>143.1999969482421875</AltitudeMeters>
            <DistanceMeters>NAN</DistanceMeters>
          </Trackpoint>
          <Trackpoint>
            <Time>2020-05-25T05:21:42.000Z</Time>
            <Position>
              <LatitudeDegrees>38.1354970671236515045166015625</LatitudeDegrees>
              <LongitudeDegrees>-1.1171975545585155487060546875</LongitudeDegrees>
            </Position>
            <AltitudeMeters>143.1999969482421875</AltitudeMeters>
            <DistanceMeters>NAN</DistanceMeters>
          </Trackpoint>
          <Trackpoint>
            <Time>2020-05-25T05:21:43.000Z</Time>
            <Position>
              <LatitudeDegrees>38.13556185923516750335693359375</LatitudeDegrees>
              <LongitudeDegrees>-1.117236614227294921875</LongitudeDegrees>
            </Position>
            <AltitudeMeters>143.399993896484375</AltitudeMeters>
            <DistanceMeters>NAN</DistanceMeters>
          </Trackpoint>
          <Trackpoint>
            <Time>2020-05-25T05:21:44.000Z</Time>
            <Position>
              <LatitudeDegrees>38.135626316070556640625</LatitudeDegrees>
              <LongitudeDegrees>-1.117274500429630279541015625</LongitudeDegrees>
            </Position>
            <AltitudeMeters>143.399993896484375</AltitudeMeters>
            <DistanceMeters>NAN</DistanceMeters>
          </Trackpoint>
          <Trackpoint>
            <Time>2020-05-25T05:21:45.000Z</Time>
            <Position>
              <LatitudeDegrees>38.135690353810787200927734375</LatitudeDegrees>
              <LongitudeDegrees>-1.1173118837177753448486328125</LongitudeDegrees>
            </Position>
            <AltitudeMeters>143.600006103515625</AltitudeMeters>
            <DistanceMeters>NAN</DistanceMeters>
          </Trackpoint>
          <Trackpoint>
            <Time>2020-05-25T05:21:46.000Z</Time>
            <Position>
              <LatitudeDegrees>38.13575313426554203033447265625</LatitudeDegrees>
              <LongitudeDegrees>-1.11734993755817413330078125</LongitudeDegrees>
            </Position>
            <AltitudeMeters>143.600006103515625</AltitudeMeters>
            <DistanceMeters>NAN</DistanceMeters>
          </Trackpoint>
          <Trackpoint>
            <Time>2020-05-25T05:21:47.000Z</Time>
            <Position>
              <LatitudeDegrees>38.13581583090126514434814453125</LatitudeDegrees>
              <LongitudeDegrees>-1.117387153208255767822265625</LongitudeDegrees>
            </Position>
            <AltitudeMeters>143.8000030517578125</AltitudeMeters>
            <DistanceMeters>NAN</DistanceMeters>
          </Trackpoint>
          <Trackpoint>
            <Time>2020-05-25T05:21:48.000Z</Time>
            <Position>
              <LatitudeDegrees>38.13587835989892482757568359375</LatitudeDegrees>
              <LongitudeDegrees>-1.1174238659441471099853515625</LongitudeDegrees>
            </Position>
            <AltitudeMeters>143.8000030517578125</AltitudeMeters>
            <DistanceMeters>NAN</DistanceMeters>
          </Trackpoint>
          <Trackpoint>
            <Time>2020-05-25T05:21:49.000Z</Time>
            <Position>
              <LatitudeDegrees>38.13594122417271137237548828125</LatitudeDegrees>
              <LongitudeDegrees>-1.11746099777519702911376953125</LongitudeDegrees>
            </Position>
            <AltitudeMeters>144</AltitudeMeters>
            <DistanceMeters>NAN</DistanceMeters>
          </Trackpoint>
          <Trackpoint>
            <Time>2020-05-25T05:21:50.000Z</Time>
            <Position>
              <LatitudeDegrees>38.13600375317037105560302734375</LatitudeDegrees>
              <LongitudeDegrees>-1.1174989677965641021728515625</LongitudeDegrees>
            </Position>
            <AltitudeMeters>144.1999969482421875</AltitudeMeters>
            <DistanceMeters>NAN</DistanceMeters>
          </Trackpoint>
          <Trackpoint>
            <Time>2020-05-25T05:21:51.000Z</Time>
            <Position>
              <LatitudeDegrees>38.13606611452996730804443359375</LatitudeDegrees>
              <LongitudeDegrees>-1.117537021636962890625</LongitudeDegrees>
            </Position>
            <AltitudeMeters>144.399993896484375</AltitudeMeters>
            <DistanceMeters>NAN</DistanceMeters>
          </Trackpoint>
          <Trackpoint>
            <Time>2020-05-25T05:21:52.000Z</Time>
            <Position>
              <LatitudeDegrees>38.13612855970859527587890625</LatitudeDegrees>
              <LongitudeDegrees>-1.11757457256317138671875</LongitudeDegrees>
            </Position>
            <AltitudeMeters>144.600006103515625</AltitudeMeters>
            <DistanceMeters>NAN</DistanceMeters>
          </Trackpoint>
          <Trackpoint>
            <Time>2020-05-25T05:21:53.000Z</Time>
            <Position>
              <LatitudeDegrees>38.1361907534301280975341796875</LatitudeDegrees>
              <LongitudeDegrees>-1.11761237494647502899169921875</LongitudeDegrees>
            </Position>
            <AltitudeMeters>144.600006103515625</AltitudeMeters>
            <DistanceMeters>NAN</DistanceMeters>
          </Trackpoint>
          <Trackpoint>
            <Time>2020-05-25T05:21:54.000Z</Time>
            <Position>
              <LatitudeDegrees>38.13625328242778778076171875</LatitudeDegrees>
              <LongitudeDegrees>-1.117651350796222686767578125</LongitudeDegrees>
            </Position>
            <AltitudeMeters>144.8000030517578125</AltitudeMeters>
            <DistanceMeters>NAN</DistanceMeters>
          </Trackpoint>
          <Trackpoint>
            <Time>2020-05-25T05:21:55.000Z</Time>
            <Position>
              <LatitudeDegrees>38.1363161467015743255615234375</LatitudeDegrees>
              <LongitudeDegrees>-1.1176897399127483367919921875</LongitudeDegrees>
            </Position>
            <AltitudeMeters>144.8000030517578125</AltitudeMeters>
            <DistanceMeters>NAN</DistanceMeters>
          </Trackpoint>
          <Trackpoint>
            <Time>2020-05-25T05:21:56.000Z</Time>
            <Position>
              <LatitudeDegrees>38.13637993298470973968505859375</LatitudeDegrees>
              <LongitudeDegrees>-1.11772770993411540985107421875</LongitudeDegrees>
            </Position>
            <AltitudeMeters>144.8000030517578125</AltitudeMeters>
            <DistanceMeters>NAN</DistanceMeters>
          </Trackpoint>
          <Trackpoint>
            <Time>2020-05-25T05:21:57.000Z</Time>
            <Position>
              <LatitudeDegrees>38.136444389820098876953125</LatitudeDegrees>
              <LongitudeDegrees>-1.11776475794613361358642578125</LongitudeDegrees>
            </Position>
            <AltitudeMeters>145</AltitudeMeters>
            <DistanceMeters>NAN</DistanceMeters>
          </Trackpoint>
          <Trackpoint>
            <Time>2020-05-25T05:21:58.000Z</Time>
            <Position>
              <LatitudeDegrees>38.13650809228420257568359375</LatitudeDegrees>
              <LongitudeDegrees>-1.11780247651040554046630859375</LongitudeDegrees>
            </Position>
            <AltitudeMeters>145.1999969482421875</AltitudeMeters>
            <DistanceMeters>NAN</DistanceMeters>
          </Trackpoint>
          <Trackpoint>
            <Time>2020-05-25T05:21:59.000Z</Time>
            <Position>
              <LatitudeDegrees>38.13657204620540142059326171875</LatitudeDegrees>
              <LongitudeDegrees>-1.1178396083414554595947265625</LongitudeDegrees>
            </Position>
            <AltitudeMeters>145.399993896484375</AltitudeMeters>
            <DistanceMeters>NAN</DistanceMeters>
          </Trackpoint>
          <Trackpoint>
            <Time>2020-05-25T05:22:00.000Z</Time>
            <Position>
              <LatitudeDegrees>38.13663591630756855010986328125</LatitudeDegrees>
              <LongitudeDegrees>-1.11787573434412479400634765625</LongitudeDegrees>
            </Position>
            <AltitudeMeters>145.600006103515625</AltitudeMeters>
            <DistanceMeters>NAN</DistanceMeters>
          </Trackpoint>
          <Trackpoint>
            <Time>2020-05-25T05:22:01.000Z</Time>
            <Position>
              <LatitudeDegrees>38.1366990320384502410888671875</LatitudeDegrees>
              <LongitudeDegrees>-1.11791194416582584381103515625</LongitudeDegrees>
            </Position>
            <AltitudeMeters>145.8000030517578125</AltitudeMeters>
            <DistanceMeters>NAN</DistanceMeters>
          </Trackpoint>
          <Trackpoint>
            <Time>2020-05-25T05:22:02.000Z</Time>
            <Position>
              <LatitudeDegrees>38.1367617286741733551025390625</LatitudeDegrees>
              <LongitudeDegrees>-1.1179489083588123321533203125</LongitudeDegrees>
            </Position>
            <AltitudeMeters>146</AltitudeMeters>
            <DistanceMeters>NAN</DistanceMeters>
          </Trackpoint>
          <Trackpoint>
            <Time>2020-05-25T05:22:03.000Z</Time>
            <Position>
              <LatitudeDegrees>38.13682325184345245361328125</LatitudeDegrees>
              <LongitudeDegrees>-1.11798604018986225128173828125</LongitudeDegrees>
            </Position>
            <AltitudeMeters>146</AltitudeMeters>
            <DistanceMeters>NAN</DistanceMeters>
          </Trackpoint>
          <Trackpoint>
            <Time>2020-05-25T05:22:04.000Z</Time>
            <Position>
              <LatitudeDegrees>38.13688418827950954437255859375</LatitudeDegrees>
              <LongitudeDegrees>-1.1180233396589756011962890625</LongitudeDegrees>
            </Position>
            <AltitudeMeters>146.399993896484375</AltitudeMeters>
            <DistanceMeters>NAN</DistanceMeters>
          </Trackpoint>
          <Trackpoint>
            <Time>2020-05-25T05:22:05.000Z</Time>
            <Position>
              <LatitudeDegrees>38.13694520853459835052490234375</LatitudeDegrees>
              <LongitudeDegrees>-1.11806164495646953582763671875</LongitudeDegrees>
            </Position>
            <AltitudeMeters>146.399993896484375</AltitudeMeters>
            <DistanceMeters>NAN</DistanceMeters>
          </Trackpoint>
          <Trackpoint>
            <Time>2020-05-25T05:22:06.000Z</Time>
            <Position>
              <LatitudeDegrees>38.1370058096945285797119140625</LatitudeDegrees>
              <LongitudeDegrees>-1.11809919588267803192138671875</LongitudeDegrees>
            </Position>
            <AltitudeMeters>146.600006103515625</AltitudeMeters>
            <DistanceMeters>NAN</DistanceMeters>
          </Trackpoint>
          <Trackpoint>
            <Time>2020-05-25T05:22:07.000Z</Time>
            <Position>
              <LatitudeDegrees>38.137065656483173370361328125</LatitudeDegrees>
              <LongitudeDegrees>-1.11813590861856937408447265625</LongitudeDegrees>
            </Position>
            <AltitudeMeters>146.600006103515625</AltitudeMeters>
            <DistanceMeters>NAN</DistanceMeters>
          </Trackpoint>
          <Trackpoint>
            <Time>2020-05-25T05:22:08.000Z</Time>
            <Position>
              <LatitudeDegrees>38.137125335633754730224609375</LatitudeDegrees>
              <LongitudeDegrees>-1.1181711964309215545654296875</LongitudeDegrees>
            </Position>
            <AltitudeMeters>146.600006103515625</AltitudeMeters>
            <DistanceMeters>NAN</DistanceMeters>
          </Trackpoint>
          <Trackpoint>
            <Time>2020-05-25T05:22:09.000Z</Time>
            <Position>
              <LatitudeDegrees>38.13718543387949466705322265625</LatitudeDegrees>
              <LongitudeDegrees>-1.11820581369102001190185546875</LongitudeDegrees>
            </Position>
            <AltitudeMeters>146.8000030517578125</AltitudeMeters>
            <DistanceMeters>NAN</DistanceMeters>
          </Trackpoint>
          <Trackpoint>
            <Time>2020-05-25T05:22:10.000Z</Time>
            <Position>
              <LatitudeDegrees>38.137244693934917449951171875</LatitudeDegrees>
              <LongitudeDegrees>-1.11824085004627704620361328125</LongitudeDegrees>
            </Position>
            <AltitudeMeters>147</AltitudeMeters>
            <DistanceMeters>NAN</DistanceMeters>
          </Trackpoint>
          <Trackpoint>
            <Time>2020-05-25T05:22:11.000Z</Time>
            <Position>
              <LatitudeDegrees>38.1373035348951816558837890625</LatitudeDegrees>
              <LongitudeDegrees>-1.11827638931572437286376953125</LongitudeDegrees>
            </Position>
            <AltitudeMeters>147.1999969482421875</AltitudeMeters>
            <DistanceMeters>NAN</DistanceMeters>
          </Trackpoint>
          <Trackpoint>
            <Time>2020-05-25T05:22:12.000Z</Time>
            <Position>
              <LatitudeDegrees>38.1373622082173824310302734375</LatitudeDegrees>
              <LongitudeDegrees>-1.11831209622323513031005859375</LongitudeDegrees>
            </Position>
            <AltitudeMeters>147.399993896484375</AltitudeMeters>
            <DistanceMeters>NAN</DistanceMeters>
          </Trackpoint>
          <Trackpoint>
            <Time>2020-05-25T05:22:13.000Z</Time>
            <Position>
              <LatitudeDegrees>38.137421049177646636962890625</LatitudeDegrees>
              <LongitudeDegrees>-1.11834704875946044921875</LongitudeDegrees>
            </Position>
            <AltitudeMeters>147.600006103515625</AltitudeMeters>
            <DistanceMeters>NAN</DistanceMeters>
          </Trackpoint>
          <Trackpoint>
            <Time>2020-05-25T05:22:14.000Z</Time>
            <Position>
              <LatitudeDegrees>38.1374798901379108428955078125</LatitudeDegrees>
              <LongitudeDegrees>-1.11838149838149547576904296875</LongitudeDegrees>
            </Position>
            <AltitudeMeters>147.600006103515625</AltitudeMeters>
            <DistanceMeters>NAN</DistanceMeters>
          </Trackpoint>
          <Trackpoint>
            <Time>2020-05-25T05:22:15.000Z</Time>
            <Position>
              <LatitudeDegrees>38.1375378929078578948974609375</LatitudeDegrees>
              <LongitudeDegrees>-1.11841687001287937164306640625</LongitudeDegrees>
            </Position>
            <AltitudeMeters>147.8000030517578125</AltitudeMeters>
            <DistanceMeters>NAN</DistanceMeters>
          </Trackpoint>
          <Trackpoint>
            <Time>2020-05-25T05:22:16.000Z</Time>
            <Position>
              <LatitudeDegrees>38.1375963985919952392578125</LatitudeDegrees>
              <LongitudeDegrees>-1.11845291219651699066162109375</LongitudeDegrees>
            </Position>
            <AltitudeMeters>148</AltitudeMeters>
            <DistanceMeters>NAN</DistanceMeters>
          </Trackpoint>
          <Trackpoint>
            <Time>2020-05-25T05:22:17.000Z</Time>
            <Position>
              <LatitudeDegrees>38.137655071914196014404296875</LatitudeDegrees>
              <LongitudeDegrees>-1.11849046312272548675537109375</LongitudeDegrees>
            </Position>
            <AltitudeMeters>148.399993896484375</AltitudeMeters>
            <DistanceMeters>NAN</DistanceMeters>
          </Trackpoint>
          <Trackpoint>
            <Time>2020-05-25T05:22:18.000Z</Time>
            <Position>
              <LatitudeDegrees>38.13771382905542850494384765625</LatitudeDegrees>
              <LongitudeDegrees>-1.1185282655060291290283203125</LongitudeDegrees>
            </Position>
            <AltitudeMeters>148.600006103515625</AltitudeMeters>
            <DistanceMeters>NAN</DistanceMeters>
          </Trackpoint>
          <Trackpoint>
            <Time>2020-05-25T05:22:19.000Z</Time>
            <Position>
              <LatitudeDegrees>38.137773759663105010986328125</LatitudeDegrees>
              <LongitudeDegrees>-1.11856405623257160186767578125</LongitudeDegrees>
            </Position>
            <AltitudeMeters>148.600006103515625</AltitudeMeters>
            <DistanceMeters>NAN</DistanceMeters>
          </Trackpoint>
          <Trackpoint>
            <Time>2020-05-25T05:22:20.000Z</Time>
            <Position>
              <LatitudeDegrees>38.13783285208046436309814453125</LatitudeDegrees>
              <LongitudeDegrees>-1.1185996793210506439208984375</LongitudeDegrees>
            </Position>
            <AltitudeMeters>148.8000030517578125</AltitudeMeters>
            <DistanceMeters>NAN</DistanceMeters>
          </Trackpoint>
          <Trackpoint>
            <Time>2020-05-25T05:22:21.000Z</Time>
            <Position>
              <LatitudeDegrees>38.1378901004791259765625</LatitudeDegrees>
              <LongitudeDegrees>-1.11863563768565654754638671875</LongitudeDegrees>
            </Position>
            <AltitudeMeters>149</AltitudeMeters>
            <DistanceMeters>NAN</DistanceMeters>
          </Trackpoint>
          <Trackpoint>
            <Time>2020-05-25T05:22:22.000Z</Time>
            <Position>
              <LatitudeDegrees>38.13794575631618499755859375</LatitudeDegrees>
              <LongitudeDegrees>-1.1186707578599452972412109375</LongitudeDegrees>
            </Position>
            <AltitudeMeters>149.399993896484375</AltitudeMeters>
            <DistanceMeters>NAN</DistanceMeters>
          </Trackpoint>
          <Trackpoint>
            <Time>2020-05-25T05:22:23.000Z</Time>
            <Position>
              <LatitudeDegrees>38.13800132833421230316162109375</LatitudeDegrees>
              <LongitudeDegrees>-1.1187039501965045928955078125</LongitudeDegrees>
            </Position>
            <AltitudeMeters>149.8000030517578125</AltitudeMeters>
            <DistanceMeters>NAN</DistanceMeters>
          </Trackpoint>
          <Trackpoint>
            <Time>2020-05-25T05:22:24.000Z</Time>
            <Position>
              <LatitudeDegrees>38.138058073818683624267578125</LatitudeDegrees>
              <LongitudeDegrees>-1.118735969066619873046875</LongitudeDegrees>
            </Position>
            <AltitudeMeters>150</AltitudeMeters>
            <DistanceMeters>NAN</DistanceMeters>
          </Trackpoint>
          <Trackpoint>
            <Time>2020-05-25T05:22:25.000Z</Time>
            <Position>
              <LatitudeDegrees>38.13811414875090122222900390625</LatitudeDegrees>
              <LongitudeDegrees>-1.11876823939383029937744140625</LongitudeDegrees>
            </Position>
            <AltitudeMeters>150.1999969482421875</AltitudeMeters>
            <DistanceMeters>NAN</DistanceMeters>
          </Trackpoint>
          <Trackpoint>
            <Time>2020-05-25T05:22:26.000Z</Time>
            <Position>
              <LatitudeDegrees>38.1381702236831188201904296875</LatitudeDegrees>
              <LongitudeDegrees>-1.118800342082977294921875</LongitudeDegrees>
            </Position>
            <AltitudeMeters>150.399993896484375</AltitudeMeters>
            <DistanceMeters>NAN</DistanceMeters>
          </Trackpoint>
          <Trackpoint>
            <Time>2020-05-25T05:22:27.000Z</Time>
            <Position>
              <LatitudeDegrees>38.1382265500724315643310546875</LatitudeDegrees>
              <LongitudeDegrees>-1.1188310198485851287841796875</LongitudeDegrees>
            </Position>
            <AltitudeMeters>150.600006103515625</AltitudeMeters>
            <DistanceMeters>NAN</DistanceMeters>
          </Trackpoint>
          <Trackpoint>
            <Time>2020-05-25T05:22:28.000Z</Time>
            <Position>
              <LatitudeDegrees>38.13828245736658573150634765625</LatitudeDegrees>
              <LongitudeDegrees>-1.11886178143322467803955078125</LongitudeDegrees>
            </Position>
            <AltitudeMeters>150.8000030517578125</AltitudeMeters>
            <DistanceMeters>NAN</DistanceMeters>
          </Trackpoint>
          <Trackpoint>
            <Time>2020-05-25T05:22:29.000Z</Time>
            <Position>
              <LatitudeDegrees>38.13833828084170818328857421875</LatitudeDegrees>
              <LongitudeDegrees>-1.11889329738914966583251953125</LongitudeDegrees>
            </Position>
            <AltitudeMeters>151</AltitudeMeters>
            <DistanceMeters>NAN</DistanceMeters>
          </Trackpoint>
          <Trackpoint>
            <Time>2020-05-25T05:22:30.000Z</Time>
            <Position>
              <LatitudeDegrees>38.138394020497798919677734375</LatitudeDegrees>
              <LongitudeDegrees>-1.1189252324402332305908203125</LongitudeDegrees>
            </Position>
            <AltitudeMeters>151.399993896484375</AltitudeMeters>
            <DistanceMeters>NAN</DistanceMeters>
          </Trackpoint>
          <Trackpoint>
            <Time>2020-05-25T05:22:31.000Z</Time>
            <Position>
              <LatitudeDegrees>38.13844942487776279449462890625</LatitudeDegrees>
              <LongitudeDegrees>-1.1189577542245388031005859375</LongitudeDegrees>
            </Position>
            <AltitudeMeters>151.600006103515625</AltitudeMeters>
            <DistanceMeters>NAN</DistanceMeters>
          </Trackpoint>
          <Trackpoint>
            <Time>2020-05-25T05:22:32.000Z</Time>
            <Position>
              <LatitudeDegrees>38.1385038234293460845947265625</LatitudeDegrees>
              <LongitudeDegrees>-1.118991784751415252685546875</LongitudeDegrees>
            </Position>
            <AltitudeMeters>151.600006103515625</AltitudeMeters>
            <DistanceMeters>NAN</DistanceMeters>
          </Trackpoint>
          <Trackpoint>
            <Time>2020-05-25T05:22:33.000Z</Time>
            <Position>
              <LatitudeDegrees>38.1385581381618976593017578125</LatitudeDegrees>
              <LongitudeDegrees>-1.11902573145925998687744140625</LongitudeDegrees>
            </Position>
            <AltitudeMeters>151.8000030517578125</AltitudeMeters>
            <DistanceMeters>NAN</DistanceMeters>
          </Trackpoint>
          <Trackpoint>
            <Time>2020-05-25T05:22:34.000Z</Time>
            <Position>
              <LatitudeDegrees>38.1386124528944492340087890625</LatitudeDegrees>
              <LongitudeDegrees>-1.11905892379581928253173828125</LongitudeDegrees>
            </Position>
            <AltitudeMeters>152</AltitudeMeters>
            <DistanceMeters>NAN</DistanceMeters>
          </Trackpoint>
          <Trackpoint>
            <Time>2020-05-25T05:22:35.000Z</Time>
            <Position>
              <LatitudeDegrees>38.13866634853184223175048828125</LatitudeDegrees>
              <LongitudeDegrees>-1.11909194849431514739990234375</LongitudeDegrees>
            </Position>
            <AltitudeMeters>152.1999969482421875</AltitudeMeters>
            <DistanceMeters>NAN</DistanceMeters>
          </Trackpoint>
          <Trackpoint>
            <Time>2020-05-25T05:22:36.000Z</Time>
            <Position>
              <LatitudeDegrees>38.13872016035020351409912109375</LatitudeDegrees>
              <LongitudeDegrees>-1.11912480555474758148193359375</LongitudeDegrees>
            </Position>
            <AltitudeMeters>152.1999969482421875</AltitudeMeters>
            <DistanceMeters>NAN</DistanceMeters>
          </Trackpoint>
          <Trackpoint>
            <Time>2020-05-25T05:22:37.000Z</Time>
            <Position>
              <LatitudeDegrees>38.13877397216856479644775390625</LatitudeDegrees>
              <LongitudeDegrees>-1.11915682442486286163330078125</LongitudeDegrees>
            </Position>
            <AltitudeMeters>152.399993896484375</AltitudeMeters>
            <DistanceMeters>NAN</DistanceMeters>
          </Trackpoint>
          <Trackpoint>
            <Time>2020-05-25T05:22:38.000Z</Time>
            <Position>
              <LatitudeDegrees>38.13882811926305294036865234375</LatitudeDegrees>
              <LongitudeDegrees>-1.11918750219047069549560546875</LongitudeDegrees>
            </Position>
            <AltitudeMeters>152.600006103515625</AltitudeMeters>
            <DistanceMeters>NAN</DistanceMeters>
          </Trackpoint>
          <Trackpoint>
            <Time>2020-05-25T05:22:39.000Z</Time>
            <Position>
              <LatitudeDegrees>38.1388823501765727996826171875</LatitudeDegrees>
              <LongitudeDegrees>-1.1192189343273639678955078125</LongitudeDegrees>
            </Position>
            <AltitudeMeters>152.8000030517578125</AltitudeMeters>
            <DistanceMeters>NAN</DistanceMeters>
          </Trackpoint>
          <Trackpoint>
            <Time>2020-05-25T05:22:40.000Z</Time>
            <Position>
              <LatitudeDegrees>38.13893641345202922821044921875</LatitudeDegrees>
              <LongitudeDegrees>-1.11925086937844753265380859375</LongitudeDegrees>
            </Position>
            <AltitudeMeters>153</AltitudeMeters>
            <DistanceMeters>NAN</DistanceMeters>
          </Trackpoint>
          <Trackpoint>
            <Time>2020-05-25T05:22:41.000Z</Time>
            <Position>
              <LatitudeDegrees>38.13898980617523193359375</LatitudeDegrees>
              <LongitudeDegrees>-1.11928355880081653594970703125</LongitudeDegrees>
            </Position>
            <AltitudeMeters>153</AltitudeMeters>
            <DistanceMeters>NAN</DistanceMeters>
          </Trackpoint>
          <Trackpoint>
            <Time>2020-05-25T05:22:42.000Z</Time>
            <Position>
              <LatitudeDegrees>38.1390436179935932159423828125</LatitudeDegrees>
              <LongitudeDegrees>-1.1193154938519001007080078125</LongitudeDegrees>
            </Position>
            <AltitudeMeters>153.1999969482421875</AltitudeMeters>
            <DistanceMeters>NAN</DistanceMeters>
          </Trackpoint>
          <Trackpoint>
            <Time>2020-05-25T05:22:43.000Z</Time>
            <Position>
              <LatitudeDegrees>38.1390979327261447906494140625</LatitudeDegrees>
              <LongitudeDegrees>-1.11934684216976165771484375</LongitudeDegrees>
            </Position>
            <AltitudeMeters>153.399993896484375</AltitudeMeters>
            <DistanceMeters>NAN</DistanceMeters>
          </Trackpoint>
          <Trackpoint>
            <Time>2020-05-25T05:22:44.000Z</Time>
            <Position>
              <LatitudeDegrees>38.139152415096759796142578125</LatitudeDegrees>
              <LongitudeDegrees>-1.1193783581256866455078125</LongitudeDegrees>
            </Position>
            <AltitudeMeters>153.600006103515625</AltitudeMeters>
            <DistanceMeters>NAN</DistanceMeters>
          </Trackpoint>
          <Trackpoint>
            <Time>2020-05-25T05:22:45.000Z</Time>
            <Position>
              <LatitudeDegrees>38.13920647837221622467041015625</LatitudeDegrees>
              <LongitudeDegrees>-1.11941062845289707183837890625</LongitudeDegrees>
            </Position>
            <AltitudeMeters>153.8000030517578125</AltitudeMeters>
            <DistanceMeters>NAN</DistanceMeters>
          </Trackpoint>
          <Trackpoint>
            <Time>2020-05-25T05:22:46.000Z</Time>
            <Position>
              <LatitudeDegrees>38.1392608769237995147705078125</LatitudeDegrees>
              <LongitudeDegrees>-1.1194427311420440673828125</LongitudeDegrees>
            </Position>
            <AltitudeMeters>153.8000030517578125</AltitudeMeters>
            <DistanceMeters>NAN</DistanceMeters>
          </Trackpoint>
          <Trackpoint>
            <Time>2020-05-25T05:22:47.000Z</Time>
            <Position>
              <LatitudeDegrees>38.13931502401828765869140625</LatitudeDegrees>
              <LongitudeDegrees>-1.11947483383119106292724609375</LongitudeDegrees>
            </Position>
            <AltitudeMeters>154</AltitudeMeters>
            <DistanceMeters>NAN</DistanceMeters>
          </Trackpoint>
          <Trackpoint>
            <Time>2020-05-25T05:22:48.000Z</Time>
            <Position>
              <LatitudeDegrees>38.1393695063889026641845703125</LatitudeDegrees>
              <LongitudeDegrees>-1.119507439434528350830078125</LongitudeDegrees>
            </Position>
            <AltitudeMeters>154.1999969482421875</AltitudeMeters>
            <DistanceMeters>NAN</DistanceMeters>
          </Trackpoint>
          <Trackpoint>
            <Time>2020-05-25T05:22:49.000Z</Time>
            <Position>
              <LatitudeDegrees>38.13942432403564453125</LatitudeDegrees>
              <LongitudeDegrees>-1.11954021267592906951904296875</LongitudeDegrees>
            </Position>
            <AltitudeMeters>154.1999969482421875</AltitudeMeters>
            <DistanceMeters>NAN</DistanceMeters>
          </Trackpoint>
          <Trackpoint>
            <Time>2020-05-25T05:22:50.000Z</Time>
            <Position>
              <LatitudeDegrees>38.1394788064062595367431640625</LatitudeDegrees>
              <LongitudeDegrees>-1.1195739917457103729248046875</LongitudeDegrees>
            </Position>
            <AltitudeMeters>154.399993896484375</AltitudeMeters>
            <DistanceMeters>NAN</DistanceMeters>
          </Trackpoint>
          <Trackpoint>
            <Time>2020-05-25T05:22:51.000Z</Time>
            <Position>
              <LatitudeDegrees>38.139533288776874542236328125</LatitudeDegrees>
              <LongitudeDegrees>-1.11960701644420623779296875</LongitudeDegrees>
            </Position>
            <AltitudeMeters>154.600006103515625</AltitudeMeters>
            <DistanceMeters>NAN</DistanceMeters>
          </Trackpoint>
          <Trackpoint>
            <Time>2020-05-25T05:22:52.000Z</Time>
            <Position>
              <LatitudeDegrees>38.13958835788071155548095703125</LatitudeDegrees>
              <LongitudeDegrees>-1.1196387000381946563720703125</LongitudeDegrees>
            </Position>
            <AltitudeMeters>154.8000030517578125</AltitudeMeters>
            <DistanceMeters>NAN</DistanceMeters>
          </Trackpoint>
          <Trackpoint>
            <Time>2020-05-25T05:22:53.000Z</Time>
            <Position>
              <LatitudeDegrees>38.139643259346485137939453125</LatitudeDegrees>
              <LongitudeDegrees>-1.11966962926089763641357421875</LongitudeDegrees>
            </Position>
            <AltitudeMeters>154.8000030517578125</AltitudeMeters>
            <DistanceMeters>NAN</DistanceMeters>
          </Trackpoint>
          <Trackpoint>
            <Time>2020-05-25T05:22:54.000Z</Time>
            <Position>
              <LatitudeDegrees>38.139697574079036712646484375</LatitudeDegrees>
              <LongitudeDegrees>-1.1197024025022983551025390625</LongitudeDegrees>
            </Position>
            <AltitudeMeters>155</AltitudeMeters>
            <DistanceMeters>NAN</DistanceMeters>
          </Trackpoint>
          <Trackpoint>
            <Time>2020-05-25T05:22:55.000Z</Time>
            <Position>
              <LatitudeDegrees>38.13975230790674686431884765625</LatitudeDegrees>
              <LongitudeDegrees>-1.11973685212433338165283203125</LongitudeDegrees>
            </Position>
            <AltitudeMeters>155.1999969482421875</AltitudeMeters>
            <DistanceMeters>NAN</DistanceMeters>
          </Trackpoint>
          <Trackpoint>
            <Time>2020-05-25T05:22:56.000Z</Time>
            <Position>
              <LatitudeDegrees>38.1398065388202667236328125</LatitudeDegrees>
              <LongitudeDegrees>-1.11977063119411468505859375</LongitudeDegrees>
            </Position>
            <AltitudeMeters>155.1999969482421875</AltitudeMeters>
            <DistanceMeters>NAN</DistanceMeters>
          </Trackpoint>
          <Trackpoint>
            <Time>2020-05-25T05:22:57.000Z</Time>
            <Position>
              <LatitudeDegrees>38.1398603506386280059814453125</LatitudeDegrees>
              <LongitudeDegrees>-1.11980441026389598846435546875</LongitudeDegrees>
            </Position>
            <AltitudeMeters>155.399993896484375</AltitudeMeters>
            <DistanceMeters>NAN</DistanceMeters>
          </Trackpoint>
          <Trackpoint>
            <Time>2020-05-25T05:22:58.000Z</Time>
            <Position>
              <LatitudeDegrees>38.139914162456989288330078125</LatitudeDegrees>
              <LongitudeDegrees>-1.11983743496239185333251953125</LongitudeDegrees>
            </Position>
            <AltitudeMeters>155.600006103515625</AltitudeMeters>
            <DistanceMeters>NAN</DistanceMeters>
          </Trackpoint>
          <Trackpoint>
            <Time>2020-05-25T05:22:59.000Z</Time>
            <Position>
              <LatitudeDegrees>38.13996805809438228607177734375</LatitudeDegrees>
              <LongitudeDegrees>-1.119869537651538848876953125</LongitudeDegrees>
            </Position>
            <AltitudeMeters>155.600006103515625</AltitudeMeters>
            <DistanceMeters>NAN</DistanceMeters>
          </Trackpoint>
          <Trackpoint>
            <Time>2020-05-25T05:23:00.000Z</Time>
            <Position>
              <LatitudeDegrees>38.14002237282693386077880859375</LatitudeDegrees>
              <LongitudeDegrees>-1.11990197561681270599365234375</LongitudeDegrees>
            </Position>
            <AltitudeMeters>155.8000030517578125</AltitudeMeters>
            <DistanceMeters>NAN</DistanceMeters>
          </Trackpoint>
          <Trackpoint>
            <Time>2020-05-25T05:23:01.000Z</Time>
            <Position>
              <LatitudeDegrees>38.14007702283561229705810546875</LatitudeDegrees>
              <LongitudeDegrees>-1.11993290483951568603515625</LongitudeDegrees>
            </Position>
            <AltitudeMeters>156</AltitudeMeters>
            <DistanceMeters>NAN</DistanceMeters>
          </Trackpoint>
          <Trackpoint>
            <Time>2020-05-25T05:23:02.000Z</Time>
            <Position>
              <LatitudeDegrees>38.1401312537491321563720703125</LatitudeDegrees>
              <LongitudeDegrees>-1.11996333114802837371826171875</LongitudeDegrees>
            </Position>
            <AltitudeMeters>156</AltitudeMeters>
            <DistanceMeters>NAN</DistanceMeters>
          </Trackpoint>
          <Trackpoint>
            <Time>2020-05-25T05:23:03.000Z</Time>
            <Position>
              <LatitudeDegrees>38.1401847302913665771484375</LatitudeDegrees>
              <LongitudeDegrees>-1.11999459564685821533203125</LongitudeDegrees>
            </Position>
            <AltitudeMeters>156.1999969482421875</AltitudeMeters>
            <DistanceMeters>NAN</DistanceMeters>
          </Trackpoint>
          <Trackpoint>
            <Time>2020-05-25T05:23:04.000Z</Time>
            <Position>
              <LatitudeDegrees>38.14023795537650585174560546875</LatitudeDegrees>
              <LongitudeDegrees>-1.120025776326656341552734375</LongitudeDegrees>
            </Position>
            <AltitudeMeters>156.399993896484375</AltitudeMeters>
            <DistanceMeters>NAN</DistanceMeters>
          </Trackpoint>
          <Trackpoint>
            <Time>2020-05-25T05:23:05.000Z</Time>
            <Position>
              <LatitudeDegrees>38.14029025845229625701904296875</LatitudeDegrees>
              <LongitudeDegrees>-1.1200571246445178985595703125</LongitudeDegrees>
            </Position>
            <AltitudeMeters>156.399993896484375</AltitudeMeters>
            <DistanceMeters>NAN</DistanceMeters>
          </Trackpoint>
          <Trackpoint>
            <Time>2020-05-25T05:23:06.000Z</Time>
            <Position>
              <LatitudeDegrees>38.14034256152808666229248046875</LatitudeDegrees>
              <LongitudeDegrees>-1.12008905969560146331787109375</LongitudeDegrees>
            </Position>
            <AltitudeMeters>156.600006103515625</AltitudeMeters>
            <DistanceMeters>NAN</DistanceMeters>
          </Trackpoint>
          <Trackpoint>
            <Time>2020-05-25T05:23:07.000Z</Time>
            <Position>
              <LatitudeDegrees>38.1403944455087184906005859375</LatitudeDegrees>
              <LongitudeDegrees>-1.1201211623847484588623046875</LongitudeDegrees>
            </Position>
            <AltitudeMeters>156.600006103515625</AltitudeMeters>
            <DistanceMeters>NAN</DistanceMeters>
          </Trackpoint>
          <Trackpoint>
            <Time>2020-05-25T05:23:08.000Z</Time>
            <Position>
              <LatitudeDegrees>38.140447251498699188232421875</LatitudeDegrees>
              <LongitudeDegrees>-1.12015225924551486968994140625</LongitudeDegrees>
            </Position>
            <AltitudeMeters>156.8000030517578125</AltitudeMeters>
            <DistanceMeters>NAN</DistanceMeters>
          </Trackpoint>
          <Trackpoint>
            <Time>2020-05-25T05:23:09.000Z</Time>
            <Position>
              <LatitudeDegrees>38.14049980603158473968505859375</LatitudeDegrees>
              <LongitudeDegrees>-1.1201830208301544189453125</LongitudeDegrees>
            </Position>
            <AltitudeMeters>156.8000030517578125</AltitudeMeters>
            <DistanceMeters>NAN</DistanceMeters>
          </Trackpoint>
          <Trackpoint>
            <Time>2020-05-25T05:23:10.000Z</Time>
            <Position>
              <LatitudeDegrees>38.14055210910737514495849609375</LatitudeDegrees>
              <LongitudeDegrees>-1.1202152073383331298828125</LongitudeDegrees>
            </Position>
            <AltitudeMeters>156.8000030517578125</AltitudeMeters>
            <DistanceMeters>NAN</DistanceMeters>
          </Trackpoint>
          <Trackpoint>
            <Time>2020-05-25T05:23:11.000Z</Time>
            <Position>
              <LatitudeDegrees>38.14060424454510211944580078125</LatitudeDegrees>
              <LongitudeDegrees>-1.12024672329425811767578125</LongitudeDegrees>
            </Position>
            <AltitudeMeters>157</AltitudeMeters>
            <DistanceMeters>NAN</DistanceMeters>
          </Trackpoint>
          <Trackpoint>
            <Time>2020-05-25T05:23:12.000Z</Time>
            <Position>
              <LatitudeDegrees>38.1406562961637973785400390625</LatitudeDegrees>
              <LongitudeDegrees>-1.12027899362146854400634765625</LongitudeDegrees>
            </Position>
            <AltitudeMeters>157.1999969482421875</AltitudeMeters>
            <DistanceMeters>NAN</DistanceMeters>
          </Trackpoint>
          <Trackpoint>
            <Time>2020-05-25T05:23:13.000Z</Time>
            <Position>
              <LatitudeDegrees>38.1407085992395877838134765625</LatitudeDegrees>
              <LongitudeDegrees>-1.12031042575836181640625</LongitudeDegrees>
            </Position>
            <AltitudeMeters>157.399993896484375</AltitudeMeters>
            <DistanceMeters>NAN</DistanceMeters>
          </Trackpoint>
          <Trackpoint>
            <Time>2020-05-25T05:23:14.000Z</Time>
            <Position>
              <LatitudeDegrees>38.140761740505695343017578125</LatitudeDegrees>
              <LongitudeDegrees>-1.12034034915268421173095703125</LongitudeDegrees>
            </Position>
            <AltitudeMeters>157.600006103515625</AltitudeMeters>
            <DistanceMeters>NAN</DistanceMeters>
          </Trackpoint>
          <Trackpoint>
            <Time>2020-05-25T05:23:15.000Z</Time>
            <Position>
              <LatitudeDegrees>38.14081412740051746368408203125</LatitudeDegrees>
              <LongitudeDegrees>-1.12037169747054576873779296875</LongitudeDegrees>
            </Position>
            <AltitudeMeters>157.8000030517578125</AltitudeMeters>
            <DistanceMeters>NAN</DistanceMeters>
          </Trackpoint>
          <Trackpoint>
            <Time>2020-05-25T05:23:16.000Z</Time>
            <Position>
              <LatitudeDegrees>38.14086559228599071502685546875</LatitudeDegrees>
              <LongitudeDegrees>-1.1204034648835659027099609375</LongitudeDegrees>
            </Position>
            <AltitudeMeters>157.8000030517578125</AltitudeMeters>
            <DistanceMeters>NAN</DistanceMeters>
          </Trackpoint>
          <Trackpoint>
            <Time>2020-05-25T05:23:17.000Z</Time>
            <Position>
              <LatitudeDegrees>38.1409168057143688201904296875</LatitudeDegrees>
              <LongitudeDegrees>-1.12043422646820545196533203125</LongitudeDegrees>
            </Position>
            <AltitudeMeters>158</AltitudeMeters>
            <DistanceMeters>NAN</DistanceMeters>
          </Trackpoint>
          <Trackpoint>
            <Time>2020-05-25T05:23:18.000Z</Time>
            <Position>
              <LatitudeDegrees>38.1409674324095249176025390625</LatitudeDegrees>
              <LongitudeDegrees>-1.12046406604349613189697265625</LongitudeDegrees>
            </Position>
            <AltitudeMeters>158</AltitudeMeters>
            <DistanceMeters>NAN</DistanceMeters>
          </Trackpoint>
          <Trackpoint>
            <Time>2020-05-25T05:23:19.000Z</Time>
            <Position>
              <LatitudeDegrees>38.141017891466617584228515625</LatitudeDegrees>
              <LongitudeDegrees>-1.12049348652362823486328125</LongitudeDegrees>
            </Position>
            <AltitudeMeters>158.1999969482421875</AltitudeMeters>
            <DistanceMeters>NAN</DistanceMeters>
          </Trackpoint>
          <Trackpoint>
            <Time>2020-05-25T05:23:20.000Z</Time>
            <Position>
              <LatitudeDegrees>38.14106742851436138153076171875</LatitudeDegrees>
              <LongitudeDegrees>-1.12052357755601406097412109375</LongitudeDegrees>
            </Position>
            <AltitudeMeters>158.399993896484375</AltitudeMeters>
            <DistanceMeters>NAN</DistanceMeters>
          </Trackpoint>
          <Trackpoint>
            <Time>2020-05-25T05:23:21.000Z</Time>
            <Position>
              <LatitudeDegrees>38.141115792095661163330078125</LatitudeDegrees>
              <LongitudeDegrees>-1.12055425532162189483642578125</LongitudeDegrees>
            </Position>
            <AltitudeMeters>158.600006103515625</AltitudeMeters>
            <DistanceMeters>NAN</DistanceMeters>
          </Trackpoint>
          <Trackpoint>
            <Time>2020-05-25T05:23:22.000Z</Time>
            <Position>
              <LatitudeDegrees>38.14116398803889751434326171875</LatitudeDegrees>
              <LongitudeDegrees>-1.12058510072529315948486328125</LongitudeDegrees>
            </Position>
            <AltitudeMeters>158.8000030517578125</AltitudeMeters>
            <DistanceMeters>NAN</DistanceMeters>
          </Trackpoint>
          <Trackpoint>
            <Time>2020-05-25T05:23:23.000Z</Time>
            <Position>
              <LatitudeDegrees>38.141213022172451019287109375</LatitudeDegrees>
              <LongitudeDegrees>-1.1206130124628543853759765625</LongitudeDegrees>
            </Position>
            <AltitudeMeters>159</AltitudeMeters>
            <DistanceMeters>NAN</DistanceMeters>
          </Trackpoint>
          <Trackpoint>
            <Time>2020-05-25T05:23:24.000Z</Time>
            <Position>
              <LatitudeDegrees>38.141261972486972808837890625</LatitudeDegrees>
              <LongitudeDegrees>-1.120640337467193603515625</LongitudeDegrees>
            </Position>
            <AltitudeMeters>159.1999969482421875</AltitudeMeters>
            <DistanceMeters>NAN</DistanceMeters>
          </Trackpoint>
          <Trackpoint>
            <Time>2020-05-25T05:23:25.000Z</Time>
            <Position>
              <LatitudeDegrees>38.1413112580776214599609375</LatitudeDegrees>
              <LongitudeDegrees>-1.12066674046218395233154296875</LongitudeDegrees>
            </Position>
            <AltitudeMeters>159.399993896484375</AltitudeMeters>
            <DistanceMeters>NAN</DistanceMeters>
          </Trackpoint>
          <Trackpoint>
            <Time>2020-05-25T05:23:26.000Z</Time>
            <Position>
              <LatitudeDegrees>38.14135995693504810333251953125</LatitudeDegrees>
              <LongitudeDegrees>-1.120694316923618316650390625</LongitudeDegrees>
            </Position>
            <AltitudeMeters>159.600006103515625</AltitudeMeters>
            <DistanceMeters>NAN</DistanceMeters>
          </Trackpoint>
          <Trackpoint>
            <Time>2020-05-25T05:23:27.000Z</Time>
            <Position>
              <LatitudeDegrees>38.1414079852402210235595703125</LatitudeDegrees>
              <LongitudeDegrees>-1.12072407267987728118896484375</LongitudeDegrees>
            </Position>
            <AltitudeMeters>159.8000030517578125</AltitudeMeters>
            <DistanceMeters>NAN</DistanceMeters>
          </Trackpoint>
          <Trackpoint>
            <Time>2020-05-25T05:23:28.000Z</Time>
            <Position>
              <LatitudeDegrees>38.14145584590733051300048828125</LatitudeDegrees>
              <LongitudeDegrees>-1.12075391225516796112060546875</LongitudeDegrees>
            </Position>
            <AltitudeMeters>160</AltitudeMeters>
            <DistanceMeters>NAN</DistanceMeters>
          </Trackpoint>
          <Trackpoint>
            <Time>2020-05-25T05:23:29.000Z</Time>
            <Position>
              <LatitudeDegrees>38.14150295220315456390380859375</LatitudeDegrees>
              <LongitudeDegrees>-1.120782829821109771728515625</LongitudeDegrees>
            </Position>
            <AltitudeMeters>160.1999969482421875</AltitudeMeters>
            <DistanceMeters>NAN</DistanceMeters>
          </Trackpoint>
          <Trackpoint>
            <Time>2020-05-25T05:23:30.000Z</Time>
            <Position>
              <LatitudeDegrees>38.14155022613704204559326171875</LatitudeDegrees>
              <LongitudeDegrees>-1.12081141211092472076416015625</LongitudeDegrees>
            </Position>
            <AltitudeMeters>160.399993896484375</AltitudeMeters>
            <DistanceMeters>NAN</DistanceMeters>
          </Trackpoint>
          <Trackpoint>
            <Time>2020-05-25T05:23:31.000Z</Time>
            <Position>
              <LatitudeDegrees>38.1415977515280246734619140625</LatitudeDegrees>
              <LongitudeDegrees>-1.12083840183913707733154296875</LongitudeDegrees>
            </Position>
            <AltitudeMeters>160.600006103515625</AltitudeMeters>
            <DistanceMeters>NAN</DistanceMeters>
          </Trackpoint>
          <Trackpoint>
            <Time>2020-05-25T05:23:32.000Z</Time>
            <Position>
              <LatitudeDegrees>38.14164477400481700897216796875</LatitudeDegrees>
              <LongitudeDegrees>-1.12086639739573001861572265625</LongitudeDegrees>
            </Position>
            <AltitudeMeters>161</AltitudeMeters>
            <DistanceMeters>NAN</DistanceMeters>
          </Trackpoint>
          <Trackpoint>
            <Time>2020-05-25T05:23:33.000Z</Time>
            <Position>
              <LatitudeDegrees>38.14169104211032390594482421875</LatitudeDegrees>
              <LongitudeDegrees>-1.1208959855139255523681640625</LongitudeDegrees>
            </Position>
            <AltitudeMeters>161.1999969482421875</AltitudeMeters>
            <DistanceMeters>NAN</DistanceMeters>
          </Trackpoint>
          <Trackpoint>
            <Time>2020-05-25T05:23:34.000Z</Time>
            <Position>
              <LatitudeDegrees>38.14173781313002109527587890625</LatitudeDegrees>
              <LongitudeDegrees>-1.12092440016567707061767578125</LongitudeDegrees>
            </Position>
            <AltitudeMeters>161.399993896484375</AltitudeMeters>
            <DistanceMeters>NAN</DistanceMeters>
          </Trackpoint>
          <Trackpoint>
            <Time>2020-05-25T05:23:35.000Z</Time>
            <Position>
              <LatitudeDegrees>38.14178408123552799224853515625</LatitudeDegrees>
              <LongitudeDegrees>-1.1209519766271114349365234375</LongitudeDegrees>
            </Position>
            <AltitudeMeters>161.8000030517578125</AltitudeMeters>
            <DistanceMeters>NAN</DistanceMeters>
          </Trackpoint>
          <Trackpoint>
            <Time>2020-05-25T05:23:36.000Z</Time>
            <Position>
              <LatitudeDegrees>38.14183051697909832000732421875</LatitudeDegrees>
              <LongitudeDegrees>-1.1209794692695140838623046875</LongitudeDegrees>
            </Position>
            <AltitudeMeters>162</AltitudeMeters>
            <DistanceMeters>NAN</DistanceMeters>
          </Trackpoint>
          <Trackpoint>
            <Time>2020-05-25T05:23:37.000Z</Time>
            <Position>
              <LatitudeDegrees>38.14187653362751007080078125</LatitudeDegrees>
              <LongitudeDegrees>-1.12100788392126560211181640625</LongitudeDegrees>
            </Position>
            <AltitudeMeters>162.1999969482421875</AltitudeMeters>
            <DistanceMeters>NAN</DistanceMeters>
          </Trackpoint>
          <Trackpoint>
            <Time>2020-05-25T05:23:38.000Z</Time>
            <Position>
              <LatitudeDegrees>38.14192238263785839080810546875</LatitudeDegrees>
              <LongitudeDegrees>-1.12103621475398540496826171875</LongitudeDegrees>
            </Position>
            <AltitudeMeters>162.600006103515625</AltitudeMeters>
            <DistanceMeters>NAN</DistanceMeters>
          </Trackpoint>
          <Trackpoint>
            <Time>2020-05-25T05:23:39.000Z</Time>
            <Position>
              <LatitudeDegrees>38.14196814782917499542236328125</LatitudeDegrees>
              <LongitudeDegrees>-1.12106387503445148468017578125</LongitudeDegrees>
            </Position>
            <AltitudeMeters>162.8000030517578125</AltitudeMeters>
            <DistanceMeters>NAN</DistanceMeters>
          </Trackpoint>
          <Trackpoint>
            <Time>2020-05-25T05:23:40.000Z</Time>
            <Position>
              <LatitudeDegrees>38.1420138292014598846435546875</LatitudeDegrees>
              <LongitudeDegrees>-1.12109136767685413360595703125</LongitudeDegrees>
            </Position>
            <AltitudeMeters>163</AltitudeMeters>
            <DistanceMeters>NAN</DistanceMeters>
          </Trackpoint>
          <Trackpoint>
            <Time>2020-05-25T05:23:41.000Z</Time>
            <Position>
              <LatitudeDegrees>38.142059259116649627685546875</LatitudeDegrees>
              <LongitudeDegrees>-1.1211192794144153594970703125</LongitudeDegrees>
            </Position>
            <AltitudeMeters>163.1999969482421875</AltitudeMeters>
            <DistanceMeters>NAN</DistanceMeters>
          </Trackpoint>
          <Trackpoint>
            <Time>2020-05-25T05:23:42.000Z</Time>
            <Position>
              <LatitudeDegrees>38.14210611395537853240966796875</LatitudeDegrees>
              <LongitudeDegrees>-1.12114769406616687774658203125</LongitudeDegrees>
            </Position>
            <AltitudeMeters>163.399993896484375</AltitudeMeters>
            <DistanceMeters>NAN</DistanceMeters>
          </Trackpoint>
          <Trackpoint>
            <Time>2020-05-25T05:23:43.000Z</Time>
            <Position>
              <LatitudeDegrees>38.14215489663183689117431640625</LatitudeDegrees>
              <LongitudeDegrees>-1.121175773441791534423828125</LongitudeDegrees>
            </Position>
            <AltitudeMeters>163.600006103515625</AltitudeMeters>
            <DistanceMeters>NAN</DistanceMeters>
          </Trackpoint>
          <Trackpoint>
            <Time>2020-05-25T05:23:44.000Z</Time>
            <Position>
              <LatitudeDegrees>38.1422069482505321502685546875</LatitudeDegrees>
              <LongitudeDegrees>-1.12120552919805049896240234375</LongitudeDegrees>
            </Position>
            <AltitudeMeters>164</AltitudeMeters>
            <DistanceMeters>NAN</DistanceMeters>
          </Trackpoint>
          <Trackpoint>
            <Time>2020-05-25T05:23:45.000Z</Time>
            <Position>
              <LatitudeDegrees>38.1422632746398448944091796875</LatitudeDegrees>
              <LongitudeDegrees>-1.1212372966110706329345703125</LongitudeDegrees>
            </Position>
            <AltitudeMeters>164</AltitudeMeters>
            <DistanceMeters>NAN</DistanceMeters>
          </Trackpoint>
          <Trackpoint>
            <Time>2020-05-25T05:23:46.000Z</Time>
            <Position>
              <LatitudeDegrees>38.142323791980743408203125</LatitudeDegrees>
              <LongitudeDegrees>-1.12127107568085193634033203125</LongitudeDegrees>
            </Position>
            <AltitudeMeters>164.399993896484375</AltitudeMeters>
            <DistanceMeters>NAN</DistanceMeters>
          </Trackpoint>
          <Trackpoint>
            <Time>2020-05-25T05:23:47.000Z</Time>
            <Position>
              <LatitudeDegrees>38.1423869915306568145751953125</LatitudeDegrees>
              <LongitudeDegrees>-1.1213070340454578399658203125</LongitudeDegrees>
            </Position>
            <AltitudeMeters>164.399993896484375</AltitudeMeters>
            <DistanceMeters>NAN</DistanceMeters>
          </Trackpoint>
          <Trackpoint>
            <Time>2020-05-25T05:23:48.000Z</Time>
            <Position>
              <LatitudeDegrees>38.1424523703753948211669921875</LatitudeDegrees>
              <LongitudeDegrees>-1.12134533934295177459716796875</LongitudeDegrees>
            </Position>
            <AltitudeMeters>164.600006103515625</AltitudeMeters>
            <DistanceMeters>NAN</DistanceMeters>
          </Trackpoint>
          <Trackpoint>
            <Time>2020-05-25T05:23:49.000Z</Time>
            <Position>
              <LatitudeDegrees>38.14251959323883056640625</LatitudeDegrees>
              <LongitudeDegrees>-1.121386997401714324951171875</LongitudeDegrees>
            </Position>
            <AltitudeMeters>164.600006103515625</AltitudeMeters>
            <DistanceMeters>NAN</DistanceMeters>
          </Trackpoint>
          <Trackpoint>
            <Time>2020-05-25T05:23:50.000Z</Time>
            <Position>
              <LatitudeDegrees>38.1425879895687103271484375</LatitudeDegrees>
              <LongitudeDegrees>-1.1214320920407772064208984375</LongitudeDegrees>
            </Position>
            <AltitudeMeters>164.600006103515625</AltitudeMeters>
            <DistanceMeters>NAN</DistanceMeters>
          </Trackpoint>
          <Trackpoint>
            <Time>2020-05-25T05:23:51.000Z</Time>
            <Position>
              <LatitudeDegrees>38.14265781082212924957275390625</LatitudeDegrees>
              <LongitudeDegrees>-1.12147676758468151092529296875</LongitudeDegrees>
            </Position>
            <AltitudeMeters>164.600006103515625</AltitudeMeters>
            <DistanceMeters>NAN</DistanceMeters>
          </Trackpoint>
          <Trackpoint>
            <Time>2020-05-25T05:23:52.000Z</Time>
            <Position>
              <LatitudeDegrees>38.14272955991327762603759765625</LatitudeDegrees>
              <LongitudeDegrees>-1.1215182580053806304931640625</LongitudeDegrees>
            </Position>
            <AltitudeMeters>164.600006103515625</AltitudeMeters>
            <DistanceMeters>NAN</DistanceMeters>
          </Trackpoint>
          <Trackpoint>
            <Time>2020-05-25T05:23:53.000Z</Time>
            <Position>
              <LatitudeDegrees>38.1428030692040920257568359375</LatitudeDegrees>
              <LongitudeDegrees>-1.12155857495963573455810546875</LongitudeDegrees>
            </Position>
            <AltitudeMeters>164.600006103515625</AltitudeMeters>
            <DistanceMeters>NAN</DistanceMeters>
          </Trackpoint>
          <Trackpoint>
            <Time>2020-05-25T05:23:54.000Z</Time>
            <Position>
              <LatitudeDegrees>38.14287708140909671783447265625</LatitudeDegrees>
              <LongitudeDegrees>-1.121600233018398284912109375</LongitudeDegrees>
            </Position>
            <AltitudeMeters>164.600006103515625</AltitudeMeters>
            <DistanceMeters>NAN</DistanceMeters>
          </Trackpoint>
          <Trackpoint>
            <Time>2020-05-25T05:23:55.000Z</Time>
            <Position>
              <LatitudeDegrees>38.142951093614101409912109375</LatitudeDegrees>
              <LongitudeDegrees>-1.12164407037198543548583984375</LongitudeDegrees>
            </Position>
            <AltitudeMeters>164.600006103515625</AltitudeMeters>
            <DistanceMeters>NAN</DistanceMeters>
          </Trackpoint>
          <Trackpoint>
            <Time>2020-05-25T05:23:56.000Z</Time>
            <Position>
              <LatitudeDegrees>38.1430251896381378173828125</LatitudeDegrees>
              <LongitudeDegrees>-1.121689416468143463134765625</LongitudeDegrees>
            </Position>
            <AltitudeMeters>164.399993896484375</AltitudeMeters>
            <DistanceMeters>NAN</DistanceMeters>
          </Trackpoint>
          <Trackpoint>
            <Time>2020-05-25T05:23:57.000Z</Time>
            <Position>
              <LatitudeDegrees>38.14309962093830108642578125</LatitudeDegrees>
              <LongitudeDegrees>-1.1217348463833332061767578125</LongitudeDegrees>
            </Position>
            <AltitudeMeters>164</AltitudeMeters>
            <DistanceMeters>NAN</DistanceMeters>
          </Trackpoint>
          <Trackpoint>
            <Time>2020-05-25T05:23:58.000Z</Time>
            <Position>
              <LatitudeDegrees>38.14317447133362293243408203125</LatitudeDegrees>
              <LongitudeDegrees>-1.121779270470142364501953125</LongitudeDegrees>
            </Position>
            <AltitudeMeters>163.600006103515625</AltitudeMeters>
            <DistanceMeters>NAN</DistanceMeters>
          </Trackpoint>
          <Trackpoint>
            <Time>2020-05-25T05:23:59.000Z</Time>
            <Position>
              <LatitudeDegrees>38.14324974082410335540771484375</LatitudeDegrees>
              <LongitudeDegrees>-1.12182243727147579193115234375</LongitudeDegrees>
            </Position>
            <AltitudeMeters>163.399993896484375</AltitudeMeters>
            <DistanceMeters>NAN</DistanceMeters>
          </Trackpoint>
          <Trackpoint>
            <Time>2020-05-25T05:24:00.000Z</Time>
            <Position>
              <LatitudeDegrees>38.1433247588574886322021484375</LatitudeDegrees>
              <LongitudeDegrees>-1.121865771710872650146484375</LongitudeDegrees>
            </Position>
            <AltitudeMeters>163</AltitudeMeters>
            <DistanceMeters>NAN</DistanceMeters>
          </Trackpoint>
          <Trackpoint>
            <Time>2020-05-25T05:24:01.000Z</Time>
            <Position>
              <LatitudeDegrees>38.14340095035731792449951171875</LatitudeDegrees>
              <LongitudeDegrees>-1.12191011197865009307861328125</LongitudeDegrees>
            </Position>
            <AltitudeMeters>162.600006103515625</AltitudeMeters>
            <DistanceMeters>NAN</DistanceMeters>
          </Trackpoint>
          <Trackpoint>
            <Time>2020-05-25T05:24:02.000Z</Time>
            <Position>
              <LatitudeDegrees>38.14347906969487667083740234375</LatitudeDegrees>
              <LongitudeDegrees>-1.12195487134158611297607421875</LongitudeDegrees>
            </Position>
            <AltitudeMeters>162.1999969482421875</AltitudeMeters>
            <DistanceMeters>NAN</DistanceMeters>
          </Trackpoint>
          <Trackpoint>
            <Time>2020-05-25T05:24:03.000Z</Time>
            <Position>
              <LatitudeDegrees>38.14355903305113315582275390625</LatitudeDegrees>
              <LongitudeDegrees>-1.12199963070452213287353515625</LongitudeDegrees>
            </Position>
            <AltitudeMeters>161.8000030517578125</AltitudeMeters>
            <DistanceMeters>NAN</DistanceMeters>
          </Trackpoint>
          <Trackpoint>
            <Time>2020-05-25T05:24:04.000Z</Time>
            <Position>
              <LatitudeDegrees>38.14364033751189708709716796875</LatitudeDegrees>
              <LongitudeDegrees>-1.12204489298164844512939453125</LongitudeDegrees>
            </Position>
            <AltitudeMeters>161.600006103515625</AltitudeMeters>
            <DistanceMeters>NAN</DistanceMeters>
          </Trackpoint>
          <Trackpoint>
            <Time>2020-05-25T05:24:05.000Z</Time>
            <Position>
              <LatitudeDegrees>38.143722899258136749267578125</LatitudeDegrees>
              <LongitudeDegrees>-1.12208847887814044952392578125</LongitudeDegrees>
            </Position>
            <AltitudeMeters>161.1999969482421875</AltitudeMeters>
            <DistanceMeters>NAN</DistanceMeters>
          </Trackpoint>
          <Trackpoint>
            <Time>2020-05-25T05:24:06.000Z</Time>
            <Position>
              <LatitudeDegrees>38.1438058800995349884033203125</LatitudeDegrees>
              <LongitudeDegrees>-1.1221291311085224151611328125</LongitudeDegrees>
            </Position>
            <AltitudeMeters>161</AltitudeMeters>
            <DistanceMeters>NAN</DistanceMeters>
          </Trackpoint>
          <Trackpoint>
            <Time>2020-05-25T05:24:07.000Z</Time>
            <Position>
              <LatitudeDegrees>38.1438890285789966583251953125</LatitudeDegrees>
              <LongitudeDegrees>-1.12216592766344547271728515625</LongitudeDegrees>
            </Position>
            <AltitudeMeters>160.600006103515625</AltitudeMeters>
            <DistanceMeters>NAN</DistanceMeters>
          </Trackpoint>
          <Trackpoint>
            <Time>2020-05-25T05:24:08.000Z</Time>
            <Position>
              <LatitudeDegrees>38.14397209323942661285400390625</LatitudeDegrees>
              <LongitudeDegrees>-1.122197695076465606689453125</LongitudeDegrees>
            </Position>
            <AltitudeMeters>160.399993896484375</AltitudeMeters>
            <DistanceMeters>NAN</DistanceMeters>
          </Trackpoint>
          <Trackpoint>
            <Time>2020-05-25T05:24:09.000Z</Time>
            <Position>
              <LatitudeDegrees>38.14405473880469799041748046875</LatitudeDegrees>
              <LongitudeDegrees>-1.1222253553569316864013671875</LongitudeDegrees>
            </Position>
            <AltitudeMeters>160.399993896484375</AltitudeMeters>
            <DistanceMeters>NAN</DistanceMeters>
          </Trackpoint>
          <Trackpoint>
            <Time>2020-05-25T05:24:10.000Z</Time>
            <Position>
              <LatitudeDegrees>38.14413704909384250640869140625</LatitudeDegrees>
              <LongitudeDegrees>-1.12224957905709743499755859375</LongitudeDegrees>
            </Position>
            <AltitudeMeters>160</AltitudeMeters>
            <DistanceMeters>NAN</DistanceMeters>
          </Trackpoint>
          <Trackpoint>
            <Time>2020-05-25T05:24:11.000Z</Time>
            <Position>
              <LatitudeDegrees>38.14421919174492359161376953125</LatitudeDegrees>
              <LongitudeDegrees>-1.12227153964340686798095703125</LongitudeDegrees>
            </Position>
            <AltitudeMeters>159.8000030517578125</AltitudeMeters>
            <DistanceMeters>NAN</DistanceMeters>
          </Trackpoint>
          <Trackpoint>
            <Time>2020-05-25T05:24:12.000Z</Time>
            <Position>
              <LatitudeDegrees>38.1443000771105289459228515625</LatitudeDegrees>
              <LongitudeDegrees>-1.12229132093489170074462890625</LongitudeDegrees>
            </Position>
            <AltitudeMeters>159.399993896484375</AltitudeMeters>
            <DistanceMeters>NAN</DistanceMeters>
          </Trackpoint>
          <Trackpoint>
            <Time>2020-05-25T05:24:13.000Z</Time>
            <Position>
              <LatitudeDegrees>38.14437978900969028472900390625</LatitudeDegrees>
              <LongitudeDegrees>-1.12230925820767879486083984375</LongitudeDegrees>
            </Position>
            <AltitudeMeters>159.399993896484375</AltitudeMeters>
            <DistanceMeters>NAN</DistanceMeters>
          </Trackpoint>
          <Trackpoint>
            <Time>2020-05-25T05:24:14.000Z</Time>
            <Position>
              <LatitudeDegrees>38.144458495080471038818359375</LatitudeDegrees>
              <LongitudeDegrees>-1.12232618965208530426025390625</LongitudeDegrees>
            </Position>
            <AltitudeMeters>159.1999969482421875</AltitudeMeters>
            <DistanceMeters>NAN</DistanceMeters>
          </Trackpoint>
          <Trackpoint>
            <Time>2020-05-25T05:24:15.000Z</Time>
            <Position>
              <LatitudeDegrees>38.14453602768480777740478515625</LatitudeDegrees>
              <LongitudeDegrees>-1.1223423667252063751220703125</LongitudeDegrees>
            </Position>
            <AltitudeMeters>159.1999969482421875</AltitudeMeters>
            <DistanceMeters>NAN</DistanceMeters>
          </Trackpoint>
          <Trackpoint>
            <Time>2020-05-25T05:24:16.000Z</Time>
            <Position>
              <LatitudeDegrees>38.144612051546573638916015625</LatitudeDegrees>
              <LongitudeDegrees>-1.1223581247031688690185546875</LongitudeDegrees>
            </Position>
            <AltitudeMeters>159.1999969482421875</AltitudeMeters>
            <DistanceMeters>NAN</DistanceMeters>
          </Trackpoint>
          <Trackpoint>
            <Time>2020-05-25T05:24:17.000Z</Time>
            <Position>
              <LatitudeDegrees>38.1446873210370540618896484375</LatitudeDegrees>
              <LongitudeDegrees>-1.1223738826811313629150390625</LongitudeDegrees>
            </Position>
            <AltitudeMeters>159.1999969482421875</AltitudeMeters>
            <DistanceMeters>NAN</DistanceMeters>
          </Trackpoint>
          <Trackpoint>
            <Time>2020-05-25T05:24:18.000Z</Time>
            <Position>
              <LatitudeDegrees>38.14476166851818561553955078125</LatitudeDegrees>
              <LongitudeDegrees>-1.12238771282136440277099609375</LongitudeDegrees>
            </Position>
            <AltitudeMeters>159.1999969482421875</AltitudeMeters>
            <DistanceMeters>NAN</DistanceMeters>
          </Trackpoint>
          <Trackpoint>
            <Time>2020-05-25T05:24:19.000Z</Time>
            <Position>
              <LatitudeDegrees>38.1448345072567462921142578125</LatitudeDegrees>
              <LongitudeDegrees>-1.122401542961597442626953125</LongitudeDegrees>
            </Position>
            <AltitudeMeters>159.1999969482421875</AltitudeMeters>
            <DistanceMeters>NAN</DistanceMeters>
          </Trackpoint>
          <Trackpoint>
            <Time>2020-05-25T05:24:20.000Z</Time>
            <Position>
              <LatitudeDegrees>38.1449069269001483917236328125</LatitudeDegrees>
              <LongitudeDegrees>-1.122415959835052490234375</LongitudeDegrees>
            </Position>
            <AltitudeMeters>159.1999969482421875</AltitudeMeters>
            <DistanceMeters>NAN</DistanceMeters>
          </Trackpoint>
          <Trackpoint>
            <Time>2020-05-25T05:24:21.000Z</Time>
            <Position>
              <LatitudeDegrees>38.14497943036258220672607421875</LatitudeDegrees>
              <LongitudeDegrees>-1.122429706156253814697265625</LongitudeDegrees>
            </Position>
            <AltitudeMeters>159.1999969482421875</AltitudeMeters>
            <DistanceMeters>NAN</DistanceMeters>
          </Trackpoint>
          <Trackpoint>
            <Time>2020-05-25T05:24:22.000Z</Time>
            <Position>
              <LatitudeDegrees>38.1450510956346988677978515625</LatitudeDegrees>
              <LongitudeDegrees>-1.12244479358196258544921875</LongitudeDegrees>
            </Position>
            <AltitudeMeters>159.1999969482421875</AltitudeMeters>
            <DistanceMeters>NAN</DistanceMeters>
          </Trackpoint>
          <Trackpoint>
            <Time>2020-05-25T05:24:23.000Z</Time>
            <Position>
              <LatitudeDegrees>38.145122341811656951904296875</LatitudeDegrees>
              <LongitudeDegrees>-1.12246113829314708709716796875</LongitudeDegrees>
            </Position>
            <AltitudeMeters>159.399993896484375</AltitudeMeters>
            <DistanceMeters>NAN</DistanceMeters>
          </Trackpoint>
          <Trackpoint>
            <Time>2020-05-25T05:24:24.000Z</Time>
            <Position>
              <LatitudeDegrees>38.1452666781842708587646484375</LatitudeDegrees>
              <LongitudeDegrees>-1.12249064259231090545654296875</LongitudeDegrees>
            </Position>
            <AltitudeMeters>159.399993896484375</AltitudeMeters>
            <DistanceMeters>NAN</DistanceMeters>
          </Trackpoint>
          <Trackpoint>
            <Time>2020-05-25T05:24:25.000Z</Time>
            <Position>
              <LatitudeDegrees>38.1452666781842708587646484375</LatitudeDegrees>
              <LongitudeDegrees>-1.12249064259231090545654296875</LongitudeDegrees>
            </Position>
            <AltitudeMeters>159.600006103515625</AltitudeMeters>
            <DistanceMeters>NAN</DistanceMeters>
          </Trackpoint>
          <Trackpoint>
            <Time>2020-05-25T05:24:26.000Z</Time>
            <Position>
              <LatitudeDegrees>38.1454128585755825042724609375</LatitudeDegrees>
              <LongitudeDegrees>-1.12251947633922100067138671875</LongitudeDegrees>
            </Position>
            <AltitudeMeters>159.600006103515625</AltitudeMeters>
            <DistanceMeters>NAN</DistanceMeters>
          </Trackpoint>
          <Trackpoint>
            <Time>2020-05-25T05:24:27.000Z</Time>
            <Position>
              <LatitudeDegrees>38.1454128585755825042724609375</LatitudeDegrees>
              <LongitudeDegrees>-1.12251947633922100067138671875</LongitudeDegrees>
            </Position>
            <AltitudeMeters>159.8000030517578125</AltitudeMeters>
            <DistanceMeters>NAN</DistanceMeters>
          </Trackpoint>
          <Trackpoint>
            <Time>2020-05-25T05:24:28.000Z</Time>
            <Position>
              <LatitudeDegrees>38.1454842723906040191650390625</LatitudeDegrees>
              <LongitudeDegrees>-1.12253322266042232513427734375</LongitudeDegrees>
            </Position>
            <AltitudeMeters>159.8000030517578125</AltitudeMeters>
            <DistanceMeters>NAN</DistanceMeters>
          </Trackpoint>
          <Trackpoint>
            <Time>2020-05-25T05:24:29.000Z</Time>
            <Position>
              <LatitudeDegrees>38.145554177463054656982421875</LatitudeDegrees>
              <LongitudeDegrees>-1.12254663370549678802490234375</LongitudeDegrees>
            </Position>
            <AltitudeMeters>160</AltitudeMeters>
            <DistanceMeters>NAN</DistanceMeters>
          </Trackpoint>
          <Trackpoint>
            <Time>2020-05-25T05:24:30.000Z</Time>
            <Position>
              <LatitudeDegrees>38.14562265761196613311767578125</LatitudeDegrees>
              <LongitudeDegrees>-1.12256071530282497406005859375</LongitudeDegrees>
            </Position>
            <AltitudeMeters>160.1999969482421875</AltitudeMeters>
            <DistanceMeters>NAN</DistanceMeters>
          </Trackpoint>
          <Trackpoint>
            <Time>2020-05-25T05:24:31.000Z</Time>
            <Position>
              <LatitudeDegrees>38.14569205977022647857666015625</LatitudeDegrees>
              <LongitudeDegrees>-1.12257379107177257537841796875</LongitudeDegrees>
            </Position>
            <AltitudeMeters>160.1999969482421875</AltitudeMeters>
            <DistanceMeters>NAN</DistanceMeters>
          </Trackpoint>
          <Trackpoint>
            <Time>2020-05-25T05:24:32.000Z</Time>
            <Position>
              <LatitudeDegrees>38.14576171338558197021484375</LatitudeDegrees>
              <LongitudeDegrees>-1.12258535809814929962158203125</LongitudeDegrees>
            </Position>
            <AltitudeMeters>160.1999969482421875</AltitudeMeters>
            <DistanceMeters>NAN</DistanceMeters>
          </Trackpoint>
          <Trackpoint>
            <Time>2020-05-25T05:24:33.000Z</Time>
            <Position>
              <LatitudeDegrees>38.14583103172481060028076171875</LatitudeDegrees>
              <LongitudeDegrees>-1.12259223125874996185302734375</LongitudeDegrees>
            </Position>
            <AltitudeMeters>160.1999969482421875</AltitudeMeters>
            <DistanceMeters>NAN</DistanceMeters>
          </Trackpoint>
          <Trackpoint>
            <Time>2020-05-25T05:24:34.000Z</Time>
            <Position>
              <LatitudeDegrees>38.1458993442356586456298828125</LatitudeDegrees>
              <LongitudeDegrees>-1.1225884594023227691650390625</LongitudeDegrees>
            </Position>
            <AltitudeMeters>160.1999969482421875</AltitudeMeters>
            <DistanceMeters>NAN</DistanceMeters>
          </Trackpoint>
          <Trackpoint>
            <Time>2020-05-25T05:24:35.000Z</Time>
            <Position>
              <LatitudeDegrees>38.14596614800393581390380859375</LatitudeDegrees>
              <LongitudeDegrees>-1.12257094122469425201416015625</LongitudeDegrees>
            </Position>
            <AltitudeMeters>160.1999969482421875</AltitudeMeters>
            <DistanceMeters>NAN</DistanceMeters>
          </Trackpoint>
          <Trackpoint>
            <Time>2020-05-25T05:24:36.000Z</Time>
            <Position>
              <LatitudeDegrees>38.1460287608206272125244140625</LatitudeDegrees>
              <LongitudeDegrees>-1.12253691069781780242919921875</LongitudeDegrees>
            </Position>
            <AltitudeMeters>160.1999969482421875</AltitudeMeters>
            <DistanceMeters>NAN</DistanceMeters>
          </Trackpoint>
          <Trackpoint>
            <Time>2020-05-25T05:24:37.000Z</Time>
            <Position>
              <LatitudeDegrees>38.14608399756252765655517578125</LatitudeDegrees>
              <LongitudeDegrees>-1.12248511053621768951416015625</LongitudeDegrees>
            </Position>
            <AltitudeMeters>160.1999969482421875</AltitudeMeters>
            <DistanceMeters>NAN</DistanceMeters>
          </Trackpoint>
          <Trackpoint>
            <Time>2020-05-25T05:24:38.000Z</Time>
            <Position>
              <LatitudeDegrees>38.1461296789348125457763671875</LatitudeDegrees>
              <LongitudeDegrees>-1.12241822294890880584716796875</LongitudeDegrees>
            </Position>
            <AltitudeMeters>160.1999969482421875</AltitudeMeters>
            <DistanceMeters>NAN</DistanceMeters>
          </Trackpoint>
          <Trackpoint>
            <Time>2020-05-25T05:24:39.000Z</Time>
            <Position>
              <LatitudeDegrees>38.1461705826222896575927734375</LatitudeDegrees>
              <LongitudeDegrees>-1.12234312109649181365966796875</LongitudeDegrees>
            </Position>
            <AltitudeMeters>160.1999969482421875</AltitudeMeters>
            <DistanceMeters>NAN</DistanceMeters>
          </Trackpoint>
          <Trackpoint>
            <Time>2020-05-25T05:24:40.000Z</Time>
            <Position>
              <LatitudeDegrees>38.1462134979665279388427734375</LatitudeDegrees>
              <LongitudeDegrees>-1.12226818688213825225830078125</LongitudeDegrees>
            </Position>
            <AltitudeMeters>160.1999969482421875</AltitudeMeters>
            <DistanceMeters>NAN</DistanceMeters>
          </Trackpoint>
          <Trackpoint>
            <Time>2020-05-25T05:24:41.000Z</Time>
            <Position>
              <LatitudeDegrees>38.14626328647136688232421875</LatitudeDegrees>
              <LongitudeDegrees>-1.1221973598003387451171875</LongitudeDegrees>
            </Position>
            <AltitudeMeters>160.1999969482421875</AltitudeMeters>
            <DistanceMeters>NAN</DistanceMeters>
          </Trackpoint>
          <Trackpoint>
            <Time>2020-05-25T05:24:42.000Z</Time>
            <Position>
              <LatitudeDegrees>38.146323300898075103759765625</LatitudeDegrees>
              <LongitudeDegrees>-1.1221375130116939544677734375</LongitudeDegrees>
            </Position>
            <AltitudeMeters>160.1999969482421875</AltitudeMeters>
            <DistanceMeters>NAN</DistanceMeters>
          </Trackpoint>
          <Trackpoint>
            <Time>2020-05-25T05:24:43.000Z</Time>
            <Position>
              <LatitudeDegrees>38.14639245159924030303955078125</LatitudeDegrees>
              <LongitudeDegrees>-1.1220925860106945037841796875</LongitudeDegrees>
            </Position>
            <AltitudeMeters>160.1999969482421875</AltitudeMeters>
            <DistanceMeters>NAN</DistanceMeters>
          </Trackpoint>
          <Trackpoint>
            <Time>2020-05-25T05:24:44.000Z</Time>
            <Position>
              <LatitudeDegrees>38.14646721817553043365478515625</LatitudeDegrees>
              <LongitudeDegrees>-1.12206366844475269317626953125</LongitudeDegrees>
            </Position>
            <AltitudeMeters>160</AltitudeMeters>
            <DistanceMeters>NAN</DistanceMeters>
          </Trackpoint>
          <Trackpoint>
            <Time>2020-05-25T05:24:45.000Z</Time>
            <Position>
              <LatitudeDegrees>38.1465450860559940338134765625</LatitudeDegrees>
              <LongitudeDegrees>-1.12205243669450283050537109375</LongitudeDegrees>
            </Position>
            <AltitudeMeters>160</AltitudeMeters>
            <DistanceMeters>NAN</DistanceMeters>
          </Trackpoint>
          <Trackpoint>
            <Time>2020-05-25T05:24:46.000Z</Time>
            <Position>
              <LatitudeDegrees>38.14662446267902851104736328125</LatitudeDegrees>
              <LongitudeDegrees>-1.12206081859767436981201171875</LongitudeDegrees>
            </Position>
            <AltitudeMeters>160</AltitudeMeters>
            <DistanceMeters>NAN</DistanceMeters>
          </Trackpoint>
          <Trackpoint>
            <Time>2020-05-25T05:24:47.000Z</Time>
            <Position>
              <LatitudeDegrees>38.14670174382627010345458984375</LatitudeDegrees>
              <LongitudeDegrees>-1.1220882274210453033447265625</LongitudeDegrees>
            </Position>
            <AltitudeMeters>159.8000030517578125</AltitudeMeters>
            <DistanceMeters>NAN</DistanceMeters>
          </Trackpoint>
          <Trackpoint>
            <Time>2020-05-25T05:24:48.000Z</Time>
            <Position>
              <LatitudeDegrees>38.146773912012577056884765625</LatitudeDegrees>
              <LongitudeDegrees>-1.12213256768882274627685546875</LongitudeDegrees>
            </Position>
            <AltitudeMeters>159.8000030517578125</AltitudeMeters>
            <DistanceMeters>NAN</DistanceMeters>
          </Trackpoint>
          <Trackpoint>
            <Time>2020-05-25T05:24:49.000Z</Time>
            <Position>
              <LatitudeDegrees>38.14683853648602962493896484375</LatitudeDegrees>
              <LongitudeDegrees>-1.1221921630203723907470703125</LongitudeDegrees>
            </Position>
            <AltitudeMeters>159.600006103515625</AltitudeMeters>
            <DistanceMeters>NAN</DistanceMeters>
          </Trackpoint>
          <Trackpoint>
            <Time>2020-05-25T05:24:50.000Z</Time>
            <Position>
              <LatitudeDegrees>38.14689285121858119964599609375</LatitudeDegrees>
              <LongitudeDegrees>-1.122265420854091644287109375</LongitudeDegrees>
            </Position>
            <AltitudeMeters>159.600006103515625</AltitudeMeters>
            <DistanceMeters>NAN</DistanceMeters>
          </Trackpoint>
          <Trackpoint>
            <Time>2020-05-25T05:24:51.000Z</Time>
            <Position>
              <LatitudeDegrees>38.146936856210231781005859375</LatitudeDegrees>
              <LongitudeDegrees>-1.1223477311432361602783203125</LongitudeDegrees>
            </Position>
            <AltitudeMeters>159.399993896484375</AltitudeMeters>
            <DistanceMeters>NAN</DistanceMeters>
          </Trackpoint>
          <Trackpoint>
            <Time>2020-05-25T05:24:52.000Z</Time>
            <Position>
              <LatitudeDegrees>38.146971724927425384521484375</LatitudeDegrees>
              <LongitudeDegrees>-1.12243582494556903839111328125</LongitudeDegrees>
            </Position>
            <AltitudeMeters>159.399993896484375</AltitudeMeters>
            <DistanceMeters>NAN</DistanceMeters>
          </Trackpoint>
          <Trackpoint>
            <Time>2020-05-25T05:24:53.000Z</Time>
            <Position>
              <LatitudeDegrees>38.14700265415012836456298828125</LatitudeDegrees>
              <LongitudeDegrees>-1.12252500839531421661376953125</LongitudeDegrees>
            </Position>
            <AltitudeMeters>159.1999969482421875</AltitudeMeters>
            <DistanceMeters>NAN</DistanceMeters>
          </Trackpoint>
          <Trackpoint>
            <Time>2020-05-25T05:24:54.000Z</Time>
            <Position>
              <LatitudeDegrees>38.1470342539250850677490234375</LatitudeDegrees>
              <LongitudeDegrees>-1.12261134199798107147216796875</LongitudeDegrees>
            </Position>
            <AltitudeMeters>159</AltitudeMeters>
            <DistanceMeters>NAN</DistanceMeters>
          </Trackpoint>
          <Trackpoint>
            <Time>2020-05-25T05:24:55.000Z</Time>
            <Position>
              <LatitudeDegrees>38.14707105048000812530517578125</LatitudeDegrees>
              <LongitudeDegrees>-1.1226913891732692718505859375</LongitudeDegrees>
            </Position>
            <AltitudeMeters>159</AltitudeMeters>
            <DistanceMeters>NAN</DistanceMeters>
          </Trackpoint>
          <Trackpoint>
            <Time>2020-05-25T05:24:56.000Z</Time>
            <Position>
              <LatitudeDegrees>38.1471168994903564453125</LatitudeDegrees>
              <LongitudeDegrees>-1.1227604560554027557373046875</LongitudeDegrees>
            </Position>
            <AltitudeMeters>159</AltitudeMeters>
            <DistanceMeters>NAN</DistanceMeters>
          </Trackpoint>
          <Trackpoint>
            <Time>2020-05-25T05:24:57.000Z</Time>
            <Position>
              <LatitudeDegrees>38.14717230387032032012939453125</LatitudeDegrees>
              <LongitudeDegrees>-1.12281418405473232269287109375</LongitudeDegrees>
            </Position>
            <AltitudeMeters>159</AltitudeMeters>
            <DistanceMeters>NAN</DistanceMeters>
          </Trackpoint>
          <Trackpoint>
            <Time>2020-05-25T05:24:58.000Z</Time>
            <Position>
              <LatitudeDegrees>38.14723424613475799560546875</LatitudeDegrees>
              <LongitudeDegrees>-1.12285324372351169586181640625</LongitudeDegrees>
            </Position>
            <AltitudeMeters>159</AltitudeMeters>
            <DistanceMeters>NAN</DistanceMeters>
          </Trackpoint>
          <Trackpoint>
            <Time>2020-05-25T05:24:59.000Z</Time>
            <Position>
              <LatitudeDegrees>38.14729996025562286376953125</LatitudeDegrees>
              <LongitudeDegrees>-1.12288274802267551422119140625</LongitudeDegrees>
            </Position>
            <AltitudeMeters>159</AltitudeMeters>
            <DistanceMeters>NAN</DistanceMeters>
          </Trackpoint>
          <Trackpoint>
            <Time>2020-05-25T05:25:00.000Z</Time>
            <Position>
              <LatitudeDegrees>38.14736776985228061676025390625</LatitudeDegrees>
              <LongitudeDegrees>-1.12290613353252410888671875</LongitudeDegrees>
            </Position>
            <AltitudeMeters>159</AltitudeMeters>
            <DistanceMeters>NAN</DistanceMeters>
          </Trackpoint>
          <Trackpoint>
            <Time>2020-05-25T05:25:01.000Z</Time>
            <Position>
              <LatitudeDegrees>38.147436082363128662109375</LatitudeDegrees>
              <LongitudeDegrees>-1.1229254119098186492919921875</LongitudeDegrees>
            </Position>
            <AltitudeMeters>159</AltitudeMeters>
            <DistanceMeters>NAN</DistanceMeters>
          </Trackpoint>
          <Trackpoint>
            <Time>2020-05-25T05:25:02.000Z</Time>
            <Position>
              <LatitudeDegrees>38.147504143416881561279296875</LatitudeDegrees>
              <LongitudeDegrees>-1.12294041551649570465087890625</LongitudeDegrees>
            </Position>
            <AltitudeMeters>159</AltitudeMeters>
            <DistanceMeters>NAN</DistanceMeters>
          </Trackpoint>
          <Trackpoint>
            <Time>2020-05-25T05:25:03.000Z</Time>
            <Position>
              <LatitudeDegrees>38.1475720368325710296630859375</LatitudeDegrees>
              <LongitudeDegrees>-1.122954078018665313720703125</LongitudeDegrees>
            </Position>
            <AltitudeMeters>159</AltitudeMeters>
            <DistanceMeters>NAN</DistanceMeters>
          </Trackpoint>
          <Trackpoint>
            <Time>2020-05-25T05:25:04.000Z</Time>
            <Position>
              <LatitudeDegrees>38.14764001406729221343994140625</LatitudeDegrees>
              <LongitudeDegrees>-1.1229693330824375152587890625</LongitudeDegrees>
            </Position>
            <AltitudeMeters>159</AltitudeMeters>
            <DistanceMeters>NAN</DistanceMeters>
          </Trackpoint>
          <Trackpoint>
            <Time>2020-05-25T05:25:05.000Z</Time>
            <Position>
              <LatitudeDegrees>38.14770765602588653564453125</LatitudeDegrees>
              <LongitudeDegrees>-1.12298391759395599365234375</LongitudeDegrees>
            </Position>
            <AltitudeMeters>159</AltitudeMeters>
            <DistanceMeters>NAN</DistanceMeters>
          </Trackpoint>
          <Trackpoint>
            <Time>2020-05-25T05:25:06.000Z</Time>
            <Position>
              <LatitudeDegrees>38.147775046527385711669921875</LatitudeDegrees>
              <LongitudeDegrees>-1.12299674190580844879150390625</LongitudeDegrees>
            </Position>
            <AltitudeMeters>159.1999969482421875</AltitudeMeters>
            <DistanceMeters>NAN</DistanceMeters>
          </Trackpoint>
          <Trackpoint>
            <Time>2020-05-25T05:25:07.000Z</Time>
            <Position>
              <LatitudeDegrees>38.14784201793372631072998046875</LatitudeDegrees>
              <LongitudeDegrees>-1.123008392751216888427734375</LongitudeDegrees>
            </Position>
            <AltitudeMeters>159.1999969482421875</AltitudeMeters>
            <DistanceMeters>NAN</DistanceMeters>
          </Trackpoint>
          <Trackpoint>
            <Time>2020-05-25T05:25:08.000Z</Time>
            <Position>
              <LatitudeDegrees>38.1479083187878131866455078125</LatitudeDegrees>
              <LongitudeDegrees>-1.12302205525338649749755859375</LongitudeDegrees>
            </Position>
            <AltitudeMeters>159.1999969482421875</AltitudeMeters>
            <DistanceMeters>NAN</DistanceMeters>
          </Trackpoint>
          <Trackpoint>
            <Time>2020-05-25T05:25:09.000Z</Time>
            <Position>
              <LatitudeDegrees>38.14797411672770977020263671875</LatitudeDegrees>
              <LongitudeDegrees>-1.12303563393652439117431640625</LongitudeDegrees>
            </Position>
            <AltitudeMeters>159.1999969482421875</AltitudeMeters>
            <DistanceMeters>NAN</DistanceMeters>
          </Trackpoint>
          <Trackpoint>
            <Time>2020-05-25T05:25:10.000Z</Time>
            <Position>
              <LatitudeDegrees>38.148039244115352630615234375</LatitudeDegrees>
              <LongitudeDegrees>-1.12304904498159885406494140625</LongitudeDegrees>
            </Position>
            <AltitudeMeters>159.1999969482421875</AltitudeMeters>
            <DistanceMeters>NAN</DistanceMeters>
          </Trackpoint>
          <Trackpoint>
            <Time>2020-05-25T05:25:11.000Z</Time>
            <Position>
              <LatitudeDegrees>38.1481047905981540679931640625</LatitudeDegrees>
              <LongitudeDegrees>-1.12306195311248302459716796875</LongitudeDegrees>
            </Position>
            <AltitudeMeters>159.399993896484375</AltitudeMeters>
            <DistanceMeters>NAN</DistanceMeters>
          </Trackpoint>
          <Trackpoint>
            <Time>2020-05-25T05:25:12.000Z</Time>
            <Position>
              <LatitudeDegrees>38.14817025326192378997802734375</LatitudeDegrees>
              <LongitudeDegrees>-1.12307569943368434906005859375</LongitudeDegrees>
            </Position>
            <AltitudeMeters>159.399993896484375</AltitudeMeters>
            <DistanceMeters>NAN</DistanceMeters>
          </Trackpoint>
          <Trackpoint>
            <Time>2020-05-25T05:25:13.000Z</Time>
            <Position>
              <LatitudeDegrees>38.1482355482876300811767578125</LatitudeDegrees>
              <LongitudeDegrees>-1.123089529573917388916015625</LongitudeDegrees>
            </Position>
            <AltitudeMeters>159.399993896484375</AltitudeMeters>
            <DistanceMeters>NAN</DistanceMeters>
          </Trackpoint>
          <Trackpoint>
            <Time>2020-05-25T05:25:14.000Z</Time>
            <Position>
              <LatitudeDegrees>38.14830050803720951080322265625</LatitudeDegrees>
              <LongitudeDegrees>-1.1231024377048015594482421875</LongitudeDegrees>
            </Position>
            <AltitudeMeters>159.600006103515625</AltitudeMeters>
            <DistanceMeters>NAN</DistanceMeters>
          </Trackpoint>
          <Trackpoint>
            <Time>2020-05-25T05:25:15.000Z</Time>
            <Position>
              <LatitudeDegrees>38.14836504869163036346435546875</LatitudeDegrees>
              <LongitudeDegrees>-1.12311459146440029144287109375</LongitudeDegrees>
            </Position>
            <AltitudeMeters>159.600006103515625</AltitudeMeters>
            <DistanceMeters>NAN</DistanceMeters>
          </Trackpoint>
          <Trackpoint>
            <Time>2020-05-25T05:25:16.000Z</Time>
            <Position>
              <LatitudeDegrees>38.148428499698638916015625</LatitudeDegrees>
              <LongitudeDegrees>-1.1231282539665699005126953125</LongitudeDegrees>
            </Position>
            <AltitudeMeters>160</AltitudeMeters>
            <DistanceMeters>NAN</DistanceMeters>
          </Trackpoint>
          <Trackpoint>
            <Time>2020-05-25T05:25:17.000Z</Time>
            <Position>
              <LatitudeDegrees>38.14849195070564746856689453125</LatitudeDegrees>
              <LongitudeDegrees>-1.12314141355454921722412109375</LongitudeDegrees>
            </Position>
            <AltitudeMeters>160.1999969482421875</AltitudeMeters>
            <DistanceMeters>NAN</DistanceMeters>
          </Trackpoint>
          <Trackpoint>
            <Time>2020-05-25T05:25:18.000Z</Time>
            <Position>
              <LatitudeDegrees>38.14855523407459259033203125</LatitudeDegrees>
              <LongitudeDegrees>-1.12315398640930652618408203125</LongitudeDegrees>
            </Position>
            <AltitudeMeters>160.399993896484375</AltitudeMeters>
            <DistanceMeters>NAN</DistanceMeters>
          </Trackpoint>
          <Trackpoint>
            <Time>2020-05-25T05:25:19.000Z</Time>
            <Position>
              <LatitudeDegrees>38.14861834980547428131103515625</LatitudeDegrees>
              <LongitudeDegrees>-1.1231671459972858428955078125</LongitudeDegrees>
            </Position>
            <AltitudeMeters>160.399993896484375</AltitudeMeters>
            <DistanceMeters>NAN</DistanceMeters>
          </Trackpoint>
          <Trackpoint>
            <Time>2020-05-25T05:25:20.000Z</Time>
            <Position>
              <LatitudeDegrees>38.14868205226957798004150390625</LatitudeDegrees>
              <LongitudeDegrees>-1.1231805570423603057861328125</LongitudeDegrees>
            </Position>
            <AltitudeMeters>160.600006103515625</AltitudeMeters>
            <DistanceMeters>NAN</DistanceMeters>
          </Trackpoint>
          <Trackpoint>
            <Time>2020-05-25T05:25:21.000Z</Time>
            <Position>
              <LatitudeDegrees>38.1487455032765865325927734375</LatitudeDegrees>
              <LongitudeDegrees>-1.1231924593448638916015625</LongitudeDegrees>
            </Position>
            <AltitudeMeters>160.8000030517578125</AltitudeMeters>
            <DistanceMeters>NAN</DistanceMeters>
          </Trackpoint>
          <Trackpoint>
            <Time>2020-05-25T05:25:22.000Z</Time>
            <Position>
              <LatitudeDegrees>38.148808367550373077392578125</LatitudeDegrees>
              <LongitudeDegrees>-1.123204864561557769775390625</LongitudeDegrees>
            </Position>
            <AltitudeMeters>160.8000030517578125</AltitudeMeters>
            <DistanceMeters>NAN</DistanceMeters>
          </Trackpoint>
          <Trackpoint>
            <Time>2020-05-25T05:25:23.000Z</Time>
            <Position>
              <LatitudeDegrees>38.14887131564319133758544921875</LatitudeDegrees>
              <LongitudeDegrees>-1.12321718595921993255615234375</LongitudeDegrees>
            </Position>
            <AltitudeMeters>161</AltitudeMeters>
            <DistanceMeters>NAN</DistanceMeters>
          </Trackpoint>
          <Trackpoint>
            <Time>2020-05-25T05:25:24.000Z</Time>
            <Position>
              <LatitudeDegrees>38.14893384464085102081298828125</LatitudeDegrees>
              <LongitudeDegrees>-1.12322908826172351837158203125</LongitudeDegrees>
            </Position>
            <AltitudeMeters>161.1999969482421875</AltitudeMeters>
            <DistanceMeters>NAN</DistanceMeters>
          </Trackpoint>
          <Trackpoint>
            <Time>2020-05-25T05:25:25.000Z</Time>
            <Position>
              <LatitudeDegrees>38.14899620600044727325439453125</LatitudeDegrees>
              <LongitudeDegrees>-1.12324065528810024261474609375</LongitudeDegrees>
            </Position>
            <AltitudeMeters>161.399993896484375</AltitudeMeters>
            <DistanceMeters>NAN</DistanceMeters>
          </Trackpoint>
          <Trackpoint>
            <Time>2020-05-25T05:25:26.000Z</Time>
            <Position>
              <LatitudeDegrees>38.14905789680778980255126953125</LatitudeDegrees>
              <LongitudeDegrees>-1.12325339578092098236083984375</LongitudeDegrees>
            </Position>
            <AltitudeMeters>161.399993896484375</AltitudeMeters>
            <DistanceMeters>NAN</DistanceMeters>
          </Trackpoint>
          <Trackpoint>
            <Time>2020-05-25T05:25:27.000Z</Time>
            <Position>
              <LatitudeDegrees>38.14911983907222747802734375</LatitudeDegrees>
              <LongitudeDegrees>-1.1232653819024562835693359375</LongitudeDegrees>
            </Position>
            <AltitudeMeters>161.600006103515625</AltitudeMeters>
            <DistanceMeters>NAN</DistanceMeters>
          </Trackpoint>
          <Trackpoint>
            <Time>2020-05-25T05:25:28.000Z</Time>
            <Position>
              <LatitudeDegrees>38.1491810269653797149658203125</LatitudeDegrees>
              <LongitudeDegrees>-1.12327820621430873870849609375</LongitudeDegrees>
            </Position>
            <AltitudeMeters>161.600006103515625</AltitudeMeters>
            <DistanceMeters>NAN</DistanceMeters>
          </Trackpoint>
          <Trackpoint>
            <Time>2020-05-25T05:25:29.000Z</Time>
            <Position>
              <LatitudeDegrees>38.14924112521111965179443359375</LatitudeDegrees>
              <LongitudeDegrees>-1.123290695250034332275390625</LongitudeDegrees>
            </Position>
            <AltitudeMeters>161.600006103515625</AltitudeMeters>
            <DistanceMeters>NAN</DistanceMeters>
          </Trackpoint>
          <Trackpoint>
            <Time>2020-05-25T05:25:30.000Z</Time>
            <Position>
              <LatitudeDegrees>38.1493007205426692962646484375</LatitudeDegrees>
              <LongitudeDegrees>-1.1233022622764110565185546875</LongitudeDegrees>
            </Position>
            <AltitudeMeters>161.8000030517578125</AltitudeMeters>
            <DistanceMeters>NAN</DistanceMeters>
          </Trackpoint>
          <Trackpoint>
            <Time>2020-05-25T05:25:31.000Z</Time>
            <Position>
              <LatitudeDegrees>38.1493597291409969329833984375</LatitudeDegrees>
              <LongitudeDegrees>-1.1233131587505340576171875</LongitudeDegrees>
            </Position>
            <AltitudeMeters>161.8000030517578125</AltitudeMeters>
            <DistanceMeters>NAN</DistanceMeters>
          </Trackpoint>
          <Trackpoint>
            <Time>2020-05-25T05:25:32.000Z</Time>
            <Position>
              <LatitudeDegrees>38.1494184024631977081298828125</LatitudeDegrees>
              <LongitudeDegrees>-1.12332480959594249725341796875</LongitudeDegrees>
            </Position>
            <AltitudeMeters>162</AltitudeMeters>
            <DistanceMeters>NAN</DistanceMeters>
          </Trackpoint>
          <Trackpoint>
            <Time>2020-05-25T05:25:33.000Z</Time>
            <Position>
              <LatitudeDegrees>38.14947615377604961395263671875</LatitudeDegrees>
              <LongitudeDegrees>-1.123336963355541229248046875</LongitudeDegrees>
            </Position>
            <AltitudeMeters>162</AltitudeMeters>
            <DistanceMeters>NAN</DistanceMeters>
          </Trackpoint>
          <Trackpoint>
            <Time>2020-05-25T05:25:34.000Z</Time>
            <Position>
              <LatitudeDegrees>38.14953365363180637359619140625</LatitudeDegrees>
              <LongitudeDegrees>-1.12334928475320339202880859375</LongitudeDegrees>
            </Position>
            <AltitudeMeters>162.1999969482421875</AltitudeMeters>
            <DistanceMeters>NAN</DistanceMeters>
          </Trackpoint>
          <Trackpoint>
            <Time>2020-05-25T05:25:35.000Z</Time>
            <Position>
              <LatitudeDegrees>38.14959081821143627166748046875</LatitudeDegrees>
              <LongitudeDegrees>-1.123360432684421539306640625</LongitudeDegrees>
            </Position>
            <AltitudeMeters>162.399993896484375</AltitudeMeters>
            <DistanceMeters>NAN</DistanceMeters>
          </Trackpoint>
          <Trackpoint>
            <Time>2020-05-25T05:25:36.000Z</Time>
            <Position>
              <LatitudeDegrees>38.1496470607817173004150390625</LatitudeDegrees>
              <LongitudeDegrees>-1.12337057478725910186767578125</LongitudeDegrees>
            </Position>
            <AltitudeMeters>162.600006103515625</AltitudeMeters>
            <DistanceMeters>NAN</DistanceMeters>
          </Trackpoint>
          <Trackpoint>
            <Time>2020-05-25T05:25:37.000Z</Time>
            <Position>
              <LatitudeDegrees>38.14970296807587146759033203125</LatitudeDegrees>
              <LongitudeDegrees>-1.1233820579946041107177734375</LongitudeDegrees>
            </Position>
            <AltitudeMeters>162.8000030517578125</AltitudeMeters>
            <DistanceMeters>NAN</DistanceMeters>
          </Trackpoint>
          <Trackpoint>
            <Time>2020-05-25T05:25:38.000Z</Time>
            <Position>
              <LatitudeDegrees>38.14975795336067676544189453125</LatitudeDegrees>
              <LongitudeDegrees>-1.1233934573829174041748046875</LongitudeDegrees>
            </Position>
            <AltitudeMeters>163</AltitudeMeters>
            <DistanceMeters>NAN</DistanceMeters>
          </Trackpoint>
          <Trackpoint>
            <Time>2020-05-25T05:25:39.000Z</Time>
            <Position>
              <LatitudeDegrees>38.14981176517903804779052734375</LatitudeDegrees>
              <LongitudeDegrees>-1.12340527586638927459716796875</LongitudeDegrees>
            </Position>
            <AltitudeMeters>163</AltitudeMeters>
            <DistanceMeters>NAN</DistanceMeters>
          </Trackpoint>
          <Trackpoint>
            <Time>2020-05-25T05:25:40.000Z</Time>
            <Position>
              <LatitudeDegrees>38.149865157902240753173828125</LatitudeDegrees>
              <LongitudeDegrees>-1.12341734580695629119873046875</LongitudeDegrees>
            </Position>
            <AltitudeMeters>163.1999969482421875</AltitudeMeters>
            <DistanceMeters>NAN</DistanceMeters>
          </Trackpoint>
          <Trackpoint>
            <Time>2020-05-25T05:25:41.000Z</Time>
            <Position>
              <LatitudeDegrees>38.1499186344444751739501953125</LatitudeDegrees>
              <LongitudeDegrees>-1.12342958338558673858642578125</LongitudeDegrees>
            </Position>
            <AltitudeMeters>163.1999969482421875</AltitudeMeters>
            <DistanceMeters>NAN</DistanceMeters>
          </Trackpoint>
          <Trackpoint>
            <Time>2020-05-25T05:25:42.000Z</Time>
            <Position>
              <LatitudeDegrees>38.1499721109867095947265625</LatitudeDegrees>
              <LongitudeDegrees>-1.1234414018690586090087890625</LongitudeDegrees>
            </Position>
            <AltitudeMeters>163.600006103515625</AltitudeMeters>
            <DistanceMeters>NAN</DistanceMeters>
          </Trackpoint>
          <Trackpoint>
            <Time>2020-05-25T05:25:43.000Z</Time>
            <Position>
              <LatitudeDegrees>38.15002567134797573089599609375</LatitudeDegrees>
              <LongitudeDegrees>-1.12345254980027675628662109375</LongitudeDegrees>
            </Position>
            <AltitudeMeters>163.8000030517578125</AltitudeMeters>
            <DistanceMeters>NAN</DistanceMeters>
          </Trackpoint>
          <Trackpoint>
            <Time>2020-05-25T05:25:44.000Z</Time>
            <Position>
              <LatitudeDegrees>38.1500792317092418670654296875</LatitudeDegrees>
              <LongitudeDegrees>-1.12346277572214603424072265625</LongitudeDegrees>
            </Position>
            <AltitudeMeters>164</AltitudeMeters>
            <DistanceMeters>NAN</DistanceMeters>
          </Trackpoint>
          <Trackpoint>
            <Time>2020-05-25T05:25:45.000Z</Time>
            <Position>
              <LatitudeDegrees>38.15013128332793712615966796875</LatitudeDegrees>
              <LongitudeDegrees>-1.12347367219626903533935546875</LongitudeDegrees>
            </Position>
            <AltitudeMeters>164.1999969482421875</AltitudeMeters>
            <DistanceMeters>NAN</DistanceMeters>
          </Trackpoint>
          <Trackpoint>
            <Time>2020-05-25T05:25:46.000Z</Time>
            <Position>
              <LatitudeDegrees>38.15018291585147380828857421875</LatitudeDegrees>
              <LongitudeDegrees>-1.123484484851360321044921875</LongitudeDegrees>
            </Position>
            <AltitudeMeters>164.399993896484375</AltitudeMeters>
            <DistanceMeters>NAN</DistanceMeters>
          </Trackpoint>
          <Trackpoint>
            <Time>2020-05-25T05:25:47.000Z</Time>
            <Position>
              <LatitudeDegrees>38.15023429691791534423828125</LatitudeDegrees>
              <LongitudeDegrees>-1.12349412404000759124755859375</LongitudeDegrees>
            </Position>
            <AltitudeMeters>164.399993896484375</AltitudeMeters>
            <DistanceMeters>NAN</DistanceMeters>
          </Trackpoint>
          <Trackpoint>
            <Time>2020-05-25T05:25:48.000Z</Time>
            <Position>
              <LatitudeDegrees>38.150284923613071441650390625</LatitudeDegrees>
              <LongitudeDegrees>-1.1235034279525279998779296875</LongitudeDegrees>
            </Position>
            <AltitudeMeters>164.8000030517578125</AltitudeMeters>
            <DistanceMeters>NAN</DistanceMeters>
          </Trackpoint>
          <Trackpoint>
            <Time>2020-05-25T05:25:49.000Z</Time>
            <Position>
              <LatitudeDegrees>38.15033429302275180816650390625</LatitudeDegrees>
              <LongitudeDegrees>-1.12351357005536556243896484375</LongitudeDegrees>
            </Position>
            <AltitudeMeters>165</AltitudeMeters>
            <DistanceMeters>NAN</DistanceMeters>
          </Trackpoint>
          <Trackpoint>
            <Time>2020-05-25T05:25:50.000Z</Time>
            <Position>
              <LatitudeDegrees>38.15038307569921016693115234375</LatitudeDegrees>
              <LongitudeDegrees>-1.12352295778691768646240234375</LongitudeDegrees>
            </Position>
            <AltitudeMeters>165.399993896484375</AltitudeMeters>
            <DistanceMeters>NAN</DistanceMeters>
          </Trackpoint>
          <Trackpoint>
            <Time>2020-05-25T05:25:51.000Z</Time>
            <Position>
              <LatitudeDegrees>38.15043135546147823333740234375</LatitudeDegrees>
              <LongitudeDegrees>-1.12353268079459667205810546875</LongitudeDegrees>
            </Position>
            <AltitudeMeters>165.600006103515625</AltitudeMeters>
            <DistanceMeters>NAN</DistanceMeters>
          </Trackpoint>
          <Trackpoint>
            <Time>2020-05-25T05:25:52.000Z</Time>
            <Position>
              <LatitudeDegrees>38.15047971904277801513671875</LatitudeDegrees>
              <LongitudeDegrees>-1.123542487621307373046875</LongitudeDegrees>
            </Position>
            <AltitudeMeters>165.8000030517578125</AltitudeMeters>
            <DistanceMeters>NAN</DistanceMeters>
          </Trackpoint>
          <Trackpoint>
            <Time>2020-05-25T05:25:53.000Z</Time>
            <Position>
              <LatitudeDegrees>38.15052799880504608154296875</LatitudeDegrees>
              <LongitudeDegrees>-1.12355162389576435089111328125</LongitudeDegrees>
            </Position>
            <AltitudeMeters>166.1999969482421875</AltitudeMeters>
            <DistanceMeters>NAN</DistanceMeters>
          </Trackpoint>
          <Trackpoint>
            <Time>2020-05-25T05:25:54.000Z</Time>
            <Position>
              <LatitudeDegrees>38.1505757756531238555908203125</LatitudeDegrees>
              <LongitudeDegrees>-1.12356067635118961334228515625</LongitudeDegrees>
            </Position>
            <AltitudeMeters>166.399993896484375</AltitudeMeters>
            <DistanceMeters>NAN</DistanceMeters>
          </Trackpoint>
          <Trackpoint>
            <Time>2020-05-25T05:25:55.000Z</Time>
            <Position>
              <LatitudeDegrees>38.15062380395829677581787109375</LatitudeDegrees>
              <LongitudeDegrees>-1.123568974435329437255859375</LongitudeDegrees>
            </Position>
            <AltitudeMeters>166.600006103515625</AltitudeMeters>
            <DistanceMeters>NAN</DistanceMeters>
          </Trackpoint>
          <Trackpoint>
            <Time>2020-05-25T05:25:56.000Z</Time>
            <Position>
              <LatitudeDegrees>38.15067057497799396514892578125</LatitudeDegrees>
              <LongitudeDegrees>-1.1235781945288181304931640625</LongitudeDegrees>
            </Position>
            <AltitudeMeters>166.8000030517578125</AltitudeMeters>
            <DistanceMeters>NAN</DistanceMeters>
          </Trackpoint>
          <Trackpoint>
            <Time>2020-05-25T05:25:57.000Z</Time>
            <Position>
              <LatitudeDegrees>38.15071701072156429290771484375</LatitudeDegrees>
              <LongitudeDegrees>-1.12358733080327510833740234375</LongitudeDegrees>
            </Position>
            <AltitudeMeters>166.8000030517578125</AltitudeMeters>
            <DistanceMeters>NAN</DistanceMeters>
          </Trackpoint>
          <Trackpoint>
            <Time>2020-05-25T05:25:58.000Z</Time>
            <Position>
              <LatitudeDegrees>38.15076344646513462066650390625</LatitudeDegrees>
              <LongitudeDegrees>-1.12359604798257350921630859375</LongitudeDegrees>
            </Position>
            <AltitudeMeters>167.1999969482421875</AltitudeMeters>
            <DistanceMeters>NAN</DistanceMeters>
          </Trackpoint>
          <Trackpoint>
            <Time>2020-05-25T05:25:59.000Z</Time>
            <Position>
              <LatitudeDegrees>38.15081021748483180999755859375</LatitudeDegrees>
              <LongitudeDegrees>-1.12360526807606220245361328125</LongitudeDegrees>
            </Position>
            <AltitudeMeters>167.399993896484375</AltitudeMeters>
            <DistanceMeters>NAN</DistanceMeters>
          </Trackpoint>
          <Trackpoint>
            <Time>2020-05-25T05:26:00.000Z</Time>
            <Position>
              <LatitudeDegrees>38.15085715614259243011474609375</LatitudeDegrees>
              <LongitudeDegrees>-1.1236147396266460418701171875</LongitudeDegrees>
            </Position>
            <AltitudeMeters>167.8000030517578125</AltitudeMeters>
            <DistanceMeters>NAN</DistanceMeters>
          </Trackpoint>
          <Trackpoint>
            <Time>2020-05-25T05:26:01.000Z</Time>
            <Position>
              <LatitudeDegrees>38.15090443007647991180419921875</LatitudeDegrees>
              <LongitudeDegrees>-1.123623289167881011962890625</LongitudeDegrees>
            </Position>
            <AltitudeMeters>168</AltitudeMeters>
            <DistanceMeters>NAN</DistanceMeters>
          </Trackpoint>
          <Trackpoint>
            <Time>2020-05-25T05:26:02.000Z</Time>
            <Position>
              <LatitudeDegrees>38.1509512849152088165283203125</LatitudeDegrees>
              <LongitudeDegrees>-1.1236321739852428436279296875</LongitudeDegrees>
            </Position>
            <AltitudeMeters>168.399993896484375</AltitudeMeters>
            <DistanceMeters>NAN</DistanceMeters>
          </Trackpoint>
          <Trackpoint>
            <Time>2020-05-25T05:26:03.000Z</Time>
            <Position>
              <LatitudeDegrees>38.1509985588490962982177734375</LatitudeDegrees>
              <LongitudeDegrees>-1.12364298664033412933349609375</LongitudeDegrees>
            </Position>
            <AltitudeMeters>168.600006103515625</AltitudeMeters>
            <DistanceMeters>NAN</DistanceMeters>
          </Trackpoint>
          <Trackpoint>
            <Time>2020-05-25T05:26:04.000Z</Time>
            <Position>
              <LatitudeDegrees>38.151046670973300933837890625</LatitudeDegrees>
              <LongitudeDegrees>-1.123654134571552276611328125</LongitudeDegrees>
            </Position>
            <AltitudeMeters>168.8000030517578125</AltitudeMeters>
            <DistanceMeters>NAN</DistanceMeters>
          </Trackpoint>
          <Trackpoint>
            <Time>2020-05-25T05:26:05.000Z</Time>
            <Position>
              <LatitudeDegrees>38.15109528601169586181640625</LatitudeDegrees>
              <LongitudeDegrees>-1.1236640252172946929931640625</LongitudeDegrees>
            </Position>
            <AltitudeMeters>169</AltitudeMeters>
            <DistanceMeters>NAN</DistanceMeters>
          </Trackpoint>
          <Trackpoint>
            <Time>2020-05-25T05:26:06.000Z</Time>
            <Position>
              <LatitudeDegrees>38.15114415250718593597412109375</LatitudeDegrees>
              <LongitudeDegrees>-1.123672910034656524658203125</LongitudeDegrees>
            </Position>
            <AltitudeMeters>169.399993896484375</AltitudeMeters>
            <DistanceMeters>NAN</DistanceMeters>
          </Trackpoint>
          <Trackpoint>
            <Time>2020-05-25T05:26:07.000Z</Time>
            <Position>
              <LatitudeDegrees>38.15119360573589801788330078125</LatitudeDegrees>
              <LongitudeDegrees>-1.12368254922330379486083984375</LongitudeDegrees>
            </Position>
            <AltitudeMeters>169.600006103515625</AltitudeMeters>
            <DistanceMeters>NAN</DistanceMeters>
          </Trackpoint>
          <Trackpoint>
            <Time>2020-05-25T05:26:08.000Z</Time>
            <Position>
              <LatitudeDegrees>38.15124280750751495361328125</LatitudeDegrees>
              <LongitudeDegrees>-1.1236925236880779266357421875</LongitudeDegrees>
            </Position>
            <AltitudeMeters>169.8000030517578125</AltitudeMeters>
            <DistanceMeters>NAN</DistanceMeters>
          </Trackpoint>
          <Trackpoint>
            <Time>2020-05-25T05:26:09.000Z</Time>
            <Position>
              <LatitudeDegrees>38.151291422545909881591796875</LatitudeDegrees>
              <LongitudeDegrees>-1.123701743781566619873046875</LongitudeDegrees>
            </Position>
            <AltitudeMeters>170</AltitudeMeters>
            <DistanceMeters>NAN</DistanceMeters>
          </Trackpoint>
          <Trackpoint>
            <Time>2020-05-25T05:26:10.000Z</Time>
            <Position>
              <LatitudeDegrees>38.15133995376527309417724609375</LatitudeDegrees>
              <LongitudeDegrees>-1.12371037714183330535888671875</LongitudeDegrees>
            </Position>
            <AltitudeMeters>170.1999969482421875</AltitudeMeters>
            <DistanceMeters>NAN</DistanceMeters>
          </Trackpoint>
          <Trackpoint>
            <Time>2020-05-25T05:26:11.000Z</Time>
            <Position>
              <LatitudeDegrees>38.15138806588947772979736328125</LatitudeDegrees>
              <LongitudeDegrees>-1.12371909432113170623779296875</LongitudeDegrees>
            </Position>
            <AltitudeMeters>170.399993896484375</AltitudeMeters>
            <DistanceMeters>NAN</DistanceMeters>
          </Trackpoint>
          <Trackpoint>
            <Time>2020-05-25T05:26:12.000Z</Time>
            <Position>
              <LatitudeDegrees>38.15143701620399951934814453125</LatitudeDegrees>
              <LongitudeDegrees>-1.12372915260493755340576171875</LongitudeDegrees>
            </Position>
            <AltitudeMeters>170.399993896484375</AltitudeMeters>
            <DistanceMeters>NAN</DistanceMeters>
          </Trackpoint>
          <Trackpoint>
            <Time>2020-05-25T05:26:13.000Z</Time>
            <Position>
              <LatitudeDegrees>38.15148747526109218597412109375</LatitudeDegrees>
              <LongitudeDegrees>-1.1237408034503459930419921875</LongitudeDegrees>
            </Position>
            <AltitudeMeters>170.600006103515625</AltitudeMeters>
            <DistanceMeters>NAN</DistanceMeters>
          </Trackpoint>
          <Trackpoint>
            <Time>2020-05-25T05:26:14.000Z</Time>
            <Position>
              <LatitudeDegrees>38.15153810195624828338623046875</LatitudeDegrees>
              <LongitudeDegrees>-1.12375144846737384796142578125</LongitudeDegrees>
            </Position>
            <AltitudeMeters>170.8000030517578125</AltitudeMeters>
            <DistanceMeters>NAN</DistanceMeters>
          </Trackpoint>
          <Trackpoint>
            <Time>2020-05-25T05:26:15.000Z</Time>
            <Position>
              <LatitudeDegrees>38.15158839337527751922607421875</LatitudeDegrees>
              <LongitudeDegrees>-1.12376050092279911041259765625</LongitudeDegrees>
            </Position>
            <AltitudeMeters>171</AltitudeMeters>
            <DistanceMeters>NAN</DistanceMeters>
          </Trackpoint>
          <Trackpoint>
            <Time>2020-05-25T05:26:16.000Z</Time>
            <Position>
              <LatitudeDegrees>38.1516389362514019012451171875</LatitudeDegrees>
              <LongitudeDegrees>-1.1237703077495098114013671875</LongitudeDegrees>
            </Position>
            <AltitudeMeters>171</AltitudeMeters>
            <DistanceMeters>NAN</DistanceMeters>
          </Trackpoint>
          <Trackpoint>
            <Time>2020-05-25T05:26:17.000Z</Time>
            <Position>
              <LatitudeDegrees>38.1516895629465579986572265625</LatitudeDegrees>
              <LongitudeDegrees>-1.12378095276653766632080078125</LongitudeDegrees>
            </Position>
            <AltitudeMeters>171.1999969482421875</AltitudeMeters>
            <DistanceMeters>NAN</DistanceMeters>
          </Trackpoint>
          <Trackpoint>
            <Time>2020-05-25T05:26:18.000Z</Time>
            <Position>
              <LatitudeDegrees>38.15174094401299953460693359375</LatitudeDegrees>
              <LongitudeDegrees>-1.12379260361194610595703125</LongitudeDegrees>
            </Position>
            <AltitudeMeters>171.399993896484375</AltitudeMeters>
            <DistanceMeters>NAN</DistanceMeters>
          </Trackpoint>
          <Trackpoint>
            <Time>2020-05-25T05:26:19.000Z</Time>
            <Position>
              <LatitudeDegrees>38.1517934985458850860595703125</LatitudeDegrees>
              <LongitudeDegrees>-1.1238041706383228302001953125</LongitudeDegrees>
            </Position>
            <AltitudeMeters>171.600006103515625</AltitudeMeters>
            <DistanceMeters>NAN</DistanceMeters>
          </Trackpoint>
          <Trackpoint>
            <Time>2020-05-25T05:26:20.000Z</Time>
            <Position>
              <LatitudeDegrees>38.15184605307877063751220703125</LatitudeDegrees>
              <LongitudeDegrees>-1.12381548620760440826416015625</LongitudeDegrees>
            </Position>
            <AltitudeMeters>171.8000030517578125</AltitudeMeters>
            <DistanceMeters>NAN</DistanceMeters>
          </Trackpoint>
          <Trackpoint>
            <Time>2020-05-25T05:26:21.000Z</Time>
            <Position>
              <LatitudeDegrees>38.1518984399735927581787109375</LatitudeDegrees>
              <LongitudeDegrees>-1.12382655031979084014892578125</LongitudeDegrees>
            </Position>
            <AltitudeMeters>172</AltitudeMeters>
            <DistanceMeters>NAN</DistanceMeters>
          </Trackpoint>
          <Trackpoint>
            <Time>2020-05-25T05:26:22.000Z</Time>
            <Position>
              <LatitudeDegrees>38.1519510783255100250244140625</LatitudeDegrees>
              <LongitudeDegrees>-1.1238373629748821258544921875</LongitudeDegrees>
            </Position>
            <AltitudeMeters>172</AltitudeMeters>
            <DistanceMeters>NAN</DistanceMeters>
          </Trackpoint>
          <Trackpoint>
            <Time>2020-05-25T05:26:23.000Z</Time>
            <Position>
              <LatitudeDegrees>38.1520043872296810150146484375</LatitudeDegrees>
              <LongitudeDegrees>-1.123848259449005126953125</LongitudeDegrees>
            </Position>
            <AltitudeMeters>172</AltitudeMeters>
            <DistanceMeters>NAN</DistanceMeters>
          </Trackpoint>
          <Trackpoint>
            <Time>2020-05-25T05:26:24.000Z</Time>
            <Position>
              <LatitudeDegrees>38.15205794759094715118408203125</LatitudeDegrees>
              <LongitudeDegrees>-1.1238591559231281280517578125</LongitudeDegrees>
            </Position>
            <AltitudeMeters>172</AltitudeMeters>
            <DistanceMeters>NAN</DistanceMeters>
          </Trackpoint>
          <Trackpoint>
            <Time>2020-05-25T05:26:25.000Z</Time>
            <Position>
              <LatitudeDegrees>38.1521120108664035797119140625</LatitudeDegrees>
              <LongitudeDegrees>-1.123869717121124267578125</LongitudeDegrees>
            </Position>
            <AltitudeMeters>172.1999969482421875</AltitudeMeters>
            <DistanceMeters>NAN</DistanceMeters>
          </Trackpoint>
          <Trackpoint>
            <Time>2020-05-25T05:26:26.000Z</Time>
            <Position>
              <LatitudeDegrees>38.15216607414186000823974609375</LatitudeDegrees>
              <LongitudeDegrees>-1.1238806135952472686767578125</LongitudeDegrees>
            </Position>
            <AltitudeMeters>172.1999969482421875</AltitudeMeters>
            <DistanceMeters>NAN</DistanceMeters>
          </Trackpoint>
          <Trackpoint>
            <Time>2020-05-25T05:26:27.000Z</Time>
            <Position>
              <LatitudeDegrees>38.15222055651247501373291015625</LatitudeDegrees>
              <LongitudeDegrees>-1.1238920129835605621337890625</LongitudeDegrees>
            </Position>
            <AltitudeMeters>172.399993896484375</AltitudeMeters>
            <DistanceMeters>NAN</DistanceMeters>
          </Trackpoint>
          <Trackpoint>
            <Time>2020-05-25T05:26:28.000Z</Time>
            <Position>
              <LatitudeDegrees>38.15227487124502658843994140625</LatitudeDegrees>
              <LongitudeDegrees>-1.123903580009937286376953125</LongitudeDegrees>
            </Position>
            <AltitudeMeters>172.399993896484375</AltitudeMeters>
            <DistanceMeters>NAN</DistanceMeters>
          </Trackpoint>
          <Trackpoint>
            <Time>2020-05-25T05:26:29.000Z</Time>
            <Position>
              <LatitudeDegrees>38.1523292697966098785400390625</LatitudeDegrees>
              <LongitudeDegrees>-1.1239148117601871490478515625</LongitudeDegrees>
            </Position>
            <AltitudeMeters>172.8000030517578125</AltitudeMeters>
            <DistanceMeters>NAN</DistanceMeters>
          </Trackpoint>
          <Trackpoint>
            <Time>2020-05-25T05:26:30.000Z</Time>
            <Position>
              <LatitudeDegrees>38.15238400362432003021240234375</LatitudeDegrees>
              <LongitudeDegrees>-1.12392629496753215789794921875</LongitudeDegrees>
            </Position>
            <AltitudeMeters>172.8000030517578125</AltitudeMeters>
            <DistanceMeters>NAN</DistanceMeters>
          </Trackpoint>
          <Trackpoint>
            <Time>2020-05-25T05:26:31.000Z</Time>
            <Position>
              <LatitudeDegrees>38.15243831835687160491943359375</LatitudeDegrees>
              <LongitudeDegrees>-1.12393802963197231292724609375</LongitudeDegrees>
            </Position>
            <AltitudeMeters>173</AltitudeMeters>
            <DistanceMeters>NAN</DistanceMeters>
          </Trackpoint>
          <Trackpoint>
            <Time>2020-05-25T05:26:32.000Z</Time>
            <Position>
              <LatitudeDegrees>38.15254694782197475433349609375</LatitudeDegrees>
              <LongitudeDegrees>-1.12396233715116977691650390625</LongitudeDegrees>
            </Position>
            <AltitudeMeters>173</AltitudeMeters>
            <DistanceMeters>NAN</DistanceMeters>
          </Trackpoint>
          <Trackpoint>
            <Time>2020-05-25T05:26:33.000Z</Time>
            <Position>
              <LatitudeDegrees>38.15254694782197475433349609375</LatitudeDegrees>
              <LongitudeDegrees>-1.12396233715116977691650390625</LongitudeDegrees>
            </Position>
            <AltitudeMeters>173</AltitudeMeters>
            <DistanceMeters>NAN</DistanceMeters>
          </Trackpoint>
          <Trackpoint>
            <Time>2020-05-25T05:26:34.000Z</Time>
            <Position>
              <LatitudeDegrees>38.152601681649684906005859375</LatitudeDegrees>
              <LongitudeDegrees>-1.1239751614630222320556640625</LongitudeDegrees>
            </Position>
            <AltitudeMeters>173.1999969482421875</AltitudeMeters>
            <DistanceMeters>NAN</DistanceMeters>
          </Trackpoint>
          <Trackpoint>
            <Time>2020-05-25T05:26:35.000Z</Time>
            <Position>
              <LatitudeDegrees>38.15265742130577564239501953125</LatitudeDegrees>
              <LongitudeDegrees>-1.12398781813681125640869140625</LongitudeDegrees>
            </Position>
            <AltitudeMeters>173.1999969482421875</AltitudeMeters>
            <DistanceMeters>NAN</DistanceMeters>
          </Trackpoint>
          <Trackpoint>
            <Time>2020-05-25T05:26:36.000Z</Time>
            <Position>
              <LatitudeDegrees>38.15277040936052799224853515625</LatitudeDegrees>
              <LongitudeDegrees>-1.1240127123892307281494140625</LongitudeDegrees>
            </Position>
            <AltitudeMeters>173.399993896484375</AltitudeMeters>
            <DistanceMeters>NAN</DistanceMeters>
          </Trackpoint>
          <Trackpoint>
            <Time>2020-05-25T05:26:37.000Z</Time>
            <Position>
              <LatitudeDegrees>38.15277040936052799224853515625</LatitudeDegrees>
              <LongitudeDegrees>-1.1240127123892307281494140625</LongitudeDegrees>
            </Position>
            <AltitudeMeters>173.600006103515625</AltitudeMeters>
            <DistanceMeters>NAN</DistanceMeters>
          </Trackpoint>
          <Trackpoint>
            <Time>2020-05-25T05:26:38.000Z</Time>
            <Position>
              <LatitudeDegrees>38.15288792364299297332763671875</LatitudeDegrees>
              <LongitudeDegrees>-1.1240308173000812530517578125</LongitudeDegrees>
            </Position>
            <AltitudeMeters>173.8000030517578125</AltitudeMeters>
            <DistanceMeters>NAN</DistanceMeters>
          </Trackpoint>
          <Trackpoint>
            <Time>2020-05-25T05:26:39.000Z</Time>
            <Position>
              <LatitudeDegrees>38.15288792364299297332763671875</LatitudeDegrees>
              <LongitudeDegrees>-1.1240308173000812530517578125</LongitudeDegrees>
            </Position>
            <AltitudeMeters>173.8000030517578125</AltitudeMeters>
            <DistanceMeters>NAN</DistanceMeters>
          </Trackpoint>
          <Trackpoint>
            <Time>2020-05-25T05:26:40.000Z</Time>
            <Position>
              <LatitudeDegrees>38.152947686612606048583984375</LatitudeDegrees>
              <LongitudeDegrees>-1.12402855418622493743896484375</LongitudeDegrees>
            </Position>
            <AltitudeMeters>173.8000030517578125</AltitudeMeters>
            <DistanceMeters>NAN</DistanceMeters>
          </Trackpoint>
          <Trackpoint>
            <Time>2020-05-25T05:26:41.000Z</Time>
            <Position>
              <LatitudeDegrees>38.15300661139190196990966796875</LatitudeDegrees>
              <LongitudeDegrees>-1.1240132153034210205078125</LongitudeDegrees>
            </Position>
            <AltitudeMeters>173.8000030517578125</AltitudeMeters>
            <DistanceMeters>NAN</DistanceMeters>
          </Trackpoint>
          <Trackpoint>
            <Time>2020-05-25T05:26:42.000Z</Time>
            <Position>
              <LatitudeDegrees>38.153063356876373291015625</LatitudeDegrees>
              <LongitudeDegrees>-1.12398748286068439483642578125</LongitudeDegrees>
            </Position>
            <AltitudeMeters>173.8000030517578125</AltitudeMeters>
            <DistanceMeters>NAN</DistanceMeters>
          </Trackpoint>
          <Trackpoint>
            <Time>2020-05-25T05:26:43.000Z</Time>
            <Position>
              <LatitudeDegrees>38.153118677437305450439453125</LatitudeDegrees>
              <LongitudeDegrees>-1.1239567212760448455810546875</LongitudeDegrees>
            </Position>
            <AltitudeMeters>174</AltitudeMeters>
            <DistanceMeters>NAN</DistanceMeters>
          </Trackpoint>
          <Trackpoint>
            <Time>2020-05-25T05:26:44.000Z</Time>
            <Position>
              <LatitudeDegrees>38.1531755067408084869384765625</LatitudeDegrees>
              <LongitudeDegrees>-1.12393082119524478912353515625</LongitudeDegrees>
            </Position>
            <AltitudeMeters>174</AltitudeMeters>
            <DistanceMeters>NAN</DistanceMeters>
          </Trackpoint>
          <Trackpoint>
            <Time>2020-05-25T05:26:45.000Z</Time>
            <Position>
              <LatitudeDegrees>38.153234682977199554443359375</LatitudeDegrees>
              <LongitudeDegrees>-1.123917996883392333984375</LongitudeDegrees>
            </Position>
            <AltitudeMeters>174</AltitudeMeters>
            <DistanceMeters>NAN</DistanceMeters>
          </Trackpoint>
          <Trackpoint>
            <Time>2020-05-25T05:26:46.000Z</Time>
            <Position>
              <LatitudeDegrees>38.15329427830874919891357421875</LatitudeDegrees>
              <LongitudeDegrees>-1.12392378039658069610595703125</LongitudeDegrees>
            </Position>
            <AltitudeMeters>174</AltitudeMeters>
            <DistanceMeters>NAN</DistanceMeters>
          </Trackpoint>
          <Trackpoint>
            <Time>2020-05-25T05:26:47.000Z</Time>
            <Position>
              <LatitudeDegrees>38.1533511914312839508056640625</LatitudeDegrees>
              <LongitudeDegrees>-1.12394741736352443695068359375</LongitudeDegrees>
            </Position>
            <AltitudeMeters>174</AltitudeMeters>
            <DistanceMeters>NAN</DistanceMeters>
          </Trackpoint>
          <Trackpoint>
            <Time>2020-05-25T05:26:48.000Z</Time>
            <Position>
              <LatitudeDegrees>38.15340441651642322540283203125</LatitudeDegrees>
              <LongitudeDegrees>-1.12398304045200347900390625</LongitudeDegrees>
            </Position>
            <AltitudeMeters>174</AltitudeMeters>
            <DistanceMeters>NAN</DistanceMeters>
          </Trackpoint>
          <Trackpoint>
            <Time>2020-05-25T05:26:49.000Z</Time>
            <Position>
              <LatitudeDegrees>38.15345504321157932281494140625</LatitudeDegrees>
              <LongitudeDegrees>-1.12402486614882946014404296875</LongitudeDegrees>
            </Position>
            <AltitudeMeters>174.1999969482421875</AltitudeMeters>
            <DistanceMeters>NAN</DistanceMeters>
          </Trackpoint>
          <Trackpoint>
            <Time>2020-05-25T05:26:50.000Z</Time>
            <Position>
              <LatitudeDegrees>38.153504915535449981689453125</LatitudeDegrees>
              <LongitudeDegrees>-1.1240690387785434722900390625</LongitudeDegrees>
            </Position>
            <AltitudeMeters>174.1999969482421875</AltitudeMeters>
            <DistanceMeters>NAN</DistanceMeters>
          </Trackpoint>
          <Trackpoint>
            <Time>2020-05-25T05:26:51.000Z</Time>
            <Position>
              <LatitudeDegrees>38.15355612896382808685302734375</LatitudeDegrees>
              <LongitudeDegrees>-1.12411086447536945343017578125</LongitudeDegrees>
            </Position>
            <AltitudeMeters>174.399993896484375</AltitudeMeters>
            <DistanceMeters>NAN</DistanceMeters>
          </Trackpoint>
          <Trackpoint>
            <Time>2020-05-25T05:26:52.000Z</Time>
            <Position>
              <LatitudeDegrees>38.15360994078218936920166015625</LatitudeDegrees>
              <LongitudeDegrees>-1.12414808012545108795166015625</LongitudeDegrees>
            </Position>
            <AltitudeMeters>174.600006103515625</AltitudeMeters>
            <DistanceMeters>NAN</DistanceMeters>
          </Trackpoint>
          <Trackpoint>
            <Time>2020-05-25T05:26:53.000Z</Time>
            <Position>
              <LatitudeDegrees>38.153666518628597259521484375</LatitudeDegrees>
              <LongitudeDegrees>-1.12417842261493206024169921875</LongitudeDegrees>
            </Position>
            <AltitudeMeters>174.600006103515625</AltitudeMeters>
            <DistanceMeters>NAN</DistanceMeters>
          </Trackpoint>
          <Trackpoint>
            <Time>2020-05-25T05:26:54.000Z</Time>
            <Position>
              <LatitudeDegrees>38.153724856674671173095703125</LatitudeDegrees>
              <LongitudeDegrees>-1.12419920973479747772216796875</LongitudeDegrees>
            </Position>
            <AltitudeMeters>174.600006103515625</AltitudeMeters>
            <DistanceMeters>NAN</DistanceMeters>
          </Trackpoint>
          <Trackpoint>
            <Time>2020-05-25T05:26:55.000Z</Time>
            <Position>
              <LatitudeDegrees>38.15378428436815738677978515625</LatitudeDegrees>
              <LongitudeDegrees>-1.12421371042728424072265625</LongitudeDegrees>
            </Position>
            <AltitudeMeters>174.8000030517578125</AltitudeMeters>
            <DistanceMeters>NAN</DistanceMeters>
          </Trackpoint>
          <Trackpoint>
            <Time>2020-05-25T05:26:56.000Z</Time>
            <Position>
              <LatitudeDegrees>38.15384329296648502349853515625</LatitudeDegrees>
              <LongitudeDegrees>-1.1242262832820415496826171875</LongitudeDegrees>
            </Position>
            <AltitudeMeters>174.8000030517578125</AltitudeMeters>
            <DistanceMeters>NAN</DistanceMeters>
          </Trackpoint>
          <Trackpoint>
            <Time>2020-05-25T05:26:57.000Z</Time>
            <Position>
              <LatitudeDegrees>38.15390213392674922943115234375</LatitudeDegrees>
              <LongitudeDegrees>-1.12423793412744998931884765625</LongitudeDegrees>
            </Position>
            <AltitudeMeters>174.8000030517578125</AltitudeMeters>
            <DistanceMeters>NAN</DistanceMeters>
          </Trackpoint>
          <Trackpoint>
            <Time>2020-05-25T05:26:58.000Z</Time>
            <Position>
              <LatitudeDegrees>38.1539605557918548583984375</LatitudeDegrees>
              <LongitudeDegrees>-1.12424950115382671356201171875</LongitudeDegrees>
            </Position>
            <AltitudeMeters>174.8000030517578125</AltitudeMeters>
            <DistanceMeters>NAN</DistanceMeters>
          </Trackpoint>
          <Trackpoint>
            <Time>2020-05-25T05:26:59.000Z</Time>
            <Position>
              <LatitudeDegrees>38.1540187261998653411865234375</LatitudeDegrees>
              <LongitudeDegrees>-1.12426173873245716094970703125</LongitudeDegrees>
            </Position>
            <AltitudeMeters>174.8000030517578125</AltitudeMeters>
            <DistanceMeters>NAN</DistanceMeters>
          </Trackpoint>
          <Trackpoint>
            <Time>2020-05-25T05:27:00.000Z</Time>
            <Position>
              <LatitudeDegrees>38.15407664515078067779541015625</LatitudeDegrees>
              <LongitudeDegrees>-1.1242732219398021697998046875</LongitudeDegrees>
            </Position>
            <AltitudeMeters>175</AltitudeMeters>
            <DistanceMeters>NAN</DistanceMeters>
          </Trackpoint>
          <Trackpoint>
            <Time>2020-05-25T05:27:01.000Z</Time>
            <Position>
              <LatitudeDegrees>38.15413422882556915283203125</LatitudeDegrees>
              <LongitudeDegrees>-1.12428353168070316314697265625</LongitudeDegrees>
            </Position>
            <AltitudeMeters>175</AltitudeMeters>
            <DistanceMeters>NAN</DistanceMeters>
          </Trackpoint>
          <Trackpoint>
            <Time>2020-05-25T05:27:02.000Z</Time>
            <Position>
              <LatitudeDegrees>38.15419147722423076629638671875</LatitudeDegrees>
              <LongitudeDegrees>-1.12429417669773101806640625</LongitudeDegrees>
            </Position>
            <AltitudeMeters>175</AltitudeMeters>
            <DistanceMeters>NAN</DistanceMeters>
          </Trackpoint>
          <Trackpoint>
            <Time>2020-05-25T05:27:03.000Z</Time>
            <Position>
              <LatitudeDegrees>38.15424847416579723358154296875</LatitudeDegrees>
              <LongitudeDegrees>-1.1243057437241077423095703125</LongitudeDegrees>
            </Position>
            <AltitudeMeters>175.1999969482421875</AltitudeMeters>
            <DistanceMeters>NAN</DistanceMeters>
          </Trackpoint>
          <Trackpoint>
            <Time>2020-05-25T05:27:04.000Z</Time>
            <Position>
              <LatitudeDegrees>38.1543052196502685546875</LatitudeDegrees>
              <LongitudeDegrees>-1.12431697547435760498046875</LongitudeDegrees>
            </Position>
            <AltitudeMeters>175.1999969482421875</AltitudeMeters>
            <DistanceMeters>NAN</DistanceMeters>
          </Trackpoint>
          <Trackpoint>
            <Time>2020-05-25T05:27:05.000Z</Time>
            <Position>
              <LatitudeDegrees>38.1543623842298984527587890625</LatitudeDegrees>
              <LongitudeDegrees>-1.1243283748626708984375</LongitudeDegrees>
            </Position>
            <AltitudeMeters>175.1999969482421875</AltitudeMeters>
            <DistanceMeters>NAN</DistanceMeters>
          </Trackpoint>
          <Trackpoint>
            <Time>2020-05-25T05:27:06.000Z</Time>
            <Position>
              <LatitudeDegrees>38.1544197164475917816162109375</LatitudeDegrees>
              <LongitudeDegrees>-1.1243404448032379150390625</LongitudeDegrees>
            </Position>
            <AltitudeMeters>175.399993896484375</AltitudeMeters>
            <DistanceMeters>NAN</DistanceMeters>
          </Trackpoint>
          <Trackpoint>
            <Time>2020-05-25T05:27:07.000Z</Time>
            <Position>
              <LatitudeDegrees>38.15447755157947540283203125</LatitudeDegrees>
              <LongitudeDegrees>-1.124352179467678070068359375</LongitudeDegrees>
            </Position>
            <AltitudeMeters>175.399993896484375</AltitudeMeters>
            <DistanceMeters>NAN</DistanceMeters>
          </Trackpoint>
          <Trackpoint>
            <Time>2020-05-25T05:27:08.000Z</Time>
            <Position>
              <LatitudeDegrees>38.15453614108264446258544921875</LatitudeDegrees>
              <LongitudeDegrees>-1.124363578855991363525390625</LongitudeDegrees>
            </Position>
            <AltitudeMeters>175.600006103515625</AltitudeMeters>
            <DistanceMeters>NAN</DistanceMeters>
          </Trackpoint>
          <Trackpoint>
            <Time>2020-05-25T05:27:09.000Z</Time>
            <Position>
              <LatitudeDegrees>38.1545950658619403839111328125</LatitudeDegrees>
              <LongitudeDegrees>-1.124375648796558380126953125</LongitudeDegrees>
            </Position>
            <AltitudeMeters>175.600006103515625</AltitudeMeters>
            <DistanceMeters>NAN</DistanceMeters>
          </Trackpoint>
          <Trackpoint>
            <Time>2020-05-25T05:27:10.000Z</Time>
            <Position>
              <LatitudeDegrees>38.15465365536510944366455078125</LatitudeDegrees>
              <LongitudeDegrees>-1.12438813783228397369384765625</LongitudeDegrees>
            </Position>
            <AltitudeMeters>175.600006103515625</AltitudeMeters>
            <DistanceMeters>NAN</DistanceMeters>
          </Trackpoint>
          <Trackpoint>
            <Time>2020-05-25T05:27:11.000Z</Time>
            <Position>
              <LatitudeDegrees>38.15471316687762737274169921875</LatitudeDegrees>
              <LongitudeDegrees>-1.12440020777285099029541015625</LongitudeDegrees>
            </Position>
            <AltitudeMeters>175.8000030517578125</AltitudeMeters>
            <DistanceMeters>NAN</DistanceMeters>
          </Trackpoint>
          <Trackpoint>
            <Time>2020-05-25T05:27:12.000Z</Time>
            <Position>
              <LatitudeDegrees>38.15477234311401844024658203125</LatitudeDegrees>
              <LongitudeDegrees>-1.1244126968085765838623046875</LongitudeDegrees>
            </Position>
            <AltitudeMeters>175.8000030517578125</AltitudeMeters>
            <DistanceMeters>NAN</DistanceMeters>
          </Trackpoint>
          <Trackpoint>
            <Time>2020-05-25T05:27:13.000Z</Time>
            <Position>
              <LatitudeDegrees>38.154831938445568084716796875</LatitudeDegrees>
              <LongitudeDegrees>-1.1244254373013973236083984375</LongitudeDegrees>
            </Position>
            <AltitudeMeters>176</AltitudeMeters>
            <DistanceMeters>NAN</DistanceMeters>
          </Trackpoint>
          <Trackpoint>
            <Time>2020-05-25T05:27:14.000Z</Time>
            <Position>
              <LatitudeDegrees>38.1548924557864665985107421875</LatitudeDegrees>
              <LongitudeDegrees>-1.12443826161324977874755859375</LongitudeDegrees>
            </Position>
            <AltitudeMeters>176.1999969482421875</AltitudeMeters>
            <DistanceMeters>NAN</DistanceMeters>
          </Trackpoint>
          <Trackpoint>
            <Time>2020-05-25T05:27:15.000Z</Time>
            <Position>
              <LatitudeDegrees>38.15495305694639682769775390625</LatitudeDegrees>
              <LongitudeDegrees>-1.124451421201229095458984375</LongitudeDegrees>
            </Position>
            <AltitudeMeters>176.1999969482421875</AltitudeMeters>
            <DistanceMeters>NAN</DistanceMeters>
          </Trackpoint>
          <Trackpoint>
            <Time>2020-05-25T05:27:16.000Z</Time>
            <Position>
              <LatitudeDegrees>38.1550148315727710723876953125</LatitudeDegrees>
              <LongitudeDegrees>-1.1244633235037326812744140625</LongitudeDegrees>
            </Position>
            <AltitudeMeters>176.1999969482421875</AltitudeMeters>
            <DistanceMeters>NAN</DistanceMeters>
          </Trackpoint>
          <Trackpoint>
            <Time>2020-05-25T05:27:17.000Z</Time>
            <Position>
              <LatitudeDegrees>38.1550765223801136016845703125</LatitudeDegrees>
              <LongitudeDegrees>-1.124475896358489990234375</LongitudeDegrees>
            </Position>
            <AltitudeMeters>176.1999969482421875</AltitudeMeters>
            <DistanceMeters>NAN</DistanceMeters>
          </Trackpoint>
          <Trackpoint>
            <Time>2020-05-25T05:27:18.000Z</Time>
            <Position>
              <LatitudeDegrees>38.155138380825519561767578125</LatitudeDegrees>
              <LongitudeDegrees>-1.12448888830840587615966796875</LongitudeDegrees>
            </Position>
            <AltitudeMeters>176.1999969482421875</AltitudeMeters>
            <DistanceMeters>NAN</DistanceMeters>
          </Trackpoint>
          <Trackpoint>
            <Time>2020-05-25T05:27:19.000Z</Time>
            <Position>
              <LatitudeDegrees>38.15520099364221096038818359375</LatitudeDegrees>
              <LongitudeDegrees>-1.12450129352509975433349609375</LongitudeDegrees>
            </Position>
            <AltitudeMeters>176.1999969482421875</AltitudeMeters>
            <DistanceMeters>NAN</DistanceMeters>
          </Trackpoint>
          <Trackpoint>
            <Time>2020-05-25T05:27:20.000Z</Time>
            <Position>
              <LatitudeDegrees>38.155263774096965789794921875</LatitudeDegrees>
              <LongitudeDegrees>-1.12451436929404735565185546875</LongitudeDegrees>
            </Position>
            <AltitudeMeters>176.1999969482421875</AltitudeMeters>
            <DistanceMeters>NAN</DistanceMeters>
          </Trackpoint>
          <Trackpoint>
            <Time>2020-05-25T05:27:21.000Z</Time>
            <Position>
              <LatitudeDegrees>38.15532705746591091156005859375</LatitudeDegrees>
              <LongitudeDegrees>-1.1245281994342803955078125</LongitudeDegrees>
            </Position>
            <AltitudeMeters>176.1999969482421875</AltitudeMeters>
            <DistanceMeters>NAN</DistanceMeters>
          </Trackpoint>
          <Trackpoint>
            <Time>2020-05-25T05:27:22.000Z</Time>
            <Position>
              <LatitudeDegrees>38.15539075993001461029052734375</LatitudeDegrees>
              <LongitudeDegrees>-1.12454152666032314300537109375</LongitudeDegrees>
            </Position>
            <AltitudeMeters>176.1999969482421875</AltitudeMeters>
            <DistanceMeters>NAN</DistanceMeters>
          </Trackpoint>
          <Trackpoint>
            <Time>2020-05-25T05:27:23.000Z</Time>
            <Position>
              <LatitudeDegrees>38.1554547138512134552001953125</LatitudeDegrees>
              <LongitudeDegrees>-1.12455359660089015960693359375</LongitudeDegrees>
            </Position>
            <AltitudeMeters>176.1999969482421875</AltitudeMeters>
            <DistanceMeters>NAN</DistanceMeters>
          </Trackpoint>
          <Trackpoint>
            <Time>2020-05-25T05:27:24.000Z</Time>
            <Position>
              <LatitudeDegrees>38.15551917068660259246826171875</LatitudeDegrees>
              <LongitudeDegrees>-1.12456507980823516845703125</LongitudeDegrees>
            </Position>
            <AltitudeMeters>176.1999969482421875</AltitudeMeters>
            <DistanceMeters>NAN</DistanceMeters>
          </Trackpoint>
          <Trackpoint>
            <Time>2020-05-25T05:27:25.000Z</Time>
            <Position>
              <LatitudeDegrees>38.15558438189327716827392578125</LatitudeDegrees>
              <LongitudeDegrees>-1.12457639537751674652099609375</LongitudeDegrees>
            </Position>
            <AltitudeMeters>176.1999969482421875</AltitudeMeters>
            <DistanceMeters>NAN</DistanceMeters>
          </Trackpoint>
          <Trackpoint>
            <Time>2020-05-25T05:27:26.000Z</Time>
            <Position>
              <LatitudeDegrees>38.1556498445570468902587890625</LatitudeDegrees>
              <LongitudeDegrees>-1.12458963878452777862548828125</LongitudeDegrees>
            </Position>
            <AltitudeMeters>176.1999969482421875</AltitudeMeters>
            <DistanceMeters>NAN</DistanceMeters>
          </Trackpoint>
          <Trackpoint>
            <Time>2020-05-25T05:27:27.000Z</Time>
            <Position>
              <LatitudeDegrees>38.1557155586779117584228515625</LatitudeDegrees>
              <LongitudeDegrees>-1.1246041394770145416259765625</LongitudeDegrees>
            </Position>
            <AltitudeMeters>176.1999969482421875</AltitudeMeters>
            <DistanceMeters>NAN</DistanceMeters>
          </Trackpoint>
          <Trackpoint>
            <Time>2020-05-25T05:27:28.000Z</Time>
            <Position>
              <LatitudeDegrees>38.15578102134168148040771484375</LatitudeDegrees>
              <LongitudeDegrees>-1.12461830489337444305419921875</LongitudeDegrees>
            </Position>
            <AltitudeMeters>176.1999969482421875</AltitudeMeters>
            <DistanceMeters>NAN</DistanceMeters>
          </Trackpoint>
          <Trackpoint>
            <Time>2020-05-25T05:27:29.000Z</Time>
            <Position>
              <LatitudeDegrees>38.1558469869196414947509765625</LatitudeDegrees>
              <LongitudeDegrees>-1.1246312968432903289794921875</LongitudeDegrees>
            </Position>
            <AltitudeMeters>176.1999969482421875</AltitudeMeters>
            <DistanceMeters>NAN</DistanceMeters>
          </Trackpoint>
          <Trackpoint>
            <Time>2020-05-25T05:27:30.000Z</Time>
            <Position>
              <LatitudeDegrees>38.15597984008491039276123046875</LatitudeDegrees>
              <LongitudeDegrees>-1.12465761601924896240234375</LongitudeDegrees>
            </Position>
            <AltitudeMeters>176.1999969482421875</AltitudeMeters>
            <DistanceMeters>NAN</DistanceMeters>
          </Trackpoint>
          <Trackpoint>
            <Time>2020-05-25T05:27:31.000Z</Time>
            <Position>
              <LatitudeDegrees>38.15597984008491039276123046875</LatitudeDegrees>
              <LongitudeDegrees>-1.12465761601924896240234375</LongitudeDegrees>
            </Position>
            <AltitudeMeters>176</AltitudeMeters>
            <DistanceMeters>NAN</DistanceMeters>
          </Trackpoint>
          <Trackpoint>
            <Time>2020-05-25T05:27:32.000Z</Time>
            <Position>
              <LatitudeDegrees>38.15604689531028270721435546875</LatitudeDegrees>
              <LongitudeDegrees>-1.1246705241501331329345703125</LongitudeDegrees>
            </Position>
            <AltitudeMeters>176</AltitudeMeters>
            <DistanceMeters>NAN</DistanceMeters>
          </Trackpoint>
          <Trackpoint>
            <Time>2020-05-25T05:27:33.000Z</Time>
            <Position>
              <LatitudeDegrees>38.15611327998340129852294921875</LatitudeDegrees>
              <LongitudeDegrees>-1.12468318082392215728759765625</LongitudeDegrees>
            </Position>
            <AltitudeMeters>176</AltitudeMeters>
            <DistanceMeters>NAN</DistanceMeters>
          </Trackpoint>
          <Trackpoint>
            <Time>2020-05-25T05:27:34.000Z</Time>
            <Position>
              <LatitudeDegrees>38.15617932938039302825927734375</LatitudeDegrees>
              <LongitudeDegrees>-1.1246960051357746124267578125</LongitudeDegrees>
            </Position>
            <AltitudeMeters>176</AltitudeMeters>
            <DistanceMeters>NAN</DistanceMeters>
          </Trackpoint>
          <Trackpoint>
            <Time>2020-05-25T05:27:35.000Z</Time>
            <Position>
              <LatitudeDegrees>38.15624537877738475799560546875</LatitudeDegrees>
              <LongitudeDegrees>-1.12470983527600765228271484375</LongitudeDegrees>
            </Position>
            <AltitudeMeters>176</AltitudeMeters>
            <DistanceMeters>NAN</DistanceMeters>
          </Trackpoint>
          <Trackpoint>
            <Time>2020-05-25T05:27:36.000Z</Time>
            <Position>
              <LatitudeDegrees>38.1563113443553447723388671875</LatitudeDegrees>
              <LongitudeDegrees>-1.12472333014011383056640625</LongitudeDegrees>
            </Position>
            <AltitudeMeters>176</AltitudeMeters>
            <DistanceMeters>NAN</DistanceMeters>
          </Trackpoint>
          <Trackpoint>
            <Time>2020-05-25T05:27:37.000Z</Time>
            <Position>
              <LatitudeDegrees>38.15637730993330478668212890625</LatitudeDegrees>
              <LongitudeDegrees>-1.12473548389971256256103515625</LongitudeDegrees>
            </Position>
            <AltitudeMeters>176</AltitudeMeters>
            <DistanceMeters>NAN</DistanceMeters>
          </Trackpoint>
          <Trackpoint>
            <Time>2020-05-25T05:27:38.000Z</Time>
            <Position>
              <LatitudeDegrees>38.156442940235137939453125</LatitudeDegrees>
              <LongitudeDegrees>-1.12474772147834300994873046875</LongitudeDegrees>
            </Position>
            <AltitudeMeters>176</AltitudeMeters>
            <DistanceMeters>NAN</DistanceMeters>
          </Trackpoint>
          <Trackpoint>
            <Time>2020-05-25T05:27:39.000Z</Time>
            <Position>
              <LatitudeDegrees>38.15650798380374908447265625</LatitudeDegrees>
              <LongitudeDegrees>-1.1247610487043857574462890625</LongitudeDegrees>
            </Position>
            <AltitudeMeters>176</AltitudeMeters>
            <DistanceMeters>NAN</DistanceMeters>
          </Trackpoint>
          <Trackpoint>
            <Time>2020-05-25T05:27:40.000Z</Time>
            <Position>
              <LatitudeDegrees>38.1565725244581699371337890625</LatitudeDegrees>
              <LongitudeDegrees>-1.12477538175880908966064453125</LongitudeDegrees>
            </Position>
            <AltitudeMeters>176</AltitudeMeters>
            <DistanceMeters>NAN</DistanceMeters>
          </Trackpoint>
          <Trackpoint>
            <Time>2020-05-25T05:27:41.000Z</Time>
            <Position>
              <LatitudeDegrees>38.15663672983646392822265625</LatitudeDegrees>
              <LongitudeDegrees>-1.1247898824512958526611328125</LongitudeDegrees>
            </Position>
            <AltitudeMeters>176</AltitudeMeters>
            <DistanceMeters>NAN</DistanceMeters>
          </Trackpoint>
          <Trackpoint>
            <Time>2020-05-25T05:27:42.000Z</Time>
            <Position>
              <LatitudeDegrees>38.1566995941102504730224609375</LatitudeDegrees>
              <LongitudeDegrees>-1.1248049698770046234130859375</LongitudeDegrees>
            </Position>
            <AltitudeMeters>176</AltitudeMeters>
            <DistanceMeters>NAN</DistanceMeters>
          </Trackpoint>
          <Trackpoint>
            <Time>2020-05-25T05:27:43.000Z</Time>
            <Position>
              <LatitudeDegrees>38.15676220692694187164306640625</LatitudeDegrees>
              <LongitudeDegrees>-1.1248200573027133941650390625</LongitudeDegrees>
            </Position>
            <AltitudeMeters>176</AltitudeMeters>
            <DistanceMeters>NAN</DistanceMeters>
          </Trackpoint>
          <Trackpoint>
            <Time>2020-05-25T05:27:44.000Z</Time>
            <Position>
              <LatitudeDegrees>38.156824819743633270263671875</LatitudeDegrees>
              <LongitudeDegrees>-1.1248338036239147186279296875</LongitudeDegrees>
            </Position>
            <AltitudeMeters>176.1999969482421875</AltitudeMeters>
            <DistanceMeters>NAN</DistanceMeters>
          </Trackpoint>
          <Trackpoint>
            <Time>2020-05-25T05:27:45.000Z</Time>
            <Position>
              <LatitudeDegrees>38.15688709728419780731201171875</LatitudeDegrees>
              <LongitudeDegrees>-1.12484562210738658905029296875</LongitudeDegrees>
            </Position>
            <AltitudeMeters>176.1999969482421875</AltitudeMeters>
            <DistanceMeters>NAN</DistanceMeters>
          </Trackpoint>
          <Trackpoint>
            <Time>2020-05-25T05:27:46.000Z</Time>
            <Position>
              <LatitudeDegrees>38.1569490395486354827880859375</LatitudeDegrees>
              <LongitudeDegrees>-1.12485601566731929779052734375</LongitudeDegrees>
            </Position>
            <AltitudeMeters>176.1999969482421875</AltitudeMeters>
            <DistanceMeters>NAN</DistanceMeters>
          </Trackpoint>
          <Trackpoint>
            <Time>2020-05-25T05:27:47.000Z</Time>
            <Position>
              <LatitudeDegrees>38.1570103950798511505126953125</LatitudeDegrees>
              <LongitudeDegrees>-1.124867498874664306640625</LongitudeDegrees>
            </Position>
            <AltitudeMeters>176.1999969482421875</AltitudeMeters>
            <DistanceMeters>NAN</DistanceMeters>
          </Trackpoint>
          <Trackpoint>
            <Time>2020-05-25T05:27:48.000Z</Time>
            <Position>
              <LatitudeDegrees>38.15707116387784481048583984375</LatitudeDegrees>
              <LongitudeDegrees>-1.124880574643611907958984375</LongitudeDegrees>
            </Position>
            <AltitudeMeters>176.1999969482421875</AltitudeMeters>
            <DistanceMeters>NAN</DistanceMeters>
          </Trackpoint>
          <Trackpoint>
            <Time>2020-05-25T05:27:49.000Z</Time>
            <Position>
              <LatitudeDegrees>38.15712966956198215484619140625</LatitudeDegrees>
              <LongitudeDegrees>-1.12489474005997180938720703125</LongitudeDegrees>
            </Position>
            <AltitudeMeters>176.399993896484375</AltitudeMeters>
            <DistanceMeters>NAN</DistanceMeters>
          </Trackpoint>
          <Trackpoint>
            <Time>2020-05-25T05:27:50.000Z</Time>
            <Position>
              <LatitudeDegrees>38.1571874208748340606689453125</LatitudeDegrees>
              <LongitudeDegrees>-1.124908067286014556884765625</LongitudeDegrees>
            </Position>
            <AltitudeMeters>176.399993896484375</AltitudeMeters>
            <DistanceMeters>NAN</DistanceMeters>
          </Trackpoint>
          <Trackpoint>
            <Time>2020-05-25T05:27:51.000Z</Time>
            <Position>
              <LatitudeDegrees>38.1572467647492885589599609375</LatitudeDegrees>
              <LongitudeDegrees>-1.1249203048646450042724609375</LongitudeDegrees>
            </Position>
            <AltitudeMeters>176.600006103515625</AltitudeMeters>
            <DistanceMeters>NAN</DistanceMeters>
          </Trackpoint>
          <Trackpoint>
            <Time>2020-05-25T05:27:52.000Z</Time>
            <Position>
              <LatitudeDegrees>38.15730703063309192657470703125</LatitudeDegrees>
              <LongitudeDegrees>-1.12493254244327545166015625</LongitudeDegrees>
            </Position>
            <AltitudeMeters>176.600006103515625</AltitudeMeters>
            <DistanceMeters>NAN</DistanceMeters>
          </Trackpoint>
          <Trackpoint>
            <Time>2020-05-25T05:27:53.000Z</Time>
            <Position>
              <LatitudeDegrees>38.1573667936027050018310546875</LatitudeDegrees>
              <LongitudeDegrees>-1.124944947659969329833984375</LongitudeDegrees>
            </Position>
            <AltitudeMeters>176.8000030517578125</AltitudeMeters>
            <DistanceMeters>NAN</DistanceMeters>
          </Trackpoint>
          <Trackpoint>
            <Time>2020-05-25T05:27:54.000Z</Time>
            <Position>
              <LatitudeDegrees>38.15742555074393749237060546875</LatitudeDegrees>
              <LongitudeDegrees>-1.12495726905763149261474609375</LongitudeDegrees>
            </Position>
            <AltitudeMeters>176.8000030517578125</AltitudeMeters>
            <DistanceMeters>NAN</DistanceMeters>
          </Trackpoint>
          <Trackpoint>
            <Time>2020-05-25T05:27:55.000Z</Time>
            <Position>
              <LatitudeDegrees>38.157483637332916259765625</LatitudeDegrees>
              <LongitudeDegrees>-1.124969087541103363037109375</LongitudeDegrees>
            </Position>
            <AltitudeMeters>176.8000030517578125</AltitudeMeters>
            <DistanceMeters>NAN</DistanceMeters>
          </Trackpoint>
          <Trackpoint>
            <Time>2020-05-25T05:27:56.000Z</Time>
            <Position>
              <LatitudeDegrees>38.15754088573157787322998046875</LatitudeDegrees>
              <LongitudeDegrees>-1.124980486929416656494140625</LongitudeDegrees>
            </Position>
            <AltitudeMeters>177</AltitudeMeters>
            <DistanceMeters>NAN</DistanceMeters>
          </Trackpoint>
          <Trackpoint>
            <Time>2020-05-25T05:27:57.000Z</Time>
            <Position>
              <LatitudeDegrees>38.15759771503508090972900390625</LatitudeDegrees>
              <LongitudeDegrees>-1.12499079667031764984130859375</LongitudeDegrees>
            </Position>
            <AltitudeMeters>177</AltitudeMeters>
            <DistanceMeters>NAN</DistanceMeters>
          </Trackpoint>
          <Trackpoint>
            <Time>2020-05-25T05:27:58.000Z</Time>
            <Position>
              <LatitudeDegrees>38.15765320323407649993896484375</LatitudeDegrees>
              <LongitudeDegrees>-1.125001609325408935546875</LongitudeDegrees>
            </Position>
            <AltitudeMeters>177.1999969482421875</AltitudeMeters>
            <DistanceMeters>NAN</DistanceMeters>
          </Trackpoint>
          <Trackpoint>
            <Time>2020-05-25T05:27:59.000Z</Time>
            <Position>
              <LatitudeDegrees>38.15770818851888179779052734375</LatitudeDegrees>
              <LongitudeDegrees>-1.12501275725662708282470703125</LongitudeDegrees>
            </Position>
            <AltitudeMeters>177.399993896484375</AltitudeMeters>
            <DistanceMeters>NAN</DistanceMeters>
          </Trackpoint>
          <Trackpoint>
            <Time>2020-05-25T05:28:00.000Z</Time>
            <Position>
              <LatitudeDegrees>38.15776317380368709564208984375</LatitudeDegrees>
              <LongitudeDegrees>-1.12502482719719409942626953125</LongitudeDegrees>
            </Position>
            <AltitudeMeters>177.399993896484375</AltitudeMeters>
            <DistanceMeters>NAN</DistanceMeters>
          </Trackpoint>
          <Trackpoint>
            <Time>2020-05-25T05:28:01.000Z</Time>
            <Position>
              <LatitudeDegrees>38.1578175723552703857421875</LatitudeDegrees>
              <LongitudeDegrees>-1.125036813318729400634765625</LongitudeDegrees>
            </Position>
            <AltitudeMeters>177.600006103515625</AltitudeMeters>
            <DistanceMeters>NAN</DistanceMeters>
          </Trackpoint>
          <Trackpoint>
            <Time>2020-05-25T05:28:02.000Z</Time>
            <Position>
              <LatitudeDegrees>38.1578717194497585296630859375</LatitudeDegrees>
              <LongitudeDegrees>-1.12504762597382068634033203125</LongitudeDegrees>
            </Position>
            <AltitudeMeters>177.600006103515625</AltitudeMeters>
            <DistanceMeters>NAN</DistanceMeters>
          </Trackpoint>
          <Trackpoint>
            <Time>2020-05-25T05:28:03.000Z</Time>
            <Position>
              <LatitudeDegrees>38.15792628563940525054931640625</LatitudeDegrees>
              <LongitudeDegrees>-1.125057600438594818115234375</LongitudeDegrees>
            </Position>
            <AltitudeMeters>177.8000030517578125</AltitudeMeters>
            <DistanceMeters>NAN</DistanceMeters>
          </Trackpoint>
          <Trackpoint>
            <Time>2020-05-25T05:28:04.000Z</Time>
            <Position>
              <LatitudeDegrees>38.1579803489148616790771484375</LatitudeDegrees>
              <LongitudeDegrees>-1.12506757490336894989013671875</LongitudeDegrees>
            </Position>
            <AltitudeMeters>177.8000030517578125</AltitudeMeters>
            <DistanceMeters>NAN</DistanceMeters>
          </Trackpoint>
          <Trackpoint>
            <Time>2020-05-25T05:28:05.000Z</Time>
            <Position>
              <LatitudeDegrees>38.15803457982838153839111328125</LatitudeDegrees>
              <LongitudeDegrees>-1.12507813610136508941650390625</LongitudeDegrees>
            </Position>
            <AltitudeMeters>178</AltitudeMeters>
            <DistanceMeters>NAN</DistanceMeters>
          </Trackpoint>
          <Trackpoint>
            <Time>2020-05-25T05:28:06.000Z</Time>
            <Position>
              <LatitudeDegrees>38.15808906219899654388427734375</LatitudeDegrees>
              <LongitudeDegrees>-1.1250887811183929443359375</LongitudeDegrees>
            </Position>
            <AltitudeMeters>178.1999969482421875</AltitudeMeters>
            <DistanceMeters>NAN</DistanceMeters>
          </Trackpoint>
          <Trackpoint>
            <Time>2020-05-25T05:28:07.000Z</Time>
            <Position>
              <LatitudeDegrees>38.15814337693154811859130859375</LatitudeDegrees>
              <LongitudeDegrees>-1.12510009668767452239990234375</LongitudeDegrees>
            </Position>
            <AltitudeMeters>178.399993896484375</AltitudeMeters>
            <DistanceMeters>NAN</DistanceMeters>
          </Trackpoint>
          <Trackpoint>
            <Time>2020-05-25T05:28:08.000Z</Time>
            <Position>
              <LatitudeDegrees>38.158198110759258270263671875</LatitudeDegrees>
              <LongitudeDegrees>-1.12511166371405124664306640625</LongitudeDegrees>
            </Position>
            <AltitudeMeters>178.399993896484375</AltitudeMeters>
            <DistanceMeters>NAN</DistanceMeters>
          </Trackpoint>
          <Trackpoint>
            <Time>2020-05-25T05:28:09.000Z</Time>
            <Position>
              <LatitudeDegrees>38.1582525931298732757568359375</LatitudeDegrees>
              <LongitudeDegrees>-1.1251234821975231170654296875</LongitudeDegrees>
            </Position>
            <AltitudeMeters>178.600006103515625</AltitudeMeters>
            <DistanceMeters>NAN</DistanceMeters>
          </Trackpoint>
          <Trackpoint>
            <Time>2020-05-25T05:28:10.000Z</Time>
            <Position>
              <LatitudeDegrees>38.15830699168145656585693359375</LatitudeDegrees>
              <LongitudeDegrees>-1.12513530068099498748779296875</LongitudeDegrees>
            </Position>
            <AltitudeMeters>178.8000030517578125</AltitudeMeters>
            <DistanceMeters>NAN</DistanceMeters>
          </Trackpoint>
          <Trackpoint>
            <Time>2020-05-25T05:28:11.000Z</Time>
            <Position>
              <LatitudeDegrees>38.158361054956912994384765625</LatitudeDegrees>
              <LongitudeDegrees>-1.12514686770737171173095703125</LongitudeDegrees>
            </Position>
            <AltitudeMeters>179</AltitudeMeters>
            <DistanceMeters>NAN</DistanceMeters>
          </Trackpoint>
          <Trackpoint>
            <Time>2020-05-25T05:28:12.000Z</Time>
            <Position>
              <LatitudeDegrees>38.15841495059430599212646484375</LatitudeDegrees>
              <LongitudeDegrees>-1.12515793181955814361572265625</LongitudeDegrees>
            </Position>
            <AltitudeMeters>179</AltitudeMeters>
            <DistanceMeters>NAN</DistanceMeters>
          </Trackpoint>
          <Trackpoint>
            <Time>2020-05-25T05:28:13.000Z</Time>
            <Position>
              <LatitudeDegrees>38.15846859477460384368896484375</LatitudeDegrees>
              <LongitudeDegrees>-1.12516882829368114471435546875</LongitudeDegrees>
            </Position>
            <AltitudeMeters>179.1999969482421875</AltitudeMeters>
            <DistanceMeters>NAN</DistanceMeters>
          </Trackpoint>
          <Trackpoint>
            <Time>2020-05-25T05:28:14.000Z</Time>
            <Position>
              <LatitudeDegrees>38.1585214845836162567138671875</LatitudeDegrees>
              <LongitudeDegrees>-1.12517905421555042266845703125</LongitudeDegrees>
            </Position>
            <AltitudeMeters>179.1999969482421875</AltitudeMeters>
            <DistanceMeters>NAN</DistanceMeters>
          </Trackpoint>
          <Trackpoint>
            <Time>2020-05-25T05:28:15.000Z</Time>
            <Position>
              <LatitudeDegrees>38.15857420675456523895263671875</LatitudeDegrees>
              <LongitudeDegrees>-1.125189028680324554443359375</LongitudeDegrees>
            </Position>
            <AltitudeMeters>179.1999969482421875</AltitudeMeters>
            <DistanceMeters>NAN</DistanceMeters>
          </Trackpoint>
          <Trackpoint>
            <Time>2020-05-25T05:28:16.000Z</Time>
            <Position>
              <LatitudeDegrees>38.1586257554590702056884765625</LatitudeDegrees>
              <LongitudeDegrees>-1.1251995898783206939697265625</LongitudeDegrees>
            </Position>
            <AltitudeMeters>179.399993896484375</AltitudeMeters>
            <DistanceMeters>NAN</DistanceMeters>
          </Trackpoint>
          <Trackpoint>
            <Time>2020-05-25T05:28:17.000Z</Time>
            <Position>
              <LatitudeDegrees>38.158675543963909149169921875</LatitudeDegrees>
              <LongitudeDegrees>-1.1252099834382534027099609375</LongitudeDegrees>
            </Position>
            <AltitudeMeters>179.600006103515625</AltitudeMeters>
            <DistanceMeters>NAN</DistanceMeters>
          </Trackpoint>
          <Trackpoint>
            <Time>2020-05-25T05:28:18.000Z</Time>
            <Position>
              <LatitudeDegrees>38.15872457809746265411376953125</LatitudeDegrees>
              <LongitudeDegrees>-1.12521979026496410369873046875</LongitudeDegrees>
            </Position>
            <AltitudeMeters>179.8000030517578125</AltitudeMeters>
            <DistanceMeters>NAN</DistanceMeters>
          </Trackpoint>
          <Trackpoint>
            <Time>2020-05-25T05:28:19.000Z</Time>
            <Position>
              <LatitudeDegrees>38.1587742827832698822021484375</LatitudeDegrees>
              <LongitudeDegrees>-1.12522917799651622772216796875</LongitudeDegrees>
            </Position>
            <AltitudeMeters>179.8000030517578125</AltitudeMeters>
            <DistanceMeters>NAN</DistanceMeters>
          </Trackpoint>
          <Trackpoint>
            <Time>2020-05-25T05:28:20.000Z</Time>
            <Position>
              <LatitudeDegrees>38.15882398746907711029052734375</LatitudeDegrees>
              <LongitudeDegrees>-1.1252384819090366363525390625</LongitudeDegrees>
            </Position>
            <AltitudeMeters>180</AltitudeMeters>
            <DistanceMeters>NAN</DistanceMeters>
          </Trackpoint>
          <Trackpoint>
            <Time>2020-05-25T05:28:21.000Z</Time>
            <Position>
              <LatitudeDegrees>38.15887394361197948455810546875</LatitudeDegrees>
              <LongitudeDegrees>-1.12524770200252532958984375</LongitudeDegrees>
            </Position>
            <AltitudeMeters>180.1999969482421875</AltitudeMeters>
            <DistanceMeters>NAN</DistanceMeters>
          </Trackpoint>
          <Trackpoint>
            <Time>2020-05-25T05:28:22.000Z</Time>
            <Position>
              <LatitudeDegrees>38.158922307193279266357421875</LatitudeDegrees>
              <LongitudeDegrees>-1.12525750882923603057861328125</LongitudeDegrees>
            </Position>
            <AltitudeMeters>180.399993896484375</AltitudeMeters>
            <DistanceMeters>NAN</DistanceMeters>
          </Trackpoint>
          <Trackpoint>
            <Time>2020-05-25T05:28:23.000Z</Time>
            <Position>
              <LatitudeDegrees>38.158968575298786163330078125</LatitudeDegrees>
              <LongitudeDegrees>-1.1252679862082004547119140625</LongitudeDegrees>
            </Position>
            <AltitudeMeters>180.600006103515625</AltitudeMeters>
            <DistanceMeters>NAN</DistanceMeters>
          </Trackpoint>
          <Trackpoint>
            <Time>2020-05-25T05:28:24.000Z</Time>
            <Position>
              <LatitudeDegrees>38.159015178680419921875</LatitudeDegrees>
              <LongitudeDegrees>-1.1252780444920063018798828125</LongitudeDegrees>
            </Position>
            <AltitudeMeters>181</AltitudeMeters>
            <DistanceMeters>NAN</DistanceMeters>
          </Trackpoint>
          <Trackpoint>
            <Time>2020-05-25T05:28:25.000Z</Time>
            <Position>
              <LatitudeDegrees>38.15906169824302196502685546875</LatitudeDegrees>
              <LongitudeDegrees>-1.1252870969474315643310546875</LongitudeDegrees>
            </Position>
            <AltitudeMeters>181.1999969482421875</AltitudeMeters>
            <DistanceMeters>NAN</DistanceMeters>
          </Trackpoint>
          <Trackpoint>
            <Time>2020-05-25T05:28:26.000Z</Time>
            <Position>
              <LatitudeDegrees>38.15910796634852886199951171875</LatitudeDegrees>
              <LongitudeDegrees>-1.12529573030769824981689453125</LongitudeDegrees>
            </Position>
            <AltitudeMeters>181.399993896484375</AltitudeMeters>
            <DistanceMeters>NAN</DistanceMeters>
          </Trackpoint>
          <Trackpoint>
            <Time>2020-05-25T05:28:27.000Z</Time>
            <Position>
              <LatitudeDegrees>38.15915339626371860504150390625</LatitudeDegrees>
              <LongitudeDegrees>-1.12530478276312351226806640625</LongitudeDegrees>
            </Position>
            <AltitudeMeters>181.8000030517578125</AltitudeMeters>
            <DistanceMeters>NAN</DistanceMeters>
          </Trackpoint>
          <Trackpoint>
            <Time>2020-05-25T05:28:28.000Z</Time>
            <Position>
              <LatitudeDegrees>38.1591984070837497711181640625</LatitudeDegrees>
              <LongitudeDegrees>-1.1253140866756439208984375</LongitudeDegrees>
            </Position>
            <AltitudeMeters>182.1999969482421875</AltitudeMeters>
            <DistanceMeters>NAN</DistanceMeters>
          </Trackpoint>
          <Trackpoint>
            <Time>2020-05-25T05:28:29.000Z</Time>
            <Position>
              <LatitudeDegrees>38.15924249589443206787109375</LatitudeDegrees>
              <LongitudeDegrees>-1.1253239773213863372802734375</LongitudeDegrees>
            </Position>
            <AltitudeMeters>182.399993896484375</AltitudeMeters>
            <DistanceMeters>NAN</DistanceMeters>
          </Trackpoint>
          <Trackpoint>
            <Time>2020-05-25T05:28:30.000Z</Time>
            <Position>
              <LatitudeDegrees>38.15928666852414608001708984375</LatitudeDegrees>
              <LongitudeDegrees>-1.1253337003290653228759765625</LongitudeDegrees>
            </Position>
            <AltitudeMeters>182.8000030517578125</AltitudeMeters>
            <DistanceMeters>NAN</DistanceMeters>
          </Trackpoint>
          <Trackpoint>
            <Time>2020-05-25T05:28:31.000Z</Time>
            <Position>
              <LatitudeDegrees>38.15933109261095523834228515625</LatitudeDegrees>
              <LongitudeDegrees>-1.12534333951771259307861328125</LongitudeDegrees>
            </Position>
            <AltitudeMeters>183.1999969482421875</AltitudeMeters>
            <DistanceMeters>NAN</DistanceMeters>
          </Trackpoint>
          <Trackpoint>
            <Time>2020-05-25T05:28:32.000Z</Time>
            <Position>
              <LatitudeDegrees>38.15937585197389125823974609375</LatitudeDegrees>
              <LongitudeDegrees>-1.12535306252539157867431640625</LongitudeDegrees>
            </Position>
            <AltitudeMeters>183.399993896484375</AltitudeMeters>
            <DistanceMeters>NAN</DistanceMeters>
          </Trackpoint>
          <Trackpoint>
            <Time>2020-05-25T05:28:33.000Z</Time>
            <Position>
              <LatitudeDegrees>38.15942128188908100128173828125</LatitudeDegrees>
              <LongitudeDegrees>-1.12536303699016571044921875</LongitudeDegrees>
            </Position>
            <AltitudeMeters>183.600006103515625</AltitudeMeters>
            <DistanceMeters>NAN</DistanceMeters>
          </Trackpoint>
          <Trackpoint>
            <Time>2020-05-25T05:28:34.000Z</Time>
            <Position>
              <LatitudeDegrees>38.15946704708039760589599609375</LatitudeDegrees>
              <LongitudeDegrees>-1.12537267617881298065185546875</LongitudeDegrees>
            </Position>
            <AltitudeMeters>183.8000030517578125</AltitudeMeters>
            <DistanceMeters>NAN</DistanceMeters>
          </Trackpoint>
          <Trackpoint>
            <Time>2020-05-25T05:28:35.000Z</Time>
            <Position>
              <LatitudeDegrees>38.159513063728809356689453125</LatitudeDegrees>
              <LongitudeDegrees>-1.12538206391036510467529296875</LongitudeDegrees>
            </Position>
            <AltitudeMeters>184</AltitudeMeters>
            <DistanceMeters>NAN</DistanceMeters>
          </Trackpoint>
          <Trackpoint>
            <Time>2020-05-25T05:28:36.000Z</Time>
            <Position>
              <LatitudeDegrees>38.15955874510109424591064453125</LatitudeDegrees>
              <LongitudeDegrees>-1.1253923736512660980224609375</LongitudeDegrees>
            </Position>
            <AltitudeMeters>184.399993896484375</AltitudeMeters>
            <DistanceMeters>NAN</DistanceMeters>
          </Trackpoint>
          <Trackpoint>
            <Time>2020-05-25T05:28:37.000Z</Time>
            <Position>
              <LatitudeDegrees>38.159604258835315704345703125</LatitudeDegrees>
              <LongitudeDegrees>-1.12540301866829395294189453125</LongitudeDegrees>
            </Position>
            <AltitudeMeters>184.600006103515625</AltitudeMeters>
            <DistanceMeters>NAN</DistanceMeters>
          </Trackpoint>
          <Trackpoint>
            <Time>2020-05-25T05:28:38.000Z</Time>
            <Position>
              <LatitudeDegrees>38.159649856388568878173828125</LatitudeDegrees>
              <LongitudeDegrees>-1.125414334237575531005859375</LongitudeDegrees>
            </Position>
            <AltitudeMeters>184.8000030517578125</AltitudeMeters>
            <DistanceMeters>NAN</DistanceMeters>
          </Trackpoint>
          <Trackpoint>
            <Time>2020-05-25T05:28:39.000Z</Time>
            <Position>
              <LatitudeDegrees>38.15969553776085376739501953125</LatitudeDegrees>
              <LongitudeDegrees>-1.12542497925460338592529296875</LongitudeDegrees>
            </Position>
            <AltitudeMeters>185.1999969482421875</AltitudeMeters>
            <DistanceMeters>NAN</DistanceMeters>
          </Trackpoint>
          <Trackpoint>
            <Time>2020-05-25T05:28:40.000Z</Time>
            <Position>
              <LatitudeDegrees>38.15974113531410694122314453125</LatitudeDegrees>
              <LongitudeDegrees>-1.1254326067864894866943359375</LongitudeDegrees>
            </Position>
            <AltitudeMeters>185.399993896484375</AltitudeMeters>
            <DistanceMeters>NAN</DistanceMeters>
          </Trackpoint>
          <Trackpoint>
            <Time>2020-05-25T05:28:41.000Z</Time>
            <Position>
              <LatitudeDegrees>38.1597868166863918304443359375</LatitudeDegrees>
              <LongitudeDegrees>-1.1254393123090267181396484375</LongitudeDegrees>
            </Position>
            <AltitudeMeters>185.8000030517578125</AltitudeMeters>
            <DistanceMeters>NAN</DistanceMeters>
          </Trackpoint>
          <Trackpoint>
            <Time>2020-05-25T05:28:42.000Z</Time>
            <Position>
              <LatitudeDegrees>38.1598319113254547119140625</LatitudeDegrees>
              <LongitudeDegrees>-1.12544794566929340362548828125</LongitudeDegrees>
            </Position>
            <AltitudeMeters>186</AltitudeMeters>
            <DistanceMeters>NAN</DistanceMeters>
          </Trackpoint>
          <Trackpoint>
            <Time>2020-05-25T05:28:43.000Z</Time>
            <Position>
              <LatitudeDegrees>38.15987641923129558563232421875</LatitudeDegrees>
              <LongitudeDegrees>-1.12545716576278209686279296875</LongitudeDegrees>
            </Position>
            <AltitudeMeters>186.399993896484375</AltitudeMeters>
            <DistanceMeters>NAN</DistanceMeters>
          </Trackpoint>
          <Trackpoint>
            <Time>2020-05-25T05:28:44.000Z</Time>
            <Position>
              <LatitudeDegrees>38.15992134623229503631591796875</LatitudeDegrees>
              <LongitudeDegrees>-1.1254664696753025054931640625</LongitudeDegrees>
            </Position>
            <AltitudeMeters>186.600006103515625</AltitudeMeters>
            <DistanceMeters>NAN</DistanceMeters>
          </Trackpoint>
          <Trackpoint>
            <Time>2020-05-25T05:28:45.000Z</Time>
            <Position>
              <LatitudeDegrees>38.1599665246903896331787109375</LatitudeDegrees>
              <LongitudeDegrees>-1.12547661177814006805419921875</LongitudeDegrees>
            </Position>
            <AltitudeMeters>186.8000030517578125</AltitudeMeters>
            <DistanceMeters>NAN</DistanceMeters>
          </Trackpoint>
          <Trackpoint>
            <Time>2020-05-25T05:28:46.000Z</Time>
            <Position>
              <LatitudeDegrees>38.1600129604339599609375</LatitudeDegrees>
              <LongitudeDegrees>-1.12548616714775562286376953125</LongitudeDegrees>
            </Position>
            <AltitudeMeters>187</AltitudeMeters>
            <DistanceMeters>NAN</DistanceMeters>
          </Trackpoint>
          <Trackpoint>
            <Time>2020-05-25T05:28:47.000Z</Time>
            <Position>
              <LatitudeDegrees>38.1600604020059108734130859375</LatitudeDegrees>
              <LongitudeDegrees>-1.12549471668899059295654296875</LongitudeDegrees>
            </Position>
            <AltitudeMeters>187.1999969482421875</AltitudeMeters>
            <DistanceMeters>NAN</DistanceMeters>
          </Trackpoint>
          <Trackpoint>
            <Time>2020-05-25T05:28:48.000Z</Time>
            <Position>
              <LatitudeDegrees>38.16010826267302036285400390625</LatitudeDegrees>
              <LongitudeDegrees>-1.12550460733473300933837890625</LongitudeDegrees>
            </Position>
            <AltitudeMeters>187.399993896484375</AltitudeMeters>
            <DistanceMeters>NAN</DistanceMeters>
          </Trackpoint>
          <Trackpoint>
            <Time>2020-05-25T05:28:49.000Z</Time>
            <Position>
              <LatitudeDegrees>38.160156793892383575439453125</LatitudeDegrees>
              <LongitudeDegrees>-1.12551550380885601043701171875</LongitudeDegrees>
            </Position>
            <AltitudeMeters>187.600006103515625</AltitudeMeters>
            <DistanceMeters>NAN</DistanceMeters>
          </Trackpoint>
          <Trackpoint>
            <Time>2020-05-25T05:28:50.000Z</Time>
            <Position>
              <LatitudeDegrees>38.16020666621625423431396484375</LatitudeDegrees>
              <LongitudeDegrees>-1.1255254782736301422119140625</LongitudeDegrees>
            </Position>
            <AltitudeMeters>187.8000030517578125</AltitudeMeters>
            <DistanceMeters>NAN</DistanceMeters>
          </Trackpoint>
          <Trackpoint>
            <Time>2020-05-25T05:28:51.000Z</Time>
            <Position>
              <LatitudeDegrees>38.16025712527334690093994140625</LatitudeDegrees>
              <LongitudeDegrees>-1.1255352012813091278076171875</LongitudeDegrees>
            </Position>
            <AltitudeMeters>188.1999969482421875</AltitudeMeters>
            <DistanceMeters>NAN</DistanceMeters>
          </Trackpoint>
          <Trackpoint>
            <Time>2020-05-25T05:28:52.000Z</Time>
            <Position>
              <LatitudeDegrees>38.16030791960656642913818359375</LatitudeDegrees>
              <LongitudeDegrees>-1.125545762479305267333984375</LongitudeDegrees>
            </Position>
            <AltitudeMeters>188.600006103515625</AltitudeMeters>
            <DistanceMeters>NAN</DistanceMeters>
          </Trackpoint>
          <Trackpoint>
            <Time>2020-05-25T05:28:53.000Z</Time>
            <Position>
              <LatitudeDegrees>38.16035904921591281890869140625</LatitudeDegrees>
              <LongitudeDegrees>-1.12555758096277713775634765625</LongitudeDegrees>
            </Position>
            <AltitudeMeters>188.8000030517578125</AltitudeMeters>
            <DistanceMeters>NAN</DistanceMeters>
          </Trackpoint>
          <Trackpoint>
            <Time>2020-05-25T05:28:54.000Z</Time>
            <Position>
              <LatitudeDegrees>38.16041101701557636260986328125</LatitudeDegrees>
              <LongitudeDegrees>-1.125570237636566162109375</LongitudeDegrees>
            </Position>
            <AltitudeMeters>189</AltitudeMeters>
            <DistanceMeters>NAN</DistanceMeters>
          </Trackpoint>
          <Trackpoint>
            <Time>2020-05-25T05:28:55.000Z</Time>
            <Position>
              <LatitudeDegrees>38.1604635715484619140625</LatitudeDegrees>
              <LongitudeDegrees>-1.125582642853260040283203125</LongitudeDegrees>
            </Position>
            <AltitudeMeters>189.1999969482421875</AltitudeMeters>
            <DistanceMeters>NAN</DistanceMeters>
          </Trackpoint>
          <Trackpoint>
            <Time>2020-05-25T05:28:56.000Z</Time>
            <Position>
              <LatitudeDegrees>38.16051662899553775787353515625</LatitudeDegrees>
              <LongitudeDegrees>-1.1255925334990024566650390625</LongitudeDegrees>
            </Position>
            <AltitudeMeters>189.399993896484375</AltitudeMeters>
            <DistanceMeters>NAN</DistanceMeters>
          </Trackpoint>
          <Trackpoint>
            <Time>2020-05-25T05:28:57.000Z</Time>
            <Position>
              <LatitudeDegrees>38.16057027317583560943603515625</LatitudeDegrees>
              <LongitudeDegrees>-1.12560234032571315765380859375</LongitudeDegrees>
            </Position>
            <AltitudeMeters>189.600006103515625</AltitudeMeters>
            <DistanceMeters>NAN</DistanceMeters>
          </Trackpoint>
          <Trackpoint>
            <Time>2020-05-25T05:28:58.000Z</Time>
            <Position>
              <LatitudeDegrees>38.16062391735613346099853515625</LatitudeDegrees>
              <LongitudeDegrees>-1.12561382353305816650390625</LongitudeDegrees>
            </Position>
            <AltitudeMeters>189.600006103515625</AltitudeMeters>
            <DistanceMeters>NAN</DistanceMeters>
          </Trackpoint>
          <Trackpoint>
            <Time>2020-05-25T05:28:59.000Z</Time>
            <Position>
              <LatitudeDegrees>38.16067739389836788177490234375</LatitudeDegrees>
              <LongitudeDegrees>-1.12562614493072032928466796875</LongitudeDegrees>
            </Position>
            <AltitudeMeters>189.8000030517578125</AltitudeMeters>
            <DistanceMeters>NAN</DistanceMeters>
          </Trackpoint>
          <Trackpoint>
            <Time>2020-05-25T05:29:00.000Z</Time>
            <Position>
              <LatitudeDegrees>38.16073103807866573333740234375</LatitudeDegrees>
              <LongitudeDegrees>-1.12563787959516048431396484375</LongitudeDegrees>
            </Position>
            <AltitudeMeters>189.8000030517578125</AltitudeMeters>
            <DistanceMeters>NAN</DistanceMeters>
          </Trackpoint>
          <Trackpoint>
            <Time>2020-05-25T05:29:01.000Z</Time>
            <Position>
              <LatitudeDegrees>38.16078451462090015411376953125</LatitudeDegrees>
              <LongitudeDegrees>-1.1256491951644420623779296875</LongitudeDegrees>
            </Position>
            <AltitudeMeters>189.8000030517578125</AltitudeMeters>
            <DistanceMeters>NAN</DistanceMeters>
          </Trackpoint>
          <Trackpoint>
            <Time>2020-05-25T05:29:02.000Z</Time>
            <Position>
              <LatitudeDegrees>38.160838745534420013427734375</LatitudeDegrees>
              <LongitudeDegrees>-1.125660426914691925048828125</LongitudeDegrees>
            </Position>
            <AltitudeMeters>189.8000030517578125</AltitudeMeters>
            <DistanceMeters>NAN</DistanceMeters>
          </Trackpoint>
          <Trackpoint>
            <Time>2020-05-25T05:29:03.000Z</Time>
            <Position>
              <LatitudeDegrees>38.16089381463825702667236328125</LatitudeDegrees>
              <LongitudeDegrees>-1.12567207776010036468505859375</LongitudeDegrees>
            </Position>
            <AltitudeMeters>190</AltitudeMeters>
            <DistanceMeters>NAN</DistanceMeters>
          </Trackpoint>
          <Trackpoint>
            <Time>2020-05-25T05:29:04.000Z</Time>
            <Position>
              <LatitudeDegrees>38.16094963811337947845458984375</LatitudeDegrees>
              <LongitudeDegrees>-1.12568381242454051971435546875</LongitudeDegrees>
            </Position>
            <AltitudeMeters>189.8000030517578125</AltitudeMeters>
            <DistanceMeters>NAN</DistanceMeters>
          </Trackpoint>
          <Trackpoint>
            <Time>2020-05-25T05:29:05.000Z</Time>
            <Position>
              <LatitudeDegrees>38.16100562922656536102294921875</LatitudeDegrees>
              <LongitudeDegrees>-1.12569563090801239013671875</LongitudeDegrees>
            </Position>
            <AltitudeMeters>189.8000030517578125</AltitudeMeters>
            <DistanceMeters>NAN</DistanceMeters>
          </Trackpoint>
          <Trackpoint>
            <Time>2020-05-25T05:29:06.000Z</Time>
            <Position>
              <LatitudeDegrees>38.16106162033975124359130859375</LatitudeDegrees>
              <LongitudeDegrees>-1.12570728175342082977294921875</LongitudeDegrees>
            </Position>
            <AltitudeMeters>190</AltitudeMeters>
            <DistanceMeters>NAN</DistanceMeters>
          </Trackpoint>
          <Trackpoint>
            <Time>2020-05-25T05:29:07.000Z</Time>
            <Position>
              <LatitudeDegrees>38.16111794672906398773193359375</LatitudeDegrees>
              <LongitudeDegrees>-1.1257189325988292694091796875</LongitudeDegrees>
            </Position>
            <AltitudeMeters>190</AltitudeMeters>
            <DistanceMeters>NAN</DistanceMeters>
          </Trackpoint>
          <Trackpoint>
            <Time>2020-05-25T05:29:08.000Z</Time>
            <Position>
              <LatitudeDegrees>38.16117368638515472412109375</LatitudeDegrees>
              <LongitudeDegrees>-1.125730834901332855224609375</LongitudeDegrees>
            </Position>
            <AltitudeMeters>190</AltitudeMeters>
            <DistanceMeters>NAN</DistanceMeters>
          </Trackpoint>
          <Trackpoint>
            <Time>2020-05-25T05:29:09.000Z</Time>
            <Position>
              <LatitudeDegrees>38.16123001277446746826171875</LatitudeDegrees>
              <LongitudeDegrees>-1.1257424019277095794677734375</LongitudeDegrees>
            </Position>
            <AltitudeMeters>190.1999969482421875</AltitudeMeters>
            <DistanceMeters>NAN</DistanceMeters>
          </Trackpoint>
          <Trackpoint>
            <Time>2020-05-25T05:29:10.000Z</Time>
            <Position>
              <LatitudeDegrees>38.1612865068018436431884765625</LatitudeDegrees>
              <LongitudeDegrees>-1.125753633677959442138671875</LongitudeDegrees>
            </Position>
            <AltitudeMeters>190.1999969482421875</AltitudeMeters>
            <DistanceMeters>NAN</DistanceMeters>
          </Trackpoint>
          <Trackpoint>
            <Time>2020-05-25T05:29:11.000Z</Time>
            <Position>
              <LatitudeDegrees>38.16134224645793437957763671875</LatitudeDegrees>
              <LongitudeDegrees>-1.12576511688530445098876953125</LongitudeDegrees>
            </Position>
            <AltitudeMeters>190.1999969482421875</AltitudeMeters>
            <DistanceMeters>NAN</DistanceMeters>
          </Trackpoint>
          <Trackpoint>
            <Time>2020-05-25T05:29:12.000Z</Time>
            <Position>
              <LatitudeDegrees>38.16139890812337398529052734375</LatitudeDegrees>
              <LongitudeDegrees>-1.1257772706449031829833984375</LongitudeDegrees>
            </Position>
            <AltitudeMeters>190.1999969482421875</AltitudeMeters>
            <DistanceMeters>NAN</DistanceMeters>
          </Trackpoint>
          <Trackpoint>
            <Time>2020-05-25T05:29:13.000Z</Time>
            <Position>
              <LatitudeDegrees>38.16145624034106731414794921875</LatitudeDegrees>
              <LongitudeDegrees>-1.1257893405854701995849609375</LongitudeDegrees>
            </Position>
            <AltitudeMeters>190.1999969482421875</AltitudeMeters>
            <DistanceMeters>NAN</DistanceMeters>
          </Trackpoint>
          <Trackpoint>
            <Time>2020-05-25T05:29:14.000Z</Time>
            <Position>
              <LatitudeDegrees>38.16151508130133152008056640625</LatitudeDegrees>
              <LongitudeDegrees>-1.12580166198313236236572265625</LongitudeDegrees>
            </Position>
            <AltitudeMeters>190.399993896484375</AltitudeMeters>
            <DistanceMeters>NAN</DistanceMeters>
          </Trackpoint>
          <Trackpoint>
            <Time>2020-05-25T05:29:15.000Z</Time>
            <Position>
              <LatitudeDegrees>38.16157492808997631072998046875</LatitudeDegrees>
              <LongitudeDegrees>-1.1258144862949848175048828125</LongitudeDegrees>
            </Position>
            <AltitudeMeters>190.399993896484375</AltitudeMeters>
            <DistanceMeters>NAN</DistanceMeters>
          </Trackpoint>
          <Trackpoint>
            <Time>2020-05-25T05:29:16.000Z</Time>
            <Position>
              <LatitudeDegrees>38.16163561306893825531005859375</LatitudeDegrees>
              <LongitudeDegrees>-1.1258275620639324188232421875</LongitudeDegrees>
            </Position>
            <AltitudeMeters>190.399993896484375</AltitudeMeters>
            <DistanceMeters>NAN</DistanceMeters>
          </Trackpoint>
          <Trackpoint>
            <Time>2020-05-25T05:29:17.000Z</Time>
            <Position>
              <LatitudeDegrees>38.1616972200572490692138671875</LatitudeDegrees>
              <LongitudeDegrees>-1.1258413083851337432861328125</LongitudeDegrees>
            </Position>
            <AltitudeMeters>190.399993896484375</AltitudeMeters>
            <DistanceMeters>NAN</DistanceMeters>
          </Trackpoint>
          <Trackpoint>
            <Time>2020-05-25T05:29:18.000Z</Time>
            <Position>
              <LatitudeDegrees>38.161759413778781890869140625</LatitudeDegrees>
              <LongitudeDegrees>-1.1258557252585887908935546875</LongitudeDegrees>
            </Position>
            <AltitudeMeters>190.399993896484375</AltitudeMeters>
            <DistanceMeters>NAN</DistanceMeters>
          </Trackpoint>
          <Trackpoint>
            <Time>2020-05-25T05:29:19.000Z</Time>
            <Position>
              <LatitudeDegrees>38.16182219423353672027587890625</LatitudeDegrees>
              <LongitudeDegrees>-1.12586989067494869232177734375</LongitudeDegrees>
            </Position>
            <AltitudeMeters>190.399993896484375</AltitudeMeters>
            <DistanceMeters>NAN</DistanceMeters>
          </Trackpoint>
          <Trackpoint>
            <Time>2020-05-25T05:29:20.000Z</Time>
            <Position>
              <LatitudeDegrees>38.16188556142151355743408203125</LatitudeDegrees>
              <LongitudeDegrees>-1.1258832179009914398193359375</LongitudeDegrees>
            </Position>
            <AltitudeMeters>190.399993896484375</AltitudeMeters>
            <DistanceMeters>NAN</DistanceMeters>
          </Trackpoint>
          <Trackpoint>
            <Time>2020-05-25T05:29:21.000Z</Time>
            <Position>
              <LatitudeDegrees>38.16194943152368068695068359375</LatitudeDegrees>
              <LongitudeDegrees>-1.12589679658412933349609375</LongitudeDegrees>
            </Position>
            <AltitudeMeters>190.399993896484375</AltitudeMeters>
            <DistanceMeters>NAN</DistanceMeters>
          </Trackpoint>
          <Trackpoint>
            <Time>2020-05-25T05:29:22.000Z</Time>
            <Position>
              <LatitudeDegrees>38.16201413981616497039794921875</LatitudeDegrees>
              <LongitudeDegrees>-1.1259107105433940887451171875</LongitudeDegrees>
            </Position>
            <AltitudeMeters>190.399993896484375</AltitudeMeters>
            <DistanceMeters>NAN</DistanceMeters>
          </Trackpoint>
          <Trackpoint>
            <Time>2020-05-25T05:29:23.000Z</Time>
            <Position>
              <LatitudeDegrees>38.16208002157509326934814453125</LatitudeDegrees>
              <LongitudeDegrees>-1.125925295054912567138671875</LongitudeDegrees>
            </Position>
            <AltitudeMeters>190.399993896484375</AltitudeMeters>
            <DistanceMeters>NAN</DistanceMeters>
          </Trackpoint>
          <Trackpoint>
            <Time>2020-05-25T05:29:24.000Z</Time>
            <Position>
              <LatitudeDegrees>38.16214724443852901458740234375</LatitudeDegrees>
              <LongitudeDegrees>-1.1259408853948116302490234375</LongitudeDegrees>
            </Position>
            <AltitudeMeters>190.1999969482421875</AltitudeMeters>
            <DistanceMeters>NAN</DistanceMeters>
          </Trackpoint>
          <Trackpoint>
            <Time>2020-05-25T05:29:25.000Z</Time>
            <Position>
              <LatitudeDegrees>38.16221480257809162139892578125</LatitudeDegrees>
              <LongitudeDegrees>-1.12595655955374240875244140625</LongitudeDegrees>
            </Position>
            <AltitudeMeters>190</AltitudeMeters>
            <DistanceMeters>NAN</DistanceMeters>
          </Trackpoint>
          <Trackpoint>
            <Time>2020-05-25T05:29:26.000Z</Time>
            <Position>
              <LatitudeDegrees>38.16228236071765422821044921875</LatitudeDegrees>
              <LongitudeDegrees>-1.1259712278842926025390625</LongitudeDegrees>
            </Position>
            <AltitudeMeters>190</AltitudeMeters>
            <DistanceMeters>NAN</DistanceMeters>
          </Trackpoint>
          <Trackpoint>
            <Time>2020-05-25T05:29:27.000Z</Time>
            <Position>
              <LatitudeDegrees>38.16235058940947055816650390625</LatitudeDegrees>
              <LongitudeDegrees>-1.12598639912903308868408203125</LongitudeDegrees>
            </Position>
            <AltitudeMeters>189.8000030517578125</AltitudeMeters>
            <DistanceMeters>NAN</DistanceMeters>
          </Trackpoint>
          <Trackpoint>
            <Time>2020-05-25T05:29:28.000Z</Time>
            <Position>
              <LatitudeDegrees>38.1624197401106357574462890625</LatitudeDegrees>
              <LongitudeDegrees>-1.12600198946893215179443359375</LongitudeDegrees>
            </Position>
            <AltitudeMeters>189.8000030517578125</AltitudeMeters>
            <DistanceMeters>NAN</DistanceMeters>
          </Trackpoint>
          <Trackpoint>
            <Time>2020-05-25T05:29:29.000Z</Time>
            <Position>
              <LatitudeDegrees>38.16248905844986438751220703125</LatitudeDegrees>
              <LongitudeDegrees>-1.12601774744689464569091796875</LongitudeDegrees>
            </Position>
            <AltitudeMeters>189.600006103515625</AltitudeMeters>
            <DistanceMeters>NAN</DistanceMeters>
          </Trackpoint>
          <Trackpoint>
            <Time>2020-05-25T05:29:30.000Z</Time>
            <Position>
              <LatitudeDegrees>38.16255770623683929443359375</LatitudeDegrees>
              <LongitudeDegrees>-1.126031912863254547119140625</LongitudeDegrees>
            </Position>
            <AltitudeMeters>189.399993896484375</AltitudeMeters>
            <DistanceMeters>NAN</DistanceMeters>
          </Trackpoint>
          <Trackpoint>
            <Time>2020-05-25T05:29:31.000Z</Time>
            <Position>
              <LatitudeDegrees>38.16262685693800449371337890625</LatitudeDegrees>
              <LongitudeDegrees>-1.1260448209941387176513671875</LongitudeDegrees>
            </Position>
            <AltitudeMeters>189.399993896484375</AltitudeMeters>
            <DistanceMeters>NAN</DistanceMeters>
          </Trackpoint>
          <Trackpoint>
            <Time>2020-05-25T05:29:32.000Z</Time>
            <Position>
              <LatitudeDegrees>38.16269642673432826995849609375</LatitudeDegrees>
              <LongitudeDegrees>-1.12605831585824489593505859375</LongitudeDegrees>
            </Position>
            <AltitudeMeters>189.1999969482421875</AltitudeMeters>
            <DistanceMeters>NAN</DistanceMeters>
          </Trackpoint>
          <Trackpoint>
            <Time>2020-05-25T05:29:33.000Z</Time>
            <Position>
              <LatitudeDegrees>38.162765912711620330810546875</LatitudeDegrees>
              <LongitudeDegrees>-1.12607222981750965118408203125</LongitudeDegrees>
            </Position>
            <AltitudeMeters>188.8000030517578125</AltitudeMeters>
            <DistanceMeters>NAN</DistanceMeters>
          </Trackpoint>
          <Trackpoint>
            <Time>2020-05-25T05:29:34.000Z</Time>
            <Position>
              <LatitudeDegrees>38.16283405758440494537353515625</LatitudeDegrees>
              <LongitudeDegrees>-1.126085221767425537109375</LongitudeDegrees>
            </Position>
            <AltitudeMeters>188.8000030517578125</AltitudeMeters>
            <DistanceMeters>NAN</DistanceMeters>
          </Trackpoint>
          <Trackpoint>
            <Time>2020-05-25T05:29:35.000Z</Time>
            <Position>
              <LatitudeDegrees>38.16290077753365039825439453125</LatitudeDegrees>
              <LongitudeDegrees>-1.12609838135540485382080078125</LongitudeDegrees>
            </Position>
            <AltitudeMeters>188.600006103515625</AltitudeMeters>
            <DistanceMeters>NAN</DistanceMeters>
          </Trackpoint>
          <Trackpoint>
            <Time>2020-05-25T05:29:36.000Z</Time>
            <Position>
              <LatitudeDegrees>38.1629669107496738433837890625</LatitudeDegrees>
              <LongitudeDegrees>-1.12611279822885990142822265625</LongitudeDegrees>
            </Position>
            <AltitudeMeters>188.399993896484375</AltitudeMeters>
            <DistanceMeters>NAN</DistanceMeters>
          </Trackpoint>
          <Trackpoint>
            <Time>2020-05-25T05:29:37.000Z</Time>
            <Position>
              <LatitudeDegrees>38.16303304396569728851318359375</LatitudeDegrees>
              <LongitudeDegrees>-1.1261266283690929412841796875</LongitudeDegrees>
            </Position>
            <AltitudeMeters>188.399993896484375</AltitudeMeters>
            <DistanceMeters>NAN</DistanceMeters>
          </Trackpoint>
          <Trackpoint>
            <Time>2020-05-25T05:29:38.000Z</Time>
            <Position>
              <LatitudeDegrees>38.1630990095436573028564453125</LatitudeDegrees>
              <LongitudeDegrees>-1.12613928504288196563720703125</LongitudeDegrees>
            </Position>
            <AltitudeMeters>188.1999969482421875</AltitudeMeters>
            <DistanceMeters>NAN</DistanceMeters>
          </Trackpoint>
          <Trackpoint>
            <Time>2020-05-25T05:29:39.000Z</Time>
            <Position>
              <LatitudeDegrees>38.163164556026458740234375</LatitudeDegrees>
              <LongitudeDegrees>-1.12615152262151241302490234375</LongitudeDegrees>
            </Position>
            <AltitudeMeters>188.1999969482421875</AltitudeMeters>
            <DistanceMeters>NAN</DistanceMeters>
          </Trackpoint>
          <Trackpoint>
            <Time>2020-05-25T05:29:40.000Z</Time>
            <Position>
              <LatitudeDegrees>38.16322934813797473907470703125</LatitudeDegrees>
              <LongitudeDegrees>-1.1261638440191745758056640625</LongitudeDegrees>
            </Position>
            <AltitudeMeters>188.1999969482421875</AltitudeMeters>
            <DistanceMeters>NAN</DistanceMeters>
          </Trackpoint>
          <Trackpoint>
            <Time>2020-05-25T05:29:41.000Z</Time>
            <Position>
              <LatitudeDegrees>38.1632927991449832916259765625</LatitudeDegrees>
              <LongitudeDegrees>-1.12617566250264644622802734375</LongitudeDegrees>
            </Position>
            <AltitudeMeters>188.1999969482421875</AltitudeMeters>
            <DistanceMeters>NAN</DistanceMeters>
          </Trackpoint>
          <Trackpoint>
            <Time>2020-05-25T05:29:42.000Z</Time>
            <Position>
              <LatitudeDegrees>38.1633551605045795440673828125</LatitudeDegrees>
              <LongitudeDegrees>-1.12618840299546718597412109375</LongitudeDegrees>
            </Position>
            <AltitudeMeters>188.1999969482421875</AltitudeMeters>
            <DistanceMeters>NAN</DistanceMeters>
          </Trackpoint>
          <Trackpoint>
            <Time>2020-05-25T05:29:43.000Z</Time>
            <Position>
              <LatitudeDegrees>38.163416348397731781005859375</LatitudeDegrees>
              <LongitudeDegrees>-1.12620181404054164886474609375</LongitudeDegrees>
            </Position>
            <AltitudeMeters>188.1999969482421875</AltitudeMeters>
            <DistanceMeters>NAN</DistanceMeters>
          </Trackpoint>
          <Trackpoint>
            <Time>2020-05-25T05:29:44.000Z</Time>
            <Position>
              <LatitudeDegrees>38.1634768657386302947998046875</LatitudeDegrees>
              <LongitudeDegrees>-1.1262151412665843963623046875</LongitudeDegrees>
            </Position>
            <AltitudeMeters>188.1999969482421875</AltitudeMeters>
            <DistanceMeters>NAN</DistanceMeters>
          </Trackpoint>
          <Trackpoint>
            <Time>2020-05-25T05:29:45.000Z</Time>
            <Position>
              <LatitudeDegrees>38.16353629343211650848388671875</LatitudeDegrees>
              <LongitudeDegrees>-1.12622796557843685150146484375</LongitudeDegrees>
            </Position>
            <AltitudeMeters>188.1999969482421875</AltitudeMeters>
            <DistanceMeters>NAN</DistanceMeters>
          </Trackpoint>
          <Trackpoint>
            <Time>2020-05-25T05:29:46.000Z</Time>
            <Position>
              <LatitudeDegrees>38.16359496675431728363037109375</LatitudeDegrees>
              <LongitudeDegrees>-1.12623936496675014495849609375</LongitudeDegrees>
            </Position>
            <AltitudeMeters>188.1999969482421875</AltitudeMeters>
            <DistanceMeters>NAN</DistanceMeters>
          </Trackpoint>
          <Trackpoint>
            <Time>2020-05-25T05:29:47.000Z</Time>
            <Position>
              <LatitudeDegrees>38.16365146078169345855712890625</LatitudeDegrees>
              <LongitudeDegrees>-1.12624959088861942291259765625</LongitudeDegrees>
            </Position>
            <AltitudeMeters>188.1999969482421875</AltitudeMeters>
            <DistanceMeters>NAN</DistanceMeters>
          </Trackpoint>
          <Trackpoint>
            <Time>2020-05-25T05:29:48.000Z</Time>
            <Position>
              <LatitudeDegrees>38.16370644606649875640869140625</LatitudeDegrees>
              <LongitudeDegrees>-1.12625948153436183929443359375</LongitudeDegrees>
            </Position>
            <AltitudeMeters>188.1999969482421875</AltitudeMeters>
            <DistanceMeters>NAN</DistanceMeters>
          </Trackpoint>
          <Trackpoint>
            <Time>2020-05-25T05:29:49.000Z</Time>
            <Position>
              <LatitudeDegrees>38.163761682808399200439453125</LatitudeDegrees>
              <LongitudeDegrees>-1.12626987509429454803466796875</LongitudeDegrees>
            </Position>
            <AltitudeMeters>188.1999969482421875</AltitudeMeters>
            <DistanceMeters>NAN</DistanceMeters>
          </Trackpoint>
          <Trackpoint>
            <Time>2020-05-25T05:29:50.000Z</Time>
            <Position>
              <LatitudeDegrees>38.16381566226482391357421875</LatitudeDegrees>
              <LongitudeDegrees>-1.1262821964919567108154296875</LongitudeDegrees>
            </Position>
            <AltitudeMeters>188.1999969482421875</AltitudeMeters>
            <DistanceMeters>NAN</DistanceMeters>
          </Trackpoint>
          <Trackpoint>
            <Time>2020-05-25T05:29:51.000Z</Time>
            <Position>
              <LatitudeDegrees>38.16386796534061431884765625</LatitudeDegrees>
              <LongitudeDegrees>-1.1262957751750946044921875</LongitudeDegrees>
            </Position>
            <AltitudeMeters>188.600006103515625</AltitudeMeters>
            <DistanceMeters>NAN</DistanceMeters>
          </Trackpoint>
          <Trackpoint>
            <Time>2020-05-25T05:29:52.000Z</Time>
            <Position>
              <LatitudeDegrees>38.16391892731189727783203125</LatitudeDegrees>
              <LongitudeDegrees>-1.12630977295339107513427734375</LongitudeDegrees>
            </Position>
            <AltitudeMeters>188.8000030517578125</AltitudeMeters>
            <DistanceMeters>NAN</DistanceMeters>
          </Trackpoint>
          <Trackpoint>
            <Time>2020-05-25T05:29:53.000Z</Time>
            <Position>
              <LatitudeDegrees>38.16396947018802165985107421875</LatitudeDegrees>
              <LongitudeDegrees>-1.1263251118361949920654296875</LongitudeDegrees>
            </Position>
            <AltitudeMeters>189</AltitudeMeters>
            <DistanceMeters>NAN</DistanceMeters>
          </Trackpoint>
          <Trackpoint>
            <Time>2020-05-25T05:29:54.000Z</Time>
            <Position>
              <LatitudeDegrees>38.16401951014995574951171875</LatitudeDegrees>
              <LongitudeDegrees>-1.12633994780480861663818359375</LongitudeDegrees>
            </Position>
            <AltitudeMeters>189</AltitudeMeters>
            <DistanceMeters>NAN</DistanceMeters>
          </Trackpoint>
          <Trackpoint>
            <Time>2020-05-25T05:29:55.000Z</Time>
            <Position>
              <LatitudeDegrees>38.1640692986547946929931640625</LatitudeDegrees>
              <LongitudeDegrees>-1.12635453231632709503173828125</LongitudeDegrees>
            </Position>
            <AltitudeMeters>189.1999969482421875</AltitudeMeters>
            <DistanceMeters>NAN</DistanceMeters>
          </Trackpoint>
          <Trackpoint>
            <Time>2020-05-25T05:29:56.000Z</Time>
            <Position>
              <LatitudeDegrees>38.16411984153091907501220703125</LatitudeDegrees>
              <LongitudeDegrees>-1.1263700388371944427490234375</LongitudeDegrees>
            </Position>
            <AltitudeMeters>189.399993896484375</AltitudeMeters>
            <DistanceMeters>NAN</DistanceMeters>
          </Trackpoint>
          <Trackpoint>
            <Time>2020-05-25T05:29:57.000Z</Time>
            <Position>
              <LatitudeDegrees>38.164170049130916595458984375</LatitudeDegrees>
              <LongitudeDegrees>-1.1263869702816009521484375</LongitudeDegrees>
            </Position>
            <AltitudeMeters>189.8000030517578125</AltitudeMeters>
            <DistanceMeters>NAN</DistanceMeters>
          </Trackpoint>
          <Trackpoint>
            <Time>2020-05-25T05:29:58.000Z</Time>
            <Position>
              <LatitudeDegrees>38.1642200052738189697265625</LatitudeDegrees>
              <LongitudeDegrees>-1.12640440464019775390625</LongitudeDegrees>
            </Position>
            <AltitudeMeters>190</AltitudeMeters>
            <DistanceMeters>NAN</DistanceMeters>
          </Trackpoint>
          <Trackpoint>
            <Time>2020-05-25T05:29:59.000Z</Time>
            <Position>
              <LatitudeDegrees>38.164269290864467620849609375</LatitudeDegrees>
              <LongitudeDegrees>-1.12642192281782627105712890625</LongitudeDegrees>
            </Position>
            <AltitudeMeters>190.399993896484375</AltitudeMeters>
            <DistanceMeters>NAN</DistanceMeters>
          </Trackpoint>
          <Trackpoint>
            <Time>2020-05-25T05:30:00.000Z</Time>
            <Position>
              <LatitudeDegrees>38.164317905902862548828125</LatitudeDegrees>
              <LongitudeDegrees>-1.12644002772867679595947265625</LongitudeDegrees>
            </Position>
            <AltitudeMeters>190.600006103515625</AltitudeMeters>
            <DistanceMeters>NAN</DistanceMeters>
          </Trackpoint>
          <Trackpoint>
            <Time>2020-05-25T05:30:01.000Z</Time>
            <Position>
              <LatitudeDegrees>38.1643663533031940460205078125</LatitudeDegrees>
              <LongitudeDegrees>-1.12645804882049560546875</LongitudeDegrees>
            </Position>
            <AltitudeMeters>190.8000030517578125</AltitudeMeters>
            <DistanceMeters>NAN</DistanceMeters>
          </Trackpoint>
          <Trackpoint>
            <Time>2020-05-25T05:30:02.000Z</Time>
            <Position>
              <LatitudeDegrees>38.164460398256778717041015625</LatitudeDegrees>
              <LongitudeDegrees>-1.126498617231845855712890625</LongitudeDegrees>
            </Position>
            <AltitudeMeters>191</AltitudeMeters>
            <DistanceMeters>NAN</DistanceMeters>
          </Trackpoint>
          <Trackpoint>
            <Time>2020-05-25T05:30:03.000Z</Time>
            <Position>
              <LatitudeDegrees>38.164460398256778717041015625</LatitudeDegrees>
              <LongitudeDegrees>-1.126498617231845855712890625</LongitudeDegrees>
            </Position>
            <AltitudeMeters>191.1999969482421875</AltitudeMeters>
            <DistanceMeters>NAN</DistanceMeters>
          </Trackpoint>
          <Trackpoint>
            <Time>2020-05-25T05:30:04.000Z</Time>
            <Position>
              <LatitudeDegrees>38.16450641490519046783447265625</LatitudeDegrees>
              <LongitudeDegrees>-1.126519404351711273193359375</LongitudeDegrees>
            </Position>
            <AltitudeMeters>191.399993896484375</AltitudeMeters>
            <DistanceMeters>NAN</DistanceMeters>
          </Trackpoint>
          <Trackpoint>
            <Time>2020-05-25T05:30:05.000Z</Time>
            <Position>
              <LatitudeDegrees>38.164552934467792510986328125</LatitudeDegrees>
              <LongitudeDegrees>-1.12653893418610095977783203125</LongitudeDegrees>
            </Position>
            <AltitudeMeters>191.8000030517578125</AltitudeMeters>
            <DistanceMeters>NAN</DistanceMeters>
          </Trackpoint>
          <Trackpoint>
            <Time>2020-05-25T05:30:06.000Z</Time>
            <Position>
              <LatitudeDegrees>38.16459777764976024627685546875</LatitudeDegrees>
              <LongitudeDegrees>-1.126558966934680938720703125</LongitudeDegrees>
            </Position>
            <AltitudeMeters>192</AltitudeMeters>
            <DistanceMeters>NAN</DistanceMeters>
          </Trackpoint>
          <Trackpoint>
            <Time>2020-05-25T05:30:07.000Z</Time>
            <Position>
              <LatitudeDegrees>38.16464102827012538909912109375</LatitudeDegrees>
              <LongitudeDegrees>-1.1265785805881023406982421875</LongitudeDegrees>
            </Position>
            <AltitudeMeters>192.1999969482421875</AltitudeMeters>
            <DistanceMeters>NAN</DistanceMeters>
          </Trackpoint>
          <Trackpoint>
            <Time>2020-05-25T05:30:08.000Z</Time>
            <Position>
              <LatitudeDegrees>38.16468344070017337799072265625</LatitudeDegrees>
              <LongitudeDegrees>-1.12659811042249202728271484375</LongitudeDegrees>
            </Position>
            <AltitudeMeters>192.1999969482421875</AltitudeMeters>
            <DistanceMeters>NAN</DistanceMeters>
          </Trackpoint>
          <Trackpoint>
            <Time>2020-05-25T05:30:09.000Z</Time>
            <Position>
              <LatitudeDegrees>38.16472518257796764373779296875</LatitudeDegrees>
              <LongitudeDegrees>-1.12661696970462799072265625</LongitudeDegrees>
            </Position>
            <AltitudeMeters>192.399993896484375</AltitudeMeters>
            <DistanceMeters>NAN</DistanceMeters>
          </Trackpoint>
          <Trackpoint>
            <Time>2020-05-25T05:30:10.000Z</Time>
            <Position>
              <LatitudeDegrees>38.16476558335125446319580078125</LatitudeDegrees>
              <LongitudeDegrees>-1.1266369186341762542724609375</LongitudeDegrees>
            </Position>
            <AltitudeMeters>192.399993896484375</AltitudeMeters>
            <DistanceMeters>NAN</DistanceMeters>
          </Trackpoint>
          <Trackpoint>
            <Time>2020-05-25T05:30:11.000Z</Time>
            <Position>
              <LatitudeDegrees>38.1648062355816364288330078125</LatitudeDegrees>
              <LongitudeDegrees>-1.126656197011470794677734375</LongitudeDegrees>
            </Position>
            <AltitudeMeters>192.8000030517578125</AltitudeMeters>
            <DistanceMeters>NAN</DistanceMeters>
          </Trackpoint>
          <Trackpoint>
            <Time>2020-05-25T05:30:12.000Z</Time>
            <Position>
              <LatitudeDegrees>38.1648468039929866790771484375</LatitudeDegrees>
              <LongitudeDegrees>-1.12667472101747989654541015625</LongitudeDegrees>
            </Position>
            <AltitudeMeters>193</AltitudeMeters>
            <DistanceMeters>NAN</DistanceMeters>
          </Trackpoint>
          <Trackpoint>
            <Time>2020-05-25T05:30:13.000Z</Time>
            <Position>
              <LatitudeDegrees>38.164886869490146636962890625</LatitudeDegrees>
              <LongitudeDegrees>-1.12669366411864757537841796875</LongitudeDegrees>
            </Position>
            <AltitudeMeters>193</AltitudeMeters>
            <DistanceMeters>NAN</DistanceMeters>
          </Trackpoint>
          <Trackpoint>
            <Time>2020-05-25T05:30:14.000Z</Time>
            <Position>
              <LatitudeDegrees>38.164927102625370025634765625</LatitudeDegrees>
              <LongitudeDegrees>-1.126712523400783538818359375</LongitudeDegrees>
            </Position>
            <AltitudeMeters>193.1999969482421875</AltitudeMeters>
            <DistanceMeters>NAN</DistanceMeters>
          </Trackpoint>
          <Trackpoint>
            <Time>2020-05-25T05:30:15.000Z</Time>
            <Position>
              <LatitudeDegrees>38.1649675033986568450927734375</LatitudeDegrees>
              <LongitudeDegrees>-1.12673054449260234832763671875</LongitudeDegrees>
            </Position>
            <AltitudeMeters>193.600006103515625</AltitudeMeters>
            <DistanceMeters>NAN</DistanceMeters>
          </Trackpoint>
          <Trackpoint>
            <Time>2020-05-25T05:30:16.000Z</Time>
            <Position>
              <LatitudeDegrees>38.16500714980065822601318359375</LatitudeDegrees>
              <LongitudeDegrees>-1.1267482303082942962646484375</LongitudeDegrees>
            </Position>
            <AltitudeMeters>193.8000030517578125</AltitudeMeters>
            <DistanceMeters>NAN</DistanceMeters>
          </Trackpoint>
          <Trackpoint>
            <Time>2020-05-25T05:30:17.000Z</Time>
            <Position>
              <LatitudeDegrees>38.165046460926532745361328125</LatitudeDegrees>
              <LongitudeDegrees>-1.12676524557173252105712890625</LongitudeDegrees>
            </Position>
            <AltitudeMeters>194</AltitudeMeters>
            <DistanceMeters>NAN</DistanceMeters>
          </Trackpoint>
          <Trackpoint>
            <Time>2020-05-25T05:30:18.000Z</Time>
            <Position>
              <LatitudeDegrees>38.16512600518763065338134765625</LatitudeDegrees>
              <LongitudeDegrees>-1.12680011428892612457275390625</LongitudeDegrees>
            </Position>
            <AltitudeMeters>194.600006103515625</AltitudeMeters>
            <DistanceMeters>NAN</DistanceMeters>
          </Trackpoint>
          <Trackpoint>
            <Time>2020-05-25T05:30:19.000Z</Time>
            <Position>
              <LatitudeDegrees>38.16512600518763065338134765625</LatitudeDegrees>
              <LongitudeDegrees>-1.12680011428892612457275390625</LongitudeDegrees>
            </Position>
            <AltitudeMeters>194.600006103515625</AltitudeMeters>
            <DistanceMeters>NAN</DistanceMeters>
          </Trackpoint>
          <Trackpoint>
            <Time>2020-05-25T05:30:20.000Z</Time>
            <Position>
              <LatitudeDegrees>38.16516657359898090362548828125</LatitudeDegrees>
              <LongitudeDegrees>-1.1268176324665546417236328125</LongitudeDegrees>
            </Position>
            <AltitudeMeters>194.8000030517578125</AltitudeMeters>
            <DistanceMeters>NAN</DistanceMeters>
          </Trackpoint>
          <Trackpoint>
            <Time>2020-05-25T05:30:21.000Z</Time>
            <Position>
              <LatitudeDegrees>38.1652065552771091461181640625</LatitudeDegrees>
              <LongitudeDegrees>-1.12683515064418315887451171875</LongitudeDegrees>
            </Position>
            <AltitudeMeters>195</AltitudeMeters>
            <DistanceMeters>NAN</DistanceMeters>
          </Trackpoint>
          <Trackpoint>
            <Time>2020-05-25T05:30:22.000Z</Time>
            <Position>
              <LatitudeDegrees>38.16524569876492023468017578125</LatitudeDegrees>
              <LongitudeDegrees>-1.12685300409793853759765625</LongitudeDegrees>
            </Position>
            <AltitudeMeters>195.1999969482421875</AltitudeMeters>
            <DistanceMeters>NAN</DistanceMeters>
          </Trackpoint>
          <Trackpoint>
            <Time>2020-05-25T05:30:23.000Z</Time>
            <Position>
              <LatitudeDegrees>38.1652850098907947540283203125</LatitudeDegrees>
              <LongitudeDegrees>-1.126870103180408477783203125</LongitudeDegrees>
            </Position>
            <AltitudeMeters>195.399993896484375</AltitudeMeters>
            <DistanceMeters>NAN</DistanceMeters>
          </Trackpoint>
          <Trackpoint>
            <Time>2020-05-25T05:30:24.000Z</Time>
            <Position>
              <LatitudeDegrees>38.1653235666453838348388671875</LatitudeDegrees>
              <LongitudeDegrees>-1.12688611261546611785888671875</LongitudeDegrees>
            </Position>
            <AltitudeMeters>195.8000030517578125</AltitudeMeters>
            <DistanceMeters>NAN</DistanceMeters>
          </Trackpoint>
          <Trackpoint>
            <Time>2020-05-25T05:30:25.000Z</Time>
            <Position>
              <LatitudeDegrees>38.16536203958094120025634765625</LatitudeDegrees>
              <LongitudeDegrees>-1.1269017867743968963623046875</LongitudeDegrees>
            </Position>
            <AltitudeMeters>196</AltitudeMeters>
            <DistanceMeters>NAN</DistanceMeters>
          </Trackpoint>
          <Trackpoint>
            <Time>2020-05-25T05:30:26.000Z</Time>
            <Position>
              <LatitudeDegrees>38.1654010154306888580322265625</LatitudeDegrees>
              <LongitudeDegrees>-1.1269172094762325286865234375</LongitudeDegrees>
            </Position>
            <AltitudeMeters>196.1999969482421875</AltitudeMeters>
            <DistanceMeters>NAN</DistanceMeters>
          </Trackpoint>
          <Trackpoint>
            <Time>2020-05-25T05:30:27.000Z</Time>
            <Position>
              <LatitudeDegrees>38.16544049419462680816650390625</LatitudeDegrees>
              <LongitudeDegrees>-1.12693355418741703033447265625</LongitudeDegrees>
            </Position>
            <AltitudeMeters>196.399993896484375</AltitudeMeters>
            <DistanceMeters>NAN</DistanceMeters>
          </Trackpoint>
          <Trackpoint>
            <Time>2020-05-25T05:30:28.000Z</Time>
            <Position>
              <LatitudeDegrees>38.1654801405966281890869140625</LatitudeDegrees>
              <LongitudeDegrees>-1.12694931216537952423095703125</LongitudeDegrees>
            </Position>
            <AltitudeMeters>196.600006103515625</AltitudeMeters>
            <DistanceMeters>NAN</DistanceMeters>
          </Trackpoint>
          <Trackpoint>
            <Time>2020-05-25T05:30:29.000Z</Time>
            <Position>
              <LatitudeDegrees>38.16551928408443927764892578125</LatitudeDegrees>
              <LongitudeDegrees>-1.12696565687656402587890625</LongitudeDegrees>
            </Position>
            <AltitudeMeters>196.8000030517578125</AltitudeMeters>
            <DistanceMeters>NAN</DistanceMeters>
          </Trackpoint>
          <Trackpoint>
            <Time>2020-05-25T05:30:30.000Z</Time>
            <Position>
              <LatitudeDegrees>38.16555775701999664306640625</LatitudeDegrees>
              <LongitudeDegrees>-1.1269832588732242584228515625</LongitudeDegrees>
            </Position>
            <AltitudeMeters>197</AltitudeMeters>
            <DistanceMeters>NAN</DistanceMeters>
          </Trackpoint>
          <Trackpoint>
            <Time>2020-05-25T05:30:31.000Z</Time>
            <Position>
              <LatitudeDegrees>38.1655968166887760162353515625</LatitudeDegrees>
              <LongitudeDegrees>-1.1270003579556941986083984375</LongitudeDegrees>
            </Position>
            <AltitudeMeters>197.1999969482421875</AltitudeMeters>
            <DistanceMeters>NAN</DistanceMeters>
          </Trackpoint>
          <Trackpoint>
            <Time>2020-05-25T05:30:32.000Z</Time>
            <Position>
              <LatitudeDegrees>38.165635876357555389404296875</LatitudeDegrees>
              <LongitudeDegrees>-1.1270161159336566925048828125</LongitudeDegrees>
            </Position>
            <AltitudeMeters>197.399993896484375</AltitudeMeters>
            <DistanceMeters>NAN</DistanceMeters>
          </Trackpoint>
          <Trackpoint>
            <Time>2020-05-25T05:30:33.000Z</Time>
            <Position>
              <LatitudeDegrees>38.16567451693117618560791015625</LatitudeDegrees>
              <LongitudeDegrees>-1.127031035721302032470703125</LongitudeDegrees>
            </Position>
            <AltitudeMeters>197.8000030517578125</AltitudeMeters>
            <DistanceMeters>NAN</DistanceMeters>
          </Trackpoint>
          <Trackpoint>
            <Time>2020-05-25T05:30:34.000Z</Time>
            <Position>
              <LatitudeDegrees>38.16571324132382869720458984375</LatitudeDegrees>
              <LongitudeDegrees>-1.12704570405185222625732421875</LongitudeDegrees>
            </Position>
            <AltitudeMeters>197.8000030517578125</AltitudeMeters>
            <DistanceMeters>NAN</DistanceMeters>
          </Trackpoint>
          <Trackpoint>
            <Time>2020-05-25T05:30:35.000Z</Time>
            <Position>
              <LatitudeDegrees>38.16575163044035434722900390625</LatitudeDegrees>
              <LongitudeDegrees>-1.127059869468212127685546875</LongitudeDegrees>
            </Position>
            <AltitudeMeters>198</AltitudeMeters>
            <DistanceMeters>NAN</DistanceMeters>
          </Trackpoint>
          <Trackpoint>
            <Time>2020-05-25T05:30:36.000Z</Time>
            <Position>
              <LatitudeDegrees>38.16578934900462627410888671875</LatitudeDegrees>
              <LongitudeDegrees>-1.1270734481513500213623046875</LongitudeDegrees>
            </Position>
            <AltitudeMeters>198.1999969482421875</AltitudeMeters>
            <DistanceMeters>NAN</DistanceMeters>
          </Trackpoint>
          <Trackpoint>
            <Time>2020-05-25T05:30:37.000Z</Time>
            <Position>
              <LatitudeDegrees>38.1658258102834224700927734375</LatitudeDegrees>
              <LongitudeDegrees>-1.127086021006107330322265625</LongitudeDegrees>
            </Position>
            <AltitudeMeters>198.600006103515625</AltitudeMeters>
            <DistanceMeters>NAN</DistanceMeters>
          </Trackpoint>
          <Trackpoint>
            <Time>2020-05-25T05:30:38.000Z</Time>
            <Position>
              <LatitudeDegrees>38.165862858295440673828125</LatitudeDegrees>
              <LongitudeDegrees>-1.12709708511829376220703125</LongitudeDegrees>
            </Position>
            <AltitudeMeters>198.8000030517578125</AltitudeMeters>
            <DistanceMeters>NAN</DistanceMeters>
          </Trackpoint>
          <Trackpoint>
            <Time>2020-05-25T05:30:39.000Z</Time>
            <Position>
              <LatitudeDegrees>38.16590099595487117767333984375</LatitudeDegrees>
              <LongitudeDegrees>-1.1271063052117824554443359375</LongitudeDegrees>
            </Position>
            <AltitudeMeters>199</AltitudeMeters>
            <DistanceMeters>NAN</DistanceMeters>
          </Trackpoint>
          <Trackpoint>
            <Time>2020-05-25T05:30:40.000Z</Time>
            <Position>
              <LatitudeDegrees>38.1659384630620479583740234375</LatitudeDegrees>
              <LongitudeDegrees>-1.12711460329592227935791015625</LongitudeDegrees>
            </Position>
            <AltitudeMeters>199.1999969482421875</AltitudeMeters>
            <DistanceMeters>NAN</DistanceMeters>
          </Trackpoint>
          <Trackpoint>
            <Time>2020-05-25T05:30:41.000Z</Time>
            <Position>
              <LatitudeDegrees>38.16597593016922473907470703125</LatitudeDegrees>
              <LongitudeDegrees>-1.1271210573613643646240234375</LongitudeDegrees>
            </Position>
            <AltitudeMeters>199.399993896484375</AltitudeMeters>
            <DistanceMeters>NAN</DistanceMeters>
          </Trackpoint>
          <Trackpoint>
            <Time>2020-05-25T05:30:42.000Z</Time>
            <Position>
              <LatitudeDegrees>38.16601331345736980438232421875</LatitudeDegrees>
              <LongitudeDegrees>-1.12712600268423557281494140625</LongitudeDegrees>
            </Position>
            <AltitudeMeters>199.600006103515625</AltitudeMeters>
            <DistanceMeters>NAN</DistanceMeters>
          </Trackpoint>
          <Trackpoint>
            <Time>2020-05-25T05:30:43.000Z</Time>
            <Position>
              <LatitudeDegrees>38.16605128347873687744140625</LatitudeDegrees>
              <LongitudeDegrees>-1.12713052891194820404052734375</LongitudeDegrees>
            </Position>
            <AltitudeMeters>199.8000030517578125</AltitudeMeters>
            <DistanceMeters>NAN</DistanceMeters>
          </Trackpoint>
          <Trackpoint>
            <Time>2020-05-25T05:30:44.000Z</Time>
            <Position>
              <LatitudeDegrees>38.16608942113816738128662109375</LatitudeDegrees>
              <LongitudeDegrees>-1.12713270820677280426025390625</LongitudeDegrees>
            </Position>
            <AltitudeMeters>200</AltitudeMeters>
            <DistanceMeters>NAN</DistanceMeters>
          </Trackpoint>
          <Trackpoint>
            <Time>2020-05-25T05:30:45.000Z</Time>
            <Position>
              <LatitudeDegrees>38.16612680442631244659423828125</LatitudeDegrees>
              <LongitudeDegrees>-1.12713396549224853515625</LongitudeDegrees>
            </Position>
            <AltitudeMeters>200.399993896484375</AltitudeMeters>
            <DistanceMeters>NAN</DistanceMeters>
          </Trackpoint>
          <Trackpoint>
            <Time>2020-05-25T05:30:46.000Z</Time>
            <Position>
              <LatitudeDegrees>38.16616368480026721954345703125</LatitudeDegrees>
              <LongitudeDegrees>-1.12713304348289966583251953125</LongitudeDegrees>
            </Position>
            <AltitudeMeters>200.600006103515625</AltitudeMeters>
            <DistanceMeters>NAN</DistanceMeters>
          </Trackpoint>
          <Trackpoint>
            <Time>2020-05-25T05:30:47.000Z</Time>
            <Position>
              <LatitudeDegrees>38.166201822459697723388671875</LatitudeDegrees>
              <LongitudeDegrees>-1.12712885253131389617919921875</LongitudeDegrees>
            </Position>
            <AltitudeMeters>200.8000030517578125</AltitudeMeters>
            <DistanceMeters>NAN</DistanceMeters>
          </Trackpoint>
          <Trackpoint>
            <Time>2020-05-25T05:30:48.000Z</Time>
            <Position>
              <LatitudeDegrees>38.16623878665268421173095703125</LatitudeDegrees>
              <LongitudeDegrees>-1.1271218955516815185546875</LongitudeDegrees>
            </Position>
            <AltitudeMeters>201.1999969482421875</AltitudeMeters>
            <DistanceMeters>NAN</DistanceMeters>
          </Trackpoint>
          <Trackpoint>
            <Time>2020-05-25T05:30:49.000Z</Time>
            <Position>
              <LatitudeDegrees>38.16627658903598785400390625</LatitudeDegrees>
              <LongitudeDegrees>-1.12711393274366855621337890625</LongitudeDegrees>
            </Position>
            <AltitudeMeters>201.399993896484375</AltitudeMeters>
            <DistanceMeters>NAN</DistanceMeters>
          </Trackpoint>
          <Trackpoint>
            <Time>2020-05-25T05:30:50.000Z</Time>
            <Position>
              <LatitudeDegrees>38.16634993068873882293701171875</LatitudeDegrees>
              <LongitudeDegrees>-1.1270942352712154388427734375</LongitudeDegrees>
            </Position>
            <AltitudeMeters>201.600006103515625</AltitudeMeters>
            <DistanceMeters>NAN</DistanceMeters>
          </Trackpoint>
          <Trackpoint>
            <Time>2020-05-25T05:30:51.000Z</Time>
            <Position>
              <LatitudeDegrees>38.16634993068873882293701171875</LatitudeDegrees>
              <LongitudeDegrees>-1.1270942352712154388427734375</LongitudeDegrees>
            </Position>
            <AltitudeMeters>201.8000030517578125</AltitudeMeters>
            <DistanceMeters>NAN</DistanceMeters>
          </Trackpoint>
          <Trackpoint>
            <Time>2020-05-25T05:30:52.000Z</Time>
            <Position>
              <LatitudeDegrees>38.16638714633882045745849609375</LatitudeDegrees>
              <LongitudeDegrees>-1.127084009349346160888671875</LongitudeDegrees>
            </Position>
            <AltitudeMeters>202</AltitudeMeters>
            <DistanceMeters>NAN</DistanceMeters>
          </Trackpoint>
          <Trackpoint>
            <Time>2020-05-25T05:30:53.000Z</Time>
            <Position>
              <LatitudeDegrees>38.16642469726502895355224609375</LatitudeDegrees>
              <LongitudeDegrees>-1.127072609961032867431640625</LongitudeDegrees>
            </Position>
            <AltitudeMeters>202.1999969482421875</AltitudeMeters>
            <DistanceMeters>NAN</DistanceMeters>
          </Trackpoint>
          <Trackpoint>
            <Time>2020-05-25T05:30:54.000Z</Time>
            <Position>
              <LatitudeDegrees>38.16646208055317401885986328125</LatitudeDegrees>
              <LongitudeDegrees>-1.12705877982079982757568359375</LongitudeDegrees>
            </Position>
            <AltitudeMeters>202.399993896484375</AltitudeMeters>
            <DistanceMeters>NAN</DistanceMeters>
          </Trackpoint>
          <Trackpoint>
            <Time>2020-05-25T05:30:55.000Z</Time>
            <Position>
              <LatitudeDegrees>38.16649912856519222259521484375</LatitudeDegrees>
              <LongitudeDegrees>-1.127043776214122772216796875</LongitudeDegrees>
            </Position>
            <AltitudeMeters>202.600006103515625</AltitudeMeters>
            <DistanceMeters>NAN</DistanceMeters>
          </Trackpoint>
          <Trackpoint>
            <Time>2020-05-25T05:30:56.000Z</Time>
            <Position>
              <LatitudeDegrees>38.1665360927581787109375</LatitudeDegrees>
              <LongitudeDegrees>-1.12702709622681140899658203125</LongitudeDegrees>
            </Position>
            <AltitudeMeters>203</AltitudeMeters>
            <DistanceMeters>NAN</DistanceMeters>
          </Trackpoint>
          <Trackpoint>
            <Time>2020-05-25T05:30:57.000Z</Time>
            <Position>
              <LatitudeDegrees>38.16657297313213348388671875</LatitudeDegrees>
              <LongitudeDegrees>-1.12700848840177059173583984375</LongitudeDegrees>
            </Position>
            <AltitudeMeters>203</AltitudeMeters>
            <DistanceMeters>NAN</DistanceMeters>
          </Trackpoint>
          <Trackpoint>
            <Time>2020-05-25T05:30:58.000Z</Time>
            <Position>
              <LatitudeDegrees>38.166610188782215118408203125</LatitudeDegrees>
              <LongitudeDegrees>-1.126988120377063751220703125</LongitudeDegrees>
            </Position>
            <AltitudeMeters>203.1999969482421875</AltitudeMeters>
            <DistanceMeters>NAN</DistanceMeters>
          </Trackpoint>
          <Trackpoint>
            <Time>2020-05-25T05:30:59.000Z</Time>
            <Position>
              <LatitudeDegrees>38.166646398603916168212890625</LatitudeDegrees>
              <LongitudeDegrees>-1.1269681714475154876708984375</LongitudeDegrees>
            </Position>
            <AltitudeMeters>203.600006103515625</AltitudeMeters>
            <DistanceMeters>NAN</DistanceMeters>
          </Trackpoint>
          <Trackpoint>
            <Time>2020-05-25T05:31:00.000Z</Time>
            <Position>
              <LatitudeDegrees>38.1666824407875537872314453125</LatitudeDegrees>
              <LongitudeDegrees>-1.12694763578474521636962890625</LongitudeDegrees>
            </Position>
            <AltitudeMeters>203.8000030517578125</AltitudeMeters>
            <DistanceMeters>NAN</DistanceMeters>
          </Trackpoint>
          <Trackpoint>
            <Time>2020-05-25T05:31:01.000Z</Time>
            <Position>
              <LatitudeDegrees>38.16671839915215969085693359375</LatitudeDegrees>
              <LongitudeDegrees>-1.126924417912960052490234375</LongitudeDegrees>
            </Position>
            <AltitudeMeters>204.1999969482421875</AltitudeMeters>
            <DistanceMeters>NAN</DistanceMeters>
          </Trackpoint>
          <Trackpoint>
            <Time>2020-05-25T05:31:02.000Z</Time>
            <Position>
              <LatitudeDegrees>38.16675494424998760223388671875</LatitudeDegrees>
              <LongitudeDegrees>-1.12690036185085773468017578125</LongitudeDegrees>
            </Position>
            <AltitudeMeters>204.399993896484375</AltitudeMeters>
            <DistanceMeters>NAN</DistanceMeters>
          </Trackpoint>
          <Trackpoint>
            <Time>2020-05-25T05:31:03.000Z</Time>
            <Position>
              <LatitudeDegrees>38.1667924113571643829345703125</LatitudeDegrees>
              <LongitudeDegrees>-1.1268746294081211090087890625</LongitudeDegrees>
            </Position>
            <AltitudeMeters>204.399993896484375</AltitudeMeters>
            <DistanceMeters>NAN</DistanceMeters>
          </Trackpoint>
          <Trackpoint>
            <Time>2020-05-25T05:31:04.000Z</Time>
            <Position>
              <LatitudeDegrees>38.16683088429272174835205078125</LatitudeDegrees>
              <LongitudeDegrees>-1.12684688530862331390380859375</LongitudeDegrees>
            </Position>
            <AltitudeMeters>204.600006103515625</AltitudeMeters>
            <DistanceMeters>NAN</DistanceMeters>
          </Trackpoint>
          <Trackpoint>
            <Time>2020-05-25T05:31:05.000Z</Time>
            <Position>
              <LatitudeDegrees>38.16687312908470630645751953125</LatitudeDegrees>
              <LongitudeDegrees>-1.12681771628558635711669921875</LongitudeDegrees>
            </Position>
            <AltitudeMeters>204.600006103515625</AltitudeMeters>
            <DistanceMeters>NAN</DistanceMeters>
          </Trackpoint>
          <Trackpoint>
            <Time>2020-05-25T05:31:06.000Z</Time>
            <Position>
              <LatitudeDegrees>38.16696465946733951568603515625</LatitudeDegrees>
              <LongitudeDegrees>-1.12675267271697521209716796875</LongitudeDegrees>
            </Position>
            <AltitudeMeters>204.600006103515625</AltitudeMeters>
            <DistanceMeters>NAN</DistanceMeters>
          </Trackpoint>
          <Trackpoint>
            <Time>2020-05-25T05:31:07.000Z</Time>
            <Position>
              <LatitudeDegrees>38.16696465946733951568603515625</LatitudeDegrees>
              <LongitudeDegrees>-1.12675267271697521209716796875</LongitudeDegrees>
            </Position>
            <AltitudeMeters>204.600006103515625</AltitudeMeters>
            <DistanceMeters>NAN</DistanceMeters>
          </Trackpoint>
          <Trackpoint>
            <Time>2020-05-25T05:31:08.000Z</Time>
            <Position>
              <LatitudeDegrees>38.16706641577184200286865234375</LatitudeDegrees>
              <LongitudeDegrees>-1.12668176181614398956298828125</LongitudeDegrees>
            </Position>
            <AltitudeMeters>204.600006103515625</AltitudeMeters>
            <DistanceMeters>NAN</DistanceMeters>
          </Trackpoint>
          <Trackpoint>
            <Time>2020-05-25T05:31:09.000Z</Time>
            <Position>
              <LatitudeDegrees>38.16706641577184200286865234375</LatitudeDegrees>
              <LongitudeDegrees>-1.12668176181614398956298828125</LongitudeDegrees>
            </Position>
            <AltitudeMeters>204.600006103515625</AltitudeMeters>
            <DistanceMeters>NAN</DistanceMeters>
          </Trackpoint>
          <Trackpoint>
            <Time>2020-05-25T05:31:10.000Z</Time>
            <Position>
              <LatitudeDegrees>38.16712173633277416229248046875</LatitudeDegrees>
              <LongitudeDegrees>-1.1266442947089672088623046875</LongitudeDegrees>
            </Position>
            <AltitudeMeters>204.600006103515625</AltitudeMeters>
            <DistanceMeters>NAN</DistanceMeters>
          </Trackpoint>
          <Trackpoint>
            <Time>2020-05-25T05:31:11.000Z</Time>
            <Position>
              <LatitudeDegrees>38.1671786494553089141845703125</LatitudeDegrees>
              <LongitudeDegrees>-1.126604564487934112548828125</LongitudeDegrees>
            </Position>
            <AltitudeMeters>204.600006103515625</AltitudeMeters>
            <DistanceMeters>NAN</DistanceMeters>
          </Trackpoint>
          <Trackpoint>
            <Time>2020-05-25T05:31:12.000Z</Time>
            <Position>
              <LatitudeDegrees>38.1672374904155731201171875</LatitudeDegrees>
              <LongitudeDegrees>-1.12656332552433013916015625</LongitudeDegrees>
            </Position>
            <AltitudeMeters>204.600006103515625</AltitudeMeters>
            <DistanceMeters>NAN</DistanceMeters>
          </Trackpoint>
          <Trackpoint>
            <Time>2020-05-25T05:31:13.000Z</Time>
            <Position>
              <LatitudeDegrees>38.167298175394535064697265625</LatitudeDegrees>
              <LongitudeDegrees>-1.1265202425420284271240234375</LongitudeDegrees>
            </Position>
            <AltitudeMeters>204.399993896484375</AltitudeMeters>
            <DistanceMeters>NAN</DistanceMeters>
          </Trackpoint>
          <Trackpoint>
            <Time>2020-05-25T05:31:14.000Z</Time>
            <Position>
              <LatitudeDegrees>38.16736011765897274017333984375</LatitudeDegrees>
              <LongitudeDegrees>-1.12647523172199726104736328125</LongitudeDegrees>
            </Position>
            <AltitudeMeters>204.1999969482421875</AltitudeMeters>
            <DistanceMeters>NAN</DistanceMeters>
          </Trackpoint>
          <Trackpoint>
            <Time>2020-05-25T05:31:15.000Z</Time>
            <Position>
              <LatitudeDegrees>38.16742415539920330047607421875</LatitudeDegrees>
              <LongitudeDegrees>-1.1264303885400295257568359375</LongitudeDegrees>
            </Position>
            <AltitudeMeters>204</AltitudeMeters>
            <DistanceMeters>NAN</DistanceMeters>
          </Trackpoint>
          <Trackpoint>
            <Time>2020-05-25T05:31:16.000Z</Time>
            <Position>
              <LatitudeDegrees>38.16749095916748046875</LatitudeDegrees>
              <LongitudeDegrees>-1.126385629177093505859375</LongitudeDegrees>
            </Position>
            <AltitudeMeters>203.600006103515625</AltitudeMeters>
            <DistanceMeters>NAN</DistanceMeters>
          </Trackpoint>
          <Trackpoint>
            <Time>2020-05-25T05:31:17.000Z</Time>
            <Position>
              <LatitudeDegrees>38.16755843348801136016845703125</LatitudeDegrees>
              <LongitudeDegrees>-1.1263385228812694549560546875</LongitudeDegrees>
            </Position>
            <AltitudeMeters>203.1999969482421875</AltitudeMeters>
            <DistanceMeters>NAN</DistanceMeters>
          </Trackpoint>
          <Trackpoint>
            <Time>2020-05-25T05:31:18.000Z</Time>
            <Position>
              <LatitudeDegrees>38.16769690252840518951416015625</LatitudeDegrees>
              <LongitudeDegrees>-1.1262402869760990142822265625</LongitudeDegrees>
            </Position>
            <AltitudeMeters>202.8000030517578125</AltitudeMeters>
            <DistanceMeters>NAN</DistanceMeters>
          </Trackpoint>
          <Trackpoint>
            <Time>2020-05-25T05:31:19.000Z</Time>
            <Position>
              <LatitudeDegrees>38.16769690252840518951416015625</LatitudeDegrees>
              <LongitudeDegrees>-1.1262402869760990142822265625</LongitudeDegrees>
            </Position>
            <AltitudeMeters>202.1999969482421875</AltitudeMeters>
            <DistanceMeters>NAN</DistanceMeters>
          </Trackpoint>
          <Trackpoint>
            <Time>2020-05-25T05:31:20.000Z</Time>
            <Position>
              <LatitudeDegrees>38.16784207709133625030517578125</LatitudeDegrees>
              <LongitudeDegrees>-1.1261397041380405426025390625</LongitudeDegrees>
            </Position>
            <AltitudeMeters>201.600006103515625</AltitudeMeters>
            <DistanceMeters>NAN</DistanceMeters>
          </Trackpoint>
          <Trackpoint>
            <Time>2020-05-25T05:31:21.000Z</Time>
            <Position>
              <LatitudeDegrees>38.16784207709133625030517578125</LatitudeDegrees>
              <LongitudeDegrees>-1.1261397041380405426025390625</LongitudeDegrees>
            </Position>
            <AltitudeMeters>201.1999969482421875</AltitudeMeters>
            <DistanceMeters>NAN</DistanceMeters>
          </Trackpoint>
          <Trackpoint>
            <Time>2020-05-25T05:31:22.000Z</Time>
            <Position>
              <LatitudeDegrees>38.1679160892963409423828125</LatitudeDegrees>
              <LongitudeDegrees>-1.1260884068906307220458984375</LongitudeDegrees>
            </Position>
            <AltitudeMeters>200.8000030517578125</AltitudeMeters>
            <DistanceMeters>NAN</DistanceMeters>
          </Trackpoint>
          <Trackpoint>
            <Time>2020-05-25T05:31:23.000Z</Time>
            <Position>
              <LatitudeDegrees>38.16799144260585308074951171875</LatitudeDegrees>
              <LongitudeDegrees>-1.12603685818612575531005859375</LongitudeDegrees>
            </Position>
            <AltitudeMeters>200.1999969482421875</AltitudeMeters>
            <DistanceMeters>NAN</DistanceMeters>
          </Trackpoint>
          <Trackpoint>
            <Time>2020-05-25T05:31:24.000Z</Time>
            <Position>
              <LatitudeDegrees>38.1681455858051776885986328125</LatitudeDegrees>
              <LongitudeDegrees>-1.1259291507303714752197265625</LongitudeDegrees>
            </Position>
            <AltitudeMeters>199.8000030517578125</AltitudeMeters>
            <DistanceMeters>NAN</DistanceMeters>
          </Trackpoint>
          <Trackpoint>
            <Time>2020-05-25T05:31:25.000Z</Time>
            <Position>
              <LatitudeDegrees>38.1681455858051776885986328125</LatitudeDegrees>
              <LongitudeDegrees>-1.1259291507303714752197265625</LongitudeDegrees>
            </Position>
            <AltitudeMeters>199.600006103515625</AltitudeMeters>
            <DistanceMeters>NAN</DistanceMeters>
          </Trackpoint>
          <Trackpoint>
            <Time>2020-05-25T05:31:26.000Z</Time>
            <Position>
              <LatitudeDegrees>38.16830391995608806610107421875</LatitudeDegrees>
              <LongitudeDegrees>-1.12581725232303142547607421875</LongitudeDegrees>
            </Position>
            <AltitudeMeters>199.1999969482421875</AltitudeMeters>
            <DistanceMeters>NAN</DistanceMeters>
          </Trackpoint>
          <Trackpoint>
            <Time>2020-05-25T05:31:27.000Z</Time>
            <Position>
              <LatitudeDegrees>38.16830391995608806610107421875</LatitudeDegrees>
              <LongitudeDegrees>-1.12581725232303142547607421875</LongitudeDegrees>
            </Position>
            <AltitudeMeters>199</AltitudeMeters>
            <DistanceMeters>NAN</DistanceMeters>
          </Trackpoint>
          <Trackpoint>
            <Time>2020-05-25T05:31:28.000Z</Time>
            <Position>
              <LatitudeDegrees>38.16838354803621768951416015625</LatitudeDegrees>
              <LongitudeDegrees>-1.1257588304579257965087890625</LongitudeDegrees>
            </Position>
            <AltitudeMeters>198.8000030517578125</AltitudeMeters>
            <DistanceMeters>NAN</DistanceMeters>
          </Trackpoint>
          <Trackpoint>
            <Time>2020-05-25T05:31:29.000Z</Time>
            <Position>
              <LatitudeDegrees>38.16846233792603015899658203125</LatitudeDegrees>
              <LongitudeDegrees>-1.12569856457412242889404296875</LongitudeDegrees>
            </Position>
            <AltitudeMeters>198</AltitudeMeters>
            <DistanceMeters>NAN</DistanceMeters>
          </Trackpoint>
          <Trackpoint>
            <Time>2020-05-25T05:31:30.000Z</Time>
            <Position>
              <LatitudeDegrees>38.1685408763587474822998046875</LatitudeDegrees>
              <LongitudeDegrees>-1.12563620321452617645263671875</LongitudeDegrees>
            </Position>
            <AltitudeMeters>197.8000030517578125</AltitudeMeters>
            <DistanceMeters>NAN</DistanceMeters>
          </Trackpoint>
          <Trackpoint>
            <Time>2020-05-25T05:31:31.000Z</Time>
            <Position>
              <LatitudeDegrees>38.16861824132502079010009765625</LatitudeDegrees>
              <LongitudeDegrees>-1.1255710758268833160400390625</LongitudeDegrees>
            </Position>
            <AltitudeMeters>197.1999969482421875</AltitudeMeters>
            <DistanceMeters>NAN</DistanceMeters>
          </Trackpoint>
          <Trackpoint>
            <Time>2020-05-25T05:31:32.000Z</Time>
            <Position>
              <LatitudeDegrees>38.16869367845356464385986328125</LatitudeDegrees>
              <LongitudeDegrees>-1.12550309859216213226318359375</LongitudeDegrees>
            </Position>
            <AltitudeMeters>197</AltitudeMeters>
            <DistanceMeters>NAN</DistanceMeters>
          </Trackpoint>
          <Trackpoint>
            <Time>2020-05-25T05:31:33.000Z</Time>
            <Position>
              <LatitudeDegrees>38.16876777447760105133056640625</LatitudeDegrees>
              <LongitudeDegrees>-1.1254322715103626251220703125</LongitudeDegrees>
            </Position>
            <AltitudeMeters>196.399993896484375</AltitudeMeters>
            <DistanceMeters>NAN</DistanceMeters>
          </Trackpoint>
          <Trackpoint>
            <Time>2020-05-25T05:31:34.000Z</Time>
            <Position>
              <LatitudeDegrees>38.16884036175906658172607421875</LatitudeDegrees>
              <LongitudeDegrees>-1.12535926513373851776123046875</LongitudeDegrees>
            </Position>
            <AltitudeMeters>196</AltitudeMeters>
            <DistanceMeters>NAN</DistanceMeters>
          </Trackpoint>
          <Trackpoint>
            <Time>2020-05-25T05:31:35.000Z</Time>
            <Position>
              <LatitudeDegrees>38.16891185939311981201171875</LatitudeDegrees>
              <LongitudeDegrees>-1.12528550438582897186279296875</LongitudeDegrees>
            </Position>
            <AltitudeMeters>195.600006103515625</AltitudeMeters>
            <DistanceMeters>NAN</DistanceMeters>
          </Trackpoint>
          <Trackpoint>
            <Time>2020-05-25T05:31:36.000Z</Time>
            <Position>
              <LatitudeDegrees>38.1689824350178241729736328125</LatitudeDegrees>
              <LongitudeDegrees>-1.12521107308566570281982421875</LongitudeDegrees>
            </Position>
            <AltitudeMeters>195.399993896484375</AltitudeMeters>
            <DistanceMeters>NAN</DistanceMeters>
          </Trackpoint>
          <Trackpoint>
            <Time>2020-05-25T05:31:37.000Z</Time>
            <Position>
              <LatitudeDegrees>38.1690531782805919647216796875</LatitudeDegrees>
              <LongitudeDegrees>-1.125136725604534149169921875</LongitudeDegrees>
            </Position>
            <AltitudeMeters>194.8000030517578125</AltitudeMeters>
            <DistanceMeters>NAN</DistanceMeters>
          </Trackpoint>
          <Trackpoint>
            <Time>2020-05-25T05:31:38.000Z</Time>
            <Position>
              <LatitudeDegrees>38.16912501119077205657958984375</LatitudeDegrees>
              <LongitudeDegrees>-1.12506187520921230316162109375</LongitudeDegrees>
            </Position>
            <AltitudeMeters>194.399993896484375</AltitudeMeters>
            <DistanceMeters>NAN</DistanceMeters>
          </Trackpoint>
          <Trackpoint>
            <Time>2020-05-25T05:31:39.000Z</Time>
            <Position>
              <LatitudeDegrees>38.16919525153934955596923828125</LatitudeDegrees>
              <LongitudeDegrees>-1.12498811446130275726318359375</LongitudeDegrees>
            </Position>
            <AltitudeMeters>194.1999969482421875</AltitudeMeters>
            <DistanceMeters>NAN</DistanceMeters>
          </Trackpoint>
          <Trackpoint>
            <Time>2020-05-25T05:31:40.000Z</Time>
            <Position>
              <LatitudeDegrees>38.16926448605954647064208984375</LatitudeDegrees>
              <LongitudeDegrees>-1.12491376698017120361328125</LongitudeDegrees>
            </Position>
            <AltitudeMeters>194</AltitudeMeters>
            <DistanceMeters>NAN</DistanceMeters>
          </Trackpoint>
          <Trackpoint>
            <Time>2020-05-25T05:31:41.000Z</Time>
            <Position>
              <LatitudeDegrees>38.1693322956562042236328125</LatitudeDegrees>
              <LongitudeDegrees>-1.12483908422291278839111328125</LongitudeDegrees>
            </Position>
            <AltitudeMeters>193.1999969482421875</AltitudeMeters>
            <DistanceMeters>NAN</DistanceMeters>
          </Trackpoint>
          <Trackpoint>
            <Time>2020-05-25T05:31:42.000Z</Time>
            <Position>
              <LatitudeDegrees>38.169400356709957122802734375</LatitudeDegrees>
              <LongitudeDegrees>-1.12476490437984466552734375</LongitudeDegrees>
            </Position>
            <AltitudeMeters>193</AltitudeMeters>
            <DistanceMeters>NAN</DistanceMeters>
          </Trackpoint>
          <Trackpoint>
            <Time>2020-05-25T05:31:43.000Z</Time>
            <Position>
              <LatitudeDegrees>38.16946917213499546051025390625</LatitudeDegrees>
              <LongitudeDegrees>-1.1246913112699985504150390625</LongitudeDegrees>
            </Position>
            <AltitudeMeters>192.600006103515625</AltitudeMeters>
            <DistanceMeters>NAN</DistanceMeters>
          </Trackpoint>
          <Trackpoint>
            <Time>2020-05-25T05:31:44.000Z</Time>
            <Position>
              <LatitudeDegrees>38.16960495896637439727783203125</LatitudeDegrees>
              <LongitudeDegrees>-1.12454571761190891265869140625</LongitudeDegrees>
            </Position>
            <AltitudeMeters>192.399993896484375</AltitudeMeters>
            <DistanceMeters>NAN</DistanceMeters>
          </Trackpoint>
          <Trackpoint>
            <Time>2020-05-25T05:31:45.000Z</Time>
            <Position>
              <LatitudeDegrees>38.16960495896637439727783203125</LatitudeDegrees>
              <LongitudeDegrees>-1.12454571761190891265869140625</LongitudeDegrees>
            </Position>
            <AltitudeMeters>192.1999969482421875</AltitudeMeters>
            <DistanceMeters>NAN</DistanceMeters>
          </Trackpoint>
          <Trackpoint>
            <Time>2020-05-25T05:31:46.000Z</Time>
            <Position>
              <LatitudeDegrees>38.16967285238206386566162109375</LatitudeDegrees>
              <LongitudeDegrees>-1.12447279505431652069091796875</LongitudeDegrees>
            </Position>
            <AltitudeMeters>191.8000030517578125</AltitudeMeters>
            <DistanceMeters>NAN</DistanceMeters>
          </Trackpoint>
          <Trackpoint>
            <Time>2020-05-25T05:31:47.000Z</Time>
            <Position>
              <LatitudeDegrees>38.169740997254848480224609375</LatitudeDegrees>
              <LongitudeDegrees>-1.12440037541091442108154296875</LongitudeDegrees>
            </Position>
            <AltitudeMeters>191.600006103515625</AltitudeMeters>
            <DistanceMeters>NAN</DistanceMeters>
          </Trackpoint>
          <Trackpoint>
            <Time>2020-05-25T05:31:48.000Z</Time>
            <Position>
              <LatitudeDegrees>38.169808052480220794677734375</LatitudeDegrees>
              <LongitudeDegrees>-1.1243297159671783447265625</LongitudeDegrees>
            </Position>
            <AltitudeMeters>191.399993896484375</AltitudeMeters>
            <DistanceMeters>NAN</DistanceMeters>
          </Trackpoint>
          <Trackpoint>
            <Time>2020-05-25T05:31:49.000Z</Time>
            <Position>
              <LatitudeDegrees>38.16987670026719570159912109375</LatitudeDegrees>
              <LongitudeDegrees>-1.12425972707569599151611328125</LongitudeDegrees>
            </Position>
            <AltitudeMeters>191.1999969482421875</AltitudeMeters>
            <DistanceMeters>NAN</DistanceMeters>
          </Trackpoint>
          <Trackpoint>
            <Time>2020-05-25T05:31:50.000Z</Time>
            <Position>
              <LatitudeDegrees>38.16994576714932918548583984375</LatitudeDegrees>
              <LongitudeDegrees>-1.1241924203932285308837890625</LongitudeDegrees>
            </Position>
            <AltitudeMeters>190.8000030517578125</AltitudeMeters>
            <DistanceMeters>NAN</DistanceMeters>
          </Trackpoint>
          <Trackpoint>
            <Time>2020-05-25T05:31:51.000Z</Time>
            <Position>
              <LatitudeDegrees>38.170015253126621246337890625</LatitudeDegrees>
              <LongitudeDegrees>-1.1241280473768711090087890625</LongitudeDegrees>
            </Position>
            <AltitudeMeters>190.399993896484375</AltitudeMeters>
            <DistanceMeters>NAN</DistanceMeters>
          </Trackpoint>
          <Trackpoint>
            <Time>2020-05-25T05:31:52.000Z</Time>
            <Position>
              <LatitudeDegrees>38.17008591257035732269287109375</LatitudeDegrees>
              <LongitudeDegrees>-1.12406753003597259521484375</LongitudeDegrees>
            </Position>
            <AltitudeMeters>190.1999969482421875</AltitudeMeters>
            <DistanceMeters>NAN</DistanceMeters>
          </Trackpoint>
          <Trackpoint>
            <Time>2020-05-25T05:31:53.000Z</Time>
            <Position>
              <LatitudeDegrees>38.1701572425663471221923828125</LatitudeDegrees>
              <LongitudeDegrees>-1.12401095218956470489501953125</LongitudeDegrees>
            </Position>
            <AltitudeMeters>189.8000030517578125</AltitudeMeters>
            <DistanceMeters>NAN</DistanceMeters>
          </Trackpoint>
          <Trackpoint>
            <Time>2020-05-25T05:31:54.000Z</Time>
            <Position>
              <LatitudeDegrees>38.1702296622097492218017578125</LatitudeDegrees>
              <LongitudeDegrees>-1.12395831383764743804931640625</LongitudeDegrees>
            </Position>
            <AltitudeMeters>189.600006103515625</AltitudeMeters>
            <DistanceMeters>NAN</DistanceMeters>
          </Trackpoint>
          <Trackpoint>
            <Time>2020-05-25T05:31:55.000Z</Time>
            <Position>
              <LatitudeDegrees>38.17030384205281734466552734375</LatitudeDegrees>
              <LongitudeDegrees>-1.12391154281795024871826171875</LongitudeDegrees>
            </Position>
            <AltitudeMeters>189.399993896484375</AltitudeMeters>
            <DistanceMeters>NAN</DistanceMeters>
          </Trackpoint>
          <Trackpoint>
            <Time>2020-05-25T05:31:56.000Z</Time>
            <Position>
              <LatitudeDegrees>38.17037844099104404449462890625</LatitudeDegrees>
              <LongitudeDegrees>-1.12386896274983882904052734375</LongitudeDegrees>
            </Position>
            <AltitudeMeters>189</AltitudeMeters>
            <DistanceMeters>NAN</DistanceMeters>
          </Trackpoint>
          <Trackpoint>
            <Time>2020-05-25T05:31:57.000Z</Time>
            <Position>
              <LatitudeDegrees>38.17045404575765132904052734375</LatitudeDegrees>
              <LongitudeDegrees>-1.12383191473782062530517578125</LongitudeDegrees>
            </Position>
            <AltitudeMeters>188.8000030517578125</AltitudeMeters>
            <DistanceMeters>NAN</DistanceMeters>
          </Trackpoint>
          <Trackpoint>
            <Time>2020-05-25T05:31:58.000Z</Time>
            <Position>
              <LatitudeDegrees>38.17053015343844890594482421875</LatitudeDegrees>
              <LongitudeDegrees>-1.12380023114383220672607421875</LongitudeDegrees>
            </Position>
            <AltitudeMeters>188.600006103515625</AltitudeMeters>
            <DistanceMeters>NAN</DistanceMeters>
          </Trackpoint>
          <Trackpoint>
            <Time>2020-05-25T05:31:59.000Z</Time>
            <Position>
              <LatitudeDegrees>38.17060676403343677520751953125</LatitudeDegrees>
              <LongitudeDegrees>-1.12377290613949298858642578125</LongitudeDegrees>
            </Position>
            <AltitudeMeters>188.399993896484375</AltitudeMeters>
            <DistanceMeters>NAN</DistanceMeters>
          </Trackpoint>
          <Trackpoint>
            <Time>2020-05-25T05:32:00.000Z</Time>
            <Position>
              <LatitudeDegrees>38.17068421281874179840087890625</LatitudeDegrees>
              <LongitudeDegrees>-1.12374968826770782470703125</LongitudeDegrees>
            </Position>
            <AltitudeMeters>188.399993896484375</AltitudeMeters>
            <DistanceMeters>NAN</DistanceMeters>
          </Trackpoint>
          <Trackpoint>
            <Time>2020-05-25T05:32:01.000Z</Time>
            <Position>
              <LatitudeDegrees>38.17076082341372966766357421875</LatitudeDegrees>
              <LongitudeDegrees>-1.1237300746142864227294921875</LongitudeDegrees>
            </Position>
            <AltitudeMeters>188.399993896484375</AltitudeMeters>
            <DistanceMeters>NAN</DistanceMeters>
          </Trackpoint>
          <Trackpoint>
            <Time>2020-05-25T05:32:02.000Z</Time>
            <Position>
              <LatitudeDegrees>38.170838020741939544677734375</LatitudeDegrees>
              <LongitudeDegrees>-1.12371481955051422119140625</LongitudeDegrees>
            </Position>
            <AltitudeMeters>188.399993896484375</AltitudeMeters>
            <DistanceMeters>NAN</DistanceMeters>
          </Trackpoint>
          <Trackpoint>
            <Time>2020-05-25T05:32:03.000Z</Time>
            <Position>
              <LatitudeDegrees>38.17091588862240314483642578125</LatitudeDegrees>
              <LongitudeDegrees>-1.12370266579091548919677734375</LongitudeDegrees>
            </Position>
            <AltitudeMeters>188.399993896484375</AltitudeMeters>
            <DistanceMeters>NAN</DistanceMeters>
          </Trackpoint>
          <Trackpoint>
            <Time>2020-05-25T05:32:04.000Z</Time>
            <Position>
              <LatitudeDegrees>38.1709944270551204681396484375</LatitudeDegrees>
              <LongitudeDegrees>-1.12369562499225139617919921875</LongitudeDegrees>
            </Position>
            <AltitudeMeters>188.399993896484375</AltitudeMeters>
            <DistanceMeters>NAN</DistanceMeters>
          </Trackpoint>
          <Trackpoint>
            <Time>2020-05-25T05:32:05.000Z</Time>
            <Position>
              <LatitudeDegrees>38.17107237875461578369140625</LatitudeDegrees>
              <LongitudeDegrees>-1.12369411624968051910400390625</LongitudeDegrees>
            </Position>
            <AltitudeMeters>188.399993896484375</AltitudeMeters>
            <DistanceMeters>NAN</DistanceMeters>
          </Trackpoint>
          <Trackpoint>
            <Time>2020-05-25T05:32:06.000Z</Time>
            <Position>
              <LatitudeDegrees>38.17115108482539653778076171875</LatitudeDegrees>
              <LongitudeDegrees>-1.1236945353448390960693359375</LongitudeDegrees>
            </Position>
            <AltitudeMeters>188.399993896484375</AltitudeMeters>
            <DistanceMeters>NAN</DistanceMeters>
          </Trackpoint>
          <Trackpoint>
            <Time>2020-05-25T05:32:07.000Z</Time>
            <Position>
              <LatitudeDegrees>38.17122928798198699951171875</LatitudeDegrees>
              <LongitudeDegrees>-1.1236965470016002655029296875</LongitudeDegrees>
            </Position>
            <AltitudeMeters>188.1999969482421875</AltitudeMeters>
            <DistanceMeters>NAN</DistanceMeters>
          </Trackpoint>
          <Trackpoint>
            <Time>2020-05-25T05:32:08.000Z</Time>
            <Position>
              <LatitudeDegrees>38.17130832932889461517333984375</LatitudeDegrees>
              <LongitudeDegrees>-1.12369964830577373504638671875</LongitudeDegrees>
            </Position>
            <AltitudeMeters>188.1999969482421875</AltitudeMeters>
            <DistanceMeters>NAN</DistanceMeters>
          </Trackpoint>
          <Trackpoint>
            <Time>2020-05-25T05:32:09.000Z</Time>
            <Position>
              <LatitudeDegrees>38.17138812504708766937255859375</LatitudeDegrees>
              <LongitudeDegrees>-1.12370350398123264312744140625</LongitudeDegrees>
            </Position>
            <AltitudeMeters>188.1999969482421875</AltitudeMeters>
            <DistanceMeters>NAN</DistanceMeters>
          </Trackpoint>
          <Trackpoint>
            <Time>2020-05-25T05:32:10.000Z</Time>
            <Position>
              <LatitudeDegrees>38.171467669308185577392578125</LatitudeDegrees>
              <LongitudeDegrees>-1.12370534799993038177490234375</LongitudeDegrees>
            </Position>
            <AltitudeMeters>188.1999969482421875</AltitudeMeters>
            <DistanceMeters>NAN</DistanceMeters>
          </Trackpoint>
          <Trackpoint>
            <Time>2020-05-25T05:32:11.000Z</Time>
            <Position>
              <LatitudeDegrees>38.1715466268360614776611328125</LatitudeDegrees>
              <LongitudeDegrees>-1.12370811402797698974609375</LongitudeDegrees>
            </Position>
            <AltitudeMeters>188.1999969482421875</AltitudeMeters>
            <DistanceMeters>NAN</DistanceMeters>
          </Trackpoint>
          <Trackpoint>
            <Time>2020-05-25T05:32:12.000Z</Time>
            <Position>
              <LatitudeDegrees>38.17162583582103252410888671875</LatitudeDegrees>
              <LongitudeDegrees>-1.12371138297021389007568359375</LongitudeDegrees>
            </Position>
            <AltitudeMeters>188.1999969482421875</AltitudeMeters>
            <DistanceMeters>NAN</DistanceMeters>
          </Trackpoint>
          <Trackpoint>
            <Time>2020-05-25T05:32:13.000Z</Time>
            <Position>
              <LatitudeDegrees>38.1717045418918132781982421875</LatitudeDegrees>
              <LongitudeDegrees>-1.12371389754116535186767578125</LongitudeDegrees>
            </Position>
            <AltitudeMeters>188.1999969482421875</AltitudeMeters>
            <DistanceMeters>NAN</DistanceMeters>
          </Trackpoint>
          <Trackpoint>
            <Time>2020-05-25T05:32:14.000Z</Time>
            <Position>
              <LatitudeDegrees>38.1717836670577526092529296875</LatitudeDegrees>
              <LongitudeDegrees>-1.12371657975018024444580078125</LongitudeDegrees>
            </Position>
            <AltitudeMeters>188.1999969482421875</AltitudeMeters>
            <DistanceMeters>NAN</DistanceMeters>
          </Trackpoint>
          <Trackpoint>
            <Time>2020-05-25T05:32:15.000Z</Time>
            <Position>
              <LatitudeDegrees>38.17186220549046993255615234375</LatitudeDegrees>
              <LongitudeDegrees>-1.12371859140694141387939453125</LongitudeDegrees>
            </Position>
            <AltitudeMeters>188.1999969482421875</AltitudeMeters>
            <DistanceMeters>NAN</DistanceMeters>
          </Trackpoint>
          <Trackpoint>
            <Time>2020-05-25T05:32:16.000Z</Time>
            <Position>
              <LatitudeDegrees>38.17194015718996524810791015625</LatitudeDegrees>
              <LongitudeDegrees>-1.12372160889208316802978515625</LongitudeDegrees>
            </Position>
            <AltitudeMeters>188.1999969482421875</AltitudeMeters>
            <DistanceMeters>NAN</DistanceMeters>
          </Trackpoint>
          <Trackpoint>
            <Time>2020-05-25T05:32:17.000Z</Time>
            <Position>
              <LatitudeDegrees>38.17201760597527027130126953125</LatitudeDegrees>
              <LongitudeDegrees>-1.12372529692947864532470703125</LongitudeDegrees>
            </Position>
            <AltitudeMeters>188.1999969482421875</AltitudeMeters>
            <DistanceMeters>NAN</DistanceMeters>
          </Trackpoint>
          <Trackpoint>
            <Time>2020-05-25T05:32:18.000Z</Time>
            <Position>
              <LatitudeDegrees>38.17209455184638500213623046875</LatitudeDegrees>
              <LongitudeDegrees>-1.123728565871715545654296875</LongitudeDegrees>
            </Position>
            <AltitudeMeters>188</AltitudeMeters>
            <DistanceMeters>NAN</DistanceMeters>
          </Trackpoint>
          <Trackpoint>
            <Time>2020-05-25T05:32:19.000Z</Time>
            <Position>
              <LatitudeDegrees>38.17217074334621429443359375</LatitudeDegrees>
              <LongitudeDegrees>-1.1237324215471744537353515625</LongitudeDegrees>
            </Position>
            <AltitudeMeters>188</AltitudeMeters>
            <DistanceMeters>NAN</DistanceMeters>
          </Trackpoint>
          <Trackpoint>
            <Time>2020-05-25T05:32:20.000Z</Time>
            <Position>
              <LatitudeDegrees>38.1722470186650753021240234375</LatitudeDegrees>
              <LongitudeDegrees>-1.123735941946506500244140625</LongitudeDegrees>
            </Position>
            <AltitudeMeters>188</AltitudeMeters>
            <DistanceMeters>NAN</DistanceMeters>
          </Trackpoint>
          <Trackpoint>
            <Time>2020-05-25T05:32:21.000Z</Time>
            <Position>
              <LatitudeDegrees>38.1723231263458728790283203125</LatitudeDegrees>
              <LongitudeDegrees>-1.12373904325067996978759765625</LongitudeDegrees>
            </Position>
            <AltitudeMeters>187.8000030517578125</AltitudeMeters>
            <DistanceMeters>NAN</DistanceMeters>
          </Trackpoint>
          <Trackpoint>
            <Time>2020-05-25T05:32:22.000Z</Time>
            <Position>
              <LatitudeDegrees>38.1723992340266704559326171875</LatitudeDegrees>
              <LongitudeDegrees>-1.12374155782163143157958984375</LongitudeDegrees>
            </Position>
            <AltitudeMeters>187.8000030517578125</AltitudeMeters>
            <DistanceMeters>NAN</DistanceMeters>
          </Trackpoint>
          <Trackpoint>
            <Time>2020-05-25T05:32:23.000Z</Time>
            <Position>
              <LatitudeDegrees>38.1724756769835948944091796875</LatitudeDegrees>
              <LongitudeDegrees>-1.123743988573551177978515625</LongitudeDegrees>
            </Position>
            <AltitudeMeters>187.8000030517578125</AltitudeMeters>
            <DistanceMeters>NAN</DistanceMeters>
          </Trackpoint>
          <Trackpoint>
            <Time>2020-05-25T05:32:24.000Z</Time>
            <Position>
              <LatitudeDegrees>38.17255253903567790985107421875</LatitudeDegrees>
              <LongitudeDegrees>-1.1237471736967563629150390625</LongitudeDegrees>
            </Position>
            <AltitudeMeters>187.8000030517578125</AltitudeMeters>
            <DistanceMeters>NAN</DistanceMeters>
          </Trackpoint>
          <Trackpoint>
            <Time>2020-05-25T05:32:25.000Z</Time>
            <Position>
              <LatitudeDegrees>38.1726292334496974945068359375</LatitudeDegrees>
              <LongitudeDegrees>-1.1237508617341518402099609375</LongitudeDegrees>
            </Position>
            <AltitudeMeters>187.600006103515625</AltitudeMeters>
            <DistanceMeters>NAN</DistanceMeters>
          </Trackpoint>
          <Trackpoint>
            <Time>2020-05-25T05:32:26.000Z</Time>
            <Position>
              <LatitudeDegrees>38.1727050058543682098388671875</LatitudeDegrees>
              <LongitudeDegrees>-1.12375362776219844818115234375</LongitudeDegrees>
            </Position>
            <AltitudeMeters>187.399993896484375</AltitudeMeters>
            <DistanceMeters>NAN</DistanceMeters>
          </Trackpoint>
          <Trackpoint>
            <Time>2020-05-25T05:32:27.000Z</Time>
            <Position>
              <LatitudeDegrees>38.1727802753448486328125</LatitudeDegrees>
              <LongitudeDegrees>-1.12375547178089618682861328125</LongitudeDegrees>
            </Position>
            <AltitudeMeters>187.399993896484375</AltitudeMeters>
            <DistanceMeters>NAN</DistanceMeters>
          </Trackpoint>
          <Trackpoint>
            <Time>2020-05-25T05:32:28.000Z</Time>
            <Position>
              <LatitudeDegrees>38.17285462282598018646240234375</LatitudeDegrees>
              <LongitudeDegrees>-1.12375765107572078704833984375</LongitudeDegrees>
            </Position>
            <AltitudeMeters>187.399993896484375</AltitudeMeters>
            <DistanceMeters>NAN</DistanceMeters>
          </Trackpoint>
          <Trackpoint>
            <Time>2020-05-25T05:32:29.000Z</Time>
            <Position>
              <LatitudeDegrees>38.172926791012287139892578125</LatitudeDegrees>
              <LongitudeDegrees>-1.1237615905702114105224609375</LongitudeDegrees>
            </Position>
            <AltitudeMeters>187.399993896484375</AltitudeMeters>
            <DistanceMeters>NAN</DistanceMeters>
          </Trackpoint>
          <Trackpoint>
            <Time>2020-05-25T05:32:30.000Z</Time>
            <Position>
              <LatitudeDegrees>38.1729970313608646392822265625</LatitudeDegrees>
              <LongitudeDegrees>-1.12376318313181400299072265625</LongitudeDegrees>
            </Position>
            <AltitudeMeters>187.399993896484375</AltitudeMeters>
            <DistanceMeters>NAN</DistanceMeters>
          </Trackpoint>
          <Trackpoint>
            <Time>2020-05-25T05:32:31.000Z</Time>
            <Position>
              <LatitudeDegrees>38.17306567914783954620361328125</LatitudeDegrees>
              <LongitudeDegrees>-1.12376444041728973388671875</LongitudeDegrees>
            </Position>
            <AltitudeMeters>187.399993896484375</AltitudeMeters>
            <DistanceMeters>NAN</DistanceMeters>
          </Trackpoint>
          <Trackpoint>
            <Time>2020-05-25T05:32:32.000Z</Time>
            <Position>
              <LatitudeDegrees>38.17313239909708499908447265625</LatitudeDegrees>
              <LongitudeDegrees>-1.12376712262630462646484375</LongitudeDegrees>
            </Position>
            <AltitudeMeters>187.399993896484375</AltitudeMeters>
            <DistanceMeters>NAN</DistanceMeters>
          </Trackpoint>
          <Trackpoint>
            <Time>2020-05-25T05:32:33.000Z</Time>
            <Position>
              <LatitudeDegrees>38.17319710738956928253173828125</LatitudeDegrees>
              <LongitudeDegrees>-1.12376980483531951904296875</LongitudeDegrees>
            </Position>
            <AltitudeMeters>187.399993896484375</AltitudeMeters>
            <DistanceMeters>NAN</DistanceMeters>
          </Trackpoint>
          <Trackpoint>
            <Time>2020-05-25T05:32:34.000Z</Time>
            <Position>
              <LatitudeDegrees>38.1732618995010852813720703125</LatitudeDegrees>
              <LongitudeDegrees>-1.12377173267304897308349609375</LongitudeDegrees>
            </Position>
            <AltitudeMeters>187.399993896484375</AltitudeMeters>
            <DistanceMeters>NAN</DistanceMeters>
          </Trackpoint>
          <Trackpoint>
            <Time>2020-05-25T05:32:35.000Z</Time>
            <Position>
              <LatitudeDegrees>38.17332811653614044189453125</LatitudeDegrees>
              <LongitudeDegrees>-1.1237723194062709808349609375</LongitudeDegrees>
            </Position>
            <AltitudeMeters>187.600006103515625</AltitudeMeters>
            <DistanceMeters>NAN</DistanceMeters>
          </Trackpoint>
          <Trackpoint>
            <Time>2020-05-25T05:32:36.000Z</Time>
            <Position>
              <LatitudeDegrees>38.17339357919991016387939453125</LatitudeDegrees>
              <LongitudeDegrees>-1.1237736605107784271240234375</LongitudeDegrees>
            </Position>
            <AltitudeMeters>187.8000030517578125</AltitudeMeters>
            <DistanceMeters>NAN</DistanceMeters>
          </Trackpoint>
          <Trackpoint>
            <Time>2020-05-25T05:32:37.000Z</Time>
            <Position>
              <LatitudeDegrees>38.1734600476920604705810546875</LatitudeDegrees>
              <LongitudeDegrees>-1.1237771809101104736328125</LongitudeDegrees>
            </Position>
            <AltitudeMeters>188.1999969482421875</AltitudeMeters>
            <DistanceMeters>NAN</DistanceMeters>
          </Trackpoint>
          <Trackpoint>
            <Time>2020-05-25T05:32:38.000Z</Time>
            <Position>
              <LatitudeDegrees>38.17352718673646450042724609375</LatitudeDegrees>
              <LongitudeDegrees>-1.123780868947505950927734375</LongitudeDegrees>
            </Position>
            <AltitudeMeters>188.399993896484375</AltitudeMeters>
            <DistanceMeters>NAN</DistanceMeters>
          </Trackpoint>
          <Trackpoint>
            <Time>2020-05-25T05:32:39.000Z</Time>
            <Position>
              <LatitudeDegrees>38.17359365522861480712890625</LatitudeDegrees>
              <LongitudeDegrees>-1.123782210052013397216796875</LongitudeDegrees>
            </Position>
            <AltitudeMeters>188.600006103515625</AltitudeMeters>
            <DistanceMeters>NAN</DistanceMeters>
          </Trackpoint>
          <Trackpoint>
            <Time>2020-05-25T05:32:40.000Z</Time>
            <Position>
              <LatitudeDegrees>38.1736615486443042755126953125</LatitudeDegrees>
              <LongitudeDegrees>-1.12378765828907489776611328125</LongitudeDegrees>
            </Position>
            <AltitudeMeters>188.8000030517578125</AltitudeMeters>
            <DistanceMeters>NAN</DistanceMeters>
          </Trackpoint>
          <Trackpoint>
            <Time>2020-05-25T05:32:41.000Z</Time>
            <Position>
              <LatitudeDegrees>38.1737284362316131591796875</LatitudeDegrees>
              <LongitudeDegrees>-1.12379050813615322113037109375</LongitudeDegrees>
            </Position>
            <AltitudeMeters>189</AltitudeMeters>
            <DistanceMeters>NAN</DistanceMeters>
          </Trackpoint>
          <Trackpoint>
            <Time>2020-05-25T05:32:42.000Z</Time>
            <Position>
              <LatitudeDegrees>38.17379708401858806610107421875</LatitudeDegrees>
              <LongitudeDegrees>-1.123791597783565521240234375</LongitudeDegrees>
            </Position>
            <AltitudeMeters>189.1999969482421875</AltitudeMeters>
            <DistanceMeters>NAN</DistanceMeters>
          </Trackpoint>
          <Trackpoint>
            <Time>2020-05-25T05:32:43.000Z</Time>
            <Position>
              <LatitudeDegrees>38.1738667376339435577392578125</LatitudeDegrees>
              <LongitudeDegrees>-1.12379302270710468292236328125</LongitudeDegrees>
            </Position>
            <AltitudeMeters>189.399993896484375</AltitudeMeters>
            <DistanceMeters>NAN</DistanceMeters>
          </Trackpoint>
          <Trackpoint>
            <Time>2020-05-25T05:32:44.000Z</Time>
            <Position>
              <LatitudeDegrees>38.1740055419504642486572265625</LatitudeDegrees>
              <LongitudeDegrees>-1.12379738129675388336181640625</LongitudeDegrees>
            </Position>
            <AltitudeMeters>189.600006103515625</AltitudeMeters>
            <DistanceMeters>NAN</DistanceMeters>
          </Trackpoint>
          <Trackpoint>
            <Time>2020-05-25T05:32:45.000Z</Time>
            <Position>
              <LatitudeDegrees>38.1740055419504642486572265625</LatitudeDegrees>
              <LongitudeDegrees>-1.12379738129675388336181640625</LongitudeDegrees>
            </Position>
            <AltitudeMeters>189.600006103515625</AltitudeMeters>
            <DistanceMeters>NAN</DistanceMeters>
          </Trackpoint>
          <Trackpoint>
            <Time>2020-05-25T05:32:46.000Z</Time>
            <Position>
              <LatitudeDegrees>38.1740742735564708709716796875</LatitudeDegrees>
              <LongitudeDegrees>-1.12379905767738819122314453125</LongitudeDegrees>
            </Position>
            <AltitudeMeters>189.8000030517578125</AltitudeMeters>
            <DistanceMeters>NAN</DistanceMeters>
          </Trackpoint>
          <Trackpoint>
            <Time>2020-05-25T05:32:47.000Z</Time>
            <Position>
              <LatitudeDegrees>38.1741428375244140625</LatitudeDegrees>
              <LongitudeDegrees>-1.12380073405802249908447265625</LongitudeDegrees>
            </Position>
            <AltitudeMeters>189.8000030517578125</AltitudeMeters>
            <DistanceMeters>NAN</DistanceMeters>
          </Trackpoint>
          <Trackpoint>
            <Time>2020-05-25T05:32:48.000Z</Time>
            <Position>
              <LatitudeDegrees>38.17428071983158588409423828125</LatitudeDegrees>
              <LongitudeDegrees>-1.12380324862897396087646484375</LongitudeDegrees>
            </Position>
            <AltitudeMeters>189.8000030517578125</AltitudeMeters>
            <DistanceMeters>NAN</DistanceMeters>
          </Trackpoint>
          <Trackpoint>
            <Time>2020-05-25T05:32:49.000Z</Time>
            <Position>
              <LatitudeDegrees>38.17428071983158588409423828125</LatitudeDegrees>
              <LongitudeDegrees>-1.12380324862897396087646484375</LongitudeDegrees>
            </Position>
            <AltitudeMeters>189.8000030517578125</AltitudeMeters>
            <DistanceMeters>NAN</DistanceMeters>
          </Trackpoint>
          <Trackpoint>
            <Time>2020-05-25T05:32:50.000Z</Time>
            <Position>
              <LatitudeDegrees>38.1744182668626308441162109375</LatitudeDegrees>
              <LongitudeDegrees>-1.1238081939518451690673828125</LongitudeDegrees>
            </Position>
            <AltitudeMeters>189.8000030517578125</AltitudeMeters>
            <DistanceMeters>NAN</DistanceMeters>
          </Trackpoint>
          <Trackpoint>
            <Time>2020-05-25T05:32:51.000Z</Time>
            <Position>
              <LatitudeDegrees>38.1744182668626308441162109375</LatitudeDegrees>
              <LongitudeDegrees>-1.1238081939518451690673828125</LongitudeDegrees>
            </Position>
            <AltitudeMeters>189.8000030517578125</AltitudeMeters>
            <DistanceMeters>NAN</DistanceMeters>
          </Trackpoint>
          <Trackpoint>
            <Time>2020-05-25T05:32:52.000Z</Time>
            <Position>
              <LatitudeDegrees>38.17448557354509830474853515625</LatitudeDegrees>
              <LongitudeDegrees>-1.12381146289408206939697265625</LongitudeDegrees>
            </Position>
            <AltitudeMeters>190</AltitudeMeters>
            <DistanceMeters>NAN</DistanceMeters>
          </Trackpoint>
          <Trackpoint>
            <Time>2020-05-25T05:32:53.000Z</Time>
            <Position>
              <LatitudeDegrees>38.17455120384693145751953125</LatitudeDegrees>
              <LongitudeDegrees>-1.123813726007938385009765625</LongitudeDegrees>
            </Position>
            <AltitudeMeters>190</AltitudeMeters>
            <DistanceMeters>NAN</DistanceMeters>
          </Trackpoint>
          <Trackpoint>
            <Time>2020-05-25T05:32:54.000Z</Time>
            <Position>
              <LatitudeDegrees>38.174677602946758270263671875</LatitudeDegrees>
              <LongitudeDegrees>-1.123817078769207000732421875</LongitudeDegrees>
            </Position>
            <AltitudeMeters>190</AltitudeMeters>
            <DistanceMeters>NAN</DistanceMeters>
          </Trackpoint>
          <Trackpoint>
            <Time>2020-05-25T05:32:55.000Z</Time>
            <Position>
              <LatitudeDegrees>38.174677602946758270263671875</LatitudeDegrees>
              <LongitudeDegrees>-1.123817078769207000732421875</LongitudeDegrees>
            </Position>
            <AltitudeMeters>190</AltitudeMeters>
            <DistanceMeters>NAN</DistanceMeters>
          </Trackpoint>
          <Trackpoint>
            <Time>2020-05-25T05:32:56.000Z</Time>
            <Position>
              <LatitudeDegrees>38.17473988048732280731201171875</LatitudeDegrees>
              <LongitudeDegrees>-1.123816072940826416015625</LongitudeDegrees>
            </Position>
            <AltitudeMeters>190</AltitudeMeters>
            <DistanceMeters>NAN</DistanceMeters>
          </Trackpoint>
          <Trackpoint>
            <Time>2020-05-25T05:32:57.000Z</Time>
            <Position>
              <LatitudeDegrees>38.17479796707630157470703125</LatitudeDegrees>
              <LongitudeDegrees>-1.123817078769207000732421875</LongitudeDegrees>
            </Position>
            <AltitudeMeters>190</AltitudeMeters>
            <DistanceMeters>NAN</DistanceMeters>
          </Trackpoint>
          <Trackpoint>
            <Time>2020-05-25T05:32:58.000Z</Time>
            <Position>
              <LatitudeDegrees>38.1748544611036777496337890625</LatitudeDegrees>
              <LongitudeDegrees>-1.12381816841661930084228515625</LongitudeDegrees>
            </Position>
            <AltitudeMeters>190.1999969482421875</AltitudeMeters>
            <DistanceMeters>NAN</DistanceMeters>
          </Trackpoint>
          <Trackpoint>
            <Time>2020-05-25T05:32:59.000Z</Time>
            <Position>
              <LatitudeDegrees>38.17490869201719760894775390625</LatitudeDegrees>
              <LongitudeDegrees>-1.12381875514984130859375</LongitudeDegrees>
            </Position>
            <AltitudeMeters>190.1999969482421875</AltitudeMeters>
            <DistanceMeters>NAN</DistanceMeters>
          </Trackpoint>
          <Trackpoint>
            <Time>2020-05-25T05:33:00.000Z</Time>
            <Position>
              <LatitudeDegrees>38.17501028068363666534423828125</LatitudeDegrees>
              <LongitudeDegrees>-1.12381984479725360870361328125</LongitudeDegrees>
            </Position>
            <AltitudeMeters>190.399993896484375</AltitudeMeters>
            <DistanceMeters>NAN</DistanceMeters>
          </Trackpoint>
          <Trackpoint>
            <Time>2020-05-25T05:33:01.000Z</Time>
            <Position>
              <LatitudeDegrees>38.17501028068363666534423828125</LatitudeDegrees>
              <LongitudeDegrees>-1.12381984479725360870361328125</LongitudeDegrees>
            </Position>
            <AltitudeMeters>190.600006103515625</AltitudeMeters>
            <DistanceMeters>NAN</DistanceMeters>
          </Trackpoint>
          <Trackpoint>
            <Time>2020-05-25T05:33:02.000Z</Time>
            <Position>
              <LatitudeDegrees>38.17510751076042652130126953125</LatitudeDegrees>
              <LongitudeDegrees>-1.12382068298757076263427734375</LongitudeDegrees>
            </Position>
            <AltitudeMeters>191.1999969482421875</AltitudeMeters>
            <DistanceMeters>NAN</DistanceMeters>
          </Trackpoint>
          <Trackpoint>
            <Time>2020-05-25T05:33:03.000Z</Time>
            <Position>
              <LatitudeDegrees>38.17510751076042652130126953125</LatitudeDegrees>
              <LongitudeDegrees>-1.12382068298757076263427734375</LongitudeDegrees>
            </Position>
            <AltitudeMeters>191.600006103515625</AltitudeMeters>
            <DistanceMeters>NAN</DistanceMeters>
          </Trackpoint>
          <Trackpoint>
            <Time>2020-05-25T05:33:04.000Z</Time>
            <Position>
              <LatitudeDegrees>38.175155706703662872314453125</LatitudeDegrees>
              <LongitudeDegrees>-1.12382210791110992431640625</LongitudeDegrees>
            </Position>
            <AltitudeMeters>191.8000030517578125</AltitudeMeters>
            <DistanceMeters>NAN</DistanceMeters>
          </Trackpoint>
          <Trackpoint>
            <Time>2020-05-25T05:33:05.000Z</Time>
            <Position>
              <LatitudeDegrees>38.17520440556108951568603515625</LatitudeDegrees>
              <LongitudeDegrees>-1.12382344901561737060546875</LongitudeDegrees>
            </Position>
            <AltitudeMeters>192.1999969482421875</AltitudeMeters>
            <DistanceMeters>NAN</DistanceMeters>
          </Trackpoint>
          <Trackpoint>
            <Time>2020-05-25T05:33:06.000Z</Time>
            <Position>
              <LatitudeDegrees>38.1752527691423892974853515625</LatitudeDegrees>
              <LongitudeDegrees>-1.123824454843997955322265625</LongitudeDegrees>
            </Position>
            <AltitudeMeters>192.8000030517578125</AltitudeMeters>
            <DistanceMeters>NAN</DistanceMeters>
          </Trackpoint>
          <Trackpoint>
            <Time>2020-05-25T05:33:07.000Z</Time>
            <Position>
              <LatitudeDegrees>38.1753003783524036407470703125</LatitudeDegrees>
              <LongitudeDegrees>-1.12382604740560054779052734375</LongitudeDegrees>
            </Position>
            <AltitudeMeters>193</AltitudeMeters>
            <DistanceMeters>NAN</DistanceMeters>
          </Trackpoint>
          <Trackpoint>
            <Time>2020-05-25T05:33:08.000Z</Time>
            <Position>
              <LatitudeDegrees>38.17534647881984710693359375</LatitudeDegrees>
              <LongitudeDegrees>-1.12382822670042514801025390625</LongitudeDegrees>
            </Position>
            <AltitudeMeters>193.399993896484375</AltitudeMeters>
            <DistanceMeters>NAN</DistanceMeters>
          </Trackpoint>
          <Trackpoint>
            <Time>2020-05-25T05:33:09.000Z</Time>
            <Position>
              <LatitudeDegrees>38.17539266310632228851318359375</LatitudeDegrees>
              <LongitudeDegrees>-1.12383208237588405609130859375</LongitudeDegrees>
            </Position>
            <AltitudeMeters>193.8000030517578125</AltitudeMeters>
            <DistanceMeters>NAN</DistanceMeters>
          </Trackpoint>
          <Trackpoint>
            <Time>2020-05-25T05:33:10.000Z</Time>
            <Position>
              <LatitudeDegrees>38.1754398532211780548095703125</LatitudeDegrees>
              <LongitudeDegrees>-1.123835183680057525634765625</LongitudeDegrees>
            </Position>
            <AltitudeMeters>194</AltitudeMeters>
            <DistanceMeters>NAN</DistanceMeters>
          </Trackpoint>
          <Trackpoint>
            <Time>2020-05-25T05:33:11.000Z</Time>
            <Position>
              <LatitudeDegrees>38.17548670805990695953369140625</LatitudeDegrees>
              <LongitudeDegrees>-1.12383660860359668731689453125</LongitudeDegrees>
            </Position>
            <AltitudeMeters>194.1999969482421875</AltitudeMeters>
            <DistanceMeters>NAN</DistanceMeters>
          </Trackpoint>
          <Trackpoint>
            <Time>2020-05-25T05:33:12.000Z</Time>
            <Position>
              <LatitudeDegrees>38.17553297616541385650634765625</LatitudeDegrees>
              <LongitudeDegrees>-1.1238363571465015411376953125</LongitudeDegrees>
            </Position>
            <AltitudeMeters>194.600006103515625</AltitudeMeters>
            <DistanceMeters>NAN</DistanceMeters>
          </Trackpoint>
          <Trackpoint>
            <Time>2020-05-25T05:33:13.000Z</Time>
            <Position>
              <LatitudeDegrees>38.175577819347381591796875</LatitudeDegrees>
              <LongitudeDegrees>-1.12383644096553325653076171875</LongitudeDegrees>
            </Position>
            <AltitudeMeters>195</AltitudeMeters>
            <DistanceMeters>NAN</DistanceMeters>
          </Trackpoint>
          <Trackpoint>
            <Time>2020-05-25T05:33:14.000Z</Time>
            <Position>
              <LatitudeDegrees>38.175621069967746734619140625</LatitudeDegrees>
              <LongitudeDegrees>-1.12383794970810413360595703125</LongitudeDegrees>
            </Position>
            <AltitudeMeters>195.1999969482421875</AltitudeMeters>
            <DistanceMeters>NAN</DistanceMeters>
          </Trackpoint>
          <Trackpoint>
            <Time>2020-05-25T05:33:15.000Z</Time>
            <Position>
              <LatitudeDegrees>38.175663650035858154296875</LatitudeDegrees>
              <LongitudeDegrees>-1.12384063191711902618408203125</LongitudeDegrees>
            </Position>
            <AltitudeMeters>195.600006103515625</AltitudeMeters>
            <DistanceMeters>NAN</DistanceMeters>
          </Trackpoint>
          <Trackpoint>
            <Time>2020-05-25T05:33:16.000Z</Time>
            <Position>
              <LatitudeDegrees>38.17570581100881099700927734375</LatitudeDegrees>
              <LongitudeDegrees>-1.12384314648807048797607421875</LongitudeDegrees>
            </Position>
            <AltitudeMeters>195.8000030517578125</AltitudeMeters>
            <DistanceMeters>NAN</DistanceMeters>
          </Trackpoint>
          <Trackpoint>
            <Time>2020-05-25T05:33:17.000Z</Time>
            <Position>
              <LatitudeDegrees>38.175747804343700408935546875</LatitudeDegrees>
              <LongitudeDegrees>-1.123845912516117095947265625</LongitudeDegrees>
            </Position>
            <AltitudeMeters>196.1999969482421875</AltitudeMeters>
            <DistanceMeters>NAN</DistanceMeters>
          </Trackpoint>
          <Trackpoint>
            <Time>2020-05-25T05:33:18.000Z</Time>
            <Position>
              <LatitudeDegrees>38.17578963004052639007568359375</LatitudeDegrees>
              <LongitudeDegrees>-1.12384767271578311920166015625</LongitudeDegrees>
            </Position>
            <AltitudeMeters>196.399993896484375</AltitudeMeters>
            <DistanceMeters>NAN</DistanceMeters>
          </Trackpoint>
          <Trackpoint>
            <Time>2020-05-25T05:33:19.000Z</Time>
            <Position>
              <LatitudeDegrees>38.17583254538476467132568359375</LatitudeDegrees>
              <LongitudeDegrees>-1.1238496005535125732421875</LongitudeDegrees>
            </Position>
            <AltitudeMeters>196.8000030517578125</AltitudeMeters>
            <DistanceMeters>NAN</DistanceMeters>
          </Trackpoint>
          <Trackpoint>
            <Time>2020-05-25T05:33:20.000Z</Time>
            <Position>
              <LatitudeDegrees>38.17587596364319324493408203125</LatitudeDegrees>
              <LongitudeDegrees>-1.12385136075317859649658203125</LongitudeDegrees>
            </Position>
            <AltitudeMeters>197</AltitudeMeters>
            <DistanceMeters>NAN</DistanceMeters>
          </Trackpoint>
          <Trackpoint>
            <Time>2020-05-25T05:33:21.000Z</Time>
            <Position>
              <LatitudeDegrees>38.1759198009967803955078125</LatitudeDegrees>
              <LongitudeDegrees>-1.12385295331478118896484375</LongitudeDegrees>
            </Position>
            <AltitudeMeters>197.399993896484375</AltitudeMeters>
            <DistanceMeters>NAN</DistanceMeters>
          </Trackpoint>
          <Trackpoint>
            <Time>2020-05-25T05:33:22.000Z</Time>
            <Position>
              <LatitudeDegrees>38.1759638898074626922607421875</LatitudeDegrees>
              <LongitudeDegrees>-1.1238547973334789276123046875</LongitudeDegrees>
            </Position>
            <AltitudeMeters>197.600006103515625</AltitudeMeters>
            <DistanceMeters>NAN</DistanceMeters>
          </Trackpoint>
          <Trackpoint>
            <Time>2020-05-25T05:33:23.000Z</Time>
            <Position>
              <LatitudeDegrees>38.17600890062749385833740234375</LatitudeDegrees>
              <LongitudeDegrees>-1.1238574795424938201904296875</LongitudeDegrees>
            </Position>
            <AltitudeMeters>197.8000030517578125</AltitudeMeters>
            <DistanceMeters>NAN</DistanceMeters>
          </Trackpoint>
          <Trackpoint>
            <Time>2020-05-25T05:33:24.000Z</Time>
            <Position>
              <LatitudeDegrees>38.17605500109493732452392578125</LatitudeDegrees>
              <LongitudeDegrees>-1.123859994113445281982421875</LongitudeDegrees>
            </Position>
            <AltitudeMeters>198.1999969482421875</AltitudeMeters>
            <DistanceMeters>NAN</DistanceMeters>
          </Trackpoint>
          <Trackpoint>
            <Time>2020-05-25T05:33:25.000Z</Time>
            <Position>
              <LatitudeDegrees>38.17610177211463451385498046875</LatitudeDegrees>
              <LongitudeDegrees>-1.12385991029441356658935546875</LongitudeDegrees>
            </Position>
            <AltitudeMeters>198.399993896484375</AltitudeMeters>
            <DistanceMeters>NAN</DistanceMeters>
          </Trackpoint>
          <Trackpoint>
            <Time>2020-05-25T05:33:26.000Z</Time>
            <Position>
              <LatitudeDegrees>38.17614703439176082611083984375</LatitudeDegrees>
              <LongitudeDegrees>-1.12385965883731842041015625</LongitudeDegrees>
            </Position>
            <AltitudeMeters>198.8000030517578125</AltitudeMeters>
            <DistanceMeters>NAN</DistanceMeters>
          </Trackpoint>
          <Trackpoint>
            <Time>2020-05-25T05:33:27.000Z</Time>
            <Position>
              <LatitudeDegrees>38.1761942245066165924072265625</LatitudeDegrees>
              <LongitudeDegrees>-1.1238608323037624359130859375</LongitudeDegrees>
            </Position>
            <AltitudeMeters>198.8000030517578125</AltitudeMeters>
            <DistanceMeters>NAN</DistanceMeters>
          </Trackpoint>
          <Trackpoint>
            <Time>2020-05-25T05:33:28.000Z</Time>
            <Position>
              <LatitudeDegrees>38.17624225281178951263427734375</LatitudeDegrees>
              <LongitudeDegrees>-1.1238628439605236053466796875</LongitudeDegrees>
            </Position>
            <AltitudeMeters>199</AltitudeMeters>
            <DistanceMeters>NAN</DistanceMeters>
          </Trackpoint>
          <Trackpoint>
            <Time>2020-05-25T05:33:29.000Z</Time>
            <Position>
              <LatitudeDegrees>38.17629187367856502532958984375</LatitudeDegrees>
              <LongitudeDegrees>-1.1238628439605236053466796875</LongitudeDegrees>
            </Position>
            <AltitudeMeters>199.399993896484375</AltitudeMeters>
            <DistanceMeters>NAN</DistanceMeters>
          </Trackpoint>
          <Trackpoint>
            <Time>2020-05-25T05:33:30.000Z</Time>
            <Position>
              <LatitudeDegrees>38.17639497108757495880126953125</LatitudeDegrees>
              <LongitudeDegrees>-1.12385991029441356658935546875</LongitudeDegrees>
            </Position>
            <AltitudeMeters>199.8000030517578125</AltitudeMeters>
            <DistanceMeters>NAN</DistanceMeters>
          </Trackpoint>
          <Trackpoint>
            <Time>2020-05-25T05:33:31.000Z</Time>
            <Position>
              <LatitudeDegrees>38.17639497108757495880126953125</LatitudeDegrees>
              <LongitudeDegrees>-1.12385991029441356658935546875</LongitudeDegrees>
            </Position>
            <AltitudeMeters>200</AltitudeMeters>
            <DistanceMeters>NAN</DistanceMeters>
          </Trackpoint>
          <Trackpoint>
            <Time>2020-05-25T05:33:32.000Z</Time>
            <Position>
              <LatitudeDegrees>38.1764490343630313873291015625</LatitudeDegrees>
              <LongitudeDegrees>-1.12386141903698444366455078125</LongitudeDegrees>
            </Position>
            <AltitudeMeters>200.1999969482421875</AltitudeMeters>
            <DistanceMeters>NAN</DistanceMeters>
          </Trackpoint>
          <Trackpoint>
            <Time>2020-05-25T05:33:33.000Z</Time>
            <Position>
              <LatitudeDegrees>38.176503516733646392822265625</LatitudeDegrees>
              <LongitudeDegrees>-1.12386175431311130523681640625</LongitudeDegrees>
            </Position>
            <AltitudeMeters>200.1999969482421875</AltitudeMeters>
            <DistanceMeters>NAN</DistanceMeters>
          </Trackpoint>
          <Trackpoint>
            <Time>2020-05-25T05:33:34.000Z</Time>
            <Position>
              <LatitudeDegrees>38.176557831466197967529296875</LatitudeDegrees>
              <LongitudeDegrees>-1.123860664665699005126953125</LongitudeDegrees>
            </Position>
            <AltitudeMeters>200.399993896484375</AltitudeMeters>
            <DistanceMeters>NAN</DistanceMeters>
          </Trackpoint>
          <Trackpoint>
            <Time>2020-05-25T05:33:35.000Z</Time>
            <Position>
              <LatitudeDegrees>38.17661273293197154998779296875</LatitudeDegrees>
              <LongitudeDegrees>-1.12386058084666728973388671875</LongitudeDegrees>
            </Position>
            <AltitudeMeters>200.399993896484375</AltitudeMeters>
            <DistanceMeters>NAN</DistanceMeters>
          </Trackpoint>
          <Trackpoint>
            <Time>2020-05-25T05:33:36.000Z</Time>
            <Position>
              <LatitudeDegrees>38.17666746675968170166015625</LatitudeDegrees>
              <LongitudeDegrees>-1.12386234104633331298828125</LongitudeDegrees>
            </Position>
            <AltitudeMeters>200.399993896484375</AltitudeMeters>
            <DistanceMeters>NAN</DistanceMeters>
          </Trackpoint>
          <Trackpoint>
            <Time>2020-05-25T05:33:37.000Z</Time>
            <Position>
              <LatitudeDegrees>38.176722116768360137939453125</LatitudeDegrees>
              <LongitudeDegrees>-1.1238655261695384979248046875</LongitudeDegrees>
            </Position>
            <AltitudeMeters>200.399993896484375</AltitudeMeters>
            <DistanceMeters>NAN</DistanceMeters>
          </Trackpoint>
          <Trackpoint>
            <Time>2020-05-25T05:33:38.000Z</Time>
            <Position>
              <LatitudeDegrees>38.17677685059607028961181640625</LatitudeDegrees>
              <LongitudeDegrees>-1.12386879511177539825439453125</LongitudeDegrees>
            </Position>
            <AltitudeMeters>200.600006103515625</AltitudeMeters>
            <DistanceMeters>NAN</DistanceMeters>
          </Trackpoint>
          <Trackpoint>
            <Time>2020-05-25T05:33:39.000Z</Time>
            <Position>
              <LatitudeDegrees>38.17683200351893901824951171875</LatitudeDegrees>
              <LongitudeDegrees>-1.12386996857821941375732421875</LongitudeDegrees>
            </Position>
            <AltitudeMeters>200.600006103515625</AltitudeMeters>
            <DistanceMeters>NAN</DistanceMeters>
          </Trackpoint>
          <Trackpoint>
            <Time>2020-05-25T05:33:40.000Z</Time>
            <Position>
              <LatitudeDegrees>38.1768869049847126007080078125</LatitudeDegrees>
              <LongitudeDegrees>-1.12386980094015598297119140625</LongitudeDegrees>
            </Position>
            <AltitudeMeters>200.600006103515625</AltitudeMeters>
            <DistanceMeters>NAN</DistanceMeters>
          </Trackpoint>
          <Trackpoint>
            <Time>2020-05-25T05:33:41.000Z</Time>
            <Position>
              <LatitudeDegrees>38.1769415549933910369873046875</LatitudeDegrees>
              <LongitudeDegrees>-1.12387038767337799072265625</LongitudeDegrees>
            </Position>
            <AltitudeMeters>200.600006103515625</AltitudeMeters>
            <DistanceMeters>NAN</DistanceMeters>
          </Trackpoint>
          <Trackpoint>
            <Time>2020-05-25T05:33:42.000Z</Time>
            <Position>
              <LatitudeDegrees>38.17705127410590648651123046875</LatitudeDegrees>
              <LongitudeDegrees>-1.1238718964159488677978515625</LongitudeDegrees>
            </Position>
            <AltitudeMeters>200.600006103515625</AltitudeMeters>
            <DistanceMeters>NAN</DistanceMeters>
          </Trackpoint>
          <Trackpoint>
            <Time>2020-05-25T05:33:43.000Z</Time>
            <Position>
              <LatitudeDegrees>38.17705127410590648651123046875</LatitudeDegrees>
              <LongitudeDegrees>-1.1238718964159488677978515625</LongitudeDegrees>
            </Position>
            <AltitudeMeters>200.600006103515625</AltitudeMeters>
            <DistanceMeters>NAN</DistanceMeters>
          </Trackpoint>
          <Trackpoint>
            <Time>2020-05-25T05:33:44.000Z</Time>
            <Position>
              <LatitudeDegrees>38.1771061755716800689697265625</LatitudeDegrees>
              <LongitudeDegrees>-1.1238722316920757293701171875</LongitudeDegrees>
            </Position>
            <AltitudeMeters>200.8000030517578125</AltitudeMeters>
            <DistanceMeters>NAN</DistanceMeters>
          </Trackpoint>
          <Trackpoint>
            <Time>2020-05-25T05:33:45.000Z</Time>
            <Position>
              <LatitudeDegrees>38.1771608255803585052490234375</LatitudeDegrees>
              <LongitudeDegrees>-1.12387231551110744476318359375</LongitudeDegrees>
            </Position>
            <AltitudeMeters>200.8000030517578125</AltitudeMeters>
            <DistanceMeters>NAN</DistanceMeters>
          </Trackpoint>
          <Trackpoint>
            <Time>2020-05-25T05:33:46.000Z</Time>
            <Position>
              <LatitudeDegrees>38.17721405066549777984619140625</LatitudeDegrees>
              <LongitudeDegrees>-1.1238735727965831756591796875</LongitudeDegrees>
            </Position>
            <AltitudeMeters>200.8000030517578125</AltitudeMeters>
            <DistanceMeters>NAN</DistanceMeters>
          </Trackpoint>
          <Trackpoint>
            <Time>2020-05-25T05:33:47.000Z</Time>
            <Position>
              <LatitudeDegrees>38.17726484499871730804443359375</LatitudeDegrees>
              <LongitudeDegrees>-1.1238759197294712066650390625</LongitudeDegrees>
            </Position>
            <AltitudeMeters>201</AltitudeMeters>
            <DistanceMeters>NAN</DistanceMeters>
          </Trackpoint>
          <Trackpoint>
            <Time>2020-05-25T05:33:48.000Z</Time>
            <Position>
              <LatitudeDegrees>38.17731379531323909759521484375</LatitudeDegrees>
              <LongitudeDegrees>-1.12387851811945438385009765625</LongitudeDegrees>
            </Position>
            <AltitudeMeters>201</AltitudeMeters>
            <DistanceMeters>NAN</DistanceMeters>
          </Trackpoint>
          <Trackpoint>
            <Time>2020-05-25T05:33:49.000Z</Time>
            <Position>
              <LatitudeDegrees>38.17736215889453887939453125</LatitudeDegrees>
              <LongitudeDegrees>-1.12388312816619873046875</LongitudeDegrees>
            </Position>
            <AltitudeMeters>201</AltitudeMeters>
            <DistanceMeters>NAN</DistanceMeters>
          </Trackpoint>
          <Trackpoint>
            <Time>2020-05-25T05:33:50.000Z</Time>
            <Position>
              <LatitudeDegrees>38.1774102710187435150146484375</LatitudeDegrees>
              <LongitudeDegrees>-1.123891174793243408203125</LongitudeDegrees>
            </Position>
            <AltitudeMeters>201</AltitudeMeters>
            <DistanceMeters>NAN</DistanceMeters>
          </Trackpoint>
          <Trackpoint>
            <Time>2020-05-25T05:33:51.000Z</Time>
            <Position>
              <LatitudeDegrees>38.1774582155048847198486328125</LatitudeDegrees>
              <LongitudeDegrees>-1.1239017359912395477294921875</LongitudeDegrees>
            </Position>
            <AltitudeMeters>201</AltitudeMeters>
            <DistanceMeters>NAN</DistanceMeters>
          </Trackpoint>
          <Trackpoint>
            <Time>2020-05-25T05:33:52.000Z</Time>
            <Position>
              <LatitudeDegrees>38.17750523798167705535888671875</LatitudeDegrees>
              <LongitudeDegrees>-1.1239144764840602874755859375</LongitudeDegrees>
            </Position>
            <AltitudeMeters>201.1999969482421875</AltitudeMeters>
            <DistanceMeters>NAN</DistanceMeters>
          </Trackpoint>
          <Trackpoint>
            <Time>2020-05-25T05:33:53.000Z</Time>
            <Position>
              <LatitudeDegrees>38.1775520928204059600830078125</LatitudeDegrees>
              <LongitudeDegrees>-1.1239292286336421966552734375</LongitudeDegrees>
            </Position>
            <AltitudeMeters>201.399993896484375</AltitudeMeters>
            <DistanceMeters>NAN</DistanceMeters>
          </Trackpoint>
          <Trackpoint>
            <Time>2020-05-25T05:33:54.000Z</Time>
            <Position>
              <LatitudeDegrees>38.1775993667542934417724609375</LatitudeDegrees>
              <LongitudeDegrees>-1.12394641153514385223388671875</LongitudeDegrees>
            </Position>
            <AltitudeMeters>201.600006103515625</AltitudeMeters>
            <DistanceMeters>NAN</DistanceMeters>
          </Trackpoint>
          <Trackpoint>
            <Time>2020-05-25T05:33:55.000Z</Time>
            <Position>
              <LatitudeDegrees>38.177646808326244354248046875</LatitudeDegrees>
              <LongitudeDegrees>-1.12396686337888240814208984375</LongitudeDegrees>
            </Position>
            <AltitudeMeters>201.600006103515625</AltitudeMeters>
            <DistanceMeters>NAN</DistanceMeters>
          </Trackpoint>
          <Trackpoint>
            <Time>2020-05-25T05:33:56.000Z</Time>
            <Position>
              <LatitudeDegrees>38.1776955910027027130126953125</LatitudeDegrees>
              <LongitudeDegrees>-1.1239899136126041412353515625</LongitudeDegrees>
            </Position>
            <AltitudeMeters>202</AltitudeMeters>
            <DistanceMeters>NAN</DistanceMeters>
          </Trackpoint>
          <Trackpoint>
            <Time>2020-05-25T05:33:57.000Z</Time>
            <Position>
              <LatitudeDegrees>38.17774311639368534088134765625</LatitudeDegrees>
              <LongitudeDegrees>-1.12401866354048252105712890625</LongitudeDegrees>
            </Position>
            <AltitudeMeters>202.399993896484375</AltitudeMeters>
            <DistanceMeters>NAN</DistanceMeters>
          </Trackpoint>
          <Trackpoint>
            <Time>2020-05-25T05:33:58.000Z</Time>
            <Position>
              <LatitudeDegrees>38.17778670229017734527587890625</LatitudeDegrees>
              <LongitudeDegrees>-1.124054454267024993896484375</LongitudeDegrees>
            </Position>
            <AltitudeMeters>202.600006103515625</AltitudeMeters>
            <DistanceMeters>NAN</DistanceMeters>
          </Trackpoint>
          <Trackpoint>
            <Time>2020-05-25T05:33:59.000Z</Time>
            <Position>
              <LatitudeDegrees>38.17782861180603504180908203125</LatitudeDegrees>
              <LongitudeDegrees>-1.124095022678375244140625</LongitudeDegrees>
            </Position>
            <AltitudeMeters>203.399993896484375</AltitudeMeters>
            <DistanceMeters>NAN</DistanceMeters>
          </Trackpoint>
          <Trackpoint>
            <Time>2020-05-25T05:34:00.000Z</Time>
            <Position>
              <LatitudeDegrees>38.17786918021738529205322265625</LatitudeDegrees>
              <LongitudeDegrees>-1.124140284955501556396484375</LongitudeDegrees>
            </Position>
            <AltitudeMeters>203.600006103515625</AltitudeMeters>
            <DistanceMeters>NAN</DistanceMeters>
          </Trackpoint>
          <Trackpoint>
            <Time>2020-05-25T05:34:01.000Z</Time>
            <Position>
              <LatitudeDegrees>38.17790907807648181915283203125</LatitudeDegrees>
              <LongitudeDegrees>-1.12418864853680133819580078125</LongitudeDegrees>
            </Position>
            <AltitudeMeters>203.8000030517578125</AltitudeMeters>
            <DistanceMeters>NAN</DistanceMeters>
          </Trackpoint>
          <Trackpoint>
            <Time>2020-05-25T05:34:02.000Z</Time>
            <Position>
              <LatitudeDegrees>38.177948892116546630859375</LatitudeDegrees>
              <LongitudeDegrees>-1.12424011342227458953857421875</LongitudeDegrees>
            </Position>
            <AltitudeMeters>204</AltitudeMeters>
            <DistanceMeters>NAN</DistanceMeters>
          </Trackpoint>
          <Trackpoint>
            <Time>2020-05-25T05:34:03.000Z</Time>
            <Position>
              <LatitudeDegrees>38.177986107766628265380859375</LatitudeDegrees>
              <LongitudeDegrees>-1.1242943443357944488525390625</LongitudeDegrees>
            </Position>
            <AltitudeMeters>204</AltitudeMeters>
            <DistanceMeters>NAN</DistanceMeters>
          </Trackpoint>
          <Trackpoint>
            <Time>2020-05-25T05:34:04.000Z</Time>
            <Position>
              <LatitudeDegrees>38.1780211441218852996826171875</LatitudeDegrees>
              <LongitudeDegrees>-1.12434991635382175445556640625</LongitudeDegrees>
            </Position>
            <AltitudeMeters>204</AltitudeMeters>
            <DistanceMeters>NAN</DistanceMeters>
          </Trackpoint>
          <Trackpoint>
            <Time>2020-05-25T05:34:05.000Z</Time>
            <Position>
              <LatitudeDegrees>38.17805525846779346466064453125</LatitudeDegrees>
              <LongitudeDegrees>-1.12440682947635650634765625</LongitudeDegrees>
            </Position>
            <AltitudeMeters>204.1999969482421875</AltitudeMeters>
            <DistanceMeters>NAN</DistanceMeters>
          </Trackpoint>
          <Trackpoint>
            <Time>2020-05-25T05:34:06.000Z</Time>
            <Position>
              <LatitudeDegrees>38.1780888698995113372802734375</LatitudeDegrees>
              <LongitudeDegrees>-1.12446525134146213531494140625</LongitudeDegrees>
            </Position>
            <AltitudeMeters>204.1999969482421875</AltitudeMeters>
            <DistanceMeters>NAN</DistanceMeters>
          </Trackpoint>
          <Trackpoint>
            <Time>2020-05-25T05:34:07.000Z</Time>
            <Position>
              <LatitudeDegrees>38.178122229874134063720703125</LatitudeDegrees>
              <LongitudeDegrees>-1.1245246790349483489990234375</LongitudeDegrees>
            </Position>
            <AltitudeMeters>204.399993896484375</AltitudeMeters>
            <DistanceMeters>NAN</DistanceMeters>
          </Trackpoint>
          <Trackpoint>
            <Time>2020-05-25T05:34:08.000Z</Time>
            <Position>
              <LatitudeDegrees>38.1781562604010105133056640625</LatitudeDegrees>
              <LongitudeDegrees>-1.12458460964262485504150390625</LongitudeDegrees>
            </Position>
            <AltitudeMeters>204.600006103515625</AltitudeMeters>
            <DistanceMeters>NAN</DistanceMeters>
          </Trackpoint>
          <Trackpoint>
            <Time>2020-05-25T05:34:09.000Z</Time>
            <Position>
              <LatitudeDegrees>38.17819096148014068603515625</LatitudeDegrees>
              <LongitudeDegrees>-1.12464487552642822265625</LongitudeDegrees>
            </Position>
            <AltitudeMeters>204.600006103515625</AltitudeMeters>
            <DistanceMeters>NAN</DistanceMeters>
          </Trackpoint>
          <Trackpoint>
            <Time>2020-05-25T05:34:10.000Z</Time>
            <Position>
              <LatitudeDegrees>38.17822574637830257415771484375</LatitudeDegrees>
              <LongitudeDegrees>-1.124705560505390167236328125</LongitudeDegrees>
            </Position>
            <AltitudeMeters>204.8000030517578125</AltitudeMeters>
            <DistanceMeters>NAN</DistanceMeters>
          </Trackpoint>
          <Trackpoint>
            <Time>2020-05-25T05:34:11.000Z</Time>
            <Position>
              <LatitudeDegrees>38.17826078273355960845947265625</LatitudeDegrees>
              <LongitudeDegrees>-1.12476699985563755035400390625</LongitudeDegrees>
            </Position>
            <AltitudeMeters>204.8000030517578125</AltitudeMeters>
            <DistanceMeters>NAN</DistanceMeters>
          </Trackpoint>
          <Trackpoint>
            <Time>2020-05-25T05:34:12.000Z</Time>
            <Position>
              <LatitudeDegrees>38.17833119072020053863525390625</LatitudeDegrees>
              <LongitudeDegrees>-1.124889291822910308837890625</LongitudeDegrees>
            </Position>
            <AltitudeMeters>204.8000030517578125</AltitudeMeters>
            <DistanceMeters>NAN</DistanceMeters>
          </Trackpoint>
          <Trackpoint>
            <Time>2020-05-25T05:34:13.000Z</Time>
            <Position>
              <LatitudeDegrees>38.17833119072020053863525390625</LatitudeDegrees>
              <LongitudeDegrees>-1.124889291822910308837890625</LongitudeDegrees>
            </Position>
            <AltitudeMeters>204.8000030517578125</AltitudeMeters>
            <DistanceMeters>NAN</DistanceMeters>
          </Trackpoint>
          <Trackpoint>
            <Time>2020-05-25T05:34:14.000Z</Time>
            <Position>
              <LatitudeDegrees>38.17836689762771129608154296875</LatitudeDegrees>
              <LongitudeDegrees>-1.12495006062090396881103515625</LongitudeDegrees>
            </Position>
            <AltitudeMeters>205</AltitudeMeters>
            <DistanceMeters>NAN</DistanceMeters>
          </Trackpoint>
          <Trackpoint>
            <Time>2020-05-25T05:34:15.000Z</Time>
            <Position>
              <LatitudeDegrees>38.17840377800166606903076171875</LatitudeDegrees>
              <LongitudeDegrees>-1.12500823102891445159912109375</LongitudeDegrees>
            </Position>
            <AltitudeMeters>205</AltitudeMeters>
            <DistanceMeters>NAN</DistanceMeters>
          </Trackpoint>
          <Trackpoint>
            <Time>2020-05-25T05:34:16.000Z</Time>
            <Position>
              <LatitudeDegrees>38.17844065837562084197998046875</LatitudeDegrees>
              <LongitudeDegrees>-1.12506388686597347259521484375</LongitudeDegrees>
            </Position>
            <AltitudeMeters>205</AltitudeMeters>
            <DistanceMeters>NAN</DistanceMeters>
          </Trackpoint>
          <Trackpoint>
            <Time>2020-05-25T05:34:17.000Z</Time>
            <Position>
              <LatitudeDegrees>38.17847586236894130706787109375</LatitudeDegrees>
              <LongitudeDegrees>-1.12511887215077877044677734375</LongitudeDegrees>
            </Position>
            <AltitudeMeters>205.1999969482421875</AltitudeMeters>
            <DistanceMeters>NAN</DistanceMeters>
          </Trackpoint>
          <Trackpoint>
            <Time>2020-05-25T05:34:18.000Z</Time>
            <Position>
              <LatitudeDegrees>38.17854392342269420623779296875</LatitudeDegrees>
              <LongitudeDegrees>-1.12523269839584827423095703125</LongitudeDegrees>
            </Position>
            <AltitudeMeters>205.1999969482421875</AltitudeMeters>
            <DistanceMeters>NAN</DistanceMeters>
          </Trackpoint>
          <Trackpoint>
            <Time>2020-05-25T05:34:19.000Z</Time>
            <Position>
              <LatitudeDegrees>38.17854392342269420623779296875</LatitudeDegrees>
              <LongitudeDegrees>-1.12523269839584827423095703125</LongitudeDegrees>
            </Position>
            <AltitudeMeters>205.399993896484375</AltitudeMeters>
            <DistanceMeters>NAN</DistanceMeters>
          </Trackpoint>
          <Trackpoint>
            <Time>2020-05-25T05:34:20.000Z</Time>
            <Position>
              <LatitudeDegrees>38.17857719957828521728515625</LatitudeDegrees>
              <LongitudeDegrees>-1.1252911202609539031982421875</LongitudeDegrees>
            </Position>
            <AltitudeMeters>205.399993896484375</AltitudeMeters>
            <DistanceMeters>NAN</DistanceMeters>
          </Trackpoint>
          <Trackpoint>
            <Time>2020-05-25T05:34:21.000Z</Time>
            <Position>
              <LatitudeDegrees>38.17861047573387622833251953125</LatitudeDegrees>
              <LongitudeDegrees>-1.12535038031637668609619140625</LongitudeDegrees>
            </Position>
            <AltitudeMeters>205.600006103515625</AltitudeMeters>
            <DistanceMeters>NAN</DistanceMeters>
          </Trackpoint>
          <Trackpoint>
            <Time>2020-05-25T05:34:22.000Z</Time>
            <Position>
              <LatitudeDegrees>38.17864500917494297027587890625</LatitudeDegrees>
              <LongitudeDegrees>-1.125408299267292022705078125</LongitudeDegrees>
            </Position>
            <AltitudeMeters>205.600006103515625</AltitudeMeters>
            <DistanceMeters>NAN</DistanceMeters>
          </Trackpoint>
          <Trackpoint>
            <Time>2020-05-25T05:34:23.000Z</Time>
            <Position>
              <LatitudeDegrees>38.1786799617111682891845703125</LatitudeDegrees>
              <LongitudeDegrees>-1.1254661343991756439208984375</LongitudeDegrees>
            </Position>
            <AltitudeMeters>205.600006103515625</AltitudeMeters>
            <DistanceMeters>NAN</DistanceMeters>
          </Trackpoint>
          <Trackpoint>
            <Time>2020-05-25T05:34:24.000Z</Time>
            <Position>
              <LatitudeDegrees>38.17871390841901302337646484375</LatitudeDegrees>
              <LongitudeDegrees>-1.12552321515977382659912109375</LongitudeDegrees>
            </Position>
            <AltitudeMeters>205.8000030517578125</AltitudeMeters>
            <DistanceMeters>NAN</DistanceMeters>
          </Trackpoint>
          <Trackpoint>
            <Time>2020-05-25T05:34:25.000Z</Time>
            <Position>
              <LatitudeDegrees>38.17874626256525516510009765625</LatitudeDegrees>
              <LongitudeDegrees>-1.1255818046629428863525390625</LongitudeDegrees>
            </Position>
            <AltitudeMeters>205.8000030517578125</AltitudeMeters>
            <DistanceMeters>NAN</DistanceMeters>
          </Trackpoint>
          <Trackpoint>
            <Time>2020-05-25T05:34:26.000Z</Time>
            <Position>
              <LatitudeDegrees>38.178779371082782745361328125</LatitudeDegrees>
              <LongitudeDegrees>-1.12563838250935077667236328125</LongitudeDegrees>
            </Position>
            <AltitudeMeters>206</AltitudeMeters>
            <DistanceMeters>NAN</DistanceMeters>
          </Trackpoint>
          <Trackpoint>
            <Time>2020-05-25T05:34:27.000Z</Time>
            <Position>
              <LatitudeDegrees>38.178812563419342041015625</LatitudeDegrees>
              <LongitudeDegrees>-1.12569353543221950531005859375</LongitudeDegrees>
            </Position>
            <AltitudeMeters>206.399993896484375</AltitudeMeters>
            <DistanceMeters>NAN</DistanceMeters>
          </Trackpoint>
          <Trackpoint>
            <Time>2020-05-25T05:34:28.000Z</Time>
            <Position>
              <LatitudeDegrees>38.1788459233939647674560546875</LatitudeDegrees>
              <LongitudeDegrees>-1.12574768252670764923095703125</LongitudeDegrees>
            </Position>
            <AltitudeMeters>206.399993896484375</AltitudeMeters>
            <DistanceMeters>NAN</DistanceMeters>
          </Trackpoint>
          <Trackpoint>
            <Time>2020-05-25T05:34:29.000Z</Time>
            <Position>
              <LatitudeDegrees>38.1788787804543972015380859375</LatitudeDegrees>
              <LongitudeDegrees>-1.12580233253538608551025390625</LongitudeDegrees>
            </Position>
            <AltitudeMeters>206.600006103515625</AltitudeMeters>
            <DistanceMeters>NAN</DistanceMeters>
          </Trackpoint>
          <Trackpoint>
            <Time>2020-05-25T05:34:30.000Z</Time>
            <Position>
              <LatitudeDegrees>38.1789431534707546234130859375</LatitudeDegrees>
              <LongitudeDegrees>-1.12591381184756755828857421875</LongitudeDegrees>
            </Position>
            <AltitudeMeters>206.8000030517578125</AltitudeMeters>
            <DistanceMeters>NAN</DistanceMeters>
          </Trackpoint>
          <Trackpoint>
            <Time>2020-05-25T05:34:31.000Z</Time>
            <Position>
              <LatitudeDegrees>38.1789746694266796112060546875</LatitudeDegrees>
              <LongitudeDegrees>-1.12596963532269001007080078125</LongitudeDegrees>
            </Position>
            <AltitudeMeters>206.8000030517578125</AltitudeMeters>
            <DistanceMeters>NAN</DistanceMeters>
          </Trackpoint>
          <Trackpoint>
            <Time>2020-05-25T05:34:32.000Z</Time>
            <Position>
              <LatitudeDegrees>38.179006017744541168212890625</LatitudeDegrees>
              <LongitudeDegrees>-1.12602545879781246185302734375</LongitudeDegrees>
            </Position>
            <AltitudeMeters>207</AltitudeMeters>
            <DistanceMeters>NAN</DistanceMeters>
          </Trackpoint>
          <Trackpoint>
            <Time>2020-05-25T05:34:33.000Z</Time>
            <Position>
              <LatitudeDegrees>38.179006017744541168212890625</LatitudeDegrees>
              <LongitudeDegrees>-1.12602545879781246185302734375</LongitudeDegrees>
            </Position>
            <AltitudeMeters>207.1999969482421875</AltitudeMeters>
            <DistanceMeters>NAN</DistanceMeters>
          </Trackpoint>
          <Trackpoint>
            <Time>2020-05-25T05:34:34.000Z</Time>
            <Position>
              <LatitudeDegrees>38.179037868976593017578125</LatitudeDegrees>
              <LongitudeDegrees>-1.12608077935874462127685546875</LongitudeDegrees>
            </Position>
            <AltitudeMeters>207.600006103515625</AltitudeMeters>
            <DistanceMeters>NAN</DistanceMeters>
          </Trackpoint>
          <Trackpoint>
            <Time>2020-05-25T05:34:35.000Z</Time>
            <Position>
              <LatitudeDegrees>38.17907148040831089019775390625</LatitudeDegrees>
              <LongitudeDegrees>-1.1261360161006450653076171875</LongitudeDegrees>
            </Position>
            <AltitudeMeters>207.8000030517578125</AltitudeMeters>
            <DistanceMeters>NAN</DistanceMeters>
          </Trackpoint>
          <Trackpoint>
            <Time>2020-05-25T05:34:36.000Z</Time>
            <Position>
              <LatitudeDegrees>38.179105930030345916748046875</LatitudeDegrees>
              <LongitudeDegrees>-1.12619175575673580169677734375</LongitudeDegrees>
            </Position>
            <AltitudeMeters>208</AltitudeMeters>
            <DistanceMeters>NAN</DistanceMeters>
          </Trackpoint>
          <Trackpoint>
            <Time>2020-05-25T05:34:37.000Z</Time>
            <Position>
              <LatitudeDegrees>38.1791399605572223663330078125</LatitudeDegrees>
              <LongitudeDegrees>-1.12624791450798511505126953125</LongitudeDegrees>
            </Position>
            <AltitudeMeters>208.1999969482421875</AltitudeMeters>
            <DistanceMeters>NAN</DistanceMeters>
          </Trackpoint>
          <Trackpoint>
            <Time>2020-05-25T05:34:38.000Z</Time>
            <Position>
              <LatitudeDegrees>38.179173655807971954345703125</LatitudeDegrees>
              <LongitudeDegrees>-1.12630910240113735198974609375</LongitudeDegrees>
            </Position>
            <AltitudeMeters>208.399993896484375</AltitudeMeters>
            <DistanceMeters>NAN</DistanceMeters>
          </Trackpoint>
          <Trackpoint>
            <Time>2020-05-25T05:34:39.000Z</Time>
            <Position>
              <LatitudeDegrees>38.17920726723968982696533203125</LatitudeDegrees>
              <LongitudeDegrees>-1.12636894918978214263916015625</LongitudeDegrees>
            </Position>
            <AltitudeMeters>208.600006103515625</AltitudeMeters>
            <DistanceMeters>NAN</DistanceMeters>
          </Trackpoint>
          <Trackpoint>
            <Time>2020-05-25T05:34:40.000Z</Time>
            <Position>
              <LatitudeDegrees>38.17924238741397857666015625</LatitudeDegrees>
              <LongitudeDegrees>-1.1264287121593952178955078125</LongitudeDegrees>
            </Position>
            <AltitudeMeters>208.8000030517578125</AltitudeMeters>
            <DistanceMeters>NAN</DistanceMeters>
          </Trackpoint>
          <Trackpoint>
            <Time>2020-05-25T05:34:41.000Z</Time>
            <Position>
              <LatitudeDegrees>38.17927784286439418792724609375</LatitudeDegrees>
              <LongitudeDegrees>-1.12648780457675457000732421875</LongitudeDegrees>
            </Position>
            <AltitudeMeters>208.8000030517578125</AltitudeMeters>
            <DistanceMeters>NAN</DistanceMeters>
          </Trackpoint>
          <Trackpoint>
            <Time>2020-05-25T05:34:42.000Z</Time>
            <Position>
              <LatitudeDegrees>38.1793476641178131103515625</LatitudeDegrees>
              <LongitudeDegrees>-1.12660900689661502838134765625</LongitudeDegrees>
            </Position>
            <AltitudeMeters>209</AltitudeMeters>
            <DistanceMeters>NAN</DistanceMeters>
          </Trackpoint>
          <Trackpoint>
            <Time>2020-05-25T05:34:43.000Z</Time>
            <Position>
              <LatitudeDegrees>38.1793476641178131103515625</LatitudeDegrees>
              <LongitudeDegrees>-1.12660900689661502838134765625</LongitudeDegrees>
            </Position>
            <AltitudeMeters>209</AltitudeMeters>
            <DistanceMeters>NAN</DistanceMeters>
          </Trackpoint>
          <Trackpoint>
            <Time>2020-05-25T05:34:44.000Z</Time>
            <Position>
              <LatitudeDegrees>38.179419077932834625244140625</LatitudeDegrees>
              <LongitudeDegrees>-1.12672903575003147125244140625</LongitudeDegrees>
            </Position>
            <AltitudeMeters>209.1999969482421875</AltitudeMeters>
            <DistanceMeters>NAN</DistanceMeters>
          </Trackpoint>
          <Trackpoint>
            <Time>2020-05-25T05:34:45.000Z</Time>
            <Position>
              <LatitudeDegrees>38.179419077932834625244140625</LatitudeDegrees>
              <LongitudeDegrees>-1.12672903575003147125244140625</LongitudeDegrees>
            </Position>
            <AltitudeMeters>209.399993896484375</AltitudeMeters>
            <DistanceMeters>NAN</DistanceMeters>
          </Trackpoint>
          <Trackpoint>
            <Time>2020-05-25T05:34:46.000Z</Time>
            <Position>
              <LatitudeDegrees>38.179455287754535675048828125</LatitudeDegrees>
              <LongitudeDegrees>-1.1267884634435176849365234375</LongitudeDegrees>
            </Position>
            <AltitudeMeters>209.399993896484375</AltitudeMeters>
            <DistanceMeters>NAN</DistanceMeters>
          </Trackpoint>
          <Trackpoint>
            <Time>2020-05-25T05:34:47.000Z</Time>
            <Position>
              <LatitudeDegrees>38.17949074320495128631591796875</LatitudeDegrees>
              <LongitudeDegrees>-1.12684738822281360626220703125</LongitudeDegrees>
            </Position>
            <AltitudeMeters>209.399993896484375</AltitudeMeters>
            <DistanceMeters>NAN</DistanceMeters>
          </Trackpoint>
          <Trackpoint>
            <Time>2020-05-25T05:34:48.000Z</Time>
            <Position>
              <LatitudeDegrees>38.17956165410578250885009765625</LatitudeDegrees>
              <LongitudeDegrees>-1.12696406431496143341064453125</LongitudeDegrees>
            </Position>
            <AltitudeMeters>209.399993896484375</AltitudeMeters>
            <DistanceMeters>NAN</DistanceMeters>
          </Trackpoint>
          <Trackpoint>
            <Time>2020-05-25T05:34:49.000Z</Time>
            <Position>
              <LatitudeDegrees>38.17959652282297611236572265625</LatitudeDegrees>
              <LongitudeDegrees>-1.127023659646511077880859375</LongitudeDegrees>
            </Position>
            <AltitudeMeters>209.399993896484375</AltitudeMeters>
            <DistanceMeters>NAN</DistanceMeters>
          </Trackpoint>
          <Trackpoint>
            <Time>2020-05-25T05:34:50.000Z</Time>
            <Position>
              <LatitudeDegrees>38.17963130772113800048828125</LatitudeDegrees>
              <LongitudeDegrees>-1.127083338797092437744140625</LongitudeDegrees>
            </Position>
            <AltitudeMeters>209.600006103515625</AltitudeMeters>
            <DistanceMeters>NAN</DistanceMeters>
          </Trackpoint>
          <Trackpoint>
            <Time>2020-05-25T05:34:51.000Z</Time>
            <Position>
              <LatitudeDegrees>38.1796666793525218963623046875</LatitudeDegrees>
              <LongitudeDegrees>-1.12714243121445178985595703125</LongitudeDegrees>
            </Position>
            <AltitudeMeters>209.600006103515625</AltitudeMeters>
            <DistanceMeters>NAN</DistanceMeters>
          </Trackpoint>
          <Trackpoint>
            <Time>2020-05-25T05:34:52.000Z</Time>
            <Position>
              <LatitudeDegrees>38.1796666793525218963623046875</LatitudeDegrees>
              <LongitudeDegrees>-1.12714243121445178985595703125</LongitudeDegrees>
            </Position>
            <AltitudeMeters>209.600006103515625</AltitudeMeters>
            <DistanceMeters>NAN</DistanceMeters>
          </Trackpoint>
          <Trackpoint>
            <Time>2020-05-25T05:34:53.000Z</Time>
            <Position>
              <LatitudeDegrees>38.17970179952681064605712890625</LatitudeDegrees>
              <LongitudeDegrees>-1.1272015236318111419677734375</LongitudeDegrees>
            </Position>
            <AltitudeMeters>209.600006103515625</AltitudeMeters>
            <DistanceMeters>NAN</DistanceMeters>
          </Trackpoint>
          <Trackpoint>
            <Time>2020-05-25T05:34:54.000Z</Time>
            <Position>
              <LatitudeDegrees>38.17977220751345157623291015625</LatitudeDegrees>
              <LongitudeDegrees>-1.1273192055523395538330078125</LongitudeDegrees>
            </Position>
            <AltitudeMeters>209.8000030517578125</AltitudeMeters>
            <DistanceMeters>NAN</DistanceMeters>
          </Trackpoint>
          <Trackpoint>
            <Time>2020-05-25T05:34:55.000Z</Time>
            <Position>
              <LatitudeDegrees>38.17977220751345157623291015625</LatitudeDegrees>
              <LongitudeDegrees>-1.1273192055523395538330078125</LongitudeDegrees>
            </Position>
            <AltitudeMeters>209.8000030517578125</AltitudeMeters>
            <DistanceMeters>NAN</DistanceMeters>
          </Trackpoint>
          <Trackpoint>
            <Time>2020-05-25T05:34:56.000Z</Time>
            <Position>
              <LatitudeDegrees>38.17983909510076045989990234375</LatitudeDegrees>
              <LongitudeDegrees>-1.12743680365383625030517578125</LongitudeDegrees>
            </Position>
            <AltitudeMeters>210</AltitudeMeters>
            <DistanceMeters>NAN</DistanceMeters>
          </Trackpoint>
          <Trackpoint>
            <Time>2020-05-25T05:34:57.000Z</Time>
            <Position>
              <LatitudeDegrees>38.17983909510076045989990234375</LatitudeDegrees>
              <LongitudeDegrees>-1.12743680365383625030517578125</LongitudeDegrees>
            </Position>
            <AltitudeMeters>210</AltitudeMeters>
            <DistanceMeters>NAN</DistanceMeters>
          </Trackpoint>
          <Trackpoint>
            <Time>2020-05-25T05:34:58.000Z</Time>
            <Position>
              <LatitudeDegrees>38.1798738799989223480224609375</LatitudeDegrees>
              <LongitudeDegrees>-1.12749313004314899444580078125</LongitudeDegrees>
            </Position>
            <AltitudeMeters>210</AltitudeMeters>
            <DistanceMeters>NAN</DistanceMeters>
          </Trackpoint>
          <Trackpoint>
            <Time>2020-05-25T05:34:59.000Z</Time>
            <Position>
              <LatitudeDegrees>38.17994034849107265472412109375</LatitudeDegrees>
              <LongitudeDegrees>-1.1276065371930599212646484375</LongitudeDegrees>
            </Position>
            <AltitudeMeters>210.1999969482421875</AltitudeMeters>
            <DistanceMeters>NAN</DistanceMeters>
          </Trackpoint>
          <Trackpoint>
            <Time>2020-05-25T05:35:00.000Z</Time>
            <Position>
              <LatitudeDegrees>38.17997404374182224273681640625</LatitudeDegrees>
              <LongitudeDegrees>-1.12766194157302379608154296875</LongitudeDegrees>
            </Position>
            <AltitudeMeters>210.1999969482421875</AltitudeMeters>
            <DistanceMeters>NAN</DistanceMeters>
          </Trackpoint>
          <Trackpoint>
            <Time>2020-05-25T05:35:01.000Z</Time>
            <Position>
              <LatitudeDegrees>38.17997404374182224273681640625</LatitudeDegrees>
              <LongitudeDegrees>-1.12766194157302379608154296875</LongitudeDegrees>
            </Position>
            <AltitudeMeters>210.1999969482421875</AltitudeMeters>
            <DistanceMeters>NAN</DistanceMeters>
          </Trackpoint>
          <Trackpoint>
            <Time>2020-05-25T05:35:02.000Z</Time>
            <Position>
              <LatitudeDegrees>38.180040679872035980224609375</LatitudeDegrees>
              <LongitudeDegrees>-1.1277735047042369842529296875</LongitudeDegrees>
            </Position>
            <AltitudeMeters>210.399993896484375</AltitudeMeters>
            <DistanceMeters>NAN</DistanceMeters>
          </Trackpoint>
          <Trackpoint>
            <Time>2020-05-25T05:35:03.000Z</Time>
            <Position>
              <LatitudeDegrees>38.1800757162272930145263671875</LatitudeDegrees>
              <LongitudeDegrees>-1.1278264783322811126708984375</LongitudeDegrees>
            </Position>
            <AltitudeMeters>210.600006103515625</AltitudeMeters>
            <DistanceMeters>NAN</DistanceMeters>
          </Trackpoint>
          <Trackpoint>
            <Time>2020-05-25T05:35:04.000Z</Time>
            <Position>
              <LatitudeDegrees>38.1800757162272930145263671875</LatitudeDegrees>
              <LongitudeDegrees>-1.1278264783322811126708984375</LongitudeDegrees>
            </Position>
            <AltitudeMeters>210.8000030517578125</AltitudeMeters>
            <DistanceMeters>NAN</DistanceMeters>
          </Trackpoint>
          <Trackpoint>
            <Time>2020-05-25T05:35:05.000Z</Time>
            <Position>
              <LatitudeDegrees>38.1801119260489940643310546875</LatitudeDegrees>
              <LongitudeDegrees>-1.127876602113246917724609375</LongitudeDegrees>
            </Position>
            <AltitudeMeters>211</AltitudeMeters>
            <DistanceMeters>NAN</DistanceMeters>
          </Trackpoint>
          <Trackpoint>
            <Time>2020-05-25T05:35:06.000Z</Time>
            <Position>
              <LatitudeDegrees>38.18018761463463306427001953125</LatitudeDegrees>
              <LongitudeDegrees>-1.12796855159103870391845703125</LongitudeDegrees>
            </Position>
            <AltitudeMeters>211.1999969482421875</AltitudeMeters>
            <DistanceMeters>NAN</DistanceMeters>
          </Trackpoint>
          <Trackpoint>
            <Time>2020-05-25T05:35:07.000Z</Time>
            <Position>
              <LatitudeDegrees>38.18018761463463306427001953125</LatitudeDegrees>
              <LongitudeDegrees>-1.12796855159103870391845703125</LongitudeDegrees>
            </Position>
            <AltitudeMeters>211.1999969482421875</AltitudeMeters>
            <DistanceMeters>NAN</DistanceMeters>
          </Trackpoint>
          <Trackpoint>
            <Time>2020-05-25T05:35:08.000Z</Time>
            <Position>
              <LatitudeDegrees>38.180227763950824737548828125</LatitudeDegrees>
              <LongitudeDegrees>-1.12801012583076953887939453125</LongitudeDegrees>
            </Position>
            <AltitudeMeters>211.399993896484375</AltitudeMeters>
            <DistanceMeters>NAN</DistanceMeters>
          </Trackpoint>
          <Trackpoint>
            <Time>2020-05-25T05:35:09.000Z</Time>
            <Position>
              <LatitudeDegrees>38.18026992492377758026123046875</LatitudeDegrees>
              <LongitudeDegrees>-1.12804616801440715789794921875</LongitudeDegrees>
            </Position>
            <AltitudeMeters>211.600006103515625</AltitudeMeters>
            <DistanceMeters>NAN</DistanceMeters>
          </Trackpoint>
          <Trackpoint>
            <Time>2020-05-25T05:35:10.000Z</Time>
            <Position>
              <LatitudeDegrees>38.18031485192477703094482421875</LatitudeDegrees>
              <LongitudeDegrees>-1.128076426684856414794921875</LongitudeDegrees>
            </Position>
            <AltitudeMeters>211.8000030517578125</AltitudeMeters>
            <DistanceMeters>NAN</DistanceMeters>
          </Trackpoint>
          <Trackpoint>
            <Time>2020-05-25T05:35:11.000Z</Time>
            <Position>
              <LatitudeDegrees>38.18036179058253765106201171875</LatitudeDegrees>
              <LongitudeDegrees>-1.12810081802308559417724609375</LongitudeDegrees>
            </Position>
            <AltitudeMeters>212</AltitudeMeters>
            <DistanceMeters>NAN</DistanceMeters>
          </Trackpoint>
          <Trackpoint>
            <Time>2020-05-25T05:35:12.000Z</Time>
            <Position>
              <LatitudeDegrees>38.18040906451642513275146484375</LatitudeDegrees>
              <LongitudeDegrees>-1.12812328152358531951904296875</LongitudeDegrees>
            </Position>
            <AltitudeMeters>212.1999969482421875</AltitudeMeters>
            <DistanceMeters>NAN</DistanceMeters>
          </Trackpoint>
          <Trackpoint>
            <Time>2020-05-25T05:35:13.000Z</Time>
            <Position>
              <LatitudeDegrees>38.1804565899074077606201171875</LatitudeDegrees>
              <LongitudeDegrees>-1.128142811357975006103515625</LongitudeDegrees>
            </Position>
            <AltitudeMeters>212.399993896484375</AltitudeMeters>
            <DistanceMeters>NAN</DistanceMeters>
          </Trackpoint>
          <Trackpoint>
            <Time>2020-05-25T05:35:14.000Z</Time>
            <Position>
              <LatitudeDegrees>38.18050562404096126556396484375</LatitudeDegrees>
              <LongitudeDegrees>-1.1281572282314300537109375</LongitudeDegrees>
            </Position>
            <AltitudeMeters>212.399993896484375</AltitudeMeters>
            <DistanceMeters>NAN</DistanceMeters>
          </Trackpoint>
          <Trackpoint>
            <Time>2020-05-25T05:35:15.000Z</Time>
            <Position>
              <LatitudeDegrees>38.180555999279022216796875</LatitudeDegrees>
              <LongitudeDegrees>-1.12816871143877506256103515625</LongitudeDegrees>
            </Position>
            <AltitudeMeters>212.600006103515625</AltitudeMeters>
            <DistanceMeters>NAN</DistanceMeters>
          </Trackpoint>
          <Trackpoint>
            <Time>2020-05-25T05:35:16.000Z</Time>
            <Position>
              <LatitudeDegrees>38.1806067936122417449951171875</LatitudeDegrees>
              <LongitudeDegrees>-1.1281761713325977325439453125</LongitudeDegrees>
            </Position>
            <AltitudeMeters>212.8000030517578125</AltitudeMeters>
            <DistanceMeters>NAN</DistanceMeters>
          </Trackpoint>
          <Trackpoint>
            <Time>2020-05-25T05:35:17.000Z</Time>
            <Position>
              <LatitudeDegrees>38.180657923221588134765625</LatitudeDegrees>
              <LongitudeDegrees>-1.12818094901740550994873046875</LongitudeDegrees>
            </Position>
            <AltitudeMeters>213</AltitudeMeters>
            <DistanceMeters>NAN</DistanceMeters>
          </Trackpoint>
          <Trackpoint>
            <Time>2020-05-25T05:35:18.000Z</Time>
            <Position>
              <LatitudeDegrees>38.18070829845964908599853515625</LatitudeDegrees>
              <LongitudeDegrees>-1.1281818710267543792724609375</LongitudeDegrees>
            </Position>
            <AltitudeMeters>213.1999969482421875</AltitudeMeters>
            <DistanceMeters>NAN</DistanceMeters>
          </Trackpoint>
          <Trackpoint>
            <Time>2020-05-25T05:35:19.000Z</Time>
            <Position>
              <LatitudeDegrees>38.18075825460255146026611328125</LatitudeDegrees>
              <LongitudeDegrees>-1.1281788535416126251220703125</LongitudeDegrees>
            </Position>
            <AltitudeMeters>213.399993896484375</AltitudeMeters>
            <DistanceMeters>NAN</DistanceMeters>
          </Trackpoint>
          <Trackpoint>
            <Time>2020-05-25T05:35:20.000Z</Time>
            <Position>
              <LatitudeDegrees>38.1808096356689929962158203125</LatitudeDegrees>
              <LongitudeDegrees>-1.128171980381011962890625</LongitudeDegrees>
            </Position>
            <AltitudeMeters>213.399993896484375</AltitudeMeters>
            <DistanceMeters>NAN</DistanceMeters>
          </Trackpoint>
          <Trackpoint>
            <Time>2020-05-25T05:35:21.000Z</Time>
            <Position>
              <LatitudeDegrees>38.1808605976402759552001953125</LatitudeDegrees>
              <LongitudeDegrees>-1.128159575164318084716796875</LongitudeDegrees>
            </Position>
            <AltitudeMeters>213.600006103515625</AltitudeMeters>
            <DistanceMeters>NAN</DistanceMeters>
          </Trackpoint>
          <Trackpoint>
            <Time>2020-05-25T05:35:22.000Z</Time>
            <Position>
              <LatitudeDegrees>38.18091063760221004486083984375</LatitudeDegrees>
              <LongitudeDegrees>-1.1281453259289264678955078125</LongitudeDegrees>
            </Position>
            <AltitudeMeters>213.8000030517578125</AltitudeMeters>
            <DistanceMeters>NAN</DistanceMeters>
          </Trackpoint>
          <Trackpoint>
            <Time>2020-05-25T05:35:23.000Z</Time>
            <Position>
              <LatitudeDegrees>38.18095908500254154205322265625</LatitudeDegrees>
              <LongitudeDegrees>-1.128132753074169158935546875</LongitudeDegrees>
            </Position>
            <AltitudeMeters>213.8000030517578125</AltitudeMeters>
            <DistanceMeters>NAN</DistanceMeters>
          </Trackpoint>
          <Trackpoint>
            <Time>2020-05-25T05:35:24.000Z</Time>
            <Position>
              <LatitudeDegrees>38.1810030899941921234130859375</LatitudeDegrees>
              <LongitudeDegrees>-1.12812026403844356536865234375</LongitudeDegrees>
            </Position>
            <AltitudeMeters>214</AltitudeMeters>
            <DistanceMeters>NAN</DistanceMeters>
          </Trackpoint>
          <Trackpoint>
            <Time>2020-05-25T05:35:25.000Z</Time>
            <Position>
              <LatitudeDegrees>38.1810416467487812042236328125</LatitudeDegrees>
              <LongitudeDegrees>-1.12810852937400341033935546875</LongitudeDegrees>
            </Position>
            <AltitudeMeters>214</AltitudeMeters>
            <DistanceMeters>NAN</DistanceMeters>
          </Trackpoint>
          <Trackpoint>
            <Time>2020-05-25T05:35:26.000Z</Time>
            <Position>
              <LatitudeDegrees>38.18110744468867778778076171875</LatitudeDegrees>
              <LongitudeDegrees>-1.128083802759647369384765625</LongitudeDegrees>
            </Position>
            <AltitudeMeters>214.399993896484375</AltitudeMeters>
            <DistanceMeters>NAN</DistanceMeters>
          </Trackpoint>
          <Trackpoint>
            <Time>2020-05-25T05:35:27.000Z</Time>
            <Position>
              <LatitudeDegrees>38.18110744468867778778076171875</LatitudeDegrees>
              <LongitudeDegrees>-1.128083802759647369384765625</LongitudeDegrees>
            </Position>
            <AltitudeMeters>214.399993896484375</AltitudeMeters>
            <DistanceMeters>NAN</DistanceMeters>
          </Trackpoint>
          <Trackpoint>
            <Time>2020-05-25T05:35:28.000Z</Time>
            <Position>
              <LatitudeDegrees>38.18113460205495357513427734375</LatitudeDegrees>
              <LongitudeDegrees>-1.12807030789554119110107421875</LongitudeDegrees>
            </Position>
            <AltitudeMeters>214.600006103515625</AltitudeMeters>
            <DistanceMeters>NAN</DistanceMeters>
          </Trackpoint>
          <Trackpoint>
            <Time>2020-05-25T05:35:29.000Z</Time>
            <Position>
              <LatitudeDegrees>38.18116159178316593170166015625</LatitudeDegrees>
              <LongitudeDegrees>-1.128054969012737274169921875</LongitudeDegrees>
            </Position>
            <AltitudeMeters>214.600006103515625</AltitudeMeters>
            <DistanceMeters>NAN</DistanceMeters>
          </Trackpoint>
          <Trackpoint>
            <Time>2020-05-25T05:35:30.000Z</Time>
            <Position>
              <LatitudeDegrees>38.18119109608232975006103515625</LatitudeDegrees>
              <LongitudeDegrees>-1.12804113887250423431396484375</LongitudeDegrees>
            </Position>
            <AltitudeMeters>214.8000030517578125</AltitudeMeters>
            <DistanceMeters>NAN</DistanceMeters>
          </Trackpoint>
          <Trackpoint>
            <Time>2020-05-25T05:35:31.000Z</Time>
            <Position>
              <LatitudeDegrees>38.1812200136482715606689453125</LatitudeDegrees>
              <LongitudeDegrees>-1.1280299909412860870361328125</LongitudeDegrees>
            </Position>
            <AltitudeMeters>214.8000030517578125</AltitudeMeters>
            <DistanceMeters>NAN</DistanceMeters>
          </Trackpoint>
          <Trackpoint>
            <Time>2020-05-25T05:35:32.000Z</Time>
            <Position>
              <LatitudeDegrees>38.18124507553875446319580078125</LatitudeDegrees>
              <LongitudeDegrees>-1.1280204355716705322265625</LongitudeDegrees>
            </Position>
            <AltitudeMeters>214.8000030517578125</AltitudeMeters>
            <DistanceMeters>NAN</DistanceMeters>
          </Trackpoint>
          <Trackpoint>
            <Time>2020-05-25T05:35:33.000Z</Time>
            <Position>
              <LatitudeDegrees>38.1812625937163829803466796875</LatitudeDegrees>
              <LongitudeDegrees>-1.12801062874495983123779296875</LongitudeDegrees>
            </Position>
            <AltitudeMeters>215</AltitudeMeters>
            <DistanceMeters>NAN</DistanceMeters>
          </Trackpoint>
          <Trackpoint>
            <Time>2020-05-25T05:35:34.000Z</Time>
            <Position>
              <LatitudeDegrees>38.18127960897982120513916015625</LatitudeDegrees>
              <LongitudeDegrees>-1.12800090573728084564208984375</LongitudeDegrees>
            </Position>
            <AltitudeMeters>215</AltitudeMeters>
            <DistanceMeters>NAN</DistanceMeters>
          </Trackpoint>
          <Trackpoint>
            <Time>2020-05-25T05:35:35.000Z</Time>
            <Position>
              <LatitudeDegrees>38.18129369057714939117431640625</LatitudeDegrees>
              <LongitudeDegrees>-1.127988584339618682861328125</LongitudeDegrees>
            </Position>
            <AltitudeMeters>215</AltitudeMeters>
            <DistanceMeters>NAN</DistanceMeters>
          </Trackpoint>
          <Trackpoint>
            <Time>2020-05-25T05:35:36.000Z</Time>
            <Position>
              <LatitudeDegrees>38.181312717497348785400390625</LatitudeDegrees>
              <LongitudeDegrees>-1.12797643058001995086669921875</LongitudeDegrees>
            </Position>
            <AltitudeMeters>215</AltitudeMeters>
            <DistanceMeters>NAN</DistanceMeters>
          </Trackpoint>
          <Trackpoint>
            <Time>2020-05-25T05:35:37.000Z</Time>
            <Position>
              <LatitudeDegrees>38.18134599365293979644775390625</LatitudeDegrees>
              <LongitudeDegrees>-1.12795916385948657989501953125</LongitudeDegrees>
            </Position>
            <AltitudeMeters>215</AltitudeMeters>
            <DistanceMeters>NAN</DistanceMeters>
          </Trackpoint>
          <Trackpoint>
            <Time>2020-05-25T05:35:38.000Z</Time>
            <Position>
              <LatitudeDegrees>38.1813846342265605926513671875</LatitudeDegrees>
              <LongitudeDegrees>-1.1279372870922088623046875</LongitudeDegrees>
            </Position>
            <AltitudeMeters>215.1999969482421875</AltitudeMeters>
            <DistanceMeters>NAN</DistanceMeters>
          </Trackpoint>
          <Trackpoint>
            <Time>2020-05-25T05:35:39.000Z</Time>
            <Position>
              <LatitudeDegrees>38.181427381932735443115234375</LatitudeDegrees>
              <LongitudeDegrees>-1.12791406922042369842529296875</LongitudeDegrees>
            </Position>
            <AltitudeMeters>215.1999969482421875</AltitudeMeters>
            <DistanceMeters>NAN</DistanceMeters>
          </Trackpoint>
          <Trackpoint>
            <Time>2020-05-25T05:35:40.000Z</Time>
            <Position>
              <LatitudeDegrees>38.18147272802889347076416015625</LatitudeDegrees>
              <LongitudeDegrees>-1.1278918571770191192626953125</LongitudeDegrees>
            </Position>
            <AltitudeMeters>215.1999969482421875</AltitudeMeters>
            <DistanceMeters>NAN</DistanceMeters>
          </Trackpoint>
          <Trackpoint>
            <Time>2020-05-25T05:35:41.000Z</Time>
            <Position>
              <LatitudeDegrees>38.18151933141052722930908203125</LatitudeDegrees>
              <LongitudeDegrees>-1.12786729820072650909423828125</LongitudeDegrees>
            </Position>
            <AltitudeMeters>215.1999969482421875</AltitudeMeters>
            <DistanceMeters>NAN</DistanceMeters>
          </Trackpoint>
          <Trackpoint>
            <Time>2020-05-25T05:35:42.000Z</Time>
            <Position>
              <LatitudeDegrees>38.18156383931636810302734375</LatitudeDegrees>
              <LongitudeDegrees>-1.1278412304818630218505859375</LongitudeDegrees>
            </Position>
            <AltitudeMeters>215.399993896484375</AltitudeMeters>
            <DistanceMeters>NAN</DistanceMeters>
          </Trackpoint>
          <Trackpoint>
            <Time>2020-05-25T05:35:43.000Z</Time>
            <Position>
              <LatitudeDegrees>38.1816106103360652923583984375</LatitudeDegrees>
              <LongitudeDegrees>-1.12781683914363384246826171875</LongitudeDegrees>
            </Position>
            <AltitudeMeters>215.399993896484375</AltitudeMeters>
            <DistanceMeters>NAN</DistanceMeters>
          </Trackpoint>
          <Trackpoint>
            <Time>2020-05-25T05:35:44.000Z</Time>
            <Position>
              <LatitudeDegrees>38.18165662698447704315185546875</LatitudeDegrees>
              <LongitudeDegrees>-1.12779303453862667083740234375</LongitudeDegrees>
            </Position>
            <AltitudeMeters>215.399993896484375</AltitudeMeters>
            <DistanceMeters>NAN</DistanceMeters>
          </Trackpoint>
          <Trackpoint>
            <Time>2020-05-25T05:35:45.000Z</Time>
            <Position>
              <LatitudeDegrees>38.18170390091836452484130859375</LatitudeDegrees>
              <LongitudeDegrees>-1.1277617700397968292236328125</LongitudeDegrees>
            </Position>
            <AltitudeMeters>215.399993896484375</AltitudeMeters>
            <DistanceMeters>NAN</DistanceMeters>
          </Trackpoint>
          <Trackpoint>
            <Time>2020-05-25T05:35:46.000Z</Time>
            <Position>
              <LatitudeDegrees>38.18174731917679309844970703125</LatitudeDegrees>
              <LongitudeDegrees>-1.12772329710423946380615234375</LongitudeDegrees>
            </Position>
            <AltitudeMeters>215.399993896484375</AltitudeMeters>
            <DistanceMeters>NAN</DistanceMeters>
          </Trackpoint>
          <Trackpoint>
            <Time>2020-05-25T05:35:47.000Z</Time>
            <Position>
              <LatitudeDegrees>38.18178453482687473297119140625</LatitudeDegrees>
              <LongitudeDegrees>-1.12767937593162059783935546875</LongitudeDegrees>
            </Position>
            <AltitudeMeters>215.399993896484375</AltitudeMeters>
            <DistanceMeters>NAN</DistanceMeters>
          </Trackpoint>
          <Trackpoint>
            <Time>2020-05-25T05:35:48.000Z</Time>
            <Position>
              <LatitudeDegrees>38.181821666657924652099609375</LatitudeDegrees>
              <LongitudeDegrees>-1.1276367120444774627685546875</LongitudeDegrees>
            </Position>
            <AltitudeMeters>215.399993896484375</AltitudeMeters>
            <DistanceMeters>NAN</DistanceMeters>
          </Trackpoint>
          <Trackpoint>
            <Time>2020-05-25T05:35:49.000Z</Time>
            <Position>
              <LatitudeDegrees>38.18185695447027683258056640625</LatitudeDegrees>
              <LongitudeDegrees>-1.12758927047252655029296875</LongitudeDegrees>
            </Position>
            <AltitudeMeters>215.399993896484375</AltitudeMeters>
            <DistanceMeters>NAN</DistanceMeters>
          </Trackpoint>
          <Trackpoint>
            <Time>2020-05-25T05:35:50.000Z</Time>
            <Position>
              <LatitudeDegrees>38.181890733540058135986328125</LatitudeDegrees>
              <LongitudeDegrees>-1.12753772176802158355712890625</LongitudeDegrees>
            </Position>
            <AltitudeMeters>215.399993896484375</AltitudeMeters>
            <DistanceMeters>NAN</DistanceMeters>
          </Trackpoint>
          <Trackpoint>
            <Time>2020-05-25T05:35:51.000Z</Time>
            <Position>
              <LatitudeDegrees>38.18193004466593265533447265625</LatitudeDegrees>
              <LongitudeDegrees>-1.12749002873897552490234375</LongitudeDegrees>
            </Position>
            <AltitudeMeters>215.399993896484375</AltitudeMeters>
            <DistanceMeters>NAN</DistanceMeters>
          </Trackpoint>
          <Trackpoint>
            <Time>2020-05-25T05:35:52.000Z</Time>
            <Position>
              <LatitudeDegrees>38.18196508102118968963623046875</LatitudeDegrees>
              <LongitudeDegrees>-1.1274392344057559967041015625</LongitudeDegrees>
            </Position>
            <AltitudeMeters>215.399993896484375</AltitudeMeters>
            <DistanceMeters>NAN</DistanceMeters>
          </Trackpoint>
          <Trackpoint>
            <Time>2020-05-25T05:35:53.000Z</Time>
            <Position>
              <LatitudeDegrees>38.1819965131580829620361328125</LatitudeDegrees>
              <LongitudeDegrees>-1.12738701514899730682373046875</LongitudeDegrees>
            </Position>
            <AltitudeMeters>215.399993896484375</AltitudeMeters>
            <DistanceMeters>NAN</DistanceMeters>
          </Trackpoint>
          <Trackpoint>
            <Time>2020-05-25T05:35:54.000Z</Time>
            <Position>
              <LatitudeDegrees>38.18202425725758075714111328125</LatitudeDegrees>
              <LongitudeDegrees>-1.12733177840709686279296875</LongitudeDegrees>
            </Position>
            <AltitudeMeters>215.399993896484375</AltitudeMeters>
            <DistanceMeters>NAN</DistanceMeters>
          </Trackpoint>
          <Trackpoint>
            <Time>2020-05-25T05:35:55.000Z</Time>
            <Position>
              <LatitudeDegrees>38.18204890005290508270263671875</LatitudeDegrees>
              <LongitudeDegrees>-1.12727771513164043426513671875</LongitudeDegrees>
            </Position>
            <AltitudeMeters>215.600006103515625</AltitudeMeters>
            <DistanceMeters>NAN</DistanceMeters>
          </Trackpoint>
          <Trackpoint>
            <Time>2020-05-25T05:35:56.000Z</Time>
            <Position>
              <LatitudeDegrees>38.1820754706859588623046875</LatitudeDegrees>
              <LongitudeDegrees>-1.12722272984683513641357421875</LongitudeDegrees>
            </Position>
            <AltitudeMeters>215.600006103515625</AltitudeMeters>
            <DistanceMeters>NAN</DistanceMeters>
          </Trackpoint>
          <Trackpoint>
            <Time>2020-05-25T05:35:57.000Z</Time>
            <Position>
              <LatitudeDegrees>38.18210287950932979583740234375</LatitudeDegrees>
              <LongitudeDegrees>-1.127169169485569000244140625</LongitudeDegrees>
            </Position>
            <AltitudeMeters>215.600006103515625</AltitudeMeters>
            <DistanceMeters>NAN</DistanceMeters>
          </Trackpoint>
          <Trackpoint>
            <Time>2020-05-25T05:35:58.000Z</Time>
            <Position>
              <LatitudeDegrees>38.1821567751467227935791015625</LatitudeDegrees>
              <LongitudeDegrees>-1.12712549977004528045654296875</LongitudeDegrees>
            </Position>
            <AltitudeMeters>215.600006103515625</AltitudeMeters>
            <DistanceMeters>NAN</DistanceMeters>
          </Trackpoint>
          <Trackpoint>
            <Time>2020-05-25T05:35:59.000Z</Time>
            <Position>
              <LatitudeDegrees>38.18219549953937530517578125</LatitudeDegrees>
              <LongitudeDegrees>-1.1270741187036037445068359375</LongitudeDegrees>
            </Position>
            <AltitudeMeters>215.600006103515625</AltitudeMeters>
            <DistanceMeters>NAN</DistanceMeters>
          </Trackpoint>
          <Trackpoint>
            <Time>2020-05-25T05:36:00.000Z</Time>
            <Position>
              <LatitudeDegrees>38.18223439157009124755859375</LatitudeDegrees>
              <LongitudeDegrees>-1.1270234920084476470947265625</LongitudeDegrees>
            </Position>
            <AltitudeMeters>215.8000030517578125</AltitudeMeters>
            <DistanceMeters>NAN</DistanceMeters>
          </Trackpoint>
          <Trackpoint>
            <Time>2020-05-25T05:36:01.000Z</Time>
            <Position>
              <LatitudeDegrees>38.18226800300180912017822265625</LatitudeDegrees>
              <LongitudeDegrees>-1.1269718594849109649658203125</LongitudeDegrees>
            </Position>
            <AltitudeMeters>215.8000030517578125</AltitudeMeters>
            <DistanceMeters>NAN</DistanceMeters>
          </Trackpoint>
          <Trackpoint>
            <Time>2020-05-25T05:36:02.000Z</Time>
            <Position>
              <LatitudeDegrees>38.182303123176097869873046875</LatitudeDegrees>
              <LongitudeDegrees>-1.126921065151691436767578125</LongitudeDegrees>
            </Position>
            <AltitudeMeters>215.8000030517578125</AltitudeMeters>
            <DistanceMeters>NAN</DistanceMeters>
          </Trackpoint>
          <Trackpoint>
            <Time>2020-05-25T05:36:03.000Z</Time>
            <Position>
              <LatitudeDegrees>38.18233765661716461181640625</LatitudeDegrees>
              <LongitudeDegrees>-1.126868426799774169921875</LongitudeDegrees>
            </Position>
            <AltitudeMeters>215.8000030517578125</AltitudeMeters>
            <DistanceMeters>NAN</DistanceMeters>
          </Trackpoint>
          <Trackpoint>
            <Time>2020-05-25T05:36:04.000Z</Time>
            <Position>
              <LatitudeDegrees>38.18237110041081905364990234375</LatitudeDegrees>
              <LongitudeDegrees>-1.12681754864752292633056640625</LongitudeDegrees>
            </Position>
            <AltitudeMeters>215.8000030517578125</AltitudeMeters>
            <DistanceMeters>NAN</DistanceMeters>
          </Trackpoint>
          <Trackpoint>
            <Time>2020-05-25T05:36:05.000Z</Time>
            <Position>
              <LatitudeDegrees>38.1824065558612346649169921875</LatitudeDegrees>
              <LongitudeDegrees>-1.12677010707557201385498046875</LongitudeDegrees>
            </Position>
            <AltitudeMeters>216</AltitudeMeters>
            <DistanceMeters>NAN</DistanceMeters>
          </Trackpoint>
          <Trackpoint>
            <Time>2020-05-25T05:36:06.000Z</Time>
            <Position>
              <LatitudeDegrees>38.1824454478919506072998046875</LatitudeDegrees>
              <LongitudeDegrees>-1.1267276108264923095703125</LongitudeDegrees>
            </Position>
            <AltitudeMeters>216</AltitudeMeters>
            <DistanceMeters>NAN</DistanceMeters>
          </Trackpoint>
          <Trackpoint>
            <Time>2020-05-25T05:36:07.000Z</Time>
            <Position>
              <LatitudeDegrees>38.18248425610363483428955078125</LatitudeDegrees>
              <LongitudeDegrees>-1.1267033033072948455810546875</LongitudeDegrees>
            </Position>
            <AltitudeMeters>216</AltitudeMeters>
            <DistanceMeters>NAN</DistanceMeters>
          </Trackpoint>
          <Trackpoint>
            <Time>2020-05-25T05:36:08.000Z</Time>
            <Position>
              <LatitudeDegrees>38.18252541124820709228515625</LatitudeDegrees>
              <LongitudeDegrees>-1.12669701687991619110107421875</LongitudeDegrees>
            </Position>
            <AltitudeMeters>216</AltitudeMeters>
            <DistanceMeters>NAN</DistanceMeters>
          </Trackpoint>
          <Trackpoint>
            <Time>2020-05-25T05:36:09.000Z</Time>
            <Position>
              <LatitudeDegrees>38.18256757222115993499755859375</LatitudeDegrees>
              <LongitudeDegrees>-1.12671461887657642364501953125</LongitudeDegrees>
            </Position>
            <AltitudeMeters>216</AltitudeMeters>
            <DistanceMeters>NAN</DistanceMeters>
          </Trackpoint>
          <Trackpoint>
            <Time>2020-05-25T05:36:10.000Z</Time>
            <Position>
              <LatitudeDegrees>38.18260663188993930816650390625</LatitudeDegrees>
              <LongitudeDegrees>-1.12675066106021404266357421875</LongitudeDegrees>
            </Position>
            <AltitudeMeters>216</AltitudeMeters>
            <DistanceMeters>NAN</DistanceMeters>
          </Trackpoint>
          <Trackpoint>
            <Time>2020-05-25T05:36:11.000Z</Time>
            <Position>
              <LatitudeDegrees>38.18264602683484554290771484375</LatitudeDegrees>
              <LongitudeDegrees>-1.126795671880245208740234375</LongitudeDegrees>
            </Position>
            <AltitudeMeters>216</AltitudeMeters>
            <DistanceMeters>NAN</DistanceMeters>
          </Trackpoint>
          <Trackpoint>
            <Time>2020-05-25T05:36:12.000Z</Time>
            <Position>
              <LatitudeDegrees>38.18268106319010257720947265625</LatitudeDegrees>
              <LongitudeDegrees>-1.12684252671897411346435546875</LongitudeDegrees>
            </Position>
            <AltitudeMeters>216</AltitudeMeters>
            <DistanceMeters>NAN</DistanceMeters>
          </Trackpoint>
          <Trackpoint>
            <Time>2020-05-25T05:36:13.000Z</Time>
            <Position>
              <LatitudeDegrees>38.18271718919277191162109375</LatitudeDegrees>
              <LongitudeDegrees>-1.126896925270557403564453125</LongitudeDegrees>
            </Position>
            <AltitudeMeters>216</AltitudeMeters>
            <DistanceMeters>NAN</DistanceMeters>
          </Trackpoint>
          <Trackpoint>
            <Time>2020-05-25T05:36:14.000Z</Time>
            <Position>
              <LatitudeDegrees>38.18276203237473964691162109375</LatitudeDegrees>
              <LongitudeDegrees>-1.1269574426114559173583984375</LongitudeDegrees>
            </Position>
            <AltitudeMeters>216</AltitudeMeters>
            <DistanceMeters>NAN</DistanceMeters>
          </Trackpoint>
          <Trackpoint>
            <Time>2020-05-25T05:36:15.000Z</Time>
            <Position>
              <LatitudeDegrees>38.18279254250228404998779296875</LatitudeDegrees>
              <LongitudeDegrees>-1.12701804377138614654541015625</LongitudeDegrees>
            </Position>
            <AltitudeMeters>216</AltitudeMeters>
            <DistanceMeters>NAN</DistanceMeters>
          </Trackpoint>
          <Trackpoint>
            <Time>2020-05-25T05:36:16.000Z</Time>
            <Position>
              <LatitudeDegrees>38.18282707594335079193115234375</LatitudeDegrees>
              <LongitudeDegrees>-1.1270771361887454986572265625</LongitudeDegrees>
            </Position>
            <AltitudeMeters>216</AltitudeMeters>
            <DistanceMeters>NAN</DistanceMeters>
          </Trackpoint>
          <Trackpoint>
            <Time>2020-05-25T05:36:17.000Z</Time>
            <Position>
              <LatitudeDegrees>38.18285842426121234893798828125</LatitudeDegrees>
              <LongitudeDegrees>-1.12713865935802459716796875</LongitudeDegrees>
            </Position>
            <AltitudeMeters>216</AltitudeMeters>
            <DistanceMeters>NAN</DistanceMeters>
          </Trackpoint>
          <Trackpoint>
            <Time>2020-05-25T05:36:18.000Z</Time>
            <Position>
              <LatitudeDegrees>38.18291625939309597015380859375</LatitudeDegrees>
              <LongitudeDegrees>-1.1272645555436611175537109375</LongitudeDegrees>
            </Position>
            <AltitudeMeters>216.1999969482421875</AltitudeMeters>
            <DistanceMeters>NAN</DistanceMeters>
          </Trackpoint>
          <Trackpoint>
            <Time>2020-05-25T05:36:19.000Z</Time>
            <Position>
              <LatitudeDegrees>38.18291625939309597015380859375</LatitudeDegrees>
              <LongitudeDegrees>-1.1272645555436611175537109375</LongitudeDegrees>
            </Position>
            <AltitudeMeters>216.1999969482421875</AltitudeMeters>
            <DistanceMeters>NAN</DistanceMeters>
          </Trackpoint>
          <Trackpoint>
            <Time>2020-05-25T05:36:20.000Z</Time>
            <Position>
              <LatitudeDegrees>38.182943165302276611328125</LatitudeDegrees>
              <LongitudeDegrees>-1.12732767127454280853271484375</LongitudeDegrees>
            </Position>
            <AltitudeMeters>216.1999969482421875</AltitudeMeters>
            <DistanceMeters>NAN</DistanceMeters>
          </Trackpoint>
          <Trackpoint>
            <Time>2020-05-25T05:36:21.000Z</Time>
            <Position>
              <LatitudeDegrees>38.182971663773059844970703125</LatitudeDegrees>
              <LongitudeDegrees>-1.127388775348663330078125</LongitudeDegrees>
            </Position>
            <AltitudeMeters>216.1999969482421875</AltitudeMeters>
            <DistanceMeters>NAN</DistanceMeters>
          </Trackpoint>
          <Trackpoint>
            <Time>2020-05-25T05:36:22.000Z</Time>
            <Position>
              <LatitudeDegrees>38.1830013357102870941162109375</LatitudeDegrees>
              <LongitudeDegrees>-1.127450801432132720947265625</LongitudeDegrees>
            </Position>
            <AltitudeMeters>216.1999969482421875</AltitudeMeters>
            <DistanceMeters>NAN</DistanceMeters>
          </Trackpoint>
          <Trackpoint>
            <Time>2020-05-25T05:36:23.000Z</Time>
            <Position>
              <LatitudeDegrees>38.18302723579108715057373046875</LatitudeDegrees>
              <LongitudeDegrees>-1.127514503896236419677734375</LongitudeDegrees>
            </Position>
            <AltitudeMeters>216.1999969482421875</AltitudeMeters>
            <DistanceMeters>NAN</DistanceMeters>
          </Trackpoint>
          <Trackpoint>
            <Time>2020-05-25T05:36:24.000Z</Time>
            <Position>
              <LatitudeDegrees>38.18304919637739658355712890625</LatitudeDegrees>
              <LongitudeDegrees>-1.12757996656000614166259765625</LongitudeDegrees>
            </Position>
            <AltitudeMeters>216.1999969482421875</AltitudeMeters>
            <DistanceMeters>NAN</DistanceMeters>
          </Trackpoint>
          <Trackpoint>
            <Time>2020-05-25T05:36:25.000Z</Time>
            <Position>
              <LatitudeDegrees>38.18306813947856426239013671875</LatitudeDegrees>
              <LongitudeDegrees>-1.127646267414093017578125</LongitudeDegrees>
            </Position>
            <AltitudeMeters>216.399993896484375</AltitudeMeters>
            <DistanceMeters>NAN</DistanceMeters>
          </Trackpoint>
          <Trackpoint>
            <Time>2020-05-25T05:36:26.000Z</Time>
            <Position>
              <LatitudeDegrees>38.183086998760700225830078125</LatitudeDegrees>
              <LongitudeDegrees>-1.12771072424948215484619140625</LongitudeDegrees>
            </Position>
            <AltitudeMeters>216.399993896484375</AltitudeMeters>
            <DistanceMeters>NAN</DistanceMeters>
          </Trackpoint>
          <Trackpoint>
            <Time>2020-05-25T05:36:27.000Z</Time>
            <Position>
              <LatitudeDegrees>38.18310703150928020477294921875</LatitudeDegrees>
              <LongitudeDegrees>-1.127773337066173553466796875</LongitudeDegrees>
            </Position>
            <AltitudeMeters>216.399993896484375</AltitudeMeters>
            <DistanceMeters>NAN</DistanceMeters>
          </Trackpoint>
          <Trackpoint>
            <Time>2020-05-25T05:36:28.000Z</Time>
            <Position>
              <LatitudeDegrees>38.183127902448177337646484375</LatitudeDegrees>
              <LongitudeDegrees>-1.1278365366160869598388671875</LongitudeDegrees>
            </Position>
            <AltitudeMeters>216.399993896484375</AltitudeMeters>
            <DistanceMeters>NAN</DistanceMeters>
          </Trackpoint>
          <Trackpoint>
            <Time>2020-05-25T05:36:29.000Z</Time>
            <Position>
              <LatitudeDegrees>38.18315011449158191680908203125</LatitudeDegrees>
              <LongitudeDegrees>-1.1278999038040637969970703125</LongitudeDegrees>
            </Position>
            <AltitudeMeters>216.600006103515625</AltitudeMeters>
            <DistanceMeters>NAN</DistanceMeters>
          </Trackpoint>
          <Trackpoint>
            <Time>2020-05-25T05:36:30.000Z</Time>
            <Position>
              <LatitudeDegrees>38.18317090161144733428955078125</LatitudeDegrees>
              <LongitudeDegrees>-1.12796402536332607269287109375</LongitudeDegrees>
            </Position>
            <AltitudeMeters>216.600006103515625</AltitudeMeters>
            <DistanceMeters>NAN</DistanceMeters>
          </Trackpoint>
          <Trackpoint>
            <Time>2020-05-25T05:36:31.000Z</Time>
            <Position>
              <LatitudeDegrees>38.18320895545184612274169921875</LatitudeDegrees>
              <LongitudeDegrees>-1.12809143029153347015380859375</LongitudeDegrees>
            </Position>
            <AltitudeMeters>216.8000030517578125</AltitudeMeters>
            <DistanceMeters>NAN</DistanceMeters>
          </Trackpoint>
          <Trackpoint>
            <Time>2020-05-25T05:36:32.000Z</Time>
            <Position>
              <LatitudeDegrees>38.18322923965752124786376953125</LatitudeDegrees>
              <LongitudeDegrees>-1.12815312109887599945068359375</LongitudeDegrees>
            </Position>
            <AltitudeMeters>217</AltitudeMeters>
            <DistanceMeters>NAN</DistanceMeters>
          </Trackpoint>
          <Trackpoint>
            <Time>2020-05-25T05:36:33.000Z</Time>
            <Position>
              <LatitudeDegrees>38.18324851803481578826904296875</LatitudeDegrees>
              <LongitudeDegrees>-1.128224618732929229736328125</LongitudeDegrees>
            </Position>
            <AltitudeMeters>217</AltitudeMeters>
            <DistanceMeters>NAN</DistanceMeters>
          </Trackpoint>
          <Trackpoint>
            <Time>2020-05-25T05:36:34.000Z</Time>
            <Position>
              <LatitudeDegrees>38.18324851803481578826904296875</LatitudeDegrees>
              <LongitudeDegrees>-1.128224618732929229736328125</LongitudeDegrees>
            </Position>
            <AltitudeMeters>217</AltitudeMeters>
            <DistanceMeters>NAN</DistanceMeters>
          </Trackpoint>
          <Trackpoint>
            <Time>2020-05-25T05:36:35.000Z</Time>
            <Position>
              <LatitudeDegrees>38.1832702271640300750732421875</LatitudeDegrees>
              <LongitudeDegrees>-1.1282898299396038055419921875</LongitudeDegrees>
            </Position>
            <AltitudeMeters>217.1999969482421875</AltitudeMeters>
            <DistanceMeters>NAN</DistanceMeters>
          </Trackpoint>
          <Trackpoint>
            <Time>2020-05-25T05:36:36.000Z</Time>
            <Position>
              <LatitudeDegrees>38.183293528854846954345703125</LatitudeDegrees>
              <LongitudeDegrees>-1.1283545382320880889892578125</LongitudeDegrees>
            </Position>
            <AltitudeMeters>217.1999969482421875</AltitudeMeters>
            <DistanceMeters>NAN</DistanceMeters>
          </Trackpoint>
          <Trackpoint>
            <Time>2020-05-25T05:36:37.000Z</Time>
            <Position>
              <LatitudeDegrees>38.18331792019307613372802734375</LatitudeDegrees>
              <LongitudeDegrees>-1.12841798923909664154052734375</LongitudeDegrees>
            </Position>
            <AltitudeMeters>217.1999969482421875</AltitudeMeters>
            <DistanceMeters>NAN</DistanceMeters>
          </Trackpoint>
          <Trackpoint>
            <Time>2020-05-25T05:36:38.000Z</Time>
            <Position>
              <LatitudeDegrees>38.183343149721622467041015625</LatitudeDegrees>
              <LongitudeDegrees>-1.1284809373319149017333984375</LongitudeDegrees>
            </Position>
            <AltitudeMeters>217.1999969482421875</AltitudeMeters>
            <DistanceMeters>NAN</DistanceMeters>
          </Trackpoint>
          <Trackpoint>
            <Time>2020-05-25T05:36:39.000Z</Time>
            <Position>
              <LatitudeDegrees>38.18336896598339080810546875</LatitudeDegrees>
              <LongitudeDegrees>-1.12854438833892345428466796875</LongitudeDegrees>
            </Position>
            <AltitudeMeters>217.1999969482421875</AltitudeMeters>
            <DistanceMeters>NAN</DistanceMeters>
          </Trackpoint>
          <Trackpoint>
            <Time>2020-05-25T05:36:40.000Z</Time>
            <Position>
              <LatitudeDegrees>38.18339520134031772613525390625</LatitudeDegrees>
              <LongitudeDegrees>-1.128606498241424560546875</LongitudeDegrees>
            </Position>
            <AltitudeMeters>217.399993896484375</AltitudeMeters>
            <DistanceMeters>NAN</DistanceMeters>
          </Trackpoint>
          <Trackpoint>
            <Time>2020-05-25T05:36:41.000Z</Time>
            <Position>
              <LatitudeDegrees>38.18342219106853008270263671875</LatitudeDegrees>
              <LongitudeDegrees>-1.12866885960102081298828125</LongitudeDegrees>
            </Position>
            <AltitudeMeters>217.600006103515625</AltitudeMeters>
            <DistanceMeters>NAN</DistanceMeters>
          </Trackpoint>
          <Trackpoint>
            <Time>2020-05-25T05:36:42.000Z</Time>
            <Position>
              <LatitudeDegrees>38.18345052190124988555908203125</LatitudeDegrees>
              <LongitudeDegrees>-1.1287312209606170654296875</LongitudeDegrees>
            </Position>
            <AltitudeMeters>217.8000030517578125</AltitudeMeters>
            <DistanceMeters>NAN</DistanceMeters>
          </Trackpoint>
          <Trackpoint>
            <Time>2020-05-25T05:36:43.000Z</Time>
            <Position>
              <LatitudeDegrees>38.1834797747433185577392578125</LatitudeDegrees>
              <LongitudeDegrees>-1.12879215739667415618896484375</LongitudeDegrees>
            </Position>
            <AltitudeMeters>217.8000030517578125</AltitudeMeters>
            <DistanceMeters>NAN</DistanceMeters>
          </Trackpoint>
          <Trackpoint>
            <Time>2020-05-25T05:36:44.000Z</Time>
            <Position>
              <LatitudeDegrees>38.1835394538938999176025390625</LatitudeDegrees>
              <LongitudeDegrees>-1.1289154551923274993896484375</LongitudeDegrees>
            </Position>
            <AltitudeMeters>218</AltitudeMeters>
            <DistanceMeters>NAN</DistanceMeters>
          </Trackpoint>
          <Trackpoint>
            <Time>2020-05-25T05:36:45.000Z</Time>
            <Position>
              <LatitudeDegrees>38.18356870673596858978271484375</LatitudeDegrees>
              <LongitudeDegrees>-1.1289779841899871826171875</LongitudeDegrees>
            </Position>
            <AltitudeMeters>218.1999969482421875</AltitudeMeters>
            <DistanceMeters>NAN</DistanceMeters>
          </Trackpoint>
          <Trackpoint>
            <Time>2020-05-25T05:36:46.000Z</Time>
            <Position>
              <LatitudeDegrees>38.18356870673596858978271484375</LatitudeDegrees>
              <LongitudeDegrees>-1.1289779841899871826171875</LongitudeDegrees>
            </Position>
            <AltitudeMeters>218.399993896484375</AltitudeMeters>
            <DistanceMeters>NAN</DistanceMeters>
          </Trackpoint>
          <Trackpoint>
            <Time>2020-05-25T05:36:47.000Z</Time>
            <Position>
              <LatitudeDegrees>38.1835971213877201080322265625</LatitudeDegrees>
              <LongitudeDegrees>-1.12903766334056854248046875</LongitudeDegrees>
            </Position>
            <AltitudeMeters>218.399993896484375</AltitudeMeters>
            <DistanceMeters>NAN</DistanceMeters>
          </Trackpoint>
          <Trackpoint>
            <Time>2020-05-25T05:36:48.000Z</Time>
            <Position>
              <LatitudeDegrees>38.18365571089088916778564453125</LatitudeDegrees>
              <LongitudeDegrees>-1.1291563510894775390625</LongitudeDegrees>
            </Position>
            <AltitudeMeters>218.600006103515625</AltitudeMeters>
            <DistanceMeters>NAN</DistanceMeters>
          </Trackpoint>
          <Trackpoint>
            <Time>2020-05-25T05:36:49.000Z</Time>
            <Position>
              <LatitudeDegrees>38.18365571089088916778564453125</LatitudeDegrees>
              <LongitudeDegrees>-1.1291563510894775390625</LongitudeDegrees>
            </Position>
            <AltitudeMeters>218.600006103515625</AltitudeMeters>
            <DistanceMeters>NAN</DistanceMeters>
          </Trackpoint>
          <Trackpoint>
            <Time>2020-05-25T05:36:50.000Z</Time>
            <Position>
              <LatitudeDegrees>38.18371304310858249664306640625</LatitudeDegrees>
              <LongitudeDegrees>-1.12927596084773540496826171875</LongitudeDegrees>
            </Position>
            <AltitudeMeters>218.600006103515625</AltitudeMeters>
            <DistanceMeters>NAN</DistanceMeters>
          </Trackpoint>
          <Trackpoint>
            <Time>2020-05-25T05:36:51.000Z</Time>
            <Position>
              <LatitudeDegrees>38.18371304310858249664306640625</LatitudeDegrees>
              <LongitudeDegrees>-1.12927596084773540496826171875</LongitudeDegrees>
            </Position>
            <AltitudeMeters>218.8000030517578125</AltitudeMeters>
            <DistanceMeters>NAN</DistanceMeters>
          </Trackpoint>
          <Trackpoint>
            <Time>2020-05-25T05:36:52.000Z</Time>
            <Position>
              <LatitudeDegrees>38.183743469417095184326171875</LatitudeDegrees>
              <LongitudeDegrees>-1.12933631055057048797607421875</LongitudeDegrees>
            </Position>
            <AltitudeMeters>218.8000030517578125</AltitudeMeters>
            <DistanceMeters>NAN</DistanceMeters>
          </Trackpoint>
          <Trackpoint>
            <Time>2020-05-25T05:36:53.000Z</Time>
            <Position>
              <LatitudeDegrees>38.1837754882872104644775390625</LatitudeDegrees>
              <LongitudeDegrees>-1.129396073520183563232421875</LongitudeDegrees>
            </Position>
            <AltitudeMeters>219</AltitudeMeters>
            <DistanceMeters>NAN</DistanceMeters>
          </Trackpoint>
          <Trackpoint>
            <Time>2020-05-25T05:36:54.000Z</Time>
            <Position>
              <LatitudeDegrees>38.183807171881198883056640625</LatitudeDegrees>
              <LongitudeDegrees>-1.1294562555849552154541015625</LongitudeDegrees>
            </Position>
            <AltitudeMeters>219</AltitudeMeters>
            <DistanceMeters>NAN</DistanceMeters>
          </Trackpoint>
          <Trackpoint>
            <Time>2020-05-25T05:36:55.000Z</Time>
            <Position>
              <LatitudeDegrees>38.18383843638002872467041015625</LatitudeDegrees>
              <LongitudeDegrees>-1.1295159347355365753173828125</LongitudeDegrees>
            </Position>
            <AltitudeMeters>219.1999969482421875</AltitudeMeters>
            <DistanceMeters>NAN</DistanceMeters>
          </Trackpoint>
          <Trackpoint>
            <Time>2020-05-25T05:36:56.000Z</Time>
            <Position>
              <LatitudeDegrees>38.18389912135899066925048828125</LatitudeDegrees>
              <LongitudeDegrees>-1.1296349577605724334716796875</LongitudeDegrees>
            </Position>
            <AltitudeMeters>219.1999969482421875</AltitudeMeters>
            <DistanceMeters>NAN</DistanceMeters>
          </Trackpoint>
          <Trackpoint>
            <Time>2020-05-25T05:36:57.000Z</Time>
            <Position>
              <LatitudeDegrees>38.18389912135899066925048828125</LatitudeDegrees>
              <LongitudeDegrees>-1.1296349577605724334716796875</LongitudeDegrees>
            </Position>
            <AltitudeMeters>219.399993896484375</AltitudeMeters>
            <DistanceMeters>NAN</DistanceMeters>
          </Trackpoint>
          <Trackpoint>
            <Time>2020-05-25T05:36:58.000Z</Time>
            <Position>
              <LatitudeDegrees>38.1839303858578205108642578125</LatitudeDegrees>
              <LongitudeDegrees>-1.12969220615923404693603515625</LongitudeDegrees>
            </Position>
            <AltitudeMeters>219.399993896484375</AltitudeMeters>
            <DistanceMeters>NAN</DistanceMeters>
          </Trackpoint>
          <Trackpoint>
            <Time>2020-05-25T05:36:59.000Z</Time>
            <Position>
              <LatitudeDegrees>38.1839612312614917755126953125</LatitudeDegrees>
              <LongitudeDegrees>-1.12975037656724452972412109375</LongitudeDegrees>
            </Position>
            <AltitudeMeters>219.600006103515625</AltitudeMeters>
            <DistanceMeters>NAN</DistanceMeters>
          </Trackpoint>
          <Trackpoint>
            <Time>2020-05-25T05:37:00.000Z</Time>
            <Position>
              <LatitudeDegrees>38.18399148993194103240966796875</LatitudeDegrees>
              <LongitudeDegrees>-1.1298089660704135894775390625</LongitudeDegrees>
            </Position>
            <AltitudeMeters>219.8000030517578125</AltitudeMeters>
            <DistanceMeters>NAN</DistanceMeters>
          </Trackpoint>
          <Trackpoint>
            <Time>2020-05-25T05:37:01.000Z</Time>
            <Position>
              <LatitudeDegrees>38.18402233533561229705810546875</LatitudeDegrees>
              <LongitudeDegrees>-1.1298669688403606414794921875</LongitudeDegrees>
            </Position>
            <AltitudeMeters>219.8000030517578125</AltitudeMeters>
            <DistanceMeters>NAN</DistanceMeters>
          </Trackpoint>
          <Trackpoint>
            <Time>2020-05-25T05:37:02.000Z</Time>
            <Position>
              <LatitudeDegrees>38.18405234254896640777587890625</LatitudeDegrees>
              <LongitudeDegrees>-1.12992773763835430145263671875</LongitudeDegrees>
            </Position>
            <AltitudeMeters>220</AltitudeMeters>
            <DistanceMeters>NAN</DistanceMeters>
          </Trackpoint>
          <Trackpoint>
            <Time>2020-05-25T05:37:03.000Z</Time>
            <Position>
              <LatitudeDegrees>38.18408385850489139556884765625</LatitudeDegrees>
              <LongitudeDegrees>-1.12998590804636478424072265625</LongitudeDegrees>
            </Position>
            <AltitudeMeters>220.1999969482421875</AltitudeMeters>
            <DistanceMeters>NAN</DistanceMeters>
          </Trackpoint>
          <Trackpoint>
            <Time>2020-05-25T05:37:04.000Z</Time>
            <Position>
              <LatitudeDegrees>38.184114955365657806396484375</LatitudeDegrees>
              <LongitudeDegrees>-1.13004424609243869781494140625</LongitudeDegrees>
            </Position>
            <AltitudeMeters>220.1999969482421875</AltitudeMeters>
            <DistanceMeters>NAN</DistanceMeters>
          </Trackpoint>
          <Trackpoint>
            <Time>2020-05-25T05:37:05.000Z</Time>
            <Position>
              <LatitudeDegrees>38.1841449625790119171142578125</LatitudeDegrees>
              <LongitudeDegrees>-1.13010358996689319610595703125</LongitudeDegrees>
            </Position>
            <AltitudeMeters>220.399993896484375</AltitudeMeters>
            <DistanceMeters>NAN</DistanceMeters>
          </Trackpoint>
          <Trackpoint>
            <Time>2020-05-25T05:37:06.000Z</Time>
            <Position>
              <LatitudeDegrees>38.184173963963985443115234375</LatitudeDegrees>
              <LongitudeDegrees>-1.1301626823842525482177734375</LongitudeDegrees>
            </Position>
            <AltitudeMeters>220.600006103515625</AltitudeMeters>
            <DistanceMeters>NAN</DistanceMeters>
          </Trackpoint>
          <Trackpoint>
            <Time>2020-05-25T05:37:07.000Z</Time>
            <Position>
              <LatitudeDegrees>38.18420313298702239990234375</LatitudeDegrees>
              <LongitudeDegrees>-1.13022227771580219268798828125</LongitudeDegrees>
            </Position>
            <AltitudeMeters>220.600006103515625</AltitudeMeters>
            <DistanceMeters>NAN</DistanceMeters>
          </Trackpoint>
          <Trackpoint>
            <Time>2020-05-25T05:37:08.000Z</Time>
            <Position>
              <LatitudeDegrees>38.1842616386711597442626953125</LatitudeDegrees>
              <LongitudeDegrees>-1.13034163601696491241455078125</LongitudeDegrees>
            </Position>
            <AltitudeMeters>220.8000030517578125</AltitudeMeters>
            <DistanceMeters>NAN</DistanceMeters>
          </Trackpoint>
          <Trackpoint>
            <Time>2020-05-25T05:37:09.000Z</Time>
            <Position>
              <LatitudeDegrees>38.1842616386711597442626953125</LatitudeDegrees>
              <LongitudeDegrees>-1.13034163601696491241455078125</LongitudeDegrees>
            </Position>
            <AltitudeMeters>220.8000030517578125</AltitudeMeters>
            <DistanceMeters>NAN</DistanceMeters>
          </Trackpoint>
          <Trackpoint>
            <Time>2020-05-25T05:37:10.000Z</Time>
            <Position>
              <LatitudeDegrees>38.18429172970354557037353515625</LatitudeDegrees>
              <LongitudeDegrees>-1.130401231348514556884765625</LongitudeDegrees>
            </Position>
            <AltitudeMeters>220.8000030517578125</AltitudeMeters>
            <DistanceMeters>NAN</DistanceMeters>
          </Trackpoint>
          <Trackpoint>
            <Time>2020-05-25T05:37:11.000Z</Time>
            <Position>
              <LatitudeDegrees>38.1843219883739948272705078125</LatitudeDegrees>
              <LongitudeDegrees>-1.13046065904200077056884765625</LongitudeDegrees>
            </Position>
            <AltitudeMeters>221</AltitudeMeters>
            <DistanceMeters>NAN</DistanceMeters>
          </Trackpoint>
          <Trackpoint>
            <Time>2020-05-25T05:37:12.000Z</Time>
            <Position>
              <LatitudeDegrees>38.1843826733529567718505859375</LatitudeDegrees>
              <LongitudeDegrees>-1.13058068789541721343994140625</LongitudeDegrees>
            </Position>
            <AltitudeMeters>221.1999969482421875</AltitudeMeters>
            <DistanceMeters>NAN</DistanceMeters>
          </Trackpoint>
          <Trackpoint>
            <Time>2020-05-25T05:37:13.000Z</Time>
            <Position>
              <LatitudeDegrees>38.1843826733529567718505859375</LatitudeDegrees>
              <LongitudeDegrees>-1.13058068789541721343994140625</LongitudeDegrees>
            </Position>
            <AltitudeMeters>221.1999969482421875</AltitudeMeters>
            <DistanceMeters>NAN</DistanceMeters>
          </Trackpoint>
          <Trackpoint>
            <Time>2020-05-25T05:37:14.000Z</Time>
            <Position>
              <LatitudeDegrees>38.18444528616964817047119140625</LatitudeDegrees>
              <LongitudeDegrees>-1.130701638758182525634765625</LongitudeDegrees>
            </Position>
            <AltitudeMeters>221.399993896484375</AltitudeMeters>
            <DistanceMeters>NAN</DistanceMeters>
          </Trackpoint>
          <Trackpoint>
            <Time>2020-05-25T05:37:15.000Z</Time>
            <Position>
              <LatitudeDegrees>38.18447663448750972747802734375</LatitudeDegrees>
              <LongitudeDegrees>-1.13076341338455677032470703125</LongitudeDegrees>
            </Position>
            <AltitudeMeters>221.399993896484375</AltitudeMeters>
            <DistanceMeters>NAN</DistanceMeters>
          </Trackpoint>
          <Trackpoint>
            <Time>2020-05-25T05:37:16.000Z</Time>
            <Position>
              <LatitudeDegrees>38.18447663448750972747802734375</LatitudeDegrees>
              <LongitudeDegrees>-1.13076341338455677032470703125</LongitudeDegrees>
            </Position>
            <AltitudeMeters>221.600006103515625</AltitudeMeters>
            <DistanceMeters>NAN</DistanceMeters>
          </Trackpoint>
          <Trackpoint>
            <Time>2020-05-25T05:37:17.000Z</Time>
            <Position>
              <LatitudeDegrees>38.18450664170086383819580078125</LatitudeDegrees>
              <LongitudeDegrees>-1.13082611002027988433837890625</LongitudeDegrees>
            </Position>
            <AltitudeMeters>221.600006103515625</AltitudeMeters>
            <DistanceMeters>NAN</DistanceMeters>
          </Trackpoint>
          <Trackpoint>
            <Time>2020-05-25T05:37:18.000Z</Time>
            <Position>
              <LatitudeDegrees>38.184567578136920928955078125</LatitudeDegrees>
              <LongitudeDegrees>-1.13095007836818695068359375</LongitudeDegrees>
            </Position>
            <AltitudeMeters>221.8000030517578125</AltitudeMeters>
            <DistanceMeters>NAN</DistanceMeters>
          </Trackpoint>
          <Trackpoint>
            <Time>2020-05-25T05:37:19.000Z</Time>
            <Position>
              <LatitudeDegrees>38.184567578136920928955078125</LatitudeDegrees>
              <LongitudeDegrees>-1.13095007836818695068359375</LongitudeDegrees>
            </Position>
            <AltitudeMeters>222</AltitudeMeters>
            <DistanceMeters>NAN</DistanceMeters>
          </Trackpoint>
          <Trackpoint>
            <Time>2020-05-25T05:37:20.000Z</Time>
            <Position>
              <LatitudeDegrees>38.18463027477264404296875</LatitudeDegrees>
              <LongitudeDegrees>-1.13107438199222087860107421875</LongitudeDegrees>
            </Position>
            <AltitudeMeters>222</AltitudeMeters>
            <DistanceMeters>NAN</DistanceMeters>
          </Trackpoint>
          <Trackpoint>
            <Time>2020-05-25T05:37:21.000Z</Time>
            <Position>
              <LatitudeDegrees>38.18466187454760074615478515625</LatitudeDegrees>
              <LongitudeDegrees>-1.13113607279956340789794921875</LongitudeDegrees>
            </Position>
            <AltitudeMeters>222</AltitudeMeters>
            <DistanceMeters>NAN</DistanceMeters>
          </Trackpoint>
          <Trackpoint>
            <Time>2020-05-25T05:37:22.000Z</Time>
            <Position>
              <LatitudeDegrees>38.18466187454760074615478515625</LatitudeDegrees>
              <LongitudeDegrees>-1.13113607279956340789794921875</LongitudeDegrees>
            </Position>
            <AltitudeMeters>222</AltitudeMeters>
            <DistanceMeters>NAN</DistanceMeters>
          </Trackpoint>
          <Trackpoint>
            <Time>2020-05-25T05:37:23.000Z</Time>
            <Position>
              <LatitudeDegrees>38.1847233138978481292724609375</LatitudeDegrees>
              <LongitudeDegrees>-1.1312573589384555816650390625</LongitudeDegrees>
            </Position>
            <AltitudeMeters>222</AltitudeMeters>
            <DistanceMeters>NAN</DistanceMeters>
          </Trackpoint>
          <Trackpoint>
            <Time>2020-05-25T05:37:24.000Z</Time>
            <Position>
              <LatitudeDegrees>38.18475432693958282470703125</LatitudeDegrees>
              <LongitudeDegrees>-1.13131779246032238006591796875</LongitudeDegrees>
            </Position>
            <AltitudeMeters>222.1999969482421875</AltitudeMeters>
            <DistanceMeters>NAN</DistanceMeters>
          </Trackpoint>
          <Trackpoint>
            <Time>2020-05-25T05:37:25.000Z</Time>
            <Position>
              <LatitudeDegrees>38.18475432693958282470703125</LatitudeDegrees>
              <LongitudeDegrees>-1.13131779246032238006591796875</LongitudeDegrees>
            </Position>
            <AltitudeMeters>222.1999969482421875</AltitudeMeters>
            <DistanceMeters>NAN</DistanceMeters>
          </Trackpoint>
          <Trackpoint>
            <Time>2020-05-25T05:37:26.000Z</Time>
            <Position>
              <LatitudeDegrees>38.18478609435260295867919921875</LatitudeDegrees>
              <LongitudeDegrees>-1.131378225982189178466796875</LongitudeDegrees>
            </Position>
            <AltitudeMeters>222.1999969482421875</AltitudeMeters>
            <DistanceMeters>NAN</DistanceMeters>
          </Trackpoint>
          <Trackpoint>
            <Time>2020-05-25T05:37:27.000Z</Time>
            <Position>
              <LatitudeDegrees>38.184819035232067108154296875</LatitudeDegrees>
              <LongitudeDegrees>-1.13143815658986568450927734375</LongitudeDegrees>
            </Position>
            <AltitudeMeters>222.399993896484375</AltitudeMeters>
            <DistanceMeters>NAN</DistanceMeters>
          </Trackpoint>
          <Trackpoint>
            <Time>2020-05-25T05:37:28.000Z</Time>
            <Position>
              <LatitudeDegrees>38.1848534010350704193115234375</LatitudeDegrees>
              <LongitudeDegrees>-1.1314974166452884674072265625</LongitudeDegrees>
            </Position>
            <AltitudeMeters>222.399993896484375</AltitudeMeters>
            <DistanceMeters>NAN</DistanceMeters>
          </Trackpoint>
          <Trackpoint>
            <Time>2020-05-25T05:37:29.000Z</Time>
            <Position>
              <LatitudeDegrees>38.18488868884742259979248046875</LatitudeDegrees>
              <LongitudeDegrees>-1.13155516795814037322998046875</LongitudeDegrees>
            </Position>
            <AltitudeMeters>222.600006103515625</AltitudeMeters>
            <DistanceMeters>NAN</DistanceMeters>
          </Trackpoint>
          <Trackpoint>
            <Time>2020-05-25T05:37:30.000Z</Time>
            <Position>
              <LatitudeDegrees>38.18492464721202850341796875</LatitudeDegrees>
              <LongitudeDegrees>-1.1316120810806751251220703125</LongitudeDegrees>
            </Position>
            <AltitudeMeters>222.600006103515625</AltitudeMeters>
            <DistanceMeters>NAN</DistanceMeters>
          </Trackpoint>
          <Trackpoint>
            <Time>2020-05-25T05:37:31.000Z</Time>
            <Position>
              <LatitudeDegrees>38.184960521757602691650390625</LatitudeDegrees>
              <LongitudeDegrees>-1.1316687427461147308349609375</LongitudeDegrees>
            </Position>
            <AltitudeMeters>222.8000030517578125</AltitudeMeters>
            <DistanceMeters>NAN</DistanceMeters>
          </Trackpoint>
          <Trackpoint>
            <Time>2020-05-25T05:37:32.000Z</Time>
            <Position>
              <LatitudeDegrees>38.185030259191989898681640625</LatitudeDegrees>
              <LongitudeDegrees>-1.13178114406764507293701171875</LongitudeDegrees>
            </Position>
            <AltitudeMeters>223</AltitudeMeters>
            <DistanceMeters>NAN</DistanceMeters>
          </Trackpoint>
          <Trackpoint>
            <Time>2020-05-25T05:37:33.000Z</Time>
            <Position>
              <LatitudeDegrees>38.185030259191989898681640625</LatitudeDegrees>
              <LongitudeDegrees>-1.13178114406764507293701171875</LongitudeDegrees>
            </Position>
            <AltitudeMeters>223</AltitudeMeters>
            <DistanceMeters>NAN</DistanceMeters>
          </Trackpoint>
          <Trackpoint>
            <Time>2020-05-25T05:37:34.000Z</Time>
            <Position>
              <LatitudeDegrees>38.18506437353789806365966796875</LatitudeDegrees>
              <LongitudeDegrees>-1.13183646462857723236083984375</LongitudeDegrees>
            </Position>
            <AltitudeMeters>223</AltitudeMeters>
            <DistanceMeters>NAN</DistanceMeters>
          </Trackpoint>
          <Trackpoint>
            <Time>2020-05-25T05:37:35.000Z</Time>
            <Position>
              <LatitudeDegrees>38.1850983202457427978515625</LatitudeDegrees>
              <LongitudeDegrees>-1.13189153373241424560546875</LongitudeDegrees>
            </Position>
            <AltitudeMeters>223.1999969482421875</AltitudeMeters>
            <DistanceMeters>NAN</DistanceMeters>
          </Trackpoint>
          <Trackpoint>
            <Time>2020-05-25T05:37:36.000Z</Time>
            <Position>
              <LatitudeDegrees>38.18516579456627368927001953125</LatitudeDegrees>
              <LongitudeDegrees>-1.13200175575911998748779296875</LongitudeDegrees>
            </Position>
            <AltitudeMeters>223.399993896484375</AltitudeMeters>
            <DistanceMeters>NAN</DistanceMeters>
          </Trackpoint>
          <Trackpoint>
            <Time>2020-05-25T05:37:37.000Z</Time>
            <Position>
              <LatitudeDegrees>38.18516579456627368927001953125</LatitudeDegrees>
              <LongitudeDegrees>-1.13200175575911998748779296875</LongitudeDegrees>
            </Position>
            <AltitudeMeters>223.600006103515625</AltitudeMeters>
            <DistanceMeters>NAN</DistanceMeters>
          </Trackpoint>
          <Trackpoint>
            <Time>2020-05-25T05:37:38.000Z</Time>
            <Position>
              <LatitudeDegrees>38.1852336041629314422607421875</LatitudeDegrees>
              <LongitudeDegrees>-1.13211373798549175262451171875</LongitudeDegrees>
            </Position>
            <AltitudeMeters>223.600006103515625</AltitudeMeters>
            <DistanceMeters>NAN</DistanceMeters>
          </Trackpoint>
          <Trackpoint>
            <Time>2020-05-25T05:37:39.000Z</Time>
            <Position>
              <LatitudeDegrees>38.1852336041629314422607421875</LatitudeDegrees>
              <LongitudeDegrees>-1.13211373798549175262451171875</LongitudeDegrees>
            </Position>
            <AltitudeMeters>223.8000030517578125</AltitudeMeters>
            <DistanceMeters>NAN</DistanceMeters>
          </Trackpoint>
          <Trackpoint>
            <Time>2020-05-25T05:37:40.000Z</Time>
            <Position>
              <LatitudeDegrees>38.18526805378496646881103515625</LatitudeDegrees>
              <LongitudeDegrees>-1.1321709863841533660888671875</LongitudeDegrees>
            </Position>
            <AltitudeMeters>223.8000030517578125</AltitudeMeters>
            <DistanceMeters>NAN</DistanceMeters>
          </Trackpoint>
          <Trackpoint>
            <Time>2020-05-25T05:37:41.000Z</Time>
            <Position>
              <LatitudeDegrees>38.18530258722603321075439453125</LatitudeDegrees>
              <LongitudeDegrees>-1.1322286538779735565185546875</LongitudeDegrees>
            </Position>
            <AltitudeMeters>224.399993896484375</AltitudeMeters>
            <DistanceMeters>NAN</DistanceMeters>
          </Trackpoint>
          <Trackpoint>
            <Time>2020-05-25T05:37:42.000Z</Time>
            <Position>
              <LatitudeDegrees>38.18533712066709995269775390625</LatitudeDegrees>
              <LongitudeDegrees>-1.1322869919240474700927734375</LongitudeDegrees>
            </Position>
            <AltitudeMeters>224.600006103515625</AltitudeMeters>
            <DistanceMeters>NAN</DistanceMeters>
          </Trackpoint>
          <Trackpoint>
            <Time>2020-05-25T05:37:43.000Z</Time>
            <Position>
              <LatitudeDegrees>38.1853703968226909637451171875</LatitudeDegrees>
              <LongitudeDegrees>-1.1323463357985019683837890625</LongitudeDegrees>
            </Position>
            <AltitudeMeters>224.8000030517578125</AltitudeMeters>
            <DistanceMeters>NAN</DistanceMeters>
          </Trackpoint>
          <Trackpoint>
            <Time>2020-05-25T05:37:44.000Z</Time>
            <Position>
              <LatitudeDegrees>38.18540300242602825164794921875</LatitudeDegrees>
              <LongitudeDegrees>-1.13240727223455905914306640625</LongitudeDegrees>
            </Position>
            <AltitudeMeters>225</AltitudeMeters>
            <DistanceMeters>NAN</DistanceMeters>
          </Trackpoint>
          <Trackpoint>
            <Time>2020-05-25T05:37:45.000Z</Time>
            <Position>
              <LatitudeDegrees>38.18543560802936553955078125</LatitudeDegrees>
              <LongitudeDegrees>-1.1324677057564258575439453125</LongitudeDegrees>
            </Position>
            <AltitudeMeters>225</AltitudeMeters>
            <DistanceMeters>NAN</DistanceMeters>
          </Trackpoint>
          <Trackpoint>
            <Time>2020-05-25T05:37:46.000Z</Time>
            <Position>
              <LatitudeDegrees>38.18546771071851253509521484375</LatitudeDegrees>
              <LongitudeDegrees>-1.1325283907353878021240234375</LongitudeDegrees>
            </Position>
            <AltitudeMeters>225.1999969482421875</AltitudeMeters>
            <DistanceMeters>NAN</DistanceMeters>
          </Trackpoint>
          <Trackpoint>
            <Time>2020-05-25T05:37:47.000Z</Time>
            <Position>
              <LatitudeDegrees>38.18549889139831066131591796875</LatitudeDegrees>
              <LongitudeDegrees>-1.13258983008563518524169921875</LongitudeDegrees>
            </Position>
            <AltitudeMeters>225.399993896484375</AltitudeMeters>
            <DistanceMeters>NAN</DistanceMeters>
          </Trackpoint>
          <Trackpoint>
            <Time>2020-05-25T05:37:48.000Z</Time>
            <Position>
              <LatitudeDegrees>38.1855279766023159027099609375</LatitudeDegrees>
              <LongitudeDegrees>-1.1326534487307071685791015625</LongitudeDegrees>
            </Position>
            <AltitudeMeters>225.600006103515625</AltitudeMeters>
            <DistanceMeters>NAN</DistanceMeters>
          </Trackpoint>
          <Trackpoint>
            <Time>2020-05-25T05:37:49.000Z</Time>
            <Position>
              <LatitudeDegrees>38.1855561397969722747802734375</LatitudeDegrees>
              <LongitudeDegrees>-1.1327181570231914520263671875</LongitudeDegrees>
            </Position>
            <AltitudeMeters>225.399993896484375</AltitudeMeters>
            <DistanceMeters>NAN</DistanceMeters>
          </Trackpoint>
          <Trackpoint>
            <Time>2020-05-25T05:37:50.000Z</Time>
            <Position>
              <LatitudeDegrees>38.1855826266109943389892578125</LatitudeDegrees>
              <LongitudeDegrees>-1.13278336822986602783203125</LongitudeDegrees>
            </Position>
            <AltitudeMeters>225.600006103515625</AltitudeMeters>
            <DistanceMeters>NAN</DistanceMeters>
          </Trackpoint>
          <Trackpoint>
            <Time>2020-05-25T05:37:51.000Z</Time>
            <Position>
              <LatitudeDegrees>38.18560802377760410308837890625</LatitudeDegrees>
              <LongitudeDegrees>-1.1328492499887943267822265625</LongitudeDegrees>
            </Position>
            <AltitudeMeters>225.8000030517578125</AltitudeMeters>
            <DistanceMeters>NAN</DistanceMeters>
          </Trackpoint>
          <Trackpoint>
            <Time>2020-05-25T05:37:52.000Z</Time>
            <Position>
              <LatitudeDegrees>38.1856329180300235748291015625</LatitudeDegrees>
              <LongitudeDegrees>-1.1329159699380397796630859375</LongitudeDegrees>
            </Position>
            <AltitudeMeters>226</AltitudeMeters>
            <DistanceMeters>NAN</DistanceMeters>
          </Trackpoint>
          <Trackpoint>
            <Time>2020-05-25T05:37:53.000Z</Time>
            <Position>
              <LatitudeDegrees>38.185657225549221038818359375</LatitudeDegrees>
              <LongitudeDegrees>-1.1329820193350315093994140625</LongitudeDegrees>
            </Position>
            <AltitudeMeters>226.1999969482421875</AltitudeMeters>
            <DistanceMeters>NAN</DistanceMeters>
          </Trackpoint>
          <Trackpoint>
            <Time>2020-05-25T05:37:54.000Z</Time>
            <Position>
              <LatitudeDegrees>38.185681365430355072021484375</LatitudeDegrees>
              <LongitudeDegrees>-1.13304798491299152374267578125</LongitudeDegrees>
            </Position>
            <AltitudeMeters>226</AltitudeMeters>
            <DistanceMeters>NAN</DistanceMeters>
          </Trackpoint>
          <Trackpoint>
            <Time>2020-05-25T05:37:55.000Z</Time>
            <Position>
              <LatitudeDegrees>38.1857046671211719512939453125</LatitudeDegrees>
              <LongitudeDegrees>-1.1331137828528881072998046875</LongitudeDegrees>
            </Position>
            <AltitudeMeters>226</AltitudeMeters>
            <DistanceMeters>NAN</DistanceMeters>
          </Trackpoint>
          <Trackpoint>
            <Time>2020-05-25T05:37:56.000Z</Time>
            <Position>
              <LatitudeDegrees>38.18572754971683025360107421875</LatitudeDegrees>
              <LongitudeDegrees>-1.13317958079278469085693359375</LongitudeDegrees>
            </Position>
            <AltitudeMeters>226.399993896484375</AltitudeMeters>
            <DistanceMeters>NAN</DistanceMeters>
          </Trackpoint>
          <Trackpoint>
            <Time>2020-05-25T05:37:57.000Z</Time>
            <Position>
              <LatitudeDegrees>38.18575018085539340972900390625</LatitudeDegrees>
              <LongitudeDegrees>-1.1332448758184909820556640625</LongitudeDegrees>
            </Position>
            <AltitudeMeters>226.1999969482421875</AltitudeMeters>
            <DistanceMeters>NAN</DistanceMeters>
          </Trackpoint>
          <Trackpoint>
            <Time>2020-05-25T05:37:58.000Z</Time>
            <Position>
              <LatitudeDegrees>38.18577297963201999664306640625</LatitudeDegrees>
              <LongitudeDegrees>-1.13331042230129241943359375</LongitudeDegrees>
            </Position>
            <AltitudeMeters>226.1999969482421875</AltitudeMeters>
            <DistanceMeters>NAN</DistanceMeters>
          </Trackpoint>
          <Trackpoint>
            <Time>2020-05-25T05:37:59.000Z</Time>
            <Position>
              <LatitudeDegrees>38.1857968680560588836669921875</LatitudeDegrees>
              <LongitudeDegrees>-1.13337538205087184906005859375</LongitudeDegrees>
            </Position>
            <AltitudeMeters>226.399993896484375</AltitudeMeters>
            <DistanceMeters>NAN</DistanceMeters>
          </Trackpoint>
          <Trackpoint>
            <Time>2020-05-25T05:38:00.000Z</Time>
            <Position>
              <LatitudeDegrees>38.1858213432133197784423828125</LatitudeDegrees>
              <LongitudeDegrees>-1.133440844714641571044921875</LongitudeDegrees>
            </Position>
            <AltitudeMeters>226.600006103515625</AltitudeMeters>
            <DistanceMeters>NAN</DistanceMeters>
          </Trackpoint>
          <Trackpoint>
            <Time>2020-05-25T05:38:01.000Z</Time>
            <Position>
              <LatitudeDegrees>38.1858461536467075347900390625</LatitudeDegrees>
              <LongitudeDegrees>-1.13350580446422100067138671875</LongitudeDegrees>
            </Position>
            <AltitudeMeters>226.600006103515625</AltitudeMeters>
            <DistanceMeters>NAN</DistanceMeters>
          </Trackpoint>
          <Trackpoint>
            <Time>2020-05-25T05:38:02.000Z</Time>
            <Position>
              <LatitudeDegrees>38.18587121553719043731689453125</LatitudeDegrees>
              <LongitudeDegrees>-1.1335697583854198455810546875</LongitudeDegrees>
            </Position>
            <AltitudeMeters>226.600006103515625</AltitudeMeters>
            <DistanceMeters>NAN</DistanceMeters>
          </Trackpoint>
          <Trackpoint>
            <Time>2020-05-25T05:38:03.000Z</Time>
            <Position>
              <LatitudeDegrees>38.1858964450657367706298828125</LatitudeDegrees>
              <LongitudeDegrees>-1.13363320939242839813232421875</LongitudeDegrees>
            </Position>
            <AltitudeMeters>226.8000030517578125</AltitudeMeters>
            <DistanceMeters>NAN</DistanceMeters>
          </Trackpoint>
          <Trackpoint>
            <Time>2020-05-25T05:38:04.000Z</Time>
            <Position>
              <LatitudeDegrees>38.18592108786106109619140625</LatitudeDegrees>
              <LongitudeDegrees>-1.13369674421846866607666015625</LongitudeDegrees>
            </Position>
            <AltitudeMeters>227</AltitudeMeters>
            <DistanceMeters>NAN</DistanceMeters>
          </Trackpoint>
          <Trackpoint>
            <Time>2020-05-25T05:38:05.000Z</Time>
            <Position>
              <LatitudeDegrees>38.18594656884670257568359375</LatitudeDegrees>
              <LongitudeDegrees>-1.13376027904450893402099609375</LongitudeDegrees>
            </Position>
            <AltitudeMeters>227</AltitudeMeters>
            <DistanceMeters>NAN</DistanceMeters>
          </Trackpoint>
          <Trackpoint>
            <Time>2020-05-25T05:38:06.000Z</Time>
            <Position>
              <LatitudeDegrees>38.1859722174704074859619140625</LatitudeDegrees>
              <LongitudeDegrees>-1.13382431678473949432373046875</LongitudeDegrees>
            </Position>
            <AltitudeMeters>227.1999969482421875</AltitudeMeters>
            <DistanceMeters>NAN</DistanceMeters>
          </Trackpoint>
          <Trackpoint>
            <Time>2020-05-25T05:38:07.000Z</Time>
            <Position>
              <LatitudeDegrees>38.1859976984560489654541015625</LatitudeDegrees>
              <LongitudeDegrees>-1.13388843834400177001953125</LongitudeDegrees>
            </Position>
            <AltitudeMeters>227.1999969482421875</AltitudeMeters>
            <DistanceMeters>NAN</DistanceMeters>
          </Trackpoint>
          <Trackpoint>
            <Time>2020-05-25T05:38:08.000Z</Time>
            <Position>
              <LatitudeDegrees>38.18602359853684902191162109375</LatitudeDegrees>
              <LongitudeDegrees>-1.1339516378939151763916015625</LongitudeDegrees>
            </Position>
            <AltitudeMeters>227.399993896484375</AltitudeMeters>
            <DistanceMeters>NAN</DistanceMeters>
          </Trackpoint>
          <Trackpoint>
            <Time>2020-05-25T05:38:09.000Z</Time>
            <Position>
              <LatitudeDegrees>38.18604983389377593994140625</LatitudeDegrees>
              <LongitudeDegrees>-1.134014166891574859619140625</LongitudeDegrees>
            </Position>
            <AltitudeMeters>227.600006103515625</AltitudeMeters>
            <DistanceMeters>NAN</DistanceMeters>
          </Trackpoint>
          <Trackpoint>
            <Time>2020-05-25T05:38:10.000Z</Time>
            <Position>
              <LatitudeDegrees>38.186075985431671142578125</LatitudeDegrees>
              <LongitudeDegrees>-1.13407594151794910430908203125</LongitudeDegrees>
            </Position>
            <AltitudeMeters>227.8000030517578125</AltitudeMeters>
            <DistanceMeters>NAN</DistanceMeters>
          </Trackpoint>
          <Trackpoint>
            <Time>2020-05-25T05:38:11.000Z</Time>
            <Position>
              <LatitudeDegrees>38.18610213696956634521484375</LatitudeDegrees>
              <LongitudeDegrees>-1.13413763232529163360595703125</LongitudeDegrees>
            </Position>
            <AltitudeMeters>228</AltitudeMeters>
            <DistanceMeters>NAN</DistanceMeters>
          </Trackpoint>
          <Trackpoint>
            <Time>2020-05-25T05:38:12.000Z</Time>
            <Position>
              <LatitudeDegrees>38.1861282885074615478515625</LatitudeDegrees>
              <LongitudeDegrees>-1.13420032896101474761962890625</LongitudeDegrees>
            </Position>
            <AltitudeMeters>228</AltitudeMeters>
            <DistanceMeters>NAN</DistanceMeters>
          </Trackpoint>
          <Trackpoint>
            <Time>2020-05-25T05:38:13.000Z</Time>
            <Position>
              <LatitudeDegrees>38.18615376949310302734375</LatitudeDegrees>
              <LongitudeDegrees>-1.13426352851092815399169921875</LongitudeDegrees>
            </Position>
            <AltitudeMeters>228.1999969482421875</AltitudeMeters>
            <DistanceMeters>NAN</DistanceMeters>
          </Trackpoint>
          <Trackpoint>
            <Time>2020-05-25T05:38:14.000Z</Time>
            <Position>
              <LatitudeDegrees>38.18617723882198333740234375</LatitudeDegrees>
              <LongitudeDegrees>-1.1343278177082538604736328125</LongitudeDegrees>
            </Position>
            <AltitudeMeters>228.1999969482421875</AltitudeMeters>
            <DistanceMeters>NAN</DistanceMeters>
          </Trackpoint>
          <Trackpoint>
            <Time>2020-05-25T05:38:15.000Z</Time>
            <Position>
              <LatitudeDegrees>38.18620062433183193206787109375</LatitudeDegrees>
              <LongitudeDegrees>-1.13439210690557956695556640625</LongitudeDegrees>
            </Position>
            <AltitudeMeters>228.1999969482421875</AltitudeMeters>
            <DistanceMeters>NAN</DistanceMeters>
          </Trackpoint>
          <Trackpoint>
            <Time>2020-05-25T05:38:16.000Z</Time>
            <Position>
              <LatitudeDegrees>38.18622392602264881134033203125</LatitudeDegrees>
              <LongitudeDegrees>-1.1344558931887149810791015625</LongitudeDegrees>
            </Position>
            <AltitudeMeters>228.1999969482421875</AltitudeMeters>
            <DistanceMeters>NAN</DistanceMeters>
          </Trackpoint>
          <Trackpoint>
            <Time>2020-05-25T05:38:17.000Z</Time>
            <Position>
              <LatitudeDegrees>38.1862463057041168212890625</LatitudeDegrees>
              <LongitudeDegrees>-1.1345199309289455413818359375</LongitudeDegrees>
            </Position>
            <AltitudeMeters>228.399993896484375</AltitudeMeters>
            <DistanceMeters>NAN</DistanceMeters>
          </Trackpoint>
          <Trackpoint>
            <Time>2020-05-25T05:38:18.000Z</Time>
            <Position>
              <LatitudeDegrees>38.186268098652362823486328125</LatitudeDegrees>
              <LongitudeDegrees>-1.134584136307239532470703125</LongitudeDegrees>
            </Position>
            <AltitudeMeters>228.399993896484375</AltitudeMeters>
            <DistanceMeters>NAN</DistanceMeters>
          </Trackpoint>
          <Trackpoint>
            <Time>2020-05-25T05:38:19.000Z</Time>
            <Position>
              <LatitudeDegrees>38.18628964014351367950439453125</LatitudeDegrees>
              <LongitudeDegrees>-1.1346493475139141082763671875</LongitudeDegrees>
            </Position>
            <AltitudeMeters>228.600006103515625</AltitudeMeters>
            <DistanceMeters>NAN</DistanceMeters>
          </Trackpoint>
          <Trackpoint>
            <Time>2020-05-25T05:38:20.000Z</Time>
            <Position>
              <LatitudeDegrees>38.1863098405301570892333984375</LatitudeDegrees>
              <LongitudeDegrees>-1.1347150616347789764404296875</LongitudeDegrees>
            </Position>
            <AltitudeMeters>228.600006103515625</AltitudeMeters>
            <DistanceMeters>NAN</DistanceMeters>
          </Trackpoint>
          <Trackpoint>
            <Time>2020-05-25T05:38:21.000Z</Time>
            <Position>
              <LatitudeDegrees>38.18633037619292736053466796875</LatitudeDegrees>
              <LongitudeDegrees>-1.1347804404795169830322265625</LongitudeDegrees>
            </Position>
            <AltitudeMeters>228.8000030517578125</AltitudeMeters>
            <DistanceMeters>NAN</DistanceMeters>
          </Trackpoint>
          <Trackpoint>
            <Time>2020-05-25T05:38:22.000Z</Time>
            <Position>
              <LatitudeDegrees>38.186352252960205078125</LatitudeDegrees>
              <LongitudeDegrees>-1.13484556786715984344482421875</LongitudeDegrees>
            </Position>
            <AltitudeMeters>228.8000030517578125</AltitudeMeters>
            <DistanceMeters>NAN</DistanceMeters>
          </Trackpoint>
          <Trackpoint>
            <Time>2020-05-25T05:38:23.000Z</Time>
            <Position>
              <LatitudeDegrees>38.18637412972748279571533203125</LatitudeDegrees>
              <LongitudeDegrees>-1.1349105276167392730712890625</LongitudeDegrees>
            </Position>
            <AltitudeMeters>229</AltitudeMeters>
            <DistanceMeters>NAN</DistanceMeters>
          </Trackpoint>
          <Trackpoint>
            <Time>2020-05-25T05:38:24.000Z</Time>
            <Position>
              <LatitudeDegrees>38.18641863763332366943359375</LatitudeDegrees>
              <LongitudeDegrees>-1.13504019565880298614501953125</LongitudeDegrees>
            </Position>
            <AltitudeMeters>229.1999969482421875</AltitudeMeters>
            <DistanceMeters>NAN</DistanceMeters>
          </Trackpoint>
          <Trackpoint>
            <Time>2020-05-25T05:38:25.000Z</Time>
            <Position>
              <LatitudeDegrees>38.18641863763332366943359375</LatitudeDegrees>
              <LongitudeDegrees>-1.13504019565880298614501953125</LongitudeDegrees>
            </Position>
            <AltitudeMeters>229.1999969482421875</AltitudeMeters>
            <DistanceMeters>NAN</DistanceMeters>
          </Trackpoint>
          <Trackpoint>
            <Time>2020-05-25T05:38:26.000Z</Time>
            <Position>
              <LatitudeDegrees>38.18646247498691082000732421875</LatitudeDegrees>
              <LongitudeDegrees>-1.13517053425312042236328125</LongitudeDegrees>
            </Position>
            <AltitudeMeters>229.399993896484375</AltitudeMeters>
            <DistanceMeters>NAN</DistanceMeters>
          </Trackpoint>
          <Trackpoint>
            <Time>2020-05-25T05:38:27.000Z</Time>
            <Position>
              <LatitudeDegrees>38.18646247498691082000732421875</LatitudeDegrees>
              <LongitudeDegrees>-1.13517053425312042236328125</LongitudeDegrees>
            </Position>
            <AltitudeMeters>229.399993896484375</AltitudeMeters>
            <DistanceMeters>NAN</DistanceMeters>
          </Trackpoint>
          <Trackpoint>
            <Time>2020-05-25T05:38:28.000Z</Time>
            <Position>
              <LatitudeDegrees>38.186483681201934814453125</LatitudeDegrees>
              <LongitudeDegrees>-1.13523666746914386749267578125</LongitudeDegrees>
            </Position>
            <AltitudeMeters>229.600006103515625</AltitudeMeters>
            <DistanceMeters>NAN</DistanceMeters>
          </Trackpoint>
          <Trackpoint>
            <Time>2020-05-25T05:38:29.000Z</Time>
            <Position>
              <LatitudeDegrees>38.186504803597927093505859375</LatitudeDegrees>
              <LongitudeDegrees>-1.13530288450419902801513671875</LongitudeDegrees>
            </Position>
            <AltitudeMeters>229.600006103515625</AltitudeMeters>
            <DistanceMeters>NAN</DistanceMeters>
          </Trackpoint>
          <Trackpoint>
            <Time>2020-05-25T05:38:30.000Z</Time>
            <Position>
              <LatitudeDegrees>38.18652751855552196502685546875</LatitudeDegrees>
              <LongitudeDegrees>-1.13536859862506389617919921875</LongitudeDegrees>
            </Position>
            <AltitudeMeters>229.600006103515625</AltitudeMeters>
            <DistanceMeters>NAN</DistanceMeters>
          </Trackpoint>
          <Trackpoint>
            <Time>2020-05-25T05:38:31.000Z</Time>
            <Position>
              <LatitudeDegrees>38.18655082024633884429931640625</LatitudeDegrees>
              <LongitudeDegrees>-1.13543414510786533355712890625</LongitudeDegrees>
            </Position>
            <AltitudeMeters>229.8000030517578125</AltitudeMeters>
            <DistanceMeters>NAN</DistanceMeters>
          </Trackpoint>
          <Trackpoint>
            <Time>2020-05-25T05:38:32.000Z</Time>
            <Position>
              <LatitudeDegrees>38.1865747086703777313232421875</LatitudeDegrees>
              <LongitudeDegrees>-1.135499440133571624755859375</LongitudeDegrees>
            </Position>
            <AltitudeMeters>229.8000030517578125</AltitudeMeters>
            <DistanceMeters>NAN</DistanceMeters>
          </Trackpoint>
          <Trackpoint>
            <Time>2020-05-25T05:38:33.000Z</Time>
            <Position>
              <LatitudeDegrees>38.18660027347505092620849609375</LatitudeDegrees>
              <LongitudeDegrees>-1.1355639807879924774169921875</LongitudeDegrees>
            </Position>
            <AltitudeMeters>229.8000030517578125</AltitudeMeters>
            <DistanceMeters>NAN</DistanceMeters>
          </Trackpoint>
          <Trackpoint>
            <Time>2020-05-25T05:38:34.000Z</Time>
            <Position>
              <LatitudeDegrees>38.186627514660358428955078125</LatitudeDegrees>
              <LongitudeDegrees>-1.13562743179500102996826171875</LongitudeDegrees>
            </Position>
            <AltitudeMeters>230</AltitudeMeters>
            <DistanceMeters>NAN</DistanceMeters>
          </Trackpoint>
          <Trackpoint>
            <Time>2020-05-25T05:38:35.000Z</Time>
            <Position>
              <LatitudeDegrees>38.1866551749408245086669921875</LatitudeDegrees>
              <LongitudeDegrees>-1.135690547525882720947265625</LongitudeDegrees>
            </Position>
            <AltitudeMeters>230</AltitudeMeters>
            <DistanceMeters>NAN</DistanceMeters>
          </Trackpoint>
          <Trackpoint>
            <Time>2020-05-25T05:38:36.000Z</Time>
            <Position>
              <LatitudeDegrees>38.18668409250676631927490234375</LatitudeDegrees>
              <LongitudeDegrees>-1.1357530765235424041748046875</LongitudeDegrees>
            </Position>
            <AltitudeMeters>230.1999969482421875</AltitudeMeters>
            <DistanceMeters>NAN</DistanceMeters>
          </Trackpoint>
          <Trackpoint>
            <Time>2020-05-25T05:38:37.000Z</Time>
            <Position>
              <LatitudeDegrees>38.1867135129868984222412109375</LatitudeDegrees>
              <LongitudeDegrees>-1.135815270245075225830078125</LongitudeDegrees>
            </Position>
            <AltitudeMeters>230.1999969482421875</AltitudeMeters>
            <DistanceMeters>NAN</DistanceMeters>
          </Trackpoint>
          <Trackpoint>
            <Time>2020-05-25T05:38:38.000Z</Time>
            <Position>
              <LatitudeDegrees>38.18674410693347454071044921875</LatitudeDegrees>
              <LongitudeDegrees>-1.13587637431919574737548828125</LongitudeDegrees>
            </Position>
            <AltitudeMeters>230.399993896484375</AltitudeMeters>
            <DistanceMeters>NAN</DistanceMeters>
          </Trackpoint>
          <Trackpoint>
            <Time>2020-05-25T05:38:39.000Z</Time>
            <Position>
              <LatitudeDegrees>38.18677595816552639007568359375</LatitudeDegrees>
              <LongitudeDegrees>-1.13593605346977710723876953125</LongitudeDegrees>
            </Position>
            <AltitudeMeters>230.399993896484375</AltitudeMeters>
            <DistanceMeters>NAN</DistanceMeters>
          </Trackpoint>
          <Trackpoint>
            <Time>2020-05-25T05:38:40.000Z</Time>
            <Position>
              <LatitudeDegrees>38.18680931814014911651611328125</LatitudeDegrees>
              <LongitudeDegrees>-1.1359944753348827362060546875</LongitudeDegrees>
            </Position>
            <AltitudeMeters>230.600006103515625</AltitudeMeters>
            <DistanceMeters>NAN</DistanceMeters>
          </Trackpoint>
          <Trackpoint>
            <Time>2020-05-25T05:38:41.000Z</Time>
            <Position>
              <LatitudeDegrees>38.186843097209930419921875</LatitudeDegrees>
              <LongitudeDegrees>-1.1360524781048297882080078125</LongitudeDegrees>
            </Position>
            <AltitudeMeters>230.600006103515625</AltitudeMeters>
            <DistanceMeters>NAN</DistanceMeters>
          </Trackpoint>
          <Trackpoint>
            <Time>2020-05-25T05:38:42.000Z</Time>
            <Position>
              <LatitudeDegrees>38.18687754683196544647216796875</LatitudeDegrees>
              <LongitudeDegrees>-1.13611022941768169403076171875</LongitudeDegrees>
            </Position>
            <AltitudeMeters>230.600006103515625</AltitudeMeters>
            <DistanceMeters>NAN</DistanceMeters>
          </Trackpoint>
          <Trackpoint>
            <Time>2020-05-25T05:38:43.000Z</Time>
            <Position>
              <LatitudeDegrees>38.18691216409206390380859375</LatitudeDegrees>
              <LongitudeDegrees>-1.1361684836447238922119140625</LongitudeDegrees>
            </Position>
            <AltitudeMeters>230.8000030517578125</AltitudeMeters>
            <DistanceMeters>NAN</DistanceMeters>
          </Trackpoint>
          <Trackpoint>
            <Time>2020-05-25T05:38:44.000Z</Time>
            <Position>
              <LatitudeDegrees>38.18694711662828922271728515625</LatitudeDegrees>
              <LongitudeDegrees>-1.136226654052734375</LongitudeDegrees>
            </Position>
            <AltitudeMeters>230.8000030517578125</AltitudeMeters>
            <DistanceMeters>NAN</DistanceMeters>
          </Trackpoint>
          <Trackpoint>
            <Time>2020-05-25T05:38:45.000Z</Time>
            <Position>
              <LatitudeDegrees>38.1869820691645145416259765625</LatitudeDegrees>
              <LongitudeDegrees>-1.13628390245139598846435546875</LongitudeDegrees>
            </Position>
            <AltitudeMeters>230.8000030517578125</AltitudeMeters>
            <DistanceMeters>NAN</DistanceMeters>
          </Trackpoint>
          <Trackpoint>
            <Time>2020-05-25T05:38:46.000Z</Time>
            <Position>
              <LatitudeDegrees>38.1870172731578350067138671875</LatitudeDegrees>
              <LongitudeDegrees>-1.13634022884070873260498046875</LongitudeDegrees>
            </Position>
            <AltitudeMeters>231</AltitudeMeters>
            <DistanceMeters>NAN</DistanceMeters>
          </Trackpoint>
          <Trackpoint>
            <Time>2020-05-25T05:38:47.000Z</Time>
            <Position>
              <LatitudeDegrees>38.1870528124272823333740234375</LatitudeDegrees>
              <LongitudeDegrees>-1.136396639049053192138671875</LongitudeDegrees>
            </Position>
            <AltitudeMeters>231</AltitudeMeters>
            <DistanceMeters>NAN</DistanceMeters>
          </Trackpoint>
          <Trackpoint>
            <Time>2020-05-25T05:38:48.000Z</Time>
            <Position>
              <LatitudeDegrees>38.18708826787769794464111328125</LatitudeDegrees>
              <LongitudeDegrees>-1.136452965438365936279296875</LongitudeDegrees>
            </Position>
            <AltitudeMeters>231.1999969482421875</AltitudeMeters>
            <DistanceMeters>NAN</DistanceMeters>
          </Trackpoint>
          <Trackpoint>
            <Time>2020-05-25T05:38:49.000Z</Time>
            <Position>
              <LatitudeDegrees>38.18712330423295497894287109375</LatitudeDegrees>
              <LongitudeDegrees>-1.1365094594657421112060546875</LongitudeDegrees>
            </Position>
            <AltitudeMeters>231.1999969482421875</AltitudeMeters>
            <DistanceMeters>NAN</DistanceMeters>
          </Trackpoint>
          <Trackpoint>
            <Time>2020-05-25T05:38:50.000Z</Time>
            <Position>
              <LatitudeDegrees>38.18715817295014858245849609375</LatitudeDegrees>
              <LongitudeDegrees>-1.13656670786440372467041015625</LongitudeDegrees>
            </Position>
            <AltitudeMeters>231.399993896484375</AltitudeMeters>
            <DistanceMeters>NAN</DistanceMeters>
          </Trackpoint>
          <Trackpoint>
            <Time>2020-05-25T05:38:51.000Z</Time>
            <Position>
              <LatitudeDegrees>38.187192790210247039794921875</LatitudeDegrees>
              <LongitudeDegrees>-1.13662404008209705352783203125</LongitudeDegrees>
            </Position>
            <AltitudeMeters>231.399993896484375</AltitudeMeters>
            <DistanceMeters>NAN</DistanceMeters>
          </Trackpoint>
          <Trackpoint>
            <Time>2020-05-25T05:38:52.000Z</Time>
            <Position>
              <LatitudeDegrees>38.18722573108971118927001953125</LatitudeDegrees>
              <LongitudeDegrees>-1.13667952828109264373779296875</LongitudeDegrees>
            </Position>
            <AltitudeMeters>231.600006103515625</AltitudeMeters>
            <DistanceMeters>NAN</DistanceMeters>
          </Trackpoint>
          <Trackpoint>
            <Time>2020-05-25T05:38:53.000Z</Time>
            <Position>
              <LatitudeDegrees>38.18725741468369960784912109375</LatitudeDegrees>
              <LongitudeDegrees>-1.13673334009945392608642578125</LongitudeDegrees>
            </Position>
            <AltitudeMeters>231.600006103515625</AltitudeMeters>
            <DistanceMeters>NAN</DistanceMeters>
          </Trackpoint>
          <Trackpoint>
            <Time>2020-05-25T05:38:54.000Z</Time>
            <Position>
              <LatitudeDegrees>38.18728976882994174957275390625</LatitudeDegrees>
              <LongitudeDegrees>-1.1367874033749103546142578125</LongitudeDegrees>
            </Position>
            <AltitudeMeters>231.8000030517578125</AltitudeMeters>
            <DistanceMeters>NAN</DistanceMeters>
          </Trackpoint>
          <Trackpoint>
            <Time>2020-05-25T05:38:55.000Z</Time>
            <Position>
              <LatitudeDegrees>38.187322206795215606689453125</LatitudeDegrees>
              <LongitudeDegrees>-1.1368413828313350677490234375</LongitudeDegrees>
            </Position>
            <AltitudeMeters>231.8000030517578125</AltitudeMeters>
            <DistanceMeters>NAN</DistanceMeters>
          </Trackpoint>
          <Trackpoint>
            <Time>2020-05-25T05:38:56.000Z</Time>
            <Position>
              <LatitudeDegrees>38.18735548295080661773681640625</LatitudeDegrees>
              <LongitudeDegrees>-1.136894859373569488525390625</LongitudeDegrees>
            </Position>
            <AltitudeMeters>232</AltitudeMeters>
            <DistanceMeters>NAN</DistanceMeters>
          </Trackpoint>
          <Trackpoint>
            <Time>2020-05-25T05:38:57.000Z</Time>
            <Position>
              <LatitudeDegrees>38.18738934583961963653564453125</LatitudeDegrees>
              <LongitudeDegrees>-1.136948168277740478515625</LongitudeDegrees>
            </Position>
            <AltitudeMeters>232.1999969482421875</AltitudeMeters>
            <DistanceMeters>NAN</DistanceMeters>
          </Trackpoint>
          <Trackpoint>
            <Time>2020-05-25T05:38:58.000Z</Time>
            <Position>
              <LatitudeDegrees>38.18742304109036922454833984375</LatitudeDegrees>
              <LongitudeDegrees>-1.1370029859244823455810546875</LongitudeDegrees>
            </Position>
            <AltitudeMeters>232.399993896484375</AltitudeMeters>
            <DistanceMeters>NAN</DistanceMeters>
          </Trackpoint>
          <Trackpoint>
            <Time>2020-05-25T05:38:59.000Z</Time>
            <Position>
              <LatitudeDegrees>38.18745623342692852020263671875</LatitudeDegrees>
              <LongitudeDegrees>-1.1370586417615413665771484375</LongitudeDegrees>
            </Position>
            <AltitudeMeters>232.600006103515625</AltitudeMeters>
            <DistanceMeters>NAN</DistanceMeters>
          </Trackpoint>
          <Trackpoint>
            <Time>2020-05-25T05:39:00.000Z</Time>
            <Position>
              <LatitudeDegrees>38.18748959340155124664306640625</LatitudeDegrees>
              <LongitudeDegrees>-1.137113459408283233642578125</LongitudeDegrees>
            </Position>
            <AltitudeMeters>232.8000030517578125</AltitudeMeters>
            <DistanceMeters>NAN</DistanceMeters>
          </Trackpoint>
          <Trackpoint>
            <Time>2020-05-25T05:39:01.000Z</Time>
            <Position>
              <LatitudeDegrees>38.18752194754779338836669921875</LatitudeDegrees>
              <LongitudeDegrees>-1.1371682770550251007080078125</LongitudeDegrees>
            </Position>
            <AltitudeMeters>233</AltitudeMeters>
            <DistanceMeters>NAN</DistanceMeters>
          </Trackpoint>
          <Trackpoint>
            <Time>2020-05-25T05:39:02.000Z</Time>
            <Position>
              <LatitudeDegrees>38.187553882598876953125</LatitudeDegrees>
              <LongitudeDegrees>-1.1372239328920841217041015625</LongitudeDegrees>
            </Position>
            <AltitudeMeters>233.1999969482421875</AltitudeMeters>
            <DistanceMeters>NAN</DistanceMeters>
          </Trackpoint>
          <Trackpoint>
            <Time>2020-05-25T05:39:03.000Z</Time>
            <Position>
              <LatitudeDegrees>38.1875862367451190948486328125</LatitudeDegrees>
              <LongitudeDegrees>-1.13727916963398456573486328125</LongitudeDegrees>
            </Position>
            <AltitudeMeters>233.399993896484375</AltitudeMeters>
            <DistanceMeters>NAN</DistanceMeters>
          </Trackpoint>
          <Trackpoint>
            <Time>2020-05-25T05:39:04.000Z</Time>
            <Position>
              <LatitudeDegrees>38.18761934526264667510986328125</LatitudeDegrees>
              <LongitudeDegrees>-1.13733298145234584808349609375</LongitudeDegrees>
            </Position>
            <AltitudeMeters>233.399993896484375</AltitudeMeters>
            <DistanceMeters>NAN</DistanceMeters>
          </Trackpoint>
          <Trackpoint>
            <Time>2020-05-25T05:39:05.000Z</Time>
            <Position>
              <LatitudeDegrees>38.18765337578952312469482421875</LatitudeDegrees>
              <LongitudeDegrees>-1.1373848654329776763916015625</LongitudeDegrees>
            </Position>
            <AltitudeMeters>233.600006103515625</AltitudeMeters>
            <DistanceMeters>NAN</DistanceMeters>
          </Trackpoint>
          <Trackpoint>
            <Time>2020-05-25T05:39:06.000Z</Time>
            <Position>
              <LatitudeDegrees>38.18768807686865329742431640625</LatitudeDegrees>
              <LongitudeDegrees>-1.13743524067103862762451171875</LongitudeDegrees>
            </Position>
            <AltitudeMeters>233.8000030517578125</AltitudeMeters>
            <DistanceMeters>NAN</DistanceMeters>
          </Trackpoint>
          <Trackpoint>
            <Time>2020-05-25T05:39:07.000Z</Time>
            <Position>
              <LatitudeDegrees>38.187722526490688323974609375</LatitudeDegrees>
              <LongitudeDegrees>-1.13748569972813129425048828125</LongitudeDegrees>
            </Position>
            <AltitudeMeters>234</AltitudeMeters>
            <DistanceMeters>NAN</DistanceMeters>
          </Trackpoint>
          <Trackpoint>
            <Time>2020-05-25T05:39:08.000Z</Time>
            <Position>
              <LatitudeDegrees>38.187756054103374481201171875</LatitudeDegrees>
              <LongitudeDegrees>-1.1375370807945728302001953125</LongitudeDegrees>
            </Position>
            <AltitudeMeters>234.1999969482421875</AltitudeMeters>
            <DistanceMeters>NAN</DistanceMeters>
          </Trackpoint>
          <Trackpoint>
            <Time>2020-05-25T05:39:09.000Z</Time>
            <Position>
              <LatitudeDegrees>38.18779050372540950775146484375</LatitudeDegrees>
              <LongitudeDegrees>-1.1375878751277923583984375</LongitudeDegrees>
            </Position>
            <AltitudeMeters>234.1999969482421875</AltitudeMeters>
            <DistanceMeters>NAN</DistanceMeters>
          </Trackpoint>
          <Trackpoint>
            <Time>2020-05-25T05:39:10.000Z</Time>
            <Position>
              <LatitudeDegrees>38.1878256238996982574462890625</LatitudeDegrees>
              <LongitudeDegrees>-1.13763816654682159423828125</LongitudeDegrees>
            </Position>
            <AltitudeMeters>234.399993896484375</AltitudeMeters>
            <DistanceMeters>NAN</DistanceMeters>
          </Trackpoint>
          <Trackpoint>
            <Time>2020-05-25T05:39:11.000Z</Time>
            <Position>
              <LatitudeDegrees>38.18786007352173328399658203125</LatitudeDegrees>
              <LongitudeDegrees>-1.13768937997519969940185546875</LongitudeDegrees>
            </Position>
            <AltitudeMeters>234.399993896484375</AltitudeMeters>
            <DistanceMeters>NAN</DistanceMeters>
          </Trackpoint>
          <Trackpoint>
            <Time>2020-05-25T05:39:12.000Z</Time>
            <Position>
              <LatitudeDegrees>38.1878946907818317413330078125</LatitudeDegrees>
              <LongitudeDegrees>-1.137740425765514373779296875</LongitudeDegrees>
            </Position>
            <AltitudeMeters>234.600006103515625</AltitudeMeters>
            <DistanceMeters>NAN</DistanceMeters>
          </Trackpoint>
          <Trackpoint>
            <Time>2020-05-25T05:39:13.000Z</Time>
            <Position>
              <LatitudeDegrees>38.18792981095612049102783203125</LatitudeDegrees>
              <LongitudeDegrees>-1.1377908848226070404052734375</LongitudeDegrees>
            </Position>
            <AltitudeMeters>234.600006103515625</AltitudeMeters>
            <DistanceMeters>NAN</DistanceMeters>
          </Trackpoint>
          <Trackpoint>
            <Time>2020-05-25T05:39:14.000Z</Time>
            <Position>
              <LatitudeDegrees>38.18800055421888828277587890625</LatitudeDegrees>
              <LongitudeDegrees>-1.1378894560039043426513671875</LongitudeDegrees>
            </Position>
            <AltitudeMeters>234.8000030517578125</AltitudeMeters>
            <DistanceMeters>NAN</DistanceMeters>
          </Trackpoint>
          <Trackpoint>
            <Time>2020-05-25T05:39:15.000Z</Time>
            <Position>
              <LatitudeDegrees>38.18800055421888828277587890625</LatitudeDegrees>
              <LongitudeDegrees>-1.1378894560039043426513671875</LongitudeDegrees>
            </Position>
            <AltitudeMeters>234.8000030517578125</AltitudeMeters>
            <DistanceMeters>NAN</DistanceMeters>
          </Trackpoint>
          <Trackpoint>
            <Time>2020-05-25T05:39:16.000Z</Time>
            <Position>
              <LatitudeDegrees>38.18803559057414531707763671875</LatitudeDegrees>
              <LongitudeDegrees>-1.13793849013745784759521484375</LongitudeDegrees>
            </Position>
            <AltitudeMeters>235</AltitudeMeters>
            <DistanceMeters>NAN</DistanceMeters>
          </Trackpoint>
          <Trackpoint>
            <Time>2020-05-25T05:39:17.000Z</Time>
            <Position>
              <LatitudeDegrees>38.1880700401961803436279296875</LatitudeDegrees>
              <LongitudeDegrees>-1.13798777572810649871826171875</LongitudeDegrees>
            </Position>
            <AltitudeMeters>235.1999969482421875</AltitudeMeters>
            <DistanceMeters>NAN</DistanceMeters>
          </Trackpoint>
          <Trackpoint>
            <Time>2020-05-25T05:39:18.000Z</Time>
            <Position>
              <LatitudeDegrees>38.188104741275310516357421875</LatitudeDegrees>
              <LongitudeDegrees>-1.13803605549037456512451171875</LongitudeDegrees>
            </Position>
            <AltitudeMeters>235.1999969482421875</AltitudeMeters>
            <DistanceMeters>NAN</DistanceMeters>
          </Trackpoint>
          <Trackpoint>
            <Time>2020-05-25T05:39:19.000Z</Time>
            <Position>
              <LatitudeDegrees>38.188139609992504119873046875</LatitudeDegrees>
              <LongitudeDegrees>-1.13808383233845233917236328125</LongitudeDegrees>
            </Position>
            <AltitudeMeters>235.399993896484375</AltitudeMeters>
            <DistanceMeters>NAN</DistanceMeters>
          </Trackpoint>
          <Trackpoint>
            <Time>2020-05-25T05:39:20.000Z</Time>
            <Position>
              <LatitudeDegrees>38.18817414343357086181640625</LatitudeDegrees>
              <LongitudeDegrees>-1.1381323635578155517578125</LongitudeDegrees>
            </Position>
            <AltitudeMeters>235.399993896484375</AltitudeMeters>
            <DistanceMeters>NAN</DistanceMeters>
          </Trackpoint>
          <Trackpoint>
            <Time>2020-05-25T05:39:21.000Z</Time>
            <Position>
              <LatitudeDegrees>38.1882091797888278961181640625</LatitudeDegrees>
              <LongitudeDegrees>-1.1381804756820201873779296875</LongitudeDegrees>
            </Position>
            <AltitudeMeters>235.600006103515625</AltitudeMeters>
            <DistanceMeters>NAN</DistanceMeters>
          </Trackpoint>
          <Trackpoint>
            <Time>2020-05-25T05:39:22.000Z</Time>
            <Position>
              <LatitudeDegrees>38.18824396468698978424072265625</LatitudeDegrees>
              <LongitudeDegrees>-1.13822934217751026153564453125</LongitudeDegrees>
            </Position>
            <AltitudeMeters>235.600006103515625</AltitudeMeters>
            <DistanceMeters>NAN</DistanceMeters>
          </Trackpoint>
          <Trackpoint>
            <Time>2020-05-25T05:39:23.000Z</Time>
            <Position>
              <LatitudeDegrees>38.188278414309024810791015625</LatitudeDegrees>
              <LongitudeDegrees>-1.1382790468633174896240234375</LongitudeDegrees>
            </Position>
            <AltitudeMeters>235.8000030517578125</AltitudeMeters>
            <DistanceMeters>NAN</DistanceMeters>
          </Trackpoint>
          <Trackpoint>
            <Time>2020-05-25T05:39:24.000Z</Time>
            <Position>
              <LatitudeDegrees>38.18834756501019001007080078125</LatitudeDegrees>
              <LongitudeDegrees>-1.13837652839720249176025390625</LongitudeDegrees>
            </Position>
            <AltitudeMeters>236</AltitudeMeters>
            <DistanceMeters>NAN</DistanceMeters>
          </Trackpoint>
          <Trackpoint>
            <Time>2020-05-25T05:39:25.000Z</Time>
            <Position>
              <LatitudeDegrees>38.18834756501019001007080078125</LatitudeDegrees>
              <LongitudeDegrees>-1.13837652839720249176025390625</LongitudeDegrees>
            </Position>
            <AltitudeMeters>236.1999969482421875</AltitudeMeters>
            <DistanceMeters>NAN</DistanceMeters>
          </Trackpoint>
          <Trackpoint>
            <Time>2020-05-25T05:39:26.000Z</Time>
            <Position>
              <LatitudeDegrees>38.1884150393307209014892578125</LatitudeDegrees>
              <LongitudeDegrees>-1.1384731717407703399658203125</LongitudeDegrees>
            </Position>
            <AltitudeMeters>236.399993896484375</AltitudeMeters>
            <DistanceMeters>NAN</DistanceMeters>
          </Trackpoint>
          <Trackpoint>
            <Time>2020-05-25T05:39:27.000Z</Time>
            <Position>
              <LatitudeDegrees>38.1884150393307209014892578125</LatitudeDegrees>
              <LongitudeDegrees>-1.1384731717407703399658203125</LongitudeDegrees>
            </Position>
            <AltitudeMeters>236.600006103515625</AltitudeMeters>
            <DistanceMeters>NAN</DistanceMeters>
          </Trackpoint>
          <Trackpoint>
            <Time>2020-05-25T05:39:28.000Z</Time>
            <Position>
              <LatitudeDegrees>38.1884483993053436279296875</LatitudeDegrees>
              <LongitudeDegrees>-1.13852069713175296783447265625</LongitudeDegrees>
            </Position>
            <AltitudeMeters>236.600006103515625</AltitudeMeters>
            <DistanceMeters>NAN</DistanceMeters>
          </Trackpoint>
          <Trackpoint>
            <Time>2020-05-25T05:39:29.000Z</Time>
            <Position>
              <LatitudeDegrees>38.18848184309899806976318359375</LatitudeDegrees>
              <LongitudeDegrees>-1.13856797106564044952392578125</LongitudeDegrees>
            </Position>
            <AltitudeMeters>236.600006103515625</AltitudeMeters>
            <DistanceMeters>NAN</DistanceMeters>
          </Trackpoint>
          <Trackpoint>
            <Time>2020-05-25T05:39:30.000Z</Time>
            <Position>
              <LatitudeDegrees>38.188515119254589080810546875</LatitudeDegrees>
              <LongitudeDegrees>-1.13861558027565479278564453125</LongitudeDegrees>
            </Position>
            <AltitudeMeters>236.8000030517578125</AltitudeMeters>
            <DistanceMeters>NAN</DistanceMeters>
          </Trackpoint>
          <Trackpoint>
            <Time>2020-05-25T05:39:31.000Z</Time>
            <Position>
              <LatitudeDegrees>38.18854889832437038421630859375</LatitudeDegrees>
              <LongitudeDegrees>-1.13866277039051055908203125</LongitudeDegrees>
            </Position>
            <AltitudeMeters>237</AltitudeMeters>
            <DistanceMeters>NAN</DistanceMeters>
          </Trackpoint>
          <Trackpoint>
            <Time>2020-05-25T05:39:32.000Z</Time>
            <Position>
              <LatitudeDegrees>38.18858326412737369537353515625</LatitudeDegrees>
              <LongitudeDegrees>-1.13870895467698574066162109375</LongitudeDegrees>
            </Position>
            <AltitudeMeters>237</AltitudeMeters>
            <DistanceMeters>NAN</DistanceMeters>
          </Trackpoint>
          <Trackpoint>
            <Time>2020-05-25T05:39:33.000Z</Time>
            <Position>
              <LatitudeDegrees>38.1886173784732818603515625</LatitudeDegrees>
              <LongitudeDegrees>-1.1387554742395877838134765625</LongitudeDegrees>
            </Position>
            <AltitudeMeters>237</AltitudeMeters>
            <DistanceMeters>NAN</DistanceMeters>
          </Trackpoint>
          <Trackpoint>
            <Time>2020-05-25T05:39:34.000Z</Time>
            <Position>
              <LatitudeDegrees>38.1886517442762851715087890625</LatitudeDegrees>
              <LongitudeDegrees>-1.13880224525928497314453125</LongitudeDegrees>
            </Position>
            <AltitudeMeters>237.1999969482421875</AltitudeMeters>
            <DistanceMeters>NAN</DistanceMeters>
          </Trackpoint>
          <Trackpoint>
            <Time>2020-05-25T05:39:35.000Z</Time>
            <Position>
              <LatitudeDegrees>38.188686110079288482666015625</LatitudeDegrees>
              <LongitudeDegrees>-1.13884918391704559326171875</LongitudeDegrees>
            </Position>
            <AltitudeMeters>237.1999969482421875</AltitudeMeters>
            <DistanceMeters>NAN</DistanceMeters>
          </Trackpoint>
          <Trackpoint>
            <Time>2020-05-25T05:39:36.000Z</Time>
            <Position>
              <LatitudeDegrees>38.18871988914906978607177734375</LatitudeDegrees>
              <LongitudeDegrees>-1.138896457850933074951171875</LongitudeDegrees>
            </Position>
            <AltitudeMeters>237.399993896484375</AltitudeMeters>
            <DistanceMeters>NAN</DistanceMeters>
          </Trackpoint>
          <Trackpoint>
            <Time>2020-05-25T05:39:37.000Z</Time>
            <Position>
              <LatitudeDegrees>38.18875324912369251251220703125</LatitudeDegrees>
              <LongitudeDegrees>-1.13894415087997913360595703125</LongitudeDegrees>
            </Position>
            <AltitudeMeters>237.600006103515625</AltitudeMeters>
            <DistanceMeters>NAN</DistanceMeters>
          </Trackpoint>
          <Trackpoint>
            <Time>2020-05-25T05:39:38.000Z</Time>
            <Position>
              <LatitudeDegrees>38.188786022365093231201171875</LatitudeDegrees>
              <LongitudeDegrees>-1.138992346823215484619140625</LongitudeDegrees>
            </Position>
            <AltitudeMeters>237.8000030517578125</AltitudeMeters>
            <DistanceMeters>NAN</DistanceMeters>
          </Trackpoint>
          <Trackpoint>
            <Time>2020-05-25T05:39:39.000Z</Time>
            <Position>
              <LatitudeDegrees>38.1888187117874622344970703125</LatitudeDegrees>
              <LongitudeDegrees>-1.13904087804257869720458984375</LongitudeDegrees>
            </Position>
            <AltitudeMeters>237.8000030517578125</AltitudeMeters>
            <DistanceMeters>NAN</DistanceMeters>
          </Trackpoint>
          <Trackpoint>
            <Time>2020-05-25T05:39:40.000Z</Time>
            <Position>
              <LatitudeDegrees>38.1888507306575775146484375</LatitudeDegrees>
              <LongitudeDegrees>-1.1390894092619419097900390625</LongitudeDegrees>
            </Position>
            <AltitudeMeters>238</AltitudeMeters>
            <DistanceMeters>NAN</DistanceMeters>
          </Trackpoint>
          <Trackpoint>
            <Time>2020-05-25T05:39:41.000Z</Time>
            <Position>
              <LatitudeDegrees>38.1888814084231853485107421875</LatitudeDegrees>
              <LongitudeDegrees>-1.1391386948525905609130859375</LongitudeDegrees>
            </Position>
            <AltitudeMeters>238.1999969482421875</AltitudeMeters>
            <DistanceMeters>NAN</DistanceMeters>
          </Trackpoint>
          <Trackpoint>
            <Time>2020-05-25T05:39:42.000Z</Time>
            <Position>
              <LatitudeDegrees>38.18891133181750774383544921875</LatitudeDegrees>
              <LongitudeDegrees>-1.13918923772871494293212890625</LongitudeDegrees>
            </Position>
            <AltitudeMeters>238.399993896484375</AltitudeMeters>
            <DistanceMeters>NAN</DistanceMeters>
          </Trackpoint>
          <Trackpoint>
            <Time>2020-05-25T05:39:43.000Z</Time>
            <Position>
              <LatitudeDegrees>38.18894167430698871612548828125</LatitudeDegrees>
              <LongitudeDegrees>-1.1392401158809661865234375</LongitudeDegrees>
            </Position>
            <AltitudeMeters>238.399993896484375</AltitudeMeters>
            <DistanceMeters>NAN</DistanceMeters>
          </Trackpoint>
          <Trackpoint>
            <Time>2020-05-25T05:39:44.000Z</Time>
            <Position>
              <LatitudeDegrees>38.189002610743045806884765625</LatitudeDegrees>
              <LongitudeDegrees>-1.1393420398235321044921875</LongitudeDegrees>
            </Position>
            <AltitudeMeters>238.600006103515625</AltitudeMeters>
            <DistanceMeters>NAN</DistanceMeters>
          </Trackpoint>
          <Trackpoint>
            <Time>2020-05-25T05:39:45.000Z</Time>
            <Position>
              <LatitudeDegrees>38.189002610743045806884765625</LatitudeDegrees>
              <LongitudeDegrees>-1.1393420398235321044921875</LongitudeDegrees>
            </Position>
            <AltitudeMeters>238.8000030517578125</AltitudeMeters>
            <DistanceMeters>NAN</DistanceMeters>
          </Trackpoint>
          <Trackpoint>
            <Time>2020-05-25T05:39:46.000Z</Time>
            <Position>
              <LatitudeDegrees>38.1890331208705902099609375</LatitudeDegrees>
              <LongitudeDegrees>-1.13939476199448108673095703125</LongitudeDegrees>
            </Position>
            <AltitudeMeters>239</AltitudeMeters>
            <DistanceMeters>NAN</DistanceMeters>
          </Trackpoint>
          <Trackpoint>
            <Time>2020-05-25T05:39:47.000Z</Time>
            <Position>
              <LatitudeDegrees>38.18906220607459545135498046875</LatitudeDegrees>
              <LongitudeDegrees>-1.13944907672703266143798828125</LongitudeDegrees>
            </Position>
            <AltitudeMeters>239</AltitudeMeters>
            <DistanceMeters>NAN</DistanceMeters>
          </Trackpoint>
          <Trackpoint>
            <Time>2020-05-25T05:39:48.000Z</Time>
            <Position>
              <LatitudeDegrees>38.18909204564988613128662109375</LatitudeDegrees>
              <LongitudeDegrees>-1.13950389437377452850341796875</LongitudeDegrees>
            </Position>
            <AltitudeMeters>239.1999969482421875</AltitudeMeters>
            <DistanceMeters>NAN</DistanceMeters>
          </Trackpoint>
          <Trackpoint>
            <Time>2020-05-25T05:39:49.000Z</Time>
            <Position>
              <LatitudeDegrees>38.18912138231098651885986328125</LatitudeDegrees>
              <LongitudeDegrees>-1.13955904729664325714111328125</LongitudeDegrees>
            </Position>
            <AltitudeMeters>239.399993896484375</AltitudeMeters>
            <DistanceMeters>NAN</DistanceMeters>
          </Trackpoint>
          <Trackpoint>
            <Time>2020-05-25T05:39:50.000Z</Time>
            <Position>
              <LatitudeDegrees>38.18915004841983318328857421875</LatitudeDegrees>
              <LongitudeDegrees>-1.139615289866924285888671875</LongitudeDegrees>
            </Position>
            <AltitudeMeters>239.399993896484375</AltitudeMeters>
            <DistanceMeters>NAN</DistanceMeters>
          </Trackpoint>
          <Trackpoint>
            <Time>2020-05-25T05:39:51.000Z</Time>
            <Position>
              <LatitudeDegrees>38.18917720578610897064208984375</LatitudeDegrees>
              <LongitudeDegrees>-1.13967186771333217620849609375</LongitudeDegrees>
            </Position>
            <AltitudeMeters>239.600006103515625</AltitudeMeters>
            <DistanceMeters>NAN</DistanceMeters>
          </Trackpoint>
          <Trackpoint>
            <Time>2020-05-25T05:39:52.000Z</Time>
            <Position>
              <LatitudeDegrees>38.18920302204787731170654296875</LatitudeDegrees>
              <LongitudeDegrees>-1.1397284455597400665283203125</LongitudeDegrees>
            </Position>
            <AltitudeMeters>239.8000030517578125</AltitudeMeters>
            <DistanceMeters>NAN</DistanceMeters>
          </Trackpoint>
          <Trackpoint>
            <Time>2020-05-25T05:39:53.000Z</Time>
            <Position>
              <LatitudeDegrees>38.1892270781099796295166015625</LatitudeDegrees>
              <LongitudeDegrees>-1.1397857777774333953857421875</LongitudeDegrees>
            </Position>
            <AltitudeMeters>239.8000030517578125</AltitudeMeters>
            <DistanceMeters>NAN</DistanceMeters>
          </Trackpoint>
          <Trackpoint>
            <Time>2020-05-25T05:39:54.000Z</Time>
            <Position>
              <LatitudeDegrees>38.18924895487725734710693359375</LatitudeDegrees>
              <LongitudeDegrees>-1.13984503783285617828369140625</LongitudeDegrees>
            </Position>
            <AltitudeMeters>240</AltitudeMeters>
            <DistanceMeters>NAN</DistanceMeters>
          </Trackpoint>
          <Trackpoint>
            <Time>2020-05-25T05:39:55.000Z</Time>
            <Position>
              <LatitudeDegrees>38.1892683170735836029052734375</LatitudeDegrees>
              <LongitudeDegrees>-1.139904968440532684326171875</LongitudeDegrees>
            </Position>
            <AltitudeMeters>240</AltitudeMeters>
            <DistanceMeters>NAN</DistanceMeters>
          </Trackpoint>
          <Trackpoint>
            <Time>2020-05-25T05:39:56.000Z</Time>
            <Position>
              <LatitudeDegrees>38.18928591907024383544921875</LatitudeDegrees>
              <LongitudeDegrees>-1.139967329800128936767578125</LongitudeDegrees>
            </Position>
            <AltitudeMeters>240.1999969482421875</AltitudeMeters>
            <DistanceMeters>NAN</DistanceMeters>
          </Trackpoint>
          <Trackpoint>
            <Time>2020-05-25T05:39:57.000Z</Time>
            <Position>
              <LatitudeDegrees>38.1893028505146503448486328125</LatitudeDegrees>
              <LongitudeDegrees>-1.140030361711978912353515625</LongitudeDegrees>
            </Position>
            <AltitudeMeters>240.1999969482421875</AltitudeMeters>
            <DistanceMeters>NAN</DistanceMeters>
          </Trackpoint>
          <Trackpoint>
            <Time>2020-05-25T05:39:58.000Z</Time>
            <Position>
              <LatitudeDegrees>38.18931936286389827728271484375</LatitudeDegrees>
              <LongitudeDegrees>-1.1400935612618923187255859375</LongitudeDegrees>
            </Position>
            <AltitudeMeters>240.1999969482421875</AltitudeMeters>
            <DistanceMeters>NAN</DistanceMeters>
          </Trackpoint>
          <Trackpoint>
            <Time>2020-05-25T05:39:59.000Z</Time>
            <Position>
              <LatitudeDegrees>38.18933495320379734039306640625</LatitudeDegrees>
              <LongitudeDegrees>-1.1401582695543766021728515625</LongitudeDegrees>
            </Position>
            <AltitudeMeters>240.399993896484375</AltitudeMeters>
            <DistanceMeters>NAN</DistanceMeters>
          </Trackpoint>
          <Trackpoint>
            <Time>2020-05-25T05:40:00.000Z</Time>
            <Position>
              <LatitudeDegrees>38.18934953771531581878662109375</LatitudeDegrees>
              <LongitudeDegrees>-1.1402233131229877471923828125</LongitudeDegrees>
            </Position>
            <AltitudeMeters>240.600006103515625</AltitudeMeters>
            <DistanceMeters>NAN</DistanceMeters>
          </Trackpoint>
          <Trackpoint>
            <Time>2020-05-25T05:40:01.000Z</Time>
            <Position>
              <LatitudeDegrees>38.18936278112232685089111328125</LatitudeDegrees>
              <LongitudeDegrees>-1.14028818905353546142578125</LongitudeDegrees>
            </Position>
            <AltitudeMeters>240.8000030517578125</AltitudeMeters>
            <DistanceMeters>NAN</DistanceMeters>
          </Trackpoint>
          <Trackpoint>
            <Time>2020-05-25T05:40:02.000Z</Time>
            <Position>
              <LatitudeDegrees>38.18937535397708415985107421875</LatitudeDegrees>
              <LongitudeDegrees>-1.14035348407924175262451171875</LongitudeDegrees>
            </Position>
            <AltitudeMeters>240.8000030517578125</AltitudeMeters>
            <DistanceMeters>NAN</DistanceMeters>
          </Trackpoint>
          <Trackpoint>
            <Time>2020-05-25T05:40:03.000Z</Time>
            <Position>
              <LatitudeDegrees>38.18938775919377803802490234375</LatitudeDegrees>
              <LongitudeDegrees>-1.14041819237172603607177734375</LongitudeDegrees>
            </Position>
            <AltitudeMeters>241</AltitudeMeters>
            <DistanceMeters>NAN</DistanceMeters>
          </Trackpoint>
          <Trackpoint>
            <Time>2020-05-25T05:40:04.000Z</Time>
            <Position>
              <LatitudeDegrees>38.1894000805914402008056640625</LatitudeDegrees>
              <LongitudeDegrees>-1.14048223011195659637451171875</LongitudeDegrees>
            </Position>
            <AltitudeMeters>241</AltitudeMeters>
            <DistanceMeters>NAN</DistanceMeters>
          </Trackpoint>
          <Trackpoint>
            <Time>2020-05-25T05:40:05.000Z</Time>
            <Position>
              <LatitudeDegrees>38.1894124858081340789794921875</LatitudeDegrees>
              <LongitudeDegrees>-1.1405463516712188720703125</LongitudeDegrees>
            </Position>
            <AltitudeMeters>241</AltitudeMeters>
            <DistanceMeters>NAN</DistanceMeters>
          </Trackpoint>
          <Trackpoint>
            <Time>2020-05-25T05:40:06.000Z</Time>
            <Position>
              <LatitudeDegrees>38.18942564539611339569091796875</LatitudeDegrees>
              <LongitudeDegrees>-1.1406108923256397247314453125</LongitudeDegrees>
            </Position>
            <AltitudeMeters>241.1999969482421875</AltitudeMeters>
            <DistanceMeters>NAN</DistanceMeters>
          </Trackpoint>
          <Trackpoint>
            <Time>2020-05-25T05:40:07.000Z</Time>
            <Position>
              <LatitudeDegrees>38.18943905644118785858154296875</LatitudeDegrees>
              <LongitudeDegrees>-1.1406750977039337158203125</LongitudeDegrees>
            </Position>
            <AltitudeMeters>241.1999969482421875</AltitudeMeters>
            <DistanceMeters>NAN</DistanceMeters>
          </Trackpoint>
          <Trackpoint>
            <Time>2020-05-25T05:40:08.000Z</Time>
            <Position>
              <LatitudeDegrees>38.18946638144552707672119140625</LatitudeDegrees>
              <LongitudeDegrees>-1.14080526866018772125244140625</LongitudeDegrees>
            </Position>
            <AltitudeMeters>241.399993896484375</AltitudeMeters>
            <DistanceMeters>NAN</DistanceMeters>
          </Trackpoint>
          <Trackpoint>
            <Time>2020-05-25T05:40:09.000Z</Time>
            <Position>
              <LatitudeDegrees>38.18946638144552707672119140625</LatitudeDegrees>
              <LongitudeDegrees>-1.14080526866018772125244140625</LongitudeDegrees>
            </Position>
            <AltitudeMeters>241.399993896484375</AltitudeMeters>
            <DistanceMeters>NAN</DistanceMeters>
          </Trackpoint>
          <Trackpoint>
            <Time>2020-05-25T05:40:10.000Z</Time>
            <Position>
              <LatitudeDegrees>38.1894812174141407012939453125</LatitudeDegrees>
              <LongitudeDegrees>-1.14087064750492572784423828125</LongitudeDegrees>
            </Position>
            <AltitudeMeters>241.600006103515625</AltitudeMeters>
            <DistanceMeters>NAN</DistanceMeters>
          </Trackpoint>
          <Trackpoint>
            <Time>2020-05-25T05:40:11.000Z</Time>
            <Position>
              <LatitudeDegrees>38.18949622102081775665283203125</LatitudeDegrees>
              <LongitudeDegrees>-1.14093594253063201904296875</LongitudeDegrees>
            </Position>
            <AltitudeMeters>241.600006103515625</AltitudeMeters>
            <DistanceMeters>NAN</DistanceMeters>
          </Trackpoint>
          <Trackpoint>
            <Time>2020-05-25T05:40:12.000Z</Time>
            <Position>
              <LatitudeDegrees>38.1895268149673938751220703125</LatitudeDegrees>
              <LongitudeDegrees>-1.14106426946818828582763671875</LongitudeDegrees>
            </Position>
            <AltitudeMeters>241.600006103515625</AltitudeMeters>
            <DistanceMeters>NAN</DistanceMeters>
          </Trackpoint>
          <Trackpoint>
            <Time>2020-05-25T05:40:13.000Z</Time>
            <Position>
              <LatitudeDegrees>38.1895268149673938751220703125</LatitudeDegrees>
              <LongitudeDegrees>-1.14106426946818828582763671875</LongitudeDegrees>
            </Position>
            <AltitudeMeters>241.600006103515625</AltitudeMeters>
            <DistanceMeters>NAN</DistanceMeters>
          </Trackpoint>
          <Trackpoint>
            <Time>2020-05-25T05:40:14.000Z</Time>
            <Position>
              <LatitudeDegrees>38.18954198621213436126708984375</LatitudeDegrees>
              <LongitudeDegrees>-1.1411285586655139923095703125</LongitudeDegrees>
            </Position>
            <AltitudeMeters>241.600006103515625</AltitudeMeters>
            <DistanceMeters>NAN</DistanceMeters>
          </Trackpoint>
          <Trackpoint>
            <Time>2020-05-25T05:40:15.000Z</Time>
            <Position>
              <LatitudeDegrees>38.18955573253333568572998046875</LatitudeDegrees>
              <LongitudeDegrees>-1.141193099319934844970703125</LongitudeDegrees>
            </Position>
            <AltitudeMeters>241.8000030517578125</AltitudeMeters>
            <DistanceMeters>NAN</DistanceMeters>
          </Trackpoint>
          <Trackpoint>
            <Time>2020-05-25T05:40:16.000Z</Time>
            <Position>
              <LatitudeDegrees>38.18956729955971240997314453125</LatitudeDegrees>
              <LongitudeDegrees>-1.1412583105266094207763671875</LongitudeDegrees>
            </Position>
            <AltitudeMeters>241.8000030517578125</AltitudeMeters>
            <DistanceMeters>NAN</DistanceMeters>
          </Trackpoint>
          <Trackpoint>
            <Time>2020-05-25T05:40:17.000Z</Time>
            <Position>
              <LatitudeDegrees>38.1895774416625499725341796875</LatitudeDegrees>
              <LongitudeDegrees>-1.14132561720907688140869140625</LongitudeDegrees>
            </Position>
            <AltitudeMeters>242</AltitudeMeters>
            <DistanceMeters>NAN</DistanceMeters>
          </Trackpoint>
          <Trackpoint>
            <Time>2020-05-25T05:40:18.000Z</Time>
            <Position>
              <LatitudeDegrees>38.18958624266088008880615234375</LatitudeDegrees>
              <LongitudeDegrees>-1.14139501936733722686767578125</LongitudeDegrees>
            </Position>
            <AltitudeMeters>242</AltitudeMeters>
            <DistanceMeters>NAN</DistanceMeters>
          </Trackpoint>
          <Trackpoint>
            <Time>2020-05-25T05:40:19.000Z</Time>
            <Position>
              <LatitudeDegrees>38.18959378637373447418212890625</LatitudeDegrees>
              <LongitudeDegrees>-1.14146559499204158782958984375</LongitudeDegrees>
            </Position>
            <AltitudeMeters>242</AltitudeMeters>
            <DistanceMeters>NAN</DistanceMeters>
          </Trackpoint>
          <Trackpoint>
            <Time>2020-05-25T05:40:20.000Z</Time>
            <Position>
              <LatitudeDegrees>38.18960032425820827484130859375</LatitudeDegrees>
              <LongitudeDegrees>-1.1415362544357776641845703125</LongitudeDegrees>
            </Position>
            <AltitudeMeters>242.1999969482421875</AltitudeMeters>
            <DistanceMeters>NAN</DistanceMeters>
          </Trackpoint>
          <Trackpoint>
            <Time>2020-05-25T05:40:21.000Z</Time>
            <Position>
              <LatitudeDegrees>38.18960518576204776763916015625</LatitudeDegrees>
              <LongitudeDegrees>-1.14160716533660888671875</LongitudeDegrees>
            </Position>
            <AltitudeMeters>242.1999969482421875</AltitudeMeters>
            <DistanceMeters>NAN</DistanceMeters>
          </Trackpoint>
          <Trackpoint>
            <Time>2020-05-25T05:40:22.000Z</Time>
            <Position>
              <LatitudeDegrees>38.18960845470428466796875</LatitudeDegrees>
              <LongitudeDegrees>-1.1416787467896938323974609375</LongitudeDegrees>
            </Position>
            <AltitudeMeters>242.399993896484375</AltitudeMeters>
            <DistanceMeters>NAN</DistanceMeters>
          </Trackpoint>
          <Trackpoint>
            <Time>2020-05-25T05:40:23.000Z</Time>
            <Position>
              <LatitudeDegrees>38.18961180746555328369140625</LatitudeDegrees>
              <LongitudeDegrees>-1.14174990914762020111083984375</LongitudeDegrees>
            </Position>
            <AltitudeMeters>242.399993896484375</AltitudeMeters>
            <DistanceMeters>NAN</DistanceMeters>
          </Trackpoint>
          <Trackpoint>
            <Time>2020-05-25T05:40:24.000Z</Time>
            <Position>
              <LatitudeDegrees>38.189615495502948760986328125</LatitudeDegrees>
              <LongitudeDegrees>-1.141889803111553192138671875</LongitudeDegrees>
            </Position>
            <AltitudeMeters>242.600006103515625</AltitudeMeters>
            <DistanceMeters>NAN</DistanceMeters>
          </Trackpoint>
          <Trackpoint>
            <Time>2020-05-25T05:40:25.000Z</Time>
            <Position>
              <LatitudeDegrees>38.189615495502948760986328125</LatitudeDegrees>
              <LongitudeDegrees>-1.141889803111553192138671875</LongitudeDegrees>
            </Position>
            <AltitudeMeters>242.600006103515625</AltitudeMeters>
            <DistanceMeters>NAN</DistanceMeters>
          </Trackpoint>
          <Trackpoint>
            <Time>2020-05-25T05:40:26.000Z</Time>
            <Position>
              <LatitudeDegrees>38.18961809389293193817138671875</LatitudeDegrees>
              <LongitudeDegrees>-1.14195811562240123748779296875</LongitudeDegrees>
            </Position>
            <AltitudeMeters>242.600006103515625</AltitudeMeters>
            <DistanceMeters>NAN</DistanceMeters>
          </Trackpoint>
          <Trackpoint>
            <Time>2020-05-25T05:40:27.000Z</Time>
            <Position>
              <LatitudeDegrees>38.18962161429226398468017578125</LatitudeDegrees>
              <LongitudeDegrees>-1.14202550612390041351318359375</LongitudeDegrees>
            </Position>
            <AltitudeMeters>242.600006103515625</AltitudeMeters>
            <DistanceMeters>NAN</DistanceMeters>
          </Trackpoint>
          <Trackpoint>
            <Time>2020-05-25T05:40:28.000Z</Time>
            <Position>
              <LatitudeDegrees>38.18962714634835720062255859375</LatitudeDegrees>
              <LongitudeDegrees>-1.14209197461605072021484375</LongitudeDegrees>
            </Position>
            <AltitudeMeters>242.8000030517578125</AltitudeMeters>
            <DistanceMeters>NAN</DistanceMeters>
          </Trackpoint>
          <Trackpoint>
            <Time>2020-05-25T05:40:29.000Z</Time>
            <Position>
              <LatitudeDegrees>38.189634941518306732177734375</LatitudeDegrees>
              <LongitudeDegrees>-1.1421578563749790191650390625</LongitudeDegrees>
            </Position>
            <AltitudeMeters>242.8000030517578125</AltitudeMeters>
            <DistanceMeters>NAN</DistanceMeters>
          </Trackpoint>
          <Trackpoint>
            <Time>2020-05-25T05:40:30.000Z</Time>
            <Position>
              <LatitudeDegrees>38.18964541889727115631103515625</LatitudeDegrees>
              <LongitudeDegrees>-1.1422225646674633026123046875</LongitudeDegrees>
            </Position>
            <AltitudeMeters>242.8000030517578125</AltitudeMeters>
            <DistanceMeters>NAN</DistanceMeters>
          </Trackpoint>
          <Trackpoint>
            <Time>2020-05-25T05:40:31.000Z</Time>
            <Position>
              <LatitudeDegrees>38.18965799175202846527099609375</LatitudeDegrees>
              <LongitudeDegrees>-1.1422852613031864166259765625</LongitudeDegrees>
            </Position>
            <AltitudeMeters>243</AltitudeMeters>
            <DistanceMeters>NAN</DistanceMeters>
          </Trackpoint>
          <Trackpoint>
            <Time>2020-05-25T05:40:32.000Z</Time>
            <Position>
              <LatitudeDegrees>38.18967349827289581298828125</LatitudeDegrees>
              <LongitudeDegrees>-1.1423462815582752227783203125</LongitudeDegrees>
            </Position>
            <AltitudeMeters>243</AltitudeMeters>
            <DistanceMeters>NAN</DistanceMeters>
          </Trackpoint>
          <Trackpoint>
            <Time>2020-05-25T05:40:33.000Z</Time>
            <Position>
              <LatitudeDegrees>38.1896924413740634918212890625</LatitudeDegrees>
              <LongitudeDegrees>-1.142404116690158843994140625</LongitudeDegrees>
            </Position>
            <AltitudeMeters>243.1999969482421875</AltitudeMeters>
            <DistanceMeters>NAN</DistanceMeters>
          </Trackpoint>
          <Trackpoint>
            <Time>2020-05-25T05:40:34.000Z</Time>
            <Position>
              <LatitudeDegrees>38.18971415050327777862548828125</LatitudeDegrees>
              <LongitudeDegrees>-1.1424601078033447265625</LongitudeDegrees>
            </Position>
            <AltitudeMeters>243.399993896484375</AltitudeMeters>
            <DistanceMeters>NAN</DistanceMeters>
          </Trackpoint>
          <Trackpoint>
            <Time>2020-05-25T05:40:35.000Z</Time>
            <Position>
              <LatitudeDegrees>38.189738206565380096435546875</LatitudeDegrees>
              <LongitudeDegrees>-1.1425145901739597320556640625</LongitudeDegrees>
            </Position>
            <AltitudeMeters>243.600006103515625</AltitudeMeters>
            <DistanceMeters>NAN</DistanceMeters>
          </Trackpoint>
          <Trackpoint>
            <Time>2020-05-25T05:40:36.000Z</Time>
            <Position>
              <LatitudeDegrees>38.1897645257413387298583984375</LatitudeDegrees>
              <LongitudeDegrees>-1.14256865344941616058349609375</LongitudeDegrees>
            </Position>
            <AltitudeMeters>243.8000030517578125</AltitudeMeters>
            <DistanceMeters>NAN</DistanceMeters>
          </Trackpoint>
          <Trackpoint>
            <Time>2020-05-25T05:40:37.000Z</Time>
            <Position>
              <LatitudeDegrees>38.1897916831076145172119140625</LatitudeDegrees>
              <LongitudeDegrees>-1.1426223814487457275390625</LongitudeDegrees>
            </Position>
            <AltitudeMeters>243.8000030517578125</AltitudeMeters>
            <DistanceMeters>NAN</DistanceMeters>
          </Trackpoint>
          <Trackpoint>
            <Time>2020-05-25T05:40:38.000Z</Time>
            <Position>
              <LatitudeDegrees>38.18981925956904888153076171875</LatitudeDegrees>
              <LongitudeDegrees>-1.14267594181001186370849609375</LongitudeDegrees>
            </Position>
            <AltitudeMeters>244</AltitudeMeters>
            <DistanceMeters>NAN</DistanceMeters>
          </Trackpoint>
          <Trackpoint>
            <Time>2020-05-25T05:40:39.000Z</Time>
            <Position>
              <LatitudeDegrees>38.1898456625640392303466796875</LatitudeDegrees>
              <LongitudeDegrees>-1.14273059181869029998779296875</LongitudeDegrees>
            </Position>
            <AltitudeMeters>244.1999969482421875</AltitudeMeters>
            <DistanceMeters>NAN</DistanceMeters>
          </Trackpoint>
          <Trackpoint>
            <Time>2020-05-25T05:40:40.000Z</Time>
            <Position>
              <LatitudeDegrees>38.18987223319709300994873046875</LatitudeDegrees>
              <LongitudeDegrees>-1.14278540946543216705322265625</LongitudeDegrees>
            </Position>
            <AltitudeMeters>244.399993896484375</AltitudeMeters>
            <DistanceMeters>NAN</DistanceMeters>
          </Trackpoint>
          <Trackpoint>
            <Time>2020-05-25T05:40:41.000Z</Time>
            <Position>
              <LatitudeDegrees>38.18989888764917850494384765625</LatitudeDegrees>
              <LongitudeDegrees>-1.1428398080170154571533203125</LongitudeDegrees>
            </Position>
            <AltitudeMeters>244.600006103515625</AltitudeMeters>
            <DistanceMeters>NAN</DistanceMeters>
          </Trackpoint>
          <Trackpoint>
            <Time>2020-05-25T05:40:42.000Z</Time>
            <Position>
              <LatitudeDegrees>38.18992654792964458465576171875</LatitudeDegrees>
              <LongitudeDegrees>-1.1428932845592498779296875</LongitudeDegrees>
            </Position>
            <AltitudeMeters>244.8000030517578125</AltitudeMeters>
            <DistanceMeters>NAN</DistanceMeters>
          </Trackpoint>
          <Trackpoint>
            <Time>2020-05-25T05:40:43.000Z</Time>
            <Position>
              <LatitudeDegrees>38.1899546273052692413330078125</LatitudeDegrees>
              <LongitudeDegrees>-1.1429464258253574371337890625</LongitudeDegrees>
            </Position>
            <AltitudeMeters>245</AltitudeMeters>
            <DistanceMeters>NAN</DistanceMeters>
          </Trackpoint>
          <Trackpoint>
            <Time>2020-05-25T05:40:44.000Z</Time>
            <Position>
              <LatitudeDegrees>38.18998304195702075958251953125</LatitudeDegrees>
              <LongitudeDegrees>-1.1429993994534015655517578125</LongitudeDegrees>
            </Position>
            <AltitudeMeters>245</AltitudeMeters>
            <DistanceMeters>NAN</DistanceMeters>
          </Trackpoint>
          <Trackpoint>
            <Time>2020-05-25T05:40:45.000Z</Time>
            <Position>
              <LatitudeDegrees>38.19001120515167713165283203125</LatitudeDegrees>
              <LongitudeDegrees>-1.1430520378053188323974609375</LongitudeDegrees>
            </Position>
            <AltitudeMeters>245.1999969482421875</AltitudeMeters>
            <DistanceMeters>NAN</DistanceMeters>
          </Trackpoint>
          <Trackpoint>
            <Time>2020-05-25T05:40:46.000Z</Time>
            <Position>
              <LatitudeDegrees>38.19003827869892120361328125</LatitudeDegrees>
              <LongitudeDegrees>-1.14310442470014095306396484375</LongitudeDegrees>
            </Position>
            <AltitudeMeters>245.399993896484375</AltitudeMeters>
            <DistanceMeters>NAN</DistanceMeters>
          </Trackpoint>
          <Trackpoint>
            <Time>2020-05-25T05:40:47.000Z</Time>
            <Position>
              <LatitudeDegrees>38.190064094960689544677734375</LatitudeDegrees>
              <LongitudeDegrees>-1.14315639249980449676513671875</LongitudeDegrees>
            </Position>
            <AltitudeMeters>245.399993896484375</AltitudeMeters>
            <DistanceMeters>NAN</DistanceMeters>
          </Trackpoint>
          <Trackpoint>
            <Time>2020-05-25T05:40:48.000Z</Time>
            <Position>
              <LatitudeDegrees>38.19008982740342617034912109375</LatitudeDegrees>
              <LongitudeDegrees>-1.14320819266140460968017578125</LongitudeDegrees>
            </Position>
            <AltitudeMeters>245.600006103515625</AltitudeMeters>
            <DistanceMeters>NAN</DistanceMeters>
          </Trackpoint>
          <Trackpoint>
            <Time>2020-05-25T05:40:49.000Z</Time>
            <Position>
              <LatitudeDegrees>38.1901158951222896575927734375</LatitudeDegrees>
              <LongitudeDegrees>-1.14325814880430698394775390625</LongitudeDegrees>
            </Position>
            <AltitudeMeters>245.8000030517578125</AltitudeMeters>
            <DistanceMeters>NAN</DistanceMeters>
          </Trackpoint>
          <Trackpoint>
            <Time>2020-05-25T05:40:50.000Z</Time>
            <Position>
              <LatitudeDegrees>38.1901435554027557373046875</LatitudeDegrees>
              <LongitudeDegrees>-1.14330701529979705810546875</LongitudeDegrees>
            </Position>
            <AltitudeMeters>245.8000030517578125</AltitudeMeters>
            <DistanceMeters>NAN</DistanceMeters>
          </Trackpoint>
          <Trackpoint>
            <Time>2020-05-25T05:40:51.000Z</Time>
            <Position>
              <LatitudeDegrees>38.190170712769031524658203125</LatitudeDegrees>
              <LongitudeDegrees>-1.14335621707141399383544921875</LongitudeDegrees>
            </Position>
            <AltitudeMeters>246</AltitudeMeters>
            <DistanceMeters>NAN</DistanceMeters>
          </Trackpoint>
          <Trackpoint>
            <Time>2020-05-25T05:40:52.000Z</Time>
            <Position>
              <LatitudeDegrees>38.1901980377733707427978515625</LatitudeDegrees>
              <LongitudeDegrees>-1.14340416155755519866943359375</LongitudeDegrees>
            </Position>
            <AltitudeMeters>246</AltitudeMeters>
            <DistanceMeters>NAN</DistanceMeters>
          </Trackpoint>
          <Trackpoint>
            <Time>2020-05-25T05:40:53.000Z</Time>
            <Position>
              <LatitudeDegrees>38.19022578187286853790283203125</LatitudeDegrees>
              <LongitudeDegrees>-1.1434513516724109649658203125</LongitudeDegrees>
            </Position>
            <AltitudeMeters>246.399993896484375</AltitudeMeters>
            <DistanceMeters>NAN</DistanceMeters>
          </Trackpoint>
          <Trackpoint>
            <Time>2020-05-25T05:40:54.000Z</Time>
            <Position>
              <LatitudeDegrees>38.1902540288865566253662109375</LatitudeDegrees>
              <LongitudeDegrees>-1.1434989608824253082275390625</LongitudeDegrees>
            </Position>
            <AltitudeMeters>246.600006103515625</AltitudeMeters>
            <DistanceMeters>NAN</DistanceMeters>
          </Trackpoint>
          <Trackpoint>
            <Time>2020-05-25T05:40:55.000Z</Time>
            <Position>
              <LatitudeDegrees>38.19028143770992755889892578125</LatitudeDegrees>
              <LongitudeDegrees>-1.14354698918759822845458984375</LongitudeDegrees>
            </Position>
            <AltitudeMeters>246.8000030517578125</AltitudeMeters>
            <DistanceMeters>NAN</DistanceMeters>
          </Trackpoint>
          <Trackpoint>
            <Time>2020-05-25T05:40:56.000Z</Time>
            <Position>
              <LatitudeDegrees>38.19030825980007648468017578125</LatitudeDegrees>
              <LongitudeDegrees>-1.1435948498547077178955078125</LongitudeDegrees>
            </Position>
            <AltitudeMeters>247</AltitudeMeters>
            <DistanceMeters>NAN</DistanceMeters>
          </Trackpoint>
          <Trackpoint>
            <Time>2020-05-25T05:40:57.000Z</Time>
            <Position>
              <LatitudeDegrees>38.19033592008054256439208984375</LatitudeDegrees>
              <LongitudeDegrees>-1.14364203996956348419189453125</LongitudeDegrees>
            </Position>
            <AltitudeMeters>247</AltitudeMeters>
            <DistanceMeters>NAN</DistanceMeters>
          </Trackpoint>
          <Trackpoint>
            <Time>2020-05-25T05:40:58.000Z</Time>
            <Position>
              <LatitudeDegrees>38.1903643347322940826416015625</LatitudeDegrees>
              <LongitudeDegrees>-1.14368923008441925048828125</LongitudeDegrees>
            </Position>
            <AltitudeMeters>247.1999969482421875</AltitudeMeters>
            <DistanceMeters>NAN</DistanceMeters>
          </Trackpoint>
          <Trackpoint>
            <Time>2020-05-25T05:40:59.000Z</Time>
            <Position>
              <LatitudeDegrees>38.19039233028888702392578125</LatitudeDegrees>
              <LongitudeDegrees>-1.1437360011041164398193359375</LongitudeDegrees>
            </Position>
            <AltitudeMeters>247.399993896484375</AltitudeMeters>
            <DistanceMeters>NAN</DistanceMeters>
          </Trackpoint>
          <Trackpoint>
            <Time>2020-05-25T05:41:00.000Z</Time>
            <Position>
              <LatitudeDegrees>38.1904488243162631988525390625</LatitudeDegrees>
              <LongitudeDegrees>-1.143828369677066802978515625</LongitudeDegrees>
            </Position>
            <AltitudeMeters>247.600006103515625</AltitudeMeters>
            <DistanceMeters>NAN</DistanceMeters>
          </Trackpoint>
          <Trackpoint>
            <Time>2020-05-25T05:41:01.000Z</Time>
            <Position>
              <LatitudeDegrees>38.1904488243162631988525390625</LatitudeDegrees>
              <LongitudeDegrees>-1.143828369677066802978515625</LongitudeDegrees>
            </Position>
            <AltitudeMeters>247.8000030517578125</AltitudeMeters>
            <DistanceMeters>NAN</DistanceMeters>
          </Trackpoint>
          <Trackpoint>
            <Time>2020-05-25T05:41:02.000Z</Time>
            <Position>
              <LatitudeDegrees>38.19050707854330539703369140625</LatitudeDegrees>
              <LongitudeDegrees>-1.1439227499067783355712890625</LongitudeDegrees>
            </Position>
            <AltitudeMeters>248</AltitudeMeters>
            <DistanceMeters>NAN</DistanceMeters>
          </Trackpoint>
          <Trackpoint>
            <Time>2020-05-25T05:41:03.000Z</Time>
            <Position>
              <LatitudeDegrees>38.19050707854330539703369140625</LatitudeDegrees>
              <LongitudeDegrees>-1.1439227499067783355712890625</LongitudeDegrees>
            </Position>
            <AltitudeMeters>248.1999969482421875</AltitudeMeters>
            <DistanceMeters>NAN</DistanceMeters>
          </Trackpoint>
          <Trackpoint>
            <Time>2020-05-25T05:41:04.000Z</Time>
            <Position>
              <LatitudeDegrees>38.19053716957569122314453125</LatitudeDegrees>
              <LongitudeDegrees>-1.1439703591167926788330078125</LongitudeDegrees>
            </Position>
            <AltitudeMeters>248.1999969482421875</AltitudeMeters>
            <DistanceMeters>NAN</DistanceMeters>
          </Trackpoint>
          <Trackpoint>
            <Time>2020-05-25T05:41:05.000Z</Time>
            <Position>
              <LatitudeDegrees>38.1905685178935527801513671875</LatitudeDegrees>
              <LongitudeDegrees>-1.144015789031982421875</LongitudeDegrees>
            </Position>
            <AltitudeMeters>248.399993896484375</AltitudeMeters>
            <DistanceMeters>NAN</DistanceMeters>
          </Trackpoint>
          <Trackpoint>
            <Time>2020-05-25T05:41:06.000Z</Time>
            <Position>
              <LatitudeDegrees>38.1906010396778583526611328125</LatitudeDegrees>
              <LongitudeDegrees>-1.14405845291912555694580078125</LongitudeDegrees>
            </Position>
            <AltitudeMeters>248.600006103515625</AltitudeMeters>
            <DistanceMeters>NAN</DistanceMeters>
          </Trackpoint>
          <Trackpoint>
            <Time>2020-05-25T05:41:07.000Z</Time>
            <Position>
              <LatitudeDegrees>38.1906342320144176483154296875</LatitudeDegrees>
              <LongitudeDegrees>-1.14409952424466609954833984375</LongitudeDegrees>
            </Position>
            <AltitudeMeters>248.8000030517578125</AltitudeMeters>
            <DistanceMeters>NAN</DistanceMeters>
          </Trackpoint>
          <Trackpoint>
            <Time>2020-05-25T05:41:08.000Z</Time>
            <Position>
              <LatitudeDegrees>38.19066859781742095947265625</LatitudeDegrees>
              <LongitudeDegrees>-1.14413875155150890350341796875</LongitudeDegrees>
            </Position>
            <AltitudeMeters>249</AltitudeMeters>
            <DistanceMeters>NAN</DistanceMeters>
          </Trackpoint>
          <Trackpoint>
            <Time>2020-05-25T05:41:09.000Z</Time>
            <Position>
              <LatitudeDegrees>38.1907036341726779937744140625</LatitudeDegrees>
              <LongitudeDegrees>-1.1441768892109394073486328125</LongitudeDegrees>
            </Position>
            <AltitudeMeters>249.1999969482421875</AltitudeMeters>
            <DistanceMeters>NAN</DistanceMeters>
          </Trackpoint>
          <Trackpoint>
            <Time>2020-05-25T05:41:10.000Z</Time>
            <Position>
              <LatitudeDegrees>38.19073841907083988189697265625</LatitudeDegrees>
              <LongitudeDegrees>-1.14421469159424304962158203125</LongitudeDegrees>
            </Position>
            <AltitudeMeters>249.399993896484375</AltitudeMeters>
            <DistanceMeters>NAN</DistanceMeters>
          </Trackpoint>
          <Trackpoint>
            <Time>2020-05-25T05:41:11.000Z</Time>
            <Position>
              <LatitudeDegrees>38.19077328778803348541259765625</LatitudeDegrees>
              <LongitudeDegrees>-1.14425190724432468414306640625</LongitudeDegrees>
            </Position>
            <AltitudeMeters>249.600006103515625</AltitudeMeters>
            <DistanceMeters>NAN</DistanceMeters>
          </Trackpoint>
          <Trackpoint>
            <Time>2020-05-25T05:41:12.000Z</Time>
            <Position>
              <LatitudeDegrees>38.1908085756003856658935546875</LatitudeDegrees>
              <LongitudeDegrees>-1.1442892067134380340576171875</LongitudeDegrees>
            </Position>
            <AltitudeMeters>249.8000030517578125</AltitudeMeters>
            <DistanceMeters>NAN</DistanceMeters>
          </Trackpoint>
          <Trackpoint>
            <Time>2020-05-25T05:41:13.000Z</Time>
            <Position>
              <LatitudeDegrees>38.19084428250789642333984375</LatitudeDegrees>
              <LongitudeDegrees>-1.14432667382061481475830078125</LongitudeDegrees>
            </Position>
            <AltitudeMeters>250</AltitudeMeters>
            <DistanceMeters>NAN</DistanceMeters>
          </Trackpoint>
          <Trackpoint>
            <Time>2020-05-25T05:41:14.000Z</Time>
            <Position>
              <LatitudeDegrees>38.1908809952437877655029296875</LatitudeDegrees>
              <LongitudeDegrees>-1.14436372183263301849365234375</LongitudeDegrees>
            </Position>
            <AltitudeMeters>250.1999969482421875</AltitudeMeters>
            <DistanceMeters>NAN</DistanceMeters>
          </Trackpoint>
          <Trackpoint>
            <Time>2020-05-25T05:41:15.000Z</Time>
            <Position>
              <LatitudeDegrees>38.1909178756177425384521484375</LatitudeDegrees>
              <LongitudeDegrees>-1.144401691854000091552734375</LongitudeDegrees>
            </Position>
            <AltitudeMeters>250.399993896484375</AltitudeMeters>
            <DistanceMeters>NAN</DistanceMeters>
          </Trackpoint>
          <Trackpoint>
            <Time>2020-05-25T05:41:16.000Z</Time>
            <Position>
              <LatitudeDegrees>38.19095517508685588836669921875</LatitudeDegrees>
              <LongitudeDegrees>-1.14444158971309661865234375</LongitudeDegrees>
            </Position>
            <AltitudeMeters>250.399993896484375</AltitudeMeters>
            <DistanceMeters>NAN</DistanceMeters>
          </Trackpoint>
          <Trackpoint>
            <Time>2020-05-25T05:41:17.000Z</Time>
            <Position>
              <LatitudeDegrees>38.1909923069179058074951171875</LatitudeDegrees>
              <LongitudeDegrees>-1.1444829963147640228271484375</LongitudeDegrees>
            </Position>
            <AltitudeMeters>250.8000030517578125</AltitudeMeters>
            <DistanceMeters>NAN</DistanceMeters>
          </Trackpoint>
          <Trackpoint>
            <Time>2020-05-25T05:41:18.000Z</Time>
            <Position>
              <LatitudeDegrees>38.19106866605579853057861328125</LatitudeDegrees>
              <LongitudeDegrees>-1.14456631243228912353515625</LongitudeDegrees>
            </Position>
            <AltitudeMeters>250.8000030517578125</AltitudeMeters>
            <DistanceMeters>NAN</DistanceMeters>
          </Trackpoint>
          <Trackpoint>
            <Time>2020-05-25T05:41:19.000Z</Time>
            <Position>
              <LatitudeDegrees>38.19106866605579853057861328125</LatitudeDegrees>
              <LongitudeDegrees>-1.14456631243228912353515625</LongitudeDegrees>
            </Position>
            <AltitudeMeters>251</AltitudeMeters>
            <DistanceMeters>NAN</DistanceMeters>
          </Trackpoint>
          <Trackpoint>
            <Time>2020-05-25T05:41:20.000Z</Time>
            <Position>
              <LatitudeDegrees>38.19110705517232418060302734375</LatitudeDegrees>
              <LongitudeDegrees>-1.144609563052654266357421875</LongitudeDegrees>
            </Position>
            <AltitudeMeters>251</AltitudeMeters>
            <DistanceMeters>NAN</DistanceMeters>
          </Trackpoint>
          <Trackpoint>
            <Time>2020-05-25T05:41:21.000Z</Time>
            <Position>
              <LatitudeDegrees>38.19114477373659610748291015625</LatitudeDegrees>
              <LongitudeDegrees>-1.14465407095849514007568359375</LongitudeDegrees>
            </Position>
            <AltitudeMeters>251.399993896484375</AltitudeMeters>
            <DistanceMeters>NAN</DistanceMeters>
          </Trackpoint>
          <Trackpoint>
            <Time>2020-05-25T05:41:22.000Z</Time>
            <Position>
              <LatitudeDegrees>38.191181905567646026611328125</LatitudeDegrees>
              <LongitudeDegrees>-1.14470050670206546783447265625</LongitudeDegrees>
            </Position>
            <AltitudeMeters>251.600006103515625</AltitudeMeters>
            <DistanceMeters>NAN</DistanceMeters>
          </Trackpoint>
          <Trackpoint>
            <Time>2020-05-25T05:41:23.000Z</Time>
            <Position>
              <LatitudeDegrees>38.19121903739869594573974609375</LatitudeDegrees>
              <LongitudeDegrees>-1.14474727772176265716552734375</LongitudeDegrees>
            </Position>
            <AltitudeMeters>251.600006103515625</AltitudeMeters>
            <DistanceMeters>NAN</DistanceMeters>
          </Trackpoint>
          <Trackpoint>
            <Time>2020-05-25T05:41:24.000Z</Time>
            <Position>
              <LatitudeDegrees>38.1912566721439361572265625</LatitudeDegrees>
              <LongitudeDegrees>-1.14479287527501583099365234375</LongitudeDegrees>
            </Position>
            <AltitudeMeters>251.8000030517578125</AltitudeMeters>
            <DistanceMeters>NAN</DistanceMeters>
          </Trackpoint>
          <Trackpoint>
            <Time>2020-05-25T05:41:25.000Z</Time>
            <Position>
              <LatitudeDegrees>38.19129447452723979949951171875</LatitudeDegrees>
              <LongitudeDegrees>-1.14483897574245929718017578125</LongitudeDegrees>
            </Position>
            <AltitudeMeters>251.8000030517578125</AltitudeMeters>
            <DistanceMeters>NAN</DistanceMeters>
          </Trackpoint>
          <Trackpoint>
            <Time>2020-05-25T05:41:26.000Z</Time>
            <Position>
              <LatitudeDegrees>38.1913319416344165802001953125</LatitudeDegrees>
              <LongitudeDegrees>-1.1448859982192516326904296875</LongitudeDegrees>
            </Position>
            <AltitudeMeters>251.8000030517578125</AltitudeMeters>
            <DistanceMeters>NAN</DistanceMeters>
          </Trackpoint>
          <Trackpoint>
            <Time>2020-05-25T05:41:27.000Z</Time>
            <Position>
              <LatitudeDegrees>38.1913704983890056610107421875</LatitudeDegrees>
              <LongitudeDegrees>-1.1449326016008853912353515625</LongitudeDegrees>
            </Position>
            <AltitudeMeters>251.8000030517578125</AltitudeMeters>
            <DistanceMeters>NAN</DistanceMeters>
          </Trackpoint>
          <Trackpoint>
            <Time>2020-05-25T05:41:28.000Z</Time>
            <Position>
              <LatitudeDegrees>38.19140754640102386474609375</LatitudeDegrees>
              <LongitudeDegrees>-1.14498046226799488067626953125</LongitudeDegrees>
            </Position>
            <AltitudeMeters>252</AltitudeMeters>
            <DistanceMeters>NAN</DistanceMeters>
          </Trackpoint>
          <Trackpoint>
            <Time>2020-05-25T05:41:29.000Z</Time>
            <Position>
              <LatitudeDegrees>38.19144384004175662994384765625</LatitudeDegrees>
              <LongitudeDegrees>-1.1450288258492946624755859375</LongitudeDegrees>
            </Position>
            <AltitudeMeters>252</AltitudeMeters>
            <DistanceMeters>NAN</DistanceMeters>
          </Trackpoint>
          <Trackpoint>
            <Time>2020-05-25T05:41:30.000Z</Time>
            <Position>
              <LatitudeDegrees>38.1914794631302356719970703125</LatitudeDegrees>
              <LongitudeDegrees>-1.145077608525753021240234375</LongitudeDegrees>
            </Position>
            <AltitudeMeters>252</AltitudeMeters>
            <DistanceMeters>NAN</DistanceMeters>
          </Trackpoint>
          <Trackpoint>
            <Time>2020-05-25T05:41:31.000Z</Time>
            <Position>
              <LatitudeDegrees>38.1915129907429218292236328125</LatitudeDegrees>
              <LongitudeDegrees>-1.14512815140187740325927734375</LongitudeDegrees>
            </Position>
            <AltitudeMeters>252.1999969482421875</AltitudeMeters>
            <DistanceMeters>NAN</DistanceMeters>
          </Trackpoint>
          <Trackpoint>
            <Time>2020-05-25T05:41:32.000Z</Time>
            <Position>
              <LatitudeDegrees>38.1915451772511005401611328125</LatitudeDegrees>
              <LongitudeDegrees>-1.14518129266798496246337890625</LongitudeDegrees>
            </Position>
            <AltitudeMeters>252.1999969482421875</AltitudeMeters>
            <DistanceMeters>NAN</DistanceMeters>
          </Trackpoint>
          <Trackpoint>
            <Time>2020-05-25T05:41:33.000Z</Time>
            <Position>
              <LatitudeDegrees>38.19157652556896209716796875</LatitudeDegrees>
              <LongitudeDegrees>-1.14523527212440967559814453125</LongitudeDegrees>
            </Position>
            <AltitudeMeters>252.1999969482421875</AltitudeMeters>
            <DistanceMeters>NAN</DistanceMeters>
          </Trackpoint>
          <Trackpoint>
            <Time>2020-05-25T05:41:34.000Z</Time>
            <Position>
              <LatitudeDegrees>38.1916078738868236541748046875</LatitudeDegrees>
              <LongitudeDegrees>-1.14529042504727840423583984375</LongitudeDegrees>
            </Position>
            <AltitudeMeters>252.399993896484375</AltitudeMeters>
            <DistanceMeters>NAN</DistanceMeters>
          </Trackpoint>
          <Trackpoint>
            <Time>2020-05-25T05:41:35.000Z</Time>
            <Position>
              <LatitudeDegrees>38.19163897074759006500244140625</LatitudeDegrees>
              <LongitudeDegrees>-1.145346164703369140625</LongitudeDegrees>
            </Position>
            <AltitudeMeters>252.399993896484375</AltitudeMeters>
            <DistanceMeters>NAN</DistanceMeters>
          </Trackpoint>
          <Trackpoint>
            <Time>2020-05-25T05:41:36.000Z</Time>
            <Position>
              <LatitudeDegrees>38.19166998378932476043701171875</LatitudeDegrees>
              <LongitudeDegrees>-1.14540257491171360015869140625</LongitudeDegrees>
            </Position>
            <AltitudeMeters>252.600006103515625</AltitudeMeters>
            <DistanceMeters>NAN</DistanceMeters>
          </Trackpoint>
          <Trackpoint>
            <Time>2020-05-25T05:41:37.000Z</Time>
            <Position>
              <LatitudeDegrees>38.19170099683105945587158203125</LatitudeDegrees>
              <LongitudeDegrees>-1.1454593203961849212646484375</LongitudeDegrees>
            </Position>
            <AltitudeMeters>252.600006103515625</AltitudeMeters>
            <DistanceMeters>NAN</DistanceMeters>
          </Trackpoint>
          <Trackpoint>
            <Time>2020-05-25T05:41:38.000Z</Time>
            <Position>
              <LatitudeDegrees>38.19173301570117473602294921875</LatitudeDegrees>
              <LongitudeDegrees>-1.1455159820616245269775390625</LongitudeDegrees>
            </Position>
            <AltitudeMeters>252.8000030517578125</AltitudeMeters>
            <DistanceMeters>NAN</DistanceMeters>
          </Trackpoint>
          <Trackpoint>
            <Time>2020-05-25T05:41:39.000Z</Time>
            <Position>
              <LatitudeDegrees>38.19176587276160717010498046875</LatitudeDegrees>
              <LongitudeDegrees>-1.14557172171771526336669921875</LongitudeDegrees>
            </Position>
            <AltitudeMeters>252.8000030517578125</AltitudeMeters>
            <DistanceMeters>NAN</DistanceMeters>
          </Trackpoint>
          <Trackpoint>
            <Time>2020-05-25T05:41:40.000Z</Time>
            <Position>
              <LatitudeDegrees>38.19179856218397617340087890625</LatitudeDegrees>
              <LongitudeDegrees>-1.1456269584596157073974609375</LongitudeDegrees>
            </Position>
            <AltitudeMeters>253</AltitudeMeters>
            <DistanceMeters>NAN</DistanceMeters>
          </Trackpoint>
          <Trackpoint>
            <Time>2020-05-25T05:41:41.000Z</Time>
            <Position>
              <LatitudeDegrees>38.19183141924440860748291015625</LatitudeDegrees>
              <LongitudeDegrees>-1.14568152464926242828369140625</LongitudeDegrees>
            </Position>
            <AltitudeMeters>253</AltitudeMeters>
            <DistanceMeters>NAN</DistanceMeters>
          </Trackpoint>
          <Trackpoint>
            <Time>2020-05-25T05:41:42.000Z</Time>
            <Position>
              <LatitudeDegrees>38.1918653659522533416748046875</LatitudeDegrees>
              <LongitudeDegrees>-1.14573533646762371063232421875</LongitudeDegrees>
            </Position>
            <AltitudeMeters>253</AltitudeMeters>
            <DistanceMeters>NAN</DistanceMeters>
          </Trackpoint>
          <Trackpoint>
            <Time>2020-05-25T05:41:43.000Z</Time>
            <Position>
              <LatitudeDegrees>38.1918990612030029296875</LatitudeDegrees>
              <LongitudeDegrees>-1.145788393914699554443359375</LongitudeDegrees>
            </Position>
            <AltitudeMeters>253</AltitudeMeters>
            <DistanceMeters>NAN</DistanceMeters>
          </Trackpoint>
          <Trackpoint>
            <Time>2020-05-25T05:41:44.000Z</Time>
            <Position>
              <LatitudeDegrees>38.191931247711181640625</LatitudeDegrees>
              <LongitudeDegrees>-1.1458411999046802520751953125</LongitudeDegrees>
            </Position>
            <AltitudeMeters>253.1999969482421875</AltitudeMeters>
            <DistanceMeters>NAN</DistanceMeters>
          </Trackpoint>
          <Trackpoint>
            <Time>2020-05-25T05:41:45.000Z</Time>
            <Position>
              <LatitudeDegrees>38.1919634342193603515625</LatitudeDegrees>
              <LongitudeDegrees>-1.14589291624724864959716796875</LongitudeDegrees>
            </Position>
            <AltitudeMeters>253.1999969482421875</AltitudeMeters>
            <DistanceMeters>NAN</DistanceMeters>
          </Trackpoint>
          <Trackpoint>
            <Time>2020-05-25T05:41:46.000Z</Time>
            <Position>
              <LatitudeDegrees>38.1919956207275390625</LatitudeDegrees>
              <LongitudeDegrees>-1.14594404585659503936767578125</LongitudeDegrees>
            </Position>
            <AltitudeMeters>253.1999969482421875</AltitudeMeters>
            <DistanceMeters>NAN</DistanceMeters>
          </Trackpoint>
          <Trackpoint>
            <Time>2020-05-25T05:41:47.000Z</Time>
            <Position>
              <LatitudeDegrees>38.1920283101499080657958984375</LatitudeDegrees>
              <LongitudeDegrees>-1.1459947563707828521728515625</LongitudeDegrees>
            </Position>
            <AltitudeMeters>253.399993896484375</AltitudeMeters>
            <DistanceMeters>NAN</DistanceMeters>
          </Trackpoint>
          <Trackpoint>
            <Time>2020-05-25T05:41:48.000Z</Time>
            <Position>
              <LatitudeDegrees>38.19206091575324535369873046875</LatitudeDegrees>
              <LongitudeDegrees>-1.14604555070400238037109375</LongitudeDegrees>
            </Position>
            <AltitudeMeters>253.600006103515625</AltitudeMeters>
            <DistanceMeters>NAN</DistanceMeters>
          </Trackpoint>
          <Trackpoint>
            <Time>2020-05-25T05:41:49.000Z</Time>
            <Position>
              <LatitudeDegrees>38.19209285080432891845703125</LatitudeDegrees>
              <LongitudeDegrees>-1.14609693177044391632080078125</LongitudeDegrees>
            </Position>
            <AltitudeMeters>253.600006103515625</AltitudeMeters>
            <DistanceMeters>NAN</DistanceMeters>
          </Trackpoint>
          <Trackpoint>
            <Time>2020-05-25T05:41:50.000Z</Time>
            <Position>
              <LatitudeDegrees>38.19212436676025390625</LatitudeDegrees>
              <LongitudeDegrees>-1.14614881575107574462890625</LongitudeDegrees>
            </Position>
            <AltitudeMeters>253.8000030517578125</AltitudeMeters>
            <DistanceMeters>NAN</DistanceMeters>
          </Trackpoint>
          <Trackpoint>
            <Time>2020-05-25T05:41:51.000Z</Time>
            <Position>
              <LatitudeDegrees>38.19215680472552776336669921875</LatitudeDegrees>
              <LongitudeDegrees>-1.14620036445558071136474609375</LongitudeDegrees>
            </Position>
            <AltitudeMeters>254</AltitudeMeters>
            <DistanceMeters>NAN</DistanceMeters>
          </Trackpoint>
          <Trackpoint>
            <Time>2020-05-25T05:41:52.000Z</Time>
            <Position>
              <LatitudeDegrees>38.19219117052853107452392578125</LatitudeDegrees>
              <LongitudeDegrees>-1.14625132642686367034912109375</LongitudeDegrees>
            </Position>
            <AltitudeMeters>254.1999969482421875</AltitudeMeters>
            <DistanceMeters>NAN</DistanceMeters>
          </Trackpoint>
          <Trackpoint>
            <Time>2020-05-25T05:41:53.000Z</Time>
            <Position>
              <LatitudeDegrees>38.19222704507410526275634765625</LatitudeDegrees>
              <LongitudeDegrees>-1.146302036941051483154296875</LongitudeDegrees>
            </Position>
            <AltitudeMeters>254.399993896484375</AltitudeMeters>
            <DistanceMeters>NAN</DistanceMeters>
          </Trackpoint>
          <Trackpoint>
            <Time>2020-05-25T05:41:54.000Z</Time>
            <Position>
              <LatitudeDegrees>38.19226275198161602020263671875</LatitudeDegrees>
              <LongitudeDegrees>-1.1463538371026515960693359375</LongitudeDegrees>
            </Position>
            <AltitudeMeters>254.399993896484375</AltitudeMeters>
            <DistanceMeters>NAN</DistanceMeters>
          </Trackpoint>
          <Trackpoint>
            <Time>2020-05-25T05:41:55.000Z</Time>
            <Position>
              <LatitudeDegrees>38.192297704517841339111328125</LatitudeDegrees>
              <LongitudeDegrees>-1.146407313644886016845703125</LongitudeDegrees>
            </Position>
            <AltitudeMeters>254.600006103515625</AltitudeMeters>
            <DistanceMeters>NAN</DistanceMeters>
          </Trackpoint>
          <Trackpoint>
            <Time>2020-05-25T05:41:56.000Z</Time>
            <Position>
              <LatitudeDegrees>38.19233248941600322723388671875</LatitudeDegrees>
              <LongitudeDegrees>-1.146461628377437591552734375</LongitudeDegrees>
            </Position>
            <AltitudeMeters>254.8000030517578125</AltitudeMeters>
            <DistanceMeters>NAN</DistanceMeters>
          </Trackpoint>
          <Trackpoint>
            <Time>2020-05-25T05:41:57.000Z</Time>
            <Position>
              <LatitudeDegrees>38.19236702285706996917724609375</LatitudeDegrees>
              <LongitudeDegrees>-1.1465154401957988739013671875</LongitudeDegrees>
            </Position>
            <AltitudeMeters>255</AltitudeMeters>
            <DistanceMeters>NAN</DistanceMeters>
          </Trackpoint>
          <Trackpoint>
            <Time>2020-05-25T05:41:58.000Z</Time>
            <Position>
              <LatitudeDegrees>38.1924018077552318572998046875</LatitudeDegrees>
              <LongitudeDegrees>-1.1465690843760967254638671875</LongitudeDegrees>
            </Position>
            <AltitudeMeters>255</AltitudeMeters>
            <DistanceMeters>NAN</DistanceMeters>
          </Trackpoint>
          <Trackpoint>
            <Time>2020-05-25T05:41:59.000Z</Time>
            <Position>
              <LatitudeDegrees>38.19243751466274261474609375</LatitudeDegrees>
              <LongitudeDegrees>-1.14662163890898227691650390625</LongitudeDegrees>
            </Position>
            <AltitudeMeters>255.1999969482421875</AltitudeMeters>
            <DistanceMeters>NAN</DistanceMeters>
          </Trackpoint>
          <Trackpoint>
            <Time>2020-05-25T05:42:00.000Z</Time>
            <Position>
              <LatitudeDegrees>38.19247481413185596466064453125</LatitudeDegrees>
              <LongitudeDegrees>-1.14667293615639209747314453125</LongitudeDegrees>
            </Position>
            <AltitudeMeters>255.1999969482421875</AltitudeMeters>
            <DistanceMeters>NAN</DistanceMeters>
          </Trackpoint>
          <Trackpoint>
            <Time>2020-05-25T05:42:01.000Z</Time>
            <Position>
              <LatitudeDegrees>38.19251261651515960693359375</LatitudeDegrees>
              <LongitudeDegrees>-1.14672423340380191802978515625</LongitudeDegrees>
            </Position>
            <AltitudeMeters>255.1999969482421875</AltitudeMeters>
            <DistanceMeters>NAN</DistanceMeters>
          </Trackpoint>
          <Trackpoint>
            <Time>2020-05-25T05:42:02.000Z</Time>
            <Position>
              <LatitudeDegrees>38.19254924543201923370361328125</LatitudeDegrees>
              <LongitudeDegrees>-1.14677653647959232330322265625</LongitudeDegrees>
            </Position>
            <AltitudeMeters>255.399993896484375</AltitudeMeters>
            <DistanceMeters>NAN</DistanceMeters>
          </Trackpoint>
          <Trackpoint>
            <Time>2020-05-25T05:42:03.000Z</Time>
            <Position>
              <LatitudeDegrees>38.1925852037966251373291015625</LatitudeDegrees>
              <LongitudeDegrees>-1.146830432116985321044921875</LongitudeDegrees>
            </Position>
            <AltitudeMeters>255.399993896484375</AltitudeMeters>
            <DistanceMeters>NAN</DistanceMeters>
          </Trackpoint>
          <Trackpoint>
            <Time>2020-05-25T05:42:04.000Z</Time>
            <Position>
              <LatitudeDegrees>38.19261998869478702545166015625</LatitudeDegrees>
              <LongitudeDegrees>-1.1468859203159809112548828125</LongitudeDegrees>
            </Position>
            <AltitudeMeters>255.399993896484375</AltitudeMeters>
            <DistanceMeters>NAN</DistanceMeters>
          </Trackpoint>
          <Trackpoint>
            <Time>2020-05-25T05:42:05.000Z</Time>
            <Position>
              <LatitudeDegrees>38.192652761936187744140625</LatitudeDegrees>
              <LongitudeDegrees>-1.1469439230859279632568359375</LongitudeDegrees>
            </Position>
            <AltitudeMeters>255.399993896484375</AltitudeMeters>
            <DistanceMeters>NAN</DistanceMeters>
          </Trackpoint>
          <Trackpoint>
            <Time>2020-05-25T05:42:06.000Z</Time>
            <Position>
              <LatitudeDegrees>38.192682601511478424072265625</LatitudeDegrees>
              <LongitudeDegrees>-1.14700485952198505401611328125</LongitudeDegrees>
            </Position>
            <AltitudeMeters>255.399993896484375</AltitudeMeters>
            <DistanceMeters>NAN</DistanceMeters>
          </Trackpoint>
          <Trackpoint>
            <Time>2020-05-25T05:42:07.000Z</Time>
            <Position>
              <LatitudeDegrees>38.19271034561097621917724609375</LatitudeDegrees>
              <LongitudeDegrees>-1.14706805907189846038818359375</LongitudeDegrees>
            </Position>
            <AltitudeMeters>255.399993896484375</AltitudeMeters>
            <DistanceMeters>NAN</DistanceMeters>
          </Trackpoint>
          <Trackpoint>
            <Time>2020-05-25T05:42:08.000Z</Time>
            <Position>
              <LatitudeDegrees>38.19273666478693485260009765625</LatitudeDegrees>
              <LongitudeDegrees>-1.1471326835453510284423828125</LongitudeDegrees>
            </Position>
            <AltitudeMeters>255.600006103515625</AltitudeMeters>
            <DistanceMeters>NAN</DistanceMeters>
          </Trackpoint>
          <Trackpoint>
            <Time>2020-05-25T05:42:09.000Z</Time>
            <Position>
              <LatitudeDegrees>38.19276113994419574737548828125</LatitudeDegrees>
              <LongitudeDegrees>-1.14719747565686702728271484375</LongitudeDegrees>
            </Position>
            <AltitudeMeters>255.600006103515625</AltitudeMeters>
            <DistanceMeters>NAN</DistanceMeters>
          </Trackpoint>
          <Trackpoint>
            <Time>2020-05-25T05:42:10.000Z</Time>
            <Position>
              <LatitudeDegrees>38.19278486073017120361328125</LatitudeDegrees>
              <LongitudeDegrees>-1.1472617648541927337646484375</LongitudeDegrees>
            </Position>
            <AltitudeMeters>255.600006103515625</AltitudeMeters>
            <DistanceMeters>NAN</DistanceMeters>
          </Trackpoint>
          <Trackpoint>
            <Time>2020-05-25T05:42:11.000Z</Time>
            <Position>
              <LatitudeDegrees>38.19280757568776607513427734375</LatitudeDegrees>
              <LongitudeDegrees>-1.14732496440410614013671875</LongitudeDegrees>
            </Position>
            <AltitudeMeters>255.600006103515625</AltitudeMeters>
            <DistanceMeters>NAN</DistanceMeters>
          </Trackpoint>
          <Trackpoint>
            <Time>2020-05-25T05:42:12.000Z</Time>
            <Position>
              <LatitudeDegrees>38.19283020682632923126220703125</LatitudeDegrees>
              <LongitudeDegrees>-1.14738757722079753875732421875</LongitudeDegrees>
            </Position>
            <AltitudeMeters>255.600006103515625</AltitudeMeters>
            <DistanceMeters>NAN</DistanceMeters>
          </Trackpoint>
          <Trackpoint>
            <Time>2020-05-25T05:42:13.000Z</Time>
            <Position>
              <LatitudeDegrees>38.19285300560295581817626953125</LatitudeDegrees>
              <LongitudeDegrees>-1.14744977094233036041259765625</LongitudeDegrees>
            </Position>
            <AltitudeMeters>255.600006103515625</AltitudeMeters>
            <DistanceMeters>NAN</DistanceMeters>
          </Trackpoint>
          <Trackpoint>
            <Time>2020-05-25T05:42:14.000Z</Time>
            <Position>
              <LatitudeDegrees>38.19287613965570926666259765625</LatitudeDegrees>
              <LongitudeDegrees>-1.14751196466386318206787109375</LongitudeDegrees>
            </Position>
            <AltitudeMeters>255.8000030517578125</AltitudeMeters>
            <DistanceMeters>NAN</DistanceMeters>
          </Trackpoint>
          <Trackpoint>
            <Time>2020-05-25T05:42:15.000Z</Time>
            <Position>
              <LatitudeDegrees>38.19289893843233585357666015625</LatitudeDegrees>
              <LongitudeDegrees>-1.14757499657571315765380859375</LongitudeDegrees>
            </Position>
            <AltitudeMeters>255.8000030517578125</AltitudeMeters>
            <DistanceMeters>NAN</DistanceMeters>
          </Trackpoint>
          <Trackpoint>
            <Time>2020-05-25T05:42:16.000Z</Time>
            <Position>
              <LatitudeDegrees>38.1929228268563747406005859375</LatitudeDegrees>
              <LongitudeDegrees>-1.14763534627854824066162109375</LongitudeDegrees>
            </Position>
            <AltitudeMeters>256</AltitudeMeters>
            <DistanceMeters>NAN</DistanceMeters>
          </Trackpoint>
          <Trackpoint>
            <Time>2020-05-25T05:42:17.000Z</Time>
            <Position>
              <LatitudeDegrees>38.1929479725658893585205078125</LatitudeDegrees>
              <LongitudeDegrees>-1.1476962827146053314208984375</LongitudeDegrees>
            </Position>
            <AltitudeMeters>256.20001220703125</AltitudeMeters>
            <DistanceMeters>NAN</DistanceMeters>
          </Trackpoint>
          <Trackpoint>
            <Time>2020-05-25T05:42:18.000Z</Time>
            <Position>
              <LatitudeDegrees>38.19297487847506999969482421875</LatitudeDegrees>
              <LongitudeDegrees>-1.1477573029696941375732421875</LongitudeDegrees>
            </Position>
            <AltitudeMeters>256.20001220703125</AltitudeMeters>
            <DistanceMeters>NAN</DistanceMeters>
          </Trackpoint>
          <Trackpoint>
            <Time>2020-05-25T05:42:19.000Z</Time>
            <Position>
              <LatitudeDegrees>38.1930022872984409332275390625</LatitudeDegrees>
              <LongitudeDegrees>-1.1478166468441486358642578125</LongitudeDegrees>
            </Position>
            <AltitudeMeters>256.399993896484375</AltitudeMeters>
            <DistanceMeters>NAN</DistanceMeters>
          </Trackpoint>
          <Trackpoint>
            <Time>2020-05-25T05:42:20.000Z</Time>
            <Position>
              <LatitudeDegrees>38.19303095340728759765625</LatitudeDegrees>
              <LongitudeDegrees>-1.14787775091826915740966796875</LongitudeDegrees>
            </Position>
            <AltitudeMeters>256.399993896484375</AltitudeMeters>
            <DistanceMeters>NAN</DistanceMeters>
          </Trackpoint>
          <Trackpoint>
            <Time>2020-05-25T05:42:21.000Z</Time>
            <Position>
              <LatitudeDegrees>38.193062804639339447021484375</LatitudeDegrees>
              <LongitudeDegrees>-1.14793826825916767120361328125</LongitudeDegrees>
            </Position>
            <AltitudeMeters>256.600006103515625</AltitudeMeters>
            <DistanceMeters>NAN</DistanceMeters>
          </Trackpoint>
          <Trackpoint>
            <Time>2020-05-25T05:42:22.000Z</Time>
            <Position>
              <LatitudeDegrees>38.19309532642364501953125</LatitudeDegrees>
              <LongitudeDegrees>-1.14799576811492443084716796875</LongitudeDegrees>
            </Position>
            <AltitudeMeters>256.600006103515625</AltitudeMeters>
            <DistanceMeters>NAN</DistanceMeters>
          </Trackpoint>
          <Trackpoint>
            <Time>2020-05-25T05:42:23.000Z</Time>
            <Position>
              <LatitudeDegrees>38.19312751293182373046875</LatitudeDegrees>
              <LongitudeDegrees>-1.14805159159004688262939453125</LongitudeDegrees>
            </Position>
            <AltitudeMeters>256.600006103515625</AltitudeMeters>
            <DistanceMeters>NAN</DistanceMeters>
          </Trackpoint>
          <Trackpoint>
            <Time>2020-05-25T05:42:24.000Z</Time>
            <Position>
              <LatitudeDegrees>38.19315928034484386444091796875</LatitudeDegrees>
              <LongitudeDegrees>-1.148106157779693603515625</LongitudeDegrees>
            </Position>
            <AltitudeMeters>256.600006103515625</AltitudeMeters>
            <DistanceMeters>NAN</DistanceMeters>
          </Trackpoint>
          <Trackpoint>
            <Time>2020-05-25T05:42:25.000Z</Time>
            <Position>
              <LatitudeDegrees>38.1931897066533565521240234375</LatitudeDegrees>
              <LongitudeDegrees>-1.1481613107025623321533203125</LongitudeDegrees>
            </Position>
            <AltitudeMeters>256.600006103515625</AltitudeMeters>
            <DistanceMeters>NAN</DistanceMeters>
          </Trackpoint>
          <Trackpoint>
            <Time>2020-05-25T05:42:26.000Z</Time>
            <Position>
              <LatitudeDegrees>38.1932195462286472320556640625</LatitudeDegrees>
              <LongitudeDegrees>-1.148215793073177337646484375</LongitudeDegrees>
            </Position>
            <AltitudeMeters>256.79998779296875</AltitudeMeters>
            <DistanceMeters>NAN</DistanceMeters>
          </Trackpoint>
          <Trackpoint>
            <Time>2020-05-25T05:42:27.000Z</Time>
            <Position>
              <LatitudeDegrees>38.1932495534420013427734375</LatitudeDegrees>
              <LongitudeDegrees>-1.1482689343392848968505859375</LongitudeDegrees>
            </Position>
            <AltitudeMeters>256.79998779296875</AltitudeMeters>
            <DistanceMeters>NAN</DistanceMeters>
          </Trackpoint>
          <Trackpoint>
            <Time>2020-05-25T05:42:28.000Z</Time>
            <Position>
              <LatitudeDegrees>38.19327863864600658416748046875</LatitudeDegrees>
              <LongitudeDegrees>-1.14832148887217044830322265625</LongitudeDegrees>
            </Position>
            <AltitudeMeters>256.79998779296875</AltitudeMeters>
            <DistanceMeters>NAN</DistanceMeters>
          </Trackpoint>
          <Trackpoint>
            <Time>2020-05-25T05:42:29.000Z</Time>
            <Position>
              <LatitudeDegrees>38.19330814294517040252685546875</LatitudeDegrees>
              <LongitudeDegrees>-1.1483725346624851226806640625</LongitudeDegrees>
            </Position>
            <AltitudeMeters>257</AltitudeMeters>
            <DistanceMeters>NAN</DistanceMeters>
          </Trackpoint>
          <Trackpoint>
            <Time>2020-05-25T05:42:30.000Z</Time>
            <Position>
              <LatitudeDegrees>38.193338401615619659423828125</LatitudeDegrees>
              <LongitudeDegrees>-1.14842307753860950469970703125</LongitudeDegrees>
            </Position>
            <AltitudeMeters>257.20001220703125</AltitudeMeters>
            <DistanceMeters>NAN</DistanceMeters>
          </Trackpoint>
          <Trackpoint>
            <Time>2020-05-25T05:42:31.000Z</Time>
            <Position>
              <LatitudeDegrees>38.19336815737187862396240234375</LatitudeDegrees>
              <LongitudeDegrees>-1.14847362041473388671875</LongitudeDegrees>
            </Position>
            <AltitudeMeters>257.20001220703125</AltitudeMeters>
            <DistanceMeters>NAN</DistanceMeters>
          </Trackpoint>
          <Trackpoint>
            <Time>2020-05-25T05:42:32.000Z</Time>
            <Position>
              <LatitudeDegrees>38.19339640438556671142578125</LatitudeDegrees>
              <LongitudeDegrees>-1.1485240794718265533447265625</LongitudeDegrees>
            </Position>
            <AltitudeMeters>257.399993896484375</AltitudeMeters>
            <DistanceMeters>NAN</DistanceMeters>
          </Trackpoint>
          <Trackpoint>
            <Time>2020-05-25T05:42:33.000Z</Time>
            <Position>
              <LatitudeDegrees>38.193424232304096221923828125</LatitudeDegrees>
              <LongitudeDegrees>-1.14857328124344348907470703125</LongitudeDegrees>
            </Position>
            <AltitudeMeters>257.600006103515625</AltitudeMeters>
            <DistanceMeters>NAN</DistanceMeters>
          </Trackpoint>
          <Trackpoint>
            <Time>2020-05-25T05:42:34.000Z</Time>
            <Position>
              <LatitudeDegrees>38.193452060222625732421875</LatitudeDegrees>
              <LongitudeDegrees>-1.14862105809152126312255859375</LongitudeDegrees>
            </Position>
            <AltitudeMeters>257.79998779296875</AltitudeMeters>
            <DistanceMeters>NAN</DistanceMeters>
          </Trackpoint>
          <Trackpoint>
            <Time>2020-05-25T05:42:35.000Z</Time>
            <Position>
              <LatitudeDegrees>38.19347963668406009674072265625</LatitudeDegrees>
              <LongitudeDegrees>-1.14866816438734531402587890625</LongitudeDegrees>
            </Position>
            <AltitudeMeters>258.20001220703125</AltitudeMeters>
            <DistanceMeters>NAN</DistanceMeters>
          </Trackpoint>
          <Trackpoint>
            <Time>2020-05-25T05:42:36.000Z</Time>
            <Position>
              <LatitudeDegrees>38.19350595586001873016357421875</LatitudeDegrees>
              <LongitudeDegrees>-1.1487168632447719573974609375</LongitudeDegrees>
            </Position>
            <AltitudeMeters>258.20001220703125</AltitudeMeters>
            <DistanceMeters>NAN</DistanceMeters>
          </Trackpoint>
          <Trackpoint>
            <Time>2020-05-25T05:42:37.000Z</Time>
            <Position>
              <LatitudeDegrees>38.19353076629340648651123046875</LatitudeDegrees>
              <LongitudeDegrees>-1.14876841194927692413330078125</LongitudeDegrees>
            </Position>
            <AltitudeMeters>258.399993896484375</AltitudeMeters>
            <DistanceMeters>NAN</DistanceMeters>
          </Trackpoint>
          <Trackpoint>
            <Time>2020-05-25T05:42:38.000Z</Time>
            <Position>
              <LatitudeDegrees>38.193553984165191650390625</LatitudeDegrees>
              <LongitudeDegrees>-1.1488224752247333526611328125</LongitudeDegrees>
            </Position>
            <AltitudeMeters>258.600006103515625</AltitudeMeters>
            <DistanceMeters>NAN</DistanceMeters>
          </Trackpoint>
          <Trackpoint>
            <Time>2020-05-25T05:42:39.000Z</Time>
            <Position>
              <LatitudeDegrees>38.19357552565634250640869140625</LatitudeDegrees>
              <LongitudeDegrees>-1.1488784663379192352294921875</LongitudeDegrees>
            </Position>
            <AltitudeMeters>258.79998779296875</AltitudeMeters>
            <DistanceMeters>NAN</DistanceMeters>
          </Trackpoint>
          <Trackpoint>
            <Time>2020-05-25T05:42:40.000Z</Time>
            <Position>
              <LatitudeDegrees>38.1935953907668590545654296875</LatitudeDegrees>
              <LongitudeDegrees>-1.14893605001270771026611328125</LongitudeDegrees>
            </Position>
            <AltitudeMeters>259</AltitudeMeters>
            <DistanceMeters>NAN</DistanceMeters>
          </Trackpoint>
          <Trackpoint>
            <Time>2020-05-25T05:42:41.000Z</Time>
            <Position>
              <LatitudeDegrees>38.193613328039646148681640625</LatitudeDegrees>
              <LongitudeDegrees>-1.14899489097297191619873046875</LongitudeDegrees>
            </Position>
            <AltitudeMeters>259.20001220703125</AltitudeMeters>
            <DistanceMeters>NAN</DistanceMeters>
          </Trackpoint>
          <Trackpoint>
            <Time>2020-05-25T05:42:42.000Z</Time>
            <Position>
              <LatitudeDegrees>38.19364157505333423614501953125</LatitudeDegrees>
              <LongitudeDegrees>-1.149126403033733367919921875</LongitudeDegrees>
            </Position>
            <AltitudeMeters>259.399993896484375</AltitudeMeters>
            <DistanceMeters>NAN</DistanceMeters>
          </Trackpoint>
          <Trackpoint>
            <Time>2020-05-25T05:42:43.000Z</Time>
            <Position>
              <LatitudeDegrees>38.19364157505333423614501953125</LatitudeDegrees>
              <LongitudeDegrees>-1.149126403033733367919921875</LongitudeDegrees>
            </Position>
            <AltitudeMeters>259.600006103515625</AltitudeMeters>
            <DistanceMeters>NAN</DistanceMeters>
          </Trackpoint>
          <Trackpoint>
            <Time>2020-05-25T05:42:44.000Z</Time>
            <Position>
              <LatitudeDegrees>38.19364492781460285186767578125</LatitudeDegrees>
              <LongitudeDegrees>-1.1491983197629451751708984375</LongitudeDegrees>
            </Position>
            <AltitudeMeters>260</AltitudeMeters>
            <DistanceMeters>NAN</DistanceMeters>
          </Trackpoint>
          <Trackpoint>
            <Time>2020-05-25T05:42:45.000Z</Time>
            <Position>
              <LatitudeDegrees>38.1936371326446533203125</LatitudeDegrees>
              <LongitudeDegrees>-1.14927216432988643646240234375</LongitudeDegrees>
            </Position>
            <AltitudeMeters>260</AltitudeMeters>
            <DistanceMeters>NAN</DistanceMeters>
          </Trackpoint>
          <Trackpoint>
            <Time>2020-05-25T05:42:46.000Z</Time>
            <Position>
              <LatitudeDegrees>38.19362062029540538787841796875</LatitudeDegrees>
              <LongitudeDegrees>-1.149345003068447113037109375</LongitudeDegrees>
            </Position>
            <AltitudeMeters>260</AltitudeMeters>
            <DistanceMeters>NAN</DistanceMeters>
          </Trackpoint>
          <Trackpoint>
            <Time>2020-05-25T05:42:47.000Z</Time>
            <Position>
              <LatitudeDegrees>38.19359664805233478546142578125</LatitudeDegrees>
              <LongitudeDegrees>-1.1494162492454051971435546875</LongitudeDegrees>
            </Position>
            <AltitudeMeters>260</AltitudeMeters>
            <DistanceMeters>NAN</DistanceMeters>
          </Trackpoint>
          <Trackpoint>
            <Time>2020-05-25T05:42:48.000Z</Time>
            <Position>
              <LatitudeDegrees>38.19353981874883174896240234375</LatitudeDegrees>
              <LongitudeDegrees>-1.1495563946664333343505859375</LongitudeDegrees>
            </Position>
            <AltitudeMeters>260</AltitudeMeters>
            <DistanceMeters>NAN</DistanceMeters>
          </Trackpoint>
          <Trackpoint>
            <Time>2020-05-25T05:42:49.000Z</Time>
            <Position>
              <LatitudeDegrees>38.19353981874883174896240234375</LatitudeDegrees>
              <LongitudeDegrees>-1.1495563946664333343505859375</LongitudeDegrees>
            </Position>
            <AltitudeMeters>260</AltitudeMeters>
            <DistanceMeters>NAN</DistanceMeters>
          </Trackpoint>
          <Trackpoint>
            <Time>2020-05-25T05:42:50.000Z</Time>
            <Position>
              <LatitudeDegrees>38.1934802234172821044921875</LatitudeDegrees>
              <LongitudeDegrees>-1.1496980488300323486328125</LongitudeDegrees>
            </Position>
            <AltitudeMeters>260</AltitudeMeters>
            <DistanceMeters>NAN</DistanceMeters>
          </Trackpoint>
          <Trackpoint>
            <Time>2020-05-25T05:42:51.000Z</Time>
            <Position>
              <LatitudeDegrees>38.1934802234172821044921875</LatitudeDegrees>
              <LongitudeDegrees>-1.1496980488300323486328125</LongitudeDegrees>
            </Position>
            <AltitudeMeters>260</AltitudeMeters>
            <DistanceMeters>NAN</DistanceMeters>
          </Trackpoint>
          <Trackpoint>
            <Time>2020-05-25T05:42:52.000Z</Time>
            <Position>
              <LatitudeDegrees>38.193453066051006317138671875</LatitudeDegrees>
              <LongitudeDegrees>-1.1497709713876247406005859375</LongitudeDegrees>
            </Position>
            <AltitudeMeters>260</AltitudeMeters>
            <DistanceMeters>NAN</DistanceMeters>
          </Trackpoint>
          <Trackpoint>
            <Time>2020-05-25T05:42:53.000Z</Time>
            <Position>
              <LatitudeDegrees>38.19342733360826969146728515625</LatitudeDegrees>
              <LongitudeDegrees>-1.14984464831650257110595703125</LongitudeDegrees>
            </Position>
            <AltitudeMeters>260</AltitudeMeters>
            <DistanceMeters>NAN</DistanceMeters>
          </Trackpoint>
          <Trackpoint>
            <Time>2020-05-25T05:42:54.000Z</Time>
            <Position>
              <LatitudeDegrees>38.19340403191745281219482421875</LatitudeDegrees>
              <LongitudeDegrees>-1.14991924725472927093505859375</LongitudeDegrees>
            </Position>
            <AltitudeMeters>260</AltitudeMeters>
            <DistanceMeters>NAN</DistanceMeters>
          </Trackpoint>
          <Trackpoint>
            <Time>2020-05-25T05:42:55.000Z</Time>
            <Position>
              <LatitudeDegrees>38.19338374771177768707275390625</LatitudeDegrees>
              <LongitudeDegrees>-1.1499942652881145477294921875</LongitudeDegrees>
            </Position>
            <AltitudeMeters>260</AltitudeMeters>
            <DistanceMeters>NAN</DistanceMeters>
          </Trackpoint>
          <Trackpoint>
            <Time>2020-05-25T05:42:56.000Z</Time>
            <Position>
              <LatitudeDegrees>38.1933677382767200469970703125</LatitudeDegrees>
              <LongitudeDegrees>-1.15007045678794384002685546875</LongitudeDegrees>
            </Position>
            <AltitudeMeters>260</AltitudeMeters>
            <DistanceMeters>NAN</DistanceMeters>
          </Trackpoint>
          <Trackpoint>
            <Time>2020-05-25T05:42:57.000Z</Time>
            <Position>
              <LatitudeDegrees>38.19335843436419963836669921875</LatitudeDegrees>
              <LongitudeDegrees>-1.15014807321131229400634765625</LongitudeDegrees>
            </Position>
            <AltitudeMeters>260</AltitudeMeters>
            <DistanceMeters>NAN</DistanceMeters>
          </Trackpoint>
          <Trackpoint>
            <Time>2020-05-25T05:42:58.000Z</Time>
            <Position>
              <LatitudeDegrees>38.19335742853581905364990234375</LatitudeDegrees>
              <LongitudeDegrees>-1.15022552199661731719970703125</LongitudeDegrees>
            </Position>
            <AltitudeMeters>260</AltitudeMeters>
            <DistanceMeters>NAN</DistanceMeters>
          </Trackpoint>
          <Trackpoint>
            <Time>2020-05-25T05:42:59.000Z</Time>
            <Position>
              <LatitudeDegrees>38.19336555898189544677734375</LatitudeDegrees>
              <LongitudeDegrees>-1.150300204753875732421875</LongitudeDegrees>
            </Position>
            <AltitudeMeters>260</AltitudeMeters>
            <DistanceMeters>NAN</DistanceMeters>
          </Trackpoint>
          <Trackpoint>
            <Time>2020-05-25T05:43:00.000Z</Time>
            <Position>
              <LatitudeDegrees>38.1933809816837310791015625</LatitudeDegrees>
              <LongitudeDegrees>-1.1503707803785800933837890625</LongitudeDegrees>
            </Position>
            <AltitudeMeters>260</AltitudeMeters>
            <DistanceMeters>NAN</DistanceMeters>
          </Trackpoint>
          <Trackpoint>
            <Time>2020-05-25T05:43:01.000Z</Time>
            <Position>
              <LatitudeDegrees>38.1934022717177867889404296875</LatitudeDegrees>
              <LongitudeDegrees>-1.15043632686138153076171875</LongitudeDegrees>
            </Position>
            <AltitudeMeters>260</AltitudeMeters>
            <DistanceMeters>NAN</DistanceMeters>
          </Trackpoint>
          <Trackpoint>
            <Time>2020-05-25T05:43:02.000Z</Time>
            <Position>
              <LatitudeDegrees>38.1934290938079357147216796875</LatitudeDegrees>
              <LongitudeDegrees>-1.15049759857356548309326171875</LongitudeDegrees>
            </Position>
            <AltitudeMeters>260</AltitudeMeters>
            <DistanceMeters>NAN</DistanceMeters>
          </Trackpoint>
          <Trackpoint>
            <Time>2020-05-25T05:43:03.000Z</Time>
            <Position>
              <LatitudeDegrees>38.19346002303063869476318359375</LatitudeDegrees>
              <LongitudeDegrees>-1.1505551822483539581298828125</LongitudeDegrees>
            </Position>
            <AltitudeMeters>260</AltitudeMeters>
            <DistanceMeters>NAN</DistanceMeters>
          </Trackpoint>
          <Trackpoint>
            <Time>2020-05-25T05:43:04.000Z</Time>
            <Position>
              <LatitudeDegrees>38.19349422119557857513427734375</LatitudeDegrees>
              <LongitudeDegrees>-1.15060941316187381744384765625</LongitudeDegrees>
            </Position>
            <AltitudeMeters>260</AltitudeMeters>
            <DistanceMeters>NAN</DistanceMeters>
          </Trackpoint>
          <Trackpoint>
            <Time>2020-05-25T05:43:05.000Z</Time>
            <Position>
              <LatitudeDegrees>38.19353093393146991729736328125</LatitudeDegrees>
              <LongitudeDegrees>-1.150660626590251922607421875</LongitudeDegrees>
            </Position>
            <AltitudeMeters>260</AltitudeMeters>
            <DistanceMeters>NAN</DistanceMeters>
          </Trackpoint>
          <Trackpoint>
            <Time>2020-05-25T05:43:06.000Z</Time>
            <Position>
              <LatitudeDegrees>38.19356965832412242889404296875</LatitudeDegrees>
              <LongitudeDegrees>-1.1507073976099491119384765625</LongitudeDegrees>
            </Position>
            <AltitudeMeters>260</AltitudeMeters>
            <DistanceMeters>NAN</DistanceMeters>
          </Trackpoint>
          <Trackpoint>
            <Time>2020-05-25T05:43:07.000Z</Time>
            <Position>
              <LatitudeDegrees>38.19361072964966297149658203125</LatitudeDegrees>
              <LongitudeDegrees>-1.1507506482303142547607421875</LongitudeDegrees>
            </Position>
            <AltitudeMeters>260</AltitudeMeters>
            <DistanceMeters>NAN</DistanceMeters>
          </Trackpoint>
          <Trackpoint>
            <Time>2020-05-25T05:43:08.000Z</Time>
            <Position>
              <LatitudeDegrees>38.19365263916552066802978515625</LatitudeDegrees>
              <LongitudeDegrees>-1.1507923901081085205078125</LongitudeDegrees>
            </Position>
            <AltitudeMeters>260.20001220703125</AltitudeMeters>
            <DistanceMeters>NAN</DistanceMeters>
          </Trackpoint>
          <Trackpoint>
            <Time>2020-05-25T05:43:09.000Z</Time>
            <Position>
              <LatitudeDegrees>38.1936948001384735107421875</LatitudeDegrees>
              <LongitudeDegrees>-1.15083253942430019378662109375</LongitudeDegrees>
            </Position>
            <AltitudeMeters>260.399993896484375</AltitudeMeters>
            <DistanceMeters>NAN</DistanceMeters>
          </Trackpoint>
          <Trackpoint>
            <Time>2020-05-25T05:43:10.000Z</Time>
            <Position>
              <LatitudeDegrees>38.19373729638755321502685546875</LatitudeDegrees>
              <LongitudeDegrees>-1.15087193436920642852783203125</LongitudeDegrees>
            </Position>
            <AltitudeMeters>260.79998779296875</AltitudeMeters>
            <DistanceMeters>NAN</DistanceMeters>
          </Trackpoint>
          <Trackpoint>
            <Time>2020-05-25T05:43:11.000Z</Time>
            <Position>
              <LatitudeDegrees>38.19377970881760120391845703125</LatitudeDegrees>
              <LongitudeDegrees>-1.150910742580890655517578125</LongitudeDegrees>
            </Position>
            <AltitudeMeters>261</AltitudeMeters>
            <DistanceMeters>NAN</DistanceMeters>
          </Trackpoint>
          <Trackpoint>
            <Time>2020-05-25T05:43:12.000Z</Time>
            <Position>
              <LatitudeDegrees>38.19382212124764919281005859375</LatitudeDegrees>
              <LongitudeDegrees>-1.1509484611451625823974609375</LongitudeDegrees>
            </Position>
            <AltitudeMeters>261.20001220703125</AltitudeMeters>
            <DistanceMeters>NAN</DistanceMeters>
          </Trackpoint>
          <Trackpoint>
            <Time>2020-05-25T05:43:13.000Z</Time>
            <Position>
              <LatitudeDegrees>38.1938646174967288970947265625</LatitudeDegrees>
              <LongitudeDegrees>-1.15098617970943450927734375</LongitudeDegrees>
            </Position>
            <AltitudeMeters>261.20001220703125</AltitudeMeters>
            <DistanceMeters>NAN</DistanceMeters>
          </Trackpoint>
          <Trackpoint>
            <Time>2020-05-25T05:43:14.000Z</Time>
            <Position>
              <LatitudeDegrees>38.19390694610774517059326171875</LatitudeDegrees>
              <LongitudeDegrees>-1.151024401187896728515625</LongitudeDegrees>
            </Position>
            <AltitudeMeters>261.399993896484375</AltitudeMeters>
            <DistanceMeters>NAN</DistanceMeters>
          </Trackpoint>
          <Trackpoint>
            <Time>2020-05-25T05:43:15.000Z</Time>
            <Position>
              <LatitudeDegrees>38.19394893944263458251953125</LatitudeDegrees>
              <LongitudeDegrees>-1.15106253884732723236083984375</LongitudeDegrees>
            </Position>
            <AltitudeMeters>261.600006103515625</AltitudeMeters>
            <DistanceMeters>NAN</DistanceMeters>
          </Trackpoint>
          <Trackpoint>
            <Time>2020-05-25T05:43:16.000Z</Time>
            <Position>
              <LatitudeDegrees>38.19399059750139713287353515625</LatitudeDegrees>
              <LongitudeDegrees>-1.1511000059545040130615234375</LongitudeDegrees>
            </Position>
            <AltitudeMeters>261.79998779296875</AltitudeMeters>
            <DistanceMeters>NAN</DistanceMeters>
          </Trackpoint>
          <Trackpoint>
            <Time>2020-05-25T05:43:17.000Z</Time>
            <Position>
              <LatitudeDegrees>38.19403200410306453704833984375</LatitudeDegrees>
              <LongitudeDegrees>-1.1511365510523319244384765625</LongitudeDegrees>
            </Position>
            <AltitudeMeters>262</AltitudeMeters>
            <DistanceMeters>NAN</DistanceMeters>
          </Trackpoint>
          <Trackpoint>
            <Time>2020-05-25T05:43:18.000Z</Time>
            <Position>
              <LatitudeDegrees>38.1940729916095733642578125</LatitudeDegrees>
              <LongitudeDegrees>-1.15117368288338184356689453125</LongitudeDegrees>
            </Position>
            <AltitudeMeters>262.20001220703125</AltitudeMeters>
            <DistanceMeters>NAN</DistanceMeters>
          </Trackpoint>
          <Trackpoint>
            <Time>2020-05-25T05:43:19.000Z</Time>
            <Position>
              <LatitudeDegrees>38.19411347620189189910888671875</LatitudeDegrees>
              <LongitudeDegrees>-1.15121156908571720123291015625</LongitudeDegrees>
            </Position>
            <AltitudeMeters>262.399993896484375</AltitudeMeters>
            <DistanceMeters>NAN</DistanceMeters>
          </Trackpoint>
          <Trackpoint>
            <Time>2020-05-25T05:43:20.000Z</Time>
            <Position>
              <LatitudeDegrees>38.19415488280355930328369140625</LatitudeDegrees>
              <LongitudeDegrees>-1.1512481980025768280029296875</LongitudeDegrees>
            </Position>
            <AltitudeMeters>262.600006103515625</AltitudeMeters>
            <DistanceMeters>NAN</DistanceMeters>
          </Trackpoint>
          <Trackpoint>
            <Time>2020-05-25T05:43:21.000Z</Time>
            <Position>
              <LatitudeDegrees>38.19419595412909984588623046875</LatitudeDegrees>
              <LongitudeDegrees>-1.15128532983362674713134765625</LongitudeDegrees>
            </Position>
            <AltitudeMeters>262.79998779296875</AltitudeMeters>
            <DistanceMeters>NAN</DistanceMeters>
          </Trackpoint>
          <Trackpoint>
            <Time>2020-05-25T05:43:22.000Z</Time>
            <Position>
              <LatitudeDegrees>38.1942364387214183807373046875</LatitudeDegrees>
              <LongitudeDegrees>-1.15132304839789867401123046875</LongitudeDegrees>
            </Position>
            <AltitudeMeters>263</AltitudeMeters>
            <DistanceMeters>NAN</DistanceMeters>
          </Trackpoint>
          <Trackpoint>
            <Time>2020-05-25T05:43:23.000Z</Time>
            <Position>
              <LatitudeDegrees>38.19427725858986377716064453125</LatitudeDegrees>
              <LongitudeDegrees>-1.15136034786701202392578125</LongitudeDegrees>
            </Position>
            <AltitudeMeters>263.20001220703125</AltitudeMeters>
            <DistanceMeters>NAN</DistanceMeters>
          </Trackpoint>
          <Trackpoint>
            <Time>2020-05-25T05:43:24.000Z</Time>
            <Position>
              <LatitudeDegrees>38.19431849755346775054931640625</LatitudeDegrees>
              <LongitudeDegrees>-1.15139789879322052001953125</LongitudeDegrees>
            </Position>
            <AltitudeMeters>263.20001220703125</AltitudeMeters>
            <DistanceMeters>NAN</DistanceMeters>
          </Trackpoint>
          <Trackpoint>
            <Time>2020-05-25T05:43:25.000Z</Time>
            <Position>
              <LatitudeDegrees>38.1943581439554691314697265625</LatitudeDegrees>
              <LongitudeDegrees>-1.15143637172877788543701171875</LongitudeDegrees>
            </Position>
            <AltitudeMeters>263.20001220703125</AltitudeMeters>
            <DistanceMeters>NAN</DistanceMeters>
          </Trackpoint>
          <Trackpoint>
            <Time>2020-05-25T05:43:26.000Z</Time>
            <Position>
              <LatitudeDegrees>38.1943970359861850738525390625</LatitudeDegrees>
              <LongitudeDegrees>-1.15147526375949382781982421875</LongitudeDegrees>
            </Position>
            <AltitudeMeters>263.399993896484375</AltitudeMeters>
            <DistanceMeters>NAN</DistanceMeters>
          </Trackpoint>
          <Trackpoint>
            <Time>2020-05-25T05:43:27.000Z</Time>
            <Position>
              <LatitudeDegrees>38.1944350898265838623046875</LatitudeDegrees>
              <LongitudeDegrees>-1.15151499398052692413330078125</LongitudeDegrees>
            </Position>
            <AltitudeMeters>263.399993896484375</AltitudeMeters>
            <DistanceMeters>NAN</DistanceMeters>
          </Trackpoint>
          <Trackpoint>
            <Time>2020-05-25T05:43:28.000Z</Time>
            <Position>
              <LatitudeDegrees>38.194472305476665496826171875</LatitudeDegrees>
              <LongitudeDegrees>-1.15155673585832118988037109375</LongitudeDegrees>
            </Position>
            <AltitudeMeters>263.600006103515625</AltitudeMeters>
            <DistanceMeters>NAN</DistanceMeters>
          </Trackpoint>
          <Trackpoint>
            <Time>2020-05-25T05:43:29.000Z</Time>
            <Position>
              <LatitudeDegrees>38.194508515298366546630859375</LatitudeDegrees>
              <LongitudeDegrees>-1.15160149522125720977783203125</LongitudeDegrees>
            </Position>
            <AltitudeMeters>263.79998779296875</AltitudeMeters>
            <DistanceMeters>NAN</DistanceMeters>
          </Trackpoint>
          <Trackpoint>
            <Time>2020-05-25T05:43:30.000Z</Time>
            <Position>
              <LatitudeDegrees>38.1945438869297504425048828125</LatitudeDegrees>
              <LongitudeDegrees>-1.1516491882503032684326171875</LongitudeDegrees>
            </Position>
            <AltitudeMeters>264</AltitudeMeters>
            <DistanceMeters>NAN</DistanceMeters>
          </Trackpoint>
          <Trackpoint>
            <Time>2020-05-25T05:43:31.000Z</Time>
            <Position>
              <LatitudeDegrees>38.194578252732753753662109375</LatitudeDegrees>
              <LongitudeDegrees>-1.1516989767551422119140625</LongitudeDegrees>
            </Position>
            <AltitudeMeters>264</AltitudeMeters>
            <DistanceMeters>NAN</DistanceMeters>
          </Trackpoint>
          <Trackpoint>
            <Time>2020-05-25T05:43:32.000Z</Time>
            <Position>
              <LatitudeDegrees>38.1946119479835033416748046875</LatitudeDegrees>
              <LongitudeDegrees>-1.151748932898044586181640625</LongitudeDegrees>
            </Position>
            <AltitudeMeters>264.20001220703125</AltitudeMeters>
            <DistanceMeters>NAN</DistanceMeters>
          </Trackpoint>
          <Trackpoint>
            <Time>2020-05-25T05:43:33.000Z</Time>
            <Position>
              <LatitudeDegrees>38.194644637405872344970703125</LatitudeDegrees>
              <LongitudeDegrees>-1.15179888904094696044921875</LongitudeDegrees>
            </Position>
            <AltitudeMeters>264.399993896484375</AltitudeMeters>
            <DistanceMeters>NAN</DistanceMeters>
          </Trackpoint>
          <Trackpoint>
            <Time>2020-05-25T05:43:34.000Z</Time>
            <Position>
              <LatitudeDegrees>38.1946769915521144866943359375</LatitudeDegrees>
              <LongitudeDegrees>-1.15184859372675418853759765625</LongitudeDegrees>
            </Position>
            <AltitudeMeters>264.600006103515625</AltitudeMeters>
            <DistanceMeters>NAN</DistanceMeters>
          </Trackpoint>
          <Trackpoint>
            <Time>2020-05-25T05:43:35.000Z</Time>
            <Position>
              <LatitudeDegrees>38.1947088427841663360595703125</LatitudeDegrees>
              <LongitudeDegrees>-1.15189854986965656280517578125</LongitudeDegrees>
            </Position>
            <AltitudeMeters>264.79998779296875</AltitudeMeters>
            <DistanceMeters>NAN</DistanceMeters>
          </Trackpoint>
          <Trackpoint>
            <Time>2020-05-25T05:43:36.000Z</Time>
            <Position>
              <LatitudeDegrees>38.19474061019718647003173828125</LatitudeDegrees>
              <LongitudeDegrees>-1.15194800309836864471435546875</LongitudeDegrees>
            </Position>
            <AltitudeMeters>265</AltitudeMeters>
            <DistanceMeters>NAN</DistanceMeters>
          </Trackpoint>
          <Trackpoint>
            <Time>2020-05-25T05:43:37.000Z</Time>
            <Position>
              <LatitudeDegrees>38.19477229379117488861083984375</LatitudeDegrees>
              <LongitudeDegrees>-1.151997037231922149658203125</LongitudeDegrees>
            </Position>
            <AltitudeMeters>265</AltitudeMeters>
            <DistanceMeters>NAN</DistanceMeters>
          </Trackpoint>
          <Trackpoint>
            <Time>2020-05-25T05:43:38.000Z</Time>
            <Position>
              <LatitudeDegrees>38.19480330683290958404541015625</LatitudeDegrees>
              <LongitudeDegrees>-1.152045987546443939208984375</LongitudeDegrees>
            </Position>
            <AltitudeMeters>265</AltitudeMeters>
            <DistanceMeters>NAN</DistanceMeters>
          </Trackpoint>
          <Trackpoint>
            <Time>2020-05-25T05:43:39.000Z</Time>
            <Position>
              <LatitudeDegrees>38.1948345713317394256591796875</LatitudeDegrees>
              <LongitudeDegrees>-1.1520951054990291595458984375</LongitudeDegrees>
            </Position>
            <AltitudeMeters>265.20001220703125</AltitudeMeters>
            <DistanceMeters>NAN</DistanceMeters>
          </Trackpoint>
          <Trackpoint>
            <Time>2020-05-25T05:43:40.000Z</Time>
            <Position>
              <LatitudeDegrees>38.1948664225637912750244140625</LatitudeDegrees>
              <LongitudeDegrees>-1.1521442234516143798828125</LongitudeDegrees>
            </Position>
            <AltitudeMeters>265.20001220703125</AltitudeMeters>
            <DistanceMeters>NAN</DistanceMeters>
          </Trackpoint>
          <Trackpoint>
            <Time>2020-05-25T05:43:41.000Z</Time>
            <Position>
              <LatitudeDegrees>38.194898106157779693603515625</LatitudeDegrees>
              <LongitudeDegrees>-1.15219292230904102325439453125</LongitudeDegrees>
            </Position>
            <AltitudeMeters>265.399993896484375</AltitudeMeters>
            <DistanceMeters>NAN</DistanceMeters>
          </Trackpoint>
          <Trackpoint>
            <Time>2020-05-25T05:43:42.000Z</Time>
            <Position>
              <LatitudeDegrees>38.19492970593273639678955078125</LatitudeDegrees>
              <LongitudeDegrees>-1.15224153734743595123291015625</LongitudeDegrees>
            </Position>
            <AltitudeMeters>265.600006103515625</AltitudeMeters>
            <DistanceMeters>NAN</DistanceMeters>
          </Trackpoint>
          <Trackpoint>
            <Time>2020-05-25T05:43:43.000Z</Time>
            <Position>
              <LatitudeDegrees>38.19496138952672481536865234375</LatitudeDegrees>
              <LongitudeDegrees>-1.15228931419551372528076171875</LongitudeDegrees>
            </Position>
            <AltitudeMeters>265.79998779296875</AltitudeMeters>
            <DistanceMeters>NAN</DistanceMeters>
          </Trackpoint>
          <Trackpoint>
            <Time>2020-05-25T05:43:44.000Z</Time>
            <Position>
              <LatitudeDegrees>38.19499340839684009552001953125</LatitudeDegrees>
              <LongitudeDegrees>-1.15233759395778179168701171875</LongitudeDegrees>
            </Position>
            <AltitudeMeters>266</AltitudeMeters>
            <DistanceMeters>NAN</DistanceMeters>
          </Trackpoint>
          <Trackpoint>
            <Time>2020-05-25T05:43:45.000Z</Time>
            <Position>
              <LatitudeDegrees>38.19502576254308223724365234375</LatitudeDegrees>
              <LongitudeDegrees>-1.1523871310055255889892578125</LongitudeDegrees>
            </Position>
            <AltitudeMeters>266.20001220703125</AltitudeMeters>
            <DistanceMeters>NAN</DistanceMeters>
          </Trackpoint>
          <Trackpoint>
            <Time>2020-05-25T05:43:46.000Z</Time>
            <Position>
              <LatitudeDegrees>38.19505803287029266357421875</LatitudeDegrees>
              <LongitudeDegrees>-1.15243784151971340179443359375</LongitudeDegrees>
            </Position>
            <AltitudeMeters>266.20001220703125</AltitudeMeters>
            <DistanceMeters>NAN</DistanceMeters>
          </Trackpoint>
          <Trackpoint>
            <Time>2020-05-25T05:43:47.000Z</Time>
            <Position>
              <LatitudeDegrees>38.19509080611169338226318359375</LatitudeDegrees>
              <LongitudeDegrees>-1.152488552033901214599609375</LongitudeDegrees>
            </Position>
            <AltitudeMeters>266.20001220703125</AltitudeMeters>
            <DistanceMeters>NAN</DistanceMeters>
          </Trackpoint>
          <Trackpoint>
            <Time>2020-05-25T05:43:48.000Z</Time>
            <Position>
              <LatitudeDegrees>38.19512399844825267791748046875</LatitudeDegrees>
              <LongitudeDegrees>-1.15253892727196216583251953125</LongitudeDegrees>
            </Position>
            <AltitudeMeters>266.399993896484375</AltitudeMeters>
            <DistanceMeters>NAN</DistanceMeters>
          </Trackpoint>
          <Trackpoint>
            <Time>2020-05-25T05:43:49.000Z</Time>
            <Position>
              <LatitudeDegrees>38.1951566040515899658203125</LatitudeDegrees>
              <LongitudeDegrees>-1.1525889672338962554931640625</LongitudeDegrees>
            </Position>
            <AltitudeMeters>266.600006103515625</AltitudeMeters>
            <DistanceMeters>NAN</DistanceMeters>
          </Trackpoint>
          <Trackpoint>
            <Time>2020-05-25T05:43:50.000Z</Time>
            <Position>
              <LatitudeDegrees>38.19518820382654666900634765625</LatitudeDegrees>
              <LongitudeDegrees>-1.15264001302421092987060546875</LongitudeDegrees>
            </Position>
            <AltitudeMeters>266.600006103515625</AltitudeMeters>
            <DistanceMeters>NAN</DistanceMeters>
          </Trackpoint>
          <Trackpoint>
            <Time>2020-05-25T05:43:51.000Z</Time>
            <Position>
              <LatitudeDegrees>38.19521762430667877197265625</LatitudeDegrees>
              <LongitudeDegrees>-1.15269340574741363525390625</LongitudeDegrees>
            </Position>
            <AltitudeMeters>266.79998779296875</AltitudeMeters>
            <DistanceMeters>NAN</DistanceMeters>
          </Trackpoint>
          <Trackpoint>
            <Time>2020-05-25T05:43:52.000Z</Time>
            <Position>
              <LatitudeDegrees>38.19524369202554225921630859375</LatitudeDegrees>
              <LongitudeDegrees>-1.15274981595575809478759765625</LongitudeDegrees>
            </Position>
            <AltitudeMeters>267</AltitudeMeters>
            <DistanceMeters>NAN</DistanceMeters>
          </Trackpoint>
          <Trackpoint>
            <Time>2020-05-25T05:43:53.000Z</Time>
            <Position>
              <LatitudeDegrees>38.1952633894979953765869140625</LatitudeDegrees>
              <LongitudeDegrees>-1.1528099142014980316162109375</LongitudeDegrees>
            </Position>
            <AltitudeMeters>267</AltitudeMeters>
            <DistanceMeters>NAN</DistanceMeters>
          </Trackpoint>
          <Trackpoint>
            <Time>2020-05-25T05:43:54.000Z</Time>
            <Position>
              <LatitudeDegrees>38.19527654908597469329833984375</LatitudeDegrees>
              <LongitudeDegrees>-1.15287302993237972259521484375</LongitudeDegrees>
            </Position>
            <AltitudeMeters>267</AltitudeMeters>
            <DistanceMeters>NAN</DistanceMeters>
          </Trackpoint>
          <Trackpoint>
            <Time>2020-05-25T05:43:55.000Z</Time>
            <Position>
              <LatitudeDegrees>38.1952838413417339324951171875</LatitudeDegrees>
              <LongitudeDegrees>-1.152939498424530029296875</LongitudeDegrees>
            </Position>
            <AltitudeMeters>267.20001220703125</AltitudeMeters>
            <DistanceMeters>NAN</DistanceMeters>
          </Trackpoint>
          <Trackpoint>
            <Time>2020-05-25T05:43:56.000Z</Time>
            <Position>
              <LatitudeDegrees>38.1952855177223682403564453125</LatitudeDegrees>
              <LongitudeDegrees>-1.15300730802118778228759765625</LongitudeDegrees>
            </Position>
            <AltitudeMeters>267.399993896484375</AltitudeMeters>
            <DistanceMeters>NAN</DistanceMeters>
          </Trackpoint>
          <Trackpoint>
            <Time>2020-05-25T05:43:57.000Z</Time>
            <Position>
              <LatitudeDegrees>38.1952821649610996246337890625</LatitudeDegrees>
              <LongitudeDegrees>-1.15307620726525783538818359375</LongitudeDegrees>
            </Position>
            <AltitudeMeters>267.399993896484375</AltitudeMeters>
            <DistanceMeters>NAN</DistanceMeters>
          </Trackpoint>
          <Trackpoint>
            <Time>2020-05-25T05:43:58.000Z</Time>
            <Position>
              <LatitudeDegrees>38.19527587853372097015380859375</LatitudeDegrees>
              <LongitudeDegrees>-1.1531468667089939117431640625</LongitudeDegrees>
            </Position>
            <AltitudeMeters>267.600006103515625</AltitudeMeters>
            <DistanceMeters>NAN</DistanceMeters>
          </Trackpoint>
          <Trackpoint>
            <Time>2020-05-25T05:43:59.000Z</Time>
            <Position>
              <LatitudeDegrees>38.1952684186398983001708984375</LatitudeDegrees>
              <LongitudeDegrees>-1.1532172746956348419189453125</LongitudeDegrees>
            </Position>
            <AltitudeMeters>267.79998779296875</AltitudeMeters>
            <DistanceMeters>NAN</DistanceMeters>
          </Trackpoint>
          <Trackpoint>
            <Time>2020-05-25T05:44:00.000Z</Time>
            <Position>
              <LatitudeDegrees>38.19526045583188533782958984375</LatitudeDegrees>
              <LongitudeDegrees>-1.153286509215831756591796875</LongitudeDegrees>
            </Position>
            <AltitudeMeters>267.79998779296875</AltitudeMeters>
            <DistanceMeters>NAN</DistanceMeters>
          </Trackpoint>
          <Trackpoint>
            <Time>2020-05-25T05:44:01.000Z</Time>
            <Position>
              <LatitudeDegrees>38.19525240920484066009521484375</LatitudeDegrees>
              <LongitudeDegrees>-1.1533544026315212249755859375</LongitudeDegrees>
            </Position>
            <AltitudeMeters>268</AltitudeMeters>
            <DistanceMeters>NAN</DistanceMeters>
          </Trackpoint>
          <Trackpoint>
            <Time>2020-05-25T05:44:02.000Z</Time>
            <Position>
              <LatitudeDegrees>38.195238746702671051025390625</LatitudeDegrees>
              <LongitudeDegrees>-1.1534885130822658538818359375</LongitudeDegrees>
            </Position>
            <AltitudeMeters>267.79998779296875</AltitudeMeters>
            <DistanceMeters>NAN</DistanceMeters>
          </Trackpoint>
          <Trackpoint>
            <Time>2020-05-25T05:44:03.000Z</Time>
            <Position>
              <LatitudeDegrees>38.195238746702671051025390625</LatitudeDegrees>
              <LongitudeDegrees>-1.1534885130822658538818359375</LongitudeDegrees>
            </Position>
            <AltitudeMeters>267.79998779296875</AltitudeMeters>
            <DistanceMeters>NAN</DistanceMeters>
          </Trackpoint>
          <Trackpoint>
            <Time>2020-05-25T05:44:04.000Z</Time>
            <Position>
              <LatitudeDegrees>38.195232041180133819580078125</LatitudeDegrees>
              <LongitudeDegrees>-1.15355514921247959136962890625</LongitudeDegrees>
            </Position>
            <AltitudeMeters>268.20001220703125</AltitudeMeters>
            <DistanceMeters>NAN</DistanceMeters>
          </Trackpoint>
          <Trackpoint>
            <Time>2020-05-25T05:44:05.000Z</Time>
            <Position>
              <LatitudeDegrees>38.1952251680195331573486328125</LatitudeDegrees>
              <LongitudeDegrees>-1.15362119860947132110595703125</LongitudeDegrees>
            </Position>
            <AltitudeMeters>268</AltitudeMeters>
            <DistanceMeters>NAN</DistanceMeters>
          </Trackpoint>
          <Trackpoint>
            <Time>2020-05-25T05:44:06.000Z</Time>
            <Position>
              <LatitudeDegrees>38.19521988742053508758544921875</LatitudeDegrees>
              <LongitudeDegrees>-1.15368724800646305084228515625</LongitudeDegrees>
            </Position>
            <AltitudeMeters>268</AltitudeMeters>
            <DistanceMeters>NAN</DistanceMeters>
          </Trackpoint>
          <Trackpoint>
            <Time>2020-05-25T05:44:07.000Z</Time>
            <Position>
              <LatitudeDegrees>38.195216953754425048828125</LatitudeDegrees>
              <LongitudeDegrees>-1.15375363267958164215087890625</LongitudeDegrees>
            </Position>
            <AltitudeMeters>268</AltitudeMeters>
            <DistanceMeters>NAN</DistanceMeters>
          </Trackpoint>
          <Trackpoint>
            <Time>2020-05-25T05:44:08.000Z</Time>
            <Position>
              <LatitudeDegrees>38.19521586410701274871826171875</LatitudeDegrees>
              <LongitudeDegrees>-1.15382018499076366424560546875</LongitudeDegrees>
            </Position>
            <AltitudeMeters>268.399993896484375</AltitudeMeters>
            <DistanceMeters>NAN</DistanceMeters>
          </Trackpoint>
          <Trackpoint>
            <Time>2020-05-25T05:44:09.000Z</Time>
            <Position>
              <LatitudeDegrees>38.19521971978247165679931640625</LatitudeDegrees>
              <LongitudeDegrees>-1.15388573147356510162353515625</LongitudeDegrees>
            </Position>
            <AltitudeMeters>268.600006103515625</AltitudeMeters>
            <DistanceMeters>NAN</DistanceMeters>
          </Trackpoint>
          <Trackpoint>
            <Time>2020-05-25T05:44:10.000Z</Time>
            <Position>
              <LatitudeDegrees>38.1952291913330554962158203125</LatitudeDegrees>
              <LongitudeDegrees>-1.15395043976604938507080078125</LongitudeDegrees>
            </Position>
            <AltitudeMeters>268.600006103515625</AltitudeMeters>
            <DistanceMeters>NAN</DistanceMeters>
          </Trackpoint>
          <Trackpoint>
            <Time>2020-05-25T05:44:11.000Z</Time>
            <Position>
              <LatitudeDegrees>38.1952432729303836822509765625</LatitudeDegrees>
              <LongitudeDegrees>-1.15401305258274078369140625</LongitudeDegrees>
            </Position>
            <AltitudeMeters>269</AltitudeMeters>
            <DistanceMeters>NAN</DistanceMeters>
          </Trackpoint>
          <Trackpoint>
            <Time>2020-05-25T05:44:12.000Z</Time>
            <Position>
              <LatitudeDegrees>38.19526028819382190704345703125</LatitudeDegrees>
              <LongitudeDegrees>-1.15407281555235385894775390625</LongitudeDegrees>
            </Position>
            <AltitudeMeters>269.20001220703125</AltitudeMeters>
            <DistanceMeters>NAN</DistanceMeters>
          </Trackpoint>
          <Trackpoint>
            <Time>2020-05-25T05:44:13.000Z</Time>
            <Position>
              <LatitudeDegrees>38.195279650390148162841796875</LatitudeDegrees>
              <LongitudeDegrees>-1.15413081832230091094970703125</LongitudeDegrees>
            </Position>
            <AltitudeMeters>269.20001220703125</AltitudeMeters>
            <DistanceMeters>NAN</DistanceMeters>
          </Trackpoint>
          <Trackpoint>
            <Time>2020-05-25T05:44:14.000Z</Time>
            <Position>
              <LatitudeDegrees>38.19530085660517215728759765625</LatitudeDegrees>
              <LongitudeDegrees>-1.154189072549343109130859375</LongitudeDegrees>
            </Position>
            <AltitudeMeters>269.20001220703125</AltitudeMeters>
            <DistanceMeters>NAN</DistanceMeters>
          </Trackpoint>
          <Trackpoint>
            <Time>2020-05-25T05:44:15.000Z</Time>
            <Position>
              <LatitudeDegrees>38.1953223980963230133056640625</LatitudeDegrees>
              <LongitudeDegrees>-1.15424833260476589202880859375</LongitudeDegrees>
            </Position>
            <AltitudeMeters>269.20001220703125</AltitudeMeters>
            <DistanceMeters>NAN</DistanceMeters>
          </Trackpoint>
          <Trackpoint>
            <Time>2020-05-25T05:44:16.000Z</Time>
            <Position>
              <LatitudeDegrees>38.195345699787139892578125</LatitudeDegrees>
              <LongitudeDegrees>-1.154306419193744659423828125</LongitudeDegrees>
            </Position>
            <AltitudeMeters>269.600006103515625</AltitudeMeters>
            <DistanceMeters>NAN</DistanceMeters>
          </Trackpoint>
          <Trackpoint>
            <Time>2020-05-25T05:44:17.000Z</Time>
            <Position>
              <LatitudeDegrees>38.1953696720302104949951171875</LatitudeDegrees>
              <LongitudeDegrees>-1.15436417050659656524658203125</LongitudeDegrees>
            </Position>
            <AltitudeMeters>269.79998779296875</AltitudeMeters>
            <DistanceMeters>NAN</DistanceMeters>
          </Trackpoint>
          <Trackpoint>
            <Time>2020-05-25T05:44:18.000Z</Time>
            <Position>
              <LatitudeDegrees>38.19539372809231281280517578125</LatitudeDegrees>
              <LongitudeDegrees>-1.1544225923717021942138671875</LongitudeDegrees>
            </Position>
            <AltitudeMeters>269.79998779296875</AltitudeMeters>
            <DistanceMeters>NAN</DistanceMeters>
          </Trackpoint>
          <Trackpoint>
            <Time>2020-05-25T05:44:19.000Z</Time>
            <Position>
              <LatitudeDegrees>38.19541837088763713836669921875</LatitudeDegrees>
              <LongitudeDegrees>-1.15448067896068096160888671875</LongitudeDegrees>
            </Position>
            <AltitudeMeters>269.79998779296875</AltitudeMeters>
            <DistanceMeters>NAN</DistanceMeters>
          </Trackpoint>
          <Trackpoint>
            <Time>2020-05-25T05:44:20.000Z</Time>
            <Position>
              <LatitudeDegrees>38.1954677402973175048828125</LatitudeDegrees>
              <LongitudeDegrees>-1.1545989476144313812255859375</LongitudeDegrees>
            </Position>
            <AltitudeMeters>269.79998779296875</AltitudeMeters>
            <DistanceMeters>NAN</DistanceMeters>
          </Trackpoint>
          <Trackpoint>
            <Time>2020-05-25T05:44:21.000Z</Time>
            <Position>
              <LatitudeDegrees>38.1954677402973175048828125</LatitudeDegrees>
              <LongitudeDegrees>-1.1545989476144313812255859375</LongitudeDegrees>
            </Position>
            <AltitudeMeters>270.399993896484375</AltitudeMeters>
            <DistanceMeters>NAN</DistanceMeters>
          </Trackpoint>
          <Trackpoint>
            <Time>2020-05-25T05:44:22.000Z</Time>
            <Position>
              <LatitudeDegrees>38.19549213163554668426513671875</LatitudeDegrees>
              <LongitudeDegrees>-1.15465804003179073333740234375</LongitudeDegrees>
            </Position>
            <AltitudeMeters>270.399993896484375</AltitudeMeters>
            <DistanceMeters>NAN</DistanceMeters>
          </Trackpoint>
          <Trackpoint>
            <Time>2020-05-25T05:44:23.000Z</Time>
            <Position>
              <LatitudeDegrees>38.1955161876976490020751953125</LatitudeDegrees>
              <LongitudeDegrees>-1.154717467725276947021484375</LongitudeDegrees>
            </Position>
            <AltitudeMeters>270.399993896484375</AltitudeMeters>
            <DistanceMeters>NAN</DistanceMeters>
          </Trackpoint>
          <Trackpoint>
            <Time>2020-05-25T05:44:24.000Z</Time>
            <Position>
              <LatitudeDegrees>38.19556186906993389129638671875</LatitudeDegrees>
              <LongitudeDegrees>-1.1548369936645030975341796875</LongitudeDegrees>
            </Position>
            <AltitudeMeters>270.79998779296875</AltitudeMeters>
            <DistanceMeters>NAN</DistanceMeters>
          </Trackpoint>
          <Trackpoint>
            <Time>2020-05-25T05:44:25.000Z</Time>
            <Position>
              <LatitudeDegrees>38.19556186906993389129638671875</LatitudeDegrees>
              <LongitudeDegrees>-1.1548369936645030975341796875</LongitudeDegrees>
            </Position>
            <AltitudeMeters>271</AltitudeMeters>
            <DistanceMeters>NAN</DistanceMeters>
          </Trackpoint>
          <Trackpoint>
            <Time>2020-05-25T05:44:26.000Z</Time>
            <Position>
              <LatitudeDegrees>38.1956090591847896575927734375</LatitudeDegrees>
              <LongitudeDegrees>-1.15495258010923862457275390625</LongitudeDegrees>
            </Position>
            <AltitudeMeters>271</AltitudeMeters>
            <DistanceMeters>NAN</DistanceMeters>
          </Trackpoint>
          <Trackpoint>
            <Time>2020-05-25T05:44:27.000Z</Time>
            <Position>
              <LatitudeDegrees>38.1956090591847896575927734375</LatitudeDegrees>
              <LongitudeDegrees>-1.15495258010923862457275390625</LongitudeDegrees>
            </Position>
            <AltitudeMeters>271.20001220703125</AltitudeMeters>
            <DistanceMeters>NAN</DistanceMeters>
          </Trackpoint>
          <Trackpoint>
            <Time>2020-05-25T05:44:28.000Z</Time>
            <Position>
              <LatitudeDegrees>38.1956328637897968292236328125</LatitudeDegrees>
              <LongitudeDegrees>-1.15500924177467823028564453125</LongitudeDegrees>
            </Position>
            <AltitudeMeters>271.20001220703125</AltitudeMeters>
            <DistanceMeters>NAN</DistanceMeters>
          </Trackpoint>
          <Trackpoint>
            <Time>2020-05-25T05:44:29.000Z</Time>
            <Position>
              <LatitudeDegrees>38.1956556625664234161376953125</LatitudeDegrees>
              <LongitudeDegrees>-1.15506649017333984375</LongitudeDegrees>
            </Position>
            <AltitudeMeters>271.20001220703125</AltitudeMeters>
            <DistanceMeters>NAN</DistanceMeters>
          </Trackpoint>
          <Trackpoint>
            <Time>2020-05-25T05:44:30.000Z</Time>
            <Position>
              <LatitudeDegrees>38.19570167921483516693115234375</LatitudeDegrees>
              <LongitudeDegrees>-1.1551816575229167938232421875</LongitudeDegrees>
            </Position>
            <AltitudeMeters>271.399993896484375</AltitudeMeters>
            <DistanceMeters>NAN</DistanceMeters>
          </Trackpoint>
          <Trackpoint>
            <Time>2020-05-25T05:44:31.000Z</Time>
            <Position>
              <LatitudeDegrees>38.19570167921483516693115234375</LatitudeDegrees>
              <LongitudeDegrees>-1.1551816575229167938232421875</LongitudeDegrees>
            </Position>
            <AltitudeMeters>271.399993896484375</AltitudeMeters>
            <DistanceMeters>NAN</DistanceMeters>
          </Trackpoint>
          <Trackpoint>
            <Time>2020-05-25T05:44:32.000Z</Time>
            <Position>
              <LatitudeDegrees>38.19572590291500091552734375</LatitudeDegrees>
              <LongitudeDegrees>-1.1552373133599758148193359375</LongitudeDegrees>
            </Position>
            <AltitudeMeters>271.399993896484375</AltitudeMeters>
            <DistanceMeters>NAN</DistanceMeters>
          </Trackpoint>
          <Trackpoint>
            <Time>2020-05-25T05:44:33.000Z</Time>
            <Position>
              <LatitudeDegrees>38.195749707520008087158203125</LatitudeDegrees>
              <LongitudeDegrees>-1.15529271773993968963623046875</LongitudeDegrees>
            </Position>
            <AltitudeMeters>271.600006103515625</AltitudeMeters>
            <DistanceMeters>NAN</DistanceMeters>
          </Trackpoint>
          <Trackpoint>
            <Time>2020-05-25T05:44:34.000Z</Time>
            <Position>
              <LatitudeDegrees>38.19577225483953952789306640625</LatitudeDegrees>
              <LongitudeDegrees>-1.1553479544818401336669921875</LongitudeDegrees>
            </Position>
            <AltitudeMeters>271.79998779296875</AltitudeMeters>
            <DistanceMeters>NAN</DistanceMeters>
          </Trackpoint>
          <Trackpoint>
            <Time>2020-05-25T05:44:35.000Z</Time>
            <Position>
              <LatitudeDegrees>38.195793293416500091552734375</LatitudeDegrees>
              <LongitudeDegrees>-1.15540469996631145477294921875</LongitudeDegrees>
            </Position>
            <AltitudeMeters>272.20001220703125</AltitudeMeters>
            <DistanceMeters>NAN</DistanceMeters>
          </Trackpoint>
          <Trackpoint>
            <Time>2020-05-25T05:44:36.000Z</Time>
            <Position>
              <LatitudeDegrees>38.1958353705704212188720703125</LatitudeDegrees>
              <LongitudeDegrees>-1.15551886148750782012939453125</LongitudeDegrees>
            </Position>
            <AltitudeMeters>272.20001220703125</AltitudeMeters>
            <DistanceMeters>NAN</DistanceMeters>
          </Trackpoint>
          <Trackpoint>
            <Time>2020-05-25T05:44:37.000Z</Time>
            <Position>
              <LatitudeDegrees>38.1958353705704212188720703125</LatitudeDegrees>
              <LongitudeDegrees>-1.15551886148750782012939453125</LongitudeDegrees>
            </Position>
            <AltitudeMeters>272.399993896484375</AltitudeMeters>
            <DistanceMeters>NAN</DistanceMeters>
          </Trackpoint>
          <Trackpoint>
            <Time>2020-05-25T05:44:38.000Z</Time>
            <Position>
              <LatitudeDegrees>38.195877112448215484619140625</LatitudeDegrees>
              <LongitudeDegrees>-1.15563687868416309356689453125</LongitudeDegrees>
            </Position>
            <AltitudeMeters>272.399993896484375</AltitudeMeters>
            <DistanceMeters>NAN</DistanceMeters>
          </Trackpoint>
          <Trackpoint>
            <Time>2020-05-25T05:44:39.000Z</Time>
            <Position>
              <LatitudeDegrees>38.195877112448215484619140625</LatitudeDegrees>
              <LongitudeDegrees>-1.15563687868416309356689453125</LongitudeDegrees>
            </Position>
            <AltitudeMeters>272.600006103515625</AltitudeMeters>
            <DistanceMeters>NAN</DistanceMeters>
          </Trackpoint>
          <Trackpoint>
            <Time>2020-05-25T05:44:40.000Z</Time>
            <Position>
              <LatitudeDegrees>38.19589496590197086334228515625</LatitudeDegrees>
              <LongitudeDegrees>-1.15569823421537876129150390625</LongitudeDegrees>
            </Position>
            <AltitudeMeters>273</AltitudeMeters>
            <DistanceMeters>NAN</DistanceMeters>
          </Trackpoint>
          <Trackpoint>
            <Time>2020-05-25T05:44:41.000Z</Time>
            <Position>
              <LatitudeDegrees>38.19590963423252105712890625</LatitudeDegrees>
              <LongitudeDegrees>-1.1557613499462604522705078125</LongitudeDegrees>
            </Position>
            <AltitudeMeters>273.20001220703125</AltitudeMeters>
            <DistanceMeters>NAN</DistanceMeters>
          </Trackpoint>
          <Trackpoint>
            <Time>2020-05-25T05:44:42.000Z</Time>
            <Position>
              <LatitudeDegrees>38.19592983461916446685791015625</LatitudeDegrees>
              <LongitudeDegrees>-1.1558912694454193115234375</LongitudeDegrees>
            </Position>
            <AltitudeMeters>273.20001220703125</AltitudeMeters>
            <DistanceMeters>NAN</DistanceMeters>
          </Trackpoint>
          <Trackpoint>
            <Time>2020-05-25T05:44:43.000Z</Time>
            <Position>
              <LatitudeDegrees>38.19592983461916446685791015625</LatitudeDegrees>
              <LongitudeDegrees>-1.1558912694454193115234375</LongitudeDegrees>
            </Position>
            <AltitudeMeters>273.600006103515625</AltitudeMeters>
            <DistanceMeters>NAN</DistanceMeters>
          </Trackpoint>
          <Trackpoint>
            <Time>2020-05-25T05:44:44.000Z</Time>
            <Position>
              <LatitudeDegrees>38.19593871943652629852294921875</LatitudeDegrees>
              <LongitudeDegrees>-1.15595673210918903350830078125</LongitudeDegrees>
            </Position>
            <AltitudeMeters>273.600006103515625</AltitudeMeters>
            <DistanceMeters>NAN</DistanceMeters>
          </Trackpoint>
          <Trackpoint>
            <Time>2020-05-25T05:44:45.000Z</Time>
            <Position>
              <LatitudeDegrees>38.19594911299645900726318359375</LatitudeDegrees>
              <LongitudeDegrees>-1.1560221947729587554931640625</LongitudeDegrees>
            </Position>
            <AltitudeMeters>273.600006103515625</AltitudeMeters>
            <DistanceMeters>NAN</DistanceMeters>
          </Trackpoint>
          <Trackpoint>
            <Time>2020-05-25T05:44:46.000Z</Time>
            <Position>
              <LatitudeDegrees>38.1959624402225017547607421875</LatitudeDegrees>
              <LongitudeDegrees>-1.1560875736176967620849609375</LongitudeDegrees>
            </Position>
            <AltitudeMeters>274</AltitudeMeters>
            <DistanceMeters>NAN</DistanceMeters>
          </Trackpoint>
          <Trackpoint>
            <Time>2020-05-25T05:44:47.000Z</Time>
            <Position>
              <LatitudeDegrees>38.1959798745810985565185546875</LatitudeDegrees>
              <LongitudeDegrees>-1.1561514437198638916015625</LongitudeDegrees>
            </Position>
            <AltitudeMeters>274.20001220703125</AltitudeMeters>
            <DistanceMeters>NAN</DistanceMeters>
          </Trackpoint>
          <Trackpoint>
            <Time>2020-05-25T05:44:48.000Z</Time>
            <Position>
              <LatitudeDegrees>38.196003176271915435791015625</LatitudeDegrees>
              <LongitudeDegrees>-1.156210787594318389892578125</LongitudeDegrees>
            </Position>
            <AltitudeMeters>274.399993896484375</AltitudeMeters>
            <DistanceMeters>NAN</DistanceMeters>
          </Trackpoint>
          <Trackpoint>
            <Time>2020-05-25T05:44:49.000Z</Time>
            <Position>
              <LatitudeDegrees>38.19603024981915950775146484375</LatitudeDegrees>
              <LongitudeDegrees>-1.15626686252653598785400390625</LongitudeDegrees>
            </Position>
            <AltitudeMeters>274.399993896484375</AltitudeMeters>
            <DistanceMeters>NAN</DistanceMeters>
          </Trackpoint>
          <Trackpoint>
            <Time>2020-05-25T05:44:50.000Z</Time>
            <Position>
              <LatitudeDegrees>38.1960600055754184722900390625</LatitudeDegrees>
              <LongitudeDegrees>-1.1563202552497386932373046875</LongitudeDegrees>
            </Position>
            <AltitudeMeters>274.399993896484375</AltitudeMeters>
            <DistanceMeters>NAN</DistanceMeters>
          </Trackpoint>
          <Trackpoint>
            <Time>2020-05-25T05:44:51.000Z</Time>
            <Position>
              <LatitudeDegrees>38.19609244354069232940673828125</LatitudeDegrees>
              <LongitudeDegrees>-1.1563713848590850830078125</LongitudeDegrees>
            </Position>
            <AltitudeMeters>274.399993896484375</AltitudeMeters>
            <DistanceMeters>NAN</DistanceMeters>
          </Trackpoint>
          <Trackpoint>
            <Time>2020-05-25T05:44:52.000Z</Time>
            <Position>
              <LatitudeDegrees>38.19612530060112476348876953125</LatitudeDegrees>
              <LongitudeDegrees>-1.15642326883971691131591796875</LongitudeDegrees>
            </Position>
            <AltitudeMeters>274.79998779296875</AltitudeMeters>
            <DistanceMeters>NAN</DistanceMeters>
          </Trackpoint>
          <Trackpoint>
            <Time>2020-05-25T05:44:53.000Z</Time>
            <Position>
              <LatitudeDegrees>38.19615832529962062835693359375</LatitudeDegrees>
              <LongitudeDegrees>-1.15647473372519016265869140625</LongitudeDegrees>
            </Position>
            <AltitudeMeters>274.79998779296875</AltitudeMeters>
            <DistanceMeters>NAN</DistanceMeters>
          </Trackpoint>
          <Trackpoint>
            <Time>2020-05-25T05:44:54.000Z</Time>
            <Position>
              <LatitudeDegrees>38.19622370414435863494873046875</LatitudeDegrees>
              <LongitudeDegrees>-1.15657783113420009613037109375</LongitudeDegrees>
            </Position>
            <AltitudeMeters>274.79998779296875</AltitudeMeters>
            <DistanceMeters>NAN</DistanceMeters>
          </Trackpoint>
          <Trackpoint>
            <Time>2020-05-25T05:44:55.000Z</Time>
            <Position>
              <LatitudeDegrees>38.19622370414435863494873046875</LatitudeDegrees>
              <LongitudeDegrees>-1.15657783113420009613037109375</LongitudeDegrees>
            </Position>
            <AltitudeMeters>275</AltitudeMeters>
            <DistanceMeters>NAN</DistanceMeters>
          </Trackpoint>
          <Trackpoint>
            <Time>2020-05-25T05:44:56.000Z</Time>
            <Position>
              <LatitudeDegrees>38.1962876580655574798583984375</LatitudeDegrees>
              <LongitudeDegrees>-1.15668319165706634521484375</LongitudeDegrees>
            </Position>
            <AltitudeMeters>275</AltitudeMeters>
            <DistanceMeters>NAN</DistanceMeters>
          </Trackpoint>
          <Trackpoint>
            <Time>2020-05-25T05:44:57.000Z</Time>
            <Position>
              <LatitudeDegrees>38.1962876580655574798583984375</LatitudeDegrees>
              <LongitudeDegrees>-1.15668319165706634521484375</LongitudeDegrees>
            </Position>
            <AltitudeMeters>275</AltitudeMeters>
            <DistanceMeters>NAN</DistanceMeters>
          </Trackpoint>
          <Trackpoint>
            <Time>2020-05-25T05:44:58.000Z</Time>
            <Position>
              <LatitudeDegrees>38.196319676935672760009765625</LatitudeDegrees>
              <LongitudeDegrees>-1.15673742257058620452880859375</LongitudeDegrees>
            </Position>
            <AltitudeMeters>275.399993896484375</AltitudeMeters>
            <DistanceMeters>NAN</DistanceMeters>
          </Trackpoint>
          <Trackpoint>
            <Time>2020-05-25T05:44:59.000Z</Time>
            <Position>
              <LatitudeDegrees>38.19635211490094661712646484375</LatitudeDegrees>
              <LongitudeDegrees>-1.15679207257926464080810546875</LongitudeDegrees>
            </Position>
            <AltitudeMeters>275.399993896484375</AltitudeMeters>
            <DistanceMeters>NAN</DistanceMeters>
          </Trackpoint>
          <Trackpoint>
            <Time>2020-05-25T05:45:00.000Z</Time>
            <Position>
              <LatitudeDegrees>38.19641900248825550079345703125</LatitudeDegrees>
              <LongitudeDegrees>-1.156898103654384613037109375</LongitudeDegrees>
            </Position>
            <AltitudeMeters>275.399993896484375</AltitudeMeters>
            <DistanceMeters>NAN</DistanceMeters>
          </Trackpoint>
          <Trackpoint>
            <Time>2020-05-25T05:45:01.000Z</Time>
            <Position>
              <LatitudeDegrees>38.19641900248825550079345703125</LatitudeDegrees>
              <LongitudeDegrees>-1.156898103654384613037109375</LongitudeDegrees>
            </Position>
            <AltitudeMeters>275.600006103515625</AltitudeMeters>
            <DistanceMeters>NAN</DistanceMeters>
          </Trackpoint>
          <Trackpoint>
            <Time>2020-05-25T05:45:02.000Z</Time>
            <Position>
              <LatitudeDegrees>38.19645303301513195037841796875</LatitudeDegrees>
              <LongitudeDegrees>-1.15695099346339702606201171875</LongitudeDegrees>
            </Position>
            <AltitudeMeters>275.600006103515625</AltitudeMeters>
            <DistanceMeters>NAN</DistanceMeters>
          </Trackpoint>
          <Trackpoint>
            <Time>2020-05-25T05:45:03.000Z</Time>
            <Position>
              <LatitudeDegrees>38.19648589007556438446044921875</LatitudeDegrees>
              <LongitudeDegrees>-1.157006062567234039306640625</LongitudeDegrees>
            </Position>
            <AltitudeMeters>275.600006103515625</AltitudeMeters>
            <DistanceMeters>NAN</DistanceMeters>
          </Trackpoint>
          <Trackpoint>
            <Time>2020-05-25T05:45:04.000Z</Time>
            <Position>
              <LatitudeDegrees>38.19651857949793338775634765625</LatitudeDegrees>
              <LongitudeDegrees>-1.15706196986138820648193359375</LongitudeDegrees>
            </Position>
            <AltitudeMeters>275.79998779296875</AltitudeMeters>
            <DistanceMeters>NAN</DistanceMeters>
          </Trackpoint>
          <Trackpoint>
            <Time>2020-05-25T05:45:05.000Z</Time>
            <Position>
              <LatitudeDegrees>38.1965528614819049835205078125</LatitudeDegrees>
              <LongitudeDegrees>-1.1571168713271617889404296875</LongitudeDegrees>
            </Position>
            <AltitudeMeters>275.79998779296875</AltitudeMeters>
            <DistanceMeters>NAN</DistanceMeters>
          </Trackpoint>
          <Trackpoint>
            <Time>2020-05-25T05:45:06.000Z</Time>
            <Position>
              <LatitudeDegrees>38.1966266222298145294189453125</LatitudeDegrees>
              <LongitudeDegrees>-1.1572214774787425994873046875</LongitudeDegrees>
            </Position>
            <AltitudeMeters>276</AltitudeMeters>
            <DistanceMeters>NAN</DistanceMeters>
          </Trackpoint>
          <Trackpoint>
            <Time>2020-05-25T05:45:07.000Z</Time>
            <Position>
              <LatitudeDegrees>38.1966266222298145294189453125</LatitudeDegrees>
              <LongitudeDegrees>-1.1572214774787425994873046875</LongitudeDegrees>
            </Position>
            <AltitudeMeters>276</AltitudeMeters>
            <DistanceMeters>NAN</DistanceMeters>
          </Trackpoint>
          <Trackpoint>
            <Time>2020-05-25T05:45:08.000Z</Time>
            <Position>
              <LatitudeDegrees>38.1966655142605304718017578125</LatitudeDegrees>
              <LongitudeDegrees>-1.15727269090712070465087890625</LongitudeDegrees>
            </Position>
            <AltitudeMeters>276</AltitudeMeters>
            <DistanceMeters>NAN</DistanceMeters>
          </Trackpoint>
          <Trackpoint>
            <Time>2020-05-25T05:45:09.000Z</Time>
            <Position>
              <LatitudeDegrees>38.19670784287154674530029296875</LatitudeDegrees>
              <LongitudeDegrees>-1.1573177017271518707275390625</LongitudeDegrees>
            </Position>
            <AltitudeMeters>276.20001220703125</AltitudeMeters>
            <DistanceMeters>NAN</DistanceMeters>
          </Trackpoint>
          <Trackpoint>
            <Time>2020-05-25T05:45:10.000Z</Time>
            <Position>
              <LatitudeDegrees>38.19675394333899021148681640625</LatitudeDegrees>
              <LongitudeDegrees>-1.1573565937578678131103515625</LongitudeDegrees>
            </Position>
            <AltitudeMeters>276.20001220703125</AltitudeMeters>
            <DistanceMeters>NAN</DistanceMeters>
          </Trackpoint>
          <Trackpoint>
            <Time>2020-05-25T05:45:11.000Z</Time>
            <Position>
              <LatitudeDegrees>38.196800462901592254638671875</LatitudeDegrees>
              <LongitudeDegrees>-1.15739489905536174774169921875</LongitudeDegrees>
            </Position>
            <AltitudeMeters>276.399993896484375</AltitudeMeters>
            <DistanceMeters>NAN</DistanceMeters>
          </Trackpoint>
          <Trackpoint>
            <Time>2020-05-25T05:45:12.000Z</Time>
            <Position>
              <LatitudeDegrees>38.19684748537838459014892578125</LatitudeDegrees>
              <LongitudeDegrees>-1.15743127651512622833251953125</LongitudeDegrees>
            </Position>
            <AltitudeMeters>276.399993896484375</AltitudeMeters>
            <DistanceMeters>NAN</DistanceMeters>
          </Trackpoint>
          <Trackpoint>
            <Time>2020-05-25T05:45:13.000Z</Time>
            <Position>
              <LatitudeDegrees>38.196895010769367218017578125</LatitudeDegrees>
              <LongitudeDegrees>-1.15746614523231983184814453125</LongitudeDegrees>
            </Position>
            <AltitudeMeters>276.399993896484375</AltitudeMeters>
            <DistanceMeters>NAN</DistanceMeters>
          </Trackpoint>
          <Trackpoint>
            <Time>2020-05-25T05:45:14.000Z</Time>
            <Position>
              <LatitudeDegrees>38.1969411112368106842041015625</LatitudeDegrees>
              <LongitudeDegrees>-1.15750168450176715850830078125</LongitudeDegrees>
            </Position>
            <AltitudeMeters>276.399993896484375</AltitudeMeters>
            <DistanceMeters>NAN</DistanceMeters>
          </Trackpoint>
          <Trackpoint>
            <Time>2020-05-25T05:45:15.000Z</Time>
            <Position>
              <LatitudeDegrees>38.196986205875873565673828125</LatitudeDegrees>
              <LongitudeDegrees>-1.1575383134186267852783203125</LongitudeDegrees>
            </Position>
            <AltitudeMeters>276.600006103515625</AltitudeMeters>
            <DistanceMeters>NAN</DistanceMeters>
          </Trackpoint>
          <Trackpoint>
            <Time>2020-05-25T05:45:16.000Z</Time>
            <Position>
              <LatitudeDegrees>38.19703054614365100860595703125</LatitudeDegrees>
              <LongitudeDegrees>-1.1575765348970890045166015625</LongitudeDegrees>
            </Position>
            <AltitudeMeters>276.600006103515625</AltitudeMeters>
            <DistanceMeters>NAN</DistanceMeters>
          </Trackpoint>
          <Trackpoint>
            <Time>2020-05-25T05:45:17.000Z</Time>
            <Position>
              <LatitudeDegrees>38.19707245565950870513916015625</LatitudeDegrees>
              <LongitudeDegrees>-1.15761886350810527801513671875</LongitudeDegrees>
            </Position>
            <AltitudeMeters>276.600006103515625</AltitudeMeters>
            <DistanceMeters>NAN</DistanceMeters>
          </Trackpoint>
          <Trackpoint>
            <Time>2020-05-25T05:45:18.000Z</Time>
            <Position>
              <LatitudeDegrees>38.197111599147319793701171875</LatitudeDegrees>
              <LongitudeDegrees>-1.15766798146069049835205078125</LongitudeDegrees>
            </Position>
            <AltitudeMeters>276.600006103515625</AltitudeMeters>
            <DistanceMeters>NAN</DistanceMeters>
          </Trackpoint>
          <Trackpoint>
            <Time>2020-05-25T05:45:19.000Z</Time>
            <Position>
              <LatitudeDegrees>38.19714655168354511260986328125</LatitudeDegrees>
              <LongitudeDegrees>-1.15772447548806667327880859375</LongitudeDegrees>
            </Position>
            <AltitudeMeters>276.600006103515625</AltitudeMeters>
            <DistanceMeters>NAN</DistanceMeters>
          </Trackpoint>
          <Trackpoint>
            <Time>2020-05-25T05:45:20.000Z</Time>
            <Position>
              <LatitudeDegrees>38.197178654372692108154296875</LatitudeDegrees>
              <LongitudeDegrees>-1.15778365172445774078369140625</LongitudeDegrees>
            </Position>
            <AltitudeMeters>276.79998779296875</AltitudeMeters>
            <DistanceMeters>NAN</DistanceMeters>
          </Trackpoint>
          <Trackpoint>
            <Time>2020-05-25T05:45:21.000Z</Time>
            <Position>
              <LatitudeDegrees>38.19720556028187274932861328125</LatitudeDegrees>
              <LongitudeDegrees>-1.15784567780792713165283203125</LongitudeDegrees>
            </Position>
            <AltitudeMeters>276.79998779296875</AltitudeMeters>
            <DistanceMeters>NAN</DistanceMeters>
          </Trackpoint>
          <Trackpoint>
            <Time>2020-05-25T05:45:22.000Z</Time>
            <Position>
              <LatitudeDegrees>38.19722835905849933624267578125</LatitudeDegrees>
              <LongitudeDegrees>-1.15791005082428455352783203125</LongitudeDegrees>
            </Position>
            <AltitudeMeters>276.79998779296875</AltitudeMeters>
            <DistanceMeters>NAN</DistanceMeters>
          </Trackpoint>
          <Trackpoint>
            <Time>2020-05-25T05:45:23.000Z</Time>
            <Position>
              <LatitudeDegrees>38.19725551642477512359619140625</LatitudeDegrees>
              <LongitudeDegrees>-1.15797190926969051361083984375</LongitudeDegrees>
            </Position>
            <AltitudeMeters>277</AltitudeMeters>
            <DistanceMeters>NAN</DistanceMeters>
          </Trackpoint>
          <Trackpoint>
            <Time>2020-05-25T05:45:24.000Z</Time>
            <Position>
              <LatitudeDegrees>38.1973211467266082763671875</LatitudeDegrees>
              <LongitudeDegrees>-1.15808875299990177154541015625</LongitudeDegrees>
            </Position>
            <AltitudeMeters>277.20001220703125</AltitudeMeters>
            <DistanceMeters>NAN</DistanceMeters>
          </Trackpoint>
          <Trackpoint>
            <Time>2020-05-25T05:45:25.000Z</Time>
            <Position>
              <LatitudeDegrees>38.1973211467266082763671875</LatitudeDegrees>
              <LongitudeDegrees>-1.15808875299990177154541015625</LongitudeDegrees>
            </Position>
            <AltitudeMeters>277.399993896484375</AltitudeMeters>
            <DistanceMeters>NAN</DistanceMeters>
          </Trackpoint>
          <Trackpoint>
            <Time>2020-05-25T05:45:26.000Z</Time>
            <Position>
              <LatitudeDegrees>38.19735391996800899505615234375</LatitudeDegrees>
              <LongitudeDegrees>-1.1581481806933879852294921875</LongitudeDegrees>
            </Position>
            <AltitudeMeters>277.399993896484375</AltitudeMeters>
            <DistanceMeters>NAN</DistanceMeters>
          </Trackpoint>
          <Trackpoint>
            <Time>2020-05-25T05:45:27.000Z</Time>
            <Position>
              <LatitudeDegrees>38.1973873637616634368896484375</LatitudeDegrees>
              <LongitudeDegrees>-1.158208362758159637451171875</LongitudeDegrees>
            </Position>
            <AltitudeMeters>277.399993896484375</AltitudeMeters>
            <DistanceMeters>NAN</DistanceMeters>
          </Trackpoint>
          <Trackpoint>
            <Time>2020-05-25T05:45:28.000Z</Time>
            <Position>
              <LatitudeDegrees>38.1974205560982227325439453125</LatitudeDegrees>
              <LongitudeDegrees>-1.15826963447034358978271484375</LongitudeDegrees>
            </Position>
            <AltitudeMeters>277.399993896484375</AltitudeMeters>
            <DistanceMeters>NAN</DistanceMeters>
          </Trackpoint>
          <Trackpoint>
            <Time>2020-05-25T05:45:29.000Z</Time>
            <Position>
              <LatitudeDegrees>38.19745383225381374359130859375</LatitudeDegrees>
              <LongitudeDegrees>-1.15832998417317867279052734375</LongitudeDegrees>
            </Position>
            <AltitudeMeters>277.399993896484375</AltitudeMeters>
            <DistanceMeters>NAN</DistanceMeters>
          </Trackpoint>
          <Trackpoint>
            <Time>2020-05-25T05:45:30.000Z</Time>
            <Position>
              <LatitudeDegrees>38.197522647678852081298828125</LatitudeDegrees>
              <LongitudeDegrees>-1.1584459058940410614013671875</LongitudeDegrees>
            </Position>
            <AltitudeMeters>277.399993896484375</AltitudeMeters>
            <DistanceMeters>NAN</DistanceMeters>
          </Trackpoint>
          <Trackpoint>
            <Time>2020-05-25T05:45:31.000Z</Time>
            <Position>
              <LatitudeDegrees>38.197522647678852081298828125</LatitudeDegrees>
              <LongitudeDegrees>-1.1584459058940410614013671875</LongitudeDegrees>
            </Position>
            <AltitudeMeters>277.399993896484375</AltitudeMeters>
            <DistanceMeters>NAN</DistanceMeters>
          </Trackpoint>
          <Trackpoint>
            <Time>2020-05-25T05:45:32.000Z</Time>
            <Position>
              <LatitudeDegrees>38.19759364239871501922607421875</LatitudeDegrees>
              <LongitudeDegrees>-1.15856065414845943450927734375</LongitudeDegrees>
            </Position>
            <AltitudeMeters>277.399993896484375</AltitudeMeters>
            <DistanceMeters>NAN</DistanceMeters>
          </Trackpoint>
          <Trackpoint>
            <Time>2020-05-25T05:45:33.000Z</Time>
            <Position>
              <LatitudeDegrees>38.19759364239871501922607421875</LatitudeDegrees>
              <LongitudeDegrees>-1.15856065414845943450927734375</LongitudeDegrees>
            </Position>
            <AltitudeMeters>277.20001220703125</AltitudeMeters>
            <DistanceMeters>NAN</DistanceMeters>
          </Trackpoint>
          <Trackpoint>
            <Time>2020-05-25T05:45:34.000Z</Time>
            <Position>
              <LatitudeDegrees>38.19762834347784519195556640625</LatitudeDegrees>
              <LongitudeDegrees>-1.15861966274678707122802734375</LongitudeDegrees>
            </Position>
            <AltitudeMeters>277.20001220703125</AltitudeMeters>
            <DistanceMeters>NAN</DistanceMeters>
          </Trackpoint>
          <Trackpoint>
            <Time>2020-05-25T05:45:35.000Z</Time>
            <Position>
              <LatitudeDegrees>38.1976643018424510955810546875</LatitudeDegrees>
              <LongitudeDegrees>-1.15867733024060726165771484375</LongitudeDegrees>
            </Position>
            <AltitudeMeters>277</AltitudeMeters>
            <DistanceMeters>NAN</DistanceMeters>
          </Trackpoint>
          <Trackpoint>
            <Time>2020-05-25T05:45:36.000Z</Time>
            <Position>
              <LatitudeDegrees>38.19770193658769130706787109375</LatitudeDegrees>
              <LongitudeDegrees>-1.158733405172824859619140625</LongitudeDegrees>
            </Position>
            <AltitudeMeters>276.79998779296875</AltitudeMeters>
            <DistanceMeters>NAN</DistanceMeters>
          </Trackpoint>
          <Trackpoint>
            <Time>2020-05-25T05:45:37.000Z</Time>
            <Position>
              <LatitudeDegrees>38.19774024188518524169921875</LatitudeDegrees>
              <LongitudeDegrees>-1.15879048593342304229736328125</LongitudeDegrees>
            </Position>
            <AltitudeMeters>276.79998779296875</AltitudeMeters>
            <DistanceMeters>NAN</DistanceMeters>
          </Trackpoint>
          <Trackpoint>
            <Time>2020-05-25T05:45:38.000Z</Time>
            <Position>
              <LatitudeDegrees>38.1977809779345989227294921875</LatitudeDegrees>
              <LongitudeDegrees>-1.15884773433208465576171875</LongitudeDegrees>
            </Position>
            <AltitudeMeters>276.600006103515625</AltitudeMeters>
            <DistanceMeters>NAN</DistanceMeters>
          </Trackpoint>
          <Trackpoint>
            <Time>2020-05-25T05:45:39.000Z</Time>
            <Position>
              <LatitudeDegrees>38.19782339036464691162109375</LatitudeDegrees>
              <LongitudeDegrees>-1.15890515036880970001220703125</LongitudeDegrees>
            </Position>
            <AltitudeMeters>276.600006103515625</AltitudeMeters>
            <DistanceMeters>NAN</DistanceMeters>
          </Trackpoint>
          <Trackpoint>
            <Time>2020-05-25T05:45:40.000Z</Time>
            <Position>
              <LatitudeDegrees>38.19786538369953632354736328125</LatitudeDegrees>
              <LongitudeDegrees>-1.1589639075100421905517578125</LongitudeDegrees>
            </Position>
            <AltitudeMeters>276.600006103515625</AltitudeMeters>
            <DistanceMeters>NAN</DistanceMeters>
          </Trackpoint>
          <Trackpoint>
            <Time>2020-05-25T05:45:41.000Z</Time>
            <Position>
              <LatitudeDegrees>38.1979043595492839813232421875</LatitudeDegrees>
              <LongitudeDegrees>-1.1590240895748138427734375</LongitudeDegrees>
            </Position>
            <AltitudeMeters>276.399993896484375</AltitudeMeters>
            <DistanceMeters>NAN</DistanceMeters>
          </Trackpoint>
          <Trackpoint>
            <Time>2020-05-25T05:45:42.000Z</Time>
            <Position>
              <LatitudeDegrees>38.19794266484677791595458984375</LatitudeDegrees>
              <LongitudeDegrees>-1.15908133797347545623779296875</LongitudeDegrees>
            </Position>
            <AltitudeMeters>276.399993896484375</AltitudeMeters>
            <DistanceMeters>NAN</DistanceMeters>
          </Trackpoint>
          <Trackpoint>
            <Time>2020-05-25T05:45:43.000Z</Time>
            <Position>
              <LatitudeDegrees>38.19798256270587444305419921875</LatitudeDegrees>
              <LongitudeDegrees>-1.159135065972805023193359375</LongitudeDegrees>
            </Position>
            <AltitudeMeters>276.399993896484375</AltitudeMeters>
            <DistanceMeters>NAN</DistanceMeters>
          </Trackpoint>
          <Trackpoint>
            <Time>2020-05-25T05:45:44.000Z</Time>
            <Position>
              <LatitudeDegrees>38.19806185550987720489501953125</LatitudeDegrees>
              <LongitudeDegrees>-1.15924612618982791900634765625</LongitudeDegrees>
            </Position>
            <AltitudeMeters>276.399993896484375</AltitudeMeters>
            <DistanceMeters>NAN</DistanceMeters>
          </Trackpoint>
          <Trackpoint>
            <Time>2020-05-25T05:45:45.000Z</Time>
            <Position>
              <LatitudeDegrees>38.19806185550987720489501953125</LatitudeDegrees>
              <LongitudeDegrees>-1.15924612618982791900634765625</LongitudeDegrees>
            </Position>
            <AltitudeMeters>276.399993896484375</AltitudeMeters>
            <DistanceMeters>NAN</DistanceMeters>
          </Trackpoint>
          <Trackpoint>
            <Time>2020-05-25T05:45:46.000Z</Time>
            <Position>
              <LatitudeDegrees>38.19810125045478343963623046875</LatitudeDegrees>
              <LongitudeDegrees>-1.15930262021720409393310546875</LongitudeDegrees>
            </Position>
            <AltitudeMeters>276.399993896484375</AltitudeMeters>
            <DistanceMeters>NAN</DistanceMeters>
          </Trackpoint>
          <Trackpoint>
            <Time>2020-05-25T05:45:47.000Z</Time>
            <Position>
              <LatitudeDegrees>38.19813913665711879730224609375</LatitudeDegrees>
              <LongitudeDegrees>-1.1593595333397388458251953125</LongitudeDegrees>
            </Position>
            <AltitudeMeters>276.20001220703125</AltitudeMeters>
            <DistanceMeters>NAN</DistanceMeters>
          </Trackpoint>
          <Trackpoint>
            <Time>2020-05-25T05:45:48.000Z</Time>
            <Position>
              <LatitudeDegrees>38.198213316500186920166015625</LatitudeDegrees>
              <LongitudeDegrees>-1.15947042591869831085205078125</LongitudeDegrees>
            </Position>
            <AltitudeMeters>276.20001220703125</AltitudeMeters>
            <DistanceMeters>NAN</DistanceMeters>
          </Trackpoint>
          <Trackpoint>
            <Time>2020-05-25T05:45:49.000Z</Time>
            <Position>
              <LatitudeDegrees>38.198213316500186920166015625</LatitudeDegrees>
              <LongitudeDegrees>-1.15947042591869831085205078125</LongitudeDegrees>
            </Position>
            <AltitudeMeters>276.20001220703125</AltitudeMeters>
            <DistanceMeters>NAN</DistanceMeters>
          </Trackpoint>
          <Trackpoint>
            <Time>2020-05-25T05:45:50.000Z</Time>
            <Position>
              <LatitudeDegrees>38.1982921063899993896484375</LatitudeDegrees>
              <LongitudeDegrees>-1.15958207286894321441650390625</LongitudeDegrees>
            </Position>
            <AltitudeMeters>276.20001220703125</AltitudeMeters>
            <DistanceMeters>NAN</DistanceMeters>
          </Trackpoint>
          <Trackpoint>
            <Time>2020-05-25T05:45:51.000Z</Time>
            <Position>
              <LatitudeDegrees>38.1982921063899993896484375</LatitudeDegrees>
              <LongitudeDegrees>-1.15958207286894321441650390625</LongitudeDegrees>
            </Position>
            <AltitudeMeters>276.20001220703125</AltitudeMeters>
            <DistanceMeters>NAN</DistanceMeters>
          </Trackpoint>
          <Trackpoint>
            <Time>2020-05-25T05:45:52.000Z</Time>
            <Position>
              <LatitudeDegrees>38.1983325071632862091064453125</LatitudeDegrees>
              <LongitudeDegrees>-1.15963898599147796630859375</LongitudeDegrees>
            </Position>
            <AltitudeMeters>276</AltitudeMeters>
            <DistanceMeters>NAN</DistanceMeters>
          </Trackpoint>
          <Trackpoint>
            <Time>2020-05-25T05:45:53.000Z</Time>
            <Position>
              <LatitudeDegrees>38.19837366230785846710205078125</LatitudeDegrees>
              <LongitudeDegrees>-1.15969573147594928741455078125</LongitudeDegrees>
            </Position>
            <AltitudeMeters>276</AltitudeMeters>
            <DistanceMeters>NAN</DistanceMeters>
          </Trackpoint>
          <Trackpoint>
            <Time>2020-05-25T05:45:54.000Z</Time>
            <Position>
              <LatitudeDegrees>38.1984146498143672943115234375</LatitudeDegrees>
              <LongitudeDegrees>-1.1597528122365474700927734375</LongitudeDegrees>
            </Position>
            <AltitudeMeters>276</AltitudeMeters>
            <DistanceMeters>NAN</DistanceMeters>
          </Trackpoint>
          <Trackpoint>
            <Time>2020-05-25T05:45:55.000Z</Time>
            <Position>
              <LatitudeDegrees>38.1984562240540981292724609375</LatitudeDegrees>
              <LongitudeDegrees>-1.1598099768161773681640625</LongitudeDegrees>
            </Position>
            <AltitudeMeters>276</AltitudeMeters>
            <DistanceMeters>NAN</DistanceMeters>
          </Trackpoint>
          <Trackpoint>
            <Time>2020-05-25T05:45:56.000Z</Time>
            <Position>
              <LatitudeDegrees>38.1984974630177021026611328125</LatitudeDegrees>
              <LongitudeDegrees>-1.1598674766719341278076171875</LongitudeDegrees>
            </Position>
            <AltitudeMeters>276</AltitudeMeters>
            <DistanceMeters>NAN</DistanceMeters>
          </Trackpoint>
          <Trackpoint>
            <Time>2020-05-25T05:45:57.000Z</Time>
            <Position>
              <LatitudeDegrees>38.1985383667051792144775390625</LatitudeDegrees>
              <LongitudeDegrees>-1.1599261499941349029541015625</LongitudeDegrees>
            </Position>
            <AltitudeMeters>276</AltitudeMeters>
            <DistanceMeters>NAN</DistanceMeters>
          </Trackpoint>
          <Trackpoint>
            <Time>2020-05-25T05:45:58.000Z</Time>
            <Position>
              <LatitudeDegrees>38.198578767478466033935546875</LatitudeDegrees>
              <LongitudeDegrees>-1.15998473949730396270751953125</LongitudeDegrees>
            </Position>
            <AltitudeMeters>276</AltitudeMeters>
            <DistanceMeters>NAN</DistanceMeters>
          </Trackpoint>
          <Trackpoint>
            <Time>2020-05-25T05:45:59.000Z</Time>
            <Position>
              <LatitudeDegrees>38.1986188329756259918212890625</LatitudeDegrees>
              <LongitudeDegrees>-1.160042993724346160888671875</LongitudeDegrees>
            </Position>
            <AltitudeMeters>276</AltitudeMeters>
            <DistanceMeters>NAN</DistanceMeters>
          </Trackpoint>
          <Trackpoint>
            <Time>2020-05-25T05:46:00.000Z</Time>
            <Position>
              <LatitudeDegrees>38.19865931756794452667236328125</LatitudeDegrees>
              <LongitudeDegrees>-1.1600996553897857666015625</LongitudeDegrees>
            </Position>
            <AltitudeMeters>276</AltitudeMeters>
            <DistanceMeters>NAN</DistanceMeters>
          </Trackpoint>
          <Trackpoint>
            <Time>2020-05-25T05:46:01.000Z</Time>
            <Position>
              <LatitudeDegrees>38.19870022125542163848876953125</LatitudeDegrees>
              <LongitudeDegrees>-1.16015606559813022613525390625</LongitudeDegrees>
            </Position>
            <AltitudeMeters>276</AltitudeMeters>
            <DistanceMeters>NAN</DistanceMeters>
          </Trackpoint>
          <Trackpoint>
            <Time>2020-05-25T05:46:02.000Z</Time>
            <Position>
              <LatitudeDegrees>38.19874028675258159637451171875</LatitudeDegrees>
              <LongitudeDegrees>-1.16021105088293552398681640625</LongitudeDegrees>
            </Position>
            <AltitudeMeters>276</AltitudeMeters>
            <DistanceMeters>NAN</DistanceMeters>
          </Trackpoint>
          <Trackpoint>
            <Time>2020-05-25T05:46:03.000Z</Time>
            <Position>
              <LatitudeDegrees>38.19877968169748783111572265625</LatitudeDegrees>
              <LongitudeDegrees>-1.1602651141583919525146484375</LongitudeDegrees>
            </Position>
            <AltitudeMeters>276</AltitudeMeters>
            <DistanceMeters>NAN</DistanceMeters>
          </Trackpoint>
          <Trackpoint>
            <Time>2020-05-25T05:46:04.000Z</Time>
            <Position>
              <LatitudeDegrees>38.198818154633045196533203125</LatitudeDegrees>
              <LongitudeDegrees>-1.1603177525103092193603515625</LongitudeDegrees>
            </Position>
            <AltitudeMeters>276</AltitudeMeters>
            <DistanceMeters>NAN</DistanceMeters>
          </Trackpoint>
          <Trackpoint>
            <Time>2020-05-25T05:46:05.000Z</Time>
            <Position>
              <LatitudeDegrees>38.198855035006999969482421875</LatitudeDegrees>
              <LongitudeDegrees>-1.16037064231932163238525390625</LongitudeDegrees>
            </Position>
            <AltitudeMeters>276</AltitudeMeters>
            <DistanceMeters>NAN</DistanceMeters>
          </Trackpoint>
          <Trackpoint>
            <Time>2020-05-25T05:46:06.000Z</Time>
            <Position>
              <LatitudeDegrees>38.19889149628579616546630859375</LatitudeDegrees>
              <LongitudeDegrees>-1.1604230292141437530517578125</LongitudeDegrees>
            </Position>
            <AltitudeMeters>276</AltitudeMeters>
            <DistanceMeters>NAN</DistanceMeters>
          </Trackpoint>
          <Trackpoint>
            <Time>2020-05-25T05:46:07.000Z</Time>
            <Position>
              <LatitudeDegrees>38.1989277899265289306640625</LatitudeDegrees>
              <LongitudeDegrees>-1.160472817718982696533203125</LongitudeDegrees>
            </Position>
            <AltitudeMeters>276</AltitudeMeters>
            <DistanceMeters>NAN</DistanceMeters>
          </Trackpoint>
          <Trackpoint>
            <Time>2020-05-25T05:46:08.000Z</Time>
            <Position>
              <LatitudeDegrees>38.19896374829113483428955078125</LatitudeDegrees>
              <LongitudeDegrees>-1.16052277386188507080078125</LongitudeDegrees>
            </Position>
            <AltitudeMeters>276.20001220703125</AltitudeMeters>
            <DistanceMeters>NAN</DistanceMeters>
          </Trackpoint>
          <Trackpoint>
            <Time>2020-05-25T05:46:09.000Z</Time>
            <Position>
              <LatitudeDegrees>38.19900029338896274566650390625</LatitudeDegrees>
              <LongitudeDegrees>-1.16057281382381916046142578125</LongitudeDegrees>
            </Position>
            <AltitudeMeters>276.20001220703125</AltitudeMeters>
            <DistanceMeters>NAN</DistanceMeters>
          </Trackpoint>
          <Trackpoint>
            <Time>2020-05-25T05:46:10.000Z</Time>
            <Position>
              <LatitudeDegrees>38.1990372575819492340087890625</LatitudeDegrees>
              <LongitudeDegrees>-1.160621009767055511474609375</LongitudeDegrees>
            </Position>
            <AltitudeMeters>276.20001220703125</AltitudeMeters>
            <DistanceMeters>NAN</DistanceMeters>
          </Trackpoint>
          <Trackpoint>
            <Time>2020-05-25T05:46:11.000Z</Time>
            <Position>
              <LatitudeDegrees>38.199073970317840576171875</LatitudeDegrees>
              <LongitudeDegrees>-1.16066937334835529327392578125</LongitudeDegrees>
            </Position>
            <AltitudeMeters>276.399993896484375</AltitudeMeters>
            <DistanceMeters>NAN</DistanceMeters>
          </Trackpoint>
          <Trackpoint>
            <Time>2020-05-25T05:46:12.000Z</Time>
            <Position>
              <LatitudeDegrees>38.19911076687276363372802734375</LatitudeDegrees>
              <LongitudeDegrees>-1.1607170663774013519287109375</LongitudeDegrees>
            </Position>
            <AltitudeMeters>276.600006103515625</AltitudeMeters>
            <DistanceMeters>NAN</DistanceMeters>
          </Trackpoint>
          <Trackpoint>
            <Time>2020-05-25T05:46:13.000Z</Time>
            <Position>
              <LatitudeDegrees>38.1991482339799404144287109375</LatitudeDegrees>
              <LongitudeDegrees>-1.16076274774968624114990234375</LongitudeDegrees>
            </Position>
            <AltitudeMeters>276.79998779296875</AltitudeMeters>
            <DistanceMeters>NAN</DistanceMeters>
          </Trackpoint>
          <Trackpoint>
            <Time>2020-05-25T05:46:14.000Z</Time>
            <Position>
              <LatitudeDegrees>38.19918586872518062591552734375</LatitudeDegrees>
              <LongitudeDegrees>-1.16080599837005138397216796875</LongitudeDegrees>
            </Position>
            <AltitudeMeters>276.79998779296875</AltitudeMeters>
            <DistanceMeters>NAN</DistanceMeters>
          </Trackpoint>
          <Trackpoint>
            <Time>2020-05-25T05:46:15.000Z</Time>
            <Position>
              <LatitudeDegrees>38.199223168194293975830078125</LatitudeDegrees>
              <LongitudeDegrees>-1.16084723733365535736083984375</LongitudeDegrees>
            </Position>
            <AltitudeMeters>277</AltitudeMeters>
            <DistanceMeters>NAN</DistanceMeters>
          </Trackpoint>
          <Trackpoint>
            <Time>2020-05-25T05:46:16.000Z</Time>
            <Position>
              <LatitudeDegrees>38.19925962947309017181396484375</LatitudeDegrees>
              <LongitudeDegrees>-1.16088763810694217681884765625</LongitudeDegrees>
            </Position>
            <AltitudeMeters>277.20001220703125</AltitudeMeters>
            <DistanceMeters>NAN</DistanceMeters>
          </Trackpoint>
          <Trackpoint>
            <Time>2020-05-25T05:46:17.000Z</Time>
            <Position>
              <LatitudeDegrees>38.19929567165672779083251953125</LatitudeDegrees>
              <LongitudeDegrees>-1.1609242670238018035888671875</LongitudeDegrees>
            </Position>
            <AltitudeMeters>277.399993896484375</AltitudeMeters>
            <DistanceMeters>NAN</DistanceMeters>
          </Trackpoint>
          <Trackpoint>
            <Time>2020-05-25T05:46:18.000Z</Time>
            <Position>
              <LatitudeDegrees>38.19936792366206645965576171875</LatitudeDegrees>
              <LongitudeDegrees>-1.1609909869730472564697265625</LongitudeDegrees>
            </Position>
            <AltitudeMeters>277.399993896484375</AltitudeMeters>
            <DistanceMeters>NAN</DistanceMeters>
          </Trackpoint>
          <Trackpoint>
            <Time>2020-05-25T05:46:19.000Z</Time>
            <Position>
              <LatitudeDegrees>38.19936792366206645965576171875</LatitudeDegrees>
              <LongitudeDegrees>-1.1609909869730472564697265625</LongitudeDegrees>
            </Position>
            <AltitudeMeters>277.600006103515625</AltitudeMeters>
            <DistanceMeters>NAN</DistanceMeters>
          </Trackpoint>
          <Trackpoint>
            <Time>2020-05-25T05:46:20.000Z</Time>
            <Position>
              <LatitudeDegrees>38.199441097676753997802734375</LatitudeDegrees>
              <LongitudeDegrees>-1.16105494089424610137939453125</LongitudeDegrees>
            </Position>
            <AltitudeMeters>277.79998779296875</AltitudeMeters>
            <DistanceMeters>NAN</DistanceMeters>
          </Trackpoint>
          <Trackpoint>
            <Time>2020-05-25T05:46:21.000Z</Time>
            <Position>
              <LatitudeDegrees>38.199441097676753997802734375</LatitudeDegrees>
              <LongitudeDegrees>-1.16105494089424610137939453125</LongitudeDegrees>
            </Position>
            <AltitudeMeters>278</AltitudeMeters>
            <DistanceMeters>NAN</DistanceMeters>
          </Trackpoint>
          <Trackpoint>
            <Time>2020-05-25T05:46:22.000Z</Time>
            <Position>
              <LatitudeDegrees>38.19947722367942333221435546875</LatitudeDegrees>
              <LongitudeDegrees>-1.1610855348408222198486328125</LongitudeDegrees>
            </Position>
            <AltitudeMeters>278.20001220703125</AltitudeMeters>
            <DistanceMeters>NAN</DistanceMeters>
          </Trackpoint>
          <Trackpoint>
            <Time>2020-05-25T05:46:23.000Z</Time>
            <Position>
              <LatitudeDegrees>38.1995125114917755126953125</LatitudeDegrees>
              <LongitudeDegrees>-1.16111529059708118438720703125</LongitudeDegrees>
            </Position>
            <AltitudeMeters>278.600006103515625</AltitudeMeters>
            <DistanceMeters>NAN</DistanceMeters>
          </Trackpoint>
          <Trackpoint>
            <Time>2020-05-25T05:46:24.000Z</Time>
            <Position>
              <LatitudeDegrees>38.19958367384970188140869140625</LatitudeDegrees>
              <LongitudeDegrees>-1.16116910241544246673583984375</LongitudeDegrees>
            </Position>
            <AltitudeMeters>279</AltitudeMeters>
            <DistanceMeters>NAN</DistanceMeters>
          </Trackpoint>
          <Trackpoint>
            <Time>2020-05-25T05:46:25.000Z</Time>
            <Position>
              <LatitudeDegrees>38.19958367384970188140869140625</LatitudeDegrees>
              <LongitudeDegrees>-1.16116910241544246673583984375</LongitudeDegrees>
            </Position>
            <AltitudeMeters>279.20001220703125</AltitudeMeters>
            <DistanceMeters>NAN</DistanceMeters>
          </Trackpoint>
          <Trackpoint>
            <Time>2020-05-25T05:46:26.000Z</Time>
            <Position>
              <LatitudeDegrees>38.199619464576244354248046875</LatitudeDegrees>
              <LongitudeDegrees>-1.16119441576302051544189453125</LongitudeDegrees>
            </Position>
            <AltitudeMeters>279.399993896484375</AltitudeMeters>
            <DistanceMeters>NAN</DistanceMeters>
          </Trackpoint>
          <Trackpoint>
            <Time>2020-05-25T05:46:27.000Z</Time>
            <Position>
              <LatitudeDegrees>38.1996551714837551116943359375</LatitudeDegrees>
              <LongitudeDegrees>-1.16121855564415454864501953125</LongitudeDegrees>
            </Position>
            <AltitudeMeters>279.79998779296875</AltitudeMeters>
            <DistanceMeters>NAN</DistanceMeters>
          </Trackpoint>
          <Trackpoint>
            <Time>2020-05-25T05:46:28.000Z</Time>
            <Position>
              <LatitudeDegrees>38.1996903754770755767822265625</LatitudeDegrees>
              <LongitudeDegrees>-1.161240600049495697021484375</LongitudeDegrees>
            </Position>
            <AltitudeMeters>280</AltitudeMeters>
            <DistanceMeters>NAN</DistanceMeters>
          </Trackpoint>
          <Trackpoint>
            <Time>2020-05-25T05:46:29.000Z</Time>
            <Position>
              <LatitudeDegrees>38.1997262500226497650146484375</LatitudeDegrees>
              <LongitudeDegrees>-1.161259710788726806640625</LongitudeDegrees>
            </Position>
            <AltitudeMeters>280.20001220703125</AltitudeMeters>
            <DistanceMeters>NAN</DistanceMeters>
          </Trackpoint>
          <Trackpoint>
            <Time>2020-05-25T05:46:30.000Z</Time>
            <Position>
              <LatitudeDegrees>38.1997983343899250030517578125</LatitudeDegrees>
              <LongitudeDegrees>-1.1612974293529987335205078125</LongitudeDegrees>
            </Position>
            <AltitudeMeters>280.399993896484375</AltitudeMeters>
            <DistanceMeters>NAN</DistanceMeters>
          </Trackpoint>
          <Trackpoint>
            <Time>2020-05-25T05:46:31.000Z</Time>
            <Position>
              <LatitudeDegrees>38.1997983343899250030517578125</LatitudeDegrees>
              <LongitudeDegrees>-1.1612974293529987335205078125</LongitudeDegrees>
            </Position>
            <AltitudeMeters>280.600006103515625</AltitudeMeters>
            <DistanceMeters>NAN</DistanceMeters>
          </Trackpoint>
          <Trackpoint>
            <Time>2020-05-25T05:46:32.000Z</Time>
            <Position>
              <LatitudeDegrees>38.1998690776526927947998046875</LatitudeDegrees>
              <LongitudeDegrees>-1.161333136260509490966796875</LongitudeDegrees>
            </Position>
            <AltitudeMeters>280.79998779296875</AltitudeMeters>
            <DistanceMeters>NAN</DistanceMeters>
          </Trackpoint>
          <Trackpoint>
            <Time>2020-05-25T05:46:33.000Z</Time>
            <Position>
              <LatitudeDegrees>38.1998690776526927947998046875</LatitudeDegrees>
              <LongitudeDegrees>-1.161333136260509490966796875</LongitudeDegrees>
            </Position>
            <AltitudeMeters>281.20001220703125</AltitudeMeters>
            <DistanceMeters>NAN</DistanceMeters>
          </Trackpoint>
          <Trackpoint>
            <Time>2020-05-25T05:46:34.000Z</Time>
            <Position>
              <LatitudeDegrees>38.1999049521982669830322265625</LatitudeDegrees>
              <LongitudeDegrees>-1.16134964860975742340087890625</LongitudeDegrees>
            </Position>
            <AltitudeMeters>281.399993896484375</AltitudeMeters>
            <DistanceMeters>NAN</DistanceMeters>
          </Trackpoint>
          <Trackpoint>
            <Time>2020-05-25T05:46:35.000Z</Time>
            <Position>
              <LatitudeDegrees>38.19993956945836544036865234375</LatitudeDegrees>
              <LongitudeDegrees>-1.16136632859706878662109375</LongitudeDegrees>
            </Position>
            <AltitudeMeters>281.600006103515625</AltitudeMeters>
            <DistanceMeters>NAN</DistanceMeters>
          </Trackpoint>
          <Trackpoint>
            <Time>2020-05-25T05:46:36.000Z</Time>
            <Position>
              <LatitudeDegrees>38.20000796578824520111083984375</LatitudeDegrees>
              <LongitudeDegrees>-1.1613960005342960357666015625</LongitudeDegrees>
            </Position>
            <AltitudeMeters>282</AltitudeMeters>
            <DistanceMeters>NAN</DistanceMeters>
          </Trackpoint>
          <Trackpoint>
            <Time>2020-05-25T05:46:37.000Z</Time>
            <Position>
              <LatitudeDegrees>38.20000796578824520111083984375</LatitudeDegrees>
              <LongitudeDegrees>-1.1613960005342960357666015625</LongitudeDegrees>
            </Position>
            <AltitudeMeters>282.20001220703125</AltitudeMeters>
            <DistanceMeters>NAN</DistanceMeters>
          </Trackpoint>
          <Trackpoint>
            <Time>2020-05-25T05:46:38.000Z</Time>
            <Position>
              <LatitudeDegrees>38.20007837377488613128662109375</LatitudeDegrees>
              <LongitudeDegrees>-1.1614214815199375152587890625</LongitudeDegrees>
            </Position>
            <AltitudeMeters>282.20001220703125</AltitudeMeters>
            <DistanceMeters>NAN</DistanceMeters>
          </Trackpoint>
          <Trackpoint>
            <Time>2020-05-25T05:46:39.000Z</Time>
            <Position>
              <LatitudeDegrees>38.20007837377488613128662109375</LatitudeDegrees>
              <LongitudeDegrees>-1.1614214815199375152587890625</LongitudeDegrees>
            </Position>
            <AltitudeMeters>282.600006103515625</AltitudeMeters>
            <DistanceMeters>NAN</DistanceMeters>
          </Trackpoint>
          <Trackpoint>
            <Time>2020-05-25T05:46:40.000Z</Time>
            <Position>
              <LatitudeDegrees>38.2001144997775554656982421875</LatitudeDegrees>
              <LongitudeDegrees>-1.1614332161843776702880859375</LongitudeDegrees>
            </Position>
            <AltitudeMeters>282.600006103515625</AltitudeMeters>
            <DistanceMeters>NAN</DistanceMeters>
          </Trackpoint>
          <Trackpoint>
            <Time>2020-05-25T05:46:41.000Z</Time>
            <Position>
              <LatitudeDegrees>38.2001517154276371002197265625</LatitudeDegrees>
              <LongitudeDegrees>-1.16144352592527866363525390625</LongitudeDegrees>
            </Position>
            <AltitudeMeters>283</AltitudeMeters>
            <DistanceMeters>NAN</DistanceMeters>
          </Trackpoint>
          <Trackpoint>
            <Time>2020-05-25T05:46:42.000Z</Time>
            <Position>
              <LatitudeDegrees>38.200226984918117523193359375</LatitudeDegrees>
              <LongitudeDegrees>-1.16146087646484375</LongitudeDegrees>
            </Position>
            <AltitudeMeters>283</AltitudeMeters>
            <DistanceMeters>NAN</DistanceMeters>
          </Trackpoint>
          <Trackpoint>
            <Time>2020-05-25T05:46:43.000Z</Time>
            <Position>
              <LatitudeDegrees>38.200226984918117523193359375</LatitudeDegrees>
              <LongitudeDegrees>-1.16146087646484375</LongitudeDegrees>
            </Position>
            <AltitudeMeters>283.399993896484375</AltitudeMeters>
            <DistanceMeters>NAN</DistanceMeters>
          </Trackpoint>
          <Trackpoint>
            <Time>2020-05-25T05:46:44.000Z</Time>
            <Position>
              <LatitudeDegrees>38.200302086770534515380859375</LatitudeDegrees>
              <LongitudeDegrees>-1.1614774726331233978271484375</LongitudeDegrees>
            </Position>
            <AltitudeMeters>283.600006103515625</AltitudeMeters>
            <DistanceMeters>NAN</DistanceMeters>
          </Trackpoint>
          <Trackpoint>
            <Time>2020-05-25T05:46:45.000Z</Time>
            <Position>
              <LatitudeDegrees>38.200302086770534515380859375</LatitudeDegrees>
              <LongitudeDegrees>-1.1614774726331233978271484375</LongitudeDegrees>
            </Position>
            <AltitudeMeters>284</AltitudeMeters>
            <DistanceMeters>NAN</DistanceMeters>
          </Trackpoint>
          <Trackpoint>
            <Time>2020-05-25T05:46:46.000Z</Time>
            <Position>
              <LatitudeDegrees>38.200339972972869873046875</LatitudeDegrees>
              <LongitudeDegrees>-1.161484681069850921630859375</LongitudeDegrees>
            </Position>
            <AltitudeMeters>284.20001220703125</AltitudeMeters>
            <DistanceMeters>NAN</DistanceMeters>
          </Trackpoint>
          <Trackpoint>
            <Time>2020-05-25T05:46:47.000Z</Time>
            <Position>
              <LatitudeDegrees>38.20037760771811008453369140625</LatitudeDegrees>
              <LongitudeDegrees>-1.1614908836781978607177734375</LongitudeDegrees>
            </Position>
            <AltitudeMeters>284.399993896484375</AltitudeMeters>
            <DistanceMeters>NAN</DistanceMeters>
          </Trackpoint>
          <Trackpoint>
            <Time>2020-05-25T05:46:48.000Z</Time>
            <Position>
              <LatitudeDegrees>38.20041549392044544219970703125</LatitudeDegrees>
              <LongitudeDegrees>-1.16149566136300563812255859375</LongitudeDegrees>
            </Position>
            <AltitudeMeters>284.600006103515625</AltitudeMeters>
            <DistanceMeters>NAN</DistanceMeters>
          </Trackpoint>
          <Trackpoint>
            <Time>2020-05-25T05:46:49.000Z</Time>
            <Position>
              <LatitudeDegrees>38.20045304484665393829345703125</LatitudeDegrees>
              <LongitudeDegrees>-1.16150035522878170013427734375</LongitudeDegrees>
            </Position>
            <AltitudeMeters>284.79998779296875</AltitudeMeters>
            <DistanceMeters>NAN</DistanceMeters>
          </Trackpoint>
          <Trackpoint>
            <Time>2020-05-25T05:46:50.000Z</Time>
            <Position>
              <LatitudeDegrees>38.200490511953830718994140625</LatitudeDegrees>
              <LongitudeDegrees>-1.16150370799005031585693359375</LongitudeDegrees>
            </Position>
            <AltitudeMeters>285</AltitudeMeters>
            <DistanceMeters>NAN</DistanceMeters>
          </Trackpoint>
          <Trackpoint>
            <Time>2020-05-25T05:46:51.000Z</Time>
            <Position>
              <LatitudeDegrees>38.2005285657942295074462890625</LatitudeDegrees>
              <LongitudeDegrees>-1.16150622256100177764892578125</LongitudeDegrees>
            </Position>
            <AltitudeMeters>285.600006103515625</AltitudeMeters>
            <DistanceMeters>NAN</DistanceMeters>
          </Trackpoint>
          <Trackpoint>
            <Time>2020-05-25T05:46:52.000Z</Time>
            <Position>
              <LatitudeDegrees>38.200566954910755157470703125</LatitudeDegrees>
              <LongitudeDegrees>-1.1615078151226043701171875</LongitudeDegrees>
            </Position>
            <AltitudeMeters>285.79998779296875</AltitudeMeters>
            <DistanceMeters>NAN</DistanceMeters>
          </Trackpoint>
          <Trackpoint>
            <Time>2020-05-25T05:46:53.000Z</Time>
            <Position>
              <LatitudeDegrees>38.20060492493212223052978515625</LatitudeDegrees>
              <LongitudeDegrees>-1.1615106649696826934814453125</LongitudeDegrees>
            </Position>
            <AltitudeMeters>286</AltitudeMeters>
            <DistanceMeters>NAN</DistanceMeters>
          </Trackpoint>
          <Trackpoint>
            <Time>2020-05-25T05:46:54.000Z</Time>
            <Position>
              <LatitudeDegrees>38.200641386210918426513671875</LatitudeDegrees>
              <LongitudeDegrees>-1.16151443682610988616943359375</LongitudeDegrees>
            </Position>
            <AltitudeMeters>286.20001220703125</AltitudeMeters>
            <DistanceMeters>NAN</DistanceMeters>
          </Trackpoint>
          <Trackpoint>
            <Time>2020-05-25T05:46:55.000Z</Time>
            <Position>
              <LatitudeDegrees>38.20067767985165119171142578125</LatitudeDegrees>
              <LongitudeDegrees>-1.16151846013963222503662109375</LongitudeDegrees>
            </Position>
            <AltitudeMeters>286.399993896484375</AltitudeMeters>
            <DistanceMeters>NAN</DistanceMeters>
          </Trackpoint>
          <Trackpoint>
            <Time>2020-05-25T05:46:56.000Z</Time>
            <Position>
              <LatitudeDegrees>38.2007139734923839569091796875</LatitudeDegrees>
              <LongitudeDegrees>-1.1615220643579959869384765625</LongitudeDegrees>
            </Position>
            <AltitudeMeters>286.600006103515625</AltitudeMeters>
            <DistanceMeters>NAN</DistanceMeters>
          </Trackpoint>
          <Trackpoint>
            <Time>2020-05-25T05:46:57.000Z</Time>
            <Position>
              <LatitudeDegrees>38.20075043477118015289306640625</LatitudeDegrees>
              <LongitudeDegrees>-1.16152499802410602569580078125</LongitudeDegrees>
            </Position>
            <AltitudeMeters>287</AltitudeMeters>
            <DistanceMeters>NAN</DistanceMeters>
          </Trackpoint>
          <Trackpoint>
            <Time>2020-05-25T05:46:58.000Z</Time>
            <Position>
              <LatitudeDegrees>38.20078630931675434112548828125</LatitudeDegrees>
              <LongitudeDegrees>-1.16152801550924777984619140625</LongitudeDegrees>
            </Position>
            <AltitudeMeters>287.20001220703125</AltitudeMeters>
            <DistanceMeters>NAN</DistanceMeters>
          </Trackpoint>
          <Trackpoint>
            <Time>2020-05-25T05:46:59.000Z</Time>
            <Position>
              <LatitudeDegrees>38.2008219324052333831787109375</LatitudeDegrees>
              <LongitudeDegrees>-1.161530949175357818603515625</LongitudeDegrees>
            </Position>
            <AltitudeMeters>287.399993896484375</AltitudeMeters>
            <DistanceMeters>NAN</DistanceMeters>
          </Trackpoint>
          <Trackpoint>
            <Time>2020-05-25T05:47:00.000Z</Time>
            <Position>
              <LatitudeDegrees>38.2008930109441280364990234375</LatitudeDegrees>
              <LongitudeDegrees>-1.161535643041133880615234375</LongitudeDegrees>
            </Position>
            <AltitudeMeters>287.600006103515625</AltitudeMeters>
            <DistanceMeters>NAN</DistanceMeters>
          </Trackpoint>
          <Trackpoint>
            <Time>2020-05-25T05:47:01.000Z</Time>
            <Position>
              <LatitudeDegrees>38.2008930109441280364990234375</LatitudeDegrees>
              <LongitudeDegrees>-1.161535643041133880615234375</LongitudeDegrees>
            </Position>
            <AltitudeMeters>287.79998779296875</AltitudeMeters>
            <DistanceMeters>NAN</DistanceMeters>
          </Trackpoint>
          <Trackpoint>
            <Time>2020-05-25T05:47:02.000Z</Time>
            <Position>
              <LatitudeDegrees>38.2009278796613216400146484375</LatitudeDegrees>
              <LongitudeDegrees>-1.1615364812314510345458984375</LongitudeDegrees>
            </Position>
            <AltitudeMeters>288</AltitudeMeters>
            <DistanceMeters>NAN</DistanceMeters>
          </Trackpoint>
          <Trackpoint>
            <Time>2020-05-25T05:47:03.000Z</Time>
            <Position>
              <LatitudeDegrees>38.20096350274980068206787109375</LatitudeDegrees>
              <LongitudeDegrees>-1.16153706796467304229736328125</LongitudeDegrees>
            </Position>
            <AltitudeMeters>288.20001220703125</AltitudeMeters>
            <DistanceMeters>NAN</DistanceMeters>
          </Trackpoint>
          <Trackpoint>
            <Time>2020-05-25T05:47:04.000Z</Time>
            <Position>
              <LatitudeDegrees>38.2009996287524700164794921875</LatitudeDegrees>
              <LongitudeDegrees>-1.16153790615499019622802734375</LongitudeDegrees>
            </Position>
            <AltitudeMeters>288.399993896484375</AltitudeMeters>
            <DistanceMeters>NAN</DistanceMeters>
          </Trackpoint>
          <Trackpoint>
            <Time>2020-05-25T05:47:05.000Z</Time>
            <Position>
              <LatitudeDegrees>38.2010361738502979278564453125</LatitudeDegrees>
              <LongitudeDegrees>-1.16153857670724391937255859375</LongitudeDegrees>
            </Position>
            <AltitudeMeters>288.79998779296875</AltitudeMeters>
            <DistanceMeters>NAN</DistanceMeters>
          </Trackpoint>
          <Trackpoint>
            <Time>2020-05-25T05:47:06.000Z</Time>
            <Position>
              <LatitudeDegrees>38.201072551310062408447265625</LatitudeDegrees>
              <LongitudeDegrees>-1.16154075600206851959228515625</LongitudeDegrees>
            </Position>
            <AltitudeMeters>289</AltitudeMeters>
            <DistanceMeters>NAN</DistanceMeters>
          </Trackpoint>
          <Trackpoint>
            <Time>2020-05-25T05:47:07.000Z</Time>
            <Position>
              <LatitudeDegrees>38.2011085934937000274658203125</LatitudeDegrees>
              <LongitudeDegrees>-1.16154310293495655059814453125</LongitudeDegrees>
            </Position>
            <AltitudeMeters>289.20001220703125</AltitudeMeters>
            <DistanceMeters>NAN</DistanceMeters>
          </Trackpoint>
          <Trackpoint>
            <Time>2020-05-25T05:47:08.000Z</Time>
            <Position>
              <LatitudeDegrees>38.20114388130605220794677734375</LatitudeDegrees>
              <LongitudeDegrees>-1.161543689668178558349609375</LongitudeDegrees>
            </Position>
            <AltitudeMeters>289.399993896484375</AltitudeMeters>
            <DistanceMeters>NAN</DistanceMeters>
          </Trackpoint>
          <Trackpoint>
            <Time>2020-05-25T05:47:09.000Z</Time>
            <Position>
              <LatitudeDegrees>38.20117942057549953460693359375</LatitudeDegrees>
              <LongitudeDegrees>-1.16154494695365428924560546875</LongitudeDegrees>
            </Position>
            <AltitudeMeters>289.79998779296875</AltitudeMeters>
            <DistanceMeters>NAN</DistanceMeters>
          </Trackpoint>
          <Trackpoint>
            <Time>2020-05-25T05:47:10.000Z</Time>
            <Position>
              <LatitudeDegrees>38.20121412165462970733642578125</LatitudeDegrees>
              <LongitudeDegrees>-1.161546371877193450927734375</LongitudeDegrees>
            </Position>
            <AltitudeMeters>289.79998779296875</AltitudeMeters>
            <DistanceMeters>NAN</DistanceMeters>
          </Trackpoint>
          <Trackpoint>
            <Time>2020-05-25T05:47:11.000Z</Time>
            <Position>
              <LatitudeDegrees>38.2012487389147281646728515625</LatitudeDegrees>
              <LongitudeDegrees>-1.16154746152460575103759765625</LongitudeDegrees>
            </Position>
            <AltitudeMeters>290.20001220703125</AltitudeMeters>
            <DistanceMeters>NAN</DistanceMeters>
          </Trackpoint>
          <Trackpoint>
            <Time>2020-05-25T05:47:12.000Z</Time>
            <Position>
              <LatitudeDegrees>38.20131705142557621002197265625</LatitudeDegrees>
              <LongitudeDegrees>-1.1615532450377941131591796875</LongitudeDegrees>
            </Position>
            <AltitudeMeters>290.20001220703125</AltitudeMeters>
            <DistanceMeters>NAN</DistanceMeters>
          </Trackpoint>
          <Trackpoint>
            <Time>2020-05-25T05:47:13.000Z</Time>
            <Position>
              <LatitudeDegrees>38.20131705142557621002197265625</LatitudeDegrees>
              <LongitudeDegrees>-1.1615532450377941131591796875</LongitudeDegrees>
            </Position>
            <AltitudeMeters>290.399993896484375</AltitudeMeters>
            <DistanceMeters>NAN</DistanceMeters>
          </Trackpoint>
          <Trackpoint>
            <Time>2020-05-25T05:47:14.000Z</Time>
            <Position>
              <LatitudeDegrees>38.20135074667632579803466796875</LatitudeDegrees>
              <LongitudeDegrees>-1.16155534051358699798583984375</LongitudeDegrees>
            </Position>
            <AltitudeMeters>290.600006103515625</AltitudeMeters>
            <DistanceMeters>NAN</DistanceMeters>
          </Trackpoint>
          <Trackpoint>
            <Time>2020-05-25T05:47:15.000Z</Time>
            <Position>
              <LatitudeDegrees>38.2013841904699802398681640625</LatitudeDegrees>
              <LongitudeDegrees>-1.1615576036274433135986328125</LongitudeDegrees>
            </Position>
            <AltitudeMeters>291</AltitudeMeters>
            <DistanceMeters>NAN</DistanceMeters>
          </Trackpoint>
          <Trackpoint>
            <Time>2020-05-25T05:47:16.000Z</Time>
            <Position>
              <LatitudeDegrees>38.20141830481588840484619140625</LatitudeDegrees>
              <LongitudeDegrees>-1.1615596152842044830322265625</LongitudeDegrees>
            </Position>
            <AltitudeMeters>291.20001220703125</AltitudeMeters>
            <DistanceMeters>NAN</DistanceMeters>
          </Trackpoint>
          <Trackpoint>
            <Time>2020-05-25T05:47:17.000Z</Time>
            <Position>
              <LatitudeDegrees>38.20145350880920886993408203125</LatitudeDegrees>
              <LongitudeDegrees>-1.16156087256968021392822265625</LongitudeDegrees>
            </Position>
            <AltitudeMeters>291.399993896484375</AltitudeMeters>
            <DistanceMeters>NAN</DistanceMeters>
          </Trackpoint>
          <Trackpoint>
            <Time>2020-05-25T05:47:18.000Z</Time>
            <Position>
              <LatitudeDegrees>38.20148871280252933502197265625</LatitudeDegrees>
              <LongitudeDegrees>-1.16156321950256824493408203125</LongitudeDegrees>
            </Position>
            <AltitudeMeters>291.79998779296875</AltitudeMeters>
            <DistanceMeters>NAN</DistanceMeters>
          </Trackpoint>
          <Trackpoint>
            <Time>2020-05-25T05:47:19.000Z</Time>
            <Position>
              <LatitudeDegrees>38.20152358151972293853759765625</LatitudeDegrees>
              <LongitudeDegrees>-1.16156606934964656829833984375</LongitudeDegrees>
            </Position>
            <AltitudeMeters>292.20001220703125</AltitudeMeters>
            <DistanceMeters>NAN</DistanceMeters>
          </Trackpoint>
          <Trackpoint>
            <Time>2020-05-25T05:47:20.000Z</Time>
            <Position>
              <LatitudeDegrees>38.20155727677047252655029296875</LatitudeDegrees>
              <LongitudeDegrees>-1.16156858392059803009033203125</LongitudeDegrees>
            </Position>
            <AltitudeMeters>292.399993896484375</AltitudeMeters>
            <DistanceMeters>NAN</DistanceMeters>
          </Trackpoint>
          <Trackpoint>
            <Time>2020-05-25T05:47:21.000Z</Time>
            <Position>
              <LatitudeDegrees>38.20159080438315868377685546875</LatitudeDegrees>
              <LongitudeDegrees>-1.161571852862834930419921875</LongitudeDegrees>
            </Position>
            <AltitudeMeters>292.79998779296875</AltitudeMeters>
            <DistanceMeters>NAN</DistanceMeters>
          </Trackpoint>
          <Trackpoint>
            <Time>2020-05-25T05:47:22.000Z</Time>
            <Position>
              <LatitudeDegrees>38.201624415814876556396484375</LatitudeDegrees>
              <LongitudeDegrees>-1.1615757085382938385009765625</LongitudeDegrees>
            </Position>
            <AltitudeMeters>293</AltitudeMeters>
            <DistanceMeters>NAN</DistanceMeters>
          </Trackpoint>
          <Trackpoint>
            <Time>2020-05-25T05:47:23.000Z</Time>
            <Position>
              <LatitudeDegrees>38.201657943427562713623046875</LatitudeDegrees>
              <LongitudeDegrees>-1.16157763637602329254150390625</LongitudeDegrees>
            </Position>
            <AltitudeMeters>293.20001220703125</AltitudeMeters>
            <DistanceMeters>NAN</DistanceMeters>
          </Trackpoint>
          <Trackpoint>
            <Time>2020-05-25T05:47:24.000Z</Time>
            <Position>
              <LatitudeDegrees>38.20169071666896343231201171875</LatitudeDegrees>
              <LongitudeDegrees>-1.16157880984246730804443359375</LongitudeDegrees>
            </Position>
            <AltitudeMeters>293.399993896484375</AltitudeMeters>
            <DistanceMeters>NAN</DistanceMeters>
          </Trackpoint>
          <Trackpoint>
            <Time>2020-05-25T05:47:25.000Z</Time>
            <Position>
              <LatitudeDegrees>38.20172307081520557403564453125</LatitudeDegrees>
              <LongitudeDegrees>-1.16158082149922847747802734375</LongitudeDegrees>
            </Position>
            <AltitudeMeters>293.79998779296875</AltitudeMeters>
            <DistanceMeters>NAN</DistanceMeters>
          </Trackpoint>
          <Trackpoint>
            <Time>2020-05-25T05:47:26.000Z</Time>
            <Position>
              <LatitudeDegrees>38.20175550878047943115234375</LatitudeDegrees>
              <LongitudeDegrees>-1.16158333607017993927001953125</LongitudeDegrees>
            </Position>
            <AltitudeMeters>294</AltitudeMeters>
            <DistanceMeters>NAN</DistanceMeters>
          </Trackpoint>
          <Trackpoint>
            <Time>2020-05-25T05:47:27.000Z</Time>
            <Position>
              <LatitudeDegrees>38.201788365840911865234375</LatitudeDegrees>
              <LongitudeDegrees>-1.16158735938370227813720703125</LongitudeDegrees>
            </Position>
            <AltitudeMeters>294.20001220703125</AltitudeMeters>
            <DistanceMeters>NAN</DistanceMeters>
          </Trackpoint>
          <Trackpoint>
            <Time>2020-05-25T05:47:28.000Z</Time>
            <Position>
              <LatitudeDegrees>38.20182122290134429931640625</LatitudeDegrees>
              <LongitudeDegrees>-1.16159222088754177093505859375</LongitudeDegrees>
            </Position>
            <AltitudeMeters>294.399993896484375</AltitudeMeters>
            <DistanceMeters>NAN</DistanceMeters>
          </Trackpoint>
          <Trackpoint>
            <Time>2020-05-25T05:47:29.000Z</Time>
            <Position>
              <LatitudeDegrees>38.20185433141887187957763671875</LatitudeDegrees>
              <LongitudeDegrees>-1.1615963280200958251953125</LongitudeDegrees>
            </Position>
            <AltitudeMeters>294.600006103515625</AltitudeMeters>
            <DistanceMeters>NAN</DistanceMeters>
          </Trackpoint>
          <Trackpoint>
            <Time>2020-05-25T05:47:30.000Z</Time>
            <Position>
              <LatitudeDegrees>38.201887607574462890625</LatitudeDegrees>
              <LongitudeDegrees>-1.1616001836955547332763671875</LongitudeDegrees>
            </Position>
            <AltitudeMeters>295</AltitudeMeters>
            <DistanceMeters>NAN</DistanceMeters>
          </Trackpoint>
          <Trackpoint>
            <Time>2020-05-25T05:47:31.000Z</Time>
            <Position>
              <LatitudeDegrees>38.20192105136811733245849609375</LatitudeDegrees>
              <LongitudeDegrees>-1.1616052128374576568603515625</LongitudeDegrees>
            </Position>
            <AltitudeMeters>295.20001220703125</AltitudeMeters>
            <DistanceMeters>NAN</DistanceMeters>
          </Trackpoint>
          <Trackpoint>
            <Time>2020-05-25T05:47:32.000Z</Time>
            <Position>
              <LatitudeDegrees>38.201954662799835205078125</LatitudeDegrees>
              <LongitudeDegrees>-1.16161183454096317291259765625</LongitudeDegrees>
            </Position>
            <AltitudeMeters>295.399993896484375</AltitudeMeters>
            <DistanceMeters>NAN</DistanceMeters>
          </Trackpoint>
          <Trackpoint>
            <Time>2020-05-25T05:47:33.000Z</Time>
            <Position>
              <LatitudeDegrees>38.201987855136394500732421875</LatitudeDegrees>
              <LongitudeDegrees>-1.16161937825381755828857421875</LongitudeDegrees>
            </Position>
            <AltitudeMeters>295.79998779296875</AltitudeMeters>
            <DistanceMeters>NAN</DistanceMeters>
          </Trackpoint>
          <Trackpoint>
            <Time>2020-05-25T05:47:34.000Z</Time>
            <Position>
              <LatitudeDegrees>38.2020205445587635040283203125</LatitudeDegrees>
              <LongitudeDegrees>-1.16162784397602081298828125</LongitudeDegrees>
            </Position>
            <AltitudeMeters>296</AltitudeMeters>
            <DistanceMeters>NAN</DistanceMeters>
          </Trackpoint>
          <Trackpoint>
            <Time>2020-05-25T05:47:35.000Z</Time>
            <Position>
              <LatitudeDegrees>38.20205298252403736114501953125</LatitudeDegrees>
              <LongitudeDegrees>-1.16163832135498523712158203125</LongitudeDegrees>
            </Position>
            <AltitudeMeters>296.399993896484375</AltitudeMeters>
            <DistanceMeters>NAN</DistanceMeters>
          </Trackpoint>
          <Trackpoint>
            <Time>2020-05-25T05:47:36.000Z</Time>
            <Position>
              <LatitudeDegrees>38.2020852528512477874755859375</LatitudeDegrees>
              <LongitudeDegrees>-1.16165039129555225372314453125</LongitudeDegrees>
            </Position>
            <AltitudeMeters>296.600006103515625</AltitudeMeters>
            <DistanceMeters>NAN</DistanceMeters>
          </Trackpoint>
          <Trackpoint>
            <Time>2020-05-25T05:47:37.000Z</Time>
            <Position>
              <LatitudeDegrees>38.20211685262620449066162109375</LatitudeDegrees>
              <LongitudeDegrees>-1.16166279651224613189697265625</LongitudeDegrees>
            </Position>
            <AltitudeMeters>296.79998779296875</AltitudeMeters>
            <DistanceMeters>NAN</DistanceMeters>
          </Trackpoint>
          <Trackpoint>
            <Time>2020-05-25T05:47:38.000Z</Time>
            <Position>
              <LatitudeDegrees>38.20214836858212947845458984375</LatitudeDegrees>
              <LongitudeDegrees>-1.16167620755732059478759765625</LongitudeDegrees>
            </Position>
            <AltitudeMeters>297</AltitudeMeters>
            <DistanceMeters>NAN</DistanceMeters>
          </Trackpoint>
          <Trackpoint>
            <Time>2020-05-25T05:47:39.000Z</Time>
            <Position>
              <LatitudeDegrees>38.2021794654428958892822265625</LatitudeDegrees>
              <LongitudeDegrees>-1.16169095970690250396728515625</LongitudeDegrees>
            </Position>
            <AltitudeMeters>297.20001220703125</AltitudeMeters>
            <DistanceMeters>NAN</DistanceMeters>
          </Trackpoint>
          <Trackpoint>
            <Time>2020-05-25T05:47:40.000Z</Time>
            <Position>
              <LatitudeDegrees>38.20221039466559886932373046875</LatitudeDegrees>
              <LongitudeDegrees>-1.1617062985897064208984375</LongitudeDegrees>
            </Position>
            <AltitudeMeters>297.399993896484375</AltitudeMeters>
            <DistanceMeters>NAN</DistanceMeters>
          </Trackpoint>
          <Trackpoint>
            <Time>2020-05-25T05:47:41.000Z</Time>
            <Position>
              <LatitudeDegrees>38.2022418268024921417236328125</LatitudeDegrees>
              <LongitudeDegrees>-1.161723397672176361083984375</LongitudeDegrees>
            </Position>
            <AltitudeMeters>297.600006103515625</AltitudeMeters>
            <DistanceMeters>NAN</DistanceMeters>
          </Trackpoint>
          <Trackpoint>
            <Time>2020-05-25T05:47:42.000Z</Time>
            <Position>
              <LatitudeDegrees>38.20227342657744884490966796875</LatitudeDegrees>
              <LongitudeDegrees>-1.1617416702210903167724609375</LongitudeDegrees>
            </Position>
            <AltitudeMeters>298</AltitudeMeters>
            <DistanceMeters>NAN</DistanceMeters>
          </Trackpoint>
          <Trackpoint>
            <Time>2020-05-25T05:47:43.000Z</Time>
            <Position>
              <LatitudeDegrees>38.2023041881620883941650390625</LatitudeDegrees>
              <LongitudeDegrees>-1.16176170296967029571533203125</LongitudeDegrees>
            </Position>
            <AltitudeMeters>298.20001220703125</AltitudeMeters>
            <DistanceMeters>NAN</DistanceMeters>
          </Trackpoint>
          <Trackpoint>
            <Time>2020-05-25T05:47:44.000Z</Time>
            <Position>
              <LatitudeDegrees>38.2023341953754425048828125</LatitudeDegrees>
              <LongitudeDegrees>-1.1617825739085674285888671875</LongitudeDegrees>
            </Position>
            <AltitudeMeters>298.399993896484375</AltitudeMeters>
            <DistanceMeters>NAN</DistanceMeters>
          </Trackpoint>
          <Trackpoint>
            <Time>2020-05-25T05:47:45.000Z</Time>
            <Position>
              <LatitudeDegrees>38.2023631967604160308837890625</LatitudeDegrees>
              <LongitudeDegrees>-1.16180428303778171539306640625</LongitudeDegrees>
            </Position>
            <AltitudeMeters>298.79998779296875</AltitudeMeters>
            <DistanceMeters>NAN</DistanceMeters>
          </Trackpoint>
          <Trackpoint>
            <Time>2020-05-25T05:47:46.000Z</Time>
            <Position>
              <LatitudeDegrees>38.20239127613604068756103515625</LatitudeDegrees>
              <LongitudeDegrees>-1.16182859055697917938232421875</LongitudeDegrees>
            </Position>
            <AltitudeMeters>299.399993896484375</AltitudeMeters>
            <DistanceMeters>NAN</DistanceMeters>
          </Trackpoint>
          <Trackpoint>
            <Time>2020-05-25T05:47:47.000Z</Time>
            <Position>
              <LatitudeDegrees>38.20241910405457019805908203125</LatitudeDegrees>
              <LongitudeDegrees>-1.16185323335230350494384765625</LongitudeDegrees>
            </Position>
            <AltitudeMeters>299.600006103515625</AltitudeMeters>
            <DistanceMeters>NAN</DistanceMeters>
          </Trackpoint>
          <Trackpoint>
            <Time>2020-05-25T05:47:48.000Z</Time>
            <Position>
              <LatitudeDegrees>38.20244642905890941619873046875</LatitudeDegrees>
              <LongitudeDegrees>-1.161879636347293853759765625</LongitudeDegrees>
            </Position>
            <AltitudeMeters>299.79998779296875</AltitudeMeters>
            <DistanceMeters>NAN</DistanceMeters>
          </Trackpoint>
          <Trackpoint>
            <Time>2020-05-25T05:47:49.000Z</Time>
            <Position>
              <LatitudeDegrees>38.2024728320538997650146484375</LatitudeDegrees>
              <LongitudeDegrees>-1.16190754808485507965087890625</LongitudeDegrees>
            </Position>
            <AltitudeMeters>300</AltitudeMeters>
            <DistanceMeters>NAN</DistanceMeters>
          </Trackpoint>
          <Trackpoint>
            <Time>2020-05-25T05:47:50.000Z</Time>
            <Position>
              <LatitudeDegrees>38.2024986483156681060791015625</LatitudeDegrees>
              <LongitudeDegrees>-1.161935292184352874755859375</LongitudeDegrees>
            </Position>
            <AltitudeMeters>300.20001220703125</AltitudeMeters>
            <DistanceMeters>NAN</DistanceMeters>
          </Trackpoint>
          <Trackpoint>
            <Time>2020-05-25T05:47:51.000Z</Time>
            <Position>
              <LatitudeDegrees>38.2025244645774364471435546875</LatitudeDegrees>
              <LongitudeDegrees>-1.1619632877409458160400390625</LongitudeDegrees>
            </Position>
            <AltitudeMeters>300.399993896484375</AltitudeMeters>
            <DistanceMeters>NAN</DistanceMeters>
          </Trackpoint>
          <Trackpoint>
            <Time>2020-05-25T05:47:52.000Z</Time>
            <Position>
              <LatitudeDegrees>38.20254944264888763427734375</LatitudeDegrees>
              <LongitudeDegrees>-1.16199128329753875732421875</LongitudeDegrees>
            </Position>
            <AltitudeMeters>300.600006103515625</AltitudeMeters>
            <DistanceMeters>NAN</DistanceMeters>
          </Trackpoint>
          <Trackpoint>
            <Time>2020-05-25T05:47:53.000Z</Time>
            <Position>
              <LatitudeDegrees>38.20257282815873622894287109375</LatitudeDegrees>
              <LongitudeDegrees>-1.16202036850154399871826171875</LongitudeDegrees>
            </Position>
            <AltitudeMeters>301</AltitudeMeters>
            <DistanceMeters>NAN</DistanceMeters>
          </Trackpoint>
          <Trackpoint>
            <Time>2020-05-25T05:47:54.000Z</Time>
            <Position>
              <LatitudeDegrees>38.20259462110698223114013671875</LatitudeDegrees>
              <LongitudeDegrees>-1.16205163300037384033203125</LongitudeDegrees>
            </Position>
            <AltitudeMeters>301.20001220703125</AltitudeMeters>
            <DistanceMeters>NAN</DistanceMeters>
          </Trackpoint>
          <Trackpoint>
            <Time>2020-05-25T05:47:55.000Z</Time>
            <Position>
              <LatitudeDegrees>38.20261607877910137176513671875</LatitudeDegrees>
              <LongitudeDegrees>-1.16208356805145740509033203125</LongitudeDegrees>
            </Position>
            <AltitudeMeters>301.600006103515625</AltitudeMeters>
            <DistanceMeters>NAN</DistanceMeters>
          </Trackpoint>
          <Trackpoint>
            <Time>2020-05-25T05:47:56.000Z</Time>
            <Position>
              <LatitudeDegrees>38.20263686589896678924560546875</LatitudeDegrees>
              <LongitudeDegrees>-1.1621166765689849853515625</LongitudeDegrees>
            </Position>
            <AltitudeMeters>301.79998779296875</AltitudeMeters>
            <DistanceMeters>NAN</DistanceMeters>
          </Trackpoint>
          <Trackpoint>
            <Time>2020-05-25T05:47:57.000Z</Time>
            <Position>
              <LatitudeDegrees>38.2026568986475467681884765625</LatitudeDegrees>
              <LongitudeDegrees>-1.16215179674327373504638671875</LongitudeDegrees>
            </Position>
            <AltitudeMeters>302</AltitudeMeters>
            <DistanceMeters>NAN</DistanceMeters>
          </Trackpoint>
          <Trackpoint>
            <Time>2020-05-25T05:47:58.000Z</Time>
            <Position>
              <LatitudeDegrees>38.20267626084387302398681640625</LatitudeDegrees>
              <LongitudeDegrees>-1.16218783892691135406494140625</LongitudeDegrees>
            </Position>
            <AltitudeMeters>302.20001220703125</AltitudeMeters>
            <DistanceMeters>NAN</DistanceMeters>
          </Trackpoint>
          <Trackpoint>
            <Time>2020-05-25T05:47:59.000Z</Time>
            <Position>
              <LatitudeDegrees>38.2026954554021358489990234375</LatitudeDegrees>
              <LongitudeDegrees>-1.16222388111054897308349609375</LongitudeDegrees>
            </Position>
            <AltitudeMeters>302.399993896484375</AltitudeMeters>
            <DistanceMeters>NAN</DistanceMeters>
          </Trackpoint>
          <Trackpoint>
            <Time>2020-05-25T05:48:00.000Z</Time>
            <Position>
              <LatitudeDegrees>38.20271464996039867401123046875</LatitudeDegrees>
              <LongitudeDegrees>-1.16225908510386943817138671875</LongitudeDegrees>
            </Position>
            <AltitudeMeters>302.79998779296875</AltitudeMeters>
            <DistanceMeters>NAN</DistanceMeters>
          </Trackpoint>
          <Trackpoint>
            <Time>2020-05-25T05:48:01.000Z</Time>
            <Position>
              <LatitudeDegrees>38.20273443125188350677490234375</LatitudeDegrees>
              <LongitudeDegrees>-1.1622942052781581878662109375</LongitudeDegrees>
            </Position>
            <AltitudeMeters>303</AltitudeMeters>
            <DistanceMeters>NAN</DistanceMeters>
          </Trackpoint>
          <Trackpoint>
            <Time>2020-05-25T05:48:02.000Z</Time>
            <Position>
              <LatitudeDegrees>38.20275370962917804718017578125</LatitudeDegrees>
              <LongitudeDegrees>-1.16232924163341522216796875</LongitudeDegrees>
            </Position>
            <AltitudeMeters>303.20001220703125</AltitudeMeters>
            <DistanceMeters>NAN</DistanceMeters>
          </Trackpoint>
          <Trackpoint>
            <Time>2020-05-25T05:48:03.000Z</Time>
            <Position>
              <LatitudeDegrees>38.20277214981615543365478515625</LatitudeDegrees>
              <LongitudeDegrees>-1.16236419416964054107666015625</LongitudeDegrees>
            </Position>
            <AltitudeMeters>303.600006103515625</AltitudeMeters>
            <DistanceMeters>NAN</DistanceMeters>
          </Trackpoint>
          <Trackpoint>
            <Time>2020-05-25T05:48:04.000Z</Time>
            <Position>
              <LatitudeDegrees>38.20278975181281566619873046875</LatitudeDegrees>
              <LongitudeDegrees>-1.16240023635327816009521484375</LongitudeDegrees>
            </Position>
            <AltitudeMeters>303.79998779296875</AltitudeMeters>
            <DistanceMeters>NAN</DistanceMeters>
          </Trackpoint>
          <Trackpoint>
            <Time>2020-05-25T05:48:05.000Z</Time>
            <Position>
              <LatitudeDegrees>38.20280693471431732177734375</LatitudeDegrees>
              <LongitudeDegrees>-1.1624353565275669097900390625</LongitudeDegrees>
            </Position>
            <AltitudeMeters>304</AltitudeMeters>
            <DistanceMeters>NAN</DistanceMeters>
          </Trackpoint>
          <Trackpoint>
            <Time>2020-05-25T05:48:06.000Z</Time>
            <Position>
              <LatitudeDegrees>38.2028252072632312774658203125</LatitudeDegrees>
              <LongitudeDegrees>-1.16247081197798252105712890625</LongitudeDegrees>
            </Position>
            <AltitudeMeters>304.399993896484375</AltitudeMeters>
            <DistanceMeters>NAN</DistanceMeters>
          </Trackpoint>
          <Trackpoint>
            <Time>2020-05-25T05:48:07.000Z</Time>
            <Position>
              <LatitudeDegrees>38.2028436474502086639404296875</LatitudeDegrees>
              <LongitudeDegrees>-1.1625060997903347015380859375</LongitudeDegrees>
            </Position>
            <AltitudeMeters>304.600006103515625</AltitudeMeters>
            <DistanceMeters>NAN</DistanceMeters>
          </Trackpoint>
          <Trackpoint>
            <Time>2020-05-25T05:48:08.000Z</Time>
            <Position>
              <LatitudeDegrees>38.202861584722995758056640625</LatitudeDegrees>
              <LongitudeDegrees>-1.16254172287881374359130859375</LongitudeDegrees>
            </Position>
            <AltitudeMeters>304.79998779296875</AltitudeMeters>
            <DistanceMeters>NAN</DistanceMeters>
          </Trackpoint>
          <Trackpoint>
            <Time>2020-05-25T05:48:09.000Z</Time>
            <Position>
              <LatitudeDegrees>38.2028795219957828521728515625</LatitudeDegrees>
              <LongitudeDegrees>-1.16257810033857822418212890625</LongitudeDegrees>
            </Position>
            <AltitudeMeters>305</AltitudeMeters>
            <DistanceMeters>NAN</DistanceMeters>
          </Trackpoint>
          <Trackpoint>
            <Time>2020-05-25T05:48:10.000Z</Time>
            <Position>
              <LatitudeDegrees>38.20289771072566509246826171875</LatitudeDegrees>
              <LongitudeDegrees>-1.16261464543640613555908203125</LongitudeDegrees>
            </Position>
            <AltitudeMeters>305.399993896484375</AltitudeMeters>
            <DistanceMeters>NAN</DistanceMeters>
          </Trackpoint>
          <Trackpoint>
            <Time>2020-05-25T05:48:11.000Z</Time>
            <Position>
              <LatitudeDegrees>38.20291648618876934051513671875</LatitudeDegrees>
              <LongitudeDegrees>-1.16265085525810718536376953125</LongitudeDegrees>
            </Position>
            <AltitudeMeters>305.600006103515625</AltitudeMeters>
            <DistanceMeters>NAN</DistanceMeters>
          </Trackpoint>
          <Trackpoint>
            <Time>2020-05-25T05:48:12.000Z</Time>
            <Position>
              <LatitudeDegrees>38.2029351778328418731689453125</LatitudeDegrees>
              <LongitudeDegrees>-1.162686310708522796630859375</LongitudeDegrees>
            </Position>
            <AltitudeMeters>305.79998779296875</AltitudeMeters>
            <DistanceMeters>NAN</DistanceMeters>
          </Trackpoint>
          <Trackpoint>
            <Time>2020-05-25T05:48:13.000Z</Time>
            <Position>
              <LatitudeDegrees>38.2029537856578826904296875</LatitudeDegrees>
              <LongitudeDegrees>-1.16272151470184326171875</LongitudeDegrees>
            </Position>
            <AltitudeMeters>306</AltitudeMeters>
            <DistanceMeters>NAN</DistanceMeters>
          </Trackpoint>
          <Trackpoint>
            <Time>2020-05-25T05:48:14.000Z</Time>
            <Position>
              <LatitudeDegrees>38.20297130383551120758056640625</LatitudeDegrees>
              <LongitudeDegrees>-1.16275663487613201141357421875</LongitudeDegrees>
            </Position>
            <AltitudeMeters>306.600006103515625</AltitudeMeters>
            <DistanceMeters>NAN</DistanceMeters>
          </Trackpoint>
          <Trackpoint>
            <Time>2020-05-25T05:48:15.000Z</Time>
            <Position>
              <LatitudeDegrees>38.2029888220131397247314453125</LatitudeDegrees>
              <LongitudeDegrees>-1.1627910844981670379638671875</LongitudeDegrees>
            </Position>
            <AltitudeMeters>306.79998779296875</AltitudeMeters>
            <DistanceMeters>NAN</DistanceMeters>
          </Trackpoint>
          <Trackpoint>
            <Time>2020-05-25T05:48:16.000Z</Time>
            <Position>
              <LatitudeDegrees>38.20300634019076824188232421875</LatitudeDegrees>
              <LongitudeDegrees>-1.16282603703439235687255859375</LongitudeDegrees>
            </Position>
            <AltitudeMeters>307</AltitudeMeters>
            <DistanceMeters>NAN</DistanceMeters>
          </Trackpoint>
          <Trackpoint>
            <Time>2020-05-25T05:48:17.000Z</Time>
            <Position>
              <LatitudeDegrees>38.203024528920650482177734375</LatitudeDegrees>
              <LongitudeDegrees>-1.16286166012287139892578125</LongitudeDegrees>
            </Position>
            <AltitudeMeters>307</AltitudeMeters>
            <DistanceMeters>NAN</DistanceMeters>
          </Trackpoint>
          <Trackpoint>
            <Time>2020-05-25T05:48:18.000Z</Time>
            <Position>
              <LatitudeDegrees>38.2030422985553741455078125</LatitudeDegrees>
              <LongitudeDegrees>-1.16289745084941387176513671875</LongitudeDegrees>
            </Position>
            <AltitudeMeters>307.399993896484375</AltitudeMeters>
            <DistanceMeters>NAN</DistanceMeters>
          </Trackpoint>
          <Trackpoint>
            <Time>2020-05-25T05:48:19.000Z</Time>
            <Position>
              <LatitudeDegrees>38.2030599005520343780517578125</LatitudeDegrees>
              <LongitudeDegrees>-1.16293282248079776763916015625</LongitudeDegrees>
            </Position>
            <AltitudeMeters>307.600006103515625</AltitudeMeters>
            <DistanceMeters>NAN</DistanceMeters>
          </Trackpoint>
          <Trackpoint>
            <Time>2020-05-25T05:48:20.000Z</Time>
            <Position>
              <LatitudeDegrees>38.20307758636772632598876953125</LatitudeDegrees>
              <LongitudeDegrees>-1.16296769119799137115478515625</LongitudeDegrees>
            </Position>
            <AltitudeMeters>308</AltitudeMeters>
            <DistanceMeters>NAN</DistanceMeters>
          </Trackpoint>
          <Trackpoint>
            <Time>2020-05-25T05:48:21.000Z</Time>
            <Position>
              <LatitudeDegrees>38.20309535600244998931884765625</LatitudeDegrees>
              <LongitudeDegrees>-1.163002140820026397705078125</LongitudeDegrees>
            </Position>
            <AltitudeMeters>308.20001220703125</AltitudeMeters>
            <DistanceMeters>NAN</DistanceMeters>
          </Trackpoint>
          <Trackpoint>
            <Time>2020-05-25T05:48:22.000Z</Time>
            <Position>
              <LatitudeDegrees>38.2031128741800785064697265625</LatitudeDegrees>
              <LongitudeDegrees>-1.16303608752787113189697265625</LongitudeDegrees>
            </Position>
            <AltitudeMeters>308.399993896484375</AltitudeMeters>
            <DistanceMeters>NAN</DistanceMeters>
          </Trackpoint>
          <Trackpoint>
            <Time>2020-05-25T05:48:23.000Z</Time>
            <Position>
              <LatitudeDegrees>38.20313072763383388519287109375</LatitudeDegrees>
              <LongitudeDegrees>-1.1630696989595890045166015625</LongitudeDegrees>
            </Position>
            <AltitudeMeters>308.600006103515625</AltitudeMeters>
            <DistanceMeters>NAN</DistanceMeters>
          </Trackpoint>
          <Trackpoint>
            <Time>2020-05-25T05:48:24.000Z</Time>
            <Position>
              <LatitudeDegrees>38.2031480781733989715576171875</LatitudeDegrees>
              <LongitudeDegrees>-1.1631037294864654541015625</LongitudeDegrees>
            </Position>
            <AltitudeMeters>308.79998779296875</AltitudeMeters>
            <DistanceMeters>NAN</DistanceMeters>
          </Trackpoint>
          <Trackpoint>
            <Time>2020-05-25T05:48:25.000Z</Time>
            <Position>
              <LatitudeDegrees>38.20316526107490062713623046875</LatitudeDegrees>
              <LongitudeDegrees>-1.16313784383237361907958984375</LongitudeDegrees>
            </Position>
            <AltitudeMeters>309</AltitudeMeters>
            <DistanceMeters>NAN</DistanceMeters>
          </Trackpoint>
          <Trackpoint>
            <Time>2020-05-25T05:48:26.000Z</Time>
            <Position>
              <LatitudeDegrees>38.20318219251930713653564453125</LatitudeDegrees>
              <LongitudeDegrees>-1.16317237727344036102294921875</LongitudeDegrees>
            </Position>
            <AltitudeMeters>309.20001220703125</AltitudeMeters>
            <DistanceMeters>NAN</DistanceMeters>
          </Trackpoint>
          <Trackpoint>
            <Time>2020-05-25T05:48:27.000Z</Time>
            <Position>
              <LatitudeDegrees>38.203198872506618499755859375</LatitudeDegrees>
              <LongitudeDegrees>-1.1632071621716022491455078125</LongitudeDegrees>
            </Position>
            <AltitudeMeters>309.600006103515625</AltitudeMeters>
            <DistanceMeters>NAN</DistanceMeters>
          </Trackpoint>
          <Trackpoint>
            <Time>2020-05-25T05:48:28.000Z</Time>
            <Position>
              <LatitudeDegrees>38.2032168097794055938720703125</LatitudeDegrees>
              <LongitudeDegrees>-1.16324060596525669097900390625</LongitudeDegrees>
            </Position>
            <AltitudeMeters>309.79998779296875</AltitudeMeters>
            <DistanceMeters>NAN</DistanceMeters>
          </Trackpoint>
          <Trackpoint>
            <Time>2020-05-25T05:48:29.000Z</Time>
            <Position>
              <LatitudeDegrees>38.2032354176044464111328125</LatitudeDegrees>
              <LongitudeDegrees>-1.1632732115685939788818359375</LongitudeDegrees>
            </Position>
            <AltitudeMeters>310</AltitudeMeters>
            <DistanceMeters>NAN</DistanceMeters>
          </Trackpoint>
          <Trackpoint>
            <Time>2020-05-25T05:48:30.000Z</Time>
            <Position>
              <LatitudeDegrees>38.20327221415936946868896484375</LatitudeDegrees>
              <LongitudeDegrees>-1.16333934478461742401123046875</LongitudeDegrees>
            </Position>
            <AltitudeMeters>310.20001220703125</AltitudeMeters>
            <DistanceMeters>NAN</DistanceMeters>
          </Trackpoint>
          <Trackpoint>
            <Time>2020-05-25T05:48:31.000Z</Time>
            <Position>
              <LatitudeDegrees>38.20327221415936946868896484375</LatitudeDegrees>
              <LongitudeDegrees>-1.16333934478461742401123046875</LongitudeDegrees>
            </Position>
            <AltitudeMeters>310.399993896484375</AltitudeMeters>
            <DistanceMeters>NAN</DistanceMeters>
          </Trackpoint>
          <Trackpoint>
            <Time>2020-05-25T05:48:32.000Z</Time>
            <Position>
              <LatitudeDegrees>38.203290067613124847412109375</LatitudeDegrees>
              <LongitudeDegrees>-1.163372285664081573486328125</LongitudeDegrees>
            </Position>
            <AltitudeMeters>310.79998779296875</AltitudeMeters>
            <DistanceMeters>NAN</DistanceMeters>
          </Trackpoint>
          <Trackpoint>
            <Time>2020-05-25T05:48:33.000Z</Time>
            <Position>
              <LatitudeDegrees>38.20330775342881679534912109375</LatitudeDegrees>
              <LongitudeDegrees>-1.1634049750864505767822265625</LongitudeDegrees>
            </Position>
            <AltitudeMeters>311</AltitudeMeters>
            <DistanceMeters>NAN</DistanceMeters>
          </Trackpoint>
          <Trackpoint>
            <Time>2020-05-25T05:48:34.000Z</Time>
            <Position>
              <LatitudeDegrees>38.20332552306354045867919921875</LatitudeDegrees>
              <LongitudeDegrees>-1.16343758068978786468505859375</LongitudeDegrees>
            </Position>
            <AltitudeMeters>311.399993896484375</AltitudeMeters>
            <DistanceMeters>NAN</DistanceMeters>
          </Trackpoint>
          <Trackpoint>
            <Time>2020-05-25T05:48:35.000Z</Time>
            <Position>
              <LatitudeDegrees>38.2033442147076129913330078125</LatitudeDegrees>
              <LongitudeDegrees>-1.16347027011215686798095703125</LongitudeDegrees>
            </Position>
            <AltitudeMeters>311.600006103515625</AltitudeMeters>
            <DistanceMeters>NAN</DistanceMeters>
          </Trackpoint>
          <Trackpoint>
            <Time>2020-05-25T05:48:36.000Z</Time>
            <Position>
              <LatitudeDegrees>38.20336391218006610870361328125</LatitudeDegrees>
              <LongitudeDegrees>-1.163501702249050140380859375</LongitudeDegrees>
            </Position>
            <AltitudeMeters>312</AltitudeMeters>
            <DistanceMeters>NAN</DistanceMeters>
          </Trackpoint>
          <Trackpoint>
            <Time>2020-05-25T05:48:37.000Z</Time>
            <Position>
              <LatitudeDegrees>38.2033837772905826568603515625</LatitudeDegrees>
              <LongitudeDegrees>-1.16353221237659454345703125</LongitudeDegrees>
            </Position>
            <AltitudeMeters>312.20001220703125</AltitudeMeters>
            <DistanceMeters>NAN</DistanceMeters>
          </Trackpoint>
          <Trackpoint>
            <Time>2020-05-25T05:48:38.000Z</Time>
            <Position>
              <LatitudeDegrees>38.20340448059141635894775390625</LatitudeDegrees>
              <LongitudeDegrees>-1.16356280632317066192626953125</LongitudeDegrees>
            </Position>
            <AltitudeMeters>312.399993896484375</AltitudeMeters>
            <DistanceMeters>NAN</DistanceMeters>
          </Trackpoint>
          <Trackpoint>
            <Time>2020-05-25T05:48:39.000Z</Time>
            <Position>
              <LatitudeDegrees>38.20342652499675750732421875</LatitudeDegrees>
              <LongitudeDegrees>-1.16359214298427104949951171875</LongitudeDegrees>
            </Position>
            <AltitudeMeters>312.600006103515625</AltitudeMeters>
            <DistanceMeters>NAN</DistanceMeters>
          </Trackpoint>
          <Trackpoint>
            <Time>2020-05-25T05:48:40.000Z</Time>
            <Position>
              <LatitudeDegrees>38.20344991050660610198974609375</LatitudeDegrees>
              <LongitudeDegrees>-1.16361963562667369842529296875</LongitudeDegrees>
            </Position>
            <AltitudeMeters>312.79998779296875</AltitudeMeters>
            <DistanceMeters>NAN</DistanceMeters>
          </Trackpoint>
          <Trackpoint>
            <Time>2020-05-25T05:48:41.000Z</Time>
            <Position>
              <LatitudeDegrees>38.2034741342067718505859375</LatitudeDegrees>
              <LongitudeDegrees>-1.1636455357074737548828125</LongitudeDegrees>
            </Position>
            <AltitudeMeters>313.20001220703125</AltitudeMeters>
            <DistanceMeters>NAN</DistanceMeters>
          </Trackpoint>
          <Trackpoint>
            <Time>2020-05-25T05:48:42.000Z</Time>
            <Position>
              <LatitudeDegrees>38.203522078692913055419921875</LatitudeDegrees>
              <LongitudeDegrees>-1.16369741968810558319091796875</LongitudeDegrees>
            </Position>
            <AltitudeMeters>313.399993896484375</AltitudeMeters>
            <DistanceMeters>NAN</DistanceMeters>
          </Trackpoint>
          <Trackpoint>
            <Time>2020-05-25T05:48:43.000Z</Time>
            <Position>
              <LatitudeDegrees>38.203522078692913055419921875</LatitudeDegrees>
              <LongitudeDegrees>-1.16369741968810558319091796875</LongitudeDegrees>
            </Position>
            <AltitudeMeters>313.600006103515625</AltitudeMeters>
            <DistanceMeters>NAN</DistanceMeters>
          </Trackpoint>
          <Trackpoint>
            <Time>2020-05-25T05:48:44.000Z</Time>
            <Position>
              <LatitudeDegrees>38.20357060991227626800537109375</LatitudeDegrees>
              <LongitudeDegrees>-1.16374569945037364959716796875</LongitudeDegrees>
            </Position>
            <AltitudeMeters>313.79998779296875</AltitudeMeters>
            <DistanceMeters>NAN</DistanceMeters>
          </Trackpoint>
          <Trackpoint>
            <Time>2020-05-25T05:48:45.000Z</Time>
            <Position>
              <LatitudeDegrees>38.20357060991227626800537109375</LatitudeDegrees>
              <LongitudeDegrees>-1.16374569945037364959716796875</LongitudeDegrees>
            </Position>
            <AltitudeMeters>314</AltitudeMeters>
            <DistanceMeters>NAN</DistanceMeters>
          </Trackpoint>
          <Trackpoint>
            <Time>2020-05-25T05:48:46.000Z</Time>
            <Position>
              <LatitudeDegrees>38.20359609089791774749755859375</LatitudeDegrees>
              <LongitudeDegrees>-1.1637670733034610748291015625</LongitudeDegrees>
            </Position>
            <AltitudeMeters>314.399993896484375</AltitudeMeters>
            <DistanceMeters>NAN</DistanceMeters>
          </Trackpoint>
          <Trackpoint>
            <Time>2020-05-25T05:48:47.000Z</Time>
            <Position>
              <LatitudeDegrees>38.20362232625484466552734375</LatitudeDegrees>
              <LongitudeDegrees>-1.16378660313785076141357421875</LongitudeDegrees>
            </Position>
            <AltitudeMeters>314.600006103515625</AltitudeMeters>
            <DistanceMeters>NAN</DistanceMeters>
          </Trackpoint>
          <Trackpoint>
            <Time>2020-05-25T05:48:48.000Z</Time>
            <Position>
              <LatitudeDegrees>38.20364906452596187591552734375</LatitudeDegrees>
              <LongitudeDegrees>-1.1638042889535427093505859375</LongitudeDegrees>
            </Position>
            <AltitudeMeters>314.600006103515625</AltitudeMeters>
            <DistanceMeters>NAN</DistanceMeters>
          </Trackpoint>
          <Trackpoint>
            <Time>2020-05-25T05:48:49.000Z</Time>
            <Position>
              <LatitudeDegrees>38.20367638953030109405517578125</LatitudeDegrees>
              <LongitudeDegrees>-1.1638210527598857879638671875</LongitudeDegrees>
            </Position>
            <AltitudeMeters>314.79998779296875</AltitudeMeters>
            <DistanceMeters>NAN</DistanceMeters>
          </Trackpoint>
          <Trackpoint>
            <Time>2020-05-25T05:48:50.000Z</Time>
            <Position>
              <LatitudeDegrees>38.20370505563914775848388671875</LatitudeDegrees>
              <LongitudeDegrees>-1.16383756510913372039794921875</LongitudeDegrees>
            </Position>
            <AltitudeMeters>315.20001220703125</AltitudeMeters>
            <DistanceMeters>NAN</DistanceMeters>
          </Trackpoint>
          <Trackpoint>
            <Time>2020-05-25T05:48:51.000Z</Time>
            <Position>
              <LatitudeDegrees>38.20373372174799442291259765625</LatitudeDegrees>
              <LongitudeDegrees>-1.1638542450964450836181640625</LongitudeDegrees>
            </Position>
            <AltitudeMeters>315.399993896484375</AltitudeMeters>
            <DistanceMeters>NAN</DistanceMeters>
          </Trackpoint>
          <Trackpoint>
            <Time>2020-05-25T05:48:52.000Z</Time>
            <Position>
              <LatitudeDegrees>38.20376138202846050262451171875</LatitudeDegrees>
              <LongitudeDegrees>-1.16387042216956615447998046875</LongitudeDegrees>
            </Position>
            <AltitudeMeters>315.600006103515625</AltitudeMeters>
            <DistanceMeters>NAN</DistanceMeters>
          </Trackpoint>
          <Trackpoint>
            <Time>2020-05-25T05:48:53.000Z</Time>
            <Position>
              <LatitudeDegrees>38.20378904230892658233642578125</LatitudeDegrees>
              <LongitudeDegrees>-1.16388550959527492523193359375</LongitudeDegrees>
            </Position>
            <AltitudeMeters>315.79998779296875</AltitudeMeters>
            <DistanceMeters>NAN</DistanceMeters>
          </Trackpoint>
          <Trackpoint>
            <Time>2020-05-25T05:48:54.000Z</Time>
            <Position>
              <LatitudeDegrees>38.20384587161242961883544921875</LatitudeDegrees>
              <LongitudeDegrees>-1.163909733295440673828125</LongitudeDegrees>
            </Position>
            <AltitudeMeters>316</AltitudeMeters>
            <DistanceMeters>NAN</DistanceMeters>
          </Trackpoint>
          <Trackpoint>
            <Time>2020-05-25T05:48:55.000Z</Time>
            <Position>
              <LatitudeDegrees>38.20384587161242961883544921875</LatitudeDegrees>
              <LongitudeDegrees>-1.163909733295440673828125</LongitudeDegrees>
            </Position>
            <AltitudeMeters>316.399993896484375</AltitudeMeters>
            <DistanceMeters>NAN</DistanceMeters>
          </Trackpoint>
          <Trackpoint>
            <Time>2020-05-25T05:48:56.000Z</Time>
            <Position>
              <LatitudeDegrees>38.20387420244514942169189453125</LatitudeDegrees>
              <LongitudeDegrees>-1.1639209650456905364990234375</LongitudeDegrees>
            </Position>
            <AltitudeMeters>316.600006103515625</AltitudeMeters>
            <DistanceMeters>NAN</DistanceMeters>
          </Trackpoint>
          <Trackpoint>
            <Time>2020-05-25T05:48:57.000Z</Time>
            <Position>
              <LatitudeDegrees>38.203903622925281524658203125</LatitudeDegrees>
              <LongitudeDegrees>-1.163931190967559814453125</LongitudeDegrees>
            </Position>
            <AltitudeMeters>316.79998779296875</AltitudeMeters>
            <DistanceMeters>NAN</DistanceMeters>
          </Trackpoint>
          <Trackpoint>
            <Time>2020-05-25T05:48:58.000Z</Time>
            <Position>
              <LatitudeDegrees>38.2039326243102550506591796875</LatitudeDegrees>
              <LongitudeDegrees>-1.163940913975238800048828125</LongitudeDegrees>
            </Position>
            <AltitudeMeters>317</AltitudeMeters>
            <DistanceMeters>NAN</DistanceMeters>
          </Trackpoint>
          <Trackpoint>
            <Time>2020-05-25T05:48:59.000Z</Time>
            <Position>
              <LatitudeDegrees>38.2039617933332920074462890625</LatitudeDegrees>
              <LongitudeDegrees>-1.16394937969744205474853515625</LongitudeDegrees>
            </Position>
            <AltitudeMeters>317.20001220703125</AltitudeMeters>
            <DistanceMeters>NAN</DistanceMeters>
          </Trackpoint>
          <Trackpoint>
            <Time>2020-05-25T05:49:00.000Z</Time>
            <Position>
              <LatitudeDegrees>38.203991465270519256591796875</LatitudeDegrees>
              <LongitudeDegrees>-1.16395608521997928619384765625</LongitudeDegrees>
            </Position>
            <AltitudeMeters>317.399993896484375</AltitudeMeters>
            <DistanceMeters>NAN</DistanceMeters>
          </Trackpoint>
          <Trackpoint>
            <Time>2020-05-25T05:49:01.000Z</Time>
            <Position>
              <LatitudeDegrees>38.204020299017429351806640625</LatitudeDegrees>
              <LongitudeDegrees>-1.163961030542850494384765625</LongitudeDegrees>
            </Position>
            <AltitudeMeters>317.600006103515625</AltitudeMeters>
            <DistanceMeters>NAN</DistanceMeters>
          </Trackpoint>
          <Trackpoint>
            <Time>2020-05-25T05:49:02.000Z</Time>
            <Position>
              <LatitudeDegrees>38.2040493004024028778076171875</LatitudeDegrees>
              <LongitudeDegrees>-1.16396538913249969482421875</LongitudeDegrees>
            </Position>
            <AltitudeMeters>317.79998779296875</AltitudeMeters>
            <DistanceMeters>NAN</DistanceMeters>
          </Trackpoint>
          <Trackpoint>
            <Time>2020-05-25T05:49:03.000Z</Time>
            <Position>
              <LatitudeDegrees>38.20407872088253498077392578125</LatitudeDegrees>
              <LongitudeDegrees>-1.16396832279860973358154296875</LongitudeDegrees>
            </Position>
            <AltitudeMeters>318</AltitudeMeters>
            <DistanceMeters>NAN</DistanceMeters>
          </Trackpoint>
          <Trackpoint>
            <Time>2020-05-25T05:49:04.000Z</Time>
            <Position>
              <LatitudeDegrees>38.20410822518169879913330078125</LatitudeDegrees>
              <LongitudeDegrees>-1.1639705859124660491943359375</LongitudeDegrees>
            </Position>
            <AltitudeMeters>318.20001220703125</AltitudeMeters>
            <DistanceMeters>NAN</DistanceMeters>
          </Trackpoint>
          <Trackpoint>
            <Time>2020-05-25T05:49:05.000Z</Time>
            <Position>
              <LatitudeDegrees>38.204138316214084625244140625</LatitudeDegrees>
              <LongitudeDegrees>-1.16397268138825893402099609375</LongitudeDegrees>
            </Position>
            <AltitudeMeters>318.600006103515625</AltitudeMeters>
            <DistanceMeters>NAN</DistanceMeters>
          </Trackpoint>
          <Trackpoint>
            <Time>2020-05-25T05:49:06.000Z</Time>
            <Position>
              <LatitudeDegrees>38.2041683234274387359619140625</LatitudeDegrees>
              <LongitudeDegrees>-1.16397402249276638031005859375</LongitudeDegrees>
            </Position>
            <AltitudeMeters>318.79998779296875</AltitudeMeters>
            <DistanceMeters>NAN</DistanceMeters>
          </Trackpoint>
          <Trackpoint>
            <Time>2020-05-25T05:49:07.000Z</Time>
            <Position>
              <LatitudeDegrees>38.2041978277266025543212890625</LatitudeDegrees>
              <LongitudeDegrees>-1.1639754474163055419921875</LongitudeDegrees>
            </Position>
            <AltitudeMeters>319</AltitudeMeters>
            <DistanceMeters>NAN</DistanceMeters>
          </Trackpoint>
          <Trackpoint>
            <Time>2020-05-25T05:49:08.000Z</Time>
            <Position>
              <LatitudeDegrees>38.2042276673018932342529296875</LatitudeDegrees>
              <LongitudeDegrees>-1.1639756150543689727783203125</LongitudeDegrees>
            </Position>
            <AltitudeMeters>319.399993896484375</AltitudeMeters>
            <DistanceMeters>NAN</DistanceMeters>
          </Trackpoint>
          <Trackpoint>
            <Time>2020-05-25T05:49:09.000Z</Time>
            <Position>
              <LatitudeDegrees>38.2042575068771839141845703125</LatitudeDegrees>
              <LongitudeDegrees>-1.1639752797782421112060546875</LongitudeDegrees>
            </Position>
            <AltitudeMeters>320</AltitudeMeters>
            <DistanceMeters>NAN</DistanceMeters>
          </Trackpoint>
          <Trackpoint>
            <Time>2020-05-25T05:49:10.000Z</Time>
            <Position>
              <LatitudeDegrees>38.20428675971925258636474609375</LatitudeDegrees>
              <LongitudeDegrees>-1.1639729328453540802001953125</LongitudeDegrees>
            </Position>
            <AltitudeMeters>320.20001220703125</AltitudeMeters>
            <DistanceMeters>NAN</DistanceMeters>
          </Trackpoint>
          <Trackpoint>
            <Time>2020-05-25T05:49:11.000Z</Time>
            <Position>
              <LatitudeDegrees>38.20431626401841640472412109375</LatitudeDegrees>
              <LongitudeDegrees>-1.16397033445537090301513671875</LongitudeDegrees>
            </Position>
            <AltitudeMeters>320.600006103515625</AltitudeMeters>
            <DistanceMeters>NAN</DistanceMeters>
          </Trackpoint>
          <Trackpoint>
            <Time>2020-05-25T05:49:12.000Z</Time>
            <Position>
              <LatitudeDegrees>38.2043453492224216461181640625</LatitudeDegrees>
              <LongitudeDegrees>-1.16396899335086345672607421875</LongitudeDegrees>
            </Position>
            <AltitudeMeters>320.600006103515625</AltitudeMeters>
            <DistanceMeters>NAN</DistanceMeters>
          </Trackpoint>
          <Trackpoint>
            <Time>2020-05-25T05:49:13.000Z</Time>
            <Position>
              <LatitudeDegrees>38.2043745182454586029052734375</LatitudeDegrees>
              <LongitudeDegrees>-1.1639682389795780181884765625</LongitudeDegrees>
            </Position>
            <AltitudeMeters>321</AltitudeMeters>
            <DistanceMeters>NAN</DistanceMeters>
          </Trackpoint>
          <Trackpoint>
            <Time>2020-05-25T05:49:14.000Z</Time>
            <Position>
              <LatitudeDegrees>38.20440419018268585205078125</LatitudeDegrees>
              <LongitudeDegrees>-1.16396698169410228729248046875</LongitudeDegrees>
            </Position>
            <AltitudeMeters>321.20001220703125</AltitudeMeters>
            <DistanceMeters>NAN</DistanceMeters>
          </Trackpoint>
          <Trackpoint>
            <Time>2020-05-25T05:49:15.000Z</Time>
            <Position>
              <LatitudeDegrees>38.2044338621199131011962890625</LatitudeDegrees>
              <LongitudeDegrees>-1.163965724408626556396484375</LongitudeDegrees>
            </Position>
            <AltitudeMeters>321.600006103515625</AltitudeMeters>
            <DistanceMeters>NAN</DistanceMeters>
          </Trackpoint>
          <Trackpoint>
            <Time>2020-05-25T05:49:16.000Z</Time>
            <Position>
              <LatitudeDegrees>38.20446345023810863494873046875</LatitudeDegrees>
              <LongitudeDegrees>-1.16396379657089710235595703125</LongitudeDegrees>
            </Position>
            <AltitudeMeters>321.79998779296875</AltitudeMeters>
            <DistanceMeters>NAN</DistanceMeters>
          </Trackpoint>
          <Trackpoint>
            <Time>2020-05-25T05:49:17.000Z</Time>
            <Position>
              <LatitudeDegrees>38.20449245162308216094970703125</LatitudeDegrees>
              <LongitudeDegrees>-1.1639611981809139251708984375</LongitudeDegrees>
            </Position>
            <AltitudeMeters>322</AltitudeMeters>
            <DistanceMeters>NAN</DistanceMeters>
          </Trackpoint>
          <Trackpoint>
            <Time>2020-05-25T05:49:18.000Z</Time>
            <Position>
              <LatitudeDegrees>38.2045217044651508331298828125</LatitudeDegrees>
              <LongitudeDegrees>-1.16395725868642330169677734375</LongitudeDegrees>
            </Position>
            <AltitudeMeters>322.20001220703125</AltitudeMeters>
            <DistanceMeters>NAN</DistanceMeters>
          </Trackpoint>
          <Trackpoint>
            <Time>2020-05-25T05:49:19.000Z</Time>
            <Position>
              <LatitudeDegrees>38.2045495323836803436279296875</LatitudeDegrees>
              <LongitudeDegrees>-1.16395273245871067047119140625</LongitudeDegrees>
            </Position>
            <AltitudeMeters>322.399993896484375</AltitudeMeters>
            <DistanceMeters>NAN</DistanceMeters>
          </Trackpoint>
          <Trackpoint>
            <Time>2020-05-25T05:49:20.000Z</Time>
            <Position>
              <LatitudeDegrees>38.204582892358303070068359375</LatitudeDegrees>
              <LongitudeDegrees>-1.16394368000328540802001953125</LongitudeDegrees>
            </Position>
            <AltitudeMeters>322.600006103515625</AltitudeMeters>
            <DistanceMeters>NAN</DistanceMeters>
          </Trackpoint>
          <Trackpoint>
            <Time>2020-05-25T05:49:21.000Z</Time>
            <Position>
              <LatitudeDegrees>38.20461264811456203460693359375</LatitudeDegrees>
              <LongitudeDegrees>-1.16393186151981353759765625</LongitudeDegrees>
            </Position>
            <AltitudeMeters>322.79998779296875</AltitudeMeters>
            <DistanceMeters>NAN</DistanceMeters>
          </Trackpoint>
          <Trackpoint>
            <Time>2020-05-25T05:49:22.000Z</Time>
            <Position>
              <LatitudeDegrees>38.20464081130921840667724609375</LatitudeDegrees>
              <LongitudeDegrees>-1.163916774094104766845703125</LongitudeDegrees>
            </Position>
            <AltitudeMeters>323.20001220703125</AltitudeMeters>
            <DistanceMeters>NAN</DistanceMeters>
          </Trackpoint>
          <Trackpoint>
            <Time>2020-05-25T05:49:23.000Z</Time>
            <Position>
              <LatitudeDegrees>38.20466863922774791717529296875</LatitudeDegrees>
              <LongitudeDegrees>-1.163900010287761688232421875</LongitudeDegrees>
            </Position>
            <AltitudeMeters>323.399993896484375</AltitudeMeters>
            <DistanceMeters>NAN</DistanceMeters>
          </Trackpoint>
          <Trackpoint>
            <Time>2020-05-25T05:49:24.000Z</Time>
            <Position>
              <LatitudeDegrees>38.204695545136928558349609375</LatitudeDegrees>
              <LongitudeDegrees>-1.1638807319104671478271484375</LongitudeDegrees>
            </Position>
            <AltitudeMeters>323.600006103515625</AltitudeMeters>
            <DistanceMeters>NAN</DistanceMeters>
          </Trackpoint>
          <Trackpoint>
            <Time>2020-05-25T05:49:25.000Z</Time>
            <Position>
              <LatitudeDegrees>38.2047208584845066070556640625</LatitudeDegrees>
              <LongitudeDegrees>-1.16386069916188716888427734375</LongitudeDegrees>
            </Position>
            <AltitudeMeters>323.79998779296875</AltitudeMeters>
            <DistanceMeters>NAN</DistanceMeters>
          </Trackpoint>
          <Trackpoint>
            <Time>2020-05-25T05:49:26.000Z</Time>
            <Position>
              <LatitudeDegrees>38.20474659092724323272705078125</LatitudeDegrees>
              <LongitudeDegrees>-1.16383823566138744354248046875</LongitudeDegrees>
            </Position>
            <AltitudeMeters>324</AltitudeMeters>
            <DistanceMeters>NAN</DistanceMeters>
          </Trackpoint>
          <Trackpoint>
            <Time>2020-05-25T05:49:27.000Z</Time>
            <Position>
              <LatitudeDegrees>38.204771988093852996826171875</LatitudeDegrees>
              <LongitudeDegrees>-1.16381426341831684112548828125</LongitudeDegrees>
            </Position>
            <AltitudeMeters>324.20001220703125</AltitudeMeters>
            <DistanceMeters>NAN</DistanceMeters>
          </Trackpoint>
          <Trackpoint>
            <Time>2020-05-25T05:49:28.000Z</Time>
            <Position>
              <LatitudeDegrees>38.20479721762239933013916015625</LatitudeDegrees>
              <LongitudeDegrees>-1.163788698613643646240234375</LongitudeDegrees>
            </Position>
            <AltitudeMeters>324.399993896484375</AltitudeMeters>
            <DistanceMeters>NAN</DistanceMeters>
          </Trackpoint>
          <Trackpoint>
            <Time>2020-05-25T05:49:29.000Z</Time>
            <Position>
              <LatitudeDegrees>38.2048194296658039093017578125</LatitudeDegrees>
              <LongitudeDegrees>-1.163762547075748443603515625</LongitudeDegrees>
            </Position>
            <AltitudeMeters>324.600006103515625</AltitudeMeters>
            <DistanceMeters>NAN</DistanceMeters>
          </Trackpoint>
          <Trackpoint>
            <Time>2020-05-25T05:49:30.000Z</Time>
            <Position>
              <LatitudeDegrees>38.20483979769051074981689453125</LatitudeDegrees>
              <LongitudeDegrees>-1.163733042776584625244140625</LongitudeDegrees>
            </Position>
            <AltitudeMeters>324.79998779296875</AltitudeMeters>
            <DistanceMeters>NAN</DistanceMeters>
          </Trackpoint>
          <Trackpoint>
            <Time>2020-05-25T05:49:31.000Z</Time>
            <Position>
              <LatitudeDegrees>38.20485857315361499786376953125</LatitudeDegrees>
              <LongitudeDegrees>-1.1637023650109767913818359375</LongitudeDegrees>
            </Position>
            <AltitudeMeters>325.20001220703125</AltitudeMeters>
            <DistanceMeters>NAN</DistanceMeters>
          </Trackpoint>
          <Trackpoint>
            <Time>2020-05-25T05:49:32.000Z</Time>
            <Position>
              <LatitudeDegrees>38.204876594245433807373046875</LatitudeDegrees>
              <LongitudeDegrees>-1.16367244161665439605712890625</LongitudeDegrees>
            </Position>
            <AltitudeMeters>325.399993896484375</AltitudeMeters>
            <DistanceMeters>NAN</DistanceMeters>
          </Trackpoint>
          <Trackpoint>
            <Time>2020-05-25T05:49:33.000Z</Time>
            <Position>
              <LatitudeDegrees>38.20489461533725261688232421875</LatitudeDegrees>
              <LongitudeDegrees>-1.16364109329879283905029296875</LongitudeDegrees>
            </Position>
            <AltitudeMeters>325.399993896484375</AltitudeMeters>
            <DistanceMeters>NAN</DistanceMeters>
          </Trackpoint>
          <Trackpoint>
            <Time>2020-05-25T05:49:34.000Z</Time>
            <Position>
              <LatitudeDegrees>38.20491070859134197235107421875</LatitudeDegrees>
              <LongitudeDegrees>-1.1636079847812652587890625</LongitudeDegrees>
            </Position>
            <AltitudeMeters>325.600006103515625</AltitudeMeters>
            <DistanceMeters>NAN</DistanceMeters>
          </Trackpoint>
          <Trackpoint>
            <Time>2020-05-25T05:49:35.000Z</Time>
            <Position>
              <LatitudeDegrees>38.2049243710935115814208984375</LatitudeDegrees>
              <LongitudeDegrees>-1.163573451340198516845703125</LongitudeDegrees>
            </Position>
            <AltitudeMeters>325.79998779296875</AltitudeMeters>
            <DistanceMeters>NAN</DistanceMeters>
          </Trackpoint>
          <Trackpoint>
            <Time>2020-05-25T05:49:36.000Z</Time>
            <Position>
              <LatitudeDegrees>38.2049364410340785980224609375</LatitudeDegrees>
              <LongitudeDegrees>-1.16353732533752918243408203125</LongitudeDegrees>
            </Position>
            <AltitudeMeters>326.20001220703125</AltitudeMeters>
            <DistanceMeters>NAN</DistanceMeters>
          </Trackpoint>
          <Trackpoint>
            <Time>2020-05-25T05:49:37.000Z</Time>
            <Position>
              <LatitudeDegrees>38.20495001971721649169921875</LatitudeDegrees>
              <LongitudeDegrees>-1.16350161843001842498779296875</LongitudeDegrees>
            </Position>
            <AltitudeMeters>326.79998779296875</AltitudeMeters>
            <DistanceMeters>NAN</DistanceMeters>
          </Trackpoint>
          <Trackpoint>
            <Time>2020-05-25T05:49:38.000Z</Time>
            <Position>
              <LatitudeDegrees>38.20496586151421070098876953125</LatitudeDegrees>
              <LongitudeDegrees>-1.16346708498895168304443359375</LongitudeDegrees>
            </Position>
            <AltitudeMeters>327.20001220703125</AltitudeMeters>
            <DistanceMeters>NAN</DistanceMeters>
          </Trackpoint>
          <Trackpoint>
            <Time>2020-05-25T05:49:39.000Z</Time>
            <Position>
              <LatitudeDegrees>38.20498379878699779510498046875</LatitudeDegrees>
              <LongitudeDegrees>-1.1634351499378681182861328125</LongitudeDegrees>
            </Position>
            <AltitudeMeters>327.600006103515625</AltitudeMeters>
            <DistanceMeters>NAN</DistanceMeters>
          </Trackpoint>
          <Trackpoint>
            <Time>2020-05-25T05:49:40.000Z</Time>
            <Position>
              <LatitudeDegrees>38.20500408299267292022705078125</LatitudeDegrees>
              <LongitudeDegrees>-1.163405813276767730712890625</LongitudeDegrees>
            </Position>
            <AltitudeMeters>327.79998779296875</AltitudeMeters>
            <DistanceMeters>NAN</DistanceMeters>
          </Trackpoint>
          <Trackpoint>
            <Time>2020-05-25T05:49:41.000Z</Time>
            <Position>
              <LatitudeDegrees>38.20502579212188720703125</LatitudeDegrees>
              <LongitudeDegrees>-1.163378655910491943359375</LongitudeDegrees>
            </Position>
            <AltitudeMeters>328</AltitudeMeters>
            <DistanceMeters>NAN</DistanceMeters>
          </Trackpoint>
          <Trackpoint>
            <Time>2020-05-25T05:49:42.000Z</Time>
            <Position>
              <LatitudeDegrees>38.205048255622386932373046875</LatitudeDegrees>
              <LongitudeDegrees>-1.16335342638194561004638671875</LongitudeDegrees>
            </Position>
            <AltitudeMeters>328.20001220703125</AltitudeMeters>
            <DistanceMeters>NAN</DistanceMeters>
          </Trackpoint>
          <Trackpoint>
            <Time>2020-05-25T05:49:43.000Z</Time>
            <Position>
              <LatitudeDegrees>38.20507206022739410400390625</LatitudeDegrees>
              <LongitudeDegrees>-1.16332962177693843841552734375</LongitudeDegrees>
            </Position>
            <AltitudeMeters>328.600006103515625</AltitudeMeters>
            <DistanceMeters>NAN</DistanceMeters>
          </Trackpoint>
          <Trackpoint>
            <Time>2020-05-25T05:49:44.000Z</Time>
            <Position>
              <LatitudeDegrees>38.20509620010852813720703125</LatitudeDegrees>
              <LongitudeDegrees>-1.1633074097335338592529296875</LongitudeDegrees>
            </Position>
            <AltitudeMeters>328.600006103515625</AltitudeMeters>
            <DistanceMeters>NAN</DistanceMeters>
          </Trackpoint>
          <Trackpoint>
            <Time>2020-05-25T05:49:45.000Z</Time>
            <Position>
              <LatitudeDegrees>38.2051221840083599090576171875</LatitudeDegrees>
              <LongitudeDegrees>-1.16328821517527103424072265625</LongitudeDegrees>
            </Position>
            <AltitudeMeters>329</AltitudeMeters>
            <DistanceMeters>NAN</DistanceMeters>
          </Trackpoint>
          <Trackpoint>
            <Time>2020-05-25T05:49:46.000Z</Time>
            <Position>
              <LatitudeDegrees>38.20515093393623828887939453125</LatitudeDegrees>
              <LongitudeDegrees>-1.16327530704438686370849609375</LongitudeDegrees>
            </Position>
            <AltitudeMeters>329.20001220703125</AltitudeMeters>
            <DistanceMeters>NAN</DistanceMeters>
          </Trackpoint>
          <Trackpoint>
            <Time>2020-05-25T05:49:47.000Z</Time>
            <Position>
              <LatitudeDegrees>38.2051815278828144073486328125</LatitudeDegrees>
              <LongitudeDegrees>-1.16326658986508846282958984375</LongitudeDegrees>
            </Position>
            <AltitudeMeters>329.399993896484375</AltitudeMeters>
            <DistanceMeters>NAN</DistanceMeters>
          </Trackpoint>
          <Trackpoint>
            <Time>2020-05-25T05:49:48.000Z</Time>
            <Position>
              <LatitudeDegrees>38.20521195419132709503173828125</LatitudeDegrees>
              <LongitudeDegrees>-1.16325820796191692352294921875</LongitudeDegrees>
            </Position>
            <AltitudeMeters>329.79998779296875</AltitudeMeters>
            <DistanceMeters>NAN</DistanceMeters>
          </Trackpoint>
          <Trackpoint>
            <Time>2020-05-25T05:49:49.000Z</Time>
            <Position>
              <LatitudeDegrees>38.2052415423095226287841796875</LatitudeDegrees>
              <LongitudeDegrees>-1.163250915706157684326171875</LongitudeDegrees>
            </Position>
            <AltitudeMeters>330</AltitudeMeters>
            <DistanceMeters>NAN</DistanceMeters>
          </Trackpoint>
          <Trackpoint>
            <Time>2020-05-25T05:49:50.000Z</Time>
            <Position>
              <LatitudeDegrees>38.20527263917028903961181640625</LatitudeDegrees>
              <LongitudeDegrees>-1.1632463894784450531005859375</LongitudeDegrees>
            </Position>
            <AltitudeMeters>330.20001220703125</AltitudeMeters>
            <DistanceMeters>NAN</DistanceMeters>
          </Trackpoint>
          <Trackpoint>
            <Time>2020-05-25T05:49:51.000Z</Time>
            <Position>
              <LatitudeDegrees>38.20530449040234088897705078125</LatitudeDegrees>
              <LongitudeDegrees>-1.16324814967811107635498046875</LongitudeDegrees>
            </Position>
            <AltitudeMeters>330.600006103515625</AltitudeMeters>
            <DistanceMeters>NAN</DistanceMeters>
          </Trackpoint>
          <Trackpoint>
            <Time>2020-05-25T05:49:52.000Z</Time>
            <Position>
              <LatitudeDegrees>38.20533567108213901519775390625</LatitudeDegrees>
              <LongitudeDegrees>-1.163254939019680023193359375</LongitudeDegrees>
            </Position>
            <AltitudeMeters>330.79998779296875</AltitudeMeters>
            <DistanceMeters>NAN</DistanceMeters>
          </Trackpoint>
          <Trackpoint>
            <Time>2020-05-25T05:49:53.000Z</Time>
            <Position>
              <LatitudeDegrees>38.2053676061332225799560546875</LatitudeDegrees>
              <LongitudeDegrees>-1.1632648296654224395751953125</LongitudeDegrees>
            </Position>
            <AltitudeMeters>331</AltitudeMeters>
            <DistanceMeters>NAN</DistanceMeters>
          </Trackpoint>
          <Trackpoint>
            <Time>2020-05-25T05:49:54.000Z</Time>
            <Position>
              <LatitudeDegrees>38.20539928972721099853515625</LatitudeDegrees>
              <LongitudeDegrees>-1.16327748633921146392822265625</LongitudeDegrees>
            </Position>
            <AltitudeMeters>331.399993896484375</AltitudeMeters>
            <DistanceMeters>NAN</DistanceMeters>
          </Trackpoint>
          <Trackpoint>
            <Time>2020-05-25T05:49:55.000Z</Time>
            <Position>
              <LatitudeDegrees>38.2054319791495800018310546875</LatitudeDegrees>
              <LongitudeDegrees>-1.16329022683203220367431640625</LongitudeDegrees>
            </Position>
            <AltitudeMeters>331.399993896484375</AltitudeMeters>
            <DistanceMeters>NAN</DistanceMeters>
          </Trackpoint>
          <Trackpoint>
            <Time>2020-05-25T05:49:56.000Z</Time>
            <Position>
              <LatitudeDegrees>38.20546492002904415130615234375</LatitudeDegrees>
              <LongitudeDegrees>-1.16330279968678951263427734375</LongitudeDegrees>
            </Position>
            <AltitudeMeters>331.600006103515625</AltitudeMeters>
            <DistanceMeters>NAN</DistanceMeters>
          </Trackpoint>
          <Trackpoint>
            <Time>2020-05-25T05:49:57.000Z</Time>
            <Position>
              <LatitudeDegrees>38.20549710653722286224365234375</LatitudeDegrees>
              <LongitudeDegrees>-1.1633171327412128448486328125</LongitudeDegrees>
            </Position>
            <AltitudeMeters>331.600006103515625</AltitudeMeters>
            <DistanceMeters>NAN</DistanceMeters>
          </Trackpoint>
          <Trackpoint>
            <Time>2020-05-25T05:49:58.000Z</Time>
            <Position>
              <LatitudeDegrees>38.20552862249314785003662109375</LatitudeDegrees>
              <LongitudeDegrees>-1.1633325554430484771728515625</LongitudeDegrees>
            </Position>
            <AltitudeMeters>331.79998779296875</AltitudeMeters>
            <DistanceMeters>NAN</DistanceMeters>
          </Trackpoint>
          <Trackpoint>
            <Time>2020-05-25T05:49:59.000Z</Time>
            <Position>
              <LatitudeDegrees>38.20555997081100940704345703125</LatitudeDegrees>
              <LongitudeDegrees>-1.16334739141166210174560546875</LongitudeDegrees>
            </Position>
            <AltitudeMeters>331.79998779296875</AltitudeMeters>
            <DistanceMeters>NAN</DistanceMeters>
          </Trackpoint>
          <Trackpoint>
            <Time>2020-05-25T05:50:00.000Z</Time>
            <Position>
              <LatitudeDegrees>38.2055902294814586639404296875</LatitudeDegrees>
              <LongitudeDegrees>-1.16336180828511714935302734375</LongitudeDegrees>
            </Position>
            <AltitudeMeters>332</AltitudeMeters>
            <DistanceMeters>NAN</DistanceMeters>
          </Trackpoint>
          <Trackpoint>
            <Time>2020-05-25T05:50:01.000Z</Time>
            <Position>
              <LatitudeDegrees>38.2056494057178497314453125</LatitudeDegrees>
              <LongitudeDegrees>-1.16338795982301235198974609375</LongitudeDegrees>
            </Position>
            <AltitudeMeters>332.20001220703125</AltitudeMeters>
            <DistanceMeters>NAN</DistanceMeters>
          </Trackpoint>
          <Trackpoint>
            <Time>2020-05-25T05:50:02.000Z</Time>
            <Position>
              <LatitudeDegrees>38.2056774012744426727294921875</LatitudeDegrees>
              <LongitudeDegrees>-1.16340137086808681488037109375</LongitudeDegrees>
            </Position>
            <AltitudeMeters>332.20001220703125</AltitudeMeters>
            <DistanceMeters>NAN</DistanceMeters>
          </Trackpoint>
          <Trackpoint>
            <Time>2020-05-25T05:50:03.000Z</Time>
            <Position>
              <LatitudeDegrees>38.2056774012744426727294921875</LatitudeDegrees>
              <LongitudeDegrees>-1.16340137086808681488037109375</LongitudeDegrees>
            </Position>
            <AltitudeMeters>332.399993896484375</AltitudeMeters>
            <DistanceMeters>NAN</DistanceMeters>
          </Trackpoint>
          <Trackpoint>
            <Time>2020-05-25T05:50:04.000Z</Time>
            <Position>
              <LatitudeDegrees>38.205704726278781890869140625</LatitudeDegrees>
              <LongitudeDegrees>-1.16341712884604930877685546875</LongitudeDegrees>
            </Position>
            <AltitudeMeters>332.600006103515625</AltitudeMeters>
            <DistanceMeters>NAN</DistanceMeters>
          </Trackpoint>
          <Trackpoint>
            <Time>2020-05-25T05:50:05.000Z</Time>
            <Position>
              <LatitudeDegrees>38.20573213510215282440185546875</LatitudeDegrees>
              <LongitudeDegrees>-1.163431964814662933349609375</LongitudeDegrees>
            </Position>
            <AltitudeMeters>332.79998779296875</AltitudeMeters>
            <DistanceMeters>NAN</DistanceMeters>
          </Trackpoint>
          <Trackpoint>
            <Time>2020-05-25T05:50:06.000Z</Time>
            <Position>
              <LatitudeDegrees>38.205783851444721221923828125</LatitudeDegrees>
              <LongitudeDegrees>-1.1634676717221736907958984375</LongitudeDegrees>
            </Position>
            <AltitudeMeters>333</AltitudeMeters>
            <DistanceMeters>NAN</DistanceMeters>
          </Trackpoint>
          <Trackpoint>
            <Time>2020-05-25T05:50:07.000Z</Time>
            <Position>
              <LatitudeDegrees>38.205783851444721221923828125</LatitudeDegrees>
              <LongitudeDegrees>-1.1634676717221736907958984375</LongitudeDegrees>
            </Position>
            <AltitudeMeters>333.20001220703125</AltitudeMeters>
            <DistanceMeters>NAN</DistanceMeters>
          </Trackpoint>
          <Trackpoint>
            <Time>2020-05-25T05:50:08.000Z</Time>
            <Position>
              <LatitudeDegrees>38.20583221502602100372314453125</LatitudeDegrees>
              <LongitudeDegrees>-1.16350715048611164093017578125</LongitudeDegrees>
            </Position>
            <AltitudeMeters>333.600006103515625</AltitudeMeters>
            <DistanceMeters>NAN</DistanceMeters>
          </Trackpoint>
          <Trackpoint>
            <Time>2020-05-25T05:50:09.000Z</Time>
            <Position>
              <LatitudeDegrees>38.20583221502602100372314453125</LatitudeDegrees>
              <LongitudeDegrees>-1.16350715048611164093017578125</LongitudeDegrees>
            </Position>
            <AltitudeMeters>333.79998779296875</AltitudeMeters>
            <DistanceMeters>NAN</DistanceMeters>
          </Trackpoint>
          <Trackpoint>
            <Time>2020-05-25T05:50:10.000Z</Time>
            <Position>
              <LatitudeDegrees>38.20585585199296474456787109375</LatitudeDegrees>
              <LongitudeDegrees>-1.1635283567011356353759765625</LongitudeDegrees>
            </Position>
            <AltitudeMeters>333.79998779296875</AltitudeMeters>
            <DistanceMeters>NAN</DistanceMeters>
          </Trackpoint>
          <Trackpoint>
            <Time>2020-05-25T05:50:11.000Z</Time>
            <Position>
              <LatitudeDegrees>38.20587982423603534698486328125</LatitudeDegrees>
              <LongitudeDegrees>-1.16354964673519134521484375</LongitudeDegrees>
            </Position>
            <AltitudeMeters>334</AltitudeMeters>
            <DistanceMeters>NAN</DistanceMeters>
          </Trackpoint>
          <Trackpoint>
            <Time>2020-05-25T05:50:12.000Z</Time>
            <Position>
              <LatitudeDegrees>38.20592676289379596710205078125</LatitudeDegrees>
              <LongitudeDegrees>-1.16359381936490535736083984375</LongitudeDegrees>
            </Position>
            <AltitudeMeters>334.399993896484375</AltitudeMeters>
            <DistanceMeters>NAN</DistanceMeters>
          </Trackpoint>
          <Trackpoint>
            <Time>2020-05-25T05:50:13.000Z</Time>
            <Position>
              <LatitudeDegrees>38.20592676289379596710205078125</LatitudeDegrees>
              <LongitudeDegrees>-1.16359381936490535736083984375</LongitudeDegrees>
            </Position>
            <AltitudeMeters>334.399993896484375</AltitudeMeters>
            <DistanceMeters>NAN</DistanceMeters>
          </Trackpoint>
          <Trackpoint>
            <Time>2020-05-25T05:50:14.000Z</Time>
            <Position>
              <LatitudeDegrees>38.2059506513178348541259765625</LatitudeDegrees>
              <LongitudeDegrees>-1.16361443884670734405517578125</LongitudeDegrees>
            </Position>
            <AltitudeMeters>334.79998779296875</AltitudeMeters>
            <DistanceMeters>NAN</DistanceMeters>
          </Trackpoint>
          <Trackpoint>
            <Time>2020-05-25T05:50:15.000Z</Time>
            <Position>
              <LatitudeDegrees>38.205975629389286041259765625</LatitudeDegrees>
              <LongitudeDegrees>-1.16363321430981159210205078125</LongitudeDegrees>
            </Position>
            <AltitudeMeters>335</AltitudeMeters>
            <DistanceMeters>NAN</DistanceMeters>
          </Trackpoint>
          <Trackpoint>
            <Time>2020-05-25T05:50:16.000Z</Time>
            <Position>
              <LatitudeDegrees>38.20600069127976894378662109375</LatitudeDegrees>
              <LongitudeDegrees>-1.163653247058391571044921875</LongitudeDegrees>
            </Position>
            <AltitudeMeters>335.399993896484375</AltitudeMeters>
            <DistanceMeters>NAN</DistanceMeters>
          </Trackpoint>
          <Trackpoint>
            <Time>2020-05-25T05:50:17.000Z</Time>
            <Position>
              <LatitudeDegrees>38.20602558553218841552734375</LatitudeDegrees>
              <LongitudeDegrees>-1.1636738665401935577392578125</LongitudeDegrees>
            </Position>
            <AltitudeMeters>335.399993896484375</AltitudeMeters>
            <DistanceMeters>NAN</DistanceMeters>
          </Trackpoint>
          <Trackpoint>
            <Time>2020-05-25T05:50:18.000Z</Time>
            <Position>
              <LatitudeDegrees>38.20604997687041759490966796875</LatitudeDegrees>
              <LongitudeDegrees>-1.16369306109845638275146484375</LongitudeDegrees>
            </Position>
            <AltitudeMeters>335.79998779296875</AltitudeMeters>
            <DistanceMeters>NAN</DistanceMeters>
          </Trackpoint>
          <Trackpoint>
            <Time>2020-05-25T05:50:19.000Z</Time>
            <Position>
              <LatitudeDegrees>38.206073530018329620361328125</LatitudeDegrees>
              <LongitudeDegrees>-1.1637117527425289154052734375</LongitudeDegrees>
            </Position>
            <AltitudeMeters>336</AltitudeMeters>
            <DistanceMeters>NAN</DistanceMeters>
          </Trackpoint>
          <Trackpoint>
            <Time>2020-05-25T05:50:20.000Z</Time>
            <Position>
              <LatitudeDegrees>38.20609666407108306884765625</LatitudeDegrees>
              <LongitudeDegrees>-1.16373061202466487884521484375</LongitudeDegrees>
            </Position>
            <AltitudeMeters>336.20001220703125</AltitudeMeters>
            <DistanceMeters>NAN</DistanceMeters>
          </Trackpoint>
          <Trackpoint>
            <Time>2020-05-25T05:50:21.000Z</Time>
            <Position>
              <LatitudeDegrees>38.20611971430480480194091796875</LatitudeDegrees>
              <LongitudeDegrees>-1.163749136030673980712890625</LongitudeDegrees>
            </Position>
            <AltitudeMeters>336.399993896484375</AltitudeMeters>
            <DistanceMeters>NAN</DistanceMeters>
          </Trackpoint>
          <Trackpoint>
            <Time>2020-05-25T05:50:22.000Z</Time>
            <Position>
              <LatitudeDegrees>38.20614335127174854278564453125</LatitudeDegrees>
              <LongitudeDegrees>-1.16376698948442935943603515625</LongitudeDegrees>
            </Position>
            <AltitudeMeters>336.600006103515625</AltitudeMeters>
            <DistanceMeters>NAN</DistanceMeters>
          </Trackpoint>
          <Trackpoint>
            <Time>2020-05-25T05:50:23.000Z</Time>
            <Position>
              <LatitudeDegrees>38.20616774260997772216796875</LatitudeDegrees>
              <LongitudeDegrees>-1.1637851782143115997314453125</LongitudeDegrees>
            </Position>
            <AltitudeMeters>336.79998779296875</AltitudeMeters>
            <DistanceMeters>NAN</DistanceMeters>
          </Trackpoint>
          <Trackpoint>
            <Time>2020-05-25T05:50:24.000Z</Time>
            <Position>
              <LatitudeDegrees>38.20619146339595317840576171875</LatitudeDegrees>
              <LongitudeDegrees>-1.16380487568676471710205078125</LongitudeDegrees>
            </Position>
            <AltitudeMeters>337.20001220703125</AltitudeMeters>
            <DistanceMeters>NAN</DistanceMeters>
          </Trackpoint>
          <Trackpoint>
            <Time>2020-05-25T05:50:25.000Z</Time>
            <Position>
              <LatitudeDegrees>38.20621468126773834228515625</LatitudeDegrees>
              <LongitudeDegrees>-1.16382365114986896514892578125</LongitudeDegrees>
            </Position>
            <AltitudeMeters>337.20001220703125</AltitudeMeters>
            <DistanceMeters>NAN</DistanceMeters>
          </Trackpoint>
          <Trackpoint>
            <Time>2020-05-25T05:50:26.000Z</Time>
            <Position>
              <LatitudeDegrees>38.2062379829585552215576171875</LatitudeDegrees>
              <LongitudeDegrees>-1.16384125314652919769287109375</LongitudeDegrees>
            </Position>
            <AltitudeMeters>337.399993896484375</AltitudeMeters>
            <DistanceMeters>NAN</DistanceMeters>
          </Trackpoint>
          <Trackpoint>
            <Time>2020-05-25T05:50:27.000Z</Time>
            <Position>
              <LatitudeDegrees>38.2062604464590549468994140625</LatitudeDegrees>
              <LongitudeDegrees>-1.1638596095144748687744140625</LongitudeDegrees>
            </Position>
            <AltitudeMeters>337.600006103515625</AltitudeMeters>
            <DistanceMeters>NAN</DistanceMeters>
          </Trackpoint>
          <Trackpoint>
            <Time>2020-05-25T05:50:28.000Z</Time>
            <Position>
              <LatitudeDegrees>38.20628182031214237213134765625</LatitudeDegrees>
              <LongitudeDegrees>-1.16387662477791309356689453125</LongitudeDegrees>
            </Position>
            <AltitudeMeters>337.79998779296875</AltitudeMeters>
            <DistanceMeters>NAN</DistanceMeters>
          </Trackpoint>
          <Trackpoint>
            <Time>2020-05-25T05:50:29.000Z</Time>
            <Position>
              <LatitudeDegrees>38.20630311034619808197021484375</LatitudeDegrees>
              <LongitudeDegrees>-1.16389355622231960296630859375</LongitudeDegrees>
            </Position>
            <AltitudeMeters>338.20001220703125</AltitudeMeters>
            <DistanceMeters>NAN</DistanceMeters>
          </Trackpoint>
          <Trackpoint>
            <Time>2020-05-25T05:50:30.000Z</Time>
            <Position>
              <LatitudeDegrees>38.206325657665729522705078125</LatitudeDegrees>
              <LongitudeDegrees>-1.163910739123821258544921875</LongitudeDegrees>
            </Position>
            <AltitudeMeters>338.399993896484375</AltitudeMeters>
            <DistanceMeters>NAN</DistanceMeters>
          </Trackpoint>
          <Trackpoint>
            <Time>2020-05-25T05:50:31.000Z</Time>
            <Position>
              <LatitudeDegrees>38.20634803734719753265380859375</LatitudeDegrees>
              <LongitudeDegrees>-1.16392741911113262176513671875</LongitudeDegrees>
            </Position>
            <AltitudeMeters>339</AltitudeMeters>
            <DistanceMeters>NAN</DistanceMeters>
          </Trackpoint>
          <Trackpoint>
            <Time>2020-05-25T05:50:32.000Z</Time>
            <Position>
              <LatitudeDegrees>38.2063690759241580963134765625</LatitudeDegrees>
              <LongitudeDegrees>-1.16394418291747570037841796875</LongitudeDegrees>
            </Position>
            <AltitudeMeters>339.399993896484375</AltitudeMeters>
            <DistanceMeters>NAN</DistanceMeters>
          </Trackpoint>
          <Trackpoint>
            <Time>2020-05-25T05:50:33.000Z</Time>
            <Position>
              <LatitudeDegrees>38.206389360129833221435546875</LatitudeDegrees>
              <LongitudeDegrees>-1.16396295838057994842529296875</LongitudeDegrees>
            </Position>
            <AltitudeMeters>339.600006103515625</AltitudeMeters>
            <DistanceMeters>NAN</DistanceMeters>
          </Trackpoint>
          <Trackpoint>
            <Time>2020-05-25T05:50:34.000Z</Time>
            <Position>
              <LatitudeDegrees>38.2064096443355083465576171875</LatitudeDegrees>
              <LongitudeDegrees>-1.16398324258625507354736328125</LongitudeDegrees>
            </Position>
            <AltitudeMeters>339.79998779296875</AltitudeMeters>
            <DistanceMeters>NAN</DistanceMeters>
          </Trackpoint>
          <Trackpoint>
            <Time>2020-05-25T05:50:35.000Z</Time>
            <Position>
              <LatitudeDegrees>38.20643051527440547943115234375</LatitudeDegrees>
              <LongitudeDegrees>-1.1640010960400104522705078125</LongitudeDegrees>
            </Position>
            <AltitudeMeters>340</AltitudeMeters>
            <DistanceMeters>NAN</DistanceMeters>
          </Trackpoint>
          <Trackpoint>
            <Time>2020-05-25T05:50:36.000Z</Time>
            <Position>
              <LatitudeDegrees>38.20645180530846118927001953125</LatitudeDegrees>
              <LongitudeDegrees>-1.16401794366538524627685546875</LongitudeDegrees>
            </Position>
            <AltitudeMeters>340.399993896484375</AltitudeMeters>
            <DistanceMeters>NAN</DistanceMeters>
          </Trackpoint>
          <Trackpoint>
            <Time>2020-05-25T05:50:37.000Z</Time>
            <Position>
              <LatitudeDegrees>38.20647410117089748382568359375</LatitudeDegrees>
              <LongitudeDegrees>-1.16403453983366489410400390625</LongitudeDegrees>
            </Position>
            <AltitudeMeters>340.79998779296875</AltitudeMeters>
            <DistanceMeters>NAN</DistanceMeters>
          </Trackpoint>
          <Trackpoint>
            <Time>2020-05-25T05:50:38.000Z</Time>
            <Position>
              <LatitudeDegrees>38.20649757049977779388427734375</LatitudeDegrees>
              <LongitudeDegrees>-1.16404962725937366485595703125</LongitudeDegrees>
            </Position>
            <AltitudeMeters>341</AltitudeMeters>
            <DistanceMeters>NAN</DistanceMeters>
          </Trackpoint>
          <Trackpoint>
            <Time>2020-05-25T05:50:39.000Z</Time>
            <Position>
              <LatitudeDegrees>38.2065216265618801116943359375</LatitudeDegrees>
              <LongitudeDegrees>-1.16406387649476528167724609375</LongitudeDegrees>
            </Position>
            <AltitudeMeters>341.20001220703125</AltitudeMeters>
            <DistanceMeters>NAN</DistanceMeters>
          </Trackpoint>
          <Trackpoint>
            <Time>2020-05-25T05:50:40.000Z</Time>
            <Position>
              <LatitudeDegrees>38.20654786191880702972412109375</LatitudeDegrees>
              <LongitudeDegrees>-1.16407611407339572906494140625</LongitudeDegrees>
            </Position>
            <AltitudeMeters>341.399993896484375</AltitudeMeters>
            <DistanceMeters>NAN</DistanceMeters>
          </Trackpoint>
          <Trackpoint>
            <Time>2020-05-25T05:50:41.000Z</Time>
            <Position>
              <LatitudeDegrees>38.20657535456120967864990234375</LatitudeDegrees>
              <LongitudeDegrees>-1.16408600471913814544677734375</LongitudeDegrees>
            </Position>
            <AltitudeMeters>341.600006103515625</AltitudeMeters>
            <DistanceMeters>NAN</DistanceMeters>
          </Trackpoint>
          <Trackpoint>
            <Time>2020-05-25T05:50:42.000Z</Time>
            <Position>
              <LatitudeDegrees>38.206632435321807861328125</LatitudeDegrees>
              <LongitudeDegrees>-1.1641006730496883392333984375</LongitudeDegrees>
            </Position>
            <AltitudeMeters>341.79998779296875</AltitudeMeters>
            <DistanceMeters>NAN</DistanceMeters>
          </Trackpoint>
          <Trackpoint>
            <Time>2020-05-25T05:50:43.000Z</Time>
            <Position>
              <LatitudeDegrees>38.206632435321807861328125</LatitudeDegrees>
              <LongitudeDegrees>-1.1641006730496883392333984375</LongitudeDegrees>
            </Position>
            <AltitudeMeters>342</AltitudeMeters>
            <DistanceMeters>NAN</DistanceMeters>
          </Trackpoint>
          <Trackpoint>
            <Time>2020-05-25T05:50:44.000Z</Time>
            <Position>
              <LatitudeDegrees>38.206683732569217681884765625</LatitudeDegrees>
              <LongitudeDegrees>-1.164121292531490325927734375</LongitudeDegrees>
            </Position>
            <AltitudeMeters>342.20001220703125</AltitudeMeters>
            <DistanceMeters>NAN</DistanceMeters>
          </Trackpoint>
          <Trackpoint>
            <Time>2020-05-25T05:50:45.000Z</Time>
            <Position>
              <LatitudeDegrees>38.206683732569217681884765625</LatitudeDegrees>
              <LongitudeDegrees>-1.164121292531490325927734375</LongitudeDegrees>
            </Position>
            <AltitudeMeters>342.399993896484375</AltitudeMeters>
            <DistanceMeters>NAN</DistanceMeters>
          </Trackpoint>
          <Trackpoint>
            <Time>2020-05-25T05:50:46.000Z</Time>
            <Position>
              <LatitudeDegrees>38.20670678280293941497802734375</LatitudeDegrees>
              <LongitudeDegrees>-1.164123974740505218505859375</LongitudeDegrees>
            </Position>
            <AltitudeMeters>342.600006103515625</AltitudeMeters>
            <DistanceMeters>NAN</DistanceMeters>
          </Trackpoint>
          <Trackpoint>
            <Time>2020-05-25T05:50:47.000Z</Time>
            <Position>
              <LatitudeDegrees>38.2067281566560268402099609375</LatitudeDegrees>
              <LongitudeDegrees>-1.164121963083744049072265625</LongitudeDegrees>
            </Position>
            <AltitudeMeters>342.79998779296875</AltitudeMeters>
            <DistanceMeters>NAN</DistanceMeters>
          </Trackpoint>
          <Trackpoint>
            <Time>2020-05-25T05:50:48.000Z</Time>
            <Position>
              <LatitudeDegrees>38.20675003342330455780029296875</LatitudeDegrees>
              <LongitudeDegrees>-1.164118610322475433349609375</LongitudeDegrees>
            </Position>
            <AltitudeMeters>343</AltitudeMeters>
            <DistanceMeters>NAN</DistanceMeters>
          </Trackpoint>
          <Trackpoint>
            <Time>2020-05-25T05:50:49.000Z</Time>
            <Position>
              <LatitudeDegrees>38.2067740894854068756103515625</LatitudeDegrees>
              <LongitudeDegrees>-1.1641137488186359405517578125</LongitudeDegrees>
            </Position>
            <AltitudeMeters>343.399993896484375</AltitudeMeters>
            <DistanceMeters>NAN</DistanceMeters>
          </Trackpoint>
          <Trackpoint>
            <Time>2020-05-25T05:50:50.000Z</Time>
            <Position>
              <LatitudeDegrees>38.20680149830877780914306640625</LatitudeDegrees>
              <LongitudeDegrees>-1.164108552038669586181640625</LongitudeDegrees>
            </Position>
            <AltitudeMeters>343.399993896484375</AltitudeMeters>
            <DistanceMeters>NAN</DistanceMeters>
          </Trackpoint>
          <Trackpoint>
            <Time>2020-05-25T05:50:51.000Z</Time>
            <Position>
              <LatitudeDegrees>38.20682999677956104278564453125</LatitudeDegrees>
              <LongitudeDegrees>-1.164103187620639801025390625</LongitudeDegrees>
            </Position>
            <AltitudeMeters>343.79998779296875</AltitudeMeters>
            <DistanceMeters>NAN</DistanceMeters>
          </Trackpoint>
          <Trackpoint>
            <Time>2020-05-25T05:50:52.000Z</Time>
            <Position>
              <LatitudeDegrees>38.20685983635485172271728515625</LatitudeDegrees>
              <LongitudeDegrees>-1.164093129336833953857421875</LongitudeDegrees>
            </Position>
            <AltitudeMeters>344</AltitudeMeters>
            <DistanceMeters>NAN</DistanceMeters>
          </Trackpoint>
          <Trackpoint>
            <Time>2020-05-25T05:50:53.000Z</Time>
            <Position>
              <LatitudeDegrees>38.206888921558856964111328125</LatitudeDegrees>
              <LongitudeDegrees>-1.16408399306237697601318359375</LongitudeDegrees>
            </Position>
            <AltitudeMeters>344.399993896484375</AltitudeMeters>
            <DistanceMeters>NAN</DistanceMeters>
          </Trackpoint>
          <Trackpoint>
            <Time>2020-05-25T05:50:54.000Z</Time>
            <Position>
              <LatitudeDegrees>38.20694415830075740814208984375</LatitudeDegrees>
              <LongitudeDegrees>-1.16408097557723522186279296875</LongitudeDegrees>
            </Position>
            <AltitudeMeters>344.600006103515625</AltitudeMeters>
            <DistanceMeters>NAN</DistanceMeters>
          </Trackpoint>
          <Trackpoint>
            <Time>2020-05-25T05:50:55.000Z</Time>
            <Position>
              <LatitudeDegrees>38.20694415830075740814208984375</LatitudeDegrees>
              <LongitudeDegrees>-1.16408097557723522186279296875</LongitudeDegrees>
            </Position>
            <AltitudeMeters>344.79998779296875</AltitudeMeters>
            <DistanceMeters>NAN</DistanceMeters>
          </Trackpoint>
          <Trackpoint>
            <Time>2020-05-25T05:50:56.000Z</Time>
            <Position>
              <LatitudeDegrees>38.20699713192880153656005859375</LatitudeDegrees>
              <LongitudeDegrees>-1.1640587635338306427001953125</LongitudeDegrees>
            </Position>
            <AltitudeMeters>345.20001220703125</AltitudeMeters>
            <DistanceMeters>NAN</DistanceMeters>
          </Trackpoint>
          <Trackpoint>
            <Time>2020-05-25T05:50:57.000Z</Time>
            <Position>
              <LatitudeDegrees>38.20699713192880153656005859375</LatitudeDegrees>
              <LongitudeDegrees>-1.1640587635338306427001953125</LongitudeDegrees>
            </Position>
            <AltitudeMeters>345.20001220703125</AltitudeMeters>
            <DistanceMeters>NAN</DistanceMeters>
          </Trackpoint>
          <Trackpoint>
            <Time>2020-05-25T05:50:58.000Z</Time>
            <Position>
              <LatitudeDegrees>38.207023702561855316162109375</LatitudeDegrees>
              <LongitudeDegrees>-1.16404526866972446441650390625</LongitudeDegrees>
            </Position>
            <AltitudeMeters>345.399993896484375</AltitudeMeters>
            <DistanceMeters>NAN</DistanceMeters>
          </Trackpoint>
          <Trackpoint>
            <Time>2020-05-25T05:50:59.000Z</Time>
            <Position>
              <LatitudeDegrees>38.20705077610909938812255859375</LatitudeDegrees>
              <LongitudeDegrees>-1.16404912434518337249755859375</LongitudeDegrees>
            </Position>
            <AltitudeMeters>345.600006103515625</AltitudeMeters>
            <DistanceMeters>NAN</DistanceMeters>
          </Trackpoint>
          <Trackpoint>
            <Time>2020-05-25T05:51:00.000Z</Time>
            <Position>
              <LatitudeDegrees>38.207077346742153167724609375</LatitudeDegrees>
              <LongitudeDegrees>-1.1640430055558681488037109375</LongitudeDegrees>
            </Position>
            <AltitudeMeters>345.79998779296875</AltitudeMeters>
            <DistanceMeters>NAN</DistanceMeters>
          </Trackpoint>
          <Trackpoint>
            <Time>2020-05-25T05:51:01.000Z</Time>
            <Position>
              <LatitudeDegrees>38.20710140280425548553466796875</LatitudeDegrees>
              <LongitudeDegrees>-1.16403152234852313995361328125</LongitudeDegrees>
            </Position>
            <AltitudeMeters>346</AltitudeMeters>
            <DistanceMeters>NAN</DistanceMeters>
          </Trackpoint>
          <Trackpoint>
            <Time>2020-05-25T05:51:02.000Z</Time>
            <Position>
              <LatitudeDegrees>38.20714540779590606689453125</LatitudeDegrees>
              <LongitudeDegrees>-1.16404007188975811004638671875</LongitudeDegrees>
            </Position>
            <AltitudeMeters>346.20001220703125</AltitudeMeters>
            <DistanceMeters>NAN</DistanceMeters>
          </Trackpoint>
          <Trackpoint>
            <Time>2020-05-25T05:51:03.000Z</Time>
            <Position>
              <LatitudeDegrees>38.20716678164899349212646484375</LatitudeDegrees>
              <LongitudeDegrees>-1.16405549459159374237060546875</LongitudeDegrees>
            </Position>
            <AltitudeMeters>346.399993896484375</AltitudeMeters>
            <DistanceMeters>NAN</DistanceMeters>
          </Trackpoint>
          <Trackpoint>
            <Time>2020-05-25T05:51:04.000Z</Time>
            <Position>
              <LatitudeDegrees>38.20716678164899349212646484375</LatitudeDegrees>
              <LongitudeDegrees>-1.16405549459159374237060546875</LongitudeDegrees>
            </Position>
            <AltitudeMeters>346.79998779296875</AltitudeMeters>
            <DistanceMeters>NAN</DistanceMeters>
          </Trackpoint>
          <Trackpoint>
            <Time>2020-05-25T05:51:05.000Z</Time>
            <Position>
              <LatitudeDegrees>38.20719008333981037139892578125</LatitudeDegrees>
              <LongitudeDegrees>-1.16407494060695171356201171875</LongitudeDegrees>
            </Position>
            <AltitudeMeters>347.20001220703125</AltitudeMeters>
            <DistanceMeters>NAN</DistanceMeters>
          </Trackpoint>
          <Trackpoint>
            <Time>2020-05-25T05:51:06.000Z</Time>
            <Position>
              <LatitudeDegrees>38.2072139717638492584228515625</LatitudeDegrees>
              <LongitudeDegrees>-1.1640966497361660003662109375</LongitudeDegrees>
            </Position>
            <AltitudeMeters>347.600006103515625</AltitudeMeters>
            <DistanceMeters>NAN</DistanceMeters>
          </Trackpoint>
          <Trackpoint>
            <Time>2020-05-25T05:51:07.000Z</Time>
            <Position>
              <LatitudeDegrees>38.207237608730792999267578125</LatitudeDegrees>
              <LongitudeDegrees>-1.16411953233182430267333984375</LongitudeDegrees>
            </Position>
            <AltitudeMeters>347.79998779296875</AltitudeMeters>
            <DistanceMeters>NAN</DistanceMeters>
          </Trackpoint>
          <Trackpoint>
            <Time>2020-05-25T05:51:08.000Z</Time>
            <Position>
              <LatitudeDegrees>38.20726032368838787078857421875</LatitudeDegrees>
              <LongitudeDegrees>-1.16414316929876804351806640625</LongitudeDegrees>
            </Position>
            <AltitudeMeters>348</AltitudeMeters>
            <DistanceMeters>NAN</DistanceMeters>
          </Trackpoint>
          <Trackpoint>
            <Time>2020-05-25T05:51:09.000Z</Time>
            <Position>
              <LatitudeDegrees>38.2072820328176021575927734375</LatitudeDegrees>
              <LongitudeDegrees>-1.164164207875728607177734375</LongitudeDegrees>
            </Position>
            <AltitudeMeters>348.399993896484375</AltitudeMeters>
            <DistanceMeters>NAN</DistanceMeters>
          </Trackpoint>
          <Trackpoint>
            <Time>2020-05-25T05:51:10.000Z</Time>
            <Position>
              <LatitudeDegrees>38.20730374194681644439697265625</LatitudeDegrees>
              <LongitudeDegrees>-1.164184994995594024658203125</LongitudeDegrees>
            </Position>
            <AltitudeMeters>348.600006103515625</AltitudeMeters>
            <DistanceMeters>NAN</DistanceMeters>
          </Trackpoint>
          <Trackpoint>
            <Time>2020-05-25T05:51:11.000Z</Time>
            <Position>
              <LatitudeDegrees>38.207326792180538177490234375</LatitudeDegrees>
              <LongitudeDegrees>-1.164205111563205718994140625</LongitudeDegrees>
            </Position>
            <AltitudeMeters>348.79998779296875</AltitudeMeters>
            <DistanceMeters>NAN</DistanceMeters>
          </Trackpoint>
          <Trackpoint>
            <Time>2020-05-25T05:51:12.000Z</Time>
            <Position>
              <LatitudeDegrees>38.20735202170908451080322265625</LatitudeDegrees>
              <LongitudeDegrees>-1.16422556340694427490234375</LongitudeDegrees>
            </Position>
            <AltitudeMeters>349</AltitudeMeters>
            <DistanceMeters>NAN</DistanceMeters>
          </Trackpoint>
          <Trackpoint>
            <Time>2020-05-25T05:51:13.000Z</Time>
            <Position>
              <LatitudeDegrees>38.2073775865137577056884765625</LatitudeDegrees>
              <LongitudeDegrees>-1.16424576379358768463134765625</LongitudeDegrees>
            </Position>
            <AltitudeMeters>349.20001220703125</AltitudeMeters>
            <DistanceMeters>NAN</DistanceMeters>
          </Trackpoint>
          <Trackpoint>
            <Time>2020-05-25T05:51:14.000Z</Time>
            <Position>
              <LatitudeDegrees>38.20742947049438953399658203125</LatitudeDegrees>
              <LongitudeDegrees>-1.16428767330944538116455078125</LongitudeDegrees>
            </Position>
            <AltitudeMeters>349.20001220703125</AltitudeMeters>
            <DistanceMeters>NAN</DistanceMeters>
          </Trackpoint>
          <Trackpoint>
            <Time>2020-05-25T05:51:15.000Z</Time>
            <Position>
              <LatitudeDegrees>38.20742947049438953399658203125</LatitudeDegrees>
              <LongitudeDegrees>-1.16428767330944538116455078125</LongitudeDegrees>
            </Position>
            <AltitudeMeters>349.20001220703125</AltitudeMeters>
            <DistanceMeters>NAN</DistanceMeters>
          </Trackpoint>
          <Trackpoint>
            <Time>2020-05-25T05:51:16.000Z</Time>
            <Position>
              <LatitudeDegrees>38.20745545439422130584716796875</LatitudeDegrees>
              <LongitudeDegrees>-1.16430980153381824493408203125</LongitudeDegrees>
            </Position>
            <AltitudeMeters>349.399993896484375</AltitudeMeters>
            <DistanceMeters>NAN</DistanceMeters>
          </Trackpoint>
          <Trackpoint>
            <Time>2020-05-25T05:51:17.000Z</Time>
            <Position>
              <LatitudeDegrees>38.2074811868369579315185546875</LatitudeDegrees>
              <LongitudeDegrees>-1.164333187043666839599609375</LongitudeDegrees>
            </Position>
            <AltitudeMeters>349.600006103515625</AltitudeMeters>
            <DistanceMeters>NAN</DistanceMeters>
          </Trackpoint>
          <Trackpoint>
            <Time>2020-05-25T05:51:18.000Z</Time>
            <Position>
              <LatitudeDegrees>38.20753172971308231353759765625</LatitudeDegrees>
              <LongitudeDegrees>-1.1643799580633640289306640625</LongitudeDegrees>
            </Position>
            <AltitudeMeters>349.79998779296875</AltitudeMeters>
            <DistanceMeters>NAN</DistanceMeters>
          </Trackpoint>
          <Trackpoint>
            <Time>2020-05-25T05:51:19.000Z</Time>
            <Position>
              <LatitudeDegrees>38.20753172971308231353759765625</LatitudeDegrees>
              <LongitudeDegrees>-1.1643799580633640289306640625</LongitudeDegrees>
            </Position>
            <AltitudeMeters>350</AltitudeMeters>
            <DistanceMeters>NAN</DistanceMeters>
          </Trackpoint>
          <Trackpoint>
            <Time>2020-05-25T05:51:20.000Z</Time>
            <Position>
              <LatitudeDegrees>38.20758403278887271881103515625</LatitudeDegrees>
              <LongitudeDegrees>-1.16442178376019001007080078125</LongitudeDegrees>
            </Position>
            <AltitudeMeters>350.20001220703125</AltitudeMeters>
            <DistanceMeters>NAN</DistanceMeters>
          </Trackpoint>
          <Trackpoint>
            <Time>2020-05-25T05:51:21.000Z</Time>
            <Position>
              <LatitudeDegrees>38.20758403278887271881103515625</LatitudeDegrees>
              <LongitudeDegrees>-1.16442178376019001007080078125</LongitudeDegrees>
            </Position>
            <AltitudeMeters>350.399993896484375</AltitudeMeters>
            <DistanceMeters>NAN</DistanceMeters>
          </Trackpoint>
          <Trackpoint>
            <Time>2020-05-25T05:51:22.000Z</Time>
            <Position>
              <LatitudeDegrees>38.20761035196483135223388671875</LatitudeDegrees>
              <LongitudeDegrees>-1.1644429899752140045166015625</LongitudeDegrees>
            </Position>
            <AltitudeMeters>350.600006103515625</AltitudeMeters>
            <DistanceMeters>NAN</DistanceMeters>
          </Trackpoint>
          <Trackpoint>
            <Time>2020-05-25T05:51:23.000Z</Time>
            <Position>
              <LatitudeDegrees>38.2076369225978851318359375</LatitudeDegrees>
              <LongitudeDegrees>-1.16446369327604770660400390625</LongitudeDegrees>
            </Position>
            <AltitudeMeters>350.79998779296875</AltitudeMeters>
            <DistanceMeters>NAN</DistanceMeters>
          </Trackpoint>
          <Trackpoint>
            <Time>2020-05-25T05:51:24.000Z</Time>
            <Position>
              <LatitudeDegrees>38.207688890397548675537109375</LatitudeDegrees>
              <LongitudeDegrees>-1.164505518972873687744140625</LongitudeDegrees>
            </Position>
            <AltitudeMeters>351</AltitudeMeters>
            <DistanceMeters>NAN</DistanceMeters>
          </Trackpoint>
          <Trackpoint>
            <Time>2020-05-25T05:51:25.000Z</Time>
            <Position>
              <LatitudeDegrees>38.207688890397548675537109375</LatitudeDegrees>
              <LongitudeDegrees>-1.164505518972873687744140625</LongitudeDegrees>
            </Position>
            <AltitudeMeters>351.399993896484375</AltitudeMeters>
            <DistanceMeters>NAN</DistanceMeters>
          </Trackpoint>
          <Trackpoint>
            <Time>2020-05-25T05:51:26.000Z</Time>
            <Position>
              <LatitudeDegrees>38.20774060674011707305908203125</LatitudeDegrees>
              <LongitudeDegrees>-1.1645467579364776611328125</LongitudeDegrees>
            </Position>
            <AltitudeMeters>351.399993896484375</AltitudeMeters>
            <DistanceMeters>NAN</DistanceMeters>
          </Trackpoint>
          <Trackpoint>
            <Time>2020-05-25T05:51:27.000Z</Time>
            <Position>
              <LatitudeDegrees>38.20774060674011707305908203125</LatitudeDegrees>
              <LongitudeDegrees>-1.1645467579364776611328125</LongitudeDegrees>
            </Position>
            <AltitudeMeters>351.79998779296875</AltitudeMeters>
            <DistanceMeters>NAN</DistanceMeters>
          </Trackpoint>
          <Trackpoint>
            <Time>2020-05-25T05:51:28.000Z</Time>
            <Position>
              <LatitudeDegrees>38.2077661715447902679443359375</LatitudeDegrees>
              <LongitudeDegrees>-1.16456360556185245513916015625</LongitudeDegrees>
            </Position>
            <AltitudeMeters>352</AltitudeMeters>
            <DistanceMeters>NAN</DistanceMeters>
          </Trackpoint>
          <Trackpoint>
            <Time>2020-05-25T05:51:29.000Z</Time>
            <Position>
              <LatitudeDegrees>38.207792825996875762939453125</LatitudeDegrees>
              <LongitudeDegrees>-1.164580285549163818359375</LongitudeDegrees>
            </Position>
            <AltitudeMeters>352.20001220703125</AltitudeMeters>
            <DistanceMeters>NAN</DistanceMeters>
          </Trackpoint>
          <Trackpoint>
            <Time>2020-05-25T05:51:30.000Z</Time>
            <Position>
              <LatitudeDegrees>38.20785040967166423797607421875</LatitudeDegrees>
              <LongitudeDegrees>-1.1646126396954059600830078125</LongitudeDegrees>
            </Position>
            <AltitudeMeters>352.20001220703125</AltitudeMeters>
            <DistanceMeters>NAN</DistanceMeters>
          </Trackpoint>
          <Trackpoint>
            <Time>2020-05-25T05:51:31.000Z</Time>
            <Position>
              <LatitudeDegrees>38.20785040967166423797607421875</LatitudeDegrees>
              <LongitudeDegrees>-1.1646126396954059600830078125</LongitudeDegrees>
            </Position>
            <AltitudeMeters>352.399993896484375</AltitudeMeters>
            <DistanceMeters>NAN</DistanceMeters>
          </Trackpoint>
          <Trackpoint>
            <Time>2020-05-25T05:51:32.000Z</Time>
            <Position>
              <LatitudeDegrees>38.20791444741189479827880859375</LatitudeDegrees>
              <LongitudeDegrees>-1.1646374501287937164306640625</LongitudeDegrees>
            </Position>
            <AltitudeMeters>352.600006103515625</AltitudeMeters>
            <DistanceMeters>NAN</DistanceMeters>
          </Trackpoint>
          <Trackpoint>
            <Time>2020-05-25T05:51:33.000Z</Time>
            <Position>
              <LatitudeDegrees>38.20791444741189479827880859375</LatitudeDegrees>
              <LongitudeDegrees>-1.1646374501287937164306640625</LongitudeDegrees>
            </Position>
            <AltitudeMeters>353</AltitudeMeters>
            <DistanceMeters>NAN</DistanceMeters>
          </Trackpoint>
          <Trackpoint>
            <Time>2020-05-25T05:51:34.000Z</Time>
            <Position>
              <LatitudeDegrees>38.2079480588436126708984375</LatitudeDegrees>
              <LongitudeDegrees>-1.16464273072779178619384765625</LongitudeDegrees>
            </Position>
            <AltitudeMeters>353.20001220703125</AltitudeMeters>
            <DistanceMeters>NAN</DistanceMeters>
          </Trackpoint>
          <Trackpoint>
            <Time>2020-05-25T05:51:35.000Z</Time>
            <Position>
              <LatitudeDegrees>38.207981921732425689697265625</LatitudeDegrees>
              <LongitudeDegrees>-1.164641641080379486083984375</LongitudeDegrees>
            </Position>
            <AltitudeMeters>353.399993896484375</AltitudeMeters>
            <DistanceMeters>NAN</DistanceMeters>
          </Trackpoint>
          <Trackpoint>
            <Time>2020-05-25T05:51:36.000Z</Time>
            <Position>
              <LatitudeDegrees>38.2080484740436077117919921875</LatitudeDegrees>
              <LongitudeDegrees>-1.1646327562630176544189453125</LongitudeDegrees>
            </Position>
            <AltitudeMeters>353.600006103515625</AltitudeMeters>
            <DistanceMeters>NAN</DistanceMeters>
          </Trackpoint>
          <Trackpoint>
            <Time>2020-05-25T05:51:37.000Z</Time>
            <Position>
              <LatitudeDegrees>38.2080484740436077117919921875</LatitudeDegrees>
              <LongitudeDegrees>-1.1646327562630176544189453125</LongitudeDegrees>
            </Position>
            <AltitudeMeters>353.79998779296875</AltitudeMeters>
            <DistanceMeters>NAN</DistanceMeters>
          </Trackpoint>
          <Trackpoint>
            <Time>2020-05-25T05:51:38.000Z</Time>
            <Position>
              <LatitudeDegrees>38.20811779238283634185791015625</LatitudeDegrees>
              <LongitudeDegrees>-1.16461892612278461456298828125</LongitudeDegrees>
            </Position>
            <AltitudeMeters>354</AltitudeMeters>
            <DistanceMeters>NAN</DistanceMeters>
          </Trackpoint>
          <Trackpoint>
            <Time>2020-05-25T05:51:39.000Z</Time>
            <Position>
              <LatitudeDegrees>38.20811779238283634185791015625</LatitudeDegrees>
              <LongitudeDegrees>-1.16461892612278461456298828125</LongitudeDegrees>
            </Position>
            <AltitudeMeters>354.20001220703125</AltitudeMeters>
            <DistanceMeters>NAN</DistanceMeters>
          </Trackpoint>
          <Trackpoint>
            <Time>2020-05-25T05:51:40.000Z</Time>
            <Position>
              <LatitudeDegrees>38.2081519067287445068359375</LatitudeDegrees>
              <LongitudeDegrees>-1.16460911929607391357421875</LongitudeDegrees>
            </Position>
            <AltitudeMeters>354.20001220703125</AltitudeMeters>
            <DistanceMeters>NAN</DistanceMeters>
          </Trackpoint>
          <Trackpoint>
            <Time>2020-05-25T05:51:41.000Z</Time>
            <Position>
              <LatitudeDegrees>38.20818501524627208709716796875</LatitudeDegrees>
              <LongitudeDegrees>-1.1646019108593463897705078125</LongitudeDegrees>
            </Position>
            <AltitudeMeters>354.399993896484375</AltitudeMeters>
            <DistanceMeters>NAN</DistanceMeters>
          </Trackpoint>
          <Trackpoint>
            <Time>2020-05-25T05:51:42.000Z</Time>
            <Position>
              <LatitudeDegrees>38.2082533277571201324462890625</LatitudeDegrees>
              <LongitudeDegrees>-1.1645975522696971893310546875</LongitudeDegrees>
            </Position>
            <AltitudeMeters>354.399993896484375</AltitudeMeters>
            <DistanceMeters>NAN</DistanceMeters>
          </Trackpoint>
          <Trackpoint>
            <Time>2020-05-25T05:51:43.000Z</Time>
            <Position>
              <LatitudeDegrees>38.208287693560123443603515625</LatitudeDegrees>
              <LongitudeDegrees>-1.164600066840648651123046875</LongitudeDegrees>
            </Position>
            <AltitudeMeters>354.399993896484375</AltitudeMeters>
            <DistanceMeters>NAN</DistanceMeters>
          </Trackpoint>
          <Trackpoint>
            <Time>2020-05-25T05:51:44.000Z</Time>
            <Position>
              <LatitudeDegrees>38.2083217240869998931884765625</LatitudeDegrees>
              <LongitudeDegrees>-1.16460149176418781280517578125</LongitudeDegrees>
            </Position>
            <AltitudeMeters>354.600006103515625</AltitudeMeters>
            <DistanceMeters>NAN</DistanceMeters>
          </Trackpoint>
          <Trackpoint>
            <Time>2020-05-25T05:51:45.000Z</Time>
            <Position>
              <LatitudeDegrees>38.2083217240869998931884765625</LatitudeDegrees>
              <LongitudeDegrees>-1.16460149176418781280517578125</LongitudeDegrees>
            </Position>
            <AltitudeMeters>354.600006103515625</AltitudeMeters>
            <DistanceMeters>NAN</DistanceMeters>
          </Trackpoint>
          <Trackpoint>
            <Time>2020-05-25T05:51:46.000Z</Time>
            <Position>
              <LatitudeDegrees>38.208355419337749481201171875</LatitudeDegrees>
              <LongitudeDegrees>-1.1646044254302978515625</LongitudeDegrees>
            </Position>
            <AltitudeMeters>354.600006103515625</AltitudeMeters>
            <DistanceMeters>NAN</DistanceMeters>
          </Trackpoint>
          <Trackpoint>
            <Time>2020-05-25T05:51:47.000Z</Time>
            <Position>
              <LatitudeDegrees>38.20842037908732891082763671875</LatitudeDegrees>
              <LongitudeDegrees>-1.1646086163818836212158203125</LongitudeDegrees>
            </Position>
            <AltitudeMeters>354.600006103515625</AltitudeMeters>
            <DistanceMeters>NAN</DistanceMeters>
          </Trackpoint>
          <Trackpoint>
            <Time>2020-05-25T05:51:48.000Z</Time>
            <Position>
              <LatitudeDegrees>38.2084524817764759063720703125</LatitudeDegrees>
              <LongitudeDegrees>-1.16461180150508880615234375</LongitudeDegrees>
            </Position>
            <AltitudeMeters>354.79998779296875</AltitudeMeters>
            <DistanceMeters>NAN</DistanceMeters>
          </Trackpoint>
          <Trackpoint>
            <Time>2020-05-25T05:51:49.000Z</Time>
            <Position>
              <LatitudeDegrees>38.20848341099917888641357421875</LatitudeDegrees>
              <LongitudeDegrees>-1.1646129749715328216552734375</LongitudeDegrees>
            </Position>
            <AltitudeMeters>354.79998779296875</AltitudeMeters>
            <DistanceMeters>NAN</DistanceMeters>
          </Trackpoint>
          <Trackpoint>
            <Time>2020-05-25T05:51:50.000Z</Time>
            <Position>
              <LatitudeDegrees>38.20851467549800872802734375</LatitudeDegrees>
              <LongitudeDegrees>-1.16461984813213348388671875</LongitudeDegrees>
            </Position>
            <AltitudeMeters>355</AltitudeMeters>
            <DistanceMeters>NAN</DistanceMeters>
          </Trackpoint>
          <Trackpoint>
            <Time>2020-05-25T05:51:51.000Z</Time>
            <Position>
              <LatitudeDegrees>38.20854610763490200042724609375</LatitudeDegrees>
              <LongitudeDegrees>-1.1646297387778759002685546875</LongitudeDegrees>
            </Position>
            <AltitudeMeters>355</AltitudeMeters>
            <DistanceMeters>NAN</DistanceMeters>
          </Trackpoint>
          <Trackpoint>
            <Time>2020-05-25T05:51:52.000Z</Time>
            <Position>
              <LatitudeDegrees>38.20854610763490200042724609375</LatitudeDegrees>
              <LongitudeDegrees>-1.1646297387778759002685546875</LongitudeDegrees>
            </Position>
            <AltitudeMeters>355.399993896484375</AltitudeMeters>
            <DistanceMeters>NAN</DistanceMeters>
          </Trackpoint>
          <Trackpoint>
            <Time>2020-05-25T05:51:53.000Z</Time>
            <Position>
              <LatitudeDegrees>38.208608888089656829833984375</LatitudeDegrees>
              <LongitudeDegrees>-1.16465060971677303314208984375</LongitudeDegrees>
            </Position>
            <AltitudeMeters>355.79998779296875</AltitudeMeters>
            <DistanceMeters>NAN</DistanceMeters>
          </Trackpoint>
          <Trackpoint>
            <Time>2020-05-25T05:51:54.000Z</Time>
            <Position>
              <LatitudeDegrees>38.20864032022655010223388671875</LatitudeDegrees>
              <LongitudeDegrees>-1.16466050036251544952392578125</LongitudeDegrees>
            </Position>
            <AltitudeMeters>356</AltitudeMeters>
            <DistanceMeters>NAN</DistanceMeters>
          </Trackpoint>
          <Trackpoint>
            <Time>2020-05-25T05:51:55.000Z</Time>
            <Position>
              <LatitudeDegrees>38.20867133326828479766845703125</LatitudeDegrees>
              <LongitudeDegrees>-1.1646728217601776123046875</LongitudeDegrees>
            </Position>
            <AltitudeMeters>356.600006103515625</AltitudeMeters>
            <DistanceMeters>NAN</DistanceMeters>
          </Trackpoint>
          <Trackpoint>
            <Time>2020-05-25T05:51:56.000Z</Time>
            <Position>
              <LatitudeDegrees>38.2087019272148609161376953125</LatitudeDegrees>
              <LongitudeDegrees>-1.16468950174748897552490234375</LongitudeDegrees>
            </Position>
            <AltitudeMeters>356.79998779296875</AltitudeMeters>
            <DistanceMeters>NAN</DistanceMeters>
          </Trackpoint>
          <Trackpoint>
            <Time>2020-05-25T05:51:57.000Z</Time>
            <Position>
              <LatitudeDegrees>38.208730928599834442138671875</LatitudeDegrees>
              <LongitudeDegrees>-1.16470928303897380828857421875</LongitudeDegrees>
            </Position>
            <AltitudeMeters>356.79998779296875</AltitudeMeters>
            <DistanceMeters>NAN</DistanceMeters>
          </Trackpoint>
          <Trackpoint>
            <Time>2020-05-25T05:51:58.000Z</Time>
            <Position>
              <LatitudeDegrees>38.208730928599834442138671875</LatitudeDegrees>
              <LongitudeDegrees>-1.16470928303897380828857421875</LongitudeDegrees>
            </Position>
            <AltitudeMeters>357.20001220703125</AltitudeMeters>
            <DistanceMeters>NAN</DistanceMeters>
          </Trackpoint>
          <Trackpoint>
            <Time>2020-05-25T05:51:59.000Z</Time>
            <Position>
              <LatitudeDegrees>38.2087887637317180633544921875</LatitudeDegrees>
              <LongitudeDegrees>-1.1647507734596729278564453125</LongitudeDegrees>
            </Position>
            <AltitudeMeters>357.399993896484375</AltitudeMeters>
            <DistanceMeters>NAN</DistanceMeters>
          </Trackpoint>
          <Trackpoint>
            <Time>2020-05-25T05:52:00.000Z</Time>
            <Position>
              <LatitudeDegrees>38.20881751365959644317626953125</LatitudeDegrees>
              <LongitudeDegrees>-1.16477214731276035308837890625</LongitudeDegrees>
            </Position>
            <AltitudeMeters>357.600006103515625</AltitudeMeters>
            <DistanceMeters>NAN</DistanceMeters>
          </Trackpoint>
          <Trackpoint>
            <Time>2020-05-25T05:52:01.000Z</Time>
            <Position>
              <LatitudeDegrees>38.2088460959494113922119140625</LatitudeDegrees>
              <LongitudeDegrees>-1.16479578427970409393310546875</LongitudeDegrees>
            </Position>
            <AltitudeMeters>357.79998779296875</AltitudeMeters>
            <DistanceMeters>NAN</DistanceMeters>
          </Trackpoint>
          <Trackpoint>
            <Time>2020-05-25T05:52:02.000Z</Time>
            <Position>
              <LatitudeDegrees>38.208873756229877471923828125</LatitudeDegrees>
              <LongitudeDegrees>-1.16481975652277469635009765625</LongitudeDegrees>
            </Position>
            <AltitudeMeters>358</AltitudeMeters>
            <DistanceMeters>NAN</DistanceMeters>
          </Trackpoint>
          <Trackpoint>
            <Time>2020-05-25T05:52:03.000Z</Time>
            <Position>
              <LatitudeDegrees>38.2089002430438995361328125</LatitudeDegrees>
              <LongitudeDegrees>-1.16484557278454303741455078125</LongitudeDegrees>
            </Position>
            <AltitudeMeters>358.20001220703125</AltitudeMeters>
            <DistanceMeters>NAN</DistanceMeters>
          </Trackpoint>
          <Trackpoint>
            <Time>2020-05-25T05:52:04.000Z</Time>
            <Position>
              <LatitudeDegrees>38.2089002430438995361328125</LatitudeDegrees>
              <LongitudeDegrees>-1.16484557278454303741455078125</LongitudeDegrees>
            </Position>
            <AltitudeMeters>358.600006103515625</AltitudeMeters>
            <DistanceMeters>NAN</DistanceMeters>
          </Trackpoint>
          <Trackpoint>
            <Time>2020-05-25T05:52:05.000Z</Time>
            <Position>
              <LatitudeDegrees>38.2089262269437313079833984375</LatitudeDegrees>
              <LongitudeDegrees>-1.1648761667311191558837890625</LongitudeDegrees>
            </Position>
            <AltitudeMeters>358.79998779296875</AltitudeMeters>
            <DistanceMeters>NAN</DistanceMeters>
          </Trackpoint>
          <Trackpoint>
            <Time>2020-05-25T05:52:06.000Z</Time>
            <Position>
              <LatitudeDegrees>38.20897492580115795135498046875</LatitudeDegrees>
              <LongitudeDegrees>-1.16493743844330310821533203125</LongitudeDegrees>
            </Position>
            <AltitudeMeters>359</AltitudeMeters>
            <DistanceMeters>NAN</DistanceMeters>
          </Trackpoint>
          <Trackpoint>
            <Time>2020-05-25T05:52:07.000Z</Time>
            <Position>
              <LatitudeDegrees>38.20897492580115795135498046875</LatitudeDegrees>
              <LongitudeDegrees>-1.16493743844330310821533203125</LongitudeDegrees>
            </Position>
            <AltitudeMeters>359.20001220703125</AltitudeMeters>
            <DistanceMeters>NAN</DistanceMeters>
          </Trackpoint>
          <Trackpoint>
            <Time>2020-05-25T05:52:08.000Z</Time>
            <Position>
              <LatitudeDegrees>38.20901834405958652496337890625</LatitudeDegrees>
              <LongitudeDegrees>-1.165002398192882537841796875</LongitudeDegrees>
            </Position>
            <AltitudeMeters>359.399993896484375</AltitudeMeters>
            <DistanceMeters>NAN</DistanceMeters>
          </Trackpoint>
          <Trackpoint>
            <Time>2020-05-25T05:52:09.000Z</Time>
            <Position>
              <LatitudeDegrees>38.20901834405958652496337890625</LatitudeDegrees>
              <LongitudeDegrees>-1.165002398192882537841796875</LongitudeDegrees>
            </Position>
            <AltitudeMeters>359.600006103515625</AltitudeMeters>
            <DistanceMeters>NAN</DistanceMeters>
          </Trackpoint>
          <Trackpoint>
            <Time>2020-05-25T05:52:10.000Z</Time>
            <Position>
              <LatitudeDegrees>38.20903846062719821929931640625</LatitudeDegrees>
              <LongitudeDegrees>-1.16503735072910785675048828125</LongitudeDegrees>
            </Position>
            <AltitudeMeters>359.79998779296875</AltitudeMeters>
            <DistanceMeters>NAN</DistanceMeters>
          </Trackpoint>
          <Trackpoint>
            <Time>2020-05-25T05:52:11.000Z</Time>
            <Position>
              <LatitudeDegrees>38.20905706845223903656005859375</LatitudeDegrees>
              <LongitudeDegrees>-1.1650746501982212066650390625</LongitudeDegrees>
            </Position>
            <AltitudeMeters>360</AltitudeMeters>
            <DistanceMeters>NAN</DistanceMeters>
          </Trackpoint>
          <Trackpoint>
            <Time>2020-05-25T05:52:12.000Z</Time>
            <Position>
              <LatitudeDegrees>38.20909176953136920928955078125</LatitudeDegrees>
              <LongitudeDegrees>-1.1651564575731754302978515625</LongitudeDegrees>
            </Position>
            <AltitudeMeters>360.20001220703125</AltitudeMeters>
            <DistanceMeters>NAN</DistanceMeters>
          </Trackpoint>
          <Trackpoint>
            <Time>2020-05-25T05:52:13.000Z</Time>
            <Position>
              <LatitudeDegrees>38.20909176953136920928955078125</LatitudeDegrees>
              <LongitudeDegrees>-1.1651564575731754302978515625</LongitudeDegrees>
            </Position>
            <AltitudeMeters>360.399993896484375</AltitudeMeters>
            <DistanceMeters>NAN</DistanceMeters>
          </Trackpoint>
          <Trackpoint>
            <Time>2020-05-25T05:52:14.000Z</Time>
            <Position>
              <LatitudeDegrees>38.20912328548729419708251953125</LatitudeDegrees>
              <LongitudeDegrees>-1.165236420929431915283203125</LongitudeDegrees>
            </Position>
            <AltitudeMeters>360.399993896484375</AltitudeMeters>
            <DistanceMeters>NAN</DistanceMeters>
          </Trackpoint>
          <Trackpoint>
            <Time>2020-05-25T05:52:15.000Z</Time>
            <Position>
              <LatitudeDegrees>38.20912328548729419708251953125</LatitudeDegrees>
              <LongitudeDegrees>-1.165236420929431915283203125</LongitudeDegrees>
            </Position>
            <AltitudeMeters>360.600006103515625</AltitudeMeters>
            <DistanceMeters>NAN</DistanceMeters>
          </Trackpoint>
          <Trackpoint>
            <Time>2020-05-25T05:52:16.000Z</Time>
            <Position>
              <LatitudeDegrees>38.2091384567320346832275390625</LatitudeDegrees>
              <LongitudeDegrees>-1.16527657024562358856201171875</LongitudeDegrees>
            </Position>
            <AltitudeMeters>360.79998779296875</AltitudeMeters>
            <DistanceMeters>NAN</DistanceMeters>
          </Trackpoint>
          <Trackpoint>
            <Time>2020-05-25T05:52:17.000Z</Time>
            <Position>
              <LatitudeDegrees>38.209153376519680023193359375</LatitudeDegrees>
              <LongitudeDegrees>-1.16531454026699066162109375</LongitudeDegrees>
            </Position>
            <AltitudeMeters>360.79998779296875</AltitudeMeters>
            <DistanceMeters>NAN</DistanceMeters>
          </Trackpoint>
          <Trackpoint>
            <Time>2020-05-25T05:52:18.000Z</Time>
            <Position>
              <LatitudeDegrees>38.2091837190091609954833984375</LatitudeDegrees>
              <LongitudeDegrees>-1.16538830101490020751953125</LongitudeDegrees>
            </Position>
            <AltitudeMeters>361</AltitudeMeters>
            <DistanceMeters>NAN</DistanceMeters>
          </Trackpoint>
          <Trackpoint>
            <Time>2020-05-25T05:52:19.000Z</Time>
            <Position>
              <LatitudeDegrees>38.2091837190091609954833984375</LatitudeDegrees>
              <LongitudeDegrees>-1.16538830101490020751953125</LongitudeDegrees>
            </Position>
            <AltitudeMeters>361.20001220703125</AltitudeMeters>
            <DistanceMeters>NAN</DistanceMeters>
          </Trackpoint>
          <Trackpoint>
            <Time>2020-05-25T05:52:20.000Z</Time>
            <Position>
              <LatitudeDegrees>38.20921280421316623687744140625</LatitudeDegrees>
              <LongitudeDegrees>-1.16546214558184146881103515625</LongitudeDegrees>
            </Position>
            <AltitudeMeters>361.399993896484375</AltitudeMeters>
            <DistanceMeters>NAN</DistanceMeters>
          </Trackpoint>
          <Trackpoint>
            <Time>2020-05-25T05:52:21.000Z</Time>
            <Position>
              <LatitudeDegrees>38.20921280421316623687744140625</LatitudeDegrees>
              <LongitudeDegrees>-1.16546214558184146881103515625</LongitudeDegrees>
            </Position>
            <AltitudeMeters>361.399993896484375</AltitudeMeters>
            <DistanceMeters>NAN</DistanceMeters>
          </Trackpoint>
          <Trackpoint>
            <Time>2020-05-25T05:52:22.000Z</Time>
            <Position>
              <LatitudeDegrees>38.20922688581049442291259765625</LatitudeDegrees>
              <LongitudeDegrees>-1.16550036706030368804931640625</LongitudeDegrees>
            </Position>
            <AltitudeMeters>362</AltitudeMeters>
            <DistanceMeters>NAN</DistanceMeters>
          </Trackpoint>
          <Trackpoint>
            <Time>2020-05-25T05:52:23.000Z</Time>
            <Position>
              <LatitudeDegrees>38.20924113504588603973388671875</LatitudeDegrees>
              <LongitudeDegrees>-1.16553758271038532257080078125</LongitudeDegrees>
            </Position>
            <AltitudeMeters>362.20001220703125</AltitudeMeters>
            <DistanceMeters>NAN</DistanceMeters>
          </Trackpoint>
          <Trackpoint>
            <Time>2020-05-25T05:52:24.000Z</Time>
            <Position>
              <LatitudeDegrees>38.209272734820842742919921875</LatitudeDegrees>
              <LongitudeDegrees>-1.16560958325862884521484375</LongitudeDegrees>
            </Position>
            <AltitudeMeters>362.399993896484375</AltitudeMeters>
            <DistanceMeters>NAN</DistanceMeters>
          </Trackpoint>
          <Trackpoint>
            <Time>2020-05-25T05:52:25.000Z</Time>
            <Position>
              <LatitudeDegrees>38.209272734820842742919921875</LatitudeDegrees>
              <LongitudeDegrees>-1.16560958325862884521484375</LongitudeDegrees>
            </Position>
            <AltitudeMeters>362.600006103515625</AltitudeMeters>
            <DistanceMeters>NAN</DistanceMeters>
          </Trackpoint>
          <Trackpoint>
            <Time>2020-05-25T05:52:26.000Z</Time>
            <Position>
              <LatitudeDegrees>38.209309279918670654296875</LatitudeDegrees>
              <LongitudeDegrees>-1.1656737886369228363037109375</LongitudeDegrees>
            </Position>
            <AltitudeMeters>362.79998779296875</AltitudeMeters>
            <DistanceMeters>NAN</DistanceMeters>
          </Trackpoint>
          <Trackpoint>
            <Time>2020-05-25T05:52:27.000Z</Time>
            <Position>
              <LatitudeDegrees>38.20932981558144092559814453125</LatitudeDegrees>
              <LongitudeDegrees>-1.16570421494543552398681640625</LongitudeDegrees>
            </Position>
            <AltitudeMeters>363</AltitudeMeters>
            <DistanceMeters>NAN</DistanceMeters>
          </Trackpoint>
          <Trackpoint>
            <Time>2020-05-25T05:52:28.000Z</Time>
            <Position>
              <LatitudeDegrees>38.20932981558144092559814453125</LatitudeDegrees>
              <LongitudeDegrees>-1.16570421494543552398681640625</LongitudeDegrees>
            </Position>
            <AltitudeMeters>363.399993896484375</AltitudeMeters>
            <DistanceMeters>NAN</DistanceMeters>
          </Trackpoint>
          <Trackpoint>
            <Time>2020-05-25T05:52:29.000Z</Time>
            <Position>
              <LatitudeDegrees>38.209351859986782073974609375</LatitudeDegrees>
              <LongitudeDegrees>-1.1657341383397579193115234375</LongitudeDegrees>
            </Position>
            <AltitudeMeters>363.600006103515625</AltitudeMeters>
            <DistanceMeters>NAN</DistanceMeters>
          </Trackpoint>
          <Trackpoint>
            <Time>2020-05-25T05:52:30.000Z</Time>
            <Position>
              <LatitudeDegrees>38.20939670316874980926513671875</LatitudeDegrees>
              <LongitudeDegrees>-1.16579088382422924041748046875</LongitudeDegrees>
            </Position>
            <AltitudeMeters>363.79998779296875</AltitudeMeters>
            <DistanceMeters>NAN</DistanceMeters>
          </Trackpoint>
          <Trackpoint>
            <Time>2020-05-25T05:52:31.000Z</Time>
            <Position>
              <LatitudeDegrees>38.20939670316874980926513671875</LatitudeDegrees>
              <LongitudeDegrees>-1.16579088382422924041748046875</LongitudeDegrees>
            </Position>
            <AltitudeMeters>364</AltitudeMeters>
            <DistanceMeters>NAN</DistanceMeters>
          </Trackpoint>
          <Trackpoint>
            <Time>2020-05-25T05:52:32.000Z</Time>
            <Position>
              <LatitudeDegrees>38.209444396197795867919921875</LatitudeDegrees>
              <LongitudeDegrees>-1.16584486328065395355224609375</LongitudeDegrees>
            </Position>
            <AltitudeMeters>364.399993896484375</AltitudeMeters>
            <DistanceMeters>NAN</DistanceMeters>
          </Trackpoint>
          <Trackpoint>
            <Time>2020-05-25T05:52:33.000Z</Time>
            <Position>
              <LatitudeDegrees>38.209444396197795867919921875</LatitudeDegrees>
              <LongitudeDegrees>-1.16584486328065395355224609375</LongitudeDegrees>
            </Position>
            <AltitudeMeters>364.600006103515625</AltitudeMeters>
            <DistanceMeters>NAN</DistanceMeters>
          </Trackpoint>
          <Trackpoint>
            <Time>2020-05-25T05:52:34.000Z</Time>
            <Position>
              <LatitudeDegrees>38.2094688713550567626953125</LatitudeDegrees>
              <LongitudeDegrees>-1.165871433913707733154296875</LongitudeDegrees>
            </Position>
            <AltitudeMeters>364.79998779296875</AltitudeMeters>
            <DistanceMeters>NAN</DistanceMeters>
          </Trackpoint>
          <Trackpoint>
            <Time>2020-05-25T05:52:35.000Z</Time>
            <Position>
              <LatitudeDegrees>38.2094945199787616729736328125</LatitudeDegrees>
              <LongitudeDegrees>-1.16589766927063465118408203125</LongitudeDegrees>
            </Position>
            <AltitudeMeters>365</AltitudeMeters>
            <DistanceMeters>NAN</DistanceMeters>
          </Trackpoint>
          <Trackpoint>
            <Time>2020-05-25T05:52:36.000Z</Time>
            <Position>
              <LatitudeDegrees>38.2095478288829326629638671875</LatitudeDegrees>
              <LongitudeDegrees>-1.16594745777547359466552734375</LongitudeDegrees>
            </Position>
            <AltitudeMeters>365.20001220703125</AltitudeMeters>
            <DistanceMeters>NAN</DistanceMeters>
          </Trackpoint>
          <Trackpoint>
            <Time>2020-05-25T05:52:37.000Z</Time>
            <Position>
              <LatitudeDegrees>38.2095478288829326629638671875</LatitudeDegrees>
              <LongitudeDegrees>-1.16594745777547359466552734375</LongitudeDegrees>
            </Position>
            <AltitudeMeters>365.600006103515625</AltitudeMeters>
            <DistanceMeters>NAN</DistanceMeters>
          </Trackpoint>
          <Trackpoint>
            <Time>2020-05-25T05:52:38.000Z</Time>
            <Position>
              <LatitudeDegrees>38.209604322910308837890625</LatitudeDegrees>
              <LongitudeDegrees>-1.1659959889948368072509765625</LongitudeDegrees>
            </Position>
            <AltitudeMeters>365.79998779296875</AltitudeMeters>
            <DistanceMeters>NAN</DistanceMeters>
          </Trackpoint>
          <Trackpoint>
            <Time>2020-05-25T05:52:39.000Z</Time>
            <Position>
              <LatitudeDegrees>38.209604322910308837890625</LatitudeDegrees>
              <LongitudeDegrees>-1.1659959889948368072509765625</LongitudeDegrees>
            </Position>
            <AltitudeMeters>366.20001220703125</AltitudeMeters>
            <DistanceMeters>NAN</DistanceMeters>
          </Trackpoint>
          <Trackpoint>
            <Time>2020-05-25T05:52:40.000Z</Time>
            <Position>
              <LatitudeDegrees>38.20963290520012378692626953125</LatitudeDegrees>
              <LongitudeDegrees>-1.16601996123790740966796875</LongitudeDegrees>
            </Position>
            <AltitudeMeters>366.399993896484375</AltitudeMeters>
            <DistanceMeters>NAN</DistanceMeters>
          </Trackpoint>
          <Trackpoint>
            <Time>2020-05-25T05:52:41.000Z</Time>
            <Position>
              <LatitudeDegrees>38.2096619904041290283203125</LatitudeDegrees>
              <LongitudeDegrees>-1.16604250855743885040283203125</LongitudeDegrees>
            </Position>
            <AltitudeMeters>366.600006103515625</AltitudeMeters>
            <DistanceMeters>NAN</DistanceMeters>
          </Trackpoint>
          <Trackpoint>
            <Time>2020-05-25T05:52:42.000Z</Time>
            <Position>
              <LatitudeDegrees>38.20972376503050327301025390625</LatitudeDegrees>
              <LongitudeDegrees>-1.16608433425426483154296875</LongitudeDegrees>
            </Position>
            <AltitudeMeters>366.79998779296875</AltitudeMeters>
            <DistanceMeters>NAN</DistanceMeters>
          </Trackpoint>
          <Trackpoint>
            <Time>2020-05-25T05:52:43.000Z</Time>
            <Position>
              <LatitudeDegrees>38.20972376503050327301025390625</LatitudeDegrees>
              <LongitudeDegrees>-1.16608433425426483154296875</LongitudeDegrees>
            </Position>
            <AltitudeMeters>367</AltitudeMeters>
            <DistanceMeters>NAN</DistanceMeters>
          </Trackpoint>
          <Trackpoint>
            <Time>2020-05-25T05:52:44.000Z</Time>
            <Position>
              <LatitudeDegrees>38.209791071712970733642578125</LatitudeDegrees>
              <LongitudeDegrees>-1.1661264114081859588623046875</LongitudeDegrees>
            </Position>
            <AltitudeMeters>367.600006103515625</AltitudeMeters>
            <DistanceMeters>NAN</DistanceMeters>
          </Trackpoint>
          <Trackpoint>
            <Time>2020-05-25T05:52:45.000Z</Time>
            <Position>
              <LatitudeDegrees>38.209791071712970733642578125</LatitudeDegrees>
              <LongitudeDegrees>-1.1661264114081859588623046875</LongitudeDegrees>
            </Position>
            <AltitudeMeters>367.79998779296875</AltitudeMeters>
            <DistanceMeters>NAN</DistanceMeters>
          </Trackpoint>
          <Trackpoint>
            <Time>2020-05-25T05:52:46.000Z</Time>
            <Position>
              <LatitudeDegrees>38.20982585661113262176513671875</LatitudeDegrees>
              <LongitudeDegrees>-1.16614862345159053802490234375</LongitudeDegrees>
            </Position>
            <AltitudeMeters>368.20001220703125</AltitudeMeters>
            <DistanceMeters>NAN</DistanceMeters>
          </Trackpoint>
          <Trackpoint>
            <Time>2020-05-25T05:52:47.000Z</Time>
            <Position>
              <LatitudeDegrees>38.20986189879477024078369140625</LatitudeDegrees>
              <LongitudeDegrees>-1.16617041639983654022216796875</LongitudeDegrees>
            </Position>
            <AltitudeMeters>368.399993896484375</AltitudeMeters>
            <DistanceMeters>NAN</DistanceMeters>
          </Trackpoint>
          <Trackpoint>
            <Time>2020-05-25T05:52:48.000Z</Time>
            <Position>
              <LatitudeDegrees>38.209939263761043548583984375</LatitudeDegrees>
              <LongitudeDegrees>-1.1662112362682819366455078125</LongitudeDegrees>
            </Position>
            <AltitudeMeters>368.399993896484375</AltitudeMeters>
            <DistanceMeters>NAN</DistanceMeters>
          </Trackpoint>
          <Trackpoint>
            <Time>2020-05-25T05:52:49.000Z</Time>
            <Position>
              <LatitudeDegrees>38.209939263761043548583984375</LatitudeDegrees>
              <LongitudeDegrees>-1.1662112362682819366455078125</LongitudeDegrees>
            </Position>
            <AltitudeMeters>368.600006103515625</AltitudeMeters>
            <DistanceMeters>NAN</DistanceMeters>
          </Trackpoint>
          <Trackpoint>
            <Time>2020-05-25T05:52:50.000Z</Time>
            <Position>
              <LatitudeDegrees>38.21002014912664890289306640625</LatitudeDegrees>
              <LongitudeDegrees>-1.16625339724123477935791015625</LongitudeDegrees>
            </Position>
            <AltitudeMeters>369</AltitudeMeters>
            <DistanceMeters>NAN</DistanceMeters>
          </Trackpoint>
          <Trackpoint>
            <Time>2020-05-25T05:52:51.000Z</Time>
            <Position>
              <LatitudeDegrees>38.21002014912664890289306640625</LatitudeDegrees>
              <LongitudeDegrees>-1.16625339724123477935791015625</LongitudeDegrees>
            </Position>
            <AltitudeMeters>369</AltitudeMeters>
            <DistanceMeters>NAN</DistanceMeters>
          </Trackpoint>
          <Trackpoint>
            <Time>2020-05-25T05:52:52.000Z</Time>
            <Position>
              <LatitudeDegrees>38.21006222628057003021240234375</LatitudeDegrees>
              <LongitudeDegrees>-1.166275106370449066162109375</LongitudeDegrees>
            </Position>
            <AltitudeMeters>369</AltitudeMeters>
            <DistanceMeters>NAN</DistanceMeters>
          </Trackpoint>
          <Trackpoint>
            <Time>2020-05-25T05:52:53.000Z</Time>
            <Position>
              <LatitudeDegrees>38.21010530926287174224853515625</LatitudeDegrees>
              <LongitudeDegrees>-1.16629782132804393768310546875</LongitudeDegrees>
            </Position>
            <AltitudeMeters>369.20001220703125</AltitudeMeters>
            <DistanceMeters>NAN</DistanceMeters>
          </Trackpoint>
          <Trackpoint>
            <Time>2020-05-25T05:52:54.000Z</Time>
            <Position>
              <LatitudeDegrees>38.21019030176103115081787109375</LatitudeDegrees>
              <LongitudeDegrees>-1.1663403175771236419677734375</LongitudeDegrees>
            </Position>
            <AltitudeMeters>369.20001220703125</AltitudeMeters>
            <DistanceMeters>NAN</DistanceMeters>
          </Trackpoint>
          <Trackpoint>
            <Time>2020-05-25T05:52:55.000Z</Time>
            <Position>
              <LatitudeDegrees>38.21019030176103115081787109375</LatitudeDegrees>
              <LongitudeDegrees>-1.1663403175771236419677734375</LongitudeDegrees>
            </Position>
            <AltitudeMeters>369.399993896484375</AltitudeMeters>
            <DistanceMeters>NAN</DistanceMeters>
          </Trackpoint>
          <Trackpoint>
            <Time>2020-05-25T05:52:56.000Z</Time>
            <Position>
              <LatitudeDegrees>38.21027562953531742095947265625</LatitudeDegrees>
              <LongitudeDegrees>-1.1663761921226978302001953125</LongitudeDegrees>
            </Position>
            <AltitudeMeters>369.399993896484375</AltitudeMeters>
            <DistanceMeters>NAN</DistanceMeters>
          </Trackpoint>
          <Trackpoint>
            <Time>2020-05-25T05:52:57.000Z</Time>
            <Position>
              <LatitudeDegrees>38.21027562953531742095947265625</LatitudeDegrees>
              <LongitudeDegrees>-1.1663761921226978302001953125</LongitudeDegrees>
            </Position>
            <AltitudeMeters>369.600006103515625</AltitudeMeters>
            <DistanceMeters>NAN</DistanceMeters>
          </Trackpoint>
          <Trackpoint>
            <Time>2020-05-25T05:52:58.000Z</Time>
            <Position>
              <LatitudeDegrees>38.21032038889825344085693359375</LatitudeDegrees>
              <LongitudeDegrees>-1.166395805776119232177734375</LongitudeDegrees>
            </Position>
            <AltitudeMeters>369.600006103515625</AltitudeMeters>
            <DistanceMeters>NAN</DistanceMeters>
          </Trackpoint>
          <Trackpoint>
            <Time>2020-05-25T05:52:59.000Z</Time>
            <Position>
              <LatitudeDegrees>38.21036699227988719940185546875</LatitudeDegrees>
              <LongitudeDegrees>-1.16641466505825519561767578125</LongitudeDegrees>
            </Position>
            <AltitudeMeters>369.600006103515625</AltitudeMeters>
            <DistanceMeters>NAN</DistanceMeters>
          </Trackpoint>
          <Trackpoint>
            <Time>2020-05-25T05:53:00.000Z</Time>
            <Position>
              <LatitudeDegrees>38.21046187542378902435302734375</LatitudeDegrees>
              <LongitudeDegrees>-1.16645037196576595306396484375</LongitudeDegrees>
            </Position>
            <AltitudeMeters>369.600006103515625</AltitudeMeters>
            <DistanceMeters>NAN</DistanceMeters>
          </Trackpoint>
          <Trackpoint>
            <Time>2020-05-25T05:53:01.000Z</Time>
            <Position>
              <LatitudeDegrees>38.21046187542378902435302734375</LatitudeDegrees>
              <LongitudeDegrees>-1.16645037196576595306396484375</LongitudeDegrees>
            </Position>
            <AltitudeMeters>369.600006103515625</AltitudeMeters>
            <DistanceMeters>NAN</DistanceMeters>
          </Trackpoint>
          <Trackpoint>
            <Time>2020-05-25T05:53:02.000Z</Time>
            <Position>
              <LatitudeDegrees>38.21055843494832515716552734375</LatitudeDegrees>
              <LongitudeDegrees>-1.166487671434879302978515625</LongitudeDegrees>
            </Position>
            <AltitudeMeters>369.600006103515625</AltitudeMeters>
            <DistanceMeters>NAN</DistanceMeters>
          </Trackpoint>
          <Trackpoint>
            <Time>2020-05-25T05:53:03.000Z</Time>
            <Position>
              <LatitudeDegrees>38.21055843494832515716552734375</LatitudeDegrees>
              <LongitudeDegrees>-1.166487671434879302978515625</LongitudeDegrees>
            </Position>
            <AltitudeMeters>369.600006103515625</AltitudeMeters>
            <DistanceMeters>NAN</DistanceMeters>
          </Trackpoint>
          <Trackpoint>
            <Time>2020-05-25T05:53:04.000Z</Time>
            <Position>
              <LatitudeDegrees>38.21060813963413238525390625</LatitudeDegrees>
              <LongitudeDegrees>-1.16650418378412723541259765625</LongitudeDegrees>
            </Position>
            <AltitudeMeters>369.79998779296875</AltitudeMeters>
            <DistanceMeters>NAN</DistanceMeters>
          </Trackpoint>
          <Trackpoint>
            <Time>2020-05-25T05:53:05.000Z</Time>
            <Position>
              <LatitudeDegrees>38.2106582634150981903076171875</LatitudeDegrees>
              <LongitudeDegrees>-1.166522204875946044921875</LongitudeDegrees>
            </Position>
            <AltitudeMeters>369.79998779296875</AltitudeMeters>
            <DistanceMeters>NAN</DistanceMeters>
          </Trackpoint>
          <Trackpoint>
            <Time>2020-05-25T05:53:06.000Z</Time>
            <Position>
              <LatitudeDegrees>38.21076027117669582366943359375</LatitudeDegrees>
              <LongitudeDegrees>-1.16655372083187103271484375</LongitudeDegrees>
            </Position>
            <AltitudeMeters>369.79998779296875</AltitudeMeters>
            <DistanceMeters>NAN</DistanceMeters>
          </Trackpoint>
          <Trackpoint>
            <Time>2020-05-25T05:53:07.000Z</Time>
            <Position>
              <LatitudeDegrees>38.21076027117669582366943359375</LatitudeDegrees>
              <LongitudeDegrees>-1.16655372083187103271484375</LongitudeDegrees>
            </Position>
            <AltitudeMeters>369.79998779296875</AltitudeMeters>
            <DistanceMeters>NAN</DistanceMeters>
          </Trackpoint>
          <Trackpoint>
            <Time>2020-05-25T05:53:08.000Z</Time>
            <Position>
              <LatitudeDegrees>38.21085984818637371063232421875</LatitudeDegrees>
              <LongitudeDegrees>-1.16658188402652740478515625</LongitudeDegrees>
            </Position>
            <AltitudeMeters>369.79998779296875</AltitudeMeters>
            <DistanceMeters>NAN</DistanceMeters>
          </Trackpoint>
          <Trackpoint>
            <Time>2020-05-25T05:53:09.000Z</Time>
            <Position>
              <LatitudeDegrees>38.21085984818637371063232421875</LatitudeDegrees>
              <LongitudeDegrees>-1.16658188402652740478515625</LongitudeDegrees>
            </Position>
            <AltitudeMeters>369.79998779296875</AltitudeMeters>
            <DistanceMeters>NAN</DistanceMeters>
          </Trackpoint>
          <Trackpoint>
            <Time>2020-05-25T05:53:10.000Z</Time>
            <Position>
              <LatitudeDegrees>38.2109092175960540771484375</LatitudeDegrees>
              <LongitudeDegrees>-1.1665932834148406982421875</LongitudeDegrees>
            </Position>
            <AltitudeMeters>369.79998779296875</AltitudeMeters>
            <DistanceMeters>NAN</DistanceMeters>
          </Trackpoint>
          <Trackpoint>
            <Time>2020-05-25T05:53:11.000Z</Time>
            <Position>
              <LatitudeDegrees>38.2109586708247661590576171875</LatitudeDegrees>
              <LongitudeDegrees>-1.16660342551767826080322265625</LongitudeDegrees>
            </Position>
            <AltitudeMeters>369.79998779296875</AltitudeMeters>
            <DistanceMeters>NAN</DistanceMeters>
          </Trackpoint>
          <Trackpoint>
            <Time>2020-05-25T05:53:12.000Z</Time>
            <Position>
              <LatitudeDegrees>38.21105631999671459197998046875</LatitudeDegrees>
              <LongitudeDegrees>-1.16661985404789447784423828125</LongitudeDegrees>
            </Position>
            <AltitudeMeters>369.79998779296875</AltitudeMeters>
            <DistanceMeters>NAN</DistanceMeters>
          </Trackpoint>
          <Trackpoint>
            <Time>2020-05-25T05:53:13.000Z</Time>
            <Position>
              <LatitudeDegrees>38.21105631999671459197998046875</LatitudeDegrees>
              <LongitudeDegrees>-1.16661985404789447784423828125</LongitudeDegrees>
            </Position>
            <AltitudeMeters>369.79998779296875</AltitudeMeters>
            <DistanceMeters>NAN</DistanceMeters>
          </Trackpoint>
          <Trackpoint>
            <Time>2020-05-25T05:53:14.000Z</Time>
            <Position>
              <LatitudeDegrees>38.2111514545977115631103515625</LatitudeDegrees>
              <LongitudeDegrees>-1.166627816855907440185546875</LongitudeDegrees>
            </Position>
            <AltitudeMeters>369.79998779296875</AltitudeMeters>
            <DistanceMeters>NAN</DistanceMeters>
          </Trackpoint>
          <Trackpoint>
            <Time>2020-05-25T05:53:15.000Z</Time>
            <Position>
              <LatitudeDegrees>38.2111514545977115631103515625</LatitudeDegrees>
              <LongitudeDegrees>-1.166627816855907440185546875</LongitudeDegrees>
            </Position>
            <AltitudeMeters>370</AltitudeMeters>
            <DistanceMeters>NAN</DistanceMeters>
          </Trackpoint>
          <Trackpoint>
            <Time>2020-05-25T05:53:16.000Z</Time>
            <Position>
              <LatitudeDegrees>38.21119763888418674468994140625</LatitudeDegrees>
              <LongitudeDegrees>-1.1666303314268589019775390625</LongitudeDegrees>
            </Position>
            <AltitudeMeters>370.20001220703125</AltitudeMeters>
            <DistanceMeters>NAN</DistanceMeters>
          </Trackpoint>
          <Trackpoint>
            <Time>2020-05-25T05:53:17.000Z</Time>
            <Position>
              <LatitudeDegrees>38.21124290116131305694580078125</LatitudeDegrees>
              <LongitudeDegrees>-1.1666330136358737945556640625</LongitudeDegrees>
            </Position>
            <AltitudeMeters>370.399993896484375</AltitudeMeters>
            <DistanceMeters>NAN</DistanceMeters>
          </Trackpoint>
          <Trackpoint>
            <Time>2020-05-25T05:53:18.000Z</Time>
            <Position>
              <LatitudeDegrees>38.21133258752524852752685546875</LatitudeDegrees>
              <LongitudeDegrees>-1.16664223372936248779296875</LongitudeDegrees>
            </Position>
            <AltitudeMeters>370.399993896484375</AltitudeMeters>
            <DistanceMeters>NAN</DistanceMeters>
          </Trackpoint>
          <Trackpoint>
            <Time>2020-05-25T05:53:19.000Z</Time>
            <Position>
              <LatitudeDegrees>38.21133258752524852752685546875</LatitudeDegrees>
              <LongitudeDegrees>-1.16664223372936248779296875</LongitudeDegrees>
            </Position>
            <AltitudeMeters>370.600006103515625</AltitudeMeters>
            <DistanceMeters>NAN</DistanceMeters>
          </Trackpoint>
          <Trackpoint>
            <Time>2020-05-25T05:53:20.000Z</Time>
            <Position>
              <LatitudeDegrees>38.21142311207950115203857421875</LatitudeDegrees>
              <LongitudeDegrees>-1.16665287874639034271240234375</LongitudeDegrees>
            </Position>
            <AltitudeMeters>370.600006103515625</AltitudeMeters>
            <DistanceMeters>NAN</DistanceMeters>
          </Trackpoint>
          <Trackpoint>
            <Time>2020-05-25T05:53:21.000Z</Time>
            <Position>
              <LatitudeDegrees>38.21142311207950115203857421875</LatitudeDegrees>
              <LongitudeDegrees>-1.16665287874639034271240234375</LongitudeDegrees>
            </Position>
            <AltitudeMeters>370.79998779296875</AltitudeMeters>
            <DistanceMeters>NAN</DistanceMeters>
          </Trackpoint>
          <Trackpoint>
            <Time>2020-05-25T05:53:22.000Z</Time>
            <Position>
              <LatitudeDegrees>38.2114682905375957489013671875</LatitudeDegrees>
              <LongitudeDegrees>-1.16665891371667385101318359375</LongitudeDegrees>
            </Position>
            <AltitudeMeters>371</AltitudeMeters>
            <DistanceMeters>NAN</DistanceMeters>
          </Trackpoint>
          <Trackpoint>
            <Time>2020-05-25T05:53:23.000Z</Time>
            <Position>
              <LatitudeDegrees>38.2115135528147220611572265625</LatitudeDegrees>
              <LongitudeDegrees>-1.16666461341083049774169921875</LongitudeDegrees>
            </Position>
            <AltitudeMeters>371.20001220703125</AltitudeMeters>
            <DistanceMeters>NAN</DistanceMeters>
          </Trackpoint>
          <Trackpoint>
            <Time>2020-05-25T05:53:24.000Z</Time>
            <Position>
              <LatitudeDegrees>38.2116030715405941009521484375</LatitudeDegrees>
              <LongitudeDegrees>-1.16667584516108036041259765625</LongitudeDegrees>
            </Position>
            <AltitudeMeters>371.399993896484375</AltitudeMeters>
            <DistanceMeters>NAN</DistanceMeters>
          </Trackpoint>
          <Trackpoint>
            <Time>2020-05-25T05:53:25.000Z</Time>
            <Position>
              <LatitudeDegrees>38.2116030715405941009521484375</LatitudeDegrees>
              <LongitudeDegrees>-1.16667584516108036041259765625</LongitudeDegrees>
            </Position>
            <AltitudeMeters>371.600006103515625</AltitudeMeters>
            <DistanceMeters>NAN</DistanceMeters>
          </Trackpoint>
          <Trackpoint>
            <Time>2020-05-25T05:53:26.000Z</Time>
            <Position>
              <LatitudeDegrees>38.21168881841003894805908203125</LatitudeDegrees>
              <LongitudeDegrees>-1.16668623872101306915283203125</LongitudeDegrees>
            </Position>
            <AltitudeMeters>371.79998779296875</AltitudeMeters>
            <DistanceMeters>NAN</DistanceMeters>
          </Trackpoint>
          <Trackpoint>
            <Time>2020-05-25T05:53:27.000Z</Time>
            <Position>
              <LatitudeDegrees>38.21168881841003894805908203125</LatitudeDegrees>
              <LongitudeDegrees>-1.16668623872101306915283203125</LongitudeDegrees>
            </Position>
            <AltitudeMeters>372</AltitudeMeters>
            <DistanceMeters>NAN</DistanceMeters>
          </Trackpoint>
          <Trackpoint>
            <Time>2020-05-25T05:53:28.000Z</Time>
            <Position>
              <LatitudeDegrees>38.21173022501170635223388671875</LatitudeDegrees>
              <LongitudeDegrees>-1.16669227369129657745361328125</LongitudeDegrees>
            </Position>
            <AltitudeMeters>372</AltitudeMeters>
            <DistanceMeters>NAN</DistanceMeters>
          </Trackpoint>
          <Trackpoint>
            <Time>2020-05-25T05:53:29.000Z</Time>
            <Position>
              <LatitudeDegrees>38.21177096106112003326416015625</LatitudeDegrees>
              <LongitudeDegrees>-1.16669914685189723968505859375</LongitudeDegrees>
            </Position>
            <AltitudeMeters>372</AltitudeMeters>
            <DistanceMeters>NAN</DistanceMeters>
          </Trackpoint>
          <Trackpoint>
            <Time>2020-05-25T05:53:30.000Z</Time>
            <Position>
              <LatitudeDegrees>38.2118506729602813720703125</LatitudeDegrees>
              <LongitudeDegrees>-1.16670970804989337921142578125</LongitudeDegrees>
            </Position>
            <AltitudeMeters>372.20001220703125</AltitudeMeters>
            <DistanceMeters>NAN</DistanceMeters>
          </Trackpoint>
          <Trackpoint>
            <Time>2020-05-25T05:53:31.000Z</Time>
            <Position>
              <LatitudeDegrees>38.2118506729602813720703125</LatitudeDegrees>
              <LongitudeDegrees>-1.16670970804989337921142578125</LongitudeDegrees>
            </Position>
            <AltitudeMeters>372.20001220703125</AltitudeMeters>
            <DistanceMeters>NAN</DistanceMeters>
          </Trackpoint>
          <Trackpoint>
            <Time>2020-05-25T05:53:32.000Z</Time>
            <Position>
              <LatitudeDegrees>38.21189048700034618377685546875</LatitudeDegrees>
              <LongitudeDegrees>-1.16671406663954257965087890625</LongitudeDegrees>
            </Position>
            <AltitudeMeters>372.600006103515625</AltitudeMeters>
            <DistanceMeters>NAN</DistanceMeters>
          </Trackpoint>
          <Trackpoint>
            <Time>2020-05-25T05:53:33.000Z</Time>
            <Position>
              <LatitudeDegrees>38.21193004958331584930419921875</LatitudeDegrees>
              <LongitudeDegrees>-1.16671859286725521087646484375</LongitudeDegrees>
            </Position>
            <AltitudeMeters>372.79998779296875</AltitudeMeters>
            <DistanceMeters>NAN</DistanceMeters>
          </Trackpoint>
          <Trackpoint>
            <Time>2020-05-25T05:53:34.000Z</Time>
            <Position>
              <LatitudeDegrees>38.21196936070919036865234375</LatitudeDegrees>
              <LongitudeDegrees>-1.1667238734662532806396484375</LongitudeDegrees>
            </Position>
            <AltitudeMeters>373</AltitudeMeters>
            <DistanceMeters>NAN</DistanceMeters>
          </Trackpoint>
          <Trackpoint>
            <Time>2020-05-25T05:53:35.000Z</Time>
            <Position>
              <LatitudeDegrees>38.21200850419700145721435546875</LatitudeDegrees>
              <LongitudeDegrees>-1.1667300760746002197265625</LongitudeDegrees>
            </Position>
            <AltitudeMeters>373.20001220703125</AltitudeMeters>
            <DistanceMeters>NAN</DistanceMeters>
          </Trackpoint>
          <Trackpoint>
            <Time>2020-05-25T05:53:36.000Z</Time>
            <Position>
              <LatitudeDegrees>38.2120862044394016265869140625</LatitudeDegrees>
              <LongitudeDegrees>-1.1667389608919620513916015625</LongitudeDegrees>
            </Position>
            <AltitudeMeters>373.399993896484375</AltitudeMeters>
            <DistanceMeters>NAN</DistanceMeters>
          </Trackpoint>
          <Trackpoint>
            <Time>2020-05-25T05:53:37.000Z</Time>
            <Position>
              <LatitudeDegrees>38.2120862044394016265869140625</LatitudeDegrees>
              <LongitudeDegrees>-1.1667389608919620513916015625</LongitudeDegrees>
            </Position>
            <AltitudeMeters>373.600006103515625</AltitudeMeters>
            <DistanceMeters>NAN</DistanceMeters>
          </Trackpoint>
          <Trackpoint>
            <Time>2020-05-25T05:53:38.000Z</Time>
            <Position>
              <LatitudeDegrees>38.21216524578630924224853515625</LatitudeDegrees>
              <LongitudeDegrees>-1.16674256511032581329345703125</LongitudeDegrees>
            </Position>
            <AltitudeMeters>373.600006103515625</AltitudeMeters>
            <DistanceMeters>NAN</DistanceMeters>
          </Trackpoint>
          <Trackpoint>
            <Time>2020-05-25T05:53:39.000Z</Time>
            <Position>
              <LatitudeDegrees>38.21216524578630924224853515625</LatitudeDegrees>
              <LongitudeDegrees>-1.16674256511032581329345703125</LongitudeDegrees>
            </Position>
            <AltitudeMeters>373.79998779296875</AltitudeMeters>
            <DistanceMeters>NAN</DistanceMeters>
          </Trackpoint>
          <Trackpoint>
            <Time>2020-05-25T05:53:40.000Z</Time>
            <Position>
              <LatitudeDegrees>38.21220598183572292327880859375</LatitudeDegrees>
              <LongitudeDegrees>-1.16674491204321384429931640625</LongitudeDegrees>
            </Position>
            <AltitudeMeters>374</AltitudeMeters>
            <DistanceMeters>NAN</DistanceMeters>
          </Trackpoint>
          <Trackpoint>
            <Time>2020-05-25T05:53:41.000Z</Time>
            <Position>
              <LatitudeDegrees>38.2122474722564220428466796875</LatitudeDegrees>
              <LongitudeDegrees>-1.16674742661416530609130859375</LongitudeDegrees>
            </Position>
            <AltitudeMeters>374.20001220703125</AltitudeMeters>
            <DistanceMeters>NAN</DistanceMeters>
          </Trackpoint>
          <Trackpoint>
            <Time>2020-05-25T05:53:42.000Z</Time>
            <Position>
              <LatitudeDegrees>38.2123316265642642974853515625</LatitudeDegrees>
              <LongitudeDegrees>-1.166751869022846221923828125</LongitudeDegrees>
            </Position>
            <AltitudeMeters>374.399993896484375</AltitudeMeters>
            <DistanceMeters>NAN</DistanceMeters>
          </Trackpoint>
          <Trackpoint>
            <Time>2020-05-25T05:53:43.000Z</Time>
            <Position>
              <LatitudeDegrees>38.2123316265642642974853515625</LatitudeDegrees>
              <LongitudeDegrees>-1.166751869022846221923828125</LongitudeDegrees>
            </Position>
            <AltitudeMeters>374.600006103515625</AltitudeMeters>
            <DistanceMeters>NAN</DistanceMeters>
          </Trackpoint>
          <Trackpoint>
            <Time>2020-05-25T05:53:44.000Z</Time>
            <Position>
              <LatitudeDegrees>38.212414272129535675048828125</LatitudeDegrees>
              <LongitudeDegrees>-1.16674943827092647552490234375</LongitudeDegrees>
            </Position>
            <AltitudeMeters>374.79998779296875</AltitudeMeters>
            <DistanceMeters>NAN</DistanceMeters>
          </Trackpoint>
          <Trackpoint>
            <Time>2020-05-25T05:53:45.000Z</Time>
            <Position>
              <LatitudeDegrees>38.212414272129535675048828125</LatitudeDegrees>
              <LongitudeDegrees>-1.16674943827092647552490234375</LongitudeDegrees>
            </Position>
            <AltitudeMeters>375.20001220703125</AltitudeMeters>
            <DistanceMeters>NAN</DistanceMeters>
          </Trackpoint>
          <Trackpoint>
            <Time>2020-05-25T05:53:46.000Z</Time>
            <Position>
              <LatitudeDegrees>38.21245484054088592529296875</LatitudeDegrees>
              <LongitudeDegrees>-1.16674256511032581329345703125</LongitudeDegrees>
            </Position>
            <AltitudeMeters>375.600006103515625</AltitudeMeters>
            <DistanceMeters>NAN</DistanceMeters>
          </Trackpoint>
          <Trackpoint>
            <Time>2020-05-25T05:53:47.000Z</Time>
            <Position>
              <LatitudeDegrees>38.212495744228363037109375</LatitudeDegrees>
              <LongitudeDegrees>-1.1667366139590740203857421875</LongitudeDegrees>
            </Position>
            <AltitudeMeters>375.79998779296875</AltitudeMeters>
            <DistanceMeters>NAN</DistanceMeters>
          </Trackpoint>
          <Trackpoint>
            <Time>2020-05-25T05:53:48.000Z</Time>
            <Position>
              <LatitudeDegrees>38.21257746778428554534912109375</LatitudeDegrees>
              <LongitudeDegrees>-1.16672328673303127288818359375</LongitudeDegrees>
            </Position>
            <AltitudeMeters>376</AltitudeMeters>
            <DistanceMeters>NAN</DistanceMeters>
          </Trackpoint>
          <Trackpoint>
            <Time>2020-05-25T05:53:49.000Z</Time>
            <Position>
              <LatitudeDegrees>38.21257746778428554534912109375</LatitudeDegrees>
              <LongitudeDegrees>-1.16672328673303127288818359375</LongitudeDegrees>
            </Position>
            <AltitudeMeters>376.20001220703125</AltitudeMeters>
            <DistanceMeters>NAN</DistanceMeters>
          </Trackpoint>
          <Trackpoint>
            <Time>2020-05-25T05:53:50.000Z</Time>
            <Position>
              <LatitudeDegrees>38.2126551680266857147216796875</LatitudeDegrees>
              <LongitudeDegrees>-1.16669981740415096282958984375</LongitudeDegrees>
            </Position>
            <AltitudeMeters>376.399993896484375</AltitudeMeters>
            <DistanceMeters>NAN</DistanceMeters>
          </Trackpoint>
          <Trackpoint>
            <Time>2020-05-25T05:53:51.000Z</Time>
            <Position>
              <LatitudeDegrees>38.2126551680266857147216796875</LatitudeDegrees>
              <LongitudeDegrees>-1.16669981740415096282958984375</LongitudeDegrees>
            </Position>
            <AltitudeMeters>376.600006103515625</AltitudeMeters>
            <DistanceMeters>NAN</DistanceMeters>
          </Trackpoint>
          <Trackpoint>
            <Time>2020-05-25T05:53:52.000Z</Time>
            <Position>
              <LatitudeDegrees>38.21269355714321136474609375</LatitudeDegrees>
              <LongitudeDegrees>-1.16668514907360076904296875</LongitudeDegrees>
            </Position>
            <AltitudeMeters>376.600006103515625</AltitudeMeters>
            <DistanceMeters>NAN</DistanceMeters>
          </Trackpoint>
          <Trackpoint>
            <Time>2020-05-25T05:53:53.000Z</Time>
            <Position>
              <LatitudeDegrees>38.21273203007876873016357421875</LatitudeDegrees>
              <LongitudeDegrees>-1.1666688881814479827880859375</LongitudeDegrees>
            </Position>
            <AltitudeMeters>376.79998779296875</AltitudeMeters>
            <DistanceMeters>NAN</DistanceMeters>
          </Trackpoint>
          <Trackpoint>
            <Time>2020-05-25T05:53:54.000Z</Time>
            <Position>
              <LatitudeDegrees>38.212806880474090576171875</LatitudeDegrees>
              <LongitudeDegrees>-1.16663544438779354095458984375</LongitudeDegrees>
            </Position>
            <AltitudeMeters>377</AltitudeMeters>
            <DistanceMeters>NAN</DistanceMeters>
          </Trackpoint>
          <Trackpoint>
            <Time>2020-05-25T05:53:55.000Z</Time>
            <Position>
              <LatitudeDegrees>38.212806880474090576171875</LatitudeDegrees>
              <LongitudeDegrees>-1.16663544438779354095458984375</LongitudeDegrees>
            </Position>
            <AltitudeMeters>377</AltitudeMeters>
            <DistanceMeters>NAN</DistanceMeters>
          </Trackpoint>
          <Trackpoint>
            <Time>2020-05-25T05:53:56.000Z</Time>
            <Position>
              <LatitudeDegrees>38.212884999811649322509765625</LatitudeDegrees>
              <LongitudeDegrees>-1.16660359315574169158935546875</LongitudeDegrees>
            </Position>
            <AltitudeMeters>377.20001220703125</AltitudeMeters>
            <DistanceMeters>NAN</DistanceMeters>
          </Trackpoint>
          <Trackpoint>
            <Time>2020-05-25T05:53:57.000Z</Time>
            <Position>
              <LatitudeDegrees>38.212884999811649322509765625</LatitudeDegrees>
              <LongitudeDegrees>-1.16660359315574169158935546875</LongitudeDegrees>
            </Position>
            <AltitudeMeters>377.399993896484375</AltitudeMeters>
            <DistanceMeters>NAN</DistanceMeters>
          </Trackpoint>
          <Trackpoint>
            <Time>2020-05-25T05:53:58.000Z</Time>
            <Position>
              <LatitudeDegrees>38.212922550737857818603515625</LatitudeDegrees>
              <LongitudeDegrees>-1.16658582352101802825927734375</LongitudeDegrees>
            </Position>
            <AltitudeMeters>377.600006103515625</AltitudeMeters>
            <DistanceMeters>NAN</DistanceMeters>
          </Trackpoint>
          <Trackpoint>
            <Time>2020-05-25T05:53:59.000Z</Time>
            <Position>
              <LatitudeDegrees>38.212959431111812591552734375</LatitudeDegrees>
              <LongitudeDegrees>-1.1665696464478969573974609375</LongitudeDegrees>
            </Position>
            <AltitudeMeters>377.79998779296875</AltitudeMeters>
            <DistanceMeters>NAN</DistanceMeters>
          </Trackpoint>
          <Trackpoint>
            <Time>2020-05-25T05:54:00.000Z</Time>
            <Position>
              <LatitudeDegrees>38.21303998120129108428955078125</LatitudeDegrees>
              <LongitudeDegrees>-1.166548691689968109130859375</LongitudeDegrees>
            </Position>
            <AltitudeMeters>378</AltitudeMeters>
            <DistanceMeters>NAN</DistanceMeters>
          </Trackpoint>
          <Trackpoint>
            <Time>2020-05-25T05:54:01.000Z</Time>
            <Position>
              <LatitudeDegrees>38.21303998120129108428955078125</LatitudeDegrees>
              <LongitudeDegrees>-1.166548691689968109130859375</LongitudeDegrees>
            </Position>
            <AltitudeMeters>378.399993896484375</AltitudeMeters>
            <DistanceMeters>NAN</DistanceMeters>
          </Trackpoint>
          <Trackpoint>
            <Time>2020-05-25T05:54:02.000Z</Time>
            <Position>
              <LatitudeDegrees>38.2131238840520381927490234375</LatitudeDegrees>
              <LongitudeDegrees>-1.166548021137714385986328125</LongitudeDegrees>
            </Position>
            <AltitudeMeters>378.600006103515625</AltitudeMeters>
            <DistanceMeters>NAN</DistanceMeters>
          </Trackpoint>
          <Trackpoint>
            <Time>2020-05-25T05:54:03.000Z</Time>
            <Position>
              <LatitudeDegrees>38.2131238840520381927490234375</LatitudeDegrees>
              <LongitudeDegrees>-1.166548021137714385986328125</LongitudeDegrees>
            </Position>
            <AltitudeMeters>378.79998779296875</AltitudeMeters>
            <DistanceMeters>NAN</DistanceMeters>
          </Trackpoint>
          <Trackpoint>
            <Time>2020-05-25T05:54:04.000Z</Time>
            <Position>
              <LatitudeDegrees>38.21316621266305446624755859375</LatitudeDegrees>
              <LongitudeDegrees>-1.16655129007995128631591796875</LongitudeDegrees>
            </Position>
            <AltitudeMeters>379</AltitudeMeters>
            <DistanceMeters>NAN</DistanceMeters>
          </Trackpoint>
          <Trackpoint>
            <Time>2020-05-25T05:54:05.000Z</Time>
            <Position>
              <LatitudeDegrees>38.213208205997943878173828125</LatitudeDegrees>
              <LongitudeDegrees>-1.1665557324886322021484375</LongitudeDegrees>
            </Position>
            <AltitudeMeters>379</AltitudeMeters>
            <DistanceMeters>NAN</DistanceMeters>
          </Trackpoint>
          <Trackpoint>
            <Time>2020-05-25T05:54:06.000Z</Time>
            <Position>
              <LatitudeDegrees>38.2132928632199764251708984375</LatitudeDegrees>
              <LongitudeDegrees>-1.166574172675609588623046875</LongitudeDegrees>
            </Position>
            <AltitudeMeters>379</AltitudeMeters>
            <DistanceMeters>NAN</DistanceMeters>
          </Trackpoint>
          <Trackpoint>
            <Time>2020-05-25T05:54:07.000Z</Time>
            <Position>
              <LatitudeDegrees>38.2132928632199764251708984375</LatitudeDegrees>
              <LongitudeDegrees>-1.166574172675609588623046875</LongitudeDegrees>
            </Position>
            <AltitudeMeters>379.20001220703125</AltitudeMeters>
            <DistanceMeters>NAN</DistanceMeters>
          </Trackpoint>
          <Trackpoint>
            <Time>2020-05-25T05:54:08.000Z</Time>
            <Position>
              <LatitudeDegrees>38.2133768498897552490234375</LatitudeDegrees>
              <LongitudeDegrees>-1.16660258732736110687255859375</LongitudeDegrees>
            </Position>
            <AltitudeMeters>379.399993896484375</AltitudeMeters>
            <DistanceMeters>NAN</DistanceMeters>
          </Trackpoint>
          <Trackpoint>
            <Time>2020-05-25T05:54:09.000Z</Time>
            <Position>
              <LatitudeDegrees>38.2133768498897552490234375</LatitudeDegrees>
              <LongitudeDegrees>-1.16660258732736110687255859375</LongitudeDegrees>
            </Position>
            <AltitudeMeters>379.79998779296875</AltitudeMeters>
            <DistanceMeters>NAN</DistanceMeters>
          </Trackpoint>
          <Trackpoint>
            <Time>2020-05-25T05:54:10.000Z</Time>
            <Position>
              <LatitudeDegrees>38.21341901086270809173583984375</LatitudeDegrees>
              <LongitudeDegrees>-1.1666165851056575775146484375</LongitudeDegrees>
            </Position>
            <AltitudeMeters>380</AltitudeMeters>
            <DistanceMeters>NAN</DistanceMeters>
          </Trackpoint>
          <Trackpoint>
            <Time>2020-05-25T05:54:11.000Z</Time>
            <Position>
              <LatitudeDegrees>38.2134615071117877960205078125</LatitudeDegrees>
              <LongitudeDegrees>-1.166629828512668609619140625</LongitudeDegrees>
            </Position>
            <AltitudeMeters>380.20001220703125</AltitudeMeters>
            <DistanceMeters>NAN</DistanceMeters>
          </Trackpoint>
          <Trackpoint>
            <Time>2020-05-25T05:54:12.000Z</Time>
            <Position>
              <LatitudeDegrees>38.21354641579091548919677734375</LatitudeDegrees>
              <LongitudeDegrees>-1.166659332811832427978515625</LongitudeDegrees>
            </Position>
            <AltitudeMeters>380.20001220703125</AltitudeMeters>
            <DistanceMeters>NAN</DistanceMeters>
          </Trackpoint>
          <Trackpoint>
            <Time>2020-05-25T05:54:13.000Z</Time>
            <Position>
              <LatitudeDegrees>38.21354641579091548919677734375</LatitudeDegrees>
              <LongitudeDegrees>-1.166659332811832427978515625</LongitudeDegrees>
            </Position>
            <AltitudeMeters>380.20001220703125</AltitudeMeters>
            <DistanceMeters>NAN</DistanceMeters>
          </Trackpoint>
          <Trackpoint>
            <Time>2020-05-25T05:54:14.000Z</Time>
            <Position>
              <LatitudeDegrees>38.21362989954650402069091796875</LatitudeDegrees>
              <LongitudeDegrees>-1.16669462062418460845947265625</LongitudeDegrees>
            </Position>
            <AltitudeMeters>380.399993896484375</AltitudeMeters>
            <DistanceMeters>NAN</DistanceMeters>
          </Trackpoint>
          <Trackpoint>
            <Time>2020-05-25T05:54:15.000Z</Time>
            <Position>
              <LatitudeDegrees>38.21362989954650402069091796875</LatitudeDegrees>
              <LongitudeDegrees>-1.16669462062418460845947265625</LongitudeDegrees>
            </Position>
            <AltitudeMeters>380.600006103515625</AltitudeMeters>
            <DistanceMeters>NAN</DistanceMeters>
          </Trackpoint>
          <Trackpoint>
            <Time>2020-05-25T05:54:16.000Z</Time>
            <Position>
              <LatitudeDegrees>38.2136717252433300018310546875</LatitudeDegrees>
              <LongitudeDegrees>-1.1667114682495594024658203125</LongitudeDegrees>
            </Position>
            <AltitudeMeters>380.79998779296875</AltitudeMeters>
            <DistanceMeters>NAN</DistanceMeters>
          </Trackpoint>
          <Trackpoint>
            <Time>2020-05-25T05:54:17.000Z</Time>
            <Position>
              <LatitudeDegrees>38.21371438913047313690185546875</LatitudeDegrees>
              <LongitudeDegrees>-1.16672831587493419647216796875</LongitudeDegrees>
            </Position>
            <AltitudeMeters>381</AltitudeMeters>
            <DistanceMeters>NAN</DistanceMeters>
          </Trackpoint>
          <Trackpoint>
            <Time>2020-05-25T05:54:18.000Z</Time>
            <Position>
              <LatitudeDegrees>38.213798291981220245361328125</LatitudeDegrees>
              <LongitudeDegrees>-1.16676704026758670806884765625</LongitudeDegrees>
            </Position>
            <AltitudeMeters>381.20001220703125</AltitudeMeters>
            <DistanceMeters>NAN</DistanceMeters>
          </Trackpoint>
          <Trackpoint>
            <Time>2020-05-25T05:54:19.000Z</Time>
            <Position>
              <LatitudeDegrees>38.213798291981220245361328125</LatitudeDegrees>
              <LongitudeDegrees>-1.16676704026758670806884765625</LongitudeDegrees>
            </Position>
            <AltitudeMeters>381.399993896484375</AltitudeMeters>
            <DistanceMeters>NAN</DistanceMeters>
          </Trackpoint>
          <Trackpoint>
            <Time>2020-05-25T05:54:20.000Z</Time>
            <Position>
              <LatitudeDegrees>38.213881440460681915283203125</LatitudeDegrees>
              <LongitudeDegrees>-1.1668026633560657501220703125</LongitudeDegrees>
            </Position>
            <AltitudeMeters>381.600006103515625</AltitudeMeters>
            <DistanceMeters>NAN</DistanceMeters>
          </Trackpoint>
          <Trackpoint>
            <Time>2020-05-25T05:54:21.000Z</Time>
            <Position>
              <LatitudeDegrees>38.213881440460681915283203125</LatitudeDegrees>
              <LongitudeDegrees>-1.1668026633560657501220703125</LongitudeDegrees>
            </Position>
            <AltitudeMeters>381.79998779296875</AltitudeMeters>
            <DistanceMeters>NAN</DistanceMeters>
          </Trackpoint>
          <Trackpoint>
            <Time>2020-05-25T05:54:22.000Z</Time>
            <Position>
              <LatitudeDegrees>38.21392293088138103485107421875</LatitudeDegrees>
              <LongitudeDegrees>-1.16681984625756740570068359375</LongitudeDegrees>
            </Position>
            <AltitudeMeters>381.79998779296875</AltitudeMeters>
            <DistanceMeters>NAN</DistanceMeters>
          </Trackpoint>
          <Trackpoint>
            <Time>2020-05-25T05:54:23.000Z</Time>
            <Position>
              <LatitudeDegrees>38.21396400220692157745361328125</LatitudeDegrees>
              <LongitudeDegrees>-1.166838705539703369140625</LongitudeDegrees>
            </Position>
            <AltitudeMeters>382</AltitudeMeters>
            <DistanceMeters>NAN</DistanceMeters>
          </Trackpoint>
          <Trackpoint>
            <Time>2020-05-25T05:54:24.000Z</Time>
            <Position>
              <LatitudeDegrees>38.214044384658336639404296875</LatitudeDegrees>
              <LongitudeDegrees>-1.16687885485589504241943359375</LongitudeDegrees>
            </Position>
            <AltitudeMeters>382.20001220703125</AltitudeMeters>
            <DistanceMeters>NAN</DistanceMeters>
          </Trackpoint>
          <Trackpoint>
            <Time>2020-05-25T05:54:25.000Z</Time>
            <Position>
              <LatitudeDegrees>38.214044384658336639404296875</LatitudeDegrees>
              <LongitudeDegrees>-1.16687885485589504241943359375</LongitudeDegrees>
            </Position>
            <AltitudeMeters>382.20001220703125</AltitudeMeters>
            <DistanceMeters>NAN</DistanceMeters>
          </Trackpoint>
          <Trackpoint>
            <Time>2020-05-25T05:54:26.000Z</Time>
            <Position>
              <LatitudeDegrees>38.214124850928783416748046875</LatitudeDegrees>
              <LongitudeDegrees>-1.16691581904888153076171875</LongitudeDegrees>
            </Position>
            <AltitudeMeters>382.399993896484375</AltitudeMeters>
            <DistanceMeters>NAN</DistanceMeters>
          </Trackpoint>
          <Trackpoint>
            <Time>2020-05-25T05:54:27.000Z</Time>
            <Position>
              <LatitudeDegrees>38.214124850928783416748046875</LatitudeDegrees>
              <LongitudeDegrees>-1.16691581904888153076171875</LongitudeDegrees>
            </Position>
            <AltitudeMeters>382.600006103515625</AltitudeMeters>
            <DistanceMeters>NAN</DistanceMeters>
          </Trackpoint>
          <Trackpoint>
            <Time>2020-05-25T05:54:28.000Z</Time>
            <Position>
              <LatitudeDegrees>38.2141652517020702362060546875</LatitudeDegrees>
              <LongitudeDegrees>-1.16693350486457347869873046875</LongitudeDegrees>
            </Position>
            <AltitudeMeters>382.79998779296875</AltitudeMeters>
            <DistanceMeters>NAN</DistanceMeters>
          </Trackpoint>
          <Trackpoint>
            <Time>2020-05-25T05:54:29.000Z</Time>
            <Position>
              <LatitudeDegrees>38.21420540101826190948486328125</LatitudeDegrees>
              <LongitudeDegrees>-1.16695177741348743438720703125</LongitudeDegrees>
            </Position>
            <AltitudeMeters>383</AltitudeMeters>
            <DistanceMeters>NAN</DistanceMeters>
          </Trackpoint>
          <Trackpoint>
            <Time>2020-05-25T05:54:30.000Z</Time>
            <Position>
              <LatitudeDegrees>38.2142450474202632904052734375</LatitudeDegrees>
              <LongitudeDegrees>-1.16697080433368682861328125</LongitudeDegrees>
            </Position>
            <AltitudeMeters>383</AltitudeMeters>
            <DistanceMeters>NAN</DistanceMeters>
          </Trackpoint>
          <Trackpoint>
            <Time>2020-05-25T05:54:31.000Z</Time>
            <Position>
              <LatitudeDegrees>38.21428352035582065582275390625</LatitudeDegrees>
              <LongitudeDegrees>-1.16698932833969593048095703125</LongitudeDegrees>
            </Position>
            <AltitudeMeters>383.20001220703125</AltitudeMeters>
            <DistanceMeters>NAN</DistanceMeters>
          </Trackpoint>
          <Trackpoint>
            <Time>2020-05-25T05:54:32.000Z</Time>
            <Position>
              <LatitudeDegrees>38.21432190947234630584716796875</LatitudeDegrees>
              <LongitudeDegrees>-1.16700625978410243988037109375</LongitudeDegrees>
            </Position>
            <AltitudeMeters>383.20001220703125</AltitudeMeters>
            <DistanceMeters>NAN</DistanceMeters>
          </Trackpoint>
          <Trackpoint>
            <Time>2020-05-25T05:54:33.000Z</Time>
            <Position>
              <LatitudeDegrees>38.21436055004596710205078125</LatitudeDegrees>
              <LongitudeDegrees>-1.16702134720981121063232421875</LongitudeDegrees>
            </Position>
            <AltitudeMeters>383.399993896484375</AltitudeMeters>
            <DistanceMeters>NAN</DistanceMeters>
          </Trackpoint>
          <Trackpoint>
            <Time>2020-05-25T05:54:34.000Z</Time>
            <Position>
              <LatitudeDegrees>38.21439902298152446746826171875</LatitudeDegrees>
              <LongitudeDegrees>-1.1670346744358539581298828125</LongitudeDegrees>
            </Position>
            <AltitudeMeters>383.600006103515625</AltitudeMeters>
            <DistanceMeters>NAN</DistanceMeters>
          </Trackpoint>
          <Trackpoint>
            <Time>2020-05-25T05:54:35.000Z</Time>
            <Position>
              <LatitudeDegrees>38.21443707682192325592041015625</LatitudeDegrees>
              <LongitudeDegrees>-1.16704716347157955169677734375</LongitudeDegrees>
            </Position>
            <AltitudeMeters>383.79998779296875</AltitudeMeters>
            <DistanceMeters>NAN</DistanceMeters>
          </Trackpoint>
          <Trackpoint>
            <Time>2020-05-25T05:54:36.000Z</Time>
            <Position>
              <LatitudeDegrees>38.21451268158853054046630859375</LatitudeDegrees>
              <LongitudeDegrees>-1.16707297973334789276123046875</LongitudeDegrees>
            </Position>
            <AltitudeMeters>383.79998779296875</AltitudeMeters>
            <DistanceMeters>NAN</DistanceMeters>
          </Trackpoint>
          <Trackpoint>
            <Time>2020-05-25T05:54:37.000Z</Time>
            <Position>
              <LatitudeDegrees>38.21451268158853054046630859375</LatitudeDegrees>
              <LongitudeDegrees>-1.16707297973334789276123046875</LongitudeDegrees>
            </Position>
            <AltitudeMeters>384</AltitudeMeters>
            <DistanceMeters>NAN</DistanceMeters>
          </Trackpoint>
          <Trackpoint>
            <Time>2020-05-25T05:54:38.000Z</Time>
            <Position>
              <LatitudeDegrees>38.21458845399320125579833984375</LatitudeDegrees>
              <LongitudeDegrees>-1.167095862329006195068359375</LongitudeDegrees>
            </Position>
            <AltitudeMeters>384.20001220703125</AltitudeMeters>
            <DistanceMeters>NAN</DistanceMeters>
          </Trackpoint>
          <Trackpoint>
            <Time>2020-05-25T05:54:39.000Z</Time>
            <Position>
              <LatitudeDegrees>38.21458845399320125579833984375</LatitudeDegrees>
              <LongitudeDegrees>-1.167095862329006195068359375</LongitudeDegrees>
            </Position>
            <AltitudeMeters>384.20001220703125</AltitudeMeters>
            <DistanceMeters>NAN</DistanceMeters>
          </Trackpoint>
          <Trackpoint>
            <Time>2020-05-25T05:54:40.000Z</Time>
            <Position>
              <LatitudeDegrees>38.21462617255747318267822265625</LatitudeDegrees>
              <LongitudeDegrees>-1.16710801608860492706298828125</LongitudeDegrees>
            </Position>
            <AltitudeMeters>384.399993896484375</AltitudeMeters>
            <DistanceMeters>NAN</DistanceMeters>
          </Trackpoint>
          <Trackpoint>
            <Time>2020-05-25T05:54:41.000Z</Time>
            <Position>
              <LatitudeDegrees>38.2146638073027133941650390625</LatitudeDegrees>
              <LongitudeDegrees>-1.16712159477174282073974609375</LongitudeDegrees>
            </Position>
            <AltitudeMeters>384.600006103515625</AltitudeMeters>
            <DistanceMeters>NAN</DistanceMeters>
          </Trackpoint>
          <Trackpoint>
            <Time>2020-05-25T05:54:42.000Z</Time>
            <Position>
              <LatitudeDegrees>38.21473916061222553253173828125</LatitudeDegrees>
              <LongitudeDegrees>-1.16714741103351116180419921875</LongitudeDegrees>
            </Position>
            <AltitudeMeters>385.20001220703125</AltitudeMeters>
            <DistanceMeters>NAN</DistanceMeters>
          </Trackpoint>
          <Trackpoint>
            <Time>2020-05-25T05:54:43.000Z</Time>
            <Position>
              <LatitudeDegrees>38.21473916061222553253173828125</LatitudeDegrees>
              <LongitudeDegrees>-1.16714741103351116180419921875</LongitudeDegrees>
            </Position>
            <AltitudeMeters>385.399993896484375</AltitudeMeters>
            <DistanceMeters>NAN</DistanceMeters>
          </Trackpoint>
          <Trackpoint>
            <Time>2020-05-25T05:54:44.000Z</Time>
            <Position>
              <LatitudeDegrees>38.21481476537883281707763671875</LatitudeDegrees>
              <LongitudeDegrees>-1.16717322729527950286865234375</LongitudeDegrees>
            </Position>
            <AltitudeMeters>385.600006103515625</AltitudeMeters>
            <DistanceMeters>NAN</DistanceMeters>
          </Trackpoint>
          <Trackpoint>
            <Time>2020-05-25T05:54:45.000Z</Time>
            <Position>
              <LatitudeDegrees>38.21481476537883281707763671875</LatitudeDegrees>
              <LongitudeDegrees>-1.16717322729527950286865234375</LongitudeDegrees>
            </Position>
            <AltitudeMeters>385.79998779296875</AltitudeMeters>
            <DistanceMeters>NAN</DistanceMeters>
          </Trackpoint>
          <Trackpoint>
            <Time>2020-05-25T05:54:46.000Z</Time>
            <Position>
              <LatitudeDegrees>38.21485097520053386688232421875</LatitudeDegrees>
              <LongitudeDegrees>-1.16718781180679798126220703125</LongitudeDegrees>
            </Position>
            <AltitudeMeters>386</AltitudeMeters>
            <DistanceMeters>NAN</DistanceMeters>
          </Trackpoint>
          <Trackpoint>
            <Time>2020-05-25T05:54:47.000Z</Time>
            <Position>
              <LatitudeDegrees>38.21488718502223491668701171875</LatitudeDegrees>
              <LongitudeDegrees>-1.16720206104218959808349609375</LongitudeDegrees>
            </Position>
            <AltitudeMeters>386.399993896484375</AltitudeMeters>
            <DistanceMeters>NAN</DistanceMeters>
          </Trackpoint>
          <Trackpoint>
            <Time>2020-05-25T05:54:48.000Z</Time>
            <Position>
              <LatitudeDegrees>38.214959017932415008544921875</LatitudeDegrees>
              <LongitudeDegrees>-1.167226620018482208251953125</LongitudeDegrees>
            </Position>
            <AltitudeMeters>386.399993896484375</AltitudeMeters>
            <DistanceMeters>NAN</DistanceMeters>
          </Trackpoint>
          <Trackpoint>
            <Time>2020-05-25T05:54:49.000Z</Time>
            <Position>
              <LatitudeDegrees>38.214959017932415008544921875</LatitudeDegrees>
              <LongitudeDegrees>-1.167226620018482208251953125</LongitudeDegrees>
            </Position>
            <AltitudeMeters>386.600006103515625</AltitudeMeters>
            <DistanceMeters>NAN</DistanceMeters>
          </Trackpoint>
          <Trackpoint>
            <Time>2020-05-25T05:54:50.000Z</Time>
            <Position>
              <LatitudeDegrees>38.21503244340419769287109375</LatitudeDegrees>
              <LongitudeDegrees>-1.1672492511570453643798828125</LongitudeDegrees>
            </Position>
            <AltitudeMeters>386.600006103515625</AltitudeMeters>
            <DistanceMeters>NAN</DistanceMeters>
          </Trackpoint>
          <Trackpoint>
            <Time>2020-05-25T05:54:51.000Z</Time>
            <Position>
              <LatitudeDegrees>38.21503244340419769287109375</LatitudeDegrees>
              <LongitudeDegrees>-1.1672492511570453643798828125</LongitudeDegrees>
            </Position>
            <AltitudeMeters>386.79998779296875</AltitudeMeters>
            <DistanceMeters>NAN</DistanceMeters>
          </Trackpoint>
          <Trackpoint>
            <Time>2020-05-25T05:54:52.000Z</Time>
            <Position>
              <LatitudeDegrees>38.21506957523524761199951171875</LatitudeDegrees>
              <LongitudeDegrees>-1.1672606505453586578369140625</LongitudeDegrees>
            </Position>
            <AltitudeMeters>387.20001220703125</AltitudeMeters>
            <DistanceMeters>NAN</DistanceMeters>
          </Trackpoint>
          <Trackpoint>
            <Time>2020-05-25T05:54:53.000Z</Time>
            <Position>
              <LatitudeDegrees>38.2151068747043609619140625</LatitudeDegrees>
              <LongitudeDegrees>-1.167274899780750274658203125</LongitudeDegrees>
            </Position>
            <AltitudeMeters>387.399993896484375</AltitudeMeters>
            <DistanceMeters>NAN</DistanceMeters>
          </Trackpoint>
          <Trackpoint>
            <Time>2020-05-25T05:54:54.000Z</Time>
            <Position>
              <LatitudeDegrees>38.21518130600452423095703125</LatitudeDegrees>
              <LongitudeDegrees>-1.16730851121246814727783203125</LongitudeDegrees>
            </Position>
            <AltitudeMeters>387.79998779296875</AltitudeMeters>
            <DistanceMeters>NAN</DistanceMeters>
          </Trackpoint>
          <Trackpoint>
            <Time>2020-05-25T05:54:55.000Z</Time>
            <Position>
              <LatitudeDegrees>38.21518130600452423095703125</LatitudeDegrees>
              <LongitudeDegrees>-1.16730851121246814727783203125</LongitudeDegrees>
            </Position>
            <AltitudeMeters>388</AltitudeMeters>
            <DistanceMeters>NAN</DistanceMeters>
          </Trackpoint>
          <Trackpoint>
            <Time>2020-05-25T05:54:56.000Z</Time>
            <Position>
              <LatitudeDegrees>38.21525833569467067718505859375</LatitudeDegrees>
              <LongitudeDegrees>-1.167335920035839080810546875</LongitudeDegrees>
            </Position>
            <AltitudeMeters>388.20001220703125</AltitudeMeters>
            <DistanceMeters>NAN</DistanceMeters>
          </Trackpoint>
          <Trackpoint>
            <Time>2020-05-25T05:54:57.000Z</Time>
            <Position>
              <LatitudeDegrees>38.21525833569467067718505859375</LatitudeDegrees>
              <LongitudeDegrees>-1.167335920035839080810546875</LongitudeDegrees>
            </Position>
            <AltitudeMeters>388.20001220703125</AltitudeMeters>
            <DistanceMeters>NAN</DistanceMeters>
          </Trackpoint>
          <Trackpoint>
            <Time>2020-05-25T05:54:58.000Z</Time>
            <Position>
              <LatitudeDegrees>38.21529655717313289642333984375</LatitudeDegrees>
              <LongitudeDegrees>-1.16734975017607212066650390625</LongitudeDegrees>
            </Position>
            <AltitudeMeters>388.399993896484375</AltitudeMeters>
            <DistanceMeters>NAN</DistanceMeters>
          </Trackpoint>
          <Trackpoint>
            <Time>2020-05-25T05:54:59.000Z</Time>
            <Position>
              <LatitudeDegrees>38.21533461101353168487548828125</LatitudeDegrees>
              <LongitudeDegrees>-1.16736584343016147613525390625</LongitudeDegrees>
            </Position>
            <AltitudeMeters>388.600006103515625</AltitudeMeters>
            <DistanceMeters>NAN</DistanceMeters>
          </Trackpoint>
          <Trackpoint>
            <Time>2020-05-25T05:55:00.000Z</Time>
            <Position>
              <LatitudeDegrees>38.21541222743690013885498046875</LatitudeDegrees>
              <LongitudeDegrees>-1.16740205325186252593994140625</LongitudeDegrees>
            </Position>
            <AltitudeMeters>388.79998779296875</AltitudeMeters>
            <DistanceMeters>NAN</DistanceMeters>
          </Trackpoint>
          <Trackpoint>
            <Time>2020-05-25T05:55:01.000Z</Time>
            <Position>
              <LatitudeDegrees>38.21541222743690013885498046875</LatitudeDegrees>
              <LongitudeDegrees>-1.16740205325186252593994140625</LongitudeDegrees>
            </Position>
            <AltitudeMeters>389</AltitudeMeters>
            <DistanceMeters>NAN</DistanceMeters>
          </Trackpoint>
          <Trackpoint>
            <Time>2020-05-25T05:55:02.000Z</Time>
            <Position>
              <LatitudeDegrees>38.21548976004123687744140625</LatitudeDegrees>
              <LongitudeDegrees>-1.16744161583483219146728515625</LongitudeDegrees>
            </Position>
            <AltitudeMeters>389.20001220703125</AltitudeMeters>
            <DistanceMeters>NAN</DistanceMeters>
          </Trackpoint>
          <Trackpoint>
            <Time>2020-05-25T05:55:03.000Z</Time>
            <Position>
              <LatitudeDegrees>38.21548976004123687744140625</LatitudeDegrees>
              <LongitudeDegrees>-1.16744161583483219146728515625</LongitudeDegrees>
            </Position>
            <AltitudeMeters>389.399993896484375</AltitudeMeters>
            <DistanceMeters>NAN</DistanceMeters>
          </Trackpoint>
          <Trackpoint>
            <Time>2020-05-25T05:55:04.000Z</Time>
            <Position>
              <LatitudeDegrees>38.2155279815196990966796875</LatitudeDegrees>
              <LongitudeDegrees>-1.1674624867737293243408203125</LongitudeDegrees>
            </Position>
            <AltitudeMeters>389.600006103515625</AltitudeMeters>
            <DistanceMeters>NAN</DistanceMeters>
          </Trackpoint>
          <Trackpoint>
            <Time>2020-05-25T05:55:05.000Z</Time>
            <Position>
              <LatitudeDegrees>38.2155657000839710235595703125</LatitudeDegrees>
              <LongitudeDegrees>-1.16748319007456302642822265625</LongitudeDegrees>
            </Position>
            <AltitudeMeters>389.79998779296875</AltitudeMeters>
            <DistanceMeters>NAN</DistanceMeters>
          </Trackpoint>
          <Trackpoint>
            <Time>2020-05-25T05:55:06.000Z</Time>
            <Position>
              <LatitudeDegrees>38.215639293193817138671875</LatitudeDegrees>
              <LongitudeDegrees>-1.167533062398433685302734375</LongitudeDegrees>
            </Position>
            <AltitudeMeters>389.79998779296875</AltitudeMeters>
            <DistanceMeters>NAN</DistanceMeters>
          </Trackpoint>
          <Trackpoint>
            <Time>2020-05-25T05:55:07.000Z</Time>
            <Position>
              <LatitudeDegrees>38.215639293193817138671875</LatitudeDegrees>
              <LongitudeDegrees>-1.167533062398433685302734375</LongitudeDegrees>
            </Position>
            <AltitudeMeters>390</AltitudeMeters>
            <DistanceMeters>NAN</DistanceMeters>
          </Trackpoint>
          <Trackpoint>
            <Time>2020-05-25T05:55:08.000Z</Time>
            <Position>
              <LatitudeDegrees>38.21571028791368007659912109375</LatitudeDegrees>
              <LongitudeDegrees>-1.16758544929325580596923828125</LongitudeDegrees>
            </Position>
            <AltitudeMeters>390.20001220703125</AltitudeMeters>
            <DistanceMeters>NAN</DistanceMeters>
          </Trackpoint>
          <Trackpoint>
            <Time>2020-05-25T05:55:09.000Z</Time>
            <Position>
              <LatitudeDegrees>38.21571028791368007659912109375</LatitudeDegrees>
              <LongitudeDegrees>-1.16758544929325580596923828125</LongitudeDegrees>
            </Position>
            <AltitudeMeters>390.79998779296875</AltitudeMeters>
            <DistanceMeters>NAN</DistanceMeters>
          </Trackpoint>
          <Trackpoint>
            <Time>2020-05-25T05:55:10.000Z</Time>
            <Position>
              <LatitudeDegrees>38.215744234621524810791015625</LatitudeDegrees>
              <LongitudeDegrees>-1.1676126904785633087158203125</LongitudeDegrees>
            </Position>
            <AltitudeMeters>391</AltitudeMeters>
            <DistanceMeters>NAN</DistanceMeters>
          </Trackpoint>
          <Trackpoint>
            <Time>2020-05-25T05:55:11.000Z</Time>
            <Position>
              <LatitudeDegrees>38.21577809751033782958984375</LatitudeDegrees>
              <LongitudeDegrees>-1.16764110513031482696533203125</LongitudeDegrees>
            </Position>
            <AltitudeMeters>391.20001220703125</AltitudeMeters>
            <DistanceMeters>NAN</DistanceMeters>
          </Trackpoint>
          <Trackpoint>
            <Time>2020-05-25T05:55:12.000Z</Time>
            <Position>
              <LatitudeDegrees>38.21584523655474185943603515625</LatitudeDegrees>
              <LongitudeDegrees>-1.16770170629024505615234375</LongitudeDegrees>
            </Position>
            <AltitudeMeters>391.20001220703125</AltitudeMeters>
            <DistanceMeters>NAN</DistanceMeters>
          </Trackpoint>
          <Trackpoint>
            <Time>2020-05-25T05:55:13.000Z</Time>
            <Position>
              <LatitudeDegrees>38.21584523655474185943603515625</LatitudeDegrees>
              <LongitudeDegrees>-1.16770170629024505615234375</LongitudeDegrees>
            </Position>
            <AltitudeMeters>391.399993896484375</AltitudeMeters>
            <DistanceMeters>NAN</DistanceMeters>
          </Trackpoint>
          <Trackpoint>
            <Time>2020-05-25T05:55:14.000Z</Time>
            <Position>
              <LatitudeDegrees>38.2159093581140041351318359375</LatitudeDegrees>
              <LongitudeDegrees>-1.167769096791744232177734375</LongitudeDegrees>
            </Position>
            <AltitudeMeters>391.399993896484375</AltitudeMeters>
            <DistanceMeters>NAN</DistanceMeters>
          </Trackpoint>
          <Trackpoint>
            <Time>2020-05-25T05:55:15.000Z</Time>
            <Position>
              <LatitudeDegrees>38.2159093581140041351318359375</LatitudeDegrees>
              <LongitudeDegrees>-1.167769096791744232177734375</LongitudeDegrees>
            </Position>
            <AltitudeMeters>391.600006103515625</AltitudeMeters>
            <DistanceMeters>NAN</DistanceMeters>
          </Trackpoint>
          <Trackpoint>
            <Time>2020-05-25T05:55:16.000Z</Time>
            <Position>
              <LatitudeDegrees>38.2159405387938022613525390625</LatitudeDegrees>
              <LongitudeDegrees>-1.16780371405184268951416015625</LongitudeDegrees>
            </Position>
            <AltitudeMeters>391.79998779296875</AltitudeMeters>
            <DistanceMeters>NAN</DistanceMeters>
          </Trackpoint>
          <Trackpoint>
            <Time>2020-05-25T05:55:17.000Z</Time>
            <Position>
              <LatitudeDegrees>38.21597146801650524139404296875</LatitudeDegrees>
              <LongitudeDegrees>-1.1678378283977508544921875</LongitudeDegrees>
            </Position>
            <AltitudeMeters>392</AltitudeMeters>
            <DistanceMeters>NAN</DistanceMeters>
          </Trackpoint>
          <Trackpoint>
            <Time>2020-05-25T05:55:18.000Z</Time>
            <Position>
              <LatitudeDegrees>38.216032572090625762939453125</LatitudeDegrees>
              <LongitudeDegrees>-1.167905889451503753662109375</LongitudeDegrees>
            </Position>
            <AltitudeMeters>392.20001220703125</AltitudeMeters>
            <DistanceMeters>NAN</DistanceMeters>
          </Trackpoint>
          <Trackpoint>
            <Time>2020-05-25T05:55:19.000Z</Time>
            <Position>
              <LatitudeDegrees>38.216032572090625762939453125</LatitudeDegrees>
              <LongitudeDegrees>-1.167905889451503753662109375</LongitudeDegrees>
            </Position>
            <AltitudeMeters>392.20001220703125</AltitudeMeters>
            <DistanceMeters>NAN</DistanceMeters>
          </Trackpoint>
          <Trackpoint>
            <Time>2020-05-25T05:55:20.000Z</Time>
            <Position>
              <LatitudeDegrees>38.21606316603720188140869140625</LatitudeDegrees>
              <LongitudeDegrees>-1.16794100962579250335693359375</LongitudeDegrees>
            </Position>
            <AltitudeMeters>392.399993896484375</AltitudeMeters>
            <DistanceMeters>NAN</DistanceMeters>
          </Trackpoint>
          <Trackpoint>
            <Time>2020-05-25T05:55:21.000Z</Time>
            <Position>
              <LatitudeDegrees>38.21609325706958770751953125</LatitudeDegrees>
              <LongitudeDegrees>-1.16797671653330326080322265625</LongitudeDegrees>
            </Position>
            <AltitudeMeters>392.600006103515625</AltitudeMeters>
            <DistanceMeters>NAN</DistanceMeters>
          </Trackpoint>
          <Trackpoint>
            <Time>2020-05-25T05:55:22.000Z</Time>
            <Position>
              <LatitudeDegrees>38.2161222584545612335205078125</LatitudeDegrees>
              <LongitudeDegrees>-1.16801376454532146453857421875</LongitudeDegrees>
            </Position>
            <AltitudeMeters>392.79998779296875</AltitudeMeters>
            <DistanceMeters>NAN</DistanceMeters>
          </Trackpoint>
          <Trackpoint>
            <Time>2020-05-25T05:55:23.000Z</Time>
            <Position>
              <LatitudeDegrees>38.21615033783018589019775390625</LatitudeDegrees>
              <LongitudeDegrees>-1.1680497229099273681640625</LongitudeDegrees>
            </Position>
            <AltitudeMeters>393</AltitudeMeters>
            <DistanceMeters>NAN</DistanceMeters>
          </Trackpoint>
          <Trackpoint>
            <Time>2020-05-25T05:55:24.000Z</Time>
            <Position>
              <LatitudeDegrees>38.21620901115238666534423828125</LatitudeDegrees>
              <LongitudeDegrees>-1.16811878979206085205078125</LongitudeDegrees>
            </Position>
            <AltitudeMeters>393.20001220703125</AltitudeMeters>
            <DistanceMeters>NAN</DistanceMeters>
          </Trackpoint>
          <Trackpoint>
            <Time>2020-05-25T05:55:25.000Z</Time>
            <Position>
              <LatitudeDegrees>38.21620901115238666534423828125</LatitudeDegrees>
              <LongitudeDegrees>-1.16811878979206085205078125</LongitudeDegrees>
            </Position>
            <AltitudeMeters>393.399993896484375</AltitudeMeters>
            <DistanceMeters>NAN</DistanceMeters>
          </Trackpoint>
          <Trackpoint>
            <Time>2020-05-25T05:55:26.000Z</Time>
            <Position>
              <LatitudeDegrees>38.21626961231231689453125</LatitudeDegrees>
              <LongitudeDegrees>-1.16818777285516262054443359375</LongitudeDegrees>
            </Position>
            <AltitudeMeters>393.399993896484375</AltitudeMeters>
            <DistanceMeters>NAN</DistanceMeters>
          </Trackpoint>
          <Trackpoint>
            <Time>2020-05-25T05:55:27.000Z</Time>
            <Position>
              <LatitudeDegrees>38.21626961231231689453125</LatitudeDegrees>
              <LongitudeDegrees>-1.16818777285516262054443359375</LongitudeDegrees>
            </Position>
            <AltitudeMeters>393.600006103515625</AltitudeMeters>
            <DistanceMeters>NAN</DistanceMeters>
          </Trackpoint>
          <Trackpoint>
            <Time>2020-05-25T05:55:28.000Z</Time>
            <Position>
              <LatitudeDegrees>38.216300122439861297607421875</LatitudeDegrees>
              <LongitudeDegrees>-1.168223060667514801025390625</LongitudeDegrees>
            </Position>
            <AltitudeMeters>393.600006103515625</AltitudeMeters>
            <DistanceMeters>NAN</DistanceMeters>
          </Trackpoint>
          <Trackpoint>
            <Time>2020-05-25T05:55:29.000Z</Time>
            <Position>
              <LatitudeDegrees>38.21633088402450084686279296875</LatitudeDegrees>
              <LongitudeDegrees>-1.1682587675750255584716796875</LongitudeDegrees>
            </Position>
            <AltitudeMeters>393.79998779296875</AltitudeMeters>
            <DistanceMeters>NAN</DistanceMeters>
          </Trackpoint>
          <Trackpoint>
            <Time>2020-05-25T05:55:30.000Z</Time>
            <Position>
              <LatitudeDegrees>38.2163924910128116607666015625</LatitudeDegrees>
              <LongitudeDegrees>-1.16833294741809368133544921875</LongitudeDegrees>
            </Position>
            <AltitudeMeters>394</AltitudeMeters>
            <DistanceMeters>NAN</DistanceMeters>
          </Trackpoint>
          <Trackpoint>
            <Time>2020-05-25T05:55:31.000Z</Time>
            <Position>
              <LatitudeDegrees>38.2163924910128116607666015625</LatitudeDegrees>
              <LongitudeDegrees>-1.16833294741809368133544921875</LongitudeDegrees>
            </Position>
            <AltitudeMeters>394.20001220703125</AltitudeMeters>
            <DistanceMeters>NAN</DistanceMeters>
          </Trackpoint>
          <Trackpoint>
            <Time>2020-05-25T05:55:32.000Z</Time>
            <Position>
              <LatitudeDegrees>38.21645409800112247467041015625</LatitudeDegrees>
              <LongitudeDegrees>-1.16840980947017669677734375</LongitudeDegrees>
            </Position>
            <AltitudeMeters>394.20001220703125</AltitudeMeters>
            <DistanceMeters>NAN</DistanceMeters>
          </Trackpoint>
          <Trackpoint>
            <Time>2020-05-25T05:55:33.000Z</Time>
            <Position>
              <LatitudeDegrees>38.21645409800112247467041015625</LatitudeDegrees>
              <LongitudeDegrees>-1.16840980947017669677734375</LongitudeDegrees>
            </Position>
            <AltitudeMeters>394.399993896484375</AltitudeMeters>
            <DistanceMeters>NAN</DistanceMeters>
          </Trackpoint>
          <Trackpoint>
            <Time>2020-05-25T05:55:34.000Z</Time>
            <Position>
              <LatitudeDegrees>38.21648444049060344696044921875</LatitudeDegrees>
              <LongitudeDegrees>-1.16844979114830493927001953125</LongitudeDegrees>
            </Position>
            <AltitudeMeters>394.600006103515625</AltitudeMeters>
            <DistanceMeters>NAN</DistanceMeters>
          </Trackpoint>
          <Trackpoint>
            <Time>2020-05-25T05:55:35.000Z</Time>
            <Position>
              <LatitudeDegrees>38.21651595644652843475341796875</LatitudeDegrees>
              <LongitudeDegrees>-1.168489269912242889404296875</LongitudeDegrees>
            </Position>
            <AltitudeMeters>394.600006103515625</AltitudeMeters>
            <DistanceMeters>NAN</DistanceMeters>
          </Trackpoint>
          <Trackpoint>
            <Time>2020-05-25T05:55:36.000Z</Time>
            <Position>
              <LatitudeDegrees>38.2165829278528690338134765625</LatitudeDegrees>
              <LongitudeDegrees>-1.168565042316913604736328125</LongitudeDegrees>
            </Position>
            <AltitudeMeters>394.79998779296875</AltitudeMeters>
            <DistanceMeters>NAN</DistanceMeters>
          </Trackpoint>
          <Trackpoint>
            <Time>2020-05-25T05:55:37.000Z</Time>
            <Position>
              <LatitudeDegrees>38.2165829278528690338134765625</LatitudeDegrees>
              <LongitudeDegrees>-1.168565042316913604736328125</LongitudeDegrees>
            </Position>
            <AltitudeMeters>395.399993896484375</AltitudeMeters>
            <DistanceMeters>NAN</DistanceMeters>
          </Trackpoint>
          <Trackpoint>
            <Time>2020-05-25T05:55:38.000Z</Time>
            <Position>
              <LatitudeDegrees>38.216650821268558502197265625</LatitudeDegrees>
              <LongitudeDegrees>-1.16864207200706005096435546875</LongitudeDegrees>
            </Position>
            <AltitudeMeters>395.399993896484375</AltitudeMeters>
            <DistanceMeters>NAN</DistanceMeters>
          </Trackpoint>
          <Trackpoint>
            <Time>2020-05-25T05:55:39.000Z</Time>
            <Position>
              <LatitudeDegrees>38.216650821268558502197265625</LatitudeDegrees>
              <LongitudeDegrees>-1.16864207200706005096435546875</LongitudeDegrees>
            </Position>
            <AltitudeMeters>395.600006103515625</AltitudeMeters>
            <DistanceMeters>NAN</DistanceMeters>
          </Trackpoint>
          <Trackpoint>
            <Time>2020-05-25T05:55:40.000Z</Time>
            <Position>
              <LatitudeDegrees>38.21668460033833980560302734375</LatitudeDegrees>
              <LongitudeDegrees>-1.16868205368518829345703125</LongitudeDegrees>
            </Position>
            <AltitudeMeters>395.600006103515625</AltitudeMeters>
            <DistanceMeters>NAN</DistanceMeters>
          </Trackpoint>
          <Trackpoint>
            <Time>2020-05-25T05:55:41.000Z</Time>
            <Position>
              <LatitudeDegrees>38.21671796031296253204345703125</LatitudeDegrees>
              <LongitudeDegrees>-1.16872203536331653594970703125</LongitudeDegrees>
            </Position>
            <AltitudeMeters>395.79998779296875</AltitudeMeters>
            <DistanceMeters>NAN</DistanceMeters>
          </Trackpoint>
          <Trackpoint>
            <Time>2020-05-25T05:55:42.000Z</Time>
            <Position>
              <LatitudeDegrees>38.2167837582528591156005859375</LatitudeDegrees>
              <LongitudeDegrees>-1.1688052676618099212646484375</LongitudeDegrees>
            </Position>
            <AltitudeMeters>395.79998779296875</AltitudeMeters>
            <DistanceMeters>NAN</DistanceMeters>
          </Trackpoint>
          <Trackpoint>
            <Time>2020-05-25T05:55:43.000Z</Time>
            <Position>
              <LatitudeDegrees>38.2167837582528591156005859375</LatitudeDegrees>
              <LongitudeDegrees>-1.1688052676618099212646484375</LongitudeDegrees>
            </Position>
            <AltitudeMeters>396</AltitudeMeters>
            <DistanceMeters>NAN</DistanceMeters>
          </Trackpoint>
          <Trackpoint>
            <Time>2020-05-25T05:55:44.000Z</Time>
            <Position>
              <LatitudeDegrees>38.21685232222080230712890625</LatitudeDegrees>
              <LongitudeDegrees>-1.1688887514173984527587890625</LongitudeDegrees>
            </Position>
            <AltitudeMeters>396.20001220703125</AltitudeMeters>
            <DistanceMeters>NAN</DistanceMeters>
          </Trackpoint>
          <Trackpoint>
            <Time>2020-05-25T05:55:45.000Z</Time>
            <Position>
              <LatitudeDegrees>38.21685232222080230712890625</LatitudeDegrees>
              <LongitudeDegrees>-1.1688887514173984527587890625</LongitudeDegrees>
            </Position>
            <AltitudeMeters>396.399993896484375</AltitudeMeters>
            <DistanceMeters>NAN</DistanceMeters>
          </Trackpoint>
          <Trackpoint>
            <Time>2020-05-25T05:55:46.000Z</Time>
            <Position>
              <LatitudeDegrees>38.21688693948090076446533203125</LatitudeDegrees>
              <LongitudeDegrees>-1.168930828571319580078125</LongitudeDegrees>
            </Position>
            <AltitudeMeters>396.399993896484375</AltitudeMeters>
            <DistanceMeters>NAN</DistanceMeters>
          </Trackpoint>
          <Trackpoint>
            <Time>2020-05-25T05:55:47.000Z</Time>
            <Position>
              <LatitudeDegrees>38.2169215567409992218017578125</LatitudeDegrees>
              <LongitudeDegrees>-1.16897332482039928436279296875</LongitudeDegrees>
            </Position>
            <AltitudeMeters>396.600006103515625</AltitudeMeters>
            <DistanceMeters>NAN</DistanceMeters>
          </Trackpoint>
          <Trackpoint>
            <Time>2020-05-25T05:55:48.000Z</Time>
            <Position>
              <LatitudeDegrees>38.2169909588992595672607421875</LatitudeDegrees>
              <LongitudeDegrees>-1.1690563894808292388916015625</LongitudeDegrees>
            </Position>
            <AltitudeMeters>396.600006103515625</AltitudeMeters>
            <DistanceMeters>NAN</DistanceMeters>
          </Trackpoint>
          <Trackpoint>
            <Time>2020-05-25T05:55:49.000Z</Time>
            <Position>
              <LatitudeDegrees>38.2169909588992595672607421875</LatitudeDegrees>
              <LongitudeDegrees>-1.1690563894808292388916015625</LongitudeDegrees>
            </Position>
            <AltitudeMeters>396.600006103515625</AltitudeMeters>
            <DistanceMeters>NAN</DistanceMeters>
          </Trackpoint>
          <Trackpoint>
            <Time>2020-05-25T05:55:50.000Z</Time>
            <Position>
              <LatitudeDegrees>38.21705994196236133575439453125</LatitudeDegrees>
              <LongitudeDegrees>-1.169143058359622955322265625</LongitudeDegrees>
            </Position>
            <AltitudeMeters>396.79998779296875</AltitudeMeters>
            <DistanceMeters>NAN</DistanceMeters>
          </Trackpoint>
          <Trackpoint>
            <Time>2020-05-25T05:55:51.000Z</Time>
            <Position>
              <LatitudeDegrees>38.21705994196236133575439453125</LatitudeDegrees>
              <LongitudeDegrees>-1.169143058359622955322265625</LongitudeDegrees>
            </Position>
            <AltitudeMeters>396.79998779296875</AltitudeMeters>
            <DistanceMeters>NAN</DistanceMeters>
          </Trackpoint>
          <Trackpoint>
            <Time>2020-05-25T05:55:52.000Z</Time>
            <Position>
              <LatitudeDegrees>38.217094056308269500732421875</LatitudeDegrees>
              <LongitudeDegrees>-1.1691884882748126983642578125</LongitudeDegrees>
            </Position>
            <AltitudeMeters>396.79998779296875</AltitudeMeters>
            <DistanceMeters>NAN</DistanceMeters>
          </Trackpoint>
          <Trackpoint>
            <Time>2020-05-25T05:55:53.000Z</Time>
            <Position>
              <LatitudeDegrees>38.2171274162828922271728515625</LatitudeDegrees>
              <LongitudeDegrees>-1.16923517547547817230224609375</LongitudeDegrees>
            </Position>
            <AltitudeMeters>397</AltitudeMeters>
            <DistanceMeters>NAN</DistanceMeters>
          </Trackpoint>
          <Trackpoint>
            <Time>2020-05-25T05:55:54.000Z</Time>
            <Position>
              <LatitudeDegrees>38.21718835271894931793212890625</LatitudeDegrees>
              <LongitudeDegrees>-1.1693346686661243438720703125</LongitudeDegrees>
            </Position>
            <AltitudeMeters>397</AltitudeMeters>
            <DistanceMeters>NAN</DistanceMeters>
          </Trackpoint>
          <Trackpoint>
            <Time>2020-05-25T05:55:55.000Z</Time>
            <Position>
              <LatitudeDegrees>38.21718835271894931793212890625</LatitudeDegrees>
              <LongitudeDegrees>-1.1693346686661243438720703125</LongitudeDegrees>
            </Position>
            <AltitudeMeters>397</AltitudeMeters>
            <DistanceMeters>NAN</DistanceMeters>
          </Trackpoint>
          <Trackpoint>
            <Time>2020-05-25T05:55:56.000Z</Time>
            <Position>
              <LatitudeDegrees>38.2172447629272937774658203125</LatitudeDegrees>
              <LongitudeDegrees>-1.1694392748177051544189453125</LongitudeDegrees>
            </Position>
            <AltitudeMeters>397.20001220703125</AltitudeMeters>
            <DistanceMeters>NAN</DistanceMeters>
          </Trackpoint>
          <Trackpoint>
            <Time>2020-05-25T05:55:57.000Z</Time>
            <Position>
              <LatitudeDegrees>38.2172447629272937774658203125</LatitudeDegrees>
              <LongitudeDegrees>-1.1694392748177051544189453125</LongitudeDegrees>
            </Position>
            <AltitudeMeters>397.20001220703125</AltitudeMeters>
            <DistanceMeters>NAN</DistanceMeters>
          </Trackpoint>
          <Trackpoint>
            <Time>2020-05-25T05:55:58.000Z</Time>
            <Position>
              <LatitudeDegrees>38.2172722555696964263916015625</LatitudeDegrees>
              <LongitudeDegrees>-1.16949317045509815216064453125</LongitudeDegrees>
            </Position>
            <AltitudeMeters>397.20001220703125</AltitudeMeters>
            <DistanceMeters>NAN</DistanceMeters>
          </Trackpoint>
          <Trackpoint>
            <Time>2020-05-25T05:55:59.000Z</Time>
            <Position>
              <LatitudeDegrees>38.21729899384081363677978515625</LatitudeDegrees>
              <LongitudeDegrees>-1.1695479042828083038330078125</LongitudeDegrees>
            </Position>
            <AltitudeMeters>397.399993896484375</AltitudeMeters>
            <DistanceMeters>NAN</DistanceMeters>
          </Trackpoint>
          <Trackpoint>
            <Time>2020-05-25T05:56:00.000Z</Time>
            <Position>
              <LatitudeDegrees>38.21735179983079433441162109375</LatitudeDegrees>
              <LongitudeDegrees>-1.16965929977595806121826171875</LongitudeDegrees>
            </Position>
            <AltitudeMeters>397.399993896484375</AltitudeMeters>
            <DistanceMeters>NAN</DistanceMeters>
          </Trackpoint>
          <Trackpoint>
            <Time>2020-05-25T05:56:01.000Z</Time>
            <Position>
              <LatitudeDegrees>38.21735179983079433441162109375</LatitudeDegrees>
              <LongitudeDegrees>-1.16965929977595806121826171875</LongitudeDegrees>
            </Position>
            <AltitudeMeters>397.399993896484375</AltitudeMeters>
            <DistanceMeters>NAN</DistanceMeters>
          </Trackpoint>
          <Trackpoint>
            <Time>2020-05-25T05:56:02.000Z</Time>
            <Position>
              <LatitudeDegrees>38.21740644983947277069091796875</LatitudeDegrees>
              <LongitudeDegrees>-1.1697688512504100799560546875</LongitudeDegrees>
            </Position>
            <AltitudeMeters>397.399993896484375</AltitudeMeters>
            <DistanceMeters>NAN</DistanceMeters>
          </Trackpoint>
          <Trackpoint>
            <Time>2020-05-25T05:56:03.000Z</Time>
            <Position>
              <LatitudeDegrees>38.21740644983947277069091796875</LatitudeDegrees>
              <LongitudeDegrees>-1.1697688512504100799560546875</LongitudeDegrees>
            </Position>
            <AltitudeMeters>397.399993896484375</AltitudeMeters>
            <DistanceMeters>NAN</DistanceMeters>
          </Trackpoint>
          <Trackpoint>
            <Time>2020-05-25T05:56:04.000Z</Time>
            <Position>
              <LatitudeDegrees>38.21743394248187541961669921875</LatitudeDegrees>
              <LongitudeDegrees>-1.16982375271618366241455078125</LongitudeDegrees>
            </Position>
            <AltitudeMeters>397.399993896484375</AltitudeMeters>
            <DistanceMeters>NAN</DistanceMeters>
          </Trackpoint>
          <Trackpoint>
            <Time>2020-05-25T05:56:05.000Z</Time>
            <Position>
              <LatitudeDegrees>38.21746126748621463775634765625</LatitudeDegrees>
              <LongitudeDegrees>-1.1698798276484012603759765625</LongitudeDegrees>
            </Position>
            <AltitudeMeters>397.399993896484375</AltitudeMeters>
            <DistanceMeters>NAN</DistanceMeters>
          </Trackpoint>
          <Trackpoint>
            <Time>2020-05-25T05:56:06.000Z</Time>
            <Position>
              <LatitudeDegrees>38.2175206951797008514404296875</LatitudeDegrees>
              <LongitudeDegrees>-1.16998870857059955596923828125</LongitudeDegrees>
            </Position>
            <AltitudeMeters>397.399993896484375</AltitudeMeters>
            <DistanceMeters>NAN</DistanceMeters>
          </Trackpoint>
          <Trackpoint>
            <Time>2020-05-25T05:56:07.000Z</Time>
            <Position>
              <LatitudeDegrees>38.2175206951797008514404296875</LatitudeDegrees>
              <LongitudeDegrees>-1.16998870857059955596923828125</LongitudeDegrees>
            </Position>
            <AltitudeMeters>397.399993896484375</AltitudeMeters>
            <DistanceMeters>NAN</DistanceMeters>
          </Trackpoint>
          <Trackpoint>
            <Time>2020-05-25T05:56:08.000Z</Time>
            <Position>
              <LatitudeDegrees>38.2175874151289463043212890625</LatitudeDegrees>
              <LongitudeDegrees>-1.17008895613253116607666015625</LongitudeDegrees>
            </Position>
            <AltitudeMeters>397.600006103515625</AltitudeMeters>
            <DistanceMeters>NAN</DistanceMeters>
          </Trackpoint>
          <Trackpoint>
            <Time>2020-05-25T05:56:09.000Z</Time>
            <Position>
              <LatitudeDegrees>38.2175874151289463043212890625</LatitudeDegrees>
              <LongitudeDegrees>-1.17008895613253116607666015625</LongitudeDegrees>
            </Position>
            <AltitudeMeters>397.600006103515625</AltitudeMeters>
            <DistanceMeters>NAN</DistanceMeters>
          </Trackpoint>
          <Trackpoint>
            <Time>2020-05-25T05:56:10.000Z</Time>
            <Position>
              <LatitudeDegrees>38.21762303821742534637451171875</LatitudeDegrees>
              <LongitudeDegrees>-1.17013581097126007080078125</LongitudeDegrees>
            </Position>
            <AltitudeMeters>397.600006103515625</AltitudeMeters>
            <DistanceMeters>NAN</DistanceMeters>
          </Trackpoint>
          <Trackpoint>
            <Time>2020-05-25T05:56:11.000Z</Time>
            <Position>
              <LatitudeDegrees>38.21766042150557041168212890625</LatitudeDegrees>
              <LongitudeDegrees>-1.17018006742000579833984375</LongitudeDegrees>
            </Position>
            <AltitudeMeters>397.600006103515625</AltitudeMeters>
            <DistanceMeters>NAN</DistanceMeters>
          </Trackpoint>
          <Trackpoint>
            <Time>2020-05-25T05:56:12.000Z</Time>
            <Position>
              <LatitudeDegrees>38.2177403010427951812744140625</LatitudeDegrees>
              <LongitudeDegrees>-1.17026112042367458343505859375</LongitudeDegrees>
            </Position>
            <AltitudeMeters>397.600006103515625</AltitudeMeters>
            <DistanceMeters>NAN</DistanceMeters>
          </Trackpoint>
          <Trackpoint>
            <Time>2020-05-25T05:56:13.000Z</Time>
            <Position>
              <LatitudeDegrees>38.2177403010427951812744140625</LatitudeDegrees>
              <LongitudeDegrees>-1.17026112042367458343505859375</LongitudeDegrees>
            </Position>
            <AltitudeMeters>397.600006103515625</AltitudeMeters>
            <DistanceMeters>NAN</DistanceMeters>
          </Trackpoint>
          <Trackpoint>
            <Time>2020-05-25T05:56:14.000Z</Time>
            <Position>
              <LatitudeDegrees>38.21782303042709827423095703125</LatitudeDegrees>
              <LongitudeDegrees>-1.170337982475757598876953125</LongitudeDegrees>
            </Position>
            <AltitudeMeters>397.79998779296875</AltitudeMeters>
            <DistanceMeters>NAN</DistanceMeters>
          </Trackpoint>
          <Trackpoint>
            <Time>2020-05-25T05:56:15.000Z</Time>
            <Position>
              <LatitudeDegrees>38.21782303042709827423095703125</LatitudeDegrees>
              <LongitudeDegrees>-1.170337982475757598876953125</LongitudeDegrees>
            </Position>
            <AltitudeMeters>397.79998779296875</AltitudeMeters>
            <DistanceMeters>NAN</DistanceMeters>
          </Trackpoint>
          <Trackpoint>
            <Time>2020-05-25T05:56:16.000Z</Time>
            <Position>
              <LatitudeDegrees>38.21786493994295597076416015625</LatitudeDegrees>
              <LongitudeDegrees>-1.1703760363161563873291015625</LongitudeDegrees>
            </Position>
            <AltitudeMeters>397.79998779296875</AltitudeMeters>
            <DistanceMeters>NAN</DistanceMeters>
          </Trackpoint>
          <Trackpoint>
            <Time>2020-05-25T05:56:17.000Z</Time>
            <Position>
              <LatitudeDegrees>38.2179069332778453826904296875</LatitudeDegrees>
              <LongitudeDegrees>-1.17041534744203090667724609375</LongitudeDegrees>
            </Position>
            <AltitudeMeters>398</AltitudeMeters>
            <DistanceMeters>NAN</DistanceMeters>
          </Trackpoint>
          <Trackpoint>
            <Time>2020-05-25T05:56:18.000Z</Time>
            <Position>
              <LatitudeDegrees>38.21799301542341709136962890625</LatitudeDegrees>
              <LongitudeDegrees>-1.170490868389606475830078125</LongitudeDegrees>
            </Position>
            <AltitudeMeters>398</AltitudeMeters>
            <DistanceMeters>NAN</DistanceMeters>
          </Trackpoint>
          <Trackpoint>
            <Time>2020-05-25T05:56:19.000Z</Time>
            <Position>
              <LatitudeDegrees>38.21799301542341709136962890625</LatitudeDegrees>
              <LongitudeDegrees>-1.170490868389606475830078125</LongitudeDegrees>
            </Position>
            <AltitudeMeters>398</AltitudeMeters>
            <DistanceMeters>NAN</DistanceMeters>
          </Trackpoint>
          <Trackpoint>
            <Time>2020-05-25T05:56:20.000Z</Time>
            <Position>
              <LatitudeDegrees>38.2180802710354328155517578125</LatitudeDegrees>
              <LongitudeDegrees>-1.170561276376247406005859375</LongitudeDegrees>
            </Position>
            <AltitudeMeters>398.20001220703125</AltitudeMeters>
            <DistanceMeters>NAN</DistanceMeters>
          </Trackpoint>
          <Trackpoint>
            <Time>2020-05-25T05:56:21.000Z</Time>
            <Position>
              <LatitudeDegrees>38.2180802710354328155517578125</LatitudeDegrees>
              <LongitudeDegrees>-1.170561276376247406005859375</LongitudeDegrees>
            </Position>
            <AltitudeMeters>398.20001220703125</AltitudeMeters>
            <DistanceMeters>NAN</DistanceMeters>
          </Trackpoint>
          <Trackpoint>
            <Time>2020-05-25T05:56:22.000Z</Time>
            <Position>
              <LatitudeDegrees>38.21812259964644908905029296875</LatitudeDegrees>
              <LongitudeDegrees>-1.17059723474085330963134765625</LongitudeDegrees>
            </Position>
            <AltitudeMeters>398.20001220703125</AltitudeMeters>
            <DistanceMeters>NAN</DistanceMeters>
          </Trackpoint>
          <Trackpoint>
            <Time>2020-05-25T05:56:23.000Z</Time>
            <Position>
              <LatitudeDegrees>38.21816517971456050872802734375</LatitudeDegrees>
              <LongitudeDegrees>-1.17063243873417377471923828125</LongitudeDegrees>
            </Position>
            <AltitudeMeters>398.399993896484375</AltitudeMeters>
            <DistanceMeters>NAN</DistanceMeters>
          </Trackpoint>
          <Trackpoint>
            <Time>2020-05-25T05:56:24.000Z</Time>
            <Position>
              <LatitudeDegrees>38.21824983693659305572509765625</LatitudeDegrees>
              <LongitudeDegrees>-1.17070251144468784332275390625</LongitudeDegrees>
            </Position>
            <AltitudeMeters>398.399993896484375</AltitudeMeters>
            <DistanceMeters>NAN</DistanceMeters>
          </Trackpoint>
          <Trackpoint>
            <Time>2020-05-25T05:56:25.000Z</Time>
            <Position>
              <LatitudeDegrees>38.21824983693659305572509765625</LatitudeDegrees>
              <LongitudeDegrees>-1.17070251144468784332275390625</LongitudeDegrees>
            </Position>
            <AltitudeMeters>398.399993896484375</AltitudeMeters>
            <DistanceMeters>NAN</DistanceMeters>
          </Trackpoint>
          <Trackpoint>
            <Time>2020-05-25T05:56:26.000Z</Time>
            <Position>
              <LatitudeDegrees>38.2183380983769893646240234375</LatitudeDegrees>
              <LongitudeDegrees>-1.1707683093845844268798828125</LongitudeDegrees>
            </Position>
            <AltitudeMeters>398.399993896484375</AltitudeMeters>
            <DistanceMeters>NAN</DistanceMeters>
          </Trackpoint>
          <Trackpoint>
            <Time>2020-05-25T05:56:27.000Z</Time>
            <Position>
              <LatitudeDegrees>38.2183380983769893646240234375</LatitudeDegrees>
              <LongitudeDegrees>-1.1707683093845844268798828125</LongitudeDegrees>
            </Position>
            <AltitudeMeters>398.399993896484375</AltitudeMeters>
            <DistanceMeters>NAN</DistanceMeters>
          </Trackpoint>
          <Trackpoint>
            <Time>2020-05-25T05:56:28.000Z</Time>
            <Position>
              <LatitudeDegrees>38.21838377974927425384521484375</LatitudeDegrees>
              <LongitudeDegrees>-1.1707984842360019683837890625</LongitudeDegrees>
            </Position>
            <AltitudeMeters>398.399993896484375</AltitudeMeters>
            <DistanceMeters>NAN</DistanceMeters>
          </Trackpoint>
          <Trackpoint>
            <Time>2020-05-25T05:56:29.000Z</Time>
            <Position>
              <LatitudeDegrees>38.2184306345880031585693359375</LatitudeDegrees>
              <LongitudeDegrees>-1.1708258092403411865234375</LongitudeDegrees>
            </Position>
            <AltitudeMeters>398.600006103515625</AltitudeMeters>
            <DistanceMeters>NAN</DistanceMeters>
          </Trackpoint>
          <Trackpoint>
            <Time>2020-05-25T05:56:30.000Z</Time>
            <Position>
              <LatitudeDegrees>38.21852660737931728363037109375</LatitudeDegrees>
              <LongitudeDegrees>-1.17087350226938724517822265625</LongitudeDegrees>
            </Position>
            <AltitudeMeters>398.79998779296875</AltitudeMeters>
            <DistanceMeters>NAN</DistanceMeters>
          </Trackpoint>
          <Trackpoint>
            <Time>2020-05-25T05:56:31.000Z</Time>
            <Position>
              <LatitudeDegrees>38.21852660737931728363037109375</LatitudeDegrees>
              <LongitudeDegrees>-1.17087350226938724517822265625</LongitudeDegrees>
            </Position>
            <AltitudeMeters>398.79998779296875</AltitudeMeters>
            <DistanceMeters>NAN</DistanceMeters>
          </Trackpoint>
          <Trackpoint>
            <Time>2020-05-25T05:56:32.000Z</Time>
            <Position>
              <LatitudeDegrees>38.2186232507228851318359375</LatitudeDegrees>
              <LongitudeDegrees>-1.17091155610978603363037109375</LongitudeDegrees>
            </Position>
            <AltitudeMeters>398.79998779296875</AltitudeMeters>
            <DistanceMeters>NAN</DistanceMeters>
          </Trackpoint>
          <Trackpoint>
            <Time>2020-05-25T05:56:33.000Z</Time>
            <Position>
              <LatitudeDegrees>38.2186232507228851318359375</LatitudeDegrees>
              <LongitudeDegrees>-1.17091155610978603363037109375</LongitudeDegrees>
            </Position>
            <AltitudeMeters>399</AltitudeMeters>
            <DistanceMeters>NAN</DistanceMeters>
          </Trackpoint>
          <Trackpoint>
            <Time>2020-05-25T05:56:34.000Z</Time>
            <Position>
              <LatitudeDegrees>38.21867161430418491363525390625</LatitudeDegrees>
              <LongitudeDegrees>-1.170927397906780242919921875</LongitudeDegrees>
            </Position>
            <AltitudeMeters>399</AltitudeMeters>
            <DistanceMeters>NAN</DistanceMeters>
          </Trackpoint>
          <Trackpoint>
            <Time>2020-05-25T05:56:35.000Z</Time>
            <Position>
              <LatitudeDegrees>38.21872039698064327239990234375</LatitudeDegrees>
              <LongitudeDegrees>-1.1709423176944255828857421875</LongitudeDegrees>
            </Position>
            <AltitudeMeters>399</AltitudeMeters>
            <DistanceMeters>NAN</DistanceMeters>
          </Trackpoint>
          <Trackpoint>
            <Time>2020-05-25T05:56:36.000Z</Time>
            <Position>
              <LatitudeDegrees>38.21882097981870174407958984375</LatitudeDegrees>
              <LongitudeDegrees>-1.17096805013716220855712890625</LongitudeDegrees>
            </Position>
            <AltitudeMeters>399</AltitudeMeters>
            <DistanceMeters>NAN</DistanceMeters>
          </Trackpoint>
          <Trackpoint>
            <Time>2020-05-25T05:56:37.000Z</Time>
            <Position>
              <LatitudeDegrees>38.21882097981870174407958984375</LatitudeDegrees>
              <LongitudeDegrees>-1.17096805013716220855712890625</LongitudeDegrees>
            </Position>
            <AltitudeMeters>399</AltitudeMeters>
            <DistanceMeters>NAN</DistanceMeters>
          </Trackpoint>
          <Trackpoint>
            <Time>2020-05-25T05:56:38.000Z</Time>
            <Position>
              <LatitudeDegrees>38.21892273612320423126220703125</LatitudeDegrees>
              <LongitudeDegrees>-1.170982383191585540771484375</LongitudeDegrees>
            </Position>
            <AltitudeMeters>399.20001220703125</AltitudeMeters>
            <DistanceMeters>NAN</DistanceMeters>
          </Trackpoint>
          <Trackpoint>
            <Time>2020-05-25T05:56:39.000Z</Time>
            <Position>
              <LatitudeDegrees>38.21892273612320423126220703125</LatitudeDegrees>
              <LongitudeDegrees>-1.170982383191585540771484375</LongitudeDegrees>
            </Position>
            <AltitudeMeters>399.20001220703125</AltitudeMeters>
            <DistanceMeters>NAN</DistanceMeters>
          </Trackpoint>
          <Trackpoint>
            <Time>2020-05-25T05:56:40.000Z</Time>
            <Position>
              <LatitudeDegrees>38.2189734466373920440673828125</LatitudeDegrees>
              <LongitudeDegrees>-1.17098481394350528717041015625</LongitudeDegrees>
            </Position>
            <AltitudeMeters>399.20001220703125</AltitudeMeters>
            <DistanceMeters>NAN</DistanceMeters>
          </Trackpoint>
          <Trackpoint>
            <Time>2020-05-25T05:56:41.000Z</Time>
            <Position>
              <LatitudeDegrees>38.2190237380564212799072265625</LatitudeDegrees>
              <LongitudeDegrees>-1.17098875343799591064453125</LongitudeDegrees>
            </Position>
            <AltitudeMeters>399.20001220703125</AltitudeMeters>
            <DistanceMeters>NAN</DistanceMeters>
          </Trackpoint>
          <Trackpoint>
            <Time>2020-05-25T05:56:42.000Z</Time>
            <Position>
              <LatitudeDegrees>38.21912440471351146697998046875</LatitudeDegrees>
              <LongitudeDegrees>-1.1710026673972606658935546875</LongitudeDegrees>
            </Position>
            <AltitudeMeters>399.20001220703125</AltitudeMeters>
            <DistanceMeters>NAN</DistanceMeters>
          </Trackpoint>
          <Trackpoint>
            <Time>2020-05-25T05:56:43.000Z</Time>
            <Position>
              <LatitudeDegrees>38.21912440471351146697998046875</LatitudeDegrees>
              <LongitudeDegrees>-1.1710026673972606658935546875</LongitudeDegrees>
            </Position>
            <AltitudeMeters>399.399993896484375</AltitudeMeters>
            <DistanceMeters>NAN</DistanceMeters>
          </Trackpoint>
          <Trackpoint>
            <Time>2020-05-25T05:56:44.000Z</Time>
            <Position>
              <LatitudeDegrees>38.21922607719898223876953125</LatitudeDegrees>
              <LongitudeDegrees>-1.1710216104984283447265625</LongitudeDegrees>
            </Position>
            <AltitudeMeters>399.600006103515625</AltitudeMeters>
            <DistanceMeters>NAN</DistanceMeters>
          </Trackpoint>
          <Trackpoint>
            <Time>2020-05-25T05:56:45.000Z</Time>
            <Position>
              <LatitudeDegrees>38.21922607719898223876953125</LatitudeDegrees>
              <LongitudeDegrees>-1.1710216104984283447265625</LongitudeDegrees>
            </Position>
            <AltitudeMeters>399.600006103515625</AltitudeMeters>
            <DistanceMeters>NAN</DistanceMeters>
          </Trackpoint>
          <Trackpoint>
            <Time>2020-05-25T05:56:46.000Z</Time>
            <Position>
              <LatitudeDegrees>38.21927611716091632843017578125</LatitudeDegrees>
              <LongitudeDegrees>-1.1710341833531856536865234375</LongitudeDegrees>
            </Position>
            <AltitudeMeters>399.79998779296875</AltitudeMeters>
            <DistanceMeters>NAN</DistanceMeters>
          </Trackpoint>
          <Trackpoint>
            <Time>2020-05-25T05:56:47.000Z</Time>
            <Position>
              <LatitudeDegrees>38.21932540275156497955322265625</LatitudeDegrees>
              <LongitudeDegrees>-1.1710486002266407012939453125</LongitudeDegrees>
            </Position>
            <AltitudeMeters>399.79998779296875</AltitudeMeters>
            <DistanceMeters>NAN</DistanceMeters>
          </Trackpoint>
          <Trackpoint>
            <Time>2020-05-25T05:56:48.000Z</Time>
            <Position>
              <LatitudeDegrees>38.21942212991416454315185546875</LatitudeDegrees>
              <LongitudeDegrees>-1.17108271457254886627197265625</LongitudeDegrees>
            </Position>
            <AltitudeMeters>400</AltitudeMeters>
            <DistanceMeters>NAN</DistanceMeters>
          </Trackpoint>
          <Trackpoint>
            <Time>2020-05-25T05:56:49.000Z</Time>
            <Position>
              <LatitudeDegrees>38.21942212991416454315185546875</LatitudeDegrees>
              <LongitudeDegrees>-1.17108271457254886627197265625</LongitudeDegrees>
            </Position>
            <AltitudeMeters>400</AltitudeMeters>
            <DistanceMeters>NAN</DistanceMeters>
          </Trackpoint>
          <Trackpoint>
            <Time>2020-05-25T05:56:50.000Z</Time>
            <Position>
              <LatitudeDegrees>38.219517767429351806640625</LatitudeDegrees>
              <LongitudeDegrees>-1.17112244479358196258544921875</LongitudeDegrees>
            </Position>
            <AltitudeMeters>400</AltitudeMeters>
            <DistanceMeters>NAN</DistanceMeters>
          </Trackpoint>
          <Trackpoint>
            <Time>2020-05-25T05:56:51.000Z</Time>
            <Position>
              <LatitudeDegrees>38.219517767429351806640625</LatitudeDegrees>
              <LongitudeDegrees>-1.17112244479358196258544921875</LongitudeDegrees>
            </Position>
            <AltitudeMeters>400.20001220703125</AltitudeMeters>
            <DistanceMeters>NAN</DistanceMeters>
          </Trackpoint>
          <Trackpoint>
            <Time>2020-05-25T05:56:52.000Z</Time>
            <Position>
              <LatitudeDegrees>38.2195647060871124267578125</LatitudeDegrees>
              <LongitudeDegrees>-1.17114708758890628814697265625</LongitudeDegrees>
            </Position>
            <AltitudeMeters>400.20001220703125</AltitudeMeters>
            <DistanceMeters>NAN</DistanceMeters>
          </Trackpoint>
          <Trackpoint>
            <Time>2020-05-25T05:56:53.000Z</Time>
            <Position>
              <LatitudeDegrees>38.219610638916492462158203125</LatitudeDegrees>
              <LongitudeDegrees>-1.17117474786937236785888671875</LongitudeDegrees>
            </Position>
            <AltitudeMeters>400.399993896484375</AltitudeMeters>
            <DistanceMeters>NAN</DistanceMeters>
          </Trackpoint>
          <Trackpoint>
            <Time>2020-05-25T05:56:54.000Z</Time>
            <Position>
              <LatitudeDegrees>38.2196989841759204864501953125</LatitudeDegrees>
              <LongitudeDegrees>-1.171238534152507781982421875</LongitudeDegrees>
            </Position>
            <AltitudeMeters>400.399993896484375</AltitudeMeters>
            <DistanceMeters>NAN</DistanceMeters>
          </Trackpoint>
          <Trackpoint>
            <Time>2020-05-25T05:56:55.000Z</Time>
            <Position>
              <LatitudeDegrees>38.2196989841759204864501953125</LatitudeDegrees>
              <LongitudeDegrees>-1.171238534152507781982421875</LongitudeDegrees>
            </Position>
            <AltitudeMeters>400.399993896484375</AltitudeMeters>
            <DistanceMeters>NAN</DistanceMeters>
          </Trackpoint>
          <Trackpoint>
            <Time>2020-05-25T05:56:56.000Z</Time>
            <Position>
              <LatitudeDegrees>38.219740726053714752197265625</LatitudeDegrees>
              <LongitudeDegrees>-1.17127499543130397796630859375</LongitudeDegrees>
            </Position>
            <AltitudeMeters>400.399993896484375</AltitudeMeters>
            <DistanceMeters>NAN</DistanceMeters>
          </Trackpoint>
          <Trackpoint>
            <Time>2020-05-25T05:56:57.000Z</Time>
            <Position>
              <LatitudeDegrees>38.21978154592216014862060546875</LatitudeDegrees>
              <LongitudeDegrees>-1.17131405510008335113525390625</LongitudeDegrees>
            </Position>
            <AltitudeMeters>400.399993896484375</AltitudeMeters>
            <DistanceMeters>NAN</DistanceMeters>
          </Trackpoint>
          <Trackpoint>
            <Time>2020-05-25T05:56:58.000Z</Time>
            <Position>
              <LatitudeDegrees>38.21982085704803466796875</LatitudeDegrees>
              <LongitudeDegrees>-1.1713550426065921783447265625</LongitudeDegrees>
            </Position>
            <AltitudeMeters>400.399993896484375</AltitudeMeters>
            <DistanceMeters>NAN</DistanceMeters>
          </Trackpoint>
          <Trackpoint>
            <Time>2020-05-25T05:56:59.000Z</Time>
            <Position>
              <LatitudeDegrees>38.219860084354877471923828125</LatitudeDegrees>
              <LongitudeDegrees>-1.17139510810375213623046875</LongitudeDegrees>
            </Position>
            <AltitudeMeters>400.399993896484375</AltitudeMeters>
            <DistanceMeters>NAN</DistanceMeters>
          </Trackpoint>
          <Trackpoint>
            <Time>2020-05-25T05:57:00.000Z</Time>
            <Position>
              <LatitudeDegrees>38.2199001498520374298095703125</LatitudeDegrees>
              <LongitudeDegrees>-1.1714328266680240631103515625</LongitudeDegrees>
            </Position>
            <AltitudeMeters>400.399993896484375</AltitudeMeters>
            <DistanceMeters>NAN</DistanceMeters>
          </Trackpoint>
          <Trackpoint>
            <Time>2020-05-25T05:57:01.000Z</Time>
            <Position>
              <LatitudeDegrees>38.21993979625403881072998046875</LatitudeDegrees>
              <LongitudeDegrees>-1.171471215784549713134765625</LongitudeDegrees>
            </Position>
            <AltitudeMeters>400.399993896484375</AltitudeMeters>
            <DistanceMeters>NAN</DistanceMeters>
          </Trackpoint>
          <Trackpoint>
            <Time>2020-05-25T05:57:02.000Z</Time>
            <Position>
              <LatitudeDegrees>38.22001934051513671875</LatitudeDegrees>
              <LongitudeDegrees>-1.17154799401760101318359375</LongitudeDegrees>
            </Position>
            <AltitudeMeters>400.399993896484375</AltitudeMeters>
            <DistanceMeters>NAN</DistanceMeters>
          </Trackpoint>
          <Trackpoint>
            <Time>2020-05-25T05:57:03.000Z</Time>
            <Position>
              <LatitudeDegrees>38.22001934051513671875</LatitudeDegrees>
              <LongitudeDegrees>-1.17154799401760101318359375</LongitudeDegrees>
            </Position>
            <AltitudeMeters>400.600006103515625</AltitudeMeters>
            <DistanceMeters>NAN</DistanceMeters>
          </Trackpoint>
          <Trackpoint>
            <Time>2020-05-25T05:57:04.000Z</Time>
            <Position>
              <LatitudeDegrees>38.220059908926486968994140625</LatitudeDegrees>
              <LongitudeDegrees>-1.17158546112477779388427734375</LongitudeDegrees>
            </Position>
            <AltitudeMeters>400.600006103515625</AltitudeMeters>
            <DistanceMeters>NAN</DistanceMeters>
          </Trackpoint>
          <Trackpoint>
            <Time>2020-05-25T05:57:05.000Z</Time>
            <Position>
              <LatitudeDegrees>38.22010089643299579620361328125</LatitudeDegrees>
              <LongitudeDegrees>-1.17162200622260570526123046875</LongitudeDegrees>
            </Position>
            <AltitudeMeters>400.79998779296875</AltitudeMeters>
            <DistanceMeters>NAN</DistanceMeters>
          </Trackpoint>
          <Trackpoint>
            <Time>2020-05-25T05:57:06.000Z</Time>
            <Position>
              <LatitudeDegrees>38.220141716301441192626953125</LatitudeDegrees>
              <LongitudeDegrees>-1.171657629311084747314453125</LongitudeDegrees>
            </Position>
            <AltitudeMeters>400.79998779296875</AltitudeMeters>
            <DistanceMeters>NAN</DistanceMeters>
          </Trackpoint>
          <Trackpoint>
            <Time>2020-05-25T05:57:07.000Z</Time>
            <Position>
              <LatitudeDegrees>38.2201824523508548736572265625</LatitudeDegrees>
              <LongitudeDegrees>-1.17169492878019809722900390625</LongitudeDegrees>
            </Position>
            <AltitudeMeters>401</AltitudeMeters>
            <DistanceMeters>NAN</DistanceMeters>
          </Trackpoint>
          <Trackpoint>
            <Time>2020-05-25T05:57:08.000Z</Time>
            <Position>
              <LatitudeDegrees>38.22026409208774566650390625</LatitudeDegrees>
              <LongitudeDegrees>-1.17176416330039501190185546875</LongitudeDegrees>
            </Position>
            <AltitudeMeters>401</AltitudeMeters>
            <DistanceMeters>NAN</DistanceMeters>
          </Trackpoint>
          <Trackpoint>
            <Time>2020-05-25T05:57:09.000Z</Time>
            <Position>
              <LatitudeDegrees>38.22026409208774566650390625</LatitudeDegrees>
              <LongitudeDegrees>-1.17176416330039501190185546875</LongitudeDegrees>
            </Position>
            <AltitudeMeters>401.20001220703125</AltitudeMeters>
            <DistanceMeters>NAN</DistanceMeters>
          </Trackpoint>
          <Trackpoint>
            <Time>2020-05-25T05:57:10.000Z</Time>
            <Position>
              <LatitudeDegrees>38.22030407376587390899658203125</LatitudeDegrees>
              <LongitudeDegrees>-1.17179785855114459991455078125</LongitudeDegrees>
            </Position>
            <AltitudeMeters>401.399993896484375</AltitudeMeters>
            <DistanceMeters>NAN</DistanceMeters>
          </Trackpoint>
          <Trackpoint>
            <Time>2020-05-25T05:57:11.000Z</Time>
            <Position>
              <LatitudeDegrees>38.2203425467014312744140625</LatitudeDegrees>
              <LongitudeDegrees>-1.1718338169157505035400390625</LongitudeDegrees>
            </Position>
            <AltitudeMeters>401.399993896484375</AltitudeMeters>
            <DistanceMeters>NAN</DistanceMeters>
          </Trackpoint>
          <Trackpoint>
            <Time>2020-05-25T05:57:12.000Z</Time>
            <Position>
              <LatitudeDegrees>38.22041739709675312042236328125</LatitudeDegrees>
              <LongitudeDegrees>-1.171905733644962310791015625</LongitudeDegrees>
            </Position>
            <AltitudeMeters>401.399993896484375</AltitudeMeters>
            <DistanceMeters>NAN</DistanceMeters>
          </Trackpoint>
          <Trackpoint>
            <Time>2020-05-25T05:57:13.000Z</Time>
            <Position>
              <LatitudeDegrees>38.22041739709675312042236328125</LatitudeDegrees>
              <LongitudeDegrees>-1.171905733644962310791015625</LongitudeDegrees>
            </Position>
            <AltitudeMeters>401.600006103515625</AltitudeMeters>
            <DistanceMeters>NAN</DistanceMeters>
          </Trackpoint>
          <Trackpoint>
            <Time>2020-05-25T05:57:14.000Z</Time>
            <Position>
              <LatitudeDegrees>38.2204914093017578125</LatitudeDegrees>
              <LongitudeDegrees>-1.17197538726031780242919921875</LongitudeDegrees>
            </Position>
            <AltitudeMeters>401.79998779296875</AltitudeMeters>
            <DistanceMeters>NAN</DistanceMeters>
          </Trackpoint>
          <Trackpoint>
            <Time>2020-05-25T05:57:15.000Z</Time>
            <Position>
              <LatitudeDegrees>38.2204914093017578125</LatitudeDegrees>
              <LongitudeDegrees>-1.17197538726031780242919921875</LongitudeDegrees>
            </Position>
            <AltitudeMeters>402</AltitudeMeters>
            <DistanceMeters>NAN</DistanceMeters>
          </Trackpoint>
          <Trackpoint>
            <Time>2020-05-25T05:57:16.000Z</Time>
            <Position>
              <LatitudeDegrees>38.22052870877087116241455078125</LatitudeDegrees>
              <LongitudeDegrees>-1.172008328139781951904296875</LongitudeDegrees>
            </Position>
            <AltitudeMeters>402</AltitudeMeters>
            <DistanceMeters>NAN</DistanceMeters>
          </Trackpoint>
          <Trackpoint>
            <Time>2020-05-25T05:57:17.000Z</Time>
            <Position>
              <LatitudeDegrees>38.2205653376877307891845703125</LatitudeDegrees>
              <LongitudeDegrees>-1.1720416881144046783447265625</LongitudeDegrees>
            </Position>
            <AltitudeMeters>402.20001220703125</AltitudeMeters>
            <DistanceMeters>NAN</DistanceMeters>
          </Trackpoint>
          <Trackpoint>
            <Time>2020-05-25T05:57:18.000Z</Time>
            <Position>
              <LatitudeDegrees>38.22063532657921314239501953125</LatitudeDegrees>
              <LongitudeDegrees>-1.1721124313771724700927734375</LongitudeDegrees>
            </Position>
            <AltitudeMeters>402.20001220703125</AltitudeMeters>
            <DistanceMeters>NAN</DistanceMeters>
          </Trackpoint>
          <Trackpoint>
            <Time>2020-05-25T05:57:19.000Z</Time>
            <Position>
              <LatitudeDegrees>38.22063532657921314239501953125</LatitudeDegrees>
              <LongitudeDegrees>-1.1721124313771724700927734375</LongitudeDegrees>
            </Position>
            <AltitudeMeters>402.399993896484375</AltitudeMeters>
            <DistanceMeters>NAN</DistanceMeters>
          </Trackpoint>
          <Trackpoint>
            <Time>2020-05-25T05:57:20.000Z</Time>
            <Position>
              <LatitudeDegrees>38.220700956881046295166015625</LatitudeDegrees>
              <LongitudeDegrees>-1.172188036143779754638671875</LongitudeDegrees>
            </Position>
            <AltitudeMeters>402.399993896484375</AltitudeMeters>
            <DistanceMeters>NAN</DistanceMeters>
          </Trackpoint>
          <Trackpoint>
            <Time>2020-05-25T05:57:21.000Z</Time>
            <Position>
              <LatitudeDegrees>38.220700956881046295166015625</LatitudeDegrees>
              <LongitudeDegrees>-1.172188036143779754638671875</LongitudeDegrees>
            </Position>
            <AltitudeMeters>402.600006103515625</AltitudeMeters>
            <DistanceMeters>NAN</DistanceMeters>
          </Trackpoint>
          <Trackpoint>
            <Time>2020-05-25T05:57:22.000Z</Time>
            <Position>
              <LatitudeDegrees>38.22073138318955898284912109375</LatitudeDegrees>
              <LongitudeDegrees>-1.1722277663648128509521484375</LongitudeDegrees>
            </Position>
            <AltitudeMeters>402.79998779296875</AltitudeMeters>
            <DistanceMeters>NAN</DistanceMeters>
          </Trackpoint>
          <Trackpoint>
            <Time>2020-05-25T05:57:23.000Z</Time>
            <Position>
              <LatitudeDegrees>38.220759965479373931884765625</LatitudeDegrees>
              <LongitudeDegrees>-1.17226908914744853973388671875</LongitudeDegrees>
            </Position>
            <AltitudeMeters>403</AltitudeMeters>
            <DistanceMeters>NAN</DistanceMeters>
          </Trackpoint>
          <Trackpoint>
            <Time>2020-05-25T05:57:24.000Z</Time>
            <Position>
              <LatitudeDegrees>38.22081352584064006805419921875</LatitudeDegrees>
              <LongitudeDegrees>-1.17235089652240276336669921875</LongitudeDegrees>
            </Position>
            <AltitudeMeters>403.399993896484375</AltitudeMeters>
            <DistanceMeters>NAN</DistanceMeters>
          </Trackpoint>
          <Trackpoint>
            <Time>2020-05-25T05:57:25.000Z</Time>
            <Position>
              <LatitudeDegrees>38.22081352584064006805419921875</LatitudeDegrees>
              <LongitudeDegrees>-1.17235089652240276336669921875</LongitudeDegrees>
            </Position>
            <AltitudeMeters>403.600006103515625</AltitudeMeters>
            <DistanceMeters>NAN</DistanceMeters>
          </Trackpoint>
          <Trackpoint>
            <Time>2020-05-25T05:57:26.000Z</Time>
            <Position>
              <LatitudeDegrees>38.22086448781192302703857421875</LatitudeDegrees>
              <LongitudeDegrees>-1.17242683656513690948486328125</LongitudeDegrees>
            </Position>
            <AltitudeMeters>404</AltitudeMeters>
            <DistanceMeters>NAN</DistanceMeters>
          </Trackpoint>
          <Trackpoint>
            <Time>2020-05-25T05:57:27.000Z</Time>
            <Position>
              <LatitudeDegrees>38.22086448781192302703857421875</LatitudeDegrees>
              <LongitudeDegrees>-1.17242683656513690948486328125</LongitudeDegrees>
            </Position>
            <AltitudeMeters>404</AltitudeMeters>
            <DistanceMeters>NAN</DistanceMeters>
          </Trackpoint>
          <Trackpoint>
            <Time>2020-05-25T05:57:28.000Z</Time>
            <Position>
              <LatitudeDegrees>38.22088896296918392181396484375</LatitudeDegrees>
              <LongitudeDegrees>-1.17246472276747226715087890625</LongitudeDegrees>
            </Position>
            <AltitudeMeters>404.20001220703125</AltitudeMeters>
            <DistanceMeters>NAN</DistanceMeters>
          </Trackpoint>
          <Trackpoint>
            <Time>2020-05-25T05:57:29.000Z</Time>
            <Position>
              <LatitudeDegrees>38.2209146954119205474853515625</LatitudeDegrees>
              <LongitudeDegrees>-1.1725036986172199249267578125</LongitudeDegrees>
            </Position>
            <AltitudeMeters>404.399993896484375</AltitudeMeters>
            <DistanceMeters>NAN</DistanceMeters>
          </Trackpoint>
          <Trackpoint>
            <Time>2020-05-25T05:57:30.000Z</Time>
            <Position>
              <LatitudeDegrees>38.220969848334789276123046875</LatitudeDegrees>
              <LongitudeDegrees>-1.17257871665060520172119140625</LongitudeDegrees>
            </Position>
            <AltitudeMeters>404.79998779296875</AltitudeMeters>
            <DistanceMeters>NAN</DistanceMeters>
          </Trackpoint>
          <Trackpoint>
            <Time>2020-05-25T05:57:31.000Z</Time>
            <Position>
              <LatitudeDegrees>38.220969848334789276123046875</LatitudeDegrees>
              <LongitudeDegrees>-1.17257871665060520172119140625</LongitudeDegrees>
            </Position>
            <AltitudeMeters>404.79998779296875</AltitudeMeters>
            <DistanceMeters>NAN</DistanceMeters>
          </Trackpoint>
          <Trackpoint>
            <Time>2020-05-25T05:57:32.000Z</Time>
            <Position>
              <LatitudeDegrees>38.22102424688637256622314453125</LatitudeDegrees>
              <LongitudeDegrees>-1.17265281267464160919189453125</LongitudeDegrees>
            </Position>
            <AltitudeMeters>404.79998779296875</AltitudeMeters>
            <DistanceMeters>NAN</DistanceMeters>
          </Trackpoint>
          <Trackpoint>
            <Time>2020-05-25T05:57:33.000Z</Time>
            <Position>
              <LatitudeDegrees>38.22102424688637256622314453125</LatitudeDegrees>
              <LongitudeDegrees>-1.17265281267464160919189453125</LongitudeDegrees>
            </Position>
            <AltitudeMeters>405</AltitudeMeters>
            <DistanceMeters>NAN</DistanceMeters>
          </Trackpoint>
          <Trackpoint>
            <Time>2020-05-25T05:57:34.000Z</Time>
            <Position>
              <LatitudeDegrees>38.221051655709743499755859375</LatitudeDegrees>
              <LongitudeDegrees>-1.1726881004869937896728515625</LongitudeDegrees>
            </Position>
            <AltitudeMeters>405.20001220703125</AltitudeMeters>
            <DistanceMeters>NAN</DistanceMeters>
          </Trackpoint>
          <Trackpoint>
            <Time>2020-05-25T05:57:35.000Z</Time>
            <Position>
              <LatitudeDegrees>38.22108157910406589508056640625</LatitudeDegrees>
              <LongitudeDegrees>-1.17272037081420421600341796875</LongitudeDegrees>
            </Position>
            <AltitudeMeters>405.399993896484375</AltitudeMeters>
            <DistanceMeters>NAN</DistanceMeters>
          </Trackpoint>
          <Trackpoint>
            <Time>2020-05-25T05:57:36.000Z</Time>
            <Position>
              <LatitudeDegrees>38.22114611975848674774169921875</LatitudeDegrees>
              <LongitudeDegrees>-1.1727782897651195526123046875</LongitudeDegrees>
            </Position>
            <AltitudeMeters>405.399993896484375</AltitudeMeters>
            <DistanceMeters>NAN</DistanceMeters>
          </Trackpoint>
          <Trackpoint>
            <Time>2020-05-25T05:57:37.000Z</Time>
            <Position>
              <LatitudeDegrees>38.22114611975848674774169921875</LatitudeDegrees>
              <LongitudeDegrees>-1.1727782897651195526123046875</LongitudeDegrees>
            </Position>
            <AltitudeMeters>405.600006103515625</AltitudeMeters>
            <DistanceMeters>NAN</DistanceMeters>
          </Trackpoint>
          <Trackpoint>
            <Time>2020-05-25T05:57:38.000Z</Time>
            <Position>
              <LatitudeDegrees>38.22121015749871730804443359375</LatitudeDegrees>
              <LongitudeDegrees>-1.17283587343990802764892578125</LongitudeDegrees>
            </Position>
            <AltitudeMeters>405.79998779296875</AltitudeMeters>
            <DistanceMeters>NAN</DistanceMeters>
          </Trackpoint>
          <Trackpoint>
            <Time>2020-05-25T05:57:39.000Z</Time>
            <Position>
              <LatitudeDegrees>38.22121015749871730804443359375</LatitudeDegrees>
              <LongitudeDegrees>-1.17283587343990802764892578125</LongitudeDegrees>
            </Position>
            <AltitudeMeters>406</AltitudeMeters>
            <DistanceMeters>NAN</DistanceMeters>
          </Trackpoint>
          <Trackpoint>
            <Time>2020-05-25T05:57:40.000Z</Time>
            <Position>
              <LatitudeDegrees>38.2212422601878643035888671875</LatitudeDegrees>
              <LongitudeDegrees>-1.17286386899650096893310546875</LongitudeDegrees>
            </Position>
            <AltitudeMeters>406.399993896484375</AltitudeMeters>
            <DistanceMeters>NAN</DistanceMeters>
          </Trackpoint>
          <Trackpoint>
            <Time>2020-05-25T05:57:41.000Z</Time>
            <Position>
              <LatitudeDegrees>38.22127503342926502227783203125</LatitudeDegrees>
              <LongitudeDegrees>-1.17289119400084018707275390625</LongitudeDegrees>
            </Position>
            <AltitudeMeters>406.600006103515625</AltitudeMeters>
            <DistanceMeters>NAN</DistanceMeters>
          </Trackpoint>
          <Trackpoint>
            <Time>2020-05-25T05:57:42.000Z</Time>
            <Position>
              <LatitudeDegrees>38.22134309448301792144775390625</LatitudeDegrees>
              <LongitudeDegrees>-1.17293930612504482269287109375</LongitudeDegrees>
            </Position>
            <AltitudeMeters>406.79998779296875</AltitudeMeters>
            <DistanceMeters>NAN</DistanceMeters>
          </Trackpoint>
          <Trackpoint>
            <Time>2020-05-25T05:57:43.000Z</Time>
            <Position>
              <LatitudeDegrees>38.22134309448301792144775390625</LatitudeDegrees>
              <LongitudeDegrees>-1.17293930612504482269287109375</LongitudeDegrees>
            </Position>
            <AltitudeMeters>406.79998779296875</AltitudeMeters>
            <DistanceMeters>NAN</DistanceMeters>
          </Trackpoint>
          <Trackpoint>
            <Time>2020-05-25T05:57:44.000Z</Time>
            <Position>
              <LatitudeDegrees>38.22141434065997600555419921875</LatitudeDegrees>
              <LongitudeDegrees>-1.17298088036477565765380859375</LongitudeDegrees>
            </Position>
            <AltitudeMeters>407.20001220703125</AltitudeMeters>
            <DistanceMeters>NAN</DistanceMeters>
          </Trackpoint>
          <Trackpoint>
            <Time>2020-05-25T05:57:45.000Z</Time>
            <Position>
              <LatitudeDegrees>38.22141434065997600555419921875</LatitudeDegrees>
              <LongitudeDegrees>-1.17298088036477565765380859375</LongitudeDegrees>
            </Position>
            <AltitudeMeters>407.399993896484375</AltitudeMeters>
            <DistanceMeters>NAN</DistanceMeters>
          </Trackpoint>
          <Trackpoint>
            <Time>2020-05-25T05:57:46.000Z</Time>
            <Position>
              <LatitudeDegrees>38.2214504666626453399658203125</LatitudeDegrees>
              <LongitudeDegrees>-1.17300082929432392120361328125</LongitudeDegrees>
            </Position>
            <AltitudeMeters>407.600006103515625</AltitudeMeters>
            <DistanceMeters>NAN</DistanceMeters>
          </Trackpoint>
          <Trackpoint>
            <Time>2020-05-25T05:57:47.000Z</Time>
            <Position>
              <LatitudeDegrees>38.22148642502725124359130859375</LatitudeDegrees>
              <LongitudeDegrees>-1.17302044294774532318115234375</LongitudeDegrees>
            </Position>
            <AltitudeMeters>407.600006103515625</AltitudeMeters>
            <DistanceMeters>NAN</DistanceMeters>
          </Trackpoint>
          <Trackpoint>
            <Time>2020-05-25T05:57:48.000Z</Time>
            <Position>
              <LatitudeDegrees>38.22152297012507915496826171875</LatitudeDegrees>
              <LongitudeDegrees>-1.17304005660116672515869140625</LongitudeDegrees>
            </Position>
            <AltitudeMeters>408</AltitudeMeters>
            <DistanceMeters>NAN</DistanceMeters>
          </Trackpoint>
          <Trackpoint>
            <Time>2020-05-25T05:57:49.000Z</Time>
            <Position>
              <LatitudeDegrees>38.22155968286097049713134765625</LatitudeDegrees>
              <LongitudeDegrees>-1.1730599217116832733154296875</LongitudeDegrees>
            </Position>
            <AltitudeMeters>408.20001220703125</AltitudeMeters>
            <DistanceMeters>NAN</DistanceMeters>
          </Trackpoint>
          <Trackpoint>
            <Time>2020-05-25T05:57:50.000Z</Time>
            <Position>
              <LatitudeDegrees>38.221631683409214019775390625</LatitudeDegrees>
              <LongitudeDegrees>-1.1731008253991603851318359375</LongitudeDegrees>
            </Position>
            <AltitudeMeters>408.399993896484375</AltitudeMeters>
            <DistanceMeters>NAN</DistanceMeters>
          </Trackpoint>
          <Trackpoint>
            <Time>2020-05-25T05:57:51.000Z</Time>
            <Position>
              <LatitudeDegrees>38.221631683409214019775390625</LatitudeDegrees>
              <LongitudeDegrees>-1.1731008253991603851318359375</LongitudeDegrees>
            </Position>
            <AltitudeMeters>408.600006103515625</AltitudeMeters>
            <DistanceMeters>NAN</DistanceMeters>
          </Trackpoint>
          <Trackpoint>
            <Time>2020-05-25T05:57:52.000Z</Time>
            <Position>
              <LatitudeDegrees>38.22166646830737590789794921875</LatitudeDegrees>
              <LongitudeDegrees>-1.17312236689031124114990234375</LongitudeDegrees>
            </Position>
            <AltitudeMeters>408.79998779296875</AltitudeMeters>
            <DistanceMeters>NAN</DistanceMeters>
          </Trackpoint>
          <Trackpoint>
            <Time>2020-05-25T05:57:53.000Z</Time>
            <Position>
              <LatitudeDegrees>38.22170049883425235748291015625</LatitudeDegrees>
              <LongitudeDegrees>-1.1731444112956523895263671875</LongitudeDegrees>
            </Position>
            <AltitudeMeters>409.20001220703125</AltitudeMeters>
            <DistanceMeters>NAN</DistanceMeters>
          </Trackpoint>
          <Trackpoint>
            <Time>2020-05-25T05:57:54.000Z</Time>
            <Position>
              <LatitudeDegrees>38.2217649556696414947509765625</LatitudeDegrees>
              <LongitudeDegrees>-1.17319294251501560211181640625</LongitudeDegrees>
            </Position>
            <AltitudeMeters>409.600006103515625</AltitudeMeters>
            <DistanceMeters>NAN</DistanceMeters>
          </Trackpoint>
          <Trackpoint>
            <Time>2020-05-25T05:57:55.000Z</Time>
            <Position>
              <LatitudeDegrees>38.2217649556696414947509765625</LatitudeDegrees>
              <LongitudeDegrees>-1.17319294251501560211181640625</LongitudeDegrees>
            </Position>
            <AltitudeMeters>409.600006103515625</AltitudeMeters>
            <DistanceMeters>NAN</DistanceMeters>
          </Trackpoint>
          <Trackpoint>
            <Time>2020-05-25T05:57:56.000Z</Time>
            <Position>
              <LatitudeDegrees>38.22179739363491535186767578125</LatitudeDegrees>
              <LongitudeDegrees>-1.17321691475808620452880859375</LongitudeDegrees>
            </Position>
            <AltitudeMeters>410</AltitudeMeters>
            <DistanceMeters>NAN</DistanceMeters>
          </Trackpoint>
          <Trackpoint>
            <Time>2020-05-25T05:57:57.000Z</Time>
            <Position>
              <LatitudeDegrees>38.221829831600189208984375</LatitudeDegrees>
              <LongitudeDegrees>-1.1732409708201885223388671875</LongitudeDegrees>
            </Position>
            <AltitudeMeters>410.20001220703125</AltitudeMeters>
            <DistanceMeters>NAN</DistanceMeters>
          </Trackpoint>
          <Trackpoint>
            <Time>2020-05-25T05:57:58.000Z</Time>
            <Position>
              <LatitudeDegrees>38.2218598388135433197021484375</LatitudeDegrees>
              <LongitudeDegrees>-1.17326921783387660980224609375</LongitudeDegrees>
            </Position>
            <AltitudeMeters>410.600006103515625</AltitudeMeters>
            <DistanceMeters>NAN</DistanceMeters>
          </Trackpoint>
          <Trackpoint>
            <Time>2020-05-25T05:57:59.000Z</Time>
            <Position>
              <LatitudeDegrees>38.22188707999885082244873046875</LatitudeDegrees>
              <LongitudeDegrees>-1.1733014881610870361328125</LongitudeDegrees>
            </Position>
            <AltitudeMeters>410.79998779296875</AltitudeMeters>
            <DistanceMeters>NAN</DistanceMeters>
          </Trackpoint>
          <Trackpoint>
            <Time>2020-05-25T05:58:00.000Z</Time>
            <Position>
              <LatitudeDegrees>38.22193720377981662750244140625</LatitudeDegrees>
              <LongitudeDegrees>-1.17337499745190143585205078125</LongitudeDegrees>
            </Position>
            <AltitudeMeters>410.79998779296875</AltitudeMeters>
            <DistanceMeters>NAN</DistanceMeters>
          </Trackpoint>
          <Trackpoint>
            <Time>2020-05-25T05:58:01.000Z</Time>
            <Position>
              <LatitudeDegrees>38.22193720377981662750244140625</LatitudeDegrees>
              <LongitudeDegrees>-1.17337499745190143585205078125</LongitudeDegrees>
            </Position>
            <AltitudeMeters>411</AltitudeMeters>
            <DistanceMeters>NAN</DistanceMeters>
          </Trackpoint>
          <Trackpoint>
            <Time>2020-05-25T05:58:02.000Z</Time>
            <Position>
              <LatitudeDegrees>38.22196151129901409149169921875</LatitudeDegrees>
              <LongitudeDegrees>-1.1734156496822834014892578125</LongitudeDegrees>
            </Position>
            <AltitudeMeters>411.20001220703125</AltitudeMeters>
            <DistanceMeters>NAN</DistanceMeters>
          </Trackpoint>
          <Trackpoint>
            <Time>2020-05-25T05:58:03.000Z</Time>
            <Position>
              <LatitudeDegrees>38.22198414243757724761962890625</LatitudeDegrees>
              <LongitudeDegrees>-1.1734575591981410980224609375</LongitudeDegrees>
            </Position>
            <AltitudeMeters>411.399993896484375</AltitudeMeters>
            <DistanceMeters>NAN</DistanceMeters>
          </Trackpoint>
          <Trackpoint>
            <Time>2020-05-25T05:58:04.000Z</Time>
            <Position>
              <LatitudeDegrees>38.22200509719550609588623046875</LatitudeDegrees>
              <LongitudeDegrees>-1.17350072599947452545166015625</LongitudeDegrees>
            </Position>
            <AltitudeMeters>411.79998779296875</AltitudeMeters>
            <DistanceMeters>NAN</DistanceMeters>
          </Trackpoint>
          <Trackpoint>
            <Time>2020-05-25T05:58:05.000Z</Time>
            <Position>
              <LatitudeDegrees>38.22202605195343494415283203125</LatitudeDegrees>
              <LongitudeDegrees>-1.1735455691814422607421875</LongitudeDegrees>
            </Position>
            <AltitudeMeters>411.79998779296875</AltitudeMeters>
            <DistanceMeters>NAN</DistanceMeters>
          </Trackpoint>
          <Trackpoint>
            <Time>2020-05-25T05:58:06.000Z</Time>
            <Position>
              <LatitudeDegrees>38.22204549796879291534423828125</LatitudeDegrees>
              <LongitudeDegrees>-1.17359342984855175018310546875</LongitudeDegrees>
            </Position>
            <AltitudeMeters>412</AltitudeMeters>
            <DistanceMeters>NAN</DistanceMeters>
          </Trackpoint>
          <Trackpoint>
            <Time>2020-05-25T05:58:07.000Z</Time>
            <Position>
              <LatitudeDegrees>38.2220616750419139862060546875</LatitudeDegrees>
              <LongitudeDegrees>-1.17364355362951755523681640625</LongitudeDegrees>
            </Position>
            <AltitudeMeters>412.20001220703125</AltitudeMeters>
            <DistanceMeters>NAN</DistanceMeters>
          </Trackpoint>
          <Trackpoint>
            <Time>2020-05-25T05:58:08.000Z</Time>
            <Position>
              <LatitudeDegrees>38.22207567282021045684814453125</LatitudeDegrees>
              <LongitudeDegrees>-1.17369510233402252197265625</LongitudeDegrees>
            </Position>
            <AltitudeMeters>412.399993896484375</AltitudeMeters>
            <DistanceMeters>NAN</DistanceMeters>
          </Trackpoint>
          <Trackpoint>
            <Time>2020-05-25T05:58:09.000Z</Time>
            <Position>
              <LatitudeDegrees>38.22208975441753864288330078125</LatitudeDegrees>
              <LongitudeDegrees>-1.1737472377717494964599609375</LongitudeDegrees>
            </Position>
            <AltitudeMeters>412.600006103515625</AltitudeMeters>
            <DistanceMeters>NAN</DistanceMeters>
          </Trackpoint>
          <Trackpoint>
            <Time>2020-05-25T05:58:10.000Z</Time>
            <Position>
              <LatitudeDegrees>38.2221042551100254058837890625</LatitudeDegrees>
              <LongitudeDegrees>-1.173799037933349609375</LongitudeDegrees>
            </Position>
            <AltitudeMeters>412.79998779296875</AltitudeMeters>
            <DistanceMeters>NAN</DistanceMeters>
          </Trackpoint>
          <Trackpoint>
            <Time>2020-05-25T05:58:11.000Z</Time>
            <Position>
              <LatitudeDegrees>38.222119510173797607421875</LatitudeDegrees>
              <LongitudeDegrees>-1.173851005733013153076171875</LongitudeDegrees>
            </Position>
            <AltitudeMeters>412.79998779296875</AltitudeMeters>
            <DistanceMeters>NAN</DistanceMeters>
          </Trackpoint>
          <Trackpoint>
            <Time>2020-05-25T05:58:12.000Z</Time>
            <Position>
              <LatitudeDegrees>38.22215094231069087982177734375</LatitudeDegrees>
              <LongitudeDegrees>-1.1739534325897693634033203125</LongitudeDegrees>
            </Position>
            <AltitudeMeters>413</AltitudeMeters>
            <DistanceMeters>NAN</DistanceMeters>
          </Trackpoint>
          <Trackpoint>
            <Time>2020-05-25T05:58:13.000Z</Time>
            <Position>
              <LatitudeDegrees>38.22215094231069087982177734375</LatitudeDegrees>
              <LongitudeDegrees>-1.1739534325897693634033203125</LongitudeDegrees>
            </Position>
            <AltitudeMeters>413</AltitudeMeters>
            <DistanceMeters>NAN</DistanceMeters>
          </Trackpoint>
          <Trackpoint>
            <Time>2020-05-25T05:58:14.000Z</Time>
            <Position>
              <LatitudeDegrees>38.22217055596411228179931640625</LatitudeDegrees>
              <LongitudeDegrees>-1.17400196380913257598876953125</LongitudeDegrees>
            </Position>
            <AltitudeMeters>413.20001220703125</AltitudeMeters>
            <DistanceMeters>NAN</DistanceMeters>
          </Trackpoint>
          <Trackpoint>
            <Time>2020-05-25T05:58:15.000Z</Time>
            <Position>
              <LatitudeDegrees>38.2221941091120243072509765625</LatitudeDegrees>
              <LongitudeDegrees>-1.1740486510097980499267578125</LongitudeDegrees>
            </Position>
            <AltitudeMeters>413.20001220703125</AltitudeMeters>
            <DistanceMeters>NAN</DistanceMeters>
          </Trackpoint>
          <Trackpoint>
            <Time>2020-05-25T05:58:16.000Z</Time>
            <Position>
              <LatitudeDegrees>38.22222067974507808685302734375</LatitudeDegrees>
              <LongitudeDegrees>-1.17409416474401950836181640625</LongitudeDegrees>
            </Position>
            <AltitudeMeters>413.20001220703125</AltitudeMeters>
            <DistanceMeters>NAN</DistanceMeters>
          </Trackpoint>
          <Trackpoint>
            <Time>2020-05-25T05:58:17.000Z</Time>
            <Position>
              <LatitudeDegrees>38.2222494296729564666748046875</LatitudeDegrees>
              <LongitudeDegrees>-1.1741383373737335205078125</LongitudeDegrees>
            </Position>
            <AltitudeMeters>413.399993896484375</AltitudeMeters>
            <DistanceMeters>NAN</DistanceMeters>
          </Trackpoint>
          <Trackpoint>
            <Time>2020-05-25T05:58:18.000Z</Time>
            <Position>
              <LatitudeDegrees>38.222312293946743011474609375</LatitudeDegrees>
              <LongitudeDegrees>-1.17421905510127544403076171875</LongitudeDegrees>
            </Position>
            <AltitudeMeters>413.399993896484375</AltitudeMeters>
            <DistanceMeters>NAN</DistanceMeters>
          </Trackpoint>
          <Trackpoint>
            <Time>2020-05-25T05:58:19.000Z</Time>
            <Position>
              <LatitudeDegrees>38.222312293946743011474609375</LatitudeDegrees>
              <LongitudeDegrees>-1.17421905510127544403076171875</LongitudeDegrees>
            </Position>
            <AltitudeMeters>413.600006103515625</AltitudeMeters>
            <DistanceMeters>NAN</DistanceMeters>
          </Trackpoint>
          <Trackpoint>
            <Time>2020-05-25T05:58:20.000Z</Time>
            <Position>
              <LatitudeDegrees>38.22238211520016193389892578125</LatitudeDegrees>
              <LongitudeDegrees>-1.174285523593425750732421875</LongitudeDegrees>
            </Position>
            <AltitudeMeters>413.600006103515625</AltitudeMeters>
            <DistanceMeters>NAN</DistanceMeters>
          </Trackpoint>
          <Trackpoint>
            <Time>2020-05-25T05:58:21.000Z</Time>
            <Position>
              <LatitudeDegrees>38.22238211520016193389892578125</LatitudeDegrees>
              <LongitudeDegrees>-1.174285523593425750732421875</LongitudeDegrees>
            </Position>
            <AltitudeMeters>413.79998779296875</AltitudeMeters>
            <DistanceMeters>NAN</DistanceMeters>
          </Trackpoint>
          <Trackpoint>
            <Time>2020-05-25T05:58:22.000Z</Time>
            <Position>
              <LatitudeDegrees>38.22241924703121185302734375</LatitudeDegrees>
              <LongitudeDegrees>-1.1743128485977649688720703125</LongitudeDegrees>
            </Position>
            <AltitudeMeters>413.79998779296875</AltitudeMeters>
            <DistanceMeters>NAN</DistanceMeters>
          </Trackpoint>
          <Trackpoint>
            <Time>2020-05-25T05:58:23.000Z</Time>
            <Position>
              <LatitudeDegrees>38.22245671413838863372802734375</LatitudeDegrees>
              <LongitudeDegrees>-1.174338161945343017578125</LongitudeDegrees>
            </Position>
            <AltitudeMeters>414</AltitudeMeters>
            <DistanceMeters>NAN</DistanceMeters>
          </Trackpoint>
          <Trackpoint>
            <Time>2020-05-25T05:58:24.000Z</Time>
            <Position>
              <LatitudeDegrees>38.22252997197210788726806640625</LatitudeDegrees>
              <LongitudeDegrees>-1.1743812449276447296142578125</LongitudeDegrees>
            </Position>
            <AltitudeMeters>414.20001220703125</AltitudeMeters>
            <DistanceMeters>NAN</DistanceMeters>
          </Trackpoint>
          <Trackpoint>
            <Time>2020-05-25T05:58:25.000Z</Time>
            <Position>
              <LatitudeDegrees>38.22252997197210788726806640625</LatitudeDegrees>
              <LongitudeDegrees>-1.1743812449276447296142578125</LongitudeDegrees>
            </Position>
            <AltitudeMeters>414.20001220703125</AltitudeMeters>
            <DistanceMeters>NAN</DistanceMeters>
          </Trackpoint>
          <Trackpoint>
            <Time>2020-05-25T05:58:26.000Z</Time>
            <Position>
              <LatitudeDegrees>38.22256743907928466796875</LatitudeDegrees>
              <LongitudeDegrees>-1.17439893074333667755126953125</LongitudeDegrees>
            </Position>
            <AltitudeMeters>414.399993896484375</AltitudeMeters>
            <DistanceMeters>NAN</DistanceMeters>
          </Trackpoint>
          <Trackpoint>
            <Time>2020-05-25T05:58:27.000Z</Time>
            <Position>
              <LatitudeDegrees>38.22260557673871517181396484375</LatitudeDegrees>
              <LongitudeDegrees>-1.174418963491916656494140625</LongitudeDegrees>
            </Position>
            <AltitudeMeters>414.600006103515625</AltitudeMeters>
            <DistanceMeters>NAN</DistanceMeters>
          </Trackpoint>
          <Trackpoint>
            <Time>2020-05-25T05:58:28.000Z</Time>
            <Position>
              <LatitudeDegrees>38.22264296002686023712158203125</LatitudeDegrees>
              <LongitudeDegrees>-1.1744387447834014892578125</LongitudeDegrees>
            </Position>
            <AltitudeMeters>414.79998779296875</AltitudeMeters>
            <DistanceMeters>NAN</DistanceMeters>
          </Trackpoint>
          <Trackpoint>
            <Time>2020-05-25T05:58:29.000Z</Time>
            <Position>
              <LatitudeDegrees>38.22268084622919559478759765625</LatitudeDegrees>
              <LongitudeDegrees>-1.1744613759219646453857421875</LongitudeDegrees>
            </Position>
            <AltitudeMeters>414.79998779296875</AltitudeMeters>
            <DistanceMeters>NAN</DistanceMeters>
          </Trackpoint>
          <Trackpoint>
            <Time>2020-05-25T05:58:30.000Z</Time>
            <Position>
              <LatitudeDegrees>38.22271940298378467559814453125</LatitudeDegrees>
              <LongitudeDegrees>-1.17448576726019382476806640625</LongitudeDegrees>
            </Position>
            <AltitudeMeters>415</AltitudeMeters>
            <DistanceMeters>NAN</DistanceMeters>
          </Trackpoint>
          <Trackpoint>
            <Time>2020-05-25T05:58:31.000Z</Time>
            <Position>
              <LatitudeDegrees>38.22275779210031032562255859375</LatitudeDegrees>
              <LongitudeDegrees>-1.17450915277004241943359375</LongitudeDegrees>
            </Position>
            <AltitudeMeters>415.20001220703125</AltitudeMeters>
            <DistanceMeters>NAN</DistanceMeters>
          </Trackpoint>
          <Trackpoint>
            <Time>2020-05-25T05:58:32.000Z</Time>
            <Position>
              <LatitudeDegrees>38.22279651649296283721923828125</LatitudeDegrees>
              <LongitudeDegrees>-1.17453220300376415252685546875</LongitudeDegrees>
            </Position>
            <AltitudeMeters>415.399993896484375</AltitudeMeters>
            <DistanceMeters>NAN</DistanceMeters>
          </Trackpoint>
          <Trackpoint>
            <Time>2020-05-25T05:58:33.000Z</Time>
            <Position>
              <LatitudeDegrees>38.22283490560948848724365234375</LatitudeDegrees>
              <LongitudeDegrees>-1.1745555885136127471923828125</LongitudeDegrees>
            </Position>
            <AltitudeMeters>415.399993896484375</AltitudeMeters>
            <DistanceMeters>NAN</DistanceMeters>
          </Trackpoint>
          <Trackpoint>
            <Time>2020-05-25T05:58:34.000Z</Time>
            <Position>
              <LatitudeDegrees>38.2228723727166652679443359375</LatitudeDegrees>
              <LongitudeDegrees>-1.17458132095634937286376953125</LongitudeDegrees>
            </Position>
            <AltitudeMeters>415.79998779296875</AltitudeMeters>
            <DistanceMeters>NAN</DistanceMeters>
          </Trackpoint>
          <Trackpoint>
            <Time>2020-05-25T05:58:35.000Z</Time>
            <Position>
              <LatitudeDegrees>38.2229092530906200408935546875</LatitudeDegrees>
              <LongitudeDegrees>-1.17460839450359344482421875</LongitudeDegrees>
            </Position>
            <AltitudeMeters>416.20001220703125</AltitudeMeters>
            <DistanceMeters>NAN</DistanceMeters>
          </Trackpoint>
          <Trackpoint>
            <Time>2020-05-25T05:58:36.000Z</Time>
            <Position>
              <LatitudeDegrees>38.22294604964554309844970703125</LatitudeDegrees>
              <LongitudeDegrees>-1.17463546805083751678466796875</LongitudeDegrees>
            </Position>
            <AltitudeMeters>416.399993896484375</AltitudeMeters>
            <DistanceMeters>NAN</DistanceMeters>
          </Trackpoint>
          <Trackpoint>
            <Time>2020-05-25T05:58:37.000Z</Time>
            <Position>
              <LatitudeDegrees>38.22298393584787845611572265625</LatitudeDegrees>
              <LongitudeDegrees>-1.17466296069324016571044921875</LongitudeDegrees>
            </Position>
            <AltitudeMeters>416.399993896484375</AltitudeMeters>
            <DistanceMeters>NAN</DistanceMeters>
          </Trackpoint>
          <Trackpoint>
            <Time>2020-05-25T05:58:38.000Z</Time>
            <Position>
              <LatitudeDegrees>38.2230215705931186676025390625</LatitudeDegrees>
              <LongitudeDegrees>-1.17469011805951595306396484375</LongitudeDegrees>
            </Position>
            <AltitudeMeters>416.600006103515625</AltitudeMeters>
            <DistanceMeters>NAN</DistanceMeters>
          </Trackpoint>
          <Trackpoint>
            <Time>2020-05-25T05:58:39.000Z</Time>
            <Position>
              <LatitudeDegrees>38.22305803187191486358642578125</LatitudeDegrees>
              <LongitudeDegrees>-1.17471794597804546356201171875</LongitudeDegrees>
            </Position>
            <AltitudeMeters>416.79998779296875</AltitudeMeters>
            <DistanceMeters>NAN</DistanceMeters>
          </Trackpoint>
          <Trackpoint>
            <Time>2020-05-25T05:58:40.000Z</Time>
            <Position>
              <LatitudeDegrees>38.22309424169361591339111328125</LatitudeDegrees>
              <LongitudeDegrees>-1.17474694736301898956298828125</LongitudeDegrees>
            </Position>
            <AltitudeMeters>416.79998779296875</AltitudeMeters>
            <DistanceMeters>NAN</DistanceMeters>
          </Trackpoint>
          <Trackpoint>
            <Time>2020-05-25T05:58:41.000Z</Time>
            <Position>
              <LatitudeDegrees>38.22313095442950725555419921875</LatitudeDegrees>
              <LongitudeDegrees>-1.17477628402411937713623046875</LongitudeDegrees>
            </Position>
            <AltitudeMeters>417</AltitudeMeters>
            <DistanceMeters>NAN</DistanceMeters>
          </Trackpoint>
          <Trackpoint>
            <Time>2020-05-25T05:58:42.000Z</Time>
            <Position>
              <LatitudeDegrees>38.223167918622493743896484375</LatitudeDegrees>
              <LongitudeDegrees>-1.1748040281236171722412109375</LongitudeDegrees>
            </Position>
            <AltitudeMeters>417.20001220703125</AltitudeMeters>
            <DistanceMeters>NAN</DistanceMeters>
          </Trackpoint>
          <Trackpoint>
            <Time>2020-05-25T05:58:43.000Z</Time>
            <Position>
              <LatitudeDegrees>38.2232053019106388092041015625</LatitudeDegrees>
              <LongitudeDegrees>-1.174830682575702667236328125</LongitudeDegrees>
            </Position>
            <AltitudeMeters>417.399993896484375</AltitudeMeters>
            <DistanceMeters>NAN</DistanceMeters>
          </Trackpoint>
          <Trackpoint>
            <Time>2020-05-25T05:58:44.000Z</Time>
            <Position>
              <LatitudeDegrees>38.22324193082749843597412109375</LatitudeDegrees>
              <LongitudeDegrees>-1.17485775612294673919677734375</LongitudeDegrees>
            </Position>
            <AltitudeMeters>417.600006103515625</AltitudeMeters>
            <DistanceMeters>NAN</DistanceMeters>
          </Trackpoint>
          <Trackpoint>
            <Time>2020-05-25T05:58:45.000Z</Time>
            <Position>
              <LatitudeDegrees>38.22327780537307262420654296875</LatitudeDegrees>
              <LongitudeDegrees>-1.1748866736888885498046875</LongitudeDegrees>
            </Position>
            <AltitudeMeters>417.79998779296875</AltitudeMeters>
            <DistanceMeters>NAN</DistanceMeters>
          </Trackpoint>
          <Trackpoint>
            <Time>2020-05-25T05:58:46.000Z</Time>
            <Position>
              <LatitudeDegrees>38.22331401519477367401123046875</LatitudeDegrees>
              <LongitudeDegrees>-1.17491626180708408355712890625</LongitudeDegrees>
            </Position>
            <AltitudeMeters>418.20001220703125</AltitudeMeters>
            <DistanceMeters>NAN</DistanceMeters>
          </Trackpoint>
          <Trackpoint>
            <Time>2020-05-25T05:58:47.000Z</Time>
            <Position>
              <LatitudeDegrees>38.2233508117496967315673828125</LatitudeDegrees>
              <LongitudeDegrees>-1.17494509555399417877197265625</LongitudeDegrees>
            </Position>
            <AltitudeMeters>418.399993896484375</AltitudeMeters>
            <DistanceMeters>NAN</DistanceMeters>
          </Trackpoint>
          <Trackpoint>
            <Time>2020-05-25T05:58:48.000Z</Time>
            <Position>
              <LatitudeDegrees>38.22338744066655635833740234375</LatitudeDegrees>
              <LongitudeDegrees>-1.17497426457703113555908203125</LongitudeDegrees>
            </Position>
            <AltitudeMeters>418.399993896484375</AltitudeMeters>
            <DistanceMeters>NAN</DistanceMeters>
          </Trackpoint>
          <Trackpoint>
            <Time>2020-05-25T05:58:49.000Z</Time>
            <Position>
              <LatitudeDegrees>38.22342499159276485443115234375</LatitudeDegrees>
              <LongitudeDegrees>-1.17500326596200466156005859375</LongitudeDegrees>
            </Position>
            <AltitudeMeters>418.600006103515625</AltitudeMeters>
            <DistanceMeters>NAN</DistanceMeters>
          </Trackpoint>
          <Trackpoint>
            <Time>2020-05-25T05:58:50.000Z</Time>
            <Position>
              <LatitudeDegrees>38.22350059635937213897705078125</LatitudeDegrees>
              <LongitudeDegrees>-1.17506193928420543670654296875</LongitudeDegrees>
            </Position>
            <AltitudeMeters>418.79998779296875</AltitudeMeters>
            <DistanceMeters>NAN</DistanceMeters>
          </Trackpoint>
          <Trackpoint>
            <Time>2020-05-25T05:58:51.000Z</Time>
            <Position>
              <LatitudeDegrees>38.22350059635937213897705078125</LatitudeDegrees>
              <LongitudeDegrees>-1.17506193928420543670654296875</LongitudeDegrees>
            </Position>
            <AltitudeMeters>419</AltitudeMeters>
            <DistanceMeters>NAN</DistanceMeters>
          </Trackpoint>
          <Trackpoint>
            <Time>2020-05-25T05:58:52.000Z</Time>
            <Position>
              <LatitudeDegrees>38.2235378958284854888916015625</LatitudeDegrees>
              <LongitudeDegrees>-1.175091527402400970458984375</LongitudeDegrees>
            </Position>
            <AltitudeMeters>419.20001220703125</AltitudeMeters>
            <DistanceMeters>NAN</DistanceMeters>
          </Trackpoint>
          <Trackpoint>
            <Time>2020-05-25T05:58:53.000Z</Time>
            <Position>
              <LatitudeDegrees>38.2235751114785671234130859375</LatitudeDegrees>
              <LongitudeDegrees>-1.17512027733027935028076171875</LongitudeDegrees>
            </Position>
            <AltitudeMeters>419.399993896484375</AltitudeMeters>
            <DistanceMeters>NAN</DistanceMeters>
          </Trackpoint>
          <Trackpoint>
            <Time>2020-05-25T05:58:54.000Z</Time>
            <Position>
              <LatitudeDegrees>38.22361148893833160400390625</LatitudeDegrees>
              <LongitudeDegrees>-1.17514944635331630706787109375</LongitudeDegrees>
            </Position>
            <AltitudeMeters>419.600006103515625</AltitudeMeters>
            <DistanceMeters>NAN</DistanceMeters>
          </Trackpoint>
          <Trackpoint>
            <Time>2020-05-25T05:58:55.000Z</Time>
            <Position>
              <LatitudeDegrees>38.2236470282077789306640625</LatitudeDegrees>
              <LongitudeDegrees>-1.17517911829054355621337890625</LongitudeDegrees>
            </Position>
            <AltitudeMeters>419.600006103515625</AltitudeMeters>
            <DistanceMeters>NAN</DistanceMeters>
          </Trackpoint>
          <Trackpoint>
            <Time>2020-05-25T05:58:56.000Z</Time>
            <Position>
              <LatitudeDegrees>38.2236827351152896881103515625</LatitudeDegrees>
              <LongitudeDegrees>-1.1752080358564853668212890625</LongitudeDegrees>
            </Position>
            <AltitudeMeters>419.600006103515625</AltitudeMeters>
            <DistanceMeters>NAN</DistanceMeters>
          </Trackpoint>
          <Trackpoint>
            <Time>2020-05-25T05:58:57.000Z</Time>
            <Position>
              <LatitudeDegrees>38.2237182743847370147705078125</LatitudeDegrees>
              <LongitudeDegrees>-1.17523603141307830810546875</LongitudeDegrees>
            </Position>
            <AltitudeMeters>419.79998779296875</AltitudeMeters>
            <DistanceMeters>NAN</DistanceMeters>
          </Trackpoint>
          <Trackpoint>
            <Time>2020-05-25T05:58:58.000Z</Time>
            <Position>
              <LatitudeDegrees>38.22375322692096233367919921875</LatitudeDegrees>
              <LongitudeDegrees>-1.17526511661708354949951171875</LongitudeDegrees>
            </Position>
            <AltitudeMeters>420</AltitudeMeters>
            <DistanceMeters>NAN</DistanceMeters>
          </Trackpoint>
          <Trackpoint>
            <Time>2020-05-25T05:58:59.000Z</Time>
            <Position>
              <LatitudeDegrees>38.22378776036202907562255859375</LatitudeDegrees>
              <LongitudeDegrees>-1.175295375287532806396484375</LongitudeDegrees>
            </Position>
            <AltitudeMeters>420.20001220703125</AltitudeMeters>
            <DistanceMeters>NAN</DistanceMeters>
          </Trackpoint>
          <Trackpoint>
            <Time>2020-05-25T05:59:00.000Z</Time>
            <Position>
              <LatitudeDegrees>38.22385850362479686737060546875</LatitudeDegrees>
              <LongitudeDegrees>-1.17535178549587726593017578125</LongitudeDegrees>
            </Position>
            <AltitudeMeters>420.20001220703125</AltitudeMeters>
            <DistanceMeters>NAN</DistanceMeters>
          </Trackpoint>
          <Trackpoint>
            <Time>2020-05-25T05:59:01.000Z</Time>
            <Position>
              <LatitudeDegrees>38.22385850362479686737060546875</LatitudeDegrees>
              <LongitudeDegrees>-1.17535178549587726593017578125</LongitudeDegrees>
            </Position>
            <AltitudeMeters>420.399993896484375</AltitudeMeters>
            <DistanceMeters>NAN</DistanceMeters>
          </Trackpoint>
          <Trackpoint>
            <Time>2020-05-25T05:59:02.000Z</Time>
            <Position>
              <LatitudeDegrees>38.2238936237990856170654296875</LatitudeDegrees>
              <LongitudeDegrees>-1.175380535423755645751953125</LongitudeDegrees>
            </Position>
            <AltitudeMeters>420.399993896484375</AltitudeMeters>
            <DistanceMeters>NAN</DistanceMeters>
          </Trackpoint>
          <Trackpoint>
            <Time>2020-05-25T05:59:03.000Z</Time>
            <Position>
              <LatitudeDegrees>38.22392807342112064361572265625</LatitudeDegrees>
              <LongitudeDegrees>-1.175410710275173187255859375</LongitudeDegrees>
            </Position>
            <AltitudeMeters>420.600006103515625</AltitudeMeters>
            <DistanceMeters>NAN</DistanceMeters>
          </Trackpoint>
          <Trackpoint>
            <Time>2020-05-25T05:59:04.000Z</Time>
            <Position>
              <LatitudeDegrees>38.22396093048155307769775390625</LatitudeDegrees>
              <LongitudeDegrees>-1.1754433996975421905517578125</LongitudeDegrees>
            </Position>
            <AltitudeMeters>420.79998779296875</AltitudeMeters>
            <DistanceMeters>NAN</DistanceMeters>
          </Trackpoint>
          <Trackpoint>
            <Time>2020-05-25T05:59:05.000Z</Time>
            <Position>
              <LatitudeDegrees>38.22399244643747806549072265625</LatitudeDegrees>
              <LongitudeDegrees>-1.17547801695764064788818359375</LongitudeDegrees>
            </Position>
            <AltitudeMeters>421</AltitudeMeters>
            <DistanceMeters>NAN</DistanceMeters>
          </Trackpoint>
          <Trackpoint>
            <Time>2020-05-25T05:59:06.000Z</Time>
            <Position>
              <LatitudeDegrees>38.22405111975967884063720703125</LatitudeDegrees>
              <LongitudeDegrees>-1.17555119097232818603515625</LongitudeDegrees>
            </Position>
            <AltitudeMeters>421</AltitudeMeters>
            <DistanceMeters>NAN</DistanceMeters>
          </Trackpoint>
          <Trackpoint>
            <Time>2020-05-25T05:59:07.000Z</Time>
            <Position>
              <LatitudeDegrees>38.22405111975967884063720703125</LatitudeDegrees>
              <LongitudeDegrees>-1.17555119097232818603515625</LongitudeDegrees>
            </Position>
            <AltitudeMeters>421.20001220703125</AltitudeMeters>
            <DistanceMeters>NAN</DistanceMeters>
          </Trackpoint>
          <Trackpoint>
            <Time>2020-05-25T05:59:08.000Z</Time>
            <Position>
              <LatitudeDegrees>38.22410241700708866119384765625</LatitudeDegrees>
              <LongitudeDegrees>-1.1756378598511219024658203125</LongitudeDegrees>
            </Position>
            <AltitudeMeters>421.399993896484375</AltitudeMeters>
            <DistanceMeters>NAN</DistanceMeters>
          </Trackpoint>
          <Trackpoint>
            <Time>2020-05-25T05:59:09.000Z</Time>
            <Position>
              <LatitudeDegrees>38.22410241700708866119384765625</LatitudeDegrees>
              <LongitudeDegrees>-1.1756378598511219024658203125</LongitudeDegrees>
            </Position>
            <AltitudeMeters>421.600006103515625</AltitudeMeters>
            <DistanceMeters>NAN</DistanceMeters>
          </Trackpoint>
          <Trackpoint>
            <Time>2020-05-25T05:59:10.000Z</Time>
            <Position>
              <LatitudeDegrees>38.2241271436214447021484375</LatitudeDegrees>
              <LongitudeDegrees>-1.1756834574043750762939453125</LongitudeDegrees>
            </Position>
            <AltitudeMeters>421.79998779296875</AltitudeMeters>
            <DistanceMeters>NAN</DistanceMeters>
          </Trackpoint>
          <Trackpoint>
            <Time>2020-05-25T05:59:11.000Z</Time>
            <Position>
              <LatitudeDegrees>38.22415086440742015838623046875</LatitudeDegrees>
              <LongitudeDegrees>-1.175730563700199127197265625</LongitudeDegrees>
            </Position>
            <AltitudeMeters>421.79998779296875</AltitudeMeters>
            <DistanceMeters>NAN</DistanceMeters>
          </Trackpoint>
          <Trackpoint>
            <Time>2020-05-25T05:59:12.000Z</Time>
            <Position>
              <LatitudeDegrees>38.22419243864715099334716796875</LatitudeDegrees>
              <LongitudeDegrees>-1.17582955397665500640869140625</LongitudeDegrees>
            </Position>
            <AltitudeMeters>422.20001220703125</AltitudeMeters>
            <DistanceMeters>NAN</DistanceMeters>
          </Trackpoint>
          <Trackpoint>
            <Time>2020-05-25T05:59:13.000Z</Time>
            <Position>
              <LatitudeDegrees>38.22419243864715099334716796875</LatitudeDegrees>
              <LongitudeDegrees>-1.17582955397665500640869140625</LongitudeDegrees>
            </Position>
            <AltitudeMeters>422.20001220703125</AltitudeMeters>
            <DistanceMeters>NAN</DistanceMeters>
          </Trackpoint>
          <Trackpoint>
            <Time>2020-05-25T05:59:14.000Z</Time>
            <Position>
              <LatitudeDegrees>38.22423233650624752044677734375</LatitudeDegrees>
              <LongitudeDegrees>-1.17593047209084033966064453125</LongitudeDegrees>
            </Position>
            <AltitudeMeters>422.399993896484375</AltitudeMeters>
            <DistanceMeters>NAN</DistanceMeters>
          </Trackpoint>
          <Trackpoint>
            <Time>2020-05-25T05:59:15.000Z</Time>
            <Position>
              <LatitudeDegrees>38.22423233650624752044677734375</LatitudeDegrees>
              <LongitudeDegrees>-1.17593047209084033966064453125</LongitudeDegrees>
            </Position>
            <AltitudeMeters>422.399993896484375</AltitudeMeters>
            <DistanceMeters>NAN</DistanceMeters>
          </Trackpoint>
          <Trackpoint>
            <Time>2020-05-25T05:59:16.000Z</Time>
            <Position>
              <LatitudeDegrees>38.2242523692548274993896484375</LatitudeDegrees>
              <LongitudeDegrees>-1.17598034441471099853515625</LongitudeDegrees>
            </Position>
            <AltitudeMeters>422.600006103515625</AltitudeMeters>
            <DistanceMeters>NAN</DistanceMeters>
          </Trackpoint>
          <Trackpoint>
            <Time>2020-05-25T05:59:17.000Z</Time>
            <Position>
              <LatitudeDegrees>38.2242711447179317474365234375</LatitudeDegrees>
              <LongitudeDegrees>-1.1760308034718036651611328125</LongitudeDegrees>
            </Position>
            <AltitudeMeters>422.600006103515625</AltitudeMeters>
            <DistanceMeters>NAN</DistanceMeters>
          </Trackpoint>
          <Trackpoint>
            <Time>2020-05-25T05:59:18.000Z</Time>
            <Position>
              <LatitudeDegrees>38.2243014872074127197265625</LatitudeDegrees>
              <LongitudeDegrees>-1.17613817565143108367919921875</LongitudeDegrees>
            </Position>
            <AltitudeMeters>422.600006103515625</AltitudeMeters>
            <DistanceMeters>NAN</DistanceMeters>
          </Trackpoint>
          <Trackpoint>
            <Time>2020-05-25T05:59:19.000Z</Time>
            <Position>
              <LatitudeDegrees>38.2243014872074127197265625</LatitudeDegrees>
              <LongitudeDegrees>-1.17613817565143108367919921875</LongitudeDegrees>
            </Position>
            <AltitudeMeters>422.79998779296875</AltitudeMeters>
            <DistanceMeters>NAN</DistanceMeters>
          </Trackpoint>
          <Trackpoint>
            <Time>2020-05-25T05:59:20.000Z</Time>
            <Position>
              <LatitudeDegrees>38.22433006949722766876220703125</LatitudeDegrees>
              <LongitudeDegrees>-1.176248900592327117919921875</LongitudeDegrees>
            </Position>
            <AltitudeMeters>423</AltitudeMeters>
            <DistanceMeters>NAN</DistanceMeters>
          </Trackpoint>
          <Trackpoint>
            <Time>2020-05-25T05:59:21.000Z</Time>
            <Position>
              <LatitudeDegrees>38.22433006949722766876220703125</LatitudeDegrees>
              <LongitudeDegrees>-1.176248900592327117919921875</LongitudeDegrees>
            </Position>
            <AltitudeMeters>423.20001220703125</AltitudeMeters>
            <DistanceMeters>NAN</DistanceMeters>
          </Trackpoint>
          <Trackpoint>
            <Time>2020-05-25T05:59:22.000Z</Time>
            <Position>
              <LatitudeDegrees>38.2243435643613338470458984375</LatitudeDegrees>
              <LongitudeDegrees>-1.17630480788648128509521484375</LongitudeDegrees>
            </Position>
            <AltitudeMeters>423.399993896484375</AltitudeMeters>
            <DistanceMeters>NAN</DistanceMeters>
          </Trackpoint>
          <Trackpoint>
            <Time>2020-05-25T05:59:23.000Z</Time>
            <Position>
              <LatitudeDegrees>38.2243569754064083099365234375</LatitudeDegrees>
              <LongitudeDegrees>-1.17636130191385746002197265625</LongitudeDegrees>
            </Position>
            <AltitudeMeters>423.399993896484375</AltitudeMeters>
            <DistanceMeters>NAN</DistanceMeters>
          </Trackpoint>
          <Trackpoint>
            <Time>2020-05-25T05:59:24.000Z</Time>
            <Position>
              <LatitudeDegrees>38.22438664734363555908203125</LatitudeDegrees>
              <LongitudeDegrees>-1.17647479288280010223388671875</LongitudeDegrees>
            </Position>
            <AltitudeMeters>423.600006103515625</AltitudeMeters>
            <DistanceMeters>NAN</DistanceMeters>
          </Trackpoint>
          <Trackpoint>
            <Time>2020-05-25T05:59:25.000Z</Time>
            <Position>
              <LatitudeDegrees>38.22438664734363555908203125</LatitudeDegrees>
              <LongitudeDegrees>-1.17647479288280010223388671875</LongitudeDegrees>
            </Position>
            <AltitudeMeters>423.600006103515625</AltitudeMeters>
            <DistanceMeters>NAN</DistanceMeters>
          </Trackpoint>
          <Trackpoint>
            <Time>2020-05-25T05:59:26.000Z</Time>
            <Position>
              <LatitudeDegrees>38.22442847304046154022216796875</LatitudeDegrees>
              <LongitudeDegrees>-1.176580488681793212890625</LongitudeDegrees>
            </Position>
            <AltitudeMeters>423.600006103515625</AltitudeMeters>
            <DistanceMeters>NAN</DistanceMeters>
          </Trackpoint>
          <Trackpoint>
            <Time>2020-05-25T05:59:27.000Z</Time>
            <Position>
              <LatitudeDegrees>38.22442847304046154022216796875</LatitudeDegrees>
              <LongitudeDegrees>-1.176580488681793212890625</LongitudeDegrees>
            </Position>
            <AltitudeMeters>423.600006103515625</AltitudeMeters>
            <DistanceMeters>NAN</DistanceMeters>
          </Trackpoint>
          <Trackpoint>
            <Time>2020-05-25T05:59:28.000Z</Time>
            <Position>
              <LatitudeDegrees>38.224454037845134735107421875</LatitudeDegrees>
              <LongitudeDegrees>-1.176629103720188140869140625</LongitudeDegrees>
            </Position>
            <AltitudeMeters>423.79998779296875</AltitudeMeters>
            <DistanceMeters>NAN</DistanceMeters>
          </Trackpoint>
          <Trackpoint>
            <Time>2020-05-25T05:59:29.000Z</Time>
            <Position>
              <LatitudeDegrees>38.224482871592044830322265625</LatitudeDegrees>
              <LongitudeDegrees>-1.1766758747398853302001953125</LongitudeDegrees>
            </Position>
            <AltitudeMeters>423.79998779296875</AltitudeMeters>
            <DistanceMeters>NAN</DistanceMeters>
          </Trackpoint>
          <Trackpoint>
            <Time>2020-05-25T05:59:30.000Z</Time>
            <Position>
              <LatitudeDegrees>38.22455185465514659881591796875</LatitudeDegrees>
              <LongitudeDegrees>-1.17676128633320331573486328125</LongitudeDegrees>
            </Position>
            <AltitudeMeters>424</AltitudeMeters>
            <DistanceMeters>NAN</DistanceMeters>
          </Trackpoint>
          <Trackpoint>
            <Time>2020-05-25T05:59:31.000Z</Time>
            <Position>
              <LatitudeDegrees>38.22455185465514659881591796875</LatitudeDegrees>
              <LongitudeDegrees>-1.17676128633320331573486328125</LongitudeDegrees>
            </Position>
            <AltitudeMeters>424</AltitudeMeters>
            <DistanceMeters>NAN</DistanceMeters>
          </Trackpoint>
          <Trackpoint>
            <Time>2020-05-25T05:59:32.000Z</Time>
            <Position>
              <LatitudeDegrees>38.22462142445147037506103515625</LatitudeDegrees>
              <LongitudeDegrees>-1.17684728465974330902099609375</LongitudeDegrees>
            </Position>
            <AltitudeMeters>424</AltitudeMeters>
            <DistanceMeters>NAN</DistanceMeters>
          </Trackpoint>
          <Trackpoint>
            <Time>2020-05-25T05:59:33.000Z</Time>
            <Position>
              <LatitudeDegrees>38.22462142445147037506103515625</LatitudeDegrees>
              <LongitudeDegrees>-1.17684728465974330902099609375</LongitudeDegrees>
            </Position>
            <AltitudeMeters>424</AltitudeMeters>
            <DistanceMeters>NAN</DistanceMeters>
          </Trackpoint>
          <Trackpoint>
            <Time>2020-05-25T05:59:34.000Z</Time>
            <Position>
              <LatitudeDegrees>38.224657215178012847900390625</LatitudeDegrees>
              <LongitudeDegrees>-1.1768876016139984130859375</LongitudeDegrees>
            </Position>
            <AltitudeMeters>424.20001220703125</AltitudeMeters>
            <DistanceMeters>NAN</DistanceMeters>
          </Trackpoint>
          <Trackpoint>
            <Time>2020-05-25T05:59:35.000Z</Time>
            <Position>
              <LatitudeDegrees>38.22469283826649188995361328125</LatitudeDegrees>
              <LongitudeDegrees>-1.17692842148244380950927734375</LongitudeDegrees>
            </Position>
            <AltitudeMeters>424.20001220703125</AltitudeMeters>
            <DistanceMeters>NAN</DistanceMeters>
          </Trackpoint>
          <Trackpoint>
            <Time>2020-05-25T05:59:36.000Z</Time>
            <Position>
              <LatitudeDegrees>38.22476039640605449676513671875</LatitudeDegrees>
              <LongitudeDegrees>-1.1770111508667469024658203125</LongitudeDegrees>
            </Position>
            <AltitudeMeters>424.399993896484375</AltitudeMeters>
            <DistanceMeters>NAN</DistanceMeters>
          </Trackpoint>
          <Trackpoint>
            <Time>2020-05-25T05:59:37.000Z</Time>
            <Position>
              <LatitudeDegrees>38.22476039640605449676513671875</LatitudeDegrees>
              <LongitudeDegrees>-1.1770111508667469024658203125</LongitudeDegrees>
            </Position>
            <AltitudeMeters>424.399993896484375</AltitudeMeters>
            <DistanceMeters>NAN</DistanceMeters>
          </Trackpoint>
          <Trackpoint>
            <Time>2020-05-25T05:59:38.000Z</Time>
            <Position>
              <LatitudeDegrees>38.22482812218368053436279296875</LatitudeDegrees>
              <LongitudeDegrees>-1.17709086276590824127197265625</LongitudeDegrees>
            </Position>
            <AltitudeMeters>424.399993896484375</AltitudeMeters>
            <DistanceMeters>NAN</DistanceMeters>
          </Trackpoint>
          <Trackpoint>
            <Time>2020-05-25T05:59:39.000Z</Time>
            <Position>
              <LatitudeDegrees>38.22482812218368053436279296875</LatitudeDegrees>
              <LongitudeDegrees>-1.17709086276590824127197265625</LongitudeDegrees>
            </Position>
            <AltitudeMeters>424.600006103515625</AltitudeMeters>
            <DistanceMeters>NAN</DistanceMeters>
          </Trackpoint>
          <Trackpoint>
            <Time>2020-05-25T05:59:40.000Z</Time>
            <Position>
              <LatitudeDegrees>38.2248625718057155609130859375</LatitudeDegrees>
              <LongitudeDegrees>-1.17712824605405330657958984375</LongitudeDegrees>
            </Position>
            <AltitudeMeters>424.600006103515625</AltitudeMeters>
            <DistanceMeters>NAN</DistanceMeters>
          </Trackpoint>
          <Trackpoint>
            <Time>2020-05-25T05:59:41.000Z</Time>
            <Position>
              <LatitudeDegrees>38.2248964346945285797119140625</LatitudeDegrees>
              <LongitudeDegrees>-1.177163533866405487060546875</LongitudeDegrees>
            </Position>
            <AltitudeMeters>424.79998779296875</AltitudeMeters>
            <DistanceMeters>NAN</DistanceMeters>
          </Trackpoint>
          <Trackpoint>
            <Time>2020-05-25T05:59:42.000Z</Time>
            <Position>
              <LatitudeDegrees>38.2249658368527889251708984375</LatitudeDegrees>
              <LongitudeDegrees>-1.17723402567207813262939453125</LongitudeDegrees>
            </Position>
            <AltitudeMeters>424.79998779296875</AltitudeMeters>
            <DistanceMeters>NAN</DistanceMeters>
          </Trackpoint>
          <Trackpoint>
            <Time>2020-05-25T05:59:43.000Z</Time>
            <Position>
              <LatitudeDegrees>38.2249658368527889251708984375</LatitudeDegrees>
              <LongitudeDegrees>-1.17723402567207813262939453125</LongitudeDegrees>
            </Position>
            <AltitudeMeters>424.79998779296875</AltitudeMeters>
            <DistanceMeters>NAN</DistanceMeters>
          </Trackpoint>
          <Trackpoint>
            <Time>2020-05-25T05:59:44.000Z</Time>
            <Position>
              <LatitudeDegrees>38.2250359095633029937744140625</LatitudeDegrees>
              <LongitudeDegrees>-1.17730493657290935516357421875</LongitudeDegrees>
            </Position>
            <AltitudeMeters>425</AltitudeMeters>
            <DistanceMeters>NAN</DistanceMeters>
          </Trackpoint>
          <Trackpoint>
            <Time>2020-05-25T05:59:45.000Z</Time>
            <Position>
              <LatitudeDegrees>38.2250359095633029937744140625</LatitudeDegrees>
              <LongitudeDegrees>-1.17730493657290935516357421875</LongitudeDegrees>
            </Position>
            <AltitudeMeters>425</AltitudeMeters>
            <DistanceMeters>NAN</DistanceMeters>
          </Trackpoint>
          <Trackpoint>
            <Time>2020-05-25T05:59:46.000Z</Time>
            <Position>
              <LatitudeDegrees>38.22506968863308429718017578125</LatitudeDegrees>
              <LongitudeDegrees>-1.17733779363334178924560546875</LongitudeDegrees>
            </Position>
            <AltitudeMeters>425.399993896484375</AltitudeMeters>
            <DistanceMeters>NAN</DistanceMeters>
          </Trackpoint>
          <Trackpoint>
            <Time>2020-05-25T05:59:47.000Z</Time>
            <Position>
              <LatitudeDegrees>38.2251039706170558929443359375</LatitudeDegrees>
              <LongitudeDegrees>-1.17736947722733020782470703125</LongitudeDegrees>
            </Position>
            <AltitudeMeters>425.600006103515625</AltitudeMeters>
            <DistanceMeters>NAN</DistanceMeters>
          </Trackpoint>
          <Trackpoint>
            <Time>2020-05-25T05:59:48.000Z</Time>
            <Position>
              <LatitudeDegrees>38.225172199308872222900390625</LatitudeDegrees>
              <LongitudeDegrees>-1.17743032984435558319091796875</LongitudeDegrees>
            </Position>
            <AltitudeMeters>425.79998779296875</AltitudeMeters>
            <DistanceMeters>NAN</DistanceMeters>
          </Trackpoint>
          <Trackpoint>
            <Time>2020-05-25T05:59:49.000Z</Time>
            <Position>
              <LatitudeDegrees>38.2252065651118755340576171875</LatitudeDegrees>
              <LongitudeDegrees>-1.1774597503244876861572265625</LongitudeDegrees>
            </Position>
            <AltitudeMeters>425.79998779296875</AltitudeMeters>
            <DistanceMeters>NAN</DistanceMeters>
          </Trackpoint>
          <Trackpoint>
            <Time>2020-05-25T05:59:50.000Z</Time>
            <Position>
              <LatitudeDegrees>38.22524034418165683746337890625</LatitudeDegrees>
              <LongitudeDegrees>-1.17748850025236606597900390625</LongitudeDegrees>
            </Position>
            <AltitudeMeters>426</AltitudeMeters>
            <DistanceMeters>NAN</DistanceMeters>
          </Trackpoint>
          <Trackpoint>
            <Time>2020-05-25T05:59:51.000Z</Time>
            <Position>
              <LatitudeDegrees>38.22524034418165683746337890625</LatitudeDegrees>
              <LongitudeDegrees>-1.17748850025236606597900390625</LongitudeDegrees>
            </Position>
            <AltitudeMeters>426.20001220703125</AltitudeMeters>
            <DistanceMeters>NAN</DistanceMeters>
          </Trackpoint>
          <Trackpoint>
            <Time>2020-05-25T05:59:52.000Z</Time>
            <Position>
              <LatitudeDegrees>38.22527420707046985626220703125</LatitudeDegrees>
              <LongitudeDegrees>-1.17751590907573699951171875</LongitudeDegrees>
            </Position>
            <AltitudeMeters>426.20001220703125</AltitudeMeters>
            <DistanceMeters>NAN</DistanceMeters>
          </Trackpoint>
          <Trackpoint>
            <Time>2020-05-25T05:59:53.000Z</Time>
            <Position>
              <LatitudeDegrees>38.225308321416378021240234375</LatitudeDegrees>
              <LongitudeDegrees>-1.1775422282516956329345703125</LongitudeDegrees>
            </Position>
            <AltitudeMeters>426.600006103515625</AltitudeMeters>
            <DistanceMeters>NAN</DistanceMeters>
          </Trackpoint>
          <Trackpoint>
            <Time>2020-05-25T05:59:54.000Z</Time>
            <Position>
              <LatitudeDegrees>38.22537772357463836669921875</LatitudeDegrees>
              <LongitudeDegrees>-1.17759143002331256866455078125</LongitudeDegrees>
            </Position>
            <AltitudeMeters>426.79998779296875</AltitudeMeters>
            <DistanceMeters>NAN</DistanceMeters>
          </Trackpoint>
          <Trackpoint>
            <Time>2020-05-25T05:59:55.000Z</Time>
            <Position>
              <LatitudeDegrees>38.22537772357463836669921875</LatitudeDegrees>
              <LongitudeDegrees>-1.17759143002331256866455078125</LongitudeDegrees>
            </Position>
            <AltitudeMeters>427</AltitudeMeters>
            <DistanceMeters>NAN</DistanceMeters>
          </Trackpoint>
          <Trackpoint>
            <Time>2020-05-25T05:59:56.000Z</Time>
            <Position>
              <LatitudeDegrees>38.2254494726657867431640625</LatitudeDegrees>
              <LongitudeDegrees>-1.17763585411012172698974609375</LongitudeDegrees>
            </Position>
            <AltitudeMeters>427.20001220703125</AltitudeMeters>
            <DistanceMeters>NAN</DistanceMeters>
          </Trackpoint>
          <Trackpoint>
            <Time>2020-05-25T05:59:57.000Z</Time>
            <Position>
              <LatitudeDegrees>38.2254494726657867431640625</LatitudeDegrees>
              <LongitudeDegrees>-1.17763585411012172698974609375</LongitudeDegrees>
            </Position>
            <AltitudeMeters>427.20001220703125</AltitudeMeters>
            <DistanceMeters>NAN</DistanceMeters>
          </Trackpoint>
          <Trackpoint>
            <Time>2020-05-25T05:59:58.000Z</Time>
            <Position>
              <LatitudeDegrees>38.22548744268715381622314453125</LatitudeDegrees>
              <LongitudeDegrees>-1.17765404284000396728515625</LongitudeDegrees>
            </Position>
            <AltitudeMeters>427.600006103515625</AltitudeMeters>
            <DistanceMeters>NAN</DistanceMeters>
          </Trackpoint>
          <Trackpoint>
            <Time>2020-05-25T05:59:59.000Z</Time>
            <Position>
              <LatitudeDegrees>38.225525915622711181640625</LatitudeDegrees>
              <LongitudeDegrees>-1.17767323739826679229736328125</LongitudeDegrees>
            </Position>
            <AltitudeMeters>427.79998779296875</AltitudeMeters>
            <DistanceMeters>NAN</DistanceMeters>
          </Trackpoint>
          <Trackpoint>
            <Time>2020-05-25T06:00:00.000Z</Time>
            <Position>
              <LatitudeDegrees>38.22560361586511135101318359375</LatitudeDegrees>
              <LongitudeDegrees>-1.17771011777222156524658203125</LongitudeDegrees>
            </Position>
            <AltitudeMeters>428.20001220703125</AltitudeMeters>
            <DistanceMeters>NAN</DistanceMeters>
          </Trackpoint>
          <Trackpoint>
            <Time>2020-05-25T06:00:01.000Z</Time>
            <Position>
              <LatitudeDegrees>38.22560361586511135101318359375</LatitudeDegrees>
              <LongitudeDegrees>-1.17771011777222156524658203125</LongitudeDegrees>
            </Position>
            <AltitudeMeters>428.399993896484375</AltitudeMeters>
            <DistanceMeters>NAN</DistanceMeters>
          </Trackpoint>
          <Trackpoint>
            <Time>2020-05-25T06:00:02.000Z</Time>
            <Position>
              <LatitudeDegrees>38.22568005882203578948974609375</LatitudeDegrees>
              <LongitudeDegrees>-1.177744232118129730224609375</LongitudeDegrees>
            </Position>
            <AltitudeMeters>428.600006103515625</AltitudeMeters>
            <DistanceMeters>NAN</DistanceMeters>
          </Trackpoint>
          <Trackpoint>
            <Time>2020-05-25T06:00:03.000Z</Time>
            <Position>
              <LatitudeDegrees>38.22568005882203578948974609375</LatitudeDegrees>
              <LongitudeDegrees>-1.177744232118129730224609375</LongitudeDegrees>
            </Position>
            <AltitudeMeters>429</AltitudeMeters>
            <DistanceMeters>NAN</DistanceMeters>
          </Trackpoint>
          <Trackpoint>
            <Time>2020-05-25T06:00:04.000Z</Time>
            <Position>
              <LatitudeDegrees>38.22571568191051483154296875</LatitudeDegrees>
              <LongitudeDegrees>-1.17776040919125080108642578125</LongitudeDegrees>
            </Position>
            <AltitudeMeters>429</AltitudeMeters>
            <DistanceMeters>NAN</DistanceMeters>
          </Trackpoint>
          <Trackpoint>
            <Time>2020-05-25T06:00:05.000Z</Time>
            <Position>
              <LatitudeDegrees>38.225749544799327850341796875</LatitudeDegrees>
              <LongitudeDegrees>-1.1777765862643718719482421875</LongitudeDegrees>
            </Position>
            <AltitudeMeters>429.20001220703125</AltitudeMeters>
            <DistanceMeters>NAN</DistanceMeters>
          </Trackpoint>
          <Trackpoint>
            <Time>2020-05-25T06:00:06.000Z</Time>
            <Position>
              <LatitudeDegrees>38.22581903077661991119384765625</LatitudeDegrees>
              <LongitudeDegrees>-1.1778077669441699981689453125</LongitudeDegrees>
            </Position>
            <AltitudeMeters>429.399993896484375</AltitudeMeters>
            <DistanceMeters>NAN</DistanceMeters>
          </Trackpoint>
          <Trackpoint>
            <Time>2020-05-25T06:00:07.000Z</Time>
            <Position>
              <LatitudeDegrees>38.22581903077661991119384765625</LatitudeDegrees>
              <LongitudeDegrees>-1.1778077669441699981689453125</LongitudeDegrees>
            </Position>
            <AltitudeMeters>429.399993896484375</AltitudeMeters>
            <DistanceMeters>NAN</DistanceMeters>
          </Trackpoint>
          <Trackpoint>
            <Time>2020-05-25T06:00:08.000Z</Time>
            <Position>
              <LatitudeDegrees>38.22589547373354434967041015625</LatitudeDegrees>
              <LongitudeDegrees>-1.1778349243104457855224609375</LongitudeDegrees>
            </Position>
            <AltitudeMeters>429.600006103515625</AltitudeMeters>
            <DistanceMeters>NAN</DistanceMeters>
          </Trackpoint>
          <Trackpoint>
            <Time>2020-05-25T06:00:09.000Z</Time>
            <Position>
              <LatitudeDegrees>38.22589547373354434967041015625</LatitudeDegrees>
              <LongitudeDegrees>-1.1778349243104457855224609375</LongitudeDegrees>
            </Position>
            <AltitudeMeters>429.79998779296875</AltitudeMeters>
            <DistanceMeters>NAN</DistanceMeters>
          </Trackpoint>
          <Trackpoint>
            <Time>2020-05-25T06:00:10.000Z</Time>
            <Position>
              <LatitudeDegrees>38.22593503631651401519775390625</LatitudeDegrees>
              <LongitudeDegrees>-1.17784456349909305572509765625</LongitudeDegrees>
            </Position>
            <AltitudeMeters>429.79998779296875</AltitudeMeters>
            <DistanceMeters>NAN</DistanceMeters>
          </Trackpoint>
          <Trackpoint>
            <Time>2020-05-25T06:00:11.000Z</Time>
            <Position>
              <LatitudeDegrees>38.225974850356578826904296875</LatitudeDegrees>
              <LongitudeDegrees>-1.17785596288740634918212890625</LongitudeDegrees>
            </Position>
            <AltitudeMeters>430</AltitudeMeters>
            <DistanceMeters>NAN</DistanceMeters>
          </Trackpoint>
          <Trackpoint>
            <Time>2020-05-25T06:00:12.000Z</Time>
            <Position>
              <LatitudeDegrees>38.22605472989380359649658203125</LatitudeDegrees>
              <LongitudeDegrees>-1.1778800189495086669921875</LongitudeDegrees>
            </Position>
            <AltitudeMeters>430.20001220703125</AltitudeMeters>
            <DistanceMeters>NAN</DistanceMeters>
          </Trackpoint>
          <Trackpoint>
            <Time>2020-05-25T06:00:13.000Z</Time>
            <Position>
              <LatitudeDegrees>38.22605472989380359649658203125</LatitudeDegrees>
              <LongitudeDegrees>-1.1778800189495086669921875</LongitudeDegrees>
            </Position>
            <AltitudeMeters>430.399993896484375</AltitudeMeters>
            <DistanceMeters>NAN</DistanceMeters>
          </Trackpoint>
          <Trackpoint>
            <Time>2020-05-25T06:00:14.000Z</Time>
            <Position>
              <LatitudeDegrees>38.22613435797393321990966796875</LatitudeDegrees>
              <LongitudeDegrees>-1.1779023148119449615478515625</LongitudeDegrees>
            </Position>
            <AltitudeMeters>430.79998779296875</AltitudeMeters>
            <DistanceMeters>NAN</DistanceMeters>
          </Trackpoint>
          <Trackpoint>
            <Time>2020-05-25T06:00:15.000Z</Time>
            <Position>
              <LatitudeDegrees>38.22613435797393321990966796875</LatitudeDegrees>
              <LongitudeDegrees>-1.1779023148119449615478515625</LongitudeDegrees>
            </Position>
            <AltitudeMeters>431.20001220703125</AltitudeMeters>
            <DistanceMeters>NAN</DistanceMeters>
          </Trackpoint>
          <Trackpoint>
            <Time>2020-05-25T06:00:16.000Z</Time>
            <Position>
              <LatitudeDegrees>38.2261738367378711700439453125</LatitudeDegrees>
              <LongitudeDegrees>-1.1779140494763851165771484375</LongitudeDegrees>
            </Position>
            <AltitudeMeters>431.399993896484375</AltitudeMeters>
            <DistanceMeters>NAN</DistanceMeters>
          </Trackpoint>
          <Trackpoint>
            <Time>2020-05-25T06:00:17.000Z</Time>
            <Position>
              <LatitudeDegrees>38.22621365077793598175048828125</LatitudeDegrees>
              <LongitudeDegrees>-1.177923269569873809814453125</LongitudeDegrees>
            </Position>
            <AltitudeMeters>431.600006103515625</AltitudeMeters>
            <DistanceMeters>NAN</DistanceMeters>
          </Trackpoint>
          <Trackpoint>
            <Time>2020-05-25T06:00:18.000Z</Time>
            <Position>
              <LatitudeDegrees>38.22625304572284221649169921875</LatitudeDegrees>
              <LongitudeDegrees>-1.17793072946369647979736328125</LongitudeDegrees>
            </Position>
            <AltitudeMeters>431.79998779296875</AltitudeMeters>
            <DistanceMeters>NAN</DistanceMeters>
          </Trackpoint>
          <Trackpoint>
            <Time>2020-05-25T06:00:19.000Z</Time>
            <Position>
              <LatitudeDegrees>38.22629244066774845123291015625</LatitudeDegrees>
              <LongitudeDegrees>-1.177937351167201995849609375</LongitudeDegrees>
            </Position>
            <AltitudeMeters>432</AltitudeMeters>
            <DistanceMeters>NAN</DistanceMeters>
          </Trackpoint>
          <Trackpoint>
            <Time>2020-05-25T06:00:20.000Z</Time>
            <Position>
              <LatitudeDegrees>38.22637282311916351318359375</LatitudeDegrees>
              <LongitudeDegrees>-1.1779529415071010589599609375</LongitudeDegrees>
            </Position>
            <AltitudeMeters>432</AltitudeMeters>
            <DistanceMeters>NAN</DistanceMeters>
          </Trackpoint>
          <Trackpoint>
            <Time>2020-05-25T06:00:21.000Z</Time>
            <Position>
              <LatitudeDegrees>38.22637282311916351318359375</LatitudeDegrees>
              <LongitudeDegrees>-1.1779529415071010589599609375</LongitudeDegrees>
            </Position>
            <AltitudeMeters>432.20001220703125</AltitudeMeters>
            <DistanceMeters>NAN</DistanceMeters>
          </Trackpoint>
          <Trackpoint>
            <Time>2020-05-25T06:00:22.000Z</Time>
            <Position>
              <LatitudeDegrees>38.2264135591685771942138671875</LatitudeDegrees>
              <LongitudeDegrees>-1.17796375416219234466552734375</LongitudeDegrees>
            </Position>
            <AltitudeMeters>432.399993896484375</AltitudeMeters>
            <DistanceMeters>NAN</DistanceMeters>
          </Trackpoint>
          <Trackpoint>
            <Time>2020-05-25T06:00:23.000Z</Time>
            <Position>
              <LatitudeDegrees>38.22645488195121288299560546875</LatitudeDegrees>
              <LongitudeDegrees>-1.1779750697314739227294921875</LongitudeDegrees>
            </Position>
            <AltitudeMeters>432.600006103515625</AltitudeMeters>
            <DistanceMeters>NAN</DistanceMeters>
          </Trackpoint>
          <Trackpoint>
            <Time>2020-05-25T06:00:24.000Z</Time>
            <Position>
              <LatitudeDegrees>38.226538114249706268310546875</LatitudeDegrees>
              <LongitudeDegrees>-1.1780035682022571563720703125</LongitudeDegrees>
            </Position>
            <AltitudeMeters>432.79998779296875</AltitudeMeters>
            <DistanceMeters>NAN</DistanceMeters>
          </Trackpoint>
          <Trackpoint>
            <Time>2020-05-25T06:00:25.000Z</Time>
            <Position>
              <LatitudeDegrees>38.226538114249706268310546875</LatitudeDegrees>
              <LongitudeDegrees>-1.1780035682022571563720703125</LongitudeDegrees>
            </Position>
            <AltitudeMeters>433</AltitudeMeters>
            <DistanceMeters>NAN</DistanceMeters>
          </Trackpoint>
          <Trackpoint>
            <Time>2020-05-25T06:00:26.000Z</Time>
            <Position>
              <LatitudeDegrees>38.22657977230846881866455078125</LatitudeDegrees>
              <LongitudeDegrees>-1.17802326567471027374267578125</LongitudeDegrees>
            </Position>
            <AltitudeMeters>433.20001220703125</AltitudeMeters>
            <DistanceMeters>NAN</DistanceMeters>
          </Trackpoint>
          <Trackpoint>
            <Time>2020-05-25T06:00:27.000Z</Time>
            <Position>
              <LatitudeDegrees>38.2266207598149776458740234375</LatitudeDegrees>
              <LongitudeDegrees>-1.1780444718897342681884765625</LongitudeDegrees>
            </Position>
            <AltitudeMeters>433.399993896484375</AltitudeMeters>
            <DistanceMeters>NAN</DistanceMeters>
          </Trackpoint>
          <Trackpoint>
            <Time>2020-05-25T06:00:28.000Z</Time>
            <Position>
              <LatitudeDegrees>38.22666124440729618072509765625</LatitudeDegrees>
              <LongitudeDegrees>-1.17806266061961650848388671875</LongitudeDegrees>
            </Position>
            <AltitudeMeters>433.399993896484375</AltitudeMeters>
            <DistanceMeters>NAN</DistanceMeters>
          </Trackpoint>
          <Trackpoint>
            <Time>2020-05-25T06:00:29.000Z</Time>
            <Position>
              <LatitudeDegrees>38.22670013643801212310791015625</LatitudeDegrees>
              <LongitudeDegrees>-1.17807992734014987945556640625</LongitudeDegrees>
            </Position>
            <AltitudeMeters>433.600006103515625</AltitudeMeters>
            <DistanceMeters>NAN</DistanceMeters>
          </Trackpoint>
          <Trackpoint>
            <Time>2020-05-25T06:00:30.000Z</Time>
            <Position>
              <LatitudeDegrees>38.22677875868976116180419921875</LatitudeDegrees>
              <LongitudeDegrees>-1.1781115271151065826416015625</LongitudeDegrees>
            </Position>
            <AltitudeMeters>433.79998779296875</AltitudeMeters>
            <DistanceMeters>NAN</DistanceMeters>
          </Trackpoint>
          <Trackpoint>
            <Time>2020-05-25T06:00:31.000Z</Time>
            <Position>
              <LatitudeDegrees>38.22677875868976116180419921875</LatitudeDegrees>
              <LongitudeDegrees>-1.1781115271151065826416015625</LongitudeDegrees>
            </Position>
            <AltitudeMeters>434</AltitudeMeters>
            <DistanceMeters>NAN</DistanceMeters>
          </Trackpoint>
          <Trackpoint>
            <Time>2020-05-25T06:00:32.000Z</Time>
            <Position>
              <LatitudeDegrees>38.226870037615299224853515625</LatitudeDegrees>
              <LongitudeDegrees>-1.17814245633780956268310546875</LongitudeDegrees>
            </Position>
            <AltitudeMeters>434.20001220703125</AltitudeMeters>
            <DistanceMeters>NAN</DistanceMeters>
          </Trackpoint>
          <Trackpoint>
            <Time>2020-05-25T06:00:33.000Z</Time>
            <Position>
              <LatitudeDegrees>38.226870037615299224853515625</LatitudeDegrees>
              <LongitudeDegrees>-1.17814245633780956268310546875</LongitudeDegrees>
            </Position>
            <AltitudeMeters>434</AltitudeMeters>
            <DistanceMeters>NAN</DistanceMeters>
          </Trackpoint>
          <Trackpoint>
            <Time>2020-05-25T06:00:34.000Z</Time>
            <Position>
              <LatitudeDegrees>38.226922340691089630126953125</LatitudeDegrees>
              <LongitudeDegrees>-1.17815469391644001007080078125</LongitudeDegrees>
            </Position>
            <AltitudeMeters>434</AltitudeMeters>
            <DistanceMeters>NAN</DistanceMeters>
          </Trackpoint>
          <Trackpoint>
            <Time>2020-05-25T06:00:35.000Z</Time>
            <Position>
              <LatitudeDegrees>38.22697699069976806640625</LatitudeDegrees>
              <LongitudeDegrees>-1.178160645067691802978515625</LongitudeDegrees>
            </Position>
            <AltitudeMeters>434</AltitudeMeters>
            <DistanceMeters>NAN</DistanceMeters>
          </Trackpoint>
          <Trackpoint>
            <Time>2020-05-25T06:00:36.000Z</Time>
            <Position>
              <LatitudeDegrees>38.22708570398390293121337890625</LatitudeDegrees>
              <LongitudeDegrees>-1.17815117351710796356201171875</LongitudeDegrees>
            </Position>
            <AltitudeMeters>434</AltitudeMeters>
            <DistanceMeters>NAN</DistanceMeters>
          </Trackpoint>
          <Trackpoint>
            <Time>2020-05-25T06:00:37.000Z</Time>
            <Position>
              <LatitudeDegrees>38.22708570398390293121337890625</LatitudeDegrees>
              <LongitudeDegrees>-1.17815117351710796356201171875</LongitudeDegrees>
            </Position>
            <AltitudeMeters>434</AltitudeMeters>
            <DistanceMeters>NAN</DistanceMeters>
          </Trackpoint>
          <Trackpoint>
            <Time>2020-05-25T06:00:38.000Z</Time>
            <Position>
              <LatitudeDegrees>38.2271934114396572113037109375</LatitudeDegrees>
              <LongitudeDegrees>-1.17814094759523868560791015625</LongitudeDegrees>
            </Position>
            <AltitudeMeters>434.20001220703125</AltitudeMeters>
            <DistanceMeters>NAN</DistanceMeters>
          </Trackpoint>
          <Trackpoint>
            <Time>2020-05-25T06:00:39.000Z</Time>
            <Position>
              <LatitudeDegrees>38.2271934114396572113037109375</LatitudeDegrees>
              <LongitudeDegrees>-1.17814094759523868560791015625</LongitudeDegrees>
            </Position>
            <AltitudeMeters>434.20001220703125</AltitudeMeters>
            <DistanceMeters>NAN</DistanceMeters>
          </Trackpoint>
          <Trackpoint>
            <Time>2020-05-25T06:00:40.000Z</Time>
            <Position>
              <LatitudeDegrees>38.22724881581962108612060546875</LatitudeDegrees>
              <LongitudeDegrees>-1.17813206277787685394287109375</LongitudeDegrees>
            </Position>
            <AltitudeMeters>434</AltitudeMeters>
            <DistanceMeters>NAN</DistanceMeters>
          </Trackpoint>
          <Trackpoint>
            <Time>2020-05-25T06:00:41.000Z</Time>
            <Position>
              <LatitudeDegrees>38.227364234626293182373046875</LatitudeDegrees>
              <LongitudeDegrees>-1.178104318678379058837890625</LongitudeDegrees>
            </Position>
            <AltitudeMeters>434</AltitudeMeters>
            <DistanceMeters>NAN</DistanceMeters>
          </Trackpoint>
          <Trackpoint>
            <Time>2020-05-25T06:00:42.000Z</Time>
            <Position>
              <LatitudeDegrees>38.22742299176752567291259765625</LatitudeDegrees>
              <LongitudeDegrees>-1.17809149436652660369873046875</LongitudeDegrees>
            </Position>
            <AltitudeMeters>433.79998779296875</AltitudeMeters>
            <DistanceMeters>NAN</DistanceMeters>
          </Trackpoint>
          <Trackpoint>
            <Time>2020-05-25T06:00:43.000Z</Time>
            <Position>
              <LatitudeDegrees>38.22742299176752567291259765625</LatitudeDegrees>
              <LongitudeDegrees>-1.17809149436652660369873046875</LongitudeDegrees>
            </Position>
            <AltitudeMeters>433.79998779296875</AltitudeMeters>
            <DistanceMeters>NAN</DistanceMeters>
          </Trackpoint>
          <Trackpoint>
            <Time>2020-05-25T06:00:44.000Z</Time>
            <Position>
              <LatitudeDegrees>38.2275377400219440460205078125</LatitudeDegrees>
              <LongitudeDegrees>-1.1780642531812191009521484375</LongitudeDegrees>
            </Position>
            <AltitudeMeters>433.600006103515625</AltitudeMeters>
            <DistanceMeters>NAN</DistanceMeters>
          </Trackpoint>
          <Trackpoint>
            <Time>2020-05-25T06:00:45.000Z</Time>
            <Position>
              <LatitudeDegrees>38.2275377400219440460205078125</LatitudeDegrees>
              <LongitudeDegrees>-1.1780642531812191009521484375</LongitudeDegrees>
            </Position>
            <AltitudeMeters>433.600006103515625</AltitudeMeters>
            <DistanceMeters>NAN</DistanceMeters>
          </Trackpoint>
          <Trackpoint>
            <Time>2020-05-25T06:00:46.000Z</Time>
            <Position>
              <LatitudeDegrees>38.22759565897285938262939453125</LatitudeDegrees>
              <LongitudeDegrees>-1.17805209942162036895751953125</LongitudeDegrees>
            </Position>
            <AltitudeMeters>433.600006103515625</AltitudeMeters>
            <DistanceMeters>NAN</DistanceMeters>
          </Trackpoint>
          <Trackpoint>
            <Time>2020-05-25T06:00:47.000Z</Time>
            <Position>
              <LatitudeDegrees>38.22765382938086986541748046875</LatitudeDegrees>
              <LongitudeDegrees>-1.17804053239524364471435546875</LongitudeDegrees>
            </Position>
            <AltitudeMeters>433.600006103515625</AltitudeMeters>
            <DistanceMeters>NAN</DistanceMeters>
          </Trackpoint>
          <Trackpoint>
            <Time>2020-05-25T06:00:48.000Z</Time>
            <Position>
              <LatitudeDegrees>38.22776899673044681549072265625</LatitudeDegrees>
              <LongitudeDegrees>-1.1780176497995853424072265625</LongitudeDegrees>
            </Position>
            <AltitudeMeters>433.600006103515625</AltitudeMeters>
            <DistanceMeters>NAN</DistanceMeters>
          </Trackpoint>
          <Trackpoint>
            <Time>2020-05-25T06:00:49.000Z</Time>
            <Position>
              <LatitudeDegrees>38.22776899673044681549072265625</LatitudeDegrees>
              <LongitudeDegrees>-1.1780176497995853424072265625</LongitudeDegrees>
            </Position>
            <AltitudeMeters>433.600006103515625</AltitudeMeters>
            <DistanceMeters>NAN</DistanceMeters>
          </Trackpoint>
          <Trackpoint>
            <Time>2020-05-25T06:00:50.000Z</Time>
            <Position>
              <LatitudeDegrees>38.22788164950907230377197265625</LatitudeDegrees>
              <LongitudeDegrees>-1.17799761705100536346435546875</LongitudeDegrees>
            </Position>
            <AltitudeMeters>433.600006103515625</AltitudeMeters>
            <DistanceMeters>NAN</DistanceMeters>
          </Trackpoint>
          <Trackpoint>
            <Time>2020-05-25T06:00:51.000Z</Time>
            <Position>
              <LatitudeDegrees>38.22788164950907230377197265625</LatitudeDegrees>
              <LongitudeDegrees>-1.17799761705100536346435546875</LongitudeDegrees>
            </Position>
            <AltitudeMeters>433.600006103515625</AltitudeMeters>
            <DistanceMeters>NAN</DistanceMeters>
          </Trackpoint>
          <Trackpoint>
            <Time>2020-05-25T06:00:52.000Z</Time>
            <Position>
              <LatitudeDegrees>38.22793697007000446319580078125</LatitudeDegrees>
              <LongitudeDegrees>-1.17798688821494579315185546875</LongitudeDegrees>
            </Position>
            <AltitudeMeters>433.399993896484375</AltitudeMeters>
            <DistanceMeters>NAN</DistanceMeters>
          </Trackpoint>
          <Trackpoint>
            <Time>2020-05-25T06:00:53.000Z</Time>
            <Position>
              <LatitudeDegrees>38.22799178771674633026123046875</LatitudeDegrees>
              <LongitudeDegrees>-1.17797565646469593048095703125</LongitudeDegrees>
            </Position>
            <AltitudeMeters>433.399993896484375</AltitudeMeters>
            <DistanceMeters>NAN</DistanceMeters>
          </Trackpoint>
          <Trackpoint>
            <Time>2020-05-25T06:00:54.000Z</Time>
            <Position>
              <LatitudeDegrees>38.228098489344120025634765625</LatitudeDegrees>
              <LongitudeDegrees>-1.17795176804065704345703125</LongitudeDegrees>
            </Position>
            <AltitudeMeters>433.399993896484375</AltitudeMeters>
            <DistanceMeters>NAN</DistanceMeters>
          </Trackpoint>
          <Trackpoint>
            <Time>2020-05-25T06:00:55.000Z</Time>
            <Position>
              <LatitudeDegrees>38.228098489344120025634765625</LatitudeDegrees>
              <LongitudeDegrees>-1.17795176804065704345703125</LongitudeDegrees>
            </Position>
            <AltitudeMeters>433.600006103515625</AltitudeMeters>
            <DistanceMeters>NAN</DistanceMeters>
          </Trackpoint>
          <Trackpoint>
            <Time>2020-05-25T06:00:56.000Z</Time>
            <Position>
              <LatitudeDegrees>38.2282035984098911285400390625</LatitudeDegrees>
              <LongitudeDegrees>-1.17793357931077480316162109375</LongitudeDegrees>
            </Position>
            <AltitudeMeters>433.600006103515625</AltitudeMeters>
            <DistanceMeters>NAN</DistanceMeters>
          </Trackpoint>
          <Trackpoint>
            <Time>2020-05-25T06:00:57.000Z</Time>
            <Position>
              <LatitudeDegrees>38.2282035984098911285400390625</LatitudeDegrees>
              <LongitudeDegrees>-1.17793357931077480316162109375</LongitudeDegrees>
            </Position>
            <AltitudeMeters>433.600006103515625</AltitudeMeters>
            <DistanceMeters>NAN</DistanceMeters>
          </Trackpoint>
          <Trackpoint>
            <Time>2020-05-25T06:00:58.000Z</Time>
            <Position>
              <LatitudeDegrees>38.22825648821890354156494140625</LatitudeDegrees>
              <LongitudeDegrees>-1.17792402394115924835205078125</LongitudeDegrees>
            </Position>
            <AltitudeMeters>433.600006103515625</AltitudeMeters>
            <DistanceMeters>NAN</DistanceMeters>
          </Trackpoint>
          <Trackpoint>
            <Time>2020-05-25T06:00:59.000Z</Time>
            <Position>
              <LatitudeDegrees>38.2283085398375988006591796875</LatitudeDegrees>
              <LongitudeDegrees>-1.177913211286067962646484375</LongitudeDegrees>
            </Position>
            <AltitudeMeters>433.600006103515625</AltitudeMeters>
            <DistanceMeters>NAN</DistanceMeters>
          </Trackpoint>
          <Trackpoint>
            <Time>2020-05-25T06:01:00.000Z</Time>
            <Position>
              <LatitudeDegrees>38.22841272689402103424072265625</LatitudeDegrees>
              <LongitudeDegrees>-1.17789720185101032257080078125</LongitudeDegrees>
            </Position>
            <AltitudeMeters>433.600006103515625</AltitudeMeters>
            <DistanceMeters>NAN</DistanceMeters>
          </Trackpoint>
          <Trackpoint>
            <Time>2020-05-25T06:01:01.000Z</Time>
            <Position>
              <LatitudeDegrees>38.22841272689402103424072265625</LatitudeDegrees>
              <LongitudeDegrees>-1.17789720185101032257080078125</LongitudeDegrees>
            </Position>
            <AltitudeMeters>433.600006103515625</AltitudeMeters>
            <DistanceMeters>NAN</DistanceMeters>
          </Trackpoint>
          <Trackpoint>
            <Time>2020-05-25T06:01:02.000Z</Time>
            <Position>
              <LatitudeDegrees>38.2285157404839992523193359375</LatitudeDegrees>
              <LongitudeDegrees>-1.1778798513114452362060546875</LongitudeDegrees>
            </Position>
            <AltitudeMeters>433.79998779296875</AltitudeMeters>
            <DistanceMeters>NAN</DistanceMeters>
          </Trackpoint>
          <Trackpoint>
            <Time>2020-05-25T06:01:03.000Z</Time>
            <Position>
              <LatitudeDegrees>38.2285157404839992523193359375</LatitudeDegrees>
              <LongitudeDegrees>-1.1778798513114452362060546875</LongitudeDegrees>
            </Position>
            <AltitudeMeters>434.20001220703125</AltitudeMeters>
            <DistanceMeters>NAN</DistanceMeters>
          </Trackpoint>
          <Trackpoint>
            <Time>2020-05-25T06:01:04.000Z</Time>
            <Position>
              <LatitudeDegrees>38.22856494225561618804931640625</LatitudeDegrees>
              <LongitudeDegrees>-1.17787239141762256622314453125</LongitudeDegrees>
            </Position>
            <AltitudeMeters>434.20001220703125</AltitudeMeters>
            <DistanceMeters>NAN</DistanceMeters>
          </Trackpoint>
          <Trackpoint>
            <Time>2020-05-25T06:01:05.000Z</Time>
            <Position>
              <LatitudeDegrees>38.228613473474979400634765625</LatitudeDegrees>
              <LongitudeDegrees>-1.17786585353314876556396484375</LongitudeDegrees>
            </Position>
            <AltitudeMeters>434.399993896484375</AltitudeMeters>
            <DistanceMeters>NAN</DistanceMeters>
          </Trackpoint>
          <Trackpoint>
            <Time>2020-05-25T06:01:06.000Z</Time>
            <Position>
              <LatitudeDegrees>38.22871346957981586456298828125</LatitudeDegrees>
              <LongitudeDegrees>-1.177851520478725433349609375</LongitudeDegrees>
            </Position>
            <AltitudeMeters>434.600006103515625</AltitudeMeters>
            <DistanceMeters>NAN</DistanceMeters>
          </Trackpoint>
          <Trackpoint>
            <Time>2020-05-25T06:01:07.000Z</Time>
            <Position>
              <LatitudeDegrees>38.22871346957981586456298828125</LatitudeDegrees>
              <LongitudeDegrees>-1.177851520478725433349609375</LongitudeDegrees>
            </Position>
            <AltitudeMeters>434.79998779296875</AltitudeMeters>
            <DistanceMeters>NAN</DistanceMeters>
          </Trackpoint>
          <Trackpoint>
            <Time>2020-05-25T06:01:08.000Z</Time>
            <Position>
              <LatitudeDegrees>38.22881891392171382904052734375</LatitudeDegrees>
              <LongitudeDegrees>-1.1778372712433338165283203125</LongitudeDegrees>
            </Position>
            <AltitudeMeters>435.20001220703125</AltitudeMeters>
            <DistanceMeters>NAN</DistanceMeters>
          </Trackpoint>
          <Trackpoint>
            <Time>2020-05-25T06:01:09.000Z</Time>
            <Position>
              <LatitudeDegrees>38.22881891392171382904052734375</LatitudeDegrees>
              <LongitudeDegrees>-1.1778372712433338165283203125</LongitudeDegrees>
            </Position>
            <AltitudeMeters>435.399993896484375</AltitudeMeters>
            <DistanceMeters>NAN</DistanceMeters>
          </Trackpoint>
          <Trackpoint>
            <Time>2020-05-25T06:01:10.000Z</Time>
            <Position>
              <LatitudeDegrees>38.22887205518782138824462890625</LatitudeDegrees>
              <LongitudeDegrees>-1.1778290569782257080078125</LongitudeDegrees>
            </Position>
            <AltitudeMeters>435.399993896484375</AltitudeMeters>
            <DistanceMeters>NAN</DistanceMeters>
          </Trackpoint>
          <Trackpoint>
            <Time>2020-05-25T06:01:11.000Z</Time>
            <Position>
              <LatitudeDegrees>38.22892435826361179351806640625</LatitudeDegrees>
              <LongitudeDegrees>-1.17781765758991241455078125</LongitudeDegrees>
            </Position>
            <AltitudeMeters>435.600006103515625</AltitudeMeters>
            <DistanceMeters>NAN</DistanceMeters>
          </Trackpoint>
          <Trackpoint>
            <Time>2020-05-25T06:01:12.000Z</Time>
            <Position>
              <LatitudeDegrees>38.2290283776819705963134765625</LatitudeDegrees>
              <LongitudeDegrees>-1.177796535193920135498046875</LongitudeDegrees>
            </Position>
            <AltitudeMeters>435.600006103515625</AltitudeMeters>
            <DistanceMeters>NAN</DistanceMeters>
          </Trackpoint>
          <Trackpoint>
            <Time>2020-05-25T06:01:13.000Z</Time>
            <Position>
              <LatitudeDegrees>38.2290283776819705963134765625</LatitudeDegrees>
              <LongitudeDegrees>-1.177796535193920135498046875</LongitudeDegrees>
            </Position>
            <AltitudeMeters>435.79998779296875</AltitudeMeters>
            <DistanceMeters>NAN</DistanceMeters>
          </Trackpoint>
          <Trackpoint>
            <Time>2020-05-25T06:01:14.000Z</Time>
            <Position>
              <LatitudeDegrees>38.229130469262599945068359375</LatitudeDegrees>
              <LongitudeDegrees>-1.1777826212346553802490234375</LongitudeDegrees>
            </Position>
            <AltitudeMeters>436</AltitudeMeters>
            <DistanceMeters>NAN</DistanceMeters>
          </Trackpoint>
          <Trackpoint>
            <Time>2020-05-25T06:01:15.000Z</Time>
            <Position>
              <LatitudeDegrees>38.229130469262599945068359375</LatitudeDegrees>
              <LongitudeDegrees>-1.1777826212346553802490234375</LongitudeDegrees>
            </Position>
            <AltitudeMeters>436.20001220703125</AltitudeMeters>
            <DistanceMeters>NAN</DistanceMeters>
          </Trackpoint>
          <Trackpoint>
            <Time>2020-05-25T06:01:16.000Z</Time>
            <Position>
              <LatitudeDegrees>38.22918109595775604248046875</LatitudeDegrees>
              <LongitudeDegrees>-1.17777549661695957183837890625</LongitudeDegrees>
            </Position>
            <AltitudeMeters>436.399993896484375</AltitudeMeters>
            <DistanceMeters>NAN</DistanceMeters>
          </Trackpoint>
          <Trackpoint>
            <Time>2020-05-25T06:01:17.000Z</Time>
            <Position>
              <LatitudeDegrees>38.22923063300549983978271484375</LatitudeDegrees>
              <LongitudeDegrees>-1.17776661179959774017333984375</LongitudeDegrees>
            </Position>
            <AltitudeMeters>436.600006103515625</AltitudeMeters>
            <DistanceMeters>NAN</DistanceMeters>
          </Trackpoint>
          <Trackpoint>
            <Time>2020-05-25T06:01:18.000Z</Time>
            <Position>
              <LatitudeDegrees>38.2293297909200191497802734375</LatitudeDegrees>
              <LongitudeDegrees>-1.17774792015552520751953125</LongitudeDegrees>
            </Position>
            <AltitudeMeters>436.600006103515625</AltitudeMeters>
            <DistanceMeters>NAN</DistanceMeters>
          </Trackpoint>
          <Trackpoint>
            <Time>2020-05-25T06:01:19.000Z</Time>
            <Position>
              <LatitudeDegrees>38.2293297909200191497802734375</LatitudeDegrees>
              <LongitudeDegrees>-1.17774792015552520751953125</LongitudeDegrees>
            </Position>
            <AltitudeMeters>436.79998779296875</AltitudeMeters>
            <DistanceMeters>NAN</DistanceMeters>
          </Trackpoint>
          <Trackpoint>
            <Time>2020-05-25T06:01:20.000Z</Time>
            <Position>
              <LatitudeDegrees>38.2294300384819507598876953125</LatitudeDegrees>
              <LongitudeDegrees>-1.17772914469242095947265625</LongitudeDegrees>
            </Position>
            <AltitudeMeters>437</AltitudeMeters>
            <DistanceMeters>NAN</DistanceMeters>
          </Trackpoint>
          <Trackpoint>
            <Time>2020-05-25T06:01:21.000Z</Time>
            <Position>
              <LatitudeDegrees>38.2294300384819507598876953125</LatitudeDegrees>
              <LongitudeDegrees>-1.17772914469242095947265625</LongitudeDegrees>
            </Position>
            <AltitudeMeters>437.20001220703125</AltitudeMeters>
            <DistanceMeters>NAN</DistanceMeters>
          </Trackpoint>
          <Trackpoint>
            <Time>2020-05-25T06:01:22.000Z</Time>
            <Position>
              <LatitudeDegrees>38.2294799946248531341552734375</LatitudeDegrees>
              <LongitudeDegrees>-1.177719421684741973876953125</LongitudeDegrees>
            </Position>
            <AltitudeMeters>437.20001220703125</AltitudeMeters>
            <DistanceMeters>NAN</DistanceMeters>
          </Trackpoint>
          <Trackpoint>
            <Time>2020-05-25T06:01:23.000Z</Time>
            <Position>
              <LatitudeDegrees>38.22953053750097751617431640625</LatitudeDegrees>
              <LongitudeDegrees>-1.17771036922931671142578125</LongitudeDegrees>
            </Position>
            <AltitudeMeters>437.399993896484375</AltitudeMeters>
            <DistanceMeters>NAN</DistanceMeters>
          </Trackpoint>
          <Trackpoint>
            <Time>2020-05-25T06:01:24.000Z</Time>
            <Position>
              <LatitudeDegrees>38.22963028214871883392333984375</LatitudeDegrees>
              <LongitudeDegrees>-1.177689917385578155517578125</LongitudeDegrees>
            </Position>
            <AltitudeMeters>437.600006103515625</AltitudeMeters>
            <DistanceMeters>NAN</DistanceMeters>
          </Trackpoint>
          <Trackpoint>
            <Time>2020-05-25T06:01:25.000Z</Time>
            <Position>
              <LatitudeDegrees>38.22963028214871883392333984375</LatitudeDegrees>
              <LongitudeDegrees>-1.177689917385578155517578125</LongitudeDegrees>
            </Position>
            <AltitudeMeters>437.79998779296875</AltitudeMeters>
            <DistanceMeters>NAN</DistanceMeters>
          </Trackpoint>
          <Trackpoint>
            <Time>2020-05-25T06:01:26.000Z</Time>
            <Position>
              <LatitudeDegrees>38.22972918860614299774169921875</LatitudeDegrees>
              <LongitudeDegrees>-1.17766804061830043792724609375</LongitudeDegrees>
            </Position>
            <AltitudeMeters>437.600006103515625</AltitudeMeters>
            <DistanceMeters>NAN</DistanceMeters>
          </Trackpoint>
          <Trackpoint>
            <Time>2020-05-25T06:01:27.000Z</Time>
            <Position>
              <LatitudeDegrees>38.22972918860614299774169921875</LatitudeDegrees>
              <LongitudeDegrees>-1.17766804061830043792724609375</LongitudeDegrees>
            </Position>
            <AltitudeMeters>437.79998779296875</AltitudeMeters>
            <DistanceMeters>NAN</DistanceMeters>
          </Trackpoint>
          <Trackpoint>
            <Time>2020-05-25T06:01:28.000Z</Time>
            <Position>
              <LatitudeDegrees>38.22977922856807708740234375</LatitudeDegrees>
              <LongitudeDegrees>-1.1776585690677165985107421875</LongitudeDegrees>
            </Position>
            <AltitudeMeters>437.79998779296875</AltitudeMeters>
            <DistanceMeters>NAN</DistanceMeters>
          </Trackpoint>
          <Trackpoint>
            <Time>2020-05-25T06:01:29.000Z</Time>
            <Position>
              <LatitudeDegrees>38.22982826270163059234619140625</LatitudeDegrees>
              <LongitudeDegrees>-1.17764825932681560516357421875</LongitudeDegrees>
            </Position>
            <AltitudeMeters>438</AltitudeMeters>
            <DistanceMeters>NAN</DistanceMeters>
          </Trackpoint>
          <Trackpoint>
            <Time>2020-05-25T06:01:30.000Z</Time>
            <Position>
              <LatitudeDegrees>38.22992415167391300201416015625</LatitudeDegrees>
              <LongitudeDegrees>-1.177631579339504241943359375</LongitudeDegrees>
            </Position>
            <AltitudeMeters>438.20001220703125</AltitudeMeters>
            <DistanceMeters>NAN</DistanceMeters>
          </Trackpoint>
          <Trackpoint>
            <Time>2020-05-25T06:01:31.000Z</Time>
            <Position>
              <LatitudeDegrees>38.22992415167391300201416015625</LatitudeDegrees>
              <LongitudeDegrees>-1.177631579339504241943359375</LongitudeDegrees>
            </Position>
            <AltitudeMeters>438.399993896484375</AltitudeMeters>
            <DistanceMeters>NAN</DistanceMeters>
          </Trackpoint>
          <Trackpoint>
            <Time>2020-05-25T06:01:32.000Z</Time>
            <Position>
              <LatitudeDegrees>38.2300171069800853729248046875</LatitudeDegrees>
              <LongitudeDegrees>-1.17761540226638317108154296875</LongitudeDegrees>
            </Position>
            <AltitudeMeters>438.399993896484375</AltitudeMeters>
            <DistanceMeters>NAN</DistanceMeters>
          </Trackpoint>
          <Trackpoint>
            <Time>2020-05-25T06:01:33.000Z</Time>
            <Position>
              <LatitudeDegrees>38.2300171069800853729248046875</LatitudeDegrees>
              <LongitudeDegrees>-1.17761540226638317108154296875</LongitudeDegrees>
            </Position>
            <AltitudeMeters>438.600006103515625</AltitudeMeters>
            <DistanceMeters>NAN</DistanceMeters>
          </Trackpoint>
          <Trackpoint>
            <Time>2020-05-25T06:01:34.000Z</Time>
            <Position>
              <LatitudeDegrees>38.23006354272365570068359375</LatitudeDegrees>
              <LongitudeDegrees>-1.17761003784835338592529296875</LongitudeDegrees>
            </Position>
            <AltitudeMeters>438.79998779296875</AltitudeMeters>
            <DistanceMeters>NAN</DistanceMeters>
          </Trackpoint>
          <Trackpoint>
            <Time>2020-05-25T06:01:35.000Z</Time>
            <Position>
              <LatitudeDegrees>38.23011039756238460540771484375</LatitudeDegrees>
              <LongitudeDegrees>-1.177606098353862762451171875</LongitudeDegrees>
            </Position>
            <AltitudeMeters>439</AltitudeMeters>
            <DistanceMeters>NAN</DistanceMeters>
          </Trackpoint>
          <Trackpoint>
            <Time>2020-05-25T06:01:36.000Z</Time>
            <Position>
              <LatitudeDegrees>38.23020435869693756103515625</LatitudeDegrees>
              <LongitudeDegrees>-1.17760769091546535491943359375</LongitudeDegrees>
            </Position>
            <AltitudeMeters>439.399993896484375</AltitudeMeters>
            <DistanceMeters>NAN</DistanceMeters>
          </Trackpoint>
          <Trackpoint>
            <Time>2020-05-25T06:01:37.000Z</Time>
            <Position>
              <LatitudeDegrees>38.23020435869693756103515625</LatitudeDegrees>
              <LongitudeDegrees>-1.17760769091546535491943359375</LongitudeDegrees>
            </Position>
            <AltitudeMeters>439.600006103515625</AltitudeMeters>
            <DistanceMeters>NAN</DistanceMeters>
          </Trackpoint>
          <Trackpoint>
            <Time>2020-05-25T06:01:38.000Z</Time>
            <Position>
              <LatitudeDegrees>38.2302990742027759552001953125</LatitudeDegrees>
              <LongitudeDegrees>-1.17761624045670032501220703125</LongitudeDegrees>
            </Position>
            <AltitudeMeters>439.79998779296875</AltitudeMeters>
            <DistanceMeters>NAN</DistanceMeters>
          </Trackpoint>
          <Trackpoint>
            <Time>2020-05-25T06:01:39.000Z</Time>
            <Position>
              <LatitudeDegrees>38.2302990742027759552001953125</LatitudeDegrees>
              <LongitudeDegrees>-1.17761624045670032501220703125</LongitudeDegrees>
            </Position>
            <AltitudeMeters>440</AltitudeMeters>
            <DistanceMeters>NAN</DistanceMeters>
          </Trackpoint>
          <Trackpoint>
            <Time>2020-05-25T06:01:40.000Z</Time>
            <Position>
              <LatitudeDegrees>38.23034827597439289093017578125</LatitudeDegrees>
              <LongitudeDegrees>-1.177620179951190948486328125</LongitudeDegrees>
            </Position>
            <AltitudeMeters>440.20001220703125</AltitudeMeters>
            <DistanceMeters>NAN</DistanceMeters>
          </Trackpoint>
          <Trackpoint>
            <Time>2020-05-25T06:01:41.000Z</Time>
            <Position>
              <LatitudeDegrees>38.23039772920310497283935546875</LatitudeDegrees>
              <LongitudeDegrees>-1.17762395180761814117431640625</LongitudeDegrees>
            </Position>
            <AltitudeMeters>440.399993896484375</AltitudeMeters>
            <DistanceMeters>NAN</DistanceMeters>
          </Trackpoint>
          <Trackpoint>
            <Time>2020-05-25T06:01:42.000Z</Time>
            <Position>
              <LatitudeDegrees>38.23049412108957767486572265625</LatitudeDegrees>
              <LongitudeDegrees>-1.17763333953917026519775390625</LongitudeDegrees>
            </Position>
            <AltitudeMeters>440.600006103515625</AltitudeMeters>
            <DistanceMeters>NAN</DistanceMeters>
          </Trackpoint>
          <Trackpoint>
            <Time>2020-05-25T06:01:43.000Z</Time>
            <Position>
              <LatitudeDegrees>38.23049412108957767486572265625</LatitudeDegrees>
              <LongitudeDegrees>-1.17763333953917026519775390625</LongitudeDegrees>
            </Position>
            <AltitudeMeters>440.79998779296875</AltitudeMeters>
            <DistanceMeters>NAN</DistanceMeters>
          </Trackpoint>
          <Trackpoint>
            <Time>2020-05-25T06:01:44.000Z</Time>
            <Position>
              <LatitudeDegrees>38.23058816604316234588623046875</LatitudeDegrees>
              <LongitudeDegrees>-1.17763996124267578125</LongitudeDegrees>
            </Position>
            <AltitudeMeters>440.79998779296875</AltitudeMeters>
            <DistanceMeters>NAN</DistanceMeters>
          </Trackpoint>
          <Trackpoint>
            <Time>2020-05-25T06:01:45.000Z</Time>
            <Position>
              <LatitudeDegrees>38.23058816604316234588623046875</LatitudeDegrees>
              <LongitudeDegrees>-1.17763996124267578125</LongitudeDegrees>
            </Position>
            <AltitudeMeters>441</AltitudeMeters>
            <DistanceMeters>NAN</DistanceMeters>
          </Trackpoint>
          <Trackpoint>
            <Time>2020-05-25T06:01:46.000Z</Time>
            <Position>
              <LatitudeDegrees>38.23063426651060581207275390625</LatitudeDegrees>
              <LongitudeDegrees>-1.1776448227465152740478515625</LongitudeDegrees>
            </Position>
            <AltitudeMeters>441</AltitudeMeters>
            <DistanceMeters>NAN</DistanceMeters>
          </Trackpoint>
          <Trackpoint>
            <Time>2020-05-25T06:01:47.000Z</Time>
            <Position>
              <LatitudeDegrees>38.2306797802448272705078125</LatitudeDegrees>
              <LongitudeDegrees>-1.1776495166122913360595703125</LongitudeDegrees>
            </Position>
            <AltitudeMeters>441.20001220703125</AltitudeMeters>
            <DistanceMeters>NAN</DistanceMeters>
          </Trackpoint>
          <Trackpoint>
            <Time>2020-05-25T06:01:48.000Z</Time>
            <Position>
              <LatitudeDegrees>38.2307708077132701873779296875</LatitudeDegrees>
              <LongitudeDegrees>-1.177655048668384552001953125</LongitudeDegrees>
            </Position>
            <AltitudeMeters>441.20001220703125</AltitudeMeters>
            <DistanceMeters>NAN</DistanceMeters>
          </Trackpoint>
          <Trackpoint>
            <Time>2020-05-25T06:01:49.000Z</Time>
            <Position>
              <LatitudeDegrees>38.2307708077132701873779296875</LatitudeDegrees>
              <LongitudeDegrees>-1.177655048668384552001953125</LongitudeDegrees>
            </Position>
            <AltitudeMeters>441.600006103515625</AltitudeMeters>
            <DistanceMeters>NAN</DistanceMeters>
          </Trackpoint>
          <Trackpoint>
            <Time>2020-05-25T06:01:50.000Z</Time>
            <Position>
              <LatitudeDegrees>38.23086007498204708099365234375</LatitudeDegrees>
              <LongitudeDegrees>-1.17765806615352630615234375</LongitudeDegrees>
            </Position>
            <AltitudeMeters>441.79998779296875</AltitudeMeters>
            <DistanceMeters>NAN</DistanceMeters>
          </Trackpoint>
          <Trackpoint>
            <Time>2020-05-25T06:01:51.000Z</Time>
            <Position>
              <LatitudeDegrees>38.23086007498204708099365234375</LatitudeDegrees>
              <LongitudeDegrees>-1.17765806615352630615234375</LongitudeDegrees>
            </Position>
            <AltitudeMeters>442</AltitudeMeters>
            <DistanceMeters>NAN</DistanceMeters>
          </Trackpoint>
          <Trackpoint>
            <Time>2020-05-25T06:01:52.000Z</Time>
            <Position>
              <LatitudeDegrees>38.23090366087853908538818359375</LatitudeDegrees>
              <LongitudeDegrees>-1.1776605807244777679443359375</LongitudeDegrees>
            </Position>
            <AltitudeMeters>442</AltitudeMeters>
            <DistanceMeters>NAN</DistanceMeters>
          </Trackpoint>
          <Trackpoint>
            <Time>2020-05-25T06:01:53.000Z</Time>
            <Position>
              <LatitudeDegrees>38.2309464924037456512451171875</LatitudeDegrees>
              <LongitudeDegrees>-1.17766200564801692962646484375</LongitudeDegrees>
            </Position>
            <AltitudeMeters>442.20001220703125</AltitudeMeters>
            <DistanceMeters>NAN</DistanceMeters>
          </Trackpoint>
          <Trackpoint>
            <Time>2020-05-25T06:01:54.000Z</Time>
            <Position>
              <LatitudeDegrees>38.2310326583683490753173828125</LatitudeDegrees>
              <LongitudeDegrees>-1.17765882052481174468994140625</LongitudeDegrees>
            </Position>
            <AltitudeMeters>442.399993896484375</AltitudeMeters>
            <DistanceMeters>NAN</DistanceMeters>
          </Trackpoint>
          <Trackpoint>
            <Time>2020-05-25T06:01:55.000Z</Time>
            <Position>
              <LatitudeDegrees>38.2310326583683490753173828125</LatitudeDegrees>
              <LongitudeDegrees>-1.17765882052481174468994140625</LongitudeDegrees>
            </Position>
            <AltitudeMeters>442.600006103515625</AltitudeMeters>
            <DistanceMeters>NAN</DistanceMeters>
          </Trackpoint>
          <Trackpoint>
            <Time>2020-05-25T06:01:56.000Z</Time>
            <Position>
              <LatitudeDegrees>38.2311181537806987762451171875</LatitudeDegrees>
              <LongitudeDegrees>-1.17766208946704864501953125</LongitudeDegrees>
            </Position>
            <AltitudeMeters>443</AltitudeMeters>
            <DistanceMeters>NAN</DistanceMeters>
          </Trackpoint>
          <Trackpoint>
            <Time>2020-05-25T06:01:57.000Z</Time>
            <Position>
              <LatitudeDegrees>38.23115947656333446502685546875</LatitudeDegrees>
              <LongitudeDegrees>-1.17766485549509525299072265625</LongitudeDegrees>
            </Position>
            <AltitudeMeters>443.20001220703125</AltitudeMeters>
            <DistanceMeters>NAN</DistanceMeters>
          </Trackpoint>
          <Trackpoint>
            <Time>2020-05-25T06:01:58.000Z</Time>
            <Position>
              <LatitudeDegrees>38.23115947656333446502685546875</LatitudeDegrees>
              <LongitudeDegrees>-1.17766485549509525299072265625</LongitudeDegrees>
            </Position>
            <AltitudeMeters>443.399993896484375</AltitudeMeters>
            <DistanceMeters>NAN</DistanceMeters>
          </Trackpoint>
          <Trackpoint>
            <Time>2020-05-25T06:01:59.000Z</Time>
            <Position>
              <LatitudeDegrees>38.23120004497468471527099609375</LatitudeDegrees>
              <LongitudeDegrees>-1.17766745388507843017578125</LongitudeDegrees>
            </Position>
            <AltitudeMeters>443.79998779296875</AltitudeMeters>
            <DistanceMeters>NAN</DistanceMeters>
          </Trackpoint>
          <Trackpoint>
            <Time>2020-05-25T06:02:00.000Z</Time>
            <Position>
              <LatitudeDegrees>38.231279589235782623291015625</LatitudeDegrees>
              <LongitudeDegrees>-1.17767374031245708465576171875</LongitudeDegrees>
            </Position>
            <AltitudeMeters>444</AltitudeMeters>
            <DistanceMeters>NAN</DistanceMeters>
          </Trackpoint>
          <Trackpoint>
            <Time>2020-05-25T06:02:01.000Z</Time>
            <Position>
              <LatitudeDegrees>38.231279589235782623291015625</LatitudeDegrees>
              <LongitudeDegrees>-1.17767374031245708465576171875</LongitudeDegrees>
            </Position>
            <AltitudeMeters>444.399993896484375</AltitudeMeters>
            <DistanceMeters>NAN</DistanceMeters>
          </Trackpoint>
          <Trackpoint>
            <Time>2020-05-25T06:02:02.000Z</Time>
            <Position>
              <LatitudeDegrees>38.2313568703830242156982421875</LatitudeDegrees>
              <LongitudeDegrees>-1.1776793561875820159912109375</LongitudeDegrees>
            </Position>
            <AltitudeMeters>444.399993896484375</AltitudeMeters>
            <DistanceMeters>NAN</DistanceMeters>
          </Trackpoint>
          <Trackpoint>
            <Time>2020-05-25T06:02:03.000Z</Time>
            <Position>
              <LatitudeDegrees>38.2313568703830242156982421875</LatitudeDegrees>
              <LongitudeDegrees>-1.1776793561875820159912109375</LongitudeDegrees>
            </Position>
            <AltitudeMeters>444.79998779296875</AltitudeMeters>
            <DistanceMeters>NAN</DistanceMeters>
          </Trackpoint>
          <Trackpoint>
            <Time>2020-05-25T06:02:04.000Z</Time>
            <Position>
              <LatitudeDegrees>38.231394253671169281005859375</LatitudeDegrees>
              <LongitudeDegrees>-1.177681200206279754638671875</LongitudeDegrees>
            </Position>
            <AltitudeMeters>445</AltitudeMeters>
            <DistanceMeters>NAN</DistanceMeters>
          </Trackpoint>
          <Trackpoint>
            <Time>2020-05-25T06:02:05.000Z</Time>
            <Position>
              <LatitudeDegrees>38.23143105022609233856201171875</LatitudeDegrees>
              <LongitudeDegrees>-1.17768279276788234710693359375</LongitudeDegrees>
            </Position>
            <AltitudeMeters>445.20001220703125</AltitudeMeters>
            <DistanceMeters>NAN</DistanceMeters>
          </Trackpoint>
          <Trackpoint>
            <Time>2020-05-25T06:02:06.000Z</Time>
            <Position>
              <LatitudeDegrees>38.23150380514562129974365234375</LatitudeDegrees>
              <LongitudeDegrees>-1.177690587937831878662109375</LongitudeDegrees>
            </Position>
            <AltitudeMeters>445.399993896484375</AltitudeMeters>
            <DistanceMeters>NAN</DistanceMeters>
          </Trackpoint>
          <Trackpoint>
            <Time>2020-05-25T06:02:07.000Z</Time>
            <Position>
              <LatitudeDegrees>38.23150380514562129974365234375</LatitudeDegrees>
              <LongitudeDegrees>-1.177690587937831878662109375</LongitudeDegrees>
            </Position>
            <AltitudeMeters>445.600006103515625</AltitudeMeters>
            <DistanceMeters>NAN</DistanceMeters>
          </Trackpoint>
          <Trackpoint>
            <Time>2020-05-25T06:02:08.000Z</Time>
            <Position>
              <LatitudeDegrees>38.2315729558467864990234375</LatitudeDegrees>
              <LongitudeDegrees>-1.1777014844119548797607421875</LongitudeDegrees>
            </Position>
            <AltitudeMeters>445.79998779296875</AltitudeMeters>
            <DistanceMeters>NAN</DistanceMeters>
          </Trackpoint>
          <Trackpoint>
            <Time>2020-05-25T06:02:09.000Z</Time>
            <Position>
              <LatitudeDegrees>38.2315729558467864990234375</LatitudeDegrees>
              <LongitudeDegrees>-1.1777014844119548797607421875</LongitudeDegrees>
            </Position>
            <AltitudeMeters>446</AltitudeMeters>
            <DistanceMeters>NAN</DistanceMeters>
          </Trackpoint>
          <Trackpoint>
            <Time>2020-05-25T06:02:10.000Z</Time>
            <Position>
              <LatitudeDegrees>38.2316051423549652099609375</LatitudeDegrees>
              <LongitudeDegrees>-1.1777098663151264190673828125</LongitudeDegrees>
            </Position>
            <AltitudeMeters>446.20001220703125</AltitudeMeters>
            <DistanceMeters>NAN</DistanceMeters>
          </Trackpoint>
          <Trackpoint>
            <Time>2020-05-25T06:02:11.000Z</Time>
            <Position>
              <LatitudeDegrees>38.23163724504411220550537109375</LatitudeDegrees>
              <LongitudeDegrees>-1.1777205951511859893798828125</LongitudeDegrees>
            </Position>
            <AltitudeMeters>446.20001220703125</AltitudeMeters>
            <DistanceMeters>NAN</DistanceMeters>
          </Trackpoint>
          <Trackpoint>
            <Time>2020-05-25T06:02:12.000Z</Time>
            <Position>
              <LatitudeDegrees>38.23170212097465991973876953125</LatitudeDegrees>
              <LongitudeDegrees>-1.17774750106036663055419921875</LongitudeDegrees>
            </Position>
            <AltitudeMeters>446.600006103515625</AltitudeMeters>
            <DistanceMeters>NAN</DistanceMeters>
          </Trackpoint>
          <Trackpoint>
            <Time>2020-05-25T06:02:13.000Z</Time>
            <Position>
              <LatitudeDegrees>38.23170212097465991973876953125</LatitudeDegrees>
              <LongitudeDegrees>-1.17774750106036663055419921875</LongitudeDegrees>
            </Position>
            <AltitudeMeters>446.79998779296875</AltitudeMeters>
            <DistanceMeters>NAN</DistanceMeters>
          </Trackpoint>
          <Trackpoint>
            <Time>2020-05-25T06:02:14.000Z</Time>
            <Position>
              <LatitudeDegrees>38.23173531331121921539306640625</LatitudeDegrees>
              <LongitudeDegrees>-1.17776334285736083984375</LongitudeDegrees>
            </Position>
            <AltitudeMeters>447</AltitudeMeters>
            <DistanceMeters>NAN</DistanceMeters>
          </Trackpoint>
          <Trackpoint>
            <Time>2020-05-25T06:02:15.000Z</Time>
            <Position>
              <LatitudeDegrees>38.23176900856196880340576171875</LatitudeDegrees>
              <LongitudeDegrees>-1.1777794361114501953125</LongitudeDegrees>
            </Position>
            <AltitudeMeters>447.20001220703125</AltitudeMeters>
            <DistanceMeters>NAN</DistanceMeters>
          </Trackpoint>
          <Trackpoint>
            <Time>2020-05-25T06:02:16.000Z</Time>
            <Position>
              <LatitudeDegrees>38.23180253617465496063232421875</LatitudeDegrees>
              <LongitudeDegrees>-1.1777953617274761199951171875</LongitudeDegrees>
            </Position>
            <AltitudeMeters>447.20001220703125</AltitudeMeters>
            <DistanceMeters>NAN</DistanceMeters>
          </Trackpoint>
          <Trackpoint>
            <Time>2020-05-25T06:02:17.000Z</Time>
            <Position>
              <LatitudeDegrees>38.23183539323508739471435546875</LatitudeDegrees>
              <LongitudeDegrees>-1.1778121255338191986083984375</LongitudeDegrees>
            </Position>
            <AltitudeMeters>447.600006103515625</AltitudeMeters>
            <DistanceMeters>NAN</DistanceMeters>
          </Trackpoint>
          <Trackpoint>
            <Time>2020-05-25T06:02:18.000Z</Time>
            <Position>
              <LatitudeDegrees>38.23189825750887393951416015625</LatitudeDegrees>
              <LongitudeDegrees>-1.1778490059077739715576171875</LongitudeDegrees>
            </Position>
            <AltitudeMeters>447.79998779296875</AltitudeMeters>
            <DistanceMeters>NAN</DistanceMeters>
          </Trackpoint>
          <Trackpoint>
            <Time>2020-05-25T06:02:19.000Z</Time>
            <Position>
              <LatitudeDegrees>38.23189825750887393951416015625</LatitudeDegrees>
              <LongitudeDegrees>-1.1778490059077739715576171875</LongitudeDegrees>
            </Position>
            <AltitudeMeters>448</AltitudeMeters>
            <DistanceMeters>NAN</DistanceMeters>
          </Trackpoint>
          <Trackpoint>
            <Time>2020-05-25T06:02:20.000Z</Time>
            <Position>
              <LatitudeDegrees>38.2319580204784870147705078125</LatitudeDegrees>
              <LongitudeDegrees>-1.17789007723331451416015625</LongitudeDegrees>
            </Position>
            <AltitudeMeters>448.20001220703125</AltitudeMeters>
            <DistanceMeters>NAN</DistanceMeters>
          </Trackpoint>
          <Trackpoint>
            <Time>2020-05-25T06:02:21.000Z</Time>
            <Position>
              <LatitudeDegrees>38.2319580204784870147705078125</LatitudeDegrees>
              <LongitudeDegrees>-1.17789007723331451416015625</LongitudeDegrees>
            </Position>
            <AltitudeMeters>448.399993896484375</AltitudeMeters>
            <DistanceMeters>NAN</DistanceMeters>
          </Trackpoint>
          <Trackpoint>
            <Time>2020-05-25T06:02:22.000Z</Time>
            <Position>
              <LatitudeDegrees>38.23198811151087284088134765625</LatitudeDegrees>
              <LongitudeDegrees>-1.17791128344833850860595703125</LongitudeDegrees>
            </Position>
            <AltitudeMeters>448.600006103515625</AltitudeMeters>
            <DistanceMeters>NAN</DistanceMeters>
          </Trackpoint>
          <Trackpoint>
            <Time>2020-05-25T06:02:23.000Z</Time>
            <Position>
              <LatitudeDegrees>38.23201828636229038238525390625</LatitudeDegrees>
              <LongitudeDegrees>-1.1779345013201236724853515625</LongitudeDegrees>
            </Position>
            <AltitudeMeters>448.79998779296875</AltitudeMeters>
            <DistanceMeters>NAN</DistanceMeters>
          </Trackpoint>
          <Trackpoint>
            <Time>2020-05-25T06:02:24.000Z</Time>
            <Position>
              <LatitudeDegrees>38.23204846121370792388916015625</LatitudeDegrees>
              <LongitudeDegrees>-1.17795822210609912872314453125</LongitudeDegrees>
            </Position>
            <AltitudeMeters>449</AltitudeMeters>
            <DistanceMeters>NAN</DistanceMeters>
          </Trackpoint>
          <Trackpoint>
            <Time>2020-05-25T06:02:25.000Z</Time>
            <Position>
              <LatitudeDegrees>38.23207880370318889617919921875</LatitudeDegrees>
              <LongitudeDegrees>-1.17798152379691600799560546875</LongitudeDegrees>
            </Position>
            <AltitudeMeters>449.399993896484375</AltitudeMeters>
            <DistanceMeters>NAN</DistanceMeters>
          </Trackpoint>
          <Trackpoint>
            <Time>2020-05-25T06:02:26.000Z</Time>
            <Position>
              <LatitudeDegrees>38.2321085594594478607177734375</LatitudeDegrees>
              <LongitudeDegrees>-1.17800616659224033355712890625</LongitudeDegrees>
            </Position>
            <AltitudeMeters>449.399993896484375</AltitudeMeters>
            <DistanceMeters>NAN</DistanceMeters>
          </Trackpoint>
          <Trackpoint>
            <Time>2020-05-25T06:02:27.000Z</Time>
            <Position>
              <LatitudeDegrees>38.232138566672801971435546875</LatitudeDegrees>
              <LongitudeDegrees>-1.17803156375885009765625</LongitudeDegrees>
            </Position>
            <AltitudeMeters>449.600006103515625</AltitudeMeters>
            <DistanceMeters>NAN</DistanceMeters>
          </Trackpoint>
          <Trackpoint>
            <Time>2020-05-25T06:02:28.000Z</Time>
            <Position>
              <LatitudeDegrees>38.23216815479099750518798828125</LatitudeDegrees>
              <LongitudeDegrees>-1.178057380020618438720703125</LongitudeDegrees>
            </Position>
            <AltitudeMeters>450</AltitudeMeters>
            <DistanceMeters>NAN</DistanceMeters>
          </Trackpoint>
          <Trackpoint>
            <Time>2020-05-25T06:02:29.000Z</Time>
            <Position>
              <LatitudeDegrees>38.2321967370808124542236328125</LatitudeDegrees>
              <LongitudeDegrees>-1.1780857108533382415771484375</LongitudeDegrees>
            </Position>
            <AltitudeMeters>450.20001220703125</AltitudeMeters>
            <DistanceMeters>NAN</DistanceMeters>
          </Trackpoint>
          <Trackpoint>
            <Time>2020-05-25T06:02:30.000Z</Time>
            <Position>
              <LatitudeDegrees>38.2322510518133640289306640625</LatitudeDegrees>
              <LongitudeDegrees>-1.17815100587904453277587890625</LongitudeDegrees>
            </Position>
            <AltitudeMeters>450.399993896484375</AltitudeMeters>
            <DistanceMeters>NAN</DistanceMeters>
          </Trackpoint>
          <Trackpoint>
            <Time>2020-05-25T06:02:31.000Z</Time>
            <Position>
              <LatitudeDegrees>38.2322510518133640289306640625</LatitudeDegrees>
              <LongitudeDegrees>-1.17815100587904453277587890625</LongitudeDegrees>
            </Position>
            <AltitudeMeters>450.79998779296875</AltitudeMeters>
            <DistanceMeters>NAN</DistanceMeters>
          </Trackpoint>
          <Trackpoint>
            <Time>2020-05-25T06:02:32.000Z</Time>
            <Position>
              <LatitudeDegrees>38.2323016785085201263427734375</LatitudeDegrees>
              <LongitudeDegrees>-1.17822208441793918609619140625</LongitudeDegrees>
            </Position>
            <AltitudeMeters>451</AltitudeMeters>
            <DistanceMeters>NAN</DistanceMeters>
          </Trackpoint>
          <Trackpoint>
            <Time>2020-05-25T06:02:33.000Z</Time>
            <Position>
              <LatitudeDegrees>38.2323016785085201263427734375</LatitudeDegrees>
              <LongitudeDegrees>-1.17822208441793918609619140625</LongitudeDegrees>
            </Position>
            <AltitudeMeters>451</AltitudeMeters>
            <DistanceMeters>NAN</DistanceMeters>
          </Trackpoint>
          <Trackpoint>
            <Time>2020-05-25T06:02:34.000Z</Time>
            <Position>
              <LatitudeDegrees>38.23232640512287616729736328125</LatitudeDegrees>
              <LongitudeDegrees>-1.178257875144481658935546875</LongitudeDegrees>
            </Position>
            <AltitudeMeters>451.20001220703125</AltitudeMeters>
            <DistanceMeters>NAN</DistanceMeters>
          </Trackpoint>
          <Trackpoint>
            <Time>2020-05-25T06:02:35.000Z</Time>
            <Position>
              <LatitudeDegrees>38.23234878480434417724609375</LatitudeDegrees>
              <LongitudeDegrees>-1.17829550988972187042236328125</LongitudeDegrees>
            </Position>
            <AltitudeMeters>451.600006103515625</AltitudeMeters>
            <DistanceMeters>NAN</DistanceMeters>
          </Trackpoint>
          <Trackpoint>
            <Time>2020-05-25T06:02:36.000Z</Time>
            <Position>
              <LatitudeDegrees>38.23239044286310672760009765625</LatitudeDegrees>
              <LongitudeDegrees>-1.17837798781692981719970703125</LongitudeDegrees>
            </Position>
            <AltitudeMeters>451.79998779296875</AltitudeMeters>
            <DistanceMeters>NAN</DistanceMeters>
          </Trackpoint>
          <Trackpoint>
            <Time>2020-05-25T06:02:37.000Z</Time>
            <Position>
              <LatitudeDegrees>38.23239044286310672760009765625</LatitudeDegrees>
              <LongitudeDegrees>-1.17837798781692981719970703125</LongitudeDegrees>
            </Position>
            <AltitudeMeters>452.20001220703125</AltitudeMeters>
            <DistanceMeters>NAN</DistanceMeters>
          </Trackpoint>
          <Trackpoint>
            <Time>2020-05-25T06:02:38.000Z</Time>
            <Position>
              <LatitudeDegrees>38.2324310950934886932373046875</LatitudeDegrees>
              <LongitudeDegrees>-1.1784582026302814483642578125</LongitudeDegrees>
            </Position>
            <AltitudeMeters>452.20001220703125</AltitudeMeters>
            <DistanceMeters>NAN</DistanceMeters>
          </Trackpoint>
          <Trackpoint>
            <Time>2020-05-25T06:02:39.000Z</Time>
            <Position>
              <LatitudeDegrees>38.2324310950934886932373046875</LatitudeDegrees>
              <LongitudeDegrees>-1.1784582026302814483642578125</LongitudeDegrees>
            </Position>
            <AltitudeMeters>452.399993896484375</AltitudeMeters>
            <DistanceMeters>NAN</DistanceMeters>
          </Trackpoint>
          <Trackpoint>
            <Time>2020-05-25T06:02:40.000Z</Time>
            <Position>
              <LatitudeDegrees>38.23244995437562465667724609375</LatitudeDegrees>
              <LongitudeDegrees>-1.17849893867969512939453125</LongitudeDegrees>
            </Position>
            <AltitudeMeters>452.79998779296875</AltitudeMeters>
            <DistanceMeters>NAN</DistanceMeters>
          </Trackpoint>
          <Trackpoint>
            <Time>2020-05-25T06:02:41.000Z</Time>
            <Position>
              <LatitudeDegrees>38.23246889747679233551025390625</LatitudeDegrees>
              <LongitudeDegrees>-1.17853925563395023345947265625</LongitudeDegrees>
            </Position>
            <AltitudeMeters>453</AltitudeMeters>
            <DistanceMeters>NAN</DistanceMeters>
          </Trackpoint>
          <Trackpoint>
            <Time>2020-05-25T06:02:42.000Z</Time>
            <Position>
              <LatitudeDegrees>38.232506699860095977783203125</LatitudeDegrees>
              <LongitudeDegrees>-1.17861754260957241058349609375</LongitudeDegrees>
            </Position>
            <AltitudeMeters>453</AltitudeMeters>
            <DistanceMeters>NAN</DistanceMeters>
          </Trackpoint>
          <Trackpoint>
            <Time>2020-05-25T06:02:43.000Z</Time>
            <Position>
              <LatitudeDegrees>38.232506699860095977783203125</LatitudeDegrees>
              <LongitudeDegrees>-1.17861754260957241058349609375</LongitudeDegrees>
            </Position>
            <AltitudeMeters>453.20001220703125</AltitudeMeters>
            <DistanceMeters>NAN</DistanceMeters>
          </Trackpoint>
          <Trackpoint>
            <Time>2020-05-25T06:02:44.000Z</Time>
            <Position>
              <LatitudeDegrees>38.23254282586276531219482421875</LatitudeDegrees>
              <LongitudeDegrees>-1.1786980926990509033203125</LongitudeDegrees>
            </Position>
            <AltitudeMeters>453.399993896484375</AltitudeMeters>
            <DistanceMeters>NAN</DistanceMeters>
          </Trackpoint>
          <Trackpoint>
            <Time>2020-05-25T06:02:45.000Z</Time>
            <Position>
              <LatitudeDegrees>38.23254282586276531219482421875</LatitudeDegrees>
              <LongitudeDegrees>-1.1786980926990509033203125</LongitudeDegrees>
            </Position>
            <AltitudeMeters>453.600006103515625</AltitudeMeters>
            <DistanceMeters>NAN</DistanceMeters>
          </Trackpoint>
          <Trackpoint>
            <Time>2020-05-25T06:02:46.000Z</Time>
            <Position>
              <LatitudeDegrees>38.23256042785942554473876953125</LatitudeDegrees>
              <LongitudeDegrees>-1.1787408404052257537841796875</LongitudeDegrees>
            </Position>
            <AltitudeMeters>453.79998779296875</AltitudeMeters>
            <DistanceMeters>NAN</DistanceMeters>
          </Trackpoint>
          <Trackpoint>
            <Time>2020-05-25T06:02:47.000Z</Time>
            <Position>
              <LatitudeDegrees>38.23257735930383205413818359375</LatitudeDegrees>
              <LongitudeDegrees>-1.17878350429236888885498046875</LongitudeDegrees>
            </Position>
            <AltitudeMeters>454</AltitudeMeters>
            <DistanceMeters>NAN</DistanceMeters>
          </Trackpoint>
          <Trackpoint>
            <Time>2020-05-25T06:02:48.000Z</Time>
            <Position>
              <LatitudeDegrees>38.23261323384940624237060546875</LatitudeDegrees>
              <LongitudeDegrees>-1.17886715568602085113525390625</LongitudeDegrees>
            </Position>
            <AltitudeMeters>454.399993896484375</AltitudeMeters>
            <DistanceMeters>NAN</DistanceMeters>
          </Trackpoint>
          <Trackpoint>
            <Time>2020-05-25T06:02:49.000Z</Time>
            <Position>
              <LatitudeDegrees>38.23261323384940624237060546875</LatitudeDegrees>
              <LongitudeDegrees>-1.17886715568602085113525390625</LongitudeDegrees>
            </Position>
            <AltitudeMeters>454.600006103515625</AltitudeMeters>
            <DistanceMeters>NAN</DistanceMeters>
          </Trackpoint>
          <Trackpoint>
            <Time>2020-05-25T06:02:50.000Z</Time>
            <Position>
              <LatitudeDegrees>38.23264726437628269195556640625</LatitudeDegrees>
              <LongitudeDegrees>-1.1789497174322605133056640625</LongitudeDegrees>
            </Position>
            <AltitudeMeters>455</AltitudeMeters>
            <DistanceMeters>NAN</DistanceMeters>
          </Trackpoint>
          <Trackpoint>
            <Time>2020-05-25T06:02:51.000Z</Time>
            <Position>
              <LatitudeDegrees>38.23264726437628269195556640625</LatitudeDegrees>
              <LongitudeDegrees>-1.1789497174322605133056640625</LongitudeDegrees>
            </Position>
            <AltitudeMeters>455.20001220703125</AltitudeMeters>
            <DistanceMeters>NAN</DistanceMeters>
          </Trackpoint>
          <Trackpoint>
            <Time>2020-05-25T06:02:52.000Z</Time>
            <Position>
              <LatitudeDegrees>38.23266251944005489349365234375</LatitudeDegrees>
              <LongitudeDegrees>-1.17899254895746707916259765625</LongitudeDegrees>
            </Position>
            <AltitudeMeters>455.600006103515625</AltitudeMeters>
            <DistanceMeters>NAN</DistanceMeters>
          </Trackpoint>
          <Trackpoint>
            <Time>2020-05-25T06:02:53.000Z</Time>
            <Position>
              <LatitudeDegrees>38.23267777450382709503173828125</LatitudeDegrees>
              <LongitudeDegrees>-1.179036386311054229736328125</LongitudeDegrees>
            </Position>
            <AltitudeMeters>455.79998779296875</AltitudeMeters>
            <DistanceMeters>NAN</DistanceMeters>
          </Trackpoint>
          <Trackpoint>
            <Time>2020-05-25T06:02:54.000Z</Time>
            <Position>
              <LatitudeDegrees>38.232709206640720367431640625</LatitudeDegrees>
              <LongitudeDegrees>-1.1791230551898479461669921875</LongitudeDegrees>
            </Position>
            <AltitudeMeters>456</AltitudeMeters>
            <DistanceMeters>NAN</DistanceMeters>
          </Trackpoint>
          <Trackpoint>
            <Time>2020-05-25T06:02:55.000Z</Time>
            <Position>
              <LatitudeDegrees>38.232709206640720367431640625</LatitudeDegrees>
              <LongitudeDegrees>-1.1791230551898479461669921875</LongitudeDegrees>
            </Position>
            <AltitudeMeters>456.20001220703125</AltitudeMeters>
            <DistanceMeters>NAN</DistanceMeters>
          </Trackpoint>
          <Trackpoint>
            <Time>2020-05-25T06:02:56.000Z</Time>
            <Position>
              <LatitudeDegrees>38.2327425666153430938720703125</LatitudeDegrees>
              <LongitudeDegrees>-1.1792055331170558929443359375</LongitudeDegrees>
            </Position>
            <AltitudeMeters>456.399993896484375</AltitudeMeters>
            <DistanceMeters>NAN</DistanceMeters>
          </Trackpoint>
          <Trackpoint>
            <Time>2020-05-25T06:02:57.000Z</Time>
            <Position>
              <LatitudeDegrees>38.2327425666153430938720703125</LatitudeDegrees>
              <LongitudeDegrees>-1.1792055331170558929443359375</LongitudeDegrees>
            </Position>
            <AltitudeMeters>456.600006103515625</AltitudeMeters>
            <DistanceMeters>NAN</DistanceMeters>
          </Trackpoint>
          <Trackpoint>
            <Time>2020-05-25T06:02:58.000Z</Time>
            <Position>
              <LatitudeDegrees>38.2327579893171787261962890625</LatitudeDegrees>
              <LongitudeDegrees>-1.17924668826162815093994140625</LongitudeDegrees>
            </Position>
            <AltitudeMeters>457.20001220703125</AltitudeMeters>
            <DistanceMeters>NAN</DistanceMeters>
          </Trackpoint>
          <Trackpoint>
            <Time>2020-05-25T06:02:59.000Z</Time>
            <Position>
              <LatitudeDegrees>38.23277332819998264312744140625</LatitudeDegrees>
              <LongitudeDegrees>-1.17928884923458099365234375</LongitudeDegrees>
            </Position>
            <AltitudeMeters>457.20001220703125</AltitudeMeters>
            <DistanceMeters>NAN</DistanceMeters>
          </Trackpoint>
          <Trackpoint>
            <Time>2020-05-25T06:03:00.000Z</Time>
            <Position>
              <LatitudeDegrees>38.23280450887978076934814453125</LatitudeDegrees>
              <LongitudeDegrees>-1.17937359027564525604248046875</LongitudeDegrees>
            </Position>
            <AltitudeMeters>457.399993896484375</AltitudeMeters>
            <DistanceMeters>NAN</DistanceMeters>
          </Trackpoint>
          <Trackpoint>
            <Time>2020-05-25T06:03:01.000Z</Time>
            <Position>
              <LatitudeDegrees>38.23280450887978076934814453125</LatitudeDegrees>
              <LongitudeDegrees>-1.17937359027564525604248046875</LongitudeDegrees>
            </Position>
            <AltitudeMeters>457.600006103515625</AltitudeMeters>
            <DistanceMeters>NAN</DistanceMeters>
          </Trackpoint>
          <Trackpoint>
            <Time>2020-05-25T06:03:02.000Z</Time>
            <Position>
              <LatitudeDegrees>38.232835941016674041748046875</LatitudeDegrees>
              <LongitudeDegrees>-1.1794571578502655029296875</LongitudeDegrees>
            </Position>
            <AltitudeMeters>457.79998779296875</AltitudeMeters>
            <DistanceMeters>NAN</DistanceMeters>
          </Trackpoint>
          <Trackpoint>
            <Time>2020-05-25T06:03:03.000Z</Time>
            <Position>
              <LatitudeDegrees>38.232835941016674041748046875</LatitudeDegrees>
              <LongitudeDegrees>-1.1794571578502655029296875</LongitudeDegrees>
            </Position>
            <AltitudeMeters>458</AltitudeMeters>
            <DistanceMeters>NAN</DistanceMeters>
          </Trackpoint>
          <Trackpoint>
            <Time>2020-05-25T06:03:04.000Z</Time>
            <Position>
              <LatitudeDegrees>38.23285060934722423553466796875</LatitudeDegrees>
              <LongitudeDegrees>-1.17949982173740863800048828125</LongitudeDegrees>
            </Position>
            <AltitudeMeters>458.399993896484375</AltitudeMeters>
            <DistanceMeters>NAN</DistanceMeters>
          </Trackpoint>
          <Trackpoint>
            <Time>2020-05-25T06:03:05.000Z</Time>
            <Position>
              <LatitudeDegrees>38.2328662835061550140380859375</LatitudeDegrees>
              <LongitudeDegrees>-1.17954323999583721160888671875</LongitudeDegrees>
            </Position>
            <AltitudeMeters>458.600006103515625</AltitudeMeters>
            <DistanceMeters>NAN</DistanceMeters>
          </Trackpoint>
          <Trackpoint>
            <Time>2020-05-25T06:03:06.000Z</Time>
            <Position>
              <LatitudeDegrees>38.23289989493787288665771484375</LatitudeDegrees>
              <LongitudeDegrees>-1.17962890304625034332275390625</LongitudeDegrees>
            </Position>
            <AltitudeMeters>458.79998779296875</AltitudeMeters>
            <DistanceMeters>NAN</DistanceMeters>
          </Trackpoint>
          <Trackpoint>
            <Time>2020-05-25T06:03:07.000Z</Time>
            <Position>
              <LatitudeDegrees>38.23289989493787288665771484375</LatitudeDegrees>
              <LongitudeDegrees>-1.17962890304625034332275390625</LongitudeDegrees>
            </Position>
            <AltitudeMeters>459</AltitudeMeters>
            <DistanceMeters>NAN</DistanceMeters>
          </Trackpoint>
          <Trackpoint>
            <Time>2020-05-25T06:03:08.000Z</Time>
            <Position>
              <LatitudeDegrees>38.23293191380798816680908203125</LatitudeDegrees>
              <LongitudeDegrees>-1.17971456609666347503662109375</LongitudeDegrees>
            </Position>
            <AltitudeMeters>459.20001220703125</AltitudeMeters>
            <DistanceMeters>NAN</DistanceMeters>
          </Trackpoint>
          <Trackpoint>
            <Time>2020-05-25T06:03:09.000Z</Time>
            <Position>
              <LatitudeDegrees>38.23293191380798816680908203125</LatitudeDegrees>
              <LongitudeDegrees>-1.17971456609666347503662109375</LongitudeDegrees>
            </Position>
            <AltitudeMeters>459.399993896484375</AltitudeMeters>
            <DistanceMeters>NAN</DistanceMeters>
          </Trackpoint>
          <Trackpoint>
            <Time>2020-05-25T06:03:10.000Z</Time>
            <Position>
              <LatitudeDegrees>38.23294767178595066070556640625</LatitudeDegrees>
              <LongitudeDegrees>-1.1797575652599334716796875</LongitudeDegrees>
            </Position>
            <AltitudeMeters>459.600006103515625</AltitudeMeters>
            <DistanceMeters>NAN</DistanceMeters>
          </Trackpoint>
          <Trackpoint>
            <Time>2020-05-25T06:03:11.000Z</Time>
            <Position>
              <LatitudeDegrees>38.2329623401165008544921875</LatitudeDegrees>
              <LongitudeDegrees>-1.17980006150901317596435546875</LongitudeDegrees>
            </Position>
            <AltitudeMeters>459.79998779296875</AltitudeMeters>
            <DistanceMeters>NAN</DistanceMeters>
          </Trackpoint>
          <Trackpoint>
            <Time>2020-05-25T06:03:12.000Z</Time>
            <Position>
              <LatitudeDegrees>38.23299511335790157318115234375</LatitudeDegrees>
              <LongitudeDegrees>-1.1798814497888088226318359375</LongitudeDegrees>
            </Position>
            <AltitudeMeters>460</AltitudeMeters>
            <DistanceMeters>NAN</DistanceMeters>
          </Trackpoint>
          <Trackpoint>
            <Time>2020-05-25T06:03:13.000Z</Time>
            <Position>
              <LatitudeDegrees>38.23299511335790157318115234375</LatitudeDegrees>
              <LongitudeDegrees>-1.1798814497888088226318359375</LongitudeDegrees>
            </Position>
            <AltitudeMeters>460.20001220703125</AltitudeMeters>
            <DistanceMeters>NAN</DistanceMeters>
          </Trackpoint>
          <Trackpoint>
            <Time>2020-05-25T06:03:14.000Z</Time>
            <Position>
              <LatitudeDegrees>38.23302964679896831512451171875</LatitudeDegrees>
              <LongitudeDegrees>-1.179960072040557861328125</LongitudeDegrees>
            </Position>
            <AltitudeMeters>460.399993896484375</AltitudeMeters>
            <DistanceMeters>NAN</DistanceMeters>
          </Trackpoint>
          <Trackpoint>
            <Time>2020-05-25T06:03:15.000Z</Time>
            <Position>
              <LatitudeDegrees>38.23302964679896831512451171875</LatitudeDegrees>
              <LongitudeDegrees>-1.179960072040557861328125</LongitudeDegrees>
            </Position>
            <AltitudeMeters>460.600006103515625</AltitudeMeters>
            <DistanceMeters>NAN</DistanceMeters>
          </Trackpoint>
          <Trackpoint>
            <Time>2020-05-25T06:03:16.000Z</Time>
            <Position>
              <LatitudeDegrees>38.23304624296724796295166015625</LatitudeDegrees>
              <LongitudeDegrees>-1.1799998022615909576416015625</LongitudeDegrees>
            </Position>
            <AltitudeMeters>460.79998779296875</AltitudeMeters>
            <DistanceMeters>NAN</DistanceMeters>
          </Trackpoint>
          <Trackpoint>
            <Time>2020-05-25T06:03:17.000Z</Time>
            <Position>
              <LatitudeDegrees>38.233062922954559326171875</LatitudeDegrees>
              <LongitudeDegrees>-1.180040873587131500244140625</LongitudeDegrees>
            </Position>
            <AltitudeMeters>461</AltitudeMeters>
            <DistanceMeters>NAN</DistanceMeters>
          </Trackpoint>
          <Trackpoint>
            <Time>2020-05-25T06:03:18.000Z</Time>
            <Position>
              <LatitudeDegrees>38.23309569619596004486083984375</LatitudeDegrees>
              <LongitudeDegrees>-1.18012410588562488555908203125</LongitudeDegrees>
            </Position>
            <AltitudeMeters>461.20001220703125</AltitudeMeters>
            <DistanceMeters>NAN</DistanceMeters>
          </Trackpoint>
          <Trackpoint>
            <Time>2020-05-25T06:03:19.000Z</Time>
            <Position>
              <LatitudeDegrees>38.23309569619596004486083984375</LatitudeDegrees>
              <LongitudeDegrees>-1.18012410588562488555908203125</LongitudeDegrees>
            </Position>
            <AltitudeMeters>461.399993896484375</AltitudeMeters>
            <DistanceMeters>NAN</DistanceMeters>
          </Trackpoint>
          <Trackpoint>
            <Time>2020-05-25T06:03:20.000Z</Time>
            <Position>
              <LatitudeDegrees>38.2331247813999652862548828125</LatitudeDegrees>
              <LongitudeDegrees>-1.1802063323557376861572265625</LongitudeDegrees>
            </Position>
            <AltitudeMeters>461.600006103515625</AltitudeMeters>
            <DistanceMeters>NAN</DistanceMeters>
          </Trackpoint>
          <Trackpoint>
            <Time>2020-05-25T06:03:21.000Z</Time>
            <Position>
              <LatitudeDegrees>38.2331247813999652862548828125</LatitudeDegrees>
              <LongitudeDegrees>-1.1802063323557376861572265625</LongitudeDegrees>
            </Position>
            <AltitudeMeters>461.79998779296875</AltitudeMeters>
            <DistanceMeters>NAN</DistanceMeters>
          </Trackpoint>
          <Trackpoint>
            <Time>2020-05-25T06:03:22.000Z</Time>
            <Position>
              <LatitudeDegrees>38.23313609696924686431884765625</LatitudeDegrees>
              <LongitudeDegrees>-1.18024899624288082122802734375</LongitudeDegrees>
            </Position>
            <AltitudeMeters>462.20001220703125</AltitudeMeters>
            <DistanceMeters>NAN</DistanceMeters>
          </Trackpoint>
          <Trackpoint>
            <Time>2020-05-25T06:03:23.000Z</Time>
            <Position>
              <LatitudeDegrees>38.23314649052917957305908203125</LatitudeDegrees>
              <LongitudeDegrees>-1.180292665958404541015625</LongitudeDegrees>
            </Position>
            <AltitudeMeters>462.399993896484375</AltitudeMeters>
            <DistanceMeters>NAN</DistanceMeters>
          </Trackpoint>
          <Trackpoint>
            <Time>2020-05-25T06:03:24.000Z</Time>
            <Position>
              <LatitudeDegrees>38.2331703789532184600830078125</LatitudeDegrees>
              <LongitudeDegrees>-1.18038184940814971923828125</LongitudeDegrees>
            </Position>
            <AltitudeMeters>462.600006103515625</AltitudeMeters>
            <DistanceMeters>NAN</DistanceMeters>
          </Trackpoint>
          <Trackpoint>
            <Time>2020-05-25T06:03:25.000Z</Time>
            <Position>
              <LatitudeDegrees>38.2331703789532184600830078125</LatitudeDegrees>
              <LongitudeDegrees>-1.18038184940814971923828125</LongitudeDegrees>
            </Position>
            <AltitudeMeters>463</AltitudeMeters>
            <DistanceMeters>NAN</DistanceMeters>
          </Trackpoint>
          <Trackpoint>
            <Time>2020-05-25T06:03:26.000Z</Time>
            <Position>
              <LatitudeDegrees>38.23319259099662303924560546875</LatitudeDegrees>
              <LongitudeDegrees>-1.18047245778143405914306640625</LongitudeDegrees>
            </Position>
            <AltitudeMeters>463.20001220703125</AltitudeMeters>
            <DistanceMeters>NAN</DistanceMeters>
          </Trackpoint>
          <Trackpoint>
            <Time>2020-05-25T06:03:27.000Z</Time>
            <Position>
              <LatitudeDegrees>38.23319259099662303924560546875</LatitudeDegrees>
              <LongitudeDegrees>-1.18047245778143405914306640625</LongitudeDegrees>
            </Position>
            <AltitudeMeters>463.399993896484375</AltitudeMeters>
            <DistanceMeters>NAN</DistanceMeters>
          </Trackpoint>
          <Trackpoint>
            <Time>2020-05-25T06:03:28.000Z</Time>
            <Position>
              <LatitudeDegrees>38.2332025654613971710205078125</LatitudeDegrees>
              <LongitudeDegrees>-1.1805191449820995330810546875</LongitudeDegrees>
            </Position>
            <AltitudeMeters>463.600006103515625</AltitudeMeters>
            <DistanceMeters>NAN</DistanceMeters>
          </Trackpoint>
          <Trackpoint>
            <Time>2020-05-25T06:03:29.000Z</Time>
            <Position>
              <LatitudeDegrees>38.23321287520229816436767578125</LatitudeDegrees>
              <LongitudeDegrees>-1.1805654130876064300537109375</LongitudeDegrees>
            </Position>
            <AltitudeMeters>464</AltitudeMeters>
            <DistanceMeters>NAN</DistanceMeters>
          </Trackpoint>
          <Trackpoint>
            <Time>2020-05-25T06:03:30.000Z</Time>
            <Position>
              <LatitudeDegrees>38.23323450051248073577880859375</LatitudeDegrees>
              <LongitudeDegrees>-1.1806559376418590545654296875</LongitudeDegrees>
            </Position>
            <AltitudeMeters>464.20001220703125</AltitudeMeters>
            <DistanceMeters>NAN</DistanceMeters>
          </Trackpoint>
          <Trackpoint>
            <Time>2020-05-25T06:03:31.000Z</Time>
            <Position>
              <LatitudeDegrees>38.23323450051248073577880859375</LatitudeDegrees>
              <LongitudeDegrees>-1.1806559376418590545654296875</LongitudeDegrees>
            </Position>
            <AltitudeMeters>464.399993896484375</AltitudeMeters>
            <DistanceMeters>NAN</DistanceMeters>
          </Trackpoint>
          <Trackpoint>
            <Time>2020-05-25T06:03:32.000Z</Time>
            <Position>
              <LatitudeDegrees>38.23325461708009243011474609375</LatitudeDegrees>
              <LongitudeDegrees>-1.18074671365320682525634765625</LongitudeDegrees>
            </Position>
            <AltitudeMeters>464.399993896484375</AltitudeMeters>
            <DistanceMeters>NAN</DistanceMeters>
          </Trackpoint>
          <Trackpoint>
            <Time>2020-05-25T06:03:33.000Z</Time>
            <Position>
              <LatitudeDegrees>38.23325461708009243011474609375</LatitudeDegrees>
              <LongitudeDegrees>-1.18074671365320682525634765625</LongitudeDegrees>
            </Position>
            <AltitudeMeters>464.399993896484375</AltitudeMeters>
            <DistanceMeters>NAN</DistanceMeters>
          </Trackpoint>
          <Trackpoint>
            <Time>2020-05-25T06:03:34.000Z</Time>
            <Position>
              <LatitudeDegrees>38.23326568119227886199951171875</LatitudeDegrees>
              <LongitudeDegrees>-1.18079222738742828369140625</LongitudeDegrees>
            </Position>
            <AltitudeMeters>464.600006103515625</AltitudeMeters>
            <DistanceMeters>NAN</DistanceMeters>
          </Trackpoint>
          <Trackpoint>
            <Time>2020-05-25T06:03:35.000Z</Time>
            <Position>
              <LatitudeDegrees>38.233278505504131317138671875</LatitudeDegrees>
              <LongitudeDegrees>-1.18083757348358631134033203125</LongitudeDegrees>
            </Position>
            <AltitudeMeters>464.600006103515625</AltitudeMeters>
            <DistanceMeters>NAN</DistanceMeters>
          </Trackpoint>
          <Trackpoint>
            <Time>2020-05-25T06:03:36.000Z</Time>
            <Position>
              <LatitudeDegrees>38.23330038227140903472900390625</LatitudeDegrees>
              <LongitudeDegrees>-1.18092902004718780517578125</LongitudeDegrees>
            </Position>
            <AltitudeMeters>464.600006103515625</AltitudeMeters>
            <DistanceMeters>NAN</DistanceMeters>
          </Trackpoint>
          <Trackpoint>
            <Time>2020-05-25T06:03:37.000Z</Time>
            <Position>
              <LatitudeDegrees>38.23330038227140903472900390625</LatitudeDegrees>
              <LongitudeDegrees>-1.18092902004718780517578125</LongitudeDegrees>
            </Position>
            <AltitudeMeters>465</AltitudeMeters>
            <DistanceMeters>NAN</DistanceMeters>
          </Trackpoint>
          <Trackpoint>
            <Time>2020-05-25T06:03:38.000Z</Time>
            <Position>
              <LatitudeDegrees>38.23332049883902072906494140625</LatitudeDegrees>
              <LongitudeDegrees>-1.18102197535336017608642578125</LongitudeDegrees>
            </Position>
            <AltitudeMeters>465.20001220703125</AltitudeMeters>
            <DistanceMeters>NAN</DistanceMeters>
          </Trackpoint>
          <Trackpoint>
            <Time>2020-05-25T06:03:39.000Z</Time>
            <Position>
              <LatitudeDegrees>38.23332049883902072906494140625</LatitudeDegrees>
              <LongitudeDegrees>-1.18102197535336017608642578125</LongitudeDegrees>
            </Position>
            <AltitudeMeters>465.399993896484375</AltitudeMeters>
            <DistanceMeters>NAN</DistanceMeters>
          </Trackpoint>
          <Trackpoint>
            <Time>2020-05-25T06:03:40.000Z</Time>
            <Position>
              <LatitudeDegrees>38.23332988657057285308837890625</LatitudeDegrees>
              <LongitudeDegrees>-1.1810686625540256500244140625</LongitudeDegrees>
            </Position>
            <AltitudeMeters>465.600006103515625</AltitudeMeters>
            <DistanceMeters>NAN</DistanceMeters>
          </Trackpoint>
          <Trackpoint>
            <Time>2020-05-25T06:03:41.000Z</Time>
            <Position>
              <LatitudeDegrees>38.2333383522927761077880859375</LatitudeDegrees>
              <LongitudeDegrees>-1.18111501447856426239013671875</LongitudeDegrees>
            </Position>
            <AltitudeMeters>465.79998779296875</AltitudeMeters>
            <DistanceMeters>NAN</DistanceMeters>
          </Trackpoint>
          <Trackpoint>
            <Time>2020-05-25T06:03:42.000Z</Time>
            <Position>
              <LatitudeDegrees>38.2333537749946117401123046875</LatitudeDegrees>
              <LongitudeDegrees>-1.18120771832764148712158203125</LongitudeDegrees>
            </Position>
            <AltitudeMeters>466</AltitudeMeters>
            <DistanceMeters>NAN</DistanceMeters>
          </Trackpoint>
          <Trackpoint>
            <Time>2020-05-25T06:03:43.000Z</Time>
            <Position>
              <LatitudeDegrees>38.2333537749946117401123046875</LatitudeDegrees>
              <LongitudeDegrees>-1.18120771832764148712158203125</LongitudeDegrees>
            </Position>
            <AltitudeMeters>466.20001220703125</AltitudeMeters>
            <DistanceMeters>NAN</DistanceMeters>
          </Trackpoint>
          <Trackpoint>
            <Time>2020-05-25T06:03:44.000Z</Time>
            <Position>
              <LatitudeDegrees>38.233370371162891387939453125</LatitudeDegrees>
              <LongitudeDegrees>-1.181300170719623565673828125</LongitudeDegrees>
            </Position>
            <AltitudeMeters>466.20001220703125</AltitudeMeters>
            <DistanceMeters>NAN</DistanceMeters>
          </Trackpoint>
          <Trackpoint>
            <Time>2020-05-25T06:03:45.000Z</Time>
            <Position>
              <LatitudeDegrees>38.233370371162891387939453125</LatitudeDegrees>
              <LongitudeDegrees>-1.181300170719623565673828125</LongitudeDegrees>
            </Position>
            <AltitudeMeters>466.399993896484375</AltitudeMeters>
            <DistanceMeters>NAN</DistanceMeters>
          </Trackpoint>
          <Trackpoint>
            <Time>2020-05-25T06:03:46.000Z</Time>
            <Position>
              <LatitudeDegrees>38.233378417789936065673828125</LatitudeDegrees>
              <LongitudeDegrees>-1.18134618736803531646728515625</LongitudeDegrees>
            </Position>
            <AltitudeMeters>466.600006103515625</AltitudeMeters>
            <DistanceMeters>NAN</DistanceMeters>
          </Trackpoint>
          <Trackpoint>
            <Time>2020-05-25T06:03:47.000Z</Time>
            <Position>
              <LatitudeDegrees>38.23338403366506099700927734375</LatitudeDegrees>
              <LongitudeDegrees>-1.18139312602579593658447265625</LongitudeDegrees>
            </Position>
            <AltitudeMeters>467</AltitudeMeters>
            <DistanceMeters>NAN</DistanceMeters>
          </Trackpoint>
          <Trackpoint>
            <Time>2020-05-25T06:03:48.000Z</Time>
            <Position>
              <LatitudeDegrees>38.23338939808309078216552734375</LatitudeDegrees>
              <LongitudeDegrees>-1.18149052374064922332763671875</LongitudeDegrees>
            </Position>
            <AltitudeMeters>467</AltitudeMeters>
            <DistanceMeters>NAN</DistanceMeters>
          </Trackpoint>
          <Trackpoint>
            <Time>2020-05-25T06:03:49.000Z</Time>
            <Position>
              <LatitudeDegrees>38.23338939808309078216552734375</LatitudeDegrees>
              <LongitudeDegrees>-1.18149052374064922332763671875</LongitudeDegrees>
            </Position>
            <AltitudeMeters>467.20001220703125</AltitudeMeters>
            <DistanceMeters>NAN</DistanceMeters>
          </Trackpoint>
          <Trackpoint>
            <Time>2020-05-25T06:03:50.000Z</Time>
            <Position>
              <LatitudeDegrees>38.2333963550627231597900390625</LatitudeDegrees>
              <LongitudeDegrees>-1.18158884346485137939453125</LongitudeDegrees>
            </Position>
            <AltitudeMeters>467.399993896484375</AltitudeMeters>
            <DistanceMeters>NAN</DistanceMeters>
          </Trackpoint>
          <Trackpoint>
            <Time>2020-05-25T06:03:51.000Z</Time>
            <Position>
              <LatitudeDegrees>38.2333963550627231597900390625</LatitudeDegrees>
              <LongitudeDegrees>-1.18158884346485137939453125</LongitudeDegrees>
            </Position>
            <AltitudeMeters>467.600006103515625</AltitudeMeters>
            <DistanceMeters>NAN</DistanceMeters>
          </Trackpoint>
          <Trackpoint>
            <Time>2020-05-25T06:03:52.000Z</Time>
            <Position>
              <LatitudeDegrees>38.23340029455721378326416015625</LatitudeDegrees>
              <LongitudeDegrees>-1.1816377937793731689453125</LongitudeDegrees>
            </Position>
            <AltitudeMeters>467.600006103515625</AltitudeMeters>
            <DistanceMeters>NAN</DistanceMeters>
          </Trackpoint>
          <Trackpoint>
            <Time>2020-05-25T06:03:53.000Z</Time>
            <Position>
              <LatitudeDegrees>38.23340113274753093719482421875</LatitudeDegrees>
              <LongitudeDegrees>-1.18168649263679981231689453125</LongitudeDegrees>
            </Position>
            <AltitudeMeters>467.79998779296875</AltitudeMeters>
            <DistanceMeters>NAN</DistanceMeters>
          </Trackpoint>
          <Trackpoint>
            <Time>2020-05-25T06:03:54.000Z</Time>
            <Position>
              <LatitudeDegrees>38.23340012691915035247802734375</LatitudeDegrees>
              <LongitudeDegrees>-1.18178321979939937591552734375</LongitudeDegrees>
            </Position>
            <AltitudeMeters>468</AltitudeMeters>
            <DistanceMeters>NAN</DistanceMeters>
          </Trackpoint>
          <Trackpoint>
            <Time>2020-05-25T06:03:55.000Z</Time>
            <Position>
              <LatitudeDegrees>38.23340012691915035247802734375</LatitudeDegrees>
              <LongitudeDegrees>-1.18178321979939937591552734375</LongitudeDegrees>
            </Position>
            <AltitudeMeters>468.20001220703125</AltitudeMeters>
            <DistanceMeters>NAN</DistanceMeters>
          </Trackpoint>
          <Trackpoint>
            <Time>2020-05-25T06:03:56.000Z</Time>
            <Position>
              <LatitudeDegrees>38.2334050722420215606689453125</LatitudeDegrees>
              <LongitudeDegrees>-1.18187877349555492401123046875</LongitudeDegrees>
            </Position>
            <AltitudeMeters>468.399993896484375</AltitudeMeters>
            <DistanceMeters>NAN</DistanceMeters>
          </Trackpoint>
          <Trackpoint>
            <Time>2020-05-25T06:03:57.000Z</Time>
            <Position>
              <LatitudeDegrees>38.2334050722420215606689453125</LatitudeDegrees>
              <LongitudeDegrees>-1.18187877349555492401123046875</LongitudeDegrees>
            </Position>
            <AltitudeMeters>468.600006103515625</AltitudeMeters>
            <DistanceMeters>NAN</DistanceMeters>
          </Trackpoint>
          <Trackpoint>
            <Time>2020-05-25T06:03:58.000Z</Time>
            <Position>
              <LatitudeDegrees>38.23340632952749729156494140625</LatitudeDegrees>
              <LongitudeDegrees>-1.18192613124847412109375</LongitudeDegrees>
            </Position>
            <AltitudeMeters>468.600006103515625</AltitudeMeters>
            <DistanceMeters>NAN</DistanceMeters>
          </Trackpoint>
          <Trackpoint>
            <Time>2020-05-25T06:03:59.000Z</Time>
            <Position>
              <LatitudeDegrees>38.2334067486226558685302734375</LatitudeDegrees>
              <LongitudeDegrees>-1.18197374045848846435546875</LongitudeDegrees>
            </Position>
            <AltitudeMeters>468.79998779296875</AltitudeMeters>
            <DistanceMeters>NAN</DistanceMeters>
          </Trackpoint>
          <Trackpoint>
            <Time>2020-05-25T06:04:00.000Z</Time>
            <Position>
              <LatitudeDegrees>38.23341093957424163818359375</LatitudeDegrees>
              <LongitudeDegrees>-1.18206895887851715087890625</LongitudeDegrees>
            </Position>
            <AltitudeMeters>469</AltitudeMeters>
            <DistanceMeters>NAN</DistanceMeters>
          </Trackpoint>
          <Trackpoint>
            <Time>2020-05-25T06:04:01.000Z</Time>
            <Position>
              <LatitudeDegrees>38.23341093957424163818359375</LatitudeDegrees>
              <LongitudeDegrees>-1.18206895887851715087890625</LongitudeDegrees>
            </Position>
            <AltitudeMeters>469.20001220703125</AltitudeMeters>
            <DistanceMeters>NAN</DistanceMeters>
          </Trackpoint>
          <Trackpoint>
            <Time>2020-05-25T06:04:02.000Z</Time>
            <Position>
              <LatitudeDegrees>38.23341856710612773895263671875</LatitudeDegrees>
              <LongitudeDegrees>-1.18216292001307010650634765625</LongitudeDegrees>
            </Position>
            <AltitudeMeters>469.399993896484375</AltitudeMeters>
            <DistanceMeters>NAN</DistanceMeters>
          </Trackpoint>
          <Trackpoint>
            <Time>2020-05-25T06:04:03.000Z</Time>
            <Position>
              <LatitudeDegrees>38.23341856710612773895263671875</LatitudeDegrees>
              <LongitudeDegrees>-1.18216292001307010650634765625</LongitudeDegrees>
            </Position>
            <AltitudeMeters>469.600006103515625</AltitudeMeters>
            <DistanceMeters>NAN</DistanceMeters>
          </Trackpoint>
          <Trackpoint>
            <Time>2020-05-25T06:04:04.000Z</Time>
            <Position>
              <LatitudeDegrees>38.2334241829812526702880859375</LatitudeDegrees>
              <LongitudeDegrees>-1.18220918811857700347900390625</LongitudeDegrees>
            </Position>
            <AltitudeMeters>469.79998779296875</AltitudeMeters>
            <DistanceMeters>NAN</DistanceMeters>
          </Trackpoint>
          <Trackpoint>
            <Time>2020-05-25T06:04:05.000Z</Time>
            <Position>
              <LatitudeDegrees>38.2334312237799167633056640625</LatitudeDegrees>
              <LongitudeDegrees>-1.1822552047669887542724609375</LongitudeDegrees>
            </Position>
            <AltitudeMeters>470</AltitudeMeters>
            <DistanceMeters>NAN</DistanceMeters>
          </Trackpoint>
          <Trackpoint>
            <Time>2020-05-25T06:04:06.000Z</Time>
            <Position>
              <LatitudeDegrees>38.233446814119815826416015625</LatitudeDegrees>
              <LongitudeDegrees>-1.1823463998734951019287109375</LongitudeDegrees>
            </Position>
            <AltitudeMeters>470.20001220703125</AltitudeMeters>
            <DistanceMeters>NAN</DistanceMeters>
          </Trackpoint>
          <Trackpoint>
            <Time>2020-05-25T06:04:07.000Z</Time>
            <Position>
              <LatitudeDegrees>38.233446814119815826416015625</LatitudeDegrees>
              <LongitudeDegrees>-1.1823463998734951019287109375</LongitudeDegrees>
            </Position>
            <AltitudeMeters>470.600006103515625</AltitudeMeters>
            <DistanceMeters>NAN</DistanceMeters>
          </Trackpoint>
          <Trackpoint>
            <Time>2020-05-25T06:04:08.000Z</Time>
            <Position>
              <LatitudeDegrees>38.23346416465938091278076171875</LatitudeDegrees>
              <LongitudeDegrees>-1.18243868462741374969482421875</LongitudeDegrees>
            </Position>
            <AltitudeMeters>470.79998779296875</AltitudeMeters>
            <DistanceMeters>NAN</DistanceMeters>
          </Trackpoint>
          <Trackpoint>
            <Time>2020-05-25T06:04:09.000Z</Time>
            <Position>
              <LatitudeDegrees>38.23346416465938091278076171875</LatitudeDegrees>
              <LongitudeDegrees>-1.18243868462741374969482421875</LongitudeDegrees>
            </Position>
            <AltitudeMeters>471</AltitudeMeters>
            <DistanceMeters>NAN</DistanceMeters>
          </Trackpoint>
          <Trackpoint>
            <Time>2020-05-25T06:04:10.000Z</Time>
            <Position>
              <LatitudeDegrees>38.2334741391241550445556640625</LatitudeDegrees>
              <LongitudeDegrees>-1.18248470127582550048828125</LongitudeDegrees>
            </Position>
            <AltitudeMeters>471.20001220703125</AltitudeMeters>
            <DistanceMeters>NAN</DistanceMeters>
          </Trackpoint>
          <Trackpoint>
            <Time>2020-05-25T06:04:11.000Z</Time>
            <Position>
              <LatitudeDegrees>38.23348470032215118408203125</LatitudeDegrees>
              <LongitudeDegrees>-1.18253088556230068206787109375</LongitudeDegrees>
            </Position>
            <AltitudeMeters>471.399993896484375</AltitudeMeters>
            <DistanceMeters>NAN</DistanceMeters>
          </Trackpoint>
          <Trackpoint>
            <Time>2020-05-25T06:04:12.000Z</Time>
            <Position>
              <LatitudeDegrees>38.233506493270397186279296875</LatitudeDegrees>
              <LongitudeDegrees>-1.182619817554950714111328125</LongitudeDegrees>
            </Position>
            <AltitudeMeters>471.79998779296875</AltitudeMeters>
            <DistanceMeters>NAN</DistanceMeters>
          </Trackpoint>
          <Trackpoint>
            <Time>2020-05-25T06:04:13.000Z</Time>
            <Position>
              <LatitudeDegrees>38.233506493270397186279296875</LatitudeDegrees>
              <LongitudeDegrees>-1.182619817554950714111328125</LongitudeDegrees>
            </Position>
            <AltitudeMeters>472</AltitudeMeters>
            <DistanceMeters>NAN</DistanceMeters>
          </Trackpoint>
          <Trackpoint>
            <Time>2020-05-25T06:04:14.000Z</Time>
            <Position>
              <LatitudeDegrees>38.23353071697056293487548828125</LatitudeDegrees>
              <LongitudeDegrees>-1.1827051453292369842529296875</LongitudeDegrees>
            </Position>
            <AltitudeMeters>472</AltitudeMeters>
            <DistanceMeters>NAN</DistanceMeters>
          </Trackpoint>
          <Trackpoint>
            <Time>2020-05-25T06:04:15.000Z</Time>
            <Position>
              <LatitudeDegrees>38.23353071697056293487548828125</LatitudeDegrees>
              <LongitudeDegrees>-1.1827051453292369842529296875</LongitudeDegrees>
            </Position>
            <AltitudeMeters>472.399993896484375</AltitudeMeters>
            <DistanceMeters>NAN</DistanceMeters>
          </Trackpoint>
          <Trackpoint>
            <Time>2020-05-25T06:04:16.000Z</Time>
            <Position>
              <LatitudeDegrees>38.23354178108274936676025390625</LatitudeDegrees>
              <LongitudeDegrees>-1.18274931795895099639892578125</LongitudeDegrees>
            </Position>
            <AltitudeMeters>472.600006103515625</AltitudeMeters>
            <DistanceMeters>NAN</DistanceMeters>
          </Trackpoint>
          <Trackpoint>
            <Time>2020-05-25T06:04:17.000Z</Time>
            <Position>
              <LatitudeDegrees>38.23356307111680507659912109375</LatitudeDegrees>
              <LongitudeDegrees>-1.18284068070352077484130859375</LongitudeDegrees>
            </Position>
            <AltitudeMeters>472.79998779296875</AltitudeMeters>
            <DistanceMeters>NAN</DistanceMeters>
          </Trackpoint>
          <Trackpoint>
            <Time>2020-05-25T06:04:18.000Z</Time>
            <Position>
              <LatitudeDegrees>38.2335706986486911773681640625</LatitudeDegrees>
              <LongitudeDegrees>-1.18288778699934482574462890625</LongitudeDegrees>
            </Position>
            <AltitudeMeters>473</AltitudeMeters>
            <DistanceMeters>NAN</DistanceMeters>
          </Trackpoint>
          <Trackpoint>
            <Time>2020-05-25T06:04:19.000Z</Time>
            <Position>
              <LatitudeDegrees>38.23357664979994297027587890625</LatitudeDegrees>
              <LongitudeDegrees>-1.18293573148548603057861328125</LongitudeDegrees>
            </Position>
            <AltitudeMeters>473.20001220703125</AltitudeMeters>
            <DistanceMeters>NAN</DistanceMeters>
          </Trackpoint>
          <Trackpoint>
            <Time>2020-05-25T06:04:20.000Z</Time>
            <Position>
              <LatitudeDegrees>38.2335817627608776092529296875</LatitudeDegrees>
              <LongitudeDegrees>-1.1829842627048492431640625</LongitudeDegrees>
            </Position>
            <AltitudeMeters>473.20001220703125</AltitudeMeters>
            <DistanceMeters>NAN</DistanceMeters>
          </Trackpoint>
          <Trackpoint>
            <Time>2020-05-25T06:04:21.000Z</Time>
            <Position>
              <LatitudeDegrees>38.2335864566266536712646484375</LatitudeDegrees>
              <LongitudeDegrees>-1.1830330453813076019287109375</LongitudeDegrees>
            </Position>
            <AltitudeMeters>473.600006103515625</AltitudeMeters>
            <DistanceMeters>NAN</DistanceMeters>
          </Trackpoint>
          <Trackpoint>
            <Time>2020-05-25T06:04:22.000Z</Time>
            <Position>
              <LatitudeDegrees>38.2335864566266536712646484375</LatitudeDegrees>
              <LongitudeDegrees>-1.1830330453813076019287109375</LongitudeDegrees>
            </Position>
            <AltitudeMeters>473.600006103515625</AltitudeMeters>
            <DistanceMeters>NAN</DistanceMeters>
          </Trackpoint>
          <Trackpoint>
            <Time>2020-05-25T06:04:23.000Z</Time>
            <Position>
              <LatitudeDegrees>38.2335928268730640411376953125</LatitudeDegrees>
              <LongitudeDegrees>-1.18313153274357318878173828125</LongitudeDegrees>
            </Position>
            <AltitudeMeters>474</AltitudeMeters>
            <DistanceMeters>NAN</DistanceMeters>
          </Trackpoint>
          <Trackpoint>
            <Time>2020-05-25T06:04:24.000Z</Time>
            <Position>
              <LatitudeDegrees>38.23359542526304721832275390625</LatitudeDegrees>
              <LongitudeDegrees>-1.183181740343570709228515625</LongitudeDegrees>
            </Position>
            <AltitudeMeters>474</AltitudeMeters>
            <DistanceMeters>NAN</DistanceMeters>
          </Trackpoint>
          <Trackpoint>
            <Time>2020-05-25T06:04:25.000Z</Time>
            <Position>
              <LatitudeDegrees>38.23359777219593524932861328125</LatitudeDegrees>
              <LongitudeDegrees>-1.18323178030550479888916015625</LongitudeDegrees>
            </Position>
            <AltitudeMeters>474.20001220703125</AltitudeMeters>
            <DistanceMeters>NAN</DistanceMeters>
          </Trackpoint>
          <Trackpoint>
            <Time>2020-05-25T06:04:26.000Z</Time>
            <Position>
              <LatitudeDegrees>38.23359894566237926483154296875</LatitudeDegrees>
              <LongitudeDegrees>-1.18328223936259746551513671875</LongitudeDegrees>
            </Position>
            <AltitudeMeters>474.399993896484375</AltitudeMeters>
            <DistanceMeters>NAN</DistanceMeters>
          </Trackpoint>
          <Trackpoint>
            <Time>2020-05-25T06:04:27.000Z</Time>
            <Position>
              <LatitudeDegrees>38.23359894566237926483154296875</LatitudeDegrees>
              <LongitudeDegrees>-1.18328223936259746551513671875</LongitudeDegrees>
            </Position>
            <AltitudeMeters>474.600006103515625</AltitudeMeters>
            <DistanceMeters>NAN</DistanceMeters>
          </Trackpoint>
          <Trackpoint>
            <Time>2020-05-25T06:04:28.000Z</Time>
            <Position>
              <LatitudeDegrees>38.23360028676688671112060546875</LatitudeDegrees>
              <LongitudeDegrees>-1.18333336897194385528564453125</LongitudeDegrees>
            </Position>
            <AltitudeMeters>474.79998779296875</AltitudeMeters>
            <DistanceMeters>NAN</DistanceMeters>
          </Trackpoint>
          <Trackpoint>
            <Time>2020-05-25T06:04:29.000Z</Time>
            <Position>
              <LatitudeDegrees>38.23360146023333072662353515625</LatitudeDegrees>
              <LongitudeDegrees>-1.1834357120096683502197265625</LongitudeDegrees>
            </Position>
            <AltitudeMeters>475</AltitudeMeters>
            <DistanceMeters>NAN</DistanceMeters>
          </Trackpoint>
          <Trackpoint>
            <Time>2020-05-25T06:04:30.000Z</Time>
            <Position>
              <LatitudeDegrees>38.23360280133783817291259765625</LatitudeDegrees>
              <LongitudeDegrees>-1.1834866739809513092041015625</LongitudeDegrees>
            </Position>
            <AltitudeMeters>475.399993896484375</AltitudeMeters>
            <DistanceMeters>NAN</DistanceMeters>
          </Trackpoint>
          <Trackpoint>
            <Time>2020-05-25T06:04:31.000Z</Time>
            <Position>
              <LatitudeDegrees>38.23360280133783817291259765625</LatitudeDegrees>
              <LongitudeDegrees>-1.1834866739809513092041015625</LongitudeDegrees>
            </Position>
            <AltitudeMeters>475.600006103515625</AltitudeMeters>
            <DistanceMeters>NAN</DistanceMeters>
          </Trackpoint>
          <Trackpoint>
            <Time>2020-05-25T06:04:32.000Z</Time>
            <Position>
              <LatitudeDegrees>38.2336085848510265350341796875</LatitudeDegrees>
              <LongitudeDegrees>-1.18358901701867580413818359375</LongitudeDegrees>
            </Position>
            <AltitudeMeters>476</AltitudeMeters>
            <DistanceMeters>NAN</DistanceMeters>
          </Trackpoint>
          <Trackpoint>
            <Time>2020-05-25T06:04:33.000Z</Time>
            <Position>
              <LatitudeDegrees>38.2336085848510265350341796875</LatitudeDegrees>
              <LongitudeDegrees>-1.18358901701867580413818359375</LongitudeDegrees>
            </Position>
            <AltitudeMeters>476.20001220703125</AltitudeMeters>
            <DistanceMeters>NAN</DistanceMeters>
          </Trackpoint>
          <Trackpoint>
            <Time>2020-05-25T06:04:34.000Z</Time>
            <Position>
              <LatitudeDegrees>38.2336102612316608428955078125</LatitudeDegrees>
              <LongitudeDegrees>-1.1836402304470539093017578125</LongitudeDegrees>
            </Position>
            <AltitudeMeters>476.399993896484375</AltitudeMeters>
            <DistanceMeters>NAN</DistanceMeters>
          </Trackpoint>
          <Trackpoint>
            <Time>2020-05-25T06:04:35.000Z</Time>
            <Position>
              <LatitudeDegrees>38.233610428869724273681640625</LatitudeDegrees>
              <LongitudeDegrees>-1.18369194678962230682373046875</LongitudeDegrees>
            </Position>
            <AltitudeMeters>476.399993896484375</AltitudeMeters>
            <DistanceMeters>NAN</DistanceMeters>
          </Trackpoint>
          <Trackpoint>
            <Time>2020-05-25T06:04:36.000Z</Time>
            <Position>
              <LatitudeDegrees>38.23360565118491649627685546875</LatitudeDegrees>
              <LongitudeDegrees>-1.18379789404571056365966796875</LongitudeDegrees>
            </Position>
            <AltitudeMeters>476.600006103515625</AltitudeMeters>
            <DistanceMeters>NAN</DistanceMeters>
          </Trackpoint>
          <Trackpoint>
            <Time>2020-05-25T06:04:37.000Z</Time>
            <Position>
              <LatitudeDegrees>38.23360565118491649627685546875</LatitudeDegrees>
              <LongitudeDegrees>-1.18379789404571056365966796875</LongitudeDegrees>
            </Position>
            <AltitudeMeters>476.79998779296875</AltitudeMeters>
            <DistanceMeters>NAN</DistanceMeters>
          </Trackpoint>
          <Trackpoint>
            <Time>2020-05-25T06:04:38.000Z</Time>
            <Position>
              <LatitudeDegrees>38.233599364757537841796875</LatitudeDegrees>
              <LongitudeDegrees>-1.18390467949211597442626953125</LongitudeDegrees>
            </Position>
            <AltitudeMeters>477</AltitudeMeters>
            <DistanceMeters>NAN</DistanceMeters>
          </Trackpoint>
          <Trackpoint>
            <Time>2020-05-25T06:04:39.000Z</Time>
            <Position>
              <LatitudeDegrees>38.233599364757537841796875</LatitudeDegrees>
              <LongitudeDegrees>-1.18390467949211597442626953125</LongitudeDegrees>
            </Position>
            <AltitudeMeters>477.20001220703125</AltitudeMeters>
            <DistanceMeters>NAN</DistanceMeters>
          </Trackpoint>
          <Trackpoint>
            <Time>2020-05-25T06:04:40.000Z</Time>
            <Position>
              <LatitudeDegrees>38.233596347272396087646484375</LatitudeDegrees>
              <LongitudeDegrees>-1.183958239853382110595703125</LongitudeDegrees>
            </Position>
            <AltitudeMeters>477.399993896484375</AltitudeMeters>
            <DistanceMeters>NAN</DistanceMeters>
          </Trackpoint>
          <Trackpoint>
            <Time>2020-05-25T06:04:41.000Z</Time>
            <Position>
              <LatitudeDegrees>38.2335934974253177642822265625</LatitudeDegrees>
              <LongitudeDegrees>-1.18401180021464824676513671875</LongitudeDegrees>
            </Position>
            <AltitudeMeters>477.600006103515625</AltitudeMeters>
            <DistanceMeters>NAN</DistanceMeters>
          </Trackpoint>
          <Trackpoint>
            <Time>2020-05-25T06:04:42.000Z</Time>
            <Position>
              <LatitudeDegrees>38.233588300645351409912109375</LatitudeDegrees>
              <LongitudeDegrees>-1.18412009440362453460693359375</LongitudeDegrees>
            </Position>
            <AltitudeMeters>477.79998779296875</AltitudeMeters>
            <DistanceMeters>NAN</DistanceMeters>
          </Trackpoint>
          <Trackpoint>
            <Time>2020-05-25T06:04:43.000Z</Time>
            <Position>
              <LatitudeDegrees>38.233588300645351409912109375</LatitudeDegrees>
              <LongitudeDegrees>-1.18412009440362453460693359375</LongitudeDegrees>
            </Position>
            <AltitudeMeters>477.79998779296875</AltitudeMeters>
            <DistanceMeters>NAN</DistanceMeters>
          </Trackpoint>
          <Trackpoint>
            <Time>2020-05-25T06:04:44.000Z</Time>
            <Position>
              <LatitudeDegrees>38.23359089903533458709716796875</LatitudeDegrees>
              <LongitudeDegrees>-1.184230148792266845703125</LongitudeDegrees>
            </Position>
            <AltitudeMeters>478</AltitudeMeters>
            <DistanceMeters>NAN</DistanceMeters>
          </Trackpoint>
          <Trackpoint>
            <Time>2020-05-25T06:04:45.000Z</Time>
            <Position>
              <LatitudeDegrees>38.23359089903533458709716796875</LatitudeDegrees>
              <LongitudeDegrees>-1.184230148792266845703125</LongitudeDegrees>
            </Position>
            <AltitudeMeters>478</AltitudeMeters>
            <DistanceMeters>NAN</DistanceMeters>
          </Trackpoint>
          <Trackpoint>
            <Time>2020-05-25T06:04:46.000Z</Time>
            <Position>
              <LatitudeDegrees>38.23359793983399868011474609375</LatitudeDegrees>
              <LongitudeDegrees>-1.1842851340770721435546875</LongitudeDegrees>
            </Position>
            <AltitudeMeters>478</AltitudeMeters>
            <DistanceMeters>NAN</DistanceMeters>
          </Trackpoint>
          <Trackpoint>
            <Time>2020-05-25T06:04:47.000Z</Time>
            <Position>
              <LatitudeDegrees>38.23360850103199481964111328125</LatitudeDegrees>
              <LongitudeDegrees>-1.1843399517238140106201171875</LongitudeDegrees>
            </Position>
            <AltitudeMeters>478.20001220703125</AltitudeMeters>
            <DistanceMeters>NAN</DistanceMeters>
          </Trackpoint>
          <Trackpoint>
            <Time>2020-05-25T06:04:48.000Z</Time>
            <Position>
              <LatitudeDegrees>38.23363867588341236114501953125</LatitudeDegrees>
              <LongitudeDegrees>-1.18444983847439289093017578125</LongitudeDegrees>
            </Position>
            <AltitudeMeters>478.600006103515625</AltitudeMeters>
            <DistanceMeters>NAN</DistanceMeters>
          </Trackpoint>
          <Trackpoint>
            <Time>2020-05-25T06:04:49.000Z</Time>
            <Position>
              <LatitudeDegrees>38.23363867588341236114501953125</LatitudeDegrees>
              <LongitudeDegrees>-1.18444983847439289093017578125</LongitudeDegrees>
            </Position>
            <AltitudeMeters>478.600006103515625</AltitudeMeters>
            <DistanceMeters>NAN</DistanceMeters>
          </Trackpoint>
          <Trackpoint>
            <Time>2020-05-25T06:04:50.000Z</Time>
            <Position>
              <LatitudeDegrees>38.23365527205169200897216796875</LatitudeDegrees>
              <LongitudeDegrees>-1.18450566194951534271240234375</LongitudeDegrees>
            </Position>
            <AltitudeMeters>478.79998779296875</AltitudeMeters>
            <DistanceMeters>NAN</DistanceMeters>
          </Trackpoint>
          <Trackpoint>
            <Time>2020-05-25T06:04:51.000Z</Time>
            <Position>
              <LatitudeDegrees>38.2336736284196376800537109375</LatitudeDegrees>
              <LongitudeDegrees>-1.18456064723432064056396484375</LongitudeDegrees>
            </Position>
            <AltitudeMeters>478.79998779296875</AltitudeMeters>
            <DistanceMeters>NAN</DistanceMeters>
          </Trackpoint>
          <Trackpoint>
            <Time>2020-05-25T06:04:52.000Z</Time>
            <Position>
              <LatitudeDegrees>38.23369718156754970550537109375</LatitudeDegrees>
              <LongitudeDegrees>-1.18461211211979389190673828125</LongitudeDegrees>
            </Position>
            <AltitudeMeters>478.79998779296875</AltitudeMeters>
            <DistanceMeters>NAN</DistanceMeters>
          </Trackpoint>
          <Trackpoint>
            <Time>2020-05-25T06:04:53.000Z</Time>
            <Position>
              <LatitudeDegrees>38.23372366838157176971435546875</LatitudeDegrees>
              <LongitudeDegrees>-1.18466089479625225067138671875</LongitudeDegrees>
            </Position>
            <AltitudeMeters>478.79998779296875</AltitudeMeters>
            <DistanceMeters>NAN</DistanceMeters>
          </Trackpoint>
          <Trackpoint>
            <Time>2020-05-25T06:04:54.000Z</Time>
            <Position>
              <LatitudeDegrees>38.23377907276153564453125</LatitudeDegrees>
              <LongitudeDegrees>-1.1847572028636932373046875</LongitudeDegrees>
            </Position>
            <AltitudeMeters>479</AltitudeMeters>
            <DistanceMeters>NAN</DistanceMeters>
          </Trackpoint>
          <Trackpoint>
            <Time>2020-05-25T06:04:55.000Z</Time>
            <Position>
              <LatitudeDegrees>38.23377907276153564453125</LatitudeDegrees>
              <LongitudeDegrees>-1.1847572028636932373046875</LongitudeDegrees>
            </Position>
            <AltitudeMeters>479</AltitudeMeters>
            <DistanceMeters>NAN</DistanceMeters>
          </Trackpoint>
          <Trackpoint>
            <Time>2020-05-25T06:04:56.000Z</Time>
            <Position>
              <LatitudeDegrees>38.2338412664830684661865234375</LatitudeDegrees>
              <LongitudeDegrees>-1.184847392141819000244140625</LongitudeDegrees>
            </Position>
            <AltitudeMeters>479</AltitudeMeters>
            <DistanceMeters>NAN</DistanceMeters>
          </Trackpoint>
          <Trackpoint>
            <Time>2020-05-25T06:04:57.000Z</Time>
            <Position>
              <LatitudeDegrees>38.2338412664830684661865234375</LatitudeDegrees>
              <LongitudeDegrees>-1.184847392141819000244140625</LongitudeDegrees>
            </Position>
            <AltitudeMeters>479</AltitudeMeters>
            <DistanceMeters>NAN</DistanceMeters>
          </Trackpoint>
          <Trackpoint>
            <Time>2020-05-25T06:04:58.000Z</Time>
            <Position>
              <LatitudeDegrees>38.23387269861996173858642578125</LatitudeDegrees>
              <LongitudeDegrees>-1.18489357642829418182373046875</LongitudeDegrees>
            </Position>
            <AltitudeMeters>479</AltitudeMeters>
            <DistanceMeters>NAN</DistanceMeters>
          </Trackpoint>
          <Trackpoint>
            <Time>2020-05-25T06:04:59.000Z</Time>
            <Position>
              <LatitudeDegrees>38.23390421457588672637939453125</LatitudeDegrees>
              <LongitudeDegrees>-1.18494085036218166351318359375</LongitudeDegrees>
            </Position>
            <AltitudeMeters>479</AltitudeMeters>
            <DistanceMeters>NAN</DistanceMeters>
          </Trackpoint>
          <Trackpoint>
            <Time>2020-05-25T06:05:00.000Z</Time>
            <Position>
              <LatitudeDegrees>38.23396758176386356353759765625</LatitudeDegrees>
              <LongitudeDegrees>-1.18503791280090808868408203125</LongitudeDegrees>
            </Position>
            <AltitudeMeters>479</AltitudeMeters>
            <DistanceMeters>NAN</DistanceMeters>
          </Trackpoint>
          <Trackpoint>
            <Time>2020-05-25T06:05:01.000Z</Time>
            <Position>
              <LatitudeDegrees>38.23396758176386356353759765625</LatitudeDegrees>
              <LongitudeDegrees>-1.18503791280090808868408203125</LongitudeDegrees>
            </Position>
            <AltitudeMeters>479</AltitudeMeters>
            <DistanceMeters>NAN</DistanceMeters>
          </Trackpoint>
          <Trackpoint>
            <Time>2020-05-25T06:05:02.000Z</Time>
            <Position>
              <LatitudeDegrees>38.23403187096118927001953125</LatitudeDegrees>
              <LongitudeDegrees>-1.18513472378253936767578125</LongitudeDegrees>
            </Position>
            <AltitudeMeters>479</AltitudeMeters>
            <DistanceMeters>NAN</DistanceMeters>
          </Trackpoint>
          <Trackpoint>
            <Time>2020-05-25T06:05:03.000Z</Time>
            <Position>
              <LatitudeDegrees>38.23403187096118927001953125</LatitudeDegrees>
              <LongitudeDegrees>-1.18513472378253936767578125</LongitudeDegrees>
            </Position>
            <AltitudeMeters>479</AltitudeMeters>
            <DistanceMeters>NAN</DistanceMeters>
          </Trackpoint>
          <Trackpoint>
            <Time>2020-05-25T06:05:04.000Z</Time>
            <Position>
              <LatitudeDegrees>38.234063722193241119384765625</LatitudeDegrees>
              <LongitudeDegrees>-1.18518409319221973419189453125</LongitudeDegrees>
            </Position>
            <AltitudeMeters>479</AltitudeMeters>
            <DistanceMeters>NAN</DistanceMeters>
          </Trackpoint>
          <Trackpoint>
            <Time>2020-05-25T06:05:05.000Z</Time>
            <Position>
              <LatitudeDegrees>38.234096579253673553466796875</LatitudeDegrees>
              <LongitudeDegrees>-1.1852359771728515625</LongitudeDegrees>
            </Position>
            <AltitudeMeters>479</AltitudeMeters>
            <DistanceMeters>NAN</DistanceMeters>
          </Trackpoint>
          <Trackpoint>
            <Time>2020-05-25T06:05:06.000Z</Time>
            <Position>
              <LatitudeDegrees>38.23416531085968017578125</LatitudeDegrees>
              <LongitudeDegrees>-1.18533815257251262664794921875</LongitudeDegrees>
            </Position>
            <AltitudeMeters>479</AltitudeMeters>
            <DistanceMeters>NAN</DistanceMeters>
          </Trackpoint>
          <Trackpoint>
            <Time>2020-05-25T06:05:07.000Z</Time>
            <Position>
              <LatitudeDegrees>38.23416531085968017578125</LatitudeDegrees>
              <LongitudeDegrees>-1.18533815257251262664794921875</LongitudeDegrees>
            </Position>
            <AltitudeMeters>479</AltitudeMeters>
            <DistanceMeters>NAN</DistanceMeters>
          </Trackpoint>
          <Trackpoint>
            <Time>2020-05-25T06:05:08.000Z</Time>
            <Position>
              <LatitudeDegrees>38.23423144407570362091064453125</LatitudeDegrees>
              <LongitudeDegrees>-1.18543655611574649810791015625</LongitudeDegrees>
            </Position>
            <AltitudeMeters>479</AltitudeMeters>
            <DistanceMeters>NAN</DistanceMeters>
          </Trackpoint>
          <Trackpoint>
            <Time>2020-05-25T06:05:09.000Z</Time>
            <Position>
              <LatitudeDegrees>38.23423144407570362091064453125</LatitudeDegrees>
              <LongitudeDegrees>-1.18543655611574649810791015625</LongitudeDegrees>
            </Position>
            <AltitudeMeters>479</AltitudeMeters>
            <DistanceMeters>NAN</DistanceMeters>
          </Trackpoint>
          <Trackpoint>
            <Time>2020-05-25T06:05:10.000Z</Time>
            <Position>
              <LatitudeDegrees>38.2342632114887237548828125</LatitudeDegrees>
              <LongitudeDegrees>-1.18548366241157054901123046875</LongitudeDegrees>
            </Position>
            <AltitudeMeters>479</AltitudeMeters>
            <DistanceMeters>NAN</DistanceMeters>
          </Trackpoint>
          <Trackpoint>
            <Time>2020-05-25T06:05:11.000Z</Time>
            <Position>
              <LatitudeDegrees>38.2342952303588390350341796875</LatitudeDegrees>
              <LongitudeDegrees>-1.18553143925964832305908203125</LongitudeDegrees>
            </Position>
            <AltitudeMeters>479</AltitudeMeters>
            <DistanceMeters>NAN</DistanceMeters>
          </Trackpoint>
          <Trackpoint>
            <Time>2020-05-25T06:05:12.000Z</Time>
            <Position>
              <LatitudeDegrees>38.23436371050775051116943359375</LatitudeDegrees>
              <LongitudeDegrees>-1.1856327764689922332763671875</LongitudeDegrees>
            </Position>
            <AltitudeMeters>479</AltitudeMeters>
            <DistanceMeters>NAN</DistanceMeters>
          </Trackpoint>
          <Trackpoint>
            <Time>2020-05-25T06:05:13.000Z</Time>
            <Position>
              <LatitudeDegrees>38.23436371050775051116943359375</LatitudeDegrees>
              <LongitudeDegrees>-1.1856327764689922332763671875</LongitudeDegrees>
            </Position>
            <AltitudeMeters>479</AltitudeMeters>
            <DistanceMeters>NAN</DistanceMeters>
          </Trackpoint>
          <Trackpoint>
            <Time>2020-05-25T06:05:14.000Z</Time>
            <Position>
              <LatitudeDegrees>38.2344350405037403106689453125</LatitudeDegrees>
              <LongitudeDegrees>-1.18573880754411220550537109375</LongitudeDegrees>
            </Position>
            <AltitudeMeters>479</AltitudeMeters>
            <DistanceMeters>NAN</DistanceMeters>
          </Trackpoint>
          <Trackpoint>
            <Time>2020-05-25T06:05:15.000Z</Time>
            <Position>
              <LatitudeDegrees>38.2344350405037403106689453125</LatitudeDegrees>
              <LongitudeDegrees>-1.18573880754411220550537109375</LongitudeDegrees>
            </Position>
            <AltitudeMeters>479</AltitudeMeters>
            <DistanceMeters>NAN</DistanceMeters>
          </Trackpoint>
          <Trackpoint>
            <Time>2020-05-25T06:05:16.000Z</Time>
            <Position>
              <LatitudeDegrees>38.234470747411251068115234375</LatitudeDegrees>
              <LongitudeDegrees>-1.18579278700053691864013671875</LongitudeDegrees>
            </Position>
            <AltitudeMeters>479</AltitudeMeters>
            <DistanceMeters>NAN</DistanceMeters>
          </Trackpoint>
          <Trackpoint>
            <Time>2020-05-25T06:05:17.000Z</Time>
            <Position>
              <LatitudeDegrees>38.2345072925090789794921875</LatitudeDegrees>
              <LongitudeDegrees>-1.18584743700921535491943359375</LongitudeDegrees>
            </Position>
            <AltitudeMeters>479</AltitudeMeters>
            <DistanceMeters>NAN</DistanceMeters>
          </Trackpoint>
          <Trackpoint>
            <Time>2020-05-25T06:05:18.000Z</Time>
            <Position>
              <LatitudeDegrees>38.2345808856189250946044921875</LatitudeDegrees>
              <LongitudeDegrees>-1.18595489300787448883056640625</LongitudeDegrees>
            </Position>
            <AltitudeMeters>479</AltitudeMeters>
            <DistanceMeters>NAN</DistanceMeters>
          </Trackpoint>
          <Trackpoint>
            <Time>2020-05-25T06:05:19.000Z</Time>
            <Position>
              <LatitudeDegrees>38.2345808856189250946044921875</LatitudeDegrees>
              <LongitudeDegrees>-1.18595489300787448883056640625</LongitudeDegrees>
            </Position>
            <AltitudeMeters>479</AltitudeMeters>
            <DistanceMeters>NAN</DistanceMeters>
          </Trackpoint>
          <Trackpoint>
            <Time>2020-05-25T06:05:20.000Z</Time>
            <Position>
              <LatitudeDegrees>38.23465171270072460174560546875</LatitudeDegrees>
              <LongitudeDegrees>-1.1860632710158824920654296875</LongitudeDegrees>
            </Position>
            <AltitudeMeters>479</AltitudeMeters>
            <DistanceMeters>NAN</DistanceMeters>
          </Trackpoint>
          <Trackpoint>
            <Time>2020-05-25T06:05:21.000Z</Time>
            <Position>
              <LatitudeDegrees>38.23465171270072460174560546875</LatitudeDegrees>
              <LongitudeDegrees>-1.1860632710158824920654296875</LongitudeDegrees>
            </Position>
            <AltitudeMeters>479</AltitudeMeters>
            <DistanceMeters>NAN</DistanceMeters>
          </Trackpoint>
          <Trackpoint>
            <Time>2020-05-25T06:05:22.000Z</Time>
            <Position>
              <LatitudeDegrees>38.23468641377985477447509765625</LatitudeDegrees>
              <LongitudeDegrees>-1.18611649610102176666259765625</LongitudeDegrees>
            </Position>
            <AltitudeMeters>479</AltitudeMeters>
            <DistanceMeters>NAN</DistanceMeters>
          </Trackpoint>
          <Trackpoint>
            <Time>2020-05-25T06:05:23.000Z</Time>
            <Position>
              <LatitudeDegrees>38.23472111485898494720458984375</LatitudeDegrees>
              <LongitudeDegrees>-1.186169050633907318115234375</LongitudeDegrees>
            </Position>
            <AltitudeMeters>479</AltitudeMeters>
            <DistanceMeters>NAN</DistanceMeters>
          </Trackpoint>
          <Trackpoint>
            <Time>2020-05-25T06:05:24.000Z</Time>
            <Position>
              <LatitudeDegrees>38.23479051701724529266357421875</LatitudeDegrees>
              <LongitudeDegrees>-1.1862738244235515594482421875</LongitudeDegrees>
            </Position>
            <AltitudeMeters>479</AltitudeMeters>
            <DistanceMeters>NAN</DistanceMeters>
          </Trackpoint>
          <Trackpoint>
            <Time>2020-05-25T06:05:25.000Z</Time>
            <Position>
              <LatitudeDegrees>38.23479051701724529266357421875</LatitudeDegrees>
              <LongitudeDegrees>-1.1862738244235515594482421875</LongitudeDegrees>
            </Position>
            <AltitudeMeters>479</AltitudeMeters>
            <DistanceMeters>NAN</DistanceMeters>
          </Trackpoint>
          <Trackpoint>
            <Time>2020-05-25T06:05:26.000Z</Time>
            <Position>
              <LatitudeDegrees>38.23486042208969593048095703125</LatitudeDegrees>
              <LongitudeDegrees>-1.18637616746127605438232421875</LongitudeDegrees>
            </Position>
            <AltitudeMeters>479</AltitudeMeters>
            <DistanceMeters>NAN</DistanceMeters>
          </Trackpoint>
          <Trackpoint>
            <Time>2020-05-25T06:05:27.000Z</Time>
            <Position>
              <LatitudeDegrees>38.23486042208969593048095703125</LatitudeDegrees>
              <LongitudeDegrees>-1.18637616746127605438232421875</LongitudeDegrees>
            </Position>
            <AltitudeMeters>479</AltitudeMeters>
            <DistanceMeters>NAN</DistanceMeters>
          </Trackpoint>
          <Trackpoint>
            <Time>2020-05-25T06:05:28.000Z</Time>
            <Position>
              <LatitudeDegrees>38.2348957099020481109619140625</LatitudeDegrees>
              <LongitudeDegrees>-1.1864253692328929901123046875</LongitudeDegrees>
            </Position>
            <AltitudeMeters>479</AltitudeMeters>
            <DistanceMeters>NAN</DistanceMeters>
          </Trackpoint>
          <Trackpoint>
            <Time>2020-05-25T06:05:29.000Z</Time>
            <Position>
              <LatitudeDegrees>38.234931416809558868408203125</LatitudeDegrees>
              <LongitudeDegrees>-1.18647314608097076416015625</LongitudeDegrees>
            </Position>
            <AltitudeMeters>479</AltitudeMeters>
            <DistanceMeters>NAN</DistanceMeters>
          </Trackpoint>
          <Trackpoint>
            <Time>2020-05-25T06:05:30.000Z</Time>
            <Position>
              <LatitudeDegrees>38.2350035011768341064453125</LatitudeDegrees>
              <LongitudeDegrees>-1.186566017568111419677734375</LongitudeDegrees>
            </Position>
            <AltitudeMeters>479.20001220703125</AltitudeMeters>
            <DistanceMeters>NAN</DistanceMeters>
          </Trackpoint>
          <Trackpoint>
            <Time>2020-05-25T06:05:31.000Z</Time>
            <Position>
              <LatitudeDegrees>38.2350035011768341064453125</LatitudeDegrees>
              <LongitudeDegrees>-1.186566017568111419677734375</LongitudeDegrees>
            </Position>
            <AltitudeMeters>479.20001220703125</AltitudeMeters>
            <DistanceMeters>NAN</DistanceMeters>
          </Trackpoint>
          <Trackpoint>
            <Time>2020-05-25T06:05:32.000Z</Time>
            <Position>
              <LatitudeDegrees>38.23507533408701419830322265625</LatitudeDegrees>
              <LongitudeDegrees>-1.18665562011301517486572265625</LongitudeDegrees>
            </Position>
            <AltitudeMeters>479.20001220703125</AltitudeMeters>
            <DistanceMeters>NAN</DistanceMeters>
          </Trackpoint>
          <Trackpoint>
            <Time>2020-05-25T06:05:33.000Z</Time>
            <Position>
              <LatitudeDegrees>38.23507533408701419830322265625</LatitudeDegrees>
              <LongitudeDegrees>-1.18665562011301517486572265625</LongitudeDegrees>
            </Position>
            <AltitudeMeters>479.20001220703125</AltitudeMeters>
            <DistanceMeters>NAN</DistanceMeters>
          </Trackpoint>
          <Trackpoint>
            <Time>2020-05-25T06:05:34.000Z</Time>
            <Position>
              <LatitudeDegrees>38.235112130641937255859375</LatitudeDegrees>
              <LongitudeDegrees>-1.18669669143855571746826171875</LongitudeDegrees>
            </Position>
            <AltitudeMeters>479.20001220703125</AltitudeMeters>
            <DistanceMeters>NAN</DistanceMeters>
          </Trackpoint>
          <Trackpoint>
            <Time>2020-05-25T06:05:35.000Z</Time>
            <Position>
              <LatitudeDegrees>38.2351521961390972137451171875</LatitudeDegrees>
              <LongitudeDegrees>-1.1867308057844638824462890625</LongitudeDegrees>
            </Position>
            <AltitudeMeters>479.20001220703125</AltitudeMeters>
            <DistanceMeters>NAN</DistanceMeters>
          </Trackpoint>
          <Trackpoint>
            <Time>2020-05-25T06:05:36.000Z</Time>
            <Position>
              <LatitudeDegrees>38.2352407090365886688232421875</LatitudeDegrees>
              <LongitudeDegrees>-1.1867727153003215789794921875</LongitudeDegrees>
            </Position>
            <AltitudeMeters>479.399993896484375</AltitudeMeters>
            <DistanceMeters>NAN</DistanceMeters>
          </Trackpoint>
          <Trackpoint>
            <Time>2020-05-25T06:05:37.000Z</Time>
            <Position>
              <LatitudeDegrees>38.2352407090365886688232421875</LatitudeDegrees>
              <LongitudeDegrees>-1.1867727153003215789794921875</LongitudeDegrees>
            </Position>
            <AltitudeMeters>479.399993896484375</AltitudeMeters>
            <DistanceMeters>NAN</DistanceMeters>
          </Trackpoint>
          <Trackpoint>
            <Time>2020-05-25T06:05:38.000Z</Time>
            <Position>
              <LatitudeDegrees>38.23533534072339534759521484375</LatitudeDegrees>
              <LongitudeDegrees>-1.1868015490472316741943359375</LongitudeDegrees>
            </Position>
            <AltitudeMeters>479.600006103515625</AltitudeMeters>
            <DistanceMeters>NAN</DistanceMeters>
          </Trackpoint>
          <Trackpoint>
            <Time>2020-05-25T06:05:39.000Z</Time>
            <Position>
              <LatitudeDegrees>38.23533534072339534759521484375</LatitudeDegrees>
              <LongitudeDegrees>-1.1868015490472316741943359375</LongitudeDegrees>
            </Position>
            <AltitudeMeters>479.600006103515625</AltitudeMeters>
            <DistanceMeters>NAN</DistanceMeters>
          </Trackpoint>
          <Trackpoint>
            <Time>2020-05-25T06:05:40.000Z</Time>
            <Position>
              <LatitudeDegrees>38.23538378812372684478759765625</LatitudeDegrees>
              <LongitudeDegrees>-1.18680716492235660552978515625</LongitudeDegrees>
            </Position>
            <AltitudeMeters>479.79998779296875</AltitudeMeters>
            <DistanceMeters>NAN</DistanceMeters>
          </Trackpoint>
          <Trackpoint>
            <Time>2020-05-25T06:05:41.000Z</Time>
            <Position>
              <LatitudeDegrees>38.235430978238582611083984375</LatitudeDegrees>
              <LongitudeDegrees>-1.18680833838880062103271484375</LongitudeDegrees>
            </Position>
            <AltitudeMeters>479.79998779296875</AltitudeMeters>
            <DistanceMeters>NAN</DistanceMeters>
          </Trackpoint>
          <Trackpoint>
            <Time>2020-05-25T06:05:42.000Z</Time>
            <Position>
              <LatitudeDegrees>38.23547733016312122344970703125</LatitudeDegrees>
              <LongitudeDegrees>-1.1868049018085002899169921875</LongitudeDegrees>
            </Position>
            <AltitudeMeters>480</AltitudeMeters>
            <DistanceMeters>NAN</DistanceMeters>
          </Trackpoint>
          <Trackpoint>
            <Time>2020-05-25T06:05:43.000Z</Time>
            <Position>
              <LatitudeDegrees>38.23552208952605724334716796875</LatitudeDegrees>
              <LongitudeDegrees>-1.18679945357143878936767578125</LongitudeDegrees>
            </Position>
            <AltitudeMeters>480.20001220703125</AltitudeMeters>
            <DistanceMeters>NAN</DistanceMeters>
          </Trackpoint>
          <Trackpoint>
            <Time>2020-05-25T06:05:44.000Z</Time>
            <Position>
              <LatitudeDegrees>38.23560792021453380584716796875</LatitudeDegrees>
              <LongitudeDegrees>-1.186785288155078887939453125</LongitudeDegrees>
            </Position>
            <AltitudeMeters>480.600006103515625</AltitudeMeters>
            <DistanceMeters>NAN</DistanceMeters>
          </Trackpoint>
          <Trackpoint>
            <Time>2020-05-25T06:05:45.000Z</Time>
            <Position>
              <LatitudeDegrees>38.2356504164636135101318359375</LatitudeDegrees>
              <LongitudeDegrees>-1.18677782826125621795654296875</LongitudeDegrees>
            </Position>
            <AltitudeMeters>480.79998779296875</AltitudeMeters>
            <DistanceMeters>NAN</DistanceMeters>
          </Trackpoint>
          <Trackpoint>
            <Time>2020-05-25T06:05:46.000Z</Time>
            <Position>
              <LatitudeDegrees>38.2356504164636135101318359375</LatitudeDegrees>
              <LongitudeDegrees>-1.18677782826125621795654296875</LongitudeDegrees>
            </Position>
            <AltitudeMeters>481</AltitudeMeters>
            <DistanceMeters>NAN</DistanceMeters>
          </Trackpoint>
          <Trackpoint>
            <Time>2020-05-25T06:05:47.000Z</Time>
            <Position>
              <LatitudeDegrees>38.235691152513027191162109375</LatitudeDegrees>
              <LongitudeDegrees>-1.1867703683674335479736328125</LongitudeDegrees>
            </Position>
            <AltitudeMeters>481</AltitudeMeters>
            <DistanceMeters>NAN</DistanceMeters>
          </Trackpoint>
          <Trackpoint>
            <Time>2020-05-25T06:05:48.000Z</Time>
            <Position>
              <LatitudeDegrees>38.23577002622187137603759765625</LatitudeDegrees>
              <LongitudeDegrees>-1.186748407781124114990234375</LongitudeDegrees>
            </Position>
            <AltitudeMeters>481.20001220703125</AltitudeMeters>
            <DistanceMeters>NAN</DistanceMeters>
          </Trackpoint>
          <Trackpoint>
            <Time>2020-05-25T06:05:49.000Z</Time>
            <Position>
              <LatitudeDegrees>38.23580774478614330291748046875</LatitudeDegrees>
              <LongitudeDegrees>-1.18673441000282764434814453125</LongitudeDegrees>
            </Position>
            <AltitudeMeters>481.399993896484375</AltitudeMeters>
            <DistanceMeters>NAN</DistanceMeters>
          </Trackpoint>
          <Trackpoint>
            <Time>2020-05-25T06:05:50.000Z</Time>
            <Position>
              <LatitudeDegrees>38.23584445752203464508056640625</LatitudeDegrees>
              <LongitudeDegrees>-1.1867207475006580352783203125</LongitudeDegrees>
            </Position>
            <AltitudeMeters>481.600006103515625</AltitudeMeters>
            <DistanceMeters>NAN</DistanceMeters>
          </Trackpoint>
          <Trackpoint>
            <Time>2020-05-25T06:05:51.000Z</Time>
            <Position>
              <LatitudeDegrees>38.23588083498179912567138671875</LatitudeDegrees>
              <LongitudeDegrees>-1.18670649826526641845703125</LongitudeDegrees>
            </Position>
            <AltitudeMeters>481.79998779296875</AltitudeMeters>
            <DistanceMeters>NAN</DistanceMeters>
          </Trackpoint>
          <Trackpoint>
            <Time>2020-05-25T06:05:52.000Z</Time>
            <Position>
              <LatitudeDegrees>38.23588083498179912567138671875</LatitudeDegrees>
              <LongitudeDegrees>-1.18670649826526641845703125</LongitudeDegrees>
            </Position>
            <AltitudeMeters>482.20001220703125</AltitudeMeters>
            <DistanceMeters>NAN</DistanceMeters>
          </Trackpoint>
          <Trackpoint>
            <Time>2020-05-25T06:05:53.000Z</Time>
            <Position>
              <LatitudeDegrees>38.235916458070278167724609375</LatitudeDegrees>
              <LongitudeDegrees>-1.1866888962686061859130859375</LongitudeDegrees>
            </Position>
            <AltitudeMeters>482.399993896484375</AltitudeMeters>
            <DistanceMeters>NAN</DistanceMeters>
          </Trackpoint>
          <Trackpoint>
            <Time>2020-05-25T06:05:54.000Z</Time>
            <Position>
              <LatitudeDegrees>38.23597672395408153533935546875</LatitudeDegrees>
              <LongitudeDegrees>-1.18664874695241451263427734375</LongitudeDegrees>
            </Position>
            <AltitudeMeters>482.79998779296875</AltitudeMeters>
            <DistanceMeters>NAN</DistanceMeters>
          </Trackpoint>
          <Trackpoint>
            <Time>2020-05-25T06:05:55.000Z</Time>
            <Position>
              <LatitudeDegrees>38.23597672395408153533935546875</LatitudeDegrees>
              <LongitudeDegrees>-1.18664874695241451263427734375</LongitudeDegrees>
            </Position>
            <AltitudeMeters>483</AltitudeMeters>
            <DistanceMeters>NAN</DistanceMeters>
          </Trackpoint>
          <Trackpoint>
            <Time>2020-05-25T06:05:56.000Z</Time>
            <Position>
              <LatitudeDegrees>38.236037828028202056884765625</LatitudeDegrees>
              <LongitudeDegrees>-1.186612285673618316650390625</LongitudeDegrees>
            </Position>
            <AltitudeMeters>483.20001220703125</AltitudeMeters>
            <DistanceMeters>NAN</DistanceMeters>
          </Trackpoint>
          <Trackpoint>
            <Time>2020-05-25T06:05:57.000Z</Time>
            <Position>
              <LatitudeDegrees>38.236037828028202056884765625</LatitudeDegrees>
              <LongitudeDegrees>-1.186612285673618316650390625</LongitudeDegrees>
            </Position>
            <AltitudeMeters>483.600006103515625</AltitudeMeters>
            <DistanceMeters>NAN</DistanceMeters>
          </Trackpoint>
          <Trackpoint>
            <Time>2020-05-25T06:05:58.000Z</Time>
            <Position>
              <LatitudeDegrees>38.23606657795608043670654296875</LatitudeDegrees>
              <LongitudeDegrees>-1.18659518659114837646484375</LongitudeDegrees>
            </Position>
            <AltitudeMeters>483.79998779296875</AltitudeMeters>
            <DistanceMeters>NAN</DistanceMeters>
          </Trackpoint>
          <Trackpoint>
            <Time>2020-05-25T06:05:59.000Z</Time>
            <Position>
              <LatitudeDegrees>38.2360939867794513702392578125</LatitudeDegrees>
              <LongitudeDegrees>-1.18657775223255157470703125</LongitudeDegrees>
            </Position>
            <AltitudeMeters>484</AltitudeMeters>
            <DistanceMeters>NAN</DistanceMeters>
          </Trackpoint>
          <Trackpoint>
            <Time>2020-05-25T06:06:00.000Z</Time>
            <Position>
              <LatitudeDegrees>38.236150480806827545166015625</LatitudeDegrees>
              <LongitudeDegrees>-1.1865381896495819091796875</LongitudeDegrees>
            </Position>
            <AltitudeMeters>484.20001220703125</AltitudeMeters>
            <DistanceMeters>NAN</DistanceMeters>
          </Trackpoint>
          <Trackpoint>
            <Time>2020-05-25T06:06:01.000Z</Time>
            <Position>
              <LatitudeDegrees>38.2361804880201816558837890625</LatitudeDegrees>
              <LongitudeDegrees>-1.18651815690100193023681640625</LongitudeDegrees>
            </Position>
            <AltitudeMeters>484.600006103515625</AltitudeMeters>
            <DistanceMeters>NAN</DistanceMeters>
          </Trackpoint>
          <Trackpoint>
            <Time>2020-05-25T06:06:02.000Z</Time>
            <Position>
              <LatitudeDegrees>38.2362109981477260589599609375</LatitudeDegrees>
              <LongitudeDegrees>-1.18649921379983425140380859375</LongitudeDegrees>
            </Position>
            <AltitudeMeters>484.79998779296875</AltitudeMeters>
            <DistanceMeters>NAN</DistanceMeters>
          </Trackpoint>
          <Trackpoint>
            <Time>2020-05-25T06:06:03.000Z</Time>
            <Position>
              <LatitudeDegrees>38.2362109981477260589599609375</LatitudeDegrees>
              <LongitudeDegrees>-1.18649921379983425140380859375</LongitudeDegrees>
            </Position>
            <AltitudeMeters>484.79998779296875</AltitudeMeters>
            <DistanceMeters>NAN</DistanceMeters>
          </Trackpoint>
          <Trackpoint>
            <Time>2020-05-25T06:06:04.000Z</Time>
            <Position>
              <LatitudeDegrees>38.23624008335173130035400390625</LatitudeDegrees>
              <LongitudeDegrees>-1.1864791810512542724609375</LongitudeDegrees>
            </Position>
            <AltitudeMeters>485</AltitudeMeters>
            <DistanceMeters>NAN</DistanceMeters>
          </Trackpoint>
          <Trackpoint>
            <Time>2020-05-25T06:06:05.000Z</Time>
            <Position>
              <LatitudeDegrees>38.23626858182251453399658203125</LatitudeDegrees>
              <LongitudeDegrees>-1.186459064483642578125</LongitudeDegrees>
            </Position>
            <AltitudeMeters>485.20001220703125</AltitudeMeters>
            <DistanceMeters>NAN</DistanceMeters>
          </Trackpoint>
          <Trackpoint>
            <Time>2020-05-25T06:06:06.000Z</Time>
            <Position>
              <LatitudeDegrees>38.2363263331353664398193359375</LatitudeDegrees>
              <LongitudeDegrees>-1.1864179931581020355224609375</LongitudeDegrees>
            </Position>
            <AltitudeMeters>485.20001220703125</AltitudeMeters>
            <DistanceMeters>NAN</DistanceMeters>
          </Trackpoint>
          <Trackpoint>
            <Time>2020-05-25T06:06:07.000Z</Time>
            <Position>
              <LatitudeDegrees>38.2363263331353664398193359375</LatitudeDegrees>
              <LongitudeDegrees>-1.1864179931581020355224609375</LongitudeDegrees>
            </Position>
            <AltitudeMeters>485.600006103515625</AltitudeMeters>
            <DistanceMeters>NAN</DistanceMeters>
          </Trackpoint>
          <Trackpoint>
            <Time>2020-05-25T06:06:08.000Z</Time>
            <Position>
              <LatitudeDegrees>38.23638257570564746856689453125</LatitudeDegrees>
              <LongitudeDegrees>-1.18637851439416408538818359375</LongitudeDegrees>
            </Position>
            <AltitudeMeters>486</AltitudeMeters>
            <DistanceMeters>NAN</DistanceMeters>
          </Trackpoint>
          <Trackpoint>
            <Time>2020-05-25T06:06:09.000Z</Time>
            <Position>
              <LatitudeDegrees>38.23638257570564746856689453125</LatitudeDegrees>
              <LongitudeDegrees>-1.18637851439416408538818359375</LongitudeDegrees>
            </Position>
            <AltitudeMeters>486.20001220703125</AltitudeMeters>
            <DistanceMeters>NAN</DistanceMeters>
          </Trackpoint>
          <Trackpoint>
            <Time>2020-05-25T06:06:10.000Z</Time>
            <Position>
              <LatitudeDegrees>38.236409313976764678955078125</LatitudeDegrees>
              <LongitudeDegrees>-1.18636024184525012969970703125</LongitudeDegrees>
            </Position>
            <AltitudeMeters>486.399993896484375</AltitudeMeters>
            <DistanceMeters>NAN</DistanceMeters>
          </Trackpoint>
          <Trackpoint>
            <Time>2020-05-25T06:06:11.000Z</Time>
            <Position>
              <LatitudeDegrees>38.23643739335238933563232421875</LatitudeDegrees>
              <LongitudeDegrees>-1.1863408796489238739013671875</LongitudeDegrees>
            </Position>
            <AltitudeMeters>486.79998779296875</AltitudeMeters>
            <DistanceMeters>NAN</DistanceMeters>
          </Trackpoint>
          <Trackpoint>
            <Time>2020-05-25T06:06:12.000Z</Time>
            <Position>
              <LatitudeDegrees>38.2364916242659091949462890625</LatitudeDegrees>
              <LongitudeDegrees>-1.186300478875637054443359375</LongitudeDegrees>
            </Position>
            <AltitudeMeters>487</AltitudeMeters>
            <DistanceMeters>NAN</DistanceMeters>
          </Trackpoint>
          <Trackpoint>
            <Time>2020-05-25T06:06:13.000Z</Time>
            <Position>
              <LatitudeDegrees>38.2364916242659091949462890625</LatitudeDegrees>
              <LongitudeDegrees>-1.186300478875637054443359375</LongitudeDegrees>
            </Position>
            <AltitudeMeters>487.20001220703125</AltitudeMeters>
            <DistanceMeters>NAN</DistanceMeters>
          </Trackpoint>
          <Trackpoint>
            <Time>2020-05-25T06:06:14.000Z</Time>
            <Position>
              <LatitudeDegrees>38.2365479506552219390869140625</LatitudeDegrees>
              <LongitudeDegrees>-1.18626527488231658935546875</LongitudeDegrees>
            </Position>
            <AltitudeMeters>487.399993896484375</AltitudeMeters>
            <DistanceMeters>NAN</DistanceMeters>
          </Trackpoint>
          <Trackpoint>
            <Time>2020-05-25T06:06:15.000Z</Time>
            <Position>
              <LatitudeDegrees>38.2365479506552219390869140625</LatitudeDegrees>
              <LongitudeDegrees>-1.18626527488231658935546875</LongitudeDegrees>
            </Position>
            <AltitudeMeters>487.79998779296875</AltitudeMeters>
            <DistanceMeters>NAN</DistanceMeters>
          </Trackpoint>
          <Trackpoint>
            <Time>2020-05-25T06:06:16.000Z</Time>
            <Position>
              <LatitudeDegrees>38.23657586239278316497802734375</LatitudeDegrees>
              <LongitudeDegrees>-1.186246834695339202880859375</LongitudeDegrees>
            </Position>
            <AltitudeMeters>488.20001220703125</AltitudeMeters>
            <DistanceMeters>NAN</DistanceMeters>
          </Trackpoint>
          <Trackpoint>
            <Time>2020-05-25T06:06:17.000Z</Time>
            <Position>
              <LatitudeDegrees>38.236603438854217529296875</LatitudeDegrees>
              <LongitudeDegrees>-1.18622864596545696258544921875</LongitudeDegrees>
            </Position>
            <AltitudeMeters>488.399993896484375</AltitudeMeters>
            <DistanceMeters>NAN</DistanceMeters>
          </Trackpoint>
          <Trackpoint>
            <Time>2020-05-25T06:06:18.000Z</Time>
            <Position>
              <LatitudeDegrees>38.23665917851030826568603515625</LatitudeDegrees>
              <LongitudeDegrees>-1.186194531619548797607421875</LongitudeDegrees>
            </Position>
            <AltitudeMeters>488.600006103515625</AltitudeMeters>
            <DistanceMeters>NAN</DistanceMeters>
          </Trackpoint>
          <Trackpoint>
            <Time>2020-05-25T06:06:19.000Z</Time>
            <Position>
              <LatitudeDegrees>38.23668683879077434539794921875</LatitudeDegrees>
              <LongitudeDegrees>-1.18617600761353969573974609375</LongitudeDegrees>
            </Position>
            <AltitudeMeters>489</AltitudeMeters>
            <DistanceMeters>NAN</DistanceMeters>
          </Trackpoint>
          <Trackpoint>
            <Time>2020-05-25T06:06:20.000Z</Time>
            <Position>
              <LatitudeDegrees>38.2367135770618915557861328125</LatitudeDegrees>
              <LongitudeDegrees>-1.1861558072268962860107421875</LongitudeDegrees>
            </Position>
            <AltitudeMeters>489.20001220703125</AltitudeMeters>
            <DistanceMeters>NAN</DistanceMeters>
          </Trackpoint>
          <Trackpoint>
            <Time>2020-05-25T06:06:21.000Z</Time>
            <Position>
              <LatitudeDegrees>38.236739896237850189208984375</LatitudeDegrees>
              <LongitudeDegrees>-1.186136193573474884033203125</LongitudeDegrees>
            </Position>
            <AltitudeMeters>489.399993896484375</AltitudeMeters>
            <DistanceMeters>NAN</DistanceMeters>
          </Trackpoint>
          <Trackpoint>
            <Time>2020-05-25T06:06:22.000Z</Time>
            <Position>
              <LatitudeDegrees>38.236739896237850189208984375</LatitudeDegrees>
              <LongitudeDegrees>-1.186136193573474884033203125</LongitudeDegrees>
            </Position>
            <AltitudeMeters>489.399993896484375</AltitudeMeters>
            <DistanceMeters>NAN</DistanceMeters>
          </Trackpoint>
          <Trackpoint>
            <Time>2020-05-25T06:06:23.000Z</Time>
            <Position>
              <LatitudeDegrees>38.2367920316755771636962890625</LatitudeDegrees>
              <LongitudeDegrees>-1.18610191158950328826904296875</LongitudeDegrees>
            </Position>
            <AltitudeMeters>489.79998779296875</AltitudeMeters>
            <DistanceMeters>NAN</DistanceMeters>
          </Trackpoint>
          <Trackpoint>
            <Time>2020-05-25T06:06:24.000Z</Time>
            <Position>
              <LatitudeDegrees>38.23681742884218692779541015625</LatitudeDegrees>
              <LongitudeDegrees>-1.1860840581357479095458984375</LongitudeDegrees>
            </Position>
            <AltitudeMeters>490</AltitudeMeters>
            <DistanceMeters>NAN</DistanceMeters>
          </Trackpoint>
          <Trackpoint>
            <Time>2020-05-25T06:06:25.000Z</Time>
            <Position>
              <LatitudeDegrees>38.23681742884218692779541015625</LatitudeDegrees>
              <LongitudeDegrees>-1.1860840581357479095458984375</LongitudeDegrees>
            </Position>
            <AltitudeMeters>490.399993896484375</AltitudeMeters>
            <DistanceMeters>NAN</DistanceMeters>
          </Trackpoint>
          <Trackpoint>
            <Time>2020-05-25T06:06:26.000Z</Time>
            <Position>
              <LatitudeDegrees>38.23687006719410419464111328125</LatitudeDegrees>
              <LongitudeDegrees>-1.186048351228237152099609375</LongitudeDegrees>
            </Position>
            <AltitudeMeters>490.399993896484375</AltitudeMeters>
            <DistanceMeters>NAN</DistanceMeters>
          </Trackpoint>
          <Trackpoint>
            <Time>2020-05-25T06:06:27.000Z</Time>
            <Position>
              <LatitudeDegrees>38.23687006719410419464111328125</LatitudeDegrees>
              <LongitudeDegrees>-1.186048351228237152099609375</LongitudeDegrees>
            </Position>
            <AltitudeMeters>490.600006103515625</AltitudeMeters>
            <DistanceMeters>NAN</DistanceMeters>
          </Trackpoint>
          <Trackpoint>
            <Time>2020-05-25T06:06:28.000Z</Time>
            <Position>
              <LatitudeDegrees>38.23689688928425312042236328125</LatitudeDegrees>
              <LongitudeDegrees>-1.18602882139384746551513671875</LongitudeDegrees>
            </Position>
            <AltitudeMeters>491</AltitudeMeters>
            <DistanceMeters>NAN</DistanceMeters>
          </Trackpoint>
          <Trackpoint>
            <Time>2020-05-25T06:06:29.000Z</Time>
            <Position>
              <LatitudeDegrees>38.2369481027126312255859375</LatitudeDegrees>
              <LongitudeDegrees>-1.18599244393408298492431640625</LongitudeDegrees>
            </Position>
            <AltitudeMeters>491.20001220703125</AltitudeMeters>
            <DistanceMeters>NAN</DistanceMeters>
          </Trackpoint>
          <Trackpoint>
            <Time>2020-05-25T06:06:30.000Z</Time>
            <Position>
              <LatitudeDegrees>38.23697232641279697418212890625</LatitudeDegrees>
              <LongitudeDegrees>-1.18597283028066158294677734375</LongitudeDegrees>
            </Position>
            <AltitudeMeters>491.399993896484375</AltitudeMeters>
            <DistanceMeters>NAN</DistanceMeters>
          </Trackpoint>
          <Trackpoint>
            <Time>2020-05-25T06:06:31.000Z</Time>
            <Position>
              <LatitudeDegrees>38.23697232641279697418212890625</LatitudeDegrees>
              <LongitudeDegrees>-1.18597283028066158294677734375</LongitudeDegrees>
            </Position>
            <AltitudeMeters>491.600006103515625</AltitudeMeters>
            <DistanceMeters>NAN</DistanceMeters>
          </Trackpoint>
          <Trackpoint>
            <Time>2020-05-25T06:06:32.000Z</Time>
            <Position>
              <LatitudeDegrees>38.2370213605463504791259765625</LatitudeDegrees>
              <LongitudeDegrees>-1.18593427352607250213623046875</LongitudeDegrees>
            </Position>
            <AltitudeMeters>492</AltitudeMeters>
            <DistanceMeters>NAN</DistanceMeters>
          </Trackpoint>
          <Trackpoint>
            <Time>2020-05-25T06:06:33.000Z</Time>
            <Position>
              <LatitudeDegrees>38.2370213605463504791259765625</LatitudeDegrees>
              <LongitudeDegrees>-1.18593427352607250213623046875</LongitudeDegrees>
            </Position>
            <AltitudeMeters>492.399993896484375</AltitudeMeters>
            <DistanceMeters>NAN</DistanceMeters>
          </Trackpoint>
          <Trackpoint>
            <Time>2020-05-25T06:06:34.000Z</Time>
            <Position>
              <LatitudeDegrees>38.23704491369426250457763671875</LatitudeDegrees>
              <LongitudeDegrees>-1.18591248057782649993896484375</LongitudeDegrees>
            </Position>
            <AltitudeMeters>492.600006103515625</AltitudeMeters>
            <DistanceMeters>NAN</DistanceMeters>
          </Trackpoint>
          <Trackpoint>
            <Time>2020-05-25T06:06:35.000Z</Time>
            <Position>
              <LatitudeDegrees>38.23706813156604766845703125</LatitudeDegrees>
              <LongitudeDegrees>-1.18589202873408794403076171875</LongitudeDegrees>
            </Position>
            <AltitudeMeters>493</AltitudeMeters>
            <DistanceMeters>NAN</DistanceMeters>
          </Trackpoint>
          <Trackpoint>
            <Time>2020-05-25T06:06:36.000Z</Time>
            <Position>
              <LatitudeDegrees>38.2371142320334911346435546875</LatitudeDegrees>
              <LongitudeDegrees>-1.18584819138050079345703125</LongitudeDegrees>
            </Position>
            <AltitudeMeters>493.20001220703125</AltitudeMeters>
            <DistanceMeters>NAN</DistanceMeters>
          </Trackpoint>
          <Trackpoint>
            <Time>2020-05-25T06:06:37.000Z</Time>
            <Position>
              <LatitudeDegrees>38.2371142320334911346435546875</LatitudeDegrees>
              <LongitudeDegrees>-1.18584819138050079345703125</LongitudeDegrees>
            </Position>
            <AltitudeMeters>493.399993896484375</AltitudeMeters>
            <DistanceMeters>NAN</DistanceMeters>
          </Trackpoint>
          <Trackpoint>
            <Time>2020-05-25T06:06:38.000Z</Time>
            <Position>
              <LatitudeDegrees>38.237154968082904815673828125</LatitudeDegrees>
              <LongitudeDegrees>-1.185801587998867034912109375</LongitudeDegrees>
            </Position>
            <AltitudeMeters>493.600006103515625</AltitudeMeters>
            <DistanceMeters>NAN</DistanceMeters>
          </Trackpoint>
          <Trackpoint>
            <Time>2020-05-25T06:06:39.000Z</Time>
            <Position>
              <LatitudeDegrees>38.237154968082904815673828125</LatitudeDegrees>
              <LongitudeDegrees>-1.185801587998867034912109375</LongitudeDegrees>
            </Position>
            <AltitudeMeters>494.20001220703125</AltitudeMeters>
            <DistanceMeters>NAN</DistanceMeters>
          </Trackpoint>
          <Trackpoint>
            <Time>2020-05-25T06:06:40.000Z</Time>
            <Position>
              <LatitudeDegrees>38.23717701248824596405029296875</LatitudeDegrees>
              <LongitudeDegrees>-1.18577778339385986328125</LongitudeDegrees>
            </Position>
            <AltitudeMeters>494.399993896484375</AltitudeMeters>
            <DistanceMeters>NAN</DistanceMeters>
          </Trackpoint>
          <Trackpoint>
            <Time>2020-05-25T06:06:41.000Z</Time>
            <Position>
              <LatitudeDegrees>38.2371987216174602508544921875</LatitudeDegrees>
              <LongitudeDegrees>-1.18575339205563068389892578125</LongitudeDegrees>
            </Position>
            <AltitudeMeters>494.600006103515625</AltitudeMeters>
            <DistanceMeters>NAN</DistanceMeters>
          </Trackpoint>
          <Trackpoint>
            <Time>2020-05-25T06:06:42.000Z</Time>
            <Position>
              <LatitudeDegrees>38.23724272660911083221435546875</LatitudeDegrees>
              <LongitudeDegrees>-1.1857068724930286407470703125</LongitudeDegrees>
            </Position>
            <AltitudeMeters>495</AltitudeMeters>
            <DistanceMeters>NAN</DistanceMeters>
          </Trackpoint>
          <Trackpoint>
            <Time>2020-05-25T06:06:43.000Z</Time>
            <Position>
              <LatitudeDegrees>38.23726393282413482666015625</LatitudeDegrees>
              <LongitudeDegrees>-1.1856823973357677459716796875</LongitudeDegrees>
            </Position>
            <AltitudeMeters>495.20001220703125</AltitudeMeters>
            <DistanceMeters>NAN</DistanceMeters>
          </Trackpoint>
          <Trackpoint>
            <Time>2020-05-25T06:06:44.000Z</Time>
            <Position>
              <LatitudeDegrees>38.2372848875820636749267578125</LatitudeDegrees>
              <LongitudeDegrees>-1.18565683253109455108642578125</LongitudeDegrees>
            </Position>
            <AltitudeMeters>495.600006103515625</AltitudeMeters>
            <DistanceMeters>NAN</DistanceMeters>
          </Trackpoint>
          <Trackpoint>
            <Time>2020-05-25T06:06:45.000Z</Time>
            <Position>
              <LatitudeDegrees>38.2372848875820636749267578125</LatitudeDegrees>
              <LongitudeDegrees>-1.18565683253109455108642578125</LongitudeDegrees>
            </Position>
            <AltitudeMeters>495.79998779296875</AltitudeMeters>
            <DistanceMeters>NAN</DistanceMeters>
          </Trackpoint>
          <Trackpoint>
            <Time>2020-05-25T06:06:46.000Z</Time>
            <Position>
              <LatitudeDegrees>38.23730550706386566162109375</LatitudeDegrees>
              <LongitudeDegrees>-1.18563135154545307159423828125</LongitudeDegrees>
            </Position>
            <AltitudeMeters>496</AltitudeMeters>
            <DistanceMeters>NAN</DistanceMeters>
          </Trackpoint>
          <Trackpoint>
            <Time>2020-05-25T06:06:47.000Z</Time>
            <Position>
              <LatitudeDegrees>38.2373261265456676483154296875</LatitudeDegrees>
              <LongitudeDegrees>-1.18560670875012874603271484375</LongitudeDegrees>
            </Position>
            <AltitudeMeters>496</AltitudeMeters>
            <DistanceMeters>NAN</DistanceMeters>
          </Trackpoint>
          <Trackpoint>
            <Time>2020-05-25T06:06:48.000Z</Time>
            <Position>
              <LatitudeDegrees>38.23736677877604961395263671875</LatitudeDegrees>
              <LongitudeDegrees>-1.18555725552141666412353515625</LongitudeDegrees>
            </Position>
            <AltitudeMeters>496.20001220703125</AltitudeMeters>
            <DistanceMeters>NAN</DistanceMeters>
          </Trackpoint>
          <Trackpoint>
            <Time>2020-05-25T06:06:49.000Z</Time>
            <Position>
              <LatitudeDegrees>38.23736677877604961395263671875</LatitudeDegrees>
              <LongitudeDegrees>-1.18555725552141666412353515625</LongitudeDegrees>
            </Position>
            <AltitudeMeters>496.399993896484375</AltitudeMeters>
            <DistanceMeters>NAN</DistanceMeters>
          </Trackpoint>
          <Trackpoint>
            <Time>2020-05-25T06:06:50.000Z</Time>
            <Position>
              <LatitudeDegrees>38.23740986175835132598876953125</LatitudeDegrees>
              <LongitudeDegrees>-1.18550595827400684356689453125</LongitudeDegrees>
            </Position>
            <AltitudeMeters>496.79998779296875</AltitudeMeters>
            <DistanceMeters>NAN</DistanceMeters>
          </Trackpoint>
          <Trackpoint>
            <Time>2020-05-25T06:06:51.000Z</Time>
            <Position>
              <LatitudeDegrees>38.23740986175835132598876953125</LatitudeDegrees>
              <LongitudeDegrees>-1.18550595827400684356689453125</LongitudeDegrees>
            </Position>
            <AltitudeMeters>497.20001220703125</AltitudeMeters>
            <DistanceMeters>NAN</DistanceMeters>
          </Trackpoint>
          <Trackpoint>
            <Time>2020-05-25T06:06:52.000Z</Time>
            <Position>
              <LatitudeDegrees>38.23743215762078762054443359375</LatitudeDegrees>
              <LongitudeDegrees>-1.18548114784061908721923828125</LongitudeDegrees>
            </Position>
            <AltitudeMeters>497.600006103515625</AltitudeMeters>
            <DistanceMeters>NAN</DistanceMeters>
          </Trackpoint>
          <Trackpoint>
            <Time>2020-05-25T06:06:53.000Z</Time>
            <Position>
              <LatitudeDegrees>38.2374528609216213226318359375</LatitudeDegrees>
              <LongitudeDegrees>-1.18545734323561191558837890625</LongitudeDegrees>
            </Position>
            <AltitudeMeters>498</AltitudeMeters>
            <DistanceMeters>NAN</DistanceMeters>
          </Trackpoint>
          <Trackpoint>
            <Time>2020-05-25T06:06:54.000Z</Time>
            <Position>
              <LatitudeDegrees>38.237490914762020111083984375</LatitudeDegrees>
              <LongitudeDegrees>-1.1854091472923755645751953125</LongitudeDegrees>
            </Position>
            <AltitudeMeters>498.399993896484375</AltitudeMeters>
            <DistanceMeters>NAN</DistanceMeters>
          </Trackpoint>
          <Trackpoint>
            <Time>2020-05-25T06:06:55.000Z</Time>
            <Position>
              <LatitudeDegrees>38.23750977404415607452392578125</LatitudeDegrees>
              <LongitudeDegrees>-1.1853846721351146697998046875</LongitudeDegrees>
            </Position>
            <AltitudeMeters>498.79998779296875</AltitudeMeters>
            <DistanceMeters>NAN</DistanceMeters>
          </Trackpoint>
          <Trackpoint>
            <Time>2020-05-25T06:06:56.000Z</Time>
            <Position>
              <LatitudeDegrees>38.23752938769757747650146484375</LatitudeDegrees>
              <LongitudeDegrees>-1.18536011315882205963134765625</LongitudeDegrees>
            </Position>
            <AltitudeMeters>499</AltitudeMeters>
            <DistanceMeters>NAN</DistanceMeters>
          </Trackpoint>
          <Trackpoint>
            <Time>2020-05-25T06:06:57.000Z</Time>
            <Position>
              <LatitudeDegrees>38.2375497557222843170166015625</LatitudeDegrees>
              <LongitudeDegrees>-1.1853353865444660186767578125</LongitudeDegrees>
            </Position>
            <AltitudeMeters>499.20001220703125</AltitudeMeters>
            <DistanceMeters>NAN</DistanceMeters>
          </Trackpoint>
          <Trackpoint>
            <Time>2020-05-25T06:06:58.000Z</Time>
            <Position>
              <LatitudeDegrees>38.2375497557222843170166015625</LatitudeDegrees>
              <LongitudeDegrees>-1.1853353865444660186767578125</LongitudeDegrees>
            </Position>
            <AltitudeMeters>499.399993896484375</AltitudeMeters>
            <DistanceMeters>NAN</DistanceMeters>
          </Trackpoint>
          <Trackpoint>
            <Time>2020-05-25T06:06:59.000Z</Time>
            <Position>
              <LatitudeDegrees>38.23758973740041255950927734375</LatitudeDegrees>
              <LongitudeDegrees>-1.18528668768703937530517578125</LongitudeDegrees>
            </Position>
            <AltitudeMeters>499.399993896484375</AltitudeMeters>
            <DistanceMeters>NAN</DistanceMeters>
          </Trackpoint>
          <Trackpoint>
            <Time>2020-05-25T06:07:00.000Z</Time>
            <Position>
              <LatitudeDegrees>38.23761002160608768463134765625</LatitudeDegrees>
              <LongitudeDegrees>-1.185261793434619903564453125</LongitudeDegrees>
            </Position>
            <AltitudeMeters>499.79998779296875</AltitudeMeters>
            <DistanceMeters>NAN</DistanceMeters>
          </Trackpoint>
          <Trackpoint>
            <Time>2020-05-25T06:07:01.000Z</Time>
            <Position>
              <LatitudeDegrees>38.23763072490692138671875</LatitudeDegrees>
              <LongitudeDegrees>-1.18523673154413700103759765625</LongitudeDegrees>
            </Position>
            <AltitudeMeters>500</AltitudeMeters>
            <DistanceMeters>NAN</DistanceMeters>
          </Trackpoint>
          <Trackpoint>
            <Time>2020-05-25T06:07:02.000Z</Time>
            <Position>
              <LatitudeDegrees>38.237651847302913665771484375</LatitudeDegrees>
              <LongitudeDegrees>-1.1852116696536540985107421875</LongitudeDegrees>
            </Position>
            <AltitudeMeters>500.20001220703125</AltitudeMeters>
            <DistanceMeters>NAN</DistanceMeters>
          </Trackpoint>
          <Trackpoint>
            <Time>2020-05-25T06:07:03.000Z</Time>
            <Position>
              <LatitudeDegrees>38.23767389170825481414794921875</LatitudeDegrees>
              <LongitudeDegrees>-1.1851882003247737884521484375</LongitudeDegrees>
            </Position>
            <AltitudeMeters>500.79998779296875</AltitudeMeters>
            <DistanceMeters>NAN</DistanceMeters>
          </Trackpoint>
          <Trackpoint>
            <Time>2020-05-25T06:07:04.000Z</Time>
            <Position>
              <LatitudeDegrees>38.23767389170825481414794921875</LatitudeDegrees>
              <LongitudeDegrees>-1.1851882003247737884521484375</LongitudeDegrees>
            </Position>
            <AltitudeMeters>501</AltitudeMeters>
            <DistanceMeters>NAN</DistanceMeters>
          </Trackpoint>
          <Trackpoint>
            <Time>2020-05-25T06:07:05.000Z</Time>
            <Position>
              <LatitudeDegrees>38.23769534938037395477294921875</LatitudeDegrees>
              <LongitudeDegrees>-1.18516481481492519378662109375</LongitudeDegrees>
            </Position>
            <AltitudeMeters>501.399993896484375</AltitudeMeters>
            <DistanceMeters>NAN</DistanceMeters>
          </Trackpoint>
          <Trackpoint>
            <Time>2020-05-25T06:07:06.000Z</Time>
            <Position>
              <LatitudeDegrees>38.23773960582911968231201171875</LatitudeDegrees>
              <LongitudeDegrees>-1.1851177923381328582763671875</LongitudeDegrees>
            </Position>
            <AltitudeMeters>501.600006103515625</AltitudeMeters>
            <DistanceMeters>NAN</DistanceMeters>
          </Trackpoint>
          <Trackpoint>
            <Time>2020-05-25T06:07:07.000Z</Time>
            <Position>
              <LatitudeDegrees>38.23776106350123882293701171875</LatitudeDegrees>
              <LongitudeDegrees>-1.1850943230092525482177734375</LongitudeDegrees>
            </Position>
            <AltitudeMeters>502</AltitudeMeters>
            <DistanceMeters>NAN</DistanceMeters>
          </Trackpoint>
          <Trackpoint>
            <Time>2020-05-25T06:07:08.000Z</Time>
            <Position>
              <LatitudeDegrees>38.23778402991592884063720703125</LatitudeDegrees>
              <LongitudeDegrees>-1.185071356594562530517578125</LongitudeDegrees>
            </Position>
            <AltitudeMeters>502.20001220703125</AltitudeMeters>
            <DistanceMeters>NAN</DistanceMeters>
          </Trackpoint>
          <Trackpoint>
            <Time>2020-05-25T06:07:09.000Z</Time>
            <Position>
              <LatitudeDegrees>38.23778402991592884063720703125</LatitudeDegrees>
              <LongitudeDegrees>-1.185071356594562530517578125</LongitudeDegrees>
            </Position>
            <AltitudeMeters>502.399993896484375</AltitudeMeters>
            <DistanceMeters>NAN</DistanceMeters>
          </Trackpoint>
          <Trackpoint>
            <Time>2020-05-25T06:07:10.000Z</Time>
            <Position>
              <LatitudeDegrees>38.23780733160674571990966796875</LatitudeDegrees>
              <LongitudeDegrees>-1.18504730053246021270751953125</LongitudeDegrees>
            </Position>
            <AltitudeMeters>502.79998779296875</AltitudeMeters>
            <DistanceMeters>NAN</DistanceMeters>
          </Trackpoint>
          <Trackpoint>
            <Time>2020-05-25T06:07:11.000Z</Time>
            <Position>
              <LatitudeDegrees>38.23782878927886486053466796875</LatitudeDegrees>
              <LongitudeDegrees>-1.1850212328135967254638671875</LongitudeDegrees>
            </Position>
            <AltitudeMeters>503</AltitudeMeters>
            <DistanceMeters>NAN</DistanceMeters>
          </Trackpoint>
          <Trackpoint>
            <Time>2020-05-25T06:07:12.000Z</Time>
            <Position>
              <LatitudeDegrees>38.23787271045148372650146484375</LatitudeDegrees>
              <LongitudeDegrees>-1.18496616370975971221923828125</LongitudeDegrees>
            </Position>
            <AltitudeMeters>503.399993896484375</AltitudeMeters>
            <DistanceMeters>NAN</DistanceMeters>
          </Trackpoint>
          <Trackpoint>
            <Time>2020-05-25T06:07:13.000Z</Time>
            <Position>
              <LatitudeDegrees>38.23787271045148372650146484375</LatitudeDegrees>
              <LongitudeDegrees>-1.18496616370975971221923828125</LongitudeDegrees>
            </Position>
            <AltitudeMeters>503.600006103515625</AltitudeMeters>
            <DistanceMeters>NAN</DistanceMeters>
          </Trackpoint>
          <Trackpoint>
            <Time>2020-05-25T06:07:14.000Z</Time>
            <Position>
              <LatitudeDegrees>38.2379219122231006622314453125</LatitudeDegrees>
              <LongitudeDegrees>-1.1849082447588443756103515625</LongitudeDegrees>
            </Position>
            <AltitudeMeters>503.79998779296875</AltitudeMeters>
            <DistanceMeters>NAN</DistanceMeters>
          </Trackpoint>
          <Trackpoint>
            <Time>2020-05-25T06:07:15.000Z</Time>
            <Position>
              <LatitudeDegrees>38.2379219122231006622314453125</LatitudeDegrees>
              <LongitudeDegrees>-1.1849082447588443756103515625</LongitudeDegrees>
            </Position>
            <AltitudeMeters>504</AltitudeMeters>
            <DistanceMeters>NAN</DistanceMeters>
          </Trackpoint>
          <Trackpoint>
            <Time>2020-05-25T06:07:16.000Z</Time>
            <Position>
              <LatitudeDegrees>38.2379500754177570343017578125</LatitudeDegrees>
              <LongitudeDegrees>-1.1848841048777103424072265625</LongitudeDegrees>
            </Position>
            <AltitudeMeters>504.20001220703125</AltitudeMeters>
            <DistanceMeters>NAN</DistanceMeters>
          </Trackpoint>
          <Trackpoint>
            <Time>2020-05-25T06:07:17.000Z</Time>
            <Position>
              <LatitudeDegrees>38.23797798715531826019287109375</LatitudeDegrees>
              <LongitudeDegrees>-1.18486113846302032470703125</LongitudeDegrees>
            </Position>
            <AltitudeMeters>504.600006103515625</AltitudeMeters>
            <DistanceMeters>NAN</DistanceMeters>
          </Trackpoint>
          <Trackpoint>
            <Time>2020-05-25T06:07:18.000Z</Time>
            <Position>
              <LatitudeDegrees>38.23803565464913845062255859375</LatitudeDegrees>
              <LongitudeDegrees>-1.1848150379955768585205078125</LongitudeDegrees>
            </Position>
            <AltitudeMeters>504.79998779296875</AltitudeMeters>
            <DistanceMeters>NAN</DistanceMeters>
          </Trackpoint>
          <Trackpoint>
            <Time>2020-05-25T06:07:19.000Z</Time>
            <Position>
              <LatitudeDegrees>38.23803565464913845062255859375</LatitudeDegrees>
              <LongitudeDegrees>-1.1848150379955768585205078125</LongitudeDegrees>
            </Position>
            <AltitudeMeters>504.79998779296875</AltitudeMeters>
            <DistanceMeters>NAN</DistanceMeters>
          </Trackpoint>
          <Trackpoint>
            <Time>2020-05-25T06:07:20.000Z</Time>
            <Position>
              <LatitudeDegrees>38.238095752894878387451171875</LatitudeDegrees>
              <LongitudeDegrees>-1.1847741343080997467041015625</LongitudeDegrees>
            </Position>
            <AltitudeMeters>505</AltitudeMeters>
            <DistanceMeters>NAN</DistanceMeters>
          </Trackpoint>
          <Trackpoint>
            <Time>2020-05-25T06:07:21.000Z</Time>
            <Position>
              <LatitudeDegrees>38.238095752894878387451171875</LatitudeDegrees>
              <LongitudeDegrees>-1.1847741343080997467041015625</LongitudeDegrees>
            </Position>
            <AltitudeMeters>505.20001220703125</AltitudeMeters>
            <DistanceMeters>NAN</DistanceMeters>
          </Trackpoint>
          <Trackpoint>
            <Time>2020-05-25T06:07:22.000Z</Time>
            <Position>
              <LatitudeDegrees>38.2381260953843593597412109375</LatitudeDegrees>
              <LongitudeDegrees>-1.18475477211177349090576171875</LongitudeDegrees>
            </Position>
            <AltitudeMeters>505.399993896484375</AltitudeMeters>
            <DistanceMeters>NAN</DistanceMeters>
          </Trackpoint>
          <Trackpoint>
            <Time>2020-05-25T06:07:23.000Z</Time>
            <Position>
              <LatitudeDegrees>38.23815635405480861663818359375</LatitudeDegrees>
              <LongitudeDegrees>-1.184734404087066650390625</LongitudeDegrees>
            </Position>
            <AltitudeMeters>505.600006103515625</AltitudeMeters>
            <DistanceMeters>NAN</DistanceMeters>
          </Trackpoint>
          <Trackpoint>
            <Time>2020-05-25T06:07:24.000Z</Time>
            <Position>
              <LatitudeDegrees>38.23821670375764369964599609375</LatitudeDegrees>
              <LongitudeDegrees>-1.1846950091421604156494140625</LongitudeDegrees>
            </Position>
            <AltitudeMeters>505.79998779296875</AltitudeMeters>
            <DistanceMeters>NAN</DistanceMeters>
          </Trackpoint>
          <Trackpoint>
            <Time>2020-05-25T06:07:25.000Z</Time>
            <Position>
              <LatitudeDegrees>38.23821670375764369964599609375</LatitudeDegrees>
              <LongitudeDegrees>-1.1846950091421604156494140625</LongitudeDegrees>
            </Position>
            <AltitudeMeters>505.79998779296875</AltitudeMeters>
            <DistanceMeters>NAN</DistanceMeters>
          </Trackpoint>
          <Trackpoint>
            <Time>2020-05-25T06:07:26.000Z</Time>
            <Position>
              <LatitudeDegrees>38.2382779754698276519775390625</LatitudeDegrees>
              <LongitudeDegrees>-1.18465469218790531158447265625</LongitudeDegrees>
            </Position>
            <AltitudeMeters>506</AltitudeMeters>
            <DistanceMeters>NAN</DistanceMeters>
          </Trackpoint>
          <Trackpoint>
            <Time>2020-05-25T06:07:27.000Z</Time>
            <Position>
              <LatitudeDegrees>38.2382779754698276519775390625</LatitudeDegrees>
              <LongitudeDegrees>-1.18465469218790531158447265625</LongitudeDegrees>
            </Position>
            <AltitudeMeters>506.20001220703125</AltitudeMeters>
            <DistanceMeters>NAN</DistanceMeters>
          </Trackpoint>
          <Trackpoint>
            <Time>2020-05-25T06:07:28.000Z</Time>
            <Position>
              <LatitudeDegrees>38.2383078150451183319091796875</LatitudeDegrees>
              <LongitudeDegrees>-1.18463440798223018646240234375</LongitudeDegrees>
            </Position>
            <AltitudeMeters>506.399993896484375</AltitudeMeters>
            <DistanceMeters>NAN</DistanceMeters>
          </Trackpoint>
          <Trackpoint>
            <Time>2020-05-25T06:07:29.000Z</Time>
            <Position>
              <LatitudeDegrees>38.23833840899169445037841796875</LatitudeDegrees>
              <LongitudeDegrees>-1.1846135370433330535888671875</LongitudeDegrees>
            </Position>
            <AltitudeMeters>506.600006103515625</AltitudeMeters>
            <DistanceMeters>NAN</DistanceMeters>
          </Trackpoint>
          <Trackpoint>
            <Time>2020-05-25T06:07:30.000Z</Time>
            <Position>
              <LatitudeDegrees>38.23840118944644927978515625</LatitudeDegrees>
              <LongitudeDegrees>-1.18457280099391937255859375</LongitudeDegrees>
            </Position>
            <AltitudeMeters>506.79998779296875</AltitudeMeters>
            <DistanceMeters>NAN</DistanceMeters>
          </Trackpoint>
          <Trackpoint>
            <Time>2020-05-25T06:07:31.000Z</Time>
            <Position>
              <LatitudeDegrees>38.23840118944644927978515625</LatitudeDegrees>
              <LongitudeDegrees>-1.18457280099391937255859375</LongitudeDegrees>
            </Position>
            <AltitudeMeters>507</AltitudeMeters>
            <DistanceMeters>NAN</DistanceMeters>
          </Trackpoint>
          <Trackpoint>
            <Time>2020-05-25T06:07:32.000Z</Time>
            <Position>
              <LatitudeDegrees>38.23846950195729732513427734375</LatitudeDegrees>
              <LongitudeDegrees>-1.18454220704734325408935546875</LongitudeDegrees>
            </Position>
            <AltitudeMeters>507.20001220703125</AltitudeMeters>
            <DistanceMeters>NAN</DistanceMeters>
          </Trackpoint>
          <Trackpoint>
            <Time>2020-05-25T06:07:33.000Z</Time>
            <Position>
              <LatitudeDegrees>38.23846950195729732513427734375</LatitudeDegrees>
              <LongitudeDegrees>-1.18454220704734325408935546875</LongitudeDegrees>
            </Position>
            <AltitudeMeters>507.399993896484375</AltitudeMeters>
            <DistanceMeters>NAN</DistanceMeters>
          </Trackpoint>
          <Trackpoint>
            <Time>2020-05-25T06:07:34.000Z</Time>
            <Position>
              <LatitudeDegrees>38.23850353248417377471923828125</LatitudeDegrees>
              <LongitudeDegrees>-1.18452745489776134490966796875</LongitudeDegrees>
            </Position>
            <AltitudeMeters>507.600006103515625</AltitudeMeters>
            <DistanceMeters>NAN</DistanceMeters>
          </Trackpoint>
          <Trackpoint>
            <Time>2020-05-25T06:07:35.000Z</Time>
            <Position>
              <LatitudeDegrees>38.23853672482073307037353515625</LatitudeDegrees>
              <LongitudeDegrees>-1.18451119400560855865478515625</LongitudeDegrees>
            </Position>
            <AltitudeMeters>507.79998779296875</AltitudeMeters>
            <DistanceMeters>NAN</DistanceMeters>
          </Trackpoint>
          <Trackpoint>
            <Time>2020-05-25T06:07:36.000Z</Time>
            <Position>
              <LatitudeDegrees>38.2386011816561222076416015625</LatitudeDegrees>
              <LongitudeDegrees>-1.18447733111679553985595703125</LongitudeDegrees>
            </Position>
            <AltitudeMeters>507.79998779296875</AltitudeMeters>
            <DistanceMeters>NAN</DistanceMeters>
          </Trackpoint>
          <Trackpoint>
            <Time>2020-05-25T06:07:37.000Z</Time>
            <Position>
              <LatitudeDegrees>38.2386011816561222076416015625</LatitudeDegrees>
              <LongitudeDegrees>-1.18447733111679553985595703125</LongitudeDegrees>
            </Position>
            <AltitudeMeters>508</AltitudeMeters>
            <DistanceMeters>NAN</DistanceMeters>
          </Trackpoint>
          <Trackpoint>
            <Time>2020-05-25T06:07:38.000Z</Time>
            <Position>
              <LatitudeDegrees>38.23866513557732105255126953125</LatitudeDegrees>
              <LongitudeDegrees>-1.1844519339501857757568359375</LongitudeDegrees>
            </Position>
            <AltitudeMeters>508</AltitudeMeters>
            <DistanceMeters>NAN</DistanceMeters>
          </Trackpoint>
          <Trackpoint>
            <Time>2020-05-25T06:07:39.000Z</Time>
            <Position>
              <LatitudeDegrees>38.23866513557732105255126953125</LatitudeDegrees>
              <LongitudeDegrees>-1.1844519339501857757568359375</LongitudeDegrees>
            </Position>
            <AltitudeMeters>508</AltitudeMeters>
            <DistanceMeters>NAN</DistanceMeters>
          </Trackpoint>
          <Trackpoint>
            <Time>2020-05-25T06:07:40.000Z</Time>
            <Position>
              <LatitudeDegrees>38.23869866319000720977783203125</LatitudeDegrees>
              <LongitudeDegrees>-1.1844472400844097137451171875</LongitudeDegrees>
            </Position>
            <AltitudeMeters>508</AltitudeMeters>
            <DistanceMeters>NAN</DistanceMeters>
          </Trackpoint>
          <Trackpoint>
            <Time>2020-05-25T06:07:41.000Z</Time>
            <Position>
              <LatitudeDegrees>38.2387329451739788055419921875</LatitudeDegrees>
              <LongitudeDegrees>-1.1844445578753948211669921875</LongitudeDegrees>
            </Position>
            <AltitudeMeters>508</AltitudeMeters>
            <DistanceMeters>NAN</DistanceMeters>
          </Trackpoint>
          <Trackpoint>
            <Time>2020-05-25T06:07:42.000Z</Time>
            <Position>
              <LatitudeDegrees>38.23880360461771488189697265625</LatitudeDegrees>
              <LongitudeDegrees>-1.18445344269275665283203125</LongitudeDegrees>
            </Position>
            <AltitudeMeters>508.20001220703125</AltitudeMeters>
            <DistanceMeters>NAN</DistanceMeters>
          </Trackpoint>
          <Trackpoint>
            <Time>2020-05-25T06:07:43.000Z</Time>
            <Position>
              <LatitudeDegrees>38.23880360461771488189697265625</LatitudeDegrees>
              <LongitudeDegrees>-1.18445344269275665283203125</LongitudeDegrees>
            </Position>
            <AltitudeMeters>508.20001220703125</AltitudeMeters>
            <DistanceMeters>NAN</DistanceMeters>
          </Trackpoint>
          <Trackpoint>
            <Time>2020-05-25T06:07:44.000Z</Time>
            <Position>
              <LatitudeDegrees>38.23887837119400501251220703125</LatitudeDegrees>
              <LongitudeDegrees>-1.18447280488908290863037109375</LongitudeDegrees>
            </Position>
            <AltitudeMeters>508.399993896484375</AltitudeMeters>
            <DistanceMeters>NAN</DistanceMeters>
          </Trackpoint>
          <Trackpoint>
            <Time>2020-05-25T06:07:45.000Z</Time>
            <Position>
              <LatitudeDegrees>38.23887837119400501251220703125</LatitudeDegrees>
              <LongitudeDegrees>-1.18447280488908290863037109375</LongitudeDegrees>
            </Position>
            <AltitudeMeters>508.399993896484375</AltitudeMeters>
            <DistanceMeters>NAN</DistanceMeters>
          </Trackpoint>
          <Trackpoint>
            <Time>2020-05-25T06:07:46.000Z</Time>
            <Position>
              <LatitudeDegrees>38.2389150001108646392822265625</LatitudeDegrees>
              <LongitudeDegrees>-1.18448588065803050994873046875</LongitudeDegrees>
            </Position>
            <AltitudeMeters>508.600006103515625</AltitudeMeters>
            <DistanceMeters>NAN</DistanceMeters>
          </Trackpoint>
          <Trackpoint>
            <Time>2020-05-25T06:07:47.000Z</Time>
            <Position>
              <LatitudeDegrees>38.23894911445677280426025390625</LatitudeDegrees>
              <LongitudeDegrees>-1.1844995431602001190185546875</LongitudeDegrees>
            </Position>
            <AltitudeMeters>508.600006103515625</AltitudeMeters>
            <DistanceMeters>NAN</DistanceMeters>
          </Trackpoint>
          <Trackpoint>
            <Time>2020-05-25T06:07:48.000Z</Time>
            <Position>
              <LatitudeDegrees>38.23901139199733734130859375</LatitudeDegrees>
              <LongitudeDegrees>-1.18453214876353740692138671875</LongitudeDegrees>
            </Position>
            <AltitudeMeters>508.79998779296875</AltitudeMeters>
            <DistanceMeters>NAN</DistanceMeters>
          </Trackpoint>
          <Trackpoint>
            <Time>2020-05-25T06:07:49.000Z</Time>
            <Position>
              <LatitudeDegrees>38.23901139199733734130859375</LatitudeDegrees>
              <LongitudeDegrees>-1.18453214876353740692138671875</LongitudeDegrees>
            </Position>
            <AltitudeMeters>508.79998779296875</AltitudeMeters>
            <DistanceMeters>NAN</DistanceMeters>
          </Trackpoint>
          <Trackpoint>
            <Time>2020-05-25T06:07:50.000Z</Time>
            <Position>
              <LatitudeDegrees>38.23907383717596530914306640625</LatitudeDegrees>
              <LongitudeDegrees>-1.184578500688076019287109375</LongitudeDegrees>
            </Position>
            <AltitudeMeters>508.79998779296875</AltitudeMeters>
            <DistanceMeters>NAN</DistanceMeters>
          </Trackpoint>
          <Trackpoint>
            <Time>2020-05-25T06:07:51.000Z</Time>
            <Position>
              <LatitudeDegrees>38.23907383717596530914306640625</LatitudeDegrees>
              <LongitudeDegrees>-1.184578500688076019287109375</LongitudeDegrees>
            </Position>
            <AltitudeMeters>508.79998779296875</AltitudeMeters>
            <DistanceMeters>NAN</DistanceMeters>
          </Trackpoint>
          <Trackpoint>
            <Time>2020-05-25T06:07:52.000Z</Time>
            <Position>
              <LatitudeDegrees>38.23910661041736602783203125</LatitudeDegrees>
              <LongitudeDegrees>-1.18460364639759063720703125</LongitudeDegrees>
            </Position>
            <AltitudeMeters>508.79998779296875</AltitudeMeters>
            <DistanceMeters>NAN</DistanceMeters>
          </Trackpoint>
          <Trackpoint>
            <Time>2020-05-25T06:07:53.000Z</Time>
            <Position>
              <LatitudeDegrees>38.23914038948714733123779296875</LatitudeDegrees>
              <LongitudeDegrees>-1.1846311390399932861328125</LongitudeDegrees>
            </Position>
            <AltitudeMeters>509</AltitudeMeters>
            <DistanceMeters>NAN</DistanceMeters>
          </Trackpoint>
          <Trackpoint>
            <Time>2020-05-25T06:07:54.000Z</Time>
            <Position>
              <LatitudeDegrees>38.2392076961696147918701171875</LatitudeDegrees>
              <LongitudeDegrees>-1.18469459004700183868408203125</LongitudeDegrees>
            </Position>
            <AltitudeMeters>509</AltitudeMeters>
            <DistanceMeters>NAN</DistanceMeters>
          </Trackpoint>
          <Trackpoint>
            <Time>2020-05-25T06:07:55.000Z</Time>
            <Position>
              <LatitudeDegrees>38.2392076961696147918701171875</LatitudeDegrees>
              <LongitudeDegrees>-1.18469459004700183868408203125</LongitudeDegrees>
            </Position>
            <AltitudeMeters>509</AltitudeMeters>
            <DistanceMeters>NAN</DistanceMeters>
          </Trackpoint>
          <Trackpoint>
            <Time>2020-05-25T06:07:56.000Z</Time>
            <Position>
              <LatitudeDegrees>38.23927768506109714508056640625</LatitudeDegrees>
              <LongitudeDegrees>-1.1847625672817230224609375</LongitudeDegrees>
            </Position>
            <AltitudeMeters>509</AltitudeMeters>
            <DistanceMeters>NAN</DistanceMeters>
          </Trackpoint>
          <Trackpoint>
            <Time>2020-05-25T06:07:57.000Z</Time>
            <Position>
              <LatitudeDegrees>38.23927768506109714508056640625</LatitudeDegrees>
              <LongitudeDegrees>-1.1847625672817230224609375</LongitudeDegrees>
            </Position>
            <AltitudeMeters>509</AltitudeMeters>
            <DistanceMeters>NAN</DistanceMeters>
          </Trackpoint>
          <Trackpoint>
            <Time>2020-05-25T06:07:58.000Z</Time>
            <Position>
              <LatitudeDegrees>38.23931406252086162567138671875</LatitudeDegrees>
              <LongitudeDegrees>-1.18479986675083637237548828125</LongitudeDegrees>
            </Position>
            <AltitudeMeters>509</AltitudeMeters>
            <DistanceMeters>NAN</DistanceMeters>
          </Trackpoint>
          <Trackpoint>
            <Time>2020-05-25T06:07:59.000Z</Time>
            <Position>
              <LatitudeDegrees>38.23935194872319698333740234375</LatitudeDegrees>
              <LongitudeDegrees>-1.1848430335521697998046875</LongitudeDegrees>
            </Position>
            <AltitudeMeters>509</AltitudeMeters>
            <DistanceMeters>NAN</DistanceMeters>
          </Trackpoint>
          <Trackpoint>
            <Time>2020-05-25T06:08:00.000Z</Time>
            <Position>
              <LatitudeDegrees>38.2394303195178508758544921875</LatitudeDegrees>
              <LongitudeDegrees>-1.184941269457340240478515625</LongitudeDegrees>
            </Position>
            <AltitudeMeters>509</AltitudeMeters>
            <DistanceMeters>NAN</DistanceMeters>
          </Trackpoint>
          <Trackpoint>
            <Time>2020-05-25T06:08:01.000Z</Time>
            <Position>
              <LatitudeDegrees>38.2394303195178508758544921875</LatitudeDegrees>
              <LongitudeDegrees>-1.184941269457340240478515625</LongitudeDegrees>
            </Position>
            <AltitudeMeters>509</AltitudeMeters>
            <DistanceMeters>NAN</DistanceMeters>
          </Trackpoint>
          <Trackpoint>
            <Time>2020-05-25T06:08:02.000Z</Time>
            <Position>
              <LatitudeDegrees>38.23950902558863162994384765625</LatitudeDegrees>
              <LongitudeDegrees>-1.1850400082767009735107421875</LongitudeDegrees>
            </Position>
            <AltitudeMeters>509</AltitudeMeters>
            <DistanceMeters>NAN</DistanceMeters>
          </Trackpoint>
          <Trackpoint>
            <Time>2020-05-25T06:08:03.000Z</Time>
            <Position>
              <LatitudeDegrees>38.23950902558863162994384765625</LatitudeDegrees>
              <LongitudeDegrees>-1.1850400082767009735107421875</LongitudeDegrees>
            </Position>
            <AltitudeMeters>509</AltitudeMeters>
            <DistanceMeters>NAN</DistanceMeters>
          </Trackpoint>
          <Trackpoint>
            <Time>2020-05-25T06:08:04.000Z</Time>
            <Position>
              <LatitudeDegrees>38.23955110274255275726318359375</LatitudeDegrees>
              <LongitudeDegrees>-1.18509180843830108642578125</LongitudeDegrees>
            </Position>
            <AltitudeMeters>509</AltitudeMeters>
            <DistanceMeters>NAN</DistanceMeters>
          </Trackpoint>
          <Trackpoint>
            <Time>2020-05-25T06:08:05.000Z</Time>
            <Position>
              <LatitudeDegrees>38.239593766629695892333984375</LatitudeDegrees>
              <LongitudeDegrees>-1.1851426027715206146240234375</LongitudeDegrees>
            </Position>
            <AltitudeMeters>509</AltitudeMeters>
            <DistanceMeters>NAN</DistanceMeters>
          </Trackpoint>
          <Trackpoint>
            <Time>2020-05-25T06:08:06.000Z</Time>
            <Position>
              <LatitudeDegrees>38.23967465199530124664306640625</LatitudeDegrees>
              <LongitudeDegrees>-1.1852408386766910552978515625</LongitudeDegrees>
            </Position>
            <AltitudeMeters>509</AltitudeMeters>
            <DistanceMeters>NAN</DistanceMeters>
          </Trackpoint>
          <Trackpoint>
            <Time>2020-05-25T06:08:07.000Z</Time>
            <Position>
              <LatitudeDegrees>38.23967465199530124664306640625</LatitudeDegrees>
              <LongitudeDegrees>-1.1852408386766910552978515625</LongitudeDegrees>
            </Position>
            <AltitudeMeters>509</AltitudeMeters>
            <DistanceMeters>NAN</DistanceMeters>
          </Trackpoint>
          <Trackpoint>
            <Time>2020-05-25T06:08:08.000Z</Time>
            <Position>
              <LatitudeDegrees>38.23974723927676677703857421875</LatitudeDegrees>
              <LongitudeDegrees>-1.1853343807160854339599609375</LongitudeDegrees>
            </Position>
            <AltitudeMeters>509</AltitudeMeters>
            <DistanceMeters>NAN</DistanceMeters>
          </Trackpoint>
          <Trackpoint>
            <Time>2020-05-25T06:08:09.000Z</Time>
            <Position>
              <LatitudeDegrees>38.23974723927676677703857421875</LatitudeDegrees>
              <LongitudeDegrees>-1.1853343807160854339599609375</LongitudeDegrees>
            </Position>
            <AltitudeMeters>509</AltitudeMeters>
            <DistanceMeters>NAN</DistanceMeters>
          </Trackpoint>
          <Trackpoint>
            <Time>2020-05-25T06:08:10.000Z</Time>
            <Position>
              <LatitudeDegrees>38.2397831976413726806640625</LatitudeDegrees>
              <LongitudeDegrees>-1.1853794753551483154296875</LongitudeDegrees>
            </Position>
            <AltitudeMeters>509</AltitudeMeters>
            <DistanceMeters>NAN</DistanceMeters>
          </Trackpoint>
          <Trackpoint>
            <Time>2020-05-25T06:08:11.000Z</Time>
            <Position>
              <LatitudeDegrees>38.2398195751011371612548828125</LatitudeDegrees>
              <LongitudeDegrees>-1.185423396527767181396484375</LongitudeDegrees>
            </Position>
            <AltitudeMeters>509</AltitudeMeters>
            <DistanceMeters>NAN</DistanceMeters>
          </Trackpoint>
          <Trackpoint>
            <Time>2020-05-25T06:08:12.000Z</Time>
            <Position>
              <LatitudeDegrees>38.2398931682109832763671875</LatitudeDegrees>
              <LongitudeDegrees>-1.1855093948543071746826171875</LongitudeDegrees>
            </Position>
            <AltitudeMeters>509</AltitudeMeters>
            <DistanceMeters>NAN</DistanceMeters>
          </Trackpoint>
          <Trackpoint>
            <Time>2020-05-25T06:08:13.000Z</Time>
            <Position>
              <LatitudeDegrees>38.2398931682109832763671875</LatitudeDegrees>
              <LongitudeDegrees>-1.1855093948543071746826171875</LongitudeDegrees>
            </Position>
            <AltitudeMeters>509</AltitudeMeters>
            <DistanceMeters>NAN</DistanceMeters>
          </Trackpoint>
          <Trackpoint>
            <Time>2020-05-25T06:08:14.000Z</Time>
            <Position>
              <LatitudeDegrees>38.23996919207274913787841796875</LatitudeDegrees>
              <LongitudeDegrees>-1.18559279479086399078369140625</LongitudeDegrees>
            </Position>
            <AltitudeMeters>509</AltitudeMeters>
            <DistanceMeters>NAN</DistanceMeters>
          </Trackpoint>
          <Trackpoint>
            <Time>2020-05-25T06:08:15.000Z</Time>
            <Position>
              <LatitudeDegrees>38.23996919207274913787841796875</LatitudeDegrees>
              <LongitudeDegrees>-1.18559279479086399078369140625</LongitudeDegrees>
            </Position>
            <AltitudeMeters>509</AltitudeMeters>
            <DistanceMeters>NAN</DistanceMeters>
          </Trackpoint>
          <Trackpoint>
            <Time>2020-05-25T06:08:16.000Z</Time>
            <Position>
              <LatitudeDegrees>38.24000783264636993408203125</LatitudeDegrees>
              <LongitudeDegrees>-1.18563269264996051788330078125</LongitudeDegrees>
            </Position>
            <AltitudeMeters>509</AltitudeMeters>
            <DistanceMeters>NAN</DistanceMeters>
          </Trackpoint>
          <Trackpoint>
            <Time>2020-05-25T06:08:17.000Z</Time>
            <Position>
              <LatitudeDegrees>38.24004597030580043792724609375</LatitudeDegrees>
              <LongitudeDegrees>-1.18567208759486675262451171875</LongitudeDegrees>
            </Position>
            <AltitudeMeters>509</AltitudeMeters>
            <DistanceMeters>NAN</DistanceMeters>
          </Trackpoint>
          <Trackpoint>
            <Time>2020-05-25T06:08:18.000Z</Time>
            <Position>
              <LatitudeDegrees>38.240120150148868560791015625</LatitudeDegrees>
              <LongitudeDegrees>-1.18574853055179119110107421875</LongitudeDegrees>
            </Position>
            <AltitudeMeters>509</AltitudeMeters>
            <DistanceMeters>NAN</DistanceMeters>
          </Trackpoint>
          <Trackpoint>
            <Time>2020-05-25T06:08:19.000Z</Time>
            <Position>
              <LatitudeDegrees>38.240120150148868560791015625</LatitudeDegrees>
              <LongitudeDegrees>-1.18574853055179119110107421875</LongitudeDegrees>
            </Position>
            <AltitudeMeters>509</AltitudeMeters>
            <DistanceMeters>NAN</DistanceMeters>
          </Trackpoint>
          <Trackpoint>
            <Time>2020-05-25T06:08:20.000Z</Time>
            <Position>
              <LatitudeDegrees>38.24019215069711208343505859375</LatitudeDegrees>
              <LongitudeDegrees>-1.18582229129970073699951171875</LongitudeDegrees>
            </Position>
            <AltitudeMeters>509.20001220703125</AltitudeMeters>
            <DistanceMeters>NAN</DistanceMeters>
          </Trackpoint>
          <Trackpoint>
            <Time>2020-05-25T06:08:21.000Z</Time>
            <Position>
              <LatitudeDegrees>38.24019215069711208343505859375</LatitudeDegrees>
              <LongitudeDegrees>-1.18582229129970073699951171875</LongitudeDegrees>
            </Position>
            <AltitudeMeters>509.399993896484375</AltitudeMeters>
            <DistanceMeters>NAN</DistanceMeters>
          </Trackpoint>
          <Trackpoint>
            <Time>2020-05-25T06:08:22.000Z</Time>
            <Position>
              <LatitudeDegrees>38.240228109061717987060546875</LatitudeDegrees>
              <LongitudeDegrees>-1.18585682474076747894287109375</LongitudeDegrees>
            </Position>
            <AltitudeMeters>509.600006103515625</AltitudeMeters>
            <DistanceMeters>NAN</DistanceMeters>
          </Trackpoint>
          <Trackpoint>
            <Time>2020-05-25T06:08:23.000Z</Time>
            <Position>
              <LatitudeDegrees>38.24026389978826045989990234375</LatitudeDegrees>
              <LongitudeDegrees>-1.185890100896358489990234375</LongitudeDegrees>
            </Position>
            <AltitudeMeters>509.79998779296875</AltitudeMeters>
            <DistanceMeters>NAN</DistanceMeters>
          </Trackpoint>
          <Trackpoint>
            <Time>2020-05-25T06:08:24.000Z</Time>
            <Position>
              <LatitudeDegrees>38.24033397249877452850341796875</LatitudeDegrees>
              <LongitudeDegrees>-1.18595204316079616546630859375</LongitudeDegrees>
            </Position>
            <AltitudeMeters>509.79998779296875</AltitudeMeters>
            <DistanceMeters>NAN</DistanceMeters>
          </Trackpoint>
          <Trackpoint>
            <Time>2020-05-25T06:08:25.000Z</Time>
            <Position>
              <LatitudeDegrees>38.24033397249877452850341796875</LatitudeDegrees>
              <LongitudeDegrees>-1.18595204316079616546630859375</LongitudeDegrees>
            </Position>
            <AltitudeMeters>509.79998779296875</AltitudeMeters>
            <DistanceMeters>NAN</DistanceMeters>
          </Trackpoint>
          <Trackpoint>
            <Time>2020-05-25T06:08:26.000Z</Time>
            <Position>
              <LatitudeDegrees>38.24040211737155914306640625</LatitudeDegrees>
              <LongitudeDegrees>-1.18601004593074321746826171875</LongitudeDegrees>
            </Position>
            <AltitudeMeters>510</AltitudeMeters>
            <DistanceMeters>NAN</DistanceMeters>
          </Trackpoint>
          <Trackpoint>
            <Time>2020-05-25T06:08:27.000Z</Time>
            <Position>
              <LatitudeDegrees>38.24040211737155914306640625</LatitudeDegrees>
              <LongitudeDegrees>-1.18601004593074321746826171875</LongitudeDegrees>
            </Position>
            <AltitudeMeters>510.20001220703125</AltitudeMeters>
            <DistanceMeters>NAN</DistanceMeters>
          </Trackpoint>
          <Trackpoint>
            <Time>2020-05-25T06:08:28.000Z</Time>
            <Position>
              <LatitudeDegrees>38.24043455533683300018310546875</LatitudeDegrees>
              <LongitudeDegrees>-1.18603996932506561279296875</LongitudeDegrees>
            </Position>
            <AltitudeMeters>510.399993896484375</AltitudeMeters>
            <DistanceMeters>NAN</DistanceMeters>
          </Trackpoint>
          <Trackpoint>
            <Time>2020-05-25T06:08:29.000Z</Time>
            <Position>
              <LatitudeDegrees>38.240465484559535980224609375</LatitudeDegrees>
              <LongitudeDegrees>-1.1860706470906734466552734375</LongitudeDegrees>
            </Position>
            <AltitudeMeters>510.399993896484375</AltitudeMeters>
            <DistanceMeters>NAN</DistanceMeters>
          </Trackpoint>
          <Trackpoint>
            <Time>2020-05-25T06:08:30.000Z</Time>
            <Position>
              <LatitudeDegrees>38.24052675627171993255615234375</LatitudeDegrees>
              <LongitudeDegrees>-1.1861340142786502838134765625</LongitudeDegrees>
            </Position>
            <AltitudeMeters>510.79998779296875</AltitudeMeters>
            <DistanceMeters>NAN</DistanceMeters>
          </Trackpoint>
          <Trackpoint>
            <Time>2020-05-25T06:08:31.000Z</Time>
            <Position>
              <LatitudeDegrees>38.24052675627171993255615234375</LatitudeDegrees>
              <LongitudeDegrees>-1.1861340142786502838134765625</LongitudeDegrees>
            </Position>
            <AltitudeMeters>511</AltitudeMeters>
            <DistanceMeters>NAN</DistanceMeters>
          </Trackpoint>
          <Trackpoint>
            <Time>2020-05-25T06:08:32.000Z</Time>
            <Position>
              <LatitudeDegrees>38.24058710597455501556396484375</LatitudeDegrees>
              <LongitudeDegrees>-1.18619528599083423614501953125</LongitudeDegrees>
            </Position>
            <AltitudeMeters>511.20001220703125</AltitudeMeters>
            <DistanceMeters>NAN</DistanceMeters>
          </Trackpoint>
          <Trackpoint>
            <Time>2020-05-25T06:08:33.000Z</Time>
            <Position>
              <LatitudeDegrees>38.24058710597455501556396484375</LatitudeDegrees>
              <LongitudeDegrees>-1.18619528599083423614501953125</LongitudeDegrees>
            </Position>
            <AltitudeMeters>511.399993896484375</AltitudeMeters>
            <DistanceMeters>NAN</DistanceMeters>
          </Trackpoint>
          <Trackpoint>
            <Time>2020-05-25T06:08:34.000Z</Time>
            <Position>
              <LatitudeDegrees>38.24061661027371883392333984375</LatitudeDegrees>
              <LongitudeDegrees>-1.1862265504896640777587890625</LongitudeDegrees>
            </Position>
            <AltitudeMeters>511.600006103515625</AltitudeMeters>
            <DistanceMeters>NAN</DistanceMeters>
          </Trackpoint>
          <Trackpoint>
            <Time>2020-05-25T06:08:35.000Z</Time>
            <Position>
              <LatitudeDegrees>38.24064527638256549835205078125</LatitudeDegrees>
              <LongitudeDegrees>-1.1862597428262233734130859375</LongitudeDegrees>
            </Position>
            <AltitudeMeters>511.600006103515625</AltitudeMeters>
            <DistanceMeters>NAN</DistanceMeters>
          </Trackpoint>
          <Trackpoint>
            <Time>2020-05-25T06:08:36.000Z</Time>
            <Position>
              <LatitudeDegrees>38.240702860057353973388671875</LatitudeDegrees>
              <LongitudeDegrees>-1.186325289309024810791015625</LongitudeDegrees>
            </Position>
            <AltitudeMeters>511.79998779296875</AltitudeMeters>
            <DistanceMeters>NAN</DistanceMeters>
          </Trackpoint>
          <Trackpoint>
            <Time>2020-05-25T06:08:37.000Z</Time>
            <Position>
              <LatitudeDegrees>38.240702860057353973388671875</LatitudeDegrees>
              <LongitudeDegrees>-1.186325289309024810791015625</LongitudeDegrees>
            </Position>
            <AltitudeMeters>512</AltitudeMeters>
            <DistanceMeters>NAN</DistanceMeters>
          </Trackpoint>
          <Trackpoint>
            <Time>2020-05-25T06:08:38.000Z</Time>
            <Position>
              <LatitudeDegrees>38.24076379649341106414794921875</LatitudeDegrees>
              <LongitudeDegrees>-1.18638488464057445526123046875</LongitudeDegrees>
            </Position>
            <AltitudeMeters>512</AltitudeMeters>
            <DistanceMeters>NAN</DistanceMeters>
          </Trackpoint>
          <Trackpoint>
            <Time>2020-05-25T06:08:39.000Z</Time>
            <Position>
              <LatitudeDegrees>38.24076379649341106414794921875</LatitudeDegrees>
              <LongitudeDegrees>-1.18638488464057445526123046875</LongitudeDegrees>
            </Position>
            <AltitudeMeters>512.4000244140625</AltitudeMeters>
            <DistanceMeters>NAN</DistanceMeters>
          </Trackpoint>
          <Trackpoint>
            <Time>2020-05-25T06:08:40.000Z</Time>
            <Position>
              <LatitudeDegrees>38.24079371988773345947265625</LatitudeDegrees>
              <LongitudeDegrees>-1.1864148080348968505859375</LongitudeDegrees>
            </Position>
            <AltitudeMeters>512.4000244140625</AltitudeMeters>
            <DistanceMeters>NAN</DistanceMeters>
          </Trackpoint>
          <Trackpoint>
            <Time>2020-05-25T06:08:41.000Z</Time>
            <Position>
              <LatitudeDegrees>38.2408233918249607086181640625</LatitudeDegrees>
              <LongitudeDegrees>-1.18644473142921924591064453125</LongitudeDegrees>
            </Position>
            <AltitudeMeters>512.5999755859375</AltitudeMeters>
            <DistanceMeters>NAN</DistanceMeters>
          </Trackpoint>
          <Trackpoint>
            <Time>2020-05-25T06:08:42.000Z</Time>
            <Position>
              <LatitudeDegrees>38.24088156223297119140625</LatitudeDegrees>
              <LongitudeDegrees>-1.18650223128497600555419921875</LongitudeDegrees>
            </Position>
            <AltitudeMeters>513</AltitudeMeters>
            <DistanceMeters>NAN</DistanceMeters>
          </Trackpoint>
          <Trackpoint>
            <Time>2020-05-25T06:08:43.000Z</Time>
            <Position>
              <LatitudeDegrees>38.24088156223297119140625</LatitudeDegrees>
              <LongitudeDegrees>-1.18650223128497600555419921875</LongitudeDegrees>
            </Position>
            <AltitudeMeters>513.20001220703125</AltitudeMeters>
            <DistanceMeters>NAN</DistanceMeters>
          </Trackpoint>
          <Trackpoint>
            <Time>2020-05-25T06:08:44.000Z</Time>
            <Position>
              <LatitudeDegrees>38.240938223898410797119140625</LatitudeDegrees>
              <LongitudeDegrees>-1.18655956350266933441162109375</LongitudeDegrees>
            </Position>
            <AltitudeMeters>513.4000244140625</AltitudeMeters>
            <DistanceMeters>NAN</DistanceMeters>
          </Trackpoint>
          <Trackpoint>
            <Time>2020-05-25T06:08:45.000Z</Time>
            <Position>
              <LatitudeDegrees>38.240938223898410797119140625</LatitudeDegrees>
              <LongitudeDegrees>-1.18655956350266933441162109375</LongitudeDegrees>
            </Position>
            <AltitudeMeters>513.5999755859375</AltitudeMeters>
            <DistanceMeters>NAN</DistanceMeters>
          </Trackpoint>
          <Trackpoint>
            <Time>2020-05-25T06:08:46.000Z</Time>
            <Position>
              <LatitudeDegrees>38.24096630327403545379638671875</LatitudeDegrees>
              <LongitudeDegrees>-1.18659024126827716827392578125</LongitudeDegrees>
            </Position>
            <AltitudeMeters>513.79998779296875</AltitudeMeters>
            <DistanceMeters>NAN</DistanceMeters>
          </Trackpoint>
          <Trackpoint>
            <Time>2020-05-25T06:08:47.000Z</Time>
            <Position>
              <LatitudeDegrees>38.24099530465900897979736328125</LatitudeDegrees>
              <LongitudeDegrees>-1.1866199970245361328125</LongitudeDegrees>
            </Position>
            <AltitudeMeters>514</AltitudeMeters>
            <DistanceMeters>NAN</DistanceMeters>
          </Trackpoint>
          <Trackpoint>
            <Time>2020-05-25T06:08:48.000Z</Time>
            <Position>
              <LatitudeDegrees>38.2410554029047489166259765625</LatitudeDegrees>
              <LongitudeDegrees>-1.18667640723288059234619140625</LongitudeDegrees>
            </Position>
            <AltitudeMeters>514.20001220703125</AltitudeMeters>
            <DistanceMeters>NAN</DistanceMeters>
          </Trackpoint>
          <Trackpoint>
            <Time>2020-05-25T06:08:49.000Z</Time>
            <Position>
              <LatitudeDegrees>38.2410554029047489166259765625</LatitudeDegrees>
              <LongitudeDegrees>-1.18667640723288059234619140625</LongitudeDegrees>
            </Position>
            <AltitudeMeters>514.4000244140625</AltitudeMeters>
            <DistanceMeters>NAN</DistanceMeters>
          </Trackpoint>
          <Trackpoint>
            <Time>2020-05-25T06:08:50.000Z</Time>
            <Position>
              <LatitudeDegrees>38.2411157526075839996337890625</LatitudeDegrees>
              <LongitudeDegrees>-1.1867328174412250518798828125</LongitudeDegrees>
            </Position>
            <AltitudeMeters>514.5999755859375</AltitudeMeters>
            <DistanceMeters>NAN</DistanceMeters>
          </Trackpoint>
          <Trackpoint>
            <Time>2020-05-25T06:08:51.000Z</Time>
            <Position>
              <LatitudeDegrees>38.2411157526075839996337890625</LatitudeDegrees>
              <LongitudeDegrees>-1.1867328174412250518798828125</LongitudeDegrees>
            </Position>
            <AltitudeMeters>515</AltitudeMeters>
            <DistanceMeters>NAN</DistanceMeters>
          </Trackpoint>
          <Trackpoint>
            <Time>2020-05-25T06:08:52.000Z</Time>
            <Position>
              <LatitudeDegrees>38.241146765649318695068359375</LatitudeDegrees>
              <LongitudeDegrees>-1.1867582984268665313720703125</LongitudeDegrees>
            </Position>
            <AltitudeMeters>515.20001220703125</AltitudeMeters>
            <DistanceMeters>NAN</DistanceMeters>
          </Trackpoint>
          <Trackpoint>
            <Time>2020-05-25T06:08:53.000Z</Time>
            <Position>
              <LatitudeDegrees>38.241176269948482513427734375</LatitudeDegrees>
              <LongitudeDegrees>-1.18678470142185688018798828125</LongitudeDegrees>
            </Position>
            <AltitudeMeters>515.4000244140625</AltitudeMeters>
            <DistanceMeters>NAN</DistanceMeters>
          </Trackpoint>
          <Trackpoint>
            <Time>2020-05-25T06:08:54.000Z</Time>
            <Position>
              <LatitudeDegrees>38.24123091995716094970703125</LatitudeDegrees>
              <LongitudeDegrees>-1.18684136308729648590087890625</LongitudeDegrees>
            </Position>
            <AltitudeMeters>515.5999755859375</AltitudeMeters>
            <DistanceMeters>NAN</DistanceMeters>
          </Trackpoint>
          <Trackpoint>
            <Time>2020-05-25T06:08:55.000Z</Time>
            <Position>
              <LatitudeDegrees>38.24123091995716094970703125</LatitudeDegrees>
              <LongitudeDegrees>-1.18684136308729648590087890625</LongitudeDegrees>
            </Position>
            <AltitudeMeters>515.79998779296875</AltitudeMeters>
            <DistanceMeters>NAN</DistanceMeters>
          </Trackpoint>
          <Trackpoint>
            <Time>2020-05-25T06:08:56.000Z</Time>
            <Position>
              <LatitudeDegrees>38.2412864081561565399169921875</LatitudeDegrees>
              <LongitudeDegrees>-1.18689735420048236846923828125</LongitudeDegrees>
            </Position>
            <AltitudeMeters>516.20001220703125</AltitudeMeters>
            <DistanceMeters>NAN</DistanceMeters>
          </Trackpoint>
          <Trackpoint>
            <Time>2020-05-25T06:08:57.000Z</Time>
            <Position>
              <LatitudeDegrees>38.2412864081561565399169921875</LatitudeDegrees>
              <LongitudeDegrees>-1.18689735420048236846923828125</LongitudeDegrees>
            </Position>
            <AltitudeMeters>516.4000244140625</AltitudeMeters>
            <DistanceMeters>NAN</DistanceMeters>
          </Trackpoint>
          <Trackpoint>
            <Time>2020-05-25T06:08:58.000Z</Time>
            <Position>
              <LatitudeDegrees>38.2413152419030666351318359375</LatitudeDegrees>
              <LongitudeDegrees>-1.186926774680614471435546875</LongitudeDegrees>
            </Position>
            <AltitudeMeters>517</AltitudeMeters>
            <DistanceMeters>NAN</DistanceMeters>
          </Trackpoint>
          <Trackpoint>
            <Time>2020-05-25T06:08:59.000Z</Time>
            <Position>
              <LatitudeDegrees>38.24134399183094501495361328125</LatitudeDegrees>
              <LongitudeDegrees>-1.1869547702372074127197265625</LongitudeDegrees>
            </Position>
            <AltitudeMeters>517.20001220703125</AltitudeMeters>
            <DistanceMeters>NAN</DistanceMeters>
          </Trackpoint>
          <Trackpoint>
            <Time>2020-05-25T06:09:00.000Z</Time>
            <Position>
              <LatitudeDegrees>38.24140149168670177459716796875</LatitudeDegrees>
              <LongitudeDegrees>-1.18700749240815639495849609375</LongitudeDegrees>
            </Position>
            <AltitudeMeters>517.5999755859375</AltitudeMeters>
            <DistanceMeters>NAN</DistanceMeters>
          </Trackpoint>
          <Trackpoint>
            <Time>2020-05-25T06:09:01.000Z</Time>
            <Position>
              <LatitudeDegrees>38.24140149168670177459716796875</LatitudeDegrees>
              <LongitudeDegrees>-1.18700749240815639495849609375</LongitudeDegrees>
            </Position>
            <AltitudeMeters>518</AltitudeMeters>
            <DistanceMeters>NAN</DistanceMeters>
          </Trackpoint>
          <Trackpoint>
            <Time>2020-05-25T06:09:02.000Z</Time>
            <Position>
              <LatitudeDegrees>38.2414594106376171112060546875</LatitudeDegrees>
              <LongitudeDegrees>-1.1870585381984710693359375</LongitudeDegrees>
            </Position>
            <AltitudeMeters>518.20001220703125</AltitudeMeters>
            <DistanceMeters>NAN</DistanceMeters>
          </Trackpoint>
          <Trackpoint>
            <Time>2020-05-25T06:09:03.000Z</Time>
            <Position>
              <LatitudeDegrees>38.2414594106376171112060546875</LatitudeDegrees>
              <LongitudeDegrees>-1.1870585381984710693359375</LongitudeDegrees>
            </Position>
            <AltitudeMeters>518.4000244140625</AltitudeMeters>
            <DistanceMeters>NAN</DistanceMeters>
          </Trackpoint>
          <Trackpoint>
            <Time>2020-05-25T06:09:04.000Z</Time>
            <Position>
              <LatitudeDegrees>38.2414877414703369140625</LatitudeDegrees>
              <LongitudeDegrees>-1.1870838515460491180419921875</LongitudeDegrees>
            </Position>
            <AltitudeMeters>518.5999755859375</AltitudeMeters>
            <DistanceMeters>NAN</DistanceMeters>
          </Trackpoint>
          <Trackpoint>
            <Time>2020-05-25T06:09:05.000Z</Time>
            <Position>
              <LatitudeDegrees>38.2415160723030567169189453125</LatitudeDegrees>
              <LongitudeDegrees>-1.18710857816040515899658203125</LongitudeDegrees>
            </Position>
            <AltitudeMeters>518.79998779296875</AltitudeMeters>
            <DistanceMeters>NAN</DistanceMeters>
          </Trackpoint>
          <Trackpoint>
            <Time>2020-05-25T06:09:06.000Z</Time>
            <Position>
              <LatitudeDegrees>38.24157298542559146881103515625</LatitudeDegrees>
              <LongitudeDegrees>-1.18715685792267322540283203125</LongitudeDegrees>
            </Position>
            <AltitudeMeters>519</AltitudeMeters>
            <DistanceMeters>NAN</DistanceMeters>
          </Trackpoint>
          <Trackpoint>
            <Time>2020-05-25T06:09:07.000Z</Time>
            <Position>
              <LatitudeDegrees>38.24157298542559146881103515625</LatitudeDegrees>
              <LongitudeDegrees>-1.18715685792267322540283203125</LongitudeDegrees>
            </Position>
            <AltitudeMeters>519.20001220703125</AltitudeMeters>
            <DistanceMeters>NAN</DistanceMeters>
          </Trackpoint>
          <Trackpoint>
            <Time>2020-05-25T06:09:08.000Z</Time>
            <Position>
              <LatitudeDegrees>38.2416012324392795562744140625</LatitudeDegrees>
              <LongitudeDegrees>-1.1871807463467121124267578125</LongitudeDegrees>
            </Position>
            <AltitudeMeters>519.4000244140625</AltitudeMeters>
            <DistanceMeters>NAN</DistanceMeters>
          </Trackpoint>
          <Trackpoint>
            <Time>2020-05-25T06:09:09.000Z</Time>
            <Position>
              <LatitudeDegrees>38.2416300661861896514892578125</LatitudeDegrees>
              <LongitudeDegrees>-1.1872042156755924224853515625</LongitudeDegrees>
            </Position>
            <AltitudeMeters>519.5999755859375</AltitudeMeters>
            <DistanceMeters>NAN</DistanceMeters>
          </Trackpoint>
          <Trackpoint>
            <Time>2020-05-25T06:09:10.000Z</Time>
            <Position>
              <LatitudeDegrees>38.24165931902825832366943359375</LatitudeDegrees>
              <LongitudeDegrees>-1.1872273497283458709716796875</LongitudeDegrees>
            </Position>
            <AltitudeMeters>519.79998779296875</AltitudeMeters>
            <DistanceMeters>NAN</DistanceMeters>
          </Trackpoint>
          <Trackpoint>
            <Time>2020-05-25T06:09:11.000Z</Time>
            <Position>
              <LatitudeDegrees>38.241688571870326995849609375</LatitudeDegrees>
              <LongitudeDegrees>-1.1872494779527187347412109375</LongitudeDegrees>
            </Position>
            <AltitudeMeters>520</AltitudeMeters>
            <DistanceMeters>NAN</DistanceMeters>
          </Trackpoint>
          <Trackpoint>
            <Time>2020-05-25T06:09:12.000Z</Time>
            <Position>
              <LatitudeDegrees>38.24174699373543262481689453125</LatitudeDegrees>
              <LongitudeDegrees>-1.18729390203952789306640625</LongitudeDegrees>
            </Position>
            <AltitudeMeters>520.20001220703125</AltitudeMeters>
            <DistanceMeters>NAN</DistanceMeters>
          </Trackpoint>
          <Trackpoint>
            <Time>2020-05-25T06:09:13.000Z</Time>
            <Position>
              <LatitudeDegrees>38.24174699373543262481689453125</LatitudeDegrees>
              <LongitudeDegrees>-1.18729390203952789306640625</LongitudeDegrees>
            </Position>
            <AltitudeMeters>520.4000244140625</AltitudeMeters>
            <DistanceMeters>NAN</DistanceMeters>
          </Trackpoint>
          <Trackpoint>
            <Time>2020-05-25T06:09:14.000Z</Time>
            <Position>
              <LatitudeDegrees>38.241803906857967376708984375</LatitudeDegrees>
              <LongitudeDegrees>-1.18733346462249755859375</LongitudeDegrees>
            </Position>
            <AltitudeMeters>520.5999755859375</AltitudeMeters>
            <DistanceMeters>NAN</DistanceMeters>
          </Trackpoint>
          <Trackpoint>
            <Time>2020-05-25T06:09:15.000Z</Time>
            <Position>
              <LatitudeDegrees>38.241803906857967376708984375</LatitudeDegrees>
              <LongitudeDegrees>-1.18733346462249755859375</LongitudeDegrees>
            </Position>
            <AltitudeMeters>520.79998779296875</AltitudeMeters>
            <DistanceMeters>NAN</DistanceMeters>
          </Trackpoint>
          <Trackpoint>
            <Time>2020-05-25T06:09:16.000Z</Time>
            <Position>
              <LatitudeDegrees>38.2418324053287506103515625</LatitudeDegrees>
              <LongitudeDegrees>-1.18735198862850666046142578125</LongitudeDegrees>
            </Position>
            <AltitudeMeters>521.20001220703125</AltitudeMeters>
            <DistanceMeters>NAN</DistanceMeters>
          </Trackpoint>
          <Trackpoint>
            <Time>2020-05-25T06:09:17.000Z</Time>
            <Position>
              <LatitudeDegrees>38.2418610714375972747802734375</LatitudeDegrees>
              <LongitudeDegrees>-1.18737059645354747772216796875</LongitudeDegrees>
            </Position>
            <AltitudeMeters>521.4000244140625</AltitudeMeters>
            <DistanceMeters>NAN</DistanceMeters>
          </Trackpoint>
          <Trackpoint>
            <Time>2020-05-25T06:09:18.000Z</Time>
            <Position>
              <LatitudeDegrees>38.241918571293354034423828125</LatitudeDegrees>
              <LongitudeDegrees>-1.18740781210362911224365234375</LongitudeDegrees>
            </Position>
            <AltitudeMeters>521.5999755859375</AltitudeMeters>
            <DistanceMeters>NAN</DistanceMeters>
          </Trackpoint>
          <Trackpoint>
            <Time>2020-05-25T06:09:19.000Z</Time>
            <Position>
              <LatitudeDegrees>38.241918571293354034423828125</LatitudeDegrees>
              <LongitudeDegrees>-1.18740781210362911224365234375</LongitudeDegrees>
            </Position>
            <AltitudeMeters>521.79998779296875</AltitudeMeters>
            <DistanceMeters>NAN</DistanceMeters>
          </Trackpoint>
          <Trackpoint>
            <Time>2020-05-25T06:09:20.000Z</Time>
            <Position>
              <LatitudeDegrees>38.24197531677782535552978515625</LatitudeDegrees>
              <LongitudeDegrees>-1.1874462850391864776611328125</LongitudeDegrees>
            </Position>
            <AltitudeMeters>521.79998779296875</AltitudeMeters>
            <DistanceMeters>NAN</DistanceMeters>
          </Trackpoint>
          <Trackpoint>
            <Time>2020-05-25T06:09:21.000Z</Time>
            <Position>
              <LatitudeDegrees>38.24197531677782535552978515625</LatitudeDegrees>
              <LongitudeDegrees>-1.1874462850391864776611328125</LongitudeDegrees>
            </Position>
            <AltitudeMeters>522</AltitudeMeters>
            <DistanceMeters>NAN</DistanceMeters>
          </Trackpoint>
          <Trackpoint>
            <Time>2020-05-25T06:09:22.000Z</Time>
            <Position>
              <LatitudeDegrees>38.24200339615345001220703125</LatitudeDegrees>
              <LongitudeDegrees>-1.18746464140713214874267578125</LongitudeDegrees>
            </Position>
            <AltitudeMeters>522.20001220703125</AltitudeMeters>
            <DistanceMeters>NAN</DistanceMeters>
          </Trackpoint>
          <Trackpoint>
            <Time>2020-05-25T06:09:23.000Z</Time>
            <Position>
              <LatitudeDegrees>38.2420323975384235382080078125</LatitudeDegrees>
              <LongitudeDegrees>-1.1874818243086338043212890625</LongitudeDegrees>
            </Position>
            <AltitudeMeters>522.5999755859375</AltitudeMeters>
            <DistanceMeters>NAN</DistanceMeters>
          </Trackpoint>
          <Trackpoint>
            <Time>2020-05-25T06:09:24.000Z</Time>
            <Position>
              <LatitudeDegrees>38.24209299869835376739501953125</LatitudeDegrees>
              <LongitudeDegrees>-1.187510155141353607177734375</LongitudeDegrees>
            </Position>
            <AltitudeMeters>522.79998779296875</AltitudeMeters>
            <DistanceMeters>NAN</DistanceMeters>
          </Trackpoint>
          <Trackpoint>
            <Time>2020-05-25T06:09:25.000Z</Time>
            <Position>
              <LatitudeDegrees>38.24209299869835376739501953125</LatitudeDegrees>
              <LongitudeDegrees>-1.187510155141353607177734375</LongitudeDegrees>
            </Position>
            <AltitudeMeters>523.5999755859375</AltitudeMeters>
            <DistanceMeters>NAN</DistanceMeters>
          </Trackpoint>
          <Trackpoint>
            <Time>2020-05-25T06:09:26.000Z</Time>
            <Position>
              <LatitudeDegrees>38.2421534322202205657958984375</LatitudeDegrees>
              <LongitudeDegrees>-1.18754292838275432586669921875</LongitudeDegrees>
            </Position>
            <AltitudeMeters>523.79998779296875</AltitudeMeters>
            <DistanceMeters>NAN</DistanceMeters>
          </Trackpoint>
          <Trackpoint>
            <Time>2020-05-25T06:09:27.000Z</Time>
            <Position>
              <LatitudeDegrees>38.2421534322202205657958984375</LatitudeDegrees>
              <LongitudeDegrees>-1.18754292838275432586669921875</LongitudeDegrees>
            </Position>
            <AltitudeMeters>524</AltitudeMeters>
            <DistanceMeters>NAN</DistanceMeters>
          </Trackpoint>
          <Trackpoint>
            <Time>2020-05-25T06:09:28.000Z</Time>
            <Position>
              <LatitudeDegrees>38.2421839423477649688720703125</LatitudeDegrees>
              <LongitudeDegrees>-1.1875601112842559814453125</LongitudeDegrees>
            </Position>
            <AltitudeMeters>524.4000244140625</AltitudeMeters>
            <DistanceMeters>NAN</DistanceMeters>
          </Trackpoint>
          <Trackpoint>
            <Time>2020-05-25T06:09:29.000Z</Time>
            <Position>
              <LatitudeDegrees>38.24221529066562652587890625</LatitudeDegrees>
              <LongitudeDegrees>-1.18757561780512332916259765625</LongitudeDegrees>
            </Position>
            <AltitudeMeters>524.5999755859375</AltitudeMeters>
            <DistanceMeters>NAN</DistanceMeters>
          </Trackpoint>
          <Trackpoint>
            <Time>2020-05-25T06:09:30.000Z</Time>
            <Position>
              <LatitudeDegrees>38.242278657853603363037109375</LatitudeDegrees>
              <LongitudeDegrees>-1.18760361336171627044677734375</LongitudeDegrees>
            </Position>
            <AltitudeMeters>524.79998779296875</AltitudeMeters>
            <DistanceMeters>NAN</DistanceMeters>
          </Trackpoint>
          <Trackpoint>
            <Time>2020-05-25T06:09:31.000Z</Time>
            <Position>
              <LatitudeDegrees>38.242278657853603363037109375</LatitudeDegrees>
              <LongitudeDegrees>-1.18760361336171627044677734375</LongitudeDegrees>
            </Position>
            <AltitudeMeters>525</AltitudeMeters>
            <DistanceMeters>NAN</DistanceMeters>
          </Trackpoint>
          <Trackpoint>
            <Time>2020-05-25T06:09:32.000Z</Time>
            <Position>
              <LatitudeDegrees>38.24234060011804103851318359375</LatitudeDegrees>
              <LongitudeDegrees>-1.18763227947056293487548828125</LongitudeDegrees>
            </Position>
            <AltitudeMeters>525.20001220703125</AltitudeMeters>
            <DistanceMeters>NAN</DistanceMeters>
          </Trackpoint>
          <Trackpoint>
            <Time>2020-05-25T06:09:33.000Z</Time>
            <Position>
              <LatitudeDegrees>38.24234060011804103851318359375</LatitudeDegrees>
              <LongitudeDegrees>-1.18763227947056293487548828125</LongitudeDegrees>
            </Position>
            <AltitudeMeters>525.20001220703125</AltitudeMeters>
            <DistanceMeters>NAN</DistanceMeters>
          </Trackpoint>
          <Trackpoint>
            <Time>2020-05-25T06:09:34.000Z</Time>
            <Position>
              <LatitudeDegrees>38.242370523512363433837890625</LatitudeDegrees>
              <LongitudeDegrees>-1.187644265592098236083984375</LongitudeDegrees>
            </Position>
            <AltitudeMeters>525.4000244140625</AltitudeMeters>
            <DistanceMeters>NAN</DistanceMeters>
          </Trackpoint>
          <Trackpoint>
            <Time>2020-05-25T06:09:35.000Z</Time>
            <Position>
              <LatitudeDegrees>38.24240044690668582916259765625</LatitudeDegrees>
              <LongitudeDegrees>-1.18765574879944324493408203125</LongitudeDegrees>
            </Position>
            <AltitudeMeters>525.5999755859375</AltitudeMeters>
            <DistanceMeters>NAN</DistanceMeters>
          </Trackpoint>
          <Trackpoint>
            <Time>2020-05-25T06:09:36.000Z</Time>
            <Position>
              <LatitudeDegrees>38.24245668947696685791015625</LatitudeDegrees>
              <LongitudeDegrees>-1.187677793204784393310546875</LongitudeDegrees>
            </Position>
            <AltitudeMeters>525.79998779296875</AltitudeMeters>
            <DistanceMeters>NAN</DistanceMeters>
          </Trackpoint>
          <Trackpoint>
            <Time>2020-05-25T06:09:37.000Z</Time>
            <Position>
              <LatitudeDegrees>38.24245668947696685791015625</LatitudeDegrees>
              <LongitudeDegrees>-1.187677793204784393310546875</LongitudeDegrees>
            </Position>
            <AltitudeMeters>526</AltitudeMeters>
            <DistanceMeters>NAN</DistanceMeters>
          </Trackpoint>
          <Trackpoint>
            <Time>2020-05-25T06:09:38.000Z</Time>
            <Position>
              <LatitudeDegrees>38.24251611717045307159423828125</LatitudeDegrees>
              <LongitudeDegrees>-1.1876980774104595184326171875</LongitudeDegrees>
            </Position>
            <AltitudeMeters>526.20001220703125</AltitudeMeters>
            <DistanceMeters>NAN</DistanceMeters>
          </Trackpoint>
          <Trackpoint>
            <Time>2020-05-25T06:09:39.000Z</Time>
            <Position>
              <LatitudeDegrees>38.24251611717045307159423828125</LatitudeDegrees>
              <LongitudeDegrees>-1.1876980774104595184326171875</LongitudeDegrees>
            </Position>
            <AltitudeMeters>526.4000244140625</AltitudeMeters>
            <DistanceMeters>NAN</DistanceMeters>
          </Trackpoint>
          <Trackpoint>
            <Time>2020-05-25T06:09:40.000Z</Time>
            <Position>
              <LatitudeDegrees>38.24254662729799747467041015625</LatitudeDegrees>
              <LongitudeDegrees>-1.187709979712963104248046875</LongitudeDegrees>
            </Position>
            <AltitudeMeters>526.5999755859375</AltitudeMeters>
            <DistanceMeters>NAN</DistanceMeters>
          </Trackpoint>
          <Trackpoint>
            <Time>2020-05-25T06:09:41.000Z</Time>
            <Position>
              <LatitudeDegrees>38.24257730506360530853271484375</LatitudeDegrees>
              <LongitudeDegrees>-1.1877218820154666900634765625</LongitudeDegrees>
            </Position>
            <AltitudeMeters>526.79998779296875</AltitudeMeters>
            <DistanceMeters>NAN</DistanceMeters>
          </Trackpoint>
          <Trackpoint>
            <Time>2020-05-25T06:09:42.000Z</Time>
            <Position>
              <LatitudeDegrees>38.24263866059482097625732421875</LatitudeDegrees>
              <LongitudeDegrees>-1.18774375878274440765380859375</LongitudeDegrees>
            </Position>
            <AltitudeMeters>527</AltitudeMeters>
            <DistanceMeters>NAN</DistanceMeters>
          </Trackpoint>
          <Trackpoint>
            <Time>2020-05-25T06:09:43.000Z</Time>
            <Position>
              <LatitudeDegrees>38.24263866059482097625732421875</LatitudeDegrees>
              <LongitudeDegrees>-1.18774375878274440765380859375</LongitudeDegrees>
            </Position>
            <AltitudeMeters>527.20001220703125</AltitudeMeters>
            <DistanceMeters>NAN</DistanceMeters>
          </Trackpoint>
          <Trackpoint>
            <Time>2020-05-25T06:09:44.000Z</Time>
            <Position>
              <LatitudeDegrees>38.242698423564434051513671875</LatitudeDegrees>
              <LongitudeDegrees>-1.18776471354067325592041015625</LongitudeDegrees>
            </Position>
            <AltitudeMeters>527.4000244140625</AltitudeMeters>
            <DistanceMeters>NAN</DistanceMeters>
          </Trackpoint>
          <Trackpoint>
            <Time>2020-05-25T06:09:45.000Z</Time>
            <Position>
              <LatitudeDegrees>38.242698423564434051513671875</LatitudeDegrees>
              <LongitudeDegrees>-1.18776471354067325592041015625</LongitudeDegrees>
            </Position>
            <AltitudeMeters>527.5999755859375</AltitudeMeters>
            <DistanceMeters>NAN</DistanceMeters>
          </Trackpoint>
          <Trackpoint>
            <Time>2020-05-25T06:09:46.000Z</Time>
            <Position>
              <LatitudeDegrees>38.24272784404456615447998046875</LatitudeDegrees>
              <LongitudeDegrees>-1.1877735145390033721923828125</LongitudeDegrees>
            </Position>
            <AltitudeMeters>527.79998779296875</AltitudeMeters>
            <DistanceMeters>NAN</DistanceMeters>
          </Trackpoint>
          <Trackpoint>
            <Time>2020-05-25T06:09:47.000Z</Time>
            <Position>
              <LatitudeDegrees>38.24275709688663482666015625</LatitudeDegrees>
              <LongitudeDegrees>-1.18778332136571407318115234375</LongitudeDegrees>
            </Position>
            <AltitudeMeters>528</AltitudeMeters>
            <DistanceMeters>NAN</DistanceMeters>
          </Trackpoint>
          <Trackpoint>
            <Time>2020-05-25T06:09:48.000Z</Time>
            <Position>
              <LatitudeDegrees>38.242814429104328155517578125</LatitudeDegrees>
              <LongitudeDegrees>-1.1877986602485179901123046875</LongitudeDegrees>
            </Position>
            <AltitudeMeters>528.20001220703125</AltitudeMeters>
            <DistanceMeters>NAN</DistanceMeters>
          </Trackpoint>
          <Trackpoint>
            <Time>2020-05-25T06:09:49.000Z</Time>
            <Position>
              <LatitudeDegrees>38.242814429104328155517578125</LatitudeDegrees>
              <LongitudeDegrees>-1.1877986602485179901123046875</LongitudeDegrees>
            </Position>
            <AltitudeMeters>528.4000244140625</AltitudeMeters>
            <DistanceMeters>NAN</DistanceMeters>
          </Trackpoint>
          <Trackpoint>
            <Time>2020-05-25T06:09:50.000Z</Time>
            <Position>
              <LatitudeDegrees>38.24284292757511138916015625</LatitudeDegrees>
              <LongitudeDegrees>-1.18780377320945262908935546875</LongitudeDegrees>
            </Position>
            <AltitudeMeters>528.5999755859375</AltitudeMeters>
            <DistanceMeters>NAN</DistanceMeters>
          </Trackpoint>
          <Trackpoint>
            <Time>2020-05-25T06:09:51.000Z</Time>
            <Position>
              <LatitudeDegrees>38.2428712584078311920166015625</LatitudeDegrees>
              <LongitudeDegrees>-1.1878093890845775604248046875</LongitudeDegrees>
            </Position>
            <AltitudeMeters>528.79998779296875</AltitudeMeters>
            <DistanceMeters>NAN</DistanceMeters>
          </Trackpoint>
          <Trackpoint>
            <Time>2020-05-25T06:09:52.000Z</Time>
            <Position>
              <LatitudeDegrees>38.24289933778345584869384765625</LatitudeDegrees>
              <LongitudeDegrees>-1.187817938625812530517578125</LongitudeDegrees>
            </Position>
            <AltitudeMeters>529</AltitudeMeters>
            <DistanceMeters>NAN</DistanceMeters>
          </Trackpoint>
          <Trackpoint>
            <Time>2020-05-25T06:09:53.000Z</Time>
            <Position>
              <LatitudeDegrees>38.2429279200732707977294921875</LatitudeDegrees>
              <LongitudeDegrees>-1.187826655805110931396484375</LongitudeDegrees>
            </Position>
            <AltitudeMeters>529.4000244140625</AltitudeMeters>
            <DistanceMeters>NAN</DistanceMeters>
          </Trackpoint>
          <Trackpoint>
            <Time>2020-05-25T06:09:54.000Z</Time>
            <Position>
              <LatitudeDegrees>38.24298433028161525726318359375</LatitudeDegrees>
              <LongitudeDegrees>-1.187840737402439117431640625</LongitudeDegrees>
            </Position>
            <AltitudeMeters>529.5999755859375</AltitudeMeters>
            <DistanceMeters>NAN</DistanceMeters>
          </Trackpoint>
          <Trackpoint>
            <Time>2020-05-25T06:09:55.000Z</Time>
            <Position>
              <LatitudeDegrees>38.24298433028161525726318359375</LatitudeDegrees>
              <LongitudeDegrees>-1.187840737402439117431640625</LongitudeDegrees>
            </Position>
            <AltitudeMeters>529.79998779296875</AltitudeMeters>
            <DistanceMeters>NAN</DistanceMeters>
          </Trackpoint>
          <Trackpoint>
            <Time>2020-05-25T06:09:56.000Z</Time>
            <Position>
              <LatitudeDegrees>38.243043087422847747802734375</LatitudeDegrees>
              <LongitudeDegrees>-1.1878533102571964263916015625</LongitudeDegrees>
            </Position>
            <AltitudeMeters>530.20001220703125</AltitudeMeters>
            <DistanceMeters>NAN</DistanceMeters>
          </Trackpoint>
          <Trackpoint>
            <Time>2020-05-25T06:09:57.000Z</Time>
            <Position>
              <LatitudeDegrees>38.243043087422847747802734375</LatitudeDegrees>
              <LongitudeDegrees>-1.1878533102571964263916015625</LongitudeDegrees>
            </Position>
            <AltitudeMeters>530.20001220703125</AltitudeMeters>
            <DistanceMeters>NAN</DistanceMeters>
          </Trackpoint>
          <Trackpoint>
            <Time>2020-05-25T06:09:58.000Z</Time>
            <Position>
              <LatitudeDegrees>38.24307317845523357391357421875</LatitudeDegrees>
              <LongitudeDegrees>-1.18785926140844821929931640625</LongitudeDegrees>
            </Position>
            <AltitudeMeters>530.5999755859375</AltitudeMeters>
            <DistanceMeters>NAN</DistanceMeters>
          </Trackpoint>
          <Trackpoint>
            <Time>2020-05-25T06:09:59.000Z</Time>
            <Position>
              <LatitudeDegrees>38.24310368858277797698974609375</LatitudeDegrees>
              <LongitudeDegrees>-1.18786563165485858917236328125</LongitudeDegrees>
            </Position>
            <AltitudeMeters>530.79998779296875</AltitudeMeters>
            <DistanceMeters>NAN</DistanceMeters>
          </Trackpoint>
          <Trackpoint>
            <Time>2020-05-25T06:10:00.000Z</Time>
            <Position>
              <LatitudeDegrees>38.24316403828561305999755859375</LatitudeDegrees>
              <LongitudeDegrees>-1.187874935567378997802734375</LongitudeDegrees>
            </Position>
            <AltitudeMeters>531.20001220703125</AltitudeMeters>
            <DistanceMeters>NAN</DistanceMeters>
          </Trackpoint>
          <Trackpoint>
            <Time>2020-05-25T06:10:01.000Z</Time>
            <Position>
              <LatitudeDegrees>38.24316403828561305999755859375</LatitudeDegrees>
              <LongitudeDegrees>-1.187874935567378997802734375</LongitudeDegrees>
            </Position>
            <AltitudeMeters>531.20001220703125</AltitudeMeters>
            <DistanceMeters>NAN</DistanceMeters>
          </Trackpoint>
          <Trackpoint>
            <Time>2020-05-25T06:10:02.000Z</Time>
            <Position>
              <LatitudeDegrees>38.24319387786090373992919921875</LatitudeDegrees>
              <LongitudeDegrees>-1.18787887506186962127685546875</LongitudeDegrees>
            </Position>
            <AltitudeMeters>531.4000244140625</AltitudeMeters>
            <DistanceMeters>NAN</DistanceMeters>
          </Trackpoint>
          <Trackpoint>
            <Time>2020-05-25T06:10:03.000Z</Time>
            <Position>
              <LatitudeDegrees>38.243223465979099273681640625</LatitudeDegrees>
              <LongitudeDegrees>-1.18788340128958225250244140625</LongitudeDegrees>
            </Position>
            <AltitudeMeters>531.79998779296875</AltitudeMeters>
            <DistanceMeters>NAN</DistanceMeters>
          </Trackpoint>
          <Trackpoint>
            <Time>2020-05-25T06:10:04.000Z</Time>
            <Position>
              <LatitudeDegrees>38.24325330555438995361328125</LatitudeDegrees>
              <LongitudeDegrees>-1.18788843043148517608642578125</LongitudeDegrees>
            </Position>
            <AltitudeMeters>532</AltitudeMeters>
            <DistanceMeters>NAN</DistanceMeters>
          </Trackpoint>
          <Trackpoint>
            <Time>2020-05-25T06:10:05.000Z</Time>
            <Position>
              <LatitudeDegrees>38.24328339658677577972412109375</LatitudeDegrees>
              <LongitudeDegrees>-1.187893040478229522705078125</LongitudeDegrees>
            </Position>
            <AltitudeMeters>532.20001220703125</AltitudeMeters>
            <DistanceMeters>NAN</DistanceMeters>
          </Trackpoint>
          <Trackpoint>
            <Time>2020-05-25T06:10:06.000Z</Time>
            <Position>
              <LatitudeDegrees>38.24331306852400302886962890625</LatitudeDegrees>
              <LongitudeDegrees>-1.18789739906787872314453125</LongitudeDegrees>
            </Position>
            <AltitudeMeters>532.4000244140625</AltitudeMeters>
            <DistanceMeters>NAN</DistanceMeters>
          </Trackpoint>
          <Trackpoint>
            <Time>2020-05-25T06:10:07.000Z</Time>
            <Position>
              <LatitudeDegrees>38.24334307573735713958740234375</LatitudeDegrees>
              <LongitudeDegrees>-1.18790117092430591583251953125</LongitudeDegrees>
            </Position>
            <AltitudeMeters>532.4000244140625</AltitudeMeters>
            <DistanceMeters>NAN</DistanceMeters>
          </Trackpoint>
          <Trackpoint>
            <Time>2020-05-25T06:10:08.000Z</Time>
            <Position>
              <LatitudeDegrees>38.24340409599244594573974609375</LatitudeDegrees>
              <LongitudeDegrees>-1.18790368549525737762451171875</LongitudeDegrees>
            </Position>
            <AltitudeMeters>532.5999755859375</AltitudeMeters>
            <DistanceMeters>NAN</DistanceMeters>
          </Trackpoint>
          <Trackpoint>
            <Time>2020-05-25T06:10:09.000Z</Time>
            <Position>
              <LatitudeDegrees>38.24340409599244594573974609375</LatitudeDegrees>
              <LongitudeDegrees>-1.18790368549525737762451171875</LongitudeDegrees>
            </Position>
            <AltitudeMeters>533</AltitudeMeters>
            <DistanceMeters>NAN</DistanceMeters>
          </Trackpoint>
          <Trackpoint>
            <Time>2020-05-25T06:10:10.000Z</Time>
            <Position>
              <LatitudeDegrees>38.24343393556773662567138671875</LatitudeDegrees>
              <LongitudeDegrees>-1.18790435604751110076904296875</LongitudeDegrees>
            </Position>
            <AltitudeMeters>533.20001220703125</AltitudeMeters>
            <DistanceMeters>NAN</DistanceMeters>
          </Trackpoint>
          <Trackpoint>
            <Time>2020-05-25T06:10:11.000Z</Time>
            <Position>
              <LatitudeDegrees>38.24346385896205902099609375</LatitudeDegrees>
              <LongitudeDegrees>-1.1879042722284793853759765625</LongitudeDegrees>
            </Position>
            <AltitudeMeters>533.4000244140625</AltitudeMeters>
            <DistanceMeters>NAN</DistanceMeters>
          </Trackpoint>
          <Trackpoint>
            <Time>2020-05-25T06:10:12.000Z</Time>
            <Position>
              <LatitudeDegrees>38.24352613650262355804443359375</LatitudeDegrees>
              <LongitudeDegrees>-1.187902428209781646728515625</LongitudeDegrees>
            </Position>
            <AltitudeMeters>533.5999755859375</AltitudeMeters>
            <DistanceMeters>NAN</DistanceMeters>
          </Trackpoint>
          <Trackpoint>
            <Time>2020-05-25T06:10:13.000Z</Time>
            <Position>
              <LatitudeDegrees>38.24352613650262355804443359375</LatitudeDegrees>
              <LongitudeDegrees>-1.187902428209781646728515625</LongitudeDegrees>
            </Position>
            <AltitudeMeters>533.79998779296875</AltitudeMeters>
            <DistanceMeters>NAN</DistanceMeters>
          </Trackpoint>
          <Trackpoint>
            <Time>2020-05-25T06:10:14.000Z</Time>
            <Position>
              <LatitudeDegrees>38.24358983896672725677490234375</LatitudeDegrees>
              <LongitudeDegrees>-1.1879012547433376312255859375</LongitudeDegrees>
            </Position>
            <AltitudeMeters>534</AltitudeMeters>
            <DistanceMeters>NAN</DistanceMeters>
          </Trackpoint>
          <Trackpoint>
            <Time>2020-05-25T06:10:15.000Z</Time>
            <Position>
              <LatitudeDegrees>38.24358983896672725677490234375</LatitudeDegrees>
              <LongitudeDegrees>-1.1879012547433376312255859375</LongitudeDegrees>
            </Position>
            <AltitudeMeters>534.20001220703125</AltitudeMeters>
            <DistanceMeters>NAN</DistanceMeters>
          </Trackpoint>
          <Trackpoint>
            <Time>2020-05-25T06:10:16.000Z</Time>
            <Position>
              <LatitudeDegrees>38.24362152256071567535400390625</LatitudeDegrees>
              <LongitudeDegrees>-1.18790184147655963897705078125</LongitudeDegrees>
            </Position>
            <AltitudeMeters>534.4000244140625</AltitudeMeters>
            <DistanceMeters>NAN</DistanceMeters>
          </Trackpoint>
          <Trackpoint>
            <Time>2020-05-25T06:10:17.000Z</Time>
            <Position>
              <LatitudeDegrees>38.243653289973735809326171875</LatitudeDegrees>
              <LongitudeDegrees>-1.1879009194672107696533203125</LongitudeDegrees>
            </Position>
            <AltitudeMeters>534.5999755859375</AltitudeMeters>
            <DistanceMeters>NAN</DistanceMeters>
          </Trackpoint>
          <Trackpoint>
            <Time>2020-05-25T06:10:18.000Z</Time>
            <Position>
              <LatitudeDegrees>38.24371774680912494659423828125</LatitudeDegrees>
              <LongitudeDegrees>-1.1878989078104496002197265625</LongitudeDegrees>
            </Position>
            <AltitudeMeters>534.79998779296875</AltitudeMeters>
            <DistanceMeters>NAN</DistanceMeters>
          </Trackpoint>
          <Trackpoint>
            <Time>2020-05-25T06:10:19.000Z</Time>
            <Position>
              <LatitudeDegrees>38.24371774680912494659423828125</LatitudeDegrees>
              <LongitudeDegrees>-1.1878989078104496002197265625</LongitudeDegrees>
            </Position>
            <AltitudeMeters>535</AltitudeMeters>
            <DistanceMeters>NAN</DistanceMeters>
          </Trackpoint>
          <Trackpoint>
            <Time>2020-05-25T06:10:20.000Z</Time>
            <Position>
              <LatitudeDegrees>38.2437781803309917449951171875</LatitudeDegrees>
              <LongitudeDegrees>-1.18789195083081722259521484375</LongitudeDegrees>
            </Position>
            <AltitudeMeters>535.4000244140625</AltitudeMeters>
            <DistanceMeters>NAN</DistanceMeters>
          </Trackpoint>
          <Trackpoint>
            <Time>2020-05-25T06:10:21.000Z</Time>
            <Position>
              <LatitudeDegrees>38.2437781803309917449951171875</LatitudeDegrees>
              <LongitudeDegrees>-1.18789195083081722259521484375</LongitudeDegrees>
            </Position>
            <AltitudeMeters>535.5999755859375</AltitudeMeters>
            <DistanceMeters>NAN</DistanceMeters>
          </Trackpoint>
          <Trackpoint>
            <Time>2020-05-25T06:10:22.000Z</Time>
            <Position>
              <LatitudeDegrees>38.24380827136337757110595703125</LatitudeDegrees>
              <LongitudeDegrees>-1.18788843043148517608642578125</LongitudeDegrees>
            </Position>
            <AltitudeMeters>535.79998779296875</AltitudeMeters>
            <DistanceMeters>NAN</DistanceMeters>
          </Trackpoint>
          <Trackpoint>
            <Time>2020-05-25T06:10:23.000Z</Time>
            <Position>
              <LatitudeDegrees>38.24383961968123912811279296875</LatitudeDegrees>
              <LongitudeDegrees>-1.1878848262131214141845703125</LongitudeDegrees>
            </Position>
            <AltitudeMeters>536</AltitudeMeters>
            <DistanceMeters>NAN</DistanceMeters>
          </Trackpoint>
          <Trackpoint>
            <Time>2020-05-25T06:10:24.000Z</Time>
            <Position>
              <LatitudeDegrees>38.2439042441546916961669921875</LatitudeDegrees>
              <LongitudeDegrees>-1.1878814734518527984619140625</LongitudeDegrees>
            </Position>
            <AltitudeMeters>536.20001220703125</AltitudeMeters>
            <DistanceMeters>NAN</DistanceMeters>
          </Trackpoint>
          <Trackpoint>
            <Time>2020-05-25T06:10:25.000Z</Time>
            <Position>
              <LatitudeDegrees>38.2439042441546916961669921875</LatitudeDegrees>
              <LongitudeDegrees>-1.1878814734518527984619140625</LongitudeDegrees>
            </Position>
            <AltitudeMeters>536.4000244140625</AltitudeMeters>
            <DistanceMeters>NAN</DistanceMeters>
          </Trackpoint>
          <Trackpoint>
            <Time>2020-05-25T06:10:26.000Z</Time>
            <Position>
              <LatitudeDegrees>38.243967108428478240966796875</LatitudeDegrees>
              <LongitudeDegrees>-1.187873594462871551513671875</LongitudeDegrees>
            </Position>
            <AltitudeMeters>536.5999755859375</AltitudeMeters>
            <DistanceMeters>NAN</DistanceMeters>
          </Trackpoint>
          <Trackpoint>
            <Time>2020-05-25T06:10:27.000Z</Time>
            <Position>
              <LatitudeDegrees>38.243967108428478240966796875</LatitudeDegrees>
              <LongitudeDegrees>-1.187873594462871551513671875</LongitudeDegrees>
            </Position>
            <AltitudeMeters>536.79998779296875</AltitudeMeters>
            <DistanceMeters>NAN</DistanceMeters>
          </Trackpoint>
          <Trackpoint>
            <Time>2020-05-25T06:10:28.000Z</Time>
            <Position>
              <LatitudeDegrees>38.24399787001311779022216796875</LatitudeDegrees>
              <LongitudeDegrees>-1.18786831386387348175048828125</LongitudeDegrees>
            </Position>
            <AltitudeMeters>537.20001220703125</AltitudeMeters>
            <DistanceMeters>NAN</DistanceMeters>
          </Trackpoint>
          <Trackpoint>
            <Time>2020-05-25T06:10:29.000Z</Time>
            <Position>
              <LatitudeDegrees>38.2440289668738842010498046875</LatitudeDegrees>
              <LongitudeDegrees>-1.1878633685410022735595703125</LongitudeDegrees>
            </Position>
            <AltitudeMeters>537.4000244140625</AltitudeMeters>
            <DistanceMeters>NAN</DistanceMeters>
          </Trackpoint>
          <Trackpoint>
            <Time>2020-05-25T06:10:30.000Z</Time>
            <Position>
              <LatitudeDegrees>38.244089819490909576416015625</LatitudeDegrees>
              <LongitudeDegrees>-1.18785305880010128021240234375</LongitudeDegrees>
            </Position>
            <AltitudeMeters>537.5999755859375</AltitudeMeters>
            <DistanceMeters>NAN</DistanceMeters>
          </Trackpoint>
          <Trackpoint>
            <Time>2020-05-25T06:10:31.000Z</Time>
            <Position>
              <LatitudeDegrees>38.244089819490909576416015625</LatitudeDegrees>
              <LongitudeDegrees>-1.18785305880010128021240234375</LongitudeDegrees>
            </Position>
            <AltitudeMeters>538</AltitudeMeters>
            <DistanceMeters>NAN</DistanceMeters>
          </Trackpoint>
          <Trackpoint>
            <Time>2020-05-25T06:10:32.000Z</Time>
            <Position>
              <LatitudeDegrees>38.2441503368318080902099609375</LatitudeDegrees>
              <LongitudeDegrees>-1.18784417398273944854736328125</LongitudeDegrees>
            </Position>
            <AltitudeMeters>538.20001220703125</AltitudeMeters>
            <DistanceMeters>NAN</DistanceMeters>
          </Trackpoint>
          <Trackpoint>
            <Time>2020-05-25T06:10:33.000Z</Time>
            <Position>
              <LatitudeDegrees>38.2441503368318080902099609375</LatitudeDegrees>
              <LongitudeDegrees>-1.18784417398273944854736328125</LongitudeDegrees>
            </Position>
            <AltitudeMeters>538.4000244140625</AltitudeMeters>
            <DistanceMeters>NAN</DistanceMeters>
          </Trackpoint>
          <Trackpoint>
            <Time>2020-05-25T06:10:34.000Z</Time>
            <Position>
              <LatitudeDegrees>38.24418076314032077789306640625</LatitudeDegrees>
              <LongitudeDegrees>-1.18783897720277309417724609375</LongitudeDegrees>
            </Position>
            <AltitudeMeters>538.79998779296875</AltitudeMeters>
            <DistanceMeters>NAN</DistanceMeters>
          </Trackpoint>
          <Trackpoint>
            <Time>2020-05-25T06:10:35.000Z</Time>
            <Position>
              <LatitudeDegrees>38.2442113570868968963623046875</LatitudeDegrees>
              <LongitudeDegrees>-1.18783327750861644744873046875</LongitudeDegrees>
            </Position>
            <AltitudeMeters>539</AltitudeMeters>
            <DistanceMeters>NAN</DistanceMeters>
          </Trackpoint>
          <Trackpoint>
            <Time>2020-05-25T06:10:36.000Z</Time>
            <Position>
              <LatitudeDegrees>38.24424178339540958404541015625</LatitudeDegrees>
              <LongitudeDegrees>-1.18782657198607921600341796875</LongitudeDegrees>
            </Position>
            <AltitudeMeters>539.20001220703125</AltitudeMeters>
            <DistanceMeters>NAN</DistanceMeters>
          </Trackpoint>
          <Trackpoint>
            <Time>2020-05-25T06:10:37.000Z</Time>
            <Position>
              <LatitudeDegrees>38.24427187442779541015625</LatitudeDegrees>
              <LongitudeDegrees>-1.18781902827322483062744140625</LongitudeDegrees>
            </Position>
            <AltitudeMeters>539.4000244140625</AltitudeMeters>
            <DistanceMeters>NAN</DistanceMeters>
          </Trackpoint>
          <Trackpoint>
            <Time>2020-05-25T06:10:38.000Z</Time>
            <Position>
              <LatitudeDegrees>38.2443323917686939239501953125</LatitudeDegrees>
              <LongitudeDegrees>-1.18780511431396007537841796875</LongitudeDegrees>
            </Position>
            <AltitudeMeters>539.79998779296875</AltitudeMeters>
            <DistanceMeters>NAN</DistanceMeters>
          </Trackpoint>
          <Trackpoint>
            <Time>2020-05-25T06:10:39.000Z</Time>
            <Position>
              <LatitudeDegrees>38.2443323917686939239501953125</LatitudeDegrees>
              <LongitudeDegrees>-1.18780511431396007537841796875</LongitudeDegrees>
            </Position>
            <AltitudeMeters>540</AltitudeMeters>
            <DistanceMeters>NAN</DistanceMeters>
          </Trackpoint>
          <Trackpoint>
            <Time>2020-05-25T06:10:40.000Z</Time>
            <Position>
              <LatitudeDegrees>38.244363404810428619384765625</LatitudeDegrees>
              <LongitudeDegrees>-1.18779606185853481292724609375</LongitudeDegrees>
            </Position>
            <AltitudeMeters>540.4000244140625</AltitudeMeters>
            <DistanceMeters>NAN</DistanceMeters>
          </Trackpoint>
          <Trackpoint>
            <Time>2020-05-25T06:10:41.000Z</Time>
            <Position>
              <LatitudeDegrees>38.24439483694732189178466796875</LatitudeDegrees>
              <LongitudeDegrees>-1.18778516538441181182861328125</LongitudeDegrees>
            </Position>
            <AltitudeMeters>540.5999755859375</AltitudeMeters>
            <DistanceMeters>NAN</DistanceMeters>
          </Trackpoint>
          <Trackpoint>
            <Time>2020-05-25T06:10:42.000Z</Time>
            <Position>
              <LatitudeDegrees>38.24445837177336215972900390625</LatitudeDegrees>
              <LongitudeDegrees>-1.1877661384642124176025390625</LongitudeDegrees>
            </Position>
            <AltitudeMeters>540.79998779296875</AltitudeMeters>
            <DistanceMeters>NAN</DistanceMeters>
          </Trackpoint>
          <Trackpoint>
            <Time>2020-05-25T06:10:43.000Z</Time>
            <Position>
              <LatitudeDegrees>38.24445837177336215972900390625</LatitudeDegrees>
              <LongitudeDegrees>-1.1877661384642124176025390625</LongitudeDegrees>
            </Position>
            <AltitudeMeters>541</AltitudeMeters>
            <DistanceMeters>NAN</DistanceMeters>
          </Trackpoint>
          <Trackpoint>
            <Time>2020-05-25T06:10:44.000Z</Time>
            <Position>
              <LatitudeDegrees>38.244489133358001708984375</LatitudeDegrees>
              <LongitudeDegrees>-1.1877572536468505859375</LongitudeDegrees>
            </Position>
            <AltitudeMeters>541.20001220703125</AltitudeMeters>
            <DistanceMeters>NAN</DistanceMeters>
          </Trackpoint>
          <Trackpoint>
            <Time>2020-05-25T06:10:45.000Z</Time>
            <Position>
              <LatitudeDegrees>38.2445201463997364044189453125</LatitudeDegrees>
              <LongitudeDegrees>-1.1877480335533618927001953125</LongitudeDegrees>
            </Position>
            <AltitudeMeters>541.4000244140625</AltitudeMeters>
            <DistanceMeters>NAN</DistanceMeters>
          </Trackpoint>
          <Trackpoint>
            <Time>2020-05-25T06:10:46.000Z</Time>
            <Position>
              <LatitudeDegrees>38.2445509918034076690673828125</LatitudeDegrees>
              <LongitudeDegrees>-1.1877379752695560455322265625</LongitudeDegrees>
            </Position>
            <AltitudeMeters>541.5999755859375</AltitudeMeters>
            <DistanceMeters>NAN</DistanceMeters>
          </Trackpoint>
          <Trackpoint>
            <Time>2020-05-25T06:10:47.000Z</Time>
            <Position>
              <LatitudeDegrees>38.24458208866417407989501953125</LatitudeDegrees>
              <LongitudeDegrees>-1.18772900663316249847412109375</LongitudeDegrees>
            </Position>
            <AltitudeMeters>541.5999755859375</AltitudeMeters>
            <DistanceMeters>NAN</DistanceMeters>
          </Trackpoint>
          <Trackpoint>
            <Time>2020-05-25T06:10:48.000Z</Time>
            <Position>
              <LatitudeDegrees>38.24464394710958003997802734375</LatitudeDegrees>
              <LongitudeDegrees>-1.18771039880812168121337890625</LongitudeDegrees>
            </Position>
            <AltitudeMeters>542</AltitudeMeters>
            <DistanceMeters>NAN</DistanceMeters>
          </Trackpoint>
          <Trackpoint>
            <Time>2020-05-25T06:10:49.000Z</Time>
            <Position>
              <LatitudeDegrees>38.24464394710958003997802734375</LatitudeDegrees>
              <LongitudeDegrees>-1.18771039880812168121337890625</LongitudeDegrees>
            </Position>
            <AltitudeMeters>542.20001220703125</AltitudeMeters>
            <DistanceMeters>NAN</DistanceMeters>
          </Trackpoint>
          <Trackpoint>
            <Time>2020-05-25T06:10:50.000Z</Time>
            <Position>
              <LatitudeDegrees>38.244706057012081146240234375</LatitudeDegrees>
              <LongitudeDegrees>-1.1876890249550342559814453125</LongitudeDegrees>
            </Position>
            <AltitudeMeters>542.4000244140625</AltitudeMeters>
            <DistanceMeters>NAN</DistanceMeters>
          </Trackpoint>
          <Trackpoint>
            <Time>2020-05-25T06:10:51.000Z</Time>
            <Position>
              <LatitudeDegrees>38.244706057012081146240234375</LatitudeDegrees>
              <LongitudeDegrees>-1.1876890249550342559814453125</LongitudeDegrees>
            </Position>
            <AltitudeMeters>542.5999755859375</AltitudeMeters>
            <DistanceMeters>NAN</DistanceMeters>
          </Trackpoint>
          <Trackpoint>
            <Time>2020-05-25T06:10:52.000Z</Time>
            <Position>
              <LatitudeDegrees>38.2447374053299427032470703125</LatitudeDegrees>
              <LongitudeDegrees>-1.18767754174768924713134765625</LongitudeDegrees>
            </Position>
            <AltitudeMeters>543</AltitudeMeters>
            <DistanceMeters>NAN</DistanceMeters>
          </Trackpoint>
          <Trackpoint>
            <Time>2020-05-25T06:10:53.000Z</Time>
            <Position>
              <LatitudeDegrees>38.2447685860097408294677734375</LatitudeDegrees>
              <LongitudeDegrees>-1.18766563944518566131591796875</LongitudeDegrees>
            </Position>
            <AltitudeMeters>543.20001220703125</AltitudeMeters>
            <DistanceMeters>NAN</DistanceMeters>
          </Trackpoint>
          <Trackpoint>
            <Time>2020-05-25T06:10:54.000Z</Time>
            <Position>
              <LatitudeDegrees>38.24483019299805164337158203125</LatitudeDegrees>
              <LongitudeDegrees>-1.1876451037824153900146484375</LongitudeDegrees>
            </Position>
            <AltitudeMeters>543.4000244140625</AltitudeMeters>
            <DistanceMeters>NAN</DistanceMeters>
          </Trackpoint>
          <Trackpoint>
            <Time>2020-05-25T06:10:55.000Z</Time>
            <Position>
              <LatitudeDegrees>38.24483019299805164337158203125</LatitudeDegrees>
              <LongitudeDegrees>-1.1876451037824153900146484375</LongitudeDegrees>
            </Position>
            <AltitudeMeters>543.79998779296875</AltitudeMeters>
            <DistanceMeters>NAN</DistanceMeters>
          </Trackpoint>
          <Trackpoint>
            <Time>2020-05-25T06:10:56.000Z</Time>
            <Position>
              <LatitudeDegrees>38.2448912970721721649169921875</LatitudeDegrees>
              <LongitudeDegrees>-1.18762138299643993377685546875</LongitudeDegrees>
            </Position>
            <AltitudeMeters>544.20001220703125</AltitudeMeters>
            <DistanceMeters>NAN</DistanceMeters>
          </Trackpoint>
          <Trackpoint>
            <Time>2020-05-25T06:10:57.000Z</Time>
            <Position>
              <LatitudeDegrees>38.2448912970721721649169921875</LatitudeDegrees>
              <LongitudeDegrees>-1.18762138299643993377685546875</LongitudeDegrees>
            </Position>
            <AltitudeMeters>544.5999755859375</AltitudeMeters>
            <DistanceMeters>NAN</DistanceMeters>
          </Trackpoint>
          <Trackpoint>
            <Time>2020-05-25T06:10:58.000Z</Time>
            <Position>
              <LatitudeDegrees>38.24492105282843112945556640625</LatitudeDegrees>
              <LongitudeDegrees>-1.187608055770397186279296875</LongitudeDegrees>
            </Position>
            <AltitudeMeters>545</AltitudeMeters>
            <DistanceMeters>NAN</DistanceMeters>
          </Trackpoint>
          <Trackpoint>
            <Time>2020-05-25T06:10:59.000Z</Time>
            <Position>
              <LatitudeDegrees>38.24495055712759494781494140625</LatitudeDegrees>
              <LongitudeDegrees>-1.18759565055370330810546875</LongitudeDegrees>
            </Position>
            <AltitudeMeters>545.20001220703125</AltitudeMeters>
            <DistanceMeters>NAN</DistanceMeters>
          </Trackpoint>
          <Trackpoint>
            <Time>2020-05-25T06:11:00.000Z</Time>
            <Position>
              <LatitudeDegrees>38.24501174502074718475341796875</LatitudeDegrees>
              <LongitudeDegrees>-1.18757561780512332916259765625</LongitudeDegrees>
            </Position>
            <AltitudeMeters>545.4000244140625</AltitudeMeters>
            <DistanceMeters>NAN</DistanceMeters>
          </Trackpoint>
          <Trackpoint>
            <Time>2020-05-25T06:11:01.000Z</Time>
            <Position>
              <LatitudeDegrees>38.24501174502074718475341796875</LatitudeDegrees>
              <LongitudeDegrees>-1.18757561780512332916259765625</LongitudeDegrees>
            </Position>
            <AltitudeMeters>545.79998779296875</AltitudeMeters>
            <DistanceMeters>NAN</DistanceMeters>
          </Trackpoint>
          <Trackpoint>
            <Time>2020-05-25T06:11:02.000Z</Time>
            <Position>
              <LatitudeDegrees>38.245072849094867706298828125</LatitudeDegrees>
              <LongitudeDegrees>-1.18755281902849674224853515625</LongitudeDegrees>
            </Position>
            <AltitudeMeters>546</AltitudeMeters>
            <DistanceMeters>NAN</DistanceMeters>
          </Trackpoint>
          <Trackpoint>
            <Time>2020-05-25T06:11:03.000Z</Time>
            <Position>
              <LatitudeDegrees>38.245072849094867706298828125</LatitudeDegrees>
              <LongitudeDegrees>-1.18755281902849674224853515625</LongitudeDegrees>
            </Position>
            <AltitudeMeters>546.20001220703125</AltitudeMeters>
            <DistanceMeters>NAN</DistanceMeters>
          </Trackpoint>
          <Trackpoint>
            <Time>2020-05-25T06:11:04.000Z</Time>
            <Position>
              <LatitudeDegrees>38.2451035268604755401611328125</LatitudeDegrees>
              <LongitudeDegrees>-1.18754041381180286407470703125</LongitudeDegrees>
            </Position>
            <AltitudeMeters>546.5999755859375</AltitudeMeters>
            <DistanceMeters>NAN</DistanceMeters>
          </Trackpoint>
          <Trackpoint>
            <Time>2020-05-25T06:11:05.000Z</Time>
            <Position>
              <LatitudeDegrees>38.2451340369880199432373046875</LatitudeDegrees>
              <LongitudeDegrees>-1.18752717040479183197021484375</LongitudeDegrees>
            </Position>
            <AltitudeMeters>546.79998779296875</AltitudeMeters>
            <DistanceMeters>NAN</DistanceMeters>
          </Trackpoint>
          <Trackpoint>
            <Time>2020-05-25T06:11:06.000Z</Time>
            <Position>
              <LatitudeDegrees>38.2451970688998699188232421875</LatitudeDegrees>
              <LongitudeDegrees>-1.18750168941915035247802734375</LongitudeDegrees>
            </Position>
            <AltitudeMeters>547</AltitudeMeters>
            <DistanceMeters>NAN</DistanceMeters>
          </Trackpoint>
          <Trackpoint>
            <Time>2020-05-25T06:11:07.000Z</Time>
            <Position>
              <LatitudeDegrees>38.2451970688998699188232421875</LatitudeDegrees>
              <LongitudeDegrees>-1.18750168941915035247802734375</LongitudeDegrees>
            </Position>
            <AltitudeMeters>547.20001220703125</AltitudeMeters>
            <DistanceMeters>NAN</DistanceMeters>
          </Trackpoint>
          <Trackpoint>
            <Time>2020-05-25T06:11:08.000Z</Time>
            <Position>
              <LatitudeDegrees>38.24526035226881504058837890625</LatitudeDegrees>
              <LongitudeDegrees>-1.1874761246144771575927734375</LongitudeDegrees>
            </Position>
            <AltitudeMeters>547.4000244140625</AltitudeMeters>
            <DistanceMeters>NAN</DistanceMeters>
          </Trackpoint>
          <Trackpoint>
            <Time>2020-05-25T06:11:09.000Z</Time>
            <Position>
              <LatitudeDegrees>38.24526035226881504058837890625</LatitudeDegrees>
              <LongitudeDegrees>-1.1874761246144771575927734375</LongitudeDegrees>
            </Position>
            <AltitudeMeters>547.5999755859375</AltitudeMeters>
            <DistanceMeters>NAN</DistanceMeters>
          </Trackpoint>
          <Trackpoint>
            <Time>2020-05-25T06:11:10.000Z</Time>
            <Position>
              <LatitudeDegrees>38.24529220350086688995361328125</LatitudeDegrees>
              <LongitudeDegrees>-1.18746422231197357177734375</LongitudeDegrees>
            </Position>
            <AltitudeMeters>547.79998779296875</AltitudeMeters>
            <DistanceMeters>NAN</DistanceMeters>
          </Trackpoint>
          <Trackpoint>
            <Time>2020-05-25T06:11:11.000Z</Time>
            <Position>
              <LatitudeDegrees>38.24532422237098217010498046875</LatitudeDegrees>
              <LongitudeDegrees>-1.18745215237140655517578125</LongitudeDegrees>
            </Position>
            <AltitudeMeters>548</AltitudeMeters>
            <DistanceMeters>NAN</DistanceMeters>
          </Trackpoint>
          <Trackpoint>
            <Time>2020-05-25T06:11:12.000Z</Time>
            <Position>
              <LatitudeDegrees>38.2453878410160541534423828125</LatitudeDegrees>
              <LongitudeDegrees>-1.18742910213768482208251953125</LongitudeDegrees>
            </Position>
            <AltitudeMeters>548.4000244140625</AltitudeMeters>
            <DistanceMeters>NAN</DistanceMeters>
          </Trackpoint>
          <Trackpoint>
            <Time>2020-05-25T06:11:13.000Z</Time>
            <Position>
              <LatitudeDegrees>38.2453878410160541534423828125</LatitudeDegrees>
              <LongitudeDegrees>-1.18742910213768482208251953125</LongitudeDegrees>
            </Position>
            <AltitudeMeters>548.5999755859375</AltitudeMeters>
            <DistanceMeters>NAN</DistanceMeters>
          </Trackpoint>
          <Trackpoint>
            <Time>2020-05-25T06:11:14.000Z</Time>
            <Position>
              <LatitudeDegrees>38.24545095674693584442138671875</LatitudeDegrees>
              <LongitudeDegrees>-1.18740580044686794281005859375</LongitudeDegrees>
            </Position>
            <AltitudeMeters>548.79998779296875</AltitudeMeters>
            <DistanceMeters>NAN</DistanceMeters>
          </Trackpoint>
          <Trackpoint>
            <Time>2020-05-25T06:11:15.000Z</Time>
            <Position>
              <LatitudeDegrees>38.24545095674693584442138671875</LatitudeDegrees>
              <LongitudeDegrees>-1.18740580044686794281005859375</LongitudeDegrees>
            </Position>
            <AltitudeMeters>549</AltitudeMeters>
            <DistanceMeters>NAN</DistanceMeters>
          </Trackpoint>
          <Trackpoint>
            <Time>2020-05-25T06:11:16.000Z</Time>
            <Position>
              <LatitudeDegrees>38.245481885969638824462890625</LatitudeDegrees>
              <LongitudeDegrees>-1.1873933114111423492431640625</LongitudeDegrees>
            </Position>
            <AltitudeMeters>549.20001220703125</AltitudeMeters>
            <DistanceMeters>NAN</DistanceMeters>
          </Trackpoint>
          <Trackpoint>
            <Time>2020-05-25T06:11:17.000Z</Time>
            <Position>
              <LatitudeDegrees>38.2455132342875003814697265625</LatitudeDegrees>
              <LongitudeDegrees>-1.187382750213146209716796875</LongitudeDegrees>
            </Position>
            <AltitudeMeters>549.4000244140625</AltitudeMeters>
            <DistanceMeters>NAN</DistanceMeters>
          </Trackpoint>
          <Trackpoint>
            <Time>2020-05-25T06:11:18.000Z</Time>
            <Position>
              <LatitudeDegrees>38.24557584710419178009033203125</LatitudeDegrees>
              <LongitudeDegrees>-1.187365315854549407958984375</LongitudeDegrees>
            </Position>
            <AltitudeMeters>549.5999755859375</AltitudeMeters>
            <DistanceMeters>NAN</DistanceMeters>
          </Trackpoint>
          <Trackpoint>
            <Time>2020-05-25T06:11:19.000Z</Time>
            <Position>
              <LatitudeDegrees>38.24557584710419178009033203125</LatitudeDegrees>
              <LongitudeDegrees>-1.187365315854549407958984375</LongitudeDegrees>
            </Position>
            <AltitudeMeters>549.79998779296875</AltitudeMeters>
            <DistanceMeters>NAN</DistanceMeters>
          </Trackpoint>
          <Trackpoint>
            <Time>2020-05-25T06:11:20.000Z</Time>
            <Position>
              <LatitudeDegrees>38.2456362806260585784912109375</LatitudeDegrees>
              <LongitudeDegrees>-1.1873426847159862518310546875</LongitudeDegrees>
            </Position>
            <AltitudeMeters>550</AltitudeMeters>
            <DistanceMeters>NAN</DistanceMeters>
          </Trackpoint>
          <Trackpoint>
            <Time>2020-05-25T06:11:21.000Z</Time>
            <Position>
              <LatitudeDegrees>38.2456362806260585784912109375</LatitudeDegrees>
              <LongitudeDegrees>-1.1873426847159862518310546875</LongitudeDegrees>
            </Position>
            <AltitudeMeters>550.20001220703125</AltitudeMeters>
            <DistanceMeters>NAN</DistanceMeters>
          </Trackpoint>
          <Trackpoint>
            <Time>2020-05-25T06:11:22.000Z</Time>
            <Position>
              <LatitudeDegrees>38.24566653929650783538818359375</LatitudeDegrees>
              <LongitudeDegrees>-1.187330447137355804443359375</LongitudeDegrees>
            </Position>
            <AltitudeMeters>550.4000244140625</AltitudeMeters>
            <DistanceMeters>NAN</DistanceMeters>
          </Trackpoint>
          <Trackpoint>
            <Time>2020-05-25T06:11:23.000Z</Time>
            <Position>
              <LatitudeDegrees>38.24569704942405223846435546875</LatitudeDegrees>
              <LongitudeDegrees>-1.1873192153871059417724609375</LongitudeDegrees>
            </Position>
            <AltitudeMeters>550.5999755859375</AltitudeMeters>
            <DistanceMeters>NAN</DistanceMeters>
          </Trackpoint>
          <Trackpoint>
            <Time>2020-05-25T06:11:24.000Z</Time>
            <Position>
              <LatitudeDegrees>38.2457586564123630523681640625</LatitudeDegrees>
              <LongitudeDegrees>-1.18729817681014537811279296875</LongitudeDegrees>
            </Position>
            <AltitudeMeters>551</AltitudeMeters>
            <DistanceMeters>NAN</DistanceMeters>
          </Trackpoint>
          <Trackpoint>
            <Time>2020-05-25T06:11:25.000Z</Time>
            <Position>
              <LatitudeDegrees>38.2457586564123630523681640625</LatitudeDegrees>
              <LongitudeDegrees>-1.18729817681014537811279296875</LongitudeDegrees>
            </Position>
            <AltitudeMeters>551.20001220703125</AltitudeMeters>
            <DistanceMeters>NAN</DistanceMeters>
          </Trackpoint>
          <Trackpoint>
            <Time>2020-05-25T06:11:26.000Z</Time>
            <Position>
              <LatitudeDegrees>38.245790004730224609375</LatitudeDegrees>
              <LongitudeDegrees>-1.18728853762149810791015625</LongitudeDegrees>
            </Position>
            <AltitudeMeters>551.4000244140625</AltitudeMeters>
            <DistanceMeters>NAN</DistanceMeters>
          </Trackpoint>
          <Trackpoint>
            <Time>2020-05-25T06:11:27.000Z</Time>
            <Position>
              <LatitudeDegrees>38.2458210177719593048095703125</LatitudeDegrees>
              <LongitudeDegrees>-1.18727780878543853759765625</LongitudeDegrees>
            </Position>
            <AltitudeMeters>551.5999755859375</AltitudeMeters>
            <DistanceMeters>NAN</DistanceMeters>
          </Trackpoint>
          <Trackpoint>
            <Time>2020-05-25T06:11:28.000Z</Time>
            <Position>
              <LatitudeDegrees>38.2458521984517574310302734375</LatitudeDegrees>
              <LongitudeDegrees>-1.1872662417590618133544921875</LongitudeDegrees>
            </Position>
            <AltitudeMeters>552</AltitudeMeters>
            <DistanceMeters>NAN</DistanceMeters>
          </Trackpoint>
          <Trackpoint>
            <Time>2020-05-25T06:11:29.000Z</Time>
            <Position>
              <LatitudeDegrees>38.2458837144076824188232421875</LatitudeDegrees>
              <LongitudeDegrees>-1.1872545070946216583251953125</LongitudeDegrees>
            </Position>
            <AltitudeMeters>552.20001220703125</AltitudeMeters>
            <DistanceMeters>NAN</DistanceMeters>
          </Trackpoint>
          <Trackpoint>
            <Time>2020-05-25T06:11:30.000Z</Time>
            <Position>
              <LatitudeDegrees>38.2459159009158611297607421875</LatitudeDegrees>
              <LongitudeDegrees>-1.1872437782585620880126953125</LongitudeDegrees>
            </Position>
            <AltitudeMeters>552.4000244140625</AltitudeMeters>
            <DistanceMeters>NAN</DistanceMeters>
          </Trackpoint>
          <Trackpoint>
            <Time>2020-05-25T06:11:31.000Z</Time>
            <Position>
              <LatitudeDegrees>38.24594716541469097137451171875</LatitudeDegrees>
              <LongitudeDegrees>-1.18723162449896335601806640625</LongitudeDegrees>
            </Position>
            <AltitudeMeters>552.5999755859375</AltitudeMeters>
            <DistanceMeters>NAN</DistanceMeters>
          </Trackpoint>
          <Trackpoint>
            <Time>2020-05-25T06:11:32.000Z</Time>
            <Position>
              <LatitudeDegrees>38.24600793421268463134765625</LatitudeDegrees>
              <LongitudeDegrees>-1.18720480240881443023681640625</LongitudeDegrees>
            </Position>
            <AltitudeMeters>552.79998779296875</AltitudeMeters>
            <DistanceMeters>NAN</DistanceMeters>
          </Trackpoint>
          <Trackpoint>
            <Time>2020-05-25T06:11:33.000Z</Time>
            <Position>
              <LatitudeDegrees>38.24600793421268463134765625</LatitudeDegrees>
              <LongitudeDegrees>-1.18720480240881443023681640625</LongitudeDegrees>
            </Position>
            <AltitudeMeters>553</AltitudeMeters>
            <DistanceMeters>NAN</DistanceMeters>
          </Trackpoint>
          <Trackpoint>
            <Time>2020-05-25T06:11:34.000Z</Time>
            <Position>
              <LatitudeDegrees>38.24603903107345104217529296875</LatitudeDegrees>
              <LongitudeDegrees>-1.1871931515634059906005859375</LongitudeDegrees>
            </Position>
            <AltitudeMeters>553.20001220703125</AltitudeMeters>
            <DistanceMeters>NAN</DistanceMeters>
          </Trackpoint>
          <Trackpoint>
            <Time>2020-05-25T06:11:35.000Z</Time>
            <Position>
              <LatitudeDegrees>38.24607121758162975311279296875</LatitudeDegrees>
              <LongitudeDegrees>-1.187182925641536712646484375</LongitudeDegrees>
            </Position>
            <AltitudeMeters>553.4000244140625</AltitudeMeters>
            <DistanceMeters>NAN</DistanceMeters>
          </Trackpoint>
          <Trackpoint>
            <Time>2020-05-25T06:11:36.000Z</Time>
            <Position>
              <LatitudeDegrees>38.24613223783671855926513671875</LatitudeDegrees>
              <LongitudeDegrees>-1.1871579475700855255126953125</LongitudeDegrees>
            </Position>
            <AltitudeMeters>553.79998779296875</AltitudeMeters>
            <DistanceMeters>NAN</DistanceMeters>
          </Trackpoint>
          <Trackpoint>
            <Time>2020-05-25T06:11:37.000Z</Time>
            <Position>
              <LatitudeDegrees>38.24613223783671855926513671875</LatitudeDegrees>
              <LongitudeDegrees>-1.1871579475700855255126953125</LongitudeDegrees>
            </Position>
            <AltitudeMeters>554</AltitudeMeters>
            <DistanceMeters>NAN</DistanceMeters>
          </Trackpoint>
          <Trackpoint>
            <Time>2020-05-25T06:11:38.000Z</Time>
            <Position>
              <LatitudeDegrees>38.246196024119853973388671875</LatitudeDegrees>
              <LongitudeDegrees>-1.1871361546218395233154296875</LongitudeDegrees>
            </Position>
            <AltitudeMeters>554.20001220703125</AltitudeMeters>
            <DistanceMeters>NAN</DistanceMeters>
          </Trackpoint>
          <Trackpoint>
            <Time>2020-05-25T06:11:39.000Z</Time>
            <Position>
              <LatitudeDegrees>38.246196024119853973388671875</LatitudeDegrees>
              <LongitudeDegrees>-1.1871361546218395233154296875</LongitudeDegrees>
            </Position>
            <AltitudeMeters>554.4000244140625</AltitudeMeters>
            <DistanceMeters>NAN</DistanceMeters>
          </Trackpoint>
          <Trackpoint>
            <Time>2020-05-25T06:11:40.000Z</Time>
            <Position>
              <LatitudeDegrees>38.2462285459041595458984375</LatitudeDegrees>
              <LongitudeDegrees>-1.187124587595462799072265625</LongitudeDegrees>
            </Position>
            <AltitudeMeters>554.5999755859375</AltitudeMeters>
            <DistanceMeters>NAN</DistanceMeters>
          </Trackpoint>
          <Trackpoint>
            <Time>2020-05-25T06:11:41.000Z</Time>
            <Position>
              <LatitudeDegrees>38.2462602294981479644775390625</LatitudeDegrees>
              <LongitudeDegrees>-1.187110841274261474609375</LongitudeDegrees>
            </Position>
            <AltitudeMeters>554.79998779296875</AltitudeMeters>
            <DistanceMeters>NAN</DistanceMeters>
          </Trackpoint>
          <Trackpoint>
            <Time>2020-05-25T06:11:42.000Z</Time>
            <Position>
              <LatitudeDegrees>38.24632502160966396331787109375</LatitudeDegrees>
              <LongitudeDegrees>-1.187089718878269195556640625</LongitudeDegrees>
            </Position>
            <AltitudeMeters>555.20001220703125</AltitudeMeters>
            <DistanceMeters>NAN</DistanceMeters>
          </Trackpoint>
          <Trackpoint>
            <Time>2020-05-25T06:11:43.000Z</Time>
            <Position>
              <LatitudeDegrees>38.24632502160966396331787109375</LatitudeDegrees>
              <LongitudeDegrees>-1.187089718878269195556640625</LongitudeDegrees>
            </Position>
            <AltitudeMeters>555.5999755859375</AltitudeMeters>
            <DistanceMeters>NAN</DistanceMeters>
          </Trackpoint>
          <Trackpoint>
            <Time>2020-05-25T06:11:44.000Z</Time>
            <Position>
              <LatitudeDegrees>38.2463577948510646820068359375</LatitudeDegrees>
              <LongitudeDegrees>-1.18708142079412937164306640625</LongitudeDegrees>
            </Position>
            <AltitudeMeters>556</AltitudeMeters>
            <DistanceMeters>NAN</DistanceMeters>
          </Trackpoint>
          <Trackpoint>
            <Time>2020-05-25T06:11:45.000Z</Time>
            <Position>
              <LatitudeDegrees>38.24639040045440196990966796875</LatitudeDegrees>
              <LongitudeDegrees>-1.1870694346725940704345703125</LongitudeDegrees>
            </Position>
            <AltitudeMeters>556.20001220703125</AltitudeMeters>
            <DistanceMeters>NAN</DistanceMeters>
          </Trackpoint>
          <Trackpoint>
            <Time>2020-05-25T06:11:46.000Z</Time>
            <Position>
              <LatitudeDegrees>38.24642275460064411163330078125</LatitudeDegrees>
              <LongitudeDegrees>-1.18705510161817073822021484375</LongitudeDegrees>
            </Position>
            <AltitudeMeters>556.4000244140625</AltitudeMeters>
            <DistanceMeters>NAN</DistanceMeters>
          </Trackpoint>
          <Trackpoint>
            <Time>2020-05-25T06:11:47.000Z</Time>
            <Position>
              <LatitudeDegrees>38.24645586311817169189453125</LatitudeDegrees>
              <LongitudeDegrees>-1.18704102002084255218505859375</LongitudeDegrees>
            </Position>
            <AltitudeMeters>556.4000244140625</AltitudeMeters>
            <DistanceMeters>NAN</DistanceMeters>
          </Trackpoint>
          <Trackpoint>
            <Time>2020-05-25T06:11:48.000Z</Time>
            <Position>
              <LatitudeDegrees>38.246523924171924591064453125</LatitudeDegrees>
              <LongitudeDegrees>-1.1870134435594081878662109375</LongitudeDegrees>
            </Position>
            <AltitudeMeters>556.5999755859375</AltitudeMeters>
            <DistanceMeters>NAN</DistanceMeters>
          </Trackpoint>
          <Trackpoint>
            <Time>2020-05-25T06:11:49.000Z</Time>
            <Position>
              <LatitudeDegrees>38.246523924171924591064453125</LatitudeDegrees>
              <LongitudeDegrees>-1.1870134435594081878662109375</LongitudeDegrees>
            </Position>
            <AltitudeMeters>556.79998779296875</AltitudeMeters>
            <DistanceMeters>NAN</DistanceMeters>
          </Trackpoint>
          <Trackpoint>
            <Time>2020-05-25T06:11:50.000Z</Time>
            <Position>
              <LatitudeDegrees>38.24659341014921665191650390625</LatitudeDegrees>
              <LongitudeDegrees>-1.18699206970632076263427734375</LongitudeDegrees>
            </Position>
            <AltitudeMeters>556.79998779296875</AltitudeMeters>
            <DistanceMeters>NAN</DistanceMeters>
          </Trackpoint>
          <Trackpoint>
            <Time>2020-05-25T06:11:51.000Z</Time>
            <Position>
              <LatitudeDegrees>38.24659341014921665191650390625</LatitudeDegrees>
              <LongitudeDegrees>-1.18699206970632076263427734375</LongitudeDegrees>
            </Position>
            <AltitudeMeters>557</AltitudeMeters>
            <DistanceMeters>NAN</DistanceMeters>
          </Trackpoint>
          <Trackpoint>
            <Time>2020-05-25T06:11:52.000Z</Time>
            <Position>
              <LatitudeDegrees>38.24662878178060054779052734375</LatitudeDegrees>
              <LongitudeDegrees>-1.18698352016508579254150390625</LongitudeDegrees>
            </Position>
            <AltitudeMeters>557.20001220703125</AltitudeMeters>
            <DistanceMeters>NAN</DistanceMeters>
          </Trackpoint>
          <Trackpoint>
            <Time>2020-05-25T06:11:53.000Z</Time>
            <Position>
              <LatitudeDegrees>38.2467021234333515167236328125</LatitudeDegrees>
              <LongitudeDegrees>-1.18697446770966053009033203125</LongitudeDegrees>
            </Position>
            <AltitudeMeters>557.20001220703125</AltitudeMeters>
            <DistanceMeters>NAN</DistanceMeters>
          </Trackpoint>
          <Trackpoint>
            <Time>2020-05-25T06:11:54.000Z</Time>
            <Position>
              <LatitudeDegrees>38.2467413507401943206787109375</LatitudeDegrees>
              <LongitudeDegrees>-1.18697178550064563751220703125</LongitudeDegrees>
            </Position>
            <AltitudeMeters>557.20001220703125</AltitudeMeters>
            <DistanceMeters>NAN</DistanceMeters>
          </Trackpoint>
          <Trackpoint>
            <Time>2020-05-25T06:11:55.000Z</Time>
            <Position>
              <LatitudeDegrees>38.24678150005638599395751953125</LatitudeDegrees>
              <LongitudeDegrees>-1.18696860037744045257568359375</LongitudeDegrees>
            </Position>
            <AltitudeMeters>557.20001220703125</AltitudeMeters>
            <DistanceMeters>NAN</DistanceMeters>
          </Trackpoint>
          <Trackpoint>
            <Time>2020-05-25T06:11:56.000Z</Time>
            <Position>
              <LatitudeDegrees>38.246822990477085113525390625</LatitudeDegrees>
              <LongitudeDegrees>-1.18696390651166439056396484375</LongitudeDegrees>
            </Position>
            <AltitudeMeters>557.5999755859375</AltitudeMeters>
            <DistanceMeters>NAN</DistanceMeters>
          </Trackpoint>
          <Trackpoint>
            <Time>2020-05-25T06:11:57.000Z</Time>
            <Position>
              <LatitudeDegrees>38.246822990477085113525390625</LatitudeDegrees>
              <LongitudeDegrees>-1.18696390651166439056396484375</LongitudeDegrees>
            </Position>
            <AltitudeMeters>557.79998779296875</AltitudeMeters>
            <DistanceMeters>NAN</DistanceMeters>
          </Trackpoint>
          <Trackpoint>
            <Time>2020-05-25T06:11:58.000Z</Time>
            <Position>
              <LatitudeDegrees>38.246865570545196533203125</LatitudeDegrees>
              <LongitudeDegrees>-1.1869604699313640594482421875</LongitudeDegrees>
            </Position>
            <AltitudeMeters>557.79998779296875</AltitudeMeters>
            <DistanceMeters>NAN</DistanceMeters>
          </Trackpoint>
          <Trackpoint>
            <Time>2020-05-25T06:11:59.000Z</Time>
            <Position>
              <LatitudeDegrees>38.24690773151814937591552734375</LatitudeDegrees>
              <LongitudeDegrees>-1.1869571171700954437255859375</LongitudeDegrees>
            </Position>
            <AltitudeMeters>558</AltitudeMeters>
            <DistanceMeters>NAN</DistanceMeters>
          </Trackpoint>
          <Trackpoint>
            <Time>2020-05-25T06:12:00.000Z</Time>
            <Position>
              <LatitudeDegrees>38.2469954900443553924560546875</LatitudeDegrees>
              <LongitudeDegrees>-1.1869561113417148590087890625</LongitudeDegrees>
            </Position>
            <AltitudeMeters>558</AltitudeMeters>
            <DistanceMeters>NAN</DistanceMeters>
          </Trackpoint>
          <Trackpoint>
            <Time>2020-05-25T06:12:01.000Z</Time>
            <Position>
              <LatitudeDegrees>38.2469954900443553924560546875</LatitudeDegrees>
              <LongitudeDegrees>-1.1869561113417148590087890625</LongitudeDegrees>
            </Position>
            <AltitudeMeters>558.20001220703125</AltitudeMeters>
            <DistanceMeters>NAN</DistanceMeters>
          </Trackpoint>
          <Trackpoint>
            <Time>2020-05-25T06:12:02.000Z</Time>
            <Position>
              <LatitudeDegrees>38.2470814883708953857421875</LatitudeDegrees>
              <LongitudeDegrees>-1.186956278979778289794921875</LongitudeDegrees>
            </Position>
            <AltitudeMeters>558.20001220703125</AltitudeMeters>
            <DistanceMeters>NAN</DistanceMeters>
          </Trackpoint>
          <Trackpoint>
            <Time>2020-05-25T06:12:03.000Z</Time>
            <Position>
              <LatitudeDegrees>38.2470814883708953857421875</LatitudeDegrees>
              <LongitudeDegrees>-1.186956278979778289794921875</LongitudeDegrees>
            </Position>
            <AltitudeMeters>558.20001220703125</AltitudeMeters>
            <DistanceMeters>NAN</DistanceMeters>
          </Trackpoint>
          <Trackpoint>
            <Time>2020-05-25T06:12:04.000Z</Time>
            <Position>
              <LatitudeDegrees>38.2471242360770702362060546875</LatitudeDegrees>
              <LongitudeDegrees>-1.18696005083620548248291015625</LongitudeDegrees>
            </Position>
            <AltitudeMeters>558.4000244140625</AltitudeMeters>
            <DistanceMeters>NAN</DistanceMeters>
          </Trackpoint>
          <Trackpoint>
            <Time>2020-05-25T06:12:05.000Z</Time>
            <Position>
              <LatitudeDegrees>38.24716740287840366363525390625</LatitudeDegrees>
              <LongitudeDegrees>-1.186971701681613922119140625</LongitudeDegrees>
            </Position>
            <AltitudeMeters>558.5999755859375</AltitudeMeters>
            <DistanceMeters>NAN</DistanceMeters>
          </Trackpoint>
          <Trackpoint>
            <Time>2020-05-25T06:12:06.000Z</Time>
            <Position>
              <LatitudeDegrees>38.24720864184200763702392578125</LatitudeDegrees>
              <LongitudeDegrees>-1.186991818249225616455078125</LongitudeDegrees>
            </Position>
            <AltitudeMeters>558.79998779296875</AltitudeMeters>
            <DistanceMeters>NAN</DistanceMeters>
          </Trackpoint>
          <Trackpoint>
            <Time>2020-05-25T06:12:07.000Z</Time>
            <Position>
              <LatitudeDegrees>38.24724518693983554840087890625</LatitudeDegrees>
              <LongitudeDegrees>-1.187019646167755126953125</LongitudeDegrees>
            </Position>
            <AltitudeMeters>559</AltitudeMeters>
            <DistanceMeters>NAN</DistanceMeters>
          </Trackpoint>
          <Trackpoint>
            <Time>2020-05-25T06:12:08.000Z</Time>
            <Position>
              <LatitudeDegrees>38.24727754108607769012451171875</LatitudeDegrees>
              <LongitudeDegrees>-1.18705426342785358428955078125</LongitudeDegrees>
            </Position>
            <AltitudeMeters>559.20001220703125</AltitudeMeters>
            <DistanceMeters>NAN</DistanceMeters>
          </Trackpoint>
          <Trackpoint>
            <Time>2020-05-25T06:12:09.000Z</Time>
            <Position>
              <LatitudeDegrees>38.24730721302330493927001953125</LatitudeDegrees>
              <LongitudeDegrees>-1.18709332309663295745849609375</LongitudeDegrees>
            </Position>
            <AltitudeMeters>559.5999755859375</AltitudeMeters>
            <DistanceMeters>NAN</DistanceMeters>
          </Trackpoint>
          <Trackpoint>
            <Time>2020-05-25T06:12:10.000Z</Time>
            <Position>
              <LatitudeDegrees>38.24733470566570758819580078125</LatitudeDegrees>
              <LongitudeDegrees>-1.18713322095572948455810546875</LongitudeDegrees>
            </Position>
            <AltitudeMeters>559.79998779296875</AltitudeMeters>
            <DistanceMeters>NAN</DistanceMeters>
          </Trackpoint>
          <Trackpoint>
            <Time>2020-05-25T06:12:11.000Z</Time>
            <Position>
              <LatitudeDegrees>38.24736052192747592926025390625</LatitudeDegrees>
              <LongitudeDegrees>-1.1871757172048091888427734375</LongitudeDegrees>
            </Position>
            <AltitudeMeters>559.79998779296875</AltitudeMeters>
            <DistanceMeters>NAN</DistanceMeters>
          </Trackpoint>
          <Trackpoint>
            <Time>2020-05-25T06:12:12.000Z</Time>
            <Position>
              <LatitudeDegrees>38.2474122382700443267822265625</LatitudeDegrees>
              <LongitudeDegrees>-1.18725928477942943572998046875</LongitudeDegrees>
            </Position>
            <AltitudeMeters>560.20001220703125</AltitudeMeters>
            <DistanceMeters>NAN</DistanceMeters>
          </Trackpoint>
          <Trackpoint>
            <Time>2020-05-25T06:12:13.000Z</Time>
            <Position>
              <LatitudeDegrees>38.2474122382700443267822265625</LatitudeDegrees>
              <LongitudeDegrees>-1.18725928477942943572998046875</LongitudeDegrees>
            </Position>
            <AltitudeMeters>560.4000244140625</AltitudeMeters>
            <DistanceMeters>NAN</DistanceMeters>
          </Trackpoint>
          <Trackpoint>
            <Time>2020-05-25T06:12:14.000Z</Time>
            <Position>
              <LatitudeDegrees>38.24744065292179584503173828125</LatitudeDegrees>
              <LongitudeDegrees>-1.1872945725917816162109375</LongitudeDegrees>
            </Position>
            <AltitudeMeters>560.5999755859375</AltitudeMeters>
            <DistanceMeters>NAN</DistanceMeters>
          </Trackpoint>
          <Trackpoint>
            <Time>2020-05-25T06:12:15.000Z</Time>
            <Position>
              <LatitudeDegrees>38.24746814556419849395751953125</LatitudeDegrees>
              <LongitudeDegrees>-1.18732851929962635040283203125</LongitudeDegrees>
            </Position>
            <AltitudeMeters>560.5999755859375</AltitudeMeters>
            <DistanceMeters>NAN</DistanceMeters>
          </Trackpoint>
          <Trackpoint>
            <Time>2020-05-25T06:12:16.000Z</Time>
            <Position>
              <LatitudeDegrees>38.24749647639691829681396484375</LatitudeDegrees>
              <LongitudeDegrees>-1.18736187927424907684326171875</LongitudeDegrees>
            </Position>
            <AltitudeMeters>560.5999755859375</AltitudeMeters>
            <DistanceMeters>NAN</DistanceMeters>
          </Trackpoint>
          <Trackpoint>
            <Time>2020-05-25T06:12:17.000Z</Time>
            <Position>
              <LatitudeDegrees>38.24752581305801868438720703125</LatitudeDegrees>
              <LongitudeDegrees>-1.18739088065922260284423828125</LongitudeDegrees>
            </Position>
            <AltitudeMeters>560.79998779296875</AltitudeMeters>
            <DistanceMeters>NAN</DistanceMeters>
          </Trackpoint>
          <Trackpoint>
            <Time>2020-05-25T06:12:18.000Z</Time>
            <Position>
              <LatitudeDegrees>38.24755665846168994903564453125</LatitudeDegrees>
              <LongitudeDegrees>-1.187412925064563751220703125</LongitudeDegrees>
            </Position>
            <AltitudeMeters>560.79998779296875</AltitudeMeters>
            <DistanceMeters>NAN</DistanceMeters>
          </Trackpoint>
          <Trackpoint>
            <Time>2020-05-25T06:12:19.000Z</Time>
            <Position>
              <LatitudeDegrees>38.24758800677955150604248046875</LatitudeDegrees>
              <LongitudeDegrees>-1.18742759339511394500732421875</LongitudeDegrees>
            </Position>
            <AltitudeMeters>561</AltitudeMeters>
            <DistanceMeters>NAN</DistanceMeters>
          </Trackpoint>
          <Trackpoint>
            <Time>2020-05-25T06:12:20.000Z</Time>
            <Position>
              <LatitudeDegrees>38.24764668010175228118896484375</LatitudeDegrees>
              <LongitudeDegrees>-1.18743748404085636138916015625</LongitudeDegrees>
            </Position>
            <AltitudeMeters>561.20001220703125</AltitudeMeters>
            <DistanceMeters>NAN</DistanceMeters>
          </Trackpoint>
          <Trackpoint>
            <Time>2020-05-25T06:12:21.000Z</Time>
            <Position>
              <LatitudeDegrees>38.24764668010175228118896484375</LatitudeDegrees>
              <LongitudeDegrees>-1.18743748404085636138916015625</LongitudeDegrees>
            </Position>
            <AltitudeMeters>561.4000244140625</AltitudeMeters>
            <DistanceMeters>NAN</DistanceMeters>
          </Trackpoint>
          <Trackpoint>
            <Time>2020-05-25T06:12:22.000Z</Time>
            <Position>
              <LatitudeDegrees>38.2476740889251232147216796875</LatitudeDegrees>
              <LongitudeDegrees>-1.18743362836539745330810546875</LongitudeDegrees>
            </Position>
            <AltitudeMeters>561.5999755859375</AltitudeMeters>
            <DistanceMeters>NAN</DistanceMeters>
          </Trackpoint>
          <Trackpoint>
            <Time>2020-05-25T06:12:23.000Z</Time>
            <Position>
              <LatitudeDegrees>38.24770116247236728668212890625</LatitudeDegrees>
              <LongitudeDegrees>-1.18742608465254306793212890625</LongitudeDegrees>
            </Position>
            <AltitudeMeters>561.5999755859375</AltitudeMeters>
            <DistanceMeters>NAN</DistanceMeters>
          </Trackpoint>
          <Trackpoint>
            <Time>2020-05-25T06:12:24.000Z</Time>
            <Position>
              <LatitudeDegrees>38.247727565467357635498046875</LatitudeDegrees>
              <LongitudeDegrees>-1.18741468526422977447509765625</LongitudeDegrees>
            </Position>
            <AltitudeMeters>562</AltitudeMeters>
            <DistanceMeters>NAN</DistanceMeters>
          </Trackpoint>
          <Trackpoint>
            <Time>2020-05-25T06:12:25.000Z</Time>
            <Position>
              <LatitudeDegrees>38.24775061570107936859130859375</LatitudeDegrees>
              <LongitudeDegrees>-1.18739792145788669586181640625</LongitudeDegrees>
            </Position>
            <AltitudeMeters>562.20001220703125</AltitudeMeters>
            <DistanceMeters>NAN</DistanceMeters>
          </Trackpoint>
          <Trackpoint>
            <Time>2020-05-25T06:12:26.000Z</Time>
            <Position>
              <LatitudeDegrees>38.24777039699256420135498046875</LatitudeDegrees>
              <LongitudeDegrees>-1.1873758770525455474853515625</LongitudeDegrees>
            </Position>
            <AltitudeMeters>562.4000244140625</AltitudeMeters>
            <DistanceMeters>NAN</DistanceMeters>
          </Trackpoint>
          <Trackpoint>
            <Time>2020-05-25T06:12:27.000Z</Time>
            <Position>
              <LatitudeDegrees>38.2477867417037487030029296875</LatitudeDegrees>
              <LongitudeDegrees>-1.18734947405755519866943359375</LongitudeDegrees>
            </Position>
            <AltitudeMeters>562.4000244140625</AltitudeMeters>
            <DistanceMeters>NAN</DistanceMeters>
          </Trackpoint>
          <Trackpoint>
            <Time>2020-05-25T06:12:28.000Z</Time>
            <Position>
              <LatitudeDegrees>38.24779822491109371185302734375</LatitudeDegrees>
              <LongitudeDegrees>-1.18731879629194736480712890625</LongitudeDegrees>
            </Position>
            <AltitudeMeters>562.5999755859375</AltitudeMeters>
            <DistanceMeters>NAN</DistanceMeters>
          </Trackpoint>
          <Trackpoint>
            <Time>2020-05-25T06:12:29.000Z</Time>
            <Position>
              <LatitudeDegrees>38.24780560098588466644287109375</LatitudeDegrees>
              <LongitudeDegrees>-1.1872856877744197845458984375</LongitudeDegrees>
            </Position>
            <AltitudeMeters>562.79998779296875</AltitudeMeters>
            <DistanceMeters>NAN</DistanceMeters>
          </Trackpoint>
          <Trackpoint>
            <Time>2020-05-25T06:12:30.000Z</Time>
            <Position>
              <LatitudeDegrees>38.247820436954498291015625</LatitudeDegrees>
              <LongitudeDegrees>-1.1872005276381969451904296875</LongitudeDegrees>
            </Position>
            <AltitudeMeters>563</AltitudeMeters>
            <DistanceMeters>NAN</DistanceMeters>
          </Trackpoint>
          <Trackpoint>
            <Time>2020-05-25T06:12:31.000Z</Time>
            <Position>
              <LatitudeDegrees>38.247820436954498291015625</LatitudeDegrees>
              <LongitudeDegrees>-1.1872005276381969451904296875</LongitudeDegrees>
            </Position>
            <AltitudeMeters>563.20001220703125</AltitudeMeters>
            <DistanceMeters>NAN</DistanceMeters>
          </Trackpoint>
          <Trackpoint>
            <Time>2020-05-25T06:12:32.000Z</Time>
            <Position>
              <LatitudeDegrees>38.2478296570479869842529296875</LatitudeDegrees>
              <LongitudeDegrees>-1.187116205692291259765625</LongitudeDegrees>
            </Position>
            <AltitudeMeters>563.4000244140625</AltitudeMeters>
            <DistanceMeters>NAN</DistanceMeters>
          </Trackpoint>
          <Trackpoint>
            <Time>2020-05-25T06:12:33.000Z</Time>
            <Position>
              <LatitudeDegrees>38.2478296570479869842529296875</LatitudeDegrees>
              <LongitudeDegrees>-1.187116205692291259765625</LongitudeDegrees>
            </Position>
            <AltitudeMeters>563.5999755859375</AltitudeMeters>
            <DistanceMeters>NAN</DistanceMeters>
          </Trackpoint>
          <Trackpoint>
            <Time>2020-05-25T06:12:34.000Z</Time>
            <Position>
              <LatitudeDegrees>38.24783342890441417694091796875</LatitudeDegrees>
              <LongitudeDegrees>-1.18707387708127498626708984375</LongitudeDegrees>
            </Position>
            <AltitudeMeters>563.79998779296875</AltitudeMeters>
            <DistanceMeters>NAN</DistanceMeters>
          </Trackpoint>
          <Trackpoint>
            <Time>2020-05-25T06:12:35.000Z</Time>
            <Position>
              <LatitudeDegrees>38.2478380389511585235595703125</LatitudeDegrees>
              <LongitudeDegrees>-1.18703129701316356658935546875</LongitudeDegrees>
            </Position>
            <AltitudeMeters>564</AltitudeMeters>
            <DistanceMeters>NAN</DistanceMeters>
          </Trackpoint>
          <Trackpoint>
            <Time>2020-05-25T06:12:36.000Z</Time>
            <Position>
              <LatitudeDegrees>38.24785136617720127105712890625</LatitudeDegrees>
              <LongitudeDegrees>-1.1869480647146701812744140625</LongitudeDegrees>
            </Position>
            <AltitudeMeters>564.20001220703125</AltitudeMeters>
            <DistanceMeters>NAN</DistanceMeters>
          </Trackpoint>
          <Trackpoint>
            <Time>2020-05-25T06:12:37.000Z</Time>
            <Position>
              <LatitudeDegrees>38.24785136617720127105712890625</LatitudeDegrees>
              <LongitudeDegrees>-1.1869480647146701812744140625</LongitudeDegrees>
            </Position>
            <AltitudeMeters>564.4000244140625</AltitudeMeters>
            <DistanceMeters>NAN</DistanceMeters>
          </Trackpoint>
          <Trackpoint>
            <Time>2020-05-25T06:12:38.000Z</Time>
            <Position>
              <LatitudeDegrees>38.24787139892578125</LatitudeDegrees>
              <LongitudeDegrees>-1.18686567060649394989013671875</LongitudeDegrees>
            </Position>
            <AltitudeMeters>564.5999755859375</AltitudeMeters>
            <DistanceMeters>NAN</DistanceMeters>
          </Trackpoint>
          <Trackpoint>
            <Time>2020-05-25T06:12:39.000Z</Time>
            <Position>
              <LatitudeDegrees>38.24787139892578125</LatitudeDegrees>
              <LongitudeDegrees>-1.18686567060649394989013671875</LongitudeDegrees>
            </Position>
            <AltitudeMeters>564.79998779296875</AltitudeMeters>
            <DistanceMeters>NAN</DistanceMeters>
          </Trackpoint>
          <Trackpoint>
            <Time>2020-05-25T06:12:40.000Z</Time>
            <Position>
              <LatitudeDegrees>38.24788271449506282806396484375</LatitudeDegrees>
              <LongitudeDegrees>-1.18682292290031909942626953125</LongitudeDegrees>
            </Position>
            <AltitudeMeters>565.20001220703125</AltitudeMeters>
            <DistanceMeters>NAN</DistanceMeters>
          </Trackpoint>
          <Trackpoint>
            <Time>2020-05-25T06:12:41.000Z</Time>
            <Position>
              <LatitudeDegrees>38.24789511971175670623779296875</LatitudeDegrees>
              <LongitudeDegrees>-1.186781935393810272216796875</LongitudeDegrees>
            </Position>
            <AltitudeMeters>565.5999755859375</AltitudeMeters>
            <DistanceMeters>NAN</DistanceMeters>
          </Trackpoint>
          <Trackpoint>
            <Time>2020-05-25T06:12:42.000Z</Time>
            <Position>
              <LatitudeDegrees>38.24790953658521175384521484375</LatitudeDegrees>
              <LongitudeDegrees>-1.18674295954406261444091796875</LongitudeDegrees>
            </Position>
            <AltitudeMeters>565.79998779296875</AltitudeMeters>
            <DistanceMeters>NAN</DistanceMeters>
          </Trackpoint>
          <Trackpoint>
            <Time>2020-05-25T06:12:43.000Z</Time>
            <Position>
              <LatitudeDegrees>38.24792462401092052459716796875</LatitudeDegrees>
              <LongitudeDegrees>-1.1867056600749492645263671875</LongitudeDegrees>
            </Position>
            <AltitudeMeters>566</AltitudeMeters>
            <DistanceMeters>NAN</DistanceMeters>
          </Trackpoint>
          <Trackpoint>
            <Time>2020-05-25T06:12:44.000Z</Time>
            <Position>
              <LatitudeDegrees>38.24793971143662929534912109375</LatitudeDegrees>
              <LongitudeDegrees>-1.18666970171034336090087890625</LongitudeDegrees>
            </Position>
            <AltitudeMeters>566.4000244140625</AltitudeMeters>
            <DistanceMeters>NAN</DistanceMeters>
          </Trackpoint>
          <Trackpoint>
            <Time>2020-05-25T06:12:45.000Z</Time>
            <Position>
              <LatitudeDegrees>38.2479543797671794891357421875</LatitudeDegrees>
              <LongitudeDegrees>-1.186634413897991180419921875</LongitudeDegrees>
            </Position>
            <AltitudeMeters>566.5999755859375</AltitudeMeters>
            <DistanceMeters>NAN</DistanceMeters>
          </Trackpoint>
          <Trackpoint>
            <Time>2020-05-25T06:12:46.000Z</Time>
            <Position>
              <LatitudeDegrees>38.24796862900257110595703125</LatitudeDegrees>
              <LongitudeDegrees>-1.1865990422666072845458984375</LongitudeDegrees>
            </Position>
            <AltitudeMeters>566.79998779296875</AltitudeMeters>
            <DistanceMeters>NAN</DistanceMeters>
          </Trackpoint>
          <Trackpoint>
            <Time>2020-05-25T06:12:47.000Z</Time>
            <Position>
              <LatitudeDegrees>38.2479838840663433074951171875</LatitudeDegrees>
              <LongitudeDegrees>-1.186563335359096527099609375</LongitudeDegrees>
            </Position>
            <AltitudeMeters>566.79998779296875</AltitudeMeters>
            <DistanceMeters>NAN</DistanceMeters>
          </Trackpoint>
          <Trackpoint>
            <Time>2020-05-25T06:12:48.000Z</Time>
            <Position>
              <LatitudeDegrees>38.24800123460590839385986328125</LatitudeDegrees>
              <LongitudeDegrees>-1.18652737699449062347412109375</LongitudeDegrees>
            </Position>
            <AltitudeMeters>567.20001220703125</AltitudeMeters>
            <DistanceMeters>NAN</DistanceMeters>
          </Trackpoint>
          <Trackpoint>
            <Time>2020-05-25T06:12:49.000Z</Time>
            <Position>
              <LatitudeDegrees>38.24802034534513950347900390625</LatitudeDegrees>
              <LongitudeDegrees>-1.186493597924709320068359375</LongitudeDegrees>
            </Position>
            <AltitudeMeters>567.4000244140625</AltitudeMeters>
            <DistanceMeters>NAN</DistanceMeters>
          </Trackpoint>
          <Trackpoint>
            <Time>2020-05-25T06:12:50.000Z</Time>
            <Position>
              <LatitudeDegrees>38.24805940501391887664794921875</LatitudeDegrees>
              <LongitudeDegrees>-1.186429224908351898193359375</LongitudeDegrees>
            </Position>
            <AltitudeMeters>567.79998779296875</AltitudeMeters>
            <DistanceMeters>NAN</DistanceMeters>
          </Trackpoint>
          <Trackpoint>
            <Time>2020-05-25T06:12:51.000Z</Time>
            <Position>
              <LatitudeDegrees>38.24805940501391887664794921875</LatitudeDegrees>
              <LongitudeDegrees>-1.186429224908351898193359375</LongitudeDegrees>
            </Position>
            <AltitudeMeters>568</AltitudeMeters>
            <DistanceMeters>NAN</DistanceMeters>
          </Trackpoint>
          <Trackpoint>
            <Time>2020-05-25T06:12:52.000Z</Time>
            <Position>
              <LatitudeDegrees>38.24807985685765743255615234375</LatitudeDegrees>
              <LongitudeDegrees>-1.186397708952426910400390625</LongitudeDegrees>
            </Position>
            <AltitudeMeters>568</AltitudeMeters>
            <DistanceMeters>NAN</DistanceMeters>
          </Trackpoint>
          <Trackpoint>
            <Time>2020-05-25T06:12:53.000Z</Time>
            <Position>
              <LatitudeDegrees>38.248099721968173980712890625</LatitudeDegrees>
              <LongitudeDegrees>-1.1863663606345653533935546875</LongitudeDegrees>
            </Position>
            <AltitudeMeters>568.20001220703125</AltitudeMeters>
            <DistanceMeters>NAN</DistanceMeters>
          </Trackpoint>
          <Trackpoint>
            <Time>2020-05-25T06:12:54.000Z</Time>
            <Position>
              <LatitudeDegrees>38.248120509088039398193359375</LatitudeDegrees>
              <LongitudeDegrees>-1.1863355152308940887451171875</LongitudeDegrees>
            </Position>
            <AltitudeMeters>568.4000244140625</AltitudeMeters>
            <DistanceMeters>NAN</DistanceMeters>
          </Trackpoint>
          <Trackpoint>
            <Time>2020-05-25T06:12:55.000Z</Time>
            <Position>
              <LatitudeDegrees>38.2481397874653339385986328125</LatitudeDegrees>
              <LongitudeDegrees>-1.18630341254174709320068359375</LongitudeDegrees>
            </Position>
            <AltitudeMeters>568.5999755859375</AltitudeMeters>
            <DistanceMeters>NAN</DistanceMeters>
          </Trackpoint>
          <Trackpoint>
            <Time>2020-05-25T06:12:56.000Z</Time>
            <Position>
              <LatitudeDegrees>38.2481562159955501556396484375</LatitudeDegrees>
              <LongitudeDegrees>-1.18627038784325122833251953125</LongitudeDegrees>
            </Position>
            <AltitudeMeters>568.79998779296875</AltitudeMeters>
            <DistanceMeters>NAN</DistanceMeters>
          </Trackpoint>
          <Trackpoint>
            <Time>2020-05-25T06:12:57.000Z</Time>
            <Position>
              <LatitudeDegrees>38.24817406944930553436279296875</LatitudeDegrees>
              <LongitudeDegrees>-1.18623870424926280975341796875</LongitudeDegrees>
            </Position>
            <AltitudeMeters>569</AltitudeMeters>
            <DistanceMeters>NAN</DistanceMeters>
          </Trackpoint>
          <Trackpoint>
            <Time>2020-05-25T06:12:58.000Z</Time>
            <Position>
              <LatitudeDegrees>38.24819083325564861297607421875</LatitudeDegrees>
              <LongitudeDegrees>-1.186203248798847198486328125</LongitudeDegrees>
            </Position>
            <AltitudeMeters>569.20001220703125</AltitudeMeters>
            <DistanceMeters>NAN</DistanceMeters>
          </Trackpoint>
          <Trackpoint>
            <Time>2020-05-25T06:12:59.000Z</Time>
            <Position>
              <LatitudeDegrees>38.248201645910739898681640625</LatitudeDegrees>
              <LongitudeDegrees>-1.1861665360629558563232421875</LongitudeDegrees>
            </Position>
            <AltitudeMeters>569.4000244140625</AltitudeMeters>
            <DistanceMeters>NAN</DistanceMeters>
          </Trackpoint>
          <Trackpoint>
            <Time>2020-05-25T06:13:00.000Z</Time>
            <Position>
              <LatitudeDegrees>38.2482053339481353759765625</LatitudeDegrees>
              <LongitudeDegrees>-1.1860875785350799560546875</LongitudeDegrees>
            </Position>
            <AltitudeMeters>569.5999755859375</AltitudeMeters>
            <DistanceMeters>NAN</DistanceMeters>
          </Trackpoint>
          <Trackpoint>
            <Time>2020-05-25T06:13:01.000Z</Time>
            <Position>
              <LatitudeDegrees>38.2482053339481353759765625</LatitudeDegrees>
              <LongitudeDegrees>-1.1860875785350799560546875</LongitudeDegrees>
            </Position>
            <AltitudeMeters>569.79998779296875</AltitudeMeters>
            <DistanceMeters>NAN</DistanceMeters>
          </Trackpoint>
          <Trackpoint>
            <Time>2020-05-25T06:13:02.000Z</Time>
            <Position>
              <LatitudeDegrees>38.24819862842559814453125</LatitudeDegrees>
              <LongitudeDegrees>-1.18604692630469799041748046875</LongitudeDegrees>
            </Position>
            <AltitudeMeters>570</AltitudeMeters>
            <DistanceMeters>NAN</DistanceMeters>
          </Trackpoint>
          <Trackpoint>
            <Time>2020-05-25T06:13:03.000Z</Time>
            <Position>
              <LatitudeDegrees>38.24818513356149196624755859375</LatitudeDegrees>
              <LongitudeDegrees>-1.18600820191204547882080078125</LongitudeDegrees>
            </Position>
            <AltitudeMeters>570.20001220703125</AltitudeMeters>
            <DistanceMeters>NAN</DistanceMeters>
          </Trackpoint>
          <Trackpoint>
            <Time>2020-05-25T06:13:04.000Z</Time>
            <Position>
              <LatitudeDegrees>38.248167447745800018310546875</LatitudeDegrees>
              <LongitudeDegrees>-1.18597283028066158294677734375</LongitudeDegrees>
            </Position>
            <AltitudeMeters>570.4000244140625</AltitudeMeters>
            <DistanceMeters>NAN</DistanceMeters>
          </Trackpoint>
          <Trackpoint>
            <Time>2020-05-25T06:13:05.000Z</Time>
            <Position>
              <LatitudeDegrees>38.248146660625934600830078125</LatitudeDegrees>
              <LongitudeDegrees>-1.18593963794410228729248046875</LongitudeDegrees>
            </Position>
            <AltitudeMeters>570.5999755859375</AltitudeMeters>
            <DistanceMeters>NAN</DistanceMeters>
          </Trackpoint>
          <Trackpoint>
            <Time>2020-05-25T06:13:06.000Z</Time>
            <Position>
              <LatitudeDegrees>38.24812444858253002166748046875</LatitudeDegrees>
              <LongitudeDegrees>-1.185908876359462738037109375</LongitudeDegrees>
            </Position>
            <AltitudeMeters>571</AltitudeMeters>
            <DistanceMeters>NAN</DistanceMeters>
          </Trackpoint>
          <Trackpoint>
            <Time>2020-05-25T06:13:07.000Z</Time>
            <Position>
              <LatitudeDegrees>38.2481015659868717193603515625</LatitudeDegrees>
              <LongitudeDegrees>-1.18588129989802837371826171875</LongitudeDegrees>
            </Position>
            <AltitudeMeters>571.20001220703125</AltitudeMeters>
            <DistanceMeters>NAN</DistanceMeters>
          </Trackpoint>
          <Trackpoint>
            <Time>2020-05-25T06:13:08.000Z</Time>
            <Position>
              <LatitudeDegrees>38.24807784520089626312255859375</LatitudeDegrees>
              <LongitudeDegrees>-1.1858567409217357635498046875</LongitudeDegrees>
            </Position>
            <AltitudeMeters>571.4000244140625</AltitudeMeters>
            <DistanceMeters>NAN</DistanceMeters>
          </Trackpoint>
          <Trackpoint>
            <Time>2020-05-25T06:13:09.000Z</Time>
            <Position>
              <LatitudeDegrees>38.24805521406233310699462890625</LatitudeDegrees>
              <LongitudeDegrees>-1.18583151139318943023681640625</LongitudeDegrees>
            </Position>
            <AltitudeMeters>571.4000244140625</AltitudeMeters>
            <DistanceMeters>NAN</DistanceMeters>
          </Trackpoint>
          <Trackpoint>
            <Time>2020-05-25T06:13:10.000Z</Time>
            <Position>
              <LatitudeDegrees>38.2480336725711822509765625</LatitudeDegrees>
              <LongitudeDegrees>-1.18580435402691364288330078125</LongitudeDegrees>
            </Position>
            <AltitudeMeters>571.5999755859375</AltitudeMeters>
            <DistanceMeters>NAN</DistanceMeters>
          </Trackpoint>
          <Trackpoint>
            <Time>2020-05-25T06:13:11.000Z</Time>
            <Position>
              <LatitudeDegrees>38.24801296927034854888916015625</LatitudeDegrees>
              <LongitudeDegrees>-1.18577568791806697845458984375</LongitudeDegrees>
            </Position>
            <AltitudeMeters>571.5999755859375</AltitudeMeters>
            <DistanceMeters>NAN</DistanceMeters>
          </Trackpoint>
          <Trackpoint>
            <Time>2020-05-25T06:13:12.000Z</Time>
            <Position>
              <LatitudeDegrees>38.2479926012456417083740234375</LatitudeDegrees>
              <LongitudeDegrees>-1.1857467703521251678466796875</LongitudeDegrees>
            </Position>
            <AltitudeMeters>571.79998779296875</AltitudeMeters>
            <DistanceMeters>NAN</DistanceMeters>
          </Trackpoint>
          <Trackpoint>
            <Time>2020-05-25T06:13:13.000Z</Time>
            <Position>
              <LatitudeDegrees>38.247973658144474029541015625</LatitudeDegrees>
              <LongitudeDegrees>-1.18571634404361248016357421875</LongitudeDegrees>
            </Position>
            <AltitudeMeters>572</AltitudeMeters>
            <DistanceMeters>NAN</DistanceMeters>
          </Trackpoint>
          <Trackpoint>
            <Time>2020-05-25T06:13:14.000Z</Time>
            <Position>
              <LatitudeDegrees>38.24795655906200408935546875</LatitudeDegrees>
              <LongitudeDegrees>-1.18568063713610172271728515625</LongitudeDegrees>
            </Position>
            <AltitudeMeters>572.20001220703125</AltitudeMeters>
            <DistanceMeters>NAN</DistanceMeters>
          </Trackpoint>
          <Trackpoint>
            <Time>2020-05-25T06:13:15.000Z</Time>
            <Position>
              <LatitudeDegrees>38.24794323183596134185791015625</LatitudeDegrees>
              <LongitudeDegrees>-1.1856424994766712188720703125</LongitudeDegrees>
            </Position>
            <AltitudeMeters>572.4000244140625</AltitudeMeters>
            <DistanceMeters>NAN</DistanceMeters>
          </Trackpoint>
          <Trackpoint>
            <Time>2020-05-25T06:13:16.000Z</Time>
            <Position>
              <LatitudeDegrees>38.24793384410440921783447265625</LatitudeDegrees>
              <LongitudeDegrees>-1.18560452945530414581298828125</LongitudeDegrees>
            </Position>
            <AltitudeMeters>572.5999755859375</AltitudeMeters>
            <DistanceMeters>NAN</DistanceMeters>
          </Trackpoint>
          <Trackpoint>
            <Time>2020-05-25T06:13:17.000Z</Time>
            <Position>
              <LatitudeDegrees>38.247927725315093994140625</LatitudeDegrees>
              <LongitudeDegrees>-1.185565553605556488037109375</LongitudeDegrees>
            </Position>
            <AltitudeMeters>572.79998779296875</AltitudeMeters>
            <DistanceMeters>NAN</DistanceMeters>
          </Trackpoint>
          <Trackpoint>
            <Time>2020-05-25T06:13:18.000Z</Time>
            <Position>
              <LatitudeDegrees>38.24792395345866680145263671875</LatitudeDegrees>
              <LongitudeDegrees>-1.18553244508802890777587890625</LongitudeDegrees>
            </Position>
            <AltitudeMeters>572.79998779296875</AltitudeMeters>
            <DistanceMeters>NAN</DistanceMeters>
          </Trackpoint>
          <Trackpoint>
            <Time>2020-05-25T06:13:19.000Z</Time>
            <Position>
              <LatitudeDegrees>38.24792194180190563201904296875</LatitudeDegrees>
              <LongitudeDegrees>-1.18550294078886508941650390625</LongitudeDegrees>
            </Position>
            <AltitudeMeters>573.20001220703125</AltitudeMeters>
            <DistanceMeters>NAN</DistanceMeters>
          </Trackpoint>
          <Trackpoint>
            <Time>2020-05-25T06:13:20.000Z</Time>
            <Position>
              <LatitudeDegrees>38.24791691266000270843505859375</LatitudeDegrees>
              <LongitudeDegrees>-1.18545164354145526885986328125</LongitudeDegrees>
            </Position>
            <AltitudeMeters>573.4000244140625</AltitudeMeters>
            <DistanceMeters>NAN</DistanceMeters>
          </Trackpoint>
          <Trackpoint>
            <Time>2020-05-25T06:13:21.000Z</Time>
            <Position>
              <LatitudeDegrees>38.24791691266000270843505859375</LatitudeDegrees>
              <LongitudeDegrees>-1.18545164354145526885986328125</LongitudeDegrees>
            </Position>
            <AltitudeMeters>573.79998779296875</AltitudeMeters>
            <DistanceMeters>NAN</DistanceMeters>
          </Trackpoint>
          <Trackpoint>
            <Time>2020-05-25T06:13:22.000Z</Time>
            <Position>
              <LatitudeDegrees>38.24791657738387584686279296875</LatitudeDegrees>
              <LongitudeDegrees>-1.1854265816509723663330078125</LongitudeDegrees>
            </Position>
            <AltitudeMeters>574</AltitudeMeters>
            <DistanceMeters>NAN</DistanceMeters>
          </Trackpoint>
          <Trackpoint>
            <Time>2020-05-25T06:13:23.000Z</Time>
            <Position>
              <LatitudeDegrees>38.24791708029806613922119140625</LatitudeDegrees>
              <LongitudeDegrees>-1.1854004301130771636962890625</LongitudeDegrees>
            </Position>
            <AltitudeMeters>574.4000244140625</AltitudeMeters>
            <DistanceMeters>NAN</DistanceMeters>
          </Trackpoint>
          <Trackpoint>
            <Time>2020-05-25T06:13:24.000Z</Time>
            <Position>
              <LatitudeDegrees>38.2479235343635082244873046875</LatitudeDegrees>
              <LongitudeDegrees>-1.18537302128970623016357421875</LongitudeDegrees>
            </Position>
            <AltitudeMeters>574.5999755859375</AltitudeMeters>
            <DistanceMeters>NAN</DistanceMeters>
          </Trackpoint>
          <Trackpoint>
            <Time>2020-05-25T06:13:25.000Z</Time>
            <Position>
              <LatitudeDegrees>38.24793518520891666412353515625</LatitudeDegrees>
              <LongitudeDegrees>-1.18534184060990810394287109375</LongitudeDegrees>
            </Position>
            <AltitudeMeters>575</AltitudeMeters>
            <DistanceMeters>NAN</DistanceMeters>
          </Trackpoint>
          <Trackpoint>
            <Time>2020-05-25T06:13:26.000Z</Time>
            <Position>
              <LatitudeDegrees>38.24796192348003387451171875</LatitudeDegrees>
              <LongitudeDegrees>-1.18527612648904323577880859375</LongitudeDegrees>
            </Position>
            <AltitudeMeters>575.20001220703125</AltitudeMeters>
            <DistanceMeters>NAN</DistanceMeters>
          </Trackpoint>
          <Trackpoint>
            <Time>2020-05-25T06:13:27.000Z</Time>
            <Position>
              <LatitudeDegrees>38.24796192348003387451171875</LatitudeDegrees>
              <LongitudeDegrees>-1.18527612648904323577880859375</LongitudeDegrees>
            </Position>
            <AltitudeMeters>575.20001220703125</AltitudeMeters>
            <DistanceMeters>NAN</DistanceMeters>
          </Trackpoint>
          <Trackpoint>
            <Time>2020-05-25T06:13:28.000Z</Time>
            <Position>
              <LatitudeDegrees>38.24797659181058406829833984375</LatitudeDegrees>
              <LongitudeDegrees>-1.18524645455181598663330078125</LongitudeDegrees>
            </Position>
            <AltitudeMeters>575.4000244140625</AltitudeMeters>
            <DistanceMeters>NAN</DistanceMeters>
          </Trackpoint>
          <Trackpoint>
            <Time>2020-05-25T06:13:29.000Z</Time>
            <Position>
              <LatitudeDegrees>38.24799369089305400848388671875</LatitudeDegrees>
              <LongitudeDegrees>-1.1852185428142547607421875</LongitudeDegrees>
            </Position>
            <AltitudeMeters>575.5999755859375</AltitudeMeters>
            <DistanceMeters>NAN</DistanceMeters>
          </Trackpoint>
          <Trackpoint>
            <Time>2020-05-25T06:13:30.000Z</Time>
            <Position>
              <LatitudeDegrees>38.2480324991047382354736328125</LatitudeDegrees>
              <LongitudeDegrees>-1.185171268880367279052734375</LongitudeDegrees>
            </Position>
            <AltitudeMeters>575.79998779296875</AltitudeMeters>
            <DistanceMeters>NAN</DistanceMeters>
          </Trackpoint>
          <Trackpoint>
            <Time>2020-05-25T06:13:31.000Z</Time>
            <Position>
              <LatitudeDegrees>38.2480324991047382354736328125</LatitudeDegrees>
              <LongitudeDegrees>-1.185171268880367279052734375</LongitudeDegrees>
            </Position>
            <AltitudeMeters>575.79998779296875</AltitudeMeters>
            <DistanceMeters>NAN</DistanceMeters>
          </Trackpoint>
          <Trackpoint>
            <Time>2020-05-25T06:13:32.000Z</Time>
            <Position>
              <LatitudeDegrees>38.248072229325771331787109375</LatitudeDegrees>
              <LongitudeDegrees>-1.1851392500102519989013671875</LongitudeDegrees>
            </Position>
            <AltitudeMeters>576</AltitudeMeters>
            <DistanceMeters>NAN</DistanceMeters>
          </Trackpoint>
          <Trackpoint>
            <Time>2020-05-25T06:13:33.000Z</Time>
            <Position>
              <LatitudeDegrees>38.248072229325771331787109375</LatitudeDegrees>
              <LongitudeDegrees>-1.1851392500102519989013671875</LongitudeDegrees>
            </Position>
            <AltitudeMeters>576.20001220703125</AltitudeMeters>
            <DistanceMeters>NAN</DistanceMeters>
          </Trackpoint>
          <Trackpoint>
            <Time>2020-05-25T06:13:34.000Z</Time>
            <Position>
              <LatitudeDegrees>38.2480941899120807647705078125</LatitudeDegrees>
              <LongitudeDegrees>-1.18513162247836589813232421875</LongitudeDegrees>
            </Position>
            <AltitudeMeters>576.4000244140625</AltitudeMeters>
            <DistanceMeters>NAN</DistanceMeters>
          </Trackpoint>
          <Trackpoint>
            <Time>2020-05-25T06:13:35.000Z</Time>
            <Position>
              <LatitudeDegrees>38.24812151491641998291015625</LatitudeDegrees>
              <LongitudeDegrees>-1.18513095192611217498779296875</LongitudeDegrees>
            </Position>
            <AltitudeMeters>576.5999755859375</AltitudeMeters>
            <DistanceMeters>NAN</DistanceMeters>
          </Trackpoint>
          <Trackpoint>
            <Time>2020-05-25T06:13:36.000Z</Time>
            <Position>
              <LatitudeDegrees>38.2481518574059009552001953125</LatitudeDegrees>
              <LongitudeDegrees>-1.185131706297397613525390625</LongitudeDegrees>
            </Position>
            <AltitudeMeters>576.5999755859375</AltitudeMeters>
            <DistanceMeters>NAN</DistanceMeters>
          </Trackpoint>
          <Trackpoint>
            <Time>2020-05-25T06:13:37.000Z</Time>
            <Position>
              <LatitudeDegrees>38.24818412773311138153076171875</LatitudeDegrees>
              <LongitudeDegrees>-1.18513212539255619049072265625</LongitudeDegrees>
            </Position>
            <AltitudeMeters>576.79998779296875</AltitudeMeters>
            <DistanceMeters>NAN</DistanceMeters>
          </Trackpoint>
          <Trackpoint>
            <Time>2020-05-25T06:13:38.000Z</Time>
            <Position>
              <LatitudeDegrees>38.24821832589805126190185546875</LatitudeDegrees>
              <LongitudeDegrees>-1.18513380177319049835205078125</LongitudeDegrees>
            </Position>
            <AltitudeMeters>576.79998779296875</AltitudeMeters>
            <DistanceMeters>NAN</DistanceMeters>
          </Trackpoint>
          <Trackpoint>
            <Time>2020-05-25T06:13:39.000Z</Time>
            <Position>
              <LatitudeDegrees>38.2482531107962131500244140625</LatitudeDegrees>
              <LongitudeDegrees>-1.18513598106801509857177734375</LongitudeDegrees>
            </Position>
            <AltitudeMeters>576.79998779296875</AltitudeMeters>
            <DistanceMeters>NAN</DistanceMeters>
          </Trackpoint>
          <Trackpoint>
            <Time>2020-05-25T06:13:40.000Z</Time>
            <Position>
              <LatitudeDegrees>38.24828839860856533050537109375</LatitudeDegrees>
              <LongitudeDegrees>-1.18513883091509342193603515625</LongitudeDegrees>
            </Position>
            <AltitudeMeters>576.79998779296875</AltitudeMeters>
            <DistanceMeters>NAN</DistanceMeters>
          </Trackpoint>
          <Trackpoint>
            <Time>2020-05-25T06:13:41.000Z</Time>
            <Position>
              <LatitudeDegrees>38.24832712300121784210205078125</LatitudeDegrees>
              <LongitudeDegrees>-1.18514084257185459136962890625</LongitudeDegrees>
            </Position>
            <AltitudeMeters>576.79998779296875</AltitudeMeters>
            <DistanceMeters>NAN</DistanceMeters>
          </Trackpoint>
          <Trackpoint>
            <Time>2020-05-25T06:13:42.000Z</Time>
            <Position>
              <LatitudeDegrees>38.24840004555881023406982421875</LatitudeDegrees>
              <LongitudeDegrees>-1.18514620698988437652587890625</LongitudeDegrees>
            </Position>
            <AltitudeMeters>576.79998779296875</AltitudeMeters>
            <DistanceMeters>NAN</DistanceMeters>
          </Trackpoint>
          <Trackpoint>
            <Time>2020-05-25T06:13:43.000Z</Time>
            <Position>
              <LatitudeDegrees>38.24840004555881023406982421875</LatitudeDegrees>
              <LongitudeDegrees>-1.18514620698988437652587890625</LongitudeDegrees>
            </Position>
            <AltitudeMeters>576.79998779296875</AltitudeMeters>
            <DistanceMeters>NAN</DistanceMeters>
          </Trackpoint>
          <Trackpoint>
            <Time>2020-05-25T06:13:44.000Z</Time>
            <Position>
              <LatitudeDegrees>38.24843533337116241455078125</LatitudeDegrees>
              <LongitudeDegrees>-1.18514939211308956146240234375</LongitudeDegrees>
            </Position>
            <AltitudeMeters>576.79998779296875</AltitudeMeters>
            <DistanceMeters>NAN</DistanceMeters>
          </Trackpoint>
          <Trackpoint>
            <Time>2020-05-25T06:13:45.000Z</Time>
            <Position>
              <LatitudeDegrees>38.2484703697264194488525390625</LatitudeDegrees>
              <LongitudeDegrees>-1.185152828693389892578125</LongitudeDegrees>
            </Position>
            <AltitudeMeters>577</AltitudeMeters>
            <DistanceMeters>NAN</DistanceMeters>
          </Trackpoint>
          <Trackpoint>
            <Time>2020-05-25T06:13:46.000Z</Time>
            <Position>
              <LatitudeDegrees>38.24850683100521564483642578125</LatitudeDegrees>
              <LongitudeDegrees>-1.1851526610553264617919921875</LongitudeDegrees>
            </Position>
            <AltitudeMeters>577</AltitudeMeters>
            <DistanceMeters>NAN</DistanceMeters>
          </Trackpoint>
          <Trackpoint>
            <Time>2020-05-25T06:13:47.000Z</Time>
            <Position>
              <LatitudeDegrees>38.24854270555078983306884765625</LatitudeDegrees>
              <LongitudeDegrees>-1.185152828693389892578125</LongitudeDegrees>
            </Position>
            <AltitudeMeters>577</AltitudeMeters>
            <DistanceMeters>NAN</DistanceMeters>
          </Trackpoint>
          <Trackpoint>
            <Time>2020-05-25T06:13:48.000Z</Time>
            <Position>
              <LatitudeDegrees>38.24861445464193820953369140625</LatitudeDegrees>
              <LongitudeDegrees>-1.18515308015048503875732421875</LongitudeDegrees>
            </Position>
            <AltitudeMeters>577</AltitudeMeters>
            <DistanceMeters>NAN</DistanceMeters>
          </Trackpoint>
          <Trackpoint>
            <Time>2020-05-25T06:13:49.000Z</Time>
            <Position>
              <LatitudeDegrees>38.24861445464193820953369140625</LatitudeDegrees>
              <LongitudeDegrees>-1.18515308015048503875732421875</LongitudeDegrees>
            </Position>
            <AltitudeMeters>577</AltitudeMeters>
            <DistanceMeters>NAN</DistanceMeters>
          </Trackpoint>
          <Trackpoint>
            <Time>2020-05-25T06:13:50.000Z</Time>
            <Position>
              <LatitudeDegrees>38.24868318624794483184814453125</LatitudeDegrees>
              <LongitudeDegrees>-1.18515425361692905426025390625</LongitudeDegrees>
            </Position>
            <AltitudeMeters>577</AltitudeMeters>
            <DistanceMeters>NAN</DistanceMeters>
          </Trackpoint>
          <Trackpoint>
            <Time>2020-05-25T06:13:51.000Z</Time>
            <Position>
              <LatitudeDegrees>38.24868318624794483184814453125</LatitudeDegrees>
              <LongitudeDegrees>-1.18515425361692905426025390625</LongitudeDegrees>
            </Position>
            <AltitudeMeters>577</AltitudeMeters>
            <DistanceMeters>NAN</DistanceMeters>
          </Trackpoint>
          <Trackpoint>
            <Time>2020-05-25T06:13:52.000Z</Time>
            <Position>
              <LatitudeDegrees>38.2487164624035358428955078125</LatitudeDegrees>
              <LongitudeDegrees>-1.18515618145465850830078125</LongitudeDegrees>
            </Position>
            <AltitudeMeters>577</AltitudeMeters>
            <DistanceMeters>NAN</DistanceMeters>
          </Trackpoint>
          <Trackpoint>
            <Time>2020-05-25T06:13:53.000Z</Time>
            <Position>
              <LatitudeDegrees>38.24874839745461940765380859375</LatitudeDegrees>
              <LongitudeDegrees>-1.18515777401626110076904296875</LongitudeDegrees>
            </Position>
            <AltitudeMeters>577.20001220703125</AltitudeMeters>
            <DistanceMeters>NAN</DistanceMeters>
          </Trackpoint>
          <Trackpoint>
            <Time>2020-05-25T06:13:54.000Z</Time>
            <Position>
              <LatitudeDegrees>38.24877907522022724151611328125</LatitudeDegrees>
              <LongitudeDegrees>-1.18515945039689540863037109375</LongitudeDegrees>
            </Position>
            <AltitudeMeters>577.20001220703125</AltitudeMeters>
            <DistanceMeters>NAN</DistanceMeters>
          </Trackpoint>
          <Trackpoint>
            <Time>2020-05-25T06:13:55.000Z</Time>
            <Position>
              <LatitudeDegrees>38.24880816042423248291015625</LatitudeDegrees>
              <LongitudeDegrees>-1.1851623840630054473876953125</LongitudeDegrees>
            </Position>
            <AltitudeMeters>577.20001220703125</AltitudeMeters>
            <DistanceMeters>NAN</DistanceMeters>
          </Trackpoint>
          <Trackpoint>
            <Time>2020-05-25T06:13:56.000Z</Time>
            <Position>
              <LatitudeDegrees>38.24883556924760341644287109375</LatitudeDegrees>
              <LongitudeDegrees>-1.1851687543094158172607421875</LongitudeDegrees>
            </Position>
            <AltitudeMeters>577.4000244140625</AltitudeMeters>
            <DistanceMeters>NAN</DistanceMeters>
          </Trackpoint>
          <Trackpoint>
            <Time>2020-05-25T06:13:57.000Z</Time>
            <Position>
              <LatitudeDegrees>38.24886180460453033447265625</LatitudeDegrees>
              <LongitudeDegrees>-1.18517252616584300994873046875</LongitudeDegrees>
            </Position>
            <AltitudeMeters>577.5999755859375</AltitudeMeters>
            <DistanceMeters>NAN</DistanceMeters>
          </Trackpoint>
          <Trackpoint>
            <Time>2020-05-25T06:13:58.000Z</Time>
            <Position>
              <LatitudeDegrees>38.2488874532282352447509765625</LatitudeDegrees>
              <LongitudeDegrees>-1.18517654947936534881591796875</LongitudeDegrees>
            </Position>
            <AltitudeMeters>577.79998779296875</AltitudeMeters>
            <DistanceMeters>NAN</DistanceMeters>
          </Trackpoint>
          <Trackpoint>
            <Time>2020-05-25T06:13:59.000Z</Time>
            <Position>
              <LatitudeDegrees>38.2489142753183841705322265625</LatitudeDegrees>
              <LongitudeDegrees>-1.1851841770112514495849609375</LongitudeDegrees>
            </Position>
            <AltitudeMeters>578</AltitudeMeters>
            <DistanceMeters>NAN</DistanceMeters>
          </Trackpoint>
          <Trackpoint>
            <Time>2020-05-25T06:14:00.000Z</Time>
            <Position>
              <LatitudeDegrees>38.2489431090652942657470703125</LatitudeDegrees>
              <LongitudeDegrees>-1.18519314564764499664306640625</LongitudeDegrees>
            </Position>
            <AltitudeMeters>578.20001220703125</AltitudeMeters>
            <DistanceMeters>NAN</DistanceMeters>
          </Trackpoint>
          <Trackpoint>
            <Time>2020-05-25T06:14:01.000Z</Time>
            <Position>
              <LatitudeDegrees>38.24897286482155323028564453125</LatitudeDegrees>
              <LongitudeDegrees>-1.1852026171982288360595703125</LongitudeDegrees>
            </Position>
            <AltitudeMeters>578.4000244140625</AltitudeMeters>
            <DistanceMeters>NAN</DistanceMeters>
          </Trackpoint>
          <Trackpoint>
            <Time>2020-05-25T06:14:02.000Z</Time>
            <Position>
              <LatitudeDegrees>38.24903707019984722137451171875</LatitudeDegrees>
              <LongitudeDegrees>-1.18522566743195056915283203125</LongitudeDegrees>
            </Position>
            <AltitudeMeters>578.5999755859375</AltitudeMeters>
            <DistanceMeters>NAN</DistanceMeters>
          </Trackpoint>
          <Trackpoint>
            <Time>2020-05-25T06:14:03.000Z</Time>
            <Position>
              <LatitudeDegrees>38.24903707019984722137451171875</LatitudeDegrees>
              <LongitudeDegrees>-1.18522566743195056915283203125</LongitudeDegrees>
            </Position>
            <AltitudeMeters>578.79998779296875</AltitudeMeters>
            <DistanceMeters>NAN</DistanceMeters>
          </Trackpoint>
          <Trackpoint>
            <Time>2020-05-25T06:14:04.000Z</Time>
            <Position>
              <LatitudeDegrees>38.24906942434608936309814453125</LatitudeDegrees>
              <LongitudeDegrees>-1.18523505516350269317626953125</LongitudeDegrees>
            </Position>
            <AltitudeMeters>579</AltitudeMeters>
            <DistanceMeters>NAN</DistanceMeters>
          </Trackpoint>
          <Trackpoint>
            <Time>2020-05-25T06:14:05.000Z</Time>
            <Position>
              <LatitudeDegrees>38.24910144321620464324951171875</LatitudeDegrees>
              <LongitudeDegrees>-1.18524192832410335540771484375</LongitudeDegrees>
            </Position>
            <AltitudeMeters>579.20001220703125</AltitudeMeters>
            <DistanceMeters>NAN</DistanceMeters>
          </Trackpoint>
          <Trackpoint>
            <Time>2020-05-25T06:14:06.000Z</Time>
            <Position>
              <LatitudeDegrees>38.2491318695247173309326171875</LatitudeDegrees>
              <LongitudeDegrees>-1.185245029628276824951171875</LongitudeDegrees>
            </Position>
            <AltitudeMeters>579.4000244140625</AltitudeMeters>
            <DistanceMeters>NAN</DistanceMeters>
          </Trackpoint>
          <Trackpoint>
            <Time>2020-05-25T06:14:07.000Z</Time>
            <Position>
              <LatitudeDegrees>38.24916078709065914154052734375</LatitudeDegrees>
              <LongitudeDegrees>-1.1852465383708477020263671875</LongitudeDegrees>
            </Position>
            <AltitudeMeters>579.4000244140625</AltitudeMeters>
            <DistanceMeters>NAN</DistanceMeters>
          </Trackpoint>
          <Trackpoint>
            <Time>2020-05-25T06:14:08.000Z</Time>
            <Position>
              <LatitudeDegrees>38.2491898722946643829345703125</LatitudeDegrees>
              <LongitudeDegrees>-1.18524544872343540191650390625</LongitudeDegrees>
            </Position>
            <AltitudeMeters>579.5999755859375</AltitudeMeters>
            <DistanceMeters>NAN</DistanceMeters>
          </Trackpoint>
          <Trackpoint>
            <Time>2020-05-25T06:14:09.000Z</Time>
            <Position>
              <LatitudeDegrees>38.24923521839082241058349609375</LatitudeDegrees>
              <LongitudeDegrees>-1.1852287687361240386962890625</LongitudeDegrees>
            </Position>
            <AltitudeMeters>579.79998779296875</AltitudeMeters>
            <DistanceMeters>NAN</DistanceMeters>
          </Trackpoint>
          <Trackpoint>
            <Time>2020-05-25T06:14:10.000Z</Time>
            <Position>
              <LatitudeDegrees>38.24923521839082241058349609375</LatitudeDegrees>
              <LongitudeDegrees>-1.1852287687361240386962890625</LongitudeDegrees>
            </Position>
            <AltitudeMeters>580</AltitudeMeters>
            <DistanceMeters>NAN</DistanceMeters>
          </Trackpoint>
          <Trackpoint>
            <Time>2020-05-25T06:14:11.000Z</Time>
            <Position>
              <LatitudeDegrees>38.24925650842487812042236328125</LatitudeDegrees>
              <LongitudeDegrees>-1.18521862663328647613525390625</LongitudeDegrees>
            </Position>
            <AltitudeMeters>580.20001220703125</AltitudeMeters>
            <DistanceMeters>NAN</DistanceMeters>
          </Trackpoint>
          <Trackpoint>
            <Time>2020-05-25T06:14:12.000Z</Time>
            <Position>
              <LatitudeDegrees>38.24929087422788143157958984375</LatitudeDegrees>
              <LongitudeDegrees>-1.18520236574113368988037109375</LongitudeDegrees>
            </Position>
            <AltitudeMeters>580.4000244140625</AltitudeMeters>
            <DistanceMeters>NAN</DistanceMeters>
          </Trackpoint>
          <Trackpoint>
            <Time>2020-05-25T06:14:13.000Z</Time>
            <Position>
              <LatitudeDegrees>38.24929087422788143157958984375</LatitudeDegrees>
              <LongitudeDegrees>-1.18520236574113368988037109375</LongitudeDegrees>
            </Position>
            <AltitudeMeters>580.4000244140625</AltitudeMeters>
            <DistanceMeters>NAN</DistanceMeters>
          </Trackpoint>
          <Trackpoint>
            <Time>2020-05-25T06:14:14.000Z</Time>
            <Position>
              <LatitudeDegrees>38.2493104040622711181640625</LatitudeDegrees>
              <LongitudeDegrees>-1.1852066405117511749267578125</LongitudeDegrees>
            </Position>
            <AltitudeMeters>580.5999755859375</AltitudeMeters>
            <DistanceMeters>NAN</DistanceMeters>
          </Trackpoint>
          <Trackpoint>
            <Time>2020-05-25T06:14:15.000Z</Time>
            <Position>
              <LatitudeDegrees>38.2493104040622711181640625</LatitudeDegrees>
              <LongitudeDegrees>-1.1852066405117511749267578125</LongitudeDegrees>
            </Position>
            <AltitudeMeters>580.5999755859375</AltitudeMeters>
            <DistanceMeters>NAN</DistanceMeters>
          </Trackpoint>
          <Trackpoint>
            <Time>2020-05-25T06:14:16.000Z</Time>
            <Position>
              <LatitudeDegrees>38.249315433204174041748046875</LatitudeDegrees>
              <LongitudeDegrees>-1.1852113343775272369384765625</LongitudeDegrees>
            </Position>
            <AltitudeMeters>580.5999755859375</AltitudeMeters>
            <DistanceMeters>NAN</DistanceMeters>
          </Trackpoint>
          <Trackpoint>
            <Time>2020-05-25T06:14:17.000Z</Time>
            <Position>
              <LatitudeDegrees>38.2493182830512523651123046875</LatitudeDegrees>
              <LongitudeDegrees>-1.185212843120098114013671875</LongitudeDegrees>
            </Position>
            <AltitudeMeters>580.79998779296875</AltitudeMeters>
            <DistanceMeters>NAN</DistanceMeters>
          </Trackpoint>
          <Trackpoint>
            <Time>2020-05-25T06:16:13.000Z</Time>
            <Position>
              <LatitudeDegrees>38.2492837496101856231689453125</LatitudeDegrees>
              <LongitudeDegrees>-1.18526187725365161895751953125</LongitudeDegrees>
            </Position>
            <AltitudeMeters>581</AltitudeMeters>
            <DistanceMeters>NAN</DistanceMeters>
          </Trackpoint>
          <Trackpoint>
            <Time>2020-05-25T06:16:14.000Z</Time>
            <Position>
              <LatitudeDegrees>38.24926405213773250579833984375</LatitudeDegrees>
              <LongitudeDegrees>-1.18526791222393512725830078125</LongitudeDegrees>
            </Position>
            <AltitudeMeters>581</AltitudeMeters>
            <DistanceMeters>NAN</DistanceMeters>
          </Trackpoint>
          <Trackpoint>
            <Time>2020-05-25T06:16:15.000Z</Time>
            <Position>
              <LatitudeDegrees>38.24924443848431110382080078125</LatitudeDegrees>
              <LongitudeDegrees>-1.185273192822933197021484375</LongitudeDegrees>
            </Position>
            <AltitudeMeters>581</AltitudeMeters>
            <DistanceMeters>NAN</DistanceMeters>
          </Trackpoint>
          <Trackpoint>
            <Time>2020-05-25T06:16:16.000Z</Time>
            <Position>
              <LatitudeDegrees>38.2492247410118579864501953125</LatitudeDegrees>
              <LongitudeDegrees>-1.1852767132222652435302734375</LongitudeDegrees>
            </Position>
            <AltitudeMeters>581</AltitudeMeters>
            <DistanceMeters>NAN</DistanceMeters>
          </Trackpoint>
          <Trackpoint>
            <Time>2020-05-25T06:16:17.000Z</Time>
            <Position>
              <LatitudeDegrees>38.24920152314007282257080078125</LatitudeDegrees>
              <LongitudeDegrees>-1.18528082035481929779052734375</LongitudeDegrees>
            </Position>
            <AltitudeMeters>580.79998779296875</AltitudeMeters>
            <DistanceMeters>NAN</DistanceMeters>
          </Trackpoint>
          <Trackpoint>
            <Time>2020-05-25T06:16:18.000Z</Time>
            <Position>
              <LatitudeDegrees>38.24917386285960674285888671875</LatitudeDegrees>
              <LongitudeDegrees>-1.18528417311608791351318359375</LongitudeDegrees>
            </Position>
            <AltitudeMeters>580.79998779296875</AltitudeMeters>
            <DistanceMeters>NAN</DistanceMeters>
          </Trackpoint>
          <Trackpoint>
            <Time>2020-05-25T06:16:19.000Z</Time>
            <Position>
              <LatitudeDegrees>38.24914469383656978607177734375</LatitudeDegrees>
              <LongitudeDegrees>-1.18528425693511962890625</LongitudeDegrees>
            </Position>
            <AltitudeMeters>580.79998779296875</AltitudeMeters>
            <DistanceMeters>NAN</DistanceMeters>
          </Trackpoint>
          <Trackpoint>
            <Time>2020-05-25T06:16:20.000Z</Time>
            <Position>
              <LatitudeDegrees>38.24908048845827579498291015625</LatitudeDegrees>
              <LongitudeDegrees>-1.18527998216450214385986328125</LongitudeDegrees>
            </Position>
            <AltitudeMeters>580.5999755859375</AltitudeMeters>
            <DistanceMeters>NAN</DistanceMeters>
          </Trackpoint>
          <Trackpoint>
            <Time>2020-05-25T06:16:21.000Z</Time>
            <Position>
              <LatitudeDegrees>38.24908048845827579498291015625</LatitudeDegrees>
              <LongitudeDegrees>-1.18527998216450214385986328125</LongitudeDegrees>
            </Position>
            <AltitudeMeters>580.5999755859375</AltitudeMeters>
            <DistanceMeters>NAN</DistanceMeters>
          </Trackpoint>
          <Trackpoint>
            <Time>2020-05-25T06:16:22.000Z</Time>
            <Position>
              <LatitudeDegrees>38.249045871198177337646484375</LatitudeDegrees>
              <LongitudeDegrees>-1.1852760426700115203857421875</LongitudeDegrees>
            </Position>
            <AltitudeMeters>580.5999755859375</AltitudeMeters>
            <DistanceMeters>NAN</DistanceMeters>
          </Trackpoint>
          <Trackpoint>
            <Time>2020-05-25T06:16:23.000Z</Time>
            <Position>
              <LatitudeDegrees>38.24900890700519084930419921875</LatitudeDegrees>
              <LongitudeDegrees>-1.18527092970907688140869140625</LongitudeDegrees>
            </Position>
            <AltitudeMeters>580.5999755859375</AltitudeMeters>
            <DistanceMeters>NAN</DistanceMeters>
          </Trackpoint>
          <Trackpoint>
            <Time>2020-05-25T06:16:24.000Z</Time>
            <Position>
              <LatitudeDegrees>38.24896884150803089141845703125</LatitudeDegrees>
              <LongitudeDegrees>-1.1852619610726833343505859375</LongitudeDegrees>
            </Position>
            <AltitudeMeters>580.5999755859375</AltitudeMeters>
            <DistanceMeters>NAN</DistanceMeters>
          </Trackpoint>
          <Trackpoint>
            <Time>2020-05-25T06:16:25.000Z</Time>
            <Position>
              <LatitudeDegrees>38.24892592616379261016845703125</LatitudeDegrees>
              <LongitudeDegrees>-1.1852572672069072723388671875</LongitudeDegrees>
            </Position>
            <AltitudeMeters>580.5999755859375</AltitudeMeters>
            <DistanceMeters>NAN</DistanceMeters>
          </Trackpoint>
          <Trackpoint>
            <Time>2020-05-25T06:16:26.000Z</Time>
            <Position>
              <LatitudeDegrees>38.24882718734443187713623046875</LatitudeDegrees>
              <LongitudeDegrees>-1.18523932993412017822265625</LongitudeDegrees>
            </Position>
            <AltitudeMeters>580.5999755859375</AltitudeMeters>
            <DistanceMeters>NAN</DistanceMeters>
          </Trackpoint>
          <Trackpoint>
            <Time>2020-05-25T06:16:27.000Z</Time>
            <Position>
              <LatitudeDegrees>38.24882718734443187713623046875</LatitudeDegrees>
              <LongitudeDegrees>-1.18523932993412017822265625</LongitudeDegrees>
            </Position>
            <AltitudeMeters>580.4000244140625</AltitudeMeters>
            <DistanceMeters>NAN</DistanceMeters>
          </Trackpoint>
          <Trackpoint>
            <Time>2020-05-25T06:16:28.000Z</Time>
            <Position>
              <LatitudeDegrees>38.24877262115478515625</LatitudeDegrees>
              <LongitudeDegrees>-1.18523396551609039306640625</LongitudeDegrees>
            </Position>
            <AltitudeMeters>580.4000244140625</AltitudeMeters>
            <DistanceMeters>NAN</DistanceMeters>
          </Trackpoint>
          <Trackpoint>
            <Time>2020-05-25T06:16:29.000Z</Time>
            <Position>
              <LatitudeDegrees>38.248711265623569488525390625</LatitudeDegrees>
              <LongitudeDegrees>-1.18523304350674152374267578125</LongitudeDegrees>
            </Position>
            <AltitudeMeters>580.20001220703125</AltitudeMeters>
            <DistanceMeters>NAN</DistanceMeters>
          </Trackpoint>
          <Trackpoint>
            <Time>2020-05-25T06:16:30.000Z</Time>
            <Position>
              <LatitudeDegrees>38.24864731170237064361572265625</LatitudeDegrees>
              <LongitudeDegrees>-1.18523488752543926239013671875</LongitudeDegrees>
            </Position>
            <AltitudeMeters>580</AltitudeMeters>
            <DistanceMeters>NAN</DistanceMeters>
          </Trackpoint>
          <Trackpoint>
            <Time>2020-05-25T06:16:31.000Z</Time>
            <Position>
              <LatitudeDegrees>38.24857992120087146759033203125</LatitudeDegrees>
              <LongitudeDegrees>-1.18522918783128261566162109375</LongitudeDegrees>
            </Position>
            <AltitudeMeters>580</AltitudeMeters>
            <DistanceMeters>NAN</DistanceMeters>
          </Trackpoint>
          <Trackpoint>
            <Time>2020-05-25T06:16:32.000Z</Time>
            <Position>
              <LatitudeDegrees>38.24844161979854106903076171875</LatitudeDegrees>
              <LongitudeDegrees>-1.18522591888904571533203125</LongitudeDegrees>
            </Position>
            <AltitudeMeters>579.79998779296875</AltitudeMeters>
            <DistanceMeters>NAN</DistanceMeters>
          </Trackpoint>
          <Trackpoint>
            <Time>2020-05-25T06:16:33.000Z</Time>
            <Position>
              <LatitudeDegrees>38.24844161979854106903076171875</LatitudeDegrees>
              <LongitudeDegrees>-1.18522591888904571533203125</LongitudeDegrees>
            </Position>
            <AltitudeMeters>579.5999755859375</AltitudeMeters>
            <DistanceMeters>NAN</DistanceMeters>
          </Trackpoint>
          <Trackpoint>
            <Time>2020-05-25T06:16:34.000Z</Time>
            <Position>
              <LatitudeDegrees>38.24837096035480499267578125</LatitudeDegrees>
              <LongitudeDegrees>-1.18522348813712596893310546875</LongitudeDegrees>
            </Position>
            <AltitudeMeters>579.4000244140625</AltitudeMeters>
            <DistanceMeters>NAN</DistanceMeters>
          </Trackpoint>
          <Trackpoint>
            <Time>2020-05-25T06:16:35.000Z</Time>
            <Position>
              <LatitudeDegrees>38.2483005523681640625</LatitudeDegrees>
              <LongitudeDegrees>-1.18522231467068195343017578125</LongitudeDegrees>
            </Position>
            <AltitudeMeters>579</AltitudeMeters>
            <DistanceMeters>NAN</DistanceMeters>
          </Trackpoint>
          <Trackpoint>
            <Time>2020-05-25T06:16:36.000Z</Time>
            <Position>
              <LatitudeDegrees>38.24823140166699886322021484375</LatitudeDegrees>
              <LongitudeDegrees>-1.18521644733846187591552734375</LongitudeDegrees>
            </Position>
            <AltitudeMeters>578.79998779296875</AltitudeMeters>
            <DistanceMeters>NAN</DistanceMeters>
          </Trackpoint>
          <Trackpoint>
            <Time>2020-05-25T06:16:37.000Z</Time>
            <Position>
              <LatitudeDegrees>38.24816350825130939483642578125</LatitudeDegrees>
              <LongitudeDegrees>-1.1852156929671764373779296875</LongitudeDegrees>
            </Position>
            <AltitudeMeters>578.4000244140625</AltitudeMeters>
            <DistanceMeters>NAN</DistanceMeters>
          </Trackpoint>
          <Trackpoint>
            <Time>2020-05-25T06:16:38.000Z</Time>
            <Position>
              <LatitudeDegrees>38.24804012663662433624267578125</LatitudeDegrees>
              <LongitudeDegrees>-1.18524712510406970977783203125</LongitudeDegrees>
            </Position>
            <AltitudeMeters>578</AltitudeMeters>
            <DistanceMeters>NAN</DistanceMeters>
          </Trackpoint>
          <Trackpoint>
            <Time>2020-05-25T06:16:39.000Z</Time>
            <Position>
              <LatitudeDegrees>38.24804012663662433624267578125</LatitudeDegrees>
              <LongitudeDegrees>-1.18524712510406970977783203125</LongitudeDegrees>
            </Position>
            <AltitudeMeters>577.5999755859375</AltitudeMeters>
            <DistanceMeters>NAN</DistanceMeters>
          </Trackpoint>
          <Trackpoint>
            <Time>2020-05-25T06:16:40.000Z</Time>
            <Position>
              <LatitudeDegrees>38.24799553491175174713134765625</LatitudeDegrees>
              <LongitudeDegrees>-1.18528626859188079833984375</LongitudeDegrees>
            </Position>
            <AltitudeMeters>577.4000244140625</AltitudeMeters>
            <DistanceMeters>NAN</DistanceMeters>
          </Trackpoint>
          <Trackpoint>
            <Time>2020-05-25T06:16:41.000Z</Time>
            <Position>
              <LatitudeDegrees>38.24796368367969989776611328125</LatitudeDegrees>
              <LongitudeDegrees>-1.18533345870673656463623046875</LongitudeDegrees>
            </Position>
            <AltitudeMeters>577</AltitudeMeters>
            <DistanceMeters>NAN</DistanceMeters>
          </Trackpoint>
          <Trackpoint>
            <Time>2020-05-25T06:16:42.000Z</Time>
            <Position>
              <LatitudeDegrees>38.247922025620937347412109375</LatitudeDegrees>
              <LongitudeDegrees>-1.18542314507067203521728515625</LongitudeDegrees>
            </Position>
            <AltitudeMeters>576.79998779296875</AltitudeMeters>
            <DistanceMeters>NAN</DistanceMeters>
          </Trackpoint>
          <Trackpoint>
            <Time>2020-05-25T06:16:43.000Z</Time>
            <Position>
              <LatitudeDegrees>38.247922025620937347412109375</LatitudeDegrees>
              <LongitudeDegrees>-1.18542314507067203521728515625</LongitudeDegrees>
            </Position>
            <AltitudeMeters>576.79998779296875</AltitudeMeters>
            <DistanceMeters>NAN</DistanceMeters>
          </Trackpoint>
          <Trackpoint>
            <Time>2020-05-25T06:16:44.000Z</Time>
            <Position>
              <LatitudeDegrees>38.24793367646634578704833984375</LatitudeDegrees>
              <LongitudeDegrees>-1.1854986660182476043701171875</LongitudeDegrees>
            </Position>
            <AltitudeMeters>576.5999755859375</AltitudeMeters>
            <DistanceMeters>NAN</DistanceMeters>
          </Trackpoint>
          <Trackpoint>
            <Time>2020-05-25T06:16:45.000Z</Time>
            <Position>
              <LatitudeDegrees>38.24793367646634578704833984375</LatitudeDegrees>
              <LongitudeDegrees>-1.1854986660182476043701171875</LongitudeDegrees>
            </Position>
            <AltitudeMeters>576.4000244140625</AltitudeMeters>
            <DistanceMeters>NAN</DistanceMeters>
          </Trackpoint>
          <Trackpoint>
            <Time>2020-05-25T06:16:46.000Z</Time>
            <Position>
              <LatitudeDegrees>38.24795865453779697418212890625</LatitudeDegrees>
              <LongitudeDegrees>-1.1855191178619861602783203125</LongitudeDegrees>
            </Position>
            <AltitudeMeters>576.4000244140625</AltitudeMeters>
            <DistanceMeters>NAN</DistanceMeters>
          </Trackpoint>
          <Trackpoint>
            <Time>2020-05-25T06:16:47.000Z</Time>
            <Position>
              <LatitudeDegrees>38.24798329733312129974365234375</LatitudeDegrees>
              <LongitudeDegrees>-1.18553127162158489227294921875</LongitudeDegrees>
            </Position>
            <AltitudeMeters>576.4000244140625</AltitudeMeters>
            <DistanceMeters>NAN</DistanceMeters>
          </Trackpoint>
          <Trackpoint>
            <Time>2020-05-25T06:16:48.000Z</Time>
            <Position>
              <LatitudeDegrees>38.24800861068069934844970703125</LatitudeDegrees>
              <LongitudeDegrees>-1.18553965352475643157958984375</LongitudeDegrees>
            </Position>
            <AltitudeMeters>576.4000244140625</AltitudeMeters>
            <DistanceMeters>NAN</DistanceMeters>
          </Trackpoint>
          <Trackpoint>
            <Time>2020-05-25T06:16:49.000Z</Time>
            <Position>
              <LatitudeDegrees>38.2480345107614994049072265625</LatitudeDegrees>
              <LongitudeDegrees>-1.18554602377116680145263671875</LongitudeDegrees>
            </Position>
            <AltitudeMeters>576.4000244140625</AltitudeMeters>
            <DistanceMeters>NAN</DistanceMeters>
          </Trackpoint>
          <Trackpoint>
            <Time>2020-05-25T06:16:50.000Z</Time>
            <Position>
              <LatitudeDegrees>38.24806007556617259979248046875</LatitudeDegrees>
              <LongitudeDegrees>-1.18554820306599140167236328125</LongitudeDegrees>
            </Position>
            <AltitudeMeters>576.4000244140625</AltitudeMeters>
            <DistanceMeters>NAN</DistanceMeters>
          </Trackpoint>
          <Trackpoint>
            <Time>2020-05-25T06:16:51.000Z</Time>
            <Position>
              <LatitudeDegrees>38.24808388017117977142333984375</LatitudeDegrees>
              <LongitudeDegrees>-1.185546778142452239990234375</LongitudeDegrees>
            </Position>
            <AltitudeMeters>576.4000244140625</AltitudeMeters>
            <DistanceMeters>NAN</DistanceMeters>
          </Trackpoint>
          <Trackpoint>
            <Time>2020-05-25T06:16:52.000Z</Time>
            <Position>
              <LatitudeDegrees>38.24810433201491832733154296875</LatitudeDegrees>
              <LongitudeDegrees>-1.1855385638773441314697265625</LongitudeDegrees>
            </Position>
            <AltitudeMeters>576.4000244140625</AltitudeMeters>
            <DistanceMeters>NAN</DistanceMeters>
          </Trackpoint>
          <Trackpoint>
            <Time>2020-05-25T06:16:53.000Z</Time>
            <Position>
              <LatitudeDegrees>38.248126208782196044921875</LatitudeDegrees>
              <LongitudeDegrees>-1.18552498519420623779296875</LongitudeDegrees>
            </Position>
            <AltitudeMeters>576.4000244140625</AltitudeMeters>
            <DistanceMeters>NAN</DistanceMeters>
          </Trackpoint>
          <Trackpoint>
            <Time>2020-05-25T06:16:54.000Z</Time>
            <Position>
              <LatitudeDegrees>38.24817021377384662628173828125</LatitudeDegrees>
              <LongitudeDegrees>-1.18549279868602752685546875</LongitudeDegrees>
            </Position>
            <AltitudeMeters>576.4000244140625</AltitudeMeters>
            <DistanceMeters>NAN</DistanceMeters>
          </Trackpoint>
          <Trackpoint>
            <Time>2020-05-25T06:16:55.000Z</Time>
            <Position>
              <LatitudeDegrees>38.24817021377384662628173828125</LatitudeDegrees>
              <LongitudeDegrees>-1.18549279868602752685546875</LongitudeDegrees>
            </Position>
            <AltitudeMeters>576.4000244140625</AltitudeMeters>
            <DistanceMeters>NAN</DistanceMeters>
          </Trackpoint>
          <Trackpoint>
            <Time>2020-05-25T06:16:56.000Z</Time>
            <Position>
              <LatitudeDegrees>38.24820935726165771484375</LatitudeDegrees>
              <LongitudeDegrees>-1.18545248173177242279052734375</LongitudeDegrees>
            </Position>
            <AltitudeMeters>576.5999755859375</AltitudeMeters>
            <DistanceMeters>NAN</DistanceMeters>
          </Trackpoint>
          <Trackpoint>
            <Time>2020-05-25T06:16:57.000Z</Time>
            <Position>
              <LatitudeDegrees>38.24820935726165771484375</LatitudeDegrees>
              <LongitudeDegrees>-1.18545248173177242279052734375</LongitudeDegrees>
            </Position>
            <AltitudeMeters>576.79998779296875</AltitudeMeters>
            <DistanceMeters>NAN</DistanceMeters>
          </Trackpoint>
          <Trackpoint>
            <Time>2020-05-25T06:16:58.000Z</Time>
            <Position>
              <LatitudeDegrees>38.248229809105396270751953125</LatitudeDegrees>
              <LongitudeDegrees>-1.18543068878352642059326171875</LongitudeDegrees>
            </Position>
            <AltitudeMeters>577</AltitudeMeters>
            <DistanceMeters>NAN</DistanceMeters>
          </Trackpoint>
          <Trackpoint>
            <Time>2020-05-25T06:16:59.000Z</Time>
            <Position>
              <LatitudeDegrees>38.24825051240622997283935546875</LatitudeDegrees>
              <LongitudeDegrees>-1.18540587835013866424560546875</LongitudeDegrees>
            </Position>
            <AltitudeMeters>577.20001220703125</AltitudeMeters>
            <DistanceMeters>NAN</DistanceMeters>
          </Trackpoint>
          <Trackpoint>
            <Time>2020-05-25T06:17:00.000Z</Time>
            <Position>
              <LatitudeDegrees>38.24827079661190509796142578125</LatitudeDegrees>
              <LongitudeDegrees>-1.185376457870006561279296875</LongitudeDegrees>
            </Position>
            <AltitudeMeters>577.5999755859375</AltitudeMeters>
            <DistanceMeters>NAN</DistanceMeters>
          </Trackpoint>
          <Trackpoint>
            <Time>2020-05-25T06:17:01.000Z</Time>
            <Position>
              <LatitudeDegrees>38.24829049408435821533203125</LatitudeDegrees>
              <LongitudeDegrees>-1.185347624123096466064453125</LongitudeDegrees>
            </Position>
            <AltitudeMeters>577.79998779296875</AltitudeMeters>
            <DistanceMeters>NAN</DistanceMeters>
          </Trackpoint>
          <Trackpoint>
            <Time>2020-05-25T06:17:02.000Z</Time>
            <Position>
              <LatitudeDegrees>38.2483369298279285430908203125</LatitudeDegrees>
              <LongitudeDegrees>-1.1853179521858692169189453125</LongitudeDegrees>
            </Position>
            <AltitudeMeters>578</AltitudeMeters>
            <DistanceMeters>NAN</DistanceMeters>
          </Trackpoint>
          <Trackpoint>
            <Time>2020-05-25T06:17:03.000Z</Time>
            <Position>
              <LatitudeDegrees>38.2483369298279285430908203125</LatitudeDegrees>
              <LongitudeDegrees>-1.1853179521858692169189453125</LongitudeDegrees>
            </Position>
            <AltitudeMeters>578.20001220703125</AltitudeMeters>
            <DistanceMeters>NAN</DistanceMeters>
          </Trackpoint>
          <Trackpoint>
            <Time>2020-05-25T06:17:04.000Z</Time>
            <Position>
              <LatitudeDegrees>38.248365260660648345947265625</LatitudeDegrees>
              <LongitudeDegrees>-1.18531334213912487030029296875</LongitudeDegrees>
            </Position>
            <AltitudeMeters>578.5999755859375</AltitudeMeters>
            <DistanceMeters>NAN</DistanceMeters>
          </Trackpoint>
          <Trackpoint>
            <Time>2020-05-25T06:17:05.000Z</Time>
            <Position>
              <LatitudeDegrees>38.24839568696916103363037109375</LatitudeDegrees>
              <LongitudeDegrees>-1.18531032465398311614990234375</LongitudeDegrees>
            </Position>
            <AltitudeMeters>578.79998779296875</AltitudeMeters>
            <DistanceMeters>NAN</DistanceMeters>
          </Trackpoint>
          <Trackpoint>
            <Time>2020-05-25T06:17:06.000Z</Time>
            <Position>
              <LatitudeDegrees>38.24842837639153003692626953125</LatitudeDegrees>
              <LongitudeDegrees>-1.18530982173979282379150390625</LongitudeDegrees>
            </Position>
            <AltitudeMeters>579</AltitudeMeters>
            <DistanceMeters>NAN</DistanceMeters>
          </Trackpoint>
          <Trackpoint>
            <Time>2020-05-25T06:17:07.000Z</Time>
            <Position>
              <LatitudeDegrees>38.2484606467187404632568359375</LatitudeDegrees>
              <LongitudeDegrees>-1.18530998937785625457763671875</LongitudeDegrees>
            </Position>
            <AltitudeMeters>579</AltitudeMeters>
            <DistanceMeters>NAN</DistanceMeters>
          </Trackpoint>
          <Trackpoint>
            <Time>2020-05-25T06:17:08.000Z</Time>
            <Position>
              <LatitudeDegrees>38.24852426536381244659423828125</LatitudeDegrees>
              <LongitudeDegrees>-1.18530026637017726898193359375</LongitudeDegrees>
            </Position>
            <AltitudeMeters>579.20001220703125</AltitudeMeters>
            <DistanceMeters>NAN</DistanceMeters>
          </Trackpoint>
          <Trackpoint>
            <Time>2020-05-25T06:17:09.000Z</Time>
            <Position>
              <LatitudeDegrees>38.24852426536381244659423828125</LatitudeDegrees>
              <LongitudeDegrees>-1.18530026637017726898193359375</LongitudeDegrees>
            </Position>
            <AltitudeMeters>579.4000244140625</AltitudeMeters>
            <DistanceMeters>NAN</DistanceMeters>
          </Trackpoint>
          <Trackpoint>
            <Time>2020-05-25T06:17:10.000Z</Time>
            <Position>
              <LatitudeDegrees>38.24855561368167400360107421875</LatitudeDegrees>
              <LongitudeDegrees>-1.185297667980194091796875</LongitudeDegrees>
            </Position>
            <AltitudeMeters>579.4000244140625</AltitudeMeters>
            <DistanceMeters>NAN</DistanceMeters>
          </Trackpoint>
          <Trackpoint>
            <Time>2020-05-25T06:17:11.000Z</Time>
            <Position>
              <LatitudeDegrees>38.2485836930572986602783203125</LatitudeDegrees>
              <LongitudeDegrees>-1.18529372848570346832275390625</LongitudeDegrees>
            </Position>
            <AltitudeMeters>579.4000244140625</AltitudeMeters>
            <DistanceMeters>NAN</DistanceMeters>
          </Trackpoint>
          <Trackpoint>
            <Time>2020-05-25T06:17:12.000Z</Time>
            <Position>
              <LatitudeDegrees>38.24863960035145282745361328125</LatitudeDegrees>
              <LongitudeDegrees>-1.18529791943728923797607421875</LongitudeDegrees>
            </Position>
            <AltitudeMeters>579.5999755859375</AltitudeMeters>
            <DistanceMeters>NAN</DistanceMeters>
          </Trackpoint>
          <Trackpoint>
            <Time>2020-05-25T06:17:13.000Z</Time>
            <Position>
              <LatitudeDegrees>38.24863960035145282745361328125</LatitudeDegrees>
              <LongitudeDegrees>-1.18529791943728923797607421875</LongitudeDegrees>
            </Position>
            <AltitudeMeters>579.5999755859375</AltitudeMeters>
            <DistanceMeters>NAN</DistanceMeters>
          </Trackpoint>
          <Trackpoint>
            <Time>2020-05-25T06:17:14.000Z</Time>
            <Position>
              <LatitudeDegrees>38.24866659007966518402099609375</LatitudeDegrees>
              <LongitudeDegrees>-1.18530361913144588470458984375</LongitudeDegrees>
            </Position>
            <AltitudeMeters>579.5999755859375</AltitudeMeters>
            <DistanceMeters>NAN</DistanceMeters>
          </Trackpoint>
          <Trackpoint>
            <Time>2020-05-25T06:17:15.000Z</Time>
            <Position>
              <LatitudeDegrees>38.24868989177048206329345703125</LatitudeDegrees>
              <LongitudeDegrees>-1.18531535379588603973388671875</LongitudeDegrees>
            </Position>
            <AltitudeMeters>579.79998779296875</AltitudeMeters>
            <DistanceMeters>NAN</DistanceMeters>
          </Trackpoint>
          <Trackpoint>
            <Time>2020-05-25T06:17:16.000Z</Time>
            <Position>
              <LatitudeDegrees>38.24871562421321868896484375</LatitudeDegrees>
              <LongitudeDegrees>-1.18532474152743816375732421875</LongitudeDegrees>
            </Position>
            <AltitudeMeters>580</AltitudeMeters>
            <DistanceMeters>NAN</DistanceMeters>
          </Trackpoint>
          <Trackpoint>
            <Time>2020-05-25T06:17:17.000Z</Time>
            <Position>
              <LatitudeDegrees>38.24874822981655597686767578125</LatitudeDegrees>
              <LongitudeDegrees>-1.18533547036349773406982421875</LongitudeDegrees>
            </Position>
            <AltitudeMeters>580.20001220703125</AltitudeMeters>
            <DistanceMeters>NAN</DistanceMeters>
          </Trackpoint>
          <Trackpoint>
            <Time>2020-05-25T06:17:18.000Z</Time>
            <Position>
              <LatitudeDegrees>38.248778991401195526123046875</LatitudeDegrees>
              <LongitudeDegrees>-1.18534016422927379608154296875</LongitudeDegrees>
            </Position>
            <AltitudeMeters>580.20001220703125</AltitudeMeters>
            <DistanceMeters>NAN</DistanceMeters>
          </Trackpoint>
          <Trackpoint>
            <Time>2020-05-25T06:17:19.000Z</Time>
            <Position>
              <LatitudeDegrees>38.2487999461591243743896484375</LatitudeDegrees>
              <LongitudeDegrees>-1.18534125387668609619140625</LongitudeDegrees>
            </Position>
            <AltitudeMeters>580.4000244140625</AltitudeMeters>
            <DistanceMeters>NAN</DistanceMeters>
          </Trackpoint>
          <Trackpoint>
            <Time>2020-05-25T06:17:20.000Z</Time>
            <Position>
              <LatitudeDegrees>38.24884311296045780181884765625</LatitudeDegrees>
              <LongitudeDegrees>-1.1853472888469696044921875</LongitudeDegrees>
            </Position>
            <AltitudeMeters>580.4000244140625</AltitudeMeters>
            <DistanceMeters>NAN</DistanceMeters>
          </Trackpoint>
          <Trackpoint>
            <Time>2020-05-25T06:17:21.000Z</Time>
            <Position>
              <LatitudeDegrees>38.24884311296045780181884765625</LatitudeDegrees>
              <LongitudeDegrees>-1.1853472888469696044921875</LongitudeDegrees>
            </Position>
            <AltitudeMeters>580.5999755859375</AltitudeMeters>
            <DistanceMeters>NAN</DistanceMeters>
          </Trackpoint>
          <Trackpoint>
            <Time>2020-05-25T06:17:22.000Z</Time>
            <Position>
              <LatitudeDegrees>38.2488670013844966888427734375</LatitudeDegrees>
              <LongitudeDegrees>-1.1853558383882045745849609375</LongitudeDegrees>
            </Position>
            <AltitudeMeters>580.79998779296875</AltitudeMeters>
            <DistanceMeters>NAN</DistanceMeters>
          </Trackpoint>
          <Trackpoint>
            <Time>2020-05-25T06:17:23.000Z</Time>
            <Position>
              <LatitudeDegrees>38.24888753704726696014404296875</LatitudeDegrees>
              <LongitudeDegrees>-1.18536262772977352142333984375</LongitudeDegrees>
            </Position>
            <AltitudeMeters>581</AltitudeMeters>
            <DistanceMeters>NAN</DistanceMeters>
          </Trackpoint>
          <Trackpoint>
            <Time>2020-05-25T06:17:24.000Z</Time>
            <Position>
              <LatitudeDegrees>38.2489112578332424163818359375</LatitudeDegrees>
              <LongitudeDegrees>-1.18537268601357936859130859375</LongitudeDegrees>
            </Position>
            <AltitudeMeters>581</AltitudeMeters>
            <DistanceMeters>NAN</DistanceMeters>
          </Trackpoint>
          <Trackpoint>
            <Time>2020-05-25T06:17:25.000Z</Time>
            <Position>
              <LatitudeDegrees>38.24893229641020298004150390625</LatitudeDegrees>
              <LongitudeDegrees>-1.18538190610706806182861328125</LongitudeDegrees>
            </Position>
            <AltitudeMeters>581.4000244140625</AltitudeMeters>
            <DistanceMeters>NAN</DistanceMeters>
          </Trackpoint>
          <Trackpoint>
            <Time>2020-05-25T06:17:26.000Z</Time>
            <Position>
              <LatitudeDegrees>38.2489514909684658050537109375</LatitudeDegrees>
              <LongitudeDegrees>-1.18539447896182537078857421875</LongitudeDegrees>
            </Position>
            <AltitudeMeters>581.5999755859375</AltitudeMeters>
            <DistanceMeters>NAN</DistanceMeters>
          </Trackpoint>
          <Trackpoint>
            <Time>2020-05-25T06:17:27.000Z</Time>
            <Position>
              <LatitudeDegrees>38.2489682547748088836669921875</LatitudeDegrees>
              <LongitudeDegrees>-1.18540889583528041839599609375</LongitudeDegrees>
            </Position>
            <AltitudeMeters>582</AltitudeMeters>
            <DistanceMeters>NAN</DistanceMeters>
          </Trackpoint>
          <Trackpoint>
            <Time>2020-05-25T06:17:28.000Z</Time>
            <Position>
              <LatitudeDegrees>38.24898493476212024688720703125</LatitudeDegrees>
              <LongitudeDegrees>-1.185422725975513458251953125</LongitudeDegrees>
            </Position>
            <AltitudeMeters>582.4000244140625</AltitudeMeters>
            <DistanceMeters>NAN</DistanceMeters>
          </Trackpoint>
          <Trackpoint>
            <Time>2020-05-25T06:17:29.000Z</Time>
            <Position>
              <LatitudeDegrees>38.2490037940442562103271484375</LatitudeDegrees>
              <LongitudeDegrees>-1.18543437682092189788818359375</LongitudeDegrees>
            </Position>
            <AltitudeMeters>582.79998779296875</AltitudeMeters>
            <DistanceMeters>NAN</DistanceMeters>
          </Trackpoint>
          <Trackpoint>
            <Time>2020-05-25T06:17:30.000Z</Time>
            <Position>
              <LatitudeDegrees>38.24902282096445560455322265625</LatitudeDegrees>
              <LongitudeDegrees>-1.18544493801891803741455078125</LongitudeDegrees>
            </Position>
            <AltitudeMeters>583.4000244140625</AltitudeMeters>
            <DistanceMeters>NAN</DistanceMeters>
          </Trackpoint>
          <Trackpoint>
            <Time>2020-05-25T06:17:31.000Z</Time>
            <Position>
              <LatitudeDegrees>38.24904176406562328338623046875</LatitudeDegrees>
              <LongitudeDegrees>-1.185455583035945892333984375</LongitudeDegrees>
            </Position>
            <AltitudeMeters>583.79998779296875</AltitudeMeters>
            <DistanceMeters>NAN</DistanceMeters>
          </Trackpoint>
          <Trackpoint>
            <Time>2020-05-25T06:17:32.000Z</Time>
            <Position>
              <LatitudeDegrees>38.24907881207764148712158203125</LatitudeDegrees>
              <LongitudeDegrees>-1.18548014201223850250244140625</LongitudeDegrees>
            </Position>
            <AltitudeMeters>584.20001220703125</AltitudeMeters>
            <DistanceMeters>NAN</DistanceMeters>
          </Trackpoint>
          <Trackpoint>
            <Time>2020-05-25T06:17:33.000Z</Time>
            <Position>
              <LatitudeDegrees>38.24907881207764148712158203125</LatitudeDegrees>
              <LongitudeDegrees>-1.18548014201223850250244140625</LongitudeDegrees>
            </Position>
            <AltitudeMeters>584.4000244140625</AltitudeMeters>
            <DistanceMeters>NAN</DistanceMeters>
          </Trackpoint>
          <Trackpoint>
            <Time>2020-05-25T06:17:34.000Z</Time>
            <Position>
              <LatitudeDegrees>38.24909624643623828887939453125</LatitudeDegrees>
              <LongitudeDegrees>-1.1854974925518035888671875</LongitudeDegrees>
            </Position>
            <AltitudeMeters>584.79998779296875</AltitudeMeters>
            <DistanceMeters>NAN</DistanceMeters>
          </Trackpoint>
          <Trackpoint>
            <Time>2020-05-25T06:17:35.000Z</Time>
            <Position>
              <LatitudeDegrees>38.2491117529571056365966796875</LatitudeDegrees>
              <LongitudeDegrees>-1.18551869876682758331298828125</LongitudeDegrees>
            </Position>
            <AltitudeMeters>585.20001220703125</AltitudeMeters>
            <DistanceMeters>NAN</DistanceMeters>
          </Trackpoint>
          <Trackpoint>
            <Time>2020-05-25T06:17:36.000Z</Time>
            <Position>
              <LatitudeDegrees>38.24913430027663707733154296875</LatitudeDegrees>
              <LongitudeDegrees>-1.18557351641356945037841796875</LongitudeDegrees>
            </Position>
            <AltitudeMeters>585.4000244140625</AltitudeMeters>
            <DistanceMeters>NAN</DistanceMeters>
          </Trackpoint>
          <Trackpoint>
            <Time>2020-05-25T06:17:37.000Z</Time>
            <Position>
              <LatitudeDegrees>38.24913430027663707733154296875</LatitudeDegrees>
              <LongitudeDegrees>-1.18557351641356945037841796875</LongitudeDegrees>
            </Position>
            <AltitudeMeters>585.5999755859375</AltitudeMeters>
            <DistanceMeters>NAN</DistanceMeters>
          </Trackpoint>
          <Trackpoint>
            <Time>2020-05-25T06:17:38.000Z</Time>
            <Position>
              <LatitudeDegrees>38.24916891753673553466796875</LatitudeDegrees>
              <LongitudeDegrees>-1.18564962409436702728271484375</LongitudeDegrees>
            </Position>
            <AltitudeMeters>585.79998779296875</AltitudeMeters>
            <DistanceMeters>NAN</DistanceMeters>
          </Trackpoint>
          <Trackpoint>
            <Time>2020-05-25T06:17:39.000Z</Time>
            <Position>
              <LatitudeDegrees>38.24916891753673553466796875</LatitudeDegrees>
              <LongitudeDegrees>-1.18564962409436702728271484375</LongitudeDegrees>
            </Position>
            <AltitudeMeters>586</AltitudeMeters>
            <DistanceMeters>NAN</DistanceMeters>
          </Trackpoint>
          <Trackpoint>
            <Time>2020-05-25T06:17:40.000Z</Time>
            <Position>
              <LatitudeDegrees>38.2491897046566009521484375</LatitudeDegrees>
              <LongitudeDegrees>-1.18569723330438137054443359375</LongitudeDegrees>
            </Position>
            <AltitudeMeters>586</AltitudeMeters>
            <DistanceMeters>NAN</DistanceMeters>
          </Trackpoint>
          <Trackpoint>
            <Time>2020-05-25T06:17:41.000Z</Time>
            <Position>
              <LatitudeDegrees>38.2492076419293880462646484375</LatitudeDegrees>
              <LongitudeDegrees>-1.18574559688568115234375</LongitudeDegrees>
            </Position>
            <AltitudeMeters>586.20001220703125</AltitudeMeters>
            <DistanceMeters>NAN</DistanceMeters>
          </Trackpoint>
          <Trackpoint>
            <Time>2020-05-25T06:17:42.000Z</Time>
            <Position>
              <LatitudeDegrees>38.24922566302120685577392578125</LatitudeDegrees>
              <LongitudeDegrees>-1.18586017750203609466552734375</LongitudeDegrees>
            </Position>
            <AltitudeMeters>586.20001220703125</AltitudeMeters>
            <DistanceMeters>NAN</DistanceMeters>
          </Trackpoint>
          <Trackpoint>
            <Time>2020-05-25T06:17:43.000Z</Time>
            <Position>
              <LatitudeDegrees>38.24922566302120685577392578125</LatitudeDegrees>
              <LongitudeDegrees>-1.18586017750203609466552734375</LongitudeDegrees>
            </Position>
            <AltitudeMeters>586.20001220703125</AltitudeMeters>
            <DistanceMeters>NAN</DistanceMeters>
          </Trackpoint>
          <Trackpoint>
            <Time>2020-05-25T06:17:44.000Z</Time>
            <Position>
              <LatitudeDegrees>38.2492254115641117095947265625</LatitudeDegrees>
              <LongitudeDegrees>-1.18591784499585628509521484375</LongitudeDegrees>
            </Position>
            <AltitudeMeters>586.20001220703125</AltitudeMeters>
            <DistanceMeters>NAN</DistanceMeters>
          </Trackpoint>
          <Trackpoint>
            <Time>2020-05-25T06:17:45.000Z</Time>
            <Position>
              <LatitudeDegrees>38.24921728111803531646728515625</LatitudeDegrees>
              <LongitudeDegrees>-1.1859737522900104522705078125</LongitudeDegrees>
            </Position>
            <AltitudeMeters>586.20001220703125</AltitudeMeters>
            <DistanceMeters>NAN</DistanceMeters>
          </Trackpoint>
          <Trackpoint>
            <Time>2020-05-25T06:17:46.000Z</Time>
            <Position>
              <LatitudeDegrees>38.24920152314007282257080078125</LatitudeDegrees>
              <LongitudeDegrees>-1.186023540794849395751953125</LongitudeDegrees>
            </Position>
            <AltitudeMeters>586.20001220703125</AltitudeMeters>
            <DistanceMeters>NAN</DistanceMeters>
          </Trackpoint>
          <Trackpoint>
            <Time>2020-05-25T06:17:47.000Z</Time>
            <Position>
              <LatitudeDegrees>38.24917956255376338958740234375</LatitudeDegrees>
              <LongitudeDegrees>-1.18606603704392910003662109375</LongitudeDegrees>
            </Position>
            <AltitudeMeters>586.20001220703125</AltitudeMeters>
            <DistanceMeters>NAN</DistanceMeters>
          </Trackpoint>
          <Trackpoint>
            <Time>2020-05-25T06:17:48.000Z</Time>
            <Position>
              <LatitudeDegrees>38.24912658892571926116943359375</LatitudeDegrees>
              <LongitudeDegrees>-1.18613426573574542999267578125</LongitudeDegrees>
            </Position>
            <AltitudeMeters>586.20001220703125</AltitudeMeters>
            <DistanceMeters>NAN</DistanceMeters>
          </Trackpoint>
          <Trackpoint>
            <Time>2020-05-25T06:17:49.000Z</Time>
            <Position>
              <LatitudeDegrees>38.24912658892571926116943359375</LatitudeDegrees>
              <LongitudeDegrees>-1.18613426573574542999267578125</LongitudeDegrees>
            </Position>
            <AltitudeMeters>586</AltitudeMeters>
            <DistanceMeters>NAN</DistanceMeters>
          </Trackpoint>
          <Trackpoint>
            <Time>2020-05-25T06:17:50.000Z</Time>
            <Position>
              <LatitudeDegrees>38.24909985065460205078125</LatitudeDegrees>
              <LongitudeDegrees>-1.18616393767297267913818359375</LongitudeDegrees>
            </Position>
            <AltitudeMeters>586</AltitudeMeters>
            <DistanceMeters>NAN</DistanceMeters>
          </Trackpoint>
          <Trackpoint>
            <Time>2020-05-25T06:17:51.000Z</Time>
            <Position>
              <LatitudeDegrees>38.249072022736072540283203125</LatitudeDegrees>
              <LongitudeDegrees>-1.18619344197213649749755859375</LongitudeDegrees>
            </Position>
            <AltitudeMeters>586</AltitudeMeters>
            <DistanceMeters>NAN</DistanceMeters>
          </Trackpoint>
          <Trackpoint>
            <Time>2020-05-25T06:17:52.000Z</Time>
            <Position>
              <LatitudeDegrees>38.249043859541416168212890625</LatitudeDegrees>
              <LongitudeDegrees>-1.1862231977283954620361328125</LongitudeDegrees>
            </Position>
            <AltitudeMeters>586</AltitudeMeters>
            <DistanceMeters>NAN</DistanceMeters>
          </Trackpoint>
          <Trackpoint>
            <Time>2020-05-25T06:17:53.000Z</Time>
            <Position>
              <LatitudeDegrees>38.249016702175140380859375</LatitudeDegrees>
              <LongitudeDegrees>-1.1862520314753055572509765625</LongitudeDegrees>
            </Position>
            <AltitudeMeters>585.79998779296875</AltitudeMeters>
            <DistanceMeters>NAN</DistanceMeters>
          </Trackpoint>
          <Trackpoint>
            <Time>2020-05-25T06:17:54.000Z</Time>
            <Position>
              <LatitudeDegrees>38.24897152371704578399658203125</LatitudeDegrees>
              <LongitudeDegrees>-1.18631062097847461700439453125</LongitudeDegrees>
            </Position>
            <AltitudeMeters>585.79998779296875</AltitudeMeters>
            <DistanceMeters>NAN</DistanceMeters>
          </Trackpoint>
          <Trackpoint>
            <Time>2020-05-25T06:17:55.000Z</Time>
            <Position>
              <LatitudeDegrees>38.24897152371704578399658203125</LatitudeDegrees>
              <LongitudeDegrees>-1.18631062097847461700439453125</LongitudeDegrees>
            </Position>
            <AltitudeMeters>585.79998779296875</AltitudeMeters>
            <DistanceMeters>NAN</DistanceMeters>
          </Trackpoint>
          <Trackpoint>
            <Time>2020-05-25T06:17:56.000Z</Time>
            <Position>
              <LatitudeDegrees>38.2489511556923389434814453125</LatitudeDegrees>
              <LongitudeDegrees>-1.18633895181119441986083984375</LongitudeDegrees>
            </Position>
            <AltitudeMeters>585.79998779296875</AltitudeMeters>
            <DistanceMeters>NAN</DistanceMeters>
          </Trackpoint>
          <Trackpoint>
            <Time>2020-05-25T06:17:57.000Z</Time>
            <Position>
              <LatitudeDegrees>38.24893313460052013397216796875</LatitudeDegrees>
              <LongitudeDegrees>-1.186365522444248199462890625</LongitudeDegrees>
            </Position>
            <AltitudeMeters>585.79998779296875</AltitudeMeters>
            <DistanceMeters>NAN</DistanceMeters>
          </Trackpoint>
          <Trackpoint>
            <Time>2020-05-25T06:17:58.000Z</Time>
            <Position>
              <LatitudeDegrees>38.2489179633557796478271484375</LatitudeDegrees>
              <LongitudeDegrees>-1.18638924323022365570068359375</LongitudeDegrees>
            </Position>
            <AltitudeMeters>585.79998779296875</AltitudeMeters>
            <DistanceMeters>NAN</DistanceMeters>
          </Trackpoint>
          <Trackpoint>
            <Time>2020-05-25T06:17:59.000Z</Time>
            <Position>
              <LatitudeDegrees>38.2489053905010223388671875</LatitudeDegrees>
              <LongitudeDegrees>-1.1864121258258819580078125</LongitudeDegrees>
            </Position>
            <AltitudeMeters>586</AltitudeMeters>
            <DistanceMeters>NAN</DistanceMeters>
          </Trackpoint>
          <Trackpoint>
            <Time>2020-05-25T06:18:00.000Z</Time>
            <Position>
              <LatitudeDegrees>38.24888418428599834442138671875</LatitudeDegrees>
              <LongitudeDegrees>-1.18645696900784969329833984375</LongitudeDegrees>
            </Position>
            <AltitudeMeters>586</AltitudeMeters>
            <DistanceMeters>NAN</DistanceMeters>
          </Trackpoint>
          <Trackpoint>
            <Time>2020-05-25T06:18:01.000Z</Time>
            <Position>
              <LatitudeDegrees>38.24888418428599834442138671875</LatitudeDegrees>
              <LongitudeDegrees>-1.18645696900784969329833984375</LongitudeDegrees>
            </Position>
            <AltitudeMeters>586.20001220703125</AltitudeMeters>
            <DistanceMeters>NAN</DistanceMeters>
          </Trackpoint>
          <Trackpoint>
            <Time>2020-05-25T06:18:02.000Z</Time>
            <Position>
              <LatitudeDegrees>38.24885602109134197235107421875</LatitudeDegrees>
              <LongitudeDegrees>-1.1864880658686161041259765625</LongitudeDegrees>
            </Position>
            <AltitudeMeters>586.20001220703125</AltitudeMeters>
            <DistanceMeters>NAN</DistanceMeters>
          </Trackpoint>
          <Trackpoint>
            <Time>2020-05-25T06:18:03.000Z</Time>
            <Position>
              <LatitudeDegrees>38.24885602109134197235107421875</LatitudeDegrees>
              <LongitudeDegrees>-1.1864880658686161041259765625</LongitudeDegrees>
            </Position>
            <AltitudeMeters>586.4000244140625</AltitudeMeters>
            <DistanceMeters>NAN</DistanceMeters>
          </Trackpoint>
          <Trackpoint>
            <Time>2020-05-25T06:18:04.000Z</Time>
            <Position>
              <LatitudeDegrees>38.248845376074314117431640625</LatitudeDegrees>
              <LongitudeDegrees>-1.186500973999500274658203125</LongitudeDegrees>
            </Position>
            <AltitudeMeters>586.5999755859375</AltitudeMeters>
            <DistanceMeters>NAN</DistanceMeters>
          </Trackpoint>
          <Trackpoint>
            <Time>2020-05-25T06:18:05.000Z</Time>
            <Position>
              <LatitudeDegrees>38.24883741326630115509033203125</LatitudeDegrees>
              <LongitudeDegrees>-1.186518408358097076416015625</LongitudeDegrees>
            </Position>
            <AltitudeMeters>586.79998779296875</AltitudeMeters>
            <DistanceMeters>NAN</DistanceMeters>
          </Trackpoint>
          <Trackpoint>
            <Time>2020-05-25T06:18:06.000Z</Time>
            <Position>
              <LatitudeDegrees>38.248826600611209869384765625</LatitudeDegrees>
              <LongitudeDegrees>-1.1865396983921527862548828125</LongitudeDegrees>
            </Position>
            <AltitudeMeters>587</AltitudeMeters>
            <DistanceMeters>NAN</DistanceMeters>
          </Trackpoint>
          <Trackpoint>
            <Time>2020-05-25T06:18:07.000Z</Time>
            <Position>
              <LatitudeDegrees>38.24881277047097682952880859375</LatitudeDegrees>
              <LongitudeDegrees>-1.18655922822654247283935546875</LongitudeDegrees>
            </Position>
            <AltitudeMeters>587</AltitudeMeters>
            <DistanceMeters>NAN</DistanceMeters>
          </Trackpoint>
          <Trackpoint>
            <Time>2020-05-25T06:18:08.000Z</Time>
            <Position>
              <LatitudeDegrees>38.24879332445561885833740234375</LatitudeDegrees>
              <LongitudeDegrees>-1.18657398037612438201904296875</LongitudeDegrees>
            </Position>
            <AltitudeMeters>587</AltitudeMeters>
            <DistanceMeters>NAN</DistanceMeters>
          </Trackpoint>
          <Trackpoint>
            <Time>2020-05-25T06:18:09.000Z</Time>
            <Position>
              <LatitudeDegrees>38.24876884929835796356201171875</LatitudeDegrees>
              <LongitudeDegrees>-1.186585463583469390869140625</LongitudeDegrees>
            </Position>
            <AltitudeMeters>587</AltitudeMeters>
            <DistanceMeters>NAN</DistanceMeters>
          </Trackpoint>
          <Trackpoint>
            <Time>2020-05-25T06:18:10.000Z</Time>
            <Position>
              <LatitudeDegrees>38.24874102137982845306396484375</LatitudeDegrees>
              <LongitudeDegrees>-1.18660097010433673858642578125</LongitudeDegrees>
            </Position>
            <AltitudeMeters>587</AltitudeMeters>
            <DistanceMeters>NAN</DistanceMeters>
          </Trackpoint>
          <Trackpoint>
            <Time>2020-05-25T06:18:11.000Z</Time>
            <Position>
              <LatitudeDegrees>38.2487154565751552581787109375</LatitudeDegrees>
              <LongitudeDegrees>-1.1866174824535846710205078125</LongitudeDegrees>
            </Position>
            <AltitudeMeters>587</AltitudeMeters>
            <DistanceMeters>NAN</DistanceMeters>
          </Trackpoint>
          <Trackpoint>
            <Time>2020-05-25T06:18:12.000Z</Time>
            <Position>
              <LatitudeDegrees>38.2486929930746555328369140625</LatitudeDegrees>
              <LongitudeDegrees>-1.18663935922086238861083984375</LongitudeDegrees>
            </Position>
            <AltitudeMeters>587.20001220703125</AltitudeMeters>
            <DistanceMeters>NAN</DistanceMeters>
          </Trackpoint>
          <Trackpoint>
            <Time>2020-05-25T06:18:13.000Z</Time>
            <Position>
              <LatitudeDegrees>38.24867597781121730804443359375</LatitudeDegrees>
              <LongitudeDegrees>-1.18666450493037700653076171875</LongitudeDegrees>
            </Position>
            <AltitudeMeters>587.20001220703125</AltitudeMeters>
            <DistanceMeters>NAN</DistanceMeters>
          </Trackpoint>
          <Trackpoint>
            <Time>2020-05-25T06:18:14.000Z</Time>
            <Position>
              <LatitudeDegrees>38.24866005219519138336181640625</LatitudeDegrees>
              <LongitudeDegrees>-1.1866935901343822479248046875</LongitudeDegrees>
            </Position>
            <AltitudeMeters>587.20001220703125</AltitudeMeters>
            <DistanceMeters>NAN</DistanceMeters>
          </Trackpoint>
          <Trackpoint>
            <Time>2020-05-25T06:18:15.000Z</Time>
            <Position>
              <LatitudeDegrees>38.2486463896930217742919921875</LatitudeDegrees>
              <LongitudeDegrees>-1.18672485463321208953857421875</LongitudeDegrees>
            </Position>
            <AltitudeMeters>587.20001220703125</AltitudeMeters>
            <DistanceMeters>NAN</DistanceMeters>
          </Trackpoint>
          <Trackpoint>
            <Time>2020-05-25T06:18:16.000Z</Time>
            <Position>
              <LatitudeDegrees>38.24863247573375701904296875</LatitudeDegrees>
              <LongitudeDegrees>-1.1867579631507396697998046875</LongitudeDegrees>
            </Position>
            <AltitudeMeters>587.20001220703125</AltitudeMeters>
            <DistanceMeters>NAN</DistanceMeters>
          </Trackpoint>
          <Trackpoint>
            <Time>2020-05-25T06:18:17.000Z</Time>
            <Position>
              <LatitudeDegrees>38.2486195676028728485107421875</LatitudeDegrees>
              <LongitudeDegrees>-1.18678788654506206512451171875</LongitudeDegrees>
            </Position>
            <AltitudeMeters>587.20001220703125</AltitudeMeters>
            <DistanceMeters>NAN</DistanceMeters>
          </Trackpoint>
          <Trackpoint>
            <Time>2020-05-25T06:18:18.000Z</Time>
            <Position>
              <LatitudeDegrees>38.2486024685204029083251953125</LatitudeDegrees>
              <LongitudeDegrees>-1.18681102059781551361083984375</LongitudeDegrees>
            </Position>
            <AltitudeMeters>587.4000244140625</AltitudeMeters>
            <DistanceMeters>NAN</DistanceMeters>
          </Trackpoint>
          <Trackpoint>
            <Time>2020-05-25T06:18:19.000Z</Time>
            <Position>
              <LatitudeDegrees>38.248583190143108367919921875</LatitudeDegrees>
              <LongitudeDegrees>-1.1868240125477313995361328125</LongitudeDegrees>
            </Position>
            <AltitudeMeters>587.4000244140625</AltitudeMeters>
            <DistanceMeters>NAN</DistanceMeters>
          </Trackpoint>
          <Trackpoint>
            <Time>2020-05-25T06:18:20.000Z</Time>
            <Position>
              <LatitudeDegrees>38.2485632412135601043701171875</LatitudeDegrees>
              <LongitudeDegrees>-1.186826191842555999755859375</LongitudeDegrees>
            </Position>
            <AltitudeMeters>587.4000244140625</AltitudeMeters>
            <DistanceMeters>NAN</DistanceMeters>
          </Trackpoint>
          <Trackpoint>
            <Time>2020-05-25T06:18:21.000Z</Time>
            <Position>
              <LatitudeDegrees>38.248544633388519287109375</LatitudeDegrees>
              <LongitudeDegrees>-1.1868225038051605224609375</LongitudeDegrees>
            </Position>
            <AltitudeMeters>587.4000244140625</AltitudeMeters>
            <DistanceMeters>NAN</DistanceMeters>
          </Trackpoint>
          <Trackpoint>
            <Time>2020-05-25T06:18:22.000Z</Time>
            <Position>
              <LatitudeDegrees>38.24852610938251018524169921875</LatitudeDegrees>
              <LongitudeDegrees>-1.18681923486292362213134765625</LongitudeDegrees>
            </Position>
            <AltitudeMeters>587.5999755859375</AltitudeMeters>
            <DistanceMeters>NAN</DistanceMeters>
          </Trackpoint>
          <Trackpoint>
            <Time>2020-05-25T06:18:23.000Z</Time>
            <Position>
              <LatitudeDegrees>38.24850867502391338348388671875</LatitudeDegrees>
              <LongitudeDegrees>-1.18681202642619609832763671875</LongitudeDegrees>
            </Position>
            <AltitudeMeters>587.5999755859375</AltitudeMeters>
            <DistanceMeters>NAN</DistanceMeters>
          </Trackpoint>
          <Trackpoint>
            <Time>2020-05-25T06:18:24.000Z</Time>
            <Position>
              <LatitudeDegrees>38.24850046075880527496337890625</LatitudeDegrees>
              <LongitudeDegrees>-1.18679844774305820465087890625</LongitudeDegrees>
            </Position>
            <AltitudeMeters>587.5999755859375</AltitudeMeters>
            <DistanceMeters>NAN</DistanceMeters>
          </Trackpoint>
          <Trackpoint>
            <Time>2020-05-25T06:18:25.000Z</Time>
            <Position>
              <LatitudeDegrees>38.24849844910204410552978515625</LatitudeDegrees>
              <LongitudeDegrees>-1.18678453378379344940185546875</LongitudeDegrees>
            </Position>
            <AltitudeMeters>587.5999755859375</AltitudeMeters>
            <DistanceMeters>NAN</DistanceMeters>
          </Trackpoint>
          <Trackpoint>
            <Time>2020-05-25T06:18:26.000Z</Time>
            <Position>
              <LatitudeDegrees>38.248497359454631805419921875</LatitudeDegrees>
              <LongitudeDegrees>-1.186772882938385009765625</LongitudeDegrees>
            </Position>
            <AltitudeMeters>587.5999755859375</AltitudeMeters>
            <DistanceMeters>NAN</DistanceMeters>
          </Trackpoint>
          <Trackpoint>
            <Time>2020-05-25T06:18:27.000Z</Time>
            <Position>
              <LatitudeDegrees>38.24849626980721950531005859375</LatitudeDegrees>
              <LongitudeDegrees>-1.186767518520355224609375</LongitudeDegrees>
            </Position>
            <AltitudeMeters>587.5999755859375</AltitudeMeters>
            <DistanceMeters>NAN</DistanceMeters>
          </Trackpoint>
          <Trackpoint>
            <Time>2020-05-25T06:18:28.000Z</Time>
            <Position>
              <LatitudeDegrees>38.2484921626746654510498046875</LatitudeDegrees>
              <LongitudeDegrees>-1.18675586767494678497314453125</LongitudeDegrees>
            </Position>
            <AltitudeMeters>587.5999755859375</AltitudeMeters>
            <DistanceMeters>NAN</DistanceMeters>
          </Trackpoint>
          <Trackpoint>
            <Time>2020-05-25T06:18:29.000Z</Time>
            <Position>
              <LatitudeDegrees>38.2484854571521282196044921875</LatitudeDegrees>
              <LongitudeDegrees>-1.18674547411501407623291015625</LongitudeDegrees>
            </Position>
            <AltitudeMeters>587.79998779296875</AltitudeMeters>
            <DistanceMeters>NAN</DistanceMeters>
          </Trackpoint>
          <Trackpoint>
            <Time>2020-05-25T06:18:30.000Z</Time>
            <Position>
              <LatitudeDegrees>38.248477242887020111083984375</LatitudeDegrees>
              <LongitudeDegrees>-1.18673407472670078277587890625</LongitudeDegrees>
            </Position>
            <AltitudeMeters>587.79998779296875</AltitudeMeters>
            <DistanceMeters>NAN</DistanceMeters>
          </Trackpoint>
          <Trackpoint>
            <Time>2020-05-25T06:18:31.000Z</Time>
            <Position>
              <LatitudeDegrees>38.24846944771707057952880859375</LatitudeDegrees>
              <LongitudeDegrees>-1.1867241002619266510009765625</LongitudeDegrees>
            </Position>
            <AltitudeMeters>587.79998779296875</AltitudeMeters>
            <DistanceMeters>NAN</DistanceMeters>
          </Trackpoint>
          <Trackpoint>
            <Time>2020-05-25T06:18:32.000Z</Time>
            <Position>
              <LatitudeDegrees>38.2484680227935314178466796875</LatitudeDegrees>
              <LongitudeDegrees>-1.18672267533838748931884765625</LongitudeDegrees>
            </Position>
            <AltitudeMeters>587.79998779296875</AltitudeMeters>
            <DistanceMeters>NAN</DistanceMeters>
          </Trackpoint>
          <Trackpoint>
            <Time>2020-05-25T06:18:33.000Z</Time>
            <Position>
              <LatitudeDegrees>38.2484673522412776947021484375</LatitudeDegrees>
              <LongitudeDegrees>-1.18672234006226062774658203125</LongitudeDegrees>
            </Position>
            <AltitudeMeters>588</AltitudeMeters>
            <DistanceMeters>NAN</DistanceMeters>
          </Trackpoint>
          <Trackpoint>
            <Time>2020-05-25T06:19:34.000Z</Time>
            <Position>
              <LatitudeDegrees>38.248438350856304168701171875</LatitudeDegrees>
              <LongitudeDegrees>-1.1868560314178466796875</LongitudeDegrees>
            </Position>
            <AltitudeMeters>588.4000244140625</AltitudeMeters>
            <DistanceMeters>NAN</DistanceMeters>
          </Trackpoint>
          <Trackpoint>
            <Time>2020-05-25T06:19:35.000Z</Time>
            <Position>
              <LatitudeDegrees>38.2484536059200763702392578125</LatitudeDegrees>
              <LongitudeDegrees>-1.18687137030065059661865234375</LongitudeDegrees>
            </Position>
            <AltitudeMeters>588.4000244140625</AltitudeMeters>
            <DistanceMeters>NAN</DistanceMeters>
          </Trackpoint>
          <Trackpoint>
            <Time>2020-05-25T06:19:36.000Z</Time>
            <Position>
              <LatitudeDegrees>38.2484536059200763702392578125</LatitudeDegrees>
              <LongitudeDegrees>-1.18687137030065059661865234375</LongitudeDegrees>
            </Position>
            <AltitudeMeters>588.4000244140625</AltitudeMeters>
            <DistanceMeters>NAN</DistanceMeters>
          </Trackpoint>
          <Trackpoint>
            <Time>2020-05-25T06:19:37.000Z</Time>
            <Position>
              <LatitudeDegrees>38.2484814338386058807373046875</LatitudeDegrees>
              <LongitudeDegrees>-1.1868840269744396209716796875</LongitudeDegrees>
            </Position>
            <AltitudeMeters>588.4000244140625</AltitudeMeters>
            <DistanceMeters>NAN</DistanceMeters>
          </Trackpoint>
          <Trackpoint>
            <Time>2020-05-25T06:19:38.000Z</Time>
            <Position>
              <LatitudeDegrees>38.24850012548267841339111328125</LatitudeDegrees>
              <LongitudeDegrees>-1.1868734657764434814453125</LongitudeDegrees>
            </Position>
            <AltitudeMeters>588.4000244140625</AltitudeMeters>
            <DistanceMeters>NAN</DistanceMeters>
          </Trackpoint>
          <Trackpoint>
            <Time>2020-05-25T06:19:39.000Z</Time>
            <Position>
              <LatitudeDegrees>38.24851504527032375335693359375</LatitudeDegrees>
              <LongitudeDegrees>-1.18685963563621044158935546875</LongitudeDegrees>
            </Position>
            <AltitudeMeters>588.4000244140625</AltitudeMeters>
            <DistanceMeters>NAN</DistanceMeters>
          </Trackpoint>
          <Trackpoint>
            <Time>2020-05-25T06:19:40.000Z</Time>
            <Position>
              <LatitudeDegrees>38.24852677993476390838623046875</LatitudeDegrees>
              <LongitudeDegrees>-1.186840273439884185791015625</LongitudeDegrees>
            </Position>
            <AltitudeMeters>588.4000244140625</AltitudeMeters>
            <DistanceMeters>NAN</DistanceMeters>
          </Trackpoint>
          <Trackpoint>
            <Time>2020-05-25T06:19:41.000Z</Time>
            <Position>
              <LatitudeDegrees>38.2485303841531276702880859375</LatitudeDegrees>
              <LongitudeDegrees>-1.18681990541517734527587890625</LongitudeDegrees>
            </Position>
            <AltitudeMeters>588.4000244140625</AltitudeMeters>
            <DistanceMeters>NAN</DistanceMeters>
          </Trackpoint>
          <Trackpoint>
            <Time>2020-05-25T06:19:42.000Z</Time>
            <Position>
              <LatitudeDegrees>38.24852879159152507781982421875</LatitudeDegrees>
              <LongitudeDegrees>-1.18679928593337535858154296875</LongitudeDegrees>
            </Position>
            <AltitudeMeters>588.4000244140625</AltitudeMeters>
            <DistanceMeters>NAN</DistanceMeters>
          </Trackpoint>
          <Trackpoint>
            <Time>2020-05-25T06:19:43.000Z</Time>
            <Position>
              <LatitudeDegrees>38.24852325953543186187744140625</LatitudeDegrees>
              <LongitudeDegrees>-1.1867821030318737030029296875</LongitudeDegrees>
            </Position>
            <AltitudeMeters>588.20001220703125</AltitudeMeters>
            <DistanceMeters>NAN</DistanceMeters>
          </Trackpoint>
          <Trackpoint>
            <Time>2020-05-25T06:19:44.000Z</Time>
            <Position>
              <LatitudeDegrees>38.24851705692708492279052734375</LatitudeDegrees>
              <LongitudeDegrees>-1.18676961399614810943603515625</LongitudeDegrees>
            </Position>
            <AltitudeMeters>588</AltitudeMeters>
            <DistanceMeters>NAN</DistanceMeters>
          </Trackpoint>
          <Trackpoint>
            <Time>2020-05-25T06:19:45.000Z</Time>
            <Position>
              <LatitudeDegrees>38.24851336888968944549560546875</LatitudeDegrees>
              <LongitudeDegrees>-1.18676307611167430877685546875</LongitudeDegrees>
            </Position>
            <AltitudeMeters>587.79998779296875</AltitudeMeters>
            <DistanceMeters>NAN</DistanceMeters>
          </Trackpoint>
          <Trackpoint>
            <Time>2020-05-25T06:19:46.000Z</Time>
            <Position>
              <LatitudeDegrees>38.248512782156467437744140625</LatitudeDegrees>
              <LongitudeDegrees>-1.18676324374973773956298828125</LongitudeDegrees>
            </Position>
            <AltitudeMeters>587.5999755859375</AltitudeMeters>
            <DistanceMeters>NAN</DistanceMeters>
          </Trackpoint>
          <Trackpoint>
            <Time>2020-05-25T06:21:59.000Z</Time>
            <Position>
              <LatitudeDegrees>38.248654939234256744384765625</LatitudeDegrees>
              <LongitudeDegrees>-1.18667657487094402313232421875</LongitudeDegrees>
            </Position>
            <AltitudeMeters>587</AltitudeMeters>
            <DistanceMeters>NAN</DistanceMeters>
          </Trackpoint>
          <Trackpoint>
            <Time>2020-05-25T06:22:00.000Z</Time>
            <Position>
              <LatitudeDegrees>38.2486639916896820068359375</LatitudeDegrees>
              <LongitudeDegrees>-1.18667171336710453033447265625</LongitudeDegrees>
            </Position>
            <AltitudeMeters>587</AltitudeMeters>
            <DistanceMeters>NAN</DistanceMeters>
          </Trackpoint>
          <Trackpoint>
            <Time>2020-05-25T06:22:01.000Z</Time>
            <Position>
              <LatitudeDegrees>38.24867480434477329254150390625</LatitudeDegrees>
              <LongitudeDegrees>-1.18666827678680419921875</LongitudeDegrees>
            </Position>
            <AltitudeMeters>587</AltitudeMeters>
            <DistanceMeters>NAN</DistanceMeters>
          </Trackpoint>
          <Trackpoint>
            <Time>2020-05-25T06:22:02.000Z</Time>
            <Position>
              <LatitudeDegrees>38.248683102428913116455078125</LatitudeDegrees>
              <LongitudeDegrees>-1.1866593919694423675537109375</LongitudeDegrees>
            </Position>
            <AltitudeMeters>587</AltitudeMeters>
            <DistanceMeters>NAN</DistanceMeters>
          </Trackpoint>
          <Trackpoint>
            <Time>2020-05-25T06:22:03.000Z</Time>
            <Position>
              <LatitudeDegrees>38.24869005940854549407958984375</LatitudeDegrees>
              <LongitudeDegrees>-1.18664304725825786590576171875</LongitudeDegrees>
            </Position>
            <AltitudeMeters>587</AltitudeMeters>
            <DistanceMeters>NAN</DistanceMeters>
          </Trackpoint>
          <Trackpoint>
            <Time>2020-05-25T06:22:04.000Z</Time>
            <Position>
              <LatitudeDegrees>38.2486869581043720245361328125</LatitudeDegrees>
              <LongitudeDegrees>-1.18662980385124683380126953125</LongitudeDegrees>
            </Position>
            <AltitudeMeters>587</AltitudeMeters>
            <DistanceMeters>NAN</DistanceMeters>
          </Trackpoint>
          <Trackpoint>
            <Time>2020-05-25T06:22:05.000Z</Time>
            <Position>
              <LatitudeDegrees>38.248690478503704071044921875</LatitudeDegrees>
              <LongitudeDegrees>-1.18661823682487010955810546875</LongitudeDegrees>
            </Position>
            <AltitudeMeters>586.79998779296875</AltitudeMeters>
            <DistanceMeters>NAN</DistanceMeters>
          </Trackpoint>
          <Trackpoint>
            <Time>2020-05-25T06:22:06.000Z</Time>
            <Position>
              <LatitudeDegrees>38.2486961781978607177734375</LatitudeDegrees>
              <LongitudeDegrees>-1.18660591542720794677734375</LongitudeDegrees>
            </Position>
            <AltitudeMeters>586.79998779296875</AltitudeMeters>
            <DistanceMeters>NAN</DistanceMeters>
          </Trackpoint>
          <Trackpoint>
            <Time>2020-05-25T06:22:07.000Z</Time>
            <Position>
              <LatitudeDegrees>38.248714618384838104248046875</LatitudeDegrees>
              <LongitudeDegrees>-1.186598874628543853759765625</LongitudeDegrees>
            </Position>
            <AltitudeMeters>586.79998779296875</AltitudeMeters>
            <DistanceMeters>NAN</DistanceMeters>
          </Trackpoint>
          <Trackpoint>
            <Time>2020-05-25T06:22:08.000Z</Time>
            <Position>
              <LatitudeDegrees>38.24873582459986209869384765625</LatitudeDegrees>
              <LongitudeDegrees>-1.1865998804569244384765625</LongitudeDegrees>
            </Position>
            <AltitudeMeters>586.79998779296875</AltitudeMeters>
            <DistanceMeters>NAN</DistanceMeters>
          </Trackpoint>
          <Trackpoint>
            <Time>2020-05-25T06:22:09.000Z</Time>
            <Position>
              <LatitudeDegrees>38.248755522072315216064453125</LatitudeDegrees>
              <LongitudeDegrees>-1.1865916661918163299560546875</LongitudeDegrees>
            </Position>
            <AltitudeMeters>586.79998779296875</AltitudeMeters>
            <DistanceMeters>NAN</DistanceMeters>
          </Trackpoint>
          <Trackpoint>
            <Time>2020-05-25T06:22:10.000Z</Time>
            <Position>
              <LatitudeDegrees>38.24877086095511913299560546875</LatitudeDegrees>
              <LongitudeDegrees>-1.1865765787661075592041015625</LongitudeDegrees>
            </Position>
            <AltitudeMeters>586.79998779296875</AltitudeMeters>
            <DistanceMeters>NAN</DistanceMeters>
          </Trackpoint>
          <Trackpoint>
            <Time>2020-05-25T06:22:11.000Z</Time>
            <Position>
              <LatitudeDegrees>38.24880220927298069000244140625</LatitudeDegrees>
              <LongitudeDegrees>-1.18655235506594181060791015625</LongitudeDegrees>
            </Position>
            <AltitudeMeters>586.5999755859375</AltitudeMeters>
            <DistanceMeters>NAN</DistanceMeters>
          </Trackpoint>
          <Trackpoint>
            <Time>2020-05-25T06:22:12.000Z</Time>
            <Position>
              <LatitudeDegrees>38.24882584623992443084716796875</LatitudeDegrees>
              <LongitudeDegrees>-1.186525784432888031005859375</LongitudeDegrees>
            </Position>
            <AltitudeMeters>586.5999755859375</AltitudeMeters>
            <DistanceMeters>NAN</DistanceMeters>
          </Trackpoint>
          <Trackpoint>
            <Time>2020-05-25T06:22:13.000Z</Time>
            <Position>
              <LatitudeDegrees>38.24884596280753612518310546875</LatitudeDegrees>
              <LongitudeDegrees>-1.18650189600884914398193359375</LongitudeDegrees>
            </Position>
            <AltitudeMeters>586.5999755859375</AltitudeMeters>
            <DistanceMeters>NAN</DistanceMeters>
          </Trackpoint>
          <Trackpoint>
            <Time>2020-05-25T06:22:14.000Z</Time>
            <Position>
              <LatitudeDegrees>38.2488646544516086578369140625</LatitudeDegrees>
              <LongitudeDegrees>-1.18647088296711444854736328125</LongitudeDegrees>
            </Position>
            <AltitudeMeters>586.5999755859375</AltitudeMeters>
            <DistanceMeters>NAN</DistanceMeters>
          </Trackpoint>
          <Trackpoint>
            <Time>2020-05-25T06:22:15.000Z</Time>
            <Position>
              <LatitudeDegrees>38.24888787232339382171630859375</LatitudeDegrees>
              <LongitudeDegrees>-1.18643919937312602996826171875</LongitudeDegrees>
            </Position>
            <AltitudeMeters>586.5999755859375</AltitudeMeters>
            <DistanceMeters>NAN</DistanceMeters>
          </Trackpoint>
          <Trackpoint>
            <Time>2020-05-25T06:22:16.000Z</Time>
            <Position>
              <LatitudeDegrees>38.2489120960235595703125</LatitudeDegrees>
              <LongitudeDegrees>-1.18640600703656673431396484375</LongitudeDegrees>
            </Position>
            <AltitudeMeters>586.4000244140625</AltitudeMeters>
            <DistanceMeters>NAN</DistanceMeters>
          </Trackpoint>
          <Trackpoint>
            <Time>2020-05-25T06:22:17.000Z</Time>
            <Position>
              <LatitudeDegrees>38.248933218419551849365234375</LatitudeDegrees>
              <LongitudeDegrees>-1.18637113831937313079833984375</LongitudeDegrees>
            </Position>
            <AltitudeMeters>586.4000244140625</AltitudeMeters>
            <DistanceMeters>NAN</DistanceMeters>
          </Trackpoint>
          <Trackpoint>
            <Time>2020-05-25T06:22:18.000Z</Time>
            <Position>
              <LatitudeDegrees>38.248957358300685882568359375</LatitudeDegrees>
              <LongitudeDegrees>-1.1863351799547672271728515625</LongitudeDegrees>
            </Position>
            <AltitudeMeters>586.20001220703125</AltitudeMeters>
            <DistanceMeters>NAN</DistanceMeters>
          </Trackpoint>
          <Trackpoint>
            <Time>2020-05-25T06:22:19.000Z</Time>
            <Position>
              <LatitudeDegrees>38.24898275546729564666748046875</LatitudeDegrees>
              <LongitudeDegrees>-1.1862966232001781463623046875</LongitudeDegrees>
            </Position>
            <AltitudeMeters>586.20001220703125</AltitudeMeters>
            <DistanceMeters>NAN</DistanceMeters>
          </Trackpoint>
          <Trackpoint>
            <Time>2020-05-25T06:22:20.000Z</Time>
            <Position>
              <LatitudeDegrees>38.249011337757110595703125</LatitudeDegrees>
              <LongitudeDegrees>-1.18625949136912822723388671875</LongitudeDegrees>
            </Position>
            <AltitudeMeters>586.20001220703125</AltitudeMeters>
            <DistanceMeters>NAN</DistanceMeters>
          </Trackpoint>
          <Trackpoint>
            <Time>2020-05-25T06:22:21.000Z</Time>
            <Position>
              <LatitudeDegrees>38.2490433566272258758544921875</LatitudeDegrees>
              <LongitudeDegrees>-1.18622797541320323944091796875</LongitudeDegrees>
            </Position>
            <AltitudeMeters>586.20001220703125</AltitudeMeters>
            <DistanceMeters>NAN</DistanceMeters>
          </Trackpoint>
          <Trackpoint>
            <Time>2020-05-25T06:22:22.000Z</Time>
            <Position>
              <LatitudeDegrees>38.2490772195160388946533203125</LatitudeDegrees>
              <LongitudeDegrees>-1.18619226850569248199462890625</LongitudeDegrees>
            </Position>
            <AltitudeMeters>586</AltitudeMeters>
            <DistanceMeters>NAN</DistanceMeters>
          </Trackpoint>
          <Trackpoint>
            <Time>2020-05-25T06:22:23.000Z</Time>
            <Position>
              <LatitudeDegrees>38.24911066330969333648681640625</LatitudeDegrees>
              <LongitudeDegrees>-1.1861581541597843170166015625</LongitudeDegrees>
            </Position>
            <AltitudeMeters>586</AltitudeMeters>
            <DistanceMeters>NAN</DistanceMeters>
          </Trackpoint>
          <Trackpoint>
            <Time>2020-05-25T06:22:24.000Z</Time>
            <Position>
              <LatitudeDegrees>38.24914553202688694000244140625</LatitudeDegrees>
              <LongitudeDegrees>-1.186118759214878082275390625</LongitudeDegrees>
            </Position>
            <AltitudeMeters>585.79998779296875</AltitudeMeters>
            <DistanceMeters>NAN</DistanceMeters>
          </Trackpoint>
          <Trackpoint>
            <Time>2020-05-25T06:22:25.000Z</Time>
            <Position>
              <LatitudeDegrees>38.24917453341186046600341796875</LatitudeDegrees>
              <LongitudeDegrees>-1.18607508949935436248779296875</LongitudeDegrees>
            </Position>
            <AltitudeMeters>585.79998779296875</AltitudeMeters>
            <DistanceMeters>NAN</DistanceMeters>
          </Trackpoint>
          <Trackpoint>
            <Time>2020-05-25T06:22:26.000Z</Time>
            <Position>
              <LatitudeDegrees>38.2492073066532611846923828125</LatitudeDegrees>
              <LongitudeDegrees>-1.1860341019928455352783203125</LongitudeDegrees>
            </Position>
            <AltitudeMeters>585.5999755859375</AltitudeMeters>
            <DistanceMeters>NAN</DistanceMeters>
          </Trackpoint>
          <Trackpoint>
            <Time>2020-05-25T06:22:27.000Z</Time>
            <Position>
              <LatitudeDegrees>38.249225579202175140380859375</LatitudeDegrees>
              <LongitudeDegrees>-1.18598707951605319976806640625</LongitudeDegrees>
            </Position>
            <AltitudeMeters>585.5999755859375</AltitudeMeters>
            <DistanceMeters>NAN</DistanceMeters>
          </Trackpoint>
          <Trackpoint>
            <Time>2020-05-25T06:22:28.000Z</Time>
            <Position>
              <LatitudeDegrees>38.24924075044691562652587890625</LatitudeDegrees>
              <LongitudeDegrees>-1.18593829683959484100341796875</LongitudeDegrees>
            </Position>
            <AltitudeMeters>585.4000244140625</AltitudeMeters>
            <DistanceMeters>NAN</DistanceMeters>
          </Trackpoint>
          <Trackpoint>
            <Time>2020-05-25T06:22:29.000Z</Time>
            <Position>
              <LatitudeDegrees>38.24925147928297519683837890625</LatitudeDegrees>
              <LongitudeDegrees>-1.18589638732373714447021484375</LongitudeDegrees>
            </Position>
            <AltitudeMeters>585.20001220703125</AltitudeMeters>
            <DistanceMeters>NAN</DistanceMeters>
          </Trackpoint>
          <Trackpoint>
            <Time>2020-05-25T06:22:30.000Z</Time>
            <Position>
              <LatitudeDegrees>38.24925164692103862762451171875</LatitudeDegrees>
              <LongitudeDegrees>-1.1858500353991985321044921875</LongitudeDegrees>
            </Position>
            <AltitudeMeters>585.20001220703125</AltitudeMeters>
            <DistanceMeters>NAN</DistanceMeters>
          </Trackpoint>
          <Trackpoint>
            <Time>2020-05-25T06:22:31.000Z</Time>
            <Position>
              <LatitudeDegrees>38.2492461986839771270751953125</LatitudeDegrees>
              <LongitudeDegrees>-1.18580619804561138153076171875</LongitudeDegrees>
            </Position>
            <AltitudeMeters>585.20001220703125</AltitudeMeters>
            <DistanceMeters>NAN</DistanceMeters>
          </Trackpoint>
          <Trackpoint>
            <Time>2020-05-25T06:22:32.000Z</Time>
            <Position>
              <LatitudeDegrees>38.24923320673406124114990234375</LatitudeDegrees>
              <LongitudeDegrees>-1.18576294742524623870849609375</LongitudeDegrees>
            </Position>
            <AltitudeMeters>585</AltitudeMeters>
            <DistanceMeters>NAN</DistanceMeters>
          </Trackpoint>
          <Trackpoint>
            <Time>2020-05-25T06:22:33.000Z</Time>
            <Position>
              <LatitudeDegrees>38.24921778403222560882568359375</LatitudeDegrees>
              <LongitudeDegrees>-1.1857249774038791656494140625</LongitudeDegrees>
            </Position>
            <AltitudeMeters>585</AltitudeMeters>
            <DistanceMeters>NAN</DistanceMeters>
          </Trackpoint>
          <Trackpoint>
            <Time>2020-05-25T06:22:34.000Z</Time>
            <Position>
              <LatitudeDegrees>38.24920177459716796875</LatitudeDegrees>
              <LongitudeDegrees>-1.1856877617537975311279296875</LongitudeDegrees>
            </Position>
            <AltitudeMeters>585</AltitudeMeters>
            <DistanceMeters>NAN</DistanceMeters>
          </Trackpoint>
          <Trackpoint>
            <Time>2020-05-25T06:22:35.000Z</Time>
            <Position>
              <LatitudeDegrees>38.24918325059115886688232421875</LatitudeDegrees>
              <LongitudeDegrees>-1.18565163575112819671630859375</LongitudeDegrees>
            </Position>
            <AltitudeMeters>585</AltitudeMeters>
            <DistanceMeters>NAN</DistanceMeters>
          </Trackpoint>
          <Trackpoint>
            <Time>2020-05-25T06:22:36.000Z</Time>
            <Position>
              <LatitudeDegrees>38.24916916899383068084716796875</LatitudeDegrees>
              <LongitudeDegrees>-1.18561592884361743927001953125</LongitudeDegrees>
            </Position>
            <AltitudeMeters>585</AltitudeMeters>
            <DistanceMeters>NAN</DistanceMeters>
          </Trackpoint>
          <Trackpoint>
            <Time>2020-05-25T06:22:37.000Z</Time>
            <Position>
              <LatitudeDegrees>38.24915659613907337188720703125</LatitudeDegrees>
              <LongitudeDegrees>-1.18558240123093128204345703125</LongitudeDegrees>
            </Position>
            <AltitudeMeters>585</AltitudeMeters>
            <DistanceMeters>NAN</DistanceMeters>
          </Trackpoint>
          <Trackpoint>
            <Time>2020-05-25T06:22:38.000Z</Time>
            <Position>
              <LatitudeDegrees>38.2491419278085231781005859375</LatitudeDegrees>
              <LongitudeDegrees>-1.18555180728435516357421875</LongitudeDegrees>
            </Position>
            <AltitudeMeters>584.79998779296875</AltitudeMeters>
            <DistanceMeters>NAN</DistanceMeters>
          </Trackpoint>
          <Trackpoint>
            <Time>2020-05-25T06:22:39.000Z</Time>
            <Position>
              <LatitudeDegrees>38.24912306852638721466064453125</LatitudeDegrees>
              <LongitudeDegrees>-1.1855244822800159454345703125</LongitudeDegrees>
            </Position>
            <AltitudeMeters>584.79998779296875</AltitudeMeters>
            <DistanceMeters>NAN</DistanceMeters>
          </Trackpoint>
          <Trackpoint>
            <Time>2020-05-25T06:22:40.000Z</Time>
            <Position>
              <LatitudeDegrees>38.24909985065460205078125</LatitudeDegrees>
              <LongitudeDegrees>-1.1854996718466281890869140625</LongitudeDegrees>
            </Position>
            <AltitudeMeters>584.79998779296875</AltitudeMeters>
            <DistanceMeters>NAN</DistanceMeters>
          </Trackpoint>
          <Trackpoint>
            <Time>2020-05-25T06:22:41.000Z</Time>
            <Position>
              <LatitudeDegrees>38.2490721903741359710693359375</LatitudeDegrees>
              <LongitudeDegrees>-1.185475699603557586669921875</LongitudeDegrees>
            </Position>
            <AltitudeMeters>585</AltitudeMeters>
            <DistanceMeters>NAN</DistanceMeters>
          </Trackpoint>
          <Trackpoint>
            <Time>2020-05-25T06:22:42.000Z</Time>
            <Position>
              <LatitudeDegrees>38.24904310517013072967529296875</LatitudeDegrees>
              <LongitudeDegrees>-1.1854510568082332611083984375</LongitudeDegrees>
            </Position>
            <AltitudeMeters>585</AltitudeMeters>
            <DistanceMeters>NAN</DistanceMeters>
          </Trackpoint>
          <Trackpoint>
            <Time>2020-05-25T06:22:43.000Z</Time>
            <Position>
              <LatitudeDegrees>38.2490104995667934417724609375</LatitudeDegrees>
              <LongitudeDegrees>-1.18542431853711605072021484375</LongitudeDegrees>
            </Position>
            <AltitudeMeters>584.79998779296875</AltitudeMeters>
            <DistanceMeters>NAN</DistanceMeters>
          </Trackpoint>
          <Trackpoint>
            <Time>2020-05-25T06:22:44.000Z</Time>
            <Position>
              <LatitudeDegrees>38.248975463211536407470703125</LatitudeDegrees>
              <LongitudeDegrees>-1.1853967420756816864013671875</LongitudeDegrees>
            </Position>
            <AltitudeMeters>584.79998779296875</AltitudeMeters>
            <DistanceMeters>NAN</DistanceMeters>
          </Trackpoint>
          <Trackpoint>
            <Time>2020-05-25T06:22:45.000Z</Time>
            <Position>
              <LatitudeDegrees>38.2489374093711376190185546875</LatitudeDegrees>
              <LongitudeDegrees>-1.18536765687167644500732421875</LongitudeDegrees>
            </Position>
            <AltitudeMeters>584.79998779296875</AltitudeMeters>
            <DistanceMeters>NAN</DistanceMeters>
          </Trackpoint>
          <Trackpoint>
            <Time>2020-05-25T06:22:46.000Z</Time>
            <Position>
              <LatitudeDegrees>38.2488968409597873687744140625</LatitudeDegrees>
              <LongitudeDegrees>-1.1853397451341152191162109375</LongitudeDegrees>
            </Position>
            <AltitudeMeters>584.79998779296875</AltitudeMeters>
            <DistanceMeters>NAN</DistanceMeters>
          </Trackpoint>
          <Trackpoint>
            <Time>2020-05-25T06:22:47.000Z</Time>
            <Position>
              <LatitudeDegrees>38.24885384179651737213134765625</LatitudeDegrees>
              <LongitudeDegrees>-1.1853132583200931549072265625</LongitudeDegrees>
            </Position>
            <AltitudeMeters>584.79998779296875</AltitudeMeters>
            <DistanceMeters>NAN</DistanceMeters>
          </Trackpoint>
          <Trackpoint>
            <Time>2020-05-25T06:22:48.000Z</Time>
            <Position>
              <LatitudeDegrees>38.24880522675812244415283203125</LatitudeDegrees>
              <LongitudeDegrees>-1.185295321047306060791015625</LongitudeDegrees>
            </Position>
            <AltitudeMeters>584.79998779296875</AltitudeMeters>
            <DistanceMeters>NAN</DistanceMeters>
          </Trackpoint>
          <Trackpoint>
            <Time>2020-05-25T06:22:49.000Z</Time>
            <Position>
              <LatitudeDegrees>38.24875661171972751617431640625</LatitudeDegrees>
              <LongitudeDegrees>-1.18528450839221477508544921875</LongitudeDegrees>
            </Position>
            <AltitudeMeters>584.5999755859375</AltitudeMeters>
            <DistanceMeters>NAN</DistanceMeters>
          </Trackpoint>
          <Trackpoint>
            <Time>2020-05-25T06:22:50.000Z</Time>
            <Position>
              <LatitudeDegrees>38.248710595071315765380859375</LatitudeDegrees>
              <LongitudeDegrees>-1.1852773837745189666748046875</LongitudeDegrees>
            </Position>
            <AltitudeMeters>584.4000244140625</AltitudeMeters>
            <DistanceMeters>NAN</DistanceMeters>
          </Trackpoint>
          <Trackpoint>
            <Time>2020-05-25T06:22:51.000Z</Time>
            <Position>
              <LatitudeDegrees>38.248662985861301422119140625</LatitudeDegrees>
              <LongitudeDegrees>-1.18527562357485294342041015625</LongitudeDegrees>
            </Position>
            <AltitudeMeters>583.79998779296875</AltitudeMeters>
            <DistanceMeters>NAN</DistanceMeters>
          </Trackpoint>
          <Trackpoint>
            <Time>2020-05-25T06:22:52.000Z</Time>
            <Position>
              <LatitudeDegrees>38.24861663393676280975341796875</LatitudeDegrees>
              <LongitudeDegrees>-1.18527612648904323577880859375</LongitudeDegrees>
            </Position>
            <AltitudeMeters>583.20001220703125</AltitudeMeters>
            <DistanceMeters>NAN</DistanceMeters>
          </Trackpoint>
          <Trackpoint>
            <Time>2020-05-25T06:22:53.000Z</Time>
            <Position>
              <LatitudeDegrees>38.24856810271739959716796875</LatitudeDegrees>
              <LongitudeDegrees>-1.18527729995548725128173828125</LongitudeDegrees>
            </Position>
            <AltitudeMeters>582.79998779296875</AltitudeMeters>
            <DistanceMeters>NAN</DistanceMeters>
          </Trackpoint>
          <Trackpoint>
            <Time>2020-05-25T06:22:54.000Z</Time>
            <Position>
              <LatitudeDegrees>38.24851504527032375335693359375</LatitudeDegrees>
              <LongitudeDegrees>-1.185280568897724151611328125</LongitudeDegrees>
            </Position>
            <AltitudeMeters>582.20001220703125</AltitudeMeters>
            <DistanceMeters>NAN</DistanceMeters>
          </Trackpoint>
          <Trackpoint>
            <Time>2020-05-25T06:22:55.000Z</Time>
            <Position>
              <LatitudeDegrees>38.2484636642038822174072265625</LatitudeDegrees>
              <LongitudeDegrees>-1.18528098799288272857666015625</LongitudeDegrees>
            </Position>
            <AltitudeMeters>581.79998779296875</AltitudeMeters>
            <DistanceMeters>NAN</DistanceMeters>
          </Trackpoint>
          <Trackpoint>
            <Time>2020-05-25T06:22:56.000Z</Time>
            <Position>
              <LatitudeDegrees>38.248413540422916412353515625</LatitudeDegrees>
              <LongitudeDegrees>-1.18528970517218112945556640625</LongitudeDegrees>
            </Position>
            <AltitudeMeters>580.79998779296875</AltitudeMeters>
            <DistanceMeters>NAN</DistanceMeters>
          </Trackpoint>
          <Trackpoint>
            <Time>2020-05-25T06:22:57.000Z</Time>
            <Position>
              <LatitudeDegrees>38.248367272317409515380859375</LatitudeDegrees>
              <LongitudeDegrees>-1.185310073196887969970703125</LongitudeDegrees>
            </Position>
            <AltitudeMeters>580.4000244140625</AltitudeMeters>
            <DistanceMeters>NAN</DistanceMeters>
          </Trackpoint>
          <Trackpoint>
            <Time>2020-05-25T06:22:58.000Z</Time>
            <Position>
              <LatitudeDegrees>38.24832963757216930389404296875</LatitudeDegrees>
              <LongitudeDegrees>-1.18533999659121036529541015625</LongitudeDegrees>
            </Position>
            <AltitudeMeters>580</AltitudeMeters>
            <DistanceMeters>NAN</DistanceMeters>
          </Trackpoint>
          <Trackpoint>
            <Time>2020-05-25T06:22:59.000Z</Time>
            <Position>
              <LatitudeDegrees>38.24829007498919963836669921875</LatitudeDegrees>
              <LongitudeDegrees>-1.18538282811641693115234375</LongitudeDegrees>
            </Position>
            <AltitudeMeters>579.5999755859375</AltitudeMeters>
            <DistanceMeters>NAN</DistanceMeters>
          </Trackpoint>
          <Trackpoint>
            <Time>2020-05-25T06:23:00.000Z</Time>
            <Position>
              <LatitudeDegrees>38.2482470758259296417236328125</LatitudeDegrees>
              <LongitudeDegrees>-1.185430102050304412841796875</LongitudeDegrees>
            </Position>
            <AltitudeMeters>579.4000244140625</AltitudeMeters>
            <DistanceMeters>NAN</DistanceMeters>
          </Trackpoint>
          <Trackpoint>
            <Time>2020-05-25T06:23:01.000Z</Time>
            <Position>
              <LatitudeDegrees>38.2482051663100719451904296875</LatitudeDegrees>
              <LongitudeDegrees>-1.18547209538519382476806640625</LongitudeDegrees>
            </Position>
            <AltitudeMeters>579.20001220703125</AltitudeMeters>
            <DistanceMeters>NAN</DistanceMeters>
          </Trackpoint>
          <Trackpoint>
            <Time>2020-05-25T06:23:02.000Z</Time>
            <Position>
              <LatitudeDegrees>38.24816711246967315673828125</LatitudeDegrees>
              <LongitudeDegrees>-1.185505203902721405029296875</LongitudeDegrees>
            </Position>
            <AltitudeMeters>579.20001220703125</AltitudeMeters>
            <DistanceMeters>NAN</DistanceMeters>
          </Trackpoint>
          <Trackpoint>
            <Time>2020-05-25T06:23:03.000Z</Time>
            <Position>
              <LatitudeDegrees>38.24812830425798892974853515625</LatitudeDegrees>
              <LongitudeDegrees>-1.18553076870739459991455078125</LongitudeDegrees>
            </Position>
            <AltitudeMeters>579</AltitudeMeters>
            <DistanceMeters>NAN</DistanceMeters>
          </Trackpoint>
          <Trackpoint>
            <Time>2020-05-25T06:23:04.000Z</Time>
            <Position>
              <LatitudeDegrees>38.248082287609577178955078125</LatitudeDegrees>
              <LongitudeDegrees>-1.18553973734378814697265625</LongitudeDegrees>
            </Position>
            <AltitudeMeters>579</AltitudeMeters>
            <DistanceMeters>NAN</DistanceMeters>
          </Trackpoint>
          <Trackpoint>
            <Time>2020-05-25T06:23:05.000Z</Time>
            <Position>
              <LatitudeDegrees>38.2480378635227680206298828125</LatitudeDegrees>
              <LongitudeDegrees>-1.1855405755341053009033203125</LongitudeDegrees>
            </Position>
            <AltitudeMeters>578.79998779296875</AltitudeMeters>
            <DistanceMeters>NAN</DistanceMeters>
          </Trackpoint>
          <Trackpoint>
            <Time>2020-05-25T06:23:06.000Z</Time>
            <Position>
              <LatitudeDegrees>38.24799679219722747802734375</LatitudeDegrees>
              <LongitudeDegrees>-1.1855348758399486541748046875</LongitudeDegrees>
            </Position>
            <AltitudeMeters>578.79998779296875</AltitudeMeters>
            <DistanceMeters>NAN</DistanceMeters>
          </Trackpoint>
          <Trackpoint>
            <Time>2020-05-25T06:23:07.000Z</Time>
            <Position>
              <LatitudeDegrees>38.2479594089090824127197265625</LatitudeDegrees>
              <LongitudeDegrees>-1.185536049306392669677734375</LongitudeDegrees>
            </Position>
            <AltitudeMeters>578.5999755859375</AltitudeMeters>
            <DistanceMeters>NAN</DistanceMeters>
          </Trackpoint>
          <Trackpoint>
            <Time>2020-05-25T06:23:08.000Z</Time>
            <Position>
              <LatitudeDegrees>38.2479392923414707183837890625</LatitudeDegrees>
              <LongitudeDegrees>-1.1855563335120677947998046875</LongitudeDegrees>
            </Position>
            <AltitudeMeters>578.20001220703125</AltitudeMeters>
            <DistanceMeters>NAN</DistanceMeters>
          </Trackpoint>
          <Trackpoint>
            <Time>2020-05-25T06:23:09.000Z</Time>
            <Position>
              <LatitudeDegrees>38.24792546220123767852783203125</LatitudeDegrees>
              <LongitudeDegrees>-1.18559044785797595977783203125</LongitudeDegrees>
            </Position>
            <AltitudeMeters>578</AltitudeMeters>
            <DistanceMeters>NAN</DistanceMeters>
          </Trackpoint>
          <Trackpoint>
            <Time>2020-05-25T06:23:10.000Z</Time>
            <Position>
              <LatitudeDegrees>38.24792646802961826324462890625</LatitudeDegrees>
              <LongitudeDegrees>-1.18563093245029449462890625</LongitudeDegrees>
            </Position>
            <AltitudeMeters>577.79998779296875</AltitudeMeters>
            <DistanceMeters>NAN</DistanceMeters>
          </Trackpoint>
          <Trackpoint>
            <Time>2020-05-25T06:23:11.000Z</Time>
            <Position>
              <LatitudeDegrees>38.24793887324631214141845703125</LatitudeDegrees>
              <LongitudeDegrees>-1.18567661382257938385009765625</LongitudeDegrees>
            </Position>
            <AltitudeMeters>577.4000244140625</AltitudeMeters>
            <DistanceMeters>NAN</DistanceMeters>
          </Trackpoint>
          <Trackpoint>
            <Time>2020-05-25T06:23:12.000Z</Time>
            <Position>
              <LatitudeDegrees>38.24796016328036785125732421875</LatitudeDegrees>
              <LongitudeDegrees>-1.185725815594196319580078125</LongitudeDegrees>
            </Position>
            <AltitudeMeters>577</AltitudeMeters>
            <DistanceMeters>NAN</DistanceMeters>
          </Trackpoint>
          <Trackpoint>
            <Time>2020-05-25T06:23:13.000Z</Time>
            <Position>
              <LatitudeDegrees>38.247992098331451416015625</LatitudeDegrees>
              <LongitudeDegrees>-1.185775101184844970703125</LongitudeDegrees>
            </Position>
            <AltitudeMeters>576.4000244140625</AltitudeMeters>
            <DistanceMeters>NAN</DistanceMeters>
          </Trackpoint>
          <Trackpoint>
            <Time>2020-05-25T06:23:14.000Z</Time>
            <Position>
              <LatitudeDegrees>38.24803342111408710479736328125</LatitudeDegrees>
              <LongitudeDegrees>-1.1858275718986988067626953125</LongitudeDegrees>
            </Position>
            <AltitudeMeters>576</AltitudeMeters>
            <DistanceMeters>NAN</DistanceMeters>
          </Trackpoint>
          <Trackpoint>
            <Time>2020-05-25T06:23:15.000Z</Time>
            <Position>
              <LatitudeDegrees>38.24807650409638881683349609375</LatitudeDegrees>
              <LongitudeDegrees>-1.18588549084961414337158203125</LongitudeDegrees>
            </Position>
            <AltitudeMeters>575.4000244140625</AltitudeMeters>
            <DistanceMeters>NAN</DistanceMeters>
          </Trackpoint>
          <Trackpoint>
            <Time>2020-05-25T06:23:16.000Z</Time>
            <Position>
              <LatitudeDegrees>38.24812092818319797515869140625</LatitudeDegrees>
              <LongitudeDegrees>-1.1859548091888427734375</LongitudeDegrees>
            </Position>
            <AltitudeMeters>574.79998779296875</AltitudeMeters>
            <DistanceMeters>NAN</DistanceMeters>
          </Trackpoint>
          <Trackpoint>
            <Time>2020-05-25T06:23:17.000Z</Time>
            <Position>
              <LatitudeDegrees>38.24815579690039157867431640625</LatitudeDegrees>
              <LongitudeDegrees>-1.1860347725450992584228515625</LongitudeDegrees>
            </Position>
            <AltitudeMeters>574.20001220703125</AltitudeMeters>
            <DistanceMeters>NAN</DistanceMeters>
          </Trackpoint>
          <Trackpoint>
            <Time>2020-05-25T06:23:18.000Z</Time>
            <Position>
              <LatitudeDegrees>38.24817381799221038818359375</LatitudeDegrees>
              <LongitudeDegrees>-1.18611180223524570465087890625</LongitudeDegrees>
            </Position>
            <AltitudeMeters>573.5999755859375</AltitudeMeters>
            <DistanceMeters>NAN</DistanceMeters>
          </Trackpoint>
          <Trackpoint>
            <Time>2020-05-25T06:23:19.000Z</Time>
            <Position>
              <LatitudeDegrees>38.24818010441958904266357421875</LatitudeDegrees>
              <LongitudeDegrees>-1.1861895024776458740234375</LongitudeDegrees>
            </Position>
            <AltitudeMeters>573</AltitudeMeters>
            <DistanceMeters>NAN</DistanceMeters>
          </Trackpoint>
          <Trackpoint>
            <Time>2020-05-25T06:23:20.000Z</Time>
            <Position>
              <LatitudeDegrees>38.2481672801077365875244140625</LatitudeDegrees>
              <LongitudeDegrees>-1.18626887910068035125732421875</LongitudeDegrees>
            </Position>
            <AltitudeMeters>572.5999755859375</AltitudeMeters>
            <DistanceMeters>NAN</DistanceMeters>
          </Trackpoint>
          <Trackpoint>
            <Time>2020-05-25T06:23:21.000Z</Time>
            <Position>
              <LatitudeDegrees>38.24814171530306339263916015625</LatitudeDegrees>
              <LongitudeDegrees>-1.18634481914341449737548828125</LongitudeDegrees>
            </Position>
            <AltitudeMeters>572.20001220703125</AltitudeMeters>
            <DistanceMeters>NAN</DistanceMeters>
          </Trackpoint>
          <Trackpoint>
            <Time>2020-05-25T06:23:22.000Z</Time>
            <Position>
              <LatitudeDegrees>38.24810542166233062744140625</LatitudeDegrees>
              <LongitudeDegrees>-1.18642176501452922821044921875</LongitudeDegrees>
            </Position>
            <AltitudeMeters>571.5999755859375</AltitudeMeters>
            <DistanceMeters>NAN</DistanceMeters>
          </Trackpoint>
          <Trackpoint>
            <Time>2020-05-25T06:23:23.000Z</Time>
            <Position>
              <LatitudeDegrees>38.24806543998420238494873046875</LatitudeDegrees>
              <LongitudeDegrees>-1.1865011416375637054443359375</LongitudeDegrees>
            </Position>
            <AltitudeMeters>571.20001220703125</AltitudeMeters>
            <DistanceMeters>NAN</DistanceMeters>
          </Trackpoint>
          <Trackpoint>
            <Time>2020-05-25T06:23:24.000Z</Time>
            <Position>
              <LatitudeDegrees>38.2480271346867084503173828125</LatitudeDegrees>
              <LongitudeDegrees>-1.186582110822200775146484375</LongitudeDegrees>
            </Position>
            <AltitudeMeters>571</AltitudeMeters>
            <DistanceMeters>NAN</DistanceMeters>
          </Trackpoint>
          <Trackpoint>
            <Time>2020-05-25T06:23:25.000Z</Time>
            <Position>
              <LatitudeDegrees>38.2479842193424701690673828125</LatitudeDegrees>
              <LongitudeDegrees>-1.18666919879615306854248046875</LongitudeDegrees>
            </Position>
            <AltitudeMeters>570.79998779296875</AltitudeMeters>
            <DistanceMeters>NAN</DistanceMeters>
          </Trackpoint>
          <Trackpoint>
            <Time>2020-05-25T06:23:26.000Z</Time>
            <Position>
              <LatitudeDegrees>38.24794490821659564971923828125</LatitudeDegrees>
              <LongitudeDegrees>-1.1867593042552471160888671875</LongitudeDegrees>
            </Position>
            <AltitudeMeters>570.5999755859375</AltitudeMeters>
            <DistanceMeters>NAN</DistanceMeters>
          </Trackpoint>
          <Trackpoint>
            <Time>2020-05-25T06:23:27.000Z</Time>
            <Position>
              <LatitudeDegrees>38.24790735729038715362548828125</LatitudeDegrees>
              <LongitudeDegrees>-1.18685536086559295654296875</LongitudeDegrees>
            </Position>
            <AltitudeMeters>570.20001220703125</AltitudeMeters>
            <DistanceMeters>NAN</DistanceMeters>
          </Trackpoint>
          <Trackpoint>
            <Time>2020-05-25T06:23:28.000Z</Time>
            <Position>
              <LatitudeDegrees>38.2478742487728595733642578125</LatitudeDegrees>
              <LongitudeDegrees>-1.1869554407894611358642578125</LongitudeDegrees>
            </Position>
            <AltitudeMeters>569.79998779296875</AltitudeMeters>
            <DistanceMeters>NAN</DistanceMeters>
          </Trackpoint>
          <Trackpoint>
            <Time>2020-05-25T06:23:29.000Z</Time>
            <Position>
              <LatitudeDegrees>38.24784801341593265533447265625</LatitudeDegrees>
              <LongitudeDegrees>-1.18705661036074161529541015625</LongitudeDegrees>
            </Position>
            <AltitudeMeters>569.79998779296875</AltitudeMeters>
            <DistanceMeters>NAN</DistanceMeters>
          </Trackpoint>
          <Trackpoint>
            <Time>2020-05-25T06:23:30.000Z</Time>
            <Position>
              <LatitudeDegrees>38.24782454408705234527587890625</LatitudeDegrees>
              <LongitudeDegrees>-1.18715442717075347900390625</LongitudeDegrees>
            </Position>
            <AltitudeMeters>569.20001220703125</AltitudeMeters>
            <DistanceMeters>NAN</DistanceMeters>
          </Trackpoint>
          <Trackpoint>
            <Time>2020-05-25T06:23:31.000Z</Time>
            <Position>
              <LatitudeDegrees>38.24780124239623546600341796875</LatitudeDegrees>
              <LongitudeDegrees>-1.18724687956273555755615234375</LongitudeDegrees>
            </Position>
            <AltitudeMeters>568.79998779296875</AltitudeMeters>
            <DistanceMeters>NAN</DistanceMeters>
          </Trackpoint>
          <Trackpoint>
            <Time>2020-05-25T06:23:32.000Z</Time>
            <Position>
              <LatitudeDegrees>38.24777877889573574066162109375</LatitudeDegrees>
              <LongitudeDegrees>-1.187333799898624420166015625</LongitudeDegrees>
            </Position>
            <AltitudeMeters>568.4000244140625</AltitudeMeters>
            <DistanceMeters>NAN</DistanceMeters>
          </Trackpoint>
          <Trackpoint>
            <Time>2020-05-25T06:23:33.000Z</Time>
            <Position>
              <LatitudeDegrees>38.2477520406246185302734375</LatitudeDegrees>
              <LongitudeDegrees>-1.18741267360746860504150390625</LongitudeDegrees>
            </Position>
            <AltitudeMeters>567.5999755859375</AltitudeMeters>
            <DistanceMeters>NAN</DistanceMeters>
          </Trackpoint>
          <Trackpoint>
            <Time>2020-05-25T06:23:34.000Z</Time>
            <Position>
              <LatitudeDegrees>38.2477190159261226654052734375</LatitudeDegrees>
              <LongitudeDegrees>-1.187480650842189788818359375</LongitudeDegrees>
            </Position>
            <AltitudeMeters>567.20001220703125</AltitudeMeters>
            <DistanceMeters>NAN</DistanceMeters>
          </Trackpoint>
          <Trackpoint>
            <Time>2020-05-25T06:23:35.000Z</Time>
            <Position>
              <LatitudeDegrees>38.24767685495316982269287109375</LatitudeDegrees>
              <LongitudeDegrees>-1.1875143460929393768310546875</LongitudeDegrees>
            </Position>
            <AltitudeMeters>566.4000244140625</AltitudeMeters>
            <DistanceMeters>NAN</DistanceMeters>
          </Trackpoint>
          <Trackpoint>
            <Time>2020-05-25T06:23:36.000Z</Time>
            <Position>
              <LatitudeDegrees>38.247624300420284271240234375</LatitudeDegrees>
              <LongitudeDegrees>-1.1875217221677303314208984375</LongitudeDegrees>
            </Position>
            <AltitudeMeters>565.79998779296875</AltitudeMeters>
            <DistanceMeters>NAN</DistanceMeters>
          </Trackpoint>
          <Trackpoint>
            <Time>2020-05-25T06:23:37.000Z</Time>
            <Position>
              <LatitudeDegrees>38.2475725002586841583251953125</LatitudeDegrees>
              <LongitudeDegrees>-1.18751225061714649200439453125</LongitudeDegrees>
            </Position>
            <AltitudeMeters>565.20001220703125</AltitudeMeters>
            <DistanceMeters>NAN</DistanceMeters>
          </Trackpoint>
          <Trackpoint>
            <Time>2020-05-25T06:23:38.000Z</Time>
            <Position>
              <LatitudeDegrees>38.24752279557287693023681640625</LatitudeDegrees>
              <LongitudeDegrees>-1.18747629225254058837890625</LongitudeDegrees>
            </Position>
            <AltitudeMeters>564.79998779296875</AltitudeMeters>
            <DistanceMeters>NAN</DistanceMeters>
          </Trackpoint>
          <Trackpoint>
            <Time>2020-05-25T06:23:39.000Z</Time>
            <Position>
              <LatitudeDegrees>38.24747116304934024810791015625</LatitudeDegrees>
              <LongitudeDegrees>-1.18742658756673336029052734375</LongitudeDegrees>
            </Position>
            <AltitudeMeters>564.4000244140625</AltitudeMeters>
            <DistanceMeters>NAN</DistanceMeters>
          </Trackpoint>
          <Trackpoint>
            <Time>2020-05-25T06:23:40.000Z</Time>
            <Position>
              <LatitudeDegrees>38.2474172674119472503662109375</LatitudeDegrees>
              <LongitudeDegrees>-1.1873648129403591156005859375</LongitudeDegrees>
            </Position>
            <AltitudeMeters>564</AltitudeMeters>
            <DistanceMeters>NAN</DistanceMeters>
          </Trackpoint>
          <Trackpoint>
            <Time>2020-05-25T06:23:41.000Z</Time>
            <Position>
              <LatitudeDegrees>38.24736471287906169891357421875</LatitudeDegrees>
              <LongitudeDegrees>-1.1872984282672405242919921875</LongitudeDegrees>
            </Position>
            <AltitudeMeters>563.4000244140625</AltitudeMeters>
            <DistanceMeters>NAN</DistanceMeters>
          </Trackpoint>
          <Trackpoint>
            <Time>2020-05-25T06:23:42.000Z</Time>
            <Position>
              <LatitudeDegrees>38.24731190688908100128173828125</LatitudeDegrees>
              <LongitudeDegrees>-1.18723413906991481781005859375</LongitudeDegrees>
            </Position>
            <AltitudeMeters>563</AltitudeMeters>
            <DistanceMeters>NAN</DistanceMeters>
          </Trackpoint>
          <Trackpoint>
            <Time>2020-05-25T06:23:43.000Z</Time>
            <Position>
              <LatitudeDegrees>38.24725423939526081085205078125</LatitudeDegrees>
              <LongitudeDegrees>-1.187172196805477142333984375</LongitudeDegrees>
            </Position>
            <AltitudeMeters>562.4000244140625</AltitudeMeters>
            <DistanceMeters>NAN</DistanceMeters>
          </Trackpoint>
          <Trackpoint>
            <Time>2020-05-25T06:23:44.000Z</Time>
            <Position>
              <LatitudeDegrees>38.24719020165503025054931640625</LatitudeDegrees>
              <LongitudeDegrees>-1.187117882072925567626953125</LongitudeDegrees>
            </Position>
            <AltitudeMeters>562</AltitudeMeters>
            <DistanceMeters>NAN</DistanceMeters>
          </Trackpoint>
          <Trackpoint>
            <Time>2020-05-25T06:23:45.000Z</Time>
            <Position>
              <LatitudeDegrees>38.247123062610626220703125</LatitudeDegrees>
              <LongitudeDegrees>-1.1870826780796051025390625</LongitudeDegrees>
            </Position>
            <AltitudeMeters>561.79998779296875</AltitudeMeters>
            <DistanceMeters>NAN</DistanceMeters>
          </Trackpoint>
          <Trackpoint>
            <Time>2020-05-25T06:23:46.000Z</Time>
            <Position>
              <LatitudeDegrees>38.247047960758209228515625</LatitudeDegrees>
              <LongitudeDegrees>-1.18706029839813709259033203125</LongitudeDegrees>
            </Position>
            <AltitudeMeters>561.5999755859375</AltitudeMeters>
            <DistanceMeters>NAN</DistanceMeters>
          </Trackpoint>
          <Trackpoint>
            <Time>2020-05-25T06:23:47.000Z</Time>
            <Position>
              <LatitudeDegrees>38.2469686679542064666748046875</LatitudeDegrees>
              <LongitudeDegrees>-1.18705342523753643035888671875</LongitudeDegrees>
            </Position>
            <AltitudeMeters>560.5999755859375</AltitudeMeters>
            <DistanceMeters>NAN</DistanceMeters>
          </Trackpoint>
          <Trackpoint>
            <Time>2020-05-25T06:23:48.000Z</Time>
            <Position>
              <LatitudeDegrees>38.24688903987407684326171875</LatitudeDegrees>
              <LongitudeDegrees>-1.18705459870398044586181640625</LongitudeDegrees>
            </Position>
            <AltitudeMeters>560.20001220703125</AltitudeMeters>
            <DistanceMeters>NAN</DistanceMeters>
          </Trackpoint>
          <Trackpoint>
            <Time>2020-05-25T06:23:49.000Z</Time>
            <Position>
              <LatitudeDegrees>38.24681033380329608917236328125</LatitudeDegrees>
              <LongitudeDegrees>-1.18706432171165943145751953125</LongitudeDegrees>
            </Position>
            <AltitudeMeters>559.79998779296875</AltitudeMeters>
            <DistanceMeters>NAN</DistanceMeters>
          </Trackpoint>
          <Trackpoint>
            <Time>2020-05-25T06:23:50.000Z</Time>
            <Position>
              <LatitudeDegrees>38.2467309571802616119384765625</LatitudeDegrees>
              <LongitudeDegrees>-1.18707798421382904052734375</LongitudeDegrees>
            </Position>
            <AltitudeMeters>559.5999755859375</AltitudeMeters>
            <DistanceMeters>NAN</DistanceMeters>
          </Trackpoint>
          <Trackpoint>
            <Time>2020-05-25T06:23:51.000Z</Time>
            <Position>
              <LatitudeDegrees>38.24665141291916370391845703125</LatitudeDegrees>
              <LongitudeDegrees>-1.18709416128695011138916015625</LongitudeDegrees>
            </Position>
            <AltitudeMeters>559.4000244140625</AltitudeMeters>
            <DistanceMeters>NAN</DistanceMeters>
          </Trackpoint>
          <Trackpoint>
            <Time>2020-05-25T06:23:52.000Z</Time>
            <Position>
              <LatitudeDegrees>38.246571533381938934326171875</LatitudeDegrees>
              <LongitudeDegrees>-1.18711553514003753662109375</LongitudeDegrees>
            </Position>
            <AltitudeMeters>559.20001220703125</AltitudeMeters>
            <DistanceMeters>NAN</DistanceMeters>
          </Trackpoint>
          <Trackpoint>
            <Time>2020-05-25T06:23:53.000Z</Time>
            <Position>
              <LatitudeDegrees>38.246491067111492156982421875</LatitudeDegrees>
              <LongitudeDegrees>-1.1871421895921230316162109375</LongitudeDegrees>
            </Position>
            <AltitudeMeters>559</AltitudeMeters>
            <DistanceMeters>NAN</DistanceMeters>
          </Trackpoint>
          <Trackpoint>
            <Time>2020-05-25T06:23:54.000Z</Time>
            <Position>
              <LatitudeDegrees>38.2464070804417133331298828125</LatitudeDegrees>
              <LongitudeDegrees>-1.18717328645288944244384765625</LongitudeDegrees>
            </Position>
            <AltitudeMeters>559</AltitudeMeters>
            <DistanceMeters>NAN</DistanceMeters>
          </Trackpoint>
          <Trackpoint>
            <Time>2020-05-25T06:23:55.000Z</Time>
            <Position>
              <LatitudeDegrees>38.24632108211517333984375</LatitudeDegrees>
              <LongitudeDegrees>-1.1872055567800998687744140625</LongitudeDegrees>
            </Position>
            <AltitudeMeters>558.5999755859375</AltitudeMeters>
            <DistanceMeters>NAN</DistanceMeters>
          </Trackpoint>
          <Trackpoint>
            <Time>2020-05-25T06:23:56.000Z</Time>
            <Position>
              <LatitudeDegrees>38.24623399414122104644775390625</LatitudeDegrees>
              <LongitudeDegrees>-1.18723816238343715667724609375</LongitudeDegrees>
            </Position>
            <AltitudeMeters>558.4000244140625</AltitudeMeters>
            <DistanceMeters>NAN</DistanceMeters>
          </Trackpoint>
          <Trackpoint>
            <Time>2020-05-25T06:23:57.000Z</Time>
            <Position>
              <LatitudeDegrees>38.246144391596317291259765625</LatitudeDegrees>
              <LongitudeDegrees>-1.1872695945203304290771484375</LongitudeDegrees>
            </Position>
            <AltitudeMeters>558.20001220703125</AltitudeMeters>
            <DistanceMeters>NAN</DistanceMeters>
          </Trackpoint>
          <Trackpoint>
            <Time>2020-05-25T06:23:58.000Z</Time>
            <Position>
              <LatitudeDegrees>38.2460516877472400665283203125</LatitudeDegrees>
              <LongitudeDegrees>-1.1873011104762554168701171875</LongitudeDegrees>
            </Position>
            <AltitudeMeters>558</AltitudeMeters>
            <DistanceMeters>NAN</DistanceMeters>
          </Trackpoint>
          <Trackpoint>
            <Time>2020-05-25T06:23:59.000Z</Time>
            <Position>
              <LatitudeDegrees>38.24595470912754535675048828125</LatitudeDegrees>
              <LongitudeDegrees>-1.18733388371765613555908203125</LongitudeDegrees>
            </Position>
            <AltitudeMeters>558</AltitudeMeters>
            <DistanceMeters>NAN</DistanceMeters>
          </Trackpoint>
          <Trackpoint>
            <Time>2020-05-25T06:24:00.000Z</Time>
            <Position>
              <LatitudeDegrees>38.245856054127216339111328125</LatitudeDegrees>
              <LongitudeDegrees>-1.18737009353935718536376953125</LongitudeDegrees>
            </Position>
            <AltitudeMeters>557.79998779296875</AltitudeMeters>
            <DistanceMeters>NAN</DistanceMeters>
          </Trackpoint>
          <Trackpoint>
            <Time>2020-05-25T06:24:01.000Z</Time>
            <Position>
              <LatitudeDegrees>38.24575354345142841339111328125</LatitudeDegrees>
              <LongitudeDegrees>-1.18740747682750225067138671875</LongitudeDegrees>
            </Position>
            <AltitudeMeters>557.79998779296875</AltitudeMeters>
            <DistanceMeters>NAN</DistanceMeters>
          </Trackpoint>
          <Trackpoint>
            <Time>2020-05-25T06:24:02.000Z</Time>
            <Position>
              <LatitudeDegrees>38.24564726091921329498291015625</LatitudeDegrees>
              <LongitudeDegrees>-1.18744536302983760833740234375</LongitudeDegrees>
            </Position>
            <AltitudeMeters>557.5999755859375</AltitudeMeters>
            <DistanceMeters>NAN</DistanceMeters>
          </Trackpoint>
          <Trackpoint>
            <Time>2020-05-25T06:24:03.000Z</Time>
            <Position>
              <LatitudeDegrees>38.24553720653057098388671875</LatitudeDegrees>
              <LongitudeDegrees>-1.18748542852699756622314453125</LongitudeDegrees>
            </Position>
            <AltitudeMeters>557.20001220703125</AltitudeMeters>
            <DistanceMeters>NAN</DistanceMeters>
          </Trackpoint>
          <Trackpoint>
            <Time>2020-05-25T06:24:04.000Z</Time>
            <Position>
              <LatitudeDegrees>38.24542162008583545684814453125</LatitudeDegrees>
              <LongitudeDegrees>-1.1875257454812526702880859375</LongitudeDegrees>
            </Position>
            <AltitudeMeters>556.5999755859375</AltitudeMeters>
            <DistanceMeters>NAN</DistanceMeters>
          </Trackpoint>
          <Trackpoint>
            <Time>2020-05-25T06:24:05.000Z</Time>
            <Position>
              <LatitudeDegrees>38.24530309997498989105224609375</LatitudeDegrees>
              <LongitudeDegrees>-1.1875679902732372283935546875</LongitudeDegrees>
            </Position>
            <AltitudeMeters>556</AltitudeMeters>
            <DistanceMeters>NAN</DistanceMeters>
          </Trackpoint>
          <Trackpoint>
            <Time>2020-05-25T06:24:06.000Z</Time>
            <Position>
              <LatitudeDegrees>38.24518072418868541717529296875</LatitudeDegrees>
              <LongitudeDegrees>-1.18761082179844379425048828125</LongitudeDegrees>
            </Position>
            <AltitudeMeters>555.79998779296875</AltitudeMeters>
            <DistanceMeters>NAN</DistanceMeters>
          </Trackpoint>
          <Trackpoint>
            <Time>2020-05-25T06:24:07.000Z</Time>
            <Position>
              <LatitudeDegrees>38.24505533091723918914794921875</LatitudeDegrees>
              <LongitudeDegrees>-1.18765507824718952178955078125</LongitudeDegrees>
            </Position>
            <AltitudeMeters>555</AltitudeMeters>
            <DistanceMeters>NAN</DistanceMeters>
          </Trackpoint>
          <Trackpoint>
            <Time>2020-05-25T06:24:08.000Z</Time>
            <Position>
              <LatitudeDegrees>38.24492700397968292236328125</LatitudeDegrees>
              <LongitudeDegrees>-1.18770067580044269561767578125</LongitudeDegrees>
            </Position>
            <AltitudeMeters>554.4000244140625</AltitudeMeters>
            <DistanceMeters>NAN</DistanceMeters>
          </Trackpoint>
          <Trackpoint>
            <Time>2020-05-25T06:24:09.000Z</Time>
            <Position>
              <LatitudeDegrees>38.24479599483311176300048828125</LatitudeDegrees>
              <LongitudeDegrees>-1.187746860086917877197265625</LongitudeDegrees>
            </Position>
            <AltitudeMeters>553.5999755859375</AltitudeMeters>
            <DistanceMeters>NAN</DistanceMeters>
          </Trackpoint>
          <Trackpoint>
            <Time>2020-05-25T06:24:10.000Z</Time>
            <Position>
              <LatitudeDegrees>38.24466289021074771881103515625</LatitudeDegrees>
              <LongitudeDegrees>-1.18779237382113933563232421875</LongitudeDegrees>
            </Position>
            <AltitudeMeters>552.5999755859375</AltitudeMeters>
            <DistanceMeters>NAN</DistanceMeters>
          </Trackpoint>
          <Trackpoint>
            <Time>2020-05-25T06:24:11.000Z</Time>
            <Position>
              <LatitudeDegrees>38.2445253431797027587890625</LatitudeDegrees>
              <LongitudeDegrees>-1.18783277459442615509033203125</LongitudeDegrees>
            </Position>
            <AltitudeMeters>551.79998779296875</AltitudeMeters>
            <DistanceMeters>NAN</DistanceMeters>
          </Trackpoint>
          <Trackpoint>
            <Time>2020-05-25T06:24:12.000Z</Time>
            <Position>
              <LatitudeDegrees>38.24438477866351604461669921875</LatitudeDegrees>
              <LongitudeDegrees>-1.18786730803549289703369140625</LongitudeDegrees>
            </Position>
            <AltitudeMeters>551</AltitudeMeters>
            <DistanceMeters>NAN</DistanceMeters>
          </Trackpoint>
          <Trackpoint>
            <Time>2020-05-25T06:24:13.000Z</Time>
            <Position>
              <LatitudeDegrees>38.24424111284315586090087890625</LatitudeDegrees>
              <LongitudeDegrees>-1.1878955550491809844970703125</LongitudeDegrees>
            </Position>
            <AltitudeMeters>550.20001220703125</AltitudeMeters>
            <DistanceMeters>NAN</DistanceMeters>
          </Trackpoint>
          <Trackpoint>
            <Time>2020-05-25T06:24:14.000Z</Time>
            <Position>
              <LatitudeDegrees>38.24409577064216136932373046875</LatitudeDegrees>
              <LongitudeDegrees>-1.1879203654825687408447265625</LongitudeDegrees>
            </Position>
            <AltitudeMeters>549</AltitudeMeters>
            <DistanceMeters>NAN</DistanceMeters>
          </Trackpoint>
          <Trackpoint>
            <Time>2020-05-25T06:24:15.000Z</Time>
            <Position>
              <LatitudeDegrees>38.24394875206053256988525390625</LatitudeDegrees>
              <LongitudeDegrees>-1.1879411526024341583251953125</LongitudeDegrees>
            </Position>
            <AltitudeMeters>546.5999755859375</AltitudeMeters>
            <DistanceMeters>NAN</DistanceMeters>
          </Trackpoint>
          <Trackpoint>
            <Time>2020-05-25T06:24:16.000Z</Time>
            <Position>
              <LatitudeDegrees>38.2437976263463497161865234375</LatitudeDegrees>
              <LongitudeDegrees>-1.18795749731361865997314453125</LongitudeDegrees>
            </Position>
            <AltitudeMeters>545.79998779296875</AltitudeMeters>
            <DistanceMeters>NAN</DistanceMeters>
          </Trackpoint>
          <Trackpoint>
            <Time>2020-05-25T06:24:17.000Z</Time>
            <Position>
              <LatitudeDegrees>38.24364381842315196990966796875</LatitudeDegrees>
              <LongitudeDegrees>-1.1879662983119487762451171875</LongitudeDegrees>
            </Position>
            <AltitudeMeters>544.5999755859375</AltitudeMeters>
            <DistanceMeters>NAN</DistanceMeters>
          </Trackpoint>
          <Trackpoint>
            <Time>2020-05-25T06:24:18.000Z</Time>
            <Position>
              <LatitudeDegrees>38.2434898428618907928466796875</LatitudeDegrees>
              <LongitudeDegrees>-1.18796755559742450714111328125</LongitudeDegrees>
            </Position>
            <AltitudeMeters>543.4000244140625</AltitudeMeters>
            <DistanceMeters>NAN</DistanceMeters>
          </Trackpoint>
          <Trackpoint>
            <Time>2020-05-25T06:24:19.000Z</Time>
            <Position>
              <LatitudeDegrees>38.2433369569480419158935546875</LatitudeDegrees>
              <LongitudeDegrees>-1.1879622749984264373779296875</LongitudeDegrees>
            </Position>
            <AltitudeMeters>542.4000244140625</AltitudeMeters>
            <DistanceMeters>NAN</DistanceMeters>
          </Trackpoint>
          <Trackpoint>
            <Time>2020-05-25T06:24:20.000Z</Time>
            <Position>
              <LatitudeDegrees>38.24318549595773220062255859375</LatitudeDegrees>
              <LongitudeDegrees>-1.18794710375368595123291015625</LongitudeDegrees>
            </Position>
            <AltitudeMeters>541.79998779296875</AltitudeMeters>
            <DistanceMeters>NAN</DistanceMeters>
          </Trackpoint>
          <Trackpoint>
            <Time>2020-05-25T06:24:21.000Z</Time>
            <Position>
              <LatitudeDegrees>38.24303328059613704681396484375</LatitudeDegrees>
              <LongitudeDegrees>-1.1879220418632030487060546875</LongitudeDegrees>
            </Position>
            <AltitudeMeters>540.5999755859375</AltitudeMeters>
            <DistanceMeters>NAN</DistanceMeters>
          </Trackpoint>
          <Trackpoint>
            <Time>2020-05-25T06:24:22.000Z</Time>
            <Position>
              <LatitudeDegrees>38.24288056232035160064697265625</LatitudeDegrees>
              <LongitudeDegrees>-1.1878898553550243377685546875</LongitudeDegrees>
            </Position>
            <AltitudeMeters>539.5999755859375</AltitudeMeters>
            <DistanceMeters>NAN</DistanceMeters>
          </Trackpoint>
          <Trackpoint>
            <Time>2020-05-25T06:24:23.000Z</Time>
            <Position>
              <LatitudeDegrees>38.24272750876843929290771484375</LatitudeDegrees>
              <LongitudeDegrees>-1.18785121478140354156494140625</LongitudeDegrees>
            </Position>
            <AltitudeMeters>538.79998779296875</AltitudeMeters>
            <DistanceMeters>NAN</DistanceMeters>
          </Trackpoint>
          <Trackpoint>
            <Time>2020-05-25T06:24:24.000Z</Time>
            <Position>
              <LatitudeDegrees>38.24257495813071727752685546875</LatitudeDegrees>
              <LongitudeDegrees>-1.1878053657710552215576171875</LongitudeDegrees>
            </Position>
            <AltitudeMeters>537.79998779296875</AltitudeMeters>
            <DistanceMeters>NAN</DistanceMeters>
          </Trackpoint>
          <Trackpoint>
            <Time>2020-05-25T06:24:25.000Z</Time>
            <Position>
              <LatitudeDegrees>38.242422826588153839111328125</LatitudeDegrees>
              <LongitudeDegrees>-1.187751553952693939208984375</LongitudeDegrees>
            </Position>
            <AltitudeMeters>536.5999755859375</AltitudeMeters>
            <DistanceMeters>NAN</DistanceMeters>
          </Trackpoint>
          <Trackpoint>
            <Time>2020-05-25T06:24:26.000Z</Time>
            <Position>
              <LatitudeDegrees>38.2422714494168758392333984375</LatitudeDegrees>
              <LongitudeDegrees>-1.1876893602311611175537109375</LongitudeDegrees>
            </Position>
            <AltitudeMeters>535.4000244140625</AltitudeMeters>
            <DistanceMeters>NAN</DistanceMeters>
          </Trackpoint>
          <Trackpoint>
            <Time>2020-05-25T06:24:27.000Z</Time>
            <Position>
              <LatitudeDegrees>38.24212216772139072418212890625</LatitudeDegrees>
              <LongitudeDegrees>-1.1876186169683933258056640625</LongitudeDegrees>
            </Position>
            <AltitudeMeters>534.4000244140625</AltitudeMeters>
            <DistanceMeters>NAN</DistanceMeters>
          </Trackpoint>
          <Trackpoint>
            <Time>2020-05-25T06:24:28.000Z</Time>
            <Position>
              <LatitudeDegrees>38.241975568234920501708984375</LatitudeDegrees>
              <LongitudeDegrees>-1.18753957562148571014404296875</LongitudeDegrees>
            </Position>
            <AltitudeMeters>533.5999755859375</AltitudeMeters>
            <DistanceMeters>NAN</DistanceMeters>
          </Trackpoint>
          <Trackpoint>
            <Time>2020-05-25T06:24:29.000Z</Time>
            <Position>
              <LatitudeDegrees>38.24183131568133831024169921875</LatitudeDegrees>
              <LongitudeDegrees>-1.1874519847333431243896484375</LongitudeDegrees>
            </Position>
            <AltitudeMeters>532.5999755859375</AltitudeMeters>
            <DistanceMeters>NAN</DistanceMeters>
          </Trackpoint>
          <Trackpoint>
            <Time>2020-05-25T06:24:30.000Z</Time>
            <Position>
              <LatitudeDegrees>38.24169016443192958831787109375</LatitudeDegrees>
              <LongitudeDegrees>-1.1873550899326801300048828125</LongitudeDegrees>
            </Position>
            <AltitudeMeters>531.4000244140625</AltitudeMeters>
            <DistanceMeters>NAN</DistanceMeters>
          </Trackpoint>
          <Trackpoint>
            <Time>2020-05-25T06:24:31.000Z</Time>
            <Position>
              <LatitudeDegrees>38.2415526174008846282958984375</LatitudeDegrees>
              <LongitudeDegrees>-1.18724939413368701934814453125</LongitudeDegrees>
            </Position>
            <AltitudeMeters>530.4000244140625</AltitudeMeters>
            <DistanceMeters>NAN</DistanceMeters>
          </Trackpoint>
          <Trackpoint>
            <Time>2020-05-25T06:24:32.000Z</Time>
            <Position>
              <LatitudeDegrees>38.24142009951174259185791015625</LatitudeDegrees>
              <LongitudeDegrees>-1.18713825009763240814208984375</LongitudeDegrees>
            </Position>
            <AltitudeMeters>529.4000244140625</AltitudeMeters>
            <DistanceMeters>NAN</DistanceMeters>
          </Trackpoint>
          <Trackpoint>
            <Time>2020-05-25T06:24:33.000Z</Time>
            <Position>
              <LatitudeDegrees>38.24128992855548858642578125</LatitudeDegrees>
              <LongitudeDegrees>-1.18702090345323085784912109375</LongitudeDegrees>
            </Position>
            <AltitudeMeters>528.4000244140625</AltitudeMeters>
            <DistanceMeters>NAN</DistanceMeters>
          </Trackpoint>
          <Trackpoint>
            <Time>2020-05-25T06:24:34.000Z</Time>
            <Position>
              <LatitudeDegrees>38.2411630265414714813232421875</LatitudeDegrees>
              <LongitudeDegrees>-1.18689827620983123779296875</LongitudeDegrees>
            </Position>
            <AltitudeMeters>527</AltitudeMeters>
            <DistanceMeters>NAN</DistanceMeters>
          </Trackpoint>
          <Trackpoint>
            <Time>2020-05-25T06:24:35.000Z</Time>
            <Position>
              <LatitudeDegrees>38.24103704653680324554443359375</LatitudeDegrees>
              <LongitudeDegrees>-1.18677129037678241729736328125</LongitudeDegrees>
            </Position>
            <AltitudeMeters>525.79998779296875</AltitudeMeters>
            <DistanceMeters>NAN</DistanceMeters>
          </Trackpoint>
          <Trackpoint>
            <Time>2020-05-25T06:24:36.000Z</Time>
            <Position>
              <LatitudeDegrees>38.24091131798923015594482421875</LatitudeDegrees>
              <LongitudeDegrees>-1.1866443045437335968017578125</LongitudeDegrees>
            </Position>
            <AltitudeMeters>525</AltitudeMeters>
            <DistanceMeters>NAN</DistanceMeters>
          </Trackpoint>
          <Trackpoint>
            <Time>2020-05-25T06:24:37.000Z</Time>
            <Position>
              <LatitudeDegrees>38.24078609235584735870361328125</LatitudeDegrees>
              <LongitudeDegrees>-1.1865192465484142303466796875</LongitudeDegrees>
            </Position>
            <AltitudeMeters>524.4000244140625</AltitudeMeters>
            <DistanceMeters>NAN</DistanceMeters>
          </Trackpoint>
          <Trackpoint>
            <Time>2020-05-25T06:24:38.000Z</Time>
            <Position>
              <LatitudeDegrees>38.24066069908440113067626953125</LatitudeDegrees>
              <LongitudeDegrees>-1.186395026743412017822265625</LongitudeDegrees>
            </Position>
            <AltitudeMeters>523.4000244140625</AltitudeMeters>
            <DistanceMeters>NAN</DistanceMeters>
          </Trackpoint>
          <Trackpoint>
            <Time>2020-05-25T06:24:39.000Z</Time>
            <Position>
              <LatitudeDegrees>38.24053622782230377197265625</LatitudeDegrees>
              <LongitudeDegrees>-1.18626795709133148193359375</LongitudeDegrees>
            </Position>
            <AltitudeMeters>522</AltitudeMeters>
            <DistanceMeters>NAN</DistanceMeters>
          </Trackpoint>
          <Trackpoint>
            <Time>2020-05-25T06:24:40.000Z</Time>
            <Position>
              <LatitudeDegrees>38.240413181483745574951171875</LatitudeDegrees>
              <LongitudeDegrees>-1.18613879196345806121826171875</LongitudeDegrees>
            </Position>
            <AltitudeMeters>520.79998779296875</AltitudeMeters>
            <DistanceMeters>NAN</DistanceMeters>
          </Trackpoint>
          <Trackpoint>
            <Time>2020-05-25T06:24:41.000Z</Time>
            <Position>
              <LatitudeDegrees>38.24029072187840938568115234375</LatitudeDegrees>
              <LongitudeDegrees>-1.18601038120687007904052734375</LongitudeDegrees>
            </Position>
            <AltitudeMeters>519.79998779296875</AltitudeMeters>
            <DistanceMeters>NAN</DistanceMeters>
          </Trackpoint>
          <Trackpoint>
            <Time>2020-05-25T06:24:42.000Z</Time>
            <Position>
              <LatitudeDegrees>38.24016918428242206573486328125</LatitudeDegrees>
              <LongitudeDegrees>-1.18588297627866268157958984375</LongitudeDegrees>
            </Position>
            <AltitudeMeters>518.79998779296875</AltitudeMeters>
            <DistanceMeters>NAN</DistanceMeters>
          </Trackpoint>
          <Trackpoint>
            <Time>2020-05-25T06:24:43.000Z</Time>
            <Position>
              <LatitudeDegrees>38.24004831723868846893310546875</LatitudeDegrees>
              <LongitudeDegrees>-1.1857578344643115997314453125</LongitudeDegrees>
            </Position>
            <AltitudeMeters>517</AltitudeMeters>
            <DistanceMeters>NAN</DistanceMeters>
          </Trackpoint>
          <Trackpoint>
            <Time>2020-05-25T06:24:44.000Z</Time>
            <Position>
              <LatitudeDegrees>38.2399292103946208953857421875</LatitudeDegrees>
              <LongitudeDegrees>-1.1856351234018802642822265625</LongitudeDegrees>
            </Position>
            <AltitudeMeters>515.79998779296875</AltitudeMeters>
            <DistanceMeters>NAN</DistanceMeters>
          </Trackpoint>
          <Trackpoint>
            <Time>2020-05-25T06:24:45.000Z</Time>
            <Position>
              <LatitudeDegrees>38.23981345631182193756103515625</LatitudeDegrees>
              <LongitudeDegrees>-1.18551291525363922119140625</LongitudeDegrees>
            </Position>
            <AltitudeMeters>514.4000244140625</AltitudeMeters>
            <DistanceMeters>NAN</DistanceMeters>
          </Trackpoint>
          <Trackpoint>
            <Time>2020-05-25T06:24:46.000Z</Time>
            <Position>
              <LatitudeDegrees>38.23970147408545017242431640625</LatitudeDegrees>
              <LongitudeDegrees>-1.1853893660008907318115234375</LongitudeDegrees>
            </Position>
            <AltitudeMeters>513.20001220703125</AltitudeMeters>
            <DistanceMeters>NAN</DistanceMeters>
          </Trackpoint>
          <Trackpoint>
            <Time>2020-05-25T06:24:47.000Z</Time>
            <Position>
              <LatitudeDegrees>38.23959385044872760772705078125</LatitudeDegrees>
              <LongitudeDegrees>-1.1852653138339519500732421875</LongitudeDegrees>
            </Position>
            <AltitudeMeters>512.4000244140625</AltitudeMeters>
            <DistanceMeters>NAN</DistanceMeters>
          </Trackpoint>
          <Trackpoint>
            <Time>2020-05-25T06:24:48.000Z</Time>
            <Position>
              <LatitudeDegrees>38.23949025012552738189697265625</LatitudeDegrees>
              <LongitudeDegrees>-1.18514218367636203765869140625</LongitudeDegrees>
            </Position>
            <AltitudeMeters>511.399993896484375</AltitudeMeters>
            <DistanceMeters>NAN</DistanceMeters>
          </Trackpoint>
          <Trackpoint>
            <Time>2020-05-25T06:24:49.000Z</Time>
            <Position>
              <LatitudeDegrees>38.23939067311584949493408203125</LatitudeDegrees>
              <LongitudeDegrees>-1.18501913733780384063720703125</LongitudeDegrees>
            </Position>
            <AltitudeMeters>511</AltitudeMeters>
            <DistanceMeters>NAN</DistanceMeters>
          </Trackpoint>
          <Trackpoint>
            <Time>2020-05-25T06:24:50.000Z</Time>
            <Position>
              <LatitudeDegrees>38.2392955385148525238037109375</LatitudeDegrees>
              <LongitudeDegrees>-1.184898354113101959228515625</LongitudeDegrees>
            </Position>
            <AltitudeMeters>510.399993896484375</AltitudeMeters>
            <DistanceMeters>NAN</DistanceMeters>
          </Trackpoint>
          <Trackpoint>
            <Time>2020-05-25T06:24:51.000Z</Time>
            <Position>
              <LatitudeDegrees>38.239204175770282745361328125</LatitudeDegrees>
              <LongitudeDegrees>-1.1847831867635250091552734375</LongitudeDegrees>
            </Position>
            <AltitudeMeters>509.79998779296875</AltitudeMeters>
            <DistanceMeters>NAN</DistanceMeters>
          </Trackpoint>
          <Trackpoint>
            <Time>2020-05-25T06:24:52.000Z</Time>
            <Position>
              <LatitudeDegrees>38.23911390267312526702880859375</LatitudeDegrees>
              <LongitudeDegrees>-1.18467698805034160614013671875</LongitudeDegrees>
            </Position>
            <AltitudeMeters>509.20001220703125</AltitudeMeters>
            <DistanceMeters>NAN</DistanceMeters>
          </Trackpoint>
          <Trackpoint>
            <Time>2020-05-25T06:24:53.000Z</Time>
            <Position>
              <LatitudeDegrees>38.23902153410017490386962890625</LatitudeDegrees>
              <LongitudeDegrees>-1.18458361364901065826416015625</LongitudeDegrees>
            </Position>
            <AltitudeMeters>508.600006103515625</AltitudeMeters>
            <DistanceMeters>NAN</DistanceMeters>
          </Trackpoint>
          <Trackpoint>
            <Time>2020-05-25T06:24:54.000Z</Time>
            <Position>
              <LatitudeDegrees>38.2389230467379093170166015625</LatitudeDegrees>
              <LongitudeDegrees>-1.18451119400560855865478515625</LongitudeDegrees>
            </Position>
            <AltitudeMeters>508</AltitudeMeters>
            <DistanceMeters>NAN</DistanceMeters>
          </Trackpoint>
          <Trackpoint>
            <Time>2020-05-25T06:24:55.000Z</Time>
            <Position>
              <LatitudeDegrees>38.238818943500518798828125</LatitudeDegrees>
              <LongitudeDegrees>-1.18446224369108676910400390625</LongitudeDegrees>
            </Position>
            <AltitudeMeters>507.399993896484375</AltitudeMeters>
            <DistanceMeters>NAN</DistanceMeters>
          </Trackpoint>
          <Trackpoint>
            <Time>2020-05-25T06:24:56.000Z</Time>
            <Position>
              <LatitudeDegrees>38.23871475644409656524658203125</LatitudeDegrees>
              <LongitudeDegrees>-1.184436343610286712646484375</LongitudeDegrees>
            </Position>
            <AltitudeMeters>507</AltitudeMeters>
            <DistanceMeters>NAN</DistanceMeters>
          </Trackpoint>
          <Trackpoint>
            <Time>2020-05-25T06:24:57.000Z</Time>
            <Position>
              <LatitudeDegrees>38.2386115752160549163818359375</LatitudeDegrees>
              <LongitudeDegrees>-1.18444011546671390533447265625</LongitudeDegrees>
            </Position>
            <AltitudeMeters>506.79998779296875</AltitudeMeters>
            <DistanceMeters>NAN</DistanceMeters>
          </Trackpoint>
          <Trackpoint>
            <Time>2020-05-25T06:24:58.000Z</Time>
            <Position>
              <LatitudeDegrees>38.2385113276541233062744140625</LatitudeDegrees>
              <LongitudeDegrees>-1.18447179906070232391357421875</LongitudeDegrees>
            </Position>
            <AltitudeMeters>506.600006103515625</AltitudeMeters>
            <DistanceMeters>NAN</DistanceMeters>
          </Trackpoint>
          <Trackpoint>
            <Time>2020-05-25T06:24:59.000Z</Time>
            <Position>
              <LatitudeDegrees>38.23841460049152374267578125</LatitudeDegrees>
              <LongitudeDegrees>-1.1845233477652072906494140625</LongitudeDegrees>
            </Position>
            <AltitudeMeters>506.600006103515625</AltitudeMeters>
            <DistanceMeters>NAN</DistanceMeters>
          </Trackpoint>
          <Trackpoint>
            <Time>2020-05-25T06:25:00.000Z</Time>
            <Position>
              <LatitudeDegrees>38.238320387899875640869140625</LatitudeDegrees>
              <LongitudeDegrees>-1.184581182897090911865234375</LongitudeDegrees>
            </Position>
            <AltitudeMeters>506.399993896484375</AltitudeMeters>
            <DistanceMeters>NAN</DistanceMeters>
          </Trackpoint>
          <Trackpoint>
            <Time>2020-05-25T06:25:01.000Z</Time>
            <Position>
              <LatitudeDegrees>38.23822860606014728546142578125</LatitudeDegrees>
              <LongitudeDegrees>-1.1846443824470043182373046875</LongitudeDegrees>
            </Position>
            <AltitudeMeters>506.399993896484375</AltitudeMeters>
            <DistanceMeters>NAN</DistanceMeters>
          </Trackpoint>
          <Trackpoint>
            <Time>2020-05-25T06:25:02.000Z</Time>
            <Position>
              <LatitudeDegrees>38.23813757859170436859130859375</LatitudeDegrees>
              <LongitudeDegrees>-1.1847107671201229095458984375</LongitudeDegrees>
            </Position>
            <AltitudeMeters>506.20001220703125</AltitudeMeters>
            <DistanceMeters>NAN</DistanceMeters>
          </Trackpoint>
          <Trackpoint>
            <Time>2020-05-25T06:25:03.000Z</Time>
            <Position>
              <LatitudeDegrees>38.23804772458970546722412109375</LatitudeDegrees>
              <LongitudeDegrees>-1.18478260003030300140380859375</LongitudeDegrees>
            </Position>
            <AltitudeMeters>506.20001220703125</AltitudeMeters>
            <DistanceMeters>NAN</DistanceMeters>
          </Trackpoint>
          <Trackpoint>
            <Time>2020-05-25T06:25:04.000Z</Time>
            <Position>
              <LatitudeDegrees>38.23795837350189685821533203125</LatitudeDegrees>
              <LongitudeDegrees>-1.18486088700592517852783203125</LongitudeDegrees>
            </Position>
            <AltitudeMeters>506.20001220703125</AltitudeMeters>
            <DistanceMeters>NAN</DistanceMeters>
          </Trackpoint>
          <Trackpoint>
            <Time>2020-05-25T06:25:05.000Z</Time>
            <Position>
              <LatitudeDegrees>38.2378712855279445648193359375</LatitudeDegrees>
              <LongitudeDegrees>-1.1849441193044185638427734375</LongitudeDegrees>
            </Position>
            <AltitudeMeters>506</AltitudeMeters>
            <DistanceMeters>NAN</DistanceMeters>
          </Trackpoint>
          <Trackpoint>
            <Time>2020-05-25T06:25:06.000Z</Time>
            <Position>
              <LatitudeDegrees>38.23778704740107059478759765625</LatitudeDegrees>
              <LongitudeDegrees>-1.1850333027541637420654296875</LongitudeDegrees>
            </Position>
            <AltitudeMeters>506</AltitudeMeters>
            <DistanceMeters>NAN</DistanceMeters>
          </Trackpoint>
          <Trackpoint>
            <Time>2020-05-25T06:25:07.000Z</Time>
            <Position>
              <LatitudeDegrees>38.23770339600741863250732421875</LatitudeDegrees>
              <LongitudeDegrees>-1.1851285211741924285888671875</LongitudeDegrees>
            </Position>
            <AltitudeMeters>506</AltitudeMeters>
            <DistanceMeters>NAN</DistanceMeters>
          </Trackpoint>
          <Trackpoint>
            <Time>2020-05-25T06:25:08.000Z</Time>
            <Position>
              <LatitudeDegrees>38.2376191578805446624755859375</LatitudeDegrees>
              <LongitudeDegrees>-1.18522834964096546173095703125</LongitudeDegrees>
            </Position>
            <AltitudeMeters>505.79998779296875</AltitudeMeters>
            <DistanceMeters>NAN</DistanceMeters>
          </Trackpoint>
          <Trackpoint>
            <Time>2020-05-25T06:25:09.000Z</Time>
            <Position>
              <LatitudeDegrees>38.237532489001750946044921875</LatitudeDegrees>
              <LongitudeDegrees>-1.18533312343060970306396484375</LongitudeDegrees>
            </Position>
            <AltitudeMeters>505.600006103515625</AltitudeMeters>
            <DistanceMeters>NAN</DistanceMeters>
          </Trackpoint>
          <Trackpoint>
            <Time>2020-05-25T06:25:10.000Z</Time>
            <Position>
              <LatitudeDegrees>38.2374451495707035064697265625</LatitudeDegrees>
              <LongitudeDegrees>-1.1854416690766811370849609375</LongitudeDegrees>
            </Position>
            <AltitudeMeters>505.399993896484375</AltitudeMeters>
            <DistanceMeters>NAN</DistanceMeters>
          </Trackpoint>
          <Trackpoint>
            <Time>2020-05-25T06:25:11.000Z</Time>
            <Position>
              <LatitudeDegrees>38.23735672049224376678466796875</LatitudeDegrees>
              <LongitudeDegrees>-1.1855529807507991790771484375</LongitudeDegrees>
            </Position>
            <AltitudeMeters>505</AltitudeMeters>
            <DistanceMeters>NAN</DistanceMeters>
          </Trackpoint>
          <Trackpoint>
            <Time>2020-05-25T06:25:12.000Z</Time>
            <Position>
              <LatitudeDegrees>38.23726401664316654205322265625</LatitudeDegrees>
              <LongitudeDegrees>-1.185666136443614959716796875</LongitudeDegrees>
            </Position>
            <AltitudeMeters>504.79998779296875</AltitudeMeters>
            <DistanceMeters>NAN</DistanceMeters>
          </Trackpoint>
          <Trackpoint>
            <Time>2020-05-25T06:25:13.000Z</Time>
            <Position>
              <LatitudeDegrees>38.237167708575725555419921875</LatitudeDegrees>
              <LongitudeDegrees>-1.1857779510319232940673828125</LongitudeDegrees>
            </Position>
            <AltitudeMeters>504</AltitudeMeters>
            <DistanceMeters>NAN</DistanceMeters>
          </Trackpoint>
          <Trackpoint>
            <Time>2020-05-25T06:25:14.000Z</Time>
            <Position>
              <LatitudeDegrees>38.237068466842174530029296875</LatitudeDegrees>
              <LongitudeDegrees>-1.18588842451572418212890625</LongitudeDegrees>
            </Position>
            <AltitudeMeters>503.399993896484375</AltitudeMeters>
            <DistanceMeters>NAN</DistanceMeters>
          </Trackpoint>
          <Trackpoint>
            <Time>2020-05-25T06:25:15.000Z</Time>
            <Position>
              <LatitudeDegrees>38.23696193285286426544189453125</LatitudeDegrees>
              <LongitudeDegrees>-1.1859962157905101776123046875</LongitudeDegrees>
            </Position>
            <AltitudeMeters>502.600006103515625</AltitudeMeters>
            <DistanceMeters>NAN</DistanceMeters>
          </Trackpoint>
          <Trackpoint>
            <Time>2020-05-25T06:25:16.000Z</Time>
            <Position>
              <LatitudeDegrees>38.2368493638932704925537109375</LatitudeDegrees>
              <LongitudeDegrees>-1.1860974691808223724365234375</LongitudeDegrees>
            </Position>
            <AltitudeMeters>501.79998779296875</AltitudeMeters>
            <DistanceMeters>NAN</DistanceMeters>
          </Trackpoint>
          <Trackpoint>
            <Time>2020-05-25T06:25:17.000Z</Time>
            <Position>
              <LatitudeDegrees>38.2367300055921077728271484375</LatitudeDegrees>
              <LongitudeDegrees>-1.1861940287053585052490234375</LongitudeDegrees>
            </Position>
            <AltitudeMeters>501</AltitudeMeters>
            <DistanceMeters>NAN</DistanceMeters>
          </Trackpoint>
          <Trackpoint>
            <Time>2020-05-25T06:25:18.000Z</Time>
            <Position>
              <LatitudeDegrees>38.2366069592535495758056640625</LatitudeDegrees>
              <LongitudeDegrees>-1.18628614582121372222900390625</LongitudeDegrees>
            </Position>
            <AltitudeMeters>500.20001220703125</AltitudeMeters>
            <DistanceMeters>NAN</DistanceMeters>
          </Trackpoint>
          <Trackpoint>
            <Time>2020-05-25T06:25:19.000Z</Time>
            <Position>
              <LatitudeDegrees>38.23647997342050075531005859375</LatitudeDegrees>
              <LongitudeDegrees>-1.18637566454708576202392578125</LongitudeDegrees>
            </Position>
            <AltitudeMeters>499</AltitudeMeters>
            <DistanceMeters>NAN</DistanceMeters>
          </Trackpoint>
          <Trackpoint>
            <Time>2020-05-25T06:25:20.000Z</Time>
            <Position>
              <LatitudeDegrees>38.23635139502584934234619140625</LatitudeDegrees>
              <LongitudeDegrees>-1.18646442890167236328125</LongitudeDegrees>
            </Position>
            <AltitudeMeters>498</AltitudeMeters>
            <DistanceMeters>NAN</DistanceMeters>
          </Trackpoint>
          <Trackpoint>
            <Time>2020-05-25T06:25:21.000Z</Time>
            <Position>
              <LatitudeDegrees>38.23622097261250019073486328125</LatitudeDegrees>
              <LongitudeDegrees>-1.1865516006946563720703125</LongitudeDegrees>
            </Position>
            <AltitudeMeters>496.399993896484375</AltitudeMeters>
            <DistanceMeters>NAN</DistanceMeters>
          </Trackpoint>
          <Trackpoint>
            <Time>2020-05-25T06:25:22.000Z</Time>
            <Position>
              <LatitudeDegrees>38.23608853854238986968994140625</LatitudeDegrees>
              <LongitudeDegrees>-1.186632402241230010986328125</LongitudeDegrees>
            </Position>
            <AltitudeMeters>495.399993896484375</AltitudeMeters>
            <DistanceMeters>NAN</DistanceMeters>
          </Trackpoint>
          <Trackpoint>
            <Time>2020-05-25T06:25:23.000Z</Time>
            <Position>
              <LatitudeDegrees>38.2359585352241992950439453125</LatitudeDegrees>
              <LongitudeDegrees>-1.18670758791267871856689453125</LongitudeDegrees>
            </Position>
            <AltitudeMeters>493.600006103515625</AltitudeMeters>
            <DistanceMeters>NAN</DistanceMeters>
          </Trackpoint>
          <Trackpoint>
            <Time>2020-05-25T06:25:24.000Z</Time>
            <Position>
              <LatitudeDegrees>38.235831297934055328369140625</LatitudeDegrees>
              <LongitudeDegrees>-1.18677145801484584808349609375</LongitudeDegrees>
            </Position>
            <AltitudeMeters>491.600006103515625</AltitudeMeters>
            <DistanceMeters>NAN</DistanceMeters>
          </Trackpoint>
          <Trackpoint>
            <Time>2020-05-25T06:25:25.000Z</Time>
            <Position>
              <LatitudeDegrees>38.2357089221477508544921875</LatitudeDegrees>
              <LongitudeDegrees>-1.186820827424526214599609375</LongitudeDegrees>
            </Position>
            <AltitudeMeters>490</AltitudeMeters>
            <DistanceMeters>NAN</DistanceMeters>
          </Trackpoint>
          <Trackpoint>
            <Time>2020-05-25T06:25:26.000Z</Time>
            <Position>
              <LatitudeDegrees>38.235589563846588134765625</LatitudeDegrees>
              <LongitudeDegrees>-1.18685510940849781036376953125</LongitudeDegrees>
            </Position>
            <AltitudeMeters>488.79998779296875</AltitudeMeters>
            <DistanceMeters>NAN</DistanceMeters>
          </Trackpoint>
          <Trackpoint>
            <Time>2020-05-25T06:25:27.000Z</Time>
            <Position>
              <LatitudeDegrees>38.23547665961086750030517578125</LatitudeDegrees>
              <LongitudeDegrees>-1.1868774890899658203125</LongitudeDegrees>
            </Position>
            <AltitudeMeters>488</AltitudeMeters>
            <DistanceMeters>NAN</DistanceMeters>
          </Trackpoint>
          <Trackpoint>
            <Time>2020-05-25T06:25:28.000Z</Time>
            <Position>
              <LatitudeDegrees>38.235369957983493804931640625</LatitudeDegrees>
              <LongitudeDegrees>-1.186883188784122467041015625</LongitudeDegrees>
            </Position>
            <AltitudeMeters>487.600006103515625</AltitudeMeters>
            <DistanceMeters>NAN</DistanceMeters>
          </Trackpoint>
          <Trackpoint>
            <Time>2020-05-25T06:25:29.000Z</Time>
            <Position>
              <LatitudeDegrees>38.23526610620319843292236328125</LatitudeDegrees>
              <LongitudeDegrees>-1.18687388487160205841064453125</LongitudeDegrees>
            </Position>
            <AltitudeMeters>486.600006103515625</AltitudeMeters>
            <DistanceMeters>NAN</DistanceMeters>
          </Trackpoint>
          <Trackpoint>
            <Time>2020-05-25T06:25:30.000Z</Time>
            <Position>
              <LatitudeDegrees>38.23516367934644222259521484375</LatitudeDegrees>
              <LongitudeDegrees>-1.18684488348662853240966796875</LongitudeDegrees>
            </Position>
            <AltitudeMeters>485.79998779296875</AltitudeMeters>
            <DistanceMeters>NAN</DistanceMeters>
          </Trackpoint>
          <Trackpoint>
            <Time>2020-05-25T06:25:31.000Z</Time>
            <Position>
              <LatitudeDegrees>38.23506812565028667449951171875</LatitudeDegrees>
              <LongitudeDegrees>-1.1867871321737766265869140625</LongitudeDegrees>
            </Position>
            <AltitudeMeters>484.399993896484375</AltitudeMeters>
            <DistanceMeters>NAN</DistanceMeters>
          </Trackpoint>
          <Trackpoint>
            <Time>2020-05-25T06:25:32.000Z</Time>
            <Position>
              <LatitudeDegrees>38.23498229496181011199951171875</LatitudeDegrees>
              <LongitudeDegrees>-1.1867006309330463409423828125</LongitudeDegrees>
            </Position>
            <AltitudeMeters>483</AltitudeMeters>
            <DistanceMeters>NAN</DistanceMeters>
          </Trackpoint>
          <Trackpoint>
            <Time>2020-05-25T06:25:33.000Z</Time>
            <Position>
              <LatitudeDegrees>38.2349081151187419891357421875</LatitudeDegrees>
              <LongitudeDegrees>-1.18660432286560535430908203125</LongitudeDegrees>
            </Position>
            <AltitudeMeters>482.20001220703125</AltitudeMeters>
            <DistanceMeters>NAN</DistanceMeters>
          </Trackpoint>
          <Trackpoint>
            <Time>2020-05-25T06:25:34.000Z</Time>
            <Position>
              <LatitudeDegrees>38.2348420657217502593994140625</LatitudeDegrees>
              <LongitudeDegrees>-1.186501979827880859375</LongitudeDegrees>
            </Position>
            <AltitudeMeters>481.399993896484375</AltitudeMeters>
            <DistanceMeters>NAN</DistanceMeters>
          </Trackpoint>
          <Trackpoint>
            <Time>2020-05-25T06:25:35.000Z</Time>
            <Position>
              <LatitudeDegrees>38.2347800396382808685302734375</LatitudeDegrees>
              <LongitudeDegrees>-1.1863962002098560333251953125</LongitudeDegrees>
            </Position>
            <AltitudeMeters>480.79998779296875</AltitudeMeters>
            <DistanceMeters>NAN</DistanceMeters>
          </Trackpoint>
          <Trackpoint>
            <Time>2020-05-25T06:25:36.000Z</Time>
            <Position>
              <LatitudeDegrees>38.234717845916748046875</LatitudeDegrees>
              <LongitudeDegrees>-1.18628866039216518402099609375</LongitudeDegrees>
            </Position>
            <AltitudeMeters>480.399993896484375</AltitudeMeters>
            <DistanceMeters>NAN</DistanceMeters>
          </Trackpoint>
          <Trackpoint>
            <Time>2020-05-25T06:25:37.000Z</Time>
            <Position>
              <LatitudeDegrees>38.23465573601424694061279296875</LatitudeDegrees>
              <LongitudeDegrees>-1.1861849762499332427978515625</LongitudeDegrees>
            </Position>
            <AltitudeMeters>479.79998779296875</AltitudeMeters>
            <DistanceMeters>NAN</DistanceMeters>
          </Trackpoint>
          <Trackpoint>
            <Time>2020-05-25T06:25:38.000Z</Time>
            <Position>
              <LatitudeDegrees>38.23459387756884098052978515625</LatitudeDegrees>
              <LongitudeDegrees>-1.18608380667865276336669921875</LongitudeDegrees>
            </Position>
            <AltitudeMeters>479.399993896484375</AltitudeMeters>
            <DistanceMeters>NAN</DistanceMeters>
          </Trackpoint>
          <Trackpoint>
            <Time>2020-05-25T06:25:39.000Z</Time>
            <Position>
              <LatitudeDegrees>38.23453252203762531280517578125</LatitudeDegrees>
              <LongitudeDegrees>-1.1859828047454357147216796875</LongitudeDegrees>
            </Position>
            <AltitudeMeters>479.20001220703125</AltitudeMeters>
            <DistanceMeters>NAN</DistanceMeters>
          </Trackpoint>
          <Trackpoint>
            <Time>2020-05-25T06:25:40.000Z</Time>
            <Position>
              <LatitudeDegrees>38.2344715856015682220458984375</LatitudeDegrees>
              <LongitudeDegrees>-1.18588482029736042022705078125</LongitudeDegrees>
            </Position>
            <AltitudeMeters>478.600006103515625</AltitudeMeters>
            <DistanceMeters>NAN</DistanceMeters>
          </Trackpoint>
          <Trackpoint>
            <Time>2020-05-25T06:25:41.000Z</Time>
            <Position>
              <LatitudeDegrees>38.2344092242419719696044921875</LatitudeDegrees>
              <LongitudeDegrees>-1.185788847506046295166015625</LongitudeDegrees>
            </Position>
            <AltitudeMeters>478.399993896484375</AltitudeMeters>
            <DistanceMeters>NAN</DistanceMeters>
          </Trackpoint>
          <Trackpoint>
            <Time>2020-05-25T06:25:42.000Z</Time>
            <Position>
              <LatitudeDegrees>38.23434728197753429412841796875</LatitudeDegrees>
              <LongitudeDegrees>-1.18569388054311275482177734375</LongitudeDegrees>
            </Position>
            <AltitudeMeters>478.20001220703125</AltitudeMeters>
            <DistanceMeters>NAN</DistanceMeters>
          </Trackpoint>
          <Trackpoint>
            <Time>2020-05-25T06:25:43.000Z</Time>
            <Position>
              <LatitudeDegrees>38.23428559117019176483154296875</LatitudeDegrees>
              <LongitudeDegrees>-1.1856002546846866607666015625</LongitudeDegrees>
            </Position>
            <AltitudeMeters>478</AltitudeMeters>
            <DistanceMeters>NAN</DistanceMeters>
          </Trackpoint>
          <Trackpoint>
            <Time>2020-05-25T06:25:44.000Z</Time>
            <Position>
              <LatitudeDegrees>38.23422490619122982025146484375</LatitudeDegrees>
              <LongitudeDegrees>-1.18550813756883144378662109375</LongitudeDegrees>
            </Position>
            <AltitudeMeters>477.79998779296875</AltitudeMeters>
            <DistanceMeters>NAN</DistanceMeters>
          </Trackpoint>
          <Trackpoint>
            <Time>2020-05-25T06:25:45.000Z</Time>
            <Position>
              <LatitudeDegrees>38.23416472412645816802978515625</LatitudeDegrees>
              <LongitudeDegrees>-1.18541744537651538848876953125</LongitudeDegrees>
            </Position>
            <AltitudeMeters>477.600006103515625</AltitudeMeters>
            <DistanceMeters>NAN</DistanceMeters>
          </Trackpoint>
          <Trackpoint>
            <Time>2020-05-25T06:25:46.000Z</Time>
            <Position>
              <LatitudeDegrees>38.2341051287949085235595703125</LatitudeDegrees>
              <LongitudeDegrees>-1.185326837003231048583984375</LongitudeDegrees>
            </Position>
            <AltitudeMeters>477.600006103515625</AltitudeMeters>
            <DistanceMeters>NAN</DistanceMeters>
          </Trackpoint>
          <Trackpoint>
            <Time>2020-05-25T06:25:47.000Z</Time>
            <Position>
              <LatitudeDegrees>38.23404586873948574066162109375</LatitudeDegrees>
              <LongitudeDegrees>-1.185236312448978424072265625</LongitudeDegrees>
            </Position>
            <AltitudeMeters>477.399993896484375</AltitudeMeters>
            <DistanceMeters>NAN</DistanceMeters>
          </Trackpoint>
          <Trackpoint>
            <Time>2020-05-25T06:25:48.000Z</Time>
            <Position>
              <LatitudeDegrees>38.233984597027301788330078125</LatitudeDegrees>
              <LongitudeDegrees>-1.18514947593212127685546875</LongitudeDegrees>
            </Position>
            <AltitudeMeters>477.399993896484375</AltitudeMeters>
            <DistanceMeters>NAN</DistanceMeters>
          </Trackpoint>
          <Trackpoint>
            <Time>2020-05-25T06:25:49.000Z</Time>
            <Position>
              <LatitudeDegrees>38.23392282240092754364013671875</LatitudeDegrees>
              <LongitudeDegrees>-1.1850618012249469757080078125</LongitudeDegrees>
            </Position>
            <AltitudeMeters>477.399993896484375</AltitudeMeters>
            <DistanceMeters>NAN</DistanceMeters>
          </Trackpoint>
          <Trackpoint>
            <Time>2020-05-25T06:25:50.000Z</Time>
            <Position>
              <LatitudeDegrees>38.23386280797421932220458984375</LatitudeDegrees>
              <LongitudeDegrees>-1.184972785413265228271484375</LongitudeDegrees>
            </Position>
            <AltitudeMeters>477.399993896484375</AltitudeMeters>
            <DistanceMeters>NAN</DistanceMeters>
          </Trackpoint>
          <Trackpoint>
            <Time>2020-05-25T06:25:51.000Z</Time>
            <Position>
              <LatitudeDegrees>38.23380497284233570098876953125</LatitudeDegrees>
              <LongitudeDegrees>-1.18488267995417118072509765625</LongitudeDegrees>
            </Position>
            <AltitudeMeters>477.399993896484375</AltitudeMeters>
            <DistanceMeters>NAN</DistanceMeters>
          </Trackpoint>
          <Trackpoint>
            <Time>2020-05-25T06:25:52.000Z</Time>
            <Position>
              <LatitudeDegrees>38.2337470538914203643798828125</LatitudeDegrees>
              <LongitudeDegrees>-1.18478880263864994049072265625</LongitudeDegrees>
            </Position>
            <AltitudeMeters>477.399993896484375</AltitudeMeters>
            <DistanceMeters>NAN</DistanceMeters>
          </Trackpoint>
          <Trackpoint>
            <Time>2020-05-25T06:25:53.000Z</Time>
            <Position>
              <LatitudeDegrees>38.233688883483409881591796875</LatitudeDegrees>
              <LongitudeDegrees>-1.18469492532312870025634765625</LongitudeDegrees>
            </Position>
            <AltitudeMeters>477.20001220703125</AltitudeMeters>
            <DistanceMeters>NAN</DistanceMeters>
          </Trackpoint>
          <Trackpoint>
            <Time>2020-05-25T06:25:54.000Z</Time>
            <Position>
              <LatitudeDegrees>38.23363549076020717620849609375</LatitudeDegrees>
              <LongitudeDegrees>-1.18460289202630519866943359375</LongitudeDegrees>
            </Position>
            <AltitudeMeters>477.20001220703125</AltitudeMeters>
            <DistanceMeters>NAN</DistanceMeters>
          </Trackpoint>
          <Trackpoint>
            <Time>2020-05-25T06:25:55.000Z</Time>
            <Position>
              <LatitudeDegrees>38.233588971197605133056640625</LatitudeDegrees>
              <LongitudeDegrees>-1.1845055781304836273193359375</LongitudeDegrees>
            </Position>
            <AltitudeMeters>477</AltitudeMeters>
            <DistanceMeters>NAN</DistanceMeters>
          </Trackpoint>
          <Trackpoint>
            <Time>2020-05-25T06:25:56.000Z</Time>
            <Position>
              <LatitudeDegrees>38.23355041444301605224609375</LatitudeDegrees>
              <LongitudeDegrees>-1.18440457619726657867431640625</LongitudeDegrees>
            </Position>
            <AltitudeMeters>477.20001220703125</AltitudeMeters>
            <DistanceMeters>NAN</DistanceMeters>
          </Trackpoint>
          <Trackpoint>
            <Time>2020-05-25T06:25:57.000Z</Time>
            <Position>
              <LatitudeDegrees>38.2335251010954380035400390625</LatitudeDegrees>
              <LongitudeDegrees>-1.1843040771782398223876953125</LongitudeDegrees>
            </Position>
            <AltitudeMeters>477.20001220703125</AltitudeMeters>
            <DistanceMeters>NAN</DistanceMeters>
          </Trackpoint>
          <Trackpoint>
            <Time>2020-05-25T06:25:58.000Z</Time>
            <Position>
              <LatitudeDegrees>38.23351311497390270233154296875</LatitudeDegrees>
              <LongitudeDegrees>-1.184199638664722442626953125</LongitudeDegrees>
            </Position>
            <AltitudeMeters>477.20001220703125</AltitudeMeters>
            <DistanceMeters>NAN</DistanceMeters>
          </Trackpoint>
          <Trackpoint>
            <Time>2020-05-25T06:25:59.000Z</Time>
            <Position>
              <LatitudeDegrees>38.23351026512682437896728515625</LatitudeDegrees>
              <LongitudeDegrees>-1.18409243412315845489501953125</LongitudeDegrees>
            </Position>
            <AltitudeMeters>477.20001220703125</AltitudeMeters>
            <DistanceMeters>NAN</DistanceMeters>
          </Trackpoint>
          <Trackpoint>
            <Time>2020-05-25T06:26:00.000Z</Time>
            <Position>
              <LatitudeDegrees>38.23351529426872730255126953125</LatitudeDegrees>
              <LongitudeDegrees>-1.18398346938192844390869140625</LongitudeDegrees>
            </Position>
            <AltitudeMeters>477.20001220703125</AltitudeMeters>
            <DistanceMeters>NAN</DistanceMeters>
          </Trackpoint>
          <Trackpoint>
            <Time>2020-05-25T06:26:01.000Z</Time>
            <Position>
              <LatitudeDegrees>38.23352158069610595703125</LatitudeDegrees>
              <LongitudeDegrees>-1.18387165479362010955810546875</LongitudeDegrees>
            </Position>
            <AltitudeMeters>477.20001220703125</AltitudeMeters>
            <DistanceMeters>NAN</DistanceMeters>
          </Trackpoint>
          <Trackpoint>
            <Time>2020-05-25T06:26:02.000Z</Time>
            <Position>
              <LatitudeDegrees>38.23353054933249950408935546875</LatitudeDegrees>
              <LongitudeDegrees>-1.183759085834026336669921875</LongitudeDegrees>
            </Position>
            <AltitudeMeters>477.20001220703125</AltitudeMeters>
            <DistanceMeters>NAN</DistanceMeters>
          </Trackpoint>
          <Trackpoint>
            <Time>2020-05-25T06:26:03.000Z</Time>
            <Position>
              <LatitudeDegrees>38.233540691435337066650390625</LatitudeDegrees>
              <LongitudeDegrees>-1.18364634923636913299560546875</LongitudeDegrees>
            </Position>
            <AltitudeMeters>477.20001220703125</AltitudeMeters>
            <DistanceMeters>NAN</DistanceMeters>
          </Trackpoint>
          <Trackpoint>
            <Time>2020-05-25T06:26:04.000Z</Time>
            <Position>
              <LatitudeDegrees>38.23355033062398433685302734375</LatitudeDegrees>
              <LongitudeDegrees>-1.18353436700999736785888671875</LongitudeDegrees>
            </Position>
            <AltitudeMeters>477</AltitudeMeters>
            <DistanceMeters>NAN</DistanceMeters>
          </Trackpoint>
          <Trackpoint>
            <Time>2020-05-25T06:26:05.000Z</Time>
            <Position>
              <LatitudeDegrees>38.23355619795620441436767578125</LatitudeDegrees>
              <LongitudeDegrees>-1.183420456945896148681640625</LongitudeDegrees>
            </Position>
            <AltitudeMeters>477</AltitudeMeters>
            <DistanceMeters>NAN</DistanceMeters>
          </Trackpoint>
          <Trackpoint>
            <Time>2020-05-25T06:26:06.000Z</Time>
            <Position>
              <LatitudeDegrees>38.23355770669877529144287109375</LatitudeDegrees>
              <LongitudeDegrees>-1.183303780853748321533203125</LongitudeDegrees>
            </Position>
            <AltitudeMeters>477</AltitudeMeters>
            <DistanceMeters>NAN</DistanceMeters>
          </Trackpoint>
          <Trackpoint>
            <Time>2020-05-25T06:26:07.000Z</Time>
            <Position>
              <LatitudeDegrees>38.233554102480411529541015625</LatitudeDegrees>
              <LongitudeDegrees>-1.18318417109549045562744140625</LongitudeDegrees>
            </Position>
            <AltitudeMeters>477</AltitudeMeters>
            <DistanceMeters>NAN</DistanceMeters>
          </Trackpoint>
          <Trackpoint>
            <Time>2020-05-25T06:26:08.000Z</Time>
            <Position>
              <LatitudeDegrees>38.233548067510128021240234375</LatitudeDegrees>
              <LongitudeDegrees>-1.18306464515626430511474609375</LongitudeDegrees>
            </Position>
            <AltitudeMeters>476.79998779296875</AltitudeMeters>
            <DistanceMeters>NAN</DistanceMeters>
          </Trackpoint>
          <Trackpoint>
            <Time>2020-05-25T06:26:09.000Z</Time>
            <Position>
              <LatitudeDegrees>38.23353691957890987396240234375</LatitudeDegrees>
              <LongitudeDegrees>-1.18294076062738895416259765625</LongitudeDegrees>
            </Position>
            <AltitudeMeters>476.79998779296875</AltitudeMeters>
            <DistanceMeters>NAN</DistanceMeters>
          </Trackpoint>
          <Trackpoint>
            <Time>2020-05-25T06:26:10.000Z</Time>
            <Position>
              <LatitudeDegrees>38.2335200719535350799560546875</LatitudeDegrees>
              <LongitudeDegrees>-1.1828110925853252410888671875</LongitudeDegrees>
            </Position>
            <AltitudeMeters>476.399993896484375</AltitudeMeters>
            <DistanceMeters>NAN</DistanceMeters>
          </Trackpoint>
          <Trackpoint>
            <Time>2020-05-25T06:26:11.000Z</Time>
            <Position>
              <LatitudeDegrees>38.23350079357624053955078125</LatitudeDegrees>
              <LongitudeDegrees>-1.182684190571308135986328125</LongitudeDegrees>
            </Position>
            <AltitudeMeters>476.20001220703125</AltitudeMeters>
            <DistanceMeters>NAN</DistanceMeters>
          </Trackpoint>
          <Trackpoint>
            <Time>2020-05-25T06:26:12.000Z</Time>
            <Position>
              <LatitudeDegrees>38.23347799479961395263671875</LatitudeDegrees>
              <LongitudeDegrees>-1.18255754001438617706298828125</LongitudeDegrees>
            </Position>
            <AltitudeMeters>476</AltitudeMeters>
            <DistanceMeters>NAN</DistanceMeters>
          </Trackpoint>
          <Trackpoint>
            <Time>2020-05-25T06:26:13.000Z</Time>
            <Position>
              <LatitudeDegrees>38.233452849090099334716796875</LatitudeDegrees>
              <LongitudeDegrees>-1.18242946453392505645751953125</LongitudeDegrees>
            </Position>
            <AltitudeMeters>475.399993896484375</AltitudeMeters>
            <DistanceMeters>NAN</DistanceMeters>
          </Trackpoint>
          <Trackpoint>
            <Time>2020-05-25T06:26:14.000Z</Time>
            <Position>
              <LatitudeDegrees>38.233425356447696685791015625</LatitudeDegrees>
              <LongitudeDegrees>-1.1822977848351001739501953125</LongitudeDegrees>
            </Position>
            <AltitudeMeters>474.79998779296875</AltitudeMeters>
            <DistanceMeters>NAN</DistanceMeters>
          </Trackpoint>
          <Trackpoint>
            <Time>2020-05-25T06:26:15.000Z</Time>
            <Position>
              <LatitudeDegrees>38.23340021073818206787109375</LatitudeDegrees>
              <LongitudeDegrees>-1.1821650154888629913330078125</LongitudeDegrees>
            </Position>
            <AltitudeMeters>474.600006103515625</AltitudeMeters>
            <DistanceMeters>NAN</DistanceMeters>
          </Trackpoint>
          <Trackpoint>
            <Time>2020-05-25T06:26:16.000Z</Time>
            <Position>
              <LatitudeDegrees>38.233381770551204681396484375</LatitudeDegrees>
              <LongitudeDegrees>-1.1820309050381183624267578125</LongitudeDegrees>
            </Position>
            <AltitudeMeters>474</AltitudeMeters>
            <DistanceMeters>NAN</DistanceMeters>
          </Trackpoint>
          <Trackpoint>
            <Time>2020-05-25T06:26:17.000Z</Time>
            <Position>
              <LatitudeDegrees>38.23337011970579624176025390625</LatitudeDegrees>
              <LongitudeDegrees>-1.18189754895865917205810546875</LongitudeDegrees>
            </Position>
            <AltitudeMeters>473.600006103515625</AltitudeMeters>
            <DistanceMeters>NAN</DistanceMeters>
          </Trackpoint>
          <Trackpoint>
            <Time>2020-05-25T06:26:18.000Z</Time>
            <Position>
              <LatitudeDegrees>38.2333646714687347412109375</LatitudeDegrees>
              <LongitudeDegrees>-1.18176192976534366607666015625</LongitudeDegrees>
            </Position>
            <AltitudeMeters>473.399993896484375</AltitudeMeters>
            <DistanceMeters>NAN</DistanceMeters>
          </Trackpoint>
          <Trackpoint>
            <Time>2020-05-25T06:26:19.000Z</Time>
            <Position>
              <LatitudeDegrees>38.233362995088100433349609375</LatitudeDegrees>
              <LongitudeDegrees>-1.18162379600107669830322265625</LongitudeDegrees>
            </Position>
            <AltitudeMeters>473.20001220703125</AltitudeMeters>
            <DistanceMeters>NAN</DistanceMeters>
          </Trackpoint>
          <Trackpoint>
            <Time>2020-05-25T06:26:20.000Z</Time>
            <Position>
              <LatitudeDegrees>38.23335989378392696380615234375</LatitudeDegrees>
              <LongitudeDegrees>-1.181486584246158599853515625</LongitudeDegrees>
            </Position>
            <AltitudeMeters>472.600006103515625</AltitudeMeters>
            <DistanceMeters>NAN</DistanceMeters>
          </Trackpoint>
          <Trackpoint>
            <Time>2020-05-25T06:26:21.000Z</Time>
            <Position>
              <LatitudeDegrees>38.2333517633378505706787109375</LatitudeDegrees>
              <LongitudeDegrees>-1.18134970776736736297607421875</LongitudeDegrees>
            </Position>
            <AltitudeMeters>471.79998779296875</AltitudeMeters>
            <DistanceMeters>NAN</DistanceMeters>
          </Trackpoint>
          <Trackpoint>
            <Time>2020-05-25T06:26:22.000Z</Time>
            <Position>
              <LatitudeDegrees>38.23333642445504665374755859375</LatitudeDegrees>
              <LongitudeDegrees>-1.1812148429453372955322265625</LongitudeDegrees>
            </Position>
            <AltitudeMeters>471.20001220703125</AltitudeMeters>
            <DistanceMeters>NAN</DistanceMeters>
          </Trackpoint>
          <Trackpoint>
            <Time>2020-05-25T06:26:23.000Z</Time>
            <Position>
              <LatitudeDegrees>38.23331345804035663604736328125</LatitudeDegrees>
              <LongitudeDegrees>-1.18108048103749752044677734375</LongitudeDegrees>
            </Position>
            <AltitudeMeters>471</AltitudeMeters>
            <DistanceMeters>NAN</DistanceMeters>
          </Trackpoint>
          <Trackpoint>
            <Time>2020-05-25T06:26:24.000Z</Time>
            <Position>
              <LatitudeDegrees>38.23328596539795398712158203125</LatitudeDegrees>
              <LongitudeDegrees>-1.18094553239643573760986328125</LongitudeDegrees>
            </Position>
            <AltitudeMeters>470.20001220703125</AltitudeMeters>
            <DistanceMeters>NAN</DistanceMeters>
          </Trackpoint>
          <Trackpoint>
            <Time>2020-05-25T06:26:25.000Z</Time>
            <Position>
              <LatitudeDegrees>38.23325696401298046112060546875</LatitudeDegrees>
              <LongitudeDegrees>-1.18081142194569110870361328125</LongitudeDegrees>
            </Position>
            <AltitudeMeters>469.79998779296875</AltitudeMeters>
            <DistanceMeters>NAN</DistanceMeters>
          </Trackpoint>
          <Trackpoint>
            <Time>2020-05-25T06:26:26.000Z</Time>
            <Position>
              <LatitudeDegrees>38.23322854936122894287109375</LatitudeDegrees>
              <LongitudeDegrees>-1.1806780658662319183349609375</LongitudeDegrees>
            </Position>
            <AltitudeMeters>469.20001220703125</AltitudeMeters>
            <DistanceMeters>NAN</DistanceMeters>
          </Trackpoint>
          <Trackpoint>
            <Time>2020-05-25T06:26:27.000Z</Time>
            <Position>
              <LatitudeDegrees>38.233199380338191986083984375</LatitudeDegrees>
              <LongitudeDegrees>-1.1805456317961215972900390625</LongitudeDegrees>
            </Position>
            <AltitudeMeters>468.20001220703125</AltitudeMeters>
            <DistanceMeters>NAN</DistanceMeters>
          </Trackpoint>
          <Trackpoint>
            <Time>2020-05-25T06:26:28.000Z</Time>
            <Position>
              <LatitudeDegrees>38.23316895402967929840087890625</LatitudeDegrees>
              <LongitudeDegrees>-1.18040942586958408355712890625</LongitudeDegrees>
            </Position>
            <AltitudeMeters>467.600006103515625</AltitudeMeters>
            <DistanceMeters>NAN</DistanceMeters>
          </Trackpoint>
          <Trackpoint>
            <Time>2020-05-25T06:26:29.000Z</Time>
            <Position>
              <LatitudeDegrees>38.233135677874088287353515625</LatitudeDegrees>
              <LongitudeDegrees>-1.18027414195239543914794921875</LongitudeDegrees>
            </Position>
            <AltitudeMeters>467.20001220703125</AltitudeMeters>
            <DistanceMeters>NAN</DistanceMeters>
          </Trackpoint>
          <Trackpoint>
            <Time>2020-05-25T06:26:30.000Z</Time>
            <Position>
              <LatitudeDegrees>38.23309737257659435272216796875</LatitudeDegrees>
              <LongitudeDegrees>-1.18014254607260227203369140625</LongitudeDegrees>
            </Position>
            <AltitudeMeters>466.79998779296875</AltitudeMeters>
            <DistanceMeters>NAN</DistanceMeters>
          </Trackpoint>
          <Trackpoint>
            <Time>2020-05-25T06:26:31.000Z</Time>
            <Position>
              <LatitudeDegrees>38.23305345140397548675537109375</LatitudeDegrees>
              <LongitudeDegrees>-1.1800123751163482666015625</LongitudeDegrees>
            </Position>
            <AltitudeMeters>466.399993896484375</AltitudeMeters>
            <DistanceMeters>NAN</DistanceMeters>
          </Trackpoint>
          <Trackpoint>
            <Time>2020-05-25T06:26:32.000Z</Time>
            <Position>
              <LatitudeDegrees>38.23300533927977085113525390625</LatitudeDegrees>
              <LongitudeDegrees>-1.1798834614455699920654296875</LongitudeDegrees>
            </Position>
            <AltitudeMeters>465.79998779296875</AltitudeMeters>
            <DistanceMeters>NAN</DistanceMeters>
          </Trackpoint>
          <Trackpoint>
            <Time>2020-05-25T06:26:33.000Z</Time>
            <Position>
              <LatitudeDegrees>38.23295337148010730743408203125</LatitudeDegrees>
              <LongitudeDegrees>-1.17975396104156970977783203125</LongitudeDegrees>
            </Position>
            <AltitudeMeters>465</AltitudeMeters>
            <DistanceMeters>NAN</DistanceMeters>
          </Trackpoint>
          <Trackpoint>
            <Time>2020-05-25T06:26:34.000Z</Time>
            <Position>
              <LatitudeDegrees>38.2328991405665874481201171875</LatitudeDegrees>
              <LongitudeDegrees>-1.1796232871711254119873046875</LongitudeDegrees>
            </Position>
            <AltitudeMeters>464.600006103515625</AltitudeMeters>
            <DistanceMeters>NAN</DistanceMeters>
          </Trackpoint>
          <Trackpoint>
            <Time>2020-05-25T06:26:35.000Z</Time>
            <Position>
              <LatitudeDegrees>38.23284524492919445037841796875</LatitudeDegrees>
              <LongitudeDegrees>-1.1794915236532688140869140625</LongitudeDegrees>
            </Position>
            <AltitudeMeters>464.399993896484375</AltitudeMeters>
            <DistanceMeters>NAN</DistanceMeters>
          </Trackpoint>
          <Trackpoint>
            <Time>2020-05-25T06:26:36.000Z</Time>
            <Position>
              <LatitudeDegrees>38.2327918522059917449951171875</LatitudeDegrees>
              <LongitudeDegrees>-1.17935732938349246978759765625</LongitudeDegrees>
            </Position>
            <AltitudeMeters>463.20001220703125</AltitudeMeters>
            <DistanceMeters>NAN</DistanceMeters>
          </Trackpoint>
          <Trackpoint>
            <Time>2020-05-25T06:26:37.000Z</Time>
            <Position>
              <LatitudeDegrees>38.23273946531116962432861328125</LatitudeDegrees>
              <LongitudeDegrees>-1.1792211234569549560546875</LongitudeDegrees>
            </Position>
            <AltitudeMeters>462.79998779296875</AltitudeMeters>
            <DistanceMeters>NAN</DistanceMeters>
          </Trackpoint>
          <Trackpoint>
            <Time>2020-05-25T06:26:38.000Z</Time>
            <Position>
              <LatitudeDegrees>38.23268674314022064208984375</LatitudeDegrees>
              <LongitudeDegrees>-1.1790838278830051422119140625</LongitudeDegrees>
            </Position>
            <AltitudeMeters>462.20001220703125</AltitudeMeters>
            <DistanceMeters>NAN</DistanceMeters>
          </Trackpoint>
          <Trackpoint>
            <Time>2020-05-25T06:26:39.000Z</Time>
            <Position>
              <LatitudeDegrees>38.23263351805508136749267578125</LatitudeDegrees>
              <LongitudeDegrees>-1.1789453588426113128662109375</LongitudeDegrees>
            </Position>
            <AltitudeMeters>461.79998779296875</AltitudeMeters>
            <DistanceMeters>NAN</DistanceMeters>
          </Trackpoint>
          <Trackpoint>
            <Time>2020-05-25T06:26:40.000Z</Time>
            <Position>
              <LatitudeDegrees>38.23257752694189548492431640625</LatitudeDegrees>
              <LongitudeDegrees>-1.17880647070705890655517578125</LongitudeDegrees>
            </Position>
            <AltitudeMeters>461</AltitudeMeters>
            <DistanceMeters>NAN</DistanceMeters>
          </Trackpoint>
          <Trackpoint>
            <Time>2020-05-25T06:26:41.000Z</Time>
            <Position>
              <LatitudeDegrees>38.2325199432671070098876953125</LatitudeDegrees>
              <LongitudeDegrees>-1.17867194116115570068359375</LongitudeDegrees>
            </Position>
            <AltitudeMeters>460</AltitudeMeters>
            <DistanceMeters>NAN</DistanceMeters>
          </Trackpoint>
          <Trackpoint>
            <Time>2020-05-25T06:26:42.000Z</Time>
            <Position>
              <LatitudeDegrees>38.2324585877358913421630859375</LatitudeDegrees>
              <LongitudeDegrees>-1.17853757925331592559814453125</LongitudeDegrees>
            </Position>
            <AltitudeMeters>459.399993896484375</AltitudeMeters>
            <DistanceMeters>NAN</DistanceMeters>
          </Trackpoint>
          <Trackpoint>
            <Time>2020-05-25T06:26:43.000Z</Time>
            <Position>
              <LatitudeDegrees>38.2323935441672801971435546875</LatitudeDegrees>
              <LongitudeDegrees>-1.17840330116450786590576171875</LongitudeDegrees>
            </Position>
            <AltitudeMeters>458.79998779296875</AltitudeMeters>
            <DistanceMeters>NAN</DistanceMeters>
          </Trackpoint>
          <Trackpoint>
            <Time>2020-05-25T06:26:44.000Z</Time>
            <Position>
              <LatitudeDegrees>38.23232305236160755157470703125</LatitudeDegrees>
              <LongitudeDegrees>-1.17827388457953929901123046875</LongitudeDegrees>
            </Position>
            <AltitudeMeters>458.600006103515625</AltitudeMeters>
            <DistanceMeters>NAN</DistanceMeters>
          </Trackpoint>
          <Trackpoint>
            <Time>2020-05-25T06:26:45.000Z</Time>
            <Position>
              <LatitudeDegrees>38.2322450168430805206298828125</LatitudeDegrees>
              <LongitudeDegrees>-1.17815134115517139434814453125</LongitudeDegrees>
            </Position>
            <AltitudeMeters>457.600006103515625</AltitudeMeters>
            <DistanceMeters>NAN</DistanceMeters>
          </Trackpoint>
          <Trackpoint>
            <Time>2020-05-25T06:26:46.000Z</Time>
            <Position>
              <LatitudeDegrees>38.23215574957430362701416015625</LatitudeDegrees>
              <LongitudeDegrees>-1.17803667671978473663330078125</LongitudeDegrees>
            </Position>
            <AltitudeMeters>457</AltitudeMeters>
            <DistanceMeters>NAN</DistanceMeters>
          </Trackpoint>
          <Trackpoint>
            <Time>2020-05-25T06:26:47.000Z</Time>
            <Position>
              <LatitudeDegrees>38.23205508291721343994140625</LatitudeDegrees>
              <LongitudeDegrees>-1.17793592624366283416748046875</LongitudeDegrees>
            </Position>
            <AltitudeMeters>456.399993896484375</AltitudeMeters>
            <DistanceMeters>NAN</DistanceMeters>
          </Trackpoint>
          <Trackpoint>
            <Time>2020-05-25T06:26:48.000Z</Time>
            <Position>
              <LatitudeDegrees>38.23194569908082485198974609375</LatitudeDegrees>
              <LongitudeDegrees>-1.17785059846937656402587890625</LongitudeDegrees>
            </Position>
            <AltitudeMeters>455.399993896484375</AltitudeMeters>
            <DistanceMeters>NAN</DistanceMeters>
          </Trackpoint>
          <Trackpoint>
            <Time>2020-05-25T06:26:49.000Z</Time>
            <Position>
              <LatitudeDegrees>38.2318302802741527557373046875</LatitudeDegrees>
              <LongitudeDegrees>-1.177777759730815887451171875</LongitudeDegrees>
            </Position>
            <AltitudeMeters>454.79998779296875</AltitudeMeters>
            <DistanceMeters>NAN</DistanceMeters>
          </Trackpoint>
          <Trackpoint>
            <Time>2020-05-25T06:26:50.000Z</Time>
            <Position>
              <LatitudeDegrees>38.23171184398233890533447265625</LatitudeDegrees>
              <LongitudeDegrees>-1.1777164041996002197265625</LongitudeDegrees>
            </Position>
            <AltitudeMeters>453.600006103515625</AltitudeMeters>
            <DistanceMeters>NAN</DistanceMeters>
          </Trackpoint>
          <Trackpoint>
            <Time>2020-05-25T06:26:51.000Z</Time>
            <Position>
              <LatitudeDegrees>38.23158971965312957763671875</LatitudeDegrees>
              <LongitudeDegrees>-1.1776689626276493072509765625</LongitudeDegrees>
            </Position>
            <AltitudeMeters>452.600006103515625</AltitudeMeters>
            <DistanceMeters>NAN</DistanceMeters>
          </Trackpoint>
          <Trackpoint>
            <Time>2020-05-25T06:26:52.000Z</Time>
            <Position>
              <LatitudeDegrees>38.2314628176391124725341796875</LatitudeDegrees>
              <LongitudeDegrees>-1.1776451580226421356201171875</LongitudeDegrees>
            </Position>
            <AltitudeMeters>451.600006103515625</AltitudeMeters>
            <DistanceMeters>NAN</DistanceMeters>
          </Trackpoint>
          <Trackpoint>
            <Time>2020-05-25T06:26:53.000Z</Time>
            <Position>
              <LatitudeDegrees>38.2313303835690021514892578125</LatitudeDegrees>
              <LongitudeDegrees>-1.17763996124267578125</LongitudeDegrees>
            </Position>
            <AltitudeMeters>451</AltitudeMeters>
            <DistanceMeters>NAN</DistanceMeters>
          </Trackpoint>
          <Trackpoint>
            <Time>2020-05-25T06:26:54.000Z</Time>
            <Position>
              <LatitudeDegrees>38.23119484819471836090087890625</LatitudeDegrees>
              <LongitudeDegrees>-1.1776414699852466583251953125</LongitudeDegrees>
            </Position>
            <AltitudeMeters>450.399993896484375</AltitudeMeters>
            <DistanceMeters>NAN</DistanceMeters>
          </Trackpoint>
          <Trackpoint>
            <Time>2020-05-25T06:26:55.000Z</Time>
            <Position>
              <LatitudeDegrees>38.2310598157346248626708984375</LatitudeDegrees>
              <LongitudeDegrees>-1.1776421405375003814697265625</LongitudeDegrees>
            </Position>
            <AltitudeMeters>450</AltitudeMeters>
            <DistanceMeters>NAN</DistanceMeters>
          </Trackpoint>
          <Trackpoint>
            <Time>2020-05-25T06:26:56.000Z</Time>
            <Position>
              <LatitudeDegrees>38.2309270463883876800537109375</LatitudeDegrees>
              <LongitudeDegrees>-1.17764197289943695068359375</LongitudeDegrees>
            </Position>
            <AltitudeMeters>449.399993896484375</AltitudeMeters>
            <DistanceMeters>NAN</DistanceMeters>
          </Trackpoint>
          <Trackpoint>
            <Time>2020-05-25T06:26:57.000Z</Time>
            <Position>
              <LatitudeDegrees>38.23079444468021392822265625</LatitudeDegrees>
              <LongitudeDegrees>-1.177640967071056365966796875</LongitudeDegrees>
            </Position>
            <AltitudeMeters>448.399993896484375</AltitudeMeters>
            <DistanceMeters>NAN</DistanceMeters>
          </Trackpoint>
          <Trackpoint>
            <Time>2020-05-25T06:26:58.000Z</Time>
            <Position>
              <LatitudeDegrees>38.23066142387688159942626953125</LatitudeDegrees>
              <LongitudeDegrees>-1.17763719521462917327880859375</LongitudeDegrees>
            </Position>
            <AltitudeMeters>447.79998779296875</AltitudeMeters>
            <DistanceMeters>NAN</DistanceMeters>
          </Trackpoint>
          <Trackpoint>
            <Time>2020-05-25T06:26:59.000Z</Time>
            <Position>
              <LatitudeDegrees>38.23052890598773956298828125</LatitudeDegrees>
              <LongitudeDegrees>-1.1776297353208065032958984375</LongitudeDegrees>
            </Position>
            <AltitudeMeters>447</AltitudeMeters>
            <DistanceMeters>NAN</DistanceMeters>
          </Trackpoint>
          <Trackpoint>
            <Time>2020-05-25T06:27:00.000Z</Time>
            <Position>
              <LatitudeDegrees>38.230398483574390411376953125</LatitudeDegrees>
              <LongitudeDegrees>-1.17762076668441295623779296875</LongitudeDegrees>
            </Position>
            <AltitudeMeters>446.600006103515625</AltitudeMeters>
            <DistanceMeters>NAN</DistanceMeters>
          </Trackpoint>
          <Trackpoint>
            <Time>2020-05-25T06:27:01.000Z</Time>
            <Position>
              <LatitudeDegrees>38.23027007281780242919921875</LatitudeDegrees>
              <LongitudeDegrees>-1.17761313915252685546875</LongitudeDegrees>
            </Position>
            <AltitudeMeters>445.600006103515625</AltitudeMeters>
            <DistanceMeters>NAN</DistanceMeters>
          </Trackpoint>
          <Trackpoint>
            <Time>2020-05-25T06:27:02.000Z</Time>
            <Position>
              <LatitudeDegrees>38.2301433384418487548828125</LatitudeDegrees>
              <LongitudeDegrees>-1.17761112749576568603515625</LongitudeDegrees>
            </Position>
            <AltitudeMeters>444.79998779296875</AltitudeMeters>
            <DistanceMeters>NAN</DistanceMeters>
          </Trackpoint>
          <Trackpoint>
            <Time>2020-05-25T06:27:03.000Z</Time>
            <Position>
              <LatitudeDegrees>38.23002020828425884246826171875</LatitudeDegrees>
              <LongitudeDegrees>-1.1776166595518589019775390625</LongitudeDegrees>
            </Position>
            <AltitudeMeters>443.600006103515625</AltitudeMeters>
            <DistanceMeters>NAN</DistanceMeters>
          </Trackpoint>
          <Trackpoint>
            <Time>2020-05-25T06:27:04.000Z</Time>
            <Position>
              <LatitudeDegrees>38.22989766485989093780517578125</LatitudeDegrees>
              <LongitudeDegrees>-1.17763300426304340362548828125</LongitudeDegrees>
            </Position>
            <AltitudeMeters>443</AltitudeMeters>
            <DistanceMeters>NAN</DistanceMeters>
          </Trackpoint>
          <Trackpoint>
            <Time>2020-05-25T06:27:05.000Z</Time>
            <Position>
              <LatitudeDegrees>38.22977344505488872528076171875</LatitudeDegrees>
              <LongitudeDegrees>-1.1776578985154628753662109375</LongitudeDegrees>
            </Position>
            <AltitudeMeters>442.20001220703125</AltitudeMeters>
            <DistanceMeters>NAN</DistanceMeters>
          </Trackpoint>
          <Trackpoint>
            <Time>2020-05-25T06:27:06.000Z</Time>
            <Position>
              <LatitudeDegrees>38.22965123690664768218994140625</LatitudeDegrees>
              <LongitudeDegrees>-1.1776880733668804168701171875</LongitudeDegrees>
            </Position>
            <AltitudeMeters>441</AltitudeMeters>
            <DistanceMeters>NAN</DistanceMeters>
          </Trackpoint>
          <Trackpoint>
            <Time>2020-05-25T06:27:07.000Z</Time>
            <Position>
              <LatitudeDegrees>38.22952969931066036224365234375</LatitudeDegrees>
              <LongitudeDegrees>-1.177719421684741973876953125</LongitudeDegrees>
            </Position>
            <AltitudeMeters>440.20001220703125</AltitudeMeters>
            <DistanceMeters>NAN</DistanceMeters>
          </Trackpoint>
          <Trackpoint>
            <Time>2020-05-25T06:27:08.000Z</Time>
            <Position>
              <LatitudeDegrees>38.22940908372402191162109375</LatitudeDegrees>
              <LongitudeDegrees>-1.17774783633649349212646484375</LongitudeDegrees>
            </Position>
            <AltitudeMeters>439.20001220703125</AltitudeMeters>
            <DistanceMeters>NAN</DistanceMeters>
          </Trackpoint>
          <Trackpoint>
            <Time>2020-05-25T06:27:09.000Z</Time>
            <Position>
              <LatitudeDegrees>38.22929148562252521514892578125</LatitudeDegrees>
              <LongitudeDegrees>-1.17777398787438869476318359375</LongitudeDegrees>
            </Position>
            <AltitudeMeters>438.399993896484375</AltitudeMeters>
            <DistanceMeters>NAN</DistanceMeters>
          </Trackpoint>
          <Trackpoint>
            <Time>2020-05-25T06:27:10.000Z</Time>
            <Position>
              <LatitudeDegrees>38.2291758991777896881103515625</LatitudeDegrees>
              <LongitudeDegrees>-1.17779896594583988189697265625</LongitudeDegrees>
            </Position>
            <AltitudeMeters>438</AltitudeMeters>
            <DistanceMeters>NAN</DistanceMeters>
          </Trackpoint>
          <Trackpoint>
            <Time>2020-05-25T06:27:11.000Z</Time>
            <Position>
              <LatitudeDegrees>38.229060731828212738037109375</LatitudeDegrees>
              <LongitudeDegrees>-1.177822686731815338134765625</LongitudeDegrees>
            </Position>
            <AltitudeMeters>437.600006103515625</AltitudeMeters>
            <DistanceMeters>NAN</DistanceMeters>
          </Trackpoint>
          <Trackpoint>
            <Time>2020-05-25T06:27:12.000Z</Time>
            <Position>
              <LatitudeDegrees>38.2289465703070163726806640625</LatitudeDegrees>
              <LongitudeDegrees>-1.17784422822296619415283203125</LongitudeDegrees>
            </Position>
            <AltitudeMeters>437.20001220703125</AltitudeMeters>
            <DistanceMeters>NAN</DistanceMeters>
          </Trackpoint>
          <Trackpoint>
            <Time>2020-05-25T06:27:13.000Z</Time>
            <Position>
              <LatitudeDegrees>38.22883349843323230743408203125</LatitudeDegrees>
              <LongitudeDegrees>-1.1778650991618633270263671875</LongitudeDegrees>
            </Position>
            <AltitudeMeters>437</AltitudeMeters>
            <DistanceMeters>NAN</DistanceMeters>
          </Trackpoint>
          <Trackpoint>
            <Time>2020-05-25T06:27:14.000Z</Time>
            <Position>
              <LatitudeDegrees>38.2287212647497653961181640625</LatitudeDegrees>
              <LongitudeDegrees>-1.17788597010076045989990234375</LongitudeDegrees>
            </Position>
            <AltitudeMeters>436.79998779296875</AltitudeMeters>
            <DistanceMeters>NAN</DistanceMeters>
          </Trackpoint>
          <Trackpoint>
            <Time>2020-05-25T06:27:15.000Z</Time>
            <Position>
              <LatitudeDegrees>38.22860919870436191558837890625</LatitudeDegrees>
              <LongitudeDegrees>-1.17790348827838897705078125</LongitudeDegrees>
            </Position>
            <AltitudeMeters>436.20001220703125</AltitudeMeters>
            <DistanceMeters>NAN</DistanceMeters>
          </Trackpoint>
          <Trackpoint>
            <Time>2020-05-25T06:27:16.000Z</Time>
            <Position>
              <LatitudeDegrees>38.22849713265895843505859375</LatitudeDegrees>
              <LongitudeDegrees>-1.17792100645601749420166015625</LongitudeDegrees>
            </Position>
            <AltitudeMeters>436</AltitudeMeters>
            <DistanceMeters>NAN</DistanceMeters>
          </Trackpoint>
          <Trackpoint>
            <Time>2020-05-25T06:27:17.000Z</Time>
            <Position>
              <LatitudeDegrees>38.2283873297274112701416015625</LatitudeDegrees>
              <LongitudeDegrees>-1.1779398657381534576416015625</LongitudeDegrees>
            </Position>
            <AltitudeMeters>435.600006103515625</AltitudeMeters>
            <DistanceMeters>NAN</DistanceMeters>
          </Trackpoint>
          <Trackpoint>
            <Time>2020-05-25T06:27:18.000Z</Time>
            <Position>
              <LatitudeDegrees>38.2282793708145618438720703125</LatitudeDegrees>
              <LongitudeDegrees>-1.17795755155384540557861328125</LongitudeDegrees>
            </Position>
            <AltitudeMeters>435.399993896484375</AltitudeMeters>
            <DistanceMeters>NAN</DistanceMeters>
          </Trackpoint>
          <Trackpoint>
            <Time>2020-05-25T06:27:19.000Z</Time>
            <Position>
              <LatitudeDegrees>38.22817216627299785614013671875</LatitudeDegrees>
              <LongitudeDegrees>-1.17797481827437877655029296875</LongitudeDegrees>
            </Position>
            <AltitudeMeters>435</AltitudeMeters>
            <DistanceMeters>NAN</DistanceMeters>
          </Trackpoint>
          <Trackpoint>
            <Time>2020-05-25T06:27:20.000Z</Time>
            <Position>
              <LatitudeDegrees>38.22806471027433872222900390625</LatitudeDegrees>
              <LongitudeDegrees>-1.1779914982616901397705078125</LongitudeDegrees>
            </Position>
            <AltitudeMeters>434.600006103515625</AltitudeMeters>
            <DistanceMeters>NAN</DistanceMeters>
          </Trackpoint>
          <Trackpoint>
            <Time>2020-05-25T06:27:21.000Z</Time>
            <Position>
              <LatitudeDegrees>38.2279573380947113037109375</LatitudeDegrees>
              <LongitudeDegrees>-1.17801052518188953399658203125</LongitudeDegrees>
            </Position>
            <AltitudeMeters>434.399993896484375</AltitudeMeters>
            <DistanceMeters>NAN</DistanceMeters>
          </Trackpoint>
          <Trackpoint>
            <Time>2020-05-25T06:27:22.000Z</Time>
            <Position>
              <LatitudeDegrees>38.22785097174346446990966796875</LatitudeDegrees>
              <LongitudeDegrees>-1.17802955210208892822265625</LongitudeDegrees>
            </Position>
            <AltitudeMeters>434</AltitudeMeters>
            <DistanceMeters>NAN</DistanceMeters>
          </Trackpoint>
          <Trackpoint>
            <Time>2020-05-25T06:27:23.000Z</Time>
            <Position>
              <LatitudeDegrees>38.22774603031575679779052734375</LatitudeDegrees>
              <LongitudeDegrees>-1.17804924957454204559326171875</LongitudeDegrees>
            </Position>
            <AltitudeMeters>433.79998779296875</AltitudeMeters>
            <DistanceMeters>NAN</DistanceMeters>
          </Trackpoint>
          <Trackpoint>
            <Time>2020-05-25T06:27:24.000Z</Time>
            <Position>
              <LatitudeDegrees>38.227642513811588287353515625</LatitudeDegrees>
              <LongitudeDegrees>-1.1780679412186145782470703125</LongitudeDegrees>
            </Position>
            <AltitudeMeters>433.399993896484375</AltitudeMeters>
            <DistanceMeters>NAN</DistanceMeters>
          </Trackpoint>
          <Trackpoint>
            <Time>2020-05-25T06:27:25.000Z</Time>
            <Position>
              <LatitudeDegrees>38.2275431044399738311767578125</LatitudeDegrees>
              <LongitudeDegrees>-1.1780867166817188262939453125</LongitudeDegrees>
            </Position>
            <AltitudeMeters>433</AltitudeMeters>
            <DistanceMeters>NAN</DistanceMeters>
          </Trackpoint>
          <Trackpoint>
            <Time>2020-05-25T06:27:26.000Z</Time>
            <Position>
              <LatitudeDegrees>38.22744570672512054443359375</LatitudeDegrees>
              <LongitudeDegrees>-1.1781044863164424896240234375</LongitudeDegrees>
            </Position>
            <AltitudeMeters>432.600006103515625</AltitudeMeters>
            <DistanceMeters>NAN</DistanceMeters>
          </Trackpoint>
          <Trackpoint>
            <Time>2020-05-25T06:27:27.000Z</Time>
            <Position>
              <LatitudeDegrees>38.2273506559431552886962890625</LatitudeDegrees>
              <LongitudeDegrees>-1.1781239323318004608154296875</LongitudeDegrees>
            </Position>
            <AltitudeMeters>432.20001220703125</AltitudeMeters>
            <DistanceMeters>NAN</DistanceMeters>
          </Trackpoint>
          <Trackpoint>
            <Time>2020-05-25T06:27:28.000Z</Time>
            <Position>
              <LatitudeDegrees>38.22725518606603145599365234375</LatitudeDegrees>
              <LongitudeDegrees>-1.17814530618488788604736328125</LongitudeDegrees>
            </Position>
            <AltitudeMeters>431.79998779296875</AltitudeMeters>
            <DistanceMeters>NAN</DistanceMeters>
          </Trackpoint>
          <Trackpoint>
            <Time>2020-05-25T06:27:29.000Z</Time>
            <Position>
              <LatitudeDegrees>38.2271608896553516387939453125</LatitudeDegrees>
              <LongitudeDegrees>-1.1781691946089267730712890625</LongitudeDegrees>
            </Position>
            <AltitudeMeters>431.600006103515625</AltitudeMeters>
            <DistanceMeters>NAN</DistanceMeters>
          </Trackpoint>
          <Trackpoint>
            <Time>2020-05-25T06:27:30.000Z</Time>
            <Position>
              <LatitudeDegrees>38.22706826962530612945556640625</LatitudeDegrees>
              <LongitudeDegrees>-1.17819308303296566009521484375</LongitudeDegrees>
            </Position>
            <AltitudeMeters>431.399993896484375</AltitudeMeters>
            <DistanceMeters>NAN</DistanceMeters>
          </Trackpoint>
          <Trackpoint>
            <Time>2020-05-25T06:27:31.000Z</Time>
            <Position>
              <LatitudeDegrees>38.226977996528148651123046875</LatitudeDegrees>
              <LongitudeDegrees>-1.1782114394009113311767578125</LongitudeDegrees>
            </Position>
            <AltitudeMeters>430.600006103515625</AltitudeMeters>
            <DistanceMeters>NAN</DistanceMeters>
          </Trackpoint>
          <Trackpoint>
            <Time>2020-05-25T06:27:32.000Z</Time>
            <Position>
              <LatitudeDegrees>38.226888142526149749755859375</LatitudeDegrees>
              <LongitudeDegrees>-1.17821688763797283172607421875</LongitudeDegrees>
            </Position>
            <AltitudeMeters>430.399993896484375</AltitudeMeters>
            <DistanceMeters>NAN</DistanceMeters>
          </Trackpoint>
          <Trackpoint>
            <Time>2020-05-25T06:27:33.000Z</Time>
            <Position>
              <LatitudeDegrees>38.22680071927607059478759765625</LatitudeDegrees>
              <LongitudeDegrees>-1.1782080866396427154541015625</LongitudeDegrees>
            </Position>
            <AltitudeMeters>430.20001220703125</AltitudeMeters>
            <DistanceMeters>NAN</DistanceMeters>
          </Trackpoint>
          <Trackpoint>
            <Time>2020-05-25T06:27:34.000Z</Time>
            <Position>
              <LatitudeDegrees>38.2267163135111331939697265625</LatitudeDegrees>
              <LongitudeDegrees>-1.17818570695817470550537109375</LongitudeDegrees>
            </Position>
            <AltitudeMeters>430.20001220703125</AltitudeMeters>
            <DistanceMeters>NAN</DistanceMeters>
          </Trackpoint>
          <Trackpoint>
            <Time>2020-05-25T06:27:35.000Z</Time>
            <Position>
              <LatitudeDegrees>38.22663643397390842437744140625</LatitudeDegrees>
              <LongitudeDegrees>-1.17815293371677398681640625</LongitudeDegrees>
            </Position>
            <AltitudeMeters>430.20001220703125</AltitudeMeters>
            <DistanceMeters>NAN</DistanceMeters>
          </Trackpoint>
          <Trackpoint>
            <Time>2020-05-25T06:27:36.000Z</Time>
            <Position>
              <LatitudeDegrees>38.22655982337892055511474609375</LatitudeDegrees>
              <LongitudeDegrees>-1.17811672389507293701171875</LongitudeDegrees>
            </Position>
            <AltitudeMeters>430.20001220703125</AltitudeMeters>
            <DistanceMeters>NAN</DistanceMeters>
          </Trackpoint>
          <Trackpoint>
            <Time>2020-05-25T06:27:37.000Z</Time>
            <Position>
              <LatitudeDegrees>38.226480446755886077880859375</LatitudeDegrees>
              <LongitudeDegrees>-1.1780820228159427642822265625</LongitudeDegrees>
            </Position>
            <AltitudeMeters>430.20001220703125</AltitudeMeters>
            <DistanceMeters>NAN</DistanceMeters>
          </Trackpoint>
          <Trackpoint>
            <Time>2020-05-25T06:27:38.000Z</Time>
            <Position>
              <LatitudeDegrees>38.22639838792383670806884765625</LatitudeDegrees>
              <LongitudeDegrees>-1.178053356707096099853515625</LongitudeDegrees>
            </Position>
            <AltitudeMeters>430.20001220703125</AltitudeMeters>
            <DistanceMeters>NAN</DistanceMeters>
          </Trackpoint>
          <Trackpoint>
            <Time>2020-05-25T06:27:39.000Z</Time>
            <Position>
              <LatitudeDegrees>38.22631306014955043792724609375</LatitudeDegrees>
              <LongitudeDegrees>-1.17803131230175495147705078125</LongitudeDegrees>
            </Position>
            <AltitudeMeters>430.20001220703125</AltitudeMeters>
            <DistanceMeters>NAN</DistanceMeters>
          </Trackpoint>
          <Trackpoint>
            <Time>2020-05-25T06:27:40.000Z</Time>
            <Position>
              <LatitudeDegrees>38.22622437961399555206298828125</LatitudeDegrees>
              <LongitudeDegrees>-1.1780102737247943878173828125</LongitudeDegrees>
            </Position>
            <AltitudeMeters>430</AltitudeMeters>
            <DistanceMeters>NAN</DistanceMeters>
          </Trackpoint>
          <Trackpoint>
            <Time>2020-05-25T06:27:41.000Z</Time>
            <Position>
              <LatitudeDegrees>38.2261346094310283660888671875</LatitudeDegrees>
              <LongitudeDegrees>-1.17798605002462863922119140625</LongitudeDegrees>
            </Position>
            <AltitudeMeters>430</AltitudeMeters>
            <DistanceMeters>NAN</DistanceMeters>
          </Trackpoint>
          <Trackpoint>
            <Time>2020-05-25T06:27:42.000Z</Time>
            <Position>
              <LatitudeDegrees>38.2260437496006488800048828125</LatitudeDegrees>
              <LongitudeDegrees>-1.17795906029641628265380859375</LongitudeDegrees>
            </Position>
            <AltitudeMeters>430</AltitudeMeters>
            <DistanceMeters>NAN</DistanceMeters>
          </Trackpoint>
          <Trackpoint>
            <Time>2020-05-25T06:27:43.000Z</Time>
            <Position>
              <LatitudeDegrees>38.22595347650349140167236328125</LatitudeDegrees>
              <LongitudeDegrees>-1.17793290875852108001708984375</LongitudeDegrees>
            </Position>
            <AltitudeMeters>430</AltitudeMeters>
            <DistanceMeters>NAN</DistanceMeters>
          </Trackpoint>
          <Trackpoint>
            <Time>2020-05-25T06:27:44.000Z</Time>
            <Position>
              <LatitudeDegrees>38.225859515368938446044921875</LatitudeDegrees>
              <LongitudeDegrees>-1.1779039911925792694091796875</LongitudeDegrees>
            </Position>
            <AltitudeMeters>430</AltitudeMeters>
            <DistanceMeters>NAN</DistanceMeters>
          </Trackpoint>
          <Trackpoint>
            <Time>2020-05-25T06:27:45.000Z</Time>
            <Position>
              <LatitudeDegrees>38.22576840408146381378173828125</LatitudeDegrees>
              <LongitudeDegrees>-1.17787188850343227386474609375</LongitudeDegrees>
            </Position>
            <AltitudeMeters>429.79998779296875</AltitudeMeters>
            <DistanceMeters>NAN</DistanceMeters>
          </Trackpoint>
          <Trackpoint>
            <Time>2020-05-25T06:27:46.000Z</Time>
            <Position>
              <LatitudeDegrees>38.22567855007946491241455078125</LatitudeDegrees>
              <LongitudeDegrees>-1.17784003727138042449951171875</LongitudeDegrees>
            </Position>
            <AltitudeMeters>429.79998779296875</AltitudeMeters>
            <DistanceMeters>NAN</DistanceMeters>
          </Trackpoint>
          <Trackpoint>
            <Time>2020-05-25T06:27:47.000Z</Time>
            <Position>
              <LatitudeDegrees>38.225587271153926849365234375</LatitudeDegrees>
              <LongitudeDegrees>-1.1777896620333194732666015625</LongitudeDegrees>
            </Position>
            <AltitudeMeters>429.79998779296875</AltitudeMeters>
            <DistanceMeters>NAN</DistanceMeters>
          </Trackpoint>
          <Trackpoint>
            <Time>2020-05-25T06:27:48.000Z</Time>
            <Position>
              <LatitudeDegrees>38.22549733333289623260498046875</LatitudeDegrees>
              <LongitudeDegrees>-1.17773409001529216766357421875</LongitudeDegrees>
            </Position>
            <AltitudeMeters>429.79998779296875</AltitudeMeters>
            <DistanceMeters>NAN</DistanceMeters>
          </Trackpoint>
          <Trackpoint>
            <Time>2020-05-25T06:27:49.000Z</Time>
            <Position>
              <LatitudeDegrees>38.22541133500635623931884765625</LatitudeDegrees>
              <LongitudeDegrees>-1.17768245749175548553466796875</LongitudeDegrees>
            </Position>
            <AltitudeMeters>429.600006103515625</AltitudeMeters>
            <DistanceMeters>NAN</DistanceMeters>
          </Trackpoint>
          <Trackpoint>
            <Time>2020-05-25T06:27:50.000Z</Time>
            <Position>
              <LatitudeDegrees>38.22532366029918193817138671875</LatitudeDegrees>
              <LongitudeDegrees>-1.17762495763599872589111328125</LongitudeDegrees>
            </Position>
            <AltitudeMeters>429.600006103515625</AltitudeMeters>
            <DistanceMeters>NAN</DistanceMeters>
          </Trackpoint>
          <Trackpoint>
            <Time>2020-05-25T06:27:51.000Z</Time>
            <Position>
              <LatitudeDegrees>38.22523615323007106781005859375</LatitudeDegrees>
              <LongitudeDegrees>-1.17756159044802188873291015625</LongitudeDegrees>
            </Position>
            <AltitudeMeters>429.399993896484375</AltitudeMeters>
            <DistanceMeters>NAN</DistanceMeters>
          </Trackpoint>
          <Trackpoint>
            <Time>2020-05-25T06:27:52.000Z</Time>
            <Position>
              <LatitudeDegrees>38.22515250183641910552978515625</LatitudeDegrees>
              <LongitudeDegrees>-1.1774969659745693206787109375</LongitudeDegrees>
            </Position>
            <AltitudeMeters>429.20001220703125</AltitudeMeters>
            <DistanceMeters>NAN</DistanceMeters>
          </Trackpoint>
          <Trackpoint>
            <Time>2020-05-25T06:27:53.000Z</Time>
            <Position>
              <LatitudeDegrees>38.22506725788116455078125</LatitudeDegrees>
              <LongitudeDegrees>-1.17742815054953098297119140625</LongitudeDegrees>
            </Position>
            <AltitudeMeters>429</AltitudeMeters>
            <DistanceMeters>NAN</DistanceMeters>
          </Trackpoint>
          <Trackpoint>
            <Time>2020-05-25T06:27:54.000Z</Time>
            <Position>
              <LatitudeDegrees>38.22497807443141937255859375</LatitudeDegrees>
              <LongitudeDegrees>-1.17735690437257289886474609375</LongitudeDegrees>
            </Position>
            <AltitudeMeters>428.399993896484375</AltitudeMeters>
            <DistanceMeters>NAN</DistanceMeters>
          </Trackpoint>
          <Trackpoint>
            <Time>2020-05-25T06:27:55.000Z</Time>
            <Position>
              <LatitudeDegrees>38.224890232086181640625</LatitudeDegrees>
              <LongitudeDegrees>-1.1772723309695720672607421875</LongitudeDegrees>
            </Position>
            <AltitudeMeters>428</AltitudeMeters>
            <DistanceMeters>NAN</DistanceMeters>
          </Trackpoint>
          <Trackpoint>
            <Time>2020-05-25T06:27:56.000Z</Time>
            <Position>
              <LatitudeDegrees>38.2248095981776714324951171875</LatitudeDegrees>
              <LongitudeDegrees>-1.17718675173819065093994140625</LongitudeDegrees>
            </Position>
            <AltitudeMeters>427.399993896484375</AltitudeMeters>
            <DistanceMeters>NAN</DistanceMeters>
          </Trackpoint>
          <Trackpoint>
            <Time>2020-05-25T06:27:57.000Z</Time>
            <Position>
              <LatitudeDegrees>38.22473131120204925537109375</LatitudeDegrees>
              <LongitudeDegrees>-1.1770892702043056488037109375</LongitudeDegrees>
            </Position>
            <AltitudeMeters>427</AltitudeMeters>
            <DistanceMeters>NAN</DistanceMeters>
          </Trackpoint>
          <Trackpoint>
            <Time>2020-05-25T06:27:58.000Z</Time>
            <Position>
              <LatitudeDegrees>38.2246560417115688323974609375</LatitudeDegrees>
              <LongitudeDegrees>-1.17699287831783294677734375</LongitudeDegrees>
            </Position>
            <AltitudeMeters>426.399993896484375</AltitudeMeters>
            <DistanceMeters>NAN</DistanceMeters>
          </Trackpoint>
          <Trackpoint>
            <Time>2020-05-25T06:27:59.000Z</Time>
            <Position>
              <LatitudeDegrees>38.22458337061107158660888671875</LatitudeDegrees>
              <LongitudeDegrees>-1.17690092884004116058349609375</LongitudeDegrees>
            </Position>
            <AltitudeMeters>426.20001220703125</AltitudeMeters>
            <DistanceMeters>NAN</DistanceMeters>
          </Trackpoint>
          <Trackpoint>
            <Time>2020-05-25T06:28:00.000Z</Time>
            <Position>
              <LatitudeDegrees>38.224513716995716094970703125</LatitudeDegrees>
              <LongitudeDegrees>-1.17681107483804225921630859375</LongitudeDegrees>
            </Position>
            <AltitudeMeters>425.600006103515625</AltitudeMeters>
            <DistanceMeters>NAN</DistanceMeters>
          </Trackpoint>
          <Trackpoint>
            <Time>2020-05-25T06:28:01.000Z</Time>
            <Position>
              <LatitudeDegrees>38.22444498538970947265625</LatitudeDegrees>
              <LongitudeDegrees>-1.1767194606363773345947265625</LongitudeDegrees>
            </Position>
            <AltitudeMeters>424.79998779296875</AltitudeMeters>
            <DistanceMeters>NAN</DistanceMeters>
          </Trackpoint>
          <Trackpoint>
            <Time>2020-05-25T06:28:02.000Z</Time>
            <Position>
              <LatitudeDegrees>38.22437994182109832763671875</LatitudeDegrees>
              <LongitudeDegrees>-1.1766249127686023712158203125</LongitudeDegrees>
            </Position>
            <AltitudeMeters>424.20001220703125</AltitudeMeters>
            <DistanceMeters>NAN</DistanceMeters>
          </Trackpoint>
          <Trackpoint>
            <Time>2020-05-25T06:28:03.000Z</Time>
            <Position>
              <LatitudeDegrees>38.22432319633662700653076171875</LatitudeDegrees>
              <LongitudeDegrees>-1.17652541957795619964599609375</LongitudeDegrees>
            </Position>
            <AltitudeMeters>423.79998779296875</AltitudeMeters>
            <DistanceMeters>NAN</DistanceMeters>
          </Trackpoint>
          <Trackpoint>
            <Time>2020-05-25T06:28:04.000Z</Time>
            <Position>
              <LatitudeDegrees>38.22428262792527675628662109375</LatitudeDegrees>
              <LongitudeDegrees>-1.17641494609415531158447265625</LongitudeDegrees>
            </Position>
            <AltitudeMeters>423.399993896484375</AltitudeMeters>
            <DistanceMeters>NAN</DistanceMeters>
          </Trackpoint>
          <Trackpoint>
            <Time>2020-05-25T06:28:05.000Z</Time>
            <Position>
              <LatitudeDegrees>38.224256224930286407470703125</LatitudeDegrees>
              <LongitudeDegrees>-1.17629542015492916107177734375</LongitudeDegrees>
            </Position>
            <AltitudeMeters>423</AltitudeMeters>
            <DistanceMeters>NAN</DistanceMeters>
          </Trackpoint>
          <Trackpoint>
            <Time>2020-05-25T06:28:06.000Z</Time>
            <Position>
              <LatitudeDegrees>38.2242339290678501129150390625</LatitudeDegrees>
              <LongitudeDegrees>-1.176177151501178741455078125</LongitudeDegrees>
            </Position>
            <AltitudeMeters>422.600006103515625</AltitudeMeters>
            <DistanceMeters>NAN</DistanceMeters>
          </Trackpoint>
          <Trackpoint>
            <Time>2020-05-25T06:28:07.000Z</Time>
            <Position>
              <LatitudeDegrees>38.22420869953930377960205078125</LatitudeDegrees>
              <LongitudeDegrees>-1.17606240324676036834716796875</LongitudeDegrees>
            </Position>
            <AltitudeMeters>422.20001220703125</AltitudeMeters>
            <DistanceMeters>NAN</DistanceMeters>
          </Trackpoint>
          <Trackpoint>
            <Time>2020-05-25T06:28:08.000Z</Time>
            <Position>
              <LatitudeDegrees>38.2241772674024105072021484375</LatitudeDegrees>
              <LongitudeDegrees>-1.17595310322940349578857421875</LongitudeDegrees>
            </Position>
            <AltitudeMeters>422</AltitudeMeters>
            <DistanceMeters>NAN</DistanceMeters>
          </Trackpoint>
          <Trackpoint>
            <Time>2020-05-25T06:28:09.000Z</Time>
            <Position>
              <LatitudeDegrees>38.22414047084748744964599609375</LatitudeDegrees>
              <LongitudeDegrees>-1.17584631778299808502197265625</LongitudeDegrees>
            </Position>
            <AltitudeMeters>421.79998779296875</AltitudeMeters>
            <DistanceMeters>NAN</DistanceMeters>
          </Trackpoint>
          <Trackpoint>
            <Time>2020-05-25T06:28:10.000Z</Time>
            <Position>
              <LatitudeDegrees>38.22409965097904205322265625</LatitudeDegrees>
              <LongitudeDegrees>-1.1757424660027027130126953125</LongitudeDegrees>
            </Position>
            <AltitudeMeters>421.79998779296875</AltitudeMeters>
            <DistanceMeters>NAN</DistanceMeters>
          </Trackpoint>
          <Trackpoint>
            <Time>2020-05-25T06:28:11.000Z</Time>
            <Position>
              <LatitudeDegrees>38.2240525446832180023193359375</LatitudeDegrees>
              <LongitudeDegrees>-1.1756415478885173797607421875</LongitudeDegrees>
            </Position>
            <AltitudeMeters>421.600006103515625</AltitudeMeters>
            <DistanceMeters>NAN</DistanceMeters>
          </Trackpoint>
          <Trackpoint>
            <Time>2020-05-25T06:28:12.000Z</Time>
            <Position>
              <LatitudeDegrees>38.22400040924549102783203125</LatitudeDegrees>
              <LongitudeDegrees>-1.1755439825356006622314453125</LongitudeDegrees>
            </Position>
            <AltitudeMeters>421.600006103515625</AltitudeMeters>
            <DistanceMeters>NAN</DistanceMeters>
          </Trackpoint>
          <Trackpoint>
            <Time>2020-05-25T06:28:13.000Z</Time>
            <Position>
              <LatitudeDegrees>38.22394014336168766021728515625</LatitudeDegrees>
              <LongitudeDegrees>-1.1754512786865234375</LongitudeDegrees>
            </Position>
            <AltitudeMeters>421.600006103515625</AltitudeMeters>
            <DistanceMeters>NAN</DistanceMeters>
          </Trackpoint>
          <Trackpoint>
            <Time>2020-05-25T06:28:14.000Z</Time>
            <Position>
              <LatitudeDegrees>38.22387090884149074554443359375</LatitudeDegrees>
              <LongitudeDegrees>-1.17536955513060092926025390625</LongitudeDegrees>
            </Position>
            <AltitudeMeters>421.399993896484375</AltitudeMeters>
            <DistanceMeters>NAN</DistanceMeters>
          </Trackpoint>
          <Trackpoint>
            <Time>2020-05-25T06:28:15.000Z</Time>
            <Position>
              <LatitudeDegrees>38.22379362769424915313720703125</LatitudeDegrees>
              <LongitudeDegrees>-1.17530015297234058380126953125</LongitudeDegrees>
            </Position>
            <AltitudeMeters>421.20001220703125</AltitudeMeters>
            <DistanceMeters>NAN</DistanceMeters>
          </Trackpoint>
          <Trackpoint>
            <Time>2020-05-25T06:28:16.000Z</Time>
            <Position>
              <LatitudeDegrees>38.2237125746905803680419921875</LatitudeDegrees>
              <LongitudeDegrees>-1.17523661814630031585693359375</LongitudeDegrees>
            </Position>
            <AltitudeMeters>421.20001220703125</AltitudeMeters>
            <DistanceMeters>NAN</DistanceMeters>
          </Trackpoint>
          <Trackpoint>
            <Time>2020-05-25T06:28:17.000Z</Time>
            <Position>
              <LatitudeDegrees>38.22362934239208698272705078125</LatitudeDegrees>
              <LongitudeDegrees>-1.17517626844346523284912109375</LongitudeDegrees>
            </Position>
            <AltitudeMeters>420.79998779296875</AltitudeMeters>
            <DistanceMeters>NAN</DistanceMeters>
          </Trackpoint>
          <Trackpoint>
            <Time>2020-05-25T06:28:18.000Z</Time>
            <Position>
              <LatitudeDegrees>38.2235452719032764434814453125</LatitudeDegrees>
              <LongitudeDegrees>-1.17511264979839324951171875</LongitudeDegrees>
            </Position>
            <AltitudeMeters>420.600006103515625</AltitudeMeters>
            <DistanceMeters>NAN</DistanceMeters>
          </Trackpoint>
          <Trackpoint>
            <Time>2020-05-25T06:28:19.000Z</Time>
            <Position>
              <LatitudeDegrees>38.22346103377640247344970703125</LatitudeDegrees>
              <LongitudeDegrees>-1.175047270953655242919921875</LongitudeDegrees>
            </Position>
            <AltitudeMeters>420.20001220703125</AltitudeMeters>
            <DistanceMeters>NAN</DistanceMeters>
          </Trackpoint>
          <Trackpoint>
            <Time>2020-05-25T06:28:20.000Z</Time>
            <Position>
              <LatitudeDegrees>38.223377130925655364990234375</LatitudeDegrees>
              <LongitudeDegrees>-1.174981556832790374755859375</LongitudeDegrees>
            </Position>
            <AltitudeMeters>420</AltitudeMeters>
            <DistanceMeters>NAN</DistanceMeters>
          </Trackpoint>
          <Trackpoint>
            <Time>2020-05-25T06:28:21.000Z</Time>
            <Position>
              <LatitudeDegrees>38.22329230606555938720703125</LatitudeDegrees>
              <LongitudeDegrees>-1.174916513264179229736328125</LongitudeDegrees>
            </Position>
            <AltitudeMeters>419.600006103515625</AltitudeMeters>
            <DistanceMeters>NAN</DistanceMeters>
          </Trackpoint>
          <Trackpoint>
            <Time>2020-05-25T06:28:22.000Z</Time>
            <Position>
              <LatitudeDegrees>38.22320773266255855560302734375</LatitudeDegrees>
              <LongitudeDegrees>-1.17485021241009235382080078125</LongitudeDegrees>
            </Position>
            <AltitudeMeters>419.600006103515625</AltitudeMeters>
            <DistanceMeters>NAN</DistanceMeters>
          </Trackpoint>
          <Trackpoint>
            <Time>2020-05-25T06:28:23.000Z</Time>
            <Position>
              <LatitudeDegrees>38.22312106378376483917236328125</LatitudeDegrees>
              <LongitudeDegrees>-1.17478483356535434722900390625</LongitudeDegrees>
            </Position>
            <AltitudeMeters>419.20001220703125</AltitudeMeters>
            <DistanceMeters>NAN</DistanceMeters>
          </Trackpoint>
          <Trackpoint>
            <Time>2020-05-25T06:28:24.000Z</Time>
            <Position>
              <LatitudeDegrees>38.22303372435271739959716796875</LatitudeDegrees>
              <LongitudeDegrees>-1.17471761070191860198974609375</LongitudeDegrees>
            </Position>
            <AltitudeMeters>418.600006103515625</AltitudeMeters>
            <DistanceMeters>NAN</DistanceMeters>
          </Trackpoint>
          <Trackpoint>
            <Time>2020-05-25T06:28:25.000Z</Time>
            <Position>
              <LatitudeDegrees>38.22294504381716251373291015625</LatitudeDegrees>
              <LongitudeDegrees>-1.17465457879006862640380859375</LongitudeDegrees>
            </Position>
            <AltitudeMeters>418.20001220703125</AltitudeMeters>
            <DistanceMeters>NAN</DistanceMeters>
          </Trackpoint>
          <Trackpoint>
            <Time>2020-05-25T06:28:26.000Z</Time>
            <Position>
              <LatitudeDegrees>38.222852759063243865966796875</LatitudeDegrees>
              <LongitudeDegrees>-1.17459506727755069732666015625</LongitudeDegrees>
            </Position>
            <AltitudeMeters>417.79998779296875</AltitudeMeters>
            <DistanceMeters>NAN</DistanceMeters>
          </Trackpoint>
          <Trackpoint>
            <Time>2020-05-25T06:28:27.000Z</Time>
            <Position>
              <LatitudeDegrees>38.2227570377290248870849609375</LatitudeDegrees>
              <LongitudeDegrees>-1.17453731596469879150390625</LongitudeDegrees>
            </Position>
            <AltitudeMeters>417.600006103515625</AltitudeMeters>
            <DistanceMeters>NAN</DistanceMeters>
          </Trackpoint>
          <Trackpoint>
            <Time>2020-05-25T06:28:28.000Z</Time>
            <Position>
              <LatitudeDegrees>38.22265871800482273101806640625</LatitudeDegrees>
              <LongitudeDegrees>-1.17448258213698863983154296875</LongitudeDegrees>
            </Position>
            <AltitudeMeters>417.20001220703125</AltitudeMeters>
            <DistanceMeters>NAN</DistanceMeters>
          </Trackpoint>
          <Trackpoint>
            <Time>2020-05-25T06:28:29.000Z</Time>
            <Position>
              <LatitudeDegrees>38.2225607335567474365234375</LatitudeDegrees>
              <LongitudeDegrees>-1.1744275130331516265869140625</LongitudeDegrees>
            </Position>
            <AltitudeMeters>416.600006103515625</AltitudeMeters>
            <DistanceMeters>NAN</DistanceMeters>
          </Trackpoint>
          <Trackpoint>
            <Time>2020-05-25T06:28:30.000Z</Time>
            <Position>
              <LatitudeDegrees>38.22246425785124301910400390625</LatitudeDegrees>
              <LongitudeDegrees>-1.174370348453521728515625</LongitudeDegrees>
            </Position>
            <AltitudeMeters>416.20001220703125</AltitudeMeters>
            <DistanceMeters>NAN</DistanceMeters>
          </Trackpoint>
          <Trackpoint>
            <Time>2020-05-25T06:28:31.000Z</Time>
            <Position>
              <LatitudeDegrees>38.2223694585263729095458984375</LatitudeDegrees>
              <LongitudeDegrees>-1.174306981265544891357421875</LongitudeDegrees>
            </Position>
            <AltitudeMeters>415.79998779296875</AltitudeMeters>
            <DistanceMeters>NAN</DistanceMeters>
          </Trackpoint>
          <Trackpoint>
            <Time>2020-05-25T06:28:32.000Z</Time>
            <Position>
              <LatitudeDegrees>38.22227851487696170806884765625</LatitudeDegrees>
              <LongitudeDegrees>-1.17423095740377902984619140625</LongitudeDegrees>
            </Position>
            <AltitudeMeters>415.20001220703125</AltitudeMeters>
            <DistanceMeters>NAN</DistanceMeters>
          </Trackpoint>
          <Trackpoint>
            <Time>2020-05-25T06:28:33.000Z</Time>
            <Position>
              <LatitudeDegrees>38.22219653986394405364990234375</LatitudeDegrees>
              <LongitudeDegrees>-1.1741425283253192901611328125</LongitudeDegrees>
            </Position>
            <AltitudeMeters>414.79998779296875</AltitudeMeters>
            <DistanceMeters>NAN</DistanceMeters>
          </Trackpoint>
          <Trackpoint>
            <Time>2020-05-25T06:28:34.000Z</Time>
            <Position>
              <LatitudeDegrees>38.22212688624858856201171875</LatitudeDegrees>
              <LongitudeDegrees>-1.1740417778491973876953125</LongitudeDegrees>
            </Position>
            <AltitudeMeters>414.20001220703125</AltitudeMeters>
            <DistanceMeters>NAN</DistanceMeters>
          </Trackpoint>
          <Trackpoint>
            <Time>2020-05-25T06:28:35.000Z</Time>
            <Position>
              <LatitudeDegrees>38.22207030840218067169189453125</LatitudeDegrees>
              <LongitudeDegrees>-1.1739292927086353302001953125</LongitudeDegrees>
            </Position>
            <AltitudeMeters>413.79998779296875</AltitudeMeters>
            <DistanceMeters>NAN</DistanceMeters>
          </Trackpoint>
          <Trackpoint>
            <Time>2020-05-25T06:28:36.000Z</Time>
            <Position>
              <LatitudeDegrees>38.22202772833406925201416015625</LatitudeDegrees>
              <LongitudeDegrees>-1.1738062463700771331787109375</LongitudeDegrees>
            </Position>
            <AltitudeMeters>413.20001220703125</AltitudeMeters>
            <DistanceMeters>NAN</DistanceMeters>
          </Trackpoint>
          <Trackpoint>
            <Time>2020-05-25T06:28:37.000Z</Time>
            <Position>
              <LatitudeDegrees>38.22199520654976367950439453125</LatitudeDegrees>
              <LongitudeDegrees>-1.17367858998477458953857421875</LongitudeDegrees>
            </Position>
            <AltitudeMeters>412.79998779296875</AltitudeMeters>
            <DistanceMeters>NAN</DistanceMeters>
          </Trackpoint>
          <Trackpoint>
            <Time>2020-05-25T06:28:38.000Z</Time>
            <Position>
              <LatitudeDegrees>38.22196486406028270721435546875</LatitudeDegrees>
              <LongitudeDegrees>-1.1735547892749309539794921875</LongitudeDegrees>
            </Position>
            <AltitudeMeters>412.399993896484375</AltitudeMeters>
            <DistanceMeters>NAN</DistanceMeters>
          </Trackpoint>
          <Trackpoint>
            <Time>2020-05-25T06:28:39.000Z</Time>
            <Position>
              <LatitudeDegrees>38.22192697785794734954833984375</LatitudeDegrees>
              <LongitudeDegrees>-1.173437274992465972900390625</LongitudeDegrees>
            </Position>
            <AltitudeMeters>412</AltitudeMeters>
            <DistanceMeters>NAN</DistanceMeters>
          </Trackpoint>
          <Trackpoint>
            <Time>2020-05-25T06:28:40.000Z</Time>
            <Position>
              <LatitudeDegrees>38.22187601588666439056396484375</LatitudeDegrees>
              <LongitudeDegrees>-1.17333174683153629302978515625</LongitudeDegrees>
            </Position>
            <AltitudeMeters>411.600006103515625</AltitudeMeters>
            <DistanceMeters>NAN</DistanceMeters>
          </Trackpoint>
          <Trackpoint>
            <Time>2020-05-25T06:28:41.000Z</Time>
            <Position>
              <LatitudeDegrees>38.22181013412773609161376953125</LatitudeDegrees>
              <LongitudeDegrees>-1.17323937825858592987060546875</LongitudeDegrees>
            </Position>
            <AltitudeMeters>411</AltitudeMeters>
            <DistanceMeters>NAN</DistanceMeters>
          </Trackpoint>
          <Trackpoint>
            <Time>2020-05-25T06:28:42.000Z</Time>
            <Position>
              <LatitudeDegrees>38.22173251770436763763427734375</LatitudeDegrees>
              <LongitudeDegrees>-1.17316293530166149139404296875</LongitudeDegrees>
            </Position>
            <AltitudeMeters>410.399993896484375</AltitudeMeters>
            <DistanceMeters>NAN</DistanceMeters>
          </Trackpoint>
          <Trackpoint>
            <Time>2020-05-25T06:28:43.000Z</Time>
            <Position>
              <LatitudeDegrees>38.22164635173976421356201171875</LatitudeDegrees>
              <LongitudeDegrees>-1.17309856228530406951904296875</LongitudeDegrees>
            </Position>
            <AltitudeMeters>410</AltitudeMeters>
            <DistanceMeters>NAN</DistanceMeters>
          </Trackpoint>
          <Trackpoint>
            <Time>2020-05-25T06:28:44.000Z</Time>
            <Position>
              <LatitudeDegrees>38.22155381552875041961669921875</LatitudeDegrees>
              <LongitudeDegrees>-1.17304332554340362548828125</LongitudeDegrees>
            </Position>
            <AltitudeMeters>409.79998779296875</AltitudeMeters>
            <DistanceMeters>NAN</DistanceMeters>
          </Trackpoint>
          <Trackpoint>
            <Time>2020-05-25T06:28:45.000Z</Time>
            <Position>
              <LatitudeDegrees>38.22145574726164340972900390625</LatitudeDegrees>
              <LongitudeDegrees>-1.172992698848247528076171875</LongitudeDegrees>
            </Position>
            <AltitudeMeters>409.600006103515625</AltitudeMeters>
            <DistanceMeters>NAN</DistanceMeters>
          </Trackpoint>
          <Trackpoint>
            <Time>2020-05-25T06:28:46.000Z</Time>
            <Position>
              <LatitudeDegrees>38.2213559187948703765869140625</LatitudeDegrees>
              <LongitudeDegrees>-1.172941736876964569091796875</LongitudeDegrees>
            </Position>
            <AltitudeMeters>409.399993896484375</AltitudeMeters>
            <DistanceMeters>NAN</DistanceMeters>
          </Trackpoint>
          <Trackpoint>
            <Time>2020-05-25T06:28:47.000Z</Time>
            <Position>
              <LatitudeDegrees>38.22125776670873165130615234375</LatitudeDegrees>
              <LongitudeDegrees>-1.17288616485893726348876953125</LongitudeDegrees>
            </Position>
            <AltitudeMeters>409.20001220703125</AltitudeMeters>
            <DistanceMeters>NAN</DistanceMeters>
          </Trackpoint>
          <Trackpoint>
            <Time>2020-05-25T06:28:48.000Z</Time>
            <Position>
              <LatitudeDegrees>38.2211624644696712493896484375</LatitudeDegrees>
              <LongitudeDegrees>-1.17281944490969181060791015625</LongitudeDegrees>
            </Position>
            <AltitudeMeters>409</AltitudeMeters>
            <DistanceMeters>NAN</DistanceMeters>
          </Trackpoint>
          <Trackpoint>
            <Time>2020-05-25T06:28:49.000Z</Time>
            <Position>
              <LatitudeDegrees>38.22107101790606975555419921875</LatitudeDegrees>
              <LongitudeDegrees>-1.172739230096340179443359375</LongitudeDegrees>
            </Position>
            <AltitudeMeters>408.600006103515625</AltitudeMeters>
            <DistanceMeters>NAN</DistanceMeters>
          </Trackpoint>
          <Trackpoint>
            <Time>2020-05-25T06:28:50.000Z</Time>
            <Position>
              <LatitudeDegrees>38.22098418138921260833740234375</LatitudeDegrees>
              <LongitudeDegrees>-1.17264778353273868560791015625</LongitudeDegrees>
            </Position>
            <AltitudeMeters>408.399993896484375</AltitudeMeters>
            <DistanceMeters>NAN</DistanceMeters>
          </Trackpoint>
          <Trackpoint>
            <Time>2020-05-25T06:28:51.000Z</Time>
            <Position>
              <LatitudeDegrees>38.22090270929038524627685546875</LatitudeDegrees>
              <LongitudeDegrees>-1.17254921235144138336181640625</LongitudeDegrees>
            </Position>
            <AltitudeMeters>408.20001220703125</AltitudeMeters>
            <DistanceMeters>NAN</DistanceMeters>
          </Trackpoint>
          <Trackpoint>
            <Time>2020-05-25T06:28:52.000Z</Time>
            <Position>
              <LatitudeDegrees>38.22082542814314365386962890625</LatitudeDegrees>
              <LongitudeDegrees>-1.1724416725337505340576171875</LongitudeDegrees>
            </Position>
            <AltitudeMeters>407.600006103515625</AltitudeMeters>
            <DistanceMeters>NAN</DistanceMeters>
          </Trackpoint>
          <Trackpoint>
            <Time>2020-05-25T06:28:53.000Z</Time>
            <Position>
              <LatitudeDegrees>38.220751248300075531005859375</LatitudeDegrees>
              <LongitudeDegrees>-1.17233178578317165374755859375</LongitudeDegrees>
            </Position>
            <AltitudeMeters>407.20001220703125</AltitudeMeters>
            <DistanceMeters>NAN</DistanceMeters>
          </Trackpoint>
          <Trackpoint>
            <Time>2020-05-25T06:28:54.000Z</Time>
            <Position>
              <LatitudeDegrees>38.2206763140857219696044921875</LatitudeDegrees>
              <LongitudeDegrees>-1.17222466506063938140869140625</LongitudeDegrees>
            </Position>
            <AltitudeMeters>406.600006103515625</AltitudeMeters>
            <DistanceMeters>NAN</DistanceMeters>
          </Trackpoint>
          <Trackpoint>
            <Time>2020-05-25T06:28:55.000Z</Time>
            <Position>
              <LatitudeDegrees>38.22059760801494121551513671875</LatitudeDegrees>
              <LongitudeDegrees>-1.17211972363293170928955078125</LongitudeDegrees>
            </Position>
            <AltitudeMeters>406.20001220703125</AltitudeMeters>
            <DistanceMeters>NAN</DistanceMeters>
          </Trackpoint>
          <Trackpoint>
            <Time>2020-05-25T06:28:56.000Z</Time>
            <Position>
              <LatitudeDegrees>38.2205143757164478302001953125</LatitudeDegrees>
              <LongitudeDegrees>-1.17201981134712696075439453125</LongitudeDegrees>
            </Position>
            <AltitudeMeters>405.600006103515625</AltitudeMeters>
            <DistanceMeters>NAN</DistanceMeters>
          </Trackpoint>
          <Trackpoint>
            <Time>2020-05-25T06:28:57.000Z</Time>
            <Position>
              <LatitudeDegrees>38.22042829357087612152099609375</LatitudeDegrees>
              <LongitudeDegrees>-1.17192626930773258209228515625</LongitudeDegrees>
            </Position>
            <AltitudeMeters>404.600006103515625</AltitudeMeters>
            <DistanceMeters>NAN</DistanceMeters>
          </Trackpoint>
          <Trackpoint>
            <Time>2020-05-25T06:28:58.000Z</Time>
            <Position>
              <LatitudeDegrees>38.22033927775919437408447265625</LatitudeDegrees>
              <LongitudeDegrees>-1.17183909751474857330322265625</LongitudeDegrees>
            </Position>
            <AltitudeMeters>403.79998779296875</AltitudeMeters>
            <DistanceMeters>NAN</DistanceMeters>
          </Trackpoint>
          <Trackpoint>
            <Time>2020-05-25T06:28:59.000Z</Time>
            <Position>
              <LatitudeDegrees>38.22024791501462459564208984375</LatitudeDegrees>
              <LongitudeDegrees>-1.171754188835620880126953125</LongitudeDegrees>
            </Position>
            <AltitudeMeters>403.20001220703125</AltitudeMeters>
            <DistanceMeters>NAN</DistanceMeters>
          </Trackpoint>
          <Trackpoint>
            <Time>2020-05-25T06:29:00.000Z</Time>
            <Position>
              <LatitudeDegrees>38.22015537880361080169677734375</LatitudeDegrees>
              <LongitudeDegrees>-1.1716732196509838104248046875</LongitudeDegrees>
            </Position>
            <AltitudeMeters>402.399993896484375</AltitudeMeters>
            <DistanceMeters>NAN</DistanceMeters>
          </Trackpoint>
          <Trackpoint>
            <Time>2020-05-25T06:29:01.000Z</Time>
            <Position>
              <LatitudeDegrees>38.22006426751613616943359375</LatitudeDegrees>
              <LongitudeDegrees>-1.17159183137118816375732421875</LongitudeDegrees>
            </Position>
            <AltitudeMeters>401.79998779296875</AltitudeMeters>
            <DistanceMeters>NAN</DistanceMeters>
          </Trackpoint>
          <Trackpoint>
            <Time>2020-05-25T06:29:02.000Z</Time>
            <Position>
              <LatitudeDegrees>38.21997382678091526031494140625</LatitudeDegrees>
              <LongitudeDegrees>-1.17151178419589996337890625</LongitudeDegrees>
            </Position>
            <AltitudeMeters>401.20001220703125</AltitudeMeters>
            <DistanceMeters>NAN</DistanceMeters>
          </Trackpoint>
          <Trackpoint>
            <Time>2020-05-25T06:29:03.000Z</Time>
            <Position>
              <LatitudeDegrees>38.2198840565979480743408203125</LatitudeDegrees>
              <LongitudeDegrees>-1.1714301444590091705322265625</LongitudeDegrees>
            </Position>
            <AltitudeMeters>400.79998779296875</AltitudeMeters>
            <DistanceMeters>NAN</DistanceMeters>
          </Trackpoint>
          <Trackpoint>
            <Time>2020-05-25T06:29:04.000Z</Time>
            <Position>
              <LatitudeDegrees>38.21979445405304431915283203125</LatitudeDegrees>
              <LongitudeDegrees>-1.17134816944599151611328125</LongitudeDegrees>
            </Position>
            <AltitudeMeters>400.399993896484375</AltitudeMeters>
            <DistanceMeters>NAN</DistanceMeters>
          </Trackpoint>
          <Trackpoint>
            <Time>2020-05-25T06:29:05.000Z</Time>
            <Position>
              <LatitudeDegrees>38.21970527060329914093017578125</LatitudeDegrees>
              <LongitudeDegrees>-1.1712675355374813079833984375</LongitudeDegrees>
            </Position>
            <AltitudeMeters>400.20001220703125</AltitudeMeters>
            <DistanceMeters>NAN</DistanceMeters>
          </Trackpoint>
          <Trackpoint>
            <Time>2020-05-25T06:29:06.000Z</Time>
            <Position>
              <LatitudeDegrees>38.21961323730647563934326171875</LatitudeDegrees>
              <LongitudeDegrees>-1.171194277703762054443359375</LongitudeDegrees>
            </Position>
            <AltitudeMeters>399.79998779296875</AltitudeMeters>
            <DistanceMeters>NAN</DistanceMeters>
          </Trackpoint>
          <Trackpoint>
            <Time>2020-05-25T06:29:07.000Z</Time>
            <Position>
              <LatitudeDegrees>38.2195199467241764068603515625</LatitudeDegrees>
              <LongitudeDegrees>-1.1711310781538486480712890625</LongitudeDegrees>
            </Position>
            <AltitudeMeters>399</AltitudeMeters>
            <DistanceMeters>NAN</DistanceMeters>
          </Trackpoint>
          <Trackpoint>
            <Time>2020-05-25T06:29:08.000Z</Time>
            <Position>
              <LatitudeDegrees>38.2194227166473865509033203125</LatitudeDegrees>
              <LongitudeDegrees>-1.1710811220109462738037109375</LongitudeDegrees>
            </Position>
            <AltitudeMeters>398.600006103515625</AltitudeMeters>
            <DistanceMeters>NAN</DistanceMeters>
          </Trackpoint>
          <Trackpoint>
            <Time>2020-05-25T06:29:09.000Z</Time>
            <Position>
              <LatitudeDegrees>38.219324648380279541015625</LatitudeDegrees>
              <LongitudeDegrees>-1.17104365490376949310302734375</LongitudeDegrees>
            </Position>
            <AltitudeMeters>398.399993896484375</AltitudeMeters>
            <DistanceMeters>NAN</DistanceMeters>
          </Trackpoint>
          <Trackpoint>
            <Time>2020-05-25T06:29:10.000Z</Time>
            <Position>
              <LatitudeDegrees>38.2192252390086650848388671875</LatitudeDegrees>
              <LongitudeDegrees>-1.17101557552814483642578125</LongitudeDegrees>
            </Position>
            <AltitudeMeters>398.20001220703125</AltitudeMeters>
            <DistanceMeters>NAN</DistanceMeters>
          </Trackpoint>
          <Trackpoint>
            <Time>2020-05-25T06:29:11.000Z</Time>
            <Position>
              <LatitudeDegrees>38.2191256619989871978759765625</LatitudeDegrees>
              <LongitudeDegrees>-1.1709956265985965728759765625</LongitudeDegrees>
            </Position>
            <AltitudeMeters>397.79998779296875</AltitudeMeters>
            <DistanceMeters>NAN</DistanceMeters>
          </Trackpoint>
          <Trackpoint>
            <Time>2020-05-25T06:29:12.000Z</Time>
            <Position>
              <LatitudeDegrees>38.21902692317962646484375</LatitudeDegrees>
              <LongitudeDegrees>-1.1709840595722198486328125</LongitudeDegrees>
            </Position>
            <AltitudeMeters>397.600006103515625</AltitudeMeters>
            <DistanceMeters>NAN</DistanceMeters>
          </Trackpoint>
          <Trackpoint>
            <Time>2020-05-25T06:29:13.000Z</Time>
            <Position>
              <LatitudeDegrees>38.21892969310283660888671875</LatitudeDegrees>
              <LongitudeDegrees>-1.17097307927906513214111328125</LongitudeDegrees>
            </Position>
            <AltitudeMeters>397.399993896484375</AltitudeMeters>
            <DistanceMeters>NAN</DistanceMeters>
          </Trackpoint>
          <Trackpoint>
            <Time>2020-05-25T06:29:14.000Z</Time>
            <Position>
              <LatitudeDegrees>38.218832798302173614501953125</LatitudeDegrees>
              <LongitudeDegrees>-1.17096033878624439239501953125</LongitudeDegrees>
            </Position>
            <AltitudeMeters>397.20001220703125</AltitudeMeters>
            <DistanceMeters>NAN</DistanceMeters>
          </Trackpoint>
          <Trackpoint>
            <Time>2020-05-25T06:29:15.000Z</Time>
            <Position>
              <LatitudeDegrees>38.2187364064157009124755859375</LatitudeDegrees>
              <LongitudeDegrees>-1.17094994522631168365478515625</LongitudeDegrees>
            </Position>
            <AltitudeMeters>397</AltitudeMeters>
            <DistanceMeters>NAN</DistanceMeters>
          </Trackpoint>
          <Trackpoint>
            <Time>2020-05-25T06:29:16.000Z</Time>
            <Position>
              <LatitudeDegrees>38.2186411879956722259521484375</LatitudeDegrees>
              <LongitudeDegrees>-1.17093217559158802032470703125</LongitudeDegrees>
            </Position>
            <AltitudeMeters>396.79998779296875</AltitudeMeters>
            <DistanceMeters>NAN</DistanceMeters>
          </Trackpoint>
          <Trackpoint>
            <Time>2020-05-25T06:29:17.000Z</Time>
            <Position>
              <LatitudeDegrees>38.21854705922305583953857421875</LatitudeDegrees>
              <LongitudeDegrees>-1.17090719752013683319091796875</LongitudeDegrees>
            </Position>
            <AltitudeMeters>396.79998779296875</AltitudeMeters>
            <DistanceMeters>NAN</DistanceMeters>
          </Trackpoint>
          <Trackpoint>
            <Time>2020-05-25T06:29:18.000Z</Time>
            <Position>
              <LatitudeDegrees>38.21845485828816890716552734375</LatitudeDegrees>
              <LongitudeDegrees>-1.1708739213645458221435546875</LongitudeDegrees>
            </Position>
            <AltitudeMeters>396.600006103515625</AltitudeMeters>
            <DistanceMeters>NAN</DistanceMeters>
          </Trackpoint>
          <Trackpoint>
            <Time>2020-05-25T06:29:19.000Z</Time>
            <Position>
              <LatitudeDegrees>38.2183657586574554443359375</LatitudeDegrees>
              <LongitudeDegrees>-1.17083410732448101043701171875</LongitudeDegrees>
            </Position>
            <AltitudeMeters>396.600006103515625</AltitudeMeters>
            <DistanceMeters>NAN</DistanceMeters>
          </Trackpoint>
          <Trackpoint>
            <Time>2020-05-25T06:29:20.000Z</Time>
            <Position>
              <LatitudeDegrees>38.21827900595963001251220703125</LatitudeDegrees>
              <LongitudeDegrees>-1.1707867495715618133544921875</LongitudeDegrees>
            </Position>
            <AltitudeMeters>396.399993896484375</AltitudeMeters>
            <DistanceMeters>NAN</DistanceMeters>
          </Trackpoint>
          <Trackpoint>
            <Time>2020-05-25T06:29:21.000Z</Time>
            <Position>
              <LatitudeDegrees>38.21819367818534374237060546875</LatitudeDegrees>
              <LongitudeDegrees>-1.17073050700128078460693359375</LongitudeDegrees>
            </Position>
            <AltitudeMeters>396.20001220703125</AltitudeMeters>
            <DistanceMeters>NAN</DistanceMeters>
          </Trackpoint>
          <Trackpoint>
            <Time>2020-05-25T06:29:22.000Z</Time>
            <Position>
              <LatitudeDegrees>38.21811187081038951873779296875</LatitudeDegrees>
              <LongitudeDegrees>-1.17066630162298679351806640625</LongitudeDegrees>
            </Position>
            <AltitudeMeters>396.20001220703125</AltitudeMeters>
            <DistanceMeters>NAN</DistanceMeters>
          </Trackpoint>
          <Trackpoint>
            <Time>2020-05-25T06:29:23.000Z</Time>
            <Position>
              <LatitudeDegrees>38.21803224273025989532470703125</LatitudeDegrees>
              <LongitudeDegrees>-1.17059874348342418670654296875</LongitudeDegrees>
            </Position>
            <AltitudeMeters>396.20001220703125</AltitudeMeters>
            <DistanceMeters>NAN</DistanceMeters>
          </Trackpoint>
          <Trackpoint>
            <Time>2020-05-25T06:29:24.000Z</Time>
            <Position>
              <LatitudeDegrees>38.21795512922108173370361328125</LatitudeDegrees>
              <LongitudeDegrees>-1.1705299280583858489990234375</LongitudeDegrees>
            </Position>
            <AltitudeMeters>396.20001220703125</AltitudeMeters>
            <DistanceMeters>NAN</DistanceMeters>
          </Trackpoint>
          <Trackpoint>
            <Time>2020-05-25T06:29:25.000Z</Time>
            <Position>
              <LatitudeDegrees>38.2178801111876964569091796875</LatitudeDegrees>
              <LongitudeDegrees>-1.17046035826206207275390625</LongitudeDegrees>
            </Position>
            <AltitudeMeters>396</AltitudeMeters>
            <DistanceMeters>NAN</DistanceMeters>
          </Trackpoint>
          <Trackpoint>
            <Time>2020-05-25T06:29:26.000Z</Time>
            <Position>
              <LatitudeDegrees>38.2178060151636600494384765625</LatitudeDegrees>
              <LongitudeDegrees>-1.17039187811315059661865234375</LongitudeDegrees>
            </Position>
            <AltitudeMeters>396</AltitudeMeters>
            <DistanceMeters>NAN</DistanceMeters>
          </Trackpoint>
          <Trackpoint>
            <Time>2020-05-25T06:29:27.000Z</Time>
            <Position>
              <LatitudeDegrees>38.217734433710575103759765625</LatitudeDegrees>
              <LongitudeDegrees>-1.170322559773921966552734375</LongitudeDegrees>
            </Position>
            <AltitudeMeters>395.79998779296875</AltitudeMeters>
            <DistanceMeters>NAN</DistanceMeters>
          </Trackpoint>
          <Trackpoint>
            <Time>2020-05-25T06:29:28.000Z</Time>
            <Position>
              <LatitudeDegrees>38.217665366828441619873046875</LatitudeDegrees>
              <LongitudeDegrees>-1.170255504548549652099609375</LongitudeDegrees>
            </Position>
            <AltitudeMeters>395.79998779296875</AltitudeMeters>
            <DistanceMeters>NAN</DistanceMeters>
          </Trackpoint>
          <Trackpoint>
            <Time>2020-05-25T06:29:29.000Z</Time>
            <Position>
              <LatitudeDegrees>38.21759906597435474395751953125</LatitudeDegrees>
              <LongitudeDegrees>-1.17018937133252620697021484375</LongitudeDegrees>
            </Position>
            <AltitudeMeters>395.600006103515625</AltitudeMeters>
            <DistanceMeters>NAN</DistanceMeters>
          </Trackpoint>
          <Trackpoint>
            <Time>2020-05-25T06:29:30.000Z</Time>
            <Position>
              <LatitudeDegrees>38.21753628551959991455078125</LatitudeDegrees>
              <LongitudeDegrees>-1.1701205559074878692626953125</LongitudeDegrees>
            </Position>
            <AltitudeMeters>395.600006103515625</AltitudeMeters>
            <DistanceMeters>NAN</DistanceMeters>
          </Trackpoint>
          <Trackpoint>
            <Time>2020-05-25T06:29:31.000Z</Time>
            <Position>
              <LatitudeDegrees>38.21747903712093830108642578125</LatitudeDegrees>
              <LongitudeDegrees>-1.1700481362640857696533203125</LongitudeDegrees>
            </Position>
            <AltitudeMeters>395.600006103515625</AltitudeMeters>
            <DistanceMeters>NAN</DistanceMeters>
          </Trackpoint>
          <Trackpoint>
            <Time>2020-05-25T06:29:32.000Z</Time>
            <Position>
              <LatitudeDegrees>38.2174291647970676422119140625</LatitudeDegrees>
              <LongitudeDegrees>-1.16996951401233673095703125</LongitudeDegrees>
            </Position>
            <AltitudeMeters>395.600006103515625</AltitudeMeters>
            <DistanceMeters>NAN</DistanceMeters>
          </Trackpoint>
          <Trackpoint>
            <Time>2020-05-25T06:29:33.000Z</Time>
            <Position>
              <LatitudeDegrees>38.21738583035767078399658203125</LatitudeDegrees>
              <LongitudeDegrees>-1.169885359704494476318359375</LongitudeDegrees>
            </Position>
            <AltitudeMeters>395.600006103515625</AltitudeMeters>
            <DistanceMeters>NAN</DistanceMeters>
          </Trackpoint>
          <Trackpoint>
            <Time>2020-05-25T06:29:34.000Z</Time>
            <Position>
              <LatitudeDegrees>38.21734576486051082611083984375</LatitudeDegrees>
              <LongitudeDegrees>-1.169798187911510467529296875</LongitudeDegrees>
            </Position>
            <AltitudeMeters>395.600006103515625</AltitudeMeters>
            <DistanceMeters>NAN</DistanceMeters>
          </Trackpoint>
          <Trackpoint>
            <Time>2020-05-25T06:29:35.000Z</Time>
            <Position>
              <LatitudeDegrees>38.21730452589690685272216796875</LatitudeDegrees>
              <LongitudeDegrees>-1.16971109993755817413330078125</LongitudeDegrees>
            </Position>
            <AltitudeMeters>395.600006103515625</AltitudeMeters>
            <DistanceMeters>NAN</DistanceMeters>
          </Trackpoint>
          <Trackpoint>
            <Time>2020-05-25T06:29:36.000Z</Time>
            <Position>
              <LatitudeDegrees>38.21726395748555660247802734375</LatitudeDegrees>
              <LongitudeDegrees>-1.1696233414113521575927734375</LongitudeDegrees>
            </Position>
            <AltitudeMeters>395.399993896484375</AltitudeMeters>
            <DistanceMeters>NAN</DistanceMeters>
          </Trackpoint>
          <Trackpoint>
            <Time>2020-05-25T06:29:37.000Z</Time>
            <Position>
              <LatitudeDegrees>38.21722246706485748291015625</LatitudeDegrees>
              <LongitudeDegrees>-1.1695351637899875640869140625</LongitudeDegrees>
            </Position>
            <AltitudeMeters>395.399993896484375</AltitudeMeters>
            <DistanceMeters>NAN</DistanceMeters>
          </Trackpoint>
          <Trackpoint>
            <Time>2020-05-25T06:29:38.000Z</Time>
            <Position>
              <LatitudeDegrees>38.21717946790158748626708984375</LatitudeDegrees>
              <LongitudeDegrees>-1.16944757290184497833251953125</LongitudeDegrees>
            </Position>
            <AltitudeMeters>395.20001220703125</AltitudeMeters>
            <DistanceMeters>NAN</DistanceMeters>
          </Trackpoint>
          <Trackpoint>
            <Time>2020-05-25T06:29:39.000Z</Time>
            <Position>
              <LatitudeDegrees>38.21713554672896862030029296875</LatitudeDegrees>
              <LongitudeDegrees>-1.16935956291854381561279296875</LongitudeDegrees>
            </Position>
            <AltitudeMeters>395.20001220703125</AltitudeMeters>
            <DistanceMeters>NAN</DistanceMeters>
          </Trackpoint>
          <Trackpoint>
            <Time>2020-05-25T06:29:40.000Z</Time>
            <Position>
              <LatitudeDegrees>38.21708944626152515411376953125</LatitudeDegrees>
              <LongitudeDegrees>-1.16927683353424072265625</LongitudeDegrees>
            </Position>
            <AltitudeMeters>395.20001220703125</AltitudeMeters>
            <DistanceMeters>NAN</DistanceMeters>
          </Trackpoint>
          <Trackpoint>
            <Time>2020-05-25T06:29:41.000Z</Time>
            <Position>
              <LatitudeDegrees>38.2170385681092739105224609375</LatitudeDegrees>
              <LongitudeDegrees>-1.169200725853443145751953125</LongitudeDegrees>
            </Position>
            <AltitudeMeters>395.20001220703125</AltitudeMeters>
            <DistanceMeters>NAN</DistanceMeters>
          </Trackpoint>
          <Trackpoint>
            <Time>2020-05-25T06:29:42.000Z</Time>
            <Position>
              <LatitudeDegrees>38.2169855944812297821044921875</LatitudeDegrees>
              <LongitudeDegrees>-1.16912788711488246917724609375</LongitudeDegrees>
            </Position>
            <AltitudeMeters>395</AltitudeMeters>
            <DistanceMeters>NAN</DistanceMeters>
          </Trackpoint>
          <Trackpoint>
            <Time>2020-05-25T06:29:43.000Z</Time>
            <Position>
              <LatitudeDegrees>38.216929771006107330322265625</LatitudeDegrees>
              <LongitudeDegrees>-1.1690563894808292388916015625</LongitudeDegrees>
            </Position>
            <AltitudeMeters>395</AltitudeMeters>
            <DistanceMeters>NAN</DistanceMeters>
          </Trackpoint>
          <Trackpoint>
            <Time>2020-05-25T06:29:44.000Z</Time>
            <Position>
              <LatitudeDegrees>38.2168717682361602783203125</LatitudeDegrees>
              <LongitudeDegrees>-1.16898455657064914703369140625</LongitudeDegrees>
            </Position>
            <AltitudeMeters>395</AltitudeMeters>
            <DistanceMeters>NAN</DistanceMeters>
          </Trackpoint>
          <Trackpoint>
            <Time>2020-05-25T06:29:45.000Z</Time>
            <Position>
              <LatitudeDegrees>38.21681351400911808013916015625</LatitudeDegrees>
              <LongitudeDegrees>-1.1689145676791667938232421875</LongitudeDegrees>
            </Position>
            <AltitudeMeters>395</AltitudeMeters>
            <DistanceMeters>NAN</DistanceMeters>
          </Trackpoint>
          <Trackpoint>
            <Time>2020-05-25T06:29:46.000Z</Time>
            <Position>
              <LatitudeDegrees>38.21675316430628299713134765625</LatitudeDegrees>
              <LongitudeDegrees>-1.16884256713092327117919921875</LongitudeDegrees>
            </Position>
            <AltitudeMeters>395</AltitudeMeters>
            <DistanceMeters>NAN</DistanceMeters>
          </Trackpoint>
          <Trackpoint>
            <Time>2020-05-25T06:29:47.000Z</Time>
            <Position>
              <LatitudeDegrees>38.2166925631463527679443359375</LatitudeDegrees>
              <LongitudeDegrees>-1.16876981221139430999755859375</LongitudeDegrees>
            </Position>
            <AltitudeMeters>395</AltitudeMeters>
            <DistanceMeters>NAN</DistanceMeters>
          </Trackpoint>
          <Trackpoint>
            <Time>2020-05-25T06:29:48.000Z</Time>
            <Position>
              <LatitudeDegrees>38.21663145907223224639892578125</LatitudeDegrees>
              <LongitudeDegrees>-1.16869940422475337982177734375</LongitudeDegrees>
            </Position>
            <AltitudeMeters>394.79998779296875</AltitudeMeters>
            <DistanceMeters>NAN</DistanceMeters>
          </Trackpoint>
          <Trackpoint>
            <Time>2020-05-25T06:29:49.000Z</Time>
            <Position>
              <LatitudeDegrees>38.21657077409327030181884765625</LatitudeDegrees>
              <LongitudeDegrees>-1.16862799040973186492919921875</LongitudeDegrees>
            </Position>
            <AltitudeMeters>394.600006103515625</AltitudeMeters>
            <DistanceMeters>NAN</DistanceMeters>
          </Trackpoint>
          <Trackpoint>
            <Time>2020-05-25T06:29:50.000Z</Time>
            <Position>
              <LatitudeDegrees>38.2165096700191497802734375</LatitudeDegrees>
              <LongitudeDegrees>-1.16855607368052005767822265625</LongitudeDegrees>
            </Position>
            <AltitudeMeters>394.600006103515625</AltitudeMeters>
            <DistanceMeters>NAN</DistanceMeters>
          </Trackpoint>
          <Trackpoint>
            <Time>2020-05-25T06:29:51.000Z</Time>
            <Position>
              <LatitudeDegrees>38.21644739247858524322509765625</LatitudeDegrees>
              <LongitudeDegrees>-1.16848289966583251953125</LongitudeDegrees>
            </Position>
            <AltitudeMeters>394.399993896484375</AltitudeMeters>
            <DistanceMeters>NAN</DistanceMeters>
          </Trackpoint>
          <Trackpoint>
            <Time>2020-05-25T06:29:52.000Z</Time>
            <Position>
              <LatitudeDegrees>38.21638427674770355224609375</LatitudeDegrees>
              <LongitudeDegrees>-1.1684083007276058197021484375</LongitudeDegrees>
            </Position>
            <AltitudeMeters>394.399993896484375</AltitudeMeters>
            <DistanceMeters>NAN</DistanceMeters>
          </Trackpoint>
          <Trackpoint>
            <Time>2020-05-25T06:29:53.000Z</Time>
            <Position>
              <LatitudeDegrees>38.21631948463618755340576171875</LatitudeDegrees>
              <LongitudeDegrees>-1.16833328269422054290771484375</LongitudeDegrees>
            </Position>
            <AltitudeMeters>394.399993896484375</AltitudeMeters>
            <DistanceMeters>NAN</DistanceMeters>
          </Trackpoint>
          <Trackpoint>
            <Time>2020-05-25T06:29:54.000Z</Time>
            <Position>
              <LatitudeDegrees>38.2162536866962909698486328125</LatitudeDegrees>
              <LongitudeDegrees>-1.1682584322988986968994140625</LongitudeDegrees>
            </Position>
            <AltitudeMeters>394.399993896484375</AltitudeMeters>
            <DistanceMeters>NAN</DistanceMeters>
          </Trackpoint>
          <Trackpoint>
            <Time>2020-05-25T06:29:55.000Z</Time>
            <Position>
              <LatitudeDegrees>38.21618772111833095550537109375</LatitudeDegrees>
              <LongitudeDegrees>-1.16818374954164028167724609375</LongitudeDegrees>
            </Position>
            <AltitudeMeters>394.20001220703125</AltitudeMeters>
            <DistanceMeters>NAN</DistanceMeters>
          </Trackpoint>
          <Trackpoint>
            <Time>2020-05-25T06:29:56.000Z</Time>
            <Position>
              <LatitudeDegrees>38.21612066589295864105224609375</LatitudeDegrees>
              <LongitudeDegrees>-1.168110072612762451171875</LongitudeDegrees>
            </Position>
            <AltitudeMeters>394.20001220703125</AltitudeMeters>
            <DistanceMeters>NAN</DistanceMeters>
          </Trackpoint>
          <Trackpoint>
            <Time>2020-05-25T06:29:57.000Z</Time>
            <Position>
              <LatitudeDegrees>38.21605327539145946502685546875</LatitudeDegrees>
              <LongitudeDegrees>-1.1680354736745357513427734375</LongitudeDegrees>
            </Position>
            <AltitudeMeters>394.20001220703125</AltitudeMeters>
            <DistanceMeters>NAN</DistanceMeters>
          </Trackpoint>
          <Trackpoint>
            <Time>2020-05-25T06:29:58.000Z</Time>
            <Position>
              <LatitudeDegrees>38.21598605252802371978759765625</LatitudeDegrees>
              <LongitudeDegrees>-1.16795919835567474365234375</LongitudeDegrees>
            </Position>
            <AltitudeMeters>394</AltitudeMeters>
            <DistanceMeters>NAN</DistanceMeters>
          </Trackpoint>
          <Trackpoint>
            <Time>2020-05-25T06:29:59.000Z</Time>
            <Position>
              <LatitudeDegrees>38.21591799147427082061767578125</LatitudeDegrees>
              <LongitudeDegrees>-1.16788384504616260528564453125</LongitudeDegrees>
            </Position>
            <AltitudeMeters>393.600006103515625</AltitudeMeters>
            <DistanceMeters>NAN</DistanceMeters>
          </Trackpoint>
          <Trackpoint>
            <Time>2020-05-25T06:30:00.000Z</Time>
            <Position>
              <LatitudeDegrees>38.215850181877613067626953125</LatitudeDegrees>
              <LongitudeDegrees>-1.16780907846987247467041015625</LongitudeDegrees>
            </Position>
            <AltitudeMeters>393.20001220703125</AltitudeMeters>
            <DistanceMeters>NAN</DistanceMeters>
          </Trackpoint>
          <Trackpoint>
            <Time>2020-05-25T06:30:01.000Z</Time>
            <Position>
              <LatitudeDegrees>38.215781114995479583740234375</LatitudeDegrees>
              <LongitudeDegrees>-1.16773523390293121337890625</LongitudeDegrees>
            </Position>
            <AltitudeMeters>392.600006103515625</AltitudeMeters>
            <DistanceMeters>NAN</DistanceMeters>
          </Trackpoint>
          <Trackpoint>
            <Time>2020-05-25T06:30:02.000Z</Time>
            <Position>
              <LatitudeDegrees>38.21570928208529949188232421875</LatitudeDegrees>
              <LongitudeDegrees>-1.16766415536403656005859375</LongitudeDegrees>
            </Position>
            <AltitudeMeters>392.399993896484375</AltitudeMeters>
            <DistanceMeters>NAN</DistanceMeters>
          </Trackpoint>
          <Trackpoint>
            <Time>2020-05-25T06:30:03.000Z</Time>
            <Position>
              <LatitudeDegrees>38.21563451550900936126708984375</LatitudeDegrees>
              <LongitudeDegrees>-1.16759450174868106842041015625</LongitudeDegrees>
            </Position>
            <AltitudeMeters>392</AltitudeMeters>
            <DistanceMeters>NAN</DistanceMeters>
          </Trackpoint>
          <Trackpoint>
            <Time>2020-05-25T06:30:04.000Z</Time>
            <Position>
              <LatitudeDegrees>38.21555723436176776885986328125</LatitudeDegrees>
              <LongitudeDegrees>-1.167531721293926239013671875</LongitudeDegrees>
            </Position>
            <AltitudeMeters>392</AltitudeMeters>
            <DistanceMeters>NAN</DistanceMeters>
          </Trackpoint>
          <Trackpoint>
            <Time>2020-05-25T06:30:05.000Z</Time>
            <Position>
              <LatitudeDegrees>38.21547500789165496826171875</LatitudeDegrees>
              <LongitudeDegrees>-1.16747715510427951812744140625</LongitudeDegrees>
            </Position>
            <AltitudeMeters>391.399993896484375</AltitudeMeters>
            <DistanceMeters>NAN</DistanceMeters>
          </Trackpoint>
          <Trackpoint>
            <Time>2020-05-25T06:30:06.000Z</Time>
            <Position>
              <LatitudeDegrees>38.215387165546417236328125</LatitudeDegrees>
              <LongitudeDegrees>-1.16743155755102634429931640625</LongitudeDegrees>
            </Position>
            <AltitudeMeters>391</AltitudeMeters>
            <DistanceMeters>NAN</DistanceMeters>
          </Trackpoint>
          <Trackpoint>
            <Time>2020-05-25T06:30:07.000Z</Time>
            <Position>
              <LatitudeDegrees>38.215296305716037750244140625</LatitudeDegrees>
              <LongitudeDegrees>-1.16739057004451751708984375</LongitudeDegrees>
            </Position>
            <AltitudeMeters>390.600006103515625</AltitudeMeters>
            <DistanceMeters>NAN</DistanceMeters>
          </Trackpoint>
          <Trackpoint>
            <Time>2020-05-25T06:30:08.000Z</Time>
            <Position>
              <LatitudeDegrees>38.215204440057277679443359375</LatitudeDegrees>
              <LongitudeDegrees>-1.16735075600445270538330078125</LongitudeDegrees>
            </Position>
            <AltitudeMeters>390.399993896484375</AltitudeMeters>
            <DistanceMeters>NAN</DistanceMeters>
          </Trackpoint>
          <Trackpoint>
            <Time>2020-05-25T06:30:09.000Z</Time>
            <Position>
              <LatitudeDegrees>38.21511165238916873931884765625</LatitudeDegrees>
              <LongitudeDegrees>-1.16731680929660797119140625</LongitudeDegrees>
            </Position>
            <AltitudeMeters>390</AltitudeMeters>
            <DistanceMeters>NAN</DistanceMeters>
          </Trackpoint>
          <Trackpoint>
            <Time>2020-05-25T06:30:10.000Z</Time>
            <Position>
              <LatitudeDegrees>38.21501635015010833740234375</LatitudeDegrees>
              <LongitudeDegrees>-1.167284287512302398681640625</LongitudeDegrees>
            </Position>
            <AltitudeMeters>389.79998779296875</AltitudeMeters>
            <DistanceMeters>NAN</DistanceMeters>
          </Trackpoint>
          <Trackpoint>
            <Time>2020-05-25T06:30:11.000Z</Time>
            <Position>
              <LatitudeDegrees>38.21492071263492107391357421875</LatitudeDegrees>
              <LongitudeDegrees>-1.16725369356572628021240234375</LongitudeDegrees>
            </Position>
            <AltitudeMeters>389.600006103515625</AltitudeMeters>
            <DistanceMeters>NAN</DistanceMeters>
          </Trackpoint>
          <Trackpoint>
            <Time>2020-05-25T06:30:12.000Z</Time>
            <Position>
              <LatitudeDegrees>38.214825578033924102783203125</LatitudeDegrees>
              <LongitudeDegrees>-1.16722402162849903106689453125</LongitudeDegrees>
            </Position>
            <AltitudeMeters>389.399993896484375</AltitudeMeters>
            <DistanceMeters>NAN</DistanceMeters>
          </Trackpoint>
          <Trackpoint>
            <Time>2020-05-25T06:30:13.000Z</Time>
            <Position>
              <LatitudeDegrees>38.214728347957134246826171875</LatitudeDegrees>
              <LongitudeDegrees>-1.167195104062557220458984375</LongitudeDegrees>
            </Position>
            <AltitudeMeters>388.79998779296875</AltitudeMeters>
            <DistanceMeters>NAN</DistanceMeters>
          </Trackpoint>
          <Trackpoint>
            <Time>2020-05-25T06:30:14.000Z</Time>
            <Position>
              <LatitudeDegrees>38.2146306149661540985107421875</LatitudeDegrees>
              <LongitudeDegrees>-1.1671654321253299713134765625</LongitudeDegrees>
            </Position>
            <AltitudeMeters>388.20001220703125</AltitudeMeters>
            <DistanceMeters>NAN</DistanceMeters>
          </Trackpoint>
          <Trackpoint>
            <Time>2020-05-25T06:30:15.000Z</Time>
            <Position>
              <LatitudeDegrees>38.21453179232776165008544921875</LatitudeDegrees>
              <LongitudeDegrees>-1.1671335808932781219482421875</LongitudeDegrees>
            </Position>
            <AltitudeMeters>387.600006103515625</AltitudeMeters>
            <DistanceMeters>NAN</DistanceMeters>
          </Trackpoint>
          <Trackpoint>
            <Time>2020-05-25T06:30:16.000Z</Time>
            <Position>
              <LatitudeDegrees>38.21443204768002033233642578125</LatitudeDegrees>
              <LongitudeDegrees>-1.1670997180044651031494140625</LongitudeDegrees>
            </Position>
            <AltitudeMeters>387.20001220703125</AltitudeMeters>
            <DistanceMeters>NAN</DistanceMeters>
          </Trackpoint>
          <Trackpoint>
            <Time>2020-05-25T06:30:17.000Z</Time>
            <Position>
              <LatitudeDegrees>38.21433045901358127593994140625</LatitudeDegrees>
              <LongitudeDegrees>-1.16706334054470062255859375</LongitudeDegrees>
            </Position>
            <AltitudeMeters>386.600006103515625</AltitudeMeters>
            <DistanceMeters>NAN</DistanceMeters>
          </Trackpoint>
          <Trackpoint>
            <Time>2020-05-25T06:30:18.000Z</Time>
            <Position>
              <LatitudeDegrees>38.214230127632617950439453125</LatitudeDegrees>
              <LongitudeDegrees>-1.16702520288527011871337890625</LongitudeDegrees>
            </Position>
            <AltitudeMeters>386.20001220703125</AltitudeMeters>
            <DistanceMeters>NAN</DistanceMeters>
          </Trackpoint>
          <Trackpoint>
            <Time>2020-05-25T06:30:19.000Z</Time>
            <Position>
              <LatitudeDegrees>38.21413122117519378662109375</LatitudeDegrees>
              <LongitudeDegrees>-1.16698346100747585296630859375</LongitudeDegrees>
            </Position>
            <AltitudeMeters>386</AltitudeMeters>
            <DistanceMeters>NAN</DistanceMeters>
          </Trackpoint>
          <Trackpoint>
            <Time>2020-05-25T06:30:20.000Z</Time>
            <Position>
              <LatitudeDegrees>38.21403306908905506134033203125</LatitudeDegrees>
              <LongitudeDegrees>-1.1669387854635715484619140625</LongitudeDegrees>
            </Position>
            <AltitudeMeters>385.79998779296875</AltitudeMeters>
            <DistanceMeters>NAN</DistanceMeters>
          </Trackpoint>
          <Trackpoint>
            <Time>2020-05-25T06:30:21.000Z</Time>
            <Position>
              <LatitudeDegrees>38.21393500082194805145263671875</LatitudeDegrees>
              <LongitudeDegrees>-1.16689444519579410552978515625</LongitudeDegrees>
            </Position>
            <AltitudeMeters>385.20001220703125</AltitudeMeters>
            <DistanceMeters>NAN</DistanceMeters>
          </Trackpoint>
          <Trackpoint>
            <Time>2020-05-25T06:30:22.000Z</Time>
            <Position>
              <LatitudeDegrees>38.2138370163738727569580078125</LatitudeDegrees>
              <LongitudeDegrees>-1.16684733889997005462646484375</LongitudeDegrees>
            </Position>
            <AltitudeMeters>384.20001220703125</AltitudeMeters>
            <DistanceMeters>NAN</DistanceMeters>
          </Trackpoint>
          <Trackpoint>
            <Time>2020-05-25T06:30:23.000Z</Time>
            <Position>
              <LatitudeDegrees>38.2137389481067657470703125</LatitudeDegrees>
              <LongitudeDegrees>-1.16679847240447998046875</LongitudeDegrees>
            </Position>
            <AltitudeMeters>383.600006103515625</AltitudeMeters>
            <DistanceMeters>NAN</DistanceMeters>
          </Trackpoint>
          <Trackpoint>
            <Time>2020-05-25T06:30:24.000Z</Time>
            <Position>
              <LatitudeDegrees>38.2136392034590244293212890625</LatitudeDegrees>
              <LongitudeDegrees>-1.1667513661086559295654296875</LongitudeDegrees>
            </Position>
            <AltitudeMeters>383.399993896484375</AltitudeMeters>
            <DistanceMeters>NAN</DistanceMeters>
          </Trackpoint>
          <Trackpoint>
            <Time>2020-05-25T06:30:25.000Z</Time>
            <Position>
              <LatitudeDegrees>38.213540129363536834716796875</LatitudeDegrees>
              <LongitudeDegrees>-1.16670568473637104034423828125</LongitudeDegrees>
            </Position>
            <AltitudeMeters>383</AltitudeMeters>
            <DistanceMeters>NAN</DistanceMeters>
          </Trackpoint>
          <Trackpoint>
            <Time>2020-05-25T06:30:26.000Z</Time>
            <Position>
              <LatitudeDegrees>38.21343795396387577056884765625</LatitudeDegrees>
              <LongitudeDegrees>-1.16666209883987903594970703125</LongitudeDegrees>
            </Position>
            <AltitudeMeters>382.600006103515625</AltitudeMeters>
            <DistanceMeters>NAN</DistanceMeters>
          </Trackpoint>
          <Trackpoint>
            <Time>2020-05-25T06:30:27.000Z</Time>
            <Position>
              <LatitudeDegrees>38.2133364491164684295654296875</LatitudeDegrees>
              <LongitudeDegrees>-1.1666254699230194091796875</LongitudeDegrees>
            </Position>
            <AltitudeMeters>382.20001220703125</AltitudeMeters>
            <DistanceMeters>NAN</DistanceMeters>
          </Trackpoint>
          <Trackpoint>
            <Time>2020-05-25T06:30:28.000Z</Time>
            <Position>
              <LatitudeDegrees>38.21323444135487079620361328125</LatitudeDegrees>
              <LongitudeDegrees>-1.16659554652869701385498046875</LongitudeDegrees>
            </Position>
            <AltitudeMeters>381.79998779296875</AltitudeMeters>
            <DistanceMeters>NAN</DistanceMeters>
          </Trackpoint>
          <Trackpoint>
            <Time>2020-05-25T06:30:29.000Z</Time>
            <Position>
              <LatitudeDegrees>38.2131299190223217010498046875</LatitudeDegrees>
              <LongitudeDegrees>-1.1665763519704341888427734375</LongitudeDegrees>
            </Position>
            <AltitudeMeters>381.399993896484375</AltitudeMeters>
            <DistanceMeters>NAN</DistanceMeters>
          </Trackpoint>
          <Trackpoint>
            <Time>2020-05-25T06:30:30.000Z</Time>
            <Position>
              <LatitudeDegrees>38.21302640251815319061279296875</LatitudeDegrees>
              <LongitudeDegrees>-1.1665746755897998809814453125</LongitudeDegrees>
            </Position>
            <AltitudeMeters>381</AltitudeMeters>
            <DistanceMeters>NAN</DistanceMeters>
          </Trackpoint>
          <Trackpoint>
            <Time>2020-05-25T06:30:31.000Z</Time>
            <Position>
              <LatitudeDegrees>38.212925903499126434326171875</LatitudeDegrees>
              <LongitudeDegrees>-1.1665879189968109130859375</LongitudeDegrees>
            </Position>
            <AltitudeMeters>380.399993896484375</AltitudeMeters>
            <DistanceMeters>NAN</DistanceMeters>
          </Trackpoint>
          <Trackpoint>
            <Time>2020-05-25T06:30:32.000Z</Time>
            <Position>
              <LatitudeDegrees>38.21282842196524143218994140625</LatitudeDegrees>
              <LongitudeDegrees>-1.1666196025907993316650390625</LongitudeDegrees>
            </Position>
            <AltitudeMeters>379.600006103515625</AltitudeMeters>
            <DistanceMeters>NAN</DistanceMeters>
          </Trackpoint>
          <Trackpoint>
            <Time>2020-05-25T06:30:33.000Z</Time>
            <Position>
              <LatitudeDegrees>38.2127319462597370147705078125</LatitudeDegrees>
              <LongitudeDegrees>-1.166664697229862213134765625</LongitudeDegrees>
            </Position>
            <AltitudeMeters>379</AltitudeMeters>
            <DistanceMeters>NAN</DistanceMeters>
          </Trackpoint>
          <Trackpoint>
            <Time>2020-05-25T06:30:34.000Z</Time>
            <Position>
              <LatitudeDegrees>38.21263496764004230499267578125</LatitudeDegrees>
              <LongitudeDegrees>-1.1667107976973056793212890625</LongitudeDegrees>
            </Position>
            <AltitudeMeters>378.79998779296875</AltitudeMeters>
            <DistanceMeters>NAN</DistanceMeters>
          </Trackpoint>
          <Trackpoint>
            <Time>2020-05-25T06:30:35.000Z</Time>
            <Position>
              <LatitudeDegrees>38.2125358097255229949951171875</LatitudeDegrees>
              <LongitudeDegrees>-1.166747845709323883056640625</LongitudeDegrees>
            </Position>
            <AltitudeMeters>378.399993896484375</AltitudeMeters>
            <DistanceMeters>NAN</DistanceMeters>
          </Trackpoint>
          <Trackpoint>
            <Time>2020-05-25T06:30:36.000Z</Time>
            <Position>
              <LatitudeDegrees>38.212433047592639923095703125</LatitudeDegrees>
              <LongitudeDegrees>-1.16677341051399707794189453125</LongitudeDegrees>
            </Position>
            <AltitudeMeters>378.20001220703125</AltitudeMeters>
            <DistanceMeters>NAN</DistanceMeters>
          </Trackpoint>
          <Trackpoint>
            <Time>2020-05-25T06:30:37.000Z</Time>
            <Position>
              <LatitudeDegrees>38.2123292796313762664794921875</LatitudeDegrees>
              <LongitudeDegrees>-1.16678782738745212554931640625</LongitudeDegrees>
            </Position>
            <AltitudeMeters>378.20001220703125</AltitudeMeters>
            <DistanceMeters>NAN</DistanceMeters>
          </Trackpoint>
          <Trackpoint>
            <Time>2020-05-25T06:30:38.000Z</Time>
            <Position>
              <LatitudeDegrees>38.21222417056560516357421875</LatitudeDegrees>
              <LongitudeDegrees>-1.1667915992438793182373046875</LongitudeDegrees>
            </Position>
            <AltitudeMeters>377.79998779296875</AltitudeMeters>
            <DistanceMeters>NAN</DistanceMeters>
          </Trackpoint>
          <Trackpoint>
            <Time>2020-05-25T06:30:39.000Z</Time>
            <Position>
              <LatitudeDegrees>38.21211897768080234527587890625</LatitudeDegrees>
              <LongitudeDegrees>-1.1667855642735958099365234375</LongitudeDegrees>
            </Position>
            <AltitudeMeters>377.20001220703125</AltitudeMeters>
            <DistanceMeters>NAN</DistanceMeters>
          </Trackpoint>
          <Trackpoint>
            <Time>2020-05-25T06:30:40.000Z</Time>
            <Position>
              <LatitudeDegrees>38.2120144553482532501220703125</LatitudeDegrees>
              <LongitudeDegrees>-1.166773326694965362548828125</LongitudeDegrees>
            </Position>
            <AltitudeMeters>377</AltitudeMeters>
            <DistanceMeters>NAN</DistanceMeters>
          </Trackpoint>
          <Trackpoint>
            <Time>2020-05-25T06:30:41.000Z</Time>
            <Position>
              <LatitudeDegrees>38.21190976537764072418212890625</LatitudeDegrees>
              <LongitudeDegrees>-1.16675782017409801483154296875</LongitudeDegrees>
            </Position>
            <AltitudeMeters>376.600006103515625</AltitudeMeters>
            <DistanceMeters>NAN</DistanceMeters>
          </Trackpoint>
          <Trackpoint>
            <Time>2020-05-25T06:30:42.000Z</Time>
            <Position>
              <LatitudeDegrees>38.21180482394993305206298828125</LatitudeDegrees>
              <LongitudeDegrees>-1.16674256511032581329345703125</LongitudeDegrees>
            </Position>
            <AltitudeMeters>376.20001220703125</AltitudeMeters>
            <DistanceMeters>NAN</DistanceMeters>
          </Trackpoint>
          <Trackpoint>
            <Time>2020-05-25T06:30:43.000Z</Time>
            <Position>
              <LatitudeDegrees>38.21169845759868621826171875</LatitudeDegrees>
              <LongitudeDegrees>-1.16672999225556850433349609375</LongitudeDegrees>
            </Position>
            <AltitudeMeters>375.399993896484375</AltitudeMeters>
            <DistanceMeters>NAN</DistanceMeters>
          </Trackpoint>
          <Trackpoint>
            <Time>2020-05-25T06:30:44.000Z</Time>
            <Position>
              <LatitudeDegrees>38.21159142069518566131591796875</LatitudeDegrees>
              <LongitudeDegrees>-1.16671658121049404144287109375</LongitudeDegrees>
            </Position>
            <AltitudeMeters>375</AltitudeMeters>
            <DistanceMeters>NAN</DistanceMeters>
          </Trackpoint>
          <Trackpoint>
            <Time>2020-05-25T06:30:45.000Z</Time>
            <Position>
              <LatitudeDegrees>38.21148253977298736572265625</LatitudeDegrees>
              <LongitudeDegrees>-1.16670132614672183990478515625</LongitudeDegrees>
            </Position>
            <AltitudeMeters>374.600006103515625</AltitudeMeters>
            <DistanceMeters>NAN</DistanceMeters>
          </Trackpoint>
          <Trackpoint>
            <Time>2020-05-25T06:30:46.000Z</Time>
            <Position>
              <LatitudeDegrees>38.2113734073936939239501953125</LatitudeDegrees>
              <LongitudeDegrees>-1.16668640635907649993896484375</LongitudeDegrees>
            </Position>
            <AltitudeMeters>374.20001220703125</AltitudeMeters>
            <DistanceMeters>NAN</DistanceMeters>
          </Trackpoint>
          <Trackpoint>
            <Time>2020-05-25T06:30:47.000Z</Time>
            <Position>
              <LatitudeDegrees>38.211265616118907928466796875</LatitudeDegrees>
              <LongitudeDegrees>-1.16667450405657291412353515625</LongitudeDegrees>
            </Position>
            <AltitudeMeters>373.79998779296875</AltitudeMeters>
            <DistanceMeters>NAN</DistanceMeters>
          </Trackpoint>
          <Trackpoint>
            <Time>2020-05-25T06:30:48.000Z</Time>
            <Position>
              <LatitudeDegrees>38.2111591659486293792724609375</LatitudeDegrees>
              <LongitudeDegrees>-1.166666708886623382568359375</LongitudeDegrees>
            </Position>
            <AltitudeMeters>373.399993896484375</AltitudeMeters>
            <DistanceMeters>NAN</DistanceMeters>
          </Trackpoint>
          <Trackpoint>
            <Time>2020-05-25T06:30:49.000Z</Time>
            <Position>
              <LatitudeDegrees>38.21105330251157283782958984375</LatitudeDegrees>
              <LongitudeDegrees>-1.16665975190699100494384765625</LongitudeDegrees>
            </Position>
            <AltitudeMeters>373.20001220703125</AltitudeMeters>
            <DistanceMeters>NAN</DistanceMeters>
          </Trackpoint>
          <Trackpoint>
            <Time>2020-05-25T06:30:50.000Z</Time>
            <Position>
              <LatitudeDegrees>38.21094810962677001953125</LatitudeDegrees>
              <LongitudeDegrees>-1.16665103472769260406494140625</LongitudeDegrees>
            </Position>
            <AltitudeMeters>372.600006103515625</AltitudeMeters>
            <DistanceMeters>NAN</DistanceMeters>
          </Trackpoint>
          <Trackpoint>
            <Time>2020-05-25T06:30:51.000Z</Time>
            <Position>
              <LatitudeDegrees>38.210843503475189208984375</LatitudeDegrees>
              <LongitudeDegrees>-1.16663360036909580230712890625</LongitudeDegrees>
            </Position>
            <AltitudeMeters>371.399993896484375</AltitudeMeters>
            <DistanceMeters>NAN</DistanceMeters>
          </Trackpoint>
          <Trackpoint>
            <Time>2020-05-25T06:30:52.000Z</Time>
            <Position>
              <LatitudeDegrees>38.2107417471706867218017578125</LatitudeDegrees>
              <LongitudeDegrees>-1.16660828702151775360107421875</LongitudeDegrees>
            </Position>
            <AltitudeMeters>371.20001220703125</AltitudeMeters>
            <DistanceMeters>NAN</DistanceMeters>
          </Trackpoint>
          <Trackpoint>
            <Time>2020-05-25T06:30:53.000Z</Time>
            <Position>
              <LatitudeDegrees>38.21064024232327938079833984375</LatitudeDegrees>
              <LongitudeDegrees>-1.16657610051333904266357421875</LongitudeDegrees>
            </Position>
            <AltitudeMeters>370.600006103515625</AltitudeMeters>
            <DistanceMeters>NAN</DistanceMeters>
          </Trackpoint>
          <Trackpoint>
            <Time>2020-05-25T06:30:54.000Z</Time>
            <Position>
              <LatitudeDegrees>38.21054150350391864776611328125</LatitudeDegrees>
              <LongitudeDegrees>-1.16654290817677974700927734375</LongitudeDegrees>
            </Position>
            <AltitudeMeters>370</AltitudeMeters>
            <DistanceMeters>NAN</DistanceMeters>
          </Trackpoint>
          <Trackpoint>
            <Time>2020-05-25T06:30:55.000Z</Time>
            <Position>
              <LatitudeDegrees>38.21044594980776309967041015625</LatitudeDegrees>
              <LongitudeDegrees>-1.16651005111634731292724609375</LongitudeDegrees>
            </Position>
            <AltitudeMeters>369.399993896484375</AltitudeMeters>
            <DistanceMeters>NAN</DistanceMeters>
          </Trackpoint>
          <Trackpoint>
            <Time>2020-05-25T06:30:56.000Z</Time>
            <Position>
              <LatitudeDegrees>38.210355006158351898193359375</LatitudeDegrees>
              <LongitudeDegrees>-1.16647786460816860198974609375</LongitudeDegrees>
            </Position>
            <AltitudeMeters>369</AltitudeMeters>
            <DistanceMeters>NAN</DistanceMeters>
          </Trackpoint>
          <Trackpoint>
            <Time>2020-05-25T06:30:57.000Z</Time>
            <Position>
              <LatitudeDegrees>38.21026473306119441986083984375</LatitudeDegrees>
              <LongitudeDegrees>-1.16644584573805332183837890625</LongitudeDegrees>
            </Position>
            <AltitudeMeters>368.79998779296875</AltitudeMeters>
            <DistanceMeters>NAN</DistanceMeters>
          </Trackpoint>
          <Trackpoint>
            <Time>2020-05-25T06:30:58.000Z</Time>
            <Position>
              <LatitudeDegrees>38.2101769745349884033203125</LatitudeDegrees>
              <LongitudeDegrees>-1.16641047410666942596435546875</LongitudeDegrees>
            </Position>
            <AltitudeMeters>368.600006103515625</AltitudeMeters>
            <DistanceMeters>NAN</DistanceMeters>
          </Trackpoint>
          <Trackpoint>
            <Time>2020-05-25T06:30:59.000Z</Time>
            <Position>
              <LatitudeDegrees>38.21009315550327301025390625</LatitudeDegrees>
              <LongitudeDegrees>-1.16636990569531917572021484375</LongitudeDegrees>
            </Position>
            <AltitudeMeters>368.399993896484375</AltitudeMeters>
            <DistanceMeters>NAN</DistanceMeters>
          </Trackpoint>
          <Trackpoint>
            <Time>2020-05-25T06:31:00.000Z</Time>
            <Position>
              <LatitudeDegrees>38.2100105099380016326904296875</LatitudeDegrees>
              <LongitudeDegrees>-1.1663269065320491790771484375</LongitudeDegrees>
            </Position>
            <AltitudeMeters>368.20001220703125</AltitudeMeters>
            <DistanceMeters>NAN</DistanceMeters>
          </Trackpoint>
          <Trackpoint>
            <Time>2020-05-25T06:31:01.000Z</Time>
            <Position>
              <LatitudeDegrees>38.20992744527757167816162109375</LatitudeDegrees>
              <LongitudeDegrees>-1.16628407500684261322021484375</LongitudeDegrees>
            </Position>
            <AltitudeMeters>368</AltitudeMeters>
            <DistanceMeters>NAN</DistanceMeters>
          </Trackpoint>
          <Trackpoint>
            <Time>2020-05-25T06:31:02.000Z</Time>
            <Position>
              <LatitudeDegrees>38.20984446443617343902587890625</LatitudeDegrees>
              <LongitudeDegrees>-1.166238896548748016357421875</LongitudeDegrees>
            </Position>
            <AltitudeMeters>367.79998779296875</AltitudeMeters>
            <DistanceMeters>NAN</DistanceMeters>
          </Trackpoint>
          <Trackpoint>
            <Time>2020-05-25T06:31:03.000Z</Time>
            <Position>
              <LatitudeDegrees>38.209762237966060638427734375</LatitudeDegrees>
              <LongitudeDegrees>-1.1661877669394016265869140625</LongitudeDegrees>
            </Position>
            <AltitudeMeters>367.79998779296875</AltitudeMeters>
            <DistanceMeters>NAN</DistanceMeters>
          </Trackpoint>
          <Trackpoint>
            <Time>2020-05-25T06:31:04.000Z</Time>
            <Position>
              <LatitudeDegrees>38.2096805982291698455810546875</LatitudeDegrees>
              <LongitudeDegrees>-1.1661314405500888824462890625</LongitudeDegrees>
            </Position>
            <AltitudeMeters>367.600006103515625</AltitudeMeters>
            <DistanceMeters>NAN</DistanceMeters>
          </Trackpoint>
          <Trackpoint>
            <Time>2020-05-25T06:31:05.000Z</Time>
            <Position>
              <LatitudeDegrees>38.20959954522550106048583984375</LatitudeDegrees>
              <LongitudeDegrees>-1.1660734377801418304443359375</LongitudeDegrees>
            </Position>
            <AltitudeMeters>367.600006103515625</AltitudeMeters>
            <DistanceMeters>NAN</DistanceMeters>
          </Trackpoint>
          <Trackpoint>
            <Time>2020-05-25T06:31:06.000Z</Time>
            <Position>
              <LatitudeDegrees>38.20951790548861026763916015625</LatitudeDegrees>
              <LongitudeDegrees>-1.1660124175250530242919921875</LongitudeDegrees>
            </Position>
            <AltitudeMeters>367.600006103515625</AltitudeMeters>
            <DistanceMeters>NAN</DistanceMeters>
          </Trackpoint>
          <Trackpoint>
            <Time>2020-05-25T06:31:07.000Z</Time>
            <Position>
              <LatitudeDegrees>38.2094365172088146209716796875</LatitudeDegrees>
              <LongitudeDegrees>-1.16594410501420497894287109375</LongitudeDegrees>
            </Position>
            <AltitudeMeters>367.399993896484375</AltitudeMeters>
            <DistanceMeters>NAN</DistanceMeters>
          </Trackpoint>
          <Trackpoint>
            <Time>2020-05-25T06:31:08.000Z</Time>
            <Position>
              <LatitudeDegrees>38.2093547098338603973388671875</LatitudeDegrees>
              <LongitudeDegrees>-1.16586565040051937103271484375</LongitudeDegrees>
            </Position>
            <AltitudeMeters>367.399993896484375</AltitudeMeters>
            <DistanceMeters>NAN</DistanceMeters>
          </Trackpoint>
          <Trackpoint>
            <Time>2020-05-25T06:31:09.000Z</Time>
            <Position>
              <LatitudeDegrees>38.209274746477603912353515625</LatitudeDegrees>
              <LongitudeDegrees>-1.16577529348433017730712890625</LongitudeDegrees>
            </Position>
            <AltitudeMeters>367.399993896484375</AltitudeMeters>
            <DistanceMeters>NAN</DistanceMeters>
          </Trackpoint>
          <Trackpoint>
            <Time>2020-05-25T06:31:10.000Z</Time>
            <Position>
              <LatitudeDegrees>38.20920375175774097442626953125</LatitudeDegrees>
              <LongitudeDegrees>-1.16566859185695648193359375</LongitudeDegrees>
            </Position>
            <AltitudeMeters>367.20001220703125</AltitudeMeters>
            <DistanceMeters>NAN</DistanceMeters>
          </Trackpoint>
          <Trackpoint>
            <Time>2020-05-25T06:31:11.000Z</Time>
            <Position>
              <LatitudeDegrees>38.209143318235874176025390625</LatitudeDegrees>
              <LongitudeDegrees>-1.1655440367758274078369140625</LongitudeDegrees>
            </Position>
            <AltitudeMeters>367</AltitudeMeters>
            <DistanceMeters>NAN</DistanceMeters>
          </Trackpoint>
          <Trackpoint>
            <Time>2020-05-25T06:31:12.000Z</Time>
            <Position>
              <LatitudeDegrees>38.20909109897911548614501953125</LatitudeDegrees>
              <LongitudeDegrees>-1.16541001014411449432373046875</LongitudeDegrees>
            </Position>
            <AltitudeMeters>367</AltitudeMeters>
            <DistanceMeters>NAN</DistanceMeters>
          </Trackpoint>
          <Trackpoint>
            <Time>2020-05-25T06:31:13.000Z</Time>
            <Position>
              <LatitudeDegrees>38.209038041532039642333984375</LatitudeDegrees>
              <LongitudeDegrees>-1.16527522914111614227294921875</LongitudeDegrees>
            </Position>
            <AltitudeMeters>366.79998779296875</AltitudeMeters>
            <DistanceMeters>NAN</DistanceMeters>
          </Trackpoint>
          <Trackpoint>
            <Time>2020-05-25T06:31:14.000Z</Time>
            <Position>
              <LatitudeDegrees>38.20898012258112430572509765625</LatitudeDegrees>
              <LongitudeDegrees>-1.165138185024261474609375</LongitudeDegrees>
            </Position>
            <AltitudeMeters>366.399993896484375</AltitudeMeters>
            <DistanceMeters>NAN</DistanceMeters>
          </Trackpoint>
          <Trackpoint>
            <Time>2020-05-25T06:31:15.000Z</Time>
            <Position>
              <LatitudeDegrees>38.20891164243221282958984375</LatitudeDegrees>
              <LongitudeDegrees>-1.16501019336283206939697265625</LongitudeDegrees>
            </Position>
            <AltitudeMeters>366.20001220703125</AltitudeMeters>
            <DistanceMeters>NAN</DistanceMeters>
          </Trackpoint>
          <Trackpoint>
            <Time>2020-05-25T06:31:16.000Z</Time>
            <Position>
              <LatitudeDegrees>38.20882983505725860595703125</LatitudeDegrees>
              <LongitudeDegrees>-1.1648979596793651580810546875</LongitudeDegrees>
            </Position>
            <AltitudeMeters>365.399993896484375</AltitudeMeters>
            <DistanceMeters>NAN</DistanceMeters>
          </Trackpoint>
          <Trackpoint>
            <Time>2020-05-25T06:31:17.000Z</Time>
            <Position>
              <LatitudeDegrees>38.20873604156076908111572265625</LatitudeDegrees>
              <LongitudeDegrees>-1.16480500437319278717041015625</LongitudeDegrees>
            </Position>
            <AltitudeMeters>365</AltitudeMeters>
            <DistanceMeters>NAN</DistanceMeters>
          </Trackpoint>
          <Trackpoint>
            <Time>2020-05-25T06:31:18.000Z</Time>
            <Position>
              <LatitudeDegrees>38.20863260887563228607177734375</LatitudeDegrees>
              <LongitudeDegrees>-1.1647296510636806488037109375</LongitudeDegrees>
            </Position>
            <AltitudeMeters>364.20001220703125</AltitudeMeters>
            <DistanceMeters>NAN</DistanceMeters>
          </Trackpoint>
          <Trackpoint>
            <Time>2020-05-25T06:31:19.000Z</Time>
            <Position>
              <LatitudeDegrees>38.20852062664926052093505859375</LatitudeDegrees>
              <LongitudeDegrees>-1.164673157036304473876953125</LongitudeDegrees>
            </Position>
            <AltitudeMeters>362.79998779296875</AltitudeMeters>
            <DistanceMeters>NAN</DistanceMeters>
          </Trackpoint>
          <Trackpoint>
            <Time>2020-05-25T06:31:20.000Z</Time>
            <Position>
              <LatitudeDegrees>38.208401687443256378173828125</LatitudeDegrees>
              <LongitudeDegrees>-1.1646324209868907928466796875</LongitudeDegrees>
            </Position>
            <AltitudeMeters>361.600006103515625</AltitudeMeters>
            <DistanceMeters>NAN</DistanceMeters>
          </Trackpoint>
          <Trackpoint>
            <Time>2020-05-25T06:31:21.000Z</Time>
            <Position>
              <LatitudeDegrees>38.20827595889568328857421875</LatitudeDegrees>
              <LongitudeDegrees>-1.16461741738021373748779296875</LongitudeDegrees>
            </Position>
            <AltitudeMeters>360.399993896484375</AltitudeMeters>
            <DistanceMeters>NAN</DistanceMeters>
          </Trackpoint>
          <Trackpoint>
            <Time>2020-05-25T06:31:22.000Z</Time>
            <Position>
              <LatitudeDegrees>38.208150900900363922119140625</LatitudeDegrees>
              <LongitudeDegrees>-1.1646280623972415924072265625</LongitudeDegrees>
            </Position>
            <AltitudeMeters>359.79998779296875</AltitudeMeters>
            <DistanceMeters>NAN</DistanceMeters>
          </Trackpoint>
          <Trackpoint>
            <Time>2020-05-25T06:31:23.000Z</Time>
            <Position>
              <LatitudeDegrees>38.208026178181171417236328125</LatitudeDegrees>
              <LongitudeDegrees>-1.164651028811931610107421875</LongitudeDegrees>
            </Position>
            <AltitudeMeters>359.399993896484375</AltitudeMeters>
            <DistanceMeters>NAN</DistanceMeters>
          </Trackpoint>
          <Trackpoint>
            <Time>2020-05-25T06:31:24.000Z</Time>
            <Position>
              <LatitudeDegrees>38.20791159756481647491455078125</LatitudeDegrees>
              <LongitudeDegrees>-1.1646609194576740264892578125</LongitudeDegrees>
            </Position>
            <AltitudeMeters>358.600006103515625</AltitudeMeters>
            <DistanceMeters>NAN</DistanceMeters>
          </Trackpoint>
          <Trackpoint>
            <Time>2020-05-25T06:31:25.000Z</Time>
            <Position>
              <LatitudeDegrees>38.2078020460903644561767578125</LatitudeDegrees>
              <LongitudeDegrees>-1.1646465025842189788818359375</LongitudeDegrees>
            </Position>
            <AltitudeMeters>358</AltitudeMeters>
            <DistanceMeters>NAN</DistanceMeters>
          </Trackpoint>
          <Trackpoint>
            <Time>2020-05-25T06:31:26.000Z</Time>
            <Position>
              <LatitudeDegrees>38.20769651792943477630615234375</LatitudeDegrees>
              <LongitudeDegrees>-1.1646019108593463897705078125</LongitudeDegrees>
            </Position>
            <AltitudeMeters>357.399993896484375</AltitudeMeters>
            <DistanceMeters>NAN</DistanceMeters>
          </Trackpoint>
          <Trackpoint>
            <Time>2020-05-25T06:31:27.000Z</Time>
            <Position>
              <LatitudeDegrees>38.20759912021458148956298828125</LatitudeDegrees>
              <LongitudeDegrees>-1.16454147733747959136962890625</LongitudeDegrees>
            </Position>
            <AltitudeMeters>356.20001220703125</AltitudeMeters>
            <DistanceMeters>NAN</DistanceMeters>
          </Trackpoint>
          <Trackpoint>
            <Time>2020-05-25T06:31:28.000Z</Time>
            <Position>
              <LatitudeDegrees>38.20750423707067966461181640625</LatitudeDegrees>
              <LongitudeDegrees>-1.16447056643664836883544921875</LongitudeDegrees>
            </Position>
            <AltitudeMeters>355.600006103515625</AltitudeMeters>
            <DistanceMeters>NAN</DistanceMeters>
          </Trackpoint>
          <Trackpoint>
            <Time>2020-05-25T06:31:29.000Z</Time>
            <Position>
              <LatitudeDegrees>38.20740801282227039337158203125</LatitudeDegrees>
              <LongitudeDegrees>-1.1643977276980876922607421875</LongitudeDegrees>
            </Position>
            <AltitudeMeters>354.600006103515625</AltitudeMeters>
            <DistanceMeters>NAN</DistanceMeters>
          </Trackpoint>
          <Trackpoint>
            <Time>2020-05-25T06:31:30.000Z</Time>
            <Position>
              <LatitudeDegrees>38.2073158957064151763916015625</LatitudeDegrees>
              <LongitudeDegrees>-1.16432069800794124603271484375</LongitudeDegrees>
            </Position>
            <AltitudeMeters>353.79998779296875</AltitudeMeters>
            <DistanceMeters>NAN</DistanceMeters>
          </Trackpoint>
          <Trackpoint>
            <Time>2020-05-25T06:31:31.000Z</Time>
            <Position>
              <LatitudeDegrees>38.2072310708463191986083984375</LatitudeDegrees>
              <LongitudeDegrees>-1.16424224339425563812255859375</LongitudeDegrees>
            </Position>
            <AltitudeMeters>353.399993896484375</AltitudeMeters>
            <DistanceMeters>NAN</DistanceMeters>
          </Trackpoint>
          <Trackpoint>
            <Time>2020-05-25T06:31:32.000Z</Time>
            <Position>
              <LatitudeDegrees>38.20715437643229961395263671875</LatitudeDegrees>
              <LongitudeDegrees>-1.16416814737021923065185546875</LongitudeDegrees>
            </Position>
            <AltitudeMeters>352.79998779296875</AltitudeMeters>
            <DistanceMeters>NAN</DistanceMeters>
          </Trackpoint>
          <Trackpoint>
            <Time>2020-05-25T06:31:33.000Z</Time>
            <Position>
              <LatitudeDegrees>38.2070758379995822906494140625</LatitudeDegrees>
              <LongitudeDegrees>-1.16410327143967151641845703125</LongitudeDegrees>
            </Position>
            <AltitudeMeters>352.600006103515625</AltitudeMeters>
            <DistanceMeters>NAN</DistanceMeters>
          </Trackpoint>
          <Trackpoint>
            <Time>2020-05-25T06:31:34.000Z</Time>
            <Position>
              <LatitudeDegrees>38.2069863192737102508544921875</LatitudeDegrees>
              <LongitudeDegrees>-1.16405884735286235809326171875</LongitudeDegrees>
            </Position>
            <AltitudeMeters>352.399993896484375</AltitudeMeters>
            <DistanceMeters>NAN</DistanceMeters>
          </Trackpoint>
          <Trackpoint>
            <Time>2020-05-25T06:31:35.000Z</Time>
            <Position>
              <LatitudeDegrees>38.20688464678823947906494140625</LatitudeDegrees>
              <LongitudeDegrees>-1.16404141299426555633544921875</LongitudeDegrees>
            </Position>
            <AltitudeMeters>352.20001220703125</AltitudeMeters>
            <DistanceMeters>NAN</DistanceMeters>
          </Trackpoint>
          <Trackpoint>
            <Time>2020-05-25T06:31:36.000Z</Time>
            <Position>
              <LatitudeDegrees>38.20678607560694217681884765625</LatitudeDegrees>
              <LongitudeDegrees>-1.16405834443867206573486328125</LongitudeDegrees>
            </Position>
            <AltitudeMeters>351.600006103515625</AltitudeMeters>
            <DistanceMeters>NAN</DistanceMeters>
          </Trackpoint>
          <Trackpoint>
            <Time>2020-05-25T06:31:37.000Z</Time>
            <Position>
              <LatitudeDegrees>38.20670007728040218353271484375</LatitudeDegrees>
              <LongitudeDegrees>-1.16409036330878734588623046875</LongitudeDegrees>
            </Position>
            <AltitudeMeters>350.600006103515625</AltitudeMeters>
            <DistanceMeters>NAN</DistanceMeters>
          </Trackpoint>
          <Trackpoint>
            <Time>2020-05-25T06:31:38.000Z</Time>
            <Position>
              <LatitudeDegrees>38.20662011392414569854736328125</LatitudeDegrees>
              <LongitudeDegrees>-1.16411584429442882537841796875</LongitudeDegrees>
            </Position>
            <AltitudeMeters>350.20001220703125</AltitudeMeters>
            <DistanceMeters>NAN</DistanceMeters>
          </Trackpoint>
          <Trackpoint>
            <Time>2020-05-25T06:31:39.000Z</Time>
            <Position>
              <LatitudeDegrees>38.20653914473950862884521484375</LatitudeDegrees>
              <LongitudeDegrees>-1.164124645292758941650390625</LongitudeDegrees>
            </Position>
            <AltitudeMeters>349.600006103515625</AltitudeMeters>
            <DistanceMeters>NAN</DistanceMeters>
          </Trackpoint>
          <Trackpoint>
            <Time>2020-05-25T06:31:40.000Z</Time>
            <Position>
              <LatitudeDegrees>38.20646136067807674407958984375</LatitudeDegrees>
              <LongitudeDegrees>-1.16409924812614917755126953125</LongitudeDegrees>
            </Position>
            <AltitudeMeters>349.20001220703125</AltitudeMeters>
            <DistanceMeters>NAN</DistanceMeters>
          </Trackpoint>
          <Trackpoint>
            <Time>2020-05-25T06:31:41.000Z</Time>
            <Position>
              <LatitudeDegrees>38.2063798047602176666259765625</LatitudeDegrees>
              <LongitudeDegrees>-1.16405415348708629608154296875</LongitudeDegrees>
            </Position>
            <AltitudeMeters>348.79998779296875</AltitudeMeters>
            <DistanceMeters>NAN</DistanceMeters>
          </Trackpoint>
          <Trackpoint>
            <Time>2020-05-25T06:31:42.000Z</Time>
            <Position>
              <LatitudeDegrees>38.20629590190947055816650390625</LatitudeDegrees>
              <LongitudeDegrees>-1.16399749182164669036865234375</LongitudeDegrees>
            </Position>
            <AltitudeMeters>348</AltitudeMeters>
            <DistanceMeters>NAN</DistanceMeters>
          </Trackpoint>
          <Trackpoint>
            <Time>2020-05-25T06:31:43.000Z</Time>
            <Position>
              <LatitudeDegrees>38.20621225051581859588623046875</LatitudeDegrees>
              <LongitudeDegrees>-1.1639340408146381378173828125</LongitudeDegrees>
            </Position>
            <AltitudeMeters>347.600006103515625</AltitudeMeters>
            <DistanceMeters>NAN</DistanceMeters>
          </Trackpoint>
          <Trackpoint>
            <Time>2020-05-25T06:31:44.000Z</Time>
            <Position>
              <LatitudeDegrees>38.20612926967442035675048828125</LatitudeDegrees>
              <LongitudeDegrees>-1.1638676561415195465087890625</LongitudeDegrees>
            </Position>
            <AltitudeMeters>346.79998779296875</AltitudeMeters>
            <DistanceMeters>NAN</DistanceMeters>
          </Trackpoint>
          <Trackpoint>
            <Time>2020-05-25T06:31:45.000Z</Time>
            <Position>
              <LatitudeDegrees>38.20603631436824798583984375</LatitudeDegrees>
              <LongitudeDegrees>-1.1637955717742443084716796875</LongitudeDegrees>
            </Position>
            <AltitudeMeters>346</AltitudeMeters>
            <DistanceMeters>NAN</DistanceMeters>
          </Trackpoint>
          <Trackpoint>
            <Time>2020-05-25T06:31:46.000Z</Time>
            <Position>
              <LatitudeDegrees>38.2059385813772678375244140625</LatitudeDegrees>
              <LongitudeDegrees>-1.163721978664398193359375</LongitudeDegrees>
            </Position>
            <AltitudeMeters>345</AltitudeMeters>
            <DistanceMeters>NAN</DistanceMeters>
          </Trackpoint>
          <Trackpoint>
            <Time>2020-05-25T06:31:47.000Z</Time>
            <Position>
              <LatitudeDegrees>38.20583690889179706573486328125</LatitudeDegrees>
              <LongitudeDegrees>-1.1636497266590595245361328125</LongitudeDegrees>
            </Position>
            <AltitudeMeters>343.399993896484375</AltitudeMeters>
            <DistanceMeters>NAN</DistanceMeters>
          </Trackpoint>
          <Trackpoint>
            <Time>2020-05-25T06:31:48.000Z</Time>
            <Position>
              <LatitudeDegrees>38.20573322474956512451171875</LatitudeDegrees>
              <LongitudeDegrees>-1.16357789374887943267822265625</LongitudeDegrees>
            </Position>
            <AltitudeMeters>342.79998779296875</AltitudeMeters>
            <DistanceMeters>NAN</DistanceMeters>
          </Trackpoint>
          <Trackpoint>
            <Time>2020-05-25T06:31:49.000Z</Time>
            <Position>
              <LatitudeDegrees>38.2056254334747791290283203125</LatitudeDegrees>
              <LongitudeDegrees>-1.16350932978093624114990234375</LongitudeDegrees>
            </Position>
            <AltitudeMeters>342</AltitudeMeters>
            <DistanceMeters>NAN</DistanceMeters>
          </Trackpoint>
          <Trackpoint>
            <Time>2020-05-25T06:31:50.000Z</Time>
            <Position>
              <LatitudeDegrees>38.205512277781963348388671875</LatitudeDegrees>
              <LongitudeDegrees>-1.16344696842133998870849609375</LongitudeDegrees>
            </Position>
            <AltitudeMeters>341</AltitudeMeters>
            <DistanceMeters>NAN</DistanceMeters>
          </Trackpoint>
          <Trackpoint>
            <Time>2020-05-25T06:31:51.000Z</Time>
            <Position>
              <LatitudeDegrees>38.20539467968046665191650390625</LatitudeDegrees>
              <LongitudeDegrees>-1.163395754992961883544921875</LongitudeDegrees>
            </Position>
            <AltitudeMeters>339.79998779296875</AltitudeMeters>
            <DistanceMeters>NAN</DistanceMeters>
          </Trackpoint>
          <Trackpoint>
            <Time>2020-05-25T06:31:52.000Z</Time>
            <Position>
              <LatitudeDegrees>38.20528068579733371734619140625</LatitudeDegrees>
              <LongitudeDegrees>-1.163374297320842742919921875</LongitudeDegrees>
            </Position>
            <AltitudeMeters>339</AltitudeMeters>
            <DistanceMeters>NAN</DistanceMeters>
          </Trackpoint>
          <Trackpoint>
            <Time>2020-05-25T06:31:53.000Z</Time>
            <Position>
              <LatitudeDegrees>38.20516719482839107513427734375</LatitudeDegrees>
              <LongitudeDegrees>-1.1633804999291896820068359375</LongitudeDegrees>
            </Position>
            <AltitudeMeters>337.79998779296875</AltitudeMeters>
            <DistanceMeters>NAN</DistanceMeters>
          </Trackpoint>
          <Trackpoint>
            <Time>2020-05-25T06:31:54.000Z</Time>
            <Position>
              <LatitudeDegrees>38.20506443269550800323486328125</LatitudeDegrees>
              <LongitudeDegrees>-1.16341687738895416259765625</LongitudeDegrees>
            </Position>
            <AltitudeMeters>336.600006103515625</AltitudeMeters>
            <DistanceMeters>NAN</DistanceMeters>
          </Trackpoint>
          <Trackpoint>
            <Time>2020-05-25T06:31:55.000Z</Time>
            <Position>
              <LatitudeDegrees>38.2049753330647945404052734375</LatitudeDegrees>
              <LongitudeDegrees>-1.1634931527078151702880859375</LongitudeDegrees>
            </Position>
            <AltitudeMeters>335.399993896484375</AltitudeMeters>
            <DistanceMeters>NAN</DistanceMeters>
          </Trackpoint>
          <Trackpoint>
            <Time>2020-05-25T06:31:56.000Z</Time>
            <Position>
              <LatitudeDegrees>38.2049069367349147796630859375</LatitudeDegrees>
              <LongitudeDegrees>-1.16360974498093128204345703125</LongitudeDegrees>
            </Position>
            <AltitudeMeters>334.399993896484375</AltitudeMeters>
            <DistanceMeters>NAN</DistanceMeters>
          </Trackpoint>
          <Trackpoint>
            <Time>2020-05-25T06:31:57.000Z</Time>
            <Position>
              <LatitudeDegrees>38.20484952069818973541259765625</LatitudeDegrees>
              <LongitudeDegrees>-1.16373337805271148681640625</LongitudeDegrees>
            </Position>
            <AltitudeMeters>333.79998779296875</AltitudeMeters>
            <DistanceMeters>NAN</DistanceMeters>
          </Trackpoint>
          <Trackpoint>
            <Time>2020-05-25T06:31:58.000Z</Time>
            <Position>
              <LatitudeDegrees>38.20478313602507114410400390625</LatitudeDegrees>
              <LongitudeDegrees>-1.16385147906839847564697265625</LongitudeDegrees>
            </Position>
            <AltitudeMeters>332.600006103515625</AltitudeMeters>
            <DistanceMeters>NAN</DistanceMeters>
          </Trackpoint>
          <Trackpoint>
            <Time>2020-05-25T06:31:59.000Z</Time>
            <Position>
              <LatitudeDegrees>38.204696215689182281494140625</LatitudeDegrees>
              <LongitudeDegrees>-1.1639464460313320159912109375</LongitudeDegrees>
            </Position>
            <AltitudeMeters>331.79998779296875</AltitudeMeters>
            <DistanceMeters>NAN</DistanceMeters>
          </Trackpoint>
          <Trackpoint>
            <Time>2020-05-25T06:32:00.000Z</Time>
            <Position>
              <LatitudeDegrees>38.20459672249853610992431640625</LatitudeDegrees>
              <LongitudeDegrees>-1.16402565501630306243896484375</LongitudeDegrees>
            </Position>
            <AltitudeMeters>331</AltitudeMeters>
            <DistanceMeters>NAN</DistanceMeters>
          </Trackpoint>
          <Trackpoint>
            <Time>2020-05-25T06:32:01.000Z</Time>
            <Position>
              <LatitudeDegrees>38.20448406971991062164306640625</LatitudeDegrees>
              <LongitudeDegrees>-1.16407678462564945220947265625</LongitudeDegrees>
            </Position>
            <AltitudeMeters>330.399993896484375</AltitudeMeters>
            <DistanceMeters>NAN</DistanceMeters>
          </Trackpoint>
          <Trackpoint>
            <Time>2020-05-25T06:32:02.000Z</Time>
            <Position>
              <LatitudeDegrees>38.20436186157166957855224609375</LatitudeDegrees>
              <LongitudeDegrees>-1.1641000024974346160888671875</LongitudeDegrees>
            </Position>
            <AltitudeMeters>329.79998779296875</AltitudeMeters>
            <DistanceMeters>NAN</DistanceMeters>
          </Trackpoint>
          <Trackpoint>
            <Time>2020-05-25T06:32:03.000Z</Time>
            <Position>
              <LatitudeDegrees>38.20423563010990619659423828125</LatitudeDegrees>
              <LongitudeDegrees>-1.16410754621028900146484375</LongitudeDegrees>
            </Position>
            <AltitudeMeters>329</AltitudeMeters>
            <DistanceMeters>NAN</DistanceMeters>
          </Trackpoint>
          <Trackpoint>
            <Time>2020-05-25T06:32:04.000Z</Time>
            <Position>
              <LatitudeDegrees>38.20410621352493762969970703125</LatitudeDegrees>
              <LongitudeDegrees>-1.16410058923065662384033203125</LongitudeDegrees>
            </Position>
            <AltitudeMeters>328</AltitudeMeters>
            <DistanceMeters>NAN</DistanceMeters>
          </Trackpoint>
          <Trackpoint>
            <Time>2020-05-25T06:32:05.000Z</Time>
            <Position>
              <LatitudeDegrees>38.20397503674030303955078125</LatitudeDegrees>
              <LongitudeDegrees>-1.16408131085336208343505859375</LongitudeDegrees>
            </Position>
            <AltitudeMeters>327.20001220703125</AltitudeMeters>
            <DistanceMeters>NAN</DistanceMeters>
          </Trackpoint>
          <Trackpoint>
            <Time>2020-05-25T06:32:06.000Z</Time>
            <Position>
              <LatitudeDegrees>38.20384251885116100311279296875</LatitudeDegrees>
              <LongitudeDegrees>-1.16404208354651927947998046875</LongitudeDegrees>
            </Position>
            <AltitudeMeters>326.399993896484375</AltitudeMeters>
            <DistanceMeters>NAN</DistanceMeters>
          </Trackpoint>
          <Trackpoint>
            <Time>2020-05-25T06:32:07.000Z</Time>
            <Position>
              <LatitudeDegrees>38.2037110067903995513916015625</LatitudeDegrees>
              <LongitudeDegrees>-1.16397209465503692626953125</LongitudeDegrees>
            </Position>
            <AltitudeMeters>325.600006103515625</AltitudeMeters>
            <DistanceMeters>NAN</DistanceMeters>
          </Trackpoint>
          <Trackpoint>
            <Time>2020-05-25T06:32:08.000Z</Time>
            <Position>
              <LatitudeDegrees>38.20358611643314361572265625</LatitudeDegrees>
              <LongitudeDegrees>-1.16388349793851375579833984375</LongitudeDegrees>
            </Position>
            <AltitudeMeters>324.600006103515625</AltitudeMeters>
            <DistanceMeters>NAN</DistanceMeters>
          </Trackpoint>
          <Trackpoint>
            <Time>2020-05-25T06:32:09.000Z</Time>
            <Position>
              <LatitudeDegrees>38.2034649141132831573486328125</LatitudeDegrees>
              <LongitudeDegrees>-1.1637794785201549530029296875</LongitudeDegrees>
            </Position>
            <AltitudeMeters>323.600006103515625</AltitudeMeters>
            <DistanceMeters>NAN</DistanceMeters>
          </Trackpoint>
          <Trackpoint>
            <Time>2020-05-25T06:32:10.000Z</Time>
            <Position>
              <LatitudeDegrees>38.2033525966107845306396484375</LatitudeDegrees>
              <LongitudeDegrees>-1.16365827620029449462890625</LongitudeDegrees>
            </Position>
            <AltitudeMeters>322.79998779296875</AltitudeMeters>
            <DistanceMeters>NAN</DistanceMeters>
          </Trackpoint>
          <Trackpoint>
            <Time>2020-05-25T06:32:11.000Z</Time>
            <Position>
              <LatitudeDegrees>38.203251175582408905029296875</LatitudeDegrees>
              <LongitudeDegrees>-1.1635209806263446807861328125</LongitudeDegrees>
            </Position>
            <AltitudeMeters>321.600006103515625</AltitudeMeters>
            <DistanceMeters>NAN</DistanceMeters>
          </Trackpoint>
          <Trackpoint>
            <Time>2020-05-25T06:32:12.000Z</Time>
            <Position>
              <LatitudeDegrees>38.203168697655200958251953125</LatitudeDegrees>
              <LongitudeDegrees>-1.16336666978895664215087890625</LongitudeDegrees>
            </Position>
            <AltitudeMeters>320.600006103515625</AltitudeMeters>
            <DistanceMeters>NAN</DistanceMeters>
          </Trackpoint>
          <Trackpoint>
            <Time>2020-05-25T06:32:13.000Z</Time>
            <Position>
              <LatitudeDegrees>38.2030917517840862274169921875</LatitudeDegrees>
              <LongitudeDegrees>-1.1632048152387142181396484375</LongitudeDegrees>
            </Position>
            <AltitudeMeters>319.79998779296875</AltitudeMeters>
            <DistanceMeters>NAN</DistanceMeters>
          </Trackpoint>
          <Trackpoint>
            <Time>2020-05-25T06:32:14.000Z</Time>
            <Position>
              <LatitudeDegrees>38.203016817569732666015625</LatitudeDegrees>
              <LongitudeDegrees>-1.16304296068847179412841796875</LongitudeDegrees>
            </Position>
            <AltitudeMeters>319.20001220703125</AltitudeMeters>
            <DistanceMeters>NAN</DistanceMeters>
          </Trackpoint>
          <Trackpoint>
            <Time>2020-05-25T06:32:15.000Z</Time>
            <Position>
              <LatitudeDegrees>38.2029415480792522430419921875</LatitudeDegrees>
              <LongitudeDegrees>-1.162880770862102508544921875</LongitudeDegrees>
            </Position>
            <AltitudeMeters>317</AltitudeMeters>
            <DistanceMeters>NAN</DistanceMeters>
          </Trackpoint>
          <Trackpoint>
            <Time>2020-05-25T06:32:16.000Z</Time>
            <Position>
              <LatitudeDegrees>38.20286535657942295074462890625</LatitudeDegrees>
              <LongitudeDegrees>-1.16271908394992351531982421875</LongitudeDegrees>
            </Position>
            <AltitudeMeters>316.20001220703125</AltitudeMeters>
            <DistanceMeters>NAN</DistanceMeters>
          </Trackpoint>
          <Trackpoint>
            <Time>2020-05-25T06:32:17.000Z</Time>
            <Position>
              <LatitudeDegrees>38.20278740487992763519287109375</LatitudeDegrees>
              <LongitudeDegrees>-1.162559576332569122314453125</LongitudeDegrees>
            </Position>
            <AltitudeMeters>315</AltitudeMeters>
            <DistanceMeters>NAN</DistanceMeters>
          </Trackpoint>
          <Trackpoint>
            <Time>2020-05-25T06:32:18.000Z</Time>
            <Position>
              <LatitudeDegrees>38.20270777679979801177978515625</LatitudeDegrees>
              <LongitudeDegrees>-1.1623994819819927215576171875</LongitudeDegrees>
            </Position>
            <AltitudeMeters>313.79998779296875</AltitudeMeters>
            <DistanceMeters>NAN</DistanceMeters>
          </Trackpoint>
          <Trackpoint>
            <Time>2020-05-25T06:32:19.000Z</Time>
            <Position>
              <LatitudeDegrees>38.2026247121393680572509765625</LatitudeDegrees>
              <LongitudeDegrees>-1.16224148310720920562744140625</LongitudeDegrees>
            </Position>
            <AltitudeMeters>312.600006103515625</AltitudeMeters>
            <DistanceMeters>NAN</DistanceMeters>
          </Trackpoint>
          <Trackpoint>
            <Time>2020-05-25T06:32:20.000Z</Time>
            <Position>
              <LatitudeDegrees>38.202533014118671417236328125</LatitudeDegrees>
              <LongitudeDegrees>-1.1620871722698211669921875</LongitudeDegrees>
            </Position>
            <AltitudeMeters>311.399993896484375</AltitudeMeters>
            <DistanceMeters>NAN</DistanceMeters>
          </Trackpoint>
          <Trackpoint>
            <Time>2020-05-25T06:32:21.000Z</Time>
            <Position>
              <LatitudeDegrees>38.20242865942418575286865234375</LatitudeDegrees>
              <LongitudeDegrees>-1.16194895468652248382568359375</LongitudeDegrees>
            </Position>
            <AltitudeMeters>309.79998779296875</AltitudeMeters>
            <DistanceMeters>NAN</DistanceMeters>
          </Trackpoint>
          <Trackpoint>
            <Time>2020-05-25T06:32:22.000Z</Time>
            <Position>
              <LatitudeDegrees>38.2023092173039913177490234375</LatitudeDegrees>
              <LongitudeDegrees>-1.1618281714618206024169921875</LongitudeDegrees>
            </Position>
            <AltitudeMeters>308.600006103515625</AltitudeMeters>
            <DistanceMeters>NAN</DistanceMeters>
          </Trackpoint>
          <Trackpoint>
            <Time>2020-05-25T06:32:23.000Z</Time>
            <Position>
              <LatitudeDegrees>38.2021767832338809967041015625</LatitudeDegrees>
              <LongitudeDegrees>-1.1617329530417919158935546875</LongitudeDegrees>
            </Position>
            <AltitudeMeters>307.600006103515625</AltitudeMeters>
            <DistanceMeters>NAN</DistanceMeters>
          </Trackpoint>
          <Trackpoint>
            <Time>2020-05-25T06:32:24.000Z</Time>
            <Position>
              <LatitudeDegrees>38.20203705690801143646240234375</LatitudeDegrees>
              <LongitudeDegrees>-1.161677129566669464111328125</LongitudeDegrees>
            </Position>
            <AltitudeMeters>307.20001220703125</AltitudeMeters>
            <DistanceMeters>NAN</DistanceMeters>
          </Trackpoint>
          <Trackpoint>
            <Time>2020-05-25T06:32:25.000Z</Time>
            <Position>
              <LatitudeDegrees>38.20188802666962146759033203125</LatitudeDegrees>
              <LongitudeDegrees>-1.161637566983699798583984375</LongitudeDegrees>
            </Position>
            <AltitudeMeters>306</AltitudeMeters>
            <DistanceMeters>NAN</DistanceMeters>
          </Trackpoint>
          <Trackpoint>
            <Time>2020-05-25T06:32:26.000Z</Time>
            <Position>
              <LatitudeDegrees>38.2017318718135356903076171875</LatitudeDegrees>
              <LongitudeDegrees>-1.16161216981709003448486328125</LongitudeDegrees>
            </Position>
            <AltitudeMeters>304.79998779296875</AltitudeMeters>
            <DistanceMeters>NAN</DistanceMeters>
          </Trackpoint>
          <Trackpoint>
            <Time>2020-05-25T06:32:27.000Z</Time>
            <Position>
              <LatitudeDegrees>38.20157269947230815887451171875</LatitudeDegrees>
              <LongitudeDegrees>-1.1615978367626667022705078125</LongitudeDegrees>
            </Position>
            <AltitudeMeters>303.600006103515625</AltitudeMeters>
            <DistanceMeters>NAN</DistanceMeters>
          </Trackpoint>
          <Trackpoint>
            <Time>2020-05-25T06:32:28.000Z</Time>
            <Position>
              <LatitudeDegrees>38.20141210220754146575927734375</LatitudeDegrees>
              <LongitudeDegrees>-1.1615901254117488861083984375</LongitudeDegrees>
            </Position>
            <AltitudeMeters>302.399993896484375</AltitudeMeters>
            <DistanceMeters>NAN</DistanceMeters>
          </Trackpoint>
          <Trackpoint>
            <Time>2020-05-25T06:32:29.000Z</Time>
            <Position>
              <LatitudeDegrees>38.2012487389147281646728515625</LatitudeDegrees>
              <LongitudeDegrees>-1.1615840904414653778076171875</LongitudeDegrees>
            </Position>
            <AltitudeMeters>301.20001220703125</AltitudeMeters>
            <DistanceMeters>NAN</DistanceMeters>
          </Trackpoint>
          <Trackpoint>
            <Time>2020-05-25T06:32:30.000Z</Time>
            <Position>
              <LatitudeDegrees>38.20108353160321712493896484375</LatitudeDegrees>
              <LongitudeDegrees>-1.16157646290957927703857421875</LongitudeDegrees>
            </Position>
            <AltitudeMeters>299.79998779296875</AltitudeMeters>
            <DistanceMeters>NAN</DistanceMeters>
          </Trackpoint>
          <Trackpoint>
            <Time>2020-05-25T06:32:31.000Z</Time>
            <Position>
              <LatitudeDegrees>38.200919330120086669921875</LatitudeDegrees>
              <LongitudeDegrees>-1.16156741045415401458740234375</LongitudeDegrees>
            </Position>
            <AltitudeMeters>298.399993896484375</AltitudeMeters>
            <DistanceMeters>NAN</DistanceMeters>
          </Trackpoint>
          <Trackpoint>
            <Time>2020-05-25T06:32:32.000Z</Time>
            <Position>
              <LatitudeDegrees>38.200754709541797637939453125</LatitudeDegrees>
              <LongitudeDegrees>-1.1615579389035701751708984375</LongitudeDegrees>
            </Position>
            <AltitudeMeters>297.399993896484375</AltitudeMeters>
            <DistanceMeters>NAN</DistanceMeters>
          </Trackpoint>
          <Trackpoint>
            <Time>2020-05-25T06:32:33.000Z</Time>
            <Position>
              <LatitudeDegrees>38.200589753687381744384765625</LatitudeDegrees>
              <LongitudeDegrees>-1.16154829971492290496826171875</LongitudeDegrees>
            </Position>
            <AltitudeMeters>296.399993896484375</AltitudeMeters>
            <DistanceMeters>NAN</DistanceMeters>
          </Trackpoint>
          <Trackpoint>
            <Time>2020-05-25T06:32:34.000Z</Time>
            <Position>
              <LatitudeDegrees>38.2004263065755367279052734375</LatitudeDegrees>
              <LongitudeDegrees>-1.1615334637463092803955078125</LongitudeDegrees>
            </Position>
            <AltitudeMeters>295.20001220703125</AltitudeMeters>
            <DistanceMeters>NAN</DistanceMeters>
          </Trackpoint>
          <Trackpoint>
            <Time>2020-05-25T06:32:35.000Z</Time>
            <Position>
              <LatitudeDegrees>38.20026378147304058074951171875</LatitudeDegrees>
              <LongitudeDegrees>-1.1615104973316192626953125</LongitudeDegrees>
            </Position>
            <AltitudeMeters>294</AltitudeMeters>
            <DistanceMeters>NAN</DistanceMeters>
          </Trackpoint>
          <Trackpoint>
            <Time>2020-05-25T06:32:36.000Z</Time>
            <Position>
              <LatitudeDegrees>38.20010469295084476470947265625</LatitudeDegrees>
              <LongitudeDegrees>-1.16147755645215511322021484375</LongitudeDegrees>
            </Position>
            <AltitudeMeters>293</AltitudeMeters>
            <DistanceMeters>NAN</DistanceMeters>
          </Trackpoint>
          <Trackpoint>
            <Time>2020-05-25T06:32:37.000Z</Time>
            <Position>
              <LatitudeDegrees>38.19994811899960041046142578125</LatitudeDegrees>
              <LongitudeDegrees>-1.16143095307052135467529296875</LongitudeDegrees>
            </Position>
            <AltitudeMeters>292.20001220703125</AltitudeMeters>
            <DistanceMeters>NAN</DistanceMeters>
          </Trackpoint>
          <Trackpoint>
            <Time>2020-05-25T06:32:38.000Z</Time>
            <Position>
              <LatitudeDegrees>38.19979607127606868743896484375</LatitudeDegrees>
              <LongitudeDegrees>-1.161370687186717987060546875</LongitudeDegrees>
            </Position>
            <AltitudeMeters>291</AltitudeMeters>
            <DistanceMeters>NAN</DistanceMeters>
          </Trackpoint>
          <Trackpoint>
            <Time>2020-05-25T06:32:39.000Z</Time>
            <Position>
              <LatitudeDegrees>38.1996484659612178802490234375</LatitudeDegrees>
              <LongitudeDegrees>-1.16129650734364986419677734375</LongitudeDegrees>
            </Position>
            <AltitudeMeters>289.399993896484375</AltitudeMeters>
            <DistanceMeters>NAN</DistanceMeters>
          </Trackpoint>
          <Trackpoint>
            <Time>2020-05-25T06:32:40.000Z</Time>
            <Position>
              <LatitudeDegrees>38.1995053030550479888916015625</LatitudeDegrees>
              <LongitudeDegrees>-1.16120832972228527069091796875</LongitudeDegrees>
            </Position>
            <AltitudeMeters>288.399993896484375</AltitudeMeters>
            <DistanceMeters>NAN</DistanceMeters>
          </Trackpoint>
          <Trackpoint>
            <Time>2020-05-25T06:32:41.000Z</Time>
            <Position>
              <LatitudeDegrees>38.1993685103952884674072265625</LatitudeDegrees>
              <LongitudeDegrees>-1.1611083336174488067626953125</LongitudeDegrees>
            </Position>
            <AltitudeMeters>287.600006103515625</AltitudeMeters>
            <DistanceMeters>NAN</DistanceMeters>
          </Trackpoint>
          <Trackpoint>
            <Time>2020-05-25T06:32:42.000Z</Time>
            <Position>
              <LatitudeDegrees>38.1992389261722564697265625</LatitudeDegrees>
              <LongitudeDegrees>-1.16099626757204532623291015625</LongitudeDegrees>
            </Position>
            <AltitudeMeters>286.79998779296875</AltitudeMeters>
            <DistanceMeters>NAN</DistanceMeters>
          </Trackpoint>
          <Trackpoint>
            <Time>2020-05-25T06:32:43.000Z</Time>
            <Position>
              <LatitudeDegrees>38.19911730475723743438720703125</LatitudeDegrees>
              <LongitudeDegrees>-1.160874478518962860107421875</LongitudeDegrees>
            </Position>
            <AltitudeMeters>284.79998779296875</AltitudeMeters>
            <DistanceMeters>NAN</DistanceMeters>
          </Trackpoint>
          <Trackpoint>
            <Time>2020-05-25T06:32:44.000Z</Time>
            <Position>
              <LatitudeDegrees>38.19900549016892910003662109375</LatitudeDegrees>
              <LongitudeDegrees>-1.16074330173432826995849609375</LongitudeDegrees>
            </Position>
            <AltitudeMeters>283.79998779296875</AltitudeMeters>
            <DistanceMeters>NAN</DistanceMeters>
          </Trackpoint>
          <Trackpoint>
            <Time>2020-05-25T06:32:45.000Z</Time>
            <Position>
              <LatitudeDegrees>38.198901303112506866455078125</LatitudeDegrees>
              <LongitudeDegrees>-1.16060567088425159454345703125</LongitudeDegrees>
            </Position>
            <AltitudeMeters>283</AltitudeMeters>
            <DistanceMeters>NAN</DistanceMeters>
          </Trackpoint>
          <Trackpoint>
            <Time>2020-05-25T06:32:46.000Z</Time>
            <Position>
              <LatitudeDegrees>38.19880113936960697174072265625</LatitudeDegrees>
              <LongitudeDegrees>-1.16046066395938396453857421875</LongitudeDegrees>
            </Position>
            <AltitudeMeters>282.20001220703125</AltitudeMeters>
            <DistanceMeters>NAN</DistanceMeters>
          </Trackpoint>
          <Trackpoint>
            <Time>2020-05-25T06:32:47.000Z</Time>
            <Position>
              <LatitudeDegrees>38.19870323874056339263916015625</LatitudeDegrees>
              <LongitudeDegrees>-1.16031632758677005767822265625</LongitudeDegrees>
            </Position>
            <AltitudeMeters>281</AltitudeMeters>
            <DistanceMeters>NAN</DistanceMeters>
          </Trackpoint>
          <Trackpoint>
            <Time>2020-05-25T06:32:48.000Z</Time>
            <Position>
              <LatitudeDegrees>38.19860885851085186004638671875</LatitudeDegrees>
              <LongitudeDegrees>-1.16017282940447330474853515625</LongitudeDegrees>
            </Position>
            <AltitudeMeters>280</AltitudeMeters>
            <DistanceMeters>NAN</DistanceMeters>
          </Trackpoint>
          <Trackpoint>
            <Time>2020-05-25T06:32:49.000Z</Time>
            <Position>
              <LatitudeDegrees>38.1985179148614406585693359375</LatitudeDegrees>
              <LongitudeDegrees>-1.16003184579312801361083984375</LongitudeDegrees>
            </Position>
            <AltitudeMeters>279.20001220703125</AltitudeMeters>
            <DistanceMeters>NAN</DistanceMeters>
          </Trackpoint>
          <Trackpoint>
            <Time>2020-05-25T06:32:50.000Z</Time>
            <Position>
              <LatitudeDegrees>38.19842822849750518798828125</LatitudeDegrees>
              <LongitudeDegrees>-1.15989538840949535369873046875</LongitudeDegrees>
            </Position>
            <AltitudeMeters>278.399993896484375</AltitudeMeters>
            <DistanceMeters>NAN</DistanceMeters>
          </Trackpoint>
          <Trackpoint>
            <Time>2020-05-25T06:32:51.000Z</Time>
            <Position>
              <LatitudeDegrees>38.19833963178098201751708984375</LatitudeDegrees>
              <LongitudeDegrees>-1.1597645469009876251220703125</LongitudeDegrees>
            </Position>
            <AltitudeMeters>277.399993896484375</AltitudeMeters>
            <DistanceMeters>NAN</DistanceMeters>
          </Trackpoint>
          <Trackpoint>
            <Time>2020-05-25T06:32:52.000Z</Time>
            <Position>
              <LatitudeDegrees>38.1982530467212200164794921875</LatitudeDegrees>
              <LongitudeDegrees>-1.1596383154392242431640625</LongitudeDegrees>
            </Position>
            <AltitudeMeters>276.600006103515625</AltitudeMeters>
            <DistanceMeters>NAN</DistanceMeters>
          </Trackpoint>
          <Trackpoint>
            <Time>2020-05-25T06:32:53.000Z</Time>
            <Position>
              <LatitudeDegrees>38.19816998206079006195068359375</LatitudeDegrees>
              <LongitudeDegrees>-1.159515269100666046142578125</LongitudeDegrees>
            </Position>
            <AltitudeMeters>275.79998779296875</AltitudeMeters>
            <DistanceMeters>NAN</DistanceMeters>
          </Trackpoint>
          <Trackpoint>
            <Time>2020-05-25T06:32:54.000Z</Time>
            <Position>
              <LatitudeDegrees>38.19808985106647014617919921875</LatitudeDegrees>
              <LongitudeDegrees>-1.15939716808497905731201171875</LongitudeDegrees>
            </Position>
            <AltitudeMeters>275.399993896484375</AltitudeMeters>
            <DistanceMeters>NAN</DistanceMeters>
          </Trackpoint>
          <Trackpoint>
            <Time>2020-05-25T06:32:55.000Z</Time>
            <Position>
              <LatitudeDegrees>38.198011815547943115234375</LatitudeDegrees>
              <LongitudeDegrees>-1.15928384475409984588623046875</LongitudeDegrees>
            </Position>
            <AltitudeMeters>274.79998779296875</AltitudeMeters>
            <DistanceMeters>NAN</DistanceMeters>
          </Trackpoint>
          <Trackpoint>
            <Time>2020-05-25T06:32:56.000Z</Time>
            <Position>
              <LatitudeDegrees>38.197935037314891815185546875</LatitudeDegrees>
              <LongitudeDegrees>-1.15917303599417209625244140625</LongitudeDegrees>
            </Position>
            <AltitudeMeters>274.20001220703125</AltitudeMeters>
            <DistanceMeters>NAN</DistanceMeters>
          </Trackpoint>
          <Trackpoint>
            <Time>2020-05-25T06:32:57.000Z</Time>
            <Position>
              <LatitudeDegrees>38.1978602707386016845703125</LatitudeDegrees>
              <LongitudeDegrees>-1.1590654961764812469482421875</LongitudeDegrees>
            </Position>
            <AltitudeMeters>274</AltitudeMeters>
            <DistanceMeters>NAN</DistanceMeters>
          </Trackpoint>
          <Trackpoint>
            <Time>2020-05-25T06:32:58.000Z</Time>
            <Position>
              <LatitudeDegrees>38.19778709672391414642333984375</LatitudeDegrees>
              <LongitudeDegrees>-1.1589610576629638671875</LongitudeDegrees>
            </Position>
            <AltitudeMeters>273.600006103515625</AltitudeMeters>
            <DistanceMeters>NAN</DistanceMeters>
          </Trackpoint>
          <Trackpoint>
            <Time>2020-05-25T06:32:59.000Z</Time>
            <Position>
              <LatitudeDegrees>38.197716437280178070068359375</LatitudeDegrees>
              <LongitudeDegrees>-1.15885804407298564910888671875</LongitudeDegrees>
            </Position>
            <AltitudeMeters>273.399993896484375</AltitudeMeters>
            <DistanceMeters>NAN</DistanceMeters>
          </Trackpoint>
          <Trackpoint>
            <Time>2020-05-25T06:33:00.000Z</Time>
            <Position>
              <LatitudeDegrees>38.197648711502552032470703125</LatitudeDegrees>
              <LongitudeDegrees>-1.1587558686733245849609375</LongitudeDegrees>
            </Position>
            <AltitudeMeters>273.399993896484375</AltitudeMeters>
            <DistanceMeters>NAN</DistanceMeters>
          </Trackpoint>
          <Trackpoint>
            <Time>2020-05-25T06:33:01.000Z</Time>
            <Position>
              <LatitudeDegrees>38.19758257828652858734130859375</LatitudeDegrees>
              <LongitudeDegrees>-1.1586561240255832672119140625</LongitudeDegrees>
            </Position>
            <AltitudeMeters>273.399993896484375</AltitudeMeters>
            <DistanceMeters>NAN</DistanceMeters>
          </Trackpoint>
          <Trackpoint>
            <Time>2020-05-25T06:33:02.000Z</Time>
            <Position>
              <LatitudeDegrees>38.1975187920033931732177734375</LatitudeDegrees>
              <LongitudeDegrees>-1.15855679847300052642822265625</LongitudeDegrees>
            </Position>
            <AltitudeMeters>273.399993896484375</AltitudeMeters>
            <DistanceMeters>NAN</DistanceMeters>
          </Trackpoint>
          <Trackpoint>
            <Time>2020-05-25T06:33:03.000Z</Time>
            <Position>
              <LatitudeDegrees>38.19745986722409725189208984375</LatitudeDegrees>
              <LongitudeDegrees>-1.1584552936255931854248046875</LongitudeDegrees>
            </Position>
            <AltitudeMeters>273.399993896484375</AltitudeMeters>
            <DistanceMeters>NAN</DistanceMeters>
          </Trackpoint>
          <Trackpoint>
            <Time>2020-05-25T06:33:04.000Z</Time>
            <Position>
              <LatitudeDegrees>38.197405301034450531005859375</LatitudeDegrees>
              <LongitudeDegrees>-1.1583573929965496063232421875</LongitudeDegrees>
            </Position>
            <AltitudeMeters>273.399993896484375</AltitudeMeters>
            <DistanceMeters>NAN</DistanceMeters>
          </Trackpoint>
          <Trackpoint>
            <Time>2020-05-25T06:33:05.000Z</Time>
            <Position>
              <LatitudeDegrees>38.1973545067012310028076171875</LatitudeDegrees>
              <LongitudeDegrees>-1.15826292894780635833740234375</LongitudeDegrees>
            </Position>
            <AltitudeMeters>273.399993896484375</AltitudeMeters>
            <DistanceMeters>NAN</DistanceMeters>
          </Trackpoint>
          <Trackpoint>
            <Time>2020-05-25T06:33:06.000Z</Time>
            <Position>
              <LatitudeDegrees>38.19730882532894611358642578125</LatitudeDegrees>
              <LongitudeDegrees>-1.15817449986934661865234375</LongitudeDegrees>
            </Position>
            <AltitudeMeters>273.399993896484375</AltitudeMeters>
            <DistanceMeters>NAN</DistanceMeters>
          </Trackpoint>
          <Trackpoint>
            <Time>2020-05-25T06:33:07.000Z</Time>
            <Position>
              <LatitudeDegrees>38.19726725108921527862548828125</LatitudeDegrees>
              <LongitudeDegrees>-1.1580881662666797637939453125</LongitudeDegrees>
            </Position>
            <AltitudeMeters>273.399993896484375</AltitudeMeters>
            <DistanceMeters>NAN</DistanceMeters>
          </Trackpoint>
          <Trackpoint>
            <Time>2020-05-25T06:33:08.000Z</Time>
            <Position>
              <LatitudeDegrees>38.19722919724881649017333984375</LatitudeDegrees>
              <LongitudeDegrees>-1.1580053530633449554443359375</LongitudeDegrees>
            </Position>
            <AltitudeMeters>273.399993896484375</AltitudeMeters>
            <DistanceMeters>NAN</DistanceMeters>
          </Trackpoint>
          <Trackpoint>
            <Time>2020-05-25T06:33:09.000Z</Time>
            <Position>
              <LatitudeDegrees>38.19719575345516204833984375</LatitudeDegrees>
              <LongitudeDegrees>-1.15792932920157909393310546875</LongitudeDegrees>
            </Position>
            <AltitudeMeters>273.399993896484375</AltitudeMeters>
            <DistanceMeters>NAN</DistanceMeters>
          </Trackpoint>
          <Trackpoint>
            <Time>2020-05-25T06:33:10.000Z</Time>
            <Position>
              <LatitudeDegrees>38.19716499187052249908447265625</LatitudeDegrees>
              <LongitudeDegrees>-1.15785397589206695556640625</LongitudeDegrees>
            </Position>
            <AltitudeMeters>273.399993896484375</AltitudeMeters>
            <DistanceMeters>NAN</DistanceMeters>
          </Trackpoint>
          <Trackpoint>
            <Time>2020-05-25T06:33:11.000Z</Time>
            <Position>
              <LatitudeDegrees>38.19713800214231014251708984375</LatitudeDegrees>
              <LongitudeDegrees>-1.15777677856385707855224609375</LongitudeDegrees>
            </Position>
            <AltitudeMeters>273.399993896484375</AltitudeMeters>
            <DistanceMeters>NAN</DistanceMeters>
          </Trackpoint>
          <Trackpoint>
            <Time>2020-05-25T06:33:12.000Z</Time>
            <Position>
              <LatitudeDegrees>38.19710967130959033966064453125</LatitudeDegrees>
              <LongitudeDegrees>-1.1576992459595203399658203125</LongitudeDegrees>
            </Position>
            <AltitudeMeters>273.600006103515625</AltitudeMeters>
            <DistanceMeters>NAN</DistanceMeters>
          </Trackpoint>
          <Trackpoint>
            <Time>2020-05-25T06:33:13.000Z</Time>
            <Position>
              <LatitudeDegrees>38.19707497023046016693115234375</LatitudeDegrees>
              <LongitudeDegrees>-1.157622970640659332275390625</LongitudeDegrees>
            </Position>
            <AltitudeMeters>274</AltitudeMeters>
            <DistanceMeters>NAN</DistanceMeters>
          </Trackpoint>
          <Trackpoint>
            <Time>2020-05-25T06:33:14.000Z</Time>
            <Position>
              <LatitudeDegrees>38.1970346532762050628662109375</LatitudeDegrees>
              <LongitudeDegrees>-1.15755625069141387939453125</LongitudeDegrees>
            </Position>
            <AltitudeMeters>274.399993896484375</AltitudeMeters>
            <DistanceMeters>NAN</DistanceMeters>
          </Trackpoint>
          <Trackpoint>
            <Time>2020-05-25T06:33:15.000Z</Time>
            <Position>
              <LatitudeDegrees>38.19698654115200042724609375</LatitudeDegrees>
              <LongitudeDegrees>-1.15750554017722606658935546875</LongitudeDegrees>
            </Position>
            <AltitudeMeters>274.79998779296875</AltitudeMeters>
            <DistanceMeters>NAN</DistanceMeters>
          </Trackpoint>
          <Trackpoint>
            <Time>2020-05-25T06:33:16.000Z</Time>
            <Position>
              <LatitudeDegrees>38.19693331606686115264892578125</LatitudeDegrees>
              <LongitudeDegrees>-1.15746597759425640106201171875</LongitudeDegrees>
            </Position>
            <AltitudeMeters>274.79998779296875</AltitudeMeters>
            <DistanceMeters>NAN</DistanceMeters>
          </Trackpoint>
          <Trackpoint>
            <Time>2020-05-25T06:33:17.000Z</Time>
            <Position>
              <LatitudeDegrees>38.19687497802078723907470703125</LatitudeDegrees>
              <LongitudeDegrees>-1.157431192696094512939453125</LongitudeDegrees>
            </Position>
            <AltitudeMeters>275</AltitudeMeters>
            <DistanceMeters>NAN</DistanceMeters>
          </Trackpoint>
          <Trackpoint>
            <Time>2020-05-25T06:33:18.000Z</Time>
            <Position>
              <LatitudeDegrees>38.19681647233664989471435546875</LatitudeDegrees>
              <LongitudeDegrees>-1.15739339031279087066650390625</LongitudeDegrees>
            </Position>
            <AltitudeMeters>275</AltitudeMeters>
            <DistanceMeters>NAN</DistanceMeters>
          </Trackpoint>
          <Trackpoint>
            <Time>2020-05-25T06:33:19.000Z</Time>
            <Position>
              <LatitudeDegrees>38.1967580504715442657470703125</LatitudeDegrees>
              <LongitudeDegrees>-1.1573512293398380279541015625</LongitudeDegrees>
            </Position>
            <AltitudeMeters>275</AltitudeMeters>
            <DistanceMeters>NAN</DistanceMeters>
          </Trackpoint>
          <Trackpoint>
            <Time>2020-05-25T06:33:20.000Z</Time>
            <Position>
              <LatitudeDegrees>38.1966997124254703521728515625</LatitudeDegrees>
              <LongitudeDegrees>-1.15730278193950653076171875</LongitudeDegrees>
            </Position>
            <AltitudeMeters>275</AltitudeMeters>
            <DistanceMeters>NAN</DistanceMeters>
          </Trackpoint>
          <Trackpoint>
            <Time>2020-05-25T06:33:21.000Z</Time>
            <Position>
              <LatitudeDegrees>38.19664380513131618499755859375</LatitudeDegrees>
              <LongitudeDegrees>-1.157252155244350433349609375</LongitudeDegrees>
            </Position>
            <AltitudeMeters>275</AltitudeMeters>
            <DistanceMeters>NAN</DistanceMeters>
          </Trackpoint>
          <Trackpoint>
            <Time>2020-05-25T06:33:22.000Z</Time>
            <Position>
              <LatitudeDegrees>38.19659091532230377197265625</LatitudeDegrees>
              <LongitudeDegrees>-1.15719440393149852752685546875</LongitudeDegrees>
            </Position>
            <AltitudeMeters>275</AltitudeMeters>
            <DistanceMeters>NAN</DistanceMeters>
          </Trackpoint>
          <Trackpoint>
            <Time>2020-05-25T06:33:23.000Z</Time>
            <Position>
              <LatitudeDegrees>38.19654322229325771331787109375</LatitudeDegrees>
              <LongitudeDegrees>-1.15712902508676052093505859375</LongitudeDegrees>
            </Position>
            <AltitudeMeters>275</AltitudeMeters>
            <DistanceMeters>NAN</DistanceMeters>
          </Trackpoint>
          <Trackpoint>
            <Time>2020-05-25T06:33:24.000Z</Time>
            <Position>
              <LatitudeDegrees>38.19649837911128997802734375</LatitudeDegrees>
              <LongitudeDegrees>-1.15705844946205615997314453125</LongitudeDegrees>
            </Position>
            <AltitudeMeters>275</AltitudeMeters>
            <DistanceMeters>NAN</DistanceMeters>
          </Trackpoint>
          <Trackpoint>
            <Time>2020-05-25T06:33:25.000Z</Time>
            <Position>
              <LatitudeDegrees>38.1964539550244808197021484375</LatitudeDegrees>
              <LongitudeDegrees>-1.15698602981865406036376953125</LongitudeDegrees>
            </Position>
            <AltitudeMeters>275</AltitudeMeters>
            <DistanceMeters>NAN</DistanceMeters>
          </Trackpoint>
          <Trackpoint>
            <Time>2020-05-25T06:33:26.000Z</Time>
            <Position>
              <LatitudeDegrees>38.19641229696571826934814453125</LatitudeDegrees>
              <LongitudeDegrees>-1.156916208565235137939453125</LongitudeDegrees>
            </Position>
            <AltitudeMeters>275</AltitudeMeters>
            <DistanceMeters>NAN</DistanceMeters>
          </Trackpoint>
          <Trackpoint>
            <Time>2020-05-25T06:33:27.000Z</Time>
            <Position>
              <LatitudeDegrees>38.19637005217373371124267578125</LatitudeDegrees>
              <LongitudeDegrees>-1.1568493209779262542724609375</LongitudeDegrees>
            </Position>
            <AltitudeMeters>274.79998779296875</AltitudeMeters>
            <DistanceMeters>NAN</DistanceMeters>
          </Trackpoint>
          <Trackpoint>
            <Time>2020-05-25T06:33:28.000Z</Time>
            <Position>
              <LatitudeDegrees>38.1963305734097957611083984375</LatitudeDegrees>
              <LongitudeDegrees>-1.15677380003035068511962890625</LongitudeDegrees>
            </Position>
            <AltitudeMeters>274.79998779296875</AltitudeMeters>
            <DistanceMeters>NAN</DistanceMeters>
          </Trackpoint>
          <Trackpoint>
            <Time>2020-05-25T06:33:29.000Z</Time>
            <Position>
              <LatitudeDegrees>38.19628874771296977996826171875</LatitudeDegrees>
              <LongitudeDegrees>-1.15670087747275829315185546875</LongitudeDegrees>
            </Position>
            <AltitudeMeters>274.600006103515625</AltitudeMeters>
            <DistanceMeters>NAN</DistanceMeters>
          </Trackpoint>
          <Trackpoint>
            <Time>2020-05-25T06:33:30.000Z</Time>
            <Position>
              <LatitudeDegrees>38.19624097086489200592041015625</LatitudeDegrees>
              <LongitudeDegrees>-1.15662686526775360107421875</LongitudeDegrees>
            </Position>
            <AltitudeMeters>274.399993896484375</AltitudeMeters>
            <DistanceMeters>NAN</DistanceMeters>
          </Trackpoint>
          <Trackpoint>
            <Time>2020-05-25T06:33:31.000Z</Time>
            <Position>
              <LatitudeDegrees>38.19619302637875080108642578125</LatitudeDegrees>
              <LongitudeDegrees>-1.156549751758575439453125</LongitudeDegrees>
            </Position>
            <AltitudeMeters>274.399993896484375</AltitudeMeters>
            <DistanceMeters>NAN</DistanceMeters>
          </Trackpoint>
          <Trackpoint>
            <Time>2020-05-25T06:33:32.000Z</Time>
            <Position>
              <LatitudeDegrees>38.1961436569690704345703125</LatitudeDegrees>
              <LongitudeDegrees>-1.15647506900131702423095703125</LongitudeDegrees>
            </Position>
            <AltitudeMeters>274.20001220703125</AltitudeMeters>
            <DistanceMeters>NAN</DistanceMeters>
          </Trackpoint>
          <Trackpoint>
            <Time>2020-05-25T06:33:33.000Z</Time>
            <Position>
              <LatitudeDegrees>38.1960982270538806915283203125</LatitudeDegrees>
              <LongitudeDegrees>-1.15640692412853240966796875</LongitudeDegrees>
            </Position>
            <AltitudeMeters>273.79998779296875</AltitudeMeters>
            <DistanceMeters>NAN</DistanceMeters>
          </Trackpoint>
          <Trackpoint>
            <Time>2020-05-25T06:33:34.000Z</Time>
            <Position>
              <LatitudeDegrees>38.19605271331965923309326171875</LatitudeDegrees>
              <LongitudeDegrees>-1.15633659996092319488525390625</LongitudeDegrees>
            </Position>
            <AltitudeMeters>273.600006103515625</AltitudeMeters>
            <DistanceMeters>NAN</DistanceMeters>
          </Trackpoint>
          <Trackpoint>
            <Time>2020-05-25T06:33:35.000Z</Time>
            <Position>
              <LatitudeDegrees>38.19600577466189861297607421875</LatitudeDegrees>
              <LongitudeDegrees>-1.15626786835491657257080078125</LongitudeDegrees>
            </Position>
            <AltitudeMeters>273.399993896484375</AltitudeMeters>
            <DistanceMeters>NAN</DistanceMeters>
          </Trackpoint>
          <Trackpoint>
            <Time>2020-05-25T06:33:36.000Z</Time>
            <Position>
              <LatitudeDegrees>38.19596185348927974700927734375</LatitudeDegrees>
              <LongitudeDegrees>-1.15618924610316753387451171875</LongitudeDegrees>
            </Position>
            <AltitudeMeters>273.20001220703125</AltitudeMeters>
            <DistanceMeters>NAN</DistanceMeters>
          </Trackpoint>
          <Trackpoint>
            <Time>2020-05-25T06:33:37.000Z</Time>
            <Position>
              <LatitudeDegrees>38.19592975080013275146484375</LatitudeDegrees>
              <LongitudeDegrees>-1.15610182285308837890625</LongitudeDegrees>
            </Position>
            <AltitudeMeters>273.20001220703125</AltitudeMeters>
            <DistanceMeters>NAN</DistanceMeters>
          </Trackpoint>
          <Trackpoint>
            <Time>2020-05-25T06:33:38.000Z</Time>
            <Position>
              <LatitudeDegrees>38.1959064491093158721923828125</LatitudeDegrees>
              <LongitudeDegrees>-1.15601507015526294708251953125</LongitudeDegrees>
            </Position>
            <AltitudeMeters>273.20001220703125</AltitudeMeters>
            <DistanceMeters>NAN</DistanceMeters>
          </Trackpoint>
          <Trackpoint>
            <Time>2020-05-25T06:33:39.000Z</Time>
            <Position>
              <LatitudeDegrees>38.1958903558552265167236328125</LatitudeDegrees>
              <LongitudeDegrees>-1.15592437796294689178466796875</LongitudeDegrees>
            </Position>
            <AltitudeMeters>273.20001220703125</AltitudeMeters>
            <DistanceMeters>NAN</DistanceMeters>
          </Trackpoint>
          <Trackpoint>
            <Time>2020-05-25T06:33:40.000Z</Time>
            <Position>
              <LatitudeDegrees>38.19588054902851581573486328125</LatitudeDegrees>
              <LongitudeDegrees>-1.1558320932090282440185546875</LongitudeDegrees>
            </Position>
            <AltitudeMeters>273</AltitudeMeters>
            <DistanceMeters>NAN</DistanceMeters>
          </Trackpoint>
          <Trackpoint>
            <Time>2020-05-25T06:33:41.000Z</Time>
            <Position>
              <LatitudeDegrees>38.1958705745637416839599609375</LatitudeDegrees>
              <LongitudeDegrees>-1.15573645569384098052978515625</LongitudeDegrees>
            </Position>
            <AltitudeMeters>273</AltitudeMeters>
            <DistanceMeters>NAN</DistanceMeters>
          </Trackpoint>
          <Trackpoint>
            <Time>2020-05-25T06:33:42.000Z</Time>
            <Position>
              <LatitudeDegrees>38.19585406221449375152587890625</LatitudeDegrees>
              <LongitudeDegrees>-1.1556418240070343017578125</LongitudeDegrees>
            </Position>
            <AltitudeMeters>273</AltitudeMeters>
            <DistanceMeters>NAN</DistanceMeters>
          </Trackpoint>
          <Trackpoint>
            <Time>2020-05-25T06:33:43.000Z</Time>
            <Position>
              <LatitudeDegrees>38.19582925178110599517822265625</LatitudeDegrees>
              <LongitudeDegrees>-1.1555524729192256927490234375</LongitudeDegrees>
            </Position>
            <AltitudeMeters>272.600006103515625</AltitudeMeters>
            <DistanceMeters>NAN</DistanceMeters>
          </Trackpoint>
          <Trackpoint>
            <Time>2020-05-25T06:33:44.000Z</Time>
            <Position>
              <LatitudeDegrees>38.19579907692968845367431640625</LatitudeDegrees>
              <LongitudeDegrees>-1.15546605549752712249755859375</LongitudeDegrees>
            </Position>
            <AltitudeMeters>272.600006103515625</AltitudeMeters>
            <DistanceMeters>NAN</DistanceMeters>
          </Trackpoint>
          <Trackpoint>
            <Time>2020-05-25T06:33:45.000Z</Time>
            <Position>
              <LatitudeDegrees>38.19576437585055828094482421875</LatitudeDegrees>
              <LongitudeDegrees>-1.15537771023809909820556640625</LongitudeDegrees>
            </Position>
            <AltitudeMeters>272.399993896484375</AltitudeMeters>
            <DistanceMeters>NAN</DistanceMeters>
          </Trackpoint>
          <Trackpoint>
            <Time>2020-05-25T06:33:46.000Z</Time>
            <Position>
              <LatitudeDegrees>38.1957252323627471923828125</LatitudeDegrees>
              <LongitudeDegrees>-1.1552869342267513275146484375</LongitudeDegrees>
            </Position>
            <AltitudeMeters>272.399993896484375</AltitudeMeters>
            <DistanceMeters>NAN</DistanceMeters>
          </Trackpoint>
          <Trackpoint>
            <Time>2020-05-25T06:33:47.000Z</Time>
            <Position>
              <LatitudeDegrees>38.1956861726939678192138671875</LatitudeDegrees>
              <LongitudeDegrees>-1.15519498474895954132080078125</LongitudeDegrees>
            </Position>
            <AltitudeMeters>272</AltitudeMeters>
            <DistanceMeters>NAN</DistanceMeters>
          </Trackpoint>
          <Trackpoint>
            <Time>2020-05-25T06:33:48.000Z</Time>
            <Position>
              <LatitudeDegrees>38.19564602337777614593505859375</LatitudeDegrees>
              <LongitudeDegrees>-1.155099011957645416259765625</LongitudeDegrees>
            </Position>
            <AltitudeMeters>272</AltitudeMeters>
            <DistanceMeters>NAN</DistanceMeters>
          </Trackpoint>
          <Trackpoint>
            <Time>2020-05-25T06:33:49.000Z</Time>
            <Position>
              <LatitudeDegrees>38.19560788571834564208984375</LatitudeDegrees>
              <LongitudeDegrees>-1.154999099671840667724609375</LongitudeDegrees>
            </Position>
            <AltitudeMeters>272</AltitudeMeters>
            <DistanceMeters>NAN</DistanceMeters>
          </Trackpoint>
          <Trackpoint>
            <Time>2020-05-25T06:33:50.000Z</Time>
            <Position>
              <LatitudeDegrees>38.1955715082585811614990234375</LatitudeDegrees>
              <LongitudeDegrees>-1.15490077994763851165771484375</LongitudeDegrees>
            </Position>
            <AltitudeMeters>271.79998779296875</AltitudeMeters>
            <DistanceMeters>NAN</DistanceMeters>
          </Trackpoint>
          <Trackpoint>
            <Time>2020-05-25T06:33:51.000Z</Time>
            <Position>
              <LatitudeDegrees>38.19553337059915065765380859375</LatitudeDegrees>
              <LongitudeDegrees>-1.15480623207986354827880859375</LongitudeDegrees>
            </Position>
            <AltitudeMeters>271.79998779296875</AltitudeMeters>
            <DistanceMeters>NAN</DistanceMeters>
          </Trackpoint>
          <Trackpoint>
            <Time>2020-05-25T06:33:52.000Z</Time>
            <Position>
              <LatitudeDegrees>38.1954954005777835845947265625</LatitudeDegrees>
              <LongitudeDegrees>-1.1547099240124225616455078125</LongitudeDegrees>
            </Position>
            <AltitudeMeters>271.600006103515625</AltitudeMeters>
            <DistanceMeters>NAN</DistanceMeters>
          </Trackpoint>
          <Trackpoint>
            <Time>2020-05-25T06:33:53.000Z</Time>
            <Position>
              <LatitudeDegrees>38.19545793347060680389404296875</LatitudeDegrees>
              <LongitudeDegrees>-1.1546140350401401519775390625</LongitudeDegrees>
            </Position>
            <AltitudeMeters>271.600006103515625</AltitudeMeters>
            <DistanceMeters>NAN</DistanceMeters>
          </Trackpoint>
          <Trackpoint>
            <Time>2020-05-25T06:33:54.000Z</Time>
            <Position>
              <LatitudeDegrees>38.1954194605350494384765625</LatitudeDegrees>
              <LongitudeDegrees>-1.15452024154365062713623046875</LongitudeDegrees>
            </Position>
            <AltitudeMeters>271.399993896484375</AltitudeMeters>
            <DistanceMeters>NAN</DistanceMeters>
          </Trackpoint>
          <Trackpoint>
            <Time>2020-05-25T06:33:55.000Z</Time>
            <Position>
              <LatitudeDegrees>38.1953807361423969268798828125</LatitudeDegrees>
              <LongitudeDegrees>-1.15442669950425624847412109375</LongitudeDegrees>
            </Position>
            <AltitudeMeters>271.20001220703125</AltitudeMeters>
            <DistanceMeters>NAN</DistanceMeters>
          </Trackpoint>
          <Trackpoint>
            <Time>2020-05-25T06:33:56.000Z</Time>
            <Position>
              <LatitudeDegrees>38.195343352854251861572265625</LatitudeDegrees>
              <LongitudeDegrees>-1.154331900179386138916015625</LongitudeDegrees>
            </Position>
            <AltitudeMeters>271</AltitudeMeters>
            <DistanceMeters>NAN</DistanceMeters>
          </Trackpoint>
          <Trackpoint>
            <Time>2020-05-25T06:33:57.000Z</Time>
            <Position>
              <LatitudeDegrees>38.1953066401183605194091796875</LatitudeDegrees>
              <LongitudeDegrees>-1.15423760376870632171630859375</LongitudeDegrees>
            </Position>
            <AltitudeMeters>270.600006103515625</AltitudeMeters>
            <DistanceMeters>NAN</DistanceMeters>
          </Trackpoint>
          <Trackpoint>
            <Time>2020-05-25T06:33:58.000Z</Time>
            <Position>
              <LatitudeDegrees>38.19526917301118373870849609375</LatitudeDegrees>
              <LongitudeDegrees>-1.15414582192897796630859375</LongitudeDegrees>
            </Position>
            <AltitudeMeters>270.399993896484375</AltitudeMeters>
            <DistanceMeters>NAN</DistanceMeters>
          </Trackpoint>
          <Trackpoint>
            <Time>2020-05-25T06:33:59.000Z</Time>
            <Position>
              <LatitudeDegrees>38.19523396901786327362060546875</LatitudeDegrees>
              <LongitudeDegrees>-1.15405487827956676483154296875</LongitudeDegrees>
            </Position>
            <AltitudeMeters>269.79998779296875</AltitudeMeters>
            <DistanceMeters>NAN</DistanceMeters>
          </Trackpoint>
          <Trackpoint>
            <Time>2020-05-25T06:34:00.000Z</Time>
            <Position>
              <LatitudeDegrees>38.19520421326160430908203125</LatitudeDegrees>
              <LongitudeDegrees>-1.15396116860210895538330078125</LongitudeDegrees>
            </Position>
            <AltitudeMeters>269.399993896484375</AltitudeMeters>
            <DistanceMeters>NAN</DistanceMeters>
          </Trackpoint>
          <Trackpoint>
            <Time>2020-05-25T06:34:01.000Z</Time>
            <Position>
              <LatitudeDegrees>38.19518233649432659149169921875</LatitudeDegrees>
              <LongitudeDegrees>-1.1538662016391754150390625</LongitudeDegrees>
            </Position>
            <AltitudeMeters>269.20001220703125</AltitudeMeters>
            <DistanceMeters>NAN</DistanceMeters>
          </Trackpoint>
          <Trackpoint>
            <Time>2020-05-25T06:34:02.000Z</Time>
            <Position>
              <LatitudeDegrees>38.19517026655375957489013671875</LatitudeDegrees>
              <LongitudeDegrees>-1.1537674628198146820068359375</LongitudeDegrees>
            </Position>
            <AltitudeMeters>269</AltitudeMeters>
            <DistanceMeters>NAN</DistanceMeters>
          </Trackpoint>
          <Trackpoint>
            <Time>2020-05-25T06:34:03.000Z</Time>
            <Position>
              <LatitudeDegrees>38.1951691769063472747802734375</LatitudeDegrees>
              <LongitudeDegrees>-1.15366704761981964111328125</LongitudeDegrees>
            </Position>
            <AltitudeMeters>268.79998779296875</AltitudeMeters>
            <DistanceMeters>NAN</DistanceMeters>
          </Trackpoint>
          <Trackpoint>
            <Time>2020-05-25T06:34:04.000Z</Time>
            <Position>
              <LatitudeDegrees>38.195175714790821075439453125</LatitudeDegrees>
              <LongitudeDegrees>-1.15356520749628543853759765625</LongitudeDegrees>
            </Position>
            <AltitudeMeters>268.79998779296875</AltitudeMeters>
            <DistanceMeters>NAN</DistanceMeters>
          </Trackpoint>
          <Trackpoint>
            <Time>2020-05-25T06:34:05.000Z</Time>
            <Position>
              <LatitudeDegrees>38.19518585689365863800048828125</LatitudeDegrees>
              <LongitudeDegrees>-1.15346160717308521270751953125</LongitudeDegrees>
            </Position>
            <AltitudeMeters>268.600006103515625</AltitudeMeters>
            <DistanceMeters>NAN</DistanceMeters>
          </Trackpoint>
          <Trackpoint>
            <Time>2020-05-25T06:34:06.000Z</Time>
            <Position>
              <LatitudeDegrees>38.19519616663455963134765625</LatitudeDegrees>
              <LongitudeDegrees>-1.1533577553927898406982421875</LongitudeDegrees>
            </Position>
            <AltitudeMeters>268.600006103515625</AltitudeMeters>
            <DistanceMeters>NAN</DistanceMeters>
          </Trackpoint>
          <Trackpoint>
            <Time>2020-05-25T06:34:07.000Z</Time>
            <Position>
              <LatitudeDegrees>38.19520681165158748626708984375</LatitudeDegrees>
              <LongitudeDegrees>-1.15325423888862133026123046875</LongitudeDegrees>
            </Position>
            <AltitudeMeters>268.600006103515625</AltitudeMeters>
            <DistanceMeters>NAN</DistanceMeters>
          </Trackpoint>
          <Trackpoint>
            <Time>2020-05-25T06:34:08.000Z</Time>
            <Position>
              <LatitudeDegrees>38.195218630135059356689453125</LatitudeDegrees>
              <LongitudeDegrees>-1.15314812399446964263916015625</LongitudeDegrees>
            </Position>
            <AltitudeMeters>268.20001220703125</AltitudeMeters>
            <DistanceMeters>NAN</DistanceMeters>
          </Trackpoint>
          <Trackpoint>
            <Time>2020-05-25T06:34:09.000Z</Time>
            <Position>
              <LatitudeDegrees>38.19522927515208721160888671875</LatitudeDegrees>
              <LongitudeDegrees>-1.15304351784288883209228515625</LongitudeDegrees>
            </Position>
            <AltitudeMeters>267.79998779296875</AltitudeMeters>
            <DistanceMeters>NAN</DistanceMeters>
          </Trackpoint>
          <Trackpoint>
            <Time>2020-05-25T06:34:10.000Z</Time>
            <Position>
              <LatitudeDegrees>38.19523715414106845855712890625</LatitudeDegrees>
              <LongitudeDegrees>-1.1529423482716083526611328125</LongitudeDegrees>
            </Position>
            <AltitudeMeters>267.600006103515625</AltitudeMeters>
            <DistanceMeters>NAN</DistanceMeters>
          </Trackpoint>
          <Trackpoint>
            <Time>2020-05-25T06:34:11.000Z</Time>
            <Position>
              <LatitudeDegrees>38.195238076150417327880859375</LatitudeDegrees>
              <LongitudeDegrees>-1.1528434418141841888427734375</LongitudeDegrees>
            </Position>
            <AltitudeMeters>267.399993896484375</AltitudeMeters>
            <DistanceMeters>NAN</DistanceMeters>
          </Trackpoint>
          <Trackpoint>
            <Time>2020-05-25T06:34:12.000Z</Time>
            <Position>
              <LatitudeDegrees>38.1952271796762943267822265625</LatitudeDegrees>
              <LongitudeDegrees>-1.15275199525058269500732421875</LongitudeDegrees>
            </Position>
            <AltitudeMeters>267.20001220703125</AltitudeMeters>
            <DistanceMeters>NAN</DistanceMeters>
          </Trackpoint>
          <Trackpoint>
            <Time>2020-05-25T06:34:13.000Z</Time>
            <Position>
              <LatitudeDegrees>38.19520161487162113189697265625</LatitudeDegrees>
              <LongitudeDegrees>-1.152666918933391571044921875</LongitudeDegrees>
            </Position>
            <AltitudeMeters>267</AltitudeMeters>
            <DistanceMeters>NAN</DistanceMeters>
          </Trackpoint>
          <Trackpoint>
            <Time>2020-05-25T06:34:14.000Z</Time>
            <Position>
              <LatitudeDegrees>38.1951618008315563201904296875</LatitudeDegrees>
              <LongitudeDegrees>-1.1525889672338962554931640625</LongitudeDegrees>
            </Position>
            <AltitudeMeters>266.79998779296875</AltitudeMeters>
            <DistanceMeters>NAN</DistanceMeters>
          </Trackpoint>
          <Trackpoint>
            <Time>2020-05-25T06:34:15.000Z</Time>
            <Position>
              <LatitudeDegrees>38.195116035640239715576171875</LatitudeDegrees>
              <LongitudeDegrees>-1.15251369774341583251953125</LongitudeDegrees>
            </Position>
            <AltitudeMeters>266.399993896484375</AltitudeMeters>
            <DistanceMeters>NAN</DistanceMeters>
          </Trackpoint>
          <Trackpoint>
            <Time>2020-05-25T06:34:16.000Z</Time>
            <Position>
              <LatitudeDegrees>38.19506582804024219512939453125</LatitudeDegrees>
              <LongitudeDegrees>-1.15243817679584026336669921875</LongitudeDegrees>
            </Position>
            <AltitudeMeters>266</AltitudeMeters>
            <DistanceMeters>NAN</DistanceMeters>
          </Trackpoint>
          <Trackpoint>
            <Time>2020-05-25T06:34:17.000Z</Time>
            <Position>
              <LatitudeDegrees>38.195012100040912628173828125</LatitudeDegrees>
              <LongitudeDegrees>-1.1523603089153766632080078125</LongitudeDegrees>
            </Position>
            <AltitudeMeters>265.79998779296875</AltitudeMeters>
            <DistanceMeters>NAN</DistanceMeters>
          </Trackpoint>
          <Trackpoint>
            <Time>2020-05-25T06:34:18.000Z</Time>
            <Position>
              <LatitudeDegrees>38.19495786912739276885986328125</LatitudeDegrees>
              <LongitudeDegrees>-1.15227900445461273193359375</LongitudeDegrees>
            </Position>
            <AltitudeMeters>265.600006103515625</AltitudeMeters>
            <DistanceMeters>NAN</DistanceMeters>
          </Trackpoint>
          <Trackpoint>
            <Time>2020-05-25T06:34:19.000Z</Time>
            <Position>
              <LatitudeDegrees>38.194904141128063201904296875</LatitudeDegrees>
              <LongitudeDegrees>-1.15219719707965850830078125</LongitudeDegrees>
            </Position>
            <AltitudeMeters>265.399993896484375</AltitudeMeters>
            <DistanceMeters>NAN</DistanceMeters>
          </Trackpoint>
          <Trackpoint>
            <Time>2020-05-25T06:34:20.000Z</Time>
            <Position>
              <LatitudeDegrees>38.194850496947765350341796875</LatitudeDegrees>
              <LongitudeDegrees>-1.152118407189846038818359375</LongitudeDegrees>
            </Position>
            <AltitudeMeters>265.20001220703125</AltitudeMeters>
            <DistanceMeters>NAN</DistanceMeters>
          </Trackpoint>
          <Trackpoint>
            <Time>2020-05-25T06:34:21.000Z</Time>
            <Position>
              <LatitudeDegrees>38.19479626603424549102783203125</LatitudeDegrees>
              <LongitudeDegrees>-1.15203752182424068450927734375</LongitudeDegrees>
            </Position>
            <AltitudeMeters>265.20001220703125</AltitudeMeters>
            <DistanceMeters>NAN</DistanceMeters>
          </Trackpoint>
          <Trackpoint>
            <Time>2020-05-25T06:34:22.000Z</Time>
            <Position>
              <LatitudeDegrees>38.19474245421588420867919921875</LatitudeDegrees>
              <LongitudeDegrees>-1.15195454098284244537353515625</LongitudeDegrees>
            </Position>
            <AltitudeMeters>265.20001220703125</AltitudeMeters>
            <DistanceMeters>NAN</DistanceMeters>
          </Trackpoint>
          <Trackpoint>
            <Time>2020-05-25T06:34:23.000Z</Time>
            <Position>
              <LatitudeDegrees>38.1946873851120471954345703125</LatitudeDegrees>
              <LongitudeDegrees>-1.15187290124595165252685546875</LongitudeDegrees>
            </Position>
            <AltitudeMeters>265</AltitudeMeters>
            <DistanceMeters>NAN</DistanceMeters>
          </Trackpoint>
          <Trackpoint>
            <Time>2020-05-25T06:34:24.000Z</Time>
            <Position>
              <LatitudeDegrees>38.194631226360797882080078125</LatitudeDegrees>
              <LongitudeDegrees>-1.1517906747758388519287109375</LongitudeDegrees>
            </Position>
            <AltitudeMeters>265</AltitudeMeters>
            <DistanceMeters>NAN</DistanceMeters>
          </Trackpoint>
          <Trackpoint>
            <Time>2020-05-25T06:34:25.000Z</Time>
            <Position>
              <LatitudeDegrees>38.194573558866977691650390625</LatitudeDegrees>
              <LongitudeDegrees>-1.1517095379531383514404296875</LongitudeDegrees>
            </Position>
            <AltitudeMeters>265</AltitudeMeters>
            <DistanceMeters>NAN</DistanceMeters>
          </Trackpoint>
          <Trackpoint>
            <Time>2020-05-25T06:34:26.000Z</Time>
            <Position>
              <LatitudeDegrees>38.19451580755412578582763671875</LatitudeDegrees>
              <LongitudeDegrees>-1.15162814967334270477294921875</LongitudeDegrees>
            </Position>
            <AltitudeMeters>265</AltitudeMeters>
            <DistanceMeters>NAN</DistanceMeters>
          </Trackpoint>
          <Trackpoint>
            <Time>2020-05-25T06:34:27.000Z</Time>
            <Position>
              <LatitudeDegrees>38.19445814006030559539794921875</LatitudeDegrees>
              <LongitudeDegrees>-1.15154684521257877349853515625</LongitudeDegrees>
            </Position>
            <AltitudeMeters>264.79998779296875</AltitudeMeters>
            <DistanceMeters>NAN</DistanceMeters>
          </Trackpoint>
          <Trackpoint>
            <Time>2020-05-25T06:34:28.000Z</Time>
            <Position>
              <LatitudeDegrees>38.1943983770906925201416015625</LatitudeDegrees>
              <LongitudeDegrees>-1.15147090516984462738037109375</LongitudeDegrees>
            </Position>
            <AltitudeMeters>264.399993896484375</AltitudeMeters>
            <DistanceMeters>NAN</DistanceMeters>
          </Trackpoint>
          <Trackpoint>
            <Time>2020-05-25T06:34:29.000Z</Time>
            <Position>
              <LatitudeDegrees>38.19433509372174739837646484375</LatitudeDegrees>
              <LongitudeDegrees>-1.15140116773545742034912109375</LongitudeDegrees>
            </Position>
            <AltitudeMeters>264</AltitudeMeters>
            <DistanceMeters>NAN</DistanceMeters>
          </Trackpoint>
          <Trackpoint>
            <Time>2020-05-25T06:34:30.000Z</Time>
            <Position>
              <LatitudeDegrees>38.19426753558218479156494140625</LatitudeDegrees>
              <LongitudeDegrees>-1.1513367109000682830810546875</LongitudeDegrees>
            </Position>
            <AltitudeMeters>263.79998779296875</AltitudeMeters>
            <DistanceMeters>NAN</DistanceMeters>
          </Trackpoint>
          <Trackpoint>
            <Time>2020-05-25T06:34:31.000Z</Time>
            <Position>
              <LatitudeDegrees>38.1941968761384487152099609375</LatitudeDegrees>
              <LongitudeDegrees>-1.1512733437120914459228515625</LongitudeDegrees>
            </Position>
            <AltitudeMeters>263.600006103515625</AltitudeMeters>
            <DistanceMeters>NAN</DistanceMeters>
          </Trackpoint>
          <Trackpoint>
            <Time>2020-05-25T06:34:32.000Z</Time>
            <Position>
              <LatitudeDegrees>38.19412571378052234649658203125</LatitudeDegrees>
              <LongitudeDegrees>-1.151209138333797454833984375</LongitudeDegrees>
            </Position>
            <AltitudeMeters>263.20001220703125</AltitudeMeters>
            <DistanceMeters>NAN</DistanceMeters>
          </Trackpoint>
          <Trackpoint>
            <Time>2020-05-25T06:34:33.000Z</Time>
            <Position>
              <LatitudeDegrees>38.19405396468937397003173828125</LatitudeDegrees>
              <LongitudeDegrees>-1.15114686079323291778564453125</LongitudeDegrees>
            </Position>
            <AltitudeMeters>263.20001220703125</AltitudeMeters>
            <DistanceMeters>NAN</DistanceMeters>
          </Trackpoint>
          <Trackpoint>
            <Time>2020-05-25T06:34:34.000Z</Time>
            <Position>
              <LatitudeDegrees>38.1939819641411304473876953125</LatitudeDegrees>
              <LongitudeDegrees>-1.15108651109039783477783203125</LongitudeDegrees>
            </Position>
            <AltitudeMeters>263</AltitudeMeters>
            <DistanceMeters>NAN</DistanceMeters>
          </Trackpoint>
          <Trackpoint>
            <Time>2020-05-25T06:34:35.000Z</Time>
            <Position>
              <LatitudeDegrees>38.19391080178320407867431640625</LatitudeDegrees>
              <LongitudeDegrees>-1.15102683193981647491455078125</LongitudeDegrees>
            </Position>
            <AltitudeMeters>262.79998779296875</AltitudeMeters>
            <DistanceMeters>NAN</DistanceMeters>
          </Trackpoint>
          <Trackpoint>
            <Time>2020-05-25T06:34:36.000Z</Time>
            <Position>
              <LatitudeDegrees>38.19384039379656314849853515625</LatitudeDegrees>
              <LongitudeDegrees>-1.1509669013321399688720703125</LongitudeDegrees>
            </Position>
            <AltitudeMeters>262.20001220703125</AltitudeMeters>
            <DistanceMeters>NAN</DistanceMeters>
          </Trackpoint>
          <Trackpoint>
            <Time>2020-05-25T06:34:37.000Z</Time>
            <Position>
              <LatitudeDegrees>38.1937699019908905029296875</LatitudeDegrees>
              <LongitudeDegrees>-1.150906048715114593505859375</LongitudeDegrees>
            </Position>
            <AltitudeMeters>262</AltitudeMeters>
            <DistanceMeters>NAN</DistanceMeters>
          </Trackpoint>
          <Trackpoint>
            <Time>2020-05-25T06:34:38.000Z</Time>
            <Position>
              <LatitudeDegrees>38.19369957782328128814697265625</LatitudeDegrees>
              <LongitudeDegrees>-1.1508451960980892181396484375</LongitudeDegrees>
            </Position>
            <AltitudeMeters>261.79998779296875</AltitudeMeters>
            <DistanceMeters>NAN</DistanceMeters>
          </Trackpoint>
          <Trackpoint>
            <Time>2020-05-25T06:34:39.000Z</Time>
            <Position>
              <LatitudeDegrees>38.1936302594840526580810546875</LatitudeDegrees>
              <LongitudeDegrees>-1.15078258328139781951904296875</LongitudeDegrees>
            </Position>
            <AltitudeMeters>261.399993896484375</AltitudeMeters>
            <DistanceMeters>NAN</DistanceMeters>
          </Trackpoint>
          <Trackpoint>
            <Time>2020-05-25T06:34:40.000Z</Time>
            <Position>
              <LatitudeDegrees>38.19356395862996578216552734375</LatitudeDegrees>
              <LongitudeDegrees>-1.15071770735085010528564453125</LongitudeDegrees>
            </Position>
            <AltitudeMeters>261.20001220703125</AltitudeMeters>
            <DistanceMeters>NAN</DistanceMeters>
          </Trackpoint>
          <Trackpoint>
            <Time>2020-05-25T06:34:41.000Z</Time>
            <Position>
              <LatitudeDegrees>38.19350226782262325286865234375</LatitudeDegrees>
              <LongitudeDegrees>-1.1506470479071140289306640625</LongitudeDegrees>
            </Position>
            <AltitudeMeters>261</AltitudeMeters>
            <DistanceMeters>NAN</DistanceMeters>
          </Trackpoint>
          <Trackpoint>
            <Time>2020-05-25T06:34:42.000Z</Time>
            <Position>
              <LatitudeDegrees>38.19344577379524707794189453125</LatitudeDegrees>
              <LongitudeDegrees>-1.15057135932147502899169921875</LongitudeDegrees>
            </Position>
            <AltitudeMeters>260.79998779296875</AltitudeMeters>
            <DistanceMeters>NAN</DistanceMeters>
          </Trackpoint>
          <Trackpoint>
            <Time>2020-05-25T06:34:43.000Z</Time>
            <Position>
              <LatitudeDegrees>38.19339497946202754974365234375</LatitudeDegrees>
              <LongitudeDegrees>-1.1504866182804107666015625</LongitudeDegrees>
            </Position>
            <AltitudeMeters>260.79998779296875</AltitudeMeters>
            <DistanceMeters>NAN</DistanceMeters>
          </Trackpoint>
          <Trackpoint>
            <Time>2020-05-25T06:34:44.000Z</Time>
            <Position>
              <LatitudeDegrees>38.19335022009909152984619140625</LatitudeDegrees>
              <LongitudeDegrees>-1.150391735136508941650390625</LongitudeDegrees>
            </Position>
            <AltitudeMeters>260.399993896484375</AltitudeMeters>
            <DistanceMeters>NAN</DistanceMeters>
          </Trackpoint>
          <Trackpoint>
            <Time>2020-05-25T06:34:45.000Z</Time>
            <Position>
              <LatitudeDegrees>38.19331451319158077239990234375</LatitudeDegrees>
              <LongitudeDegrees>-1.15028989501297473907470703125</LongitudeDegrees>
            </Position>
            <AltitudeMeters>260</AltitudeMeters>
            <DistanceMeters>NAN</DistanceMeters>
          </Trackpoint>
          <Trackpoint>
            <Time>2020-05-25T06:34:46.000Z</Time>
            <Position>
              <LatitudeDegrees>38.19329473190009593963623046875</LatitudeDegrees>
              <LongitudeDegrees>-1.15018243901431560516357421875</LongitudeDegrees>
            </Position>
            <AltitudeMeters>259.79998779296875</AltitudeMeters>
            <DistanceMeters>NAN</DistanceMeters>
          </Trackpoint>
          <Trackpoint>
            <Time>2020-05-25T06:34:47.000Z</Time>
            <Position>
              <LatitudeDegrees>38.1932912953197956085205078125</LatitudeDegrees>
              <LongitudeDegrees>-1.1500743962824344635009765625</LongitudeDegrees>
            </Position>
            <AltitudeMeters>259.79998779296875</AltitudeMeters>
            <DistanceMeters>NAN</DistanceMeters>
          </Trackpoint>
          <Trackpoint>
            <Time>2020-05-25T06:34:48.000Z</Time>
            <Position>
              <LatitudeDegrees>38.19330160506069660186767578125</LatitudeDegrees>
              <LongitudeDegrees>-1.1499687843024730682373046875</LongitudeDegrees>
            </Position>
            <AltitudeMeters>259.600006103515625</AltitudeMeters>
            <DistanceMeters>NAN</DistanceMeters>
          </Trackpoint>
          <Trackpoint>
            <Time>2020-05-25T06:34:49.000Z</Time>
            <Position>
              <LatitudeDegrees>38.19332255981862545013427734375</LatitudeDegrees>
              <LongitudeDegrees>-1.1498675309121608734130859375</LongitudeDegrees>
            </Position>
            <AltitudeMeters>259.399993896484375</AltitudeMeters>
            <DistanceMeters>NAN</DistanceMeters>
          </Trackpoint>
          <Trackpoint>
            <Time>2020-05-25T06:34:50.000Z</Time>
            <Position>
              <LatitudeDegrees>38.19334921427071094512939453125</LatitudeDegrees>
              <LongitudeDegrees>-1.1497676186263561248779296875</LongitudeDegrees>
            </Position>
            <AltitudeMeters>259.399993896484375</AltitudeMeters>
            <DistanceMeters>NAN</DistanceMeters>
          </Trackpoint>
          <Trackpoint>
            <Time>2020-05-25T06:34:51.000Z</Time>
            <Position>
              <LatitudeDegrees>38.19338165223598480224609375</LatitudeDegrees>
              <LongitudeDegrees>-1.14967265166342258453369140625</LongitudeDegrees>
            </Position>
            <AltitudeMeters>259</AltitudeMeters>
            <DistanceMeters>NAN</DistanceMeters>
          </Trackpoint>
          <Trackpoint>
            <Time>2020-05-25T06:34:52.000Z</Time>
            <Position>
              <LatitudeDegrees>38.19341744296252727508544921875</LatitudeDegrees>
              <LongitudeDegrees>-1.14958279766142368316650390625</LongitudeDegrees>
            </Position>
            <AltitudeMeters>258.79998779296875</AltitudeMeters>
            <DistanceMeters>NAN</DistanceMeters>
          </Trackpoint>
          <Trackpoint>
            <Time>2020-05-25T06:34:53.000Z</Time>
            <Position>
              <LatitudeDegrees>38.19345398806035518646240234375</LatitudeDegrees>
              <LongitudeDegrees>-1.14949529059231281280517578125</LongitudeDegrees>
            </Position>
            <AltitudeMeters>258.600006103515625</AltitudeMeters>
            <DistanceMeters>NAN</DistanceMeters>
          </Trackpoint>
          <Trackpoint>
            <Time>2020-05-25T06:34:54.000Z</Time>
            <Position>
              <LatitudeDegrees>38.19348986260592937469482421875</LatitudeDegrees>
              <LongitudeDegrees>-1.14941113628447055816650390625</LongitudeDegrees>
            </Position>
            <AltitudeMeters>258.399993896484375</AltitudeMeters>
            <DistanceMeters>NAN</DistanceMeters>
          </Trackpoint>
          <Trackpoint>
            <Time>2020-05-25T06:34:55.000Z</Time>
            <Position>
              <LatitudeDegrees>38.19352406077086925506591796875</LatitudeDegrees>
              <LongitudeDegrees>-1.14932748489081859588623046875</LongitudeDegrees>
            </Position>
            <AltitudeMeters>258.20001220703125</AltitudeMeters>
            <DistanceMeters>NAN</DistanceMeters>
          </Trackpoint>
          <Trackpoint>
            <Time>2020-05-25T06:34:56.000Z</Time>
            <Position>
              <LatitudeDegrees>38.19355624727904796600341796875</LatitudeDegrees>
              <LongitudeDegrees>-1.14924115128815174102783203125</LongitudeDegrees>
            </Position>
            <AltitudeMeters>258</AltitudeMeters>
            <DistanceMeters>NAN</DistanceMeters>
          </Trackpoint>
          <Trackpoint>
            <Time>2020-05-25T06:34:57.000Z</Time>
            <Position>
              <LatitudeDegrees>38.19358223117887973785400390625</LatitudeDegrees>
              <LongitudeDegrees>-1.14915247075259685516357421875</LongitudeDegrees>
            </Position>
            <AltitudeMeters>257.79998779296875</AltitudeMeters>
            <DistanceMeters>NAN</DistanceMeters>
          </Trackpoint>
          <Trackpoint>
            <Time>2020-05-25T06:34:58.000Z</Time>
            <Position>
              <LatitudeDegrees>38.19359011016786098480224609375</LatitudeDegrees>
              <LongitudeDegrees>-1.149061359465122222900390625</LongitudeDegrees>
            </Position>
            <AltitudeMeters>257.79998779296875</AltitudeMeters>
            <DistanceMeters>NAN</DistanceMeters>
          </Trackpoint>
          <Trackpoint>
            <Time>2020-05-25T06:34:59.000Z</Time>
            <Position>
              <LatitudeDegrees>38.19358139298856258392333984375</LatitudeDegrees>
              <LongitudeDegrees>-1.1489676497876644134521484375</LongitudeDegrees>
            </Position>
            <AltitudeMeters>257.79998779296875</AltitudeMeters>
            <DistanceMeters>NAN</DistanceMeters>
          </Trackpoint>
          <Trackpoint>
            <Time>2020-05-25T06:35:00.000Z</Time>
            <Position>
              <LatitudeDegrees>38.1935625337064266204833984375</LatitudeDegrees>
              <LongitudeDegrees>-1.14887804724276065826416015625</LongitudeDegrees>
            </Position>
            <AltitudeMeters>257.79998779296875</AltitudeMeters>
            <DistanceMeters>NAN</DistanceMeters>
          </Trackpoint>
          <Trackpoint>
            <Time>2020-05-25T06:35:01.000Z</Time>
            <Position>
              <LatitudeDegrees>38.19353453814983367919921875</LatitudeDegrees>
              <LongitudeDegrees>-1.14879347383975982666015625</LongitudeDegrees>
            </Position>
            <AltitudeMeters>257.600006103515625</AltitudeMeters>
            <DistanceMeters>NAN</DistanceMeters>
          </Trackpoint>
          <Trackpoint>
            <Time>2020-05-25T06:35:02.000Z</Time>
            <Position>
              <LatitudeDegrees>38.19350226782262325286865234375</LatitudeDegrees>
              <LongitudeDegrees>-1.14871409721672534942626953125</LongitudeDegrees>
            </Position>
            <AltitudeMeters>257.600006103515625</AltitudeMeters>
            <DistanceMeters>NAN</DistanceMeters>
          </Trackpoint>
          <Trackpoint>
            <Time>2020-05-25T06:35:03.000Z</Time>
            <Position>
              <LatitudeDegrees>38.1934656389057636260986328125</LatitudeDegrees>
              <LongitudeDegrees>-1.14863899536430835723876953125</LongitudeDegrees>
            </Position>
            <AltitudeMeters>257.600006103515625</AltitudeMeters>
            <DistanceMeters>NAN</DistanceMeters>
          </Trackpoint>
          <Trackpoint>
            <Time>2020-05-25T06:35:04.000Z</Time>
            <Position>
              <LatitudeDegrees>38.193425573408603668212890625</LatitudeDegrees>
              <LongitudeDegrees>-1.14856707863509654998779296875</LongitudeDegrees>
            </Position>
            <AltitudeMeters>257.399993896484375</AltitudeMeters>
            <DistanceMeters>NAN</DistanceMeters>
          </Trackpoint>
          <Trackpoint>
            <Time>2020-05-25T06:35:05.000Z</Time>
            <Position>
              <LatitudeDegrees>38.193382322788238525390625</LatitudeDegrees>
              <LongitudeDegrees>-1.14849566482007503509521484375</LongitudeDegrees>
            </Position>
            <AltitudeMeters>257.399993896484375</AltitudeMeters>
            <DistanceMeters>NAN</DistanceMeters>
          </Trackpoint>
          <Trackpoint>
            <Time>2020-05-25T06:35:06.000Z</Time>
            <Position>
              <LatitudeDegrees>38.19333580322563648223876953125</LatitudeDegrees>
              <LongitudeDegrees>-1.1484238319098949432373046875</LongitudeDegrees>
            </Position>
            <AltitudeMeters>257.399993896484375</AltitudeMeters>
            <DistanceMeters>NAN</DistanceMeters>
          </Trackpoint>
          <Trackpoint>
            <Time>2020-05-25T06:35:07.000Z</Time>
            <Position>
              <LatitudeDegrees>38.19328785873949527740478515625</LatitudeDegrees>
              <LongitudeDegrees>-1.14834688603878021240234375</LongitudeDegrees>
            </Position>
            <AltitudeMeters>257.399993896484375</AltitudeMeters>
            <DistanceMeters>NAN</DistanceMeters>
          </Trackpoint>
          <Trackpoint>
            <Time>2020-05-25T06:35:08.000Z</Time>
            <Position>
              <LatitudeDegrees>38.19323949515819549560546875</LatitudeDegrees>
              <LongitudeDegrees>-1.14826516248285770416259765625</LongitudeDegrees>
            </Position>
            <AltitudeMeters>257.399993896484375</AltitudeMeters>
            <DistanceMeters>NAN</DistanceMeters>
          </Trackpoint>
          <Trackpoint>
            <Time>2020-05-25T06:35:09.000Z</Time>
            <Position>
              <LatitudeDegrees>38.19318928755819797515869140625</LatitudeDegrees>
              <LongitudeDegrees>-1.1481807567179203033447265625</LongitudeDegrees>
            </Position>
            <AltitudeMeters>257.399993896484375</AltitudeMeters>
            <DistanceMeters>NAN</DistanceMeters>
          </Trackpoint>
          <Trackpoint>
            <Time>2020-05-25T06:35:10.000Z</Time>
            <Position>
              <LatitudeDegrees>38.19313782267272472381591796875</LatitudeDegrees>
              <LongitudeDegrees>-1.1480939202010631561279296875</LongitudeDegrees>
            </Position>
            <AltitudeMeters>257.399993896484375</AltitudeMeters>
            <DistanceMeters>NAN</DistanceMeters>
          </Trackpoint>
          <Trackpoint>
            <Time>2020-05-25T06:35:11.000Z</Time>
            <Position>
              <LatitudeDegrees>38.1930859386920928955078125</LatitudeDegrees>
              <LongitudeDegrees>-1.14800448529422283172607421875</LongitudeDegrees>
            </Position>
            <AltitudeMeters>257.399993896484375</AltitudeMeters>
            <DistanceMeters>NAN</DistanceMeters>
          </Trackpoint>
          <Trackpoint>
            <Time>2020-05-25T06:35:12.000Z</Time>
            <Position>
              <LatitudeDegrees>38.19303489290177822113037109375</LatitudeDegrees>
              <LongitudeDegrees>-1.14791102707386016845703125</LongitudeDegrees>
            </Position>
            <AltitudeMeters>257.20001220703125</AltitudeMeters>
            <DistanceMeters>NAN</DistanceMeters>
          </Trackpoint>
          <Trackpoint>
            <Time>2020-05-25T06:35:13.000Z</Time>
            <Position>
              <LatitudeDegrees>38.1929848529398441314697265625</LatitudeDegrees>
              <LongitudeDegrees>-1.14781823940575122833251953125</LongitudeDegrees>
            </Position>
            <AltitudeMeters>257.399993896484375</AltitudeMeters>
            <DistanceMeters>NAN</DistanceMeters>
          </Trackpoint>
          <Trackpoint>
            <Time>2020-05-25T06:35:14.000Z</Time>
            <Position>
              <LatitudeDegrees>38.19294042885303497314453125</LatitudeDegrees>
              <LongitudeDegrees>-1.1477244459092617034912109375</LongitudeDegrees>
            </Position>
            <AltitudeMeters>257</AltitudeMeters>
            <DistanceMeters>NAN</DistanceMeters>
          </Trackpoint>
          <Trackpoint>
            <Time>2020-05-25T06:35:15.000Z</Time>
            <Position>
              <LatitudeDegrees>38.19290262646973133087158203125</LatitudeDegrees>
              <LongitudeDegrees>-1.1476288922131061553955078125</LongitudeDegrees>
            </Position>
            <AltitudeMeters>256.79998779296875</AltitudeMeters>
            <DistanceMeters>NAN</DistanceMeters>
          </Trackpoint>
          <Trackpoint>
            <Time>2020-05-25T06:35:16.000Z</Time>
            <Position>
              <LatitudeDegrees>38.19286641664803028106689453125</LatitudeDegrees>
              <LongitudeDegrees>-1.1475330032408237457275390625</LongitudeDegrees>
            </Position>
            <AltitudeMeters>256.20001220703125</AltitudeMeters>
            <DistanceMeters>NAN</DistanceMeters>
          </Trackpoint>
          <Trackpoint>
            <Time>2020-05-25T06:35:17.000Z</Time>
            <Position>
              <LatitudeDegrees>38.19282970391213893890380859375</LatitudeDegrees>
              <LongitudeDegrees>-1.14743518643081188201904296875</LongitudeDegrees>
            </Position>
            <AltitudeMeters>256</AltitudeMeters>
            <DistanceMeters>NAN</DistanceMeters>
          </Trackpoint>
          <Trackpoint>
            <Time>2020-05-25T06:35:18.000Z</Time>
            <Position>
              <LatitudeDegrees>38.192792572081089019775390625</LatitudeDegrees>
              <LongitudeDegrees>-1.14733678288757801055908203125</LongitudeDegrees>
            </Position>
            <AltitudeMeters>255.600006103515625</AltitudeMeters>
            <DistanceMeters>NAN</DistanceMeters>
          </Trackpoint>
          <Trackpoint>
            <Time>2020-05-25T06:35:19.000Z</Time>
            <Position>
              <LatitudeDegrees>38.1927561946213245391845703125</LatitudeDegrees>
              <LongitudeDegrees>-1.14723552949726581573486328125</LongitudeDegrees>
            </Position>
            <AltitudeMeters>255</AltitudeMeters>
            <DistanceMeters>NAN</DistanceMeters>
          </Trackpoint>
          <Trackpoint>
            <Time>2020-05-25T06:35:20.000Z</Time>
            <Position>
              <LatitudeDegrees>38.19271914660930633544921875</LatitudeDegrees>
              <LongitudeDegrees>-1.14712974987924098968505859375</LongitudeDegrees>
            </Position>
            <AltitudeMeters>254.8000030517578125</AltitudeMeters>
            <DistanceMeters>NAN</DistanceMeters>
          </Trackpoint>
          <Trackpoint>
            <Time>2020-05-25T06:35:21.000Z</Time>
            <Position>
              <LatitudeDegrees>38.19267983548343181610107421875</LatitudeDegrees>
              <LongitudeDegrees>-1.147027574479579925537109375</LongitudeDegrees>
            </Position>
            <AltitudeMeters>254.399993896484375</AltitudeMeters>
            <DistanceMeters>NAN</DistanceMeters>
          </Trackpoint>
          <Trackpoint>
            <Time>2020-05-25T06:35:22.000Z</Time>
            <Position>
              <LatitudeDegrees>38.19263809360563755035400390625</LatitudeDegrees>
              <LongitudeDegrees>-1.14693109877407550811767578125</LongitudeDegrees>
            </Position>
            <AltitudeMeters>254.1999969482421875</AltitudeMeters>
            <DistanceMeters>NAN</DistanceMeters>
          </Trackpoint>
          <Trackpoint>
            <Time>2020-05-25T06:35:23.000Z</Time>
            <Position>
              <LatitudeDegrees>38.192590735852718353271484375</LatitudeDegrees>
              <LongitudeDegrees>-1.14683940075337886810302734375</LongitudeDegrees>
            </Position>
            <AltitudeMeters>254</AltitudeMeters>
            <DistanceMeters>NAN</DistanceMeters>
          </Trackpoint>
          <Trackpoint>
            <Time>2020-05-25T06:35:24.000Z</Time>
            <Position>
              <LatitudeDegrees>38.192537762224674224853515625</LatitudeDegrees>
              <LongitudeDegrees>-1.14675357006490230560302734375</LongitudeDegrees>
            </Position>
            <AltitudeMeters>253.8000030517578125</AltitudeMeters>
            <DistanceMeters>NAN</DistanceMeters>
          </Trackpoint>
          <Trackpoint>
            <Time>2020-05-25T06:35:25.000Z</Time>
            <Position>
              <LatitudeDegrees>38.19248185493052005767822265625</LatitudeDegrees>
              <LongitudeDegrees>-1.146670170128345489501953125</LongitudeDegrees>
            </Position>
            <AltitudeMeters>253.8000030517578125</AltitudeMeters>
            <DistanceMeters>NAN</DistanceMeters>
          </Trackpoint>
          <Trackpoint>
            <Time>2020-05-25T06:35:26.000Z</Time>
            <Position>
              <LatitudeDegrees>38.1924249418079853057861328125</LatitudeDegrees>
              <LongitudeDegrees>-1.1465868540108203887939453125</LongitudeDegrees>
            </Position>
            <AltitudeMeters>253.8000030517578125</AltitudeMeters>
            <DistanceMeters>NAN</DistanceMeters>
          </Trackpoint>
          <Trackpoint>
            <Time>2020-05-25T06:35:27.000Z</Time>
            <Position>
              <LatitudeDegrees>38.1923672743141651153564453125</LatitudeDegrees>
              <LongitudeDegrees>-1.14650462754070758819580078125</LongitudeDegrees>
            </Position>
            <AltitudeMeters>253.600006103515625</AltitudeMeters>
            <DistanceMeters>NAN</DistanceMeters>
          </Trackpoint>
          <Trackpoint>
            <Time>2020-05-25T06:35:28.000Z</Time>
            <Position>
              <LatitudeDegrees>38.192310445010662078857421875</LatitudeDegrees>
              <LongitudeDegrees>-1.1464257538318634033203125</LongitudeDegrees>
            </Position>
            <AltitudeMeters>253.399993896484375</AltitudeMeters>
            <DistanceMeters>NAN</DistanceMeters>
          </Trackpoint>
          <Trackpoint>
            <Time>2020-05-25T06:35:29.000Z</Time>
            <Position>
              <LatitudeDegrees>38.1922542862594127655029296875</LatitudeDegrees>
              <LongitudeDegrees>-1.14634436555206775665283203125</LongitudeDegrees>
            </Position>
            <AltitudeMeters>253.1999969482421875</AltitudeMeters>
            <DistanceMeters>NAN</DistanceMeters>
          </Trackpoint>
          <Trackpoint>
            <Time>2020-05-25T06:35:30.000Z</Time>
            <Position>
              <LatitudeDegrees>38.19219854660332202911376953125</LatitudeDegrees>
              <LongitudeDegrees>-1.146262474358081817626953125</LongitudeDegrees>
            </Position>
            <AltitudeMeters>253</AltitudeMeters>
            <DistanceMeters>NAN</DistanceMeters>
          </Trackpoint>
          <Trackpoint>
            <Time>2020-05-25T06:35:31.000Z</Time>
            <Position>
              <LatitudeDegrees>38.19214389659464359283447265625</LatitudeDegrees>
              <LongitudeDegrees>-1.14618225954473018646240234375</LongitudeDegrees>
            </Position>
            <AltitudeMeters>252.8000030517578125</AltitudeMeters>
            <DistanceMeters>NAN</DistanceMeters>
          </Trackpoint>
          <Trackpoint>
            <Time>2020-05-25T06:35:32.000Z</Time>
            <Position>
              <LatitudeDegrees>38.192089162766933441162109375</LatitudeDegrees>
              <LongitudeDegrees>-1.1461013741791248321533203125</LongitudeDegrees>
            </Position>
            <AltitudeMeters>252.600006103515625</AltitudeMeters>
            <DistanceMeters>NAN</DistanceMeters>
          </Trackpoint>
          <Trackpoint>
            <Time>2020-05-25T06:35:33.000Z</Time>
            <Position>
              <LatitudeDegrees>38.19203493185341358184814453125</LatitudeDegrees>
              <LongitudeDegrees>-1.14601931534707546234130859375</LongitudeDegrees>
            </Position>
            <AltitudeMeters>252.399993896484375</AltitudeMeters>
            <DistanceMeters>NAN</DistanceMeters>
          </Trackpoint>
          <Trackpoint>
            <Time>2020-05-25T06:35:34.000Z</Time>
            <Position>
              <LatitudeDegrees>38.19198044948279857635498046875</LatitudeDegrees>
              <LongitudeDegrees>-1.145936585962772369384765625</LongitudeDegrees>
            </Position>
            <AltitudeMeters>252.399993896484375</AltitudeMeters>
            <DistanceMeters>NAN</DistanceMeters>
          </Trackpoint>
          <Trackpoint>
            <Time>2020-05-25T06:35:35.000Z</Time>
            <Position>
              <LatitudeDegrees>38.19192479364573955535888671875</LatitudeDegrees>
              <LongitudeDegrees>-1.1458529345691204071044921875</LongitudeDegrees>
            </Position>
            <AltitudeMeters>252.1999969482421875</AltitudeMeters>
            <DistanceMeters>NAN</DistanceMeters>
          </Trackpoint>
          <Trackpoint>
            <Time>2020-05-25T06:35:36.000Z</Time>
            <Position>
              <LatitudeDegrees>38.19186980836093425750732421875</LatitudeDegrees>
              <LongitudeDegrees>-1.14576752297580242156982421875</LongitudeDegrees>
            </Position>
            <AltitudeMeters>252.1999969482421875</AltitudeMeters>
            <DistanceMeters>NAN</DistanceMeters>
          </Trackpoint>
          <Trackpoint>
            <Time>2020-05-25T06:35:37.000Z</Time>
            <Position>
              <LatitudeDegrees>38.19181658327579498291015625</LatitudeDegrees>
              <LongitudeDegrees>-1.14568035118281841278076171875</LongitudeDegrees>
            </Position>
            <AltitudeMeters>252</AltitudeMeters>
            <DistanceMeters>NAN</DistanceMeters>
          </Trackpoint>
          <Trackpoint>
            <Time>2020-05-25T06:35:38.000Z</Time>
            <Position>
              <LatitudeDegrees>38.1917634420096874237060546875</LatitudeDegrees>
              <LongitudeDegrees>-1.1455929279327392578125</LongitudeDegrees>
            </Position>
            <AltitudeMeters>252</AltitudeMeters>
            <DistanceMeters>NAN</DistanceMeters>
          </Trackpoint>
          <Trackpoint>
            <Time>2020-05-25T06:35:39.000Z</Time>
            <Position>
              <LatitudeDegrees>38.1917111389338970184326171875</LatitudeDegrees>
              <LongitudeDegrees>-1.1455039121210575103759765625</LongitudeDegrees>
            </Position>
            <AltitudeMeters>251.8000030517578125</AltitudeMeters>
            <DistanceMeters>NAN</DistanceMeters>
          </Trackpoint>
          <Trackpoint>
            <Time>2020-05-25T06:35:40.000Z</Time>
            <Position>
              <LatitudeDegrees>38.1916590034961700439453125</LatitudeDegrees>
              <LongitudeDegrees>-1.14541514776647090911865234375</LongitudeDegrees>
            </Position>
            <AltitudeMeters>251.600006103515625</AltitudeMeters>
            <DistanceMeters>NAN</DistanceMeters>
          </Trackpoint>
          <Trackpoint>
            <Time>2020-05-25T06:35:41.000Z</Time>
            <Position>
              <LatitudeDegrees>38.19160762242972850799560546875</LatitudeDegrees>
              <LongitudeDegrees>-1.14532847888767719268798828125</LongitudeDegrees>
            </Position>
            <AltitudeMeters>251.600006103515625</AltitudeMeters>
            <DistanceMeters>NAN</DistanceMeters>
          </Trackpoint>
          <Trackpoint>
            <Time>2020-05-25T06:35:42.000Z</Time>
            <Position>
              <LatitudeDegrees>38.19155766628682613372802734375</LatitudeDegrees>
              <LongitudeDegrees>-1.145241558551788330078125</LongitudeDegrees>
            </Position>
            <AltitudeMeters>251.399993896484375</AltitudeMeters>
            <DistanceMeters>NAN</DistanceMeters>
          </Trackpoint>
          <Trackpoint>
            <Time>2020-05-25T06:35:43.000Z</Time>
            <Position>
              <LatitudeDegrees>38.19150838069617748260498046875</LatitudeDegrees>
              <LongitudeDegrees>-1.14515530876815319061279296875</LongitudeDegrees>
            </Position>
            <AltitudeMeters>251.399993896484375</AltitudeMeters>
            <DistanceMeters>NAN</DistanceMeters>
          </Trackpoint>
          <Trackpoint>
            <Time>2020-05-25T06:35:44.000Z</Time>
            <Position>
              <LatitudeDegrees>38.1914578378200531005859375</LatitudeDegrees>
              <LongitudeDegrees>-1.1450714059174060821533203125</LongitudeDegrees>
            </Position>
            <AltitudeMeters>251</AltitudeMeters>
            <DistanceMeters>NAN</DistanceMeters>
          </Trackpoint>
          <Trackpoint>
            <Time>2020-05-25T06:35:45.000Z</Time>
            <Position>
              <LatitudeDegrees>38.19140343926846981048583984375</LatitudeDegrees>
              <LongitudeDegrees>-1.14498901180922985076904296875</LongitudeDegrees>
            </Position>
            <AltitudeMeters>250.8000030517578125</AltitudeMeters>
            <DistanceMeters>NAN</DistanceMeters>
          </Trackpoint>
          <Trackpoint>
            <Time>2020-05-25T06:35:46.000Z</Time>
            <Position>
              <LatitudeDegrees>38.19134560413658618927001953125</LatitudeDegrees>
              <LongitudeDegrees>-1.1449111439287662506103515625</LongitudeDegrees>
            </Position>
            <AltitudeMeters>250.399993896484375</AltitudeMeters>
            <DistanceMeters>NAN</DistanceMeters>
          </Trackpoint>
          <Trackpoint>
            <Time>2020-05-25T06:35:47.000Z</Time>
            <Position>
              <LatitudeDegrees>38.1912856735289096832275390625</LatitudeDegrees>
              <LongitudeDegrees>-1.14483629353344440460205078125</LongitudeDegrees>
            </Position>
            <AltitudeMeters>250</AltitudeMeters>
            <DistanceMeters>NAN</DistanceMeters>
          </Trackpoint>
          <Trackpoint>
            <Time>2020-05-25T06:35:48.000Z</Time>
            <Position>
              <LatitudeDegrees>38.19122456945478916168212890625</LatitudeDegrees>
              <LongitudeDegrees>-1.144761107861995697021484375</LongitudeDegrees>
            </Position>
            <AltitudeMeters>249.8000030517578125</AltitudeMeters>
            <DistanceMeters>NAN</DistanceMeters>
          </Trackpoint>
          <Trackpoint>
            <Time>2020-05-25T06:35:49.000Z</Time>
            <Position>
              <LatitudeDegrees>38.1911616213619709014892578125</LatitudeDegrees>
              <LongitudeDegrees>-1.144689023494720458984375</LongitudeDegrees>
            </Position>
            <AltitudeMeters>249.600006103515625</AltitudeMeters>
            <DistanceMeters>NAN</DistanceMeters>
          </Trackpoint>
          <Trackpoint>
            <Time>2020-05-25T06:35:50.000Z</Time>
            <Position>
              <LatitudeDegrees>38.19109909236431121826171875</LatitudeDegrees>
              <LongitudeDegrees>-1.14461685530841350555419921875</LongitudeDegrees>
            </Position>
            <AltitudeMeters>249.600006103515625</AltitudeMeters>
            <DistanceMeters>NAN</DistanceMeters>
          </Trackpoint>
          <Trackpoint>
            <Time>2020-05-25T06:35:51.000Z</Time>
            <Position>
              <LatitudeDegrees>38.19103446789085865020751953125</LatitudeDegrees>
              <LongitudeDegrees>-1.14454510621726512908935546875</LongitudeDegrees>
            </Position>
            <AltitudeMeters>249.600006103515625</AltitudeMeters>
            <DistanceMeters>NAN</DistanceMeters>
          </Trackpoint>
          <Trackpoint>
            <Time>2020-05-25T06:35:52.000Z</Time>
            <Position>
              <LatitudeDegrees>38.1909685023128986358642578125</LatitudeDegrees>
              <LongitudeDegrees>-1.1444762907922267913818359375</LongitudeDegrees>
            </Position>
            <AltitudeMeters>249.399993896484375</AltitudeMeters>
            <DistanceMeters>NAN</DistanceMeters>
          </Trackpoint>
          <Trackpoint>
            <Time>2020-05-25T06:35:53.000Z</Time>
            <Position>
              <LatitudeDegrees>38.190901614725589752197265625</LatitudeDegrees>
              <LongitudeDegrees>-1.1444065533578395843505859375</LongitudeDegrees>
            </Position>
            <AltitudeMeters>249.399993896484375</AltitudeMeters>
            <DistanceMeters>NAN</DistanceMeters>
          </Trackpoint>
          <Trackpoint>
            <Time>2020-05-25T06:35:54.000Z</Time>
            <Position>
              <LatitudeDegrees>38.19083380512893199920654296875</LatitudeDegrees>
              <LongitudeDegrees>-1.14433790557086467742919921875</LongitudeDegrees>
            </Position>
            <AltitudeMeters>249.1999969482421875</AltitudeMeters>
            <DistanceMeters>NAN</DistanceMeters>
          </Trackpoint>
          <Trackpoint>
            <Time>2020-05-25T06:35:55.000Z</Time>
            <Position>
              <LatitudeDegrees>38.19076641462743282318115234375</LatitudeDegrees>
              <LongitudeDegrees>-1.1442664079368114471435546875</LongitudeDegrees>
            </Position>
            <AltitudeMeters>249</AltitudeMeters>
            <DistanceMeters>NAN</DistanceMeters>
          </Trackpoint>
          <Trackpoint>
            <Time>2020-05-25T06:35:56.000Z</Time>
            <Position>
              <LatitudeDegrees>38.1906987726688385009765625</LatitudeDegrees>
              <LongitudeDegrees>-1.14419155754148960113525390625</LongitudeDegrees>
            </Position>
            <AltitudeMeters>248.8000030517578125</AltitudeMeters>
            <DistanceMeters>NAN</DistanceMeters>
          </Trackpoint>
          <Trackpoint>
            <Time>2020-05-25T06:35:57.000Z</Time>
            <Position>
              <LatitudeDegrees>38.19063079543411731719970703125</LatitudeDegrees>
              <LongitudeDegrees>-1.14411704242229461669921875</LongitudeDegrees>
            </Position>
            <AltitudeMeters>248.8000030517578125</AltitudeMeters>
            <DistanceMeters>NAN</DistanceMeters>
          </Trackpoint>
          <Trackpoint>
            <Time>2020-05-25T06:35:58.000Z</Time>
            <Position>
              <LatitudeDegrees>38.19056424312293529510498046875</LatitudeDegrees>
              <LongitudeDegrees>-1.14403389394283294677734375</LongitudeDegrees>
            </Position>
            <AltitudeMeters>248.600006103515625</AltitudeMeters>
            <DistanceMeters>NAN</DistanceMeters>
          </Trackpoint>
          <Trackpoint>
            <Time>2020-05-25T06:35:59.000Z</Time>
            <Position>
              <LatitudeDegrees>38.19050095975399017333984375</LatitudeDegrees>
              <LongitudeDegrees>-1.14394412375986576080322265625</LongitudeDegrees>
            </Position>
            <AltitudeMeters>248.600006103515625</AltitudeMeters>
            <DistanceMeters>NAN</DistanceMeters>
          </Trackpoint>
          <Trackpoint>
            <Time>2020-05-25T06:36:00.000Z</Time>
            <Position>
              <LatitudeDegrees>38.19044052623212337493896484375</LatitudeDegrees>
              <LongitudeDegrees>-1.143849156796932220458984375</LongitudeDegrees>
            </Position>
            <AltitudeMeters>248.600006103515625</AltitudeMeters>
            <DistanceMeters>NAN</DistanceMeters>
          </Trackpoint>
          <Trackpoint>
            <Time>2020-05-25T06:36:01.000Z</Time>
            <Position>
              <LatitudeDegrees>38.190382607281208038330078125</LatitudeDegrees>
              <LongitudeDegrees>-1.14375150762498378753662109375</LongitudeDegrees>
            </Position>
            <AltitudeMeters>248.1999969482421875</AltitudeMeters>
            <DistanceMeters>NAN</DistanceMeters>
          </Trackpoint>
          <Trackpoint>
            <Time>2020-05-25T06:36:02.000Z</Time>
            <Position>
              <LatitudeDegrees>38.19032619707286357879638671875</LatitudeDegrees>
              <LongitudeDegrees>-1.143652684986591339111328125</LongitudeDegrees>
            </Position>
            <AltitudeMeters>248.1999969482421875</AltitudeMeters>
            <DistanceMeters>NAN</DistanceMeters>
          </Trackpoint>
          <Trackpoint>
            <Time>2020-05-25T06:36:03.000Z</Time>
            <Position>
              <LatitudeDegrees>38.19027163088321685791015625</LatitudeDegrees>
              <LongitudeDegrees>-1.143556796014308929443359375</LongitudeDegrees>
            </Position>
            <AltitudeMeters>248</AltitudeMeters>
            <DistanceMeters>NAN</DistanceMeters>
          </Trackpoint>
          <Trackpoint>
            <Time>2020-05-25T06:36:04.000Z</Time>
            <Position>
              <LatitudeDegrees>38.19021723233163356781005859375</LatitudeDegrees>
              <LongitudeDegrees>-1.14346283487975597381591796875</LongitudeDegrees>
            </Position>
            <AltitudeMeters>247.8000030517578125</AltitudeMeters>
            <DistanceMeters>NAN</DistanceMeters>
          </Trackpoint>
          <Trackpoint>
            <Time>2020-05-25T06:36:05.000Z</Time>
            <Position>
              <LatitudeDegrees>38.1901628337800502777099609375</LatitudeDegrees>
              <LongitudeDegrees>-1.14336594007909297943115234375</LongitudeDegrees>
            </Position>
            <AltitudeMeters>247.8000030517578125</AltitudeMeters>
            <DistanceMeters>NAN</DistanceMeters>
          </Trackpoint>
          <Trackpoint>
            <Time>2020-05-25T06:36:06.000Z</Time>
            <Position>
              <LatitudeDegrees>38.1901091895997524261474609375</LatitudeDegrees>
              <LongitudeDegrees>-1.1432672850787639617919921875</LongitudeDegrees>
            </Position>
            <AltitudeMeters>247.399993896484375</AltitudeMeters>
            <DistanceMeters>NAN</DistanceMeters>
          </Trackpoint>
          <Trackpoint>
            <Time>2020-05-25T06:36:07.000Z</Time>
            <Position>
              <LatitudeDegrees>38.1900548748672008514404296875</LatitudeDegrees>
              <LongitudeDegrees>-1.1431660316884517669677734375</LongitudeDegrees>
            </Position>
            <AltitudeMeters>247</AltitudeMeters>
            <DistanceMeters>NAN</DistanceMeters>
          </Trackpoint>
          <Trackpoint>
            <Time>2020-05-25T06:36:08.000Z</Time>
            <Position>
              <LatitudeDegrees>38.19000114686787128448486328125</LatitudeDegrees>
              <LongitudeDegrees>-1.14306419156491756439208984375</LongitudeDegrees>
            </Position>
            <AltitudeMeters>246.600006103515625</AltitudeMeters>
            <DistanceMeters>NAN</DistanceMeters>
          </Trackpoint>
          <Trackpoint>
            <Time>2020-05-25T06:36:09.000Z</Time>
            <Position>
              <LatitudeDegrees>38.18994867615401744842529296875</LatitudeDegrees>
              <LongitudeDegrees>-1.1429625190794467926025390625</LongitudeDegrees>
            </Position>
            <AltitudeMeters>246.399993896484375</AltitudeMeters>
            <DistanceMeters>NAN</DistanceMeters>
          </Trackpoint>
          <Trackpoint>
            <Time>2020-05-25T06:36:10.000Z</Time>
            <Position>
              <LatitudeDegrees>38.1898962892591953277587890625</LatitudeDegrees>
              <LongitudeDegrees>-1.1428602598607540130615234375</LongitudeDegrees>
            </Position>
            <AltitudeMeters>246</AltitudeMeters>
            <DistanceMeters>NAN</DistanceMeters>
          </Trackpoint>
          <Trackpoint>
            <Time>2020-05-25T06:36:11.000Z</Time>
            <Position>
              <LatitudeDegrees>38.18984448909759521484375</LatitudeDegrees>
              <LongitudeDegrees>-1.14275875501334667205810546875</LongitudeDegrees>
            </Position>
            <AltitudeMeters>245.8000030517578125</AltitudeMeters>
            <DistanceMeters>NAN</DistanceMeters>
          </Trackpoint>
          <Trackpoint>
            <Time>2020-05-25T06:36:12.000Z</Time>
            <Position>
              <LatitudeDegrees>38.18979243747889995574951171875</LatitudeDegrees>
              <LongitudeDegrees>-1.14265616051852703094482421875</LongitudeDegrees>
            </Position>
            <AltitudeMeters>245.600006103515625</AltitudeMeters>
            <DistanceMeters>NAN</DistanceMeters>
          </Trackpoint>
          <Trackpoint>
            <Time>2020-05-25T06:36:13.000Z</Time>
            <Position>
              <LatitudeDegrees>38.189742900431156158447265625</LatitudeDegrees>
              <LongitudeDegrees>-1.14255599677562713623046875</LongitudeDegrees>
            </Position>
            <AltitudeMeters>245.399993896484375</AltitudeMeters>
            <DistanceMeters>NAN</DistanceMeters>
          </Trackpoint>
          <Trackpoint>
            <Time>2020-05-25T06:36:14.000Z</Time>
            <Position>
              <LatitudeDegrees>38.18969587795436382293701171875</LatitudeDegrees>
              <LongitudeDegrees>-1.1424575932323932647705078125</LongitudeDegrees>
            </Position>
            <AltitudeMeters>245</AltitudeMeters>
            <DistanceMeters>NAN</DistanceMeters>
          </Trackpoint>
          <Trackpoint>
            <Time>2020-05-25T06:36:15.000Z</Time>
            <Position>
              <LatitudeDegrees>38.1896532140672206878662109375</LatitudeDegrees>
              <LongitudeDegrees>-1.14235810004174709320068359375</LongitudeDegrees>
            </Position>
            <AltitudeMeters>244.600006103515625</AltitudeMeters>
            <DistanceMeters>NAN</DistanceMeters>
          </Trackpoint>
          <Trackpoint>
            <Time>2020-05-25T06:36:16.000Z</Time>
            <Position>
              <LatitudeDegrees>38.189616836607456207275390625</LatitudeDegrees>
              <LongitudeDegrees>-1.142256259918212890625</LongitudeDegrees>
            </Position>
            <AltitudeMeters>244.1999969482421875</AltitudeMeters>
            <DistanceMeters>NAN</DistanceMeters>
          </Trackpoint>
          <Trackpoint>
            <Time>2020-05-25T06:36:17.000Z</Time>
            <Position>
              <LatitudeDegrees>38.18958758376538753509521484375</LatitudeDegrees>
              <LongitudeDegrees>-1.14215140230953693389892578125</LongitudeDegrees>
            </Position>
            <AltitudeMeters>244</AltitudeMeters>
            <DistanceMeters>NAN</DistanceMeters>
          </Trackpoint>
          <Trackpoint>
            <Time>2020-05-25T06:36:18.000Z</Time>
            <Position>
              <LatitudeDegrees>38.1895687244832515716552734375</LatitudeDegrees>
              <LongitudeDegrees>-1.1420421861112117767333984375</LongitudeDegrees>
            </Position>
            <AltitudeMeters>243.600006103515625</AltitudeMeters>
            <DistanceMeters>NAN</DistanceMeters>
          </Trackpoint>
          <Trackpoint>
            <Time>2020-05-25T06:36:19.000Z</Time>
            <Position>
              <LatitudeDegrees>38.18955975584685802459716796875</LatitudeDegrees>
              <LongitudeDegrees>-1.14192861132323741912841796875</LongitudeDegrees>
            </Position>
            <AltitudeMeters>243.1999969482421875</AltitudeMeters>
            <DistanceMeters>NAN</DistanceMeters>
          </Trackpoint>
          <Trackpoint>
            <Time>2020-05-25T06:36:20.000Z</Time>
            <Position>
              <LatitudeDegrees>38.18955707363784313201904296875</LatitudeDegrees>
              <LongitudeDegrees>-1.14181344397366046905517578125</LongitudeDegrees>
            </Position>
            <AltitudeMeters>243</AltitudeMeters>
            <DistanceMeters>NAN</DistanceMeters>
          </Trackpoint>
          <Trackpoint>
            <Time>2020-05-25T06:36:21.000Z</Time>
            <Position>
              <LatitudeDegrees>38.18955489434301853179931640625</LatitudeDegrees>
              <LongitudeDegrees>-1.1416978575289249420166015625</LongitudeDegrees>
            </Position>
            <AltitudeMeters>242.8000030517578125</AltitudeMeters>
            <DistanceMeters>NAN</DistanceMeters>
          </Trackpoint>
          <Trackpoint>
            <Time>2020-05-25T06:36:22.000Z</Time>
            <Position>
              <LatitudeDegrees>38.189552128314971923828125</LatitudeDegrees>
              <LongitudeDegrees>-1.1415816843509674072265625</LongitudeDegrees>
            </Position>
            <AltitudeMeters>242.600006103515625</AltitudeMeters>
            <DistanceMeters>NAN</DistanceMeters>
          </Trackpoint>
          <Trackpoint>
            <Time>2020-05-25T06:36:23.000Z</Time>
            <Position>
              <LatitudeDegrees>38.1895486079156398773193359375</LatitudeDegrees>
              <LongitudeDegrees>-1.1414671875536441802978515625</LongitudeDegrees>
            </Position>
            <AltitudeMeters>242.399993896484375</AltitudeMeters>
            <DistanceMeters>NAN</DistanceMeters>
          </Trackpoint>
          <Trackpoint>
            <Time>2020-05-25T06:36:24.000Z</Time>
            <Position>
              <LatitudeDegrees>38.18954265676438808441162109375</LatitudeDegrees>
              <LongitudeDegrees>-1.141355372965335845947265625</LongitudeDegrees>
            </Position>
            <AltitudeMeters>242.1999969482421875</AltitudeMeters>
            <DistanceMeters>NAN</DistanceMeters>
          </Trackpoint>
          <Trackpoint>
            <Time>2020-05-25T06:36:25.000Z</Time>
            <Position>
              <LatitudeDegrees>38.18953226320445537567138671875</LatitudeDegrees>
              <LongitudeDegrees>-1.1412442289292812347412109375</LongitudeDegrees>
            </Position>
            <AltitudeMeters>242</AltitudeMeters>
            <DistanceMeters>NAN</DistanceMeters>
          </Trackpoint>
          <Trackpoint>
            <Time>2020-05-25T06:36:26.000Z</Time>
            <Position>
              <LatitudeDegrees>38.18951667286455631256103515625</LatitudeDegrees>
              <LongitudeDegrees>-1.1411352641880512237548828125</LongitudeDegrees>
            </Position>
            <AltitudeMeters>241.8000030517578125</AltitudeMeters>
            <DistanceMeters>NAN</DistanceMeters>
          </Trackpoint>
          <Trackpoint>
            <Time>2020-05-25T06:36:27.000Z</Time>
            <Position>
              <LatitudeDegrees>38.1894959695637226104736328125</LatitudeDegrees>
              <LongitudeDegrees>-1.14102504216134548187255859375</LongitudeDegrees>
            </Position>
            <AltitudeMeters>241.600006103515625</AltitudeMeters>
            <DistanceMeters>NAN</DistanceMeters>
          </Trackpoint>
          <Trackpoint>
            <Time>2020-05-25T06:36:28.000Z</Time>
            <Position>
              <LatitudeDegrees>38.18947191350162029266357421875</LatitudeDegrees>
              <LongitudeDegrees>-1.14091121591627597808837890625</LongitudeDegrees>
            </Position>
            <AltitudeMeters>241.1999969482421875</AltitudeMeters>
            <DistanceMeters>NAN</DistanceMeters>
          </Trackpoint>
          <Trackpoint>
            <Time>2020-05-25T06:36:29.000Z</Time>
            <Position>
              <LatitudeDegrees>38.18944794125854969024658203125</LatitudeDegrees>
              <LongitudeDegrees>-1.14080049097537994384765625</LongitudeDegrees>
            </Position>
            <AltitudeMeters>240.8000030517578125</AltitudeMeters>
            <DistanceMeters>NAN</DistanceMeters>
          </Trackpoint>
          <Trackpoint>
            <Time>2020-05-25T06:36:30.000Z</Time>
            <Position>
              <LatitudeDegrees>38.1894232146441936492919921875</LatitudeDegrees>
              <LongitudeDegrees>-1.14069077186286449432373046875</LongitudeDegrees>
            </Position>
            <AltitudeMeters>240</AltitudeMeters>
            <DistanceMeters>NAN</DistanceMeters>
          </Trackpoint>
          <Trackpoint>
            <Time>2020-05-25T06:36:31.000Z</Time>
            <Position>
              <LatitudeDegrees>38.18939899094402790069580078125</LatitudeDegrees>
              <LongitudeDegrees>-1.14058096893131732940673828125</LongitudeDegrees>
            </Position>
            <AltitudeMeters>240</AltitudeMeters>
            <DistanceMeters>NAN</DistanceMeters>
          </Trackpoint>
          <Trackpoint>
            <Time>2020-05-25T06:36:32.000Z</Time>
            <Position>
              <LatitudeDegrees>38.18937418051064014434814453125</LatitudeDegrees>
              <LongitudeDegrees>-1.14046865142881870269775390625</LongitudeDegrees>
            </Position>
            <AltitudeMeters>239.8000030517578125</AltitudeMeters>
            <DistanceMeters>NAN</DistanceMeters>
          </Trackpoint>
          <Trackpoint>
            <Time>2020-05-25T06:36:33.000Z</Time>
            <Position>
              <LatitudeDegrees>38.18935305811464786529541015625</LatitudeDegrees>
              <LongitudeDegrees>-1.14036018960177898406982421875</LongitudeDegrees>
            </Position>
            <AltitudeMeters>239.8000030517578125</AltitudeMeters>
            <DistanceMeters>NAN</DistanceMeters>
          </Trackpoint>
          <Trackpoint>
            <Time>2020-05-25T06:36:34.000Z</Time>
            <Position>
              <LatitudeDegrees>38.18933260627090930938720703125</LatitudeDegrees>
              <LongitudeDegrees>-1.14025223068892955780029296875</LongitudeDegrees>
            </Position>
            <AltitudeMeters>239.600006103515625</AltitudeMeters>
            <DistanceMeters>NAN</DistanceMeters>
          </Trackpoint>
          <Trackpoint>
            <Time>2020-05-25T06:36:35.000Z</Time>
            <Position>
              <LatitudeDegrees>38.18931098096072673797607421875</LatitudeDegrees>
              <LongitudeDegrees>-1.14014276303350925445556640625</LongitudeDegrees>
            </Position>
            <AltitudeMeters>239.600006103515625</AltitudeMeters>
            <DistanceMeters>NAN</DistanceMeters>
          </Trackpoint>
          <Trackpoint>
            <Time>2020-05-25T06:36:36.000Z</Time>
            <Position>
              <LatitudeDegrees>38.189285583794116973876953125</LatitudeDegrees>
              <LongitudeDegrees>-1.14003212191164493560791015625</LongitudeDegrees>
            </Position>
            <AltitudeMeters>239.600006103515625</AltitudeMeters>
            <DistanceMeters>NAN</DistanceMeters>
          </Trackpoint>
          <Trackpoint>
            <Time>2020-05-25T06:36:37.000Z</Time>
            <Position>
              <LatitudeDegrees>38.1892562471330165863037109375</LatitudeDegrees>
              <LongitudeDegrees>-1.13991997204720973968505859375</LongitudeDegrees>
            </Position>
            <AltitudeMeters>239.399993896484375</AltitudeMeters>
            <DistanceMeters>NAN</DistanceMeters>
          </Trackpoint>
          <Trackpoint>
            <Time>2020-05-25T06:36:38.000Z</Time>
            <Position>
              <LatitudeDegrees>38.1892233900725841522216796875</LatitudeDegrees>
              <LongitudeDegrees>-1.13981368951499462127685546875</LongitudeDegrees>
            </Position>
            <AltitudeMeters>239.600006103515625</AltitudeMeters>
            <DistanceMeters>NAN</DistanceMeters>
          </Trackpoint>
          <Trackpoint>
            <Time>2020-05-25T06:36:39.000Z</Time>
            <Position>
              <LatitudeDegrees>38.18918508477509021759033203125</LatitudeDegrees>
              <LongitudeDegrees>-1.13971109502017498016357421875</LongitudeDegrees>
            </Position>
            <AltitudeMeters>239.399993896484375</AltitudeMeters>
            <DistanceMeters>NAN</DistanceMeters>
          </Trackpoint>
          <Trackpoint>
            <Time>2020-05-25T06:36:40.000Z</Time>
            <Position>
              <LatitudeDegrees>38.189141750335693359375</LatitudeDegrees>
              <LongitudeDegrees>-1.139607243239879608154296875</LongitudeDegrees>
            </Position>
            <AltitudeMeters>239.399993896484375</AltitudeMeters>
            <DistanceMeters>NAN</DistanceMeters>
          </Trackpoint>
          <Trackpoint>
            <Time>2020-05-25T06:36:41.000Z</Time>
            <Position>
              <LatitudeDegrees>38.18909523077309131622314453125</LatitudeDegrees>
              <LongitudeDegrees>-1.139509342610836029052734375</LongitudeDegrees>
            </Position>
            <AltitudeMeters>239.1999969482421875</AltitudeMeters>
            <DistanceMeters>NAN</DistanceMeters>
          </Trackpoint>
          <Trackpoint>
            <Time>2020-05-25T06:36:42.000Z</Time>
            <Position>
              <LatitudeDegrees>38.189046196639537811279296875</LatitudeDegrees>
              <LongitudeDegrees>-1.1394131183624267578125</LongitudeDegrees>
            </Position>
            <AltitudeMeters>239</AltitudeMeters>
            <DistanceMeters>NAN</DistanceMeters>
          </Trackpoint>
          <Trackpoint>
            <Time>2020-05-25T06:36:43.000Z</Time>
            <Position>
              <LatitudeDegrees>38.1889950670301914215087890625</LatitudeDegrees>
              <LongitudeDegrees>-1.1393180675804615020751953125</LongitudeDegrees>
            </Position>
            <AltitudeMeters>238.8000030517578125</AltitudeMeters>
            <DistanceMeters>NAN</DistanceMeters>
          </Trackpoint>
          <Trackpoint>
            <Time>2020-05-25T06:36:44.000Z</Time>
            <Position>
              <LatitudeDegrees>38.1889420934021472930908203125</LatitudeDegrees>
              <LongitudeDegrees>-1.13922393880784511566162109375</LongitudeDegrees>
            </Position>
            <AltitudeMeters>238.399993896484375</AltitudeMeters>
            <DistanceMeters>NAN</DistanceMeters>
          </Trackpoint>
          <Trackpoint>
            <Time>2020-05-25T06:36:45.000Z</Time>
            <Position>
              <LatitudeDegrees>38.18888819776475429534912109375</LatitudeDegrees>
              <LongitudeDegrees>-1.13913224078714847564697265625</LongitudeDegrees>
            </Position>
            <AltitudeMeters>238.1999969482421875</AltitudeMeters>
            <DistanceMeters>NAN</DistanceMeters>
          </Trackpoint>
          <Trackpoint>
            <Time>2020-05-25T06:36:46.000Z</Time>
            <Position>
              <LatitudeDegrees>38.18883128464221954345703125</LatitudeDegrees>
              <LongitudeDegrees>-1.1390404589474201202392578125</LongitudeDegrees>
            </Position>
            <AltitudeMeters>238</AltitudeMeters>
            <DistanceMeters>NAN</DistanceMeters>
          </Trackpoint>
          <Trackpoint>
            <Time>2020-05-25T06:36:47.000Z</Time>
            <Position>
              <LatitudeDegrees>38.18877051584422588348388671875</LatitudeDegrees>
              <LongitudeDegrees>-1.13894918002188205718994140625</LongitudeDegrees>
            </Position>
            <AltitudeMeters>237.8000030517578125</AltitudeMeters>
            <DistanceMeters>NAN</DistanceMeters>
          </Trackpoint>
          <Trackpoint>
            <Time>2020-05-25T06:36:48.000Z</Time>
            <Position>
              <LatitudeDegrees>38.1887063942849636077880859375</LatitudeDegrees>
              <LongitudeDegrees>-1.13886200822889804840087890625</LongitudeDegrees>
            </Position>
            <AltitudeMeters>237.600006103515625</AltitudeMeters>
            <DistanceMeters>NAN</DistanceMeters>
          </Trackpoint>
          <Trackpoint>
            <Time>2020-05-25T06:36:49.000Z</Time>
            <Position>
              <LatitudeDegrees>38.18864176981151103973388671875</LatitudeDegrees>
              <LongitudeDegrees>-1.13877542316913604736328125</LongitudeDegrees>
            </Position>
            <AltitudeMeters>237.399993896484375</AltitudeMeters>
            <DistanceMeters>NAN</DistanceMeters>
          </Trackpoint>
          <Trackpoint>
            <Time>2020-05-25T06:36:50.000Z</Time>
            <Position>
              <LatitudeDegrees>38.18857722915709018707275390625</LatitudeDegrees>
              <LongitudeDegrees>-1.13869001157581806182861328125</LongitudeDegrees>
            </Position>
            <AltitudeMeters>237.399993896484375</AltitudeMeters>
            <DistanceMeters>NAN</DistanceMeters>
          </Trackpoint>
          <Trackpoint>
            <Time>2020-05-25T06:36:51.000Z</Time>
            <Position>
              <LatitudeDegrees>38.18851201795041561126708984375</LatitudeDegrees>
              <LongitudeDegrees>-1.138605438172817230224609375</LongitudeDegrees>
            </Position>
            <AltitudeMeters>237.1999969482421875</AltitudeMeters>
            <DistanceMeters>NAN</DistanceMeters>
          </Trackpoint>
          <Trackpoint>
            <Time>2020-05-25T06:36:52.000Z</Time>
            <Position>
              <LatitudeDegrees>38.188447393476963043212890625</LatitudeDegrees>
              <LongitudeDegrees>-1.1385186016559600830078125</LongitudeDegrees>
            </Position>
            <AltitudeMeters>237</AltitudeMeters>
            <DistanceMeters>NAN</DistanceMeters>
          </Trackpoint>
          <Trackpoint>
            <Time>2020-05-25T06:36:53.000Z</Time>
            <Position>
              <LatitudeDegrees>38.18838176317512989044189453125</LatitudeDegrees>
              <LongitudeDegrees>-1.13843184895813465118408203125</LongitudeDegrees>
            </Position>
            <AltitudeMeters>237</AltitudeMeters>
            <DistanceMeters>NAN</DistanceMeters>
          </Trackpoint>
          <Trackpoint>
            <Time>2020-05-25T06:36:54.000Z</Time>
            <Position>
              <LatitudeDegrees>38.18831638433039188385009765625</LatitudeDegrees>
              <LongitudeDegrees>-1.13834400661289691925048828125</LongitudeDegrees>
            </Position>
            <AltitudeMeters>236.8000030517578125</AltitudeMeters>
            <DistanceMeters>NAN</DistanceMeters>
          </Trackpoint>
          <Trackpoint>
            <Time>2020-05-25T06:36:55.000Z</Time>
            <Position>
              <LatitudeDegrees>38.18825117312371730804443359375</LatitudeDegrees>
              <LongitudeDegrees>-1.138253398239612579345703125</LongitudeDegrees>
            </Position>
            <AltitudeMeters>236.600006103515625</AltitudeMeters>
            <DistanceMeters>NAN</DistanceMeters>
          </Trackpoint>
          <Trackpoint>
            <Time>2020-05-25T06:36:56.000Z</Time>
            <Position>
              <LatitudeDegrees>38.18818529136478900909423828125</LatitudeDegrees>
              <LongitudeDegrees>-1.13816278986632823944091796875</LongitudeDegrees>
            </Position>
            <AltitudeMeters>236.1999969482421875</AltitudeMeters>
            <DistanceMeters>NAN</DistanceMeters>
          </Trackpoint>
          <Trackpoint>
            <Time>2020-05-25T06:36:57.000Z</Time>
            <Position>
              <LatitudeDegrees>38.1881189905107021331787109375</LatitudeDegrees>
              <LongitudeDegrees>-1.1380745284259319305419921875</LongitudeDegrees>
            </Position>
            <AltitudeMeters>236</AltitudeMeters>
            <DistanceMeters>NAN</DistanceMeters>
          </Trackpoint>
          <Trackpoint>
            <Time>2020-05-25T06:36:58.000Z</Time>
            <Position>
              <LatitudeDegrees>38.1880539469420909881591796875</LatitudeDegrees>
              <LongitudeDegrees>-1.1379856802523136138916015625</LongitudeDegrees>
            </Position>
            <AltitudeMeters>235.399993896484375</AltitudeMeters>
            <DistanceMeters>NAN</DistanceMeters>
          </Trackpoint>
          <Trackpoint>
            <Time>2020-05-25T06:36:59.000Z</Time>
            <Position>
              <LatitudeDegrees>38.187989406287670135498046875</LatitudeDegrees>
              <LongitudeDegrees>-1.13789834082126617431640625</LongitudeDegrees>
            </Position>
            <AltitudeMeters>235.1999969482421875</AltitudeMeters>
            <DistanceMeters>NAN</DistanceMeters>
          </Trackpoint>
          <Trackpoint>
            <Time>2020-05-25T06:37:00.000Z</Time>
            <Position>
              <LatitudeDegrees>38.18792469799518585205078125</LatitudeDegrees>
              <LongitudeDegrees>-1.13781058229506015777587890625</LongitudeDegrees>
            </Position>
            <AltitudeMeters>235</AltitudeMeters>
            <DistanceMeters>NAN</DistanceMeters>
          </Trackpoint>
          <Trackpoint>
            <Time>2020-05-25T06:37:01.000Z</Time>
            <Position>
              <LatitudeDegrees>38.1878609955310821533203125</LatitudeDegrees>
              <LongitudeDegrees>-1.1377201415598392486572265625</LongitudeDegrees>
            </Position>
            <AltitudeMeters>234.600006103515625</AltitudeMeters>
            <DistanceMeters>NAN</DistanceMeters>
          </Trackpoint>
          <Trackpoint>
            <Time>2020-05-25T06:37:02.000Z</Time>
            <Position>
              <LatitudeDegrees>38.18779821507632732391357421875</LatitudeDegrees>
              <LongitudeDegrees>-1.1376281082630157470703125</LongitudeDegrees>
            </Position>
            <AltitudeMeters>234.399993896484375</AltitudeMeters>
            <DistanceMeters>NAN</DistanceMeters>
          </Trackpoint>
          <Trackpoint>
            <Time>2020-05-25T06:37:03.000Z</Time>
            <Position>
              <LatitudeDegrees>38.1877364404499530792236328125</LatitudeDegrees>
              <LongitudeDegrees>-1.1375367455184459686279296875</LongitudeDegrees>
            </Position>
            <AltitudeMeters>234.1999969482421875</AltitudeMeters>
            <DistanceMeters>NAN</DistanceMeters>
          </Trackpoint>
          <Trackpoint>
            <Time>2020-05-25T06:37:04.000Z</Time>
            <Position>
              <LatitudeDegrees>38.1876747496426105499267578125</LatitudeDegrees>
              <LongitudeDegrees>-1.13744429312646389007568359375</LongitudeDegrees>
            </Position>
            <AltitudeMeters>234</AltitudeMeters>
            <DistanceMeters>NAN</DistanceMeters>
          </Trackpoint>
          <Trackpoint>
            <Time>2020-05-25T06:37:05.000Z</Time>
            <Position>
              <LatitudeDegrees>38.18761289119720458984375</LatitudeDegrees>
              <LongitudeDegrees>-1.13735024817287921905517578125</LongitudeDegrees>
            </Position>
            <AltitudeMeters>234</AltitudeMeters>
            <DistanceMeters>NAN</DistanceMeters>
          </Trackpoint>
          <Trackpoint>
            <Time>2020-05-25T06:37:06.000Z</Time>
            <Position>
              <LatitudeDegrees>38.1875517033040523529052734375</LatitudeDegrees>
              <LongitudeDegrees>-1.137253940105438232421875</LongitudeDegrees>
            </Position>
            <AltitudeMeters>233.8000030517578125</AltitudeMeters>
            <DistanceMeters>NAN</DistanceMeters>
          </Trackpoint>
          <Trackpoint>
            <Time>2020-05-25T06:37:07.000Z</Time>
            <Position>
              <LatitudeDegrees>38.1874926947057247161865234375</LatitudeDegrees>
              <LongitudeDegrees>-1.13715779967606067657470703125</LongitudeDegrees>
            </Position>
            <AltitudeMeters>233.600006103515625</AltitudeMeters>
            <DistanceMeters>NAN</DistanceMeters>
          </Trackpoint>
          <Trackpoint>
            <Time>2020-05-25T06:37:08.000Z</Time>
            <Position>
              <LatitudeDegrees>38.18743427284061908721923828125</LatitudeDegrees>
              <LongitudeDegrees>-1.13706140778958797454833984375</LongitudeDegrees>
            </Position>
            <AltitudeMeters>233.399993896484375</AltitudeMeters>
            <DistanceMeters>NAN</DistanceMeters>
          </Trackpoint>
          <Trackpoint>
            <Time>2020-05-25T06:37:09.000Z</Time>
            <Position>
              <LatitudeDegrees>38.1873753480613231658935546875</LatitudeDegrees>
              <LongitudeDegrees>-1.136963255703449249267578125</LongitudeDegrees>
            </Position>
            <AltitudeMeters>233.1999969482421875</AltitudeMeters>
            <DistanceMeters>NAN</DistanceMeters>
          </Trackpoint>
          <Trackpoint>
            <Time>2020-05-25T06:37:10.000Z</Time>
            <Position>
              <LatitudeDegrees>38.18731583654880523681640625</LatitudeDegrees>
              <LongitudeDegrees>-1.136864013969898223876953125</LongitudeDegrees>
            </Position>
            <AltitudeMeters>233.1999969482421875</AltitudeMeters>
            <DistanceMeters>NAN</DistanceMeters>
          </Trackpoint>
          <Trackpoint>
            <Time>2020-05-25T06:37:11.000Z</Time>
            <Position>
              <LatitudeDegrees>38.18725707940757274627685546875</LatitudeDegrees>
              <LongitudeDegrees>-1.1367646045982837677001953125</LongitudeDegrees>
            </Position>
            <AltitudeMeters>232.8000030517578125</AltitudeMeters>
            <DistanceMeters>NAN</DistanceMeters>
          </Trackpoint>
          <Trackpoint>
            <Time>2020-05-25T06:37:12.000Z</Time>
            <Position>
              <LatitudeDegrees>38.18719916045665740966796875</LatitudeDegrees>
              <LongitudeDegrees>-1.1366651952266693115234375</LongitudeDegrees>
            </Position>
            <AltitudeMeters>232.600006103515625</AltitudeMeters>
            <DistanceMeters>NAN</DistanceMeters>
          </Trackpoint>
          <Trackpoint>
            <Time>2020-05-25T06:37:13.000Z</Time>
            <Position>
              <LatitudeDegrees>38.1871421635150909423828125</LatitudeDegrees>
              <LongitudeDegrees>-1.13656855188310146331787109375</LongitudeDegrees>
            </Position>
            <AltitudeMeters>232.399993896484375</AltitudeMeters>
            <DistanceMeters>NAN</DistanceMeters>
          </Trackpoint>
          <Trackpoint>
            <Time>2020-05-25T06:37:14.000Z</Time>
            <Position>
              <LatitudeDegrees>38.18708508275449275970458984375</LatitudeDegrees>
              <LongitudeDegrees>-1.1364722438156604766845703125</LongitudeDegrees>
            </Position>
            <AltitudeMeters>232</AltitudeMeters>
            <DistanceMeters>NAN</DistanceMeters>
          </Trackpoint>
          <Trackpoint>
            <Time>2020-05-25T06:37:15.000Z</Time>
            <Position>
              <LatitudeDegrees>38.1870266608893871307373046875</LatitudeDegrees>
              <LongitudeDegrees>-1.1363756842911243438720703125</LongitudeDegrees>
            </Position>
            <AltitudeMeters>231.600006103515625</AltitudeMeters>
            <DistanceMeters>NAN</DistanceMeters>
          </Trackpoint>
          <Trackpoint>
            <Time>2020-05-25T06:37:16.000Z</Time>
            <Position>
              <LatitudeDegrees>38.18696756847202777862548828125</LatitudeDegrees>
              <LongitudeDegrees>-1.1362804658710956573486328125</LongitudeDegrees>
            </Position>
            <AltitudeMeters>231.399993896484375</AltitudeMeters>
            <DistanceMeters>NAN</DistanceMeters>
          </Trackpoint>
          <Trackpoint>
            <Time>2020-05-25T06:37:17.000Z</Time>
            <Position>
              <LatitudeDegrees>38.1869086436927318572998046875</LatitudeDegrees>
              <LongitudeDegrees>-1.13618751056492328643798828125</LongitudeDegrees>
            </Position>
            <AltitudeMeters>231.1999969482421875</AltitudeMeters>
            <DistanceMeters>NAN</DistanceMeters>
          </Trackpoint>
          <Trackpoint>
            <Time>2020-05-25T06:37:18.000Z</Time>
            <Position>
              <LatitudeDegrees>38.18685072474181652069091796875</LatitudeDegrees>
              <LongitudeDegrees>-1.13609363324940204620361328125</LongitudeDegrees>
            </Position>
            <AltitudeMeters>231</AltitudeMeters>
            <DistanceMeters>NAN</DistanceMeters>
          </Trackpoint>
          <Trackpoint>
            <Time>2020-05-25T06:37:19.000Z</Time>
            <Position>
              <LatitudeDegrees>38.1867943145334720611572265625</LatitudeDegrees>
              <LongitudeDegrees>-1.13600042648613452911376953125</LongitudeDegrees>
            </Position>
            <AltitudeMeters>230.8000030517578125</AltitudeMeters>
            <DistanceMeters>NAN</DistanceMeters>
          </Trackpoint>
          <Trackpoint>
            <Time>2020-05-25T06:37:20.000Z</Time>
            <Position>
              <LatitudeDegrees>38.18674058653414249420166015625</LatitudeDegrees>
              <LongitudeDegrees>-1.1359073035418987274169921875</LongitudeDegrees>
            </Position>
            <AltitudeMeters>230.600006103515625</AltitudeMeters>
            <DistanceMeters>NAN</DistanceMeters>
          </Trackpoint>
          <Trackpoint>
            <Time>2020-05-25T06:37:21.000Z</Time>
            <Position>
              <LatitudeDegrees>38.18668995983898639678955078125</LatitudeDegrees>
              <LongitudeDegrees>-1.13581082783639430999755859375</LongitudeDegrees>
            </Position>
            <AltitudeMeters>230.399993896484375</AltitudeMeters>
            <DistanceMeters>NAN</DistanceMeters>
          </Trackpoint>
          <Trackpoint>
            <Time>2020-05-25T06:37:22.000Z</Time>
            <Position>
              <LatitudeDegrees>38.1866417638957500457763671875</LatitudeDegrees>
              <LongitudeDegrees>-1.135713346302509307861328125</LongitudeDegrees>
            </Position>
            <AltitudeMeters>230.1999969482421875</AltitudeMeters>
            <DistanceMeters>NAN</DistanceMeters>
          </Trackpoint>
          <Trackpoint>
            <Time>2020-05-25T06:37:23.000Z</Time>
            <Position>
              <LatitudeDegrees>38.1865961663424968719482421875</LatitudeDegrees>
              <LongitudeDegrees>-1.13561435602605342864990234375</LongitudeDegrees>
            </Position>
            <AltitudeMeters>230</AltitudeMeters>
            <DistanceMeters>NAN</DistanceMeters>
          </Trackpoint>
          <Trackpoint>
            <Time>2020-05-25T06:37:24.000Z</Time>
            <Position>
              <LatitudeDegrees>38.18655316717922687530517578125</LatitudeDegrees>
              <LongitudeDegrees>-1.1355133540928363800048828125</LongitudeDegrees>
            </Position>
            <AltitudeMeters>229.8000030517578125</AltitudeMeters>
            <DistanceMeters>NAN</DistanceMeters>
          </Trackpoint>
          <Trackpoint>
            <Time>2020-05-25T06:37:25.000Z</Time>
            <Position>
              <LatitudeDegrees>38.1865130178630352020263671875</LatitudeDegrees>
              <LongitudeDegrees>-1.1354094184935092926025390625</LongitudeDegrees>
            </Position>
            <AltitudeMeters>229.600006103515625</AltitudeMeters>
            <DistanceMeters>NAN</DistanceMeters>
          </Trackpoint>
          <Trackpoint>
            <Time>2020-05-25T06:37:26.000Z</Time>
            <Position>
              <LatitudeDegrees>38.1864742934703826904296875</LatitudeDegrees>
              <LongitudeDegrees>-1.13530321978032588958740234375</LongitudeDegrees>
            </Position>
            <AltitudeMeters>229.1999969482421875</AltitudeMeters>
            <DistanceMeters>NAN</DistanceMeters>
          </Trackpoint>
          <Trackpoint>
            <Time>2020-05-25T06:37:27.000Z</Time>
            <Position>
              <LatitudeDegrees>38.18643732927739620208740234375</LatitudeDegrees>
              <LongitudeDegrees>-1.13519626669585704803466796875</LongitudeDegrees>
            </Position>
            <AltitudeMeters>229.1999969482421875</AltitudeMeters>
            <DistanceMeters>NAN</DistanceMeters>
          </Trackpoint>
          <Trackpoint>
            <Time>2020-05-25T06:37:28.000Z</Time>
            <Position>
              <LatitudeDegrees>38.18640262819826602935791015625</LatitudeDegrees>
              <LongitudeDegrees>-1.13508864305913448333740234375</LongitudeDegrees>
            </Position>
            <AltitudeMeters>228.8000030517578125</AltitudeMeters>
            <DistanceMeters>NAN</DistanceMeters>
          </Trackpoint>
          <Trackpoint>
            <Time>2020-05-25T06:37:29.000Z</Time>
            <Position>
              <LatitudeDegrees>38.18636792711913585662841796875</LatitudeDegrees>
              <LongitudeDegrees>-1.1349802650511264801025390625</LongitudeDegrees>
            </Position>
            <AltitudeMeters>228.8000030517578125</AltitudeMeters>
            <DistanceMeters>NAN</DistanceMeters>
          </Trackpoint>
          <Trackpoint>
            <Time>2020-05-25T06:37:30.000Z</Time>
            <Position>
              <LatitudeDegrees>38.18633272312581539154052734375</LatitudeDegrees>
              <LongitudeDegrees>-1.13487146794795989990234375</LongitudeDegrees>
            </Position>
            <AltitudeMeters>228.600006103515625</AltitudeMeters>
            <DistanceMeters>NAN</DistanceMeters>
          </Trackpoint>
          <Trackpoint>
            <Time>2020-05-25T06:37:31.000Z</Time>
            <Position>
              <LatitudeDegrees>38.18629601038992404937744140625</LatitudeDegrees>
              <LongitudeDegrees>-1.134763844311237335205078125</LongitudeDegrees>
            </Position>
            <AltitudeMeters>228.399993896484375</AltitudeMeters>
            <DistanceMeters>NAN</DistanceMeters>
          </Trackpoint>
          <Trackpoint>
            <Time>2020-05-25T06:37:32.000Z</Time>
            <Position>
              <LatitudeDegrees>38.186260052025318145751953125</LatitudeDegrees>
              <LongitudeDegrees>-1.13465747795999050140380859375</LongitudeDegrees>
            </Position>
            <AltitudeMeters>228.1999969482421875</AltitudeMeters>
            <DistanceMeters>NAN</DistanceMeters>
          </Trackpoint>
          <Trackpoint>
            <Time>2020-05-25T06:37:33.000Z</Time>
            <Position>
              <LatitudeDegrees>38.18622551858425140380859375</LatitudeDegrees>
              <LongitudeDegrees>-1.13454985432326793670654296875</LongitudeDegrees>
            </Position>
            <AltitudeMeters>228.1999969482421875</AltitudeMeters>
            <DistanceMeters>NAN</DistanceMeters>
          </Trackpoint>
          <Trackpoint>
            <Time>2020-05-25T06:37:34.000Z</Time>
            <Position>
              <LatitudeDegrees>38.18619123660027980804443359375</LatitudeDegrees>
              <LongitudeDegrees>-1.1344416439533233642578125</LongitudeDegrees>
            </Position>
            <AltitudeMeters>228</AltitudeMeters>
            <DistanceMeters>NAN</DistanceMeters>
          </Trackpoint>
          <Trackpoint>
            <Time>2020-05-25T06:37:35.000Z</Time>
            <Position>
              <LatitudeDegrees>38.1861551105976104736328125</LatitudeDegrees>
              <LongitudeDegrees>-1.13433712162077426910400390625</LongitudeDegrees>
            </Position>
            <AltitudeMeters>227.8000030517578125</AltitudeMeters>
            <DistanceMeters>NAN</DistanceMeters>
          </Trackpoint>
          <Trackpoint>
            <Time>2020-05-25T06:37:36.000Z</Time>
            <Position>
              <LatitudeDegrees>38.1861163862049579620361328125</LatitudeDegrees>
              <LongitudeDegrees>-1.13423352129757404327392578125</LongitudeDegrees>
            </Position>
            <AltitudeMeters>227.8000030517578125</AltitudeMeters>
            <DistanceMeters>NAN</DistanceMeters>
          </Trackpoint>
          <Trackpoint>
            <Time>2020-05-25T06:37:37.000Z</Time>
            <Position>
              <LatitudeDegrees>38.18607489578425884246826171875</LatitudeDegrees>
              <LongitudeDegrees>-1.134130172431468963623046875</LongitudeDegrees>
            </Position>
            <AltitudeMeters>227.600006103515625</AltitudeMeters>
            <DistanceMeters>NAN</DistanceMeters>
          </Trackpoint>
          <Trackpoint>
            <Time>2020-05-25T06:37:38.000Z</Time>
            <Position>
              <LatitudeDegrees>38.1860325671732425689697265625</LatitudeDegrees>
              <LongitudeDegrees>-1.1340285837650299072265625</LongitudeDegrees>
            </Position>
            <AltitudeMeters>227.399993896484375</AltitudeMeters>
            <DistanceMeters>NAN</DistanceMeters>
          </Trackpoint>
          <Trackpoint>
            <Time>2020-05-25T06:37:39.000Z</Time>
            <Position>
              <LatitudeDegrees>38.18598956800997257232666015625</LatitudeDegrees>
              <LongitudeDegrees>-1.1339268274605274200439453125</LongitudeDegrees>
            </Position>
            <AltitudeMeters>227.1999969482421875</AltitudeMeters>
            <DistanceMeters>NAN</DistanceMeters>
          </Trackpoint>
          <Trackpoint>
            <Time>2020-05-25T06:37:40.000Z</Time>
            <Position>
              <LatitudeDegrees>38.185946233570575714111328125</LatitudeDegrees>
              <LongitudeDegrees>-1.133821718394756317138671875</LongitudeDegrees>
            </Position>
            <AltitudeMeters>227</AltitudeMeters>
            <DistanceMeters>NAN</DistanceMeters>
          </Trackpoint>
          <Trackpoint>
            <Time>2020-05-25T06:37:41.000Z</Time>
            <Position>
              <LatitudeDegrees>38.18590457551181316375732421875</LatitudeDegrees>
              <LongitudeDegrees>-1.13371602259576320648193359375</LongitudeDegrees>
            </Position>
            <AltitudeMeters>226.8000030517578125</AltitudeMeters>
            <DistanceMeters>NAN</DistanceMeters>
          </Trackpoint>
          <Trackpoint>
            <Time>2020-05-25T06:37:42.000Z</Time>
            <Position>
              <LatitudeDegrees>38.1858632527291774749755859375</LatitudeDegrees>
              <LongitudeDegrees>-1.1336109973490238189697265625</LongitudeDegrees>
            </Position>
            <AltitudeMeters>226.600006103515625</AltitudeMeters>
            <DistanceMeters>NAN</DistanceMeters>
          </Trackpoint>
          <Trackpoint>
            <Time>2020-05-25T06:37:43.000Z</Time>
            <Position>
              <LatitudeDegrees>38.18582142703235149383544921875</LatitudeDegrees>
              <LongitudeDegrees>-1.133505888283252716064453125</LongitudeDegrees>
            </Position>
            <AltitudeMeters>226.600006103515625</AltitudeMeters>
            <DistanceMeters>NAN</DistanceMeters>
          </Trackpoint>
          <Trackpoint>
            <Time>2020-05-25T06:37:44.000Z</Time>
            <Position>
              <LatitudeDegrees>38.1857804395258426666259765625</LatitudeDegrees>
              <LongitudeDegrees>-1.13339952193200588226318359375</LongitudeDegrees>
            </Position>
            <AltitudeMeters>226.399993896484375</AltitudeMeters>
            <DistanceMeters>NAN</DistanceMeters>
          </Trackpoint>
          <Trackpoint>
            <Time>2020-05-25T06:37:45.000Z</Time>
            <Position>
              <LatitudeDegrees>38.18574112839996814727783203125</LatitudeDegrees>
              <LongitudeDegrees>-1.13329072482883930206298828125</LongitudeDegrees>
            </Position>
            <AltitudeMeters>226.1999969482421875</AltitudeMeters>
            <DistanceMeters>NAN</DistanceMeters>
          </Trackpoint>
          <Trackpoint>
            <Time>2020-05-25T06:37:46.000Z</Time>
            <Position>
              <LatitudeDegrees>38.1857019849121570587158203125</LatitudeDegrees>
              <LongitudeDegrees>-1.133182682096958160400390625</LongitudeDegrees>
            </Position>
            <AltitudeMeters>226</AltitudeMeters>
            <DistanceMeters>NAN</DistanceMeters>
          </Trackpoint>
          <Trackpoint>
            <Time>2020-05-25T06:37:47.000Z</Time>
            <Position>
              <LatitudeDegrees>38.1856630928814411163330078125</LatitudeDegrees>
              <LongitudeDegrees>-1.1330735497176647186279296875</LongitudeDegrees>
            </Position>
            <AltitudeMeters>225.8000030517578125</AltitudeMeters>
            <DistanceMeters>NAN</DistanceMeters>
          </Trackpoint>
          <Trackpoint>
            <Time>2020-05-25T06:37:48.000Z</Time>
            <Position>
              <LatitudeDegrees>38.18562394939363002777099609375</LatitudeDegrees>
              <LongitudeDegrees>-1.1329645849764347076416015625</LongitudeDegrees>
            </Position>
            <AltitudeMeters>225.600006103515625</AltitudeMeters>
            <DistanceMeters>NAN</DistanceMeters>
          </Trackpoint>
          <Trackpoint>
            <Time>2020-05-25T06:37:49.000Z</Time>
            <Position>
              <LatitudeDegrees>38.18558488972485065460205078125</LatitudeDegrees>
              <LongitudeDegrees>-1.1328576318919658660888671875</LongitudeDegrees>
            </Position>
            <AltitudeMeters>225.399993896484375</AltitudeMeters>
            <DistanceMeters>NAN</DistanceMeters>
          </Trackpoint>
          <Trackpoint>
            <Time>2020-05-25T06:37:50.000Z</Time>
            <Position>
              <LatitudeDegrees>38.18554633297026157379150390625</LatitudeDegrees>
              <LongitudeDegrees>-1.13275277428328990936279296875</LongitudeDegrees>
            </Position>
            <AltitudeMeters>225.1999969482421875</AltitudeMeters>
            <DistanceMeters>NAN</DistanceMeters>
          </Trackpoint>
          <Trackpoint>
            <Time>2020-05-25T06:37:51.000Z</Time>
            <Position>
              <LatitudeDegrees>38.185507021844387054443359375</LatitudeDegrees>
              <LongitudeDegrees>-1.132651269435882568359375</LongitudeDegrees>
            </Position>
            <AltitudeMeters>225.1999969482421875</AltitudeMeters>
            <DistanceMeters>NAN</DistanceMeters>
          </Trackpoint>
          <Trackpoint>
            <Time>2020-05-25T06:37:52.000Z</Time>
            <Position>
              <LatitudeDegrees>38.18546511232852935791015625</LatitudeDegrees>
              <LongitudeDegrees>-1.13255496136844158172607421875</LongitudeDegrees>
            </Position>
            <AltitudeMeters>225</AltitudeMeters>
            <DistanceMeters>NAN</DistanceMeters>
          </Trackpoint>
          <Trackpoint>
            <Time>2020-05-25T06:37:53.000Z</Time>
            <Position>
              <LatitudeDegrees>38.18541943095624446868896484375</LatitudeDegrees>
              <LongitudeDegrees>-1.13246259279549121856689453125</LongitudeDegrees>
            </Position>
            <AltitudeMeters>224.8000030517578125</AltitudeMeters>
            <DistanceMeters>NAN</DistanceMeters>
          </Trackpoint>
          <Trackpoint>
            <Time>2020-05-25T06:37:54.000Z</Time>
            <Position>
              <LatitudeDegrees>38.1853719055652618408203125</LatitudeDegrees>
              <LongitudeDegrees>-1.13237525336444377899169921875</LongitudeDegrees>
            </Position>
            <AltitudeMeters>224.399993896484375</AltitudeMeters>
            <DistanceMeters>NAN</DistanceMeters>
          </Trackpoint>
          <Trackpoint>
            <Time>2020-05-25T06:37:55.000Z</Time>
            <Position>
              <LatitudeDegrees>38.18532320670783519744873046875</LatitudeDegrees>
              <LongitudeDegrees>-1.13228959031403064727783203125</LongitudeDegrees>
            </Position>
            <AltitudeMeters>224.399993896484375</AltitudeMeters>
            <DistanceMeters>NAN</DistanceMeters>
          </Trackpoint>
          <Trackpoint>
            <Time>2020-05-25T06:37:56.000Z</Time>
            <Position>
              <LatitudeDegrees>38.1852748431265354156494140625</LatitudeDegrees>
              <LongitudeDegrees>-1.13220669329166412353515625</LongitudeDegrees>
            </Position>
            <AltitudeMeters>224.1999969482421875</AltitudeMeters>
            <DistanceMeters>NAN</DistanceMeters>
          </Trackpoint>
          <Trackpoint>
            <Time>2020-05-25T06:37:57.000Z</Time>
            <Position>
              <LatitudeDegrees>38.185225389897823333740234375</LatitudeDegrees>
              <LongitudeDegrees>-1.1321247182786464691162109375</LongitudeDegrees>
            </Position>
            <AltitudeMeters>224</AltitudeMeters>
            <DistanceMeters>NAN</DistanceMeters>
          </Trackpoint>
          <Trackpoint>
            <Time>2020-05-25T06:37:58.000Z</Time>
            <Position>
              <LatitudeDegrees>38.1851762719452381134033203125</LatitudeDegrees>
              <LongitudeDegrees>-1.13204433582723140716552734375</LongitudeDegrees>
            </Position>
            <AltitudeMeters>223.8000030517578125</AltitudeMeters>
            <DistanceMeters>NAN</DistanceMeters>
          </Trackpoint>
          <Trackpoint>
            <Time>2020-05-25T06:37:59.000Z</Time>
            <Position>
              <LatitudeDegrees>38.18512757308781147003173828125</LatitudeDegrees>
              <LongitudeDegrees>-1.1319661326706409454345703125</LongitudeDegrees>
            </Position>
            <AltitudeMeters>223.600006103515625</AltitudeMeters>
            <DistanceMeters>NAN</DistanceMeters>
          </Trackpoint>
          <Trackpoint>
            <Time>2020-05-25T06:38:00.000Z</Time>
            <Position>
              <LatitudeDegrees>38.18508046679198741912841796875</LatitudeDegrees>
              <LongitudeDegrees>-1.1318881809711456298828125</LongitudeDegrees>
            </Position>
            <AltitudeMeters>223.399993896484375</AltitudeMeters>
            <DistanceMeters>NAN</DistanceMeters>
          </Trackpoint>
          <Trackpoint>
            <Time>2020-05-25T06:38:01.000Z</Time>
            <Position>
              <LatitudeDegrees>38.185033611953258514404296875</LatitudeDegrees>
              <LongitudeDegrees>-1.13181165419518947601318359375</LongitudeDegrees>
            </Position>
            <AltitudeMeters>223.1999969482421875</AltitudeMeters>
            <DistanceMeters>NAN</DistanceMeters>
          </Trackpoint>
          <Trackpoint>
            <Time>2020-05-25T06:38:02.000Z</Time>
            <Position>
              <LatitudeDegrees>38.18498407490551471710205078125</LatitudeDegrees>
              <LongitudeDegrees>-1.1317361332476139068603515625</LongitudeDegrees>
            </Position>
            <AltitudeMeters>223</AltitudeMeters>
            <DistanceMeters>NAN</DistanceMeters>
          </Trackpoint>
          <Trackpoint>
            <Time>2020-05-25T06:38:03.000Z</Time>
            <Position>
              <LatitudeDegrees>38.18493830971419811248779296875</LatitudeDegrees>
              <LongitudeDegrees>-1.13165608607232570648193359375</LongitudeDegrees>
            </Position>
            <AltitudeMeters>222.8000030517578125</AltitudeMeters>
            <DistanceMeters>NAN</DistanceMeters>
          </Trackpoint>
          <Trackpoint>
            <Time>2020-05-25T06:38:04.000Z</Time>
            <Position>
              <LatitudeDegrees>38.18489103578031063079833984375</LatitudeDegrees>
              <LongitudeDegrees>-1.1315792240202426910400390625</LongitudeDegrees>
            </Position>
            <AltitudeMeters>222.600006103515625</AltitudeMeters>
            <DistanceMeters>NAN</DistanceMeters>
          </Trackpoint>
          <Trackpoint>
            <Time>2020-05-25T06:38:05.000Z</Time>
            <Position>
              <LatitudeDegrees>38.1848423369228839874267578125</LatitudeDegrees>
              <LongitudeDegrees>-1.13150529563426971435546875</LongitudeDegrees>
            </Position>
            <AltitudeMeters>222.399993896484375</AltitudeMeters>
            <DistanceMeters>NAN</DistanceMeters>
          </Trackpoint>
          <Trackpoint>
            <Time>2020-05-25T06:38:06.000Z</Time>
            <Position>
              <LatitudeDegrees>38.1847940571606159210205078125</LatitudeDegrees>
              <LongitudeDegrees>-1.13143161870539188385009765625</LongitudeDegrees>
            </Position>
            <AltitudeMeters>222.399993896484375</AltitudeMeters>
            <DistanceMeters>NAN</DistanceMeters>
          </Trackpoint>
          <Trackpoint>
            <Time>2020-05-25T06:38:07.000Z</Time>
            <Position>
              <LatitudeDegrees>38.1847477890551090240478515625</LatitudeDegrees>
              <LongitudeDegrees>-1.1313559301197528839111328125</LongitudeDegrees>
            </Position>
            <AltitudeMeters>222.399993896484375</AltitudeMeters>
            <DistanceMeters>NAN</DistanceMeters>
          </Trackpoint>
          <Trackpoint>
            <Time>2020-05-25T06:38:08.000Z</Time>
            <Position>
              <LatitudeDegrees>38.18470311351120471954345703125</LatitudeDegrees>
              <LongitudeDegrees>-1.13127873279154300689697265625</LongitudeDegrees>
            </Position>
            <AltitudeMeters>222.1999969482421875</AltitudeMeters>
            <DistanceMeters>NAN</DistanceMeters>
          </Trackpoint>
          <Trackpoint>
            <Time>2020-05-25T06:38:09.000Z</Time>
            <Position>
              <LatitudeDegrees>38.18466070108115673065185546875</LatitudeDegrees>
              <LongitudeDegrees>-1.13120178692042827606201171875</LongitudeDegrees>
            </Position>
            <AltitudeMeters>222</AltitudeMeters>
            <DistanceMeters>NAN</DistanceMeters>
          </Trackpoint>
          <Trackpoint>
            <Time>2020-05-25T06:38:10.000Z</Time>
            <Position>
              <LatitudeDegrees>38.18462021648883819580078125</LatitudeDegrees>
              <LongitudeDegrees>-1.131124086678028106689453125</LongitudeDegrees>
            </Position>
            <AltitudeMeters>221.8000030517578125</AltitudeMeters>
            <DistanceMeters>NAN</DistanceMeters>
          </Trackpoint>
          <Trackpoint>
            <Time>2020-05-25T06:38:11.000Z</Time>
            <Position>
              <LatitudeDegrees>38.184580318629741668701171875</LatitudeDegrees>
              <LongitudeDegrees>-1.1310437880456447601318359375</LongitudeDegrees>
            </Position>
            <AltitudeMeters>221.600006103515625</AltitudeMeters>
            <DistanceMeters>NAN</DistanceMeters>
          </Trackpoint>
          <Trackpoint>
            <Time>2020-05-25T06:38:12.000Z</Time>
            <Position>
              <LatitudeDegrees>38.184540756046772003173828125</LatitudeDegrees>
              <LongitudeDegrees>-1.1309619806706905364990234375</LongitudeDegrees>
            </Position>
            <AltitudeMeters>221.600006103515625</AltitudeMeters>
            <DistanceMeters>NAN</DistanceMeters>
          </Trackpoint>
          <Trackpoint>
            <Time>2020-05-25T06:38:13.000Z</Time>
            <Position>
              <LatitudeDegrees>38.1845016963779926300048828125</LatitudeDegrees>
              <LongitudeDegrees>-1.13088159821927547454833984375</LongitudeDegrees>
            </Position>
            <AltitudeMeters>221.399993896484375</AltitudeMeters>
            <DistanceMeters>NAN</DistanceMeters>
          </Trackpoint>
          <Trackpoint>
            <Time>2020-05-25T06:38:14.000Z</Time>
            <Position>
              <LatitudeDegrees>38.18446355871856212615966796875</LatitudeDegrees>
              <LongitudeDegrees>-1.1308003775775432586669921875</LongitudeDegrees>
            </Position>
            <AltitudeMeters>221.399993896484375</AltitudeMeters>
            <DistanceMeters>NAN</DistanceMeters>
          </Trackpoint>
          <Trackpoint>
            <Time>2020-05-25T06:38:15.000Z</Time>
            <Position>
              <LatitudeDegrees>38.18442299030721187591552734375</LatitudeDegrees>
              <LongitudeDegrees>-1.1307187378406524658203125</LongitudeDegrees>
            </Position>
            <AltitudeMeters>221.1999969482421875</AltitudeMeters>
            <DistanceMeters>NAN</DistanceMeters>
          </Trackpoint>
          <Trackpoint>
            <Time>2020-05-25T06:38:16.000Z</Time>
            <Position>
              <LatitudeDegrees>38.184380494058132171630859375</LatitudeDegrees>
              <LongitudeDegrees>-1.13063785247504711151123046875</LongitudeDegrees>
            </Position>
            <AltitudeMeters>221</AltitudeMeters>
            <DistanceMeters>NAN</DistanceMeters>
          </Trackpoint>
          <Trackpoint>
            <Time>2020-05-25T06:38:17.000Z</Time>
            <Position>
              <LatitudeDegrees>38.184336908161640167236328125</LatitudeDegrees>
              <LongitudeDegrees>-1.13055579364299774169921875</LongitudeDegrees>
            </Position>
            <AltitudeMeters>221</AltitudeMeters>
            <DistanceMeters>NAN</DistanceMeters>
          </Trackpoint>
          <Trackpoint>
            <Time>2020-05-25T06:38:18.000Z</Time>
            <Position>
              <LatitudeDegrees>38.1842951662838459014892578125</LatitudeDegrees>
              <LongitudeDegrees>-1.1304741539061069488525390625</LongitudeDegrees>
            </Position>
            <AltitudeMeters>220.8000030517578125</AltitudeMeters>
            <DistanceMeters>NAN</DistanceMeters>
          </Trackpoint>
          <Trackpoint>
            <Time>2020-05-25T06:38:19.000Z</Time>
            <Position>
              <LatitudeDegrees>38.18425543606281280517578125</LatitudeDegrees>
              <LongitudeDegrees>-1.13039393909275531768798828125</LongitudeDegrees>
            </Position>
            <AltitudeMeters>220.8000030517578125</AltitudeMeters>
            <DistanceMeters>NAN</DistanceMeters>
          </Trackpoint>
          <Trackpoint>
            <Time>2020-05-25T06:38:20.000Z</Time>
            <Position>
              <LatitudeDegrees>38.184218220412731170654296875</LatitudeDegrees>
              <LongitudeDegrees>-1.13031397573649883270263671875</LongitudeDegrees>
            </Position>
            <AltitudeMeters>220.600006103515625</AltitudeMeters>
            <DistanceMeters>NAN</DistanceMeters>
          </Trackpoint>
          <Trackpoint>
            <Time>2020-05-25T06:38:21.000Z</Time>
            <Position>
              <LatitudeDegrees>38.184180669486522674560546875</LatitudeDegrees>
              <LongitudeDegrees>-1.130236275494098663330078125</LongitudeDegrees>
            </Position>
            <AltitudeMeters>220.399993896484375</AltitudeMeters>
            <DistanceMeters>NAN</DistanceMeters>
          </Trackpoint>
          <Trackpoint>
            <Time>2020-05-25T06:38:22.000Z</Time>
            <Position>
              <LatitudeDegrees>38.1841422803699970245361328125</LatitudeDegrees>
              <LongitudeDegrees>-1.13016008399426937103271484375</LongitudeDegrees>
            </Position>
            <AltitudeMeters>220</AltitudeMeters>
            <DistanceMeters>NAN</DistanceMeters>
          </Trackpoint>
          <Trackpoint>
            <Time>2020-05-25T06:38:23.000Z</Time>
            <Position>
              <LatitudeDegrees>38.1841010414063930511474609375</LatitudeDegrees>
              <LongitudeDegrees>-1.13008582033216953277587890625</LongitudeDegrees>
            </Position>
            <AltitudeMeters>219.8000030517578125</AltitudeMeters>
            <DistanceMeters>NAN</DistanceMeters>
          </Trackpoint>
          <Trackpoint>
            <Time>2020-05-25T06:38:24.000Z</Time>
            <Position>
              <LatitudeDegrees>38.18406139500439167022705078125</LatitudeDegrees>
              <LongitudeDegrees>-1.13001021556556224822998046875</LongitudeDegrees>
            </Position>
            <AltitudeMeters>219.8000030517578125</AltitudeMeters>
            <DistanceMeters>NAN</DistanceMeters>
          </Trackpoint>
          <Trackpoint>
            <Time>2020-05-25T06:38:25.000Z</Time>
            <Position>
              <LatitudeDegrees>38.184019736945629119873046875</LatitudeDegrees>
              <LongitudeDegrees>-1.12993310205638408660888671875</LongitudeDegrees>
            </Position>
            <AltitudeMeters>219.600006103515625</AltitudeMeters>
            <DistanceMeters>NAN</DistanceMeters>
          </Trackpoint>
          <Trackpoint>
            <Time>2020-05-25T06:38:26.000Z</Time>
            <Position>
              <LatitudeDegrees>38.18397648632526397705078125</LatitudeDegrees>
              <LongitudeDegrees>-1.12985867075622081756591796875</LongitudeDegrees>
            </Position>
            <AltitudeMeters>219.399993896484375</AltitudeMeters>
            <DistanceMeters>NAN</DistanceMeters>
          </Trackpoint>
          <Trackpoint>
            <Time>2020-05-25T06:38:27.000Z</Time>
            <Position>
              <LatitudeDegrees>38.18393767811357975006103515625</LatitudeDegrees>
              <LongitudeDegrees>-1.12978440709412097930908203125</LongitudeDegrees>
            </Position>
            <AltitudeMeters>219.399993896484375</AltitudeMeters>
            <DistanceMeters>NAN</DistanceMeters>
          </Trackpoint>
          <Trackpoint>
            <Time>2020-05-25T06:38:28.000Z</Time>
            <Position>
              <LatitudeDegrees>38.18389928899705410003662109375</LatitudeDegrees>
              <LongitudeDegrees>-1.1297083832323551177978515625</LongitudeDegrees>
            </Position>
            <AltitudeMeters>219.399993896484375</AltitudeMeters>
            <DistanceMeters>NAN</DistanceMeters>
          </Trackpoint>
          <Trackpoint>
            <Time>2020-05-25T06:38:29.000Z</Time>
            <Position>
              <LatitudeDegrees>38.183859474956989288330078125</LatitudeDegrees>
              <LongitudeDegrees>-1.12963520921766757965087890625</LongitudeDegrees>
            </Position>
            <AltitudeMeters>219.1999969482421875</AltitudeMeters>
            <DistanceMeters>NAN</DistanceMeters>
          </Trackpoint>
          <Trackpoint>
            <Time>2020-05-25T06:38:30.000Z</Time>
            <Position>
              <LatitudeDegrees>38.18381966091692447662353515625</LatitudeDegrees>
              <LongitudeDegrees>-1.129560358822345733642578125</LongitudeDegrees>
            </Position>
            <AltitudeMeters>219</AltitudeMeters>
            <DistanceMeters>NAN</DistanceMeters>
          </Trackpoint>
          <Trackpoint>
            <Time>2020-05-25T06:38:31.000Z</Time>
            <Position>
              <LatitudeDegrees>38.1837815232574939727783203125</LatitudeDegrees>
              <LongitudeDegrees>-1.12948383204638957977294921875</LongitudeDegrees>
            </Position>
            <AltitudeMeters>219</AltitudeMeters>
            <DistanceMeters>NAN</DistanceMeters>
          </Trackpoint>
          <Trackpoint>
            <Time>2020-05-25T06:38:32.000Z</Time>
            <Position>
              <LatitudeDegrees>38.18374313414096832275390625</LatitudeDegrees>
              <LongitudeDegrees>-1.12940856255590915679931640625</LongitudeDegrees>
            </Position>
            <AltitudeMeters>218.8000030517578125</AltitudeMeters>
            <DistanceMeters>NAN</DistanceMeters>
          </Trackpoint>
          <Trackpoint>
            <Time>2020-05-25T06:38:33.000Z</Time>
            <Position>
              <LatitudeDegrees>38.18370432592928409576416015625</LatitudeDegrees>
              <LongitudeDegrees>-1.12933463416993618011474609375</LongitudeDegrees>
            </Position>
            <AltitudeMeters>218.600006103515625</AltitudeMeters>
            <DistanceMeters>NAN</DistanceMeters>
          </Trackpoint>
          <Trackpoint>
            <Time>2020-05-25T06:38:34.000Z</Time>
            <Position>
              <LatitudeDegrees>38.183663673698902130126953125</LatitudeDegrees>
              <LongitudeDegrees>-1.1292604543268680572509765625</LongitudeDegrees>
            </Position>
            <AltitudeMeters>218.399993896484375</AltitudeMeters>
            <DistanceMeters>NAN</DistanceMeters>
          </Trackpoint>
          <Trackpoint>
            <Time>2020-05-25T06:38:35.000Z</Time>
            <Position>
              <LatitudeDegrees>38.1836246140301227569580078125</LatitudeDegrees>
              <LongitudeDegrees>-1.129182167351245880126953125</LongitudeDegrees>
            </Position>
            <AltitudeMeters>218.399993896484375</AltitudeMeters>
            <DistanceMeters>NAN</DistanceMeters>
          </Trackpoint>
          <Trackpoint>
            <Time>2020-05-25T06:38:36.000Z</Time>
            <Position>
              <LatitudeDegrees>38.18358547054231166839599609375</LatitudeDegrees>
              <LongitudeDegrees>-1.1291062273085117340087890625</LongitudeDegrees>
            </Position>
            <AltitudeMeters>218.1999969482421875</AltitudeMeters>
            <DistanceMeters>NAN</DistanceMeters>
          </Trackpoint>
          <Trackpoint>
            <Time>2020-05-25T06:38:37.000Z</Time>
            <Position>
              <LatitudeDegrees>38.18354926072061061859130859375</LatitudeDegrees>
              <LongitudeDegrees>-1.1290307901799678802490234375</LongitudeDegrees>
            </Position>
            <AltitudeMeters>218.1999969482421875</AltitudeMeters>
            <DistanceMeters>NAN</DistanceMeters>
          </Trackpoint>
          <Trackpoint>
            <Time>2020-05-25T06:38:38.000Z</Time>
            <Position>
              <LatitudeDegrees>38.18351388908922672271728515625</LatitudeDegrees>
              <LongitudeDegrees>-1.128956191241741180419921875</LongitudeDegrees>
            </Position>
            <AltitudeMeters>218</AltitudeMeters>
            <DistanceMeters>NAN</DistanceMeters>
          </Trackpoint>
          <Trackpoint>
            <Time>2020-05-25T06:38:39.000Z</Time>
            <Position>
              <LatitudeDegrees>38.18347952328622341156005859375</LatitudeDegrees>
              <LongitudeDegrees>-1.12888209521770477294921875</LongitudeDegrees>
            </Position>
            <AltitudeMeters>217.8000030517578125</AltitudeMeters>
            <DistanceMeters>NAN</DistanceMeters>
          </Trackpoint>
          <Trackpoint>
            <Time>2020-05-25T06:38:40.000Z</Time>
            <Position>
              <LatitudeDegrees>38.1834455765783786773681640625</LatitudeDegrees>
              <LongitudeDegrees>-1.12880439497530460357666015625</LongitudeDegrees>
            </Position>
            <AltitudeMeters>217.8000030517578125</AltitudeMeters>
            <DistanceMeters>NAN</DistanceMeters>
          </Trackpoint>
          <Trackpoint>
            <Time>2020-05-25T06:38:41.000Z</Time>
            <Position>
              <LatitudeDegrees>38.18341414444148540496826171875</LatitudeDegrees>
              <LongitudeDegrees>-1.12872652709484100341796875</LongitudeDegrees>
            </Position>
            <AltitudeMeters>217.600006103515625</AltitudeMeters>
            <DistanceMeters>NAN</DistanceMeters>
          </Trackpoint>
          <Trackpoint>
            <Time>2020-05-25T06:38:42.000Z</Time>
            <Position>
              <LatitudeDegrees>38.18338111974298954010009765625</LatitudeDegrees>
              <LongitudeDegrees>-1.12865276634693145751953125</LongitudeDegrees>
            </Position>
            <AltitudeMeters>217.1999969482421875</AltitudeMeters>
            <DistanceMeters>NAN</DistanceMeters>
          </Trackpoint>
          <Trackpoint>
            <Time>2020-05-25T06:38:43.000Z</Time>
            <Position>
              <LatitudeDegrees>38.18334759213030338287353515625</LatitudeDegrees>
              <LongitudeDegrees>-1.1285781674087047576904296875</LongitudeDegrees>
            </Position>
            <AltitudeMeters>217.1999969482421875</AltitudeMeters>
            <DistanceMeters>NAN</DistanceMeters>
          </Trackpoint>
          <Trackpoint>
            <Time>2020-05-25T06:38:44.000Z</Time>
            <Position>
              <LatitudeDegrees>38.18331356160342693328857421875</LatitudeDegrees>
              <LongitudeDegrees>-1.12850583158433437347412109375</LongitudeDegrees>
            </Position>
            <AltitudeMeters>217</AltitudeMeters>
            <DistanceMeters>NAN</DistanceMeters>
          </Trackpoint>
          <Trackpoint>
            <Time>2020-05-25T06:38:45.000Z</Time>
            <Position>
              <LatitudeDegrees>38.1832806207239627838134765625</LatitudeDegrees>
              <LongitudeDegrees>-1.12843777053058147430419921875</LongitudeDegrees>
            </Position>
            <AltitudeMeters>217</AltitudeMeters>
            <DistanceMeters>NAN</DistanceMeters>
          </Trackpoint>
          <Trackpoint>
            <Time>2020-05-25T06:38:46.000Z</Time>
            <Position>
              <LatitudeDegrees>38.18325036205351352691650390625</LatitudeDegrees>
              <LongitudeDegrees>-1.12836283631622791290283203125</LongitudeDegrees>
            </Position>
            <AltitudeMeters>216.8000030517578125</AltitudeMeters>
            <DistanceMeters>NAN</DistanceMeters>
          </Trackpoint>
          <Trackpoint>
            <Time>2020-05-25T06:38:47.000Z</Time>
            <Position>
              <LatitudeDegrees>38.18322471342980861663818359375</LatitudeDegrees>
              <LongitudeDegrees>-1.12829075194895267486572265625</LongitudeDegrees>
            </Position>
            <AltitudeMeters>216.8000030517578125</AltitudeMeters>
            <DistanceMeters>NAN</DistanceMeters>
          </Trackpoint>
          <Trackpoint>
            <Time>2020-05-25T06:38:48.000Z</Time>
            <Position>
              <LatitudeDegrees>38.18320090882480144500732421875</LatitudeDegrees>
              <LongitudeDegrees>-1.12822051160037517547607421875</LongitudeDegrees>
            </Position>
            <AltitudeMeters>216.600006103515625</AltitudeMeters>
            <DistanceMeters>NAN</DistanceMeters>
          </Trackpoint>
          <Trackpoint>
            <Time>2020-05-25T06:38:49.000Z</Time>
            <Position>
              <LatitudeDegrees>38.183177523314952850341796875</LatitudeDegrees>
              <LongitudeDegrees>-1.128150522708892822265625</LongitudeDegrees>
            </Position>
            <AltitudeMeters>216.399993896484375</AltitudeMeters>
            <DistanceMeters>NAN</DistanceMeters>
          </Trackpoint>
          <Trackpoint>
            <Time>2020-05-25T06:38:50.000Z</Time>
            <Position>
              <LatitudeDegrees>38.183153383433818817138671875</LatitudeDegrees>
              <LongitudeDegrees>-1.12807399593293666839599609375</LongitudeDegrees>
            </Position>
            <AltitudeMeters>216.1999969482421875</AltitudeMeters>
            <DistanceMeters>NAN</DistanceMeters>
          </Trackpoint>
          <Trackpoint>
            <Time>2020-05-25T06:38:51.000Z</Time>
            <Position>
              <LatitudeDegrees>38.18313016556203365325927734375</LatitudeDegrees>
              <LongitudeDegrees>-1.12799721769988536834716796875</LongitudeDegrees>
            </Position>
            <AltitudeMeters>216</AltitudeMeters>
            <DistanceMeters>NAN</DistanceMeters>
          </Trackpoint>
          <Trackpoint>
            <Time>2020-05-25T06:38:52.000Z</Time>
            <Position>
              <LatitudeDegrees>38.18310937844216823577880859375</LatitudeDegrees>
              <LongitudeDegrees>-1.12791624851524829864501953125</LongitudeDegrees>
            </Position>
            <AltitudeMeters>215.8000030517578125</AltitudeMeters>
            <DistanceMeters>NAN</DistanceMeters>
          </Trackpoint>
          <Trackpoint>
            <Time>2020-05-25T06:38:53.000Z</Time>
            <Position>
              <LatitudeDegrees>38.18308875896036624908447265625</LatitudeDegrees>
              <LongitudeDegrees>-1.12783444114029407501220703125</LongitudeDegrees>
            </Position>
            <AltitudeMeters>215.600006103515625</AltitudeMeters>
            <DistanceMeters>NAN</DistanceMeters>
          </Trackpoint>
          <Trackpoint>
            <Time>2020-05-25T06:38:54.000Z</Time>
            <Position>
              <LatitudeDegrees>38.18306596018373966217041015625</LatitudeDegrees>
              <LongitudeDegrees>-1.1277564056217670440673828125</LongitudeDegrees>
            </Position>
            <AltitudeMeters>215.399993896484375</AltitudeMeters>
            <DistanceMeters>NAN</DistanceMeters>
          </Trackpoint>
          <Trackpoint>
            <Time>2020-05-25T06:38:55.000Z</Time>
            <Position>
              <LatitudeDegrees>38.18304316140711307525634765625</LatitudeDegrees>
              <LongitudeDegrees>-1.12768021412193775177001953125</LongitudeDegrees>
            </Position>
            <AltitudeMeters>215.399993896484375</AltitudeMeters>
            <DistanceMeters>NAN</DistanceMeters>
          </Trackpoint>
          <Trackpoint>
            <Time>2020-05-25T06:38:56.000Z</Time>
            <Position>
              <LatitudeDegrees>38.18301784805953502655029296875</LatitudeDegrees>
              <LongitudeDegrees>-1.12760192714631557464599609375</LongitudeDegrees>
            </Position>
            <AltitudeMeters>215.399993896484375</AltitudeMeters>
            <DistanceMeters>NAN</DistanceMeters>
          </Trackpoint>
          <Trackpoint>
            <Time>2020-05-25T06:38:57.000Z</Time>
            <Position>
              <LatitudeDegrees>38.18299521692097187042236328125</LatitudeDegrees>
              <LongitudeDegrees>-1.1275243945419788360595703125</LongitudeDegrees>
            </Position>
            <AltitudeMeters>215.1999969482421875</AltitudeMeters>
            <DistanceMeters>NAN</DistanceMeters>
          </Trackpoint>
          <Trackpoint>
            <Time>2020-05-25T06:38:58.000Z</Time>
            <Position>
              <LatitudeDegrees>38.18296923302114009857177734375</LatitudeDegrees>
              <LongitudeDegrees>-1.12744283862411975860595703125</LongitudeDegrees>
            </Position>
            <AltitudeMeters>215.1999969482421875</AltitudeMeters>
            <DistanceMeters>NAN</DistanceMeters>
          </Trackpoint>
          <Trackpoint>
            <Time>2020-05-25T06:38:59.000Z</Time>
            <Position>
              <LatitudeDegrees>38.18294224329292774200439453125</LatitudeDegrees>
              <LongitudeDegrees>-1.12736807204782962799072265625</LongitudeDegrees>
            </Position>
            <AltitudeMeters>214.8000030517578125</AltitudeMeters>
            <DistanceMeters>NAN</DistanceMeters>
          </Trackpoint>
          <Trackpoint>
            <Time>2020-05-25T06:39:00.000Z</Time>
            <Position>
              <LatitudeDegrees>38.18291558884084224700927734375</LatitudeDegrees>
              <LongitudeDegrees>-1.12730151973664760589599609375</LongitudeDegrees>
            </Position>
            <AltitudeMeters>214.8000030517578125</AltitudeMeters>
            <DistanceMeters>NAN</DistanceMeters>
          </Trackpoint>
          <Trackpoint>
            <Time>2020-05-25T06:39:01.000Z</Time>
            <Position>
              <LatitudeDegrees>38.18289144895970821380615234375</LatitudeDegrees>
              <LongitudeDegrees>-1.12724586389958858489990234375</LongitudeDegrees>
            </Position>
            <AltitudeMeters>214.600006103515625</AltitudeMeters>
            <DistanceMeters>NAN</DistanceMeters>
          </Trackpoint>
          <Trackpoint>
            <Time>2020-05-25T06:39:02.000Z</Time>
            <Position>
              <LatitudeDegrees>38.18287007510662078857421875</LatitudeDegrees>
              <LongitudeDegrees>-1.12720261327922344207763671875</LongitudeDegrees>
            </Position>
            <AltitudeMeters>214.399993896484375</AltitudeMeters>
            <DistanceMeters>NAN</DistanceMeters>
          </Trackpoint>
          <Trackpoint>
            <Time>2020-05-25T06:39:03.000Z</Time>
            <Position>
              <LatitudeDegrees>38.18285238929092884063720703125</LatitudeDegrees>
              <LongitudeDegrees>-1.12716414034366607666015625</LongitudeDegrees>
            </Position>
            <AltitudeMeters>214.399993896484375</AltitudeMeters>
            <DistanceMeters>NAN</DistanceMeters>
          </Trackpoint>
          <Trackpoint>
            <Time>2020-05-25T06:39:04.000Z</Time>
            <Position>
              <LatitudeDegrees>38.1828347034752368927001953125</LatitudeDegrees>
              <LongitudeDegrees>-1.12713354639708995819091796875</LongitudeDegrees>
            </Position>
            <AltitudeMeters>214.1999969482421875</AltitudeMeters>
            <DistanceMeters>NAN</DistanceMeters>
          </Trackpoint>
          <Trackpoint>
            <Time>2020-05-25T06:39:05.000Z</Time>
            <Position>
              <LatitudeDegrees>38.18281886167824268341064453125</LatitudeDegrees>
              <LongitudeDegrees>-1.1271111667156219482421875</LongitudeDegrees>
            </Position>
            <AltitudeMeters>214.1999969482421875</AltitudeMeters>
            <DistanceMeters>NAN</DistanceMeters>
          </Trackpoint>
          <Trackpoint>
            <Time>2020-05-25T06:39:06.000Z</Time>
            <Position>
              <LatitudeDegrees>38.18280746228992938995361328125</LatitudeDegrees>
              <LongitudeDegrees>-1.127095408737659454345703125</LongitudeDegrees>
            </Position>
            <AltitudeMeters>214.1999969482421875</AltitudeMeters>
            <DistanceMeters>NAN</DistanceMeters>
          </Trackpoint>
          <Trackpoint>
            <Time>2020-05-25T06:39:07.000Z</Time>
            <Position>
              <LatitudeDegrees>38.18279857747256755828857421875</LatitudeDegrees>
              <LongitudeDegrees>-1.12708912231028079986572265625</LongitudeDegrees>
            </Position>
            <AltitudeMeters>214.1999969482421875</AltitudeMeters>
            <DistanceMeters>NAN</DistanceMeters>
          </Trackpoint>
          <Trackpoint>
            <Time>2020-05-25T06:39:08.000Z</Time>
            <Position>
              <LatitudeDegrees>38.18278751336038112640380859375</LatitudeDegrees>
              <LongitudeDegrees>-1.127077974379062652587890625</LongitudeDegrees>
            </Position>
            <AltitudeMeters>214</AltitudeMeters>
            <DistanceMeters>NAN</DistanceMeters>
          </Trackpoint>
          <Trackpoint>
            <Time>2020-05-25T06:39:09.000Z</Time>
            <Position>
              <LatitudeDegrees>38.18277477286756038665771484375</LatitudeDegrees>
              <LongitudeDegrees>-1.1270640604197978973388671875</LongitudeDegrees>
            </Position>
            <AltitudeMeters>214</AltitudeMeters>
            <DistanceMeters>NAN</DistanceMeters>
          </Trackpoint>
          <Trackpoint>
            <Time>2020-05-25T06:39:10.000Z</Time>
            <Position>
              <LatitudeDegrees>38.1827632896602153778076171875</LatitudeDegrees>
              <LongitudeDegrees>-1.127045452594757080078125</LongitudeDegrees>
            </Position>
            <AltitudeMeters>214</AltitudeMeters>
            <DistanceMeters>NAN</DistanceMeters>
          </Trackpoint>
          <Trackpoint>
            <Time>2020-05-25T06:39:11.000Z</Time>
            <Position>
              <LatitudeDegrees>38.18274929188191890716552734375</LatitudeDegrees>
              <LongitudeDegrees>-1.12702541984617710113525390625</LongitudeDegrees>
            </Position>
            <AltitudeMeters>214</AltitudeMeters>
            <DistanceMeters>NAN</DistanceMeters>
          </Trackpoint>
          <Trackpoint>
            <Time>2020-05-25T06:39:12.000Z</Time>
            <Position>
              <LatitudeDegrees>38.182734288275241851806640625</LatitudeDegrees>
              <LongitudeDegrees>-1.12701703794300556182861328125</LongitudeDegrees>
            </Position>
            <AltitudeMeters>214</AltitudeMeters>
            <DistanceMeters>NAN</DistanceMeters>
          </Trackpoint>
          <Trackpoint>
            <Time>2020-05-25T06:39:13.000Z</Time>
            <Position>
              <LatitudeDegrees>38.182730935513973236083984375</LatitudeDegrees>
              <LongitudeDegrees>-1.1270127631723880767822265625</LongitudeDegrees>
            </Position>
            <AltitudeMeters>214</AltitudeMeters>
            <DistanceMeters>NAN</DistanceMeters>
          </Trackpoint>
          <Trackpoint>
            <Time>2020-05-25T06:39:14.000Z</Time>
            <Position>
              <LatitudeDegrees>38.18272414617240428924560546875</LatitudeDegrees>
              <LongitudeDegrees>-1.12700295634567737579345703125</LongitudeDegrees>
            </Position>
            <AltitudeMeters>214</AltitudeMeters>
            <DistanceMeters>NAN</DistanceMeters>
          </Trackpoint>
          <Trackpoint>
            <Time>2020-05-25T06:39:15.000Z</Time>
            <Position>
              <LatitudeDegrees>38.182716183364391326904296875</LatitudeDegrees>
              <LongitudeDegrees>-1.12700094468891620635986328125</LongitudeDegrees>
            </Position>
            <AltitudeMeters>214</AltitudeMeters>
            <DistanceMeters>NAN</DistanceMeters>
          </Trackpoint>
          <Trackpoint>
            <Time>2020-05-25T06:57:15.000Z</Time>
            <Position>
              <LatitudeDegrees>38.18252717144787311553955078125</LatitudeDegrees>
              <LongitudeDegrees>-1.1267784051597118377685546875</LongitudeDegrees>
            </Position>
            <AltitudeMeters>211.600006103515625</AltitudeMeters>
            <DistanceMeters>NAN</DistanceMeters>
          </Trackpoint>
          <Trackpoint>
            <Time>2020-05-25T06:57:16.000Z</Time>
            <Position>
              <LatitudeDegrees>38.1825175322592258453369140625</LatitudeDegrees>
              <LongitudeDegrees>-1.126787625253200531005859375</LongitudeDegrees>
            </Position>
            <AltitudeMeters>211.399993896484375</AltitudeMeters>
            <DistanceMeters>NAN</DistanceMeters>
          </Trackpoint>
          <Trackpoint>
            <Time>2020-05-25T06:57:17.000Z</Time>
            <Position>
              <LatitudeDegrees>38.1825098209083080291748046875</LatitudeDegrees>
              <LongitudeDegrees>-1.12679894082248210906982421875</LongitudeDegrees>
            </Position>
            <AltitudeMeters>211.600006103515625</AltitudeMeters>
            <DistanceMeters>NAN</DistanceMeters>
          </Trackpoint>
          <Trackpoint>
            <Time>2020-05-25T06:57:18.000Z</Time>
            <Position>
              <LatitudeDegrees>38.18249733187258243560791015625</LatitudeDegrees>
              <LongitudeDegrees>-1.12682123668491840362548828125</LongitudeDegrees>
            </Position>
            <AltitudeMeters>211.399993896484375</AltitudeMeters>
            <DistanceMeters>NAN</DistanceMeters>
          </Trackpoint>
          <Trackpoint>
            <Time>2020-05-25T06:57:19.000Z</Time>
            <Position>
              <LatitudeDegrees>38.182486183941364288330078125</LatitudeDegrees>
              <LongitudeDegrees>-1.126831881701946258544921875</LongitudeDegrees>
            </Position>
            <AltitudeMeters>211.399993896484375</AltitudeMeters>
            <DistanceMeters>NAN</DistanceMeters>
          </Trackpoint>
          <Trackpoint>
            <Time>2020-05-25T06:57:20.000Z</Time>
            <Position>
              <LatitudeDegrees>38.18247587420046329498291015625</LatitudeDegrees>
              <LongitudeDegrees>-1.12684168852865695953369140625</LongitudeDegrees>
            </Position>
            <AltitudeMeters>211.399993896484375</AltitudeMeters>
            <DistanceMeters>NAN</DistanceMeters>
          </Trackpoint>
          <Trackpoint>
            <Time>2020-05-25T06:57:21.000Z</Time>
            <Position>
              <LatitudeDegrees>38.1824682466685771942138671875</LatitudeDegrees>
              <LongitudeDegrees>-1.126851327717304229736328125</LongitudeDegrees>
            </Position>
            <AltitudeMeters>211.399993896484375</AltitudeMeters>
            <DistanceMeters>NAN</DistanceMeters>
          </Trackpoint>
          <Trackpoint>
            <Time>2020-05-25T06:57:22.000Z</Time>
            <Position>
              <LatitudeDegrees>38.18245776928961277008056640625</LatitudeDegrees>
              <LongitudeDegrees>-1.1268639005720615386962890625</LongitudeDegrees>
            </Position>
            <AltitudeMeters>211.600006103515625</AltitudeMeters>
            <DistanceMeters>NAN</DistanceMeters>
          </Trackpoint>
          <Trackpoint>
            <Time>2020-05-25T06:57:23.000Z</Time>
            <Position>
              <LatitudeDegrees>38.18244636990129947662353515625</LatitudeDegrees>
              <LongitudeDegrees>-1.126884520053863525390625</LongitudeDegrees>
            </Position>
            <AltitudeMeters>211.600006103515625</AltitudeMeters>
            <DistanceMeters>NAN</DistanceMeters>
          </Trackpoint>
          <Trackpoint>
            <Time>2020-05-25T06:57:24.000Z</Time>
            <Position>
              <LatitudeDegrees>38.18242977373301982879638671875</LatitudeDegrees>
              <LongitudeDegrees>-1.12690723501145839691162109375</LongitudeDegrees>
            </Position>
            <AltitudeMeters>211.600006103515625</AltitudeMeters>
            <DistanceMeters>NAN</DistanceMeters>
          </Trackpoint>
          <Trackpoint>
            <Time>2020-05-25T06:57:25.000Z</Time>
            <Position>
              <LatitudeDegrees>38.18241267465054988861083984375</LatitudeDegrees>
              <LongitudeDegrees>-1.12693347036838531494140625</LongitudeDegrees>
            </Position>
            <AltitudeMeters>211.600006103515625</AltitudeMeters>
            <DistanceMeters>NAN</DistanceMeters>
          </Trackpoint>
          <Trackpoint>
            <Time>2020-05-25T06:57:26.000Z</Time>
            <Position>
              <LatitudeDegrees>38.1823884509503841400146484375</LatitudeDegrees>
              <LongitudeDegrees>-1.126963980495929718017578125</LongitudeDegrees>
            </Position>
            <AltitudeMeters>211.600006103515625</AltitudeMeters>
            <DistanceMeters>NAN</DistanceMeters>
          </Trackpoint>
          <Trackpoint>
            <Time>2020-05-25T06:57:27.000Z</Time>
            <Position>
              <LatitudeDegrees>38.18235483951866626739501953125</LatitudeDegrees>
              <LongitudeDegrees>-1.12700195051729679107666015625</LongitudeDegrees>
            </Position>
            <AltitudeMeters>211.8000030517578125</AltitudeMeters>
            <DistanceMeters>NAN</DistanceMeters>
          </Trackpoint>
          <Trackpoint>
            <Time>2020-05-25T06:57:28.000Z</Time>
            <Position>
              <LatitudeDegrees>38.1823200546205043792724609375</LatitudeDegrees>
              <LongitudeDegrees>-1.1270456202328205108642578125</LongitudeDegrees>
            </Position>
            <AltitudeMeters>211.8000030517578125</AltitudeMeters>
            <DistanceMeters>NAN</DistanceMeters>
          </Trackpoint>
          <Trackpoint>
            <Time>2020-05-25T06:57:29.000Z</Time>
            <Position>
              <LatitudeDegrees>38.18228577263653278350830078125</LatitudeDegrees>
              <LongitudeDegrees>-1.127083338797092437744140625</LongitudeDegrees>
            </Position>
            <AltitudeMeters>211.8000030517578125</AltitudeMeters>
            <DistanceMeters>NAN</DistanceMeters>
          </Trackpoint>
          <Trackpoint>
            <Time>2020-05-25T06:57:30.000Z</Time>
            <Position>
              <LatitudeDegrees>38.1822573579847812652587890625</LatitudeDegrees>
              <LongitudeDegrees>-1.12712415866553783416748046875</LongitudeDegrees>
            </Position>
            <AltitudeMeters>211.600006103515625</AltitudeMeters>
            <DistanceMeters>NAN</DistanceMeters>
          </Trackpoint>
          <Trackpoint>
            <Time>2020-05-25T06:57:31.000Z</Time>
            <Position>
              <LatitudeDegrees>38.18221167661249637603759765625</LatitudeDegrees>
              <LongitudeDegrees>-1.1271763779222965240478515625</LongitudeDegrees>
            </Position>
            <AltitudeMeters>211.600006103515625</AltitudeMeters>
            <DistanceMeters>NAN</DistanceMeters>
          </Trackpoint>
          <Trackpoint>
            <Time>2020-05-25T06:57:32.000Z</Time>
            <Position>
              <LatitudeDegrees>38.18217194639146327972412109375</LatitudeDegrees>
              <LongitudeDegrees>-1.1272243224084377288818359375</LongitudeDegrees>
            </Position>
            <AltitudeMeters>211.600006103515625</AltitudeMeters>
            <DistanceMeters>NAN</DistanceMeters>
          </Trackpoint>
          <Trackpoint>
            <Time>2020-05-25T06:57:33.000Z</Time>
            <Position>
              <LatitudeDegrees>38.18214411847293376922607421875</LatitudeDegrees>
              <LongitudeDegrees>-1.12726447172462940216064453125</LongitudeDegrees>
            </Position>
            <AltitudeMeters>211.399993896484375</AltitudeMeters>
            <DistanceMeters>NAN</DistanceMeters>
          </Trackpoint>
          <Trackpoint>
            <Time>2020-05-25T06:57:34.000Z</Time>
            <Position>
              <LatitudeDegrees>38.1821219064295291900634765625</LatitudeDegrees>
              <LongitudeDegrees>-1.12730688415467739105224609375</LongitudeDegrees>
            </Position>
            <AltitudeMeters>211.399993896484375</AltitudeMeters>
            <DistanceMeters>NAN</DistanceMeters>
          </Trackpoint>
          <Trackpoint>
            <Time>2020-05-25T06:57:35.000Z</Time>
            <Position>
              <LatitudeDegrees>38.182097934186458587646484375</LatitudeDegrees>
              <LongitudeDegrees>-1.12735055387020111083984375</LongitudeDegrees>
            </Position>
            <AltitudeMeters>211.399993896484375</AltitudeMeters>
            <DistanceMeters>NAN</DistanceMeters>
          </Trackpoint>
          <Trackpoint>
            <Time>2020-05-25T06:57:36.000Z</Time>
            <Position>
              <LatitudeDegrees>38.182073794305324554443359375</LatitudeDegrees>
              <LongitudeDegrees>-1.12739221192896366119384765625</LongitudeDegrees>
            </Position>
            <AltitudeMeters>211.399993896484375</AltitudeMeters>
            <DistanceMeters>NAN</DistanceMeters>
          </Trackpoint>
          <Trackpoint>
            <Time>2020-05-25T06:57:37.000Z</Time>
            <Position>
              <LatitudeDegrees>38.1820474751293659210205078125</LatitudeDegrees>
              <LongitudeDegrees>-1.1274378933012485504150390625</LongitudeDegrees>
            </Position>
            <AltitudeMeters>211.399993896484375</AltitudeMeters>
            <DistanceMeters>NAN</DistanceMeters>
          </Trackpoint>
          <Trackpoint>
            <Time>2020-05-25T06:57:38.000Z</Time>
            <Position>
              <LatitudeDegrees>38.182020820677280426025390625</LatitudeDegrees>
              <LongitudeDegrees>-1.12748323939740657806396484375</LongitudeDegrees>
            </Position>
            <AltitudeMeters>211.399993896484375</AltitudeMeters>
            <DistanceMeters>NAN</DistanceMeters>
          </Trackpoint>
          <Trackpoint>
            <Time>2020-05-25T06:57:39.000Z</Time>
            <Position>
              <LatitudeDegrees>38.18199123255908489227294921875</LatitudeDegrees>
              <LongitudeDegrees>-1.12753403373062610626220703125</LongitudeDegrees>
            </Position>
            <AltitudeMeters>211.399993896484375</AltitudeMeters>
            <DistanceMeters>NAN</DistanceMeters>
          </Trackpoint>
          <Trackpoint>
            <Time>2020-05-25T06:57:40.000Z</Time>
            <Position>
              <LatitudeDegrees>38.18196273408830165863037109375</LatitudeDegrees>
              <LongitudeDegrees>-1.1275832355022430419921875</LongitudeDegrees>
            </Position>
            <AltitudeMeters>211.399993896484375</AltitudeMeters>
            <DistanceMeters>NAN</DistanceMeters>
          </Trackpoint>
          <Trackpoint>
            <Time>2020-05-25T06:57:41.000Z</Time>
            <Position>
              <LatitudeDegrees>38.1819281168282032012939453125</LatitudeDegrees>
              <LongitudeDegrees>-1.127641908824443817138671875</LongitudeDegrees>
            </Position>
            <AltitudeMeters>211.399993896484375</AltitudeMeters>
            <DistanceMeters>NAN</DistanceMeters>
          </Trackpoint>
          <Trackpoint>
            <Time>2020-05-25T06:57:42.000Z</Time>
            <Position>
              <LatitudeDegrees>38.18189567886292934417724609375</LatitudeDegrees>
              <LongitudeDegrees>-1.12769245170056819915771484375</LongitudeDegrees>
            </Position>
            <AltitudeMeters>211.399993896484375</AltitudeMeters>
            <DistanceMeters>NAN</DistanceMeters>
          </Trackpoint>
          <Trackpoint>
            <Time>2020-05-25T06:57:43.000Z</Time>
            <Position>
              <LatitudeDegrees>38.18186013959348201751708984375</LatitudeDegrees>
              <LongitudeDegrees>-1.12774106673896312713623046875</LongitudeDegrees>
            </Position>
            <AltitudeMeters>211.1999969482421875</AltitudeMeters>
            <DistanceMeters>NAN</DistanceMeters>
          </Trackpoint>
          <Trackpoint>
            <Time>2020-05-25T06:57:44.000Z</Time>
            <Position>
              <LatitudeDegrees>38.18182191811501979827880859375</LatitudeDegrees>
              <LongitudeDegrees>-1.127786077558994293212890625</LongitudeDegrees>
            </Position>
            <AltitudeMeters>211.1999969482421875</AltitudeMeters>
            <DistanceMeters>NAN</DistanceMeters>
          </Trackpoint>
          <Trackpoint>
            <Time>2020-05-25T06:57:45.000Z</Time>
            <Position>
              <LatitudeDegrees>38.181765340268611907958984375</LatitudeDegrees>
              <LongitudeDegrees>-1.1278341896831989288330078125</LongitudeDegrees>
            </Position>
            <AltitudeMeters>211.1999969482421875</AltitudeMeters>
            <DistanceMeters>NAN</DistanceMeters>
          </Trackpoint>
          <Trackpoint>
            <Time>2020-05-25T06:57:46.000Z</Time>
            <Position>
              <LatitudeDegrees>38.18171815015375614166259765625</LatitudeDegrees>
              <LongitudeDegrees>-1.12787098623812198638916015625</LongitudeDegrees>
            </Position>
            <AltitudeMeters>211.1999969482421875</AltitudeMeters>
            <DistanceMeters>NAN</DistanceMeters>
          </Trackpoint>
          <Trackpoint>
            <Time>2020-05-25T06:57:47.000Z</Time>
            <Position>
              <LatitudeDegrees>38.18166618235409259796142578125</LatitudeDegrees>
              <LongitudeDegrees>-1.12790769897401332855224609375</LongitudeDegrees>
            </Position>
            <AltitudeMeters>211.1999969482421875</AltitudeMeters>
            <DistanceMeters>NAN</DistanceMeters>
          </Trackpoint>
          <Trackpoint>
            <Time>2020-05-25T06:57:48.000Z</Time>
            <Position>
              <LatitudeDegrees>38.18160968832671642303466796875</LatitudeDegrees>
              <LongitudeDegrees>-1.12794223241508007049560546875</LongitudeDegrees>
            </Position>
            <AltitudeMeters>211</AltitudeMeters>
            <DistanceMeters>NAN</DistanceMeters>
          </Trackpoint>
          <Trackpoint>
            <Time>2020-05-25T06:57:49.000Z</Time>
            <Position>
              <LatitudeDegrees>38.181550092995166778564453125</LatitudeDegrees>
              <LongitudeDegrees>-1.127973496913909912109375</LongitudeDegrees>
            </Position>
            <AltitudeMeters>211</AltitudeMeters>
            <DistanceMeters>NAN</DistanceMeters>
          </Trackpoint>
          <Trackpoint>
            <Time>2020-05-25T06:57:50.000Z</Time>
            <Position>
              <LatitudeDegrees>38.18149502389132976531982421875</LatitudeDegrees>
              <LongitudeDegrees>-1.127997972071170806884765625</LongitudeDegrees>
            </Position>
            <AltitudeMeters>211</AltitudeMeters>
            <DistanceMeters>NAN</DistanceMeters>
          </Trackpoint>
          <Trackpoint>
            <Time>2020-05-25T06:57:51.000Z</Time>
            <Position>
              <LatitudeDegrees>38.1814369373023509979248046875</LatitudeDegrees>
              <LongitudeDegrees>-1.12802621908485889434814453125</LongitudeDegrees>
            </Position>
            <AltitudeMeters>211</AltitudeMeters>
            <DistanceMeters>NAN</DistanceMeters>
          </Trackpoint>
          <Trackpoint>
            <Time>2020-05-25T06:57:52.000Z</Time>
            <Position>
              <LatitudeDegrees>38.1813816167414188385009765625</LatitudeDegrees>
              <LongitudeDegrees>-1.12805203534662723541259765625</LongitudeDegrees>
            </Position>
            <AltitudeMeters>211</AltitudeMeters>
            <DistanceMeters>NAN</DistanceMeters>
          </Trackpoint>
          <Trackpoint>
            <Time>2020-05-25T06:57:53.000Z</Time>
            <Position>
              <LatitudeDegrees>38.18132855929434299468994140625</LatitudeDegrees>
              <LongitudeDegrees>-1.12807265482842922210693359375</LongitudeDegrees>
            </Position>
            <AltitudeMeters>210.8000030517578125</AltitudeMeters>
            <DistanceMeters>NAN</DistanceMeters>
          </Trackpoint>
          <Trackpoint>
            <Time>2020-05-25T06:57:54.000Z</Time>
            <Position>
              <LatitudeDegrees>38.18127709440886974334716796875</LatitudeDegrees>
              <LongitudeDegrees>-1.12808673642575740814208984375</LongitudeDegrees>
            </Position>
            <AltitudeMeters>210.8000030517578125</AltitudeMeters>
            <DistanceMeters>NAN</DistanceMeters>
          </Trackpoint>
          <Trackpoint>
            <Time>2020-05-25T06:57:55.000Z</Time>
            <Position>
              <LatitudeDegrees>38.18122764118015766143798828125</LatitudeDegrees>
              <LongitudeDegrees>-1.12810534425079822540283203125</LongitudeDegrees>
            </Position>
            <AltitudeMeters>210.8000030517578125</AltitudeMeters>
            <DistanceMeters>NAN</DistanceMeters>
          </Trackpoint>
          <Trackpoint>
            <Time>2020-05-25T06:57:56.000Z</Time>
            <Position>
              <LatitudeDegrees>38.18117299117147922515869140625</LatitudeDegrees>
              <LongitudeDegrees>-1.1281292326748371124267578125</LongitudeDegrees>
            </Position>
            <AltitudeMeters>210.600006103515625</AltitudeMeters>
            <DistanceMeters>NAN</DistanceMeters>
          </Trackpoint>
          <Trackpoint>
            <Time>2020-05-25T06:57:57.000Z</Time>
            <Position>
              <LatitudeDegrees>38.1811180897057056427001953125</LatitudeDegrees>
              <LongitudeDegrees>-1.1281516961753368377685546875</LongitudeDegrees>
            </Position>
            <AltitudeMeters>210.600006103515625</AltitudeMeters>
            <DistanceMeters>NAN</DistanceMeters>
          </Trackpoint>
          <Trackpoint>
            <Time>2020-05-25T06:57:58.000Z</Time>
            <Position>
              <LatitudeDegrees>38.18106167949736118316650390625</LatitudeDegrees>
              <LongitudeDegrees>-1.12817323766648769378662109375</LongitudeDegrees>
            </Position>
            <AltitudeMeters>210.399993896484375</AltitudeMeters>
            <DistanceMeters>NAN</DistanceMeters>
          </Trackpoint>
          <Trackpoint>
            <Time>2020-05-25T06:57:59.000Z</Time>
            <Position>
              <LatitudeDegrees>38.18100602366030216217041015625</LatitudeDegrees>
              <LongitudeDegrees>-1.12819218076765537261962890625</LongitudeDegrees>
            </Position>
            <AltitudeMeters>210.399993896484375</AltitudeMeters>
            <DistanceMeters>NAN</DistanceMeters>
          </Trackpoint>
          <Trackpoint>
            <Time>2020-05-25T06:58:00.000Z</Time>
            <Position>
              <LatitudeDegrees>38.18095020018517971038818359375</LatitudeDegrees>
              <LongitudeDegrees>-1.1282080225646495819091796875</LongitudeDegrees>
            </Position>
            <AltitudeMeters>210.399993896484375</AltitudeMeters>
            <DistanceMeters>NAN</DistanceMeters>
          </Trackpoint>
          <Trackpoint>
            <Time>2020-05-25T06:58:01.000Z</Time>
            <Position>
              <LatitudeDegrees>38.180891610682010650634765625</LatitudeDegrees>
              <LongitudeDegrees>-1.12822336144745349884033203125</LongitudeDegrees>
            </Position>
            <AltitudeMeters>210.1999969482421875</AltitudeMeters>
            <DistanceMeters>NAN</DistanceMeters>
          </Trackpoint>
          <Trackpoint>
            <Time>2020-05-25T06:58:02.000Z</Time>
            <Position>
              <LatitudeDegrees>38.18083553574979305267333984375</LatitudeDegrees>
              <LongitudeDegrees>-1.1282388679683208465576171875</LongitudeDegrees>
            </Position>
            <AltitudeMeters>210.1999969482421875</AltitudeMeters>
            <DistanceMeters>NAN</DistanceMeters>
          </Trackpoint>
          <Trackpoint>
            <Time>2020-05-25T06:58:03.000Z</Time>
            <Position>
              <LatitudeDegrees>38.18078088574111461639404296875</LatitudeDegrees>
              <LongitudeDegrees>-1.12825269810855388641357421875</LongitudeDegrees>
            </Position>
            <AltitudeMeters>210.1999969482421875</AltitudeMeters>
            <DistanceMeters>NAN</DistanceMeters>
          </Trackpoint>
          <Trackpoint>
            <Time>2020-05-25T06:58:04.000Z</Time>
            <Position>
              <LatitudeDegrees>38.18072699010372161865234375</LatitudeDegrees>
              <LongitudeDegrees>-1.12825990654528141021728515625</LongitudeDegrees>
            </Position>
            <AltitudeMeters>210.1999969482421875</AltitudeMeters>
            <DistanceMeters>NAN</DistanceMeters>
          </Trackpoint>
          <Trackpoint>
            <Time>2020-05-25T06:58:05.000Z</Time>
            <Position>
              <LatitudeDegrees>38.18067108280956745147705078125</LatitudeDegrees>
              <LongitudeDegrees>-1.12826376222074031829833984375</LongitudeDegrees>
            </Position>
            <AltitudeMeters>210</AltitudeMeters>
            <DistanceMeters>NAN</DistanceMeters>
          </Trackpoint>
          <Trackpoint>
            <Time>2020-05-25T06:58:06.000Z</Time>
            <Position>
              <LatitudeDegrees>38.1806108169257640838623046875</LatitudeDegrees>
              <LongitudeDegrees>-1.1282593198120594024658203125</LongitudeDegrees>
            </Position>
            <AltitudeMeters>210</AltitudeMeters>
            <DistanceMeters>NAN</DistanceMeters>
          </Trackpoint>
          <Trackpoint>
            <Time>2020-05-25T06:58:07.000Z</Time>
            <Position>
              <LatitudeDegrees>38.180552981793880462646484375</LatitudeDegrees>
              <LongitudeDegrees>-1.128250770270824432373046875</LongitudeDegrees>
            </Position>
            <AltitudeMeters>210</AltitudeMeters>
            <DistanceMeters>NAN</DistanceMeters>
          </Trackpoint>
          <Trackpoint>
            <Time>2020-05-25T06:58:08.000Z</Time>
            <Position>
              <LatitudeDegrees>38.18049455992877483367919921875</LatitudeDegrees>
              <LongitudeDegrees>-1.12824280746281147003173828125</LongitudeDegrees>
            </Position>
            <AltitudeMeters>210</AltitudeMeters>
            <DistanceMeters>NAN</DistanceMeters>
          </Trackpoint>
          <Trackpoint>
            <Time>2020-05-25T06:58:09.000Z</Time>
            <Position>
              <LatitudeDegrees>38.18043739534914493560791015625</LatitudeDegrees>
              <LongitudeDegrees>-1.1282328329980373382568359375</LongitudeDegrees>
            </Position>
            <AltitudeMeters>210</AltitudeMeters>
            <DistanceMeters>NAN</DistanceMeters>
          </Trackpoint>
          <Trackpoint>
            <Time>2020-05-25T06:58:10.000Z</Time>
            <Position>
              <LatitudeDegrees>38.18038157187402248382568359375</LatitudeDegrees>
              <LongitudeDegrees>-1.12821648828685283660888671875</LongitudeDegrees>
            </Position>
            <AltitudeMeters>210</AltitudeMeters>
            <DistanceMeters>NAN</DistanceMeters>
          </Trackpoint>
          <Trackpoint>
            <Time>2020-05-25T06:58:11.000Z</Time>
            <Position>
              <LatitudeDegrees>38.180327676236629486083984375</LatitudeDegrees>
              <LongitudeDegrees>-1.1281949467957019805908203125</LongitudeDegrees>
            </Position>
            <AltitudeMeters>209.8000030517578125</AltitudeMeters>
            <DistanceMeters>NAN</DistanceMeters>
          </Trackpoint>
          <Trackpoint>
            <Time>2020-05-25T06:58:12.000Z</Time>
            <Position>
              <LatitudeDegrees>38.18027579225599765777587890625</LatitudeDegrees>
              <LongitudeDegrees>-1.12816602922976016998291015625</LongitudeDegrees>
            </Position>
            <AltitudeMeters>209.8000030517578125</AltitudeMeters>
            <DistanceMeters>NAN</DistanceMeters>
          </Trackpoint>
          <Trackpoint>
            <Time>2020-05-25T06:58:13.000Z</Time>
            <Position>
              <LatitudeDegrees>38.1802249141037464141845703125</LatitudeDegrees>
              <LongitudeDegrees>-1.12813266925513744354248046875</LongitudeDegrees>
            </Position>
            <AltitudeMeters>209.8000030517578125</AltitudeMeters>
            <DistanceMeters>NAN</DistanceMeters>
          </Trackpoint>
          <Trackpoint>
            <Time>2020-05-25T06:58:14.000Z</Time>
            <Position>
              <LatitudeDegrees>38.18017655052244663238525390625</LatitudeDegrees>
              <LongitudeDegrees>-1.12809981219470500946044921875</LongitudeDegrees>
            </Position>
            <AltitudeMeters>209.600006103515625</AltitudeMeters>
            <DistanceMeters>NAN</DistanceMeters>
          </Trackpoint>
          <Trackpoint>
            <Time>2020-05-25T06:58:15.000Z</Time>
            <Position>
              <LatitudeDegrees>38.18013095296919345855712890625</LatitudeDegrees>
              <LongitudeDegrees>-1.1280631832778453826904296875</LongitudeDegrees>
            </Position>
            <AltitudeMeters>209.600006103515625</AltitudeMeters>
            <DistanceMeters>NAN</DistanceMeters>
          </Trackpoint>
          <Trackpoint>
            <Time>2020-05-25T06:58:16.000Z</Time>
            <Position>
              <LatitudeDegrees>38.1800867803394794464111328125</LatitudeDegrees>
              <LongitudeDegrees>-1.12801666371524333953857421875</LongitudeDegrees>
            </Position>
            <AltitudeMeters>209.600006103515625</AltitudeMeters>
            <DistanceMeters>NAN</DistanceMeters>
          </Trackpoint>
          <Trackpoint>
            <Time>2020-05-25T06:58:17.000Z</Time>
            <Position>
              <LatitudeDegrees>38.1800445355474948883056640625</LatitudeDegrees>
              <LongitudeDegrees>-1.12796436063945293426513671875</LongitudeDegrees>
            </Position>
            <AltitudeMeters>209.399993896484375</AltitudeMeters>
            <DistanceMeters>NAN</DistanceMeters>
          </Trackpoint>
          <Trackpoint>
            <Time>2020-05-25T06:58:18.000Z</Time>
            <Position>
              <LatitudeDegrees>38.18000321276485919952392578125</LatitudeDegrees>
              <LongitudeDegrees>-1.12790233455598354339599609375</LongitudeDegrees>
            </Position>
            <AltitudeMeters>209.399993896484375</AltitudeMeters>
            <DistanceMeters>NAN</DistanceMeters>
          </Trackpoint>
          <Trackpoint>
            <Time>2020-05-25T06:58:19.000Z</Time>
            <Position>
              <LatitudeDegrees>38.1799633987247943878173828125</LatitudeDegrees>
              <LongitudeDegrees>-1.12783947028219699859619140625</LongitudeDegrees>
            </Position>
            <AltitudeMeters>209.1999969482421875</AltitudeMeters>
            <DistanceMeters>NAN</DistanceMeters>
          </Trackpoint>
          <Trackpoint>
            <Time>2020-05-25T06:58:20.000Z</Time>
            <Position>
              <LatitudeDegrees>38.179922997951507568359375</LatitudeDegrees>
              <LongitudeDegrees>-1.1277755163609981536865234375</LongitudeDegrees>
            </Position>
            <AltitudeMeters>209</AltitudeMeters>
            <DistanceMeters>NAN</DistanceMeters>
          </Trackpoint>
          <Trackpoint>
            <Time>2020-05-25T06:58:21.000Z</Time>
            <Position>
              <LatitudeDegrees>38.17988343536853790283203125</LatitudeDegrees>
              <LongitudeDegrees>-1.1277158372104167938232421875</LongitudeDegrees>
            </Position>
            <AltitudeMeters>208.8000030517578125</AltitudeMeters>
            <DistanceMeters>NAN</DistanceMeters>
          </Trackpoint>
          <Trackpoint>
            <Time>2020-05-25T06:58:22.000Z</Time>
            <Position>
              <LatitudeDegrees>38.179842531681060791015625</LatitudeDegrees>
              <LongitudeDegrees>-1.1276534758508205413818359375</LongitudeDegrees>
            </Position>
            <AltitudeMeters>208.8000030517578125</AltitudeMeters>
            <DistanceMeters>NAN</DistanceMeters>
          </Trackpoint>
          <Trackpoint>
            <Time>2020-05-25T06:58:23.000Z</Time>
            <Position>
              <LatitudeDegrees>38.17980288527905941009521484375</LatitudeDegrees>
              <LongitudeDegrees>-1.12758834846317768096923828125</LongitudeDegrees>
            </Position>
            <AltitudeMeters>208.600006103515625</AltitudeMeters>
            <DistanceMeters>NAN</DistanceMeters>
          </Trackpoint>
          <Trackpoint>
            <Time>2020-05-25T06:58:24.000Z</Time>
            <Position>
              <LatitudeDegrees>38.179763071238994598388671875</LatitudeDegrees>
              <LongitudeDegrees>-1.12752246670424938201904296875</LongitudeDegrees>
            </Position>
            <AltitudeMeters>208.399993896484375</AltitudeMeters>
            <DistanceMeters>NAN</DistanceMeters>
          </Trackpoint>
          <Trackpoint>
            <Time>2020-05-25T06:58:25.000Z</Time>
            <Position>
              <LatitudeDegrees>38.1797223351895809173583984375</LatitudeDegrees>
              <LongitudeDegrees>-1.12745122052729129791259765625</LongitudeDegrees>
            </Position>
            <AltitudeMeters>208</AltitudeMeters>
            <DistanceMeters>NAN</DistanceMeters>
          </Trackpoint>
          <Trackpoint>
            <Time>2020-05-25T06:58:26.000Z</Time>
            <Position>
              <LatitudeDegrees>38.17968101240694522857666015625</LatitudeDegrees>
              <LongitudeDegrees>-1.12738005816936492919921875</LongitudeDegrees>
            </Position>
            <AltitudeMeters>207.8000030517578125</AltitudeMeters>
            <DistanceMeters>NAN</DistanceMeters>
          </Trackpoint>
          <Trackpoint>
            <Time>2020-05-25T06:58:27.000Z</Time>
            <Position>
              <LatitudeDegrees>38.17963935434818267822265625</LatitudeDegrees>
              <LongitudeDegrees>-1.127312667667865753173828125</LongitudeDegrees>
            </Position>
            <AltitudeMeters>207.399993896484375</AltitudeMeters>
            <DistanceMeters>NAN</DistanceMeters>
          </Trackpoint>
          <Trackpoint>
            <Time>2020-05-25T06:58:28.000Z</Time>
            <Position>
              <LatitudeDegrees>38.179599456489086151123046875</LatitudeDegrees>
              <LongitudeDegrees>-1.1272487975656986236572265625</LongitudeDegrees>
            </Position>
            <AltitudeMeters>207</AltitudeMeters>
            <DistanceMeters>NAN</DistanceMeters>
          </Trackpoint>
          <Trackpoint>
            <Time>2020-05-25T06:58:29.000Z</Time>
            <Position>
              <LatitudeDegrees>38.1795590557157993316650390625</LatitudeDegrees>
              <LongitudeDegrees>-1.1271850951015949249267578125</LongitudeDegrees>
            </Position>
            <AltitudeMeters>206.8000030517578125</AltitudeMeters>
            <DistanceMeters>NAN</DistanceMeters>
          </Trackpoint>
          <Trackpoint>
            <Time>2020-05-25T06:58:30.000Z</Time>
            <Position>
              <LatitudeDegrees>38.17952058278024196624755859375</LatitudeDegrees>
              <LongitudeDegrees>-1.1271218955516815185546875</LongitudeDegrees>
            </Position>
            <AltitudeMeters>206.600006103515625</AltitudeMeters>
            <DistanceMeters>NAN</DistanceMeters>
          </Trackpoint>
          <Trackpoint>
            <Time>2020-05-25T06:58:31.000Z</Time>
            <Position>
              <LatitudeDegrees>38.179482109844684600830078125</LatitudeDegrees>
              <LongitudeDegrees>-1.12705693580210208892822265625</LongitudeDegrees>
            </Position>
            <AltitudeMeters>206.399993896484375</AltitudeMeters>
            <DistanceMeters>NAN</DistanceMeters>
          </Trackpoint>
          <Trackpoint>
            <Time>2020-05-25T06:58:32.000Z</Time>
            <Position>
              <LatitudeDegrees>38.1794440560042858123779296875</LatitudeDegrees>
              <LongitudeDegrees>-1.1269877851009368896484375</LongitudeDegrees>
            </Position>
            <AltitudeMeters>206</AltitudeMeters>
            <DistanceMeters>NAN</DistanceMeters>
          </Trackpoint>
          <Trackpoint>
            <Time>2020-05-25T06:58:33.000Z</Time>
            <Position>
              <LatitudeDegrees>38.1794054992496967315673828125</LatitudeDegrees>
              <LongitudeDegrees>-1.12691913731396198272705078125</LongitudeDegrees>
            </Position>
            <AltitudeMeters>205.8000030517578125</AltitudeMeters>
            <DistanceMeters>NAN</DistanceMeters>
          </Trackpoint>
          <Trackpoint>
            <Time>2020-05-25T06:58:34.000Z</Time>
            <Position>
              <LatitudeDegrees>38.17936384119093418121337890625</LatitudeDegrees>
              <LongitudeDegrees>-1.126842610538005828857421875</LongitudeDegrees>
            </Position>
            <AltitudeMeters>205.600006103515625</AltitudeMeters>
            <DistanceMeters>NAN</DistanceMeters>
          </Trackpoint>
          <Trackpoint>
            <Time>2020-05-25T06:58:35.000Z</Time>
            <Position>
              <LatitudeDegrees>38.17932746373116970062255859375</LatitudeDegrees>
              <LongitudeDegrees>-1.1267851106822490692138671875</LongitudeDegrees>
            </Position>
            <AltitudeMeters>205.600006103515625</AltitudeMeters>
            <DistanceMeters>NAN</DistanceMeters>
          </Trackpoint>
          <Trackpoint>
            <Time>2020-05-25T06:58:36.000Z</Time>
            <Position>
              <LatitudeDegrees>38.1792844645678997039794921875</LatitudeDegrees>
              <LongitudeDegrees>-1.12670774571597576141357421875</LongitudeDegrees>
            </Position>
            <AltitudeMeters>205.399993896484375</AltitudeMeters>
            <DistanceMeters>NAN</DistanceMeters>
          </Trackpoint>
          <Trackpoint>
            <Time>2020-05-25T06:58:37.000Z</Time>
            <Position>
              <LatitudeDegrees>38.1792475841939449310302734375</LatitudeDegrees>
              <LongitudeDegrees>-1.12665007822215557098388671875</LongitudeDegrees>
            </Position>
            <AltitudeMeters>205.1999969482421875</AltitudeMeters>
            <DistanceMeters>NAN</DistanceMeters>
          </Trackpoint>
          <Trackpoint>
            <Time>2020-05-25T06:58:38.000Z</Time>
            <Position>
              <LatitudeDegrees>38.179211877286434173583984375</LatitudeDegrees>
              <LongitudeDegrees>-1.12659023143351078033447265625</LongitudeDegrees>
            </Position>
            <AltitudeMeters>205.1999969482421875</AltitudeMeters>
            <DistanceMeters>NAN</DistanceMeters>
          </Trackpoint>
          <Trackpoint>
            <Time>2020-05-25T06:58:39.000Z</Time>
            <Position>
              <LatitudeDegrees>38.1791751645505428314208984375</LatitudeDegrees>
              <LongitudeDegrees>-1.1265259422361850738525390625</LongitudeDegrees>
            </Position>
            <AltitudeMeters>205</AltitudeMeters>
            <DistanceMeters>NAN</DistanceMeters>
          </Trackpoint>
          <Trackpoint>
            <Time>2020-05-25T06:58:40.000Z</Time>
            <Position>
              <LatitudeDegrees>38.17913887090981006622314453125</LatitudeDegrees>
              <LongitudeDegrees>-1.12645980902016162872314453125</LongitudeDegrees>
            </Position>
            <AltitudeMeters>205</AltitudeMeters>
            <DistanceMeters>NAN</DistanceMeters>
          </Trackpoint>
          <Trackpoint>
            <Time>2020-05-25T06:58:41.000Z</Time>
            <Position>
              <LatitudeDegrees>38.1791030801832675933837890625</LatitudeDegrees>
              <LongitudeDegrees>-1.12640281207859516143798828125</LongitudeDegrees>
            </Position>
            <AltitudeMeters>205</AltitudeMeters>
            <DistanceMeters>NAN</DistanceMeters>
          </Trackpoint>
          <Trackpoint>
            <Time>2020-05-25T06:58:42.000Z</Time>
            <Position>
              <LatitudeDegrees>38.17905656062066555023193359375</LatitudeDegrees>
              <LongitudeDegrees>-1.1263100244104862213134765625</LongitudeDegrees>
            </Position>
            <AltitudeMeters>205</AltitudeMeters>
            <DistanceMeters>NAN</DistanceMeters>
          </Trackpoint>
          <Trackpoint>
            <Time>2020-05-25T06:58:43.000Z</Time>
            <Position>
              <LatitudeDegrees>38.1790149025619029998779296875</LatitudeDegrees>
              <LongitudeDegrees>-1.1262329109013080596923828125</LongitudeDegrees>
            </Position>
            <AltitudeMeters>205</AltitudeMeters>
            <DistanceMeters>NAN</DistanceMeters>
          </Trackpoint>
          <Trackpoint>
            <Time>2020-05-25T06:58:44.000Z</Time>
            <Position>
              <LatitudeDegrees>38.17897056229412555694580078125</LatitudeDegrees>
              <LongitudeDegrees>-1.12614096142351627349853515625</LongitudeDegrees>
            </Position>
            <AltitudeMeters>205</AltitudeMeters>
            <DistanceMeters>NAN</DistanceMeters>
          </Trackpoint>
          <Trackpoint>
            <Time>2020-05-25T06:58:45.000Z</Time>
            <Position>
              <LatitudeDegrees>38.1789304129779338836669921875</LatitudeDegrees>
              <LongitudeDegrees>-1.1260632611811161041259765625</LongitudeDegrees>
            </Position>
            <AltitudeMeters>205</AltitudeMeters>
            <DistanceMeters>NAN</DistanceMeters>
          </Trackpoint>
          <Trackpoint>
            <Time>2020-05-25T06:58:46.000Z</Time>
            <Position>
              <LatitudeDegrees>38.17889378406107425689697265625</LatitudeDegrees>
              <LongitudeDegrees>-1.125994361937046051025390625</LongitudeDegrees>
            </Position>
            <AltitudeMeters>205</AltitudeMeters>
            <DistanceMeters>NAN</DistanceMeters>
          </Trackpoint>
          <Trackpoint>
            <Time>2020-05-25T06:58:47.000Z</Time>
            <Position>
              <LatitudeDegrees>38.17885640077292919158935546875</LatitudeDegrees>
              <LongitudeDegrees>-1.12592755816876888275146484375</LongitudeDegrees>
            </Position>
            <AltitudeMeters>204.8000030517578125</AltitudeMeters>
            <DistanceMeters>NAN</DistanceMeters>
          </Trackpoint>
          <Trackpoint>
            <Time>2020-05-25T06:58:48.000Z</Time>
            <Position>
              <LatitudeDegrees>38.178817592561244964599609375</LatitudeDegrees>
              <LongitudeDegrees>-1.125855557620525360107421875</LongitudeDegrees>
            </Position>
            <AltitudeMeters>204.8000030517578125</AltitudeMeters>
            <DistanceMeters>NAN</DistanceMeters>
          </Trackpoint>
          <Trackpoint>
            <Time>2020-05-25T06:58:49.000Z</Time>
            <Position>
              <LatitudeDegrees>38.17877836525440216064453125</LatitudeDegrees>
              <LongitudeDegrees>-1.12578255124390125274658203125</LongitudeDegrees>
            </Position>
            <AltitudeMeters>204.8000030517578125</AltitudeMeters>
            <DistanceMeters>NAN</DistanceMeters>
          </Trackpoint>
          <Trackpoint>
            <Time>2020-05-25T06:58:50.000Z</Time>
            <Position>
              <LatitudeDegrees>38.17873838357627391815185546875</LatitudeDegrees>
              <LongitudeDegrees>-1.1257105506956577301025390625</LongitudeDegrees>
            </Position>
            <AltitudeMeters>204.8000030517578125</AltitudeMeters>
            <DistanceMeters>NAN</DistanceMeters>
          </Trackpoint>
          <Trackpoint>
            <Time>2020-05-25T06:58:51.000Z</Time>
            <Position>
              <LatitudeDegrees>38.1787004135549068450927734375</LatitudeDegrees>
              <LongitudeDegrees>-1.12564064562320709228515625</LongitudeDegrees>
            </Position>
            <AltitudeMeters>204.600006103515625</AltitudeMeters>
            <DistanceMeters>NAN</DistanceMeters>
          </Trackpoint>
          <Trackpoint>
            <Time>2020-05-25T06:58:52.000Z</Time>
            <Position>
              <LatitudeDegrees>38.1786615215241909027099609375</LatitudeDegrees>
              <LongitudeDegrees>-1.125572584569454193115234375</LongitudeDegrees>
            </Position>
            <AltitudeMeters>204.600006103515625</AltitudeMeters>
            <DistanceMeters>NAN</DistanceMeters>
          </Trackpoint>
          <Trackpoint>
            <Time>2020-05-25T06:58:53.000Z</Time>
            <Position>
              <LatitudeDegrees>38.1786212883889675140380859375</LatitudeDegrees>
              <LongitudeDegrees>-1.12550251185894012451171875</LongitudeDegrees>
            </Position>
            <AltitudeMeters>204.399993896484375</AltitudeMeters>
            <DistanceMeters>NAN</DistanceMeters>
          </Trackpoint>
          <Trackpoint>
            <Time>2020-05-25T06:58:54.000Z</Time>
            <Position>
              <LatitudeDegrees>38.1785813905298709869384765625</LatitudeDegrees>
              <LongitudeDegrees>-1.1254316009581089019775390625</LongitudeDegrees>
            </Position>
            <AltitudeMeters>204.399993896484375</AltitudeMeters>
            <DistanceMeters>NAN</DistanceMeters>
          </Trackpoint>
          <Trackpoint>
            <Time>2020-05-25T06:58:55.000Z</Time>
            <Position>
              <LatitudeDegrees>38.1785394810140132904052734375</LatitudeDegrees>
              <LongitudeDegrees>-1.1253623664379119873046875</LongitudeDegrees>
            </Position>
            <AltitudeMeters>204.1999969482421875</AltitudeMeters>
            <DistanceMeters>NAN</DistanceMeters>
          </Trackpoint>
          <Trackpoint>
            <Time>2020-05-25T06:58:56.000Z</Time>
            <Position>
              <LatitudeDegrees>38.17849673330783843994140625</LatitudeDegrees>
              <LongitudeDegrees>-1.1252941377460956573486328125</LongitudeDegrees>
            </Position>
            <AltitudeMeters>204</AltitudeMeters>
            <DistanceMeters>NAN</DistanceMeters>
          </Trackpoint>
          <Trackpoint>
            <Time>2020-05-25T06:58:57.000Z</Time>
            <Position>
              <LatitudeDegrees>38.17845423705875873565673828125</LatitudeDegrees>
              <LongitudeDegrees>-1.12522716633975505828857421875</LongitudeDegrees>
            </Position>
            <AltitudeMeters>203.8000030517578125</AltitudeMeters>
            <DistanceMeters>NAN</DistanceMeters>
          </Trackpoint>
          <Trackpoint>
            <Time>2020-05-25T06:58:58.000Z</Time>
            <Position>
              <LatitudeDegrees>38.1784124113619327545166015625</LatitudeDegrees>
              <LongitudeDegrees>-1.125157177448272705078125</LongitudeDegrees>
            </Position>
            <AltitudeMeters>203.600006103515625</AltitudeMeters>
            <DistanceMeters>NAN</DistanceMeters>
          </Trackpoint>
          <Trackpoint>
            <Time>2020-05-25T06:58:59.000Z</Time>
            <Position>
              <LatitudeDegrees>38.178368322551250457763671875</LatitudeDegrees>
              <LongitudeDegrees>-1.1250882782042026519775390625</LongitudeDegrees>
            </Position>
            <AltitudeMeters>203.399993896484375</AltitudeMeters>
            <DistanceMeters>NAN</DistanceMeters>
          </Trackpoint>
          <Trackpoint>
            <Time>2020-05-25T06:59:00.000Z</Time>
            <Position>
              <LatitudeDegrees>38.17832716740667819976806640625</LatitudeDegrees>
              <LongitudeDegrees>-1.1250198818743228912353515625</LongitudeDegrees>
            </Position>
            <AltitudeMeters>203.1999969482421875</AltitudeMeters>
            <DistanceMeters>NAN</DistanceMeters>
          </Trackpoint>
          <Trackpoint>
            <Time>2020-05-25T06:59:01.000Z</Time>
            <Position>
              <LatitudeDegrees>38.17828777246177196502685546875</LatitudeDegrees>
              <LongitudeDegrees>-1.1249519884586334228515625</LongitudeDegrees>
            </Position>
            <AltitudeMeters>203</AltitudeMeters>
            <DistanceMeters>NAN</DistanceMeters>
          </Trackpoint>
          <Trackpoint>
            <Time>2020-05-25T06:59:02.000Z</Time>
            <Position>
              <LatitudeDegrees>38.17824837751686573028564453125</LatitudeDegrees>
              <LongitudeDegrees>-1.12487914972007274627685546875</LongitudeDegrees>
            </Position>
            <AltitudeMeters>202.8000030517578125</AltitudeMeters>
            <DistanceMeters>NAN</DistanceMeters>
          </Trackpoint>
          <Trackpoint>
            <Time>2020-05-25T06:59:03.000Z</Time>
            <Position>
              <LatitudeDegrees>38.1782075576484203338623046875</LatitudeDegrees>
              <LongitudeDegrees>-1.1248086579144001007080078125</LongitudeDegrees>
            </Position>
            <AltitudeMeters>202.8000030517578125</AltitudeMeters>
            <DistanceMeters>NAN</DistanceMeters>
          </Trackpoint>
          <Trackpoint>
            <Time>2020-05-25T06:59:04.000Z</Time>
            <Position>
              <LatitudeDegrees>38.17816589958965778350830078125</LatitudeDegrees>
              <LongitudeDegrees>-1.12474470399320125579833984375</LongitudeDegrees>
            </Position>
            <AltitudeMeters>202.600006103515625</AltitudeMeters>
            <DistanceMeters>NAN</DistanceMeters>
          </Trackpoint>
          <Trackpoint>
            <Time>2020-05-25T06:59:05.000Z</Time>
            <Position>
              <LatitudeDegrees>38.17812197841703891754150390625</LatitudeDegrees>
              <LongitudeDegrees>-1.124674379825592041015625</LongitudeDegrees>
            </Position>
            <AltitudeMeters>202.399993896484375</AltitudeMeters>
            <DistanceMeters>NAN</DistanceMeters>
          </Trackpoint>
          <Trackpoint>
            <Time>2020-05-25T06:59:06.000Z</Time>
            <Position>
              <LatitudeDegrees>38.1780798174440860748291015625</LatitudeDegrees>
              <LongitudeDegrees>-1.1246011219918727874755859375</LongitudeDegrees>
            </Position>
            <AltitudeMeters>202.1999969482421875</AltitudeMeters>
            <DistanceMeters>NAN</DistanceMeters>
          </Trackpoint>
          <Trackpoint>
            <Time>2020-05-25T06:59:07.000Z</Time>
            <Position>
              <LatitudeDegrees>38.17803782410919666290283203125</LatitudeDegrees>
              <LongitudeDegrees>-1.12453021109104156494140625</LongitudeDegrees>
            </Position>
            <AltitudeMeters>202</AltitudeMeters>
            <DistanceMeters>NAN</DistanceMeters>
          </Trackpoint>
          <Trackpoint>
            <Time>2020-05-25T06:59:08.000Z</Time>
            <Position>
              <LatitudeDegrees>38.1779949925839900970458984375</LatitudeDegrees>
              <LongitudeDegrees>-1.12446047365665435791015625</LongitudeDegrees>
            </Position>
            <AltitudeMeters>201.8000030517578125</AltitudeMeters>
            <DistanceMeters>NAN</DistanceMeters>
          </Trackpoint>
          <Trackpoint>
            <Time>2020-05-25T06:59:09.000Z</Time>
            <Position>
              <LatitudeDegrees>38.17795266397297382354736328125</LatitudeDegrees>
              <LongitudeDegrees>-1.12439366988837718963623046875</LongitudeDegrees>
            </Position>
            <AltitudeMeters>201.600006103515625</AltitudeMeters>
            <DistanceMeters>NAN</DistanceMeters>
          </Trackpoint>
          <Trackpoint>
            <Time>2020-05-25T06:59:10.000Z</Time>
            <Position>
              <LatitudeDegrees>38.17790857516229152679443359375</LatitudeDegrees>
              <LongitudeDegrees>-1.1243298836052417755126953125</LongitudeDegrees>
            </Position>
            <AltitudeMeters>201.399993896484375</AltitudeMeters>
            <DistanceMeters>NAN</DistanceMeters>
          </Trackpoint>
          <Trackpoint>
            <Time>2020-05-25T06:59:11.000Z</Time>
            <Position>
              <LatitudeDegrees>38.17786507308483123779296875</LatitudeDegrees>
              <LongitudeDegrees>-1.12427406013011932373046875</LongitudeDegrees>
            </Position>
            <AltitudeMeters>201.1999969482421875</AltitudeMeters>
            <DistanceMeters>NAN</DistanceMeters>
          </Trackpoint>
          <Trackpoint>
            <Time>2020-05-25T06:59:12.000Z</Time>
            <Position>
              <LatitudeDegrees>38.177816458046436309814453125</LatitudeDegrees>
              <LongitudeDegrees>-1.1242277920246124267578125</LongitudeDegrees>
            </Position>
            <AltitudeMeters>201.1999969482421875</AltitudeMeters>
            <DistanceMeters>NAN</DistanceMeters>
          </Trackpoint>
          <Trackpoint>
            <Time>2020-05-25T06:59:13.000Z</Time>
            <Position>
              <LatitudeDegrees>38.17776524461805820465087890625</LatitudeDegrees>
              <LongitudeDegrees>-1.12417758442461490631103515625</LongitudeDegrees>
            </Position>
            <AltitudeMeters>201</AltitudeMeters>
            <DistanceMeters>NAN</DistanceMeters>
          </Trackpoint>
          <Trackpoint>
            <Time>2020-05-25T06:59:14.000Z</Time>
            <Position>
              <LatitudeDegrees>38.17771109752357006072998046875</LatitudeDegrees>
              <LongitudeDegrees>-1.1241340823471546173095703125</LongitudeDegrees>
            </Position>
            <AltitudeMeters>201</AltitudeMeters>
            <DistanceMeters>NAN</DistanceMeters>
          </Trackpoint>
          <Trackpoint>
            <Time>2020-05-25T06:59:15.000Z</Time>
            <Position>
              <LatitudeDegrees>38.17765108309686183929443359375</LatitudeDegrees>
              <LongitudeDegrees>-1.124100722372531890869140625</LongitudeDegrees>
            </Position>
            <AltitudeMeters>201</AltitudeMeters>
            <DistanceMeters>NAN</DistanceMeters>
          </Trackpoint>
          <Trackpoint>
            <Time>2020-05-25T06:59:16.000Z</Time>
            <Position>
              <LatitudeDegrees>38.1775872968137264251708984375</LatitudeDegrees>
              <LongitudeDegrees>-1.1240663565695285797119140625</LongitudeDegrees>
            </Position>
            <AltitudeMeters>201</AltitudeMeters>
            <DistanceMeters>NAN</DistanceMeters>
          </Trackpoint>
          <Trackpoint>
            <Time>2020-05-25T06:59:17.000Z</Time>
            <Position>
              <LatitudeDegrees>38.1775229237973690032958984375</LatitudeDegrees>
              <LongitudeDegrees>-1.1240391992032527923583984375</LongitudeDegrees>
            </Position>
            <AltitudeMeters>200.8000030517578125</AltitudeMeters>
            <DistanceMeters>NAN</DistanceMeters>
          </Trackpoint>
          <Trackpoint>
            <Time>2020-05-25T06:59:18.000Z</Time>
            <Position>
              <LatitudeDegrees>38.17745125852525234222412109375</LatitudeDegrees>
              <LongitudeDegrees>-1.12401581369340419769287109375</LongitudeDegrees>
            </Position>
            <AltitudeMeters>200.8000030517578125</AltitudeMeters>
            <DistanceMeters>NAN</DistanceMeters>
          </Trackpoint>
          <Trackpoint>
            <Time>2020-05-25T06:59:19.000Z</Time>
            <Position>
              <LatitudeDegrees>38.17737598903477191925048828125</LatitudeDegrees>
              <LongitudeDegrees>-1.12400374375283718109130859375</LongitudeDegrees>
            </Position>
            <AltitudeMeters>200.600006103515625</AltitudeMeters>
            <DistanceMeters>NAN</DistanceMeters>
          </Trackpoint>
          <Trackpoint>
            <Time>2020-05-25T06:59:20.000Z</Time>
            <Position>
              <LatitudeDegrees>38.177296780049800872802734375</LatitudeDegrees>
              <LongitudeDegrees>-1.1239899136126041412353515625</LongitudeDegrees>
            </Position>
            <AltitudeMeters>200.600006103515625</AltitudeMeters>
            <DistanceMeters>NAN</DistanceMeters>
          </Trackpoint>
          <Trackpoint>
            <Time>2020-05-25T06:59:21.000Z</Time>
            <Position>
              <LatitudeDegrees>38.177219331264495849609375</LatitudeDegrees>
              <LongitudeDegrees>-1.123984716832637786865234375</LongitudeDegrees>
            </Position>
            <AltitudeMeters>200.399993896484375</AltitudeMeters>
            <DistanceMeters>NAN</DistanceMeters>
          </Trackpoint>
          <Trackpoint>
            <Time>2020-05-25T06:59:22.000Z</Time>
            <Position>
              <LatitudeDegrees>38.1771400384604930877685546875</LatitudeDegrees>
              <LongitudeDegrees>-1.1239850521087646484375</LongitudeDegrees>
            </Position>
            <AltitudeMeters>200.1999969482421875</AltitudeMeters>
            <DistanceMeters>NAN</DistanceMeters>
          </Trackpoint>
          <Trackpoint>
            <Time>2020-05-25T06:59:23.000Z</Time>
            <Position>
              <LatitudeDegrees>38.17705797962844371795654296875</LatitudeDegrees>
              <LongitudeDegrees>-1.1239798553287982940673828125</LongitudeDegrees>
            </Position>
            <AltitudeMeters>200.1999969482421875</AltitudeMeters>
            <DistanceMeters>NAN</DistanceMeters>
          </Trackpoint>
          <Trackpoint>
            <Time>2020-05-25T06:59:24.000Z</Time>
            <Position>
              <LatitudeDegrees>38.176975585520267486572265625</LatitudeDegrees>
              <LongitudeDegrees>-1.12397843040525913238525390625</LongitudeDegrees>
            </Position>
            <AltitudeMeters>200</AltitudeMeters>
            <DistanceMeters>NAN</DistanceMeters>
          </Trackpoint>
          <Trackpoint>
            <Time>2020-05-25T06:59:25.000Z</Time>
            <Position>
              <LatitudeDegrees>38.17689319141209125518798828125</LatitudeDegrees>
              <LongitudeDegrees>-1.12398245371878147125244140625</LongitudeDegrees>
            </Position>
            <AltitudeMeters>199.8000030517578125</AltitudeMeters>
            <DistanceMeters>NAN</DistanceMeters>
          </Trackpoint>
          <Trackpoint>
            <Time>2020-05-25T06:59:26.000Z</Time>
            <Position>
              <LatitudeDegrees>38.176812641322612762451171875</LatitudeDegrees>
              <LongitudeDegrees>-1.12399041652679443359375</LongitudeDegrees>
            </Position>
            <AltitudeMeters>199.600006103515625</AltitudeMeters>
            <DistanceMeters>NAN</DistanceMeters>
          </Trackpoint>
          <Trackpoint>
            <Time>2020-05-25T06:59:27.000Z</Time>
            <Position>
              <LatitudeDegrees>38.176732845604419708251953125</LatitudeDegrees>
              <LongitudeDegrees>-1.12399636767804622650146484375</LongitudeDegrees>
            </Position>
            <AltitudeMeters>199.1999969482421875</AltitudeMeters>
            <DistanceMeters>NAN</DistanceMeters>
          </Trackpoint>
          <Trackpoint>
            <Time>2020-05-25T06:59:28.000Z</Time>
            <Position>
              <LatitudeDegrees>38.17665313370525836944580078125</LatitudeDegrees>
              <LongitudeDegrees>-1.12399988807737827301025390625</LongitudeDegrees>
            </Position>
            <AltitudeMeters>198.8000030517578125</AltitudeMeters>
            <DistanceMeters>NAN</DistanceMeters>
          </Trackpoint>
          <Trackpoint>
            <Time>2020-05-25T06:59:29.000Z</Time>
            <Position>
              <LatitudeDegrees>38.17657166160643100738525390625</LatitudeDegrees>
              <LongitudeDegrees>-1.12399200908839702606201171875</LongitudeDegrees>
            </Position>
            <AltitudeMeters>198.399993896484375</AltitudeMeters>
            <DistanceMeters>NAN</DistanceMeters>
          </Trackpoint>
          <Trackpoint>
            <Time>2020-05-25T06:59:30.000Z</Time>
            <Position>
              <LatitudeDegrees>38.17649186588823795318603515625</LatitudeDegrees>
              <LongitudeDegrees>-1.123987734317779541015625</LongitudeDegrees>
            </Position>
            <AltitudeMeters>198</AltitudeMeters>
            <DistanceMeters>NAN</DistanceMeters>
          </Trackpoint>
          <Trackpoint>
            <Time>2020-05-25T06:59:31.000Z</Time>
            <Position>
              <LatitudeDegrees>38.17641240544617176055908203125</LatitudeDegrees>
              <LongitudeDegrees>-1.1239862255752086639404296875</LongitudeDegrees>
            </Position>
            <AltitudeMeters>197.8000030517578125</AltitudeMeters>
            <DistanceMeters>NAN</DistanceMeters>
          </Trackpoint>
          <Trackpoint>
            <Time>2020-05-25T06:59:32.000Z</Time>
            <Position>
              <LatitudeDegrees>38.176335878670215606689453125</LatitudeDegrees>
              <LongitudeDegrees>-1.1239912547171115875244140625</LongitudeDegrees>
            </Position>
            <AltitudeMeters>197.600006103515625</AltitudeMeters>
            <DistanceMeters>NAN</DistanceMeters>
          </Trackpoint>
          <Trackpoint>
            <Time>2020-05-25T06:59:33.000Z</Time>
            <Position>
              <LatitudeDegrees>38.1762602739036083221435546875</LatitudeDegrees>
              <LongitudeDegrees>-1.123998798429965972900390625</LongitudeDegrees>
            </Position>
            <AltitudeMeters>197.399993896484375</AltitudeMeters>
            <DistanceMeters>NAN</DistanceMeters>
          </Trackpoint>
          <Trackpoint>
            <Time>2020-05-25T06:59:34.000Z</Time>
            <Position>
              <LatitudeDegrees>38.1761853396892547607421875</LatitudeDegrees>
              <LongitudeDegrees>-1.124006174504756927490234375</LongitudeDegrees>
            </Position>
            <AltitudeMeters>197.1999969482421875</AltitudeMeters>
            <DistanceMeters>NAN</DistanceMeters>
          </Trackpoint>
          <Trackpoint>
            <Time>2020-05-25T06:59:35.000Z</Time>
            <Position>
              <LatitudeDegrees>38.17611250095069408416748046875</LatitudeDegrees>
              <LongitudeDegrees>-1.12401925027370452880859375</LongitudeDegrees>
            </Position>
            <AltitudeMeters>197.1999969482421875</AltitudeMeters>
            <DistanceMeters>NAN</DistanceMeters>
          </Trackpoint>
          <Trackpoint>
            <Time>2020-05-25T06:59:36.000Z</Time>
            <Position>
              <LatitudeDegrees>38.17603639326989650726318359375</LatitudeDegrees>
              <LongitudeDegrees>-1.1240267939865589141845703125</LongitudeDegrees>
            </Position>
            <AltitudeMeters>197.1999969482421875</AltitudeMeters>
            <DistanceMeters>NAN</DistanceMeters>
          </Trackpoint>
          <Trackpoint>
            <Time>2020-05-25T06:59:37.000Z</Time>
            <Position>
              <LatitudeDegrees>38.1759581901133060455322265625</LatitudeDegrees>
              <LongitudeDegrees>-1.1240304820239543914794921875</LongitudeDegrees>
            </Position>
            <AltitudeMeters>197</AltitudeMeters>
            <DistanceMeters>NAN</DistanceMeters>
          </Trackpoint>
          <Trackpoint>
            <Time>2020-05-25T06:59:38.000Z</Time>
            <Position>
              <LatitudeDegrees>38.1758783943951129913330078125</LatitudeDegrees>
              <LongitudeDegrees>-1.12403660081326961517333984375</LongitudeDegrees>
            </Position>
            <AltitudeMeters>197</AltitudeMeters>
            <DistanceMeters>NAN</DistanceMeters>
          </Trackpoint>
          <Trackpoint>
            <Time>2020-05-25T06:59:39.000Z</Time>
            <Position>
              <LatitudeDegrees>38.17579532973468303680419921875</LatitudeDegrees>
              <LongitudeDegrees>-1.1240385286509990692138671875</LongitudeDegrees>
            </Position>
            <AltitudeMeters>197</AltitudeMeters>
            <DistanceMeters>NAN</DistanceMeters>
          </Trackpoint>
          <Trackpoint>
            <Time>2020-05-25T06:59:40.000Z</Time>
            <Position>
              <LatitudeDegrees>38.1757074035704135894775390625</LatitudeDegrees>
              <LongitudeDegrees>-1.124023608863353729248046875</LongitudeDegrees>
            </Position>
            <AltitudeMeters>197</AltitudeMeters>
            <DistanceMeters>NAN</DistanceMeters>
          </Trackpoint>
          <Trackpoint>
            <Time>2020-05-25T06:59:41.000Z</Time>
            <Position>
              <LatitudeDegrees>38.17561612464487552642822265625</LatitudeDegrees>
              <LongitudeDegrees>-1.12400977872312068939208984375</LongitudeDegrees>
            </Position>
            <AltitudeMeters>196.8000030517578125</AltitudeMeters>
            <DistanceMeters>NAN</DistanceMeters>
          </Trackpoint>
          <Trackpoint>
            <Time>2020-05-25T06:59:42.000Z</Time>
            <Position>
              <LatitudeDegrees>38.17552090622484683990478515625</LatitudeDegrees>
              <LongitudeDegrees>-1.1239909194409847259521484375</LongitudeDegrees>
            </Position>
            <AltitudeMeters>196.8000030517578125</AltitudeMeters>
            <DistanceMeters>NAN</DistanceMeters>
          </Trackpoint>
          <Trackpoint>
            <Time>2020-05-25T06:59:43.000Z</Time>
            <Position>
              <LatitudeDegrees>38.1754220835864543914794921875</LatitudeDegrees>
              <LongitudeDegrees>-1.123975999653339385986328125</LongitudeDegrees>
            </Position>
            <AltitudeMeters>196.8000030517578125</AltitudeMeters>
            <DistanceMeters>NAN</DistanceMeters>
          </Trackpoint>
          <Trackpoint>
            <Time>2020-05-25T06:59:44.000Z</Time>
            <Position>
              <LatitudeDegrees>38.17532460205256938934326171875</LatitudeDegrees>
              <LongitudeDegrees>-1.123969294130802154541015625</LongitudeDegrees>
            </Position>
            <AltitudeMeters>196.8000030517578125</AltitudeMeters>
            <DistanceMeters>NAN</DistanceMeters>
          </Trackpoint>
          <Trackpoint>
            <Time>2020-05-25T06:59:45.000Z</Time>
            <Position>
              <LatitudeDegrees>38.17522318102419376373291015625</LatitudeDegrees>
              <LongitudeDegrees>-1.12395663745701313018798828125</LongitudeDegrees>
            </Position>
            <AltitudeMeters>196.600006103515625</AltitudeMeters>
            <DistanceMeters>NAN</DistanceMeters>
          </Trackpoint>
          <Trackpoint>
            <Time>2020-05-25T06:59:46.000Z</Time>
            <Position>
              <LatitudeDegrees>38.175121508538722991943359375</LatitudeDegrees>
              <LongitudeDegrees>-1.1239446513354778289794921875</LongitudeDegrees>
            </Position>
            <AltitudeMeters>196.399993896484375</AltitudeMeters>
            <DistanceMeters>NAN</DistanceMeters>
          </Trackpoint>
          <Trackpoint>
            <Time>2020-05-25T06:59:47.000Z</Time>
            <Position>
              <LatitudeDegrees>38.17501782439649105072021484375</LatitudeDegrees>
              <LongitudeDegrees>-1.12393476068973541259765625</LongitudeDegrees>
            </Position>
            <AltitudeMeters>196</AltitudeMeters>
            <DistanceMeters>NAN</DistanceMeters>
          </Trackpoint>
          <Trackpoint>
            <Time>2020-05-25T06:59:48.000Z</Time>
            <Position>
              <LatitudeDegrees>38.174911625683307647705078125</LatitudeDegrees>
              <LongitudeDegrees>-1.123926378786563873291015625</LongitudeDegrees>
            </Position>
            <AltitudeMeters>195.600006103515625</AltitudeMeters>
            <DistanceMeters>NAN</DistanceMeters>
          </Trackpoint>
          <Trackpoint>
            <Time>2020-05-25T06:59:49.000Z</Time>
            <Position>
              <LatitudeDegrees>38.17480324767529964447021484375</LatitudeDegrees>
              <LongitudeDegrees>-1.1239174939692020416259765625</LongitudeDegrees>
            </Position>
            <AltitudeMeters>195</AltitudeMeters>
            <DistanceMeters>NAN</DistanceMeters>
          </Trackpoint>
          <Trackpoint>
            <Time>2020-05-25T06:59:50.000Z</Time>
            <Position>
              <LatitudeDegrees>38.17469210363924503326416015625</LatitudeDegrees>
              <LongitudeDegrees>-1.12391087226569652557373046875</LongitudeDegrees>
            </Position>
            <AltitudeMeters>193.8000030517578125</AltitudeMeters>
            <DistanceMeters>NAN</DistanceMeters>
          </Trackpoint>
          <Trackpoint>
            <Time>2020-05-25T06:59:51.000Z</Time>
            <Position>
              <LatitudeDegrees>38.17458079196512699127197265625</LatitudeDegrees>
              <LongitudeDegrees>-1.1239081062376499176025390625</LongitudeDegrees>
            </Position>
            <AltitudeMeters>193</AltitudeMeters>
            <DistanceMeters>NAN</DistanceMeters>
          </Trackpoint>
          <Trackpoint>
            <Time>2020-05-25T06:59:52.000Z</Time>
            <Position>
              <LatitudeDegrees>38.17446797154843807220458984375</LatitudeDegrees>
              <LongitudeDegrees>-1.12390148453414440155029296875</LongitudeDegrees>
            </Position>
            <AltitudeMeters>192.399993896484375</AltitudeMeters>
            <DistanceMeters>NAN</DistanceMeters>
          </Trackpoint>
          <Trackpoint>
            <Time>2020-05-25T06:59:53.000Z</Time>
            <Position>
              <LatitudeDegrees>38.17435481585562229156494140625</LatitudeDegrees>
              <LongitudeDegrees>-1.12389477901160717010498046875</LongitudeDegrees>
            </Position>
            <AltitudeMeters>192</AltitudeMeters>
            <DistanceMeters>NAN</DistanceMeters>
          </Trackpoint>
          <Trackpoint>
            <Time>2020-05-25T06:59:54.000Z</Time>
            <Position>
              <LatitudeDegrees>38.1742434203624725341796875</LatitudeDegrees>
              <LongitudeDegrees>-1.12389226444065570831298828125</LongitudeDegrees>
            </Position>
            <AltitudeMeters>191.399993896484375</AltitudeMeters>
            <DistanceMeters>NAN</DistanceMeters>
          </Trackpoint>
          <Trackpoint>
            <Time>2020-05-25T06:59:55.000Z</Time>
            <Position>
              <LatitudeDegrees>38.1741334497928619384765625</LatitudeDegrees>
              <LongitudeDegrees>-1.12388891167938709259033203125</LongitudeDegrees>
            </Position>
            <AltitudeMeters>191</AltitudeMeters>
            <DistanceMeters>NAN</DistanceMeters>
          </Trackpoint>
          <Trackpoint>
            <Time>2020-05-25T06:59:56.000Z</Time>
            <Position>
              <LatitudeDegrees>38.17402456887066364288330078125</LatitudeDegrees>
              <LongitudeDegrees>-1.12388673238456249237060546875</LongitudeDegrees>
            </Position>
            <AltitudeMeters>190.399993896484375</AltitudeMeters>
            <DistanceMeters>NAN</DistanceMeters>
          </Trackpoint>
          <Trackpoint>
            <Time>2020-05-25T06:59:57.000Z</Time>
            <Position>
              <LatitudeDegrees>38.173917867243289947509765625</LatitudeDegrees>
              <LongitudeDegrees>-1.12388354726135730743408203125</LongitudeDegrees>
            </Position>
            <AltitudeMeters>189.399993896484375</AltitudeMeters>
            <DistanceMeters>NAN</DistanceMeters>
          </Trackpoint>
          <Trackpoint>
            <Time>2020-05-25T06:59:58.000Z</Time>
            <Position>
              <LatitudeDegrees>38.17381552420556545257568359375</LatitudeDegrees>
              <LongitudeDegrees>-1.12388522364199161529541015625</LongitudeDegrees>
            </Position>
            <AltitudeMeters>188.8000030517578125</AltitudeMeters>
            <DistanceMeters>NAN</DistanceMeters>
          </Trackpoint>
          <Trackpoint>
            <Time>2020-05-25T06:59:59.000Z</Time>
            <Position>
              <LatitudeDegrees>38.1737155281007289886474609375</LatitudeDegrees>
              <LongitudeDegrees>-1.1238898336887359619140625</LongitudeDegrees>
            </Position>
            <AltitudeMeters>188.1999969482421875</AltitudeMeters>
            <DistanceMeters>NAN</DistanceMeters>
          </Trackpoint>
          <Trackpoint>
            <Time>2020-05-25T07:00:00.000Z</Time>
            <Position>
              <LatitudeDegrees>38.1736171245574951171875</LatitudeDegrees>
              <LongitudeDegrees>-1.12389192916452884674072265625</LongitudeDegrees>
            </Position>
            <AltitudeMeters>187.399993896484375</AltitudeMeters>
            <DistanceMeters>NAN</DistanceMeters>
          </Trackpoint>
          <Trackpoint>
            <Time>2020-05-25T07:00:01.000Z</Time>
            <Position>
              <LatitudeDegrees>38.173519559204578399658203125</LatitudeDegrees>
              <LongitudeDegrees>-1.12388690002262592315673828125</LongitudeDegrees>
            </Position>
            <AltitudeMeters>187</AltitudeMeters>
            <DistanceMeters>NAN</DistanceMeters>
          </Trackpoint>
          <Trackpoint>
            <Time>2020-05-25T07:00:02.000Z</Time>
            <Position>
              <LatitudeDegrees>38.1734238378703594207763671875</LatitudeDegrees>
              <LongitudeDegrees>-1.12388312816619873046875</LongitudeDegrees>
            </Position>
            <AltitudeMeters>186.600006103515625</AltitudeMeters>
            <DistanceMeters>NAN</DistanceMeters>
          </Trackpoint>
          <Trackpoint>
            <Time>2020-05-25T07:00:03.000Z</Time>
            <Position>
              <LatitudeDegrees>38.1733292900025844573974609375</LatitudeDegrees>
              <LongitudeDegrees>-1.12388153560459613800048828125</LongitudeDegrees>
            </Position>
            <AltitudeMeters>186.600006103515625</AltitudeMeters>
            <DistanceMeters>NAN</DistanceMeters>
          </Trackpoint>
          <Trackpoint>
            <Time>2020-05-25T07:00:04.000Z</Time>
            <Position>
              <LatitudeDegrees>38.17323666997253894805908203125</LatitudeDegrees>
              <LongitudeDegrees>-1.123876087367534637451171875</LongitudeDegrees>
            </Position>
            <AltitudeMeters>186.399993896484375</AltitudeMeters>
            <DistanceMeters>NAN</DistanceMeters>
          </Trackpoint>
          <Trackpoint>
            <Time>2020-05-25T07:00:05.000Z</Time>
            <Position>
              <LatitudeDegrees>38.17314480431377887725830078125</LatitudeDegrees>
              <LongitudeDegrees>-1.12386913038790225982666015625</LongitudeDegrees>
            </Position>
            <AltitudeMeters>186.1999969482421875</AltitudeMeters>
            <DistanceMeters>NAN</DistanceMeters>
          </Trackpoint>
          <Trackpoint>
            <Time>2020-05-25T07:00:06.000Z</Time>
            <Position>
              <LatitudeDegrees>38.17305176518857479095458984375</LatitudeDegrees>
              <LongitudeDegrees>-1.1238618381321430206298828125</LongitudeDegrees>
            </Position>
            <AltitudeMeters>186.1999969482421875</AltitudeMeters>
            <DistanceMeters>NAN</DistanceMeters>
          </Trackpoint>
          <Trackpoint>
            <Time>2020-05-25T07:00:07.000Z</Time>
            <Position>
              <LatitudeDegrees>38.17295797169208526611328125</LatitudeDegrees>
              <LongitudeDegrees>-1.123854629695415496826171875</LongitudeDegrees>
            </Position>
            <AltitudeMeters>186.1999969482421875</AltitudeMeters>
            <DistanceMeters>NAN</DistanceMeters>
          </Trackpoint>
          <Trackpoint>
            <Time>2020-05-25T07:00:08.000Z</Time>
            <Position>
              <LatitudeDegrees>38.17286417819559574127197265625</LatitudeDegrees>
              <LongitudeDegrees>-1.1238501034677028656005859375</LongitudeDegrees>
            </Position>
            <AltitudeMeters>186.1999969482421875</AltitudeMeters>
            <DistanceMeters>NAN</DistanceMeters>
          </Trackpoint>
          <Trackpoint>
            <Time>2020-05-25T07:00:09.000Z</Time>
            <Position>
              <LatitudeDegrees>38.172770552337169647216796875</LatitudeDegrees>
              <LongitudeDegrees>-1.12384633161127567291259765625</LongitudeDegrees>
            </Position>
            <AltitudeMeters>186.1999969482421875</AltitudeMeters>
            <DistanceMeters>NAN</DistanceMeters>
          </Trackpoint>
          <Trackpoint>
            <Time>2020-05-25T07:00:10.000Z</Time>
            <Position>
              <LatitudeDegrees>38.17267625592648983001708984375</LatitudeDegrees>
              <LongitudeDegrees>-1.12384331412613391876220703125</LongitudeDegrees>
            </Position>
            <AltitudeMeters>186.1999969482421875</AltitudeMeters>
            <DistanceMeters>NAN</DistanceMeters>
          </Trackpoint>
          <Trackpoint>
            <Time>2020-05-25T07:00:11.000Z</Time>
            <Position>
              <LatitudeDegrees>38.1725819595158100128173828125</LatitudeDegrees>
              <LongitudeDegrees>-1.12383845262229442596435546875</LongitudeDegrees>
            </Position>
            <AltitudeMeters>186</AltitudeMeters>
            <DistanceMeters>NAN</DistanceMeters>
          </Trackpoint>
          <Trackpoint>
            <Time>2020-05-25T07:00:12.000Z</Time>
            <Position>
              <LatitudeDegrees>38.17248866893351078033447265625</LatitudeDegrees>
              <LongitudeDegrees>-1.12383593805134296417236328125</LongitudeDegrees>
            </Position>
            <AltitudeMeters>185.8000030517578125</AltitudeMeters>
            <DistanceMeters>NAN</DistanceMeters>
          </Trackpoint>
          <Trackpoint>
            <Time>2020-05-25T07:00:13.000Z</Time>
            <Position>
              <LatitudeDegrees>38.17239739000797271728515625</LatitudeDegrees>
              <LongitudeDegrees>-1.12383225001394748687744140625</LongitudeDegrees>
            </Position>
            <AltitudeMeters>185.8000030517578125</AltitudeMeters>
            <DistanceMeters>NAN</DistanceMeters>
          </Trackpoint>
          <Trackpoint>
            <Time>2020-05-25T07:00:14.000Z</Time>
            <Position>
              <LatitudeDegrees>38.1723077036440372467041015625</LatitudeDegrees>
              <LongitudeDegrees>-1.1238276399672031402587890625</LongitudeDegrees>
            </Position>
            <AltitudeMeters>185.8000030517578125</AltitudeMeters>
            <DistanceMeters>NAN</DistanceMeters>
          </Trackpoint>
          <Trackpoint>
            <Time>2020-05-25T07:00:15.000Z</Time>
            <Position>
              <LatitudeDegrees>38.172218017280101776123046875</LatitudeDegrees>
              <LongitudeDegrees>-1.12382370047271251678466796875</LongitudeDegrees>
            </Position>
            <AltitudeMeters>185.8000030517578125</AltitudeMeters>
            <DistanceMeters>NAN</DistanceMeters>
          </Trackpoint>
          <Trackpoint>
            <Time>2020-05-25T07:00:16.000Z</Time>
            <Position>
              <LatitudeDegrees>38.17212875001132488250732421875</LatitudeDegrees>
              <LongitudeDegrees>-1.1238216049969196319580078125</LongitudeDegrees>
            </Position>
            <AltitudeMeters>185.8000030517578125</AltitudeMeters>
            <DistanceMeters>NAN</DistanceMeters>
          </Trackpoint>
          <Trackpoint>
            <Time>2020-05-25T07:00:17.000Z</Time>
            <Position>
              <LatitudeDegrees>38.17204275168478488922119140625</LatitudeDegrees>
              <LongitudeDegrees>-1.1238189227879047393798828125</LongitudeDegrees>
            </Position>
            <AltitudeMeters>185.600006103515625</AltitudeMeters>
            <DistanceMeters>NAN</DistanceMeters>
          </Trackpoint>
          <Trackpoint>
            <Time>2020-05-25T07:00:18.000Z</Time>
            <Position>
              <LatitudeDegrees>38.1719556637108325958251953125</LatitudeDegrees>
              <LongitudeDegrees>-1.1238145641982555389404296875</LongitudeDegrees>
            </Position>
            <AltitudeMeters>185</AltitudeMeters>
            <DistanceMeters>NAN</DistanceMeters>
          </Trackpoint>
          <Trackpoint>
            <Time>2020-05-25T07:00:19.000Z</Time>
            <Position>
              <LatitudeDegrees>38.17187008447945117950439453125</LatitudeDegrees>
              <LongitudeDegrees>-1.1238095350563526153564453125</LongitudeDegrees>
            </Position>
            <AltitudeMeters>185</AltitudeMeters>
            <DistanceMeters>NAN</DistanceMeters>
          </Trackpoint>
          <Trackpoint>
            <Time>2020-05-25T07:00:20.000Z</Time>
            <Position>
              <LatitudeDegrees>38.17178593017160892486572265625</LatitudeDegrees>
              <LongitudeDegrees>-1.1238055117428302764892578125</LongitudeDegrees>
            </Position>
            <AltitudeMeters>184.8000030517578125</AltitudeMeters>
            <DistanceMeters>NAN</DistanceMeters>
          </Trackpoint>
          <Trackpoint>
            <Time>2020-05-25T07:00:21.000Z</Time>
            <Position>
              <LatitudeDegrees>38.17170395515859127044677734375</LatitudeDegrees>
              <LongitudeDegrees>-1.12380123697221279144287109375</LongitudeDegrees>
            </Position>
            <AltitudeMeters>184.8000030517578125</AltitudeMeters>
            <DistanceMeters>NAN</DistanceMeters>
          </Trackpoint>
          <Trackpoint>
            <Time>2020-05-25T07:00:22.000Z</Time>
            <Position>
              <LatitudeDegrees>38.171624243259429931640625</LatitudeDegrees>
              <LongitudeDegrees>-1.123798973858356475830078125</LongitudeDegrees>
            </Position>
            <AltitudeMeters>184.8000030517578125</AltitudeMeters>
            <DistanceMeters>NAN</DistanceMeters>
          </Trackpoint>
          <Trackpoint>
            <Time>2020-05-25T07:00:23.000Z</Time>
            <Position>
              <LatitudeDegrees>38.1715452857315540313720703125</LatitudeDegrees>
              <LongitudeDegrees>-1.12379838712513446807861328125</LongitudeDegrees>
            </Position>
            <AltitudeMeters>184.8000030517578125</AltitudeMeters>
            <DistanceMeters>NAN</DistanceMeters>
          </Trackpoint>
          <Trackpoint>
            <Time>2020-05-25T07:00:24.000Z</Time>
            <Position>
              <LatitudeDegrees>38.17146641202270984649658203125</LatitudeDegrees>
              <LongitudeDegrees>-1.1238004826009273529052734375</LongitudeDegrees>
            </Position>
            <AltitudeMeters>184.8000030517578125</AltitudeMeters>
            <DistanceMeters>NAN</DistanceMeters>
          </Trackpoint>
          <Trackpoint>
            <Time>2020-05-25T07:00:25.000Z</Time>
            <Position>
              <LatitudeDegrees>38.17138611339032649993896484375</LatitudeDegrees>
              <LongitudeDegrees>-1.123800314962863922119140625</LongitudeDegrees>
            </Position>
            <AltitudeMeters>184.8000030517578125</AltitudeMeters>
            <DistanceMeters>NAN</DistanceMeters>
          </Trackpoint>
          <Trackpoint>
            <Time>2020-05-25T07:00:26.000Z</Time>
            <Position>
              <LatitudeDegrees>38.1713058985769748687744140625</LatitudeDegrees>
              <LongitudeDegrees>-1.1237988062202930450439453125</LongitudeDegrees>
            </Position>
            <AltitudeMeters>184.8000030517578125</AltitudeMeters>
            <DistanceMeters>NAN</DistanceMeters>
          </Trackpoint>
          <Trackpoint>
            <Time>2020-05-25T07:00:27.000Z</Time>
            <Position>
              <LatitudeDegrees>38.1712267734110355377197265625</LatitudeDegrees>
              <LongitudeDegrees>-1.12379419617354869842529296875</LongitudeDegrees>
            </Position>
            <AltitudeMeters>184.8000030517578125</AltitudeMeters>
            <DistanceMeters>NAN</DistanceMeters>
          </Trackpoint>
          <Trackpoint>
            <Time>2020-05-25T07:00:28.000Z</Time>
            <Position>
              <LatitudeDegrees>38.17114924080669879913330078125</LatitudeDegrees>
              <LongitudeDegrees>-1.123789250850677490234375</LongitudeDegrees>
            </Position>
            <AltitudeMeters>184.8000030517578125</AltitudeMeters>
            <DistanceMeters>NAN</DistanceMeters>
          </Trackpoint>
          <Trackpoint>
            <Time>2020-05-25T07:00:29.000Z</Time>
            <Position>
              <LatitudeDegrees>38.17107128910720348358154296875</LatitudeDegrees>
              <LongitudeDegrees>-1.1237850598990917205810546875</LongitudeDegrees>
            </Position>
            <AltitudeMeters>185</AltitudeMeters>
            <DistanceMeters>NAN</DistanceMeters>
          </Trackpoint>
          <Trackpoint>
            <Time>2020-05-25T07:00:30.000Z</Time>
            <Position>
              <LatitudeDegrees>38.1709954328835010528564453125</LatitudeDegrees>
              <LongitudeDegrees>-1.12378279678523540496826171875</LongitudeDegrees>
            </Position>
            <AltitudeMeters>185</AltitudeMeters>
            <DistanceMeters>NAN</DistanceMeters>
          </Trackpoint>
          <Trackpoint>
            <Time>2020-05-25T07:00:31.000Z</Time>
            <Position>
              <LatitudeDegrees>38.17091974429786205291748046875</LatitudeDegrees>
              <LongitudeDegrees>-1.1237830482423305511474609375</LongitudeDegrees>
            </Position>
            <AltitudeMeters>185.1999969482421875</AltitudeMeters>
            <DistanceMeters>NAN</DistanceMeters>
          </Trackpoint>
          <Trackpoint>
            <Time>2020-05-25T07:00:32.000Z</Time>
            <Position>
              <LatitudeDegrees>38.17084346897900104522705078125</LatitudeDegrees>
              <LongitudeDegrees>-1.123786233365535736083984375</LongitudeDegrees>
            </Position>
            <AltitudeMeters>185.1999969482421875</AltitudeMeters>
            <DistanceMeters>NAN</DistanceMeters>
          </Trackpoint>
          <Trackpoint>
            <Time>2020-05-25T07:00:33.000Z</Time>
            <Position>
              <LatitudeDegrees>38.1707677803933620452880859375</LatitudeDegrees>
              <LongitudeDegrees>-1.12379520200192928314208984375</LongitudeDegrees>
            </Position>
            <AltitudeMeters>185.399993896484375</AltitudeMeters>
            <DistanceMeters>NAN</DistanceMeters>
          </Trackpoint>
          <Trackpoint>
            <Time>2020-05-25T07:00:34.000Z</Time>
            <Position>
              <LatitudeDegrees>38.17068991251289844512939453125</LatitudeDegrees>
              <LongitudeDegrees>-1.1238102056086063385009765625</LongitudeDegrees>
            </Position>
            <AltitudeMeters>185.600006103515625</AltitudeMeters>
            <DistanceMeters>NAN</DistanceMeters>
          </Trackpoint>
          <Trackpoint>
            <Time>2020-05-25T07:00:35.000Z</Time>
            <Position>
              <LatitudeDegrees>38.17061346955597400665283203125</LatitudeDegrees>
              <LongitudeDegrees>-1.12383225001394748687744140625</LongitudeDegrees>
            </Position>
            <AltitudeMeters>185.600006103515625</AltitudeMeters>
            <DistanceMeters>NAN</DistanceMeters>
          </Trackpoint>
          <Trackpoint>
            <Time>2020-05-25T07:00:36.000Z</Time>
            <Position>
              <LatitudeDegrees>38.1705367751419544219970703125</LatitudeDegrees>
              <LongitudeDegrees>-1.1238598264753818511962890625</LongitudeDegrees>
            </Position>
            <AltitudeMeters>185.8000030517578125</AltitudeMeters>
            <DistanceMeters>NAN</DistanceMeters>
          </Trackpoint>
          <Trackpoint>
            <Time>2020-05-25T07:00:37.000Z</Time>
            <Position>
              <LatitudeDegrees>38.17046041600406169891357421875</LatitudeDegrees>
              <LongitudeDegrees>-1.123890839517116546630859375</LongitudeDegrees>
            </Position>
            <AltitudeMeters>185.8000030517578125</AltitudeMeters>
            <DistanceMeters>NAN</DistanceMeters>
          </Trackpoint>
          <Trackpoint>
            <Time>2020-05-25T07:00:38.000Z</Time>
            <Position>
              <LatitudeDegrees>38.1703864037990570068359375</LatitudeDegrees>
              <LongitudeDegrees>-1.1239241994917392730712890625</LongitudeDegrees>
            </Position>
            <AltitudeMeters>185.8000030517578125</AltitudeMeters>
            <DistanceMeters>NAN</DistanceMeters>
          </Trackpoint>
          <Trackpoint>
            <Time>2020-05-25T07:00:39.000Z</Time>
            <Position>
              <LatitudeDegrees>38.170312978327274322509765625</LatitudeDegrees>
              <LongitudeDegrees>-1.12396116368472576141357421875</LongitudeDegrees>
            </Position>
            <AltitudeMeters>186</AltitudeMeters>
            <DistanceMeters>NAN</DistanceMeters>
          </Trackpoint>
          <Trackpoint>
            <Time>2020-05-25T07:00:40.000Z</Time>
            <Position>
              <LatitudeDegrees>38.17024215124547481536865234375</LatitudeDegrees>
              <LongitudeDegrees>-1.1240029893815517425537109375</LongitudeDegrees>
            </Position>
            <AltitudeMeters>186</AltitudeMeters>
            <DistanceMeters>NAN</DistanceMeters>
          </Trackpoint>
          <Trackpoint>
            <Time>2020-05-25T07:00:41.000Z</Time>
            <Position>
              <LatitudeDegrees>38.17017249763011932373046875</LatitudeDegrees>
              <LongitudeDegrees>-1.124050430953502655029296875</LongitudeDegrees>
            </Position>
            <AltitudeMeters>186</AltitudeMeters>
            <DistanceMeters>NAN</DistanceMeters>
          </Trackpoint>
          <Trackpoint>
            <Time>2020-05-25T07:00:42.000Z</Time>
            <Position>
              <LatitudeDegrees>38.17010452039539813995361328125</LatitudeDegrees>
              <LongitudeDegrees>-1.124103069305419921875</LongitudeDegrees>
            </Position>
            <AltitudeMeters>186</AltitudeMeters>
            <DistanceMeters>NAN</DistanceMeters>
          </Trackpoint>
          <Trackpoint>
            <Time>2020-05-25T07:00:43.000Z</Time>
            <Position>
              <LatitudeDegrees>38.1700375489890575408935546875</LatitudeDegrees>
              <LongitudeDegrees>-1.1241619102656841278076171875</LongitudeDegrees>
            </Position>
            <AltitudeMeters>186.1999969482421875</AltitudeMeters>
            <DistanceMeters>NAN</DistanceMeters>
          </Trackpoint>
          <Trackpoint>
            <Time>2020-05-25T07:00:44.000Z</Time>
            <Position>
              <LatitudeDegrees>38.169972002506256103515625</LatitudeDegrees>
              <LongitudeDegrees>-1.12422385253012180328369140625</LongitudeDegrees>
            </Position>
            <AltitudeMeters>186.1999969482421875</AltitudeMeters>
            <DistanceMeters>NAN</DistanceMeters>
          </Trackpoint>
          <Trackpoint>
            <Time>2020-05-25T07:00:45.000Z</Time>
            <Position>
              <LatitudeDegrees>38.169909976422786712646484375</LatitudeDegrees>
              <LongitudeDegrees>-1.1242869682610034942626953125</LongitudeDegrees>
            </Position>
            <AltitudeMeters>186.1999969482421875</AltitudeMeters>
            <DistanceMeters>NAN</DistanceMeters>
          </Trackpoint>
          <Trackpoint>
            <Time>2020-05-25T07:00:46.000Z</Time>
            <Position>
              <LatitudeDegrees>38.16984870471060276031494140625</LatitudeDegrees>
              <LongitudeDegrees>-1.12435184419155120849609375</LongitudeDegrees>
            </Position>
            <AltitudeMeters>186.1999969482421875</AltitudeMeters>
            <DistanceMeters>NAN</DistanceMeters>
          </Trackpoint>
          <Trackpoint>
            <Time>2020-05-25T07:00:47.000Z</Time>
            <Position>
              <LatitudeDegrees>38.16978785209357738494873046875</LatitudeDegrees>
              <LongitudeDegrees>-1.12441663630306720733642578125</LongitudeDegrees>
            </Position>
            <AltitudeMeters>186.1999969482421875</AltitudeMeters>
            <DistanceMeters>NAN</DistanceMeters>
          </Trackpoint>
          <Trackpoint>
            <Time>2020-05-25T07:00:48.000Z</Time>
            <Position>
              <LatitudeDegrees>38.16972716711461544036865234375</LatitudeDegrees>
              <LongitudeDegrees>-1.1244807578623294830322265625</LongitudeDegrees>
            </Position>
            <AltitudeMeters>186.1999969482421875</AltitudeMeters>
            <DistanceMeters>NAN</DistanceMeters>
          </Trackpoint>
          <Trackpoint>
            <Time>2020-05-25T07:00:49.000Z</Time>
            <Position>
              <LatitudeDegrees>38.1696675717830657958984375</LatitudeDegrees>
              <LongitudeDegrees>-1.12454571761190891265869140625</LongitudeDegrees>
            </Position>
            <AltitudeMeters>186.1999969482421875</AltitudeMeters>
            <DistanceMeters>NAN</DistanceMeters>
          </Trackpoint>
          <Trackpoint>
            <Time>2020-05-25T07:00:50.000Z</Time>
            <Position>
              <LatitudeDegrees>38.1696090660989284515380859375</LatitudeDegrees>
              <LongitudeDegrees>-1.124610006809234619140625</LongitudeDegrees>
            </Position>
            <AltitudeMeters>186.1999969482421875</AltitudeMeters>
            <DistanceMeters>NAN</DistanceMeters>
          </Trackpoint>
          <Trackpoint>
            <Time>2020-05-25T07:00:51.000Z</Time>
            <Position>
              <LatitudeDegrees>38.16955156624317169189453125</LatitudeDegrees>
              <LongitudeDegrees>-1.1246716976165771484375</LongitudeDegrees>
            </Position>
            <AltitudeMeters>186.1999969482421875</AltitudeMeters>
            <DistanceMeters>NAN</DistanceMeters>
          </Trackpoint>
          <Trackpoint>
            <Time>2020-05-25T07:00:52.000Z</Time>
            <Position>
              <LatitudeDegrees>38.16949431784451007843017578125</LatitudeDegrees>
              <LongitudeDegrees>-1.12473280169069766998291015625</LongitudeDegrees>
            </Position>
            <AltitudeMeters>186.1999969482421875</AltitudeMeters>
            <DistanceMeters>NAN</DistanceMeters>
          </Trackpoint>
          <Trackpoint>
            <Time>2020-05-25T07:00:53.000Z</Time>
            <Position>
              <LatitudeDegrees>38.1694387458264827728271484375</LatitudeDegrees>
              <LongitudeDegrees>-1.1247945763170719146728515625</LongitudeDegrees>
            </Position>
            <AltitudeMeters>186.1999969482421875</AltitudeMeters>
            <DistanceMeters>NAN</DistanceMeters>
          </Trackpoint>
          <Trackpoint>
            <Time>2020-05-25T07:00:54.000Z</Time>
            <Position>
              <LatitudeDegrees>38.169385604560375213623046875</LatitudeDegrees>
              <LongitudeDegrees>-1.12485517747700214385986328125</LongitudeDegrees>
            </Position>
            <AltitudeMeters>186.1999969482421875</AltitudeMeters>
            <DistanceMeters>NAN</DistanceMeters>
          </Trackpoint>
          <Trackpoint>
            <Time>2020-05-25T07:00:55.000Z</Time>
            <Position>
              <LatitudeDegrees>38.169330619275569915771484375</LatitudeDegrees>
              <LongitudeDegrees>-1.12491250969469547271728515625</LongitudeDegrees>
            </Position>
            <AltitudeMeters>186.399993896484375</AltitudeMeters>
            <DistanceMeters>NAN</DistanceMeters>
          </Trackpoint>
          <Trackpoint>
            <Time>2020-05-25T07:00:56.000Z</Time>
            <Position>
              <LatitudeDegrees>38.16927605308592319488525390625</LatitudeDegrees>
              <LongitudeDegrees>-1.1249702610075473785400390625</LongitudeDegrees>
            </Position>
            <AltitudeMeters>186.600006103515625</AltitudeMeters>
            <DistanceMeters>NAN</DistanceMeters>
          </Trackpoint>
          <Trackpoint>
            <Time>2020-05-25T07:00:57.000Z</Time>
            <Position>
              <LatitudeDegrees>38.16922341473400592803955078125</LatitudeDegrees>
              <LongitudeDegrees>-1.12503170035779476165771484375</LongitudeDegrees>
            </Position>
            <AltitudeMeters>186.8000030517578125</AltitudeMeters>
            <DistanceMeters>NAN</DistanceMeters>
          </Trackpoint>
          <Trackpoint>
            <Time>2020-05-25T07:00:58.000Z</Time>
            <Position>
              <LatitudeDegrees>38.16917178221046924591064453125</LatitudeDegrees>
              <LongitudeDegrees>-1.1250916309654712677001953125</LongitudeDegrees>
            </Position>
            <AltitudeMeters>187</AltitudeMeters>
            <DistanceMeters>NAN</DistanceMeters>
          </Trackpoint>
          <Trackpoint>
            <Time>2020-05-25T07:00:59.000Z</Time>
            <Position>
              <LatitudeDegrees>38.169119395315647125244140625</LatitudeDegrees>
              <LongitudeDegrees>-1.12514670006930828094482421875</LongitudeDegrees>
            </Position>
            <AltitudeMeters>187.1999969482421875</AltitudeMeters>
            <DistanceMeters>NAN</DistanceMeters>
          </Trackpoint>
          <Trackpoint>
            <Time>2020-05-25T07:01:00.000Z</Time>
            <Position>
              <LatitudeDegrees>38.16906801424920558929443359375</LatitudeDegrees>
              <LongitudeDegrees>-1.1252019368112087249755859375</LongitudeDegrees>
            </Position>
            <AltitudeMeters>187.399993896484375</AltitudeMeters>
            <DistanceMeters>NAN</DistanceMeters>
          </Trackpoint>
          <Trackpoint>
            <Time>2020-05-25T07:01:01.000Z</Time>
            <Position>
              <LatitudeDegrees>38.16901805810630321502685546875</LatitudeDegrees>
              <LongitudeDegrees>-1.12525708973407745361328125</LongitudeDegrees>
            </Position>
            <AltitudeMeters>187.600006103515625</AltitudeMeters>
            <DistanceMeters>NAN</DistanceMeters>
          </Trackpoint>
          <Trackpoint>
            <Time>2020-05-25T07:01:02.000Z</Time>
            <Position>
              <LatitudeDegrees>38.16896759904921054840087890625</LatitudeDegrees>
              <LongitudeDegrees>-1.12531215883791446685791015625</LongitudeDegrees>
            </Position>
            <AltitudeMeters>187.8000030517578125</AltitudeMeters>
            <DistanceMeters>NAN</DistanceMeters>
          </Trackpoint>
          <Trackpoint>
            <Time>2020-05-25T07:01:03.000Z</Time>
            <Position>
              <LatitudeDegrees>38.16891529597342014312744140625</LatitudeDegrees>
              <LongitudeDegrees>-1.125366725027561187744140625</LongitudeDegrees>
            </Position>
            <AltitudeMeters>187.8000030517578125</AltitudeMeters>
            <DistanceMeters>NAN</DistanceMeters>
          </Trackpoint>
          <Trackpoint>
            <Time>2020-05-25T07:01:04.000Z</Time>
            <Position>
              <LatitudeDegrees>38.1688624061644077301025390625</LatitudeDegrees>
              <LongitudeDegrees>-1.12542162649333477020263671875</LongitudeDegrees>
            </Position>
            <AltitudeMeters>188</AltitudeMeters>
            <DistanceMeters>NAN</DistanceMeters>
          </Trackpoint>
          <Trackpoint>
            <Time>2020-05-25T07:01:05.000Z</Time>
            <Position>
              <LatitudeDegrees>38.1688084267079830169677734375</LatitudeDegrees>
              <LongitudeDegrees>-1.12547703087329864501953125</LongitudeDegrees>
            </Position>
            <AltitudeMeters>188.399993896484375</AltitudeMeters>
            <DistanceMeters>NAN</DistanceMeters>
          </Trackpoint>
          <Trackpoint>
            <Time>2020-05-25T07:01:06.000Z</Time>
            <Position>
              <LatitudeDegrees>38.16875386051833629608154296875</LatitudeDegrees>
              <LongitudeDegrees>-1.125531680881977081298828125</LongitudeDegrees>
            </Position>
            <AltitudeMeters>188.600006103515625</AltitudeMeters>
            <DistanceMeters>NAN</DistanceMeters>
          </Trackpoint>
          <Trackpoint>
            <Time>2020-05-25T07:01:07.000Z</Time>
            <Position>
              <LatitudeDegrees>38.16870088689029216766357421875</LatitudeDegrees>
              <LongitudeDegrees>-1.12558431923389434814453125</LongitudeDegrees>
            </Position>
            <AltitudeMeters>188.8000030517578125</AltitudeMeters>
            <DistanceMeters>NAN</DistanceMeters>
          </Trackpoint>
          <Trackpoint>
            <Time>2020-05-25T07:01:08.000Z</Time>
            <Position>
              <LatitudeDegrees>38.1686464883387088775634765625</LatitudeDegrees>
              <LongitudeDegrees>-1.12563553266227245330810546875</LongitudeDegrees>
            </Position>
            <AltitudeMeters>189</AltitudeMeters>
            <DistanceMeters>NAN</DistanceMeters>
          </Trackpoint>
          <Trackpoint>
            <Time>2020-05-25T07:01:09.000Z</Time>
            <Position>
              <LatitudeDegrees>38.1685928441584110260009765625</LatitudeDegrees>
              <LongitudeDegrees>-1.1256827227771282196044921875</LongitudeDegrees>
            </Position>
            <AltitudeMeters>189</AltitudeMeters>
            <DistanceMeters>NAN</DistanceMeters>
          </Trackpoint>
          <Trackpoint>
            <Time>2020-05-25T07:01:10.000Z</Time>
            <Position>
              <LatitudeDegrees>38.168538697063922882080078125</LatitudeDegrees>
              <LongitudeDegrees>-1.1257299967110157012939453125</LongitudeDegrees>
            </Position>
            <AltitudeMeters>189.1999969482421875</AltitudeMeters>
            <DistanceMeters>NAN</DistanceMeters>
          </Trackpoint>
          <Trackpoint>
            <Time>2020-05-25T07:01:11.000Z</Time>
            <Position>
              <LatitudeDegrees>38.1684852205216884613037109375</LatitudeDegrees>
              <LongitudeDegrees>-1.12577517516911029815673828125</LongitudeDegrees>
            </Position>
            <AltitudeMeters>189.1999969482421875</AltitudeMeters>
            <DistanceMeters>NAN</DistanceMeters>
          </Trackpoint>
          <Trackpoint>
            <Time>2020-05-25T07:01:12.000Z</Time>
            <Position>
              <LatitudeDegrees>38.16843040287494659423828125</LatitudeDegrees>
              <LongitudeDegrees>-1.12581524066627025604248046875</LongitudeDegrees>
            </Position>
            <AltitudeMeters>189.600006103515625</AltitudeMeters>
            <DistanceMeters>NAN</DistanceMeters>
          </Trackpoint>
          <Trackpoint>
            <Time>2020-05-25T07:01:13.000Z</Time>
            <Position>
              <LatitudeDegrees>38.1683752499520778656005859375</LatitudeDegrees>
              <LongitudeDegrees>-1.12585480324923992156982421875</LongitudeDegrees>
            </Position>
            <AltitudeMeters>190</AltitudeMeters>
            <DistanceMeters>NAN</DistanceMeters>
          </Trackpoint>
          <Trackpoint>
            <Time>2020-05-25T07:01:14.000Z</Time>
            <Position>
              <LatitudeDegrees>38.16832286305725574493408203125</LatitudeDegrees>
              <LongitudeDegrees>-1.1258947849273681640625</LongitudeDegrees>
            </Position>
            <AltitudeMeters>190.1999969482421875</AltitudeMeters>
            <DistanceMeters>NAN</DistanceMeters>
          </Trackpoint>
          <Trackpoint>
            <Time>2020-05-25T07:01:15.000Z</Time>
            <Position>
              <LatitudeDegrees>38.1682736612856388092041015625</LatitudeDegrees>
              <LongitudeDegrees>-1.12593510188162326812744140625</LongitudeDegrees>
            </Position>
            <AltitudeMeters>190.600006103515625</AltitudeMeters>
            <DistanceMeters>NAN</DistanceMeters>
          </Trackpoint>
          <Trackpoint>
            <Time>2020-05-25T07:01:16.000Z</Time>
            <Position>
              <LatitudeDegrees>38.1682245433330535888671875</LatitudeDegrees>
              <LongitudeDegrees>-1.1259739100933074951171875</LongitudeDegrees>
            </Position>
            <AltitudeMeters>190.8000030517578125</AltitudeMeters>
            <DistanceMeters>NAN</DistanceMeters>
          </Trackpoint>
          <Trackpoint>
            <Time>2020-05-25T07:01:17.000Z</Time>
            <Position>
              <LatitudeDegrees>38.16817433573305606842041015625</LatitudeDegrees>
              <LongitudeDegrees>-1.12601137720048427581787109375</LongitudeDegrees>
            </Position>
            <AltitudeMeters>191</AltitudeMeters>
            <DistanceMeters>NAN</DistanceMeters>
          </Trackpoint>
          <Trackpoint>
            <Time>2020-05-25T07:01:18.000Z</Time>
            <Position>
              <LatitudeDegrees>38.1681241281330585479736328125</LatitudeDegrees>
              <LongitudeDegrees>-1.126047670841217041015625</LongitudeDegrees>
            </Position>
            <AltitudeMeters>191.399993896484375</AltitudeMeters>
            <DistanceMeters>NAN</DistanceMeters>
          </Trackpoint>
          <Trackpoint>
            <Time>2020-05-25T07:01:19.000Z</Time>
            <Position>
              <LatitudeDegrees>38.16807308234274387359619140625</LatitudeDegrees>
              <LongitudeDegrees>-1.12608463503420352935791015625</LongitudeDegrees>
            </Position>
            <AltitudeMeters>191.600006103515625</AltitudeMeters>
            <DistanceMeters>NAN</DistanceMeters>
          </Trackpoint>
          <Trackpoint>
            <Time>2020-05-25T07:01:20.000Z</Time>
            <Position>
              <LatitudeDegrees>38.16802346147596836090087890625</LatitudeDegrees>
              <LongitudeDegrees>-1.12611950375139713287353515625</LongitudeDegrees>
            </Position>
            <AltitudeMeters>191.8000030517578125</AltitudeMeters>
            <DistanceMeters>NAN</DistanceMeters>
          </Trackpoint>
          <Trackpoint>
            <Time>2020-05-25T07:01:21.000Z</Time>
            <Position>
              <LatitudeDegrees>38.167974762618541717529296875</LatitudeDegrees>
              <LongitudeDegrees>-1.1261536180973052978515625</LongitudeDegrees>
            </Position>
            <AltitudeMeters>192</AltitudeMeters>
            <DistanceMeters>NAN</DistanceMeters>
          </Trackpoint>
          <Trackpoint>
            <Time>2020-05-25T07:01:22.000Z</Time>
            <Position>
              <LatitudeDegrees>38.16792623139917850494384765625</LatitudeDegrees>
              <LongitudeDegrees>-1.12618521787226200103759765625</LongitudeDegrees>
            </Position>
            <AltitudeMeters>192.399993896484375</AltitudeMeters>
            <DistanceMeters>NAN</DistanceMeters>
          </Trackpoint>
          <Trackpoint>
            <Time>2020-05-25T07:01:23.000Z</Time>
            <Position>
              <LatitudeDegrees>38.16787845455110073089599609375</LatitudeDegrees>
              <LongitudeDegrees>-1.12621740438044071197509765625</LongitudeDegrees>
            </Position>
            <AltitudeMeters>192.600006103515625</AltitudeMeters>
            <DistanceMeters>NAN</DistanceMeters>
          </Trackpoint>
          <Trackpoint>
            <Time>2020-05-25T07:01:24.000Z</Time>
            <Position>
              <LatitudeDegrees>38.167831934988498687744140625</LatitudeDegrees>
              <LongitudeDegrees>-1.1262479983270168304443359375</LongitudeDegrees>
            </Position>
            <AltitudeMeters>192.8000030517578125</AltitudeMeters>
            <DistanceMeters>NAN</DistanceMeters>
          </Trackpoint>
          <Trackpoint>
            <Time>2020-05-25T07:01:25.000Z</Time>
            <Position>
              <LatitudeDegrees>38.16778239794075489044189453125</LatitudeDegrees>
              <LongitudeDegrees>-1.126280017197132110595703125</LongitudeDegrees>
            </Position>
            <AltitudeMeters>193</AltitudeMeters>
            <DistanceMeters>NAN</DistanceMeters>
          </Trackpoint>
          <Trackpoint>
            <Time>2020-05-25T07:01:26.000Z</Time>
            <Position>
              <LatitudeDegrees>38.16773378290235996246337890625</LatitudeDegrees>
              <LongitudeDegrees>-1.12631279043853282928466796875</LongitudeDegrees>
            </Position>
            <AltitudeMeters>193.1999969482421875</AltitudeMeters>
            <DistanceMeters>NAN</DistanceMeters>
          </Trackpoint>
          <Trackpoint>
            <Time>2020-05-25T07:01:27.000Z</Time>
            <Position>
              <LatitudeDegrees>38.16768399439752101898193359375</LatitudeDegrees>
              <LongitudeDegrees>-1.12634413875639438629150390625</LongitudeDegrees>
            </Position>
            <AltitudeMeters>193.399993896484375</AltitudeMeters>
            <DistanceMeters>NAN</DistanceMeters>
          </Trackpoint>
          <Trackpoint>
            <Time>2020-05-25T07:01:28.000Z</Time>
            <Position>
              <LatitudeDegrees>38.16763353534042835235595703125</LatitudeDegrees>
              <LongitudeDegrees>-1.12637448124587535858154296875</LongitudeDegrees>
            </Position>
            <AltitudeMeters>193.399993896484375</AltitudeMeters>
            <DistanceMeters>NAN</DistanceMeters>
          </Trackpoint>
          <Trackpoint>
            <Time>2020-05-25T07:01:29.000Z</Time>
            <Position>
              <LatitudeDegrees>38.1675833277404308319091796875</LatitudeDegrees>
              <LongitudeDegrees>-1.12640599720180034637451171875</LongitudeDegrees>
            </Position>
            <AltitudeMeters>193.8000030517578125</AltitudeMeters>
            <DistanceMeters>NAN</DistanceMeters>
          </Trackpoint>
          <Trackpoint>
            <Time>2020-05-25T07:01:30.000Z</Time>
            <Position>
              <LatitudeDegrees>38.16753546707332134246826171875</LatitudeDegrees>
              <LongitudeDegrees>-1.12643986009061336517333984375</LongitudeDegrees>
            </Position>
            <AltitudeMeters>194.1999969482421875</AltitudeMeters>
            <DistanceMeters>NAN</DistanceMeters>
          </Trackpoint>
          <Trackpoint>
            <Time>2020-05-25T07:01:31.000Z</Time>
            <Position>
              <LatitudeDegrees>38.16748986952006816864013671875</LatitudeDegrees>
              <LongitudeDegrees>-1.12647137604653835296630859375</LongitudeDegrees>
            </Position>
            <AltitudeMeters>194.600006103515625</AltitudeMeters>
            <DistanceMeters>NAN</DistanceMeters>
          </Trackpoint>
          <Trackpoint>
            <Time>2020-05-25T07:01:32.000Z</Time>
            <Position>
              <LatitudeDegrees>38.1674421764910221099853515625</LatitudeDegrees>
              <LongitudeDegrees>-1.12650289200246334075927734375</LongitudeDegrees>
            </Position>
            <AltitudeMeters>195</AltitudeMeters>
            <DistanceMeters>NAN</DistanceMeters>
          </Trackpoint>
          <Trackpoint>
            <Time>2020-05-25T07:01:33.000Z</Time>
            <Position>
              <LatitudeDegrees>38.1673915497958660125732421875</LatitudeDegrees>
              <LongitudeDegrees>-1.12653692252933979034423828125</LongitudeDegrees>
            </Position>
            <AltitudeMeters>195.600006103515625</AltitudeMeters>
            <DistanceMeters>NAN</DistanceMeters>
          </Trackpoint>
          <Trackpoint>
            <Time>2020-05-25T07:01:34.000Z</Time>
            <Position>
              <LatitudeDegrees>38.16733832471072673797607421875</LatitudeDegrees>
              <LongitudeDegrees>-1.12657212652266025543212890625</LongitudeDegrees>
            </Position>
            <AltitudeMeters>195.8000030517578125</AltitudeMeters>
            <DistanceMeters>NAN</DistanceMeters>
          </Trackpoint>
          <Trackpoint>
            <Time>2020-05-25T07:01:35.000Z</Time>
            <Position>
              <LatitudeDegrees>38.1672866083681583404541015625</LatitudeDegrees>
              <LongitudeDegrees>-1.1266015470027923583984375</LongitudeDegrees>
            </Position>
            <AltitudeMeters>196</AltitudeMeters>
            <DistanceMeters>NAN</DistanceMeters>
          </Trackpoint>
          <Trackpoint>
            <Time>2020-05-25T07:01:36.000Z</Time>
            <Position>
              <LatitudeDegrees>38.1672332994639873504638671875</LatitudeDegrees>
              <LongitudeDegrees>-1.126641444861888885498046875</LongitudeDegrees>
            </Position>
            <AltitudeMeters>196.1999969482421875</AltitudeMeters>
            <DistanceMeters>NAN</DistanceMeters>
          </Trackpoint>
          <Trackpoint>
            <Time>2020-05-25T07:01:37.000Z</Time>
            <Position>
              <LatitudeDegrees>38.16718694753944873809814453125</LatitudeDegrees>
              <LongitudeDegrees>-1.1266724579036235809326171875</LongitudeDegrees>
            </Position>
            <AltitudeMeters>196.399993896484375</AltitudeMeters>
            <DistanceMeters>NAN</DistanceMeters>
          </Trackpoint>
          <Trackpoint>
            <Time>2020-05-25T07:01:38.000Z</Time>
            <Position>
              <LatitudeDegrees>38.167141936719417572021484375</LatitudeDegrees>
              <LongitudeDegrees>-1.12670389004051685333251953125</LongitudeDegrees>
            </Position>
            <AltitudeMeters>196.8000030517578125</AltitudeMeters>
            <DistanceMeters>NAN</DistanceMeters>
          </Trackpoint>
          <Trackpoint>
            <Time>2020-05-25T07:01:39.000Z</Time>
            <Position>
              <LatitudeDegrees>38.16709944047033786773681640625</LatitudeDegrees>
              <LongitudeDegrees>-1.126738674938678741455078125</LongitudeDegrees>
            </Position>
            <AltitudeMeters>197.1999969482421875</AltitudeMeters>
            <DistanceMeters>NAN</DistanceMeters>
          </Trackpoint>
          <Trackpoint>
            <Time>2020-05-25T07:01:40.000Z</Time>
            <Position>
              <LatitudeDegrees>38.16705149598419666290283203125</LatitudeDegrees>
              <LongitudeDegrees>-1.1267716996371746063232421875</LongitudeDegrees>
            </Position>
            <AltitudeMeters>197.600006103515625</AltitudeMeters>
            <DistanceMeters>NAN</DistanceMeters>
          </Trackpoint>
          <Trackpoint>
            <Time>2020-05-25T07:01:41.000Z</Time>
            <Position>
              <LatitudeDegrees>38.16700346767902374267578125</LatitudeDegrees>
              <LongitudeDegrees>-1.12680363468825817108154296875</LongitudeDegrees>
            </Position>
            <AltitudeMeters>197.8000030517578125</AltitudeMeters>
            <DistanceMeters>NAN</DistanceMeters>
          </Trackpoint>
          <Trackpoint>
            <Time>2020-05-25T07:01:42.000Z</Time>
            <Position>
              <LatitudeDegrees>38.16695426590740680694580078125</LatitudeDegrees>
              <LongitudeDegrees>-1.12683582119643688201904296875</LongitudeDegrees>
            </Position>
            <AltitudeMeters>198</AltitudeMeters>
            <DistanceMeters>NAN</DistanceMeters>
          </Trackpoint>
          <Trackpoint>
            <Time>2020-05-25T07:01:43.000Z</Time>
            <Position>
              <LatitudeDegrees>38.16690833307802677154541015625</LatitudeDegrees>
              <LongitudeDegrees>-1.1268652416765689849853515625</LongitudeDegrees>
            </Position>
            <AltitudeMeters>198.600006103515625</AltitudeMeters>
            <DistanceMeters>NAN</DistanceMeters>
          </Trackpoint>
          <Trackpoint>
            <Time>2020-05-25T07:01:44.000Z</Time>
            <Position>
              <LatitudeDegrees>38.166860975325107574462890625</LatitudeDegrees>
              <LongitudeDegrees>-1.126895248889923095703125</LongitudeDegrees>
            </Position>
            <AltitudeMeters>199</AltitudeMeters>
            <DistanceMeters>NAN</DistanceMeters>
          </Trackpoint>
          <Trackpoint>
            <Time>2020-05-25T07:01:45.000Z</Time>
            <Position>
              <LatitudeDegrees>38.16681697033345699310302734375</LatitudeDegrees>
              <LongitudeDegrees>-1.12692148424685001373291015625</LongitudeDegrees>
            </Position>
            <AltitudeMeters>199.1999969482421875</AltitudeMeters>
            <DistanceMeters>NAN</DistanceMeters>
          </Trackpoint>
          <Trackpoint>
            <Time>2020-05-25T07:01:46.000Z</Time>
            <Position>
              <LatitudeDegrees>38.166771121323108673095703125</LatitudeDegrees>
              <LongitudeDegrees>-1.12694947980344295501708984375</LongitudeDegrees>
            </Position>
            <AltitudeMeters>199.600006103515625</AltitudeMeters>
            <DistanceMeters>NAN</DistanceMeters>
          </Trackpoint>
          <Trackpoint>
            <Time>2020-05-25T07:01:47.000Z</Time>
            <Position>
              <LatitudeDegrees>38.16672711633145809173583984375</LatitudeDegrees>
              <LongitudeDegrees>-1.12697613425552845001220703125</LongitudeDegrees>
            </Position>
            <AltitudeMeters>199.8000030517578125</AltitudeMeters>
            <DistanceMeters>NAN</DistanceMeters>
          </Trackpoint>
          <Trackpoint>
            <Time>2020-05-25T07:01:48.000Z</Time>
            <Position>
              <LatitudeDegrees>38.1666807644069194793701171875</LatitudeDegrees>
              <LongitudeDegrees>-1.1270065605640411376953125</LongitudeDegrees>
            </Position>
            <AltitudeMeters>200.1999969482421875</AltitudeMeters>
            <DistanceMeters>NAN</DistanceMeters>
          </Trackpoint>
          <Trackpoint>
            <Time>2020-05-25T07:01:49.000Z</Time>
            <Position>
              <LatitudeDegrees>38.16663625650107860565185546875</LatitudeDegrees>
              <LongitudeDegrees>-1.12703396938741207122802734375</LongitudeDegrees>
            </Position>
            <AltitudeMeters>200.600006103515625</AltitudeMeters>
            <DistanceMeters>NAN</DistanceMeters>
          </Trackpoint>
          <Trackpoint>
            <Time>2020-05-25T07:01:50.000Z</Time>
            <Position>
              <LatitudeDegrees>38.16658797673881053924560546875</LatitudeDegrees>
              <LongitudeDegrees>-1.127063892781734466552734375</LongitudeDegrees>
            </Position>
            <AltitudeMeters>200.8000030517578125</AltitudeMeters>
            <DistanceMeters>NAN</DistanceMeters>
          </Trackpoint>
          <Trackpoint>
            <Time>2020-05-25T07:01:51.000Z</Time>
            <Position>
              <LatitudeDegrees>38.16653500311076641082763671875</LatitudeDegrees>
              <LongitudeDegrees>-1.12709037959575653076171875</LongitudeDegrees>
            </Position>
            <AltitudeMeters>201.1999969482421875</AltitudeMeters>
            <DistanceMeters>NAN</DistanceMeters>
          </Trackpoint>
          <Trackpoint>
            <Time>2020-05-25T07:01:52.000Z</Time>
            <Position>
              <LatitudeDegrees>38.1664799340069293975830078125</LatitudeDegrees>
              <LongitudeDegrees>-1.1271138489246368408203125</LongitudeDegrees>
            </Position>
            <AltitudeMeters>201.399993896484375</AltitudeMeters>
            <DistanceMeters>NAN</DistanceMeters>
          </Trackpoint>
          <Trackpoint>
            <Time>2020-05-25T07:01:53.000Z</Time>
            <Position>
              <LatitudeDegrees>38.1664182431995868682861328125</LatitudeDegrees>
              <LongitudeDegrees>-1.12714276649057865142822265625</LongitudeDegrees>
            </Position>
            <AltitudeMeters>201.600006103515625</AltitudeMeters>
            <DistanceMeters>NAN</DistanceMeters>
          </Trackpoint>
          <Trackpoint>
            <Time>2020-05-25T07:01:54.000Z</Time>
            <Position>
              <LatitudeDegrees>38.166354708373546600341796875</LatitudeDegrees>
              <LongitudeDegrees>-1.1271589435636997222900390625</LongitudeDegrees>
            </Position>
            <AltitudeMeters>201.8000030517578125</AltitudeMeters>
            <DistanceMeters>NAN</DistanceMeters>
          </Trackpoint>
          <Trackpoint>
            <Time>2020-05-25T07:01:55.000Z</Time>
            <Position>
              <LatitudeDegrees>38.1662861444056034088134765625</LatitudeDegrees>
              <LongitudeDegrees>-1.12717109732329845428466796875</LongitudeDegrees>
            </Position>
            <AltitudeMeters>201.8000030517578125</AltitudeMeters>
            <DistanceMeters>NAN</DistanceMeters>
          </Trackpoint>
          <Trackpoint>
            <Time>2020-05-25T07:01:56.000Z</Time>
            <Position>
              <LatitudeDegrees>38.16621280275285243988037109375</LatitudeDegrees>
              <LongitudeDegrees>-1.12718216143548488616943359375</LongitudeDegrees>
            </Position>
            <AltitudeMeters>201.8000030517578125</AltitudeMeters>
            <DistanceMeters>NAN</DistanceMeters>
          </Trackpoint>
          <Trackpoint>
            <Time>2020-05-25T07:01:57.000Z</Time>
            <Position>
              <LatitudeDegrees>38.1661352701485157012939453125</LatitudeDegrees>
              <LongitudeDegrees>-1.1271881125867366790771484375</LongitudeDegrees>
            </Position>
            <AltitudeMeters>201.8000030517578125</AltitudeMeters>
            <DistanceMeters>NAN</DistanceMeters>
          </Trackpoint>
          <Trackpoint>
            <Time>2020-05-25T07:01:58.000Z</Time>
            <Position>
              <LatitudeDegrees>38.1660548038780689239501953125</LatitudeDegrees>
              <LongitudeDegrees>-1.12718903459608554840087890625</LongitudeDegrees>
            </Position>
            <AltitudeMeters>201.8000030517578125</AltitudeMeters>
            <DistanceMeters>NAN</DistanceMeters>
          </Trackpoint>
          <Trackpoint>
            <Time>2020-05-25T07:01:59.000Z</Time>
            <Position>
              <LatitudeDegrees>38.1659714877605438232421875</LatitudeDegrees>
              <LongitudeDegrees>-1.12718719057738780975341796875</LongitudeDegrees>
            </Position>
            <AltitudeMeters>201.8000030517578125</AltitudeMeters>
            <DistanceMeters>NAN</DistanceMeters>
          </Trackpoint>
          <Trackpoint>
            <Time>2020-05-25T07:02:00.000Z</Time>
            <Position>
              <LatitudeDegrees>38.16588632762432098388671875</LatitudeDegrees>
              <LongitudeDegrees>-1.127173863351345062255859375</LongitudeDegrees>
            </Position>
            <AltitudeMeters>201.8000030517578125</AltitudeMeters>
            <DistanceMeters>NAN</DistanceMeters>
          </Trackpoint>
          <Trackpoint>
            <Time>2020-05-25T07:02:01.000Z</Time>
            <Position>
              <LatitudeDegrees>38.1657959707081317901611328125</LatitudeDegrees>
              <LongitudeDegrees>-1.12715366296470165252685546875</LongitudeDegrees>
            </Position>
            <AltitudeMeters>201.8000030517578125</AltitudeMeters>
            <DistanceMeters>NAN</DistanceMeters>
          </Trackpoint>
          <Trackpoint>
            <Time>2020-05-25T07:02:02.000Z</Time>
            <Position>
              <LatitudeDegrees>38.16570351831614971160888671875</LatitudeDegrees>
              <LongitudeDegrees>-1.12712499685585498809814453125</LongitudeDegrees>
            </Position>
            <AltitudeMeters>201.8000030517578125</AltitudeMeters>
            <DistanceMeters>NAN</DistanceMeters>
          </Trackpoint>
          <Trackpoint>
            <Time>2020-05-25T07:02:03.000Z</Time>
            <Position>
              <LatitudeDegrees>38.16561148501932621002197265625</LatitudeDegrees>
              <LongitudeDegrees>-1.1270898766815662384033203125</LongitudeDegrees>
            </Position>
            <AltitudeMeters>201.8000030517578125</AltitudeMeters>
            <DistanceMeters>NAN</DistanceMeters>
          </Trackpoint>
          <Trackpoint>
            <Time>2020-05-25T07:02:04.000Z</Time>
            <Position>
              <LatitudeDegrees>38.16551894880831241607666015625</LatitudeDegrees>
              <LongitudeDegrees>-1.127049140632152557373046875</LongitudeDegrees>
            </Position>
            <AltitudeMeters>201.1999969482421875</AltitudeMeters>
            <DistanceMeters>NAN</DistanceMeters>
          </Trackpoint>
          <Trackpoint>
            <Time>2020-05-25T07:02:05.000Z</Time>
            <Position>
              <LatitudeDegrees>38.1654243171215057373046875</LatitudeDegrees>
              <LongitudeDegrees>-1.12700681202113628387451171875</LongitudeDegrees>
            </Position>
            <AltitudeMeters>200.8000030517578125</AltitudeMeters>
            <DistanceMeters>NAN</DistanceMeters>
          </Trackpoint>
          <Trackpoint>
            <Time>2020-05-25T07:02:06.000Z</Time>
            <Position>
              <LatitudeDegrees>38.16532817669212818145751953125</LatitudeDegrees>
              <LongitudeDegrees>-1.1269651539623737335205078125</LongitudeDegrees>
            </Position>
            <AltitudeMeters>200.399993896484375</AltitudeMeters>
            <DistanceMeters>NAN</DistanceMeters>
          </Trackpoint>
          <Trackpoint>
            <Time>2020-05-25T07:02:07.000Z</Time>
            <Position>
              <LatitudeDegrees>38.165229521691799163818359375</LatitudeDegrees>
              <LongitudeDegrees>-1.12692349590361118316650390625</LongitudeDegrees>
            </Position>
            <AltitudeMeters>200</AltitudeMeters>
            <DistanceMeters>NAN</DistanceMeters>
          </Trackpoint>
          <Trackpoint>
            <Time>2020-05-25T07:02:08.000Z</Time>
            <Position>
              <LatitudeDegrees>38.16512969322502613067626953125</LatitudeDegrees>
              <LongitudeDegrees>-1.12688259221613407135009765625</LongitudeDegrees>
            </Position>
            <AltitudeMeters>199.600006103515625</AltitudeMeters>
            <DistanceMeters>NAN</DistanceMeters>
          </Trackpoint>
          <Trackpoint>
            <Time>2020-05-25T07:02:09.000Z</Time>
            <Position>
              <LatitudeDegrees>38.165027685463428497314453125</LatitudeDegrees>
              <LongitudeDegrees>-1.1268384195864200592041015625</LongitudeDegrees>
            </Position>
            <AltitudeMeters>199</AltitudeMeters>
            <DistanceMeters>NAN</DistanceMeters>
          </Trackpoint>
          <Trackpoint>
            <Time>2020-05-25T07:02:10.000Z</Time>
            <Position>
              <LatitudeDegrees>38.16492400132119655609130859375</LatitudeDegrees>
              <LongitudeDegrees>-1.12679290585219860076904296875</LongitudeDegrees>
            </Position>
            <AltitudeMeters>198.399993896484375</AltitudeMeters>
            <DistanceMeters>NAN</DistanceMeters>
          </Trackpoint>
          <Trackpoint>
            <Time>2020-05-25T07:02:11.000Z</Time>
            <Position>
              <LatitudeDegrees>38.1648183055222034454345703125</LatitudeDegrees>
              <LongitudeDegrees>-1.1267468892037868499755859375</LongitudeDegrees>
            </Position>
            <AltitudeMeters>197.399993896484375</AltitudeMeters>
            <DistanceMeters>NAN</DistanceMeters>
          </Trackpoint>
          <Trackpoint>
            <Time>2020-05-25T07:02:12.000Z</Time>
            <Position>
              <LatitudeDegrees>38.164711855351924896240234375</LatitudeDegrees>
              <LongitudeDegrees>-1.1266999505460262298583984375</LongitudeDegrees>
            </Position>
            <AltitudeMeters>197</AltitudeMeters>
            <DistanceMeters>NAN</DistanceMeters>
          </Trackpoint>
          <Trackpoint>
            <Time>2020-05-25T07:02:13.000Z</Time>
            <Position>
              <LatitudeDegrees>38.1646035611629486083984375</LatitudeDegrees>
              <LongitudeDegrees>-1.126652844250202178955078125</LongitudeDegrees>
            </Position>
            <AltitudeMeters>196.399993896484375</AltitudeMeters>
            <DistanceMeters>NAN</DistanceMeters>
          </Trackpoint>
          <Trackpoint>
            <Time>2020-05-25T07:02:14.000Z</Time>
            <Position>
              <LatitudeDegrees>38.1644947640597820281982421875</LatitudeDegrees>
              <LongitudeDegrees>-1.12660489976406097412109375</LongitudeDegrees>
            </Position>
            <AltitudeMeters>195.8000030517578125</AltitudeMeters>
            <DistanceMeters>NAN</DistanceMeters>
          </Trackpoint>
          <Trackpoint>
            <Time>2020-05-25T07:02:15.000Z</Time>
            <Position>
              <LatitudeDegrees>38.16438420675694942474365234375</LatitudeDegrees>
              <LongitudeDegrees>-1.12655670382082462310791015625</LongitudeDegrees>
            </Position>
            <AltitudeMeters>195.399993896484375</AltitudeMeters>
            <DistanceMeters>NAN</DistanceMeters>
          </Trackpoint>
          <Trackpoint>
            <Time>2020-05-25T07:02:16.000Z</Time>
            <Position>
              <LatitudeDegrees>38.16427188925445079803466796875</LatitudeDegrees>
              <LongitudeDegrees>-1.126509010791778564453125</LongitudeDegrees>
            </Position>
            <AltitudeMeters>194.8000030517578125</AltitudeMeters>
            <DistanceMeters>NAN</DistanceMeters>
          </Trackpoint>
          <Trackpoint>
            <Time>2020-05-25T07:02:17.000Z</Time>
            <Position>
              <LatitudeDegrees>38.16415806300938129425048828125</LatitudeDegrees>
              <LongitudeDegrees>-1.12646299414336681365966796875</LongitudeDegrees>
            </Position>
            <AltitudeMeters>194.1999969482421875</AltitudeMeters>
            <DistanceMeters>NAN</DistanceMeters>
          </Trackpoint>
          <Trackpoint>
            <Time>2020-05-25T07:02:18.000Z</Time>
            <Position>
              <LatitudeDegrees>38.1640431471168994903564453125</LatitudeDegrees>
              <LongitudeDegrees>-1.1264206655323505401611328125</LongitudeDegrees>
            </Position>
            <AltitudeMeters>193.600006103515625</AltitudeMeters>
            <DistanceMeters>NAN</DistanceMeters>
          </Trackpoint>
          <Trackpoint>
            <Time>2020-05-25T07:02:19.000Z</Time>
            <Position>
              <LatitudeDegrees>38.1639261357486248016357421875</LatitudeDegrees>
              <LongitudeDegrees>-1.1263837851583957672119140625</LongitudeDegrees>
            </Position>
            <AltitudeMeters>193</AltitudeMeters>
            <DistanceMeters>NAN</DistanceMeters>
          </Trackpoint>
          <Trackpoint>
            <Time>2020-05-25T07:02:20.000Z</Time>
            <Position>
              <LatitudeDegrees>38.1638077832758426666259765625</LatitudeDegrees>
              <LongitudeDegrees>-1.12634950317442417144775390625</LongitudeDegrees>
            </Position>
            <AltitudeMeters>192.1999969482421875</AltitudeMeters>
            <DistanceMeters>NAN</DistanceMeters>
          </Trackpoint>
          <Trackpoint>
            <Time>2020-05-25T07:02:21.000Z</Time>
            <Position>
              <LatitudeDegrees>38.163687922060489654541015625</LatitudeDegrees>
              <LongitudeDegrees>-1.126317568123340606689453125</LongitudeDegrees>
            </Position>
            <AltitudeMeters>191.600006103515625</AltitudeMeters>
            <DistanceMeters>NAN</DistanceMeters>
          </Trackpoint>
          <Trackpoint>
            <Time>2020-05-25T07:02:22.000Z</Time>
            <Position>
              <LatitudeDegrees>38.1635663844645023345947265625</LatitudeDegrees>
              <LongitudeDegrees>-1.12628781236708164215087890625</LongitudeDegrees>
            </Position>
            <AltitudeMeters>190.8000030517578125</AltitudeMeters>
            <DistanceMeters>NAN</DistanceMeters>
          </Trackpoint>
          <Trackpoint>
            <Time>2020-05-25T07:02:23.000Z</Time>
            <Position>
              <LatitudeDegrees>38.16344308666884899139404296875</LatitudeDegrees>
              <LongitudeDegrees>-1.1262597329914569854736328125</LongitudeDegrees>
            </Position>
            <AltitudeMeters>190.399993896484375</AltitudeMeters>
            <DistanceMeters>NAN</DistanceMeters>
          </Trackpoint>
          <Trackpoint>
            <Time>2020-05-25T07:02:24.000Z</Time>
            <Position>
              <LatitudeDegrees>38.16332020796835422515869140625</LatitudeDegrees>
              <LongitudeDegrees>-1.12623341381549835205078125</LongitudeDegrees>
            </Position>
            <AltitudeMeters>189.600006103515625</AltitudeMeters>
            <DistanceMeters>NAN</DistanceMeters>
          </Trackpoint>
          <Trackpoint>
            <Time>2020-05-25T07:02:25.000Z</Time>
            <Position>
              <LatitudeDegrees>38.163199089467525482177734375</LatitudeDegrees>
              <LongitudeDegrees>-1.12620835192501544952392578125</LongitudeDegrees>
            </Position>
            <AltitudeMeters>189</AltitudeMeters>
            <DistanceMeters>NAN</DistanceMeters>
          </Trackpoint>
          <Trackpoint>
            <Time>2020-05-25T07:02:26.000Z</Time>
            <Position>
              <LatitudeDegrees>38.163079731166362762451171875</LatitudeDegrees>
              <LongitudeDegrees>-1.12618404440581798553466796875</LongitudeDegrees>
            </Position>
            <AltitudeMeters>188.399993896484375</AltitudeMeters>
            <DistanceMeters>NAN</DistanceMeters>
          </Trackpoint>
          <Trackpoint>
            <Time>2020-05-25T07:02:27.000Z</Time>
            <Position>
              <LatitudeDegrees>38.1629612110555171966552734375</LatitudeDegrees>
              <LongitudeDegrees>-1.1261601559817790985107421875</LongitudeDegrees>
            </Position>
            <AltitudeMeters>188</AltitudeMeters>
            <DistanceMeters>NAN</DistanceMeters>
          </Trackpoint>
          <Trackpoint>
            <Time>2020-05-25T07:02:28.000Z</Time>
            <Position>
              <LatitudeDegrees>38.16284495405852794647216796875</LatitudeDegrees>
              <LongitudeDegrees>-1.1261390335857868194580078125</LongitudeDegrees>
            </Position>
            <AltitudeMeters>187.8000030517578125</AltitudeMeters>
            <DistanceMeters>NAN</DistanceMeters>
          </Trackpoint>
          <Trackpoint>
            <Time>2020-05-25T07:02:29.000Z</Time>
            <Position>
              <LatitudeDegrees>38.16273179836571216583251953125</LatitudeDegrees>
              <LongitudeDegrees>-1.12611900083720684051513671875</LongitudeDegrees>
            </Position>
            <AltitudeMeters>187.600006103515625</AltitudeMeters>
            <DistanceMeters>NAN</DistanceMeters>
          </Trackpoint>
          <Trackpoint>
            <Time>2020-05-25T07:02:30.000Z</Time>
            <Position>
              <LatitudeDegrees>38.16262166015803813934326171875</LatitudeDegrees>
              <LongitudeDegrees>-1.1260971240699291229248046875</LongitudeDegrees>
            </Position>
            <AltitudeMeters>187.1999969482421875</AltitudeMeters>
            <DistanceMeters>NAN</DistanceMeters>
          </Trackpoint>
          <Trackpoint>
            <Time>2020-05-25T07:02:31.000Z</Time>
            <Position>
              <LatitudeDegrees>38.1625141203403472900390625</LatitudeDegrees>
              <LongitudeDegrees>-1.12607558257877826690673828125</LongitudeDegrees>
            </Position>
            <AltitudeMeters>186.600006103515625</AltitudeMeters>
            <DistanceMeters>NAN</DistanceMeters>
          </Trackpoint>
          <Trackpoint>
            <Time>2020-05-25T07:02:32.000Z</Time>
            <Position>
              <LatitudeDegrees>38.16240708343684673309326171875</LatitudeDegrees>
              <LongitudeDegrees>-1.12605345435440540313720703125</LongitudeDegrees>
            </Position>
            <AltitudeMeters>186.1999969482421875</AltitudeMeters>
            <DistanceMeters>NAN</DistanceMeters>
          </Trackpoint>
          <Trackpoint>
            <Time>2020-05-25T07:02:33.000Z</Time>
            <Position>
              <LatitudeDegrees>38.16230314783751964569091796875</LatitudeDegrees>
              <LongitudeDegrees>-1.1260300688445568084716796875</LongitudeDegrees>
            </Position>
            <AltitudeMeters>186</AltitudeMeters>
            <DistanceMeters>NAN</DistanceMeters>
          </Trackpoint>
          <Trackpoint>
            <Time>2020-05-25T07:02:34.000Z</Time>
            <Position>
              <LatitudeDegrees>38.16220231354236602783203125</LatitudeDegrees>
              <LongitudeDegrees>-1.12600752152502536773681640625</LongitudeDegrees>
            </Position>
            <AltitudeMeters>185.8000030517578125</AltitudeMeters>
            <DistanceMeters>NAN</DistanceMeters>
          </Trackpoint>
          <Trackpoint>
            <Time>2020-05-25T07:02:35.000Z</Time>
            <Position>
              <LatitudeDegrees>38.16210382618010044097900390625</LatitudeDegrees>
              <LongitudeDegrees>-1.1259854771196842193603515625</LongitudeDegrees>
            </Position>
            <AltitudeMeters>185.600006103515625</AltitudeMeters>
            <DistanceMeters>NAN</DistanceMeters>
          </Trackpoint>
          <Trackpoint>
            <Time>2020-05-25T07:02:36.000Z</Time>
            <Position>
              <LatitudeDegrees>38.1620080210268497467041015625</LatitudeDegrees>
              <LongitudeDegrees>-1.1259646899998188018798828125</LongitudeDegrees>
            </Position>
            <AltitudeMeters>185.399993896484375</AltitudeMeters>
            <DistanceMeters>NAN</DistanceMeters>
          </Trackpoint>
          <Trackpoint>
            <Time>2020-05-25T07:02:37.000Z</Time>
            <Position>
              <LatitudeDegrees>38.1619154848158359527587890625</LatitudeDegrees>
              <LongitudeDegrees>-1.12594373524188995361328125</LongitudeDegrees>
            </Position>
            <AltitudeMeters>185.399993896484375</AltitudeMeters>
            <DistanceMeters>NAN</DistanceMeters>
          </Trackpoint>
          <Trackpoint>
            <Time>2020-05-25T07:02:38.000Z</Time>
            <Position>
              <LatitudeDegrees>38.16182521171867847442626953125</LatitudeDegrees>
              <LongitudeDegrees>-1.1259229481220245361328125</LongitudeDegrees>
            </Position>
            <AltitudeMeters>185.399993896484375</AltitudeMeters>
            <DistanceMeters>NAN</DistanceMeters>
          </Trackpoint>
          <Trackpoint>
            <Time>2020-05-25T07:02:39.000Z</Time>
            <Position>
              <LatitudeDegrees>38.161737956106662750244140625</LatitudeDegrees>
              <LongitudeDegrees>-1.12590408883988857269287109375</LongitudeDegrees>
            </Position>
            <AltitudeMeters>185.399993896484375</AltitudeMeters>
            <DistanceMeters>NAN</DistanceMeters>
          </Trackpoint>
          <Trackpoint>
            <Time>2020-05-25T07:02:40.000Z</Time>
            <Position>
              <LatitudeDegrees>38.16165304742753505706787109375</LatitudeDegrees>
              <LongitudeDegrees>-1.12588598392903804779052734375</LongitudeDegrees>
            </Position>
            <AltitudeMeters>185.399993896484375</AltitudeMeters>
            <DistanceMeters>NAN</DistanceMeters>
          </Trackpoint>
          <Trackpoint>
            <Time>2020-05-25T07:02:41.000Z</Time>
            <Position>
              <LatitudeDegrees>38.16156922839581966400146484375</LatitudeDegrees>
              <LongitudeDegrees>-1.12586989067494869232177734375</LongitudeDegrees>
            </Position>
            <AltitudeMeters>185.399993896484375</AltitudeMeters>
            <DistanceMeters>NAN</DistanceMeters>
          </Trackpoint>
          <Trackpoint>
            <Time>2020-05-25T07:02:42.000Z</Time>
            <Position>
              <LatitudeDegrees>38.16148742102086544036865234375</LatitudeDegrees>
              <LongitudeDegrees>-1.12585388123989105224609375</LongitudeDegrees>
            </Position>
            <AltitudeMeters>185.399993896484375</AltitudeMeters>
            <DistanceMeters>NAN</DistanceMeters>
          </Trackpoint>
          <Trackpoint>
            <Time>2020-05-25T07:02:43.000Z</Time>
            <Position>
              <LatitudeDegrees>38.16140712238848209381103515625</LatitudeDegrees>
              <LongitudeDegrees>-1.1258369497954845428466796875</LongitudeDegrees>
            </Position>
            <AltitudeMeters>185.399993896484375</AltitudeMeters>
            <DistanceMeters>NAN</DistanceMeters>
          </Trackpoint>
          <Trackpoint>
            <Time>2020-05-25T07:02:44.000Z</Time>
            <Position>
              <LatitudeDegrees>38.16132682375609874725341796875</LatitudeDegrees>
              <LongitudeDegrees>-1.1258205212652683258056640625</LongitudeDegrees>
            </Position>
            <AltitudeMeters>185.399993896484375</AltitudeMeters>
            <DistanceMeters>NAN</DistanceMeters>
          </Trackpoint>
          <Trackpoint>
            <Time>2020-05-25T07:02:45.000Z</Time>
            <Position>
              <LatitudeDegrees>38.1612476147711277008056640625</LatitudeDegrees>
              <LongitudeDegrees>-1.1258049309253692626953125</LongitudeDegrees>
            </Position>
            <AltitudeMeters>185.600006103515625</AltitudeMeters>
            <DistanceMeters>NAN</DistanceMeters>
          </Trackpoint>
          <Trackpoint>
            <Time>2020-05-25T07:02:46.000Z</Time>
            <Position>
              <LatitudeDegrees>38.1611688248813152313232421875</LatitudeDegrees>
              <LongitudeDegrees>-1.12578682601451873779296875</LongitudeDegrees>
            </Position>
            <AltitudeMeters>185.8000030517578125</AltitudeMeters>
            <DistanceMeters>NAN</DistanceMeters>
          </Trackpoint>
          <Trackpoint>
            <Time>2020-05-25T07:02:47.000Z</Time>
            <Position>
              <LatitudeDegrees>38.161088861525058746337890625</LatitudeDegrees>
              <LongitudeDegrees>-1.12576947547495365142822265625</LongitudeDegrees>
            </Position>
            <AltitudeMeters>186.1999969482421875</AltitudeMeters>
            <DistanceMeters>NAN</DistanceMeters>
          </Trackpoint>
          <Trackpoint>
            <Time>2020-05-25T07:02:48.000Z</Time>
            <Position>
              <LatitudeDegrees>38.16100680269300937652587890625</LatitudeDegrees>
              <LongitudeDegrees>-1.12575254403054714202880859375</LongitudeDegrees>
            </Position>
            <AltitudeMeters>186.399993896484375</AltitudeMeters>
            <DistanceMeters>NAN</DistanceMeters>
          </Trackpoint>
          <Trackpoint>
            <Time>2020-05-25T07:02:49.000Z</Time>
            <Position>
              <LatitudeDegrees>38.1609223969280719757080078125</LatitudeDegrees>
              <LongitudeDegrees>-1.12573611550033092498779296875</LongitudeDegrees>
            </Position>
            <AltitudeMeters>186.8000030517578125</AltitudeMeters>
            <DistanceMeters>NAN</DistanceMeters>
          </Trackpoint>
          <Trackpoint>
            <Time>2020-05-25T07:02:50.000Z</Time>
            <Position>
              <LatitudeDegrees>38.1608375720679759979248046875</LatitudeDegrees>
              <LongitudeDegrees>-1.125721447169780731201171875</LongitudeDegrees>
            </Position>
            <AltitudeMeters>187</AltitudeMeters>
            <DistanceMeters>NAN</DistanceMeters>
          </Trackpoint>
          <Trackpoint>
            <Time>2020-05-25T07:02:51.000Z</Time>
            <Position>
              <LatitudeDegrees>38.16075383685529232025146484375</LatitudeDegrees>
              <LongitudeDegrees>-1.12570560537278652191162109375</LongitudeDegrees>
            </Position>
            <AltitudeMeters>187</AltitudeMeters>
            <DistanceMeters>NAN</DistanceMeters>
          </Trackpoint>
          <Trackpoint>
            <Time>2020-05-25T07:02:52.000Z</Time>
            <Position>
              <LatitudeDegrees>38.16066783852875232696533203125</LatitudeDegrees>
              <LongitudeDegrees>-1.12568951211869716644287109375</LongitudeDegrees>
            </Position>
            <AltitudeMeters>187.1999969482421875</AltitudeMeters>
            <DistanceMeters>NAN</DistanceMeters>
          </Trackpoint>
          <Trackpoint>
            <Time>2020-05-25T07:02:53.000Z</Time>
            <Position>
              <LatitudeDegrees>38.16057949326932430267333984375</LatitudeDegrees>
              <LongitudeDegrees>-1.12567040137946605682373046875</LongitudeDegrees>
            </Position>
            <AltitudeMeters>187.1999969482421875</AltitudeMeters>
            <DistanceMeters>NAN</DistanceMeters>
          </Trackpoint>
          <Trackpoint>
            <Time>2020-05-25T07:02:54.000Z</Time>
            <Position>
              <LatitudeDegrees>38.1604908965528011322021484375</LatitudeDegrees>
              <LongitudeDegrees>-1.12565137445926666259765625</LongitudeDegrees>
            </Position>
            <AltitudeMeters>187.1999969482421875</AltitudeMeters>
            <DistanceMeters>NAN</DistanceMeters>
          </Trackpoint>
          <Trackpoint>
            <Time>2020-05-25T07:02:55.000Z</Time>
            <Position>
              <LatitudeDegrees>38.16040196456015110015869140625</LatitudeDegrees>
              <LongitudeDegrees>-1.125630922615528106689453125</LongitudeDegrees>
            </Position>
            <AltitudeMeters>187.1999969482421875</AltitudeMeters>
            <DistanceMeters>NAN</DistanceMeters>
          </Trackpoint>
          <Trackpoint>
            <Time>2020-05-25T07:02:56.000Z</Time>
            <Position>
              <LatitudeDegrees>38.16031294874846935272216796875</LatitudeDegrees>
              <LongitudeDegrees>-1.125610135495662689208984375</LongitudeDegrees>
            </Position>
            <AltitudeMeters>187.1999969482421875</AltitudeMeters>
            <DistanceMeters>NAN</DistanceMeters>
          </Trackpoint>
          <Trackpoint>
            <Time>2020-05-25T07:02:57.000Z</Time>
            <Position>
              <LatitudeDegrees>38.160223849117755889892578125</LatitudeDegrees>
              <LongitudeDegrees>-1.12559027038514614105224609375</LongitudeDegrees>
            </Position>
            <AltitudeMeters>187.1999969482421875</AltitudeMeters>
            <DistanceMeters>NAN</DistanceMeters>
          </Trackpoint>
          <Trackpoint>
            <Time>2020-05-25T07:02:58.000Z</Time>
            <Position>
              <LatitudeDegrees>38.1601328216493129730224609375</LatitudeDegrees>
              <LongitudeDegrees>-1.1255690641701221466064453125</LongitudeDegrees>
            </Position>
            <AltitudeMeters>187.1999969482421875</AltitudeMeters>
            <DistanceMeters>NAN</DistanceMeters>
          </Trackpoint>
          <Trackpoint>
            <Time>2020-05-25T07:02:59.000Z</Time>
            <Position>
              <LatitudeDegrees>38.1600422970950603485107421875</LatitudeDegrees>
              <LongitudeDegrees>-1.1255506239831447601318359375</LongitudeDegrees>
            </Position>
            <AltitudeMeters>187.1999969482421875</AltitudeMeters>
            <DistanceMeters>NAN</DistanceMeters>
          </Trackpoint>
          <Trackpoint>
            <Time>2020-05-25T07:03:00.000Z</Time>
            <Position>
              <LatitudeDegrees>38.15995353274047374725341796875</LatitudeDegrees>
              <LongitudeDegrees>-1.12553142942488193511962890625</LongitudeDegrees>
            </Position>
            <AltitudeMeters>187.1999969482421875</AltitudeMeters>
            <DistanceMeters>NAN</DistanceMeters>
          </Trackpoint>
          <Trackpoint>
            <Time>2020-05-25T07:03:01.000Z</Time>
            <Position>
              <LatitudeDegrees>38.15986535511910915374755859375</LatitudeDegrees>
              <LongitudeDegrees>-1.12551131285727024078369140625</LongitudeDegrees>
            </Position>
            <AltitudeMeters>187</AltitudeMeters>
            <DistanceMeters>NAN</DistanceMeters>
          </Trackpoint>
          <Trackpoint>
            <Time>2020-05-25T07:03:02.000Z</Time>
            <Position>
              <LatitudeDegrees>38.15977499820291996002197265625</LatitudeDegrees>
              <LongitudeDegrees>-1.12549312412738800048828125</LongitudeDegrees>
            </Position>
            <AltitudeMeters>186.8000030517578125</AltitudeMeters>
            <DistanceMeters>NAN</DistanceMeters>
          </Trackpoint>
          <Trackpoint>
            <Time>2020-05-25T07:03:03.000Z</Time>
            <Position>
              <LatitudeDegrees>38.15968128852546215057373046875</LatitudeDegrees>
              <LongitudeDegrees>-1.12547426484525203704833984375</LongitudeDegrees>
            </Position>
            <AltitudeMeters>186.600006103515625</AltitudeMeters>
            <DistanceMeters>NAN</DistanceMeters>
          </Trackpoint>
          <Trackpoint>
            <Time>2020-05-25T07:03:04.000Z</Time>
            <Position>
              <LatitudeDegrees>38.1595839746296405792236328125</LatitudeDegrees>
              <LongitudeDegrees>-1.12545750103890895843505859375</LongitudeDegrees>
            </Position>
            <AltitudeMeters>186.399993896484375</AltitudeMeters>
            <DistanceMeters>NAN</DistanceMeters>
          </Trackpoint>
          <Trackpoint>
            <Time>2020-05-25T07:03:05.000Z</Time>
            <Position>
              <LatitudeDegrees>38.15948800183832645416259765625</LatitudeDegrees>
              <LongitudeDegrees>-1.12544274888932704925537109375</LongitudeDegrees>
            </Position>
            <AltitudeMeters>186.1999969482421875</AltitudeMeters>
            <DistanceMeters>NAN</DistanceMeters>
          </Trackpoint>
          <Trackpoint>
            <Time>2020-05-25T07:03:06.000Z</Time>
            <Position>
              <LatitudeDegrees>38.15939043648540973663330078125</LatitudeDegrees>
              <LongitudeDegrees>-1.12542430870234966278076171875</LongitudeDegrees>
            </Position>
            <AltitudeMeters>186.1999969482421875</AltitudeMeters>
            <DistanceMeters>NAN</DistanceMeters>
          </Trackpoint>
          <Trackpoint>
            <Time>2020-05-25T07:03:07.000Z</Time>
            <Position>
              <LatitudeDegrees>38.15928834490478038787841796875</LatitudeDegrees>
              <LongitudeDegrees>-1.12540704198181629180908203125</LongitudeDegrees>
            </Position>
            <AltitudeMeters>186.1999969482421875</AltitudeMeters>
            <DistanceMeters>NAN</DistanceMeters>
          </Trackpoint>
          <Trackpoint>
            <Time>2020-05-25T07:03:08.000Z</Time>
            <Position>
              <LatitudeDegrees>38.15918440930545330047607421875</LatitudeDegrees>
              <LongitudeDegrees>-1.125385500490665435791015625</LongitudeDegrees>
            </Position>
            <AltitudeMeters>185.600006103515625</AltitudeMeters>
            <DistanceMeters>NAN</DistanceMeters>
          </Trackpoint>
          <Trackpoint>
            <Time>2020-05-25T07:03:09.000Z</Time>
            <Position>
              <LatitudeDegrees>38.159077204763889312744140625</LatitudeDegrees>
              <LongitudeDegrees>-1.12536395899951457977294921875</LongitudeDegrees>
            </Position>
            <AltitudeMeters>185.399993896484375</AltitudeMeters>
            <DistanceMeters>NAN</DistanceMeters>
          </Trackpoint>
          <Trackpoint>
            <Time>2020-05-25T07:03:10.000Z</Time>
            <Position>
              <LatitudeDegrees>38.15896865911781787872314453125</LatitudeDegrees>
              <LongitudeDegrees>-1.12534317187964916229248046875</LongitudeDegrees>
            </Position>
            <AltitudeMeters>184.8000030517578125</AltitudeMeters>
            <DistanceMeters>NAN</DistanceMeters>
          </Trackpoint>
          <Trackpoint>
            <Time>2020-05-25T07:03:11.000Z</Time>
            <Position>
              <LatitudeDegrees>38.1588574312627315521240234375</LatitudeDegrees>
              <LongitudeDegrees>-1.1253206245601177215576171875</LongitudeDegrees>
            </Position>
            <AltitudeMeters>184.1999969482421875</AltitudeMeters>
            <DistanceMeters>NAN</DistanceMeters>
          </Trackpoint>
          <Trackpoint>
            <Time>2020-05-25T07:03:12.000Z</Time>
            <Position>
              <LatitudeDegrees>38.15874502994120121002197265625</LatitudeDegrees>
              <LongitudeDegrees>-1.12529656849801540374755859375</LongitudeDegrees>
            </Position>
            <AltitudeMeters>183.8000030517578125</AltitudeMeters>
            <DistanceMeters>NAN</DistanceMeters>
          </Trackpoint>
          <Trackpoint>
            <Time>2020-05-25T07:03:13.000Z</Time>
            <Position>
              <LatitudeDegrees>38.15863103605806827545166015625</LatitudeDegrees>
              <LongitudeDegrees>-1.125274188816547393798828125</LongitudeDegrees>
            </Position>
            <AltitudeMeters>183</AltitudeMeters>
            <DistanceMeters>NAN</DistanceMeters>
          </Trackpoint>
          <Trackpoint>
            <Time>2020-05-25T07:03:14.000Z</Time>
            <Position>
              <LatitudeDegrees>38.1585157848894596099853515625</LatitudeDegrees>
              <LongitudeDegrees>-1.12525298260152339935302734375</LongitudeDegrees>
            </Position>
            <AltitudeMeters>182.600006103515625</AltitudeMeters>
            <DistanceMeters>NAN</DistanceMeters>
          </Trackpoint>
          <Trackpoint>
            <Time>2020-05-25T07:03:15.000Z</Time>
            <Position>
              <LatitudeDegrees>38.1583984382450580596923828125</LatitudeDegrees>
              <LongitudeDegrees>-1.1252304352819919586181640625</LongitudeDegrees>
            </Position>
            <AltitudeMeters>182</AltitudeMeters>
            <DistanceMeters>NAN</DistanceMeters>
          </Trackpoint>
          <Trackpoint>
            <Time>2020-05-25T07:03:16.000Z</Time>
            <Position>
              <LatitudeDegrees>38.15827949903905391693115234375</LatitudeDegrees>
              <LongitudeDegrees>-1.12520436756312847137451171875</LongitudeDegrees>
            </Position>
            <AltitudeMeters>181.8000030517578125</AltitudeMeters>
            <DistanceMeters>NAN</DistanceMeters>
          </Trackpoint>
          <Trackpoint>
            <Time>2020-05-25T07:03:17.000Z</Time>
            <Position>
              <LatitudeDegrees>38.15815997309982776641845703125</LatitudeDegrees>
              <LongitudeDegrees>-1.1251784674823284149169921875</LongitudeDegrees>
            </Position>
            <AltitudeMeters>181.1999969482421875</AltitudeMeters>
            <DistanceMeters>NAN</DistanceMeters>
          </Trackpoint>
          <Trackpoint>
            <Time>2020-05-25T07:03:18.000Z</Time>
            <Position>
              <LatitudeDegrees>38.1580417044460773468017578125</LatitudeDegrees>
              <LongitudeDegrees>-1.125151813030242919921875</LongitudeDegrees>
            </Position>
            <AltitudeMeters>180.1999969482421875</AltitudeMeters>
            <DistanceMeters>NAN</DistanceMeters>
          </Trackpoint>
          <Trackpoint>
            <Time>2020-05-25T07:03:19.000Z</Time>
            <Position>
              <LatitudeDegrees>38.15792477689683437347412109375</LatitudeDegrees>
              <LongitudeDegrees>-1.125125326216220855712890625</LongitudeDegrees>
            </Position>
            <AltitudeMeters>179.600006103515625</AltitudeMeters>
            <DistanceMeters>NAN</DistanceMeters>
          </Trackpoint>
          <Trackpoint>
            <Time>2020-05-25T07:03:20.000Z</Time>
            <Position>
              <LatitudeDegrees>38.1578093580901622772216796875</LatitudeDegrees>
              <LongitudeDegrees>-1.125100515782833099365234375</LongitudeDegrees>
            </Position>
            <AltitudeMeters>179.1999969482421875</AltitudeMeters>
            <DistanceMeters>NAN</DistanceMeters>
          </Trackpoint>
          <Trackpoint>
            <Time>2020-05-25T07:03:21.000Z</Time>
            <Position>
              <LatitudeDegrees>38.1576955318450927734375</LatitudeDegrees>
              <LongitudeDegrees>-1.12507713027298450469970703125</LongitudeDegrees>
            </Position>
            <AltitudeMeters>179</AltitudeMeters>
            <DistanceMeters>NAN</DistanceMeters>
          </Trackpoint>
          <Trackpoint>
            <Time>2020-05-25T07:03:22.000Z</Time>
            <Position>
              <LatitudeDegrees>38.1575830467045307159423828125</LatitudeDegrees>
              <LongitudeDegrees>-1.12505382858216762542724609375</LongitudeDegrees>
            </Position>
            <AltitudeMeters>178.600006103515625</AltitudeMeters>
            <DistanceMeters>NAN</DistanceMeters>
          </Trackpoint>
          <Trackpoint>
            <Time>2020-05-25T07:03:23.000Z</Time>
            <Position>
              <LatitudeDegrees>38.15747047774493694305419921875</LatitudeDegrees>
              <LongitudeDegrees>-1.12502935342490673065185546875</LongitudeDegrees>
            </Position>
            <AltitudeMeters>178.1999969482421875</AltitudeMeters>
            <DistanceMeters>NAN</DistanceMeters>
          </Trackpoint>
          <Trackpoint>
            <Time>2020-05-25T07:03:24.000Z</Time>
            <Position>
              <LatitudeDegrees>38.1573580764234066009521484375</LatitudeDegrees>
              <LongitudeDegrees>-1.12500655464828014373779296875</LongitudeDegrees>
            </Position>
            <AltitudeMeters>177.8000030517578125</AltitudeMeters>
            <DistanceMeters>NAN</DistanceMeters>
          </Trackpoint>
          <Trackpoint>
            <Time>2020-05-25T07:03:25.000Z</Time>
            <Position>
              <LatitudeDegrees>38.1572454236447811126708984375</LatitudeDegrees>
              <LongitudeDegrees>-1.1249828338623046875</LongitudeDegrees>
            </Position>
            <AltitudeMeters>177.1999969482421875</AltitudeMeters>
            <DistanceMeters>NAN</DistanceMeters>
          </Trackpoint>
          <Trackpoint>
            <Time>2020-05-25T07:03:26.000Z</Time>
            <Position>
              <LatitudeDegrees>38.15713419578969478607177734375</LatitudeDegrees>
              <LongitudeDegrees>-1.12495894543826580047607421875</LongitudeDegrees>
            </Position>
            <AltitudeMeters>176.600006103515625</AltitudeMeters>
            <DistanceMeters>NAN</DistanceMeters>
          </Trackpoint>
          <Trackpoint>
            <Time>2020-05-25T07:03:27.000Z</Time>
            <Position>
              <LatitudeDegrees>38.15702355466783046722412109375</LatitudeDegrees>
              <LongitudeDegrees>-1.12493514083325862884521484375</LongitudeDegrees>
            </Position>
            <AltitudeMeters>176.1999969482421875</AltitudeMeters>
            <DistanceMeters>NAN</DistanceMeters>
          </Trackpoint>
          <Trackpoint>
            <Time>2020-05-25T07:03:28.000Z</Time>
            <Position>
              <LatitudeDegrees>38.15691425465047359466552734375</LatitudeDegrees>
              <LongitudeDegrees>-1.12491334788501262664794921875</LongitudeDegrees>
            </Position>
            <AltitudeMeters>176</AltitudeMeters>
            <DistanceMeters>NAN</DistanceMeters>
          </Trackpoint>
          <Trackpoint>
            <Time>2020-05-25T07:03:29.000Z</Time>
            <Position>
              <LatitudeDegrees>38.15680629573762416839599609375</LatitudeDegrees>
              <LongitudeDegrees>-1.12489121966063976287841796875</LongitudeDegrees>
            </Position>
            <AltitudeMeters>175.8000030517578125</AltitudeMeters>
            <DistanceMeters>NAN</DistanceMeters>
          </Trackpoint>
          <Trackpoint>
            <Time>2020-05-25T07:03:30.000Z</Time>
            <Position>
              <LatitudeDegrees>38.15669883973896503448486328125</LatitudeDegrees>
              <LongitudeDegrees>-1.12486942671239376068115234375</LongitudeDegrees>
            </Position>
            <AltitudeMeters>175.399993896484375</AltitudeMeters>
            <DistanceMeters>NAN</DistanceMeters>
          </Trackpoint>
          <Trackpoint>
            <Time>2020-05-25T07:03:31.000Z</Time>
            <Position>
              <LatitudeDegrees>38.15659238956868648529052734375</LatitudeDegrees>
              <LongitudeDegrees>-1.124847717583179473876953125</LongitudeDegrees>
            </Position>
            <AltitudeMeters>175.1999969482421875</AltitudeMeters>
            <DistanceMeters>NAN</DistanceMeters>
          </Trackpoint>
          <Trackpoint>
            <Time>2020-05-25T07:03:32.000Z</Time>
            <Position>
              <LatitudeDegrees>38.15648761577904224395751953125</LatitudeDegrees>
              <LongitudeDegrees>-1.12482525408267974853515625</LongitudeDegrees>
            </Position>
            <AltitudeMeters>174.8000030517578125</AltitudeMeters>
            <DistanceMeters>NAN</DistanceMeters>
          </Trackpoint>
          <Trackpoint>
            <Time>2020-05-25T07:03:33.000Z</Time>
            <Position>
              <LatitudeDegrees>38.15638326108455657958984375</LatitudeDegrees>
              <LongitudeDegrees>-1.12480337731540203094482421875</LongitudeDegrees>
            </Position>
            <AltitudeMeters>174.600006103515625</AltitudeMeters>
            <DistanceMeters>NAN</DistanceMeters>
          </Trackpoint>
          <Trackpoint>
            <Time>2020-05-25T07:03:34.000Z</Time>
            <Position>
              <LatitudeDegrees>38.15628041513264179229736328125</LatitudeDegrees>
              <LongitudeDegrees>-1.12478141672909259796142578125</LongitudeDegrees>
            </Position>
            <AltitudeMeters>174.1999969482421875</AltitudeMeters>
            <DistanceMeters>NAN</DistanceMeters>
          </Trackpoint>
          <Trackpoint>
            <Time>2020-05-25T07:03:35.000Z</Time>
            <Position>
              <LatitudeDegrees>38.15617815591394901275634765625</LatitudeDegrees>
              <LongitudeDegrees>-1.12476029433310031890869140625</LongitudeDegrees>
            </Position>
            <AltitudeMeters>174</AltitudeMeters>
            <DistanceMeters>NAN</DistanceMeters>
          </Trackpoint>
          <Trackpoint>
            <Time>2020-05-25T07:03:36.000Z</Time>
            <Position>
              <LatitudeDegrees>38.1560759805142879486083984375</LatitudeDegrees>
              <LongitudeDegrees>-1.12474017776548862457275390625</LongitudeDegrees>
            </Position>
            <AltitudeMeters>173.8000030517578125</AltitudeMeters>
            <DistanceMeters>NAN</DistanceMeters>
          </Trackpoint>
          <Trackpoint>
            <Time>2020-05-25T07:03:37.000Z</Time>
            <Position>
              <LatitudeDegrees>38.15597380511462688446044921875</LatitudeDegrees>
              <LongitudeDegrees>-1.1247204802930355072021484375</LongitudeDegrees>
            </Position>
            <AltitudeMeters>173.600006103515625</AltitudeMeters>
            <DistanceMeters>NAN</DistanceMeters>
          </Trackpoint>
          <Trackpoint>
            <Time>2020-05-25T07:03:38.000Z</Time>
            <Position>
              <LatitudeDegrees>38.15587338991463184356689453125</LatitudeDegrees>
              <LongitudeDegrees>-1.12470128573477268218994140625</LongitudeDegrees>
            </Position>
            <AltitudeMeters>173.399993896484375</AltitudeMeters>
            <DistanceMeters>NAN</DistanceMeters>
          </Trackpoint>
          <Trackpoint>
            <Time>2020-05-25T07:03:39.000Z</Time>
            <Position>
              <LatitudeDegrees>38.1557737290859222412109375</LatitudeDegrees>
              <LongitudeDegrees>-1.1246810853481292724609375</LongitudeDegrees>
            </Position>
            <AltitudeMeters>173.1999969482421875</AltitudeMeters>
            <DistanceMeters>NAN</DistanceMeters>
          </Trackpoint>
          <Trackpoint>
            <Time>2020-05-25T07:03:40.000Z</Time>
            <Position>
              <LatitudeDegrees>38.15567524172365665435791015625</LatitudeDegrees>
              <LongitudeDegrees>-1.124661304056644439697265625</LongitudeDegrees>
            </Position>
            <AltitudeMeters>173.1999969482421875</AltitudeMeters>
            <DistanceMeters>NAN</DistanceMeters>
          </Trackpoint>
          <Trackpoint>
            <Time>2020-05-25T07:03:41.000Z</Time>
            <Position>
              <LatitudeDegrees>38.15557901747524738311767578125</LatitudeDegrees>
              <LongitudeDegrees>-1.1246410198509693145751953125</LongitudeDegrees>
            </Position>
            <AltitudeMeters>173.1999969482421875</AltitudeMeters>
            <DistanceMeters>NAN</DistanceMeters>
          </Trackpoint>
          <Trackpoint>
            <Time>2020-05-25T07:03:42.000Z</Time>
            <Position>
              <LatitudeDegrees>38.15548446960747241973876953125</LatitudeDegrees>
              <LongitudeDegrees>-1.124620735645294189453125</LongitudeDegrees>
            </Position>
            <AltitudeMeters>173.1999969482421875</AltitudeMeters>
            <DistanceMeters>NAN</DistanceMeters>
          </Trackpoint>
          <Trackpoint>
            <Time>2020-05-25T07:03:43.000Z</Time>
            <Position>
              <LatitudeDegrees>38.15539084374904632568359375</LatitudeDegrees>
              <LongitudeDegrees>-1.12460070289671421051025390625</LongitudeDegrees>
            </Position>
            <AltitudeMeters>173</AltitudeMeters>
            <DistanceMeters>NAN</DistanceMeters>
          </Trackpoint>
          <Trackpoint>
            <Time>2020-05-25T07:03:44.000Z</Time>
            <Position>
              <LatitudeDegrees>38.1552981398999691009521484375</LatitudeDegrees>
              <LongitudeDegrees>-1.12458008341491222381591796875</LongitudeDegrees>
            </Position>
            <AltitudeMeters>172.8000030517578125</AltitudeMeters>
            <DistanceMeters>NAN</DistanceMeters>
          </Trackpoint>
          <Trackpoint>
            <Time>2020-05-25T07:03:45.000Z</Time>
            <Position>
              <LatitudeDegrees>38.15520686097443103790283203125</LatitudeDegrees>
              <LongitudeDegrees>-1.1245615594089031219482421875</LongitudeDegrees>
            </Position>
            <AltitudeMeters>172.8000030517578125</AltitudeMeters>
            <DistanceMeters>NAN</DistanceMeters>
          </Trackpoint>
          <Trackpoint>
            <Time>2020-05-25T07:03:46.000Z</Time>
            <Position>
              <LatitudeDegrees>38.15511591732501983642578125</LatitudeDegrees>
              <LongitudeDegrees>-1.12454362213611602783203125</LongitudeDegrees>
            </Position>
            <AltitudeMeters>172.8000030517578125</AltitudeMeters>
            <DistanceMeters>NAN</DistanceMeters>
          </Trackpoint>
          <Trackpoint>
            <Time>2020-05-25T07:03:47.000Z</Time>
            <Position>
              <LatitudeDegrees>38.15502597950398921966552734375</LatitudeDegrees>
              <LongitudeDegrees>-1.1245243437588214874267578125</LongitudeDegrees>
            </Position>
            <AltitudeMeters>172.8000030517578125</AltitudeMeters>
            <DistanceMeters>NAN</DistanceMeters>
          </Trackpoint>
          <Trackpoint>
            <Time>2020-05-25T07:03:48.000Z</Time>
            <Position>
              <LatitudeDegrees>38.1549367122352123260498046875</LatitudeDegrees>
              <LongitudeDegrees>-1.12450447864830493927001953125</LongitudeDegrees>
            </Position>
            <AltitudeMeters>172.600006103515625</AltitudeMeters>
            <DistanceMeters>NAN</DistanceMeters>
          </Trackpoint>
          <Trackpoint>
            <Time>2020-05-25T07:03:49.000Z</Time>
            <Position>
              <LatitudeDegrees>38.15484845079481601715087890625</LatitudeDegrees>
              <LongitudeDegrees>-1.1244844458997249603271484375</LongitudeDegrees>
            </Position>
            <AltitudeMeters>172.600006103515625</AltitudeMeters>
            <DistanceMeters>NAN</DistanceMeters>
          </Trackpoint>
          <Trackpoint>
            <Time>2020-05-25T07:03:50.000Z</Time>
            <Position>
              <LatitudeDegrees>38.154760189354419708251953125</LatitudeDegrees>
              <LongitudeDegrees>-1.12446575425565242767333984375</LongitudeDegrees>
            </Position>
            <AltitudeMeters>172.600006103515625</AltitudeMeters>
            <DistanceMeters>NAN</DistanceMeters>
          </Trackpoint>
          <Trackpoint>
            <Time>2020-05-25T07:03:51.000Z</Time>
            <Position>
              <LatitudeDegrees>38.15467259846627712249755859375</LatitudeDegrees>
              <LongitudeDegrees>-1.12444178201258182525634765625</LongitudeDegrees>
            </Position>
            <AltitudeMeters>172.600006103515625</AltitudeMeters>
            <DistanceMeters>NAN</DistanceMeters>
          </Trackpoint>
          <Trackpoint>
            <Time>2020-05-25T07:03:52.000Z</Time>
            <Position>
              <LatitudeDegrees>38.154583834111690521240234375</LatitudeDegrees>
              <LongitudeDegrees>-1.12442166544497013092041015625</LongitudeDegrees>
            </Position>
            <AltitudeMeters>172.600006103515625</AltitudeMeters>
            <DistanceMeters>NAN</DistanceMeters>
          </Trackpoint>
          <Trackpoint>
            <Time>2020-05-25T07:03:53.000Z</Time>
            <Position>
              <LatitudeDegrees>38.154494650661945343017578125</LatitudeDegrees>
              <LongitudeDegrees>-1.1244023032486438751220703125</LongitudeDegrees>
            </Position>
            <AltitudeMeters>172.600006103515625</AltitudeMeters>
            <DistanceMeters>NAN</DistanceMeters>
          </Trackpoint>
          <Trackpoint>
            <Time>2020-05-25T07:03:54.000Z</Time>
            <Position>
              <LatitudeDegrees>38.154405467212200164794921875</LatitudeDegrees>
              <LongitudeDegrees>-1.12438377924263477325439453125</LongitudeDegrees>
            </Position>
            <AltitudeMeters>172.600006103515625</AltitudeMeters>
            <DistanceMeters>NAN</DistanceMeters>
          </Trackpoint>
          <Trackpoint>
            <Time>2020-05-25T07:03:55.000Z</Time>
            <Position>
              <LatitudeDegrees>38.154315948486328125</LatitudeDegrees>
              <LongitudeDegrees>-1.12436793744564056396484375</LongitudeDegrees>
            </Position>
            <AltitudeMeters>172.600006103515625</AltitudeMeters>
            <DistanceMeters>NAN</DistanceMeters>
          </Trackpoint>
          <Trackpoint>
            <Time>2020-05-25T07:03:56.000Z</Time>
            <Position>
              <LatitudeDegrees>38.15422567538917064666748046875</LatitudeDegrees>
              <LongitudeDegrees>-1.1243513412773609161376953125</LongitudeDegrees>
            </Position>
            <AltitudeMeters>172.600006103515625</AltitudeMeters>
            <DistanceMeters>NAN</DistanceMeters>
          </Trackpoint>
          <Trackpoint>
            <Time>2020-05-25T07:03:57.000Z</Time>
            <Position>
              <LatitudeDegrees>38.15413615666329860687255859375</LatitudeDegrees>
              <LongitudeDegrees>-1.12433440983295440673828125</LongitudeDegrees>
            </Position>
            <AltitudeMeters>172.600006103515625</AltitudeMeters>
            <DistanceMeters>NAN</DistanceMeters>
          </Trackpoint>
          <Trackpoint>
            <Time>2020-05-25T07:03:58.000Z</Time>
            <Position>
              <LatitudeDegrees>38.15404797904193401336669921875</LatitudeDegrees>
              <LongitudeDegrees>-1.1243188194930553436279296875</LongitudeDegrees>
            </Position>
            <AltitudeMeters>172.600006103515625</AltitudeMeters>
            <DistanceMeters>NAN</DistanceMeters>
          </Trackpoint>
          <Trackpoint>
            <Time>2020-05-25T07:03:59.000Z</Time>
            <Position>
              <LatitudeDegrees>38.15396030433475971221923828125</LatitudeDegrees>
              <LongitudeDegrees>-1.1243033967912197113037109375</LongitudeDegrees>
            </Position>
            <AltitudeMeters>172.600006103515625</AltitudeMeters>
            <DistanceMeters>NAN</DistanceMeters>
          </Trackpoint>
          <Trackpoint>
            <Time>2020-05-25T07:04:00.000Z</Time>
            <Position>
              <LatitudeDegrees>38.15387262962758541107177734375</LatitudeDegrees>
              <LongitudeDegrees>-1.1242869682610034942626953125</LongitudeDegrees>
            </Position>
            <AltitudeMeters>172.600006103515625</AltitudeMeters>
            <DistanceMeters>NAN</DistanceMeters>
          </Trackpoint>
          <Trackpoint>
            <Time>2020-05-25T07:04:01.000Z</Time>
            <Position>
              <LatitudeDegrees>38.1537860445678234100341796875</LatitudeDegrees>
              <LongitudeDegrees>-1.124268360435962677001953125</LongitudeDegrees>
            </Position>
            <AltitudeMeters>172.600006103515625</AltitudeMeters>
            <DistanceMeters>NAN</DistanceMeters>
          </Trackpoint>
          <Trackpoint>
            <Time>2020-05-25T07:04:02.000Z</Time>
            <Position>
              <LatitudeDegrees>38.15370080061256885528564453125</LatitudeDegrees>
              <LongitudeDegrees>-1.12425067462027072906494140625</LongitudeDegrees>
            </Position>
            <AltitudeMeters>172.600006103515625</AltitudeMeters>
            <DistanceMeters>NAN</DistanceMeters>
          </Trackpoint>
          <Trackpoint>
            <Time>2020-05-25T07:04:03.000Z</Time>
            <Position>
              <LatitudeDegrees>38.15361765213310718536376953125</LatitudeDegrees>
              <LongitudeDegrees>-1.12423810176551342010498046875</LongitudeDegrees>
            </Position>
            <AltitudeMeters>172.399993896484375</AltitudeMeters>
            <DistanceMeters>NAN</DistanceMeters>
          </Trackpoint>
          <Trackpoint>
            <Time>2020-05-25T07:04:04.000Z</Time>
            <Position>
              <LatitudeDegrees>38.15353550948202610015869140625</LatitudeDegrees>
              <LongitudeDegrees>-1.12423609010875225067138671875</LongitudeDegrees>
            </Position>
            <AltitudeMeters>172.399993896484375</AltitudeMeters>
            <DistanceMeters>NAN</DistanceMeters>
          </Trackpoint>
          <Trackpoint>
            <Time>2020-05-25T07:04:05.000Z</Time>
            <Position>
              <LatitudeDegrees>38.153453953564167022705078125</LatitudeDegrees>
              <LongitudeDegrees>-1.12425134517252445220947265625</LongitudeDegrees>
            </Position>
            <AltitudeMeters>172.1999969482421875</AltitudeMeters>
            <DistanceMeters>NAN</DistanceMeters>
          </Trackpoint>
          <Trackpoint>
            <Time>2020-05-25T07:04:06.000Z</Time>
            <Position>
              <LatitudeDegrees>38.1533739902079105377197265625</LatitudeDegrees>
              <LongitudeDegrees>-1.1242816038429737091064453125</LongitudeDegrees>
            </Position>
            <AltitudeMeters>172</AltitudeMeters>
            <DistanceMeters>NAN</DistanceMeters>
          </Trackpoint>
          <Trackpoint>
            <Time>2020-05-25T07:04:07.000Z</Time>
            <Position>
              <LatitudeDegrees>38.15329545177519321441650390625</LatitudeDegrees>
              <LongitudeDegrees>-1.12430800683796405792236328125</LongitudeDegrees>
            </Position>
            <AltitudeMeters>172</AltitudeMeters>
            <DistanceMeters>NAN</DistanceMeters>
          </Trackpoint>
          <Trackpoint>
            <Time>2020-05-25T07:04:08.000Z</Time>
            <Position>
              <LatitudeDegrees>38.15321984700858592987060546875</LatitudeDegrees>
              <LongitudeDegrees>-1.1243225075304508209228515625</LongitudeDegrees>
            </Position>
            <AltitudeMeters>171.8000030517578125</AltitudeMeters>
            <DistanceMeters>NAN</DistanceMeters>
          </Trackpoint>
          <Trackpoint>
            <Time>2020-05-25T07:04:09.000Z</Time>
            <Position>
              <LatitudeDegrees>38.1531439907848834991455078125</LatitudeDegrees>
              <LongitudeDegrees>-1.12431622110307216644287109375</LongitudeDegrees>
            </Position>
            <AltitudeMeters>171.8000030517578125</AltitudeMeters>
            <DistanceMeters>NAN</DistanceMeters>
          </Trackpoint>
          <Trackpoint>
            <Time>2020-05-25T07:04:10.000Z</Time>
            <Position>
              <LatitudeDegrees>38.153074085712432861328125</LatitudeDegrees>
              <LongitudeDegrees>-1.12428152002394199371337890625</LongitudeDegrees>
            </Position>
            <AltitudeMeters>171.8000030517578125</AltitudeMeters>
            <DistanceMeters>NAN</DistanceMeters>
          </Trackpoint>
          <Trackpoint>
            <Time>2020-05-25T07:04:11.000Z</Time>
            <Position>
              <LatitudeDegrees>38.15301113761961460113525390625</LatitudeDegrees>
              <LongitudeDegrees>-1.12422569654881954193115234375</LongitudeDegrees>
            </Position>
            <AltitudeMeters>171.8000030517578125</AltitudeMeters>
            <DistanceMeters>NAN</DistanceMeters>
          </Trackpoint>
          <Trackpoint>
            <Time>2020-05-25T07:04:12.000Z</Time>
            <Position>
              <LatitudeDegrees>38.152947016060352325439453125</LatitudeDegrees>
              <LongitudeDegrees>-1.1241659335792064666748046875</LongitudeDegrees>
            </Position>
            <AltitudeMeters>171.600006103515625</AltitudeMeters>
            <DistanceMeters>NAN</DistanceMeters>
          </Trackpoint>
          <Trackpoint>
            <Time>2020-05-25T07:04:13.000Z</Time>
            <Position>
              <LatitudeDegrees>38.1528767757117748260498046875</LatitudeDegrees>
              <LongitudeDegrees>-1.12411287613213062286376953125</LongitudeDegrees>
            </Position>
            <AltitudeMeters>171.600006103515625</AltitudeMeters>
            <DistanceMeters>NAN</DistanceMeters>
          </Trackpoint>
          <Trackpoint>
            <Time>2020-05-25T07:04:14.000Z</Time>
            <Position>
              <LatitudeDegrees>38.1527986563742160797119140625</LatitudeDegrees>
              <LongitudeDegrees>-1.1240683682262897491455078125</LongitudeDegrees>
            </Position>
            <AltitudeMeters>171.399993896484375</AltitudeMeters>
            <DistanceMeters>NAN</DistanceMeters>
          </Trackpoint>
          <Trackpoint>
            <Time>2020-05-25T07:04:15.000Z</Time>
            <Position>
              <LatitudeDegrees>38.15271609462797641754150390625</LatitudeDegrees>
              <LongitudeDegrees>-1.1240385286509990692138671875</LongitudeDegrees>
            </Position>
            <AltitudeMeters>171.399993896484375</AltitudeMeters>
            <DistanceMeters>NAN</DistanceMeters>
          </Trackpoint>
          <Trackpoint>
            <Time>2020-05-25T07:04:16.000Z</Time>
            <Position>
              <LatitudeDegrees>38.15263085067272186279296875</LatitudeDegrees>
              <LongitudeDegrees>-1.12402201630175113677978515625</LongitudeDegrees>
            </Position>
            <AltitudeMeters>171.399993896484375</AltitudeMeters>
            <DistanceMeters>NAN</DistanceMeters>
          </Trackpoint>
          <Trackpoint>
            <Time>2020-05-25T07:04:17.000Z</Time>
            <Position>
              <LatitudeDegrees>38.15254376269876956939697265625</LatitudeDegrees>
              <LongitudeDegrees>-1.12401044927537441253662109375</LongitudeDegrees>
            </Position>
            <AltitudeMeters>171.399993896484375</AltitudeMeters>
            <DistanceMeters>NAN</DistanceMeters>
          </Trackpoint>
          <Trackpoint>
            <Time>2020-05-25T07:04:18.000Z</Time>
            <Position>
              <LatitudeDegrees>38.152456842362880706787109375</LatitudeDegrees>
              <LongitudeDegrees>-1.12399620003998279571533203125</LongitudeDegrees>
            </Position>
            <AltitudeMeters>171.1999969482421875</AltitudeMeters>
            <DistanceMeters>NAN</DistanceMeters>
          </Trackpoint>
          <Trackpoint>
            <Time>2020-05-25T07:04:19.000Z</Time>
            <Position>
              <LatitudeDegrees>38.152369670569896697998046875</LatitudeDegrees>
              <LongitudeDegrees>-1.123980693519115447998046875</LongitudeDegrees>
            </Position>
            <AltitudeMeters>171</AltitudeMeters>
            <DistanceMeters>NAN</DistanceMeters>
          </Trackpoint>
          <Trackpoint>
            <Time>2020-05-25T07:04:20.000Z</Time>
            <Position>
              <LatitudeDegrees>38.15228124149143695831298828125</LatitudeDegrees>
              <LongitudeDegrees>-1.1239644326269626617431640625</LongitudeDegrees>
            </Position>
            <AltitudeMeters>170.8000030517578125</AltitudeMeters>
            <DistanceMeters>NAN</DistanceMeters>
          </Trackpoint>
          <Trackpoint>
            <Time>2020-05-25T07:04:21.000Z</Time>
            <Position>
              <LatitudeDegrees>38.15219306387007236480712890625</LatitudeDegrees>
              <LongitudeDegrees>-1.1239490099251270294189453125</LongitudeDegrees>
            </Position>
            <AltitudeMeters>170.8000030517578125</AltitudeMeters>
            <DistanceMeters>NAN</DistanceMeters>
          </Trackpoint>
          <Trackpoint>
            <Time>2020-05-25T07:04:22.000Z</Time>
            <Position>
              <LatitudeDegrees>38.1521026231348514556884765625</LatitudeDegrees>
              <LongitudeDegrees>-1.12392981536686420440673828125</LongitudeDegrees>
            </Position>
            <AltitudeMeters>170.8000030517578125</AltitudeMeters>
            <DistanceMeters>NAN</DistanceMeters>
          </Trackpoint>
          <Trackpoint>
            <Time>2020-05-25T07:04:23.000Z</Time>
            <Position>
              <LatitudeDegrees>38.1520117633044719696044921875</LatitudeDegrees>
              <LongitudeDegrees>-1.12391003407537937164306640625</LongitudeDegrees>
            </Position>
            <AltitudeMeters>170.600006103515625</AltitudeMeters>
            <DistanceMeters>NAN</DistanceMeters>
          </Trackpoint>
          <Trackpoint>
            <Time>2020-05-25T07:04:24.000Z</Time>
            <Position>
              <LatitudeDegrees>38.15192014910280704498291015625</LatitudeDegrees>
              <LongitudeDegrees>-1.12388991750776767730712890625</LongitudeDegrees>
            </Position>
            <AltitudeMeters>170.600006103515625</AltitudeMeters>
            <DistanceMeters>NAN</DistanceMeters>
          </Trackpoint>
          <Trackpoint>
            <Time>2020-05-25T07:04:25.000Z</Time>
            <Position>
              <LatitudeDegrees>38.1518283672630786895751953125</LatitudeDegrees>
              <LongitudeDegrees>-1.1238705553114414215087890625</LongitudeDegrees>
            </Position>
            <AltitudeMeters>170.600006103515625</AltitudeMeters>
            <DistanceMeters>NAN</DistanceMeters>
          </Trackpoint>
          <Trackpoint>
            <Time>2020-05-25T07:04:26.000Z</Time>
            <Position>
              <LatitudeDegrees>38.15173658542335033416748046875</LatitudeDegrees>
              <LongitudeDegrees>-1.12385169602930545806884765625</LongitudeDegrees>
            </Position>
            <AltitudeMeters>170.399993896484375</AltitudeMeters>
            <DistanceMeters>NAN</DistanceMeters>
          </Trackpoint>
          <Trackpoint>
            <Time>2020-05-25T07:04:27.000Z</Time>
            <Position>
              <LatitudeDegrees>38.15164388157427310943603515625</LatitudeDegrees>
              <LongitudeDegrees>-1.12383359111845493316650390625</LongitudeDegrees>
            </Position>
            <AltitudeMeters>170.399993896484375</AltitudeMeters>
            <DistanceMeters>NAN</DistanceMeters>
          </Trackpoint>
          <Trackpoint>
            <Time>2020-05-25T07:04:28.000Z</Time>
            <Position>
              <LatitudeDegrees>38.151550590991973876953125</LatitudeDegrees>
              <LongitudeDegrees>-1.12381598912179470062255859375</LongitudeDegrees>
            </Position>
            <AltitudeMeters>170.399993896484375</AltitudeMeters>
            <DistanceMeters>NAN</DistanceMeters>
          </Trackpoint>
          <Trackpoint>
            <Time>2020-05-25T07:04:29.000Z</Time>
            <Position>
              <LatitudeDegrees>38.15145646221935749053955078125</LatitudeDegrees>
              <LongitudeDegrees>-1.12379905767738819122314453125</LongitudeDegrees>
            </Position>
            <AltitudeMeters>170</AltitudeMeters>
            <DistanceMeters>NAN</DistanceMeters>
          </Trackpoint>
          <Trackpoint>
            <Time>2020-05-25T07:04:30.000Z</Time>
            <Position>
              <LatitudeDegrees>38.1513613276183605194091796875</LatitudeDegrees>
              <LongitudeDegrees>-1.12378128804266452789306640625</LongitudeDegrees>
            </Position>
            <AltitudeMeters>169.8000030517578125</AltitudeMeters>
            <DistanceMeters>NAN</DistanceMeters>
          </Trackpoint>
          <Trackpoint>
            <Time>2020-05-25T07:04:31.000Z</Time>
            <Position>
              <LatitudeDegrees>38.1512649357318878173828125</LatitudeDegrees>
              <LongitudeDegrees>-1.123762093484401702880859375</LongitudeDegrees>
            </Position>
            <AltitudeMeters>169.600006103515625</AltitudeMeters>
            <DistanceMeters>NAN</DistanceMeters>
          </Trackpoint>
          <Trackpoint>
            <Time>2020-05-25T07:04:32.000Z</Time>
            <Position>
              <LatitudeDegrees>38.1511675380170345306396484375</LatitudeDegrees>
              <LongitudeDegrees>-1.123741976916790008544921875</LongitudeDegrees>
            </Position>
            <AltitudeMeters>169.399993896484375</AltitudeMeters>
            <DistanceMeters>NAN</DistanceMeters>
          </Trackpoint>
          <Trackpoint>
            <Time>2020-05-25T07:04:33.000Z</Time>
            <Position>
              <LatitudeDegrees>38.15106854774057865142822265625</LatitudeDegrees>
              <LongitudeDegrees>-1.12372244708240032196044921875</LongitudeDegrees>
            </Position>
            <AltitudeMeters>169.1999969482421875</AltitudeMeters>
            <DistanceMeters>NAN</DistanceMeters>
          </Trackpoint>
          <Trackpoint>
            <Time>2020-05-25T07:04:34.000Z</Time>
            <Position>
              <LatitudeDegrees>38.15096964128315448760986328125</LatitudeDegrees>
              <LongitudeDegrees>-1.12370417453348636627197265625</LongitudeDegrees>
            </Position>
            <AltitudeMeters>168.8000030517578125</AltitudeMeters>
            <DistanceMeters>NAN</DistanceMeters>
          </Trackpoint>
          <Trackpoint>
            <Time>2020-05-25T07:04:35.000Z</Time>
            <Position>
              <LatitudeDegrees>38.15087073482573032379150390625</LatitudeDegrees>
              <LongitudeDegrees>-1.1236838065087795257568359375</LongitudeDegrees>
            </Position>
            <AltitudeMeters>168.600006103515625</AltitudeMeters>
            <DistanceMeters>NAN</DistanceMeters>
          </Trackpoint>
          <Trackpoint>
            <Time>2020-05-25T07:04:36.000Z</Time>
            <Position>
              <LatitudeDegrees>38.15077149309217929840087890625</LatitudeDegrees>
              <LongitudeDegrees>-1.1236636899411678314208984375</LongitudeDegrees>
            </Position>
            <AltitudeMeters>168.399993896484375</AltitudeMeters>
            <DistanceMeters>NAN</DistanceMeters>
          </Trackpoint>
          <Trackpoint>
            <Time>2020-05-25T07:04:37.000Z</Time>
            <Position>
              <LatitudeDegrees>38.15067040733993053436279296875</LatitudeDegrees>
              <LongitudeDegrees>-1.12364298664033412933349609375</LongitudeDegrees>
            </Position>
            <AltitudeMeters>168.399993896484375</AltitudeMeters>
            <DistanceMeters>NAN</DistanceMeters>
          </Trackpoint>
          <Trackpoint>
            <Time>2020-05-25T07:04:38.000Z</Time>
            <Position>
              <LatitudeDegrees>38.15056965686380863189697265625</LatitudeDegrees>
              <LongitudeDegrees>-1.12362521700561046600341796875</LongitudeDegrees>
            </Position>
            <AltitudeMeters>168.1999969482421875</AltitudeMeters>
            <DistanceMeters>NAN</DistanceMeters>
          </Trackpoint>
          <Trackpoint>
            <Time>2020-05-25T07:04:39.000Z</Time>
            <Position>
              <LatitudeDegrees>38.15046723000705242156982421875</LatitudeDegrees>
              <LongitudeDegrees>-1.12360359169542789459228515625</LongitudeDegrees>
            </Position>
            <AltitudeMeters>168</AltitudeMeters>
            <DistanceMeters>NAN</DistanceMeters>
          </Trackpoint>
          <Trackpoint>
            <Time>2020-05-25T07:04:40.000Z</Time>
            <Position>
              <LatitudeDegrees>38.150363378226757049560546875</LatitudeDegrees>
              <LongitudeDegrees>-1.123581044375896453857421875</LongitudeDegrees>
            </Position>
            <AltitudeMeters>167.399993896484375</AltitudeMeters>
            <DistanceMeters>NAN</DistanceMeters>
          </Trackpoint>
          <Trackpoint>
            <Time>2020-05-25T07:04:41.000Z</Time>
            <Position>
              <LatitudeDegrees>38.15025919117033481597900390625</LatitudeDegrees>
              <LongitudeDegrees>-1.1235599219799041748046875</LongitudeDegrees>
            </Position>
            <AltitudeMeters>167</AltitudeMeters>
            <DistanceMeters>NAN</DistanceMeters>
          </Trackpoint>
          <Trackpoint>
            <Time>2020-05-25T07:04:42.000Z</Time>
            <Position>
              <LatitudeDegrees>38.15015240572392940521240234375</LatitudeDegrees>
              <LongitudeDegrees>-1.12353603355586528778076171875</LongitudeDegrees>
            </Position>
            <AltitudeMeters>166.8000030517578125</AltitudeMeters>
            <DistanceMeters>NAN</DistanceMeters>
          </Trackpoint>
          <Trackpoint>
            <Time>2020-05-25T07:04:43.000Z</Time>
            <Position>
              <LatitudeDegrees>38.15004645846784114837646484375</LatitudeDegrees>
              <LongitudeDegrees>-1.12351373769342899322509765625</LongitudeDegrees>
            </Position>
            <AltitudeMeters>166.600006103515625</AltitudeMeters>
            <DistanceMeters>NAN</DistanceMeters>
          </Trackpoint>
          <Trackpoint>
            <Time>2020-05-25T07:04:44.000Z</Time>
            <Position>
              <LatitudeDegrees>38.1499390862882137298583984375</LatitudeDegrees>
              <LongitudeDegrees>-1.12348926253616809844970703125</LongitudeDegrees>
            </Position>
            <AltitudeMeters>166.399993896484375</AltitudeMeters>
            <DistanceMeters>NAN</DistanceMeters>
          </Trackpoint>
          <Trackpoint>
            <Time>2020-05-25T07:04:45.000Z</Time>
            <Position>
              <LatitudeDegrees>38.14983154647052288055419921875</LatitudeDegrees>
              <LongitudeDegrees>-1.12346478737890720367431640625</LongitudeDegrees>
            </Position>
            <AltitudeMeters>165.8000030517578125</AltitudeMeters>
            <DistanceMeters>NAN</DistanceMeters>
          </Trackpoint>
          <Trackpoint>
            <Time>2020-05-25T07:04:46.000Z</Time>
            <Position>
              <LatitudeDegrees>38.1497241742908954620361328125</LatitudeDegrees>
              <LongitudeDegrees>-1.12344131805002689361572265625</LongitudeDegrees>
            </Position>
            <AltitudeMeters>165.399993896484375</AltitudeMeters>
            <DistanceMeters>NAN</DistanceMeters>
          </Trackpoint>
          <Trackpoint>
            <Time>2020-05-25T07:04:47.000Z</Time>
            <Position>
              <LatitudeDegrees>38.14961730502545833587646484375</LatitudeDegrees>
              <LongitudeDegrees>-1.12341902218759059906005859375</LongitudeDegrees>
            </Position>
            <AltitudeMeters>165.1999969482421875</AltitudeMeters>
            <DistanceMeters>NAN</DistanceMeters>
          </Trackpoint>
          <Trackpoint>
            <Time>2020-05-25T07:04:48.000Z</Time>
            <Position>
              <LatitudeDegrees>38.1495102681219577789306640625</LatitudeDegrees>
              <LongitudeDegrees>-1.12339563667774200439453125</LongitudeDegrees>
            </Position>
            <AltitudeMeters>164.600006103515625</AltitudeMeters>
            <DistanceMeters>NAN</DistanceMeters>
          </Trackpoint>
          <Trackpoint>
            <Time>2020-05-25T07:04:49.000Z</Time>
            <Position>
              <LatitudeDegrees>38.14940323121845722198486328125</LatitudeDegrees>
              <LongitudeDegrees>-1.12337292172014713287353515625</LongitudeDegrees>
            </Position>
            <AltitudeMeters>164</AltitudeMeters>
            <DistanceMeters>NAN</DistanceMeters>
          </Trackpoint>
          <Trackpoint>
            <Time>2020-05-25T07:04:50.000Z</Time>
            <Position>
              <LatitudeDegrees>38.149296529591083526611328125</LatitudeDegrees>
              <LongitudeDegrees>-1.12334995530545711517333984375</LongitudeDegrees>
            </Position>
            <AltitudeMeters>163.600006103515625</AltitudeMeters>
            <DistanceMeters>NAN</DistanceMeters>
          </Trackpoint>
          <Trackpoint>
            <Time>2020-05-25T07:04:51.000Z</Time>
            <Position>
              <LatitudeDegrees>38.14919116906821727752685546875</LatitudeDegrees>
              <LongitudeDegrees>-1.1233270727097988128662109375</LongitudeDegrees>
            </Position>
            <AltitudeMeters>163.1999969482421875</AltitudeMeters>
            <DistanceMeters>NAN</DistanceMeters>
          </Trackpoint>
          <Trackpoint>
            <Time>2020-05-25T07:04:52.000Z</Time>
            <Position>
              <LatitudeDegrees>38.1490874849259853363037109375</LatitudeDegrees>
              <LongitudeDegrees>-1.1233039386570453643798828125</LongitudeDegrees>
            </Position>
            <AltitudeMeters>162.600006103515625</AltitudeMeters>
            <DistanceMeters>NAN</DistanceMeters>
          </Trackpoint>
          <Trackpoint>
            <Time>2020-05-25T07:04:53.000Z</Time>
            <Position>
              <LatitudeDegrees>38.1489850580692291259765625</LatitudeDegrees>
              <LongitudeDegrees>-1.12328273244202136993408203125</LongitudeDegrees>
            </Position>
            <AltitudeMeters>162.399993896484375</AltitudeMeters>
            <DistanceMeters>NAN</DistanceMeters>
          </Trackpoint>
          <Trackpoint>
            <Time>2020-05-25T07:04:54.000Z</Time>
            <Position>
              <LatitudeDegrees>38.1488839723169803619384765625</LatitudeDegrees>
              <LongitudeDegrees>-1.123263537883758544921875</LongitudeDegrees>
            </Position>
            <AltitudeMeters>161.600006103515625</AltitudeMeters>
            <DistanceMeters>NAN</DistanceMeters>
          </Trackpoint>
          <Trackpoint>
            <Time>2020-05-25T07:04:55.000Z</Time>
            <Position>
              <LatitudeDegrees>38.14878246746957302093505859375</LatitudeDegrees>
              <LongitudeDegrees>-1.12324409186840057373046875</LongitudeDegrees>
            </Position>
            <AltitudeMeters>161.1999969482421875</AltitudeMeters>
            <DistanceMeters>NAN</DistanceMeters>
          </Trackpoint>
          <Trackpoint>
            <Time>2020-05-25T07:04:56.000Z</Time>
            <Position>
              <LatitudeDegrees>38.14868255518376827239990234375</LatitudeDegrees>
              <LongitudeDegrees>-1.12322456203401088714599609375</LongitudeDegrees>
            </Position>
            <AltitudeMeters>160.8000030517578125</AltitudeMeters>
            <DistanceMeters>NAN</DistanceMeters>
          </Trackpoint>
          <Trackpoint>
            <Time>2020-05-25T07:04:57.000Z</Time>
            <Position>
              <LatitudeDegrees>38.1485822238028049468994140625</LatitudeDegrees>
              <LongitudeDegrees>-1.12320385873317718505859375</LongitudeDegrees>
            </Position>
            <AltitudeMeters>160.8000030517578125</AltitudeMeters>
            <DistanceMeters>NAN</DistanceMeters>
          </Trackpoint>
          <Trackpoint>
            <Time>2020-05-25T07:04:58.000Z</Time>
            <Position>
              <LatitudeDegrees>38.14848206005990505218505859375</LatitudeDegrees>
              <LongitudeDegrees>-1.12318282015621662139892578125</LongitudeDegrees>
            </Position>
            <AltitudeMeters>160.1999969482421875</AltitudeMeters>
            <DistanceMeters>NAN</DistanceMeters>
          </Trackpoint>
          <Trackpoint>
            <Time>2020-05-25T07:04:59.000Z</Time>
            <Position>
              <LatitudeDegrees>38.1483820639550685882568359375</LatitudeDegrees>
              <LongitudeDegrees>-1.123161949217319488525390625</LongitudeDegrees>
            </Position>
            <AltitudeMeters>159.8000030517578125</AltitudeMeters>
            <DistanceMeters>NAN</DistanceMeters>
          </Trackpoint>
          <Trackpoint>
            <Time>2020-05-25T07:05:00.000Z</Time>
            <Position>
              <LatitudeDegrees>38.148283325135707855224609375</LatitudeDegrees>
              <LongitudeDegrees>-1.12314174883067607879638671875</LongitudeDegrees>
            </Position>
            <AltitudeMeters>159.399993896484375</AltitudeMeters>
            <DistanceMeters>NAN</DistanceMeters>
          </Trackpoint>
          <Trackpoint>
            <Time>2020-05-25T07:05:01.000Z</Time>
            <Position>
              <LatitudeDegrees>38.14818584360182285308837890625</LatitudeDegrees>
              <LongitudeDegrees>-1.12312205135822296142578125</LongitudeDegrees>
            </Position>
            <AltitudeMeters>158.8000030517578125</AltitudeMeters>
            <DistanceMeters>NAN</DistanceMeters>
          </Trackpoint>
          <Trackpoint>
            <Time>2020-05-25T07:05:02.000Z</Time>
            <Position>
              <LatitudeDegrees>38.1480900384485721588134765625</LatitudeDegrees>
              <LongitudeDegrees>-1.123102270066738128662109375</LongitudeDegrees>
            </Position>
            <AltitudeMeters>158.600006103515625</AltitudeMeters>
            <DistanceMeters>NAN</DistanceMeters>
          </Trackpoint>
          <Trackpoint>
            <Time>2020-05-25T07:05:03.000Z</Time>
            <Position>
              <LatitudeDegrees>38.14799523912370204925537109375</LatitudeDegrees>
              <LongitudeDegrees>-1.123080812394618988037109375</LongitudeDegrees>
            </Position>
            <AltitudeMeters>158.399993896484375</AltitudeMeters>
            <DistanceMeters>NAN</DistanceMeters>
          </Trackpoint>
          <Trackpoint>
            <Time>2020-05-25T07:05:04.000Z</Time>
            <Position>
              <LatitudeDegrees>38.147901110351085662841796875</LatitudeDegrees>
              <LongitudeDegrees>-1.12305977381765842437744140625</LongitudeDegrees>
            </Position>
            <AltitudeMeters>158</AltitudeMeters>
            <DistanceMeters>NAN</DistanceMeters>
          </Trackpoint>
          <Trackpoint>
            <Time>2020-05-25T07:05:05.000Z</Time>
            <Position>
              <LatitudeDegrees>38.14780681394040584564208984375</LatitudeDegrees>
              <LongitudeDegrees>-1.12303965725004673004150390625</LongitudeDegrees>
            </Position>
            <AltitudeMeters>157.8000030517578125</AltitudeMeters>
            <DistanceMeters>NAN</DistanceMeters>
          </Trackpoint>
          <Trackpoint>
            <Time>2020-05-25T07:05:06.000Z</Time>
            <Position>
              <LatitudeDegrees>38.14771327190101146697998046875</LatitudeDegrees>
              <LongitudeDegrees>-1.1230202950537204742431640625</LongitudeDegrees>
            </Position>
            <AltitudeMeters>157.8000030517578125</AltitudeMeters>
            <DistanceMeters>NAN</DistanceMeters>
          </Trackpoint>
          <Trackpoint>
            <Time>2020-05-25T07:05:07.000Z</Time>
            <Position>
              <LatitudeDegrees>38.14762115478515625</LatitudeDegrees>
              <LongitudeDegrees>-1.12300210632383823394775390625</LongitudeDegrees>
            </Position>
            <AltitudeMeters>157.600006103515625</AltitudeMeters>
            <DistanceMeters>NAN</DistanceMeters>
          </Trackpoint>
          <Trackpoint>
            <Time>2020-05-25T07:05:08.000Z</Time>
            <Position>
              <LatitudeDegrees>38.1475304625928401947021484375</LatitudeDegrees>
              <LongitudeDegrees>-1.12298584543168544769287109375</LongitudeDegrees>
            </Position>
            <AltitudeMeters>157.600006103515625</AltitudeMeters>
            <DistanceMeters>NAN</DistanceMeters>
          </Trackpoint>
          <Trackpoint>
            <Time>2020-05-25T07:05:09.000Z</Time>
            <Position>
              <LatitudeDegrees>38.14744153060019016265869140625</LatitudeDegrees>
              <LongitudeDegrees>-1.1229716800153255462646484375</LongitudeDegrees>
            </Position>
            <AltitudeMeters>157.399993896484375</AltitudeMeters>
            <DistanceMeters>NAN</DistanceMeters>
          </Trackpoint>
          <Trackpoint>
            <Time>2020-05-25T07:05:10.000Z</Time>
            <Position>
              <LatitudeDegrees>38.14735519699752330780029296875</LatitudeDegrees>
              <LongitudeDegrees>-1.1229550838470458984375</LongitudeDegrees>
            </Position>
            <AltitudeMeters>157.399993896484375</AltitudeMeters>
            <DistanceMeters>NAN</DistanceMeters>
          </Trackpoint>
          <Trackpoint>
            <Time>2020-05-25T07:05:11.000Z</Time>
            <Position>
              <LatitudeDegrees>38.14727037213742733001708984375</LatitudeDegrees>
              <LongitudeDegrees>-1.12293907441198825836181640625</LongitudeDegrees>
            </Position>
            <AltitudeMeters>157.1999969482421875</AltitudeMeters>
            <DistanceMeters>NAN</DistanceMeters>
          </Trackpoint>
          <Trackpoint>
            <Time>2020-05-25T07:05:12.000Z</Time>
            <Position>
              <LatitudeDegrees>38.14718755893409252166748046875</LatitudeDegrees>
              <LongitudeDegrees>-1.1229240708053112030029296875</LongitudeDegrees>
            </Position>
            <AltitudeMeters>157.1999969482421875</AltitudeMeters>
            <DistanceMeters>NAN</DistanceMeters>
          </Trackpoint>
          <Trackpoint>
            <Time>2020-05-25T07:05:13.000Z</Time>
            <Position>
              <LatitudeDegrees>38.14710658974945545196533203125</LatitudeDegrees>
              <LongitudeDegrees>-1.12290889956057071685791015625</LongitudeDegrees>
            </Position>
            <AltitudeMeters>157</AltitudeMeters>
            <DistanceMeters>NAN</DistanceMeters>
          </Trackpoint>
          <Trackpoint>
            <Time>2020-05-25T07:05:14.000Z</Time>
            <Position>
              <LatitudeDegrees>38.1470275484025478363037109375</LatitudeDegrees>
              <LongitudeDegrees>-1.1228969134390354156494140625</LongitudeDegrees>
            </Position>
            <AltitudeMeters>156.600006103515625</AltitudeMeters>
            <DistanceMeters>NAN</DistanceMeters>
          </Trackpoint>
          <Trackpoint>
            <Time>2020-05-25T07:05:15.000Z</Time>
            <Position>
              <LatitudeDegrees>38.14694993197917938232421875</LatitudeDegrees>
              <LongitudeDegrees>-1.1228908784687519073486328125</LongitudeDegrees>
            </Position>
            <AltitudeMeters>156.399993896484375</AltitudeMeters>
            <DistanceMeters>NAN</DistanceMeters>
          </Trackpoint>
          <Trackpoint>
            <Time>2020-05-25T07:05:16.000Z</Time>
            <Position>
              <LatitudeDegrees>38.14687390811741352081298828125</LatitudeDegrees>
              <LongitudeDegrees>-1.12289766781032085418701171875</LongitudeDegrees>
            </Position>
            <AltitudeMeters>156.399993896484375</AltitudeMeters>
            <DistanceMeters>NAN</DistanceMeters>
          </Trackpoint>
          <Trackpoint>
            <Time>2020-05-25T07:05:17.000Z</Time>
            <Position>
              <LatitudeDegrees>38.14680115319788455963134765625</LatitudeDegrees>
              <LongitudeDegrees>-1.1229190416634082794189453125</LongitudeDegrees>
            </Position>
            <AltitudeMeters>156.1999969482421875</AltitudeMeters>
            <DistanceMeters>NAN</DistanceMeters>
          </Trackpoint>
          <Trackpoint>
            <Time>2020-05-25T07:05:18.000Z</Time>
            <Position>
              <LatitudeDegrees>38.14673258922994136810302734375</LatitudeDegrees>
              <LongitudeDegrees>-1.122956089675426483154296875</LongitudeDegrees>
            </Position>
            <AltitudeMeters>156.1999969482421875</AltitudeMeters>
            <DistanceMeters>NAN</DistanceMeters>
          </Trackpoint>
          <Trackpoint>
            <Time>2020-05-25T07:05:19.000Z</Time>
            <Position>
              <LatitudeDegrees>38.14666721038520336151123046875</LatitudeDegrees>
              <LongitudeDegrees>-1.123000681400299072265625</LongitudeDegrees>
            </Position>
            <AltitudeMeters>156.1999969482421875</AltitudeMeters>
            <DistanceMeters>NAN</DistanceMeters>
          </Trackpoint>
          <Trackpoint>
            <Time>2020-05-25T07:05:20.000Z</Time>
            <Position>
              <LatitudeDegrees>38.14660149626433849334716796875</LatitudeDegrees>
              <LongitudeDegrees>-1.1230447702109813690185546875</LongitudeDegrees>
            </Position>
            <AltitudeMeters>156.1999969482421875</AltitudeMeters>
            <DistanceMeters>NAN</DistanceMeters>
          </Trackpoint>
          <Trackpoint>
            <Time>2020-05-25T07:05:21.000Z</Time>
            <Position>
              <LatitudeDegrees>38.14653594978153705596923828125</LatitudeDegrees>
              <LongitudeDegrees>-1.1230846680700778961181640625</LongitudeDegrees>
            </Position>
            <AltitudeMeters>156.1999969482421875</AltitudeMeters>
            <DistanceMeters>NAN</DistanceMeters>
          </Trackpoint>
          <Trackpoint>
            <Time>2020-05-25T07:05:22.000Z</Time>
            <Position>
              <LatitudeDegrees>38.14647207967936992645263671875</LatitudeDegrees>
              <LongitudeDegrees>-1.12312749959528446197509765625</LongitudeDegrees>
            </Position>
            <AltitudeMeters>156.1999969482421875</AltitudeMeters>
            <DistanceMeters>NAN</DistanceMeters>
          </Trackpoint>
          <Trackpoint>
            <Time>2020-05-25T07:05:23.000Z</Time>
            <Position>
              <LatitudeDegrees>38.1464133225381374359130859375</LatitudeDegrees>
              <LongitudeDegrees>-1.1231798864901065826416015625</LongitudeDegrees>
            </Position>
            <AltitudeMeters>156.1999969482421875</AltitudeMeters>
            <DistanceMeters>NAN</DistanceMeters>
          </Trackpoint>
          <Trackpoint>
            <Time>2020-05-25T07:05:24.000Z</Time>
            <Position>
              <LatitudeDegrees>38.14636261202394962310791015625</LatitudeDegrees>
              <LongitudeDegrees>-1.12324350513517856597900390625</LongitudeDegrees>
            </Position>
            <AltitudeMeters>156.1999969482421875</AltitudeMeters>
            <DistanceMeters>NAN</DistanceMeters>
          </Trackpoint>
          <Trackpoint>
            <Time>2020-05-25T07:05:25.000Z</Time>
            <Position>
              <LatitudeDegrees>38.14632304944097995758056640625</LatitudeDegrees>
              <LongitudeDegrees>-1.123316176235675811767578125</LongitudeDegrees>
            </Position>
            <AltitudeMeters>156.1999969482421875</AltitudeMeters>
            <DistanceMeters>NAN</DistanceMeters>
          </Trackpoint>
          <Trackpoint>
            <Time>2020-05-25T07:05:26.000Z</Time>
            <Position>
              <LatitudeDegrees>38.146291114389896392822265625</LatitudeDegrees>
              <LongitudeDegrees>-1.1233917810022830963134765625</LongitudeDegrees>
            </Position>
            <AltitudeMeters>156.1999969482421875</AltitudeMeters>
            <DistanceMeters>NAN</DistanceMeters>
          </Trackpoint>
          <Trackpoint>
            <Time>2020-05-25T07:05:27.000Z</Time>
            <Position>
              <LatitudeDegrees>38.1462654657661914825439453125</LatitudeDegrees>
              <LongitudeDegrees>-1.12346797250211238861083984375</LongitudeDegrees>
            </Position>
            <AltitudeMeters>156.1999969482421875</AltitudeMeters>
            <DistanceMeters>NAN</DistanceMeters>
          </Trackpoint>
          <Trackpoint>
            <Time>2020-05-25T07:05:28.000Z</Time>
            <Position>
              <LatitudeDegrees>38.14624576829373836517333984375</LatitudeDegrees>
              <LongitudeDegrees>-1.1235413141548633575439453125</LongitudeDegrees>
            </Position>
            <AltitudeMeters>156.399993896484375</AltitudeMeters>
            <DistanceMeters>NAN</DistanceMeters>
          </Trackpoint>
          <Trackpoint>
            <Time>2020-05-25T07:05:29.000Z</Time>
            <Position>
              <LatitudeDegrees>38.14623017795383930206298828125</LatitudeDegrees>
              <LongitudeDegrees>-1.12361155450344085693359375</LongitudeDegrees>
            </Position>
            <AltitudeMeters>156.600006103515625</AltitudeMeters>
            <DistanceMeters>NAN</DistanceMeters>
          </Trackpoint>
          <Trackpoint>
            <Time>2020-05-25T07:05:30.000Z</Time>
            <Position>
              <LatitudeDegrees>38.14621643163263797760009765625</LatitudeDegrees>
              <LongitudeDegrees>-1.12367995083332061767578125</LongitudeDegrees>
            </Position>
            <AltitudeMeters>156.8000030517578125</AltitudeMeters>
            <DistanceMeters>NAN</DistanceMeters>
          </Trackpoint>
          <Trackpoint>
            <Time>2020-05-25T07:05:31.000Z</Time>
            <Position>
              <LatitudeDegrees>38.14620436169207096099853515625</LatitudeDegrees>
              <LongitudeDegrees>-1.12374926917254924774169921875</LongitudeDegrees>
            </Position>
            <AltitudeMeters>157.1999969482421875</AltitudeMeters>
            <DistanceMeters>NAN</DistanceMeters>
          </Trackpoint>
          <Trackpoint>
            <Time>2020-05-25T07:05:32.000Z</Time>
            <Position>
              <LatitudeDegrees>38.1461910344660282135009765625</LatitudeDegrees>
              <LongitudeDegrees>-1.12382051534950733184814453125</LongitudeDegrees>
            </Position>
            <AltitudeMeters>157.399993896484375</AltitudeMeters>
            <DistanceMeters>NAN</DistanceMeters>
          </Trackpoint>
          <Trackpoint>
            <Time>2020-05-25T07:05:33.000Z</Time>
            <Position>
              <LatitudeDegrees>38.14617485739290714263916015625</LatitudeDegrees>
              <LongitudeDegrees>-1.12389293499290943145751953125</LongitudeDegrees>
            </Position>
            <AltitudeMeters>157.600006103515625</AltitudeMeters>
            <DistanceMeters>NAN</DistanceMeters>
          </Trackpoint>
          <Trackpoint>
            <Time>2020-05-25T07:05:34.000Z</Time>
            <Position>
              <LatitudeDegrees>38.14615599811077117919921875</LatitudeDegrees>
              <LongitudeDegrees>-1.123966611921787261962890625</LongitudeDegrees>
            </Position>
            <AltitudeMeters>158</AltitudeMeters>
            <DistanceMeters>NAN</DistanceMeters>
          </Trackpoint>
          <Trackpoint>
            <Time>2020-05-25T07:05:35.000Z</Time>
            <Position>
              <LatitudeDegrees>38.14613521099090576171875</LatitudeDegrees>
              <LongitudeDegrees>-1.124041043221950531005859375</LongitudeDegrees>
            </Position>
            <AltitudeMeters>158.399993896484375</AltitudeMeters>
            <DistanceMeters>NAN</DistanceMeters>
          </Trackpoint>
          <Trackpoint>
            <Time>2020-05-25T07:05:36.000Z</Time>
            <Position>
              <LatitudeDegrees>38.14611584879457950592041015625</LatitudeDegrees>
              <LongitudeDegrees>-1.12411740235984325408935546875</LongitudeDegrees>
            </Position>
            <AltitudeMeters>159</AltitudeMeters>
            <DistanceMeters>NAN</DistanceMeters>
          </Trackpoint>
          <Trackpoint>
            <Time>2020-05-25T07:05:37.000Z</Time>
            <Position>
              <LatitudeDegrees>38.146099336445331573486328125</LatitudeDegrees>
              <LongitudeDegrees>-1.12419367767870426177978515625</LongitudeDegrees>
            </Position>
            <AltitudeMeters>159.600006103515625</AltitudeMeters>
            <DistanceMeters>NAN</DistanceMeters>
          </Trackpoint>
          <Trackpoint>
            <Time>2020-05-25T07:05:38.000Z</Time>
            <Position>
              <LatitudeDegrees>38.14608315937221050262451171875</LatitudeDegrees>
              <LongitudeDegrees>-1.12426710315048694610595703125</LongitudeDegrees>
            </Position>
            <AltitudeMeters>160</AltitudeMeters>
            <DistanceMeters>NAN</DistanceMeters>
          </Trackpoint>
          <Trackpoint>
            <Time>2020-05-25T07:05:39.000Z</Time>
            <Position>
              <LatitudeDegrees>38.14606404863297939300537109375</LatitudeDegrees>
              <LongitudeDegrees>-1.12433969043195247650146484375</LongitudeDegrees>
            </Position>
            <AltitudeMeters>160.1999969482421875</AltitudeMeters>
            <DistanceMeters>NAN</DistanceMeters>
          </Trackpoint>
          <Trackpoint>
            <Time>2020-05-25T07:05:40.000Z</Time>
            <Position>
              <LatitudeDegrees>38.1460453569889068603515625</LatitudeDegrees>
              <LongitudeDegrees>-1.12441177479922771453857421875</LongitudeDegrees>
            </Position>
            <AltitudeMeters>160.399993896484375</AltitudeMeters>
            <DistanceMeters>NAN</DistanceMeters>
          </Trackpoint>
          <Trackpoint>
            <Time>2020-05-25T07:05:41.000Z</Time>
            <Position>
              <LatitudeDegrees>38.1460260786116123199462890625</LatitudeDegrees>
              <LongitudeDegrees>-1.12448469735682010650634765625</LongitudeDegrees>
            </Position>
            <AltitudeMeters>160.8000030517578125</AltitudeMeters>
            <DistanceMeters>NAN</DistanceMeters>
          </Trackpoint>
          <Trackpoint>
            <Time>2020-05-25T07:05:42.000Z</Time>
            <Position>
              <LatitudeDegrees>38.14600755460560321807861328125</LatitudeDegrees>
              <LongitudeDegrees>-1.1245588771998882293701171875</LongitudeDegrees>
            </Position>
            <AltitudeMeters>161</AltitudeMeters>
            <DistanceMeters>NAN</DistanceMeters>
          </Trackpoint>
          <Trackpoint>
            <Time>2020-05-25T07:05:43.000Z</Time>
            <Position>
              <LatitudeDegrees>38.14599062316119670867919921875</LatitudeDegrees>
              <LongitudeDegrees>-1.12463490106165409088134765625</LongitudeDegrees>
            </Position>
            <AltitudeMeters>161.1999969482421875</AltitudeMeters>
            <DistanceMeters>NAN</DistanceMeters>
          </Trackpoint>
          <Trackpoint>
            <Time>2020-05-25T07:05:44.000Z</Time>
            <Position>
              <LatitudeDegrees>38.14597436226904392242431640625</LatitudeDegrees>
              <LongitudeDegrees>-1.12470899708569049835205078125</LongitudeDegrees>
            </Position>
            <AltitudeMeters>161.1999969482421875</AltitudeMeters>
            <DistanceMeters>NAN</DistanceMeters>
          </Trackpoint>
          <Trackpoint>
            <Time>2020-05-25T07:05:45.000Z</Time>
            <Position>
              <LatitudeDegrees>38.1459570117294788360595703125</LatitudeDegrees>
              <LongitudeDegrees>-1.12478409893810749053955078125</LongitudeDegrees>
            </Position>
            <AltitudeMeters>161.399993896484375</AltitudeMeters>
            <DistanceMeters>NAN</DistanceMeters>
          </Trackpoint>
          <Trackpoint>
            <Time>2020-05-25T07:05:46.000Z</Time>
            <Position>
              <LatitudeDegrees>38.14593966118991374969482421875</LatitudeDegrees>
              <LongitudeDegrees>-1.1248602904379367828369140625</LongitudeDegrees>
            </Position>
            <AltitudeMeters>161.399993896484375</AltitudeMeters>
            <DistanceMeters>NAN</DistanceMeters>
          </Trackpoint>
          <Trackpoint>
            <Time>2020-05-25T07:05:47.000Z</Time>
            <Position>
              <LatitudeDegrees>38.14592340029776096343994140625</LatitudeDegrees>
              <LongitudeDegrees>-1.1249370686709880828857421875</LongitudeDegrees>
            </Position>
            <AltitudeMeters>161.8000030517578125</AltitudeMeters>
            <DistanceMeters>NAN</DistanceMeters>
          </Trackpoint>
          <Trackpoint>
            <Time>2020-05-25T07:05:48.000Z</Time>
            <Position>
              <LatitudeDegrees>38.14590680412948131561279296875</LatitudeDegrees>
              <LongitudeDegrees>-1.12501175142824649810791015625</LongitudeDegrees>
            </Position>
            <AltitudeMeters>162</AltitudeMeters>
            <DistanceMeters>NAN</DistanceMeters>
          </Trackpoint>
          <Trackpoint>
            <Time>2020-05-25T07:05:49.000Z</Time>
            <Position>
              <LatitudeDegrees>38.14588869921863079071044921875</LatitudeDegrees>
              <LongitudeDegrees>-1.12508618272840976715087890625</LongitudeDegrees>
            </Position>
            <AltitudeMeters>162.399993896484375</AltitudeMeters>
            <DistanceMeters>NAN</DistanceMeters>
          </Trackpoint>
          <Trackpoint>
            <Time>2020-05-25T07:05:50.000Z</Time>
            <Position>
              <LatitudeDegrees>38.145870007574558258056640625</LatitudeDegrees>
              <LongitudeDegrees>-1.12515977583825588226318359375</LongitudeDegrees>
            </Position>
            <AltitudeMeters>162.399993896484375</AltitudeMeters>
            <DistanceMeters>NAN</DistanceMeters>
          </Trackpoint>
          <Trackpoint>
            <Time>2020-05-25T07:05:51.000Z</Time>
            <Position>
              <LatitudeDegrees>38.14585181884467601776123046875</LatitudeDegrees>
              <LongitudeDegrees>-1.1252331174910068511962890625</LongitudeDegrees>
            </Position>
            <AltitudeMeters>162.600006103515625</AltitudeMeters>
            <DistanceMeters>NAN</DistanceMeters>
          </Trackpoint>
          <Trackpoint>
            <Time>2020-05-25T07:05:52.000Z</Time>
            <Position>
              <LatitudeDegrees>38.14583170227706432342529296875</LatitudeDegrees>
              <LongitudeDegrees>-1.12530712969601154327392578125</LongitudeDegrees>
            </Position>
            <AltitudeMeters>162.8000030517578125</AltitudeMeters>
            <DistanceMeters>NAN</DistanceMeters>
          </Trackpoint>
          <Trackpoint>
            <Time>2020-05-25T07:05:53.000Z</Time>
            <Position>
              <LatitudeDegrees>38.145810328423976898193359375</LatitudeDegrees>
              <LongitudeDegrees>-1.125382818281650543212890625</LongitudeDegrees>
            </Position>
            <AltitudeMeters>162.8000030517578125</AltitudeMeters>
            <DistanceMeters>NAN</DistanceMeters>
          </Trackpoint>
          <Trackpoint>
            <Time>2020-05-25T07:05:54.000Z</Time>
            <Position>
              <LatitudeDegrees>38.1457897089421749114990234375</LatitudeDegrees>
              <LongitudeDegrees>-1.12545884214341640472412109375</LongitudeDegrees>
            </Position>
            <AltitudeMeters>163.1999969482421875</AltitudeMeters>
            <DistanceMeters>NAN</DistanceMeters>
          </Trackpoint>
          <Trackpoint>
            <Time>2020-05-25T07:05:55.000Z</Time>
            <Position>
              <LatitudeDegrees>38.14576934091746807098388671875</LatitudeDegrees>
              <LongitudeDegrees>-1.12553461454808712005615234375</LongitudeDegrees>
            </Position>
            <AltitudeMeters>163.1999969482421875</AltitudeMeters>
            <DistanceMeters>NAN</DistanceMeters>
          </Trackpoint>
          <Trackpoint>
            <Time>2020-05-25T07:05:56.000Z</Time>
            <Position>
              <LatitudeDegrees>38.145748637616634368896484375</LatitudeDegrees>
              <LongitudeDegrees>-1.12561273388564586639404296875</LongitudeDegrees>
            </Position>
            <AltitudeMeters>163.399993896484375</AltitudeMeters>
            <DistanceMeters>NAN</DistanceMeters>
          </Trackpoint>
          <Trackpoint>
            <Time>2020-05-25T07:05:57.000Z</Time>
            <Position>
              <LatitudeDegrees>38.14572743140161037445068359375</LatitudeDegrees>
              <LongitudeDegrees>-1.125690601766109466552734375</LongitudeDegrees>
            </Position>
            <AltitudeMeters>163.399993896484375</AltitudeMeters>
            <DistanceMeters>NAN</DistanceMeters>
          </Trackpoint>
          <Trackpoint>
            <Time>2020-05-25T07:05:58.000Z</Time>
            <Position>
              <LatitudeDegrees>38.14570597372949123382568359375</LatitudeDegrees>
              <LongitudeDegrees>-1.12576947547495365142822265625</LongitudeDegrees>
            </Position>
            <AltitudeMeters>163.8000030517578125</AltitudeMeters>
            <DistanceMeters>NAN</DistanceMeters>
          </Trackpoint>
          <Trackpoint>
            <Time>2020-05-25T07:05:59.000Z</Time>
            <Position>
              <LatitudeDegrees>38.145684264600276947021484375</LatitudeDegrees>
              <LongitudeDegrees>-1.12584893591701984405517578125</LongitudeDegrees>
            </Position>
            <AltitudeMeters>164</AltitudeMeters>
            <DistanceMeters>NAN</DistanceMeters>
          </Trackpoint>
          <Trackpoint>
            <Time>2020-05-25T07:06:00.000Z</Time>
            <Position>
              <LatitudeDegrees>38.1456616334617137908935546875</LatitudeDegrees>
              <LongitudeDegrees>-1.125928647816181182861328125</LongitudeDegrees>
            </Position>
            <AltitudeMeters>164.1999969482421875</AltitudeMeters>
            <DistanceMeters>NAN</DistanceMeters>
          </Trackpoint>
          <Trackpoint>
            <Time>2020-05-25T07:06:01.000Z</Time>
            <Position>
              <LatitudeDegrees>38.14563774503767490386962890625</LatitudeDegrees>
              <LongitudeDegrees>-1.12600618042051792144775390625</LongitudeDegrees>
            </Position>
            <AltitudeMeters>164.1999969482421875</AltitudeMeters>
            <DistanceMeters>NAN</DistanceMeters>
          </Trackpoint>
          <Trackpoint>
            <Time>2020-05-25T07:06:02.000Z</Time>
            <Position>
              <LatitudeDegrees>38.1456103362143039703369140625</LatitudeDegrees>
              <LongitudeDegrees>-1.12608480267226696014404296875</LongitudeDegrees>
            </Position>
            <AltitudeMeters>164.399993896484375</AltitudeMeters>
            <DistanceMeters>NAN</DistanceMeters>
          </Trackpoint>
          <Trackpoint>
            <Time>2020-05-25T07:06:03.000Z</Time>
            <Position>
              <LatitudeDegrees>38.14558334648609161376953125</LatitudeDegrees>
              <LongitudeDegrees>-1.12616091035306453704833984375</LongitudeDegrees>
            </Position>
            <AltitudeMeters>164.600006103515625</AltitudeMeters>
            <DistanceMeters>NAN</DistanceMeters>
          </Trackpoint>
          <Trackpoint>
            <Time>2020-05-25T07:06:04.000Z</Time>
            <Position>
              <LatitudeDegrees>38.14555359072983264923095703125</LatitudeDegrees>
              <LongitudeDegrees>-1.126236431300640106201171875</LongitudeDegrees>
            </Position>
            <AltitudeMeters>165</AltitudeMeters>
            <DistanceMeters>NAN</DistanceMeters>
          </Trackpoint>
          <Trackpoint>
            <Time>2020-05-25T07:06:05.000Z</Time>
            <Position>
              <LatitudeDegrees>38.14552073366940021514892578125</LatitudeDegrees>
              <LongitudeDegrees>-1.12631320953369140625</LongitudeDegrees>
            </Position>
            <AltitudeMeters>165</AltitudeMeters>
            <DistanceMeters>NAN</DistanceMeters>
          </Trackpoint>
          <Trackpoint>
            <Time>2020-05-25T07:06:06.000Z</Time>
            <Position>
              <LatitudeDegrees>38.14548485912382602691650390625</LatitudeDegrees>
              <LongitudeDegrees>-1.1263894848525524139404296875</LongitudeDegrees>
            </Position>
            <AltitudeMeters>165.1999969482421875</AltitudeMeters>
            <DistanceMeters>NAN</DistanceMeters>
          </Trackpoint>
          <Trackpoint>
            <Time>2020-05-25T07:06:07.000Z</Time>
            <Position>
              <LatitudeDegrees>38.1454445421695709228515625</LatitudeDegrees>
              <LongitudeDegrees>-1.12646366469562053680419921875</LongitudeDegrees>
            </Position>
            <AltitudeMeters>165.1999969482421875</AltitudeMeters>
            <DistanceMeters>NAN</DistanceMeters>
          </Trackpoint>
          <Trackpoint>
            <Time>2020-05-25T07:06:08.000Z</Time>
            <Position>
              <LatitudeDegrees>38.14540154300630092620849609375</LatitudeDegrees>
              <LongitudeDegrees>-1.126536838710308074951171875</LongitudeDegrees>
            </Position>
            <AltitudeMeters>165.1999969482421875</AltitudeMeters>
            <DistanceMeters>NAN</DistanceMeters>
          </Trackpoint>
          <Trackpoint>
            <Time>2020-05-25T07:06:09.000Z</Time>
            <Position>
              <LatitudeDegrees>38.14535477198660373687744140625</LatitudeDegrees>
              <LongitudeDegrees>-1.12660967744886875152587890625</LongitudeDegrees>
            </Position>
            <AltitudeMeters>165.399993896484375</AltitudeMeters>
            <DistanceMeters>NAN</DistanceMeters>
          </Trackpoint>
          <Trackpoint>
            <Time>2020-05-25T07:06:10.000Z</Time>
            <Position>
              <LatitudeDegrees>38.1453045643866062164306640625</LatitudeDegrees>
              <LongitudeDegrees>-1.12667941488325595855712890625</LongitudeDegrees>
            </Position>
            <AltitudeMeters>165.399993896484375</AltitudeMeters>
            <DistanceMeters>NAN</DistanceMeters>
          </Trackpoint>
          <Trackpoint>
            <Time>2020-05-25T07:06:11.000Z</Time>
            <Position>
              <LatitudeDegrees>38.14524966292083263397216796875</LatitudeDegrees>
              <LongitudeDegrees>-1.1267425306141376495361328125</LongitudeDegrees>
            </Position>
            <AltitudeMeters>165.399993896484375</AltitudeMeters>
            <DistanceMeters>NAN</DistanceMeters>
          </Trackpoint>
          <Trackpoint>
            <Time>2020-05-25T07:06:12.000Z</Time>
            <Position>
              <LatitudeDegrees>38.14519132487475872039794921875</LatitudeDegrees>
              <LongitudeDegrees>-1.1268000304698944091796875</LongitudeDegrees>
            </Position>
            <AltitudeMeters>165.399993896484375</AltitudeMeters>
            <DistanceMeters>NAN</DistanceMeters>
          </Trackpoint>
          <Trackpoint>
            <Time>2020-05-25T07:06:13.000Z</Time>
            <Position>
              <LatitudeDegrees>38.1451278738677501678466796875</LatitudeDegrees>
              <LongitudeDegrees>-1.12685300409793853759765625</LongitudeDegrees>
            </Position>
            <AltitudeMeters>165.399993896484375</AltitudeMeters>
            <DistanceMeters>NAN</DistanceMeters>
          </Trackpoint>
          <Trackpoint>
            <Time>2020-05-25T07:06:14.000Z</Time>
            <Position>
              <LatitudeDegrees>38.14506031572818756103515625</LatitudeDegrees>
              <LongitudeDegrees>-1.1269004456698894500732421875</LongitudeDegrees>
            </Position>
            <AltitudeMeters>165.399993896484375</AltitudeMeters>
            <DistanceMeters>NAN</DistanceMeters>
          </Trackpoint>
          <Trackpoint>
            <Time>2020-05-25T07:06:15.000Z</Time>
            <Position>
              <LatitudeDegrees>38.14498948864638805389404296875</LatitudeDegrees>
              <LongitudeDegrees>-1.1269440315663814544677734375</LongitudeDegrees>
            </Position>
            <AltitudeMeters>165.399993896484375</AltitudeMeters>
            <DistanceMeters>NAN</DistanceMeters>
          </Trackpoint>
          <Trackpoint>
            <Time>2020-05-25T07:06:16.000Z</Time>
            <Position>
              <LatitudeDegrees>38.14491455443203449249267578125</LatitudeDegrees>
              <LongitudeDegrees>-1.12698418088257312774658203125</LongitudeDegrees>
            </Position>
            <AltitudeMeters>165.399993896484375</AltitudeMeters>
            <DistanceMeters>NAN</DistanceMeters>
          </Trackpoint>
          <Trackpoint>
            <Time>2020-05-25T07:06:17.000Z</Time>
            <Position>
              <LatitudeDegrees>38.14483928494155406951904296875</LatitudeDegrees>
              <LongitudeDegrees>-1.12702273763716220855712890625</LongitudeDegrees>
            </Position>
            <AltitudeMeters>165.399993896484375</AltitudeMeters>
            <DistanceMeters>NAN</DistanceMeters>
          </Trackpoint>
          <Trackpoint>
            <Time>2020-05-25T07:06:18.000Z</Time>
            <Position>
              <LatitudeDegrees>38.1447620876133441925048828125</LatitudeDegrees>
              <LongitudeDegrees>-1.12706079147756099700927734375</LongitudeDegrees>
            </Position>
            <AltitudeMeters>165.1999969482421875</AltitudeMeters>
            <DistanceMeters>NAN</DistanceMeters>
          </Trackpoint>
          <Trackpoint>
            <Time>2020-05-25T07:06:19.000Z</Time>
            <Position>
              <LatitudeDegrees>38.144685141742229461669921875</LatitudeDegrees>
              <LongitudeDegrees>-1.12710110843181610107421875</LongitudeDegrees>
            </Position>
            <AltitudeMeters>165.1999969482421875</AltitudeMeters>
            <DistanceMeters>NAN</DistanceMeters>
          </Trackpoint>
          <Trackpoint>
            <Time>2020-05-25T07:06:20.000Z</Time>
            <Position>
              <LatitudeDegrees>38.14460928551852703094482421875</LatitudeDegrees>
              <LongitudeDegrees>-1.12714427523314952850341796875</LongitudeDegrees>
            </Position>
            <AltitudeMeters>165</AltitudeMeters>
            <DistanceMeters>NAN</DistanceMeters>
          </Trackpoint>
          <Trackpoint>
            <Time>2020-05-25T07:06:21.000Z</Time>
            <Position>
              <LatitudeDegrees>38.14453351311385631561279296875</LatitudeDegrees>
              <LongitudeDegrees>-1.12719004042446613311767578125</LongitudeDegrees>
            </Position>
            <AltitudeMeters>164.8000030517578125</AltitudeMeters>
            <DistanceMeters>NAN</DistanceMeters>
          </Trackpoint>
          <Trackpoint>
            <Time>2020-05-25T07:06:22.000Z</Time>
            <Position>
              <LatitudeDegrees>38.14446008764207363128662109375</LatitudeDegrees>
              <LongitudeDegrees>-1.12723999656736850738525390625</LongitudeDegrees>
            </Position>
            <AltitudeMeters>164.8000030517578125</AltitudeMeters>
            <DistanceMeters>NAN</DistanceMeters>
          </Trackpoint>
          <Trackpoint>
            <Time>2020-05-25T07:06:23.000Z</Time>
            <Position>
              <LatitudeDegrees>38.1443882547318935394287109375</LatitudeDegrees>
              <LongitudeDegrees>-1.12729380838572978973388671875</LongitudeDegrees>
            </Position>
            <AltitudeMeters>164.8000030517578125</AltitudeMeters>
            <DistanceMeters>NAN</DistanceMeters>
          </Trackpoint>
          <Trackpoint>
            <Time>2020-05-25T07:06:24.000Z</Time>
            <Position>
              <LatitudeDegrees>38.1443168409168720245361328125</LatitudeDegrees>
              <LongitudeDegrees>-1.12735147587954998016357421875</LongitudeDegrees>
            </Position>
            <AltitudeMeters>164.8000030517578125</AltitudeMeters>
            <DistanceMeters>NAN</DistanceMeters>
          </Trackpoint>
          <Trackpoint>
            <Time>2020-05-25T07:06:25.000Z</Time>
            <Position>
              <LatitudeDegrees>38.1442494504153728485107421875</LatitudeDegrees>
              <LongitudeDegrees>-1.1274157650768756866455078125</LongitudeDegrees>
            </Position>
            <AltitudeMeters>164.600006103515625</AltitudeMeters>
            <DistanceMeters>NAN</DistanceMeters>
          </Trackpoint>
          <Trackpoint>
            <Time>2020-05-25T07:06:26.000Z</Time>
            <Position>
              <LatitudeDegrees>38.14418449066579341888427734375</LatitudeDegrees>
              <LongitudeDegrees>-1.12748625688254833221435546875</LongitudeDegrees>
            </Position>
            <AltitudeMeters>164.399993896484375</AltitudeMeters>
            <DistanceMeters>NAN</DistanceMeters>
          </Trackpoint>
          <Trackpoint>
            <Time>2020-05-25T07:06:27.000Z</Time>
            <Position>
              <LatitudeDegrees>38.14412196166813373565673828125</LatitudeDegrees>
              <LongitudeDegrees>-1.12756001763045787811279296875</LongitudeDegrees>
            </Position>
            <AltitudeMeters>164.399993896484375</AltitudeMeters>
            <DistanceMeters>NAN</DistanceMeters>
          </Trackpoint>
          <Trackpoint>
            <Time>2020-05-25T07:06:28.000Z</Time>
            <Position>
              <LatitudeDegrees>38.14405943267047405242919921875</LatitudeDegrees>
              <LongitudeDegrees>-1.127635538578033447265625</LongitudeDegrees>
            </Position>
            <AltitudeMeters>164.399993896484375</AltitudeMeters>
            <DistanceMeters>NAN</DistanceMeters>
          </Trackpoint>
          <Trackpoint>
            <Time>2020-05-25T07:06:29.000Z</Time>
            <Position>
              <LatitudeDegrees>38.14399807713925838470458984375</LatitudeDegrees>
              <LongitudeDegrees>-1.12770938314497470855712890625</LongitudeDegrees>
            </Position>
            <AltitudeMeters>164.1999969482421875</AltitudeMeters>
            <DistanceMeters>NAN</DistanceMeters>
          </Trackpoint>
          <Trackpoint>
            <Time>2020-05-25T07:06:30.000Z</Time>
            <Position>
              <LatitudeDegrees>38.143936805427074432373046875</LatitudeDegrees>
              <LongitudeDegrees>-1.1277817189693450927734375</LongitudeDegrees>
            </Position>
            <AltitudeMeters>164</AltitudeMeters>
            <DistanceMeters>NAN</DistanceMeters>
          </Trackpoint>
          <Trackpoint>
            <Time>2020-05-25T07:06:31.000Z</Time>
            <Position>
              <LatitudeDegrees>38.14387335442006587982177734375</LatitudeDegrees>
              <LongitudeDegrees>-1.1278539709746837615966796875</LongitudeDegrees>
            </Position>
            <AltitudeMeters>164</AltitudeMeters>
            <DistanceMeters>NAN</DistanceMeters>
          </Trackpoint>
          <Trackpoint>
            <Time>2020-05-25T07:06:32.000Z</Time>
            <Position>
              <LatitudeDegrees>38.14380914904177188873291015625</LatitudeDegrees>
              <LongitudeDegrees>-1.12792446278035640716552734375</LongitudeDegrees>
            </Position>
            <AltitudeMeters>163.8000030517578125</AltitudeMeters>
            <DistanceMeters>NAN</DistanceMeters>
          </Trackpoint>
          <Trackpoint>
            <Time>2020-05-25T07:06:33.000Z</Time>
            <Position>
              <LatitudeDegrees>38.143745027482509613037109375</LatitudeDegrees>
              <LongitudeDegrees>-1.12799302674829959869384765625</LongitudeDegrees>
            </Position>
            <AltitudeMeters>163.600006103515625</AltitudeMeters>
            <DistanceMeters>NAN</DistanceMeters>
          </Trackpoint>
          <Trackpoint>
            <Time>2020-05-25T07:06:34.000Z</Time>
            <Position>
              <LatitudeDegrees>38.14367906190454959869384765625</LatitudeDegrees>
              <LongitudeDegrees>-1.12806108780205249786376953125</LongitudeDegrees>
            </Position>
            <AltitudeMeters>163.600006103515625</AltitudeMeters>
            <DistanceMeters>NAN</DistanceMeters>
          </Trackpoint>
          <Trackpoint>
            <Time>2020-05-25T07:06:35.000Z</Time>
            <Position>
              <LatitudeDegrees>38.1436117552220821380615234375</LatitudeDegrees>
              <LongitudeDegrees>-1.12812780775129795074462890625</LongitudeDegrees>
            </Position>
            <AltitudeMeters>163.600006103515625</AltitudeMeters>
            <DistanceMeters>NAN</DistanceMeters>
          </Trackpoint>
          <Trackpoint>
            <Time>2020-05-25T07:06:36.000Z</Time>
            <Position>
              <LatitudeDegrees>38.14354461617767810821533203125</LatitudeDegrees>
              <LongitudeDegrees>-1.12819167785346508026123046875</LongitudeDegrees>
            </Position>
            <AltitudeMeters>163.600006103515625</AltitudeMeters>
            <DistanceMeters>NAN</DistanceMeters>
          </Trackpoint>
          <Trackpoint>
            <Time>2020-05-25T07:06:37.000Z</Time>
            <Position>
              <LatitudeDegrees>38.1434756331145763397216796875</LatitudeDegrees>
              <LongitudeDegrees>-1.12825269810855388641357421875</LongitudeDegrees>
            </Position>
            <AltitudeMeters>163.399993896484375</AltitudeMeters>
            <DistanceMeters>NAN</DistanceMeters>
          </Trackpoint>
          <Trackpoint>
            <Time>2020-05-25T07:06:38.000Z</Time>
            <Position>
              <LatitudeDegrees>38.1434035487473011016845703125</LatitudeDegrees>
              <LongitudeDegrees>-1.12830785103142261505126953125</LongitudeDegrees>
            </Position>
            <AltitudeMeters>163.399993896484375</AltitudeMeters>
            <DistanceMeters>NAN</DistanceMeters>
          </Trackpoint>
          <Trackpoint>
            <Time>2020-05-25T07:06:39.000Z</Time>
            <Position>
              <LatitudeDegrees>38.14332668669521808624267578125</LatitudeDegrees>
              <LongitudeDegrees>-1.12835613079369068145751953125</LongitudeDegrees>
            </Position>
            <AltitudeMeters>163.399993896484375</AltitudeMeters>
            <DistanceMeters>NAN</DistanceMeters>
          </Trackpoint>
          <Trackpoint>
            <Time>2020-05-25T07:06:40.000Z</Time>
            <Position>
              <LatitudeDegrees>38.14324823208153247833251953125</LatitudeDegrees>
              <LongitudeDegrees>-1.1283998005092144012451171875</LongitudeDegrees>
            </Position>
            <AltitudeMeters>163.399993896484375</AltitudeMeters>
            <DistanceMeters>NAN</DistanceMeters>
          </Trackpoint>
          <Trackpoint>
            <Time>2020-05-25T07:06:41.000Z</Time>
            <Position>
              <LatitudeDegrees>38.14316960982978343963623046875</LatitudeDegrees>
              <LongitudeDegrees>-1.1284386925399303436279296875</LongitudeDegrees>
            </Position>
            <AltitudeMeters>163.1999969482421875</AltitudeMeters>
            <DistanceMeters>NAN</DistanceMeters>
          </Trackpoint>
          <Trackpoint>
            <Time>2020-05-25T07:06:42.000Z</Time>
            <Position>
              <LatitudeDegrees>38.14308629371225833892822265625</LatitudeDegrees>
              <LongitudeDegrees>-1.128476075828075408935546875</LongitudeDegrees>
            </Position>
            <AltitudeMeters>163.1999969482421875</AltitudeMeters>
            <DistanceMeters>NAN</DistanceMeters>
          </Trackpoint>
          <Trackpoint>
            <Time>2020-05-25T07:06:43.000Z</Time>
            <Position>
              <LatitudeDegrees>38.14300398342311382293701171875</LatitudeDegrees>
              <LongitudeDegrees>-1.12851195037364959716796875</LongitudeDegrees>
            </Position>
            <AltitudeMeters>163.1999969482421875</AltitudeMeters>
            <DistanceMeters>NAN</DistanceMeters>
          </Trackpoint>
          <Trackpoint>
            <Time>2020-05-25T07:06:44.000Z</Time>
            <Position>
              <LatitudeDegrees>38.14292251132428646087646484375</LatitudeDegrees>
              <LongitudeDegrees>-1.12854438833892345428466796875</LongitudeDegrees>
            </Position>
            <AltitudeMeters>163.1999969482421875</AltitudeMeters>
            <DistanceMeters>NAN</DistanceMeters>
          </Trackpoint>
          <Trackpoint>
            <Time>2020-05-25T07:06:45.000Z</Time>
            <Position>
              <LatitudeDegrees>38.14283902756869792938232421875</LatitudeDegrees>
              <LongitudeDegrees>-1.12857858650386333465576171875</LongitudeDegrees>
            </Position>
            <AltitudeMeters>163</AltitudeMeters>
            <DistanceMeters>NAN</DistanceMeters>
          </Trackpoint>
          <Trackpoint>
            <Time>2020-05-25T07:06:46.000Z</Time>
            <Position>
              <LatitudeDegrees>38.14275621436536312103271484375</LatitudeDegrees>
              <LongitudeDegrees>-1.12861328758299350738525390625</LongitudeDegrees>
            </Position>
            <AltitudeMeters>162.8000030517578125</AltitudeMeters>
            <DistanceMeters>NAN</DistanceMeters>
          </Trackpoint>
          <Trackpoint>
            <Time>2020-05-25T07:06:47.000Z</Time>
            <Position>
              <LatitudeDegrees>38.14267541281878948211669921875</LatitudeDegrees>
              <LongitudeDegrees>-1.12864740192890167236328125</LongitudeDegrees>
            </Position>
            <AltitudeMeters>162.600006103515625</AltitudeMeters>
            <DistanceMeters>NAN</DistanceMeters>
          </Trackpoint>
          <Trackpoint>
            <Time>2020-05-25T07:06:48.000Z</Time>
            <Position>
              <LatitudeDegrees>38.14259243197739124298095703125</LatitudeDegrees>
              <LongitudeDegrees>-1.1286841146647930145263671875</LongitudeDegrees>
            </Position>
            <AltitudeMeters>162.600006103515625</AltitudeMeters>
            <DistanceMeters>NAN</DistanceMeters>
          </Trackpoint>
          <Trackpoint>
            <Time>2020-05-25T07:06:49.000Z</Time>
            <Position>
              <LatitudeDegrees>38.1425113789737224578857421875</LatitudeDegrees>
              <LongitudeDegrees>-1.12872241996228694915771484375</LongitudeDegrees>
            </Position>
            <AltitudeMeters>162.399993896484375</AltitudeMeters>
            <DistanceMeters>NAN</DistanceMeters>
          </Trackpoint>
          <Trackpoint>
            <Time>2020-05-25T07:06:50.000Z</Time>
            <Position>
              <LatitudeDegrees>38.1424312479794025421142578125</LatitudeDegrees>
              <LongitudeDegrees>-1.12876717932522296905517578125</LongitudeDegrees>
            </Position>
            <AltitudeMeters>162.1999969482421875</AltitudeMeters>
            <DistanceMeters>NAN</DistanceMeters>
          </Trackpoint>
          <Trackpoint>
            <Time>2020-05-25T07:06:51.000Z</Time>
            <Position>
              <LatitudeDegrees>38.14235338009893894195556640625</LatitudeDegrees>
              <LongitudeDegrees>-1.12881730310618877410888671875</LongitudeDegrees>
            </Position>
            <AltitudeMeters>162</AltitudeMeters>
            <DistanceMeters>NAN</DistanceMeters>
          </Trackpoint>
          <Trackpoint>
            <Time>2020-05-25T07:06:52.000Z</Time>
            <Position>
              <LatitudeDegrees>38.1422770209610462188720703125</LatitudeDegrees>
              <LongitudeDegrees>-1.1288711987435817718505859375</LongitudeDegrees>
            </Position>
            <AltitudeMeters>162</AltitudeMeters>
            <DistanceMeters>NAN</DistanceMeters>
          </Trackpoint>
          <Trackpoint>
            <Time>2020-05-25T07:06:53.000Z</Time>
            <Position>
              <LatitudeDegrees>38.14220367930829524993896484375</LatitudeDegrees>
              <LongitudeDegrees>-1.128928363323211669921875</LongitudeDegrees>
            </Position>
            <AltitudeMeters>162</AltitudeMeters>
            <DistanceMeters>NAN</DistanceMeters>
          </Trackpoint>
          <Trackpoint>
            <Time>2020-05-25T07:06:54.000Z</Time>
            <Position>
              <LatitudeDegrees>38.14213243313133716583251953125</LatitudeDegrees>
              <LongitudeDegrees>-1.12899072468280792236328125</LongitudeDegrees>
            </Position>
            <AltitudeMeters>161.600006103515625</AltitudeMeters>
            <DistanceMeters>NAN</DistanceMeters>
          </Trackpoint>
          <Trackpoint>
            <Time>2020-05-25T07:06:55.000Z</Time>
            <Position>
              <LatitudeDegrees>38.14206370152533054351806640625</LatitudeDegrees>
              <LongitudeDegrees>-1.1290569417178630828857421875</LongitudeDegrees>
            </Position>
            <AltitudeMeters>161.600006103515625</AltitudeMeters>
            <DistanceMeters>NAN</DistanceMeters>
          </Trackpoint>
          <Trackpoint>
            <Time>2020-05-25T07:06:56.000Z</Time>
            <Position>
              <LatitudeDegrees>38.14199723303318023681640625</LatitudeDegrees>
              <LongitudeDegrees>-1.12912642769515514373779296875</LongitudeDegrees>
            </Position>
            <AltitudeMeters>161.600006103515625</AltitudeMeters>
            <DistanceMeters>NAN</DistanceMeters>
          </Trackpoint>
          <Trackpoint>
            <Time>2020-05-25T07:06:57.000Z</Time>
            <Position>
              <LatitudeDegrees>38.14193193800747394561767578125</LatitudeDegrees>
              <LongitudeDegrees>-1.1291992664337158203125</LongitudeDegrees>
            </Position>
            <AltitudeMeters>161.399993896484375</AltitudeMeters>
            <DistanceMeters>NAN</DistanceMeters>
          </Trackpoint>
          <Trackpoint>
            <Time>2020-05-25T07:06:58.000Z</Time>
            <Position>
              <LatitudeDegrees>38.14186857081949710845947265625</LatitudeDegrees>
              <LongitudeDegrees>-1.12927327863872051239013671875</LongitudeDegrees>
            </Position>
            <AltitudeMeters>161.399993896484375</AltitudeMeters>
            <DistanceMeters>NAN</DistanceMeters>
          </Trackpoint>
          <Trackpoint>
            <Time>2020-05-25T07:06:59.000Z</Time>
            <Position>
              <LatitudeDegrees>38.14180453307926654815673828125</LatitudeDegrees>
              <LongitudeDegrees>-1.12934804521501064300537109375</LongitudeDegrees>
            </Position>
            <AltitudeMeters>161.1999969482421875</AltitudeMeters>
            <DistanceMeters>NAN</DistanceMeters>
          </Trackpoint>
          <Trackpoint>
            <Time>2020-05-25T07:07:00.000Z</Time>
            <Position>
              <LatitudeDegrees>38.14174133352935314178466796875</LatitudeDegrees>
              <LongitudeDegrees>-1.1294223926961421966552734375</LongitudeDegrees>
            </Position>
            <AltitudeMeters>161.1999969482421875</AltitudeMeters>
            <DistanceMeters>NAN</DistanceMeters>
          </Trackpoint>
          <Trackpoint>
            <Time>2020-05-25T07:07:01.000Z</Time>
            <Position>
              <LatitudeDegrees>38.14168064855039119720458984375</LatitudeDegrees>
              <LongitudeDegrees>-1.129497997462749481201171875</LongitudeDegrees>
            </Position>
            <AltitudeMeters>161.1999969482421875</AltitudeMeters>
            <DistanceMeters>NAN</DistanceMeters>
          </Trackpoint>
          <Trackpoint>
            <Time>2020-05-25T07:07:02.000Z</Time>
            <Position>
              <LatitudeDegrees>38.1416222266852855682373046875</LatitudeDegrees>
              <LongitudeDegrees>-1.12957720644772052764892578125</LongitudeDegrees>
            </Position>
            <AltitudeMeters>161.1999969482421875</AltitudeMeters>
            <DistanceMeters>NAN</DistanceMeters>
          </Trackpoint>
          <Trackpoint>
            <Time>2020-05-25T07:07:03.000Z</Time>
            <Position>
              <LatitudeDegrees>38.14156698994338512420654296875</LatitudeDegrees>
              <LongitudeDegrees>-1.12966001965105533599853515625</LongitudeDegrees>
            </Position>
            <AltitudeMeters>161.1999969482421875</AltitudeMeters>
            <DistanceMeters>NAN</DistanceMeters>
          </Trackpoint>
          <Trackpoint>
            <Time>2020-05-25T07:07:04.000Z</Time>
            <Position>
              <LatitudeDegrees>38.1415146030485630035400390625</LatitudeDegrees>
              <LongitudeDegrees>-1.1297472752630710601806640625</LongitudeDegrees>
            </Position>
            <AltitudeMeters>161.1999969482421875</AltitudeMeters>
            <DistanceMeters>NAN</DistanceMeters>
          </Trackpoint>
          <Trackpoint>
            <Time>2020-05-25T07:07:05.000Z</Time>
            <Position>
              <LatitudeDegrees>38.14146506600081920623779296875</LatitudeDegrees>
              <LongitudeDegrees>-1.12983763217926025390625</LongitudeDegrees>
            </Position>
            <AltitudeMeters>161.1999969482421875</AltitudeMeters>
            <DistanceMeters>NAN</DistanceMeters>
          </Trackpoint>
          <Trackpoint>
            <Time>2020-05-25T07:07:06.000Z</Time>
            <Position>
              <LatitudeDegrees>38.14141779206693172454833984375</LatitudeDegrees>
              <LongitudeDegrees>-1.12992949783802032470703125</LongitudeDegrees>
            </Position>
            <AltitudeMeters>161</AltitudeMeters>
            <DistanceMeters>NAN</DistanceMeters>
          </Trackpoint>
          <Trackpoint>
            <Time>2020-05-25T07:07:07.000Z</Time>
            <Position>
              <LatitudeDegrees>38.1413724459707736968994140625</LatitudeDegrees>
              <LongitudeDegrees>-1.13002262078225612640380859375</LongitudeDegrees>
            </Position>
            <AltitudeMeters>161</AltitudeMeters>
            <DistanceMeters>NAN</DistanceMeters>
          </Trackpoint>
          <Trackpoint>
            <Time>2020-05-25T07:07:08.000Z</Time>
            <Position>
              <LatitudeDegrees>38.1413302011787891387939453125</LatitudeDegrees>
              <LongitudeDegrees>-1.13011649809777736663818359375</LongitudeDegrees>
            </Position>
            <AltitudeMeters>161</AltitudeMeters>
            <DistanceMeters>NAN</DistanceMeters>
          </Trackpoint>
          <Trackpoint>
            <Time>2020-05-25T07:07:09.000Z</Time>
            <Position>
              <LatitudeDegrees>38.14129089005291461944580078125</LatitudeDegrees>
              <LongitudeDegrees>-1.13021112978458404541015625</LongitudeDegrees>
            </Position>
            <AltitudeMeters>161</AltitudeMeters>
            <DistanceMeters>NAN</DistanceMeters>
          </Trackpoint>
          <Trackpoint>
            <Time>2020-05-25T07:07:10.000Z</Time>
            <Position>
              <LatitudeDegrees>38.1412517465651035308837890625</LatitudeDegrees>
              <LongitudeDegrees>-1.1303068511188030242919921875</LongitudeDegrees>
            </Position>
            <AltitudeMeters>161</AltitudeMeters>
            <DistanceMeters>NAN</DistanceMeters>
          </Trackpoint>
          <Trackpoint>
            <Time>2020-05-25T07:07:11.000Z</Time>
            <Position>
              <LatitudeDegrees>38.141216374933719635009765625</LatitudeDegrees>
              <LongitudeDegrees>-1.13039963878691196441650390625</LongitudeDegrees>
            </Position>
            <AltitudeMeters>161</AltitudeMeters>
            <DistanceMeters>NAN</DistanceMeters>
          </Trackpoint>
          <Trackpoint>
            <Time>2020-05-25T07:07:12.000Z</Time>
            <Position>
              <LatitudeDegrees>38.14117890782654285430908203125</LatitudeDegrees>
              <LongitudeDegrees>-1.13049133680760860443115234375</LongitudeDegrees>
            </Position>
            <AltitudeMeters>161</AltitudeMeters>
            <DistanceMeters>NAN</DistanceMeters>
          </Trackpoint>
          <Trackpoint>
            <Time>2020-05-25T07:07:13.000Z</Time>
            <Position>
              <LatitudeDegrees>38.14113934524357318878173828125</LatitudeDegrees>
              <LongitudeDegrees>-1.13058320246636867523193359375</LongitudeDegrees>
            </Position>
            <AltitudeMeters>161</AltitudeMeters>
            <DistanceMeters>NAN</DistanceMeters>
          </Trackpoint>
          <Trackpoint>
            <Time>2020-05-25T07:07:14.000Z</Time>
            <Position>
              <LatitudeDegrees>38.14109978266060352325439453125</LatitudeDegrees>
              <LongitudeDegrees>-1.1306759901344776153564453125</LongitudeDegrees>
            </Position>
            <AltitudeMeters>161</AltitudeMeters>
            <DistanceMeters>NAN</DistanceMeters>
          </Trackpoint>
          <Trackpoint>
            <Time>2020-05-25T07:07:15.000Z</Time>
            <Position>
              <LatitudeDegrees>38.14106256701052188873291015625</LatitudeDegrees>
              <LongitudeDegrees>-1.130766682326793670654296875</LongitudeDegrees>
            </Position>
            <AltitudeMeters>161</AltitudeMeters>
            <DistanceMeters>NAN</DistanceMeters>
          </Trackpoint>
          <Trackpoint>
            <Time>2020-05-25T07:07:16.000Z</Time>
            <Position>
              <LatitudeDegrees>38.1410240940749645233154296875</LatitudeDegrees>
              <LongitudeDegrees>-1.13085729070007801055908203125</LongitudeDegrees>
            </Position>
            <AltitudeMeters>161.1999969482421875</AltitudeMeters>
            <DistanceMeters>NAN</DistanceMeters>
          </Trackpoint>
          <Trackpoint>
            <Time>2020-05-25T07:07:17.000Z</Time>
            <Position>
              <LatitudeDegrees>38.140980340540409088134765625</LatitudeDegrees>
              <LongitudeDegrees>-1.130947731435298919677734375</LongitudeDegrees>
            </Position>
            <AltitudeMeters>161.1999969482421875</AltitudeMeters>
            <DistanceMeters>NAN</DistanceMeters>
          </Trackpoint>
          <Trackpoint>
            <Time>2020-05-25T07:07:18.000Z</Time>
            <Position>
              <LatitudeDegrees>38.1409335695207118988037109375</LatitudeDegrees>
              <LongitudeDegrees>-1.13103632815182209014892578125</LongitudeDegrees>
            </Position>
            <AltitudeMeters>161.1999969482421875</AltitudeMeters>
            <DistanceMeters>NAN</DistanceMeters>
          </Trackpoint>
          <Trackpoint>
            <Time>2020-05-25T07:07:19.000Z</Time>
            <Position>
              <LatitudeDegrees>38.140887804329395294189453125</LatitudeDegrees>
              <LongitudeDegrees>-1.13112232647836208343505859375</LongitudeDegrees>
            </Position>
            <AltitudeMeters>161.1999969482421875</AltitudeMeters>
            <DistanceMeters>NAN</DistanceMeters>
          </Trackpoint>
          <Trackpoint>
            <Time>2020-05-25T07:07:20.000Z</Time>
            <Position>
              <LatitudeDegrees>38.14083860255777835845947265625</LatitudeDegrees>
              <LongitudeDegrees>-1.13120933063328266143798828125</LongitudeDegrees>
            </Position>
            <AltitudeMeters>161.1999969482421875</AltitudeMeters>
            <DistanceMeters>NAN</DistanceMeters>
          </Trackpoint>
          <Trackpoint>
            <Time>2020-05-25T07:07:21.000Z</Time>
            <Position>
              <LatitudeDegrees>38.1407873891294002532958984375</LatitudeDegrees>
              <LongitudeDegrees>-1.13129750825464725494384765625</LongitudeDegrees>
            </Position>
            <AltitudeMeters>161.1999969482421875</AltitudeMeters>
            <DistanceMeters>NAN</DistanceMeters>
          </Trackpoint>
          <Trackpoint>
            <Time>2020-05-25T07:07:22.000Z</Time>
            <Position>
              <LatitudeDegrees>38.140733577311038970947265625</LatitudeDegrees>
              <LongitudeDegrees>-1.13138367421925067901611328125</LongitudeDegrees>
            </Position>
            <AltitudeMeters>161.1999969482421875</AltitudeMeters>
            <DistanceMeters>NAN</DistanceMeters>
          </Trackpoint>
          <Trackpoint>
            <Time>2020-05-25T07:07:23.000Z</Time>
            <Position>
              <LatitudeDegrees>38.14067624509334564208984375</LatitudeDegrees>
              <LongitudeDegrees>-1.1314675770699977874755859375</LongitudeDegrees>
            </Position>
            <AltitudeMeters>161.1999969482421875</AltitudeMeters>
            <DistanceMeters>NAN</DistanceMeters>
          </Trackpoint>
          <Trackpoint>
            <Time>2020-05-25T07:07:24.000Z</Time>
            <Position>
              <LatitudeDegrees>38.1406160630285739898681640625</LatitudeDegrees>
              <LongitudeDegrees>-1.13154812715947628021240234375</LongitudeDegrees>
            </Position>
            <AltitudeMeters>161.1999969482421875</AltitudeMeters>
            <DistanceMeters>NAN</DistanceMeters>
          </Trackpoint>
          <Trackpoint>
            <Time>2020-05-25T07:07:25.000Z</Time>
            <Position>
              <LatitudeDegrees>38.14055093564093112945556640625</LatitudeDegrees>
              <LongitudeDegrees>-1.13162423484027385711669921875</LongitudeDegrees>
            </Position>
            <AltitudeMeters>161.1999969482421875</AltitudeMeters>
            <DistanceMeters>NAN</DistanceMeters>
          </Trackpoint>
          <Trackpoint>
            <Time>2020-05-25T07:07:26.000Z</Time>
            <Position>
              <LatitudeDegrees>38.1404789350926876068115234375</LatitudeDegrees>
              <LongitudeDegrees>-1.1316965706646442413330078125</LongitudeDegrees>
            </Position>
            <AltitudeMeters>161.1999969482421875</AltitudeMeters>
            <DistanceMeters>NAN</DistanceMeters>
          </Trackpoint>
          <Trackpoint>
            <Time>2020-05-25T07:07:27.000Z</Time>
            <Position>
              <LatitudeDegrees>38.140402324497699737548828125</LatitudeDegrees>
              <LongitudeDegrees>-1.1317649669945240020751953125</LongitudeDegrees>
            </Position>
            <AltitudeMeters>161.1999969482421875</AltitudeMeters>
            <DistanceMeters>NAN</DistanceMeters>
          </Trackpoint>
          <Trackpoint>
            <Time>2020-05-25T07:07:28.000Z</Time>
            <Position>
              <LatitudeDegrees>38.140321858227252960205078125</LatitudeDegrees>
              <LongitudeDegrees>-1.1318303458392620086669921875</LongitudeDegrees>
            </Position>
            <AltitudeMeters>161</AltitudeMeters>
            <DistanceMeters>NAN</DistanceMeters>
          </Trackpoint>
          <Trackpoint>
            <Time>2020-05-25T07:07:29.000Z</Time>
            <Position>
              <LatitudeDegrees>38.14024080522358417510986328125</LatitudeDegrees>
              <LongitudeDegrees>-1.13189555704593658447265625</LongitudeDegrees>
            </Position>
            <AltitudeMeters>161</AltitudeMeters>
            <DistanceMeters>NAN</DistanceMeters>
          </Trackpoint>
          <Trackpoint>
            <Time>2020-05-25T07:07:30.000Z</Time>
            <Position>
              <LatitudeDegrees>38.1401590816676616668701171875</LatitudeDegrees>
              <LongitudeDegrees>-1.13196185790002346038818359375</LongitudeDegrees>
            </Position>
            <AltitudeMeters>161</AltitudeMeters>
            <DistanceMeters>NAN</DistanceMeters>
          </Trackpoint>
          <Trackpoint>
            <Time>2020-05-25T07:07:31.000Z</Time>
            <Position>
              <LatitudeDegrees>38.1400766037404537200927734375</LatitudeDegrees>
              <LongitudeDegrees>-1.1320288293063640594482421875</LongitudeDegrees>
            </Position>
            <AltitudeMeters>161</AltitudeMeters>
            <DistanceMeters>NAN</DistanceMeters>
          </Trackpoint>
          <Trackpoint>
            <Time>2020-05-25T07:07:32.000Z</Time>
            <Position>
              <LatitudeDegrees>38.139995969831943511962890625</LatitudeDegrees>
              <LongitudeDegrees>-1.13209663890302181243896484375</LongitudeDegrees>
            </Position>
            <AltitudeMeters>160.8000030517578125</AltitudeMeters>
            <DistanceMeters>NAN</DistanceMeters>
          </Trackpoint>
          <Trackpoint>
            <Time>2020-05-25T07:07:33.000Z</Time>
            <Position>
              <LatitudeDegrees>38.1399170123040676116943359375</LatitudeDegrees>
              <LongitudeDegrees>-1.132164783775806427001953125</LongitudeDegrees>
            </Position>
            <AltitudeMeters>160.8000030517578125</AltitudeMeters>
            <DistanceMeters>NAN</DistanceMeters>
          </Trackpoint>
          <Trackpoint>
            <Time>2020-05-25T07:07:34.000Z</Time>
            <Position>
              <LatitudeDegrees>38.13983947969973087310791015625</LatitudeDegrees>
              <LongitudeDegrees>-1.13223619759082794189453125</LongitudeDegrees>
            </Position>
            <AltitudeMeters>160.399993896484375</AltitudeMeters>
            <DistanceMeters>NAN</DistanceMeters>
          </Trackpoint>
          <Trackpoint>
            <Time>2020-05-25T07:07:35.000Z</Time>
            <Position>
              <LatitudeDegrees>38.13976119272410869598388671875</LatitudeDegrees>
              <LongitudeDegrees>-1.13231356255710124969482421875</LongitudeDegrees>
            </Position>
            <AltitudeMeters>160</AltitudeMeters>
            <DistanceMeters>NAN</DistanceMeters>
          </Trackpoint>
          <Trackpoint>
            <Time>2020-05-25T07:07:36.000Z</Time>
            <Position>
              <LatitudeDegrees>38.1396853365004062652587890625</LatitudeDegrees>
              <LongitudeDegrees>-1.13239671103656291961669921875</LongitudeDegrees>
            </Position>
            <AltitudeMeters>159.8000030517578125</AltitudeMeters>
            <DistanceMeters>NAN</DistanceMeters>
          </Trackpoint>
          <Trackpoint>
            <Time>2020-05-25T07:07:37.000Z</Time>
            <Position>
              <LatitudeDegrees>38.1396132521331310272216796875</LatitudeDegrees>
              <LongitudeDegrees>-1.132484637200832366943359375</LongitudeDegrees>
            </Position>
            <AltitudeMeters>159.600006103515625</AltitudeMeters>
            <DistanceMeters>NAN</DistanceMeters>
          </Trackpoint>
          <Trackpoint>
            <Time>2020-05-25T07:07:38.000Z</Time>
            <Position>
              <LatitudeDegrees>38.1395428441464900970458984375</LatitudeDegrees>
              <LongitudeDegrees>-1.1325776763260364532470703125</LongitudeDegrees>
            </Position>
            <AltitudeMeters>159.399993896484375</AltitudeMeters>
            <DistanceMeters>NAN</DistanceMeters>
          </Trackpoint>
          <Trackpoint>
            <Time>2020-05-25T07:07:39.000Z</Time>
            <Position>
              <LatitudeDegrees>38.13947402872145175933837890625</LatitudeDegrees>
              <LongitudeDegrees>-1.13267566077411174774169921875</LongitudeDegrees>
            </Position>
            <AltitudeMeters>159.1999969482421875</AltitudeMeters>
            <DistanceMeters>NAN</DistanceMeters>
          </Trackpoint>
          <Trackpoint>
            <Time>2020-05-25T07:07:40.000Z</Time>
            <Position>
              <LatitudeDegrees>38.13940714113414287567138671875</LatitudeDegrees>
              <LongitudeDegrees>-1.13277758471667766571044921875</LongitudeDegrees>
            </Position>
            <AltitudeMeters>158.8000030517578125</AltitudeMeters>
            <DistanceMeters>NAN</DistanceMeters>
          </Trackpoint>
          <Trackpoint>
            <Time>2020-05-25T07:07:41.000Z</Time>
            <Position>
              <LatitudeDegrees>38.13934385776519775390625</LatitudeDegrees>
              <LongitudeDegrees>-1.13288202323019504547119140625</LongitudeDegrees>
            </Position>
            <AltitudeMeters>158.600006103515625</AltitudeMeters>
            <DistanceMeters>NAN</DistanceMeters>
          </Trackpoint>
          <Trackpoint>
            <Time>2020-05-25T07:07:42.000Z</Time>
            <Position>
              <LatitudeDegrees>38.1392843462526798248291015625</LatitudeDegrees>
              <LongitudeDegrees>-1.1329905688762664794921875</LongitudeDegrees>
            </Position>
            <AltitudeMeters>158.1999969482421875</AltitudeMeters>
            <DistanceMeters>NAN</DistanceMeters>
          </Trackpoint>
          <Trackpoint>
            <Time>2020-05-25T07:07:43.000Z</Time>
            <Position>
              <LatitudeDegrees>38.1392317079007625579833984375</LatitudeDegrees>
              <LongitudeDegrees>-1.13310062326490879058837890625</LongitudeDegrees>
            </Position>
            <AltitudeMeters>157.8000030517578125</AltitudeMeters>
            <DistanceMeters>NAN</DistanceMeters>
          </Trackpoint>
          <Trackpoint>
            <Time>2020-05-25T07:07:44.000Z</Time>
            <Position>
              <LatitudeDegrees>38.1391820870339870452880859375</LatitudeDegrees>
              <LongitudeDegrees>-1.133212856948375701904296875</LongitudeDegrees>
            </Position>
            <AltitudeMeters>157.600006103515625</AltitudeMeters>
            <DistanceMeters>NAN</DistanceMeters>
          </Trackpoint>
          <Trackpoint>
            <Time>2020-05-25T07:07:45.000Z</Time>
            <Position>
              <LatitudeDegrees>38.13913372345268726348876953125</LatitudeDegrees>
              <LongitudeDegrees>-1.13332525826990604400634765625</LongitudeDegrees>
            </Position>
            <AltitudeMeters>157.399993896484375</AltitudeMeters>
            <DistanceMeters>NAN</DistanceMeters>
          </Trackpoint>
          <Trackpoint>
            <Time>2020-05-25T07:07:46.000Z</Time>
            <Position>
              <LatitudeDegrees>38.13908678479492664337158203125</LatitudeDegrees>
              <LongitudeDegrees>-1.13343724049627780914306640625</LongitudeDegrees>
            </Position>
            <AltitudeMeters>157.1999969482421875</AltitudeMeters>
            <DistanceMeters>NAN</DistanceMeters>
          </Trackpoint>
          <Trackpoint>
            <Time>2020-05-25T07:07:47.000Z</Time>
            <Position>
              <LatitudeDegrees>38.13903984613716602325439453125</LatitudeDegrees>
              <LongitudeDegrees>-1.13355022855103015899658203125</LongitudeDegrees>
            </Position>
            <AltitudeMeters>156.8000030517578125</AltitudeMeters>
            <DistanceMeters>NAN</DistanceMeters>
          </Trackpoint>
          <Trackpoint>
            <Time>2020-05-25T07:07:48.000Z</Time>
            <Position>
              <LatitudeDegrees>38.13899324275553226470947265625</LatitudeDegrees>
              <LongitudeDegrees>-1.1336624622344970703125</LongitudeDegrees>
            </Position>
            <AltitudeMeters>156.399993896484375</AltitudeMeters>
            <DistanceMeters>NAN</DistanceMeters>
          </Trackpoint>
          <Trackpoint>
            <Time>2020-05-25T07:07:49.000Z</Time>
            <Position>
              <LatitudeDegrees>38.13894689083099365234375</LatitudeDegrees>
              <LongitudeDegrees>-1.133772768080234527587890625</LongitudeDegrees>
            </Position>
            <AltitudeMeters>156</AltitudeMeters>
            <DistanceMeters>NAN</DistanceMeters>
          </Trackpoint>
          <Trackpoint>
            <Time>2020-05-25T07:07:50.000Z</Time>
            <Position>
              <LatitudeDegrees>38.1389021314680576324462890625</LatitudeDegrees>
              <LongitudeDegrees>-1.13387980498373508453369140625</LongitudeDegrees>
            </Position>
            <AltitudeMeters>155.8000030517578125</AltitudeMeters>
            <DistanceMeters>NAN</DistanceMeters>
          </Trackpoint>
          <Trackpoint>
            <Time>2020-05-25T07:07:51.000Z</Time>
            <Position>
              <LatitudeDegrees>38.13885611481964588165283203125</LatitudeDegrees>
              <LongitudeDegrees>-1.1339871771633625030517578125</LongitudeDegrees>
            </Position>
            <AltitudeMeters>155.8000030517578125</AltitudeMeters>
            <DistanceMeters>NAN</DistanceMeters>
          </Trackpoint>
          <Trackpoint>
            <Time>2020-05-25T07:07:52.000Z</Time>
            <Position>
              <LatitudeDegrees>38.13881152309477329254150390625</LatitudeDegrees>
              <LongitudeDegrees>-1.13409387879073619842529296875</LongitudeDegrees>
            </Position>
            <AltitudeMeters>155.600006103515625</AltitudeMeters>
            <DistanceMeters>NAN</DistanceMeters>
          </Trackpoint>
          <Trackpoint>
            <Time>2020-05-25T07:07:53.000Z</Time>
            <Position>
              <LatitudeDegrees>38.138766847550868988037109375</LatitudeDegrees>
              <LongitudeDegrees>-1.13420091569423675537109375</LongitudeDegrees>
            </Position>
            <AltitudeMeters>155.600006103515625</AltitudeMeters>
            <DistanceMeters>NAN</DistanceMeters>
          </Trackpoint>
          <Trackpoint>
            <Time>2020-05-25T07:07:54.000Z</Time>
            <Position>
              <LatitudeDegrees>38.138721249997615814208984375</LatitudeDegrees>
              <LongitudeDegrees>-1.13430711440742015838623046875</LongitudeDegrees>
            </Position>
            <AltitudeMeters>155.600006103515625</AltitudeMeters>
            <DistanceMeters>NAN</DistanceMeters>
          </Trackpoint>
          <Trackpoint>
            <Time>2020-05-25T07:07:55.000Z</Time>
            <Position>
              <LatitudeDegrees>38.13867640681564807891845703125</LatitudeDegrees>
              <LongitudeDegrees>-1.13441146910190582275390625</LongitudeDegrees>
            </Position>
            <AltitudeMeters>155.600006103515625</AltitudeMeters>
            <DistanceMeters>NAN</DistanceMeters>
          </Trackpoint>
          <Trackpoint>
            <Time>2020-05-25T07:07:56.000Z</Time>
            <Position>
              <LatitudeDegrees>38.13863147981464862823486328125</LatitudeDegrees>
              <LongitudeDegrees>-1.13451532088220119476318359375</LongitudeDegrees>
            </Position>
            <AltitudeMeters>155.399993896484375</AltitudeMeters>
            <DistanceMeters>NAN</DistanceMeters>
          </Trackpoint>
          <Trackpoint>
            <Time>2020-05-25T07:07:57.000Z</Time>
            <Position>
              <LatitudeDegrees>38.13858638517558574676513671875</LatitudeDegrees>
              <LongitudeDegrees>-1.13461825065314769744873046875</LongitudeDegrees>
            </Position>
            <AltitudeMeters>155.399993896484375</AltitudeMeters>
            <DistanceMeters>NAN</DistanceMeters>
          </Trackpoint>
          <Trackpoint>
            <Time>2020-05-25T07:07:58.000Z</Time>
            <Position>
              <LatitudeDegrees>38.1385407038033008575439453125</LatitudeDegrees>
              <LongitudeDegrees>-1.13471799530088901519775390625</LongitudeDegrees>
            </Position>
            <AltitudeMeters>155.399993896484375</AltitudeMeters>
            <DistanceMeters>NAN</DistanceMeters>
          </Trackpoint>
          <Trackpoint>
            <Time>2020-05-25T07:07:59.000Z</Time>
            <Position>
              <LatitudeDegrees>38.138493262231349945068359375</LatitudeDegrees>
              <LongitudeDegrees>-1.1348153091967105865478515625</LongitudeDegrees>
            </Position>
            <AltitudeMeters>155.399993896484375</AltitudeMeters>
            <DistanceMeters>NAN</DistanceMeters>
          </Trackpoint>
          <Trackpoint>
            <Time>2020-05-25T07:08:00.000Z</Time>
            <Position>
              <LatitudeDegrees>38.13844288699328899383544921875</LatitudeDegrees>
              <LongitudeDegrees>-1.13490960560739040374755859375</LongitudeDegrees>
            </Position>
            <AltitudeMeters>155.399993896484375</AltitudeMeters>
            <DistanceMeters>NAN</DistanceMeters>
          </Trackpoint>
          <Trackpoint>
            <Time>2020-05-25T07:08:01.000Z</Time>
            <Position>
              <LatitudeDegrees>38.13838555477559566497802734375</LatitudeDegrees>
              <LongitudeDegrees>-1.13500021398067474365234375</LongitudeDegrees>
            </Position>
            <AltitudeMeters>155.399993896484375</AltitudeMeters>
            <DistanceMeters>NAN</DistanceMeters>
          </Trackpoint>
          <Trackpoint>
            <Time>2020-05-25T07:08:02.000Z</Time>
            <Position>
              <LatitudeDegrees>38.1383241154253482818603515625</LatitudeDegrees>
              <LongitudeDegrees>-1.13508311100304126739501953125</LongitudeDegrees>
            </Position>
            <AltitudeMeters>155.1999969482421875</AltitudeMeters>
            <DistanceMeters>NAN</DistanceMeters>
          </Trackpoint>
          <Trackpoint>
            <Time>2020-05-25T07:08:03.000Z</Time>
            <Position>
              <LatitudeDegrees>38.138255886733531951904296875</LatitudeDegrees>
              <LongitudeDegrees>-1.13516005687415599822998046875</LongitudeDegrees>
            </Position>
            <AltitudeMeters>155.1999969482421875</AltitudeMeters>
            <DistanceMeters>NAN</DistanceMeters>
          </Trackpoint>
          <Trackpoint>
            <Time>2020-05-25T07:08:04.000Z</Time>
            <Position>
              <LatitudeDegrees>38.1381853111088275909423828125</LatitudeDegrees>
              <LongitudeDegrees>-1.13523398526012897491455078125</LongitudeDegrees>
            </Position>
            <AltitudeMeters>155.1999969482421875</AltitudeMeters>
            <DistanceMeters>NAN</DistanceMeters>
          </Trackpoint>
          <Trackpoint>
            <Time>2020-05-25T07:08:05.000Z</Time>
            <Position>
              <LatitudeDegrees>38.1381113827228546142578125</LatitudeDegrees>
              <LongitudeDegrees>-1.13530196249485015869140625</LongitudeDegrees>
            </Position>
            <AltitudeMeters>155.1999969482421875</AltitudeMeters>
            <DistanceMeters>NAN</DistanceMeters>
          </Trackpoint>
          <Trackpoint>
            <Time>2020-05-25T07:08:06.000Z</Time>
            <Position>
              <LatitudeDegrees>38.138035275042057037353515625</LatitudeDegrees>
              <LongitudeDegrees>-1.13536633551120758056640625</LongitudeDegrees>
            </Position>
            <AltitudeMeters>155.1999969482421875</AltitudeMeters>
            <DistanceMeters>NAN</DistanceMeters>
          </Trackpoint>
          <Trackpoint>
            <Time>2020-05-25T07:08:07.000Z</Time>
            <Position>
              <LatitudeDegrees>38.137956820428371429443359375</LatitudeDegrees>
              <LongitudeDegrees>-1.13542442210018634796142578125</LongitudeDegrees>
            </Position>
            <AltitudeMeters>155.1999969482421875</AltitudeMeters>
            <DistanceMeters>NAN</DistanceMeters>
          </Trackpoint>
          <Trackpoint>
            <Time>2020-05-25T07:08:08.000Z</Time>
            <Position>
              <LatitudeDegrees>38.13787593506276607513427734375</LatitudeDegrees>
              <LongitudeDegrees>-1.13547630608081817626953125</LongitudeDegrees>
            </Position>
            <AltitudeMeters>155.1999969482421875</AltitudeMeters>
            <DistanceMeters>NAN</DistanceMeters>
          </Trackpoint>
          <Trackpoint>
            <Time>2020-05-25T07:08:09.000Z</Time>
            <Position>
              <LatitudeDegrees>38.13779194839298725128173828125</LatitudeDegrees>
              <LongitudeDegrees>-1.13552165217697620391845703125</LongitudeDegrees>
            </Position>
            <AltitudeMeters>155.1999969482421875</AltitudeMeters>
            <DistanceMeters>NAN</DistanceMeters>
          </Trackpoint>
          <Trackpoint>
            <Time>2020-05-25T07:08:10.000Z</Time>
            <Position>
              <LatitudeDegrees>38.13770712353289127349853515625</LatitudeDegrees>
              <LongitudeDegrees>-1.13555987365543842315673828125</LongitudeDegrees>
            </Position>
            <AltitudeMeters>155.1999969482421875</AltitudeMeters>
            <DistanceMeters>NAN</DistanceMeters>
          </Trackpoint>
          <Trackpoint>
            <Time>2020-05-25T07:08:11.000Z</Time>
            <Position>
              <LatitudeDegrees>38.1376210413873195648193359375</LatitudeDegrees>
              <LongitudeDegrees>-1.13558954559266567230224609375</LongitudeDegrees>
            </Position>
            <AltitudeMeters>155.1999969482421875</AltitudeMeters>
            <DistanceMeters>NAN</DistanceMeters>
          </Trackpoint>
          <Trackpoint>
            <Time>2020-05-25T07:08:12.000Z</Time>
            <Position>
              <LatitudeDegrees>38.13753403723239898681640625</LatitudeDegrees>
              <LongitudeDegrees>-1.13561066798865795135498046875</LongitudeDegrees>
            </Position>
            <AltitudeMeters>155.1999969482421875</AltitudeMeters>
            <DistanceMeters>NAN</DistanceMeters>
          </Trackpoint>
          <Trackpoint>
            <Time>2020-05-25T07:08:13.000Z</Time>
            <Position>
              <LatitudeDegrees>38.13744678162038326263427734375</LatitudeDegrees>
              <LongitudeDegrees>-1.13562391139566898345947265625</LongitudeDegrees>
            </Position>
            <AltitudeMeters>155</AltitudeMeters>
            <DistanceMeters>NAN</DistanceMeters>
          </Trackpoint>
          <Trackpoint>
            <Time>2020-05-25T07:08:14.000Z</Time>
            <Position>
              <LatitudeDegrees>38.13735810108482837677001953125</LatitudeDegrees>
              <LongitudeDegrees>-1.13563195802271366119384765625</LongitudeDegrees>
            </Position>
            <AltitudeMeters>155</AltitudeMeters>
            <DistanceMeters>NAN</DistanceMeters>
          </Trackpoint>
          <Trackpoint>
            <Time>2020-05-25T07:08:15.000Z</Time>
            <Position>
              <LatitudeDegrees>38.137269504368305206298828125</LatitudeDegrees>
              <LongitudeDegrees>-1.13563480786979198455810546875</LongitudeDegrees>
            </Position>
            <AltitudeMeters>155</AltitudeMeters>
            <DistanceMeters>NAN</DistanceMeters>
          </Trackpoint>
          <Trackpoint>
            <Time>2020-05-25T07:08:16.000Z</Time>
            <Position>
              <LatitudeDegrees>38.13717923127114772796630859375</LatitudeDegrees>
              <LongitudeDegrees>-1.1356290243566036224365234375</LongitudeDegrees>
            </Position>
            <AltitudeMeters>154.8000030517578125</AltitudeMeters>
            <DistanceMeters>NAN</DistanceMeters>
          </Trackpoint>
          <Trackpoint>
            <Time>2020-05-25T07:08:17.000Z</Time>
            <Position>
              <LatitudeDegrees>38.1370889581739902496337890625</LatitudeDegrees>
              <LongitudeDegrees>-1.1356152780354022979736328125</LongitudeDegrees>
            </Position>
            <AltitudeMeters>154.8000030517578125</AltitudeMeters>
            <DistanceMeters>NAN</DistanceMeters>
          </Trackpoint>
          <Trackpoint>
            <Time>2020-05-25T07:08:18.000Z</Time>
            <Position>
              <LatitudeDegrees>38.1369974277913570404052734375</LatitudeDegrees>
              <LongitudeDegrees>-1.13559356890618801116943359375</LongitudeDegrees>
            </Position>
            <AltitudeMeters>154.399993896484375</AltitudeMeters>
            <DistanceMeters>NAN</DistanceMeters>
          </Trackpoint>
          <Trackpoint>
            <Time>2020-05-25T07:08:19.000Z</Time>
            <Position>
              <LatitudeDegrees>38.13690648414194583892822265625</LatitudeDegrees>
              <LongitudeDegrees>-1.1355612985789775848388671875</LongitudeDegrees>
            </Position>
            <AltitudeMeters>154.399993896484375</AltitudeMeters>
            <DistanceMeters>NAN</DistanceMeters>
          </Trackpoint>
          <Trackpoint>
            <Time>2020-05-25T07:08:20.000Z</Time>
            <Position>
              <LatitudeDegrees>38.13681780360639095306396484375</LatitudeDegrees>
              <LongitudeDegrees>-1.13552047871053218841552734375</LongitudeDegrees>
            </Position>
            <AltitudeMeters>154.399993896484375</AltitudeMeters>
            <DistanceMeters>NAN</DistanceMeters>
          </Trackpoint>
          <Trackpoint>
            <Time>2020-05-25T07:08:21.000Z</Time>
            <Position>
              <LatitudeDegrees>38.13673147000372409820556640625</LatitudeDegrees>
              <LongitudeDegrees>-1.1354701034724712371826171875</LongitudeDegrees>
            </Position>
            <AltitudeMeters>154.399993896484375</AltitudeMeters>
            <DistanceMeters>NAN</DistanceMeters>
          </Trackpoint>
          <Trackpoint>
            <Time>2020-05-25T07:08:22.000Z</Time>
            <Position>
              <LatitudeDegrees>38.13664714805781841278076171875</LatitudeDegrees>
              <LongitudeDegrees>-1.1354074068367481231689453125</LongitudeDegrees>
            </Position>
            <AltitudeMeters>154.399993896484375</AltitudeMeters>
            <DistanceMeters>NAN</DistanceMeters>
          </Trackpoint>
          <Trackpoint>
            <Time>2020-05-25T07:08:23.000Z</Time>
            <Position>
              <LatitudeDegrees>38.13656534068286418914794921875</LatitudeDegrees>
              <LongitudeDegrees>-1.1353440396487712860107421875</LongitudeDegrees>
            </Position>
            <AltitudeMeters>154.1999969482421875</AltitudeMeters>
            <DistanceMeters>NAN</DistanceMeters>
          </Trackpoint>
          <Trackpoint>
            <Time>2020-05-25T07:08:24.000Z</Time>
            <Position>
              <LatitudeDegrees>38.13648487441241741180419921875</LatitudeDegrees>
              <LongitudeDegrees>-1.13528008572757244110107421875</LongitudeDegrees>
            </Position>
            <AltitudeMeters>154</AltitudeMeters>
            <DistanceMeters>NAN</DistanceMeters>
          </Trackpoint>
          <Trackpoint>
            <Time>2020-05-25T07:08:25.000Z</Time>
            <Position>
              <LatitudeDegrees>38.13640826381742954254150390625</LatitudeDegrees>
              <LongitudeDegrees>-1.13521303050220012664794921875</LongitudeDegrees>
            </Position>
            <AltitudeMeters>154</AltitudeMeters>
            <DistanceMeters>NAN</DistanceMeters>
          </Trackpoint>
          <Trackpoint>
            <Time>2020-05-25T07:08:26.000Z</Time>
            <Position>
              <LatitudeDegrees>38.136330731213092803955078125</LatitudeDegrees>
              <LongitudeDegrees>-1.13514547236263751983642578125</LongitudeDegrees>
            </Position>
            <AltitudeMeters>154</AltitudeMeters>
            <DistanceMeters>NAN</DistanceMeters>
          </Trackpoint>
          <Trackpoint>
            <Time>2020-05-25T07:08:27.000Z</Time>
            <Position>
              <LatitudeDegrees>38.1362507678568363189697265625</LatitudeDegrees>
              <LongitudeDegrees>-1.13507238216698169708251953125</LongitudeDegrees>
            </Position>
            <AltitudeMeters>153.8000030517578125</AltitudeMeters>
            <DistanceMeters>NAN</DistanceMeters>
          </Trackpoint>
          <Trackpoint>
            <Time>2020-05-25T07:08:28.000Z</Time>
            <Position>
              <LatitudeDegrees>38.13617072068154811859130859375</LatitudeDegrees>
              <LongitudeDegrees>-1.1349968612194061279296875</LongitudeDegrees>
            </Position>
            <AltitudeMeters>153.8000030517578125</AltitudeMeters>
            <DistanceMeters>NAN</DistanceMeters>
          </Trackpoint>
          <Trackpoint>
            <Time>2020-05-25T07:08:29.000Z</Time>
            <Position>
              <LatitudeDegrees>38.1360911764204502105712890625</LatitudeDegrees>
              <LongitudeDegrees>-1.13492486067116260528564453125</LongitudeDegrees>
            </Position>
            <AltitudeMeters>153.8000030517578125</AltitudeMeters>
            <DistanceMeters>NAN</DistanceMeters>
          </Trackpoint>
          <Trackpoint>
            <Time>2020-05-25T07:08:30.000Z</Time>
            <Position>
              <LatitudeDegrees>38.13600978814065456390380859375</LatitudeDegrees>
              <LongitudeDegrees>-1.13485403358936309814453125</LongitudeDegrees>
            </Position>
            <AltitudeMeters>153.600006103515625</AltitudeMeters>
            <DistanceMeters>NAN</DistanceMeters>
          </Trackpoint>
          <Trackpoint>
            <Time>2020-05-25T07:08:31.000Z</Time>
            <Position>
              <LatitudeDegrees>38.13592563383281230926513671875</LatitudeDegrees>
              <LongitudeDegrees>-1.1347864754498004913330078125</LongitudeDegrees>
            </Position>
            <AltitudeMeters>153.399993896484375</AltitudeMeters>
            <DistanceMeters>NAN</DistanceMeters>
          </Trackpoint>
          <Trackpoint>
            <Time>2020-05-25T07:08:32.000Z</Time>
            <Position>
              <LatitudeDegrees>38.1358395516872406005859375</LatitudeDegrees>
              <LongitudeDegrees>-1.13472704775631427764892578125</LongitudeDegrees>
            </Position>
            <AltitudeMeters>153.1999969482421875</AltitudeMeters>
            <DistanceMeters>NAN</DistanceMeters>
          </Trackpoint>
          <Trackpoint>
            <Time>2020-05-25T07:08:33.000Z</Time>
            <Position>
              <LatitudeDegrees>38.135752379894256591796875</LatitudeDegrees>
              <LongitudeDegrees>-1.13467357121407985687255859375</LongitudeDegrees>
            </Position>
            <AltitudeMeters>153</AltitudeMeters>
            <DistanceMeters>NAN</DistanceMeters>
          </Trackpoint>
          <Trackpoint>
            <Time>2020-05-25T07:08:34.000Z</Time>
            <Position>
              <LatitudeDegrees>38.135662190616130828857421875</LatitudeDegrees>
              <LongitudeDegrees>-1.13462780602276325225830078125</LongitudeDegrees>
            </Position>
            <AltitudeMeters>152.8000030517578125</AltitudeMeters>
            <DistanceMeters>NAN</DistanceMeters>
          </Trackpoint>
          <Trackpoint>
            <Time>2020-05-25T07:08:35.000Z</Time>
            <Position>
              <LatitudeDegrees>38.13556529581546783447265625</LatitudeDegrees>
              <LongitudeDegrees>-1.13459595479071140289306640625</LongitudeDegrees>
            </Position>
            <AltitudeMeters>152.600006103515625</AltitudeMeters>
            <DistanceMeters>NAN</DistanceMeters>
          </Trackpoint>
          <Trackpoint>
            <Time>2020-05-25T07:08:36.000Z</Time>
            <Position>
              <LatitudeDegrees>38.13546605408191680908203125</LatitudeDegrees>
              <LongitudeDegrees>-1.13458103500306606292724609375</LongitudeDegrees>
            </Position>
            <AltitudeMeters>152.399993896484375</AltitudeMeters>
            <DistanceMeters>NAN</DistanceMeters>
          </Trackpoint>
          <Trackpoint>
            <Time>2020-05-25T07:08:37.000Z</Time>
            <Position>
              <LatitudeDegrees>38.13536488451063632965087890625</LatitudeDegrees>
              <LongitudeDegrees>-1.13458120264112949371337890625</LongitudeDegrees>
            </Position>
            <AltitudeMeters>152.1999969482421875</AltitudeMeters>
            <DistanceMeters>NAN</DistanceMeters>
          </Trackpoint>
          <Trackpoint>
            <Time>2020-05-25T07:08:38.000Z</Time>
            <Position>
              <LatitudeDegrees>38.13525818288326263427734375</LatitudeDegrees>
              <LongitudeDegrees>-1.13459746353328227996826171875</LongitudeDegrees>
            </Position>
            <AltitudeMeters>152</AltitudeMeters>
            <DistanceMeters>NAN</DistanceMeters>
          </Trackpoint>
          <Trackpoint>
            <Time>2020-05-25T07:08:39.000Z</Time>
            <Position>
              <LatitudeDegrees>38.13514712266623973846435546875</LatitudeDegrees>
              <LongitudeDegrees>-1.134627051651477813720703125</LongitudeDegrees>
            </Position>
            <AltitudeMeters>151.8000030517578125</AltitudeMeters>
            <DistanceMeters>NAN</DistanceMeters>
          </Trackpoint>
          <Trackpoint>
            <Time>2020-05-25T07:08:40.000Z</Time>
            <Position>
              <LatitudeDegrees>38.13503731973469257354736328125</LatitudeDegrees>
              <LongitudeDegrees>-1.13466552458703517913818359375</LongitudeDegrees>
            </Position>
            <AltitudeMeters>151.600006103515625</AltitudeMeters>
            <DistanceMeters>NAN</DistanceMeters>
          </Trackpoint>
          <Trackpoint>
            <Time>2020-05-25T07:08:41.000Z</Time>
            <Position>
              <LatitudeDegrees>38.1349240802228450775146484375</LatitudeDegrees>
              <LongitudeDegrees>-1.134711541235446929931640625</LongitudeDegrees>
            </Position>
            <AltitudeMeters>151.600006103515625</AltitudeMeters>
            <DistanceMeters>NAN</DistanceMeters>
          </Trackpoint>
          <Trackpoint>
            <Time>2020-05-25T07:08:42.000Z</Time>
            <Position>
              <LatitudeDegrees>38.13480757176876068115234375</LatitudeDegrees>
              <LongitudeDegrees>-1.134762503206729888916015625</LongitudeDegrees>
            </Position>
            <AltitudeMeters>151.399993896484375</AltitudeMeters>
            <DistanceMeters>NAN</DistanceMeters>
          </Trackpoint>
          <Trackpoint>
            <Time>2020-05-25T07:08:43.000Z</Time>
            <Position>
              <LatitudeDegrees>38.13468410633504390716552734375</LatitudeDegrees>
              <LongitudeDegrees>-1.13481472246348857879638671875</LongitudeDegrees>
            </Position>
            <AltitudeMeters>151</AltitudeMeters>
            <DistanceMeters>NAN</DistanceMeters>
          </Trackpoint>
          <Trackpoint>
            <Time>2020-05-25T07:08:44.000Z</Time>
            <Position>
              <LatitudeDegrees>38.13456374220550060272216796875</LatitudeDegrees>
              <LongitudeDegrees>-1.1348726414144039154052734375</LongitudeDegrees>
            </Position>
            <AltitudeMeters>150.600006103515625</AltitudeMeters>
            <DistanceMeters>NAN</DistanceMeters>
          </Trackpoint>
          <Trackpoint>
            <Time>2020-05-25T07:08:45.000Z</Time>
            <Position>
              <LatitudeDegrees>38.1344409473240375518798828125</LatitudeDegrees>
              <LongitudeDegrees>-1.13492536358535289764404296875</LongitudeDegrees>
            </Position>
            <AltitudeMeters>150.399993896484375</AltitudeMeters>
            <DistanceMeters>NAN</DistanceMeters>
          </Trackpoint>
          <Trackpoint>
            <Time>2020-05-25T07:08:46.000Z</Time>
            <Position>
              <LatitudeDegrees>38.13431580550968647003173828125</LatitudeDegrees>
              <LongitudeDegrees>-1.13498034887015819549560546875</LongitudeDegrees>
            </Position>
            <AltitudeMeters>149</AltitudeMeters>
            <DistanceMeters>NAN</DistanceMeters>
          </Trackpoint>
          <Trackpoint>
            <Time>2020-05-25T07:08:47.000Z</Time>
            <Position>
              <LatitudeDegrees>38.13418840058147907257080078125</LatitudeDegrees>
              <LongitudeDegrees>-1.13502678461372852325439453125</LongitudeDegrees>
            </Position>
            <AltitudeMeters>148.1999969482421875</AltitudeMeters>
            <DistanceMeters>NAN</DistanceMeters>
          </Trackpoint>
          <Trackpoint>
            <Time>2020-05-25T07:08:48.000Z</Time>
            <Position>
              <LatitudeDegrees>38.1340651027858257293701171875</LatitudeDegrees>
              <LongitudeDegrees>-1.1350677721202373504638671875</LongitudeDegrees>
            </Position>
            <AltitudeMeters>147.600006103515625</AltitudeMeters>
            <DistanceMeters>NAN</DistanceMeters>
          </Trackpoint>
          <Trackpoint>
            <Time>2020-05-25T07:08:49.000Z</Time>
            <Position>
              <LatitudeDegrees>38.133936189115047454833984375</LatitudeDegrees>
              <LongitudeDegrees>-1.13509601913392543792724609375</LongitudeDegrees>
            </Position>
            <AltitudeMeters>146.8000030517578125</AltitudeMeters>
            <DistanceMeters>NAN</DistanceMeters>
          </Trackpoint>
          <Trackpoint>
            <Time>2020-05-25T07:08:50.000Z</Time>
            <Position>
              <LatitudeDegrees>38.13380668871104717254638671875</LatitudeDegrees>
              <LongitudeDegrees>-1.13511512987315654754638671875</LongitudeDegrees>
            </Position>
            <AltitudeMeters>145.399993896484375</AltitudeMeters>
            <DistanceMeters>NAN</DistanceMeters>
          </Trackpoint>
          <Trackpoint>
            <Time>2020-05-25T07:08:51.000Z</Time>
            <Position>
              <LatitudeDegrees>38.13367475755512714385986328125</LatitudeDegrees>
              <LongitudeDegrees>-1.13512451760470867156982421875</LongitudeDegrees>
            </Position>
            <AltitudeMeters>144.8000030517578125</AltitudeMeters>
            <DistanceMeters>NAN</DistanceMeters>
          </Trackpoint>
          <Trackpoint>
            <Time>2020-05-25T07:08:52.000Z</Time>
            <Position>
              <LatitudeDegrees>38.13354735262691974639892578125</LatitudeDegrees>
              <LongitudeDegrees>-1.13513357006013393402099609375</LongitudeDegrees>
            </Position>
            <AltitudeMeters>144.399993896484375</AltitudeMeters>
            <DistanceMeters>NAN</DistanceMeters>
          </Trackpoint>
          <Trackpoint>
            <Time>2020-05-25T07:08:53.000Z</Time>
            <Position>
              <LatitudeDegrees>38.13342128880321979522705078125</LatitudeDegrees>
              <LongitudeDegrees>-1.135139353573322296142578125</LongitudeDegrees>
            </Position>
            <AltitudeMeters>143.1999969482421875</AltitudeMeters>
            <DistanceMeters>NAN</DistanceMeters>
          </Trackpoint>
          <Trackpoint>
            <Time>2020-05-25T07:08:54.000Z</Time>
            <Position>
              <LatitudeDegrees>38.1332968175411224365234375</LatitudeDegrees>
              <LongitudeDegrees>-1.135147400200366973876953125</LongitudeDegrees>
            </Position>
            <AltitudeMeters>142.399993896484375</AltitudeMeters>
            <DistanceMeters>NAN</DistanceMeters>
          </Trackpoint>
          <Trackpoint>
            <Time>2020-05-25T07:08:55.000Z</Time>
            <Position>
              <LatitudeDegrees>38.1331746093928813934326171875</LatitudeDegrees>
              <LongitudeDegrees>-1.13515821285545825958251953125</LongitudeDegrees>
            </Position>
            <AltitudeMeters>141.8000030517578125</AltitudeMeters>
            <DistanceMeters>NAN</DistanceMeters>
          </Trackpoint>
          <Trackpoint>
            <Time>2020-05-25T07:08:56.000Z</Time>
            <Position>
              <LatitudeDegrees>38.1330539099872112274169921875</LatitudeDegrees>
              <LongitudeDegrees>-1.13517581485211849212646484375</LongitudeDegrees>
            </Position>
            <AltitudeMeters>141.600006103515625</AltitudeMeters>
            <DistanceMeters>NAN</DistanceMeters>
          </Trackpoint>
          <Trackpoint>
            <Time>2020-05-25T07:08:57.000Z</Time>
            <Position>
              <LatitudeDegrees>38.1329385749995708465576171875</LatitudeDegrees>
              <LongitudeDegrees>-1.13520146347582340240478515625</LongitudeDegrees>
            </Position>
            <AltitudeMeters>140.600006103515625</AltitudeMeters>
            <DistanceMeters>NAN</DistanceMeters>
          </Trackpoint>
          <Trackpoint>
            <Time>2020-05-25T07:08:58.000Z</Time>
            <Position>
              <LatitudeDegrees>38.1328296102583408355712890625</LatitudeDegrees>
              <LongitudeDegrees>-1.13524052314460277557373046875</LongitudeDegrees>
            </Position>
            <AltitudeMeters>139.8000030517578125</AltitudeMeters>
            <DistanceMeters>NAN</DistanceMeters>
          </Trackpoint>
          <Trackpoint>
            <Time>2020-05-25T07:08:59.000Z</Time>
            <Position>
              <LatitudeDegrees>38.132725842297077178955078125</LatitudeDegrees>
              <LongitudeDegrees>-1.13529198803007602691650390625</LongitudeDegrees>
            </Position>
            <AltitudeMeters>139.1999969482421875</AltitudeMeters>
            <DistanceMeters>NAN</DistanceMeters>
          </Trackpoint>
          <Trackpoint>
            <Time>2020-05-25T07:09:00.000Z</Time>
            <Position>
              <LatitudeDegrees>38.1326294504106044769287109375</LatitudeDegrees>
              <LongitudeDegrees>-1.13536155782639980316162109375</LongitudeDegrees>
            </Position>
            <AltitudeMeters>139</AltitudeMeters>
            <DistanceMeters>NAN</DistanceMeters>
          </Trackpoint>
          <Trackpoint>
            <Time>2020-05-25T07:09:01.000Z</Time>
            <Position>
              <LatitudeDegrees>38.1325395964086055755615234375</LatitudeDegrees>
              <LongitudeDegrees>-1.1354436166584491729736328125</LongitudeDegrees>
            </Position>
            <AltitudeMeters>138.399993896484375</AltitudeMeters>
            <DistanceMeters>NAN</DistanceMeters>
          </Trackpoint>
          <Trackpoint>
            <Time>2020-05-25T07:09:02.000Z</Time>
            <Position>
              <LatitudeDegrees>38.13245502300560474395751953125</LatitudeDegrees>
              <LongitudeDegrees>-1.13552969880402088165283203125</LongitudeDegrees>
            </Position>
            <AltitudeMeters>138</AltitudeMeters>
            <DistanceMeters>NAN</DistanceMeters>
          </Trackpoint>
          <Trackpoint>
            <Time>2020-05-25T07:09:03.000Z</Time>
            <Position>
              <LatitudeDegrees>38.132377825677394866943359375</LatitudeDegrees>
              <LongitudeDegrees>-1.13561980426311492919921875</LongitudeDegrees>
            </Position>
            <AltitudeMeters>137.600006103515625</AltitudeMeters>
            <DistanceMeters>NAN</DistanceMeters>
          </Trackpoint>
          <Trackpoint>
            <Time>2020-05-25T07:09:04.000Z</Time>
            <Position>
              <LatitudeDegrees>38.1323085911571979522705078125</LatitudeDegrees>
              <LongitudeDegrees>-1.13571544177830219268798828125</LongitudeDegrees>
            </Position>
            <AltitudeMeters>137.399993896484375</AltitudeMeters>
            <DistanceMeters>NAN</DistanceMeters>
          </Trackpoint>
          <Trackpoint>
            <Time>2020-05-25T07:09:05.000Z</Time>
            <Position>
              <LatitudeDegrees>38.13224480487406253814697265625</LatitudeDegrees>
              <LongitudeDegrees>-1.1358176171779632568359375</LongitudeDegrees>
            </Position>
            <AltitudeMeters>137.399993896484375</AltitudeMeters>
            <DistanceMeters>NAN</DistanceMeters>
          </Trackpoint>
          <Trackpoint>
            <Time>2020-05-25T07:09:06.000Z</Time>
            <Position>
              <LatitudeDegrees>38.13218948431313037872314453125</LatitudeDegrees>
              <LongitudeDegrees>-1.13592616282403469085693359375</LongitudeDegrees>
            </Position>
            <AltitudeMeters>137.399993896484375</AltitudeMeters>
            <DistanceMeters>NAN</DistanceMeters>
          </Trackpoint>
          <Trackpoint>
            <Time>2020-05-25T07:09:07.000Z</Time>
            <Position>
              <LatitudeDegrees>38.13214279711246490478515625</LatitudeDegrees>
              <LongitudeDegrees>-1.13603697158396244049072265625</LongitudeDegrees>
            </Position>
            <AltitudeMeters>137.399993896484375</AltitudeMeters>
            <DistanceMeters>NAN</DistanceMeters>
          </Trackpoint>
          <Trackpoint>
            <Time>2020-05-25T07:09:08.000Z</Time>
            <Position>
              <LatitudeDegrees>38.13210717402398586273193359375</LatitudeDegrees>
              <LongitudeDegrees>-1.1361456848680973052978515625</LongitudeDegrees>
            </Position>
            <AltitudeMeters>137.399993896484375</AltitudeMeters>
            <DistanceMeters>NAN</DistanceMeters>
          </Trackpoint>
          <Trackpoint>
            <Time>2020-05-25T07:09:09.000Z</Time>
            <Position>
              <LatitudeDegrees>38.132076077163219451904296875</LatitudeDegrees>
              <LongitudeDegrees>-1.1362533085048198699951171875</LongitudeDegrees>
            </Position>
            <AltitudeMeters>137.399993896484375</AltitudeMeters>
            <DistanceMeters>NAN</DistanceMeters>
          </Trackpoint>
          <Trackpoint>
            <Time>2020-05-25T07:09:10.000Z</Time>
            <Position>
              <LatitudeDegrees>38.1320453993976116180419921875</LatitudeDegrees>
              <LongitudeDegrees>-1.13635984249413013458251953125</LongitudeDegrees>
            </Position>
            <AltitudeMeters>137.399993896484375</AltitudeMeters>
            <DistanceMeters>NAN</DistanceMeters>
          </Trackpoint>
          <Trackpoint>
            <Time>2020-05-25T07:09:11.000Z</Time>
            <Position>
              <LatitudeDegrees>38.13201497308909893035888671875</LatitudeDegrees>
              <LongitudeDegrees>-1.1364655382931232452392578125</LongitudeDegrees>
            </Position>
            <AltitudeMeters>137.399993896484375</AltitudeMeters>
            <DistanceMeters>NAN</DistanceMeters>
          </Trackpoint>
          <Trackpoint>
            <Time>2020-05-25T07:09:12.000Z</Time>
            <Position>
              <LatitudeDegrees>38.1319850496947765350341796875</LatitudeDegrees>
              <LongitudeDegrees>-1.13657039590179920196533203125</LongitudeDegrees>
            </Position>
            <AltitudeMeters>137.399993896484375</AltitudeMeters>
            <DistanceMeters>NAN</DistanceMeters>
          </Trackpoint>
          <Trackpoint>
            <Time>2020-05-25T07:09:13.000Z</Time>
            <Position>
              <LatitudeDegrees>38.13195311464369297027587890625</LatitudeDegrees>
              <LongitudeDegrees>-1.1366760917007923126220703125</LongitudeDegrees>
            </Position>
            <AltitudeMeters>137.399993896484375</AltitudeMeters>
            <DistanceMeters>NAN</DistanceMeters>
          </Trackpoint>
          <Trackpoint>
            <Time>2020-05-25T07:09:14.000Z</Time>
            <Position>
              <LatitudeDegrees>38.1319226883351802825927734375</LatitudeDegrees>
              <LongitudeDegrees>-1.136778853833675384521484375</LongitudeDegrees>
            </Position>
            <AltitudeMeters>137.600006103515625</AltitudeMeters>
            <DistanceMeters>NAN</DistanceMeters>
          </Trackpoint>
          <Trackpoint>
            <Time>2020-05-25T07:09:15.000Z</Time>
            <Position>
              <LatitudeDegrees>38.1318918429315090179443359375</LatitudeDegrees>
              <LongitudeDegrees>-1.13688270561397075653076171875</LongitudeDegrees>
            </Position>
            <AltitudeMeters>137.8000030517578125</AltitudeMeters>
            <DistanceMeters>NAN</DistanceMeters>
          </Trackpoint>
          <Trackpoint>
            <Time>2020-05-25T07:09:16.000Z</Time>
            <Position>
              <LatitudeDegrees>38.1318604946136474609375</LatitudeDegrees>
              <LongitudeDegrees>-1.13698647357523441314697265625</LongitudeDegrees>
            </Position>
            <AltitudeMeters>137.8000030517578125</AltitudeMeters>
            <DistanceMeters>NAN</DistanceMeters>
          </Trackpoint>
          <Trackpoint>
            <Time>2020-05-25T07:09:17.000Z</Time>
            <Position>
              <LatitudeDegrees>38.13182939775288105010986328125</LatitudeDegrees>
              <LongitudeDegrees>-1.1370894871652126312255859375</LongitudeDegrees>
            </Position>
            <AltitudeMeters>137.8000030517578125</AltitudeMeters>
            <DistanceMeters>NAN</DistanceMeters>
          </Trackpoint>
          <Trackpoint>
            <Time>2020-05-25T07:09:18.000Z</Time>
            <Position>
              <LatitudeDegrees>38.13179871998727321624755859375</LatitudeDegrees>
              <LongitudeDegrees>-1.13719157874584197998046875</LongitudeDegrees>
            </Position>
            <AltitudeMeters>137.8000030517578125</AltitudeMeters>
            <DistanceMeters>NAN</DistanceMeters>
          </Trackpoint>
          <Trackpoint>
            <Time>2020-05-25T07:09:19.000Z</Time>
            <Position>
              <LatitudeDegrees>38.131766952574253082275390625</LatitudeDegrees>
              <LongitudeDegrees>-1.1372946761548519134521484375</LongitudeDegrees>
            </Position>
            <AltitudeMeters>138</AltitudeMeters>
            <DistanceMeters>NAN</DistanceMeters>
          </Trackpoint>
          <Trackpoint>
            <Time>2020-05-25T07:09:20.000Z</Time>
            <Position>
              <LatitudeDegrees>38.131734430789947509765625</LatitudeDegrees>
              <LongitudeDegrees>-1.13739534281194210052490234375</LongitudeDegrees>
            </Position>
            <AltitudeMeters>138</AltitudeMeters>
            <DistanceMeters>NAN</DistanceMeters>
          </Trackpoint>
          <Trackpoint>
            <Time>2020-05-25T07:09:21.000Z</Time>
            <Position>
              <LatitudeDegrees>38.13170148991048336029052734375</LatitudeDegrees>
              <LongitudeDegrees>-1.13749642856419086456298828125</LongitudeDegrees>
            </Position>
            <AltitudeMeters>138</AltitudeMeters>
            <DistanceMeters>NAN</DistanceMeters>
          </Trackpoint>
          <Trackpoint>
            <Time>2020-05-25T07:09:22.000Z</Time>
            <Position>
              <LatitudeDegrees>38.13166670501232147216796875</LatitudeDegrees>
              <LongitudeDegrees>-1.13759852014482021331787109375</LongitudeDegrees>
            </Position>
            <AltitudeMeters>138</AltitudeMeters>
            <DistanceMeters>NAN</DistanceMeters>
          </Trackpoint>
          <Trackpoint>
            <Time>2020-05-25T07:09:23.000Z</Time>
            <Position>
              <LatitudeDegrees>38.13162957318127155303955078125</LatitudeDegrees>
              <LongitudeDegrees>-1.13770144991576671600341796875</LongitudeDegrees>
            </Position>
            <AltitudeMeters>138</AltitudeMeters>
            <DistanceMeters>NAN</DistanceMeters>
          </Trackpoint>
          <Trackpoint>
            <Time>2020-05-25T07:09:24.000Z</Time>
            <Position>
              <LatitudeDegrees>38.1315904296934604644775390625</LatitudeDegrees>
              <LongitudeDegrees>-1.1378039605915546417236328125</LongitudeDegrees>
            </Position>
            <AltitudeMeters>138</AltitudeMeters>
            <DistanceMeters>NAN</DistanceMeters>
          </Trackpoint>
          <Trackpoint>
            <Time>2020-05-25T07:09:25.000Z</Time>
            <Position>
              <LatitudeDegrees>38.1315495260059833526611328125</LatitudeDegrees>
              <LongitudeDegrees>-1.13790747709572315216064453125</LongitudeDegrees>
            </Position>
            <AltitudeMeters>137.8000030517578125</AltitudeMeters>
            <DistanceMeters>NAN</DistanceMeters>
          </Trackpoint>
          <Trackpoint>
            <Time>2020-05-25T07:09:26.000Z</Time>
            <Position>
              <LatitudeDegrees>38.13150719739496707916259765625</LatitudeDegrees>
              <LongitudeDegrees>-1.138011328876018524169921875</LongitudeDegrees>
            </Position>
            <AltitudeMeters>137.600006103515625</AltitudeMeters>
            <DistanceMeters>NAN</DistanceMeters>
          </Trackpoint>
          <Trackpoint>
            <Time>2020-05-25T07:09:27.000Z</Time>
            <Position>
              <LatitudeDegrees>38.131461180746555328369140625</LatitudeDegrees>
              <LongitudeDegrees>-1.13811451010406017303466796875</LongitudeDegrees>
            </Position>
            <AltitudeMeters>137.600006103515625</AltitudeMeters>
            <DistanceMeters>NAN</DistanceMeters>
          </Trackpoint>
          <Trackpoint>
            <Time>2020-05-25T07:09:28.000Z</Time>
            <Position>
              <LatitudeDegrees>38.1314147450029850006103515625</LatitudeDegrees>
              <LongitudeDegrees>-1.1382160149514675140380859375</LongitudeDegrees>
            </Position>
            <AltitudeMeters>137.399993896484375</AltitudeMeters>
            <DistanceMeters>NAN</DistanceMeters>
          </Trackpoint>
          <Trackpoint>
            <Time>2020-05-25T07:09:29.000Z</Time>
            <Position>
              <LatitudeDegrees>38.1313681416213512420654296875</LatitudeDegrees>
              <LongitudeDegrees>-1.1383142508566379547119140625</LongitudeDegrees>
            </Position>
            <AltitudeMeters>137.399993896484375</AltitudeMeters>
            <DistanceMeters>NAN</DistanceMeters>
          </Trackpoint>
          <Trackpoint>
            <Time>2020-05-25T07:09:30.000Z</Time>
            <Position>
              <LatitudeDegrees>38.13131944276392459869384765625</LatitudeDegrees>
              <LongitudeDegrees>-1.138412319123744964599609375</LongitudeDegrees>
            </Position>
            <AltitudeMeters>137.1999969482421875</AltitudeMeters>
            <DistanceMeters>NAN</DistanceMeters>
          </Trackpoint>
          <Trackpoint>
            <Time>2020-05-25T07:09:31.000Z</Time>
            <Position>
              <LatitudeDegrees>38.1312682293355464935302734375</LatitudeDegrees>
              <LongitudeDegrees>-1.1385083757340908050537109375</LongitudeDegrees>
            </Position>
            <AltitudeMeters>137.1999969482421875</AltitudeMeters>
            <DistanceMeters>NAN</DistanceMeters>
          </Trackpoint>
          <Trackpoint>
            <Time>2020-05-25T07:09:32.000Z</Time>
            <Position>
              <LatitudeDegrees>38.13121282495558261871337890625</LatitudeDegrees>
              <LongitudeDegrees>-1.13860183395445346832275390625</LongitudeDegrees>
            </Position>
            <AltitudeMeters>137.1999969482421875</AltitudeMeters>
            <DistanceMeters>NAN</DistanceMeters>
          </Trackpoint>
          <Trackpoint>
            <Time>2020-05-25T07:09:33.000Z</Time>
            <Position>
              <LatitudeDegrees>38.13115431927144527435302734375</LatitudeDegrees>
              <LongitudeDegrees>-1.13869084976613521575927734375</LongitudeDegrees>
            </Position>
            <AltitudeMeters>137</AltitudeMeters>
            <DistanceMeters>NAN</DistanceMeters>
          </Trackpoint>
          <Trackpoint>
            <Time>2020-05-25T07:09:34.000Z</Time>
            <Position>
              <LatitudeDegrees>38.13109145499765872955322265625</LatitudeDegrees>
              <LongitudeDegrees>-1.138777434825897216796875</LongitudeDegrees>
            </Position>
            <AltitudeMeters>136.8000030517578125</AltitudeMeters>
            <DistanceMeters>NAN</DistanceMeters>
          </Trackpoint>
          <Trackpoint>
            <Time>2020-05-25T07:09:35.000Z</Time>
            <Position>
              <LatitudeDegrees>38.1310288421809673309326171875</LatitudeDegrees>
              <LongitudeDegrees>-1.1388590745627880096435546875</LongitudeDegrees>
            </Position>
            <AltitudeMeters>136.600006103515625</AltitudeMeters>
            <DistanceMeters>NAN</DistanceMeters>
          </Trackpoint>
          <Trackpoint>
            <Time>2020-05-25T07:09:36.000Z</Time>
            <Position>
              <LatitudeDegrees>38.13096555881202220916748046875</LatitudeDegrees>
              <LongitudeDegrees>-1.13893660716712474822998046875</LongitudeDegrees>
            </Position>
            <AltitudeMeters>136.1999969482421875</AltitudeMeters>
            <DistanceMeters>NAN</DistanceMeters>
          </Trackpoint>
          <Trackpoint>
            <Time>2020-05-25T07:09:37.000Z</Time>
            <Position>
              <LatitudeDegrees>38.13090085051953792572021484375</LatitudeDegrees>
              <LongitudeDegrees>-1.13901036791503429412841796875</LongitudeDegrees>
            </Position>
            <AltitudeMeters>136.1999969482421875</AltitudeMeters>
            <DistanceMeters>NAN</DistanceMeters>
          </Trackpoint>
          <Trackpoint>
            <Time>2020-05-25T07:09:38.000Z</Time>
            <Position>
              <LatitudeDegrees>38.1308345496654510498046875</LatitudeDegrees>
              <LongitudeDegrees>-1.1390806920826435089111328125</LongitudeDegrees>
            </Position>
            <AltitudeMeters>136</AltitudeMeters>
            <DistanceMeters>NAN</DistanceMeters>
          </Trackpoint>
          <Trackpoint>
            <Time>2020-05-25T07:09:39.000Z</Time>
            <Position>
              <LatitudeDegrees>38.13076757825911045074462890625</LatitudeDegrees>
              <LongitudeDegrees>-1.13914632238447666168212890625</LongitudeDegrees>
            </Position>
            <AltitudeMeters>136</AltitudeMeters>
            <DistanceMeters>NAN</DistanceMeters>
          </Trackpoint>
          <Trackpoint>
            <Time>2020-05-25T07:09:40.000Z</Time>
            <Position>
              <LatitudeDegrees>38.13069599680602550506591796875</LatitudeDegrees>
              <LongitudeDegrees>-1.13920616917312145233154296875</LongitudeDegrees>
            </Position>
            <AltitudeMeters>136</AltitudeMeters>
            <DistanceMeters>NAN</DistanceMeters>
          </Trackpoint>
          <Trackpoint>
            <Time>2020-05-25T07:09:41.000Z</Time>
            <Position>
              <LatitudeDegrees>38.130621649324893951416015625</LatitudeDegrees>
              <LongitudeDegrees>-1.13926182501018047332763671875</LongitudeDegrees>
            </Position>
            <AltitudeMeters>136</AltitudeMeters>
            <DistanceMeters>NAN</DistanceMeters>
          </Trackpoint>
          <Trackpoint>
            <Time>2020-05-25T07:09:42.000Z</Time>
            <Position>
              <LatitudeDegrees>38.13055048696696758270263671875</LatitudeDegrees>
              <LongitudeDegrees>-1.1393120326101779937744140625</LongitudeDegrees>
            </Position>
            <AltitudeMeters>136</AltitudeMeters>
            <DistanceMeters>NAN</DistanceMeters>
          </Trackpoint>
          <Trackpoint>
            <Time>2020-05-25T07:09:43.000Z</Time>
            <Position>
              <LatitudeDegrees>38.13047907315194606781005859375</LatitudeDegrees>
              <LongitudeDegrees>-1.1393613182008266448974609375</LongitudeDegrees>
            </Position>
            <AltitudeMeters>136</AltitudeMeters>
            <DistanceMeters>NAN</DistanceMeters>
          </Trackpoint>
          <Trackpoint>
            <Time>2020-05-25T07:09:44.000Z</Time>
            <Position>
              <LatitudeDegrees>38.13040682114660739898681640625</LatitudeDegrees>
              <LongitudeDegrees>-1.13940733484923839569091796875</LongitudeDegrees>
            </Position>
            <AltitudeMeters>136</AltitudeMeters>
            <DistanceMeters>NAN</DistanceMeters>
          </Trackpoint>
          <Trackpoint>
            <Time>2020-05-25T07:09:45.000Z</Time>
            <Position>
              <LatitudeDegrees>38.13033557496964931488037109375</LatitudeDegrees>
              <LongitudeDegrees>-1.13944941200315952301025390625</LongitudeDegrees>
            </Position>
            <AltitudeMeters>136.1999969482421875</AltitudeMeters>
            <DistanceMeters>NAN</DistanceMeters>
          </Trackpoint>
          <Trackpoint>
            <Time>2020-05-25T07:09:46.000Z</Time>
            <Position>
              <LatitudeDegrees>38.1302644126117229461669921875</LatitudeDegrees>
              <LongitudeDegrees>-1.13949014805257320404052734375</LongitudeDegrees>
            </Position>
            <AltitudeMeters>136.399993896484375</AltitudeMeters>
            <DistanceMeters>NAN</DistanceMeters>
          </Trackpoint>
          <Trackpoint>
            <Time>2020-05-25T07:09:47.000Z</Time>
            <Position>
              <LatitudeDegrees>38.13019777648150920867919921875</LatitudeDegrees>
              <LongitudeDegrees>-1.13953172229230403900146484375</LongitudeDegrees>
            </Position>
            <AltitudeMeters>136.600006103515625</AltitudeMeters>
            <DistanceMeters>NAN</DistanceMeters>
          </Trackpoint>
          <Trackpoint>
            <Time>2020-05-25T07:09:48.000Z</Time>
            <Position>
              <LatitudeDegrees>38.13013407401740550994873046875</LatitudeDegrees>
              <LongitudeDegrees>-1.13957514055073261260986328125</LongitudeDegrees>
            </Position>
            <AltitudeMeters>136.600006103515625</AltitudeMeters>
            <DistanceMeters>NAN</DistanceMeters>
          </Trackpoint>
          <Trackpoint>
            <Time>2020-05-25T07:09:49.000Z</Time>
            <Position>
              <LatitudeDegrees>38.13007120974361896514892578125</LatitudeDegrees>
              <LongitudeDegrees>-1.1396191455423831939697265625</LongitudeDegrees>
            </Position>
            <AltitudeMeters>137</AltitudeMeters>
            <DistanceMeters>NAN</DistanceMeters>
          </Trackpoint>
          <Trackpoint>
            <Time>2020-05-25T07:09:50.000Z</Time>
            <Position>
              <LatitudeDegrees>38.1300089322030544281005859375</LatitudeDegrees>
              <LongitudeDegrees>-1.13966457545757293701171875</LongitudeDegrees>
            </Position>
            <AltitudeMeters>137</AltitudeMeters>
            <DistanceMeters>NAN</DistanceMeters>
          </Trackpoint>
          <Trackpoint>
            <Time>2020-05-25T07:09:51.000Z</Time>
            <Position>
              <LatitudeDegrees>38.12994933687150478363037109375</LatitudeDegrees>
              <LongitudeDegrees>-1.13970958627760410308837890625</LongitudeDegrees>
            </Position>
            <AltitudeMeters>137.399993896484375</AltitudeMeters>
            <DistanceMeters>NAN</DistanceMeters>
          </Trackpoint>
          <Trackpoint>
            <Time>2020-05-25T07:09:52.000Z</Time>
            <Position>
              <LatitudeDegrees>38.12989175319671630859375</LatitudeDegrees>
              <LongitudeDegrees>-1.1397559382021427154541015625</LongitudeDegrees>
            </Position>
            <AltitudeMeters>137.8000030517578125</AltitudeMeters>
            <DistanceMeters>NAN</DistanceMeters>
          </Trackpoint>
          <Trackpoint>
            <Time>2020-05-25T07:09:53.000Z</Time>
            <Position>
              <LatitudeDegrees>38.129837103188037872314453125</LatitudeDegrees>
              <LongitudeDegrees>-1.13980396650731563568115234375</LongitudeDegrees>
            </Position>
            <AltitudeMeters>138</AltitudeMeters>
            <DistanceMeters>NAN</DistanceMeters>
          </Trackpoint>
          <Trackpoint>
            <Time>2020-05-25T07:09:54.000Z</Time>
            <Position>
              <LatitudeDegrees>38.1297839619219303131103515625</LatitudeDegrees>
              <LongitudeDegrees>-1.13985476084053516387939453125</LongitudeDegrees>
            </Position>
            <AltitudeMeters>138.600006103515625</AltitudeMeters>
            <DistanceMeters>NAN</DistanceMeters>
          </Trackpoint>
          <Trackpoint>
            <Time>2020-05-25T07:09:55.000Z</Time>
            <Position>
              <LatitudeDegrees>38.12973090447485446929931640625</LatitudeDegrees>
              <LongitudeDegrees>-1.13990806974470615386962890625</LongitudeDegrees>
            </Position>
            <AltitudeMeters>138.8000030517578125</AltitudeMeters>
            <DistanceMeters>NAN</DistanceMeters>
          </Trackpoint>
          <Trackpoint>
            <Time>2020-05-25T07:09:56.000Z</Time>
            <Position>
              <LatitudeDegrees>38.1296790204942226409912109375</LatitudeDegrees>
              <LongitudeDegrees>-1.139965988695621490478515625</LongitudeDegrees>
            </Position>
            <AltitudeMeters>139.399993896484375</AltitudeMeters>
            <DistanceMeters>NAN</DistanceMeters>
          </Trackpoint>
          <Trackpoint>
            <Time>2020-05-25T07:09:57.000Z</Time>
            <Position>
              <LatitudeDegrees>38.1296275556087493896484375</LatitudeDegrees>
              <LongitudeDegrees>-1.14002927206456661224365234375</LongitudeDegrees>
            </Position>
            <AltitudeMeters>139.8000030517578125</AltitudeMeters>
            <DistanceMeters>NAN</DistanceMeters>
          </Trackpoint>
          <Trackpoint>
            <Time>2020-05-25T07:09:58.000Z</Time>
            <Position>
              <LatitudeDegrees>38.1295797787606716156005859375</LatitudeDegrees>
              <LongitudeDegrees>-1.14009364508092403411865234375</LongitudeDegrees>
            </Position>
            <AltitudeMeters>140</AltitudeMeters>
            <DistanceMeters>NAN</DistanceMeters>
          </Trackpoint>
          <Trackpoint>
            <Time>2020-05-25T07:09:59.000Z</Time>
            <Position>
              <LatitudeDegrees>38.1295335106551647186279296875</LatitudeDegrees>
              <LongitudeDegrees>-1.14015919156372547149658203125</LongitudeDegrees>
            </Position>
            <AltitudeMeters>140.399993896484375</AltitudeMeters>
            <DistanceMeters>NAN</DistanceMeters>
          </Trackpoint>
          <Trackpoint>
            <Time>2020-05-25T07:10:00.000Z</Time>
            <Position>
              <LatitudeDegrees>38.1294880807399749755859375</LatitudeDegrees>
              <LongitudeDegrees>-1.1402249895036220550537109375</LongitudeDegrees>
            </Position>
            <AltitudeMeters>140.8000030517578125</AltitudeMeters>
            <DistanceMeters>NAN</DistanceMeters>
          </Trackpoint>
          <Trackpoint>
            <Time>2020-05-25T07:10:01.000Z</Time>
            <Position>
              <LatitudeDegrees>38.12944306991994380950927734375</LatitudeDegrees>
              <LongitudeDegrees>-1.14029112271964550018310546875</LongitudeDegrees>
            </Position>
            <AltitudeMeters>141.1999969482421875</AltitudeMeters>
            <DistanceMeters>NAN</DistanceMeters>
          </Trackpoint>
          <Trackpoint>
            <Time>2020-05-25T07:10:02.000Z</Time>
            <Position>
              <LatitudeDegrees>38.1293977238237857818603515625</LatitudeDegrees>
              <LongitudeDegrees>-1.14035801030695438385009765625</LongitudeDegrees>
            </Position>
            <AltitudeMeters>141.399993896484375</AltitudeMeters>
            <DistanceMeters>NAN</DistanceMeters>
          </Trackpoint>
          <Trackpoint>
            <Time>2020-05-25T07:10:03.000Z</Time>
            <Position>
              <LatitudeDegrees>38.12935237772762775421142578125</LatitudeDegrees>
              <LongitudeDegrees>-1.140424311161041259765625</LongitudeDegrees>
            </Position>
            <AltitudeMeters>141.8000030517578125</AltitudeMeters>
            <DistanceMeters>NAN</DistanceMeters>
          </Trackpoint>
          <Trackpoint>
            <Time>2020-05-25T07:10:04.000Z</Time>
            <Position>
              <LatitudeDegrees>38.12930963002145290374755859375</LatitudeDegrees>
              <LongitudeDegrees>-1.14048910327255725860595703125</LongitudeDegrees>
            </Position>
            <AltitudeMeters>142</AltitudeMeters>
            <DistanceMeters>NAN</DistanceMeters>
          </Trackpoint>
          <Trackpoint>
            <Time>2020-05-25T07:10:05.000Z</Time>
            <Position>
              <LatitudeDegrees>38.1292706541717052459716796875</LatitudeDegrees>
              <LongitudeDegrees>-1.140552721917629241943359375</LongitudeDegrees>
            </Position>
            <AltitudeMeters>142.1999969482421875</AltitudeMeters>
            <DistanceMeters>NAN</DistanceMeters>
          </Trackpoint>
          <Trackpoint>
            <Time>2020-05-25T07:10:06.000Z</Time>
            <Position>
              <LatitudeDegrees>38.12923100776970386505126953125</LatitudeDegrees>
              <LongitudeDegrees>-1.14061851985752582550048828125</LongitudeDegrees>
            </Position>
            <AltitudeMeters>142.399993896484375</AltitudeMeters>
            <DistanceMeters>NAN</DistanceMeters>
          </Trackpoint>
          <Trackpoint>
            <Time>2020-05-25T07:10:07.000Z</Time>
            <Position>
              <LatitudeDegrees>38.1291930377483367919921875</LatitudeDegrees>
              <LongitudeDegrees>-1.1406866647303104400634765625</LongitudeDegrees>
            </Position>
            <AltitudeMeters>142.600006103515625</AltitudeMeters>
            <DistanceMeters>NAN</DistanceMeters>
          </Trackpoint>
          <Trackpoint>
            <Time>2020-05-25T07:10:08.000Z</Time>
            <Position>
              <LatitudeDegrees>38.1291566602885723114013671875</LatitudeDegrees>
              <LongitudeDegrees>-1.14075682125985622406005859375</LongitudeDegrees>
            </Position>
            <AltitudeMeters>142.8000030517578125</AltitudeMeters>
            <DistanceMeters>NAN</DistanceMeters>
          </Trackpoint>
          <Trackpoint>
            <Time>2020-05-25T07:10:09.000Z</Time>
            <Position>
              <LatitudeDegrees>38.1291233003139495849609375</LatitudeDegrees>
              <LongitudeDegrees>-1.14082940854132175445556640625</LongitudeDegrees>
            </Position>
            <AltitudeMeters>143.1999969482421875</AltitudeMeters>
            <DistanceMeters>NAN</DistanceMeters>
          </Trackpoint>
          <Trackpoint>
            <Time>2020-05-25T07:10:10.000Z</Time>
            <Position>
              <LatitudeDegrees>38.1290929578244686126708984375</LatitudeDegrees>
              <LongitudeDegrees>-1.140904761850833892822265625</LongitudeDegrees>
            </Position>
            <AltitudeMeters>143.399993896484375</AltitudeMeters>
            <DistanceMeters>NAN</DistanceMeters>
          </Trackpoint>
          <Trackpoint>
            <Time>2020-05-25T07:10:11.000Z</Time>
            <Position>
              <LatitudeDegrees>38.12906588427722454071044921875</LatitudeDegrees>
              <LongitudeDegrees>-1.14097927697002887725830078125</LongitudeDegrees>
            </Position>
            <AltitudeMeters>143.8000030517578125</AltitudeMeters>
            <DistanceMeters>NAN</DistanceMeters>
          </Trackpoint>
          <Trackpoint>
            <Time>2020-05-25T07:10:12.000Z</Time>
            <Position>
              <LatitudeDegrees>38.12904207967221736907958984375</LatitudeDegrees>
              <LongitudeDegrees>-1.14105203188955783843994140625</LongitudeDegrees>
            </Position>
            <AltitudeMeters>144</AltitudeMeters>
            <DistanceMeters>NAN</DistanceMeters>
          </Trackpoint>
          <Trackpoint>
            <Time>2020-05-25T07:10:13.000Z</Time>
            <Position>
              <LatitudeDegrees>38.1290195323526859283447265625</LatitudeDegrees>
              <LongitudeDegrees>-1.14112730138003826141357421875</LongitudeDegrees>
            </Position>
            <AltitudeMeters>144.399993896484375</AltitudeMeters>
            <DistanceMeters>NAN</DistanceMeters>
          </Trackpoint>
          <Trackpoint>
            <Time>2020-05-25T07:10:14.000Z</Time>
            <Position>
              <LatitudeDegrees>38.129000253975391387939453125</LatitudeDegrees>
              <LongitudeDegrees>-1.14120190031826496124267578125</LongitudeDegrees>
            </Position>
            <AltitudeMeters>144.399993896484375</AltitudeMeters>
            <DistanceMeters>NAN</DistanceMeters>
          </Trackpoint>
          <Trackpoint>
            <Time>2020-05-25T07:10:15.000Z</Time>
            <Position>
              <LatitudeDegrees>38.1289796344935894012451171875</LatitudeDegrees>
              <LongitudeDegrees>-1.14127968437969684600830078125</LongitudeDegrees>
            </Position>
            <AltitudeMeters>144.600006103515625</AltitudeMeters>
            <DistanceMeters>NAN</DistanceMeters>
          </Trackpoint>
          <Trackpoint>
            <Time>2020-05-25T07:10:16.000Z</Time>
            <Position>
              <LatitudeDegrees>38.1289588473737239837646484375</LatitudeDegrees>
              <LongitudeDegrees>-1.1413558758795261383056640625</LongitudeDegrees>
            </Position>
            <AltitudeMeters>144.8000030517578125</AltitudeMeters>
            <DistanceMeters>NAN</DistanceMeters>
          </Trackpoint>
          <Trackpoint>
            <Time>2020-05-25T07:10:17.000Z</Time>
            <Position>
              <LatitudeDegrees>38.1289377249777317047119140625</LatitudeDegrees>
              <LongitudeDegrees>-1.14143122918903827667236328125</LongitudeDegrees>
            </Position>
            <AltitudeMeters>145</AltitudeMeters>
            <DistanceMeters>NAN</DistanceMeters>
          </Trackpoint>
          <Trackpoint>
            <Time>2020-05-25T07:10:18.000Z</Time>
            <Position>
              <LatitudeDegrees>38.1289377249777317047119140625</LatitudeDegrees>
              <LongitudeDegrees>-1.14143122918903827667236328125</LongitudeDegrees>
            </Position>
            <AltitudeMeters>145</AltitudeMeters>
            <DistanceMeters>NAN</DistanceMeters>
          </Trackpoint>
          <Trackpoint>
            <Time>2020-05-25T07:07:26.000Z</Time>
            <Position>
              <LatitudeDegrees>38.1401661224663257598876953125</LatitudeDegrees>
              <LongitudeDegrees>-1.1318171024322509765625</LongitudeDegrees>
            </Position>
            <AltitudeMeters>148.1999969482421875</AltitudeMeters>
            <DistanceMeters>NAN</DistanceMeters>
          </Trackpoint>
          <Trackpoint>
            <Time>2020-05-25T07:07:27.000Z</Time>
            <Position>
              <LatitudeDegrees>38.1400908529758453369140625</LatitudeDegrees>
              <LongitudeDegrees>-1.13188340328633785247802734375</LongitudeDegrees>
            </Position>
            <AltitudeMeters>148</AltitudeMeters>
            <DistanceMeters>NAN</DistanceMeters>
          </Trackpoint>
          <Trackpoint>
            <Time>2020-05-25T07:07:28.000Z</Time>
            <Position>
              <LatitudeDegrees>38.1400132365524768829345703125</LatitudeDegrees>
              <LongitudeDegrees>-1.1319486983120441436767578125</LongitudeDegrees>
            </Position>
            <AltitudeMeters>147.600006103515625</AltitudeMeters>
            <DistanceMeters>NAN</DistanceMeters>
          </Trackpoint>
          <Trackpoint>
            <Time>2020-05-25T07:07:29.000Z</Time>
            <Position>
              <LatitudeDegrees>38.13993486575782299041748046875</LatitudeDegrees>
              <LongitudeDegrees>-1.1320134066045284271240234375</LongitudeDegrees>
            </Position>
            <AltitudeMeters>147.399993896484375</AltitudeMeters>
            <DistanceMeters>NAN</DistanceMeters>
          </Trackpoint>
          <Trackpoint>
            <Time>2020-05-25T07:07:30.000Z</Time>
            <Position>
              <LatitudeDegrees>38.13985557295382022857666015625</LatitudeDegrees>
              <LongitudeDegrees>-1.13207953982055187225341796875</LongitudeDegrees>
            </Position>
            <AltitudeMeters>147</AltitudeMeters>
            <DistanceMeters>NAN</DistanceMeters>
          </Trackpoint>
          <Trackpoint>
            <Time>2020-05-25T07:07:31.000Z</Time>
            <Position>
              <LatitudeDegrees>38.13977611251175403594970703125</LatitudeDegrees>
              <LongitudeDegrees>-1.13214810378849506378173828125</LongitudeDegrees>
            </Position>
            <AltitudeMeters>146.8000030517578125</AltitudeMeters>
            <DistanceMeters>NAN</DistanceMeters>
          </Trackpoint>
          <Trackpoint>
            <Time>2020-05-25T07:07:33.000Z</Time>
            <Position>
              <LatitudeDegrees>38.139620460569858551025390625</LatitudeDegrees>
              <LongitudeDegrees>-1.13229227252304553985595703125</LongitudeDegrees>
            </Position>
            <AltitudeMeters>146.1999969482421875</AltitudeMeters>
            <DistanceMeters>NAN</DistanceMeters>
          </Trackpoint>
          <Trackpoint>
            <Time>2020-05-25T07:07:34.000Z</Time>
            <Position>
              <LatitudeDegrees>38.1395451910793781280517578125</LatitudeDegrees>
              <LongitudeDegrees>-1.13237223587930202484130859375</LongitudeDegrees>
            </Position>
            <AltitudeMeters>146</AltitudeMeters>
            <DistanceMeters>NAN</DistanceMeters>
          </Trackpoint>
          <Trackpoint>
            <Time>2020-05-25T07:07:35.000Z</Time>
            <Position>
              <LatitudeDegrees>38.1394727714359760284423828125</LatitudeDegrees>
              <LongitudeDegrees>-1.1324583180248737335205078125</LongitudeDegrees>
            </Position>
            <AltitudeMeters>145.8000030517578125</AltitudeMeters>
            <DistanceMeters>NAN</DistanceMeters>
          </Trackpoint>
          <Trackpoint>
            <Time>2020-05-25T07:07:36.000Z</Time>
            <Position>
              <LatitudeDegrees>38.139402531087398529052734375</LatitudeDegrees>
              <LongitudeDegrees>-1.13255135715007781982421875</LongitudeDegrees>
            </Position>
            <AltitudeMeters>145.399993896484375</AltitudeMeters>
            <DistanceMeters>NAN</DistanceMeters>
          </Trackpoint>
          <Trackpoint>
            <Time>2020-05-25T07:07:37.000Z</Time>
            <Position>
              <LatitudeDegrees>38.139334805309772491455078125</LatitudeDegrees>
              <LongitudeDegrees>-1.1326484195888042449951171875</LongitudeDegrees>
            </Position>
            <AltitudeMeters>145.1999969482421875</AltitudeMeters>
            <DistanceMeters>NAN</DistanceMeters>
          </Trackpoint>
          <Trackpoint>
            <Time>2020-05-25T07:07:38.000Z</Time>
            <Position>
              <LatitudeDegrees>38.13927118666470050811767578125</LatitudeDegrees>
              <LongitudeDegrees>-1.1327493377029895782470703125</LongitudeDegrees>
            </Position>
            <AltitudeMeters>145</AltitudeMeters>
            <DistanceMeters>NAN</DistanceMeters>
          </Trackpoint>
          <Trackpoint>
            <Time>2020-05-25T07:07:39.000Z</Time>
            <Position>
              <LatitudeDegrees>38.139210753142833709716796875</LatitudeDegrees>
              <LongitudeDegrees>-1.132853440940380096435546875</LongitudeDegrees>
            </Position>
            <AltitudeMeters>144.8000030517578125</AltitudeMeters>
            <DistanceMeters>NAN</DistanceMeters>
          </Trackpoint>
          <Trackpoint>
            <Time>2020-05-25T07:07:40.000Z</Time>
            <Position>
              <LatitudeDegrees>38.13915635459125041961669921875</LatitudeDegrees>
              <LongitudeDegrees>-1.13296215422451496124267578125</LongitudeDegrees>
            </Position>
            <AltitudeMeters>144.600006103515625</AltitudeMeters>
            <DistanceMeters>NAN</DistanceMeters>
          </Trackpoint>
          <Trackpoint>
            <Time>2020-05-25T07:07:41.000Z</Time>
            <Position>
              <LatitudeDegrees>38.139200694859027862548828125</LatitudeDegrees>
              <LongitudeDegrees>-1.13312224857509136199951171875</LongitudeDegrees>
            </Position>
            <AltitudeMeters>144.8000030517578125</AltitudeMeters>
            <DistanceMeters>NAN</DistanceMeters>
          </Trackpoint>
          <Trackpoint>
            <Time>2020-05-25T07:07:42.000Z</Time>
            <Position>
              <LatitudeDegrees>38.13922927714884281158447265625</LatitudeDegrees>
              <LongitudeDegrees>-1.13328921608626842498779296875</LongitudeDegrees>
            </Position>
            <AltitudeMeters>144.600006103515625</AltitudeMeters>
            <DistanceMeters>NAN</DistanceMeters>
          </Trackpoint>
          <Trackpoint>
            <Time>2020-05-25T07:07:43.000Z</Time>
            <Position>
              <LatitudeDegrees>38.13919432461261749267578125</LatitudeDegrees>
              <LongitudeDegrees>-1.13341511227190494537353515625</LongitudeDegrees>
            </Position>
            <AltitudeMeters>144.399993896484375</AltitudeMeters>
            <DistanceMeters>NAN</DistanceMeters>
          </Trackpoint>
          <Trackpoint>
            <Time>2020-05-25T07:07:44.000Z</Time>
            <Position>
              <LatitudeDegrees>38.1391547620296478271484375</LatitudeDegrees>
              <LongitudeDegrees>-1.1335315369069576263427734375</LongitudeDegrees>
            </Position>
            <AltitudeMeters>144.1999969482421875</AltitudeMeters>
            <DistanceMeters>NAN</DistanceMeters>
          </Trackpoint>
          <Trackpoint>
            <Time>2020-05-25T07:07:45.000Z</Time>
            <Position>
              <LatitudeDegrees>38.13911159522831439971923828125</LatitudeDegrees>
              <LongitudeDegrees>-1.1336431838572025299072265625</LongitudeDegrees>
            </Position>
            <AltitudeMeters>144</AltitudeMeters>
            <DistanceMeters>NAN</DistanceMeters>
          </Trackpoint>
          <Trackpoint>
            <Time>2020-05-25T07:07:46.000Z</Time>
            <Position>
              <LatitudeDegrees>38.13906298018991947174072265625</LatitudeDegrees>
              <LongitudeDegrees>-1.133753322064876556396484375</LongitudeDegrees>
            </Position>
            <AltitudeMeters>143.8000030517578125</AltitudeMeters>
            <DistanceMeters>NAN</DistanceMeters>
          </Trackpoint>
          <Trackpoint>
            <Time>2020-05-25T07:07:47.000Z</Time>
            <Position>
              <LatitudeDegrees>38.139015622437000274658203125</LatitudeDegrees>
              <LongitudeDegrees>-1.133857257664203643798828125</LongitudeDegrees>
            </Position>
            <AltitudeMeters>143.399993896484375</AltitudeMeters>
            <DistanceMeters>NAN</DistanceMeters>
          </Trackpoint>
          <Trackpoint>
            <Time>2020-05-25T07:07:48.000Z</Time>
            <Position>
              <LatitudeDegrees>38.1389708630740642547607421875</LatitudeDegrees>
              <LongitudeDegrees>-1.1339657194912433624267578125</LongitudeDegrees>
            </Position>
            <AltitudeMeters>143.399993896484375</AltitudeMeters>
            <DistanceMeters>NAN</DistanceMeters>
          </Trackpoint>
          <Trackpoint>
            <Time>2020-05-25T07:07:49.000Z</Time>
            <Position>
              <LatitudeDegrees>38.13892937265336513519287109375</LatitudeDegrees>
              <LongitudeDegrees>-1.13407677970826625823974609375</LongitudeDegrees>
            </Position>
            <AltitudeMeters>143.399993896484375</AltitudeMeters>
            <DistanceMeters>NAN</DistanceMeters>
          </Trackpoint>
          <Trackpoint>
            <Time>2020-05-25T07:07:50.000Z</Time>
            <Position>
              <LatitudeDegrees>38.1388843618333339691162109375</LatitudeDegrees>
              <LongitudeDegrees>-1.1341792903840541839599609375</LongitudeDegrees>
            </Position>
            <AltitudeMeters>143.399993896484375</AltitudeMeters>
            <DistanceMeters>NAN</DistanceMeters>
          </Trackpoint>
          <Trackpoint>
            <Time>2020-05-25T07:07:51.000Z</Time>
            <Position>
              <LatitudeDegrees>38.13884052447974681854248046875</LatitudeDegrees>
              <LongitudeDegrees>-1.13428666256368160247802734375</LongitudeDegrees>
            </Position>
            <AltitudeMeters>143.399993896484375</AltitudeMeters>
            <DistanceMeters>NAN</DistanceMeters>
          </Trackpoint>
          <Trackpoint>
            <Time>2020-05-25T07:07:52.000Z</Time>
            <Position>
              <LatitudeDegrees>38.138796351850032806396484375</LatitudeDegrees>
              <LongitudeDegrees>-1.13438925705850124359130859375</LongitudeDegrees>
            </Position>
            <AltitudeMeters>143.399993896484375</AltitudeMeters>
            <DistanceMeters>NAN</DistanceMeters>
          </Trackpoint>
          <Trackpoint>
            <Time>2020-05-25T07:07:53.000Z</Time>
            <Position>
              <LatitudeDegrees>38.138750754296779632568359375</LatitudeDegrees>
              <LongitudeDegrees>-1.13449252210557460784912109375</LongitudeDegrees>
            </Position>
            <AltitudeMeters>143.399993896484375</AltitudeMeters>
            <DistanceMeters>NAN</DistanceMeters>
          </Trackpoint>
          <Trackpoint>
            <Time>2020-05-25T07:07:54.000Z</Time>
            <Position>
              <LatitudeDegrees>38.13870540820062160491943359375</LatitudeDegrees>
              <LongitudeDegrees>-1.134592853486537933349609375</LongitudeDegrees>
            </Position>
            <AltitudeMeters>143.399993896484375</AltitudeMeters>
            <DistanceMeters>NAN</DistanceMeters>
          </Trackpoint>
          <Trackpoint>
            <Time>2020-05-25T07:07:55.000Z</Time>
            <Position>
              <LatitudeDegrees>38.13866148702800273895263671875</LatitudeDegrees>
              <LongitudeDegrees>-1.1346952803432941436767578125</LongitudeDegrees>
            </Position>
            <AltitudeMeters>143.399993896484375</AltitudeMeters>
            <DistanceMeters>NAN</DistanceMeters>
          </Trackpoint>
          <Trackpoint>
            <Time>2020-05-25T07:07:56.000Z</Time>
            <Position>
              <LatitudeDegrees>38.13861622475087642669677734375</LatitudeDegrees>
              <LongitudeDegrees>-1.1347983777523040771484375</LongitudeDegrees>
            </Position>
            <AltitudeMeters>143.399993896484375</AltitudeMeters>
            <DistanceMeters>NAN</DistanceMeters>
          </Trackpoint>
          <Trackpoint>
            <Time>2020-05-25T07:07:57.000Z</Time>
            <Position>
              <LatitudeDegrees>38.138567693531513214111328125</LatitudeDegrees>
              <LongitudeDegrees>-1.134899966418743133544921875</LongitudeDegrees>
            </Position>
            <AltitudeMeters>143.600006103515625</AltitudeMeters>
            <DistanceMeters>NAN</DistanceMeters>
          </Trackpoint>
          <Trackpoint>
            <Time>2020-05-25T07:07:58.000Z</Time>
            <Position>
              <LatitudeDegrees>38.1385168991982936859130859375</LatitudeDegrees>
              <LongitudeDegrees>-1.13499828614294528961181640625</LongitudeDegrees>
            </Position>
            <AltitudeMeters>143.8000030517578125</AltitudeMeters>
            <DistanceMeters>NAN</DistanceMeters>
          </Trackpoint>
          <Trackpoint>
            <Time>2020-05-25T07:07:59.000Z</Time>
            <Position>
              <LatitudeDegrees>38.13845931552350521087646484375</LatitudeDegrees>
              <LongitudeDegrees>-1.13508981652557849884033203125</LongitudeDegrees>
            </Position>
            <AltitudeMeters>143.8000030517578125</AltitudeMeters>
            <DistanceMeters>NAN</DistanceMeters>
          </Trackpoint>
          <Trackpoint>
            <Time>2020-05-25T07:08:00.000Z</Time>
            <Position>
              <LatitudeDegrees>38.13839628361165523529052734375</LatitudeDegrees>
              <LongitudeDegrees>-1.13517279736697673797607421875</LongitudeDegrees>
            </Position>
            <AltitudeMeters>143.8000030517578125</AltitudeMeters>
            <DistanceMeters>NAN</DistanceMeters>
          </Trackpoint>
          <Trackpoint>
            <Time>2020-05-25T07:08:01.000Z</Time>
            <Position>
              <LatitudeDegrees>38.13832855783402919769287109375</LatitudeDegrees>
              <LongitudeDegrees>-1.13524488173425197601318359375</LongitudeDegrees>
            </Position>
            <AltitudeMeters>143.8000030517578125</AltitudeMeters>
            <DistanceMeters>NAN</DistanceMeters>
          </Trackpoint>
          <Trackpoint>
            <Time>2020-05-25T07:08:02.000Z</Time>
            <Position>
              <LatitudeDegrees>38.138256557285785675048828125</LatitudeDegrees>
              <LongitudeDegrees>-1.13528679125010967254638671875</LongitudeDegrees>
            </Position>
            <AltitudeMeters>143.600006103515625</AltitudeMeters>
            <DistanceMeters>NAN</DistanceMeters>
          </Trackpoint>
          <Trackpoint>
            <Time>2020-05-25T07:08:03.000Z</Time>
            <Position>
              <LatitudeDegrees>38.1381809525191783905029296875</LatitudeDegrees>
              <LongitudeDegrees>-1.13533825613558292388916015625</LongitudeDegrees>
            </Position>
            <AltitudeMeters>143.399993896484375</AltitudeMeters>
            <DistanceMeters>NAN</DistanceMeters>
          </Trackpoint>
          <Trackpoint>
            <Time>2020-05-25T07:08:04.000Z</Time>
            <Position>
              <LatitudeDegrees>38.138101994991302490234375</LatitudeDegrees>
              <LongitudeDegrees>-1.13538502715528011322021484375</LongitudeDegrees>
            </Position>
            <AltitudeMeters>143.1999969482421875</AltitudeMeters>
            <DistanceMeters>NAN</DistanceMeters>
          </Trackpoint>
          <Trackpoint>
            <Time>2020-05-25T07:08:05.000Z</Time>
            <Position>
              <LatitudeDegrees>38.13802043907344341278076171875</LatitudeDegrees>
              <LongitudeDegrees>-1.135430037975311279296875</LongitudeDegrees>
            </Position>
            <AltitudeMeters>143</AltitudeMeters>
            <DistanceMeters>NAN</DistanceMeters>
          </Trackpoint>
          <Trackpoint>
            <Time>2020-05-25T07:08:06.000Z</Time>
            <Position>
              <LatitudeDegrees>38.13793636858463287353515625</LatitudeDegrees>
              <LongitudeDegrees>-1.13547806628048419952392578125</LongitudeDegrees>
            </Position>
            <AltitudeMeters>142.8000030517578125</AltitudeMeters>
            <DistanceMeters>NAN</DistanceMeters>
          </Trackpoint>
          <Trackpoint>
            <Time>2020-05-25T07:08:07.000Z</Time>
            <Position>
              <LatitudeDegrees>38.13785078935325145721435546875</LatitudeDegrees>
              <LongitudeDegrees>-1.135523580014705657958984375</LongitudeDegrees>
            </Position>
            <AltitudeMeters>142.600006103515625</AltitudeMeters>
            <DistanceMeters>NAN</DistanceMeters>
          </Trackpoint>
          <Trackpoint>
            <Time>2020-05-25T07:08:08.000Z</Time>
            <Position>
              <LatitudeDegrees>38.13776344992220401763916015625</LatitudeDegrees>
              <LongitudeDegrees>-1.1355596221983432769775390625</LongitudeDegrees>
            </Position>
            <AltitudeMeters>142.399993896484375</AltitudeMeters>
            <DistanceMeters>NAN</DistanceMeters>
          </Trackpoint>
          <Trackpoint>
            <Time>2020-05-25T07:08:09.000Z</Time>
            <Position>
              <LatitudeDegrees>38.13767426647245883941650390625</LatitudeDegrees>
              <LongitudeDegrees>-1.135580241680145263671875</LongitudeDegrees>
            </Position>
            <AltitudeMeters>142.1999969482421875</AltitudeMeters>
            <DistanceMeters>NAN</DistanceMeters>
          </Trackpoint>
          <Trackpoint>
            <Time>2020-05-25T07:08:10.000Z</Time>
            <Position>
              <LatitudeDegrees>38.13758390955626964569091796875</LatitudeDegrees>
              <LongitudeDegrees>-1.1355934850871562957763671875</LongitudeDegrees>
            </Position>
            <AltitudeMeters>142</AltitudeMeters>
            <DistanceMeters>NAN</DistanceMeters>
          </Trackpoint>
          <Trackpoint>
            <Time>2020-05-25T07:08:11.000Z</Time>
            <Position>
              <LatitudeDegrees>38.137492798268795013427734375</LatitudeDegrees>
              <LongitudeDegrees>-1.13560228608548641204833984375</LongitudeDegrees>
            </Position>
            <AltitudeMeters>141.600006103515625</AltitudeMeters>
            <DistanceMeters>NAN</DistanceMeters>
          </Trackpoint>
          <Trackpoint>
            <Time>2020-05-25T07:08:12.000Z</Time>
            <Position>
              <LatitudeDegrees>38.1374027766287326812744140625</LatitudeDegrees>
              <LongitudeDegrees>-1.13560681231319904327392578125</LongitudeDegrees>
            </Position>
            <AltitudeMeters>141.1999969482421875</AltitudeMeters>
            <DistanceMeters>NAN</DistanceMeters>
          </Trackpoint>
          <Trackpoint>
            <Time>2020-05-25T07:08:13.000Z</Time>
            <Position>
              <LatitudeDegrees>38.137313425540924072265625</LatitudeDegrees>
              <LongitudeDegrees>-1.135606728494167327880859375</LongitudeDegrees>
            </Position>
            <AltitudeMeters>141</AltitudeMeters>
            <DistanceMeters>NAN</DistanceMeters>
          </Trackpoint>
          <Trackpoint>
            <Time>2020-05-25T07:08:14.000Z</Time>
            <Position>
              <LatitudeDegrees>38.13722432591021060943603515625</LatitudeDegrees>
              <LongitudeDegrees>-1.1356030404567718505859375</LongitudeDegrees>
            </Position>
            <AltitudeMeters>140.600006103515625</AltitudeMeters>
            <DistanceMeters>NAN</DistanceMeters>
          </Trackpoint>
          <Trackpoint>
            <Time>2020-05-25T07:08:15.000Z</Time>
            <Position>
              <LatitudeDegrees>38.13713447190821170806884765625</LatitudeDegrees>
              <LongitudeDegrees>-1.13559356890618801116943359375</LongitudeDegrees>
            </Position>
            <AltitudeMeters>140.399993896484375</AltitudeMeters>
            <DistanceMeters>NAN</DistanceMeters>
          </Trackpoint>
          <Trackpoint>
            <Time>2020-05-25T07:08:16.000Z</Time>
            <Position>
              <LatitudeDegrees>38.13704545609652996063232421875</LatitudeDegrees>
              <LongitudeDegrees>-1.1355750449001789093017578125</LongitudeDegrees>
            </Position>
            <AltitudeMeters>140</AltitudeMeters>
            <DistanceMeters>NAN</DistanceMeters>
          </Trackpoint>
          <Trackpoint>
            <Time>2020-05-25T07:08:17.000Z</Time>
            <Position>
              <LatitudeDegrees>38.1369588710367679595947265625</LatitudeDegrees>
              <LongitudeDegrees>-1.13554713316261768341064453125</LongitudeDegrees>
            </Position>
            <AltitudeMeters>139.8000030517578125</AltitudeMeters>
            <DistanceMeters>NAN</DistanceMeters>
          </Trackpoint>
          <Trackpoint>
            <Time>2020-05-25T07:08:18.000Z</Time>
            <Position>
              <LatitudeDegrees>38.13687329180538654327392578125</LatitudeDegrees>
              <LongitudeDegrees>-1.135512180626392364501953125</LongitudeDegrees>
            </Position>
            <AltitudeMeters>139.600006103515625</AltitudeMeters>
            <DistanceMeters>NAN</DistanceMeters>
          </Trackpoint>
          <Trackpoint>
            <Time>2020-05-25T07:08:19.000Z</Time>
            <Position>
              <LatitudeDegrees>38.13679114915430545806884765625</LatitudeDegrees>
              <LongitudeDegrees>-1.13546767272055149078369140625</LongitudeDegrees>
            </Position>
            <AltitudeMeters>139.600006103515625</AltitudeMeters>
            <DistanceMeters>NAN</DistanceMeters>
          </Trackpoint>
          <Trackpoint>
            <Time>2020-05-25T07:08:20.000Z</Time>
            <Position>
              <LatitudeDegrees>38.13671001233160495758056640625</LatitudeDegrees>
              <LongitudeDegrees>-1.1354164592921733856201171875</LongitudeDegrees>
            </Position>
            <AltitudeMeters>139.399993896484375</AltitudeMeters>
            <DistanceMeters>NAN</DistanceMeters>
          </Trackpoint>
          <Trackpoint>
            <Time>2020-05-25T07:08:21.000Z</Time>
            <Position>
              <LatitudeDegrees>38.1366292946040630340576171875</LatitudeDegrees>
              <LongitudeDegrees>-1.13536189310252666473388671875</LongitudeDegrees>
            </Position>
            <AltitudeMeters>139.399993896484375</AltitudeMeters>
            <DistanceMeters>NAN</DistanceMeters>
          </Trackpoint>
          <Trackpoint>
            <Time>2020-05-25T07:08:22.000Z</Time>
            <Position>
              <LatitudeDegrees>38.1365481577813625335693359375</LatitudeDegrees>
              <LongitudeDegrees>-1.1353014595806598663330078125</LongitudeDegrees>
            </Position>
            <AltitudeMeters>139.1999969482421875</AltitudeMeters>
            <DistanceMeters>NAN</DistanceMeters>
          </Trackpoint>
          <Trackpoint>
            <Time>2020-05-25T07:08:23.000Z</Time>
            <Position>
              <LatitudeDegrees>38.1364686973392963409423828125</LatitudeDegrees>
              <LongitudeDegrees>-1.135235913097858428955078125</LongitudeDegrees>
            </Position>
            <AltitudeMeters>139.1999969482421875</AltitudeMeters>
            <DistanceMeters>NAN</DistanceMeters>
          </Trackpoint>
          <Trackpoint>
            <Time>2020-05-25T07:08:24.000Z</Time>
            <Position>
              <LatitudeDegrees>38.1363895721733570098876953125</LatitudeDegrees>
              <LongitudeDegrees>-1.1351707018911838531494140625</LongitudeDegrees>
            </Position>
            <AltitudeMeters>139.1999969482421875</AltitudeMeters>
            <DistanceMeters>NAN</DistanceMeters>
          </Trackpoint>
          <Trackpoint>
            <Time>2020-05-25T07:08:25.000Z</Time>
            <Position>
              <LatitudeDegrees>38.13631019555032253265380859375</LatitudeDegrees>
              <LongitudeDegrees>-1.13510255701839923858642578125</LongitudeDegrees>
            </Position>
            <AltitudeMeters>139.399993896484375</AltitudeMeters>
            <DistanceMeters>NAN</DistanceMeters>
          </Trackpoint>
          <Trackpoint>
            <Time>2020-05-25T07:08:26.000Z</Time>
            <Position>
              <LatitudeDegrees>38.13623123802244663238525390625</LatitudeDegrees>
              <LongitudeDegrees>-1.13503734581172466278076171875</LongitudeDegrees>
            </Position>
            <AltitudeMeters>139.399993896484375</AltitudeMeters>
            <DistanceMeters>NAN</DistanceMeters>
          </Trackpoint>
          <Trackpoint>
            <Time>2020-05-25T07:08:27.000Z</Time>
            <Position>
              <LatitudeDegrees>38.136149011552333831787109375</LatitudeDegrees>
              <LongitudeDegrees>-1.13496878184378147125244140625</LongitudeDegrees>
            </Position>
            <AltitudeMeters>139.600006103515625</AltitudeMeters>
            <DistanceMeters>NAN</DistanceMeters>
          </Trackpoint>
          <Trackpoint>
            <Time>2020-05-25T07:08:28.000Z</Time>
            <Position>
              <LatitudeDegrees>38.136066533625125885009765625</LatitudeDegrees>
              <LongitudeDegrees>-1.13489963114261627197265625</LongitudeDegrees>
            </Position>
            <AltitudeMeters>139.600006103515625</AltitudeMeters>
            <DistanceMeters>NAN</DistanceMeters>
          </Trackpoint>
          <Trackpoint>
            <Time>2020-05-25T07:08:29.000Z</Time>
            <Position>
              <LatitudeDegrees>38.135981373488903045654296875</LatitudeDegrees>
              <LongitudeDegrees>-1.134834922850131988525390625</LongitudeDegrees>
            </Position>
            <AltitudeMeters>139.8000030517578125</AltitudeMeters>
            <DistanceMeters>NAN</DistanceMeters>
          </Trackpoint>
          <Trackpoint>
            <Time>2020-05-25T07:08:30.000Z</Time>
            <Position>
              <LatitudeDegrees>38.1358967162668704986572265625</LatitudeDegrees>
              <LongitudeDegrees>-1.134775578975677490234375</LongitudeDegrees>
            </Position>
            <AltitudeMeters>139.8000030517578125</AltitudeMeters>
            <DistanceMeters>NAN</DistanceMeters>
          </Trackpoint>
          <Trackpoint>
            <Time>2020-05-25T07:08:31.000Z</Time>
            <Position>
              <LatitudeDegrees>38.1358100473880767822265625</LatitudeDegrees>
              <LongitudeDegrees>-1.134720258414745330810546875</LongitudeDegrees>
            </Position>
            <AltitudeMeters>139.8000030517578125</AltitudeMeters>
            <DistanceMeters>NAN</DistanceMeters>
          </Trackpoint>
          <Trackpoint>
            <Time>2020-05-25T07:08:32.000Z</Time>
            <Position>
              <LatitudeDegrees>38.13572161830961704254150390625</LatitudeDegrees>
              <LongitudeDegrees>-1.13464356400072574615478515625</LongitudeDegrees>
            </Position>
            <AltitudeMeters>140</AltitudeMeters>
            <DistanceMeters>NAN</DistanceMeters>
          </Trackpoint>
          <Trackpoint>
            <Time>2020-05-25T07:08:33.000Z</Time>
            <Position>
              <LatitudeDegrees>38.1356295011937618255615234375</LatitudeDegrees>
              <LongitudeDegrees>-1.13459226675331592559814453125</LongitudeDegrees>
            </Position>
            <AltitudeMeters>140</AltitudeMeters>
            <DistanceMeters>NAN</DistanceMeters>
          </Trackpoint>
          <Trackpoint>
            <Time>2020-05-25T07:08:34.000Z</Time>
            <Position>
              <LatitudeDegrees>38.13553218729794025421142578125</LatitudeDegrees>
              <LongitudeDegrees>-1.13456728868186473846435546875</LongitudeDegrees>
            </Position>
            <AltitudeMeters>139.8000030517578125</AltitudeMeters>
            <DistanceMeters>NAN</DistanceMeters>
          </Trackpoint>
          <Trackpoint>
            <Time>2020-05-25T07:08:35.000Z</Time>
            <Position>
              <LatitudeDegrees>38.1354313530027866363525390625</LatitudeDegrees>
              <LongitudeDegrees>-1.13456393592059612274169921875</LongitudeDegrees>
            </Position>
            <AltitudeMeters>139.600006103515625</AltitudeMeters>
            <DistanceMeters>NAN</DistanceMeters>
          </Trackpoint>
          <Trackpoint>
            <Time>2020-05-25T07:08:36.000Z</Time>
            <Position>
              <LatitudeDegrees>38.1353274174034595489501953125</LatitudeDegrees>
              <LongitudeDegrees>-1.13457282073795795440673828125</LongitudeDegrees>
            </Position>
            <AltitudeMeters>139.1999969482421875</AltitudeMeters>
            <DistanceMeters>NAN</DistanceMeters>
          </Trackpoint>
          <Trackpoint>
            <Time>2020-05-25T07:08:37.000Z</Time>
            <Position>
              <LatitudeDegrees>38.1352204643189907073974609375</LatitudeDegrees>
              <LongitudeDegrees>-1.1345936916768550872802734375</LongitudeDegrees>
            </Position>
            <AltitudeMeters>139</AltitudeMeters>
            <DistanceMeters>NAN</DistanceMeters>
          </Trackpoint>
          <Trackpoint>
            <Time>2020-05-25T07:08:38.000Z</Time>
            <Position>
              <LatitudeDegrees>38.1351084820926189422607421875</LatitudeDegrees>
              <LongitudeDegrees>-1.13462529145181179046630859375</LongitudeDegrees>
            </Position>
            <AltitudeMeters>138.8000030517578125</AltitudeMeters>
            <DistanceMeters>NAN</DistanceMeters>
          </Trackpoint>
          <Trackpoint>
            <Time>2020-05-25T07:08:39.000Z</Time>
            <Position>
              <LatitudeDegrees>38.1349933147430419921875</LatitudeDegrees>
              <LongitudeDegrees>-1.13466653041541576385498046875</LongitudeDegrees>
            </Position>
            <AltitudeMeters>137.600006103515625</AltitudeMeters>
            <DistanceMeters>NAN</DistanceMeters>
          </Trackpoint>
          <Trackpoint>
            <Time>2020-05-25T07:08:40.000Z</Time>
            <Position>
              <LatitudeDegrees>38.13487529754638671875</LatitudeDegrees>
              <LongitudeDegrees>-1.13472662866115570068359375</LongitudeDegrees>
            </Position>
            <AltitudeMeters>136.600006103515625</AltitudeMeters>
            <DistanceMeters>NAN</DistanceMeters>
          </Trackpoint>
          <Trackpoint>
            <Time>2020-05-25T07:08:41.000Z</Time>
            <Position>
              <LatitudeDegrees>38.134759962558746337890625</LatitudeDegrees>
              <LongitudeDegrees>-1.13478027284145355224609375</LongitudeDegrees>
            </Position>
            <AltitudeMeters>135.399993896484375</AltitudeMeters>
            <DistanceMeters>NAN</DistanceMeters>
          </Trackpoint>
          <Trackpoint>
            <Time>2020-05-25T07:08:42.000Z</Time>
            <Position>
              <LatitudeDegrees>38.1346417777240276336669921875</LatitudeDegrees>
              <LongitudeDegrees>-1.13483819179236888885498046875</LongitudeDegrees>
            </Position>
            <AltitudeMeters>134.1999969482421875</AltitudeMeters>
            <DistanceMeters>NAN</DistanceMeters>
          </Trackpoint>
          <Trackpoint>
            <Time>2020-05-25T07:08:43.000Z</Time>
            <Position>
              <LatitudeDegrees>38.13452132977545261383056640625</LatitudeDegrees>
              <LongitudeDegrees>-1.13489049486815929412841796875</LongitudeDegrees>
            </Position>
            <AltitudeMeters>133</AltitudeMeters>
            <DistanceMeters>NAN</DistanceMeters>
          </Trackpoint>
          <Trackpoint>
            <Time>2020-05-25T07:08:44.000Z</Time>
            <Position>
              <LatitudeDegrees>38.13439727760851383209228515625</LatitudeDegrees>
              <LongitudeDegrees>-1.13493927754461765289306640625</LongitudeDegrees>
            </Position>
            <AltitudeMeters>131.600006103515625</AltitudeMeters>
            <DistanceMeters>NAN</DistanceMeters>
          </Trackpoint>
          <Trackpoint>
            <Time>2020-05-25T07:08:45.000Z</Time>
            <Position>
              <LatitudeDegrees>38.13427004031836986541748046875</LatitudeDegrees>
              <LongitudeDegrees>-1.134983785450458526611328125</LongitudeDegrees>
            </Position>
            <AltitudeMeters>130.399993896484375</AltitudeMeters>
            <DistanceMeters>NAN</DistanceMeters>
          </Trackpoint>
          <Trackpoint>
            <Time>2020-05-25T07:08:46.000Z</Time>
            <Position>
              <LatitudeDegrees>38.13413836061954498291015625</LatitudeDegrees>
              <LongitudeDegrees>-1.13501706160604953765869140625</LongitudeDegrees>
            </Position>
            <AltitudeMeters>130.1999969482421875</AltitudeMeters>
            <DistanceMeters>NAN</DistanceMeters>
          </Trackpoint>
          <Trackpoint>
            <Time>2020-05-25T07:08:47.000Z</Time>
            <Position>
              <LatitudeDegrees>38.13400466926395893096923828125</LatitudeDegrees>
              <LongitudeDegrees>-1.135038435459136962890625</LongitudeDegrees>
            </Position>
            <AltitudeMeters>130</AltitudeMeters>
            <DistanceMeters>NAN</DistanceMeters>
          </Trackpoint>
          <Trackpoint>
            <Time>2020-05-25T07:08:48.000Z</Time>
            <Position>
              <LatitudeDegrees>38.1338709779083728790283203125</LatitudeDegrees>
              <LongitudeDegrees>-1.1350505053997039794921875</LongitudeDegrees>
            </Position>
            <AltitudeMeters>129</AltitudeMeters>
            <DistanceMeters>NAN</DistanceMeters>
          </Trackpoint>
          <Trackpoint>
            <Time>2020-05-25T07:08:49.000Z</Time>
            <Position>
              <LatitudeDegrees>38.13374005258083343505859375</LatitudeDegrees>
              <LongitudeDegrees>-1.13505561836063861846923828125</LongitudeDegrees>
            </Position>
            <AltitudeMeters>127.8000030517578125</AltitudeMeters>
            <DistanceMeters>NAN</DistanceMeters>
          </Trackpoint>
          <Trackpoint>
            <Time>2020-05-25T07:08:50.000Z</Time>
            <Position>
              <LatitudeDegrees>38.13361130654811859130859375</LatitudeDegrees>
              <LongitudeDegrees>-1.1350580491125583648681640625</LongitudeDegrees>
            </Position>
            <AltitudeMeters>126.8000030517578125</AltitudeMeters>
            <DistanceMeters>NAN</DistanceMeters>
          </Trackpoint>
          <Trackpoint>
            <Time>2020-05-25T07:08:51.000Z</Time>
            <Position>
              <LatitudeDegrees>38.1334845721721649169921875</LatitudeDegrees>
              <LongitudeDegrees>-1.1350624077022075653076171875</LongitudeDegrees>
            </Position>
            <AltitudeMeters>125.8000030517578125</AltitudeMeters>
            <DistanceMeters>NAN</DistanceMeters>
          </Trackpoint>
          <Trackpoint>
            <Time>2020-05-25T07:08:52.000Z</Time>
            <Position>
              <LatitudeDegrees>38.1333625316619873046875</LatitudeDegrees>
              <LongitudeDegrees>-1.13506819121539592742919921875</LongitudeDegrees>
            </Position>
            <AltitudeMeters>125.59999847412109375</AltitudeMeters>
            <DistanceMeters>NAN</DistanceMeters>
          </Trackpoint>
          <Trackpoint>
            <Time>2020-05-25T07:08:53.000Z</Time>
            <Position>
              <LatitudeDegrees>38.13324325717985630035400390625</LatitudeDegrees>
              <LongitudeDegrees>-1.1350808478891849517822265625</LongitudeDegrees>
            </Position>
            <AltitudeMeters>125.8000030517578125</AltitudeMeters>
            <DistanceMeters>NAN</DistanceMeters>
          </Trackpoint>
          <Trackpoint>
            <Time>2020-05-25T07:08:54.000Z</Time>
            <Position>
              <LatitudeDegrees>38.13312792219221591949462890625</LatitudeDegrees>
              <LongitudeDegrees>-1.1351016350090503692626953125</LongitudeDegrees>
            </Position>
            <AltitudeMeters>126.1999969482421875</AltitudeMeters>
            <DistanceMeters>NAN</DistanceMeters>
          </Trackpoint>
          <Trackpoint>
            <Time>2020-05-25T07:08:55.000Z</Time>
            <Position>
              <LatitudeDegrees>38.13301853835582733154296875</LatitudeDegrees>
              <LongitudeDegrees>-1.1351331509649753570556640625</LongitudeDegrees>
            </Position>
            <AltitudeMeters>126.1999969482421875</AltitudeMeters>
            <DistanceMeters>NAN</DistanceMeters>
          </Trackpoint>
          <Trackpoint>
            <Time>2020-05-25T07:08:56.000Z</Time>
            <Position>
              <LatitudeDegrees>38.1329151056706905364990234375</LatitudeDegrees>
              <LongitudeDegrees>-1.13517330028116703033447265625</LongitudeDegrees>
            </Position>
            <AltitudeMeters>126.1999969482421875</AltitudeMeters>
            <DistanceMeters>NAN</DistanceMeters>
          </Trackpoint>
          <Trackpoint>
            <Time>2020-05-25T07:08:57.000Z</Time>
            <Position>
              <LatitudeDegrees>38.13281544484198093414306640625</LatitudeDegrees>
              <LongitudeDegrees>-1.13522409461438655853271484375</LongitudeDegrees>
            </Position>
            <AltitudeMeters>126.40000152587890625</AltitudeMeters>
            <DistanceMeters>NAN</DistanceMeters>
          </Trackpoint>
          <Trackpoint>
            <Time>2020-05-25T07:08:58.000Z</Time>
            <Position>
              <LatitudeDegrees>38.13272324390709400177001953125</LatitudeDegrees>
              <LongitudeDegrees>-1.135282181203365325927734375</LongitudeDegrees>
            </Position>
            <AltitudeMeters>126.59999847412109375</AltitudeMeters>
            <DistanceMeters>NAN</DistanceMeters>
          </Trackpoint>
          <Trackpoint>
            <Time>2020-05-25T07:08:59.000Z</Time>
            <Position>
              <LatitudeDegrees>38.1326343119144439697265625</LatitudeDegrees>
              <LongitudeDegrees>-1.1353537626564502716064453125</LongitudeDegrees>
            </Position>
            <AltitudeMeters>126.8000030517578125</AltitudeMeters>
            <DistanceMeters>NAN</DistanceMeters>
          </Trackpoint>
          <Trackpoint>
            <Time>2020-05-25T07:09:00.000Z</Time>
            <Position>
              <LatitudeDegrees>38.13255317509174346923828125</LatitudeDegrees>
              <LongitudeDegrees>-1.1354362405836582183837890625</LongitudeDegrees>
            </Position>
            <AltitudeMeters>126.8000030517578125</AltitudeMeters>
            <DistanceMeters>NAN</DistanceMeters>
          </Trackpoint>
          <Trackpoint>
            <Time>2020-05-25T07:09:01.000Z</Time>
            <Position>
              <LatitudeDegrees>38.13248050399124622344970703125</LatitudeDegrees>
              <LongitudeDegrees>-1.1355271004140377044677734375</LongitudeDegrees>
            </Position>
            <AltitudeMeters>126.59999847412109375</AltitudeMeters>
            <DistanceMeters>NAN</DistanceMeters>
          </Trackpoint>
          <Trackpoint>
            <Time>2020-05-25T07:09:02.000Z</Time>
            <Position>
              <LatitudeDegrees>38.13241395168006420135498046875</LatitudeDegrees>
              <LongitudeDegrees>-1.135624162852764129638671875</LongitudeDegrees>
            </Position>
            <AltitudeMeters>126.40000152587890625</AltitudeMeters>
            <DistanceMeters>NAN</DistanceMeters>
          </Trackpoint>
          <Trackpoint>
            <Time>2020-05-25T07:09:03.000Z</Time>
            <Position>
              <LatitudeDegrees>38.1323540210723876953125</LatitudeDegrees>
              <LongitudeDegrees>-1.13572281785309314727783203125</LongitudeDegrees>
            </Position>
            <AltitudeMeters>126.40000152587890625</AltitudeMeters>
            <DistanceMeters>NAN</DistanceMeters>
          </Trackpoint>
          <Trackpoint>
            <Time>2020-05-25T07:09:04.000Z</Time>
            <Position>
              <LatitudeDegrees>38.1323012150824069976806640625</LatitudeDegrees>
              <LongitudeDegrees>-1.13582407124340534210205078125</LongitudeDegrees>
            </Position>
            <AltitudeMeters>126.1999969482421875</AltitudeMeters>
            <DistanceMeters>NAN</DistanceMeters>
          </Trackpoint>
          <Trackpoint>
            <Time>2020-05-25T07:09:05.000Z</Time>
            <Position>
              <LatitudeDegrees>38.132257126271724700927734375</LatitudeDegrees>
              <LongitudeDegrees>-1.1359274201095104217529296875</LongitudeDegrees>
            </Position>
            <AltitudeMeters>126.1999969482421875</AltitudeMeters>
            <DistanceMeters>NAN</DistanceMeters>
          </Trackpoint>
          <Trackpoint>
            <Time>2020-05-25T07:09:06.000Z</Time>
            <Position>
              <LatitudeDegrees>38.13221924006938934326171875</LatitudeDegrees>
              <LongitudeDegrees>-1.13603428937494754791259765625</LongitudeDegrees>
            </Position>
            <AltitudeMeters>126.1999969482421875</AltitudeMeters>
            <DistanceMeters>NAN</DistanceMeters>
          </Trackpoint>
          <Trackpoint>
            <Time>2020-05-25T07:09:07.000Z</Time>
            <Position>
              <LatitudeDegrees>38.1321845389902591705322265625</LatitudeDegrees>
              <LongitudeDegrees>-1.13614375703036785125732421875</LongitudeDegrees>
            </Position>
            <AltitudeMeters>126.40000152587890625</AltitudeMeters>
            <DistanceMeters>NAN</DistanceMeters>
          </Trackpoint>
          <Trackpoint>
            <Time>2020-05-25T07:09:08.000Z</Time>
            <Position>
              <LatitudeDegrees>38.13215159811079502105712890625</LatitudeDegrees>
              <LongitudeDegrees>-1.13624970428645610809326171875</LongitudeDegrees>
            </Position>
            <AltitudeMeters>126.59999847412109375</AltitudeMeters>
            <DistanceMeters>NAN</DistanceMeters>
          </Trackpoint>
          <Trackpoint>
            <Time>2020-05-25T07:09:09.000Z</Time>
            <Position>
              <LatitudeDegrees>38.13211974687874317169189453125</LatitudeDegrees>
              <LongitudeDegrees>-1.13635531626641750335693359375</LongitudeDegrees>
            </Position>
            <AltitudeMeters>126.59999847412109375</AltitudeMeters>
            <DistanceMeters>NAN</DistanceMeters>
          </Trackpoint>
          <Trackpoint>
            <Time>2020-05-25T07:09:10.000Z</Time>
            <Position>
              <LatitudeDegrees>38.13208781182765960693359375</LatitudeDegrees>
              <LongitudeDegrees>-1.13646143116056919097900390625</LongitudeDegrees>
            </Position>
            <AltitudeMeters>126.8000030517578125</AltitudeMeters>
            <DistanceMeters>NAN</DistanceMeters>
          </Trackpoint>
          <Trackpoint>
            <Time>2020-05-25T07:09:11.000Z</Time>
            <Position>
              <LatitudeDegrees>38.13205453567206859588623046875</LatitudeDegrees>
              <LongitudeDegrees>-1.13656536675989627838134765625</LongitudeDegrees>
            </Position>
            <AltitudeMeters>126.59999847412109375</AltitudeMeters>
            <DistanceMeters>NAN</DistanceMeters>
          </Trackpoint>
          <Trackpoint>
            <Time>2020-05-25T07:09:12.000Z</Time>
            <Position>
              <LatitudeDegrees>38.13202100805938243865966796875</LatitudeDegrees>
              <LongitudeDegrees>-1.1366690509021282196044921875</LongitudeDegrees>
            </Position>
            <AltitudeMeters>126.59999847412109375</AltitudeMeters>
            <DistanceMeters>NAN</DistanceMeters>
          </Trackpoint>
          <Trackpoint>
            <Time>2020-05-25T07:09:13.000Z</Time>
            <Position>
              <LatitudeDegrees>38.13198815099895000457763671875</LatitudeDegrees>
              <LongitudeDegrees>-1.1367749981582164764404296875</LongitudeDegrees>
            </Position>
            <AltitudeMeters>126.59999847412109375</AltitudeMeters>
            <DistanceMeters>NAN</DistanceMeters>
          </Trackpoint>
          <Trackpoint>
            <Time>2020-05-25T07:09:14.000Z</Time>
            <Position>
              <LatitudeDegrees>38.13195629976689815521240234375</LatitudeDegrees>
              <LongitudeDegrees>-1.136881448328495025634765625</LongitudeDegrees>
            </Position>
            <AltitudeMeters>126.59999847412109375</AltitudeMeters>
            <DistanceMeters>NAN</DistanceMeters>
          </Trackpoint>
          <Trackpoint>
            <Time>2020-05-25T07:09:15.000Z</Time>
            <Position>
              <LatitudeDegrees>38.131924532353878021240234375</LatitudeDegrees>
              <LongitudeDegrees>-1.136985383927822113037109375</LongitudeDegrees>
            </Position>
            <AltitudeMeters>126.59999847412109375</AltitudeMeters>
            <DistanceMeters>NAN</DistanceMeters>
          </Trackpoint>
          <Trackpoint>
            <Time>2020-05-25T07:09:16.000Z</Time>
            <Position>
              <LatitudeDegrees>38.1318915076553821563720703125</LatitudeDegrees>
              <LongitudeDegrees>-1.13708906807005405426025390625</LongitudeDegrees>
            </Position>
            <AltitudeMeters>126.59999847412109375</AltitudeMeters>
            <DistanceMeters>NAN</DistanceMeters>
          </Trackpoint>
          <Trackpoint>
            <Time>2020-05-25T07:09:17.000Z</Time>
            <Position>
              <LatitudeDegrees>38.13185848295688629150390625</LatitudeDegrees>
              <LongitudeDegrees>-1.13719115965068340301513671875</LongitudeDegrees>
            </Position>
            <AltitudeMeters>126.59999847412109375</AltitudeMeters>
            <DistanceMeters>NAN</DistanceMeters>
          </Trackpoint>
          <Trackpoint>
            <Time>2020-05-25T07:09:18.000Z</Time>
            <Position>
              <LatitudeDegrees>38.131824620068073272705078125</LatitudeDegrees>
              <LongitudeDegrees>-1.1372953467071056365966796875</LongitudeDegrees>
            </Position>
            <AltitudeMeters>126.40000152587890625</AltitudeMeters>
            <DistanceMeters>NAN</DistanceMeters>
          </Trackpoint>
          <Trackpoint>
            <Time>2020-05-25T07:09:19.000Z</Time>
            <Position>
              <LatitudeDegrees>38.1317905895411968231201171875</LatitudeDegrees>
              <LongitudeDegrees>-1.13739953376352787017822265625</LongitudeDegrees>
            </Position>
            <AltitudeMeters>126.1999969482421875</AltitudeMeters>
            <DistanceMeters>NAN</DistanceMeters>
          </Trackpoint>
          <Trackpoint>
            <Time>2020-05-25T07:09:20.000Z</Time>
            <Position>
              <LatitudeDegrees>38.1317543797194957733154296875</LatitudeDegrees>
              <LongitudeDegrees>-1.13750405609607696533203125</LongitudeDegrees>
            </Position>
            <AltitudeMeters>126</AltitudeMeters>
            <DistanceMeters>NAN</DistanceMeters>
          </Trackpoint>
          <Trackpoint>
            <Time>2020-05-25T07:09:21.000Z</Time>
            <Position>
              <LatitudeDegrees>38.13171506859362125396728515625</LatitudeDegrees>
              <LongitudeDegrees>-1.13760673440992832183837890625</LongitudeDegrees>
            </Position>
            <AltitudeMeters>125.8000030517578125</AltitudeMeters>
            <DistanceMeters>NAN</DistanceMeters>
          </Trackpoint>
          <Trackpoint>
            <Time>2020-05-25T07:09:22.000Z</Time>
            <Position>
              <LatitudeDegrees>38.13167450018227100372314453125</LatitudeDegrees>
              <LongitudeDegrees>-1.13770966418087482452392578125</LongitudeDegrees>
            </Position>
            <AltitudeMeters>125.8000030517578125</AltitudeMeters>
            <DistanceMeters>NAN</DistanceMeters>
          </Trackpoint>
          <Trackpoint>
            <Time>2020-05-25T07:09:23.000Z</Time>
            <Position>
              <LatitudeDegrees>38.1316330097615718841552734375</LatitudeDegrees>
              <LongitudeDegrees>-1.13781452178955078125</LongitudeDegrees>
            </Position>
            <AltitudeMeters>125.59999847412109375</AltitudeMeters>
            <DistanceMeters>NAN</DistanceMeters>
          </Trackpoint>
          <Trackpoint>
            <Time>2020-05-25T07:09:24.000Z</Time>
            <Position>
              <LatitudeDegrees>38.1315911002457141876220703125</LatitudeDegrees>
              <LongitudeDegrees>-1.13791803829371929168701171875</LongitudeDegrees>
            </Position>
            <AltitudeMeters>125.59999847412109375</AltitudeMeters>
            <DistanceMeters>NAN</DistanceMeters>
          </Trackpoint>
          <Trackpoint>
            <Time>2020-05-25T07:09:25.000Z</Time>
            <Position>
              <LatitudeDegrees>38.13154659233987331390380859375</LatitudeDegrees>
              <LongitudeDegrees>-1.13802130334079265594482421875</LongitudeDegrees>
            </Position>
            <AltitudeMeters>125.40000152587890625</AltitudeMeters>
            <DistanceMeters>NAN</DistanceMeters>
          </Trackpoint>
          <Trackpoint>
            <Time>2020-05-25T07:09:26.000Z</Time>
            <Position>
              <LatitudeDegrees>38.13150099478662014007568359375</LatitudeDegrees>
              <LongitudeDegrees>-1.138123981654644012451171875</LongitudeDegrees>
            </Position>
            <AltitudeMeters>125.40000152587890625</AltitudeMeters>
            <DistanceMeters>NAN</DistanceMeters>
          </Trackpoint>
          <Trackpoint>
            <Time>2020-05-25T07:09:27.000Z</Time>
            <Position>
              <LatitudeDegrees>38.131455816328525543212890625</LatitudeDegrees>
              <LongitudeDegrees>-1.138224899768829345703125</LongitudeDegrees>
            </Position>
            <AltitudeMeters>125.40000152587890625</AltitudeMeters>
            <DistanceMeters>NAN</DistanceMeters>
          </Trackpoint>
          <Trackpoint>
            <Time>2020-05-25T07:09:28.000Z</Time>
            <Position>
              <LatitudeDegrees>38.13140661455690860748291015625</LatitudeDegrees>
              <LongitudeDegrees>-1.138324476778507232666015625</LongitudeDegrees>
            </Position>
            <AltitudeMeters>125.40000152587890625</AltitudeMeters>
            <DistanceMeters>NAN</DistanceMeters>
          </Trackpoint>
          <Trackpoint>
            <Time>2020-05-25T07:09:29.000Z</Time>
            <Position>
              <LatitudeDegrees>38.13135380856692790985107421875</LatitudeDegrees>
              <LongitudeDegrees>-1.13842137157917022705078125</LongitudeDegrees>
            </Position>
            <AltitudeMeters>125.40000152587890625</AltitudeMeters>
            <DistanceMeters>NAN</DistanceMeters>
          </Trackpoint>
          <Trackpoint>
            <Time>2020-05-25T07:09:30.000Z</Time>
            <Position>
              <LatitudeDegrees>38.13129614107310771942138671875</LatitudeDegrees>
              <LongitudeDegrees>-1.1385154165327548980712890625</LongitudeDegrees>
            </Position>
            <AltitudeMeters>125.40000152587890625</AltitudeMeters>
            <DistanceMeters>NAN</DistanceMeters>
          </Trackpoint>
          <Trackpoint>
            <Time>2020-05-25T07:09:31.000Z</Time>
            <Position>
              <LatitudeDegrees>38.13123562373220920562744140625</LatitudeDegrees>
              <LongitudeDegrees>-1.13860501907765865325927734375</LongitudeDegrees>
            </Position>
            <AltitudeMeters>125.40000152587890625</AltitudeMeters>
            <DistanceMeters>NAN</DistanceMeters>
          </Trackpoint>
          <Trackpoint>
            <Time>2020-05-25T07:09:32.000Z</Time>
            <Position>
              <LatitudeDegrees>38.1311733461916446685791015625</LatitudeDegrees>
              <LongitudeDegrees>-1.13869034685194492340087890625</LongitudeDegrees>
            </Position>
            <AltitudeMeters>125.1999969482421875</AltitudeMeters>
            <DistanceMeters>NAN</DistanceMeters>
          </Trackpoint>
          <Trackpoint>
            <Time>2020-05-25T07:09:33.000Z</Time>
            <Position>
              <LatitudeDegrees>38.1311096437275409698486328125</LatitudeDegrees>
              <LongitudeDegrees>-1.138773076236248016357421875</LongitudeDegrees>
            </Position>
            <AltitudeMeters>125.1999969482421875</AltitudeMeters>
            <DistanceMeters>NAN</DistanceMeters>
          </Trackpoint>
          <Trackpoint>
            <Time>2020-05-25T07:09:34.000Z</Time>
            <Position>
              <LatitudeDegrees>38.13104602508246898651123046875</LatitudeDegrees>
              <LongitudeDegrees>-1.13884910009801387786865234375</LongitudeDegrees>
            </Position>
            <AltitudeMeters>125.1999969482421875</AltitudeMeters>
            <DistanceMeters>NAN</DistanceMeters>
          </Trackpoint>
          <Trackpoint>
            <Time>2020-05-25T07:09:35.000Z</Time>
            <Position>
              <LatitudeDegrees>38.13098148442804813385009765625</LatitudeDegrees>
              <LongitudeDegrees>-1.13892294466495513916015625</LongitudeDegrees>
            </Position>
            <AltitudeMeters>125</AltitudeMeters>
            <DistanceMeters>NAN</DistanceMeters>
          </Trackpoint>
          <Trackpoint>
            <Time>2020-05-25T07:09:36.000Z</Time>
            <Position>
              <LatitudeDegrees>38.13091409392654895782470703125</LatitudeDegrees>
              <LongitudeDegrees>-1.1389915086328983306884765625</LongitudeDegrees>
            </Position>
            <AltitudeMeters>125.40000152587890625</AltitudeMeters>
            <DistanceMeters>NAN</DistanceMeters>
          </Trackpoint>
          <Trackpoint>
            <Time>2020-05-25T07:09:37.000Z</Time>
            <Position>
              <LatitudeDegrees>38.13084368593990802764892578125</LatitudeDegrees>
              <LongitudeDegrees>-1.1390525288879871368408203125</LongitudeDegrees>
            </Position>
            <AltitudeMeters>126</AltitudeMeters>
            <DistanceMeters>NAN</DistanceMeters>
          </Trackpoint>
          <Trackpoint>
            <Time>2020-05-25T07:09:38.000Z</Time>
            <Position>
              <LatitudeDegrees>38.13077243976294994354248046875</LatitudeDegrees>
              <LongitudeDegrees>-1.13910810090601444244384765625</LongitudeDegrees>
            </Position>
            <AltitudeMeters>126.40000152587890625</AltitudeMeters>
            <DistanceMeters>NAN</DistanceMeters>
          </Trackpoint>
          <Trackpoint>
            <Time>2020-05-25T07:09:39.000Z</Time>
            <Position>
              <LatitudeDegrees>38.13070102594792842864990234375</LatitudeDegrees>
              <LongitudeDegrees>-1.13916057161986827850341796875</LongitudeDegrees>
            </Position>
            <AltitudeMeters>126.8000030517578125</AltitudeMeters>
            <DistanceMeters>NAN</DistanceMeters>
          </Trackpoint>
          <Trackpoint>
            <Time>2020-05-25T07:09:40.000Z</Time>
            <Position>
              <LatitudeDegrees>38.13062927685678005218505859375</LatitudeDegrees>
              <LongitudeDegrees>-1.13920885138213634490966796875</LongitudeDegrees>
            </Position>
            <AltitudeMeters>127.40000152587890625</AltitudeMeters>
            <DistanceMeters>NAN</DistanceMeters>
          </Trackpoint>
          <Trackpoint>
            <Time>2020-05-25T07:09:41.000Z</Time>
            <Position>
              <LatitudeDegrees>38.1305577792227268218994140625</LatitudeDegrees>
              <LongitudeDegrees>-1.1392547003924846649169921875</LongitudeDegrees>
            </Position>
            <AltitudeMeters>127.8000030517578125</AltitudeMeters>
            <DistanceMeters>NAN</DistanceMeters>
          </Trackpoint>
          <Trackpoint>
            <Time>2020-05-25T07:09:42.000Z</Time>
            <Position>
              <LatitudeDegrees>38.1304863654077053070068359375</LatitudeDegrees>
              <LongitudeDegrees>-1.1392992921173572540283203125</LongitudeDegrees>
            </Position>
            <AltitudeMeters>128.1999969482421875</AltitudeMeters>
            <DistanceMeters>NAN</DistanceMeters>
          </Trackpoint>
          <Trackpoint>
            <Time>2020-05-25T07:09:43.000Z</Time>
            <Position>
              <LatitudeDegrees>38.13041587360203266143798828125</LatitudeDegrees>
              <LongitudeDegrees>-1.13934597931802272796630859375</LongitudeDegrees>
            </Position>
            <AltitudeMeters>128.600006103515625</AltitudeMeters>
            <DistanceMeters>NAN</DistanceMeters>
          </Trackpoint>
          <Trackpoint>
            <Time>2020-05-25T07:09:44.000Z</Time>
            <Position>
              <LatitudeDegrees>38.1303472258150577545166015625</LatitudeDegrees>
              <LongitudeDegrees>-1.13939342088997364044189453125</LongitudeDegrees>
            </Position>
            <AltitudeMeters>129</AltitudeMeters>
            <DistanceMeters>NAN</DistanceMeters>
          </Trackpoint>
          <Trackpoint>
            <Time>2020-05-25T07:09:45.000Z</Time>
            <Position>
              <LatitudeDegrees>38.13027975149452686309814453125</LatitudeDegrees>
              <LongitudeDegrees>-1.13944086246192455291748046875</LongitudeDegrees>
            </Position>
            <AltitudeMeters>129.399993896484375</AltitudeMeters>
            <DistanceMeters>NAN</DistanceMeters>
          </Trackpoint>
          <Trackpoint>
            <Time>2020-05-25T07:09:46.000Z</Time>
            <Position>
              <LatitudeDegrees>38.1302137859165668487548828125</LatitudeDegrees>
              <LongitudeDegrees>-1.13948780111968517303466796875</LongitudeDegrees>
            </Position>
            <AltitudeMeters>129.8000030517578125</AltitudeMeters>
            <DistanceMeters>NAN</DistanceMeters>
          </Trackpoint>
          <Trackpoint>
            <Time>2020-05-25T07:09:47.000Z</Time>
            <Position>
              <LatitudeDegrees>38.1301514245569705963134765625</LatitudeDegrees>
              <LongitudeDegrees>-1.139533817768096923828125</LongitudeDegrees>
            </Position>
            <AltitudeMeters>130.1999969482421875</AltitudeMeters>
            <DistanceMeters>NAN</DistanceMeters>
          </Trackpoint>
          <Trackpoint>
            <Time>2020-05-25T07:09:48.000Z</Time>
            <Position>
              <LatitudeDegrees>38.13009048812091350555419921875</LatitudeDegrees>
              <LongitudeDegrees>-1.1395819298923015594482421875</LongitudeDegrees>
            </Position>
            <AltitudeMeters>130.600006103515625</AltitudeMeters>
            <DistanceMeters>NAN</DistanceMeters>
          </Trackpoint>
          <Trackpoint>
            <Time>2020-05-25T07:09:49.000Z</Time>
            <Position>
              <LatitudeDegrees>38.13003122806549072265625</LatitudeDegrees>
              <LongitudeDegrees>-1.13963046111166477203369140625</LongitudeDegrees>
            </Position>
            <AltitudeMeters>130.8000030517578125</AltitudeMeters>
            <DistanceMeters>NAN</DistanceMeters>
          </Trackpoint>
          <Trackpoint>
            <Time>2020-05-25T07:09:50.000Z</Time>
            <Position>
              <LatitudeDegrees>38.12997381202876567840576171875</LatitudeDegrees>
              <LongitudeDegrees>-1.139683015644550323486328125</LongitudeDegrees>
            </Position>
            <AltitudeMeters>131.1999969482421875</AltitudeMeters>
            <DistanceMeters>NAN</DistanceMeters>
          </Trackpoint>
          <Trackpoint>
            <Time>2020-05-25T07:09:51.000Z</Time>
            <Position>
              <LatitudeDegrees>38.12991815619170665740966796875</LatitudeDegrees>
              <LongitudeDegrees>-1.1397364921867847442626953125</LongitudeDegrees>
            </Position>
            <AltitudeMeters>131.600006103515625</AltitudeMeters>
            <DistanceMeters>NAN</DistanceMeters>
          </Trackpoint>
          <Trackpoint>
            <Time>2020-05-25T07:09:52.000Z</Time>
            <Position>
              <LatitudeDegrees>38.129864595830440521240234375</LatitudeDegrees>
              <LongitudeDegrees>-1.1397887952625751495361328125</LongitudeDegrees>
            </Position>
            <AltitudeMeters>131.8000030517578125</AltitudeMeters>
            <DistanceMeters>NAN</DistanceMeters>
          </Trackpoint>
          <Trackpoint>
            <Time>2020-05-25T07:09:53.000Z</Time>
            <Position>
              <LatitudeDegrees>38.1298117898404598236083984375</LatitudeDegrees>
              <LongitudeDegrees>-1.13984067924320697784423828125</LongitudeDegrees>
            </Position>
            <AltitudeMeters>131.8000030517578125</AltitudeMeters>
            <DistanceMeters>NAN</DistanceMeters>
          </Trackpoint>
          <Trackpoint>
            <Time>2020-05-25T07:09:54.000Z</Time>
            <Position>
              <LatitudeDegrees>38.1297616660594940185546875</LatitudeDegrees>
              <LongitudeDegrees>-1.13989801146090030670166015625</LongitudeDegrees>
            </Position>
            <AltitudeMeters>131.8000030517578125</AltitudeMeters>
            <DistanceMeters>NAN</DistanceMeters>
          </Trackpoint>
          <Trackpoint>
            <Time>2020-05-25T07:09:55.000Z</Time>
            <Position>
              <LatitudeDegrees>38.1297107040882110595703125</LatitudeDegrees>
              <LongitudeDegrees>-1.13995567895472049713134765625</LongitudeDegrees>
            </Position>
            <AltitudeMeters>131.8000030517578125</AltitudeMeters>
            <DistanceMeters>NAN</DistanceMeters>
          </Trackpoint>
          <Trackpoint>
            <Time>2020-05-25T07:09:56.000Z</Time>
            <Position>
              <LatitudeDegrees>38.129661418497562408447265625</LatitudeDegrees>
              <LongitudeDegrees>-1.14001334644854068756103515625</LongitudeDegrees>
            </Position>
            <AltitudeMeters>131.8000030517578125</AltitudeMeters>
            <DistanceMeters>NAN</DistanceMeters>
          </Trackpoint>
          <Trackpoint>
            <Time>2020-05-25T07:09:57.000Z</Time>
            <Position>
              <LatitudeDegrees>38.12961607240140438079833984375</LatitudeDegrees>
              <LongitudeDegrees>-1.14007486961781978607177734375</LongitudeDegrees>
            </Position>
            <AltitudeMeters>131.8000030517578125</AltitudeMeters>
            <DistanceMeters>NAN</DistanceMeters>
          </Trackpoint>
          <Trackpoint>
            <Time>2020-05-25T07:09:58.000Z</Time>
            <Position>
              <LatitudeDegrees>38.12957282178103923797607421875</LatitudeDegrees>
              <LongitudeDegrees>-1.14013798534870147705078125</LongitudeDegrees>
            </Position>
            <AltitudeMeters>131.8000030517578125</AltitudeMeters>
            <DistanceMeters>NAN</DistanceMeters>
          </Trackpoint>
          <Trackpoint>
            <Time>2020-05-25T07:09:59.000Z</Time>
            <Position>
              <LatitudeDegrees>38.12952823005616664886474609375</LatitudeDegrees>
              <LongitudeDegrees>-1.140201352536678314208984375</LongitudeDegrees>
            </Position>
            <AltitudeMeters>131.8000030517578125</AltitudeMeters>
            <DistanceMeters>NAN</DistanceMeters>
          </Trackpoint>
          <Trackpoint>
            <Time>2020-05-25T07:10:00.000Z</Time>
            <Position>
              <LatitudeDegrees>38.1294835545122623443603515625</LatitudeDegrees>
              <LongitudeDegrees>-1.1402620375156402587890625</LongitudeDegrees>
            </Position>
            <AltitudeMeters>131.8000030517578125</AltitudeMeters>
            <DistanceMeters>NAN</DistanceMeters>
          </Trackpoint>
          <Trackpoint>
            <Time>2020-05-25T07:10:01.000Z</Time>
            <Position>
              <LatitudeDegrees>38.1294392980635166168212890625</LatitudeDegrees>
              <LongitudeDegrees>-1.140325404703617095947265625</LongitudeDegrees>
            </Position>
            <AltitudeMeters>131.8000030517578125</AltitudeMeters>
            <DistanceMeters>NAN</DistanceMeters>
          </Trackpoint>
          <Trackpoint>
            <Time>2020-05-25T07:10:02.000Z</Time>
            <Position>
              <LatitudeDegrees>38.12938422895967960357666015625</LatitudeDegrees>
              <LongitudeDegrees>-1.140408217906951904296875</LongitudeDegrees>
            </Position>
            <AltitudeMeters>131.8000030517578125</AltitudeMeters>
            <DistanceMeters>NAN</DistanceMeters>
          </Trackpoint>
          <Trackpoint>
            <Time>2020-05-25T07:10:03.000Z</Time>
            <Position>
              <LatitudeDegrees>38.1293356977403163909912109375</LatitudeDegrees>
              <LongitudeDegrees>-1.1404873430728912353515625</LongitudeDegrees>
            </Position>
            <AltitudeMeters>132</AltitudeMeters>
            <DistanceMeters>NAN</DistanceMeters>
          </Trackpoint>
          <Trackpoint>
            <Time>2020-05-25T07:10:04.000Z</Time>
            <Position>
              <LatitudeDegrees>38.1292954646050930023193359375</LatitudeDegrees>
              <LongitudeDegrees>-1.14055615849792957305908203125</LongitudeDegrees>
            </Position>
            <AltitudeMeters>132</AltitudeMeters>
            <DistanceMeters>NAN</DistanceMeters>
          </Trackpoint>
          <Trackpoint>
            <Time>2020-05-25T07:10:05.000Z</Time>
            <Position>
              <LatitudeDegrees>38.12925942242145538330078125</LatitudeDegrees>
              <LongitudeDegrees>-1.14062857814133167266845703125</LongitudeDegrees>
            </Position>
            <AltitudeMeters>132.1999969482421875</AltitudeMeters>
            <DistanceMeters>NAN</DistanceMeters>
          </Trackpoint>
          <Trackpoint>
            <Time>2020-05-25T07:10:06.000Z</Time>
            <Position>
              <LatitudeDegrees>38.12922648154199123382568359375</LatitudeDegrees>
              <LongitudeDegrees>-1.1407020874321460723876953125</LongitudeDegrees>
            </Position>
            <AltitudeMeters>132.399993896484375</AltitudeMeters>
            <DistanceMeters>NAN</DistanceMeters>
          </Trackpoint>
          <Trackpoint>
            <Time>2020-05-25T07:10:07.000Z</Time>
            <Position>
              <LatitudeDegrees>38.12919563613831996917724609375</LatitudeDegrees>
              <LongitudeDegrees>-1.140778362751007080078125</LongitudeDegrees>
            </Position>
            <AltitudeMeters>132.8000030517578125</AltitudeMeters>
            <DistanceMeters>NAN</DistanceMeters>
          </Trackpoint>
          <Trackpoint>
            <Time>2020-05-25T07:10:08.000Z</Time>
            <Position>
              <LatitudeDegrees>38.12916579656302928924560546875</LatitudeDegrees>
              <LongitudeDegrees>-1.14085924811661243438720703125</LongitudeDegrees>
            </Position>
            <AltitudeMeters>133.1999969482421875</AltitudeMeters>
            <DistanceMeters>NAN</DistanceMeters>
          </Trackpoint>
          <Trackpoint>
            <Time>2020-05-25T07:10:09.000Z</Time>
            <Position>
              <LatitudeDegrees>38.12913796864449977874755859375</LatitudeDegrees>
              <LongitudeDegrees>-1.14093728363513946533203125</LongitudeDegrees>
            </Position>
            <AltitudeMeters>133.600006103515625</AltitudeMeters>
            <DistanceMeters>NAN</DistanceMeters>
          </Trackpoint>
          <Trackpoint>
            <Time>2020-05-25T07:10:10.000Z</Time>
            <Position>
              <LatitudeDegrees>38.129111565649509429931640625</LatitudeDegrees>
              <LongitudeDegrees>-1.141012720763683319091796875</LongitudeDegrees>
            </Position>
            <AltitudeMeters>134</AltitudeMeters>
            <DistanceMeters>NAN</DistanceMeters>
          </Trackpoint>
          <Trackpoint>
            <Time>2020-05-25T07:10:11.000Z</Time>
            <Position>
              <LatitudeDegrees>38.12908910214900970458984375</LatitudeDegrees>
              <LongitudeDegrees>-1.14108790643513202667236328125</LongitudeDegrees>
            </Position>
            <AltitudeMeters>134.399993896484375</AltitudeMeters>
            <DistanceMeters>NAN</DistanceMeters>
          </Trackpoint>
          <Trackpoint>
            <Time>2020-05-25T07:10:12.000Z</Time>
            <Position>
              <LatitudeDegrees>38.129067979753017425537109375</LatitudeDegrees>
              <LongitudeDegrees>-1.14116334356367588043212890625</LongitudeDegrees>
            </Position>
            <AltitudeMeters>134.8000030517578125</AltitudeMeters>
            <DistanceMeters>NAN</DistanceMeters>
          </Trackpoint>
          <Trackpoint>
            <Time>2020-05-25T07:10:13.000Z</Time>
            <Position>
              <LatitudeDegrees>38.1290480308234691619873046875</LatitudeDegrees>
              <LongitudeDegrees>-1.14123458974063396453857421875</LongitudeDegrees>
            </Position>
            <AltitudeMeters>135.1999969482421875</AltitudeMeters>
            <DistanceMeters>NAN</DistanceMeters>
          </Trackpoint>
          <Trackpoint>
            <Time>2020-05-25T07:10:14.000Z</Time>
            <Position>
              <LatitudeDegrees>38.1290279142558574676513671875</LatitudeDegrees>
              <LongitudeDegrees>-1.14130516536533832550048828125</LongitudeDegrees>
            </Position>
            <AltitudeMeters>135.600006103515625</AltitudeMeters>
            <DistanceMeters>NAN</DistanceMeters>
          </Trackpoint>
          <Trackpoint>
            <Time>2020-05-25T07:10:15.000Z</Time>
            <Position>
              <LatitudeDegrees>38.12900788150727748870849609375</LatitudeDegrees>
              <LongitudeDegrees>-1.1413763277232646942138671875</LongitudeDegrees>
            </Position>
            <AltitudeMeters>136</AltitudeMeters>
            <DistanceMeters>NAN</DistanceMeters>
          </Trackpoint>
          <Trackpoint>
            <Time>2020-05-25T07:10:16.000Z</Time>
            <Position>
              <LatitudeDegrees>38.12898877076804637908935546875</LatitudeDegrees>
              <LongitudeDegrees>-1.14144883118569850921630859375</LongitudeDegrees>
            </Position>
            <AltitudeMeters>136.399993896484375</AltitudeMeters>
            <DistanceMeters>NAN</DistanceMeters>
          </Trackpoint>
          <Trackpoint>
            <Time>2020-05-25T07:10:17.000Z</Time>
            <Position>
              <LatitudeDegrees>38.12896966002881526947021484375</LatitudeDegrees>
              <LongitudeDegrees>-1.1415211670100688934326171875</LongitudeDegrees>
            </Position>
            <AltitudeMeters>136.399993896484375</AltitudeMeters>
            <DistanceMeters>NAN</DistanceMeters>
          </Trackpoint>
          <Trackpoint>
            <Time>2020-05-25T07:10:18.000Z</Time>
            <Position>
              <LatitudeDegrees>38.12894853763282299041748046875</LatitudeDegrees>
              <LongitudeDegrees>-1.14159216172993183135986328125</LongitudeDegrees>
            </Position>
            <AltitudeMeters>136.399993896484375</AltitudeMeters>
            <DistanceMeters>NAN</DistanceMeters>
          </Trackpoint>
          <Trackpoint>
            <Time>2020-05-25T07:10:19.000Z</Time>
            <Position>
              <LatitudeDegrees>38.12892825342714786529541015625</LatitudeDegrees>
              <LongitudeDegrees>-1.14166541956365108489990234375</LongitudeDegrees>
            </Position>
            <AltitudeMeters>136.399993896484375</AltitudeMeters>
            <DistanceMeters>NAN</DistanceMeters>
          </Trackpoint>
          <Trackpoint>
            <Time>2020-05-25T07:10:20.000Z</Time>
            <Position>
              <LatitudeDegrees>38.12890763394534587860107421875</LatitudeDegrees>
              <LongitudeDegrees>-1.1417397670447826385498046875</LongitudeDegrees>
            </Position>
            <AltitudeMeters>136.399993896484375</AltitudeMeters>
            <DistanceMeters>NAN</DistanceMeters>
          </Trackpoint>
          <Trackpoint>
            <Time>2020-05-25T07:10:21.000Z</Time>
            <Position>
              <LatitudeDegrees>38.128886930644512176513671875</LatitudeDegrees>
              <LongitudeDegrees>-1.1418125219643115997314453125</LongitudeDegrees>
            </Position>
            <AltitudeMeters>136.600006103515625</AltitudeMeters>
            <DistanceMeters>NAN</DistanceMeters>
          </Trackpoint>
          <Trackpoint>
            <Time>2020-05-25T07:10:22.000Z</Time>
            <Position>
              <LatitudeDegrees>38.1288659758865833282470703125</LatitudeDegrees>
              <LongitudeDegrees>-1.1418862827122211456298828125</LongitudeDegrees>
            </Position>
            <AltitudeMeters>136.600006103515625</AltitudeMeters>
            <DistanceMeters>NAN</DistanceMeters>
          </Trackpoint>
          <Trackpoint>
            <Time>2020-05-25T07:10:23.000Z</Time>
            <Position>
              <LatitudeDegrees>38.12884426675736904144287109375</LatitudeDegrees>
              <LongitudeDegrees>-1.1419613845646381378173828125</LongitudeDegrees>
            </Position>
            <AltitudeMeters>136.600006103515625</AltitudeMeters>
            <DistanceMeters>NAN</DistanceMeters>
          </Trackpoint>
          <Trackpoint>
            <Time>2020-05-25T07:10:24.000Z</Time>
            <Position>
              <LatitudeDegrees>38.12882222235202789306640625</LatitudeDegrees>
              <LongitudeDegrees>-1.14203623495995998382568359375</LongitudeDegrees>
            </Position>
            <AltitudeMeters>136.600006103515625</AltitudeMeters>
            <DistanceMeters>NAN</DistanceMeters>
          </Trackpoint>
          <Trackpoint>
            <Time>2020-05-25T07:10:25.000Z</Time>
            <Position>
              <LatitudeDegrees>38.12880076467990875244140625</LatitudeDegrees>
              <LongitudeDegrees>-1.142109744250774383544921875</LongitudeDegrees>
            </Position>
            <AltitudeMeters>136.600006103515625</AltitudeMeters>
            <DistanceMeters>NAN</DistanceMeters>
          </Trackpoint>
          <Trackpoint>
            <Time>2020-05-25T07:10:26.000Z</Time>
            <Position>
              <LatitudeDegrees>38.1287774629890918731689453125</LatitudeDegrees>
              <LongitudeDegrees>-1.14218182861804962158203125</LongitudeDegrees>
            </Position>
            <AltitudeMeters>136.8000030517578125</AltitudeMeters>
            <DistanceMeters>NAN</DistanceMeters>
          </Trackpoint>
          <Trackpoint>
            <Time>2020-05-25T07:10:27.000Z</Time>
            <Position>
              <LatitudeDegrees>38.1287513114511966705322265625</LatitudeDegrees>
              <LongitudeDegrees>-1.1422524042427539825439453125</LongitudeDegrees>
            </Position>
            <AltitudeMeters>136.8000030517578125</AltitudeMeters>
            <DistanceMeters>NAN</DistanceMeters>
          </Trackpoint>
          <Trackpoint>
            <Time>2020-05-25T07:10:28.000Z</Time>
            <Position>
              <LatitudeDegrees>38.12872339971363544464111328125</LatitudeDegrees>
              <LongitudeDegrees>-1.142323315143585205078125</LongitudeDegrees>
            </Position>
            <AltitudeMeters>136.8000030517578125</AltitudeMeters>
            <DistanceMeters>NAN</DistanceMeters>
          </Trackpoint>
          <Trackpoint>
            <Time>2020-05-25T07:10:29.000Z</Time>
            <Position>
              <LatitudeDegrees>38.12869406305253505706787109375</LatitudeDegrees>
              <LongitudeDegrees>-1.1423942260444164276123046875</LongitudeDegrees>
            </Position>
            <AltitudeMeters>137</AltitudeMeters>
            <DistanceMeters>NAN</DistanceMeters>
          </Trackpoint>
          <Trackpoint>
            <Time>2020-05-25T07:10:30.000Z</Time>
            <Position>
              <LatitudeDegrees>38.12866254709661006927490234375</LatitudeDegrees>
              <LongitudeDegrees>-1.14246404729783535003662109375</LongitudeDegrees>
            </Position>
            <AltitudeMeters>137</AltitudeMeters>
            <DistanceMeters>NAN</DistanceMeters>
          </Trackpoint>
          <Trackpoint>
            <Time>2020-05-25T07:10:31.000Z</Time>
            <Position>
              <LatitudeDegrees>38.12862885184586048126220703125</LatitudeDegrees>
              <LongitudeDegrees>-1.1425330303609371185302734375</LongitudeDegrees>
            </Position>
            <AltitudeMeters>137</AltitudeMeters>
            <DistanceMeters>NAN</DistanceMeters>
          </Trackpoint>
          <Trackpoint>
            <Time>2020-05-25T07:10:32.000Z</Time>
            <Position>
              <LatitudeDegrees>38.12859146855771541595458984375</LatitudeDegrees>
              <LongitudeDegrees>-1.14260083995759487152099609375</LongitudeDegrees>
            </Position>
            <AltitudeMeters>137.1999969482421875</AltitudeMeters>
            <DistanceMeters>NAN</DistanceMeters>
          </Trackpoint>
          <Trackpoint>
            <Time>2020-05-25T07:10:33.000Z</Time>
            <Position>
              <LatitudeDegrees>38.1285524927079677581787109375</LatitudeDegrees>
              <LongitudeDegrees>-1.14266957156360149383544921875</LongitudeDegrees>
            </Position>
            <AltitudeMeters>137.1999969482421875</AltitudeMeters>
            <DistanceMeters>NAN</DistanceMeters>
          </Trackpoint>
          <Trackpoint>
            <Time>2020-05-25T07:10:34.000Z</Time>
            <Position>
              <LatitudeDegrees>38.12851184047758579254150390625</LatitudeDegrees>
              <LongitudeDegrees>-1.14273528568446636199951171875</LongitudeDegrees>
            </Position>
            <AltitudeMeters>137.1999969482421875</AltitudeMeters>
            <DistanceMeters>NAN</DistanceMeters>
          </Trackpoint>
          <Trackpoint>
            <Time>2020-05-25T07:10:35.000Z</Time>
            <Position>
              <LatitudeDegrees>38.1284703500568866729736328125</LatitudeDegrees>
              <LongitudeDegrees>-1.14280007779598236083984375</LongitudeDegrees>
            </Position>
            <AltitudeMeters>137.399993896484375</AltitudeMeters>
            <DistanceMeters>NAN</DistanceMeters>
          </Trackpoint>
          <Trackpoint>
            <Time>2020-05-25T07:10:36.000Z</Time>
            <Position>
              <LatitudeDegrees>38.1284274347126483917236328125</LatitudeDegrees>
              <LongitudeDegrees>-1.14286235533654689788818359375</LongitudeDegrees>
            </Position>
            <AltitudeMeters>137.399993896484375</AltitudeMeters>
            <DistanceMeters>NAN</DistanceMeters>
          </Trackpoint>
          <Trackpoint>
            <Time>2020-05-25T07:10:37.000Z</Time>
            <Position>
              <LatitudeDegrees>38.1283838488161563873291015625</LatitudeDegrees>
              <LongitudeDegrees>-1.14292454905807971954345703125</LongitudeDegrees>
            </Position>
            <AltitudeMeters>137.399993896484375</AltitudeMeters>
            <DistanceMeters>NAN</DistanceMeters>
          </Trackpoint>
          <Trackpoint>
            <Time>2020-05-25T07:10:38.000Z</Time>
            <Position>
              <LatitudeDegrees>38.12833984382450580596923828125</LatitudeDegrees>
              <LongitudeDegrees>-1.14298607222735881805419921875</LongitudeDegrees>
            </Position>
            <AltitudeMeters>137.600006103515625</AltitudeMeters>
            <DistanceMeters>NAN</DistanceMeters>
          </Trackpoint>
          <Trackpoint>
            <Time>2020-05-25T07:10:39.000Z</Time>
            <Position>
              <LatitudeDegrees>38.1282939948141574859619140625</LatitudeDegrees>
              <LongitudeDegrees>-1.143047846853733062744140625</LongitudeDegrees>
            </Position>
            <AltitudeMeters>137.600006103515625</AltitudeMeters>
            <DistanceMeters>NAN</DistanceMeters>
          </Trackpoint>
          <Trackpoint>
            <Time>2020-05-25T07:10:40.000Z</Time>
            <Position>
              <LatitudeDegrees>38.12824898399412631988525390625</LatitudeDegrees>
              <LongitudeDegrees>-1.14310844801366329193115234375</LongitudeDegrees>
            </Position>
            <AltitudeMeters>137.8000030517578125</AltitudeMeters>
            <DistanceMeters>NAN</DistanceMeters>
          </Trackpoint>
          <Trackpoint>
            <Time>2020-05-25T07:10:41.000Z</Time>
            <Position>
              <LatitudeDegrees>38.12820372171700000762939453125</LatitudeDegrees>
              <LongitudeDegrees>-1.14317022264003753662109375</LongitudeDegrees>
            </Position>
            <AltitudeMeters>137.8000030517578125</AltitudeMeters>
            <DistanceMeters>NAN</DistanceMeters>
          </Trackpoint>
          <Trackpoint>
            <Time>2020-05-25T07:10:42.000Z</Time>
            <Position>
              <LatitudeDegrees>38.12815778888761997222900390625</LatitudeDegrees>
              <LongitudeDegrees>-1.1432310752570629119873046875</LongitudeDegrees>
            </Position>
            <AltitudeMeters>138</AltitudeMeters>
            <DistanceMeters>NAN</DistanceMeters>
          </Trackpoint>
          <Trackpoint>
            <Time>2020-05-25T07:10:43.000Z</Time>
            <Position>
              <LatitudeDegrees>38.12811085022985935211181640625</LatitudeDegrees>
              <LongitudeDegrees>-1.14329217933118343353271484375</LongitudeDegrees>
            </Position>
            <AltitudeMeters>138</AltitudeMeters>
            <DistanceMeters>NAN</DistanceMeters>
          </Trackpoint>
          <Trackpoint>
            <Time>2020-05-25T07:10:44.000Z</Time>
            <Position>
              <LatitudeDegrees>38.12806508503854274749755859375</LatitudeDegrees>
              <LongitudeDegrees>-1.1433541215956211090087890625</LongitudeDegrees>
            </Position>
            <AltitudeMeters>138.1999969482421875</AltitudeMeters>
            <DistanceMeters>NAN</DistanceMeters>
          </Trackpoint>
          <Trackpoint>
            <Time>2020-05-25T07:10:45.000Z</Time>
            <Position>
              <LatitudeDegrees>38.128018565475940704345703125</LatitudeDegrees>
              <LongitudeDegrees>-1.14341623149812221527099609375</LongitudeDegrees>
            </Position>
            <AltitudeMeters>138.1999969482421875</AltitudeMeters>
            <DistanceMeters>NAN</DistanceMeters>
          </Trackpoint>
          <Trackpoint>
            <Time>2020-05-25T07:10:46.000Z</Time>
            <Position>
              <LatitudeDegrees>38.127970956265926361083984375</LatitudeDegrees>
              <LongitudeDegrees>-1.14347808994352817535400390625</LongitudeDegrees>
            </Position>
            <AltitudeMeters>138.399993896484375</AltitudeMeters>
            <DistanceMeters>NAN</DistanceMeters>
          </Trackpoint>
          <Trackpoint>
            <Time>2020-05-25T07:10:47.000Z</Time>
            <Position>
              <LatitudeDegrees>38.12792477197945117950439453125</LatitudeDegrees>
              <LongitudeDegrees>-1.14353927783668041229248046875</LongitudeDegrees>
            </Position>
            <AltitudeMeters>138.399993896484375</AltitudeMeters>
            <DistanceMeters>NAN</DistanceMeters>
          </Trackpoint>
          <Trackpoint>
            <Time>2020-05-25T07:10:48.000Z</Time>
            <Position>
              <LatitudeDegrees>38.127873055636882781982421875</LatitudeDegrees>
              <LongitudeDegrees>-1.14360583014786243438720703125</LongitudeDegrees>
            </Position>
            <AltitudeMeters>138.600006103515625</AltitudeMeters>
            <DistanceMeters>NAN</DistanceMeters>
          </Trackpoint>
          <Trackpoint>
            <Time>2020-05-25T07:10:49.000Z</Time>
            <Position>
              <LatitudeDegrees>38.12782402150332927703857421875</LatitudeDegrees>
              <LongitudeDegrees>-1.143666096031665802001953125</LongitudeDegrees>
            </Position>
            <AltitudeMeters>138.600006103515625</AltitudeMeters>
            <DistanceMeters>NAN</DistanceMeters>
          </Trackpoint>
          <Trackpoint>
            <Time>2020-05-25T07:10:50.000Z</Time>
            <Position>
              <LatitudeDegrees>38.12777490355074405670166015625</LatitudeDegrees>
              <LongitudeDegrees>-1.14372678101062774658203125</LongitudeDegrees>
            </Position>
            <AltitudeMeters>138.600006103515625</AltitudeMeters>
            <DistanceMeters>NAN</DistanceMeters>
          </Trackpoint>
          <Trackpoint>
            <Time>2020-05-25T07:10:51.000Z</Time>
            <Position>
              <LatitudeDegrees>38.12772788107395172119140625</LatitudeDegrees>
              <LongitudeDegrees>-1.14378981292247772216796875</LongitudeDegrees>
            </Position>
            <AltitudeMeters>138.8000030517578125</AltitudeMeters>
            <DistanceMeters>NAN</DistanceMeters>
          </Trackpoint>
          <Trackpoint>
            <Time>2020-05-25T07:10:52.000Z</Time>
            <Position>
              <LatitudeDegrees>38.1276829540729522705078125</LatitudeDegrees>
              <LongitudeDegrees>-1.14385460503399372100830078125</LongitudeDegrees>
            </Position>
            <AltitudeMeters>138.8000030517578125</AltitudeMeters>
            <DistanceMeters>NAN</DistanceMeters>
          </Trackpoint>
          <Trackpoint>
            <Time>2020-05-25T07:10:53.000Z</Time>
            <Position>
              <LatitudeDegrees>38.12763777561485767364501953125</LatitudeDegrees>
              <LongitudeDegrees>-1.14392115734517574310302734375</LongitudeDegrees>
            </Position>
            <AltitudeMeters>139</AltitudeMeters>
            <DistanceMeters>NAN</DistanceMeters>
          </Trackpoint>
          <Trackpoint>
            <Time>2020-05-25T07:10:54.000Z</Time>
            <Position>
              <LatitudeDegrees>38.1275929324328899383544921875</LatitudeDegrees>
              <LongitudeDegrees>-1.1439904756844043731689453125</LongitudeDegrees>
            </Position>
            <AltitudeMeters>139</AltitudeMeters>
            <DistanceMeters>NAN</DistanceMeters>
          </Trackpoint>
          <Trackpoint>
            <Time>2020-05-25T07:10:55.000Z</Time>
            <Position>
              <LatitudeDegrees>38.1275496818125247955322265625</LatitudeDegrees>
              <LongitudeDegrees>-1.14406205713748931884765625</LongitudeDegrees>
            </Position>
            <AltitudeMeters>139</AltitudeMeters>
            <DistanceMeters>NAN</DistanceMeters>
          </Trackpoint>
          <Trackpoint>
            <Time>2020-05-25T07:10:56.000Z</Time>
            <Position>
              <LatitudeDegrees>38.12750928103923797607421875</LatitudeDegrees>
              <LongitudeDegrees>-1.14413707517087459564208984375</LongitudeDegrees>
            </Position>
            <AltitudeMeters>139.1999969482421875</AltitudeMeters>
            <DistanceMeters>NAN</DistanceMeters>
          </Trackpoint>
          <Trackpoint>
            <Time>2020-05-25T07:10:57.000Z</Time>
            <Position>
              <LatitudeDegrees>38.12747399322688579559326171875</LatitudeDegrees>
              <LongitudeDegrees>-1.14422055892646312713623046875</LongitudeDegrees>
            </Position>
            <AltitudeMeters>139.1999969482421875</AltitudeMeters>
            <DistanceMeters>NAN</DistanceMeters>
          </Trackpoint>
          <Trackpoint>
            <Time>2020-05-25T07:10:58.000Z</Time>
            <Position>
              <LatitudeDegrees>38.12743878923356533050537109375</LatitudeDegrees>
              <LongitudeDegrees>-1.1443059705197811126708984375</LongitudeDegrees>
            </Position>
            <AltitudeMeters>139.1999969482421875</AltitudeMeters>
            <DistanceMeters>NAN</DistanceMeters>
          </Trackpoint>
          <Trackpoint>
            <Time>2020-05-25T07:10:59.000Z</Time>
            <Position>
              <LatitudeDegrees>38.127405680716037750244140625</LatitudeDegrees>
              <LongitudeDegrees>-1.14439305849373340606689453125</LongitudeDegrees>
            </Position>
            <AltitudeMeters>139.399993896484375</AltitudeMeters>
            <DistanceMeters>NAN</DistanceMeters>
          </Trackpoint>
          <Trackpoint>
            <Time>2020-05-25T07:11:00.000Z</Time>
            <Position>
              <LatitudeDegrees>38.12737517058849334716796875</LatitudeDegrees>
              <LongitudeDegrees>-1.144481487572193145751953125</LongitudeDegrees>
            </Position>
            <AltitudeMeters>139.399993896484375</AltitudeMeters>
            <DistanceMeters>NAN</DistanceMeters>
          </Trackpoint>
          <Trackpoint>
            <Time>2020-05-25T07:11:01.000Z</Time>
            <Position>
              <LatitudeDegrees>38.1273458339273929595947265625</LatitudeDegrees>
              <LongitudeDegrees>-1.1445728503167629241943359375</LongitudeDegrees>
            </Position>
            <AltitudeMeters>139.600006103515625</AltitudeMeters>
            <DistanceMeters>NAN</DistanceMeters>
          </Trackpoint>
          <Trackpoint>
            <Time>2020-05-25T07:11:02.000Z</Time>
            <Position>
              <LatitudeDegrees>38.1273154914379119873046875</LatitudeDegrees>
              <LongitudeDegrees>-1.1446633748710155487060546875</LongitudeDegrees>
            </Position>
            <AltitudeMeters>139.600006103515625</AltitudeMeters>
            <DistanceMeters>NAN</DistanceMeters>
          </Trackpoint>
          <Trackpoint>
            <Time>2020-05-25T07:11:03.000Z</Time>
            <Position>
              <LatitudeDegrees>38.12728389166295528411865234375</LatitudeDegrees>
              <LongitudeDegrees>-1.14475767128169536590576171875</LongitudeDegrees>
            </Position>
            <AltitudeMeters>139.8000030517578125</AltitudeMeters>
            <DistanceMeters>NAN</DistanceMeters>
          </Trackpoint>
          <Trackpoint>
            <Time>2020-05-25T07:11:04.000Z</Time>
            <Position>
              <LatitudeDegrees>38.12725539319217205047607421875</LatitudeDegrees>
              <LongitudeDegrees>-1.144851632416248321533203125</LongitudeDegrees>
            </Position>
            <AltitudeMeters>139.8000030517578125</AltitudeMeters>
            <DistanceMeters>NAN</DistanceMeters>
          </Trackpoint>
          <Trackpoint>
            <Time>2020-05-25T07:11:05.000Z</Time>
            <Position>
              <LatitudeDegrees>38.127227313816547393798828125</LatitudeDegrees>
              <LongitudeDegrees>-1.14494450390338897705078125</LongitudeDegrees>
            </Position>
            <AltitudeMeters>139.8000030517578125</AltitudeMeters>
            <DistanceMeters>NAN</DistanceMeters>
          </Trackpoint>
          <Trackpoint>
            <Time>2020-05-25T07:11:06.000Z</Time>
            <Position>
              <LatitudeDegrees>38.1272003240883350372314453125</LatitudeDegrees>
              <LongitudeDegrees>-1.14503678865730762481689453125</LongitudeDegrees>
            </Position>
            <AltitudeMeters>139.8000030517578125</AltitudeMeters>
            <DistanceMeters>NAN</DistanceMeters>
          </Trackpoint>
          <Trackpoint>
            <Time>2020-05-25T07:11:07.000Z</Time>
            <Position>
              <LatitudeDegrees>38.12717375345528125762939453125</LatitudeDegrees>
              <LongitudeDegrees>-1.14512848667800426483154296875</LongitudeDegrees>
            </Position>
            <AltitudeMeters>139.8000030517578125</AltitudeMeters>
            <DistanceMeters>NAN</DistanceMeters>
          </Trackpoint>
          <Trackpoint>
            <Time>2020-05-25T07:11:08.000Z</Time>
            <Position>
              <LatitudeDegrees>38.12714642845094203948974609375</LatitudeDegrees>
              <LongitudeDegrees>-1.14522018469870090484619140625</LongitudeDegrees>
            </Position>
            <AltitudeMeters>139.8000030517578125</AltitudeMeters>
            <DistanceMeters>NAN</DistanceMeters>
          </Trackpoint>
          <Trackpoint>
            <Time>2020-05-25T07:11:09.000Z</Time>
            <Position>
              <LatitudeDegrees>38.127121031284332275390625</LatitudeDegrees>
              <LongitudeDegrees>-1.1453101225197315216064453125</LongitudeDegrees>
            </Position>
            <AltitudeMeters>140</AltitudeMeters>
            <DistanceMeters>NAN</DistanceMeters>
          </Trackpoint>
          <Trackpoint>
            <Time>2020-05-25T07:11:10.000Z</Time>
            <Position>
              <LatitudeDegrees>38.1270973943173885345458984375</LatitudeDegrees>
              <LongitudeDegrees>-1.14539905451238155364990234375</LongitudeDegrees>
            </Position>
            <AltitudeMeters>140</AltitudeMeters>
            <DistanceMeters>NAN</DistanceMeters>
          </Trackpoint>
          <Trackpoint>
            <Time>2020-05-25T07:11:11.000Z</Time>
            <Position>
              <LatitudeDegrees>38.12707618810236454010009765625</LatitudeDegrees>
              <LongitudeDegrees>-1.14548807032406330108642578125</LongitudeDegrees>
            </Position>
            <AltitudeMeters>140.1999969482421875</AltitudeMeters>
            <DistanceMeters>NAN</DistanceMeters>
          </Trackpoint>
          <Trackpoint>
            <Time>2020-05-25T07:11:12.000Z</Time>
            <Position>
              <LatitudeDegrees>38.1270574964582920074462890625</LatitudeDegrees>
              <LongitudeDegrees>-1.14557809196412563323974609375</LongitudeDegrees>
            </Position>
            <AltitudeMeters>140.399993896484375</AltitudeMeters>
            <DistanceMeters>NAN</DistanceMeters>
          </Trackpoint>
          <Trackpoint>
            <Time>2020-05-25T07:11:13.000Z</Time>
            <Position>
              <LatitudeDegrees>38.1270419061183929443359375</LatitudeDegrees>
              <LongitudeDegrees>-1.14566928707063198089599609375</LongitudeDegrees>
            </Position>
            <AltitudeMeters>140.1999969482421875</AltitudeMeters>
            <DistanceMeters>NAN</DistanceMeters>
          </Trackpoint>
          <Trackpoint>
            <Time>2020-05-25T07:11:14.000Z</Time>
            <Position>
              <LatitudeDegrees>38.12702648341655731201171875</LatitudeDegrees>
              <LongitudeDegrees>-1.14576567895710468292236328125</LongitudeDegrees>
            </Position>
            <AltitudeMeters>140.1999969482421875</AltitudeMeters>
            <DistanceMeters>NAN</DistanceMeters>
          </Trackpoint>
          <Trackpoint>
            <Time>2020-05-25T07:11:15.000Z</Time>
            <Position>
              <LatitudeDegrees>38.1270165927708148956298828125</LatitudeDegrees>
              <LongitudeDegrees>-1.145862825214862823486328125</LongitudeDegrees>
            </Position>
            <AltitudeMeters>140.1999969482421875</AltitudeMeters>
            <DistanceMeters>NAN</DistanceMeters>
          </Trackpoint>
          <Trackpoint>
            <Time>2020-05-25T07:11:16.000Z</Time>
            <Position>
              <LatitudeDegrees>38.12701349146664142608642578125</LatitudeDegrees>
              <LongitudeDegrees>-1.14596013911068439483642578125</LongitudeDegrees>
            </Position>
            <AltitudeMeters>140.1999969482421875</AltitudeMeters>
            <DistanceMeters>NAN</DistanceMeters>
          </Trackpoint>
          <Trackpoint>
            <Time>2020-05-25T07:11:17.000Z</Time>
            <Position>
              <LatitudeDegrees>38.1270155869424343109130859375</LatitudeDegrees>
              <LongitudeDegrees>-1.146055273711681365966796875</LongitudeDegrees>
            </Position>
            <AltitudeMeters>140.1999969482421875</AltitudeMeters>
            <DistanceMeters>NAN</DistanceMeters>
          </Trackpoint>
          <Trackpoint>
            <Time>2020-05-25T07:11:18.000Z</Time>
            <Position>
              <LatitudeDegrees>38.127019107341766357421875</LatitudeDegrees>
              <LongitudeDegrees>-1.14614923484623432159423828125</LongitudeDegrees>
            </Position>
            <AltitudeMeters>140.1999969482421875</AltitudeMeters>
            <DistanceMeters>NAN</DistanceMeters>
          </Trackpoint>
          <Trackpoint>
            <Time>2020-05-25T07:11:19.000Z</Time>
            <Position>
              <LatitudeDegrees>38.12702103517949581146240234375</LatitudeDegrees>
              <LongitudeDegrees>-1.1462408490478992462158203125</LongitudeDegrees>
            </Position>
            <AltitudeMeters>140.399993896484375</AltitudeMeters>
            <DistanceMeters>NAN</DistanceMeters>
          </Trackpoint>
          <Trackpoint>
            <Time>2020-05-25T07:11:20.000Z</Time>
            <Position>
              <LatitudeDegrees>38.127024807035923004150390625</LatitudeDegrees>
              <LongitudeDegrees>-1.14633254706859588623046875</LongitudeDegrees>
            </Position>
            <AltitudeMeters>140.600006103515625</AltitudeMeters>
            <DistanceMeters>NAN</DistanceMeters>
          </Trackpoint>
          <Trackpoint>
            <Time>2020-05-25T07:11:21.000Z</Time>
            <Position>
              <LatitudeDegrees>38.12703226692974567413330078125</LatitudeDegrees>
              <LongitudeDegrees>-1.14642198197543621063232421875</LongitudeDegrees>
            </Position>
            <AltitudeMeters>140.8000030517578125</AltitudeMeters>
            <DistanceMeters>NAN</DistanceMeters>
          </Trackpoint>
          <Trackpoint>
            <Time>2020-05-25T07:11:22.000Z</Time>
            <Position>
              <LatitudeDegrees>38.1270440854132175445556640625</LatitudeDegrees>
              <LongitudeDegrees>-1.146512590348720550537109375</LongitudeDegrees>
            </Position>
            <AltitudeMeters>141</AltitudeMeters>
            <DistanceMeters>NAN</DistanceMeters>
          </Trackpoint>
          <Trackpoint>
            <Time>2020-05-25T07:11:23.000Z</Time>
            <Position>
              <LatitudeDegrees>38.12705825082957744598388671875</LatitudeDegrees>
              <LongitudeDegrees>-1.14660101942718029022216796875</LongitudeDegrees>
            </Position>
            <AltitudeMeters>141.1999969482421875</AltitudeMeters>
            <DistanceMeters>NAN</DistanceMeters>
          </Trackpoint>
          <Trackpoint>
            <Time>2020-05-25T07:11:24.000Z</Time>
            <Position>
              <LatitudeDegrees>38.12707250006496906280517578125</LatitudeDegrees>
              <LongitudeDegrees>-1.146692968904972076416015625</LongitudeDegrees>
            </Position>
            <AltitudeMeters>141.399993896484375</AltitudeMeters>
            <DistanceMeters>NAN</DistanceMeters>
          </Trackpoint>
          <Trackpoint>
            <Time>2020-05-25T07:11:25.000Z</Time>
            <Position>
              <LatitudeDegrees>38.127087838947772979736328125</LatitudeDegrees>
              <LongitudeDegrees>-1.1467863433063030242919921875</LongitudeDegrees>
            </Position>
            <AltitudeMeters>141.600006103515625</AltitudeMeters>
            <DistanceMeters>NAN</DistanceMeters>
          </Trackpoint>
          <Trackpoint>
            <Time>2020-05-25T07:11:26.000Z</Time>
            <Position>
              <LatitudeDegrees>38.127101249992847442626953125</LatitudeDegrees>
              <LongitudeDegrees>-1.1468829028308391571044921875</LongitudeDegrees>
            </Position>
            <AltitudeMeters>142</AltitudeMeters>
            <DistanceMeters>NAN</DistanceMeters>
          </Trackpoint>
          <Trackpoint>
            <Time>2020-05-25T07:11:27.000Z</Time>
            <Position>
              <LatitudeDegrees>38.127115331590175628662109375</LatitudeDegrees>
              <LongitudeDegrees>-1.14697921089828014373779296875</LongitudeDegrees>
            </Position>
            <AltitudeMeters>142</AltitudeMeters>
            <DistanceMeters>NAN</DistanceMeters>
          </Trackpoint>
          <Trackpoint>
            <Time>2020-05-25T07:11:28.000Z</Time>
            <Position>
              <LatitudeDegrees>38.12713050283491611480712890625</LatitudeDegrees>
              <LongitudeDegrees>-1.14707325585186481475830078125</LongitudeDegrees>
            </Position>
            <AltitudeMeters>142.1999969482421875</AltitudeMeters>
            <DistanceMeters>NAN</DistanceMeters>
          </Trackpoint>
          <Trackpoint>
            <Time>2020-05-25T07:11:29.000Z</Time>
            <Position>
              <LatitudeDegrees>38.12714709900319576263427734375</LatitudeDegrees>
              <LongitudeDegrees>-1.14716595970094203948974609375</LongitudeDegrees>
            </Position>
            <AltitudeMeters>142.1999969482421875</AltitudeMeters>
            <DistanceMeters>NAN</DistanceMeters>
          </Trackpoint>
          <Trackpoint>
            <Time>2020-05-25T07:11:30.000Z</Time>
            <Position>
              <LatitudeDegrees>38.12716168351471424102783203125</LatitudeDegrees>
              <LongitudeDegrees>-1.1472597531974315643310546875</LongitudeDegrees>
            </Position>
            <AltitudeMeters>142.399993896484375</AltitudeMeters>
            <DistanceMeters>NAN</DistanceMeters>
          </Trackpoint>
          <Trackpoint>
            <Time>2020-05-25T07:11:31.000Z</Time>
            <Position>
              <LatitudeDegrees>38.12717777676880359649658203125</LatitudeDegrees>
              <LongitudeDegrees>-1.14735455252230167388916015625</LongitudeDegrees>
            </Position>
            <AltitudeMeters>142.600006103515625</AltitudeMeters>
            <DistanceMeters>NAN</DistanceMeters>
          </Trackpoint>
          <Trackpoint>
            <Time>2020-05-25T07:11:32.000Z</Time>
            <Position>
              <LatitudeDegrees>38.127189762890338897705078125</LatitudeDegrees>
              <LongitudeDegrees>-1.14744809456169605255126953125</LongitudeDegrees>
            </Position>
            <AltitudeMeters>143</AltitudeMeters>
            <DistanceMeters>NAN</DistanceMeters>
          </Trackpoint>
          <Trackpoint>
            <Time>2020-05-25T07:11:33.000Z</Time>
            <Position>
              <LatitudeDegrees>38.1272036768496036529541015625</LatitudeDegrees>
              <LongitudeDegrees>-1.1475393734872341156005859375</LongitudeDegrees>
            </Position>
            <AltitudeMeters>143.1999969482421875</AltitudeMeters>
            <DistanceMeters>NAN</DistanceMeters>
          </Trackpoint>
          <Trackpoint>
            <Time>2020-05-25T07:11:34.000Z</Time>
            <Position>
              <LatitudeDegrees>38.1272190995514392852783203125</LatitudeDegrees>
              <LongitudeDegrees>-1.1476327478885650634765625</LongitudeDegrees>
            </Position>
            <AltitudeMeters>143.600006103515625</AltitudeMeters>
            <DistanceMeters>NAN</DistanceMeters>
          </Trackpoint>
          <Trackpoint>
            <Time>2020-05-25T07:11:35.000Z</Time>
            <Position>
              <LatitudeDegrees>38.12722739763557910919189453125</LatitudeDegrees>
              <LongitudeDegrees>-1.1477241106331348419189453125</LongitudeDegrees>
            </Position>
            <AltitudeMeters>143.399993896484375</AltitudeMeters>
            <DistanceMeters>NAN</DistanceMeters>
          </Trackpoint>
          <Trackpoint>
            <Time>2020-05-25T07:11:36.000Z</Time>
            <Position>
              <LatitudeDegrees>38.127231337130069732666015625</LatitudeDegrees>
              <LongitudeDegrees>-1.14781823940575122833251953125</LongitudeDegrees>
            </Position>
            <AltitudeMeters>143.1999969482421875</AltitudeMeters>
            <DistanceMeters>NAN</DistanceMeters>
          </Trackpoint>
          <Trackpoint>
            <Time>2020-05-25T07:11:37.000Z</Time>
            <Position>
              <LatitudeDegrees>38.127232007682323455810546875</LatitudeDegrees>
              <LongitudeDegrees>-1.14791102707386016845703125</LongitudeDegrees>
            </Position>
            <AltitudeMeters>143</AltitudeMeters>
            <DistanceMeters>NAN</DistanceMeters>
          </Trackpoint>
          <Trackpoint>
            <Time>2020-05-25T07:11:38.000Z</Time>
            <Position>
              <LatitudeDegrees>38.12722840346395969390869140625</LatitudeDegrees>
              <LongitudeDegrees>-1.14800347946584224700927734375</LongitudeDegrees>
            </Position>
            <AltitudeMeters>142.8000030517578125</AltitudeMeters>
            <DistanceMeters>NAN</DistanceMeters>
          </Trackpoint>
          <Trackpoint>
            <Time>2020-05-25T07:11:39.000Z</Time>
            <Position>
              <LatitudeDegrees>38.12721985392272472381591796875</LatitudeDegrees>
              <LongitudeDegrees>-1.14809450693428516387939453125</LongitudeDegrees>
            </Position>
            <AltitudeMeters>142.600006103515625</AltitudeMeters>
            <DistanceMeters>NAN</DistanceMeters>
          </Trackpoint>
          <Trackpoint>
            <Time>2020-05-25T07:11:40.000Z</Time>
            <Position>
              <LatitudeDegrees>38.1272082030773162841796875</LatitudeDegrees>
              <LongitudeDegrees>-1.14818595349788665771484375</LongitudeDegrees>
            </Position>
            <AltitudeMeters>142.399993896484375</AltitudeMeters>
            <DistanceMeters>NAN</DistanceMeters>
          </Trackpoint>
          <Trackpoint>
            <Time>2020-05-25T07:11:41.000Z</Time>
            <Position>
              <LatitudeDegrees>38.12719202600419521331787109375</LatitudeDegrees>
              <LongitudeDegrees>-1.1482751369476318359375</LongitudeDegrees>
            </Position>
            <AltitudeMeters>142.1999969482421875</AltitudeMeters>
            <DistanceMeters>NAN</DistanceMeters>
          </Trackpoint>
          <Trackpoint>
            <Time>2020-05-25T07:11:42.000Z</Time>
            <Position>
              <LatitudeDegrees>38.1271728314459323883056640625</LatitudeDegrees>
              <LongitudeDegrees>-1.14836641587316989898681640625</LongitudeDegrees>
            </Position>
            <AltitudeMeters>141.8000030517578125</AltitudeMeters>
            <DistanceMeters>NAN</DistanceMeters>
          </Trackpoint>
          <Trackpoint>
            <Time>2020-05-25T07:11:43.000Z</Time>
            <Position>
              <LatitudeDegrees>38.1271513737738132476806640625</LatitudeDegrees>
              <LongitudeDegrees>-1.14845752716064453125</LongitudeDegrees>
            </Position>
            <AltitudeMeters>141.600006103515625</AltitudeMeters>
            <DistanceMeters>NAN</DistanceMeters>
          </Trackpoint>
          <Trackpoint>
            <Time>2020-05-25T07:11:44.000Z</Time>
            <Position>
              <LatitudeDegrees>38.12712664715945720672607421875</LatitudeDegrees>
              <LongitudeDegrees>-1.1485473811626434326171875</LongitudeDegrees>
            </Position>
            <AltitudeMeters>141.399993896484375</AltitudeMeters>
            <DistanceMeters>NAN</DistanceMeters>
          </Trackpoint>
          <Trackpoint>
            <Time>2020-05-25T07:11:45.000Z</Time>
            <Position>
              <LatitudeDegrees>38.127098567783832550048828125</LatitudeDegrees>
              <LongitudeDegrees>-1.1486357264220714569091796875</LongitudeDegrees>
            </Position>
            <AltitudeMeters>141</AltitudeMeters>
            <DistanceMeters>NAN</DistanceMeters>
          </Trackpoint>
          <Trackpoint>
            <Time>2020-05-25T07:11:46.000Z</Time>
            <Position>
              <LatitudeDegrees>38.1270668841898441314697265625</LatitudeDegrees>
              <LongitudeDegrees>-1.1487228982150554656982421875</LongitudeDegrees>
            </Position>
            <AltitudeMeters>140.8000030517578125</AltitudeMeters>
            <DistanceMeters>NAN</DistanceMeters>
          </Trackpoint>
          <Trackpoint>
            <Time>2020-05-25T07:11:47.000Z</Time>
            <Position>
              <LatitudeDegrees>38.127032183110713958740234375</LatitudeDegrees>
              <LongitudeDegrees>-1.1488080583512783050537109375</LongitudeDegrees>
            </Position>
            <AltitudeMeters>140.399993896484375</AltitudeMeters>
            <DistanceMeters>NAN</DistanceMeters>
          </Trackpoint>
          <Trackpoint>
            <Time>2020-05-25T07:11:48.000Z</Time>
            <Position>
              <LatitudeDegrees>38.1269947998225688934326171875</LatitudeDegrees>
              <LongitudeDegrees>-1.1488905362784862518310546875</LongitudeDegrees>
            </Position>
            <AltitudeMeters>140.1999969482421875</AltitudeMeters>
            <DistanceMeters>NAN</DistanceMeters>
          </Trackpoint>
          <Trackpoint>
            <Time>2020-05-25T07:11:49.000Z</Time>
            <Position>
              <LatitudeDegrees>38.1269535608589649200439453125</LatitudeDegrees>
              <LongitudeDegrees>-1.1489703319966793060302734375</LongitudeDegrees>
            </Position>
            <AltitudeMeters>140.1999969482421875</AltitudeMeters>
            <DistanceMeters>NAN</DistanceMeters>
          </Trackpoint>
          <Trackpoint>
            <Time>2020-05-25T07:11:50.000Z</Time>
            <Position>
              <LatitudeDegrees>38.12690871767699718475341796875</LatitudeDegrees>
              <LongitudeDegrees>-1.1490462720394134521484375</LongitudeDegrees>
            </Position>
            <AltitudeMeters>140.600006103515625</AltitudeMeters>
            <DistanceMeters>NAN</DistanceMeters>
          </Trackpoint>
          <Trackpoint>
            <Time>2020-05-25T07:11:51.000Z</Time>
            <Position>
              <LatitudeDegrees>38.12686043791472911834716796875</LatitudeDegrees>
              <LongitudeDegrees>-1.14911559037864208221435546875</LongitudeDegrees>
            </Position>
            <AltitudeMeters>140.8000030517578125</AltitudeMeters>
            <DistanceMeters>NAN</DistanceMeters>
          </Trackpoint>
          <Trackpoint>
            <Time>2020-05-25T07:11:52.000Z</Time>
            <Position>
              <LatitudeDegrees>38.126810230314731597900390625</LatitudeDegrees>
              <LongitudeDegrees>-1.14918130449950695037841796875</LongitudeDegrees>
            </Position>
            <AltitudeMeters>141.1999969482421875</AltitudeMeters>
            <DistanceMeters>NAN</DistanceMeters>
          </Trackpoint>
          <Trackpoint>
            <Time>2020-05-25T07:11:53.000Z</Time>
            <Position>
              <LatitudeDegrees>38.12675893306732177734375</LatitudeDegrees>
              <LongitudeDegrees>-1.1492452584207057952880859375</LongitudeDegrees>
            </Position>
            <AltitudeMeters>141.399993896484375</AltitudeMeters>
            <DistanceMeters>NAN</DistanceMeters>
          </Trackpoint>
          <Trackpoint>
            <Time>2020-05-25T07:11:54.000Z</Time>
            <Position>
              <LatitudeDegrees>38.126706965267658233642578125</LatitudeDegrees>
              <LongitudeDegrees>-1.149305440485477447509765625</LongitudeDegrees>
            </Position>
            <AltitudeMeters>141.600006103515625</AltitudeMeters>
            <DistanceMeters>NAN</DistanceMeters>
          </Trackpoint>
          <Trackpoint>
            <Time>2020-05-25T07:11:55.000Z</Time>
            <Position>
              <LatitudeDegrees>38.12665323726832866668701171875</LatitudeDegrees>
              <LongitudeDegrees>-1.149363107979297637939453125</LongitudeDegrees>
            </Position>
            <AltitudeMeters>141.8000030517578125</AltitudeMeters>
            <DistanceMeters>NAN</DistanceMeters>
          </Trackpoint>
          <Trackpoint>
            <Time>2020-05-25T07:11:56.000Z</Time>
            <Position>
              <LatitudeDegrees>38.12659825198352336883544921875</LatitudeDegrees>
              <LongitudeDegrees>-1.14941985346376895904541015625</LongitudeDegrees>
            </Position>
            <AltitudeMeters>141.8000030517578125</AltitudeMeters>
            <DistanceMeters>NAN</DistanceMeters>
          </Trackpoint>
          <Trackpoint>
            <Time>2020-05-25T07:11:57.000Z</Time>
            <Position>
              <LatitudeDegrees>38.1265430152416229248046875</LatitudeDegrees>
              <LongitudeDegrees>-1.1494781076908111572265625</LongitudeDegrees>
            </Position>
            <AltitudeMeters>142</AltitudeMeters>
            <DistanceMeters>NAN</DistanceMeters>
          </Trackpoint>
          <Trackpoint>
            <Time>2020-05-25T07:11:58.000Z</Time>
            <Position>
              <LatitudeDegrees>38.12648727558553218841552734375</LatitudeDegrees>
              <LongitudeDegrees>-1.14953854121267795562744140625</LongitudeDegrees>
            </Position>
            <AltitudeMeters>142.1999969482421875</AltitudeMeters>
            <DistanceMeters>NAN</DistanceMeters>
          </Trackpoint>
          <Trackpoint>
            <Time>2020-05-25T07:11:59.000Z</Time>
            <Position>
              <LatitudeDegrees>38.126430697739124298095703125</LatitudeDegrees>
              <LongitudeDegrees>-1.149599812924861907958984375</LongitudeDegrees>
            </Position>
            <AltitudeMeters>142.399993896484375</AltitudeMeters>
            <DistanceMeters>NAN</DistanceMeters>
          </Trackpoint>
          <Trackpoint>
            <Time>2020-05-25T07:12:00.000Z</Time>
            <Position>
              <LatitudeDegrees>38.1263745389878749847412109375</LatitudeDegrees>
              <LongitudeDegrees>-1.1496633477509021759033203125</LongitudeDegrees>
            </Position>
            <AltitudeMeters>142.600006103515625</AltitudeMeters>
            <DistanceMeters>NAN</DistanceMeters>
          </Trackpoint>
          <Trackpoint>
            <Time>2020-05-25T07:12:01.000Z</Time>
            <Position>
              <LatitudeDegrees>38.12631796114146709442138671875</LatitudeDegrees>
              <LongitudeDegrees>-1.1497277207672595977783203125</LongitudeDegrees>
            </Position>
            <AltitudeMeters>142.600006103515625</AltitudeMeters>
            <DistanceMeters>NAN</DistanceMeters>
          </Trackpoint>
          <Trackpoint>
            <Time>2020-05-25T07:12:02.000Z</Time>
            <Position>
              <LatitudeDegrees>38.12626280821859836578369140625</LatitudeDegrees>
              <LongitudeDegrees>-1.14979502744972705841064453125</LongitudeDegrees>
            </Position>
            <AltitudeMeters>142.8000030517578125</AltitudeMeters>
            <DistanceMeters>NAN</DistanceMeters>
          </Trackpoint>
          <Trackpoint>
            <Time>2020-05-25T07:12:03.000Z</Time>
            <Position>
              <LatitudeDegrees>38.12620916403830051422119140625</LatitudeDegrees>
              <LongitudeDegrees>-1.14986442960798740386962890625</LongitudeDegrees>
            </Position>
            <AltitudeMeters>143</AltitudeMeters>
            <DistanceMeters>NAN</DistanceMeters>
          </Trackpoint>
          <Trackpoint>
            <Time>2020-05-25T07:12:04.000Z</Time>
            <Position>
              <LatitudeDegrees>38.1261552684009075164794921875</LatitudeDegrees>
              <LongitudeDegrees>-1.14993534050881862640380859375</LongitudeDegrees>
            </Position>
            <AltitudeMeters>143.1999969482421875</AltitudeMeters>
            <DistanceMeters>NAN</DistanceMeters>
          </Trackpoint>
          <Trackpoint>
            <Time>2020-05-25T07:12:05.000Z</Time>
            <Position>
              <LatitudeDegrees>38.12610237859189510345458984375</LatitudeDegrees>
              <LongitudeDegrees>-1.150008179247379302978515625</LongitudeDegrees>
            </Position>
            <AltitudeMeters>143.600006103515625</AltitudeMeters>
            <DistanceMeters>NAN</DistanceMeters>
          </Trackpoint>
          <Trackpoint>
            <Time>2020-05-25T07:12:06.000Z</Time>
            <Position>
              <LatitudeDegrees>38.126051835715770721435546875</LatitudeDegrees>
              <LongitudeDegrees>-1.15008629858493804931640625</LongitudeDegrees>
            </Position>
            <AltitudeMeters>143.8000030517578125</AltitudeMeters>
            <DistanceMeters>NAN</DistanceMeters>
          </Trackpoint>
          <Trackpoint>
            <Time>2020-05-25T07:12:07.000Z</Time>
            <Position>
              <LatitudeDegrees>38.1260003708302974700927734375</LatitudeDegrees>
              <LongitudeDegrees>-1.15015846677124500274658203125</LongitudeDegrees>
            </Position>
            <AltitudeMeters>144</AltitudeMeters>
            <DistanceMeters>NAN</DistanceMeters>
          </Trackpoint>
          <Trackpoint>
            <Time>2020-05-25T07:12:08.000Z</Time>
            <Position>
              <LatitudeDegrees>38.12595251016318798065185546875</LatitudeDegrees>
              <LongitudeDegrees>-1.1502393521368503570556640625</LongitudeDegrees>
            </Position>
            <AltitudeMeters>144.1999969482421875</AltitudeMeters>
            <DistanceMeters>NAN</DistanceMeters>
          </Trackpoint>
          <Trackpoint>
            <Time>2020-05-25T07:12:09.000Z</Time>
            <Position>
              <LatitudeDegrees>38.12590557150542736053466796875</LatitudeDegrees>
              <LongitudeDegrees>-1.15032023750245571136474609375</LongitudeDegrees>
            </Position>
            <AltitudeMeters>144.399993896484375</AltitudeMeters>
            <DistanceMeters>NAN</DistanceMeters>
          </Trackpoint>
          <Trackpoint>
            <Time>2020-05-25T07:12:10.000Z</Time>
            <Position>
              <LatitudeDegrees>38.1258605606853961944580078125</LatitudeDegrees>
              <LongitudeDegrees>-1.1504039727151393890380859375</LongitudeDegrees>
            </Position>
            <AltitudeMeters>144.600006103515625</AltitudeMeters>
            <DistanceMeters>NAN</DistanceMeters>
          </Trackpoint>
          <Trackpoint>
            <Time>2020-05-25T07:12:11.000Z</Time>
            <Position>
              <LatitudeDegrees>38.12581823207437992095947265625</LatitudeDegrees>
              <LongitudeDegrees>-1.15049139596521854400634765625</LongitudeDegrees>
            </Position>
            <AltitudeMeters>144.8000030517578125</AltitudeMeters>
            <DistanceMeters>NAN</DistanceMeters>
          </Trackpoint>
          <Trackpoint>
            <Time>2020-05-25T07:12:12.000Z</Time>
            <Position>
              <LatitudeDegrees>38.12577514909207820892333984375</LatitudeDegrees>
              <LongitudeDegrees>-1.15057806484401226043701171875</LongitudeDegrees>
            </Position>
            <AltitudeMeters>145</AltitudeMeters>
            <DistanceMeters>NAN</DistanceMeters>
          </Trackpoint>
          <Trackpoint>
            <Time>2020-05-25T07:12:13.000Z</Time>
            <Position>
              <LatitudeDegrees>38.1257314793765544891357421875</LatitudeDegrees>
              <LongitudeDegrees>-1.15066607482731342315673828125</LongitudeDegrees>
            </Position>
            <AltitudeMeters>145</AltitudeMeters>
            <DistanceMeters>NAN</DistanceMeters>
          </Trackpoint>
          <Trackpoint>
            <Time>2020-05-25T07:12:14.000Z</Time>
            <Position>
              <LatitudeDegrees>38.125688731670379638671875</LatitudeDegrees>
              <LongitudeDegrees>-1.150753498077392578125</LongitudeDegrees>
            </Position>
            <AltitudeMeters>144.600006103515625</AltitudeMeters>
            <DistanceMeters>NAN</DistanceMeters>
          </Trackpoint>
          <Trackpoint>
            <Time>2020-05-25T07:12:15.000Z</Time>
            <Position>
              <LatitudeDegrees>38.12564740888774394989013671875</LatitudeDegrees>
              <LongitudeDegrees>-1.15084192715585231781005859375</LongitudeDegrees>
            </Position>
            <AltitudeMeters>144.399993896484375</AltitudeMeters>
            <DistanceMeters>NAN</DistanceMeters>
          </Trackpoint>
          <Trackpoint>
            <Time>2020-05-25T07:12:16.000Z</Time>
            <Position>
              <LatitudeDegrees>38.1256060861051082611083984375</LatitudeDegrees>
              <LongitudeDegrees>-1.150931529700756072998046875</LongitudeDegrees>
            </Position>
            <AltitudeMeters>144</AltitudeMeters>
            <DistanceMeters>NAN</DistanceMeters>
          </Trackpoint>
          <Trackpoint>
            <Time>2020-05-25T07:12:17.000Z</Time>
            <Position>
              <LatitudeDegrees>38.125564344227313995361328125</LatitudeDegrees>
              <LongitudeDegrees>-1.151022054255008697509765625</LongitudeDegrees>
            </Position>
            <AltitudeMeters>143.8000030517578125</AltitudeMeters>
            <DistanceMeters>NAN</DistanceMeters>
          </Trackpoint>
          <Trackpoint>
            <Time>2020-05-25T07:12:18.000Z</Time>
            <Position>
              <LatitudeDegrees>38.12552251853048801422119140625</LatitudeDegrees>
              <LongitudeDegrees>-1.15111618302762508392333984375</LongitudeDegrees>
            </Position>
            <AltitudeMeters>143.600006103515625</AltitudeMeters>
            <DistanceMeters>NAN</DistanceMeters>
          </Trackpoint>
          <Trackpoint>
            <Time>2020-05-25T07:12:19.000Z</Time>
            <Position>
              <LatitudeDegrees>38.1254813633859157562255859375</LatitudeDegrees>
              <LongitudeDegrees>-1.1512119881808757781982421875</LongitudeDegrees>
            </Position>
            <AltitudeMeters>143.1999969482421875</AltitudeMeters>
            <DistanceMeters>NAN</DistanceMeters>
          </Trackpoint>
          <Trackpoint>
            <Time>2020-05-25T07:12:20.000Z</Time>
            <Position>
              <LatitudeDegrees>38.1254406273365020751953125</LatitudeDegrees>
              <LongitudeDegrees>-1.15130846388638019561767578125</LongitudeDegrees>
            </Position>
            <AltitudeMeters>143</AltitudeMeters>
            <DistanceMeters>NAN</DistanceMeters>
          </Trackpoint>
          <Trackpoint>
            <Time>2020-05-25T07:12:21.000Z</Time>
            <Position>
              <LatitudeDegrees>38.1253998912870883941650390625</LatitudeDegrees>
              <LongitudeDegrees>-1.15140569396317005157470703125</LongitudeDegrees>
            </Position>
            <AltitudeMeters>142.8000030517578125</AltitudeMeters>
            <DistanceMeters>NAN</DistanceMeters>
          </Trackpoint>
          <Trackpoint>
            <Time>2020-05-25T07:12:22.000Z</Time>
            <Position>
              <LatitudeDegrees>38.1253583170473575592041015625</LatitudeDegrees>
              <LongitudeDegrees>-1.15150518715381622314453125</LongitudeDegrees>
            </Position>
            <AltitudeMeters>142.600006103515625</AltitudeMeters>
            <DistanceMeters>NAN</DistanceMeters>
          </Trackpoint>
          <Trackpoint>
            <Time>2020-05-25T07:12:23.000Z</Time>
            <Position>
              <LatitudeDegrees>38.12531523406505584716796875</LatitudeDegrees>
              <LongitudeDegrees>-1.15160652436316013336181640625</LongitudeDegrees>
            </Position>
            <AltitudeMeters>142.399993896484375</AltitudeMeters>
            <DistanceMeters>NAN</DistanceMeters>
          </Trackpoint>
          <Trackpoint>
            <Time>2020-05-25T07:12:24.000Z</Time>
            <Position>
              <LatitudeDegrees>38.12526963651180267333984375</LatitudeDegrees>
              <LongitudeDegrees>-1.1517088674008846282958984375</LongitudeDegrees>
            </Position>
            <AltitudeMeters>142.399993896484375</AltitudeMeters>
            <DistanceMeters>NAN</DistanceMeters>
          </Trackpoint>
          <Trackpoint>
            <Time>2020-05-25T07:12:25.000Z</Time>
            <Position>
              <LatitudeDegrees>38.12522093765437602996826171875</LatitudeDegrees>
              <LongitudeDegrees>-1.1518107913434505462646484375</LongitudeDegrees>
            </Position>
            <AltitudeMeters>142.1999969482421875</AltitudeMeters>
            <DistanceMeters>NAN</DistanceMeters>
          </Trackpoint>
          <Trackpoint>
            <Time>2020-05-25T07:12:26.000Z</Time>
            <Position>
              <LatitudeDegrees>38.12516964040696620941162109375</LatitudeDegrees>
              <LongitudeDegrees>-1.15191179327666759490966796875</LongitudeDegrees>
            </Position>
            <AltitudeMeters>142</AltitudeMeters>
            <DistanceMeters>NAN</DistanceMeters>
          </Trackpoint>
          <Trackpoint>
            <Time>2020-05-25T07:12:27.000Z</Time>
            <Position>
              <LatitudeDegrees>38.1251155771315097808837890625</LatitudeDegrees>
              <LongitudeDegrees>-1.1520116217434406280517578125</LongitudeDegrees>
            </Position>
            <AltitudeMeters>141.8000030517578125</AltitudeMeters>
            <DistanceMeters>NAN</DistanceMeters>
          </Trackpoint>
          <Trackpoint>
            <Time>2020-05-25T07:12:28.000Z</Time>
            <Position>
              <LatitudeDegrees>38.12505916692316532135009765625</LatitudeDegrees>
              <LongitudeDegrees>-1.1521095223724842071533203125</LongitudeDegrees>
            </Position>
            <AltitudeMeters>141.8000030517578125</AltitudeMeters>
            <DistanceMeters>NAN</DistanceMeters>
          </Trackpoint>
          <Trackpoint>
            <Time>2020-05-25T07:12:29.000Z</Time>
            <Position>
              <LatitudeDegrees>38.124999739229679107666015625</LatitudeDegrees>
              <LongitudeDegrees>-1.15220390260219573974609375</LongitudeDegrees>
            </Position>
            <AltitudeMeters>142</AltitudeMeters>
            <DistanceMeters>NAN</DistanceMeters>
          </Trackpoint>
          <Trackpoint>
            <Time>2020-05-25T07:12:30.000Z</Time>
            <Position>
              <LatitudeDegrees>38.12493712641298770904541015625</LatitudeDegrees>
              <LongitudeDegrees>-1.15229467861354351043701171875</LongitudeDegrees>
            </Position>
            <AltitudeMeters>142</AltitudeMeters>
            <DistanceMeters>NAN</DistanceMeters>
          </Trackpoint>
          <Trackpoint>
            <Time>2020-05-25T07:12:31.000Z</Time>
            <Position>
              <LatitudeDegrees>38.12487141229212284088134765625</LatitudeDegrees>
              <LongitudeDegrees>-1.15238185040652751922607421875</LongitudeDegrees>
            </Position>
            <AltitudeMeters>142</AltitudeMeters>
            <DistanceMeters>NAN</DistanceMeters>
          </Trackpoint>
          <Trackpoint>
            <Time>2020-05-25T07:12:32.000Z</Time>
            <Position>
              <LatitudeDegrees>38.12480293214321136474609375</LatitudeDegrees>
              <LongitudeDegrees>-1.1524682678282260894775390625</LongitudeDegrees>
            </Position>
            <AltitudeMeters>142</AltitudeMeters>
            <DistanceMeters>NAN</DistanceMeters>
          </Trackpoint>
          <Trackpoint>
            <Time>2020-05-25T07:12:33.000Z</Time>
            <Position>
              <LatitudeDegrees>38.1247310154139995574951171875</LatitudeDegrees>
              <LongitudeDegrees>-1.15254999138414859771728515625</LongitudeDegrees>
            </Position>
            <AltitudeMeters>142</AltitudeMeters>
            <DistanceMeters>NAN</DistanceMeters>
          </Trackpoint>
          <Trackpoint>
            <Time>2020-05-25T07:12:34.000Z</Time>
            <Position>
              <LatitudeDegrees>38.1246569193899631500244140625</LatitudeDegrees>
              <LongitudeDegrees>-1.1526305414736270904541015625</LongitudeDegrees>
            </Position>
            <AltitudeMeters>142</AltitudeMeters>
            <DistanceMeters>NAN</DistanceMeters>
          </Trackpoint>
          <Trackpoint>
            <Time>2020-05-25T07:12:35.000Z</Time>
            <Position>
              <LatitudeDegrees>38.1245798058807849884033203125</LatitudeDegrees>
              <LongitudeDegrees>-1.1527043022215366363525390625</LongitudeDegrees>
            </Position>
            <AltitudeMeters>142</AltitudeMeters>
            <DistanceMeters>NAN</DistanceMeters>
          </Trackpoint>
          <Trackpoint>
            <Time>2020-05-25T07:12:36.000Z</Time>
            <Position>
              <LatitudeDegrees>38.12450193800032138824462890625</LatitudeDegrees>
              <LongitudeDegrees>-1.15277412347495555877685546875</LongitudeDegrees>
            </Position>
            <AltitudeMeters>142</AltitudeMeters>
            <DistanceMeters>NAN</DistanceMeters>
          </Trackpoint>
          <Trackpoint>
            <Time>2020-05-25T07:12:37.000Z</Time>
            <Position>
              <LatitudeDegrees>38.12442415393888950347900390625</LatitudeDegrees>
              <LongitudeDegrees>-1.1528400890529155731201171875</LongitudeDegrees>
            </Position>
            <AltitudeMeters>142</AltitudeMeters>
            <DistanceMeters>NAN</DistanceMeters>
          </Trackpoint>
          <Trackpoint>
            <Time>2020-05-25T07:12:38.000Z</Time>
            <Position>
              <LatitudeDegrees>38.1243457831442356109619140625</LatitudeDegrees>
              <LongitudeDegrees>-1.15289951674640178680419921875</LongitudeDegrees>
            </Position>
            <AltitudeMeters>142</AltitudeMeters>
            <DistanceMeters>NAN</DistanceMeters>
          </Trackpoint>
          <Trackpoint>
            <Time>2020-05-25T07:12:39.000Z</Time>
            <Position>
              <LatitudeDegrees>38.124268166720867156982421875</LatitudeDegrees>
              <LongitudeDegrees>-1.15295198746025562286376953125</LongitudeDegrees>
            </Position>
            <AltitudeMeters>142</AltitudeMeters>
            <DistanceMeters>NAN</DistanceMeters>
          </Trackpoint>
          <Trackpoint>
            <Time>2020-05-25T07:12:40.000Z</Time>
            <Position>
              <LatitudeDegrees>38.12419247813522815704345703125</LatitudeDegrees>
              <LongitudeDegrees>-1.152999512851238250732421875</LongitudeDegrees>
            </Position>
            <AltitudeMeters>142.1999969482421875</AltitudeMeters>
            <DistanceMeters>NAN</DistanceMeters>
          </Trackpoint>
          <Trackpoint>
            <Time>2020-05-25T07:12:41.000Z</Time>
            <Position>
              <LatitudeDegrees>38.1241191364824771881103515625</LatitudeDegrees>
              <LongitudeDegrees>-1.15304385311901569366455078125</LongitudeDegrees>
            </Position>
            <AltitudeMeters>142.600006103515625</AltitudeMeters>
            <DistanceMeters>NAN</DistanceMeters>
          </Trackpoint>
          <Trackpoint>
            <Time>2020-05-25T07:12:42.000Z</Time>
            <Position>
              <LatitudeDegrees>38.12404763884842395782470703125</LatitudeDegrees>
              <LongitudeDegrees>-1.1530828289687633514404296875</LongitudeDegrees>
            </Position>
            <AltitudeMeters>142.8000030517578125</AltitudeMeters>
            <DistanceMeters>NAN</DistanceMeters>
          </Trackpoint>
          <Trackpoint>
            <Time>2020-05-25T07:12:43.000Z</Time>
            <Position>
              <LatitudeDegrees>38.1239786557853221893310546875</LatitudeDegrees>
              <LongitudeDegrees>-1.153119541704654693603515625</LongitudeDegrees>
            </Position>
            <AltitudeMeters>143</AltitudeMeters>
            <DistanceMeters>NAN</DistanceMeters>
          </Trackpoint>
          <Trackpoint>
            <Time>2020-05-25T07:12:44.000Z</Time>
            <Position>
              <LatitudeDegrees>38.12391168437898159027099609375</LatitudeDegrees>
              <LongitudeDegrees>-1.15315365605056285858154296875</LongitudeDegrees>
            </Position>
            <AltitudeMeters>143.399993896484375</AltitudeMeters>
            <DistanceMeters>NAN</DistanceMeters>
          </Trackpoint>
          <Trackpoint>
            <Time>2020-05-25T07:12:45.000Z</Time>
            <Position>
              <LatitudeDegrees>38.12384798191487789154052734375</LatitudeDegrees>
              <LongitudeDegrees>-1.1531889438629150390625</LongitudeDegrees>
            </Position>
            <AltitudeMeters>143.600006103515625</AltitudeMeters>
            <DistanceMeters>NAN</DistanceMeters>
          </Trackpoint>
          <Trackpoint>
            <Time>2020-05-25T07:12:46.000Z</Time>
            <Position>
              <LatitudeDegrees>38.12378729693591594696044921875</LatitudeDegrees>
              <LongitudeDegrees>-1.15322423167526721954345703125</LongitudeDegrees>
            </Position>
            <AltitudeMeters>143.8000030517578125</AltitudeMeters>
            <DistanceMeters>NAN</DistanceMeters>
          </Trackpoint>
          <Trackpoint>
            <Time>2020-05-25T07:12:47.000Z</Time>
            <Position>
              <LatitudeDegrees>38.1237288750708103179931640625</LatitudeDegrees>
              <LongitudeDegrees>-1.1532578431069850921630859375</LongitudeDegrees>
            </Position>
            <AltitudeMeters>144.1999969482421875</AltitudeMeters>
            <DistanceMeters>NAN</DistanceMeters>
          </Trackpoint>
          <Trackpoint>
            <Time>2020-05-25T07:12:48.000Z</Time>
            <Position>
              <LatitudeDegrees>38.123670704662799835205078125</LatitudeDegrees>
              <LongitudeDegrees>-1.15329019725322723388671875</LongitudeDegrees>
            </Position>
            <AltitudeMeters>144.399993896484375</AltitudeMeters>
            <DistanceMeters>NAN</DistanceMeters>
          </Trackpoint>
          <Trackpoint>
            <Time>2020-05-25T07:12:49.000Z</Time>
            <Position>
              <LatitudeDegrees>38.12361429445445537567138671875</LatitudeDegrees>
              <LongitudeDegrees>-1.15331978537142276763916015625</LongitudeDegrees>
            </Position>
            <AltitudeMeters>144.600006103515625</AltitudeMeters>
            <DistanceMeters>NAN</DistanceMeters>
          </Trackpoint>
          <Trackpoint>
            <Time>2020-05-25T07:12:50.000Z</Time>
            <Position>
              <LatitudeDegrees>38.12356048263609409332275390625</LatitudeDegrees>
              <LongitudeDegrees>-1.15334979258477687835693359375</LongitudeDegrees>
            </Position>
            <AltitudeMeters>144.8000030517578125</AltitudeMeters>
            <DistanceMeters>NAN</DistanceMeters>
          </Trackpoint>
          <Trackpoint>
            <Time>2020-05-25T07:12:51.000Z</Time>
            <Position>
              <LatitudeDegrees>38.123507089912891387939453125</LatitudeDegrees>
              <LongitudeDegrees>-1.15337929688394069671630859375</LongitudeDegrees>
            </Position>
            <AltitudeMeters>145</AltitudeMeters>
            <DistanceMeters>NAN</DistanceMeters>
          </Trackpoint>
          <Trackpoint>
            <Time>2020-05-25T07:12:52.000Z</Time>
            <Position>
              <LatitudeDegrees>38.123454786837100982666015625</LatitudeDegrees>
              <LongitudeDegrees>-1.1534087173640727996826171875</LongitudeDegrees>
            </Position>
            <AltitudeMeters>145.1999969482421875</AltitudeMeters>
            <DistanceMeters>NAN</DistanceMeters>
          </Trackpoint>
          <Trackpoint>
            <Time>2020-05-25T07:12:53.000Z</Time>
            <Position>
              <LatitudeDegrees>38.12340290285646915435791015625</LatitudeDegrees>
              <LongitudeDegrees>-1.15343746729195117950439453125</LongitudeDegrees>
            </Position>
            <AltitudeMeters>145.600006103515625</AltitudeMeters>
            <DistanceMeters>NAN</DistanceMeters>
          </Trackpoint>
          <Trackpoint>
            <Time>2020-05-25T07:12:54.000Z</Time>
            <Position>
              <LatitudeDegrees>38.12335110269486904144287109375</LatitudeDegrees>
              <LongitudeDegrees>-1.153464205563068389892578125</LongitudeDegrees>
            </Position>
            <AltitudeMeters>146</AltitudeMeters>
            <DistanceMeters>NAN</DistanceMeters>
          </Trackpoint>
          <Trackpoint>
            <Time>2020-05-25T07:12:55.000Z</Time>
            <Position>
              <LatitudeDegrees>38.12329930253326892852783203125</LatitudeDegrees>
              <LongitudeDegrees>-1.15349044091999530792236328125</LongitudeDegrees>
            </Position>
            <AltitudeMeters>146.1999969482421875</AltitudeMeters>
            <DistanceMeters>NAN</DistanceMeters>
          </Trackpoint>
          <Trackpoint>
            <Time>2020-05-25T07:12:56.000Z</Time>
            <Position>
              <LatitudeDegrees>38.12324834056198596954345703125</LatitudeDegrees>
              <LongitudeDegrees>-1.15351659245789051055908203125</LongitudeDegrees>
            </Position>
            <AltitudeMeters>146.600006103515625</AltitudeMeters>
            <DistanceMeters>NAN</DistanceMeters>
          </Trackpoint>
          <Trackpoint>
            <Time>2020-05-25T07:12:57.000Z</Time>
            <Position>
              <LatitudeDegrees>38.1231971271336078643798828125</LatitudeDegrees>
              <LongitudeDegrees>-1.15354374982416629791259765625</LongitudeDegrees>
            </Position>
            <AltitudeMeters>147</AltitudeMeters>
            <DistanceMeters>NAN</DistanceMeters>
          </Trackpoint>
          <Trackpoint>
            <Time>2020-05-25T07:12:58.000Z</Time>
            <Position>
              <LatitudeDegrees>38.12314675189554691314697265625</LatitudeDegrees>
              <LongitudeDegrees>-1.15357107482850551605224609375</LongitudeDegrees>
            </Position>
            <AltitudeMeters>147.1999969482421875</AltitudeMeters>
            <DistanceMeters>NAN</DistanceMeters>
          </Trackpoint>
          <Trackpoint>
            <Time>2020-05-25T07:12:59.000Z</Time>
            <Position>
              <LatitudeDegrees>38.12309595756232738494873046875</LatitudeDegrees>
              <LongitudeDegrees>-1.15359974093735218048095703125</LongitudeDegrees>
            </Position>
            <AltitudeMeters>147.600006103515625</AltitudeMeters>
            <DistanceMeters>NAN</DistanceMeters>
          </Trackpoint>
          <Trackpoint>
            <Time>2020-05-25T07:13:00.000Z</Time>
            <Position>
              <LatitudeDegrees>38.12304348684847354888916015625</LatitudeDegrees>
              <LongitudeDegrees>-1.153627820312976837158203125</LongitudeDegrees>
            </Position>
            <AltitudeMeters>148</AltitudeMeters>
            <DistanceMeters>NAN</DistanceMeters>
          </Trackpoint>
          <Trackpoint>
            <Time>2020-05-25T07:13:01.000Z</Time>
            <Position>
              <LatitudeDegrees>38.122992105782032012939453125</LatitudeDegrees>
              <LongitudeDegrees>-1.15365774370729923248291015625</LongitudeDegrees>
            </Position>
            <AltitudeMeters>148.399993896484375</AltitudeMeters>
            <DistanceMeters>NAN</DistanceMeters>
          </Trackpoint>
          <Trackpoint>
            <Time>2020-05-25T07:13:02.000Z</Time>
            <Position>
              <LatitudeDegrees>38.12293837778270244598388671875</LatitudeDegrees>
              <LongitudeDegrees>-1.15368708036839962005615234375</LongitudeDegrees>
            </Position>
            <AltitudeMeters>148.600006103515625</AltitudeMeters>
            <DistanceMeters>NAN</DistanceMeters>
          </Trackpoint>
          <Trackpoint>
            <Time>2020-05-25T07:13:03.000Z</Time>
            <Position>
              <LatitudeDegrees>38.12288423068821430206298828125</LatitudeDegrees>
              <LongitudeDegrees>-1.15371624939143657684326171875</LongitudeDegrees>
            </Position>
            <AltitudeMeters>149</AltitudeMeters>
            <DistanceMeters>NAN</DistanceMeters>
          </Trackpoint>
          <Trackpoint>
            <Time>2020-05-25T07:13:04.000Z</Time>
            <Position>
              <LatitudeDegrees>38.12283008359372615814208984375</LatitudeDegrees>
              <LongitudeDegrees>-1.1537460051476955413818359375</LongitudeDegrees>
            </Position>
            <AltitudeMeters>149.399993896484375</AltitudeMeters>
            <DistanceMeters>NAN</DistanceMeters>
          </Trackpoint>
          <Trackpoint>
            <Time>2020-05-25T07:13:05.000Z</Time>
            <Position>
              <LatitudeDegrees>38.12277610413730144500732421875</LatitudeDegrees>
              <LongitudeDegrees>-1.15377509035170078277587890625</LongitudeDegrees>
            </Position>
            <AltitudeMeters>149.8000030517578125</AltitudeMeters>
            <DistanceMeters>NAN</DistanceMeters>
          </Trackpoint>
          <Trackpoint>
            <Time>2020-05-25T07:13:06.000Z</Time>
            <Position>
              <LatitudeDegrees>38.1227213703095912933349609375</LatitudeDegrees>
              <LongitudeDegrees>-1.1538045108318328857421875</LongitudeDegrees>
            </Position>
            <AltitudeMeters>150.1999969482421875</AltitudeMeters>
            <DistanceMeters>NAN</DistanceMeters>
          </Trackpoint>
          <Trackpoint>
            <Time>2020-05-25T07:13:07.000Z</Time>
            <Position>
              <LatitudeDegrees>38.12266579829156398773193359375</LatitudeDegrees>
              <LongitudeDegrees>-1.15383577533066272735595703125</LongitudeDegrees>
            </Position>
            <AltitudeMeters>150.600006103515625</AltitudeMeters>
            <DistanceMeters>NAN</DistanceMeters>
          </Trackpoint>
          <Trackpoint>
            <Time>2020-05-25T07:13:08.000Z</Time>
            <Position>
              <LatitudeDegrees>38.1226090528070926666259765625</LatitudeDegrees>
              <LongitudeDegrees>-1.15386678837239742279052734375</LongitudeDegrees>
            </Position>
            <AltitudeMeters>150.8000030517578125</AltitudeMeters>
            <DistanceMeters>NAN</DistanceMeters>
          </Trackpoint>
          <Trackpoint>
            <Time>2020-05-25T07:13:09.000Z</Time>
            <Position>
              <LatitudeDegrees>38.1225523911416530609130859375</LatitudeDegrees>
              <LongitudeDegrees>-1.15389880724251270294189453125</LongitudeDegrees>
            </Position>
            <AltitudeMeters>151</AltitudeMeters>
            <DistanceMeters>NAN</DistanceMeters>
          </Trackpoint>
          <Trackpoint>
            <Time>2020-05-25T07:13:10.000Z</Time>
            <Position>
              <LatitudeDegrees>38.1224967353045940399169921875</LatitudeDegrees>
              <LongitudeDegrees>-1.15392898209393024444580078125</LongitudeDegrees>
            </Position>
            <AltitudeMeters>151.1999969482421875</AltitudeMeters>
            <DistanceMeters>NAN</DistanceMeters>
          </Trackpoint>
          <Trackpoint>
            <Time>2020-05-25T07:13:11.000Z</Time>
            <Position>
              <LatitudeDegrees>38.12244233675301074981689453125</LatitudeDegrees>
              <LongitudeDegrees>-1.15396100096404552459716796875</LongitudeDegrees>
            </Position>
            <AltitudeMeters>151.399993896484375</AltitudeMeters>
            <DistanceMeters>NAN</DistanceMeters>
          </Trackpoint>
          <Trackpoint>
            <Time>2020-05-25T07:13:12.000Z</Time>
            <Position>
              <LatitudeDegrees>38.12238617800176143646240234375</LatitudeDegrees>
              <LongitudeDegrees>-1.1539922654628753662109375</LongitudeDegrees>
            </Position>
            <AltitudeMeters>151.600006103515625</AltitudeMeters>
            <DistanceMeters>NAN</DistanceMeters>
          </Trackpoint>
          <Trackpoint>
            <Time>2020-05-25T07:13:13.000Z</Time>
            <Position>
              <LatitudeDegrees>38.1223287619650363922119140625</LatitudeDegrees>
              <LongitudeDegrees>-1.15402336232364177703857421875</LongitudeDegrees>
            </Position>
            <AltitudeMeters>151.600006103515625</AltitudeMeters>
            <DistanceMeters>NAN</DistanceMeters>
          </Trackpoint>
          <Trackpoint>
            <Time>2020-05-25T07:13:14.000Z</Time>
            <Position>
              <LatitudeDegrees>38.12227184884250164031982421875</LatitudeDegrees>
              <LongitudeDegrees>-1.15405328571796417236328125</LongitudeDegrees>
            </Position>
            <AltitudeMeters>151.8000030517578125</AltitudeMeters>
            <DistanceMeters>NAN</DistanceMeters>
          </Trackpoint>
          <Trackpoint>
            <Time>2020-05-25T07:13:15.000Z</Time>
            <Position>
              <LatitudeDegrees>38.12221451662480831146240234375</LatitudeDegrees>
              <LongitudeDegrees>-1.15408421494066715240478515625</LongitudeDegrees>
            </Position>
            <AltitudeMeters>152</AltitudeMeters>
            <DistanceMeters>NAN</DistanceMeters>
          </Trackpoint>
          <Trackpoint>
            <Time>2020-05-25T07:13:16.000Z</Time>
            <Position>
              <LatitudeDegrees>38.12215802259743213653564453125</LatitudeDegrees>
              <LongitudeDegrees>-1.15411673672497272491455078125</LongitudeDegrees>
            </Position>
            <AltitudeMeters>152</AltitudeMeters>
            <DistanceMeters>NAN</DistanceMeters>
          </Trackpoint>
          <Trackpoint>
            <Time>2020-05-25T07:13:17.000Z</Time>
            <Position>
              <LatitudeDegrees>38.1221007741987705230712890625</LatitudeDegrees>
              <LongitudeDegrees>-1.15414925850927829742431640625</LongitudeDegrees>
            </Position>
            <AltitudeMeters>152.1999969482421875</AltitudeMeters>
            <DistanceMeters>NAN</DistanceMeters>
          </Trackpoint>
          <Trackpoint>
            <Time>2020-05-25T07:13:18.000Z</Time>
            <Position>
              <LatitudeDegrees>38.12204293906688690185546875</LatitudeDegrees>
              <LongitudeDegrees>-1.1541815288364887237548828125</LongitudeDegrees>
            </Position>
            <AltitudeMeters>152.399993896484375</AltitudeMeters>
            <DistanceMeters>NAN</DistanceMeters>
          </Trackpoint>
          <Trackpoint>
            <Time>2020-05-25T07:13:19.000Z</Time>
            <Position>
              <LatitudeDegrees>38.1219832599163055419921875</LatitudeDegrees>
              <LongitudeDegrees>-1.15421279333531856536865234375</LongitudeDegrees>
            </Position>
            <AltitudeMeters>152.399993896484375</AltitudeMeters>
            <DistanceMeters>NAN</DistanceMeters>
          </Trackpoint>
          <Trackpoint>
            <Time>2020-05-25T07:13:20.000Z</Time>
            <Position>
              <LatitudeDegrees>38.12192349694669246673583984375</LatitudeDegrees>
              <LongitudeDegrees>-1.15424481220543384552001953125</LongitudeDegrees>
            </Position>
            <AltitudeMeters>152.600006103515625</AltitudeMeters>
            <DistanceMeters>NAN</DistanceMeters>
          </Trackpoint>
          <Trackpoint>
            <Time>2020-05-25T07:13:21.000Z</Time>
            <Position>
              <LatitudeDegrees>38.1218617223203182220458984375</LatitudeDegrees>
              <LongitudeDegrees>-1.15427750162780284881591796875</LongitudeDegrees>
            </Position>
            <AltitudeMeters>152.8000030517578125</AltitudeMeters>
            <DistanceMeters>NAN</DistanceMeters>
          </Trackpoint>
          <Trackpoint>
            <Time>2020-05-25T07:13:22.000Z</Time>
            <Position>
              <LatitudeDegrees>38.12180154025554656982421875</LatitudeDegrees>
              <LongitudeDegrees>-1.1543089337646961212158203125</LongitudeDegrees>
            </Position>
            <AltitudeMeters>153</AltitudeMeters>
            <DistanceMeters>NAN</DistanceMeters>
          </Trackpoint>
          <Trackpoint>
            <Time>2020-05-25T07:13:23.000Z</Time>
            <Position>
              <LatitudeDegrees>38.1217410229146480560302734375</LatitudeDegrees>
              <LongitudeDegrees>-1.15433952771127223968505859375</LongitudeDegrees>
            </Position>
            <AltitudeMeters>153</AltitudeMeters>
            <DistanceMeters>NAN</DistanceMeters>
          </Trackpoint>
          <Trackpoint>
            <Time>2020-05-25T07:13:24.000Z</Time>
            <Position>
              <LatitudeDegrees>38.12168193049728870391845703125</LatitudeDegrees>
              <LongitudeDegrees>-1.15437171421945095062255859375</LongitudeDegrees>
            </Position>
            <AltitudeMeters>153.1999969482421875</AltitudeMeters>
            <DistanceMeters>NAN</DistanceMeters>
          </Trackpoint>
          <Trackpoint>
            <Time>2020-05-25T07:13:25.000Z</Time>
            <Position>
              <LatitudeDegrees>38.12162392772734165191650390625</LatitudeDegrees>
              <LongitudeDegrees>-1.15440792404115200042724609375</LongitudeDegrees>
            </Position>
            <AltitudeMeters>153.399993896484375</AltitudeMeters>
            <DistanceMeters>NAN</DistanceMeters>
          </Trackpoint>
          <Trackpoint>
            <Time>2020-05-25T07:13:26.000Z</Time>
            <Position>
              <LatitudeDegrees>38.1215650029480457305908203125</LatitudeDegrees>
              <LongitudeDegrees>-1.154437847435474395751953125</LongitudeDegrees>
            </Position>
            <AltitudeMeters>153.399993896484375</AltitudeMeters>
            <DistanceMeters>NAN</DistanceMeters>
          </Trackpoint>
          <Trackpoint>
            <Time>2020-05-25T07:13:27.000Z</Time>
            <Position>
              <LatitudeDegrees>38.12150741927325725555419921875</LatitudeDegrees>
              <LongitudeDegrees>-1.15446944721043109893798828125</LongitudeDegrees>
            </Position>
            <AltitudeMeters>153.600006103515625</AltitudeMeters>
            <DistanceMeters>NAN</DistanceMeters>
          </Trackpoint>
          <Trackpoint>
            <Time>2020-05-25T07:13:28.000Z</Time>
            <Position>
              <LatitudeDegrees>38.12144975177943706512451171875</LatitudeDegrees>
              <LongitudeDegrees>-1.15450096316635608673095703125</LongitudeDegrees>
            </Position>
            <AltitudeMeters>153.8000030517578125</AltitudeMeters>
            <DistanceMeters>NAN</DistanceMeters>
          </Trackpoint>
          <Trackpoint>
            <Time>2020-05-25T07:13:29.000Z</Time>
            <Position>
              <LatitudeDegrees>38.1213926710188388824462890625</LatitudeDegrees>
              <LongitudeDegrees>-1.154532395303249359130859375</LongitudeDegrees>
            </Position>
            <AltitudeMeters>154</AltitudeMeters>
            <DistanceMeters>NAN</DistanceMeters>
          </Trackpoint>
          <Trackpoint>
            <Time>2020-05-25T07:13:30.000Z</Time>
            <Position>
              <LatitudeDegrees>38.1213368475437164306640625</LatitudeDegrees>
              <LongitudeDegrees>-1.1545634083449840545654296875</LongitudeDegrees>
            </Position>
            <AltitudeMeters>154</AltitudeMeters>
            <DistanceMeters>NAN</DistanceMeters>
          </Trackpoint>
          <Trackpoint>
            <Time>2020-05-25T07:13:31.000Z</Time>
            <Position>
              <LatitudeDegrees>38.12128194607794284820556640625</LatitudeDegrees>
              <LongitudeDegrees>-1.1545935831964015960693359375</LongitudeDegrees>
            </Position>
            <AltitudeMeters>154.1999969482421875</AltitudeMeters>
            <DistanceMeters>NAN</DistanceMeters>
          </Trackpoint>
          <Trackpoint>
            <Time>2020-05-25T07:13:32.000Z</Time>
            <Position>
              <LatitudeDegrees>38.121226541697978973388671875</LatitudeDegrees>
              <LongitudeDegrees>-1.154624260962009429931640625</LongitudeDegrees>
            </Position>
            <AltitudeMeters>154.399993896484375</AltitudeMeters>
            <DistanceMeters>NAN</DistanceMeters>
          </Trackpoint>
          <Trackpoint>
            <Time>2020-05-25T07:13:33.000Z</Time>
            <Position>
              <LatitudeDegrees>38.1211705505847930908203125</LatitudeDegrees>
              <LongitudeDegrees>-1.15465435199439525604248046875</LongitudeDegrees>
            </Position>
            <AltitudeMeters>154.399993896484375</AltitudeMeters>
            <DistanceMeters>NAN</DistanceMeters>
          </Trackpoint>
          <Trackpoint>
            <Time>2020-05-25T07:13:34.000Z</Time>
            <Position>
              <LatitudeDegrees>38.1211150623857975006103515625</LatitudeDegrees>
              <LongitudeDegrees>-1.1546851135790348052978515625</LongitudeDegrees>
            </Position>
            <AltitudeMeters>154.600006103515625</AltitudeMeters>
            <DistanceMeters>NAN</DistanceMeters>
          </Trackpoint>
          <Trackpoint>
            <Time>2020-05-25T07:13:35.000Z</Time>
            <Position>
              <LatitudeDegrees>38.12105831690132617950439453125</LatitudeDegrees>
              <LongitudeDegrees>-1.1547159589827060699462890625</LongitudeDegrees>
            </Position>
            <AltitudeMeters>154.8000030517578125</AltitudeMeters>
            <DistanceMeters>NAN</DistanceMeters>
          </Trackpoint>
          <Trackpoint>
            <Time>2020-05-25T07:13:36.000Z</Time>
            <Position>
              <LatitudeDegrees>38.1210029125213623046875</LatitudeDegrees>
              <LongitudeDegrees>-1.15474688820540904998779296875</LongitudeDegrees>
            </Position>
            <AltitudeMeters>154.8000030517578125</AltitudeMeters>
            <DistanceMeters>NAN</DistanceMeters>
          </Trackpoint>
          <Trackpoint>
            <Time>2020-05-25T07:13:37.000Z</Time>
            <Position>
              <LatitudeDegrees>38.120948933064937591552734375</LatitudeDegrees>
              <LongitudeDegrees>-1.15477924235165119171142578125</LongitudeDegrees>
            </Position>
            <AltitudeMeters>155</AltitudeMeters>
            <DistanceMeters>NAN</DistanceMeters>
          </Trackpoint>
          <Trackpoint>
            <Time>2020-05-25T07:13:38.000Z</Time>
            <Position>
              <LatitudeDegrees>38.12089218758046627044677734375</LatitudeDegrees>
              <LongitudeDegrees>-1.15480824373662471771240234375</LongitudeDegrees>
            </Position>
            <AltitudeMeters>155.1999969482421875</AltitudeMeters>
            <DistanceMeters>NAN</DistanceMeters>
          </Trackpoint>
          <Trackpoint>
            <Time>2020-05-25T07:13:39.000Z</Time>
            <Position>
              <LatitudeDegrees>38.12083636410534381866455078125</LatitudeDegrees>
              <LongitudeDegrees>-1.15483825094997882843017578125</LongitudeDegrees>
            </Position>
            <AltitudeMeters>155.1999969482421875</AltitudeMeters>
            <DistanceMeters>NAN</DistanceMeters>
          </Trackpoint>
          <Trackpoint>
            <Time>2020-05-25T07:13:40.000Z</Time>
            <Position>
              <LatitudeDegrees>38.12078104354441165924072265625</LatitudeDegrees>
              <LongitudeDegrees>-1.15486876107752323150634765625</LongitudeDegrees>
            </Position>
            <AltitudeMeters>155.399993896484375</AltitudeMeters>
            <DistanceMeters>NAN</DistanceMeters>
          </Trackpoint>
          <Trackpoint>
            <Time>2020-05-25T07:13:41.000Z</Time>
            <Position>
              <LatitudeDegrees>38.1207251362502574920654296875</LatitudeDegrees>
              <LongitudeDegrees>-1.154899187386035919189453125</LongitudeDegrees>
            </Position>
            <AltitudeMeters>155.600006103515625</AltitudeMeters>
            <DistanceMeters>NAN</DistanceMeters>
          </Trackpoint>
          <Trackpoint>
            <Time>2020-05-25T07:13:42.000Z</Time>
            <Position>
              <LatitudeDegrees>38.12066939659416675567626953125</LatitudeDegrees>
              <LongitudeDegrees>-1.1549305357038974761962890625</LongitudeDegrees>
            </Position>
            <AltitudeMeters>155.600006103515625</AltitudeMeters>
            <DistanceMeters>NAN</DistanceMeters>
          </Trackpoint>
          <Trackpoint>
            <Time>2020-05-25T07:13:43.000Z</Time>
            <Position>
              <LatitudeDegrees>38.12061457894742488861083984375</LatitudeDegrees>
              <LongitudeDegrees>-1.15496096201241016387939453125</LongitudeDegrees>
            </Position>
            <AltitudeMeters>155.8000030517578125</AltitudeMeters>
            <DistanceMeters>NAN</DistanceMeters>
          </Trackpoint>
          <Trackpoint>
            <Time>2020-05-25T07:13:44.000Z</Time>
            <Position>
              <LatitudeDegrees>38.12055942602455615997314453125</LatitudeDegrees>
              <LongitudeDegrees>-1.15499130450189113616943359375</LongitudeDegrees>
            </Position>
            <AltitudeMeters>156</AltitudeMeters>
            <DistanceMeters>NAN</DistanceMeters>
          </Trackpoint>
          <Trackpoint>
            <Time>2020-05-25T07:13:45.000Z</Time>
            <Position>
              <LatitudeDegrees>38.12050494365394115447998046875</LatitudeDegrees>
              <LongitudeDegrees>-1.1550224013626575469970703125</LongitudeDegrees>
            </Position>
            <AltitudeMeters>156</AltitudeMeters>
            <DistanceMeters>NAN</DistanceMeters>
          </Trackpoint>
          <Trackpoint>
            <Time>2020-05-25T07:13:46.000Z</Time>
            <Position>
              <LatitudeDegrees>38.12045062892138957977294921875</LatitudeDegrees>
              <LongitudeDegrees>-1.15505509078502655029296875</LongitudeDegrees>
            </Position>
            <AltitudeMeters>156.1999969482421875</AltitudeMeters>
            <DistanceMeters>NAN</DistanceMeters>
          </Trackpoint>
          <Trackpoint>
            <Time>2020-05-25T07:13:47.000Z</Time>
            <Position>
              <LatitudeDegrees>38.12039673328399658203125</LatitudeDegrees>
              <LongitudeDegrees>-1.15508602000772953033447265625</LongitudeDegrees>
            </Position>
            <AltitudeMeters>156.1999969482421875</AltitudeMeters>
            <DistanceMeters>NAN</DistanceMeters>
          </Trackpoint>
          <Trackpoint>
            <Time>2020-05-25T07:13:48.000Z</Time>
            <Position>
              <LatitudeDegrees>38.12034317292273044586181640625</LatitudeDegrees>
              <LongitudeDegrees>-1.15511736832559108734130859375</LongitudeDegrees>
            </Position>
            <AltitudeMeters>156.399993896484375</AltitudeMeters>
            <DistanceMeters>NAN</DistanceMeters>
          </Trackpoint>
          <Trackpoint>
            <Time>2020-05-25T07:13:49.000Z</Time>
            <Position>
              <LatitudeDegrees>38.12028952874243259429931640625</LatitudeDegrees>
              <LongitudeDegrees>-1.15514854900538921356201171875</LongitudeDegrees>
            </Position>
            <AltitudeMeters>156.600006103515625</AltitudeMeters>
            <DistanceMeters>NAN</DistanceMeters>
          </Trackpoint>
          <Trackpoint>
            <Time>2020-05-25T07:13:50.000Z</Time>
            <Position>
              <LatitudeDegrees>38.12023580074310302734375</LatitudeDegrees>
              <LongitudeDegrees>-1.155178807675838470458984375</LongitudeDegrees>
            </Position>
            <AltitudeMeters>156.600006103515625</AltitudeMeters>
            <DistanceMeters>NAN</DistanceMeters>
          </Trackpoint>
          <Trackpoint>
            <Time>2020-05-25T07:13:51.000Z</Time>
            <Position>
              <LatitudeDegrees>38.1201819889247417449951171875</LatitudeDegrees>
              <LongitudeDegrees>-1.1552081443369388580322265625</LongitudeDegrees>
            </Position>
            <AltitudeMeters>156.8000030517578125</AltitudeMeters>
            <DistanceMeters>NAN</DistanceMeters>
          </Trackpoint>
          <Trackpoint>
            <Time>2020-05-25T07:13:52.000Z</Time>
            <Position>
              <LatitudeDegrees>38.12012784183025360107421875</LatitudeDegrees>
              <LongitudeDegrees>-1.15523790009319782257080078125</LongitudeDegrees>
            </Position>
            <AltitudeMeters>157</AltitudeMeters>
            <DistanceMeters>NAN</DistanceMeters>
          </Trackpoint>
          <Trackpoint>
            <Time>2020-05-25T07:13:53.000Z</Time>
            <Position>
              <LatitudeDegrees>38.12007294036448001861572265625</LatitudeDegrees>
              <LongitudeDegrees>-1.155267655849456787109375</LongitudeDegrees>
            </Position>
            <AltitudeMeters>157.1999969482421875</AltitudeMeters>
            <DistanceMeters>NAN</DistanceMeters>
          </Trackpoint>
          <Trackpoint>
            <Time>2020-05-25T07:13:54.000Z</Time>
            <Position>
              <LatitudeDegrees>38.12001929618418216705322265625</LatitudeDegrees>
              <LongitudeDegrees>-1.15529925562441349029541015625</LongitudeDegrees>
            </Position>
            <AltitudeMeters>157.600006103515625</AltitudeMeters>
            <DistanceMeters>NAN</DistanceMeters>
          </Trackpoint>
          <Trackpoint>
            <Time>2020-05-25T07:13:55.000Z</Time>
            <Position>
              <LatitudeDegrees>38.1199635565280914306640625</LatitudeDegrees>
              <LongitudeDegrees>-1.15532691590487957000732421875</LongitudeDegrees>
            </Position>
            <AltitudeMeters>157.8000030517578125</AltitudeMeters>
            <DistanceMeters>NAN</DistanceMeters>
          </Trackpoint>
          <Trackpoint>
            <Time>2020-05-25T07:13:56.000Z</Time>
            <Position>
              <LatitudeDegrees>38.119908906519412994384765625</LatitudeDegrees>
              <LongitudeDegrees>-1.15535776130855083465576171875</LongitudeDegrees>
            </Position>
            <AltitudeMeters>158.1999969482421875</AltitudeMeters>
            <DistanceMeters>NAN</DistanceMeters>
          </Trackpoint>
          <Trackpoint>
            <Time>2020-05-25T07:13:57.000Z</Time>
            <Position>
              <LatitudeDegrees>38.11985425651073455810546875</LatitudeDegrees>
              <LongitudeDegrees>-1.15539028309285640716552734375</LongitudeDegrees>
            </Position>
            <AltitudeMeters>158.399993896484375</AltitudeMeters>
            <DistanceMeters>NAN</DistanceMeters>
          </Trackpoint>
          <Trackpoint>
            <Time>2020-05-25T07:13:58.000Z</Time>
            <Position>
              <LatitudeDegrees>38.11979868449270725250244140625</LatitudeDegrees>
              <LongitudeDegrees>-1.15542163141071796417236328125</LongitudeDegrees>
            </Position>
            <AltitudeMeters>158.8000030517578125</AltitudeMeters>
            <DistanceMeters>NAN</DistanceMeters>
          </Trackpoint>
          <Trackpoint>
            <Time>2020-05-25T07:13:59.000Z</Time>
            <Position>
              <LatitudeDegrees>38.1197437830269336700439453125</LatitudeDegrees>
              <LongitudeDegrees>-1.15545473992824554443359375</LongitudeDegrees>
            </Position>
            <AltitudeMeters>159.1999969482421875</AltitudeMeters>
            <DistanceMeters>NAN</DistanceMeters>
          </Trackpoint>
          <Trackpoint>
            <Time>2020-05-25T07:14:00.000Z</Time>
            <Position>
              <LatitudeDegrees>38.1196884624660015106201171875</LatitudeDegrees>
              <LongitudeDegrees>-1.15548701025545597076416015625</LongitudeDegrees>
            </Position>
            <AltitudeMeters>159.399993896484375</AltitudeMeters>
            <DistanceMeters>NAN</DistanceMeters>
          </Trackpoint>
          <Trackpoint>
            <Time>2020-05-25T07:14:01.000Z</Time>
            <Position>
              <LatitudeDegrees>38.11963406391441822052001953125</LatitudeDegrees>
              <LongitudeDegrees>-1.15551886148750782012939453125</LongitudeDegrees>
            </Position>
            <AltitudeMeters>159.8000030517578125</AltitudeMeters>
            <DistanceMeters>NAN</DistanceMeters>
          </Trackpoint>
          <Trackpoint>
            <Time>2020-05-25T07:14:02.000Z</Time>
            <Position>
              <LatitudeDegrees>38.119579665362834930419921875</LatitudeDegrees>
              <LongitudeDegrees>-1.15554987452924251556396484375</LongitudeDegrees>
            </Position>
            <AltitudeMeters>160.1999969482421875</AltitudeMeters>
            <DistanceMeters>NAN</DistanceMeters>
          </Trackpoint>
          <Trackpoint>
            <Time>2020-05-25T07:14:03.000Z</Time>
            <Position>
              <LatitudeDegrees>38.1195248477160930633544921875</LatitudeDegrees>
              <LongitudeDegrees>-1.1555796302855014801025390625</LongitudeDegrees>
            </Position>
            <AltitudeMeters>160.399993896484375</AltitudeMeters>
            <DistanceMeters>NAN</DistanceMeters>
          </Trackpoint>
          <Trackpoint>
            <Time>2020-05-25T07:14:04.000Z</Time>
            <Position>
              <LatitudeDegrees>38.11946927569806575775146484375</LatitudeDegrees>
              <LongitudeDegrees>-1.1556098051369190216064453125</LongitudeDegrees>
            </Position>
            <AltitudeMeters>160.8000030517578125</AltitudeMeters>
            <DistanceMeters>NAN</DistanceMeters>
          </Trackpoint>
          <Trackpoint>
            <Time>2020-05-25T07:14:05.000Z</Time>
            <Position>
              <LatitudeDegrees>38.119413368403911590576171875</LatitudeDegrees>
              <LongitudeDegrees>-1.15564056672155857086181640625</LongitudeDegrees>
            </Position>
            <AltitudeMeters>161</AltitudeMeters>
            <DistanceMeters>NAN</DistanceMeters>
          </Trackpoint>
          <Trackpoint>
            <Time>2020-05-25T07:14:06.000Z</Time>
            <Position>
              <LatitudeDegrees>38.11935712583363056182861328125</LatitudeDegrees>
              <LongitudeDegrees>-1.15567057393491268157958984375</LongitudeDegrees>
            </Position>
            <AltitudeMeters>161.1999969482421875</AltitudeMeters>
            <DistanceMeters>NAN</DistanceMeters>
          </Trackpoint>
          <Trackpoint>
            <Time>2020-05-25T07:14:07.000Z</Time>
            <Position>
              <LatitudeDegrees>38.119300715625286102294921875</LatitudeDegrees>
              <LongitudeDegrees>-1.15570225752890110015869140625</LongitudeDegrees>
            </Position>
            <AltitudeMeters>161.399993896484375</AltitudeMeters>
            <DistanceMeters>NAN</DistanceMeters>
          </Trackpoint>
          <Trackpoint>
            <Time>2020-05-25T07:14:08.000Z</Time>
            <Position>
              <LatitudeDegrees>38.1192442215979099273681640625</LatitudeDegrees>
              <LongitudeDegrees>-1.15573410876095294952392578125</LongitudeDegrees>
            </Position>
            <AltitudeMeters>161.600006103515625</AltitudeMeters>
            <DistanceMeters>NAN</DistanceMeters>
          </Trackpoint>
          <Trackpoint>
            <Time>2020-05-25T07:14:09.000Z</Time>
            <Position>
              <LatitudeDegrees>38.11918881721794605255126953125</LatitudeDegrees>
              <LongitudeDegrees>-1.15576327778398990631103515625</LongitudeDegrees>
            </Position>
            <AltitudeMeters>161.600006103515625</AltitudeMeters>
            <DistanceMeters>NAN</DistanceMeters>
          </Trackpoint>
          <Trackpoint>
            <Time>2020-05-25T07:14:10.000Z</Time>
            <Position>
              <LatitudeDegrees>38.11913282610476016998291015625</LatitudeDegrees>
              <LongitudeDegrees>-1.15579445846378803253173828125</LongitudeDegrees>
            </Position>
            <AltitudeMeters>161.600006103515625</AltitudeMeters>
            <DistanceMeters>NAN</DistanceMeters>
          </Trackpoint>
          <Trackpoint>
            <Time>2020-05-25T07:14:11.000Z</Time>
            <Position>
              <LatitudeDegrees>38.119078092277050018310546875</LatitudeDegrees>
              <LongitudeDegrees>-1.15582647733390331268310546875</LongitudeDegrees>
            </Position>
            <AltitudeMeters>161.600006103515625</AltitudeMeters>
            <DistanceMeters>NAN</DistanceMeters>
          </Trackpoint>
          <Trackpoint>
            <Time>2020-05-25T07:14:12.000Z</Time>
            <Position>
              <LatitudeDegrees>38.11902352608740329742431640625</LatitudeDegrees>
              <LongitudeDegrees>-1.1558590829372406005859375</LongitudeDegrees>
            </Position>
            <AltitudeMeters>161.600006103515625</AltitudeMeters>
            <DistanceMeters>NAN</DistanceMeters>
          </Trackpoint>
          <Trackpoint>
            <Time>2020-05-25T07:14:13.000Z</Time>
            <Position>
              <LatitudeDegrees>38.11896820552647113800048828125</LatitudeDegrees>
              <LongitudeDegrees>-1.15589017979800701141357421875</LongitudeDegrees>
            </Position>
            <AltitudeMeters>161.600006103515625</AltitudeMeters>
            <DistanceMeters>NAN</DistanceMeters>
          </Trackpoint>
          <Trackpoint>
            <Time>2020-05-25T07:14:14.000Z</Time>
            <Position>
              <LatitudeDegrees>38.118911124765872955322265625</LatitudeDegrees>
              <LongitudeDegrees>-1.15592010319232940673828125</LongitudeDegrees>
            </Position>
            <AltitudeMeters>161.600006103515625</AltitudeMeters>
            <DistanceMeters>NAN</DistanceMeters>
          </Trackpoint>
          <Trackpoint>
            <Time>2020-05-25T07:14:15.000Z</Time>
            <Position>
              <LatitudeDegrees>38.11885504983365535736083984375</LatitudeDegrees>
              <LongitudeDegrees>-1.155948601663112640380859375</LongitudeDegrees>
            </Position>
            <AltitudeMeters>161.600006103515625</AltitudeMeters>
            <DistanceMeters>NAN</DistanceMeters>
          </Trackpoint>
          <Trackpoint>
            <Time>2020-05-25T07:14:16.000Z</Time>
            <Position>
              <LatitudeDegrees>38.11880023218691349029541015625</LatitudeDegrees>
              <LongitudeDegrees>-1.15597835741937160491943359375</LongitudeDegrees>
            </Position>
            <AltitudeMeters>161.600006103515625</AltitudeMeters>
            <DistanceMeters>NAN</DistanceMeters>
          </Trackpoint>
          <Trackpoint>
            <Time>2020-05-25T07:14:17.000Z</Time>
            <Position>
              <LatitudeDegrees>38.11874323524534702301025390625</LatitudeDegrees>
              <LongitudeDegrees>-1.15600786171853542327880859375</LongitudeDegrees>
            </Position>
            <AltitudeMeters>161.600006103515625</AltitudeMeters>
            <DistanceMeters>NAN</DistanceMeters>
          </Trackpoint>
          <Trackpoint>
            <Time>2020-05-25T07:14:18.000Z</Time>
            <Position>
              <LatitudeDegrees>38.1186856515705585479736328125</LatitudeDegrees>
              <LongitudeDegrees>-1.1560387909412384033203125</LongitudeDegrees>
            </Position>
            <AltitudeMeters>161.399993896484375</AltitudeMeters>
            <DistanceMeters>NAN</DistanceMeters>
          </Trackpoint>
          <Trackpoint>
            <Time>2020-05-25T07:14:19.000Z</Time>
            <Position>
              <LatitudeDegrees>38.11862639151513576507568359375</LatitudeDegrees>
              <LongitudeDegrees>-1.1560714803636074066162109375</LongitudeDegrees>
            </Position>
            <AltitudeMeters>161.399993896484375</AltitudeMeters>
            <DistanceMeters>NAN</DistanceMeters>
          </Trackpoint>
          <Trackpoint>
            <Time>2020-05-25T07:14:20.000Z</Time>
            <Position>
              <LatitudeDegrees>38.118567802011966705322265625</LatitudeDegrees>
              <LongitudeDegrees>-1.15610240958631038665771484375</LongitudeDegrees>
            </Position>
            <AltitudeMeters>161.399993896484375</AltitudeMeters>
            <DistanceMeters>NAN</DistanceMeters>
          </Trackpoint>
          <Trackpoint>
            <Time>2020-05-25T07:14:21.000Z</Time>
            <Position>
              <LatitudeDegrees>38.118510805070400238037109375</LatitudeDegrees>
              <LongitudeDegrees>-1.1561345122754573822021484375</LongitudeDegrees>
            </Position>
            <AltitudeMeters>161.399993896484375</AltitudeMeters>
            <DistanceMeters>NAN</DistanceMeters>
          </Trackpoint>
          <Trackpoint>
            <Time>2020-05-25T07:14:22.000Z</Time>
            <Position>
              <LatitudeDegrees>38.11845405958592891693115234375</LatitudeDegrees>
              <LongitudeDegrees>-1.1561643518507480621337890625</LongitudeDegrees>
            </Position>
            <AltitudeMeters>161.399993896484375</AltitudeMeters>
            <DistanceMeters>NAN</DistanceMeters>
          </Trackpoint>
          <Trackpoint>
            <Time>2020-05-25T07:14:23.000Z</Time>
            <Position>
              <LatitudeDegrees>38.11839781701564788818359375</LatitudeDegrees>
              <LongitudeDegrees>-1.1561943590641021728515625</LongitudeDegrees>
            </Position>
            <AltitudeMeters>161.399993896484375</AltitudeMeters>
            <DistanceMeters>NAN</DistanceMeters>
          </Trackpoint>
          <Trackpoint>
            <Time>2020-05-25T07:14:24.000Z</Time>
            <Position>
              <LatitudeDegrees>38.11834107153117656707763671875</LatitudeDegrees>
              <LongitudeDegrees>-1.15622461773455142974853515625</LongitudeDegrees>
            </Position>
            <AltitudeMeters>161.600006103515625</AltitudeMeters>
            <DistanceMeters>NAN</DistanceMeters>
          </Trackpoint>
          <Trackpoint>
            <Time>2020-05-25T07:14:25.000Z</Time>
            <Position>
              <LatitudeDegrees>38.118285499513149261474609375</LatitudeDegrees>
              <LongitudeDegrees>-1.15625613369047641754150390625</LongitudeDegrees>
            </Position>
            <AltitudeMeters>161.8000030517578125</AltitudeMeters>
            <DistanceMeters>NAN</DistanceMeters>
          </Trackpoint>
          <Trackpoint>
            <Time>2020-05-25T07:14:26.000Z</Time>
            <Position>
              <LatitudeDegrees>38.11822892166674137115478515625</LatitudeDegrees>
              <LongitudeDegrees>-1.15628479979932308197021484375</LongitudeDegrees>
            </Position>
            <AltitudeMeters>162</AltitudeMeters>
            <DistanceMeters>NAN</DistanceMeters>
          </Trackpoint>
          <Trackpoint>
            <Time>2020-05-25T07:14:27.000Z</Time>
            <Position>
              <LatitudeDegrees>38.11817242763936519622802734375</LatitudeDegrees>
              <LongitudeDegrees>-1.15631463937461376190185546875</LongitudeDegrees>
            </Position>
            <AltitudeMeters>162.1999969482421875</AltitudeMeters>
            <DistanceMeters>NAN</DistanceMeters>
          </Trackpoint>
          <Trackpoint>
            <Time>2020-05-25T07:14:28.000Z</Time>
            <Position>
              <LatitudeDegrees>38.11811509542167186737060546875</LatitudeDegrees>
              <LongitudeDegrees>-1.15634766407310962677001953125</LongitudeDegrees>
            </Position>
            <AltitudeMeters>162.1999969482421875</AltitudeMeters>
            <DistanceMeters>NAN</DistanceMeters>
          </Trackpoint>
          <Trackpoint>
            <Time>2020-05-25T07:14:29.000Z</Time>
            <Position>
              <LatitudeDegrees>38.11805843375623226165771484375</LatitudeDegrees>
              <LongitudeDegrees>-1.156381107866764068603515625</LongitudeDegrees>
            </Position>
            <AltitudeMeters>162.399993896484375</AltitudeMeters>
            <DistanceMeters>NAN</DistanceMeters>
          </Trackpoint>
          <Trackpoint>
            <Time>2020-05-25T07:14:30.000Z</Time>
            <Position>
              <LatitudeDegrees>38.11800143681466579437255859375</LatitudeDegrees>
              <LongitudeDegrees>-1.15641036070883274078369140625</LongitudeDegrees>
            </Position>
            <AltitudeMeters>162.600006103515625</AltitudeMeters>
            <DistanceMeters>NAN</DistanceMeters>
          </Trackpoint>
          <Trackpoint>
            <Time>2020-05-25T07:14:31.000Z</Time>
            <Position>
              <LatitudeDegrees>38.1179446913301944732666015625</LatitudeDegrees>
              <LongitudeDegrees>-1.15644103847444057464599609375</LongitudeDegrees>
            </Position>
            <AltitudeMeters>162.8000030517578125</AltitudeMeters>
            <DistanceMeters>NAN</DistanceMeters>
          </Trackpoint>
          <Trackpoint>
            <Time>2020-05-25T07:14:32.000Z</Time>
            <Position>
              <LatitudeDegrees>38.1178883649408817291259765625</LatitudeDegrees>
              <LongitudeDegrees>-1.15647288970649242401123046875</LongitudeDegrees>
            </Position>
            <AltitudeMeters>162.8000030517578125</AltitudeMeters>
            <DistanceMeters>NAN</DistanceMeters>
          </Trackpoint>
          <Trackpoint>
            <Time>2020-05-25T07:14:33.000Z</Time>
            <Position>
              <LatitudeDegrees>38.1178320385515689849853515625</LatitudeDegrees>
              <LongitudeDegrees>-1.1565039865672588348388671875</LongitudeDegrees>
            </Position>
            <AltitudeMeters>163</AltitudeMeters>
            <DistanceMeters>NAN</DistanceMeters>
          </Trackpoint>
          <Trackpoint>
            <Time>2020-05-25T07:14:34.000Z</Time>
            <Position>
              <LatitudeDegrees>38.11777512542903423309326171875</LatitudeDegrees>
              <LongitudeDegrees>-1.15653432905673980712890625</LongitudeDegrees>
            </Position>
            <AltitudeMeters>163.1999969482421875</AltitudeMeters>
            <DistanceMeters>NAN</DistanceMeters>
          </Trackpoint>
          <Trackpoint>
            <Time>2020-05-25T07:14:35.000Z</Time>
            <Position>
              <LatitudeDegrees>38.1177187152206897735595703125</LatitudeDegrees>
              <LongitudeDegrees>-1.1565653420984745025634765625</LongitudeDegrees>
            </Position>
            <AltitudeMeters>163.1999969482421875</AltitudeMeters>
            <DistanceMeters>NAN</DistanceMeters>
          </Trackpoint>
          <Trackpoint>
            <Time>2020-05-25T07:14:36.000Z</Time>
            <Position>
              <LatitudeDegrees>38.11766264028847217559814453125</LatitudeDegrees>
              <LongitudeDegrees>-1.1565961875021457672119140625</LongitudeDegrees>
            </Position>
            <AltitudeMeters>163.399993896484375</AltitudeMeters>
            <DistanceMeters>NAN</DistanceMeters>
          </Trackpoint>
          <Trackpoint>
            <Time>2020-05-25T07:14:37.000Z</Time>
            <Position>
              <LatitudeDegrees>38.11760597862303256988525390625</LatitudeDegrees>
              <LongitudeDegrees>-1.1566280387341976165771484375</LongitudeDegrees>
            </Position>
            <AltitudeMeters>163.600006103515625</AltitudeMeters>
            <DistanceMeters>NAN</DistanceMeters>
          </Trackpoint>
          <Trackpoint>
            <Time>2020-05-25T07:14:38.000Z</Time>
            <Position>
              <LatitudeDegrees>38.11754831112921237945556640625</LatitudeDegrees>
              <LongitudeDegrees>-1.15665972232818603515625</LongitudeDegrees>
            </Position>
            <AltitudeMeters>163.600006103515625</AltitudeMeters>
            <DistanceMeters>NAN</DistanceMeters>
          </Trackpoint>
          <Trackpoint>
            <Time>2020-05-25T07:14:39.000Z</Time>
            <Position>
              <LatitudeDegrees>38.1174905598163604736328125</LatitudeDegrees>
              <LongitudeDegrees>-1.15669123828411102294921875</LongitudeDegrees>
            </Position>
            <AltitudeMeters>163.600006103515625</AltitudeMeters>
            <DistanceMeters>NAN</DistanceMeters>
          </Trackpoint>
          <Trackpoint>
            <Time>2020-05-25T07:14:40.000Z</Time>
            <Position>
              <LatitudeDegrees>38.1174323894083499908447265625</LatitudeDegrees>
              <LongitudeDegrees>-1.15672350861132144927978515625</LongitudeDegrees>
            </Position>
            <AltitudeMeters>163.8000030517578125</AltitudeMeters>
            <DistanceMeters>NAN</DistanceMeters>
          </Trackpoint>
          <Trackpoint>
            <Time>2020-05-25T07:14:41.000Z</Time>
            <Position>
              <LatitudeDegrees>38.117373548448085784912109375</LatitudeDegrees>
              <LongitudeDegrees>-1.1567577905952930450439453125</LongitudeDegrees>
            </Position>
            <AltitudeMeters>163.8000030517578125</AltitudeMeters>
            <DistanceMeters>NAN</DistanceMeters>
          </Trackpoint>
          <Trackpoint>
            <Time>2020-05-25T07:14:42.000Z</Time>
            <Position>
              <LatitudeDegrees>38.11731479130685329437255859375</LatitudeDegrees>
              <LongitudeDegrees>-1.15679182112216949462890625</LongitudeDegrees>
            </Position>
            <AltitudeMeters>163.8000030517578125</AltitudeMeters>
            <DistanceMeters>NAN</DistanceMeters>
          </Trackpoint>
          <Trackpoint>
            <Time>2020-05-25T07:14:43.000Z</Time>
            <Position>
              <LatitudeDegrees>38.11725653707981109619140625</LatitudeDegrees>
              <LongitudeDegrees>-1.1568281985819339752197265625</LongitudeDegrees>
            </Position>
            <AltitudeMeters>164</AltitudeMeters>
            <DistanceMeters>NAN</DistanceMeters>
          </Trackpoint>
          <Trackpoint>
            <Time>2020-05-25T07:14:44.000Z</Time>
            <Position>
              <LatitudeDegrees>38.11719928868114948272705078125</LatitudeDegrees>
              <LongitudeDegrees>-1.15686432458460330963134765625</LongitudeDegrees>
            </Position>
            <AltitudeMeters>164</AltitudeMeters>
            <DistanceMeters>NAN</DistanceMeters>
          </Trackpoint>
          <Trackpoint>
            <Time>2020-05-25T07:14:45.000Z</Time>
            <Position>
              <LatitudeDegrees>38.117146231234073638916015625</LatitudeDegrees>
              <LongitudeDegrees>-1.156905479729175567626953125</LongitudeDegrees>
            </Position>
            <AltitudeMeters>164</AltitudeMeters>
            <DistanceMeters>NAN</DistanceMeters>
          </Trackpoint>
          <Trackpoint>
            <Time>2020-05-25T07:14:46.000Z</Time>
            <Position>
              <LatitudeDegrees>38.11709535308182239532470703125</LatitudeDegrees>
              <LongitudeDegrees>-1.15695032291114330291748046875</LongitudeDegrees>
            </Position>
            <AltitudeMeters>164</AltitudeMeters>
            <DistanceMeters>NAN</DistanceMeters>
          </Trackpoint>
          <Trackpoint>
            <Time>2020-05-25T07:14:47.000Z</Time>
            <Position>
              <LatitudeDegrees>38.11704673804342746734619140625</LatitudeDegrees>
              <LongitudeDegrees>-1.15700061433017253875732421875</LongitudeDegrees>
            </Position>
            <AltitudeMeters>164</AltitudeMeters>
            <DistanceMeters>NAN</DistanceMeters>
          </Trackpoint>
          <Trackpoint>
            <Time>2020-05-25T07:14:48.000Z</Time>
            <Position>
              <LatitudeDegrees>38.1169975362718105316162109375</LatitudeDegrees>
              <LongitudeDegrees>-1.15705191157758235931396484375</LongitudeDegrees>
            </Position>
            <AltitudeMeters>164</AltitudeMeters>
            <DistanceMeters>NAN</DistanceMeters>
          </Trackpoint>
          <Trackpoint>
            <Time>2020-05-25T07:14:49.000Z</Time>
            <Position>
              <LatitudeDegrees>38.1169462390244007110595703125</LatitudeDegrees>
              <LongitudeDegrees>-1.15710488520562648773193359375</LongitudeDegrees>
            </Position>
            <AltitudeMeters>164</AltitudeMeters>
            <DistanceMeters>NAN</DistanceMeters>
          </Trackpoint>
          <Trackpoint>
            <Time>2020-05-25T07:14:50.000Z</Time>
            <Position>
              <LatitudeDegrees>38.11689712107181549072265625</LatitudeDegrees>
              <LongitudeDegrees>-1.1571599543094635009765625</LongitudeDegrees>
            </Position>
            <AltitudeMeters>164</AltitudeMeters>
            <DistanceMeters>NAN</DistanceMeters>
          </Trackpoint>
          <Trackpoint>
            <Time>2020-05-25T07:14:51.000Z</Time>
            <Position>
              <LatitudeDegrees>38.1168496794998645782470703125</LatitudeDegrees>
              <LongitudeDegrees>-1.157216615974903106689453125</LongitudeDegrees>
            </Position>
            <AltitudeMeters>164</AltitudeMeters>
            <DistanceMeters>NAN</DistanceMeters>
          </Trackpoint>
          <Trackpoint>
            <Time>2020-05-25T07:14:52.000Z</Time>
            <Position>
              <LatitudeDegrees>38.11680332757532596588134765625</LatitudeDegrees>
              <LongitudeDegrees>-1.1572761274874210357666015625</LongitudeDegrees>
            </Position>
            <AltitudeMeters>164</AltitudeMeters>
            <DistanceMeters>NAN</DistanceMeters>
          </Trackpoint>
          <Trackpoint>
            <Time>2020-05-25T07:14:53.000Z</Time>
            <Position>
              <LatitudeDegrees>38.11675990931689739227294921875</LatitudeDegrees>
              <LongitudeDegrees>-1.1573388241231441497802734375</LongitudeDegrees>
            </Position>
            <AltitudeMeters>164.1999969482421875</AltitudeMeters>
            <DistanceMeters>NAN</DistanceMeters>
          </Trackpoint>
          <Trackpoint>
            <Time>2020-05-25T07:14:54.000Z</Time>
            <Position>
              <LatitudeDegrees>38.1167175807058811187744140625</LatitudeDegrees>
              <LongitudeDegrees>-1.15740478970110416412353515625</LongitudeDegrees>
            </Position>
            <AltitudeMeters>164.399993896484375</AltitudeMeters>
            <DistanceMeters>NAN</DistanceMeters>
          </Trackpoint>
          <Trackpoint>
            <Time>2020-05-25T07:14:55.000Z</Time>
            <Position>
              <LatitudeDegrees>38.11667609028518199920654296875</LatitudeDegrees>
              <LongitudeDegrees>-1.15747218020260334014892578125</LongitudeDegrees>
            </Position>
            <AltitudeMeters>164.600006103515625</AltitudeMeters>
            <DistanceMeters>NAN</DistanceMeters>
          </Trackpoint>
          <Trackpoint>
            <Time>2020-05-25T07:14:56.000Z</Time>
            <Position>
              <LatitudeDegrees>38.116635940968990325927734375</LatitudeDegrees>
              <LongitudeDegrees>-1.15754091180860996246337890625</LongitudeDegrees>
            </Position>
            <AltitudeMeters>164.8000030517578125</AltitudeMeters>
            <DistanceMeters>NAN</DistanceMeters>
          </Trackpoint>
          <Trackpoint>
            <Time>2020-05-25T07:14:57.000Z</Time>
            <Position>
              <LatitudeDegrees>38.1165978871285915374755859375</LatitudeDegrees>
              <LongitudeDegrees>-1.1576124094426631927490234375</LongitudeDegrees>
            </Position>
            <AltitudeMeters>165</AltitudeMeters>
            <DistanceMeters>NAN</DistanceMeters>
          </Trackpoint>
          <Trackpoint>
            <Time>2020-05-25T07:14:58.000Z</Time>
            <Position>
              <LatitudeDegrees>38.1165620125830173492431640625</LatitudeDegrees>
              <LongitudeDegrees>-1.15768508054316043853759765625</LongitudeDegrees>
            </Position>
            <AltitudeMeters>165.1999969482421875</AltitudeMeters>
            <DistanceMeters>NAN</DistanceMeters>
          </Trackpoint>
          <Trackpoint>
            <Time>2020-05-25T07:14:59.000Z</Time>
            <Position>
              <LatitudeDegrees>38.11652789823710918426513671875</LatitudeDegrees>
              <LongitudeDegrees>-1.15775900892913341522216796875</LongitudeDegrees>
            </Position>
            <AltitudeMeters>165.399993896484375</AltitudeMeters>
            <DistanceMeters>NAN</DistanceMeters>
          </Trackpoint>
          <Trackpoint>
            <Time>2020-05-25T07:15:00.000Z</Time>
            <Position>
              <LatitudeDegrees>38.1164966337382793426513671875</LatitudeDegrees>
              <LongitudeDegrees>-1.157836206257343292236328125</LongitudeDegrees>
            </Position>
            <AltitudeMeters>165.600006103515625</AltitudeMeters>
            <DistanceMeters>NAN</DistanceMeters>
          </Trackpoint>
          <Trackpoint>
            <Time>2020-05-25T07:15:01.000Z</Time>
            <Position>
              <LatitudeDegrees>38.1164671294391155242919921875</LatitudeDegrees>
              <LongitudeDegrees>-1.15791457705199718475341796875</LongitudeDegrees>
            </Position>
            <AltitudeMeters>165.8000030517578125</AltitudeMeters>
            <DistanceMeters>NAN</DistanceMeters>
          </Trackpoint>
          <Trackpoint>
            <Time>2020-05-25T07:15:02.000Z</Time>
            <Position>
              <LatitudeDegrees>38.11643938533961772918701171875</LatitudeDegrees>
              <LongitudeDegrees>-1.15799286402761936187744140625</LongitudeDegrees>
            </Position>
            <AltitudeMeters>166</AltitudeMeters>
            <DistanceMeters>NAN</DistanceMeters>
          </Trackpoint>
          <Trackpoint>
            <Time>2020-05-25T07:15:03.000Z</Time>
            <Position>
              <LatitudeDegrees>38.116411976516246795654296875</LatitudeDegrees>
              <LongitudeDegrees>-1.15807098336517810821533203125</LongitudeDegrees>
            </Position>
            <AltitudeMeters>166.1999969482421875</AltitudeMeters>
            <DistanceMeters>NAN</DistanceMeters>
          </Trackpoint>
          <Trackpoint>
            <Time>2020-05-25T07:15:04.000Z</Time>
            <Position>
              <LatitudeDegrees>38.11638289131224155426025390625</LatitudeDegrees>
              <LongitudeDegrees>-1.15815044380724430084228515625</LongitudeDegrees>
            </Position>
            <AltitudeMeters>166.399993896484375</AltitudeMeters>
            <DistanceMeters>NAN</DistanceMeters>
          </Trackpoint>
          <Trackpoint>
            <Time>2020-05-25T07:15:05.000Z</Time>
            <Position>
              <LatitudeDegrees>38.116356320679187774658203125</LatitudeDegrees>
              <LongitudeDegrees>-1.1582274734973907470703125</LongitudeDegrees>
            </Position>
            <AltitudeMeters>166.600006103515625</AltitudeMeters>
            <DistanceMeters>NAN</DistanceMeters>
          </Trackpoint>
          <Trackpoint>
            <Time>2020-05-25T07:15:06.000Z</Time>
            <Position>
              <LatitudeDegrees>38.11633008532226085662841796875</LatitudeDegrees>
              <LongitudeDegrees>-1.1583025753498077392578125</LongitudeDegrees>
            </Position>
            <AltitudeMeters>166.8000030517578125</AltitudeMeters>
            <DistanceMeters>NAN</DistanceMeters>
          </Trackpoint>
          <Trackpoint>
            <Time>2020-05-25T07:15:07.000Z</Time>
            <Position>
              <LatitudeDegrees>38.1163048557937145233154296875</LatitudeDegrees>
              <LongitudeDegrees>-1.1583761684596538543701171875</LongitudeDegrees>
            </Position>
            <AltitudeMeters>167</AltitudeMeters>
            <DistanceMeters>NAN</DistanceMeters>
          </Trackpoint>
          <Trackpoint>
            <Time>2020-05-25T07:15:08.000Z</Time>
            <Position>
              <LatitudeDegrees>38.11627996154129505157470703125</LatitudeDegrees>
              <LongitudeDegrees>-1.158448420464992523193359375</LongitudeDegrees>
            </Position>
            <AltitudeMeters>167.1999969482421875</AltitudeMeters>
            <DistanceMeters>NAN</DistanceMeters>
          </Trackpoint>
          <Trackpoint>
            <Time>2020-05-25T07:15:09.000Z</Time>
            <Position>
              <LatitudeDegrees>38.1162542290985584259033203125</LatitudeDegrees>
              <LongitudeDegrees>-1.15851782262325286865234375</LongitudeDegrees>
            </Position>
            <AltitudeMeters>167.399993896484375</AltitudeMeters>
            <DistanceMeters>NAN</DistanceMeters>
          </Trackpoint>
          <Trackpoint>
            <Time>2020-05-25T07:15:10.000Z</Time>
            <Position>
              <LatitudeDegrees>38.11622648499906063079833984375</LatitudeDegrees>
              <LongitudeDegrees>-1.1585857160389423370361328125</LongitudeDegrees>
            </Position>
            <AltitudeMeters>167.600006103515625</AltitudeMeters>
            <DistanceMeters>NAN</DistanceMeters>
          </Trackpoint>
          <Trackpoint>
            <Time>2020-05-25T07:15:11.000Z</Time>
            <Position>
              <LatitudeDegrees>38.11619664542376995086669921875</LatitudeDegrees>
              <LongitudeDegrees>-1.158652268350124359130859375</LongitudeDegrees>
            </Position>
            <AltitudeMeters>167.8000030517578125</AltitudeMeters>
            <DistanceMeters>NAN</DistanceMeters>
          </Trackpoint>
          <Trackpoint>
            <Time>2020-05-25T07:15:12.000Z</Time>
            <Position>
              <LatitudeDegrees>38.116163872182369232177734375</LatitudeDegrees>
              <LongitudeDegrees>-1.15871672518551349639892578125</LongitudeDegrees>
            </Position>
            <AltitudeMeters>168</AltitudeMeters>
            <DistanceMeters>NAN</DistanceMeters>
          </Trackpoint>
          <Trackpoint>
            <Time>2020-05-25T07:15:13.000Z</Time>
            <Position>
              <LatitudeDegrees>38.1161305122077465057373046875</LatitudeDegrees>
              <LongitudeDegrees>-1.1587805114686489105224609375</LongitudeDegrees>
            </Position>
            <AltitudeMeters>168.1999969482421875</AltitudeMeters>
            <DistanceMeters>NAN</DistanceMeters>
          </Trackpoint>
          <Trackpoint>
            <Time>2020-05-25T07:15:14.000Z</Time>
            <Position>
              <LatitudeDegrees>38.1160958111286163330078125</LatitudeDegrees>
              <LongitudeDegrees>-1.158843375742435455322265625</LongitudeDegrees>
            </Position>
            <AltitudeMeters>168.399993896484375</AltitudeMeters>
            <DistanceMeters>NAN</DistanceMeters>
          </Trackpoint>
          <Trackpoint>
            <Time>2020-05-25T07:15:15.000Z</Time>
            <Position>
              <LatitudeDegrees>38.11605918221175670623779296875</LatitudeDegrees>
              <LongitudeDegrees>-1.1589042283594608306884765625</LongitudeDegrees>
            </Position>
            <AltitudeMeters>168.8000030517578125</AltitudeMeters>
            <DistanceMeters>NAN</DistanceMeters>
          </Trackpoint>
          <Trackpoint>
            <Time>2020-05-25T07:15:16.000Z</Time>
            <Position>
              <LatitudeDegrees>38.11601978726685047149658203125</LatitudeDegrees>
              <LongitudeDegrees>-1.15896181203424930572509765625</LongitudeDegrees>
            </Position>
            <AltitudeMeters>169</AltitudeMeters>
            <DistanceMeters>NAN</DistanceMeters>
          </Trackpoint>
          <Trackpoint>
            <Time>2020-05-25T07:15:17.000Z</Time>
            <Position>
              <LatitudeDegrees>38.115979135036468505859375</LatitudeDegrees>
              <LongitudeDegrees>-1.15901696495711803436279296875</LongitudeDegrees>
            </Position>
            <AltitudeMeters>169.1999969482421875</AltitudeMeters>
            <DistanceMeters>NAN</DistanceMeters>
          </Trackpoint>
          <Trackpoint>
            <Time>2020-05-25T07:15:18.000Z</Time>
            <Position>
              <LatitudeDegrees>38.115938566625118255615234375</LatitudeDegrees>
              <LongitudeDegrees>-1.15906993858516216278076171875</LongitudeDegrees>
            </Position>
            <AltitudeMeters>169.399993896484375</AltitudeMeters>
            <DistanceMeters>NAN</DistanceMeters>
          </Trackpoint>
          <Trackpoint>
            <Time>2020-05-25T07:15:19.000Z</Time>
            <Position>
              <LatitudeDegrees>38.11589774675667285919189453125</LatitudeDegrees>
              <LongitudeDegrees>-1.15912123583257198333740234375</LongitudeDegrees>
            </Position>
            <AltitudeMeters>169.600006103515625</AltitudeMeters>
            <DistanceMeters>NAN</DistanceMeters>
          </Trackpoint>
          <Trackpoint>
            <Time>2020-05-25T07:15:20.000Z</Time>
            <Position>
              <LatitudeDegrees>38.115855753421783447265625</LatitudeDegrees>
              <LongitudeDegrees>-1.15917085669934749603271484375</LongitudeDegrees>
            </Position>
            <AltitudeMeters>169.8000030517578125</AltitudeMeters>
            <DistanceMeters>NAN</DistanceMeters>
          </Trackpoint>
          <Trackpoint>
            <Time>2020-05-25T07:15:21.000Z</Time>
            <Position>
              <LatitudeDegrees>38.11581216752529144287109375</LatitudeDegrees>
              <LongitudeDegrees>-1.15921880118548870086669921875</LongitudeDegrees>
            </Position>
            <AltitudeMeters>170.1999969482421875</AltitudeMeters>
            <DistanceMeters>NAN</DistanceMeters>
          </Trackpoint>
          <Trackpoint>
            <Time>2020-05-25T07:15:22.000Z</Time>
            <Position>
              <LatitudeDegrees>38.11576900072395801544189453125</LatitudeDegrees>
              <LongitudeDegrees>-1.15926506929099559783935546875</LongitudeDegrees>
            </Position>
            <AltitudeMeters>170.399993896484375</AltitudeMeters>
            <DistanceMeters>NAN</DistanceMeters>
          </Trackpoint>
          <Trackpoint>
            <Time>2020-05-25T07:15:23.000Z</Time>
            <Position>
              <LatitudeDegrees>38.1157254986464977264404296875</LatitudeDegrees>
              <LongitudeDegrees>-1.15930966101586818695068359375</LongitudeDegrees>
            </Position>
            <AltitudeMeters>170.600006103515625</AltitudeMeters>
            <DistanceMeters>NAN</DistanceMeters>
          </Trackpoint>
          <Trackpoint>
            <Time>2020-05-25T07:15:24.000Z</Time>
            <Position>
              <LatitudeDegrees>38.1156814098358154296875</LatitudeDegrees>
              <LongitudeDegrees>-1.15935064852237701416015625</LongitudeDegrees>
            </Position>
            <AltitudeMeters>170.8000030517578125</AltitudeMeters>
            <DistanceMeters>NAN</DistanceMeters>
          </Trackpoint>
          <Trackpoint>
            <Time>2020-05-25T07:15:25.000Z</Time>
            <Position>
              <LatitudeDegrees>38.11563790775835514068603515625</LatitudeDegrees>
              <LongitudeDegrees>-1.15939088165760040283203125</LongitudeDegrees>
            </Position>
            <AltitudeMeters>171.1999969482421875</AltitudeMeters>
            <DistanceMeters>NAN</DistanceMeters>
          </Trackpoint>
          <Trackpoint>
            <Time>2020-05-25T07:15:26.000Z</Time>
            <Position>
              <LatitudeDegrees>38.1155950762331485748291015625</LatitudeDegrees>
              <LongitudeDegrees>-1.15943103097379207611083984375</LongitudeDegrees>
            </Position>
            <AltitudeMeters>171.399993896484375</AltitudeMeters>
            <DistanceMeters>NAN</DistanceMeters>
          </Trackpoint>
          <Trackpoint>
            <Time>2020-05-25T07:15:27.000Z</Time>
            <Position>
              <LatitudeDegrees>38.11555257998406887054443359375</LatitudeDegrees>
              <LongitudeDegrees>-1.15947126410901546478271484375</LongitudeDegrees>
            </Position>
            <AltitudeMeters>171.600006103515625</AltitudeMeters>
            <DistanceMeters>NAN</DistanceMeters>
          </Trackpoint>
          <Trackpoint>
            <Time>2020-05-25T07:15:28.000Z</Time>
            <Position>
              <LatitudeDegrees>38.11551033519208431243896484375</LatitudeDegrees>
              <LongitudeDegrees>-1.15950982086360454559326171875</LongitudeDegrees>
            </Position>
            <AltitudeMeters>171.8000030517578125</AltitudeMeters>
            <DistanceMeters>NAN</DistanceMeters>
          </Trackpoint>
          <Trackpoint>
            <Time>2020-05-25T07:15:29.000Z</Time>
            <Position>
              <LatitudeDegrees>38.1154696829617023468017578125</LatitudeDegrees>
              <LongitudeDegrees>-1.1595482937991619110107421875</LongitudeDegrees>
            </Position>
            <AltitudeMeters>172.1999969482421875</AltitudeMeters>
            <DistanceMeters>NAN</DistanceMeters>
          </Trackpoint>
          <Trackpoint>
            <Time>2020-05-25T07:15:30.000Z</Time>
            <Position>
              <LatitudeDegrees>38.11542928218841552734375</LatitudeDegrees>
              <LongitudeDegrees>-1.159586012363433837890625</LongitudeDegrees>
            </Position>
            <AltitudeMeters>172.399993896484375</AltitudeMeters>
            <DistanceMeters>NAN</DistanceMeters>
          </Trackpoint>
          <Trackpoint>
            <Time>2020-05-25T07:15:31.000Z</Time>
            <Position>
              <LatitudeDegrees>38.115389049053192138671875</LatitudeDegrees>
              <LongitudeDegrees>-1.15962331183254718780517578125</LongitudeDegrees>
            </Position>
            <AltitudeMeters>172.600006103515625</AltitudeMeters>
            <DistanceMeters>NAN</DistanceMeters>
          </Trackpoint>
          <Trackpoint>
            <Time>2020-05-25T07:15:32.000Z</Time>
            <Position>
              <LatitudeDegrees>38.11534889973700046539306640625</LatitudeDegrees>
              <LongitudeDegrees>-1.15965901874005794525146484375</LongitudeDegrees>
            </Position>
            <AltitudeMeters>172.8000030517578125</AltitudeMeters>
            <DistanceMeters>NAN</DistanceMeters>
          </Trackpoint>
          <Trackpoint>
            <Time>2020-05-25T07:15:33.000Z</Time>
            <Position>
              <LatitudeDegrees>38.1153084151446819305419921875</LatitudeDegrees>
              <LongitudeDegrees>-1.1596931330859661102294921875</LongitudeDegrees>
            </Position>
            <AltitudeMeters>173</AltitudeMeters>
            <DistanceMeters>NAN</DistanceMeters>
          </Trackpoint>
          <Trackpoint>
            <Time>2020-05-25T07:15:34.000Z</Time>
            <Position>
              <LatitudeDegrees>38.11526793055236339569091796875</LatitudeDegrees>
              <LongitudeDegrees>-1.15972615778446197509765625</LongitudeDegrees>
            </Position>
            <AltitudeMeters>173.1999969482421875</AltitudeMeters>
            <DistanceMeters>NAN</DistanceMeters>
          </Trackpoint>
          <Trackpoint>
            <Time>2020-05-25T07:15:35.000Z</Time>
            <Position>
              <LatitudeDegrees>38.11522769741714000701904296875</LatitudeDegrees>
              <LongitudeDegrees>-1.1597605235874652862548828125</LongitudeDegrees>
            </Position>
            <AltitudeMeters>173.600006103515625</AltitudeMeters>
            <DistanceMeters>NAN</DistanceMeters>
          </Trackpoint>
          <Trackpoint>
            <Time>2020-05-25T07:15:36.000Z</Time>
            <Position>
              <LatitudeDegrees>38.11518847011029720306396484375</LatitudeDegrees>
              <LongitudeDegrees>-1.15979430265724658966064453125</LongitudeDegrees>
            </Position>
            <AltitudeMeters>173.8000030517578125</AltitudeMeters>
            <DistanceMeters>NAN</DistanceMeters>
          </Trackpoint>
          <Trackpoint>
            <Time>2020-05-25T07:15:37.000Z</Time>
            <Position>
              <LatitudeDegrees>38.1151489913463592529296875</LatitudeDegrees>
              <LongitudeDegrees>-1.15982749499380588531494140625</LongitudeDegrees>
            </Position>
            <AltitudeMeters>173.8000030517578125</AltitudeMeters>
            <DistanceMeters>NAN</DistanceMeters>
          </Trackpoint>
          <Trackpoint>
            <Time>2020-05-25T07:15:38.000Z</Time>
            <Position>
              <LatitudeDegrees>38.11510984785854816436767578125</LatitudeDegrees>
              <LongitudeDegrees>-1.1598617769777774810791015625</LongitudeDegrees>
            </Position>
            <AltitudeMeters>174</AltitudeMeters>
            <DistanceMeters>NAN</DistanceMeters>
          </Trackpoint>
          <Trackpoint>
            <Time>2020-05-25T07:15:39.000Z</Time>
            <Position>
              <LatitudeDegrees>38.11507095582783222198486328125</LatitudeDegrees>
              <LongitudeDegrees>-1.15989756770431995391845703125</LongitudeDegrees>
            </Position>
            <AltitudeMeters>174.1999969482421875</AltitudeMeters>
            <DistanceMeters>NAN</DistanceMeters>
          </Trackpoint>
          <Trackpoint>
            <Time>2020-05-25T07:15:40.000Z</Time>
            <Position>
              <LatitudeDegrees>38.11503357253968715667724609375</LatitudeDegrees>
              <LongitudeDegrees>-1.15993612445890903472900390625</LongitudeDegrees>
            </Position>
            <AltitudeMeters>174.399993896484375</AltitudeMeters>
            <DistanceMeters>NAN</DistanceMeters>
          </Trackpoint>
          <Trackpoint>
            <Time>2020-05-25T07:15:41.000Z</Time>
            <Position>
              <LatitudeDegrees>38.1149959377944469451904296875</LatitudeDegrees>
              <LongitudeDegrees>-1.15997426211833953857421875</LongitudeDegrees>
            </Position>
            <AltitudeMeters>174.399993896484375</AltitudeMeters>
            <DistanceMeters>NAN</DistanceMeters>
          </Trackpoint>
          <Trackpoint>
            <Time>2020-05-25T07:15:42.000Z</Time>
            <Position>
              <LatitudeDegrees>38.11495729722082614898681640625</LatitudeDegrees>
              <LongitudeDegrees>-1.16001055575907230377197265625</LongitudeDegrees>
            </Position>
            <AltitudeMeters>174.600006103515625</AltitudeMeters>
            <DistanceMeters>NAN</DistanceMeters>
          </Trackpoint>
          <Trackpoint>
            <Time>2020-05-25T07:15:43.000Z</Time>
            <Position>
              <LatitudeDegrees>38.114918656647205352783203125</LatitudeDegrees>
              <LongitudeDegrees>-1.16004643030464649200439453125</LongitudeDegrees>
            </Position>
            <AltitudeMeters>174.8000030517578125</AltitudeMeters>
            <DistanceMeters>NAN</DistanceMeters>
          </Trackpoint>
          <Trackpoint>
            <Time>2020-05-25T07:15:44.000Z</Time>
            <Position>
              <LatitudeDegrees>38.11488018371164798736572265625</LatitudeDegrees>
              <LongitudeDegrees>-1.1600793711841106414794921875</LongitudeDegrees>
            </Position>
            <AltitudeMeters>174.8000030517578125</AltitudeMeters>
            <DistanceMeters>NAN</DistanceMeters>
          </Trackpoint>
          <Trackpoint>
            <Time>2020-05-25T07:15:45.000Z</Time>
            <Position>
              <LatitudeDegrees>38.1148417107760906219482421875</LatitudeDegrees>
              <LongitudeDegrees>-1.1601108871400356292724609375</LongitudeDegrees>
            </Position>
            <AltitudeMeters>175</AltitudeMeters>
            <DistanceMeters>NAN</DistanceMeters>
          </Trackpoint>
          <Trackpoint>
            <Time>2020-05-25T07:15:46.000Z</Time>
            <Position>
              <LatitudeDegrees>38.1148061715066432952880859375</LatitudeDegrees>
              <LongitudeDegrees>-1.1601424030959606170654296875</LongitudeDegrees>
            </Position>
            <AltitudeMeters>175.1999969482421875</AltitudeMeters>
            <DistanceMeters>NAN</DistanceMeters>
          </Trackpoint>
          <Trackpoint>
            <Time>2020-05-25T07:15:47.000Z</Time>
            <Position>
              <LatitudeDegrees>38.1147699616849422454833984375</LatitudeDegrees>
              <LongitudeDegrees>-1.16017567925155162811279296875</LongitudeDegrees>
            </Position>
            <AltitudeMeters>175.1999969482421875</AltitudeMeters>
            <DistanceMeters>NAN</DistanceMeters>
          </Trackpoint>
          <Trackpoint>
            <Time>2020-05-25T07:15:48.000Z</Time>
            <Position>
              <LatitudeDegrees>38.1147317402064800262451171875</LatitudeDegrees>
              <LongitudeDegrees>-1.1602097935974597930908203125</LongitudeDegrees>
            </Position>
            <AltitudeMeters>175.399993896484375</AltitudeMeters>
            <DistanceMeters>NAN</DistanceMeters>
          </Trackpoint>
          <Trackpoint>
            <Time>2020-05-25T07:15:49.000Z</Time>
            <Position>
              <LatitudeDegrees>38.1146941892802715301513671875</LatitudeDegrees>
              <LongitudeDegrees>-1.16024491377174854278564453125</LongitudeDegrees>
            </Position>
            <AltitudeMeters>175.600006103515625</AltitudeMeters>
            <DistanceMeters>NAN</DistanceMeters>
          </Trackpoint>
          <Trackpoint>
            <Time>2020-05-25T07:15:50.000Z</Time>
            <Position>
              <LatitudeDegrees>38.11465772800147533416748046875</LatitudeDegrees>
              <LongitudeDegrees>-1.16028045304119586944580078125</LongitudeDegrees>
            </Position>
            <AltitudeMeters>175.600006103515625</AltitudeMeters>
            <DistanceMeters>NAN</DistanceMeters>
          </Trackpoint>
          <Trackpoint>
            <Time>2020-05-25T07:15:51.000Z</Time>
            <Position>
              <LatitudeDegrees>38.1146205961704254150390625</LatitudeDegrees>
              <LongitudeDegrees>-1.1603150703012943267822265625</LongitudeDegrees>
            </Position>
            <AltitudeMeters>175.8000030517578125</AltitudeMeters>
            <DistanceMeters>NAN</DistanceMeters>
          </Trackpoint>
          <Trackpoint>
            <Time>2020-05-25T07:15:52.000Z</Time>
            <Position>
              <LatitudeDegrees>38.1145835481584072113037109375</LatitudeDegrees>
              <LongitudeDegrees>-1.16035035811364650726318359375</LongitudeDegrees>
            </Position>
            <AltitudeMeters>176</AltitudeMeters>
            <DistanceMeters>NAN</DistanceMeters>
          </Trackpoint>
          <Trackpoint>
            <Time>2020-05-25T07:15:53.000Z</Time>
            <Position>
              <LatitudeDegrees>38.11454616487026214599609375</LatitudeDegrees>
              <LongitudeDegrees>-1.16038304753601551055908203125</LongitudeDegrees>
            </Position>
            <AltitudeMeters>176</AltitudeMeters>
            <DistanceMeters>NAN</DistanceMeters>
          </Trackpoint>
          <Trackpoint>
            <Time>2020-05-25T07:15:54.000Z</Time>
            <Position>
              <LatitudeDegrees>38.114509284496307373046875</LatitudeDegrees>
              <LongitudeDegrees>-1.1604153178632259368896484375</LongitudeDegrees>
            </Position>
            <AltitudeMeters>176.1999969482421875</AltitudeMeters>
            <DistanceMeters>NAN</DistanceMeters>
          </Trackpoint>
          <Trackpoint>
            <Time>2020-05-25T07:15:55.000Z</Time>
            <Position>
              <LatitudeDegrees>38.11447315849363803863525390625</LatitudeDegrees>
              <LongitudeDegrees>-1.16044758819043636322021484375</LongitudeDegrees>
            </Position>
            <AltitudeMeters>176.399993896484375</AltitudeMeters>
            <DistanceMeters>NAN</DistanceMeters>
          </Trackpoint>
          <Trackpoint>
            <Time>2020-05-25T07:15:56.000Z</Time>
            <Position>
              <LatitudeDegrees>38.1144370324909687042236328125</LatitudeDegrees>
              <LongitudeDegrees>-1.1604796908795833587646484375</LongitudeDegrees>
            </Position>
            <AltitudeMeters>176.399993896484375</AltitudeMeters>
            <DistanceMeters>NAN</DistanceMeters>
          </Trackpoint>
          <Trackpoint>
            <Time>2020-05-25T07:15:57.000Z</Time>
            <Position>
              <LatitudeDegrees>38.11440057121217250823974609375</LatitudeDegrees>
              <LongitudeDegrees>-1.1605122126638889312744140625</LongitudeDegrees>
            </Position>
            <AltitudeMeters>176.600006103515625</AltitudeMeters>
            <DistanceMeters>NAN</DistanceMeters>
          </Trackpoint>
          <Trackpoint>
            <Time>2020-05-25T07:15:58.000Z</Time>
            <Position>
              <LatitudeDegrees>38.1143639422953128814697265625</LatitudeDegrees>
              <LongitudeDegrees>-1.16054381243884563446044921875</LongitudeDegrees>
            </Position>
            <AltitudeMeters>176.600006103515625</AltitudeMeters>
            <DistanceMeters>NAN</DistanceMeters>
          </Trackpoint>
          <Trackpoint>
            <Time>2020-05-25T07:15:59.000Z</Time>
            <Position>
              <LatitudeDegrees>38.11432815156877040863037109375</LatitudeDegrees>
              <LongitudeDegrees>-1.16057449020445346832275390625</LongitudeDegrees>
            </Position>
            <AltitudeMeters>176.8000030517578125</AltitudeMeters>
            <DistanceMeters>NAN</DistanceMeters>
          </Trackpoint>
          <Trackpoint>
            <Time>2020-05-25T07:16:00.000Z</Time>
            <Position>
              <LatitudeDegrees>38.114290349185466766357421875</LatitudeDegrees>
              <LongitudeDegrees>-1.16060382686555385589599609375</LongitudeDegrees>
            </Position>
            <AltitudeMeters>177</AltitudeMeters>
            <DistanceMeters>NAN</DistanceMeters>
          </Trackpoint>
          <Trackpoint>
            <Time>2020-05-25T07:16:01.000Z</Time>
            <Position>
              <LatitudeDegrees>38.11425355263054370880126953125</LatitudeDegrees>
              <LongitudeDegrees>-1.16063148714601993560791015625</LongitudeDegrees>
            </Position>
            <AltitudeMeters>177.1999969482421875</AltitudeMeters>
            <DistanceMeters>NAN</DistanceMeters>
          </Trackpoint>
          <Trackpoint>
            <Time>2020-05-25T07:16:02.000Z</Time>
            <Position>
              <LatitudeDegrees>38.1142160855233669281005859375</LatitudeDegrees>
              <LongitudeDegrees>-1.16065814159810543060302734375</LongitudeDegrees>
            </Position>
            <AltitudeMeters>177.399993896484375</AltitudeMeters>
            <DistanceMeters>NAN</DistanceMeters>
          </Trackpoint>
          <Trackpoint>
            <Time>2020-05-25T07:16:03.000Z</Time>
            <Position>
              <LatitudeDegrees>38.1141780316829681396484375</LatitudeDegrees>
              <LongitudeDegrees>-1.1606842093169689178466796875</LongitudeDegrees>
            </Position>
            <AltitudeMeters>177.600006103515625</AltitudeMeters>
            <DistanceMeters>NAN</DistanceMeters>
          </Trackpoint>
          <Trackpoint>
            <Time>2020-05-25T07:16:04.000Z</Time>
            <Position>
              <LatitudeDegrees>38.11413905583322048187255859375</LatitudeDegrees>
              <LongitudeDegrees>-1.16070893593132495880126953125</LongitudeDegrees>
            </Position>
            <AltitudeMeters>177.8000030517578125</AltitudeMeters>
            <DistanceMeters>NAN</DistanceMeters>
          </Trackpoint>
          <Trackpoint>
            <Time>2020-05-25T07:16:05.000Z</Time>
            <Position>
              <LatitudeDegrees>38.11410083435475826263427734375</LatitudeDegrees>
              <LongitudeDegrees>-1.1607318185269832611083984375</LongitudeDegrees>
            </Position>
            <AltitudeMeters>178</AltitudeMeters>
            <DistanceMeters>NAN</DistanceMeters>
          </Trackpoint>
          <Trackpoint>
            <Time>2020-05-25T07:16:06.000Z</Time>
            <Position>
              <LatitudeDegrees>38.11406143940985202789306640625</LatitudeDegrees>
              <LongitudeDegrees>-1.16075688041746616363525390625</LongitudeDegrees>
            </Position>
            <AltitudeMeters>178.1999969482421875</AltitudeMeters>
            <DistanceMeters>NAN</DistanceMeters>
          </Trackpoint>
          <Trackpoint>
            <Time>2020-05-25T07:16:07.000Z</Time>
            <Position>
              <LatitudeDegrees>38.11402372084558010101318359375</LatitudeDegrees>
              <LongitudeDegrees>-1.16078160703182220458984375</LongitudeDegrees>
            </Position>
            <AltitudeMeters>178.399993896484375</AltitudeMeters>
            <DistanceMeters>NAN</DistanceMeters>
          </Trackpoint>
          <Trackpoint>
            <Time>2020-05-25T07:16:08.000Z</Time>
            <Position>
              <LatitudeDegrees>38.1139857508242130279541015625</LatitudeDegrees>
              <LongitudeDegrees>-1.16080365143716335296630859375</LongitudeDegrees>
            </Position>
            <AltitudeMeters>178.600006103515625</AltitudeMeters>
            <DistanceMeters>NAN</DistanceMeters>
          </Trackpoint>
          <Trackpoint>
            <Time>2020-05-25T07:16:09.000Z</Time>
            <Position>
              <LatitudeDegrees>38.11394677497446537017822265625</LatitudeDegrees>
              <LongitudeDegrees>-1.16082460619509220123291015625</LongitudeDegrees>
            </Position>
            <AltitudeMeters>179</AltitudeMeters>
            <DistanceMeters>NAN</DistanceMeters>
          </Trackpoint>
          <Trackpoint>
            <Time>2020-05-25T07:16:10.000Z</Time>
            <Position>
              <LatitudeDegrees>38.1139069609344005584716796875</LatitudeDegrees>
              <LongitudeDegrees>-1.16084606386721134185791015625</LongitudeDegrees>
            </Position>
            <AltitudeMeters>179.1999969482421875</AltitudeMeters>
            <DistanceMeters>NAN</DistanceMeters>
          </Trackpoint>
          <Trackpoint>
            <Time>2020-05-25T07:16:11.000Z</Time>
            <Position>
              <LatitudeDegrees>38.113867901265621185302734375</LatitudeDegrees>
              <LongitudeDegrees>-1.16086651571094989776611328125</LongitudeDegrees>
            </Position>
            <AltitudeMeters>179.399993896484375</AltitudeMeters>
            <DistanceMeters>NAN</DistanceMeters>
          </Trackpoint>
          <Trackpoint>
            <Time>2020-05-25T07:16:12.000Z</Time>
            <Position>
              <LatitudeDegrees>38.11382557265460491180419921875</LatitudeDegrees>
              <LongitudeDegrees>-1.16088679991662502288818359375</LongitudeDegrees>
            </Position>
            <AltitudeMeters>179.600006103515625</AltitudeMeters>
            <DistanceMeters>NAN</DistanceMeters>
          </Trackpoint>
          <Trackpoint>
            <Time>2020-05-25T07:16:13.000Z</Time>
            <Position>
              <LatitudeDegrees>38.113785423338413238525390625</LatitudeDegrees>
              <LongitudeDegrees>-1.1609044857323169708251953125</LongitudeDegrees>
            </Position>
            <AltitudeMeters>180</AltitudeMeters>
            <DistanceMeters>NAN</DistanceMeters>
          </Trackpoint>
          <Trackpoint>
            <Time>2020-05-25T07:16:14.000Z</Time>
            <Position>
              <LatitudeDegrees>38.1137446872889995574951171875</LatitudeDegrees>
              <LongitudeDegrees>-1.16092032752931118011474609375</LongitudeDegrees>
            </Position>
            <AltitudeMeters>180.1999969482421875</AltitudeMeters>
            <DistanceMeters>NAN</DistanceMeters>
          </Trackpoint>
          <Trackpoint>
            <Time>2020-05-25T07:16:15.000Z</Time>
            <Position>
              <LatitudeDegrees>38.11370386742055416107177734375</LatitudeDegrees>
              <LongitudeDegrees>-1.16093457676470279693603515625</LongitudeDegrees>
            </Position>
            <AltitudeMeters>180.399993896484375</AltitudeMeters>
            <DistanceMeters>NAN</DistanceMeters>
          </Trackpoint>
          <Trackpoint>
            <Time>2020-05-25T07:16:16.000Z</Time>
            <Position>
              <LatitudeDegrees>38.11366212554275989532470703125</LatitudeDegrees>
              <LongitudeDegrees>-1.160949580371379852294921875</LongitudeDegrees>
            </Position>
            <AltitudeMeters>180.600006103515625</AltitudeMeters>
            <DistanceMeters>NAN</DistanceMeters>
          </Trackpoint>
          <Trackpoint>
            <Time>2020-05-25T07:16:17.000Z</Time>
            <Position>
              <LatitudeDegrees>38.11361937783658504486083984375</LatitudeDegrees>
              <LongitudeDegrees>-1.160964332520961761474609375</LongitudeDegrees>
            </Position>
            <AltitudeMeters>180.8000030517578125</AltitudeMeters>
            <DistanceMeters>NAN</DistanceMeters>
          </Trackpoint>
          <Trackpoint>
            <Time>2020-05-25T07:16:18.000Z</Time>
            <Position>
              <LatitudeDegrees>38.11357730068266391754150390625</LatitudeDegrees>
              <LongitudeDegrees>-1.16097849793732166290283203125</LongitudeDegrees>
            </Position>
            <AltitudeMeters>181.1999969482421875</AltitudeMeters>
            <DistanceMeters>NAN</DistanceMeters>
          </Trackpoint>
          <Trackpoint>
            <Time>2020-05-25T07:16:19.000Z</Time>
            <Position>
              <LatitudeDegrees>38.11353455297648906707763671875</LatitudeDegrees>
              <LongitudeDegrees>-1.160991489887237548828125</LongitudeDegrees>
            </Position>
            <AltitudeMeters>181.399993896484375</AltitudeMeters>
            <DistanceMeters>NAN</DistanceMeters>
          </Trackpoint>
          <Trackpoint>
            <Time>2020-05-25T07:16:20.000Z</Time>
            <Position>
              <LatitudeDegrees>38.113491721451282501220703125</LatitudeDegrees>
              <LongitudeDegrees>-1.1610035598278045654296875</LongitudeDegrees>
            </Position>
            <AltitudeMeters>181.600006103515625</AltitudeMeters>
            <DistanceMeters>NAN</DistanceMeters>
          </Trackpoint>
          <Trackpoint>
            <Time>2020-05-25T07:16:21.000Z</Time>
            <Position>
              <LatitudeDegrees>38.113448806107044219970703125</LatitudeDegrees>
              <LongitudeDegrees>-1.161015294492244720458984375</LongitudeDegrees>
            </Position>
            <AltitudeMeters>182</AltitudeMeters>
            <DistanceMeters>NAN</DistanceMeters>
          </Trackpoint>
          <Trackpoint>
            <Time>2020-05-25T07:16:22.000Z</Time>
            <Position>
              <LatitudeDegrees>38.11340530402958393096923828125</LatitudeDegrees>
              <LongitudeDegrees>-1.16102778352797031402587890625</LongitudeDegrees>
            </Position>
            <AltitudeMeters>182.1999969482421875</AltitudeMeters>
            <DistanceMeters>NAN</DistanceMeters>
          </Trackpoint>
          <Trackpoint>
            <Time>2020-05-25T07:16:23.000Z</Time>
            <Position>
              <LatitudeDegrees>38.11336196959018707275390625</LatitudeDegrees>
              <LongitudeDegrees>-1.16103909909725189208984375</LongitudeDegrees>
            </Position>
            <AltitudeMeters>182.399993896484375</AltitudeMeters>
            <DistanceMeters>NAN</DistanceMeters>
          </Trackpoint>
          <Trackpoint>
            <Time>2020-05-25T07:16:24.000Z</Time>
            <Position>
              <LatitudeDegrees>38.11331779696047306060791015625</LatitudeDegrees>
              <LongitudeDegrees>-1.1610489897429943084716796875</LongitudeDegrees>
            </Position>
            <AltitudeMeters>182.600006103515625</AltitudeMeters>
            <DistanceMeters>NAN</DistanceMeters>
          </Trackpoint>
          <Trackpoint>
            <Time>2020-05-25T07:16:25.000Z</Time>
            <Position>
              <LatitudeDegrees>38.11327337287366390228271484375</LatitudeDegrees>
              <LongitudeDegrees>-1.16105812601745128631591796875</LongitudeDegrees>
            </Position>
            <AltitudeMeters>182.8000030517578125</AltitudeMeters>
            <DistanceMeters>NAN</DistanceMeters>
          </Trackpoint>
          <Trackpoint>
            <Time>2020-05-25T07:16:26.000Z</Time>
            <Position>
              <LatitudeDegrees>38.1132285296916961669921875</LatitudeDegrees>
              <LongitudeDegrees>-1.16106952540576457977294921875</LongitudeDegrees>
            </Position>
            <AltitudeMeters>183</AltitudeMeters>
            <DistanceMeters>NAN</DistanceMeters>
          </Trackpoint>
          <Trackpoint>
            <Time>2020-05-25T07:16:27.000Z</Time>
            <Position>
              <LatitudeDegrees>38.113182596862316131591796875</LatitudeDegrees>
              <LongitudeDegrees>-1.16108025424182415008544921875</LongitudeDegrees>
            </Position>
            <AltitudeMeters>183.1999969482421875</AltitudeMeters>
            <DistanceMeters>NAN</DistanceMeters>
          </Trackpoint>
          <Trackpoint>
            <Time>2020-05-25T07:16:28.000Z</Time>
            <Position>
              <LatitudeDegrees>38.11313532292842864990234375</LatitudeDegrees>
              <LongitudeDegrees>-1.16109073162078857421875</LongitudeDegrees>
            </Position>
            <AltitudeMeters>183.399993896484375</AltitudeMeters>
            <DistanceMeters>NAN</DistanceMeters>
          </Trackpoint>
          <Trackpoint>
            <Time>2020-05-25T07:16:29.000Z</Time>
            <Position>
              <LatitudeDegrees>38.1130885519087314605712890625</LatitudeDegrees>
              <LongitudeDegrees>-1.161101125180721282958984375</LongitudeDegrees>
            </Position>
            <AltitudeMeters>183.600006103515625</AltitudeMeters>
            <DistanceMeters>NAN</DistanceMeters>
          </Trackpoint>
          <Trackpoint>
            <Time>2020-05-25T07:16:30.000Z</Time>
            <Position>
              <LatitudeDegrees>38.1130412779748439788818359375</LatitudeDegrees>
              <LongitudeDegrees>-1.16111327894032001495361328125</LongitudeDegrees>
            </Position>
            <AltitudeMeters>183.8000030517578125</AltitudeMeters>
            <DistanceMeters>NAN</DistanceMeters>
          </Trackpoint>
          <Trackpoint>
            <Time>2020-05-25T07:16:31.000Z</Time>
            <Position>
              <LatitudeDegrees>38.11299383640289306640625</LatitudeDegrees>
              <LongitudeDegrees>-1.1611254326999187469482421875</LongitudeDegrees>
            </Position>
            <AltitudeMeters>184.1999969482421875</AltitudeMeters>
            <DistanceMeters>NAN</DistanceMeters>
          </Trackpoint>
          <Trackpoint>
            <Time>2020-05-25T07:16:32.000Z</Time>
            <Position>
              <LatitudeDegrees>38.11294631101191043853759765625</LatitudeDegrees>
              <LongitudeDegrees>-1.161136664450168609619140625</LongitudeDegrees>
            </Position>
            <AltitudeMeters>184.399993896484375</AltitudeMeters>
            <DistanceMeters>NAN</DistanceMeters>
          </Trackpoint>
          <Trackpoint>
            <Time>2020-05-25T07:16:33.000Z</Time>
            <Position>
              <LatitudeDegrees>38.11289953999221324920654296875</LatitudeDegrees>
              <LongitudeDegrees>-1.16114596836268901824951171875</LongitudeDegrees>
            </Position>
            <AltitudeMeters>184.600006103515625</AltitudeMeters>
            <DistanceMeters>NAN</DistanceMeters>
          </Trackpoint>
          <Trackpoint>
            <Time>2020-05-25T07:16:34.000Z</Time>
            <Position>
              <LatitudeDegrees>38.112852685153484344482421875</LatitudeDegrees>
              <LongitudeDegrees>-1.1611552722752094268798828125</LongitudeDegrees>
            </Position>
            <AltitudeMeters>184.8000030517578125</AltitudeMeters>
            <DistanceMeters>NAN</DistanceMeters>
          </Trackpoint>
          <Trackpoint>
            <Time>2020-05-25T07:16:35.000Z</Time>
            <Position>
              <LatitudeDegrees>38.1128052435815334320068359375</LatitudeDegrees>
              <LongitudeDegrees>-1.16116524673998355865478515625</LongitudeDegrees>
            </Position>
            <AltitudeMeters>185</AltitudeMeters>
            <DistanceMeters>NAN</DistanceMeters>
          </Trackpoint>
          <Trackpoint>
            <Time>2020-05-25T07:16:36.000Z</Time>
            <Position>
              <LatitudeDegrees>38.11275738291442394256591796875</LatitudeDegrees>
              <LongitudeDegrees>-1.161175556480884552001953125</LongitudeDegrees>
            </Position>
            <AltitudeMeters>185.1999969482421875</AltitudeMeters>
            <DistanceMeters>NAN</DistanceMeters>
          </Trackpoint>
          <Trackpoint>
            <Time>2020-05-25T07:16:37.000Z</Time>
            <Position>
              <LatitudeDegrees>38.11270910315215587615966796875</LatitudeDegrees>
              <LongitudeDegrees>-1.1611871235072612762451171875</LongitudeDegrees>
            </Position>
            <AltitudeMeters>185.399993896484375</AltitudeMeters>
            <DistanceMeters>NAN</DistanceMeters>
          </Trackpoint>
          <Trackpoint>
            <Time>2020-05-25T07:16:38.000Z</Time>
            <Position>
              <LatitudeDegrees>38.112660236656665802001953125</LatitudeDegrees>
              <LongitudeDegrees>-1.1611998640000820159912109375</LongitudeDegrees>
            </Position>
            <AltitudeMeters>185.8000030517578125</AltitudeMeters>
            <DistanceMeters>NAN</DistanceMeters>
          </Trackpoint>
          <Trackpoint>
            <Time>2020-05-25T07:16:39.000Z</Time>
            <Position>
              <LatitudeDegrees>38.1126111187040805816650390625</LatitudeDegrees>
              <LongitudeDegrees>-1.16121235303580760955810546875</LongitudeDegrees>
            </Position>
            <AltitudeMeters>186</AltitudeMeters>
            <DistanceMeters>NAN</DistanceMeters>
          </Trackpoint>
          <Trackpoint>
            <Time>2020-05-25T07:16:40.000Z</Time>
            <Position>
              <LatitudeDegrees>38.11256241984665393829345703125</LatitudeDegrees>
              <LongitudeDegrees>-1.161224506795406341552734375</LongitudeDegrees>
            </Position>
            <AltitudeMeters>186.1999969482421875</AltitudeMeters>
            <DistanceMeters>NAN</DistanceMeters>
          </Trackpoint>
          <Trackpoint>
            <Time>2020-05-25T07:16:41.000Z</Time>
            <Position>
              <LatitudeDegrees>38.112513720989227294921875</LatitudeDegrees>
              <LongitudeDegrees>-1.1612364090979099273681640625</LongitudeDegrees>
            </Position>
            <AltitudeMeters>186.399993896484375</AltitudeMeters>
            <DistanceMeters>NAN</DistanceMeters>
          </Trackpoint>
          <Trackpoint>
            <Time>2020-05-25T07:16:42.000Z</Time>
            <Position>
              <LatitudeDegrees>38.11246477067470550537109375</LatitudeDegrees>
              <LongitudeDegrees>-1.16124755702912807464599609375</LongitudeDegrees>
            </Position>
            <AltitudeMeters>186.600006103515625</AltitudeMeters>
            <DistanceMeters>NAN</DistanceMeters>
          </Trackpoint>
          <Trackpoint>
            <Time>2020-05-25T07:16:43.000Z</Time>
            <Position>
              <LatitudeDegrees>38.11241590417921543121337890625</LatitudeDegrees>
              <LongitudeDegrees>-1.16125904023647308349609375</LongitudeDegrees>
            </Position>
            <AltitudeMeters>186.8000030517578125</AltitudeMeters>
            <DistanceMeters>NAN</DistanceMeters>
          </Trackpoint>
          <Trackpoint>
            <Time>2020-05-25T07:16:44.000Z</Time>
            <Position>
              <LatitudeDegrees>38.11236745677888393402099609375</LatitudeDegrees>
              <LongitudeDegrees>-1.1612709425389766693115234375</LongitudeDegrees>
            </Position>
            <AltitudeMeters>187.1999969482421875</AltitudeMeters>
            <DistanceMeters>NAN</DistanceMeters>
          </Trackpoint>
          <Trackpoint>
            <Time>2020-05-25T07:16:45.000Z</Time>
            <Position>
              <LatitudeDegrees>38.1123187579214572906494140625</LatitudeDegrees>
              <LongitudeDegrees>-1.16128359921276569366455078125</LongitudeDegrees>
            </Position>
            <AltitudeMeters>187.399993896484375</AltitudeMeters>
            <DistanceMeters>NAN</DistanceMeters>
          </Trackpoint>
          <Trackpoint>
            <Time>2020-05-25T07:16:46.000Z</Time>
            <Position>
              <LatitudeDegrees>38.11226989142596721649169921875</LatitudeDegrees>
              <LongitudeDegrees>-1.16129701025784015655517578125</LongitudeDegrees>
            </Position>
            <AltitudeMeters>187.600006103515625</AltitudeMeters>
            <DistanceMeters>NAN</DistanceMeters>
          </Trackpoint>
          <Trackpoint>
            <Time>2020-05-25T07:16:47.000Z</Time>
            <Position>
              <LatitudeDegrees>38.11222068965435028076171875</LatitudeDegrees>
              <LongitudeDegrees>-1.16130840964615345001220703125</LongitudeDegrees>
            </Position>
            <AltitudeMeters>187.8000030517578125</AltitudeMeters>
            <DistanceMeters>NAN</DistanceMeters>
          </Trackpoint>
          <Trackpoint>
            <Time>2020-05-25T07:16:48.000Z</Time>
            <Position>
              <LatitudeDegrees>38.112170733511447906494140625</LatitudeDegrees>
              <LongitudeDegrees>-1.16131897084414958953857421875</LongitudeDegrees>
            </Position>
            <AltitudeMeters>188</AltitudeMeters>
            <DistanceMeters>NAN</DistanceMeters>
          </Trackpoint>
          <Trackpoint>
            <Time>2020-05-25T07:16:49.000Z</Time>
            <Position>
              <LatitudeDegrees>38.11212119646370410919189453125</LatitudeDegrees>
              <LongitudeDegrees>-1.1613319627940654754638671875</LongitudeDegrees>
            </Position>
            <AltitudeMeters>188.399993896484375</AltitudeMeters>
            <DistanceMeters>NAN</DistanceMeters>
          </Trackpoint>
          <Trackpoint>
            <Time>2020-05-25T07:16:50.000Z</Time>
            <Position>
              <LatitudeDegrees>38.1120706535875797271728515625</LatitudeDegrees>
              <LongitudeDegrees>-1.16134679876267910003662109375</LongitudeDegrees>
            </Position>
            <AltitudeMeters>188.600006103515625</AltitudeMeters>
            <DistanceMeters>NAN</DistanceMeters>
          </Trackpoint>
          <Trackpoint>
            <Time>2020-05-25T07:16:51.000Z</Time>
            <Position>
              <LatitudeDegrees>38.11202044598758220672607421875</LatitudeDegrees>
              <LongitudeDegrees>-1.16136121563613414764404296875</LongitudeDegrees>
            </Position>
            <AltitudeMeters>188.8000030517578125</AltitudeMeters>
            <DistanceMeters>NAN</DistanceMeters>
          </Trackpoint>
          <Trackpoint>
            <Time>2020-05-25T07:16:52.000Z</Time>
            <Position>
              <LatitudeDegrees>38.11196914874017238616943359375</LatitudeDegrees>
              <LongitudeDegrees>-1.161378063261508941650390625</LongitudeDegrees>
            </Position>
            <AltitudeMeters>189</AltitudeMeters>
            <DistanceMeters>NAN</DistanceMeters>
          </Trackpoint>
          <Trackpoint>
            <Time>2020-05-25T07:16:53.000Z</Time>
            <Position>
              <LatitudeDegrees>38.11191852204501628875732421875</LatitudeDegrees>
              <LongitudeDegrees>-1.16139625199139118194580078125</LongitudeDegrees>
            </Position>
            <AltitudeMeters>189.1999969482421875</AltitudeMeters>
            <DistanceMeters>NAN</DistanceMeters>
          </Trackpoint>
          <Trackpoint>
            <Time>2020-05-25T07:16:54.000Z</Time>
            <Position>
              <LatitudeDegrees>38.11186839826405048370361328125</LatitudeDegrees>
              <LongitudeDegrees>-1.16141553036868572235107421875</LongitudeDegrees>
            </Position>
            <AltitudeMeters>189.600006103515625</AltitudeMeters>
            <DistanceMeters>NAN</DistanceMeters>
          </Trackpoint>
          <Trackpoint>
            <Time>2020-05-25T07:16:55.000Z</Time>
            <Position>
              <LatitudeDegrees>38.1118195317685604095458984375</LatitudeDegrees>
              <LongitudeDegrees>-1.161435730755329132080078125</LongitudeDegrees>
            </Position>
            <AltitudeMeters>189.8000030517578125</AltitudeMeters>
            <DistanceMeters>NAN</DistanceMeters>
          </Trackpoint>
          <Trackpoint>
            <Time>2020-05-25T07:16:56.000Z</Time>
            <Position>
              <LatitudeDegrees>38.11177200637757778167724609375</LatitudeDegrees>
              <LongitudeDegrees>-1.16145777516067028045654296875</LongitudeDegrees>
            </Position>
            <AltitudeMeters>190</AltitudeMeters>
            <DistanceMeters>NAN</DistanceMeters>
          </Trackpoint>
          <Trackpoint>
            <Time>2020-05-25T07:16:57.000Z</Time>
            <Position>
              <LatitudeDegrees>38.1117238104343414306640625</LatitudeDegrees>
              <LongitudeDegrees>-1.161481328308582305908203125</LongitudeDegrees>
            </Position>
            <AltitudeMeters>190</AltitudeMeters>
            <DistanceMeters>NAN</DistanceMeters>
          </Trackpoint>
          <Trackpoint>
            <Time>2020-05-25T07:16:58.000Z</Time>
            <Position>
              <LatitudeDegrees>38.111675865948200225830078125</LatitudeDegrees>
              <LongitudeDegrees>-1.1615063063800334930419921875</LongitudeDegrees>
            </Position>
            <AltitudeMeters>189.8000030517578125</AltitudeMeters>
            <DistanceMeters>NAN</DistanceMeters>
          </Trackpoint>
          <Trackpoint>
            <Time>2020-05-25T07:16:59.000Z</Time>
            <Position>
              <LatitudeDegrees>38.1116284243762493133544921875</LatitudeDegrees>
              <LongitudeDegrees>-1.161533631384372711181640625</LongitudeDegrees>
            </Position>
            <AltitudeMeters>189.8000030517578125</AltitudeMeters>
            <DistanceMeters>NAN</DistanceMeters>
          </Trackpoint>
          <Trackpoint>
            <Time>2020-05-25T07:17:00.000Z</Time>
            <Position>
              <LatitudeDegrees>38.1115828268229961395263671875</LatitudeDegrees>
              <LongitudeDegrees>-1.16156187839806079864501953125</LongitudeDegrees>
            </Position>
            <AltitudeMeters>189.8000030517578125</AltitudeMeters>
            <DistanceMeters>NAN</DistanceMeters>
          </Trackpoint>
          <Trackpoint>
            <Time>2020-05-25T07:17:01.000Z</Time>
            <Position>
              <LatitudeDegrees>38.11153798364102840423583984375</LatitudeDegrees>
              <LongitudeDegrees>-1.16159238852560520172119140625</LongitudeDegrees>
            </Position>
            <AltitudeMeters>189.8000030517578125</AltitudeMeters>
            <DistanceMeters>NAN</DistanceMeters>
          </Trackpoint>
          <Trackpoint>
            <Time>2020-05-25T07:17:02.000Z</Time>
            <Position>
              <LatitudeDegrees>38.11149423010647296905517578125</LatitudeDegrees>
              <LongitudeDegrees>-1.16162742488086223602294921875</LongitudeDegrees>
            </Position>
            <AltitudeMeters>189.600006103515625</AltitudeMeters>
            <DistanceMeters>NAN</DistanceMeters>
          </Trackpoint>
          <Trackpoint>
            <Time>2020-05-25T07:17:03.000Z</Time>
            <Position>
              <LatitudeDegrees>38.11145165003836154937744140625</LatitudeDegrees>
              <LongitudeDegrees>-1.1616655625402927398681640625</LongitudeDegrees>
            </Position>
            <AltitudeMeters>189.600006103515625</AltitudeMeters>
            <DistanceMeters>NAN</DistanceMeters>
          </Trackpoint>
          <Trackpoint>
            <Time>2020-05-25T07:17:04.000Z</Time>
            <Position>
              <LatitudeDegrees>38.11141041107475757598876953125</LatitudeDegrees>
              <LongitudeDegrees>-1.16170353256165981292724609375</LongitudeDegrees>
            </Position>
            <AltitudeMeters>189.600006103515625</AltitudeMeters>
            <DistanceMeters>NAN</DistanceMeters>
          </Trackpoint>
          <Trackpoint>
            <Time>2020-05-25T07:17:05.000Z</Time>
            <Position>
              <LatitudeDegrees>38.1113675795495510101318359375</LatitudeDegrees>
              <LongitudeDegrees>-1.16174309514462947845458984375</LongitudeDegrees>
            </Position>
            <AltitudeMeters>189.600006103515625</AltitudeMeters>
            <DistanceMeters>NAN</DistanceMeters>
          </Trackpoint>
          <Trackpoint>
            <Time>2020-05-25T07:17:06.000Z</Time>
            <Position>
              <LatitudeDegrees>38.111323826014995574951171875</LatitudeDegrees>
              <LongitudeDegrees>-1.16178500466048717498779296875</LongitudeDegrees>
            </Position>
            <AltitudeMeters>189.399993896484375</AltitudeMeters>
            <DistanceMeters>NAN</DistanceMeters>
          </Trackpoint>
          <Trackpoint>
            <Time>2020-05-25T07:17:07.000Z</Time>
            <Position>
              <LatitudeDegrees>38.11128099448978900909423828125</LatitudeDegrees>
              <LongitudeDegrees>-1.16182942874729633331298828125</LongitudeDegrees>
            </Position>
            <AltitudeMeters>189.399993896484375</AltitudeMeters>
            <DistanceMeters>NAN</DistanceMeters>
          </Trackpoint>
          <Trackpoint>
            <Time>2020-05-25T07:17:08.000Z</Time>
            <Position>
              <LatitudeDegrees>38.11123925261199474334716796875</LatitudeDegrees>
              <LongitudeDegrees>-1.16187519393861293792724609375</LongitudeDegrees>
            </Position>
            <AltitudeMeters>189.399993896484375</AltitudeMeters>
            <DistanceMeters>NAN</DistanceMeters>
          </Trackpoint>
          <Trackpoint>
            <Time>2020-05-25T07:17:09.000Z</Time>
            <Position>
              <LatitudeDegrees>38.1111979298293590545654296875</LatitudeDegrees>
              <LongitudeDegrees>-1.16192380897700786590576171875</LongitudeDegrees>
            </Position>
            <AltitudeMeters>189.399993896484375</AltitudeMeters>
            <DistanceMeters>NAN</DistanceMeters>
          </Trackpoint>
          <Trackpoint>
            <Time>2020-05-25T07:17:10.000Z</Time>
            <Position>
              <LatitudeDegrees>38.1111570261418819427490234375</LatitudeDegrees>
              <LongitudeDegrees>-1.16197661496698856353759765625</LongitudeDegrees>
            </Position>
            <AltitudeMeters>189.1999969482421875</AltitudeMeters>
            <DistanceMeters>NAN</DistanceMeters>
          </Trackpoint>
          <Trackpoint>
            <Time>2020-05-25T07:17:11.000Z</Time>
            <Position>
              <LatitudeDegrees>38.1111167930066585540771484375</LatitudeDegrees>
              <LongitudeDegrees>-1.16203193552792072296142578125</LongitudeDegrees>
            </Position>
            <AltitudeMeters>189.1999969482421875</AltitudeMeters>
            <DistanceMeters>NAN</DistanceMeters>
          </Trackpoint>
          <Trackpoint>
            <Time>2020-05-25T07:17:12.000Z</Time>
            <Position>
              <LatitudeDegrees>38.111076056957244873046875</LatitudeDegrees>
              <LongitudeDegrees>-1.1620898544788360595703125</LongitudeDegrees>
            </Position>
            <AltitudeMeters>189.1999969482421875</AltitudeMeters>
            <DistanceMeters>NAN</DistanceMeters>
          </Trackpoint>
          <Trackpoint>
            <Time>2020-05-25T07:17:13.000Z</Time>
            <Position>
              <LatitudeDegrees>38.11103372834622859954833984375</LatitudeDegrees>
              <LongitudeDegrees>-1.16214953362941741943359375</LongitudeDegrees>
            </Position>
            <AltitudeMeters>189.1999969482421875</AltitudeMeters>
            <DistanceMeters>NAN</DistanceMeters>
          </Trackpoint>
          <Trackpoint>
            <Time>2020-05-25T07:17:14.000Z</Time>
            <Position>
              <LatitudeDegrees>38.110990226268768310546875</LatitudeDegrees>
              <LongitudeDegrees>-1.162211894989013671875</LongitudeDegrees>
            </Position>
            <AltitudeMeters>189</AltitudeMeters>
            <DistanceMeters>NAN</DistanceMeters>
          </Trackpoint>
          <Trackpoint>
            <Time>2020-05-25T07:17:15.000Z</Time>
            <Position>
              <LatitudeDegrees>38.11094664037227630615234375</LatitudeDegrees>
              <LongitudeDegrees>-1.162275262176990509033203125</LongitudeDegrees>
            </Position>
            <AltitudeMeters>189</AltitudeMeters>
            <DistanceMeters>NAN</DistanceMeters>
          </Trackpoint>
          <Trackpoint>
            <Time>2020-05-25T07:17:16.000Z</Time>
            <Position>
              <LatitudeDegrees>38.11090263538062572479248046875</LatitudeDegrees>
              <LongitudeDegrees>-1.16233862936496734619140625</LongitudeDegrees>
            </Position>
            <AltitudeMeters>188.8000030517578125</AltitudeMeters>
            <DistanceMeters>NAN</DistanceMeters>
          </Trackpoint>
          <Trackpoint>
            <Time>2020-05-25T07:17:17.000Z</Time>
            <Position>
              <LatitudeDegrees>38.1108579598367214202880859375</LatitudeDegrees>
              <LongitudeDegrees>-1.162401996552944183349609375</LongitudeDegrees>
            </Position>
            <AltitudeMeters>188.399993896484375</AltitudeMeters>
            <DistanceMeters>NAN</DistanceMeters>
          </Trackpoint>
          <Trackpoint>
            <Time>2020-05-25T07:17:18.000Z</Time>
            <Position>
              <LatitudeDegrees>38.1108140386641025543212890625</LatitudeDegrees>
              <LongitudeDegrees>-1.16246678866446018218994140625</LongitudeDegrees>
            </Position>
            <AltitudeMeters>188.1999969482421875</AltitudeMeters>
            <DistanceMeters>NAN</DistanceMeters>
          </Trackpoint>
          <Trackpoint>
            <Time>2020-05-25T07:17:19.000Z</Time>
            <Position>
              <LatitudeDegrees>38.11076835729181766510009765625</LatitudeDegrees>
              <LongitudeDegrees>-1.16253468208014965057373046875</LongitudeDegrees>
            </Position>
            <AltitudeMeters>187.8000030517578125</AltitudeMeters>
            <DistanceMeters>NAN</DistanceMeters>
          </Trackpoint>
          <Trackpoint>
            <Time>2020-05-25T07:17:20.000Z</Time>
            <Position>
              <LatitudeDegrees>38.1107233464717864990234375</LatitudeDegrees>
              <LongitudeDegrees>-1.1626036651432514190673828125</LongitudeDegrees>
            </Position>
            <AltitudeMeters>187.600006103515625</AltitudeMeters>
            <DistanceMeters>NAN</DistanceMeters>
          </Trackpoint>
          <Trackpoint>
            <Time>2020-05-25T07:17:21.000Z</Time>
            <Position>
              <LatitudeDegrees>38.11067699454724788665771484375</LatitudeDegrees>
              <LongitudeDegrees>-1.1626718938350677490234375</LongitudeDegrees>
            </Position>
            <AltitudeMeters>187.1999969482421875</AltitudeMeters>
            <DistanceMeters>NAN</DistanceMeters>
          </Trackpoint>
          <Trackpoint>
            <Time>2020-05-25T07:17:22.000Z</Time>
            <Position>
              <LatitudeDegrees>38.1106293015182018280029296875</LatitudeDegrees>
              <LongitudeDegrees>-1.1627404578030109405517578125</LongitudeDegrees>
            </Position>
            <AltitudeMeters>187</AltitudeMeters>
            <DistanceMeters>NAN</DistanceMeters>
          </Trackpoint>
          <Trackpoint>
            <Time>2020-05-25T07:17:23.000Z</Time>
            <Position>
              <LatitudeDegrees>38.1105813570320606231689453125</LatitudeDegrees>
              <LongitudeDegrees>-1.1628108657896518707275390625</LongitudeDegrees>
            </Position>
            <AltitudeMeters>186.600006103515625</AltitudeMeters>
            <DistanceMeters>NAN</DistanceMeters>
          </Trackpoint>
          <Trackpoint>
            <Time>2020-05-25T07:17:24.000Z</Time>
            <Position>
              <LatitudeDegrees>38.1105327419936656951904296875</LatitudeDegrees>
              <LongitudeDegrees>-1.162882111966609954833984375</LongitudeDegrees>
            </Position>
            <AltitudeMeters>186.399993896484375</AltitudeMeters>
            <DistanceMeters>NAN</DistanceMeters>
          </Trackpoint>
          <Trackpoint>
            <Time>2020-05-25T07:17:25.000Z</Time>
            <Position>
              <LatitudeDegrees>38.11048471368849277496337890625</LatitudeDegrees>
              <LongitudeDegrees>-1.1629535257816314697265625</LongitudeDegrees>
            </Position>
            <AltitudeMeters>186</AltitudeMeters>
            <DistanceMeters>NAN</DistanceMeters>
          </Trackpoint>
          <Trackpoint>
            <Time>2020-05-25T07:17:26.000Z</Time>
            <Position>
              <LatitudeDegrees>38.11043475754559040069580078125</LatitudeDegrees>
              <LongitudeDegrees>-1.16302552632987499237060546875</LongitudeDegrees>
            </Position>
            <AltitudeMeters>185.600006103515625</AltitudeMeters>
            <DistanceMeters>NAN</DistanceMeters>
          </Trackpoint>
          <Trackpoint>
            <Time>2020-05-25T07:17:27.000Z</Time>
            <Position>
              <LatitudeDegrees>38.11038463376462459564208984375</LatitudeDegrees>
              <LongitudeDegrees>-1.16309861652553081512451171875</LongitudeDegrees>
            </Position>
            <AltitudeMeters>185.399993896484375</AltitudeMeters>
            <DistanceMeters>NAN</DistanceMeters>
          </Trackpoint>
          <Trackpoint>
            <Time>2020-05-25T07:17:28.000Z</Time>
            <Position>
              <LatitudeDegrees>38.11033333651721477508544921875</LatitudeDegrees>
              <LongitudeDegrees>-1.16317271254956722259521484375</LongitudeDegrees>
            </Position>
            <AltitudeMeters>185.1999969482421875</AltitudeMeters>
            <DistanceMeters>NAN</DistanceMeters>
          </Trackpoint>
          <Trackpoint>
            <Time>2020-05-25T07:17:29.000Z</Time>
            <Position>
              <LatitudeDegrees>38.11028136871755123138427734375</LatitudeDegrees>
              <LongitudeDegrees>-1.16324798204004764556884765625</LongitudeDegrees>
            </Position>
            <AltitudeMeters>185.1999969482421875</AltitudeMeters>
            <DistanceMeters>NAN</DistanceMeters>
          </Trackpoint>
          <Trackpoint>
            <Time>2020-05-25T07:17:30.000Z</Time>
            <Position>
              <LatitudeDegrees>38.11022839508950710296630859375</LatitudeDegrees>
              <LongitudeDegrees>-1.16332543082535266876220703125</LongitudeDegrees>
            </Position>
            <AltitudeMeters>185.1999969482421875</AltitudeMeters>
            <DistanceMeters>NAN</DistanceMeters>
          </Trackpoint>
          <Trackpoint>
            <Time>2020-05-25T07:17:31.000Z</Time>
            <Position>
              <LatitudeDegrees>38.11017441563308238983154296875</LatitudeDegrees>
              <LongitudeDegrees>-1.163404472172260284423828125</LongitudeDegrees>
            </Position>
            <AltitudeMeters>185</AltitudeMeters>
            <DistanceMeters>NAN</DistanceMeters>
          </Trackpoint>
          <Trackpoint>
            <Time>2020-05-25T07:17:32.000Z</Time>
            <Position>
              <LatitudeDegrees>38.1101193465292453765869140625</LatitudeDegrees>
              <LongitudeDegrees>-1.16348250769078731536865234375</LongitudeDegrees>
            </Position>
            <AltitudeMeters>185</AltitudeMeters>
            <DistanceMeters>NAN</DistanceMeters>
          </Trackpoint>
          <Trackpoint>
            <Time>2020-05-25T07:17:33.000Z</Time>
            <Position>
              <LatitudeDegrees>38.11006343923509120941162109375</LatitudeDegrees>
              <LongitudeDegrees>-1.1635618843138217926025390625</LongitudeDegrees>
            </Position>
            <AltitudeMeters>184.8000030517578125</AltitudeMeters>
            <DistanceMeters>NAN</DistanceMeters>
          </Trackpoint>
          <Trackpoint>
            <Time>2020-05-25T07:17:34.000Z</Time>
            <Position>
              <LatitudeDegrees>38.11000577174127101898193359375</LatitudeDegrees>
              <LongitudeDegrees>-1.16363991983234882354736328125</LongitudeDegrees>
            </Position>
            <AltitudeMeters>184.600006103515625</AltitudeMeters>
            <DistanceMeters>NAN</DistanceMeters>
          </Trackpoint>
          <Trackpoint>
            <Time>2020-05-25T07:17:35.000Z</Time>
            <Position>
              <LatitudeDegrees>38.10994709841907024383544921875</LatitudeDegrees>
              <LongitudeDegrees>-1.16371619515120983123779296875</LongitudeDegrees>
            </Position>
            <AltitudeMeters>184.600006103515625</AltitudeMeters>
            <DistanceMeters>NAN</DistanceMeters>
          </Trackpoint>
          <Trackpoint>
            <Time>2020-05-25T07:17:36.000Z</Time>
            <Position>
              <LatitudeDegrees>38.1098890118300914764404296875</LatitudeDegrees>
              <LongitudeDegrees>-1.16379213519394397735595703125</LongitudeDegrees>
            </Position>
            <AltitudeMeters>184.399993896484375</AltitudeMeters>
            <DistanceMeters>NAN</DistanceMeters>
          </Trackpoint>
          <Trackpoint>
            <Time>2020-05-25T07:17:37.000Z</Time>
            <Position>
              <LatitudeDegrees>38.10982857830822467803955078125</LatitudeDegrees>
              <LongitudeDegrees>-1.16386824287474155426025390625</LongitudeDegrees>
            </Position>
            <AltitudeMeters>184.1999969482421875</AltitudeMeters>
            <DistanceMeters>NAN</DistanceMeters>
          </Trackpoint>
          <Trackpoint>
            <Time>2020-05-25T07:17:38.000Z</Time>
            <Position>
              <LatitudeDegrees>38.1097669713199138641357421875</LatitudeDegrees>
              <LongitudeDegrees>-1.1639444343745708465576171875</LongitudeDegrees>
            </Position>
            <AltitudeMeters>184</AltitudeMeters>
            <DistanceMeters>NAN</DistanceMeters>
          </Trackpoint>
          <Trackpoint>
            <Time>2020-05-25T07:17:39.000Z</Time>
            <Position>
              <LatitudeDegrees>38.10970209538936614990234375</LatitudeDegrees>
              <LongitudeDegrees>-1.1640215478837490081787109375</LongitudeDegrees>
            </Position>
            <AltitudeMeters>183.399993896484375</AltitudeMeters>
            <DistanceMeters>NAN</DistanceMeters>
          </Trackpoint>
          <Trackpoint>
            <Time>2020-05-25T07:17:40.000Z</Time>
            <Position>
              <LatitudeDegrees>38.1096345372498035430908203125</LatitudeDegrees>
              <LongitudeDegrees>-1.1640969850122928619384765625</LongitudeDegrees>
            </Position>
            <AltitudeMeters>182.600006103515625</AltitudeMeters>
            <DistanceMeters>NAN</DistanceMeters>
          </Trackpoint>
          <Trackpoint>
            <Time>2020-05-25T07:17:41.000Z</Time>
            <Position>
              <LatitudeDegrees>38.10956186614930629730224609375</LatitudeDegrees>
              <LongitudeDegrees>-1.164169572293758392333984375</LongitudeDegrees>
            </Position>
            <AltitudeMeters>182</AltitudeMeters>
            <DistanceMeters>NAN</DistanceMeters>
          </Trackpoint>
          <Trackpoint>
            <Time>2020-05-25T07:17:42.000Z</Time>
            <Position>
              <LatitudeDegrees>38.109484501183032989501953125</LatitudeDegrees>
              <LongitudeDegrees>-1.16423788480460643768310546875</LongitudeDegrees>
            </Position>
            <AltitudeMeters>181.1999969482421875</AltitudeMeters>
            <DistanceMeters>NAN</DistanceMeters>
          </Trackpoint>
          <Trackpoint>
            <Time>2020-05-25T07:17:43.000Z</Time>
            <Position>
              <LatitudeDegrees>38.10940126888453960418701171875</LatitudeDegrees>
              <LongitudeDegrees>-1.1643015034496784210205078125</LongitudeDegrees>
            </Position>
            <AltitudeMeters>180.600006103515625</AltitudeMeters>
            <DistanceMeters>NAN</DistanceMeters>
          </Trackpoint>
          <Trackpoint>
            <Time>2020-05-25T07:17:44.000Z</Time>
            <Position>
              <LatitudeDegrees>38.10932122170925140380859375</LatitudeDegrees>
              <LongitudeDegrees>-1.1643601767718791961669921875</LongitudeDegrees>
            </Position>
            <AltitudeMeters>179.8000030517578125</AltitudeMeters>
            <DistanceMeters>NAN</DistanceMeters>
          </Trackpoint>
          <Trackpoint>
            <Time>2020-05-25T07:17:45.000Z</Time>
            <Position>
              <LatitudeDegrees>38.1092338822782039642333984375</LatitudeDegrees>
              <LongitudeDegrees>-1.1644168384373188018798828125</LongitudeDegrees>
            </Position>
            <AltitudeMeters>179.1999969482421875</AltitudeMeters>
            <DistanceMeters>NAN</DistanceMeters>
          </Trackpoint>
          <Trackpoint>
            <Time>2020-05-25T07:17:46.000Z</Time>
            <Position>
              <LatitudeDegrees>38.1091440282762050628662109375</LatitudeDegrees>
              <LongitudeDegrees>-1.164469309151172637939453125</LongitudeDegrees>
            </Position>
            <AltitudeMeters>178.8000030517578125</AltitudeMeters>
            <DistanceMeters>NAN</DistanceMeters>
          </Trackpoint>
          <Trackpoint>
            <Time>2020-05-25T07:17:47.000Z</Time>
            <Position>
              <LatitudeDegrees>38.10905224643647670745849609375</LatitudeDegrees>
              <LongitudeDegrees>-1.16452102549374103546142578125</LongitudeDegrees>
            </Position>
            <AltitudeMeters>178.399993896484375</AltitudeMeters>
            <DistanceMeters>NAN</DistanceMeters>
          </Trackpoint>
          <Trackpoint>
            <Time>2020-05-25T07:17:48.000Z</Time>
            <Position>
              <LatitudeDegrees>38.1089556030929088592529296875</LatitudeDegrees>
              <LongitudeDegrees>-1.16457031108438968658447265625</LongitudeDegrees>
            </Position>
            <AltitudeMeters>178</AltitudeMeters>
            <DistanceMeters>NAN</DistanceMeters>
          </Trackpoint>
          <Trackpoint>
            <Time>2020-05-25T07:17:49.000Z</Time>
            <Position>
              <LatitudeDegrees>38.1088570319116115570068359375</LatitudeDegrees>
              <LongitudeDegrees>-1.16461708210408687591552734375</LongitudeDegrees>
            </Position>
            <AltitudeMeters>177.600006103515625</AltitudeMeters>
            <DistanceMeters>NAN</DistanceMeters>
          </Trackpoint>
          <Trackpoint>
            <Time>2020-05-25T07:17:50.000Z</Time>
            <Position>
              <LatitudeDegrees>38.10875929892063140869140625</LatitudeDegrees>
              <LongitudeDegrees>-1.1646625958383083343505859375</LongitudeDegrees>
            </Position>
            <AltitudeMeters>177.1999969482421875</AltitudeMeters>
            <DistanceMeters>NAN</DistanceMeters>
          </Trackpoint>
          <Trackpoint>
            <Time>2020-05-25T07:17:51.000Z</Time>
            <Position>
              <LatitudeDegrees>38.108660392463207244873046875</LatitudeDegrees>
              <LongitudeDegrees>-1.16470995359122753143310546875</LongitudeDegrees>
            </Position>
            <AltitudeMeters>176.8000030517578125</AltitudeMeters>
            <DistanceMeters>NAN</DistanceMeters>
          </Trackpoint>
          <Trackpoint>
            <Time>2020-05-25T07:17:52.000Z</Time>
            <Position>
              <LatitudeDegrees>38.1085619889199733734130859375</LatitudeDegrees>
              <LongitudeDegrees>-1.1647578142583370208740234375</LongitudeDegrees>
            </Position>
            <AltitudeMeters>176.399993896484375</AltitudeMeters>
            <DistanceMeters>NAN</DistanceMeters>
          </Trackpoint>
          <Trackpoint>
            <Time>2020-05-25T07:17:53.000Z</Time>
            <Position>
              <LatitudeDegrees>38.10846433974802494049072265625</LatitudeDegrees>
              <LongitudeDegrees>-1.16480718366801738739013671875</LongitudeDegrees>
            </Position>
            <AltitudeMeters>176</AltitudeMeters>
            <DistanceMeters>NAN</DistanceMeters>
          </Trackpoint>
          <Trackpoint>
            <Time>2020-05-25T07:17:54.000Z</Time>
            <Position>
              <LatitudeDegrees>38.10836769640445709228515625</LatitudeDegrees>
              <LongitudeDegrees>-1.1648577265441417694091796875</LongitudeDegrees>
            </Position>
            <AltitudeMeters>175.8000030517578125</AltitudeMeters>
            <DistanceMeters>NAN</DistanceMeters>
          </Trackpoint>
          <Trackpoint>
            <Time>2020-05-25T07:17:55.000Z</Time>
            <Position>
              <LatitudeDegrees>38.10827138833701610565185546875</LatitudeDegrees>
              <LongitudeDegrees>-1.16490684449672698974609375</LongitudeDegrees>
            </Position>
            <AltitudeMeters>175.8000030517578125</AltitudeMeters>
            <DistanceMeters>NAN</DistanceMeters>
          </Trackpoint>
          <Trackpoint>
            <Time>2020-05-25T07:17:56.000Z</Time>
            <Position>
              <LatitudeDegrees>38.1081777624785900115966796875</LatitudeDegrees>
              <LongitudeDegrees>-1.16495822556316852569580078125</LongitudeDegrees>
            </Position>
            <AltitudeMeters>176</AltitudeMeters>
            <DistanceMeters>NAN</DistanceMeters>
          </Trackpoint>
          <Trackpoint>
            <Time>2020-05-25T07:17:57.000Z</Time>
            <Position>
              <LatitudeDegrees>38.10808815993368625640869140625</LatitudeDegrees>
              <LongitudeDegrees>-1.16501413285732269287109375</LongitudeDegrees>
            </Position>
            <AltitudeMeters>176</AltitudeMeters>
            <DistanceMeters>NAN</DistanceMeters>
          </Trackpoint>
          <Trackpoint>
            <Time>2020-05-25T07:17:58.000Z</Time>
            <Position>
              <LatitudeDegrees>38.108002580702304840087890625</LatitudeDegrees>
              <LongitudeDegrees>-1.16507339291274547576904296875</LongitudeDegrees>
            </Position>
            <AltitudeMeters>176</AltitudeMeters>
            <DistanceMeters>NAN</DistanceMeters>
          </Trackpoint>
          <Trackpoint>
            <Time>2020-05-25T07:17:59.000Z</Time>
            <Position>
              <LatitudeDegrees>38.10792203061282634735107421875</LatitudeDegrees>
              <LongitudeDegrees>-1.1651363410055637359619140625</LongitudeDegrees>
            </Position>
            <AltitudeMeters>175.8000030517578125</AltitudeMeters>
            <DistanceMeters>NAN</DistanceMeters>
          </Trackpoint>
          <Trackpoint>
            <Time>2020-05-25T07:18:00.000Z</Time>
            <Position>
              <LatitudeDegrees>38.10784659348428249359130859375</LatitudeDegrees>
              <LongitudeDegrees>-1.16520063020288944244384765625</LongitudeDegrees>
            </Position>
            <AltitudeMeters>175.8000030517578125</AltitudeMeters>
            <DistanceMeters>NAN</DistanceMeters>
          </Trackpoint>
          <Trackpoint>
            <Time>2020-05-25T07:18:01.000Z</Time>
            <Position>
              <LatitudeDegrees>38.10777467675507068634033203125</LatitudeDegrees>
              <LongitudeDegrees>-1.165267266333103179931640625</LongitudeDegrees>
            </Position>
            <AltitudeMeters>175.600006103515625</AltitudeMeters>
            <DistanceMeters>NAN</DistanceMeters>
          </Trackpoint>
          <Trackpoint>
            <Time>2020-05-25T07:18:02.000Z</Time>
            <Position>
              <LatitudeDegrees>38.1077056936919689178466796875</LatitudeDegrees>
              <LongitudeDegrees>-1.16533306427299976348876953125</LongitudeDegrees>
            </Position>
            <AltitudeMeters>175.399993896484375</AltitudeMeters>
            <DistanceMeters>NAN</DistanceMeters>
          </Trackpoint>
          <Trackpoint>
            <Time>2020-05-25T07:18:03.000Z</Time>
            <Position>
              <LatitudeDegrees>38.10764023102819919586181640625</LatitudeDegrees>
              <LongitudeDegrees>-1.16540095768868923187255859375</LongitudeDegrees>
            </Position>
            <AltitudeMeters>175.399993896484375</AltitudeMeters>
            <DistanceMeters>NAN</DistanceMeters>
          </Trackpoint>
          <Trackpoint>
            <Time>2020-05-25T07:18:04.000Z</Time>
            <Position>
              <LatitudeDegrees>38.1075776182115077972412109375</LatitudeDegrees>
              <LongitudeDegrees>-1.165468432009220123291015625</LongitudeDegrees>
            </Position>
            <AltitudeMeters>175.1999969482421875</AltitudeMeters>
            <DistanceMeters>NAN</DistanceMeters>
          </Trackpoint>
          <Trackpoint>
            <Time>2020-05-25T07:18:05.000Z</Time>
            <Position>
              <LatitudeDegrees>38.10751651413738727569580078125</LatitudeDegrees>
              <LongitudeDegrees>-1.16553448140621185302734375</LongitudeDegrees>
            </Position>
            <AltitudeMeters>175</AltitudeMeters>
            <DistanceMeters>NAN</DistanceMeters>
          </Trackpoint>
          <Trackpoint>
            <Time>2020-05-25T07:18:06.000Z</Time>
            <Position>
              <LatitudeDegrees>38.1074569188058376312255859375</LatitudeDegrees>
              <LongitudeDegrees>-1.16560128517448902130126953125</LongitudeDegrees>
            </Position>
            <AltitudeMeters>175</AltitudeMeters>
            <DistanceMeters>NAN</DistanceMeters>
          </Trackpoint>
          <Trackpoint>
            <Time>2020-05-25T07:18:07.000Z</Time>
            <Position>
              <LatitudeDegrees>38.10739967040717601776123046875</LatitudeDegrees>
              <LongitudeDegrees>-1.165670938789844512939453125</LongitudeDegrees>
            </Position>
            <AltitudeMeters>175.1999969482421875</AltitudeMeters>
            <DistanceMeters>NAN</DistanceMeters>
          </Trackpoint>
          <Trackpoint>
            <Time>2020-05-25T07:18:08.000Z</Time>
            <Position>
              <LatitudeDegrees>38.107345104217529296875</LatitudeDegrees>
              <LongitudeDegrees>-1.165743358433246612548828125</LongitudeDegrees>
            </Position>
            <AltitudeMeters>175.600006103515625</AltitudeMeters>
            <DistanceMeters>NAN</DistanceMeters>
          </Trackpoint>
          <Trackpoint>
            <Time>2020-05-25T07:18:09.000Z</Time>
            <Position>
              <LatitudeDegrees>38.1072922982275485992431640625</LatitudeDegrees>
              <LongitudeDegrees>-1.16581745445728302001953125</LongitudeDegrees>
            </Position>
            <AltitudeMeters>176.1999969482421875</AltitudeMeters>
            <DistanceMeters>NAN</DistanceMeters>
          </Trackpoint>
          <Trackpoint>
            <Time>2020-05-25T07:18:10.000Z</Time>
            <Position>
              <LatitudeDegrees>38.10724175535142421722412109375</LatitudeDegrees>
              <LongitudeDegrees>-1.16589364595711231231689453125</LongitudeDegrees>
            </Position>
            <AltitudeMeters>176.399993896484375</AltitudeMeters>
            <DistanceMeters>NAN</DistanceMeters>
          </Trackpoint>
          <Trackpoint>
            <Time>2020-05-25T07:18:11.000Z</Time>
            <Position>
              <LatitudeDegrees>38.10719666071236133575439453125</LatitudeDegrees>
              <LongitudeDegrees>-1.16597897373139858245849609375</LongitudeDegrees>
            </Position>
            <AltitudeMeters>176.8000030517578125</AltitudeMeters>
            <DistanceMeters>NAN</DistanceMeters>
          </Trackpoint>
          <Trackpoint>
            <Time>2020-05-25T07:18:12.000Z</Time>
            <Position>
              <LatitudeDegrees>38.10715265572071075439453125</LatitudeDegrees>
              <LongitudeDegrees>-1.166062541306018829345703125</LongitudeDegrees>
            </Position>
            <AltitudeMeters>177.1999969482421875</AltitudeMeters>
            <DistanceMeters>NAN</DistanceMeters>
          </Trackpoint>
          <Trackpoint>
            <Time>2020-05-25T07:18:13.000Z</Time>
            <Position>
              <LatitudeDegrees>38.10710982419550418853759765625</LatitudeDegrees>
              <LongitudeDegrees>-1.16614895872771739959716796875</LongitudeDegrees>
            </Position>
            <AltitudeMeters>177.600006103515625</AltitudeMeters>
            <DistanceMeters>NAN</DistanceMeters>
          </Trackpoint>
          <Trackpoint>
            <Time>2020-05-25T07:18:14.000Z</Time>
            <Position>
              <LatitudeDegrees>38.10706942342221736907958984375</LatitudeDegrees>
              <LongitudeDegrees>-1.16623529233038425445556640625</LongitudeDegrees>
            </Position>
            <AltitudeMeters>178</AltitudeMeters>
            <DistanceMeters>NAN</DistanceMeters>
          </Trackpoint>
          <Trackpoint>
            <Time>2020-05-25T07:18:15.000Z</Time>
            <Position>
              <LatitudeDegrees>38.1070339679718017578125</LatitudeDegrees>
              <LongitudeDegrees>-1.16632330231368541717529296875</LongitudeDegrees>
            </Position>
            <AltitudeMeters>178.399993896484375</AltitudeMeters>
            <DistanceMeters>NAN</DistanceMeters>
          </Trackpoint>
          <Trackpoint>
            <Time>2020-05-25T07:18:16.000Z</Time>
            <Position>
              <LatitudeDegrees>38.10700085945427417755126953125</LatitudeDegrees>
              <LongitudeDegrees>-1.16640946827828884124755859375</LongitudeDegrees>
            </Position>
            <AltitudeMeters>178.8000030517578125</AltitudeMeters>
            <DistanceMeters>NAN</DistanceMeters>
          </Trackpoint>
          <Trackpoint>
            <Time>2020-05-25T07:18:17.000Z</Time>
            <Position>
              <LatitudeDegrees>38.106966577470302581787109375</LatitudeDegrees>
              <LongitudeDegrees>-1.16649462841451168060302734375</LongitudeDegrees>
            </Position>
            <AltitudeMeters>179.1999969482421875</AltitudeMeters>
            <DistanceMeters>NAN</DistanceMeters>
          </Trackpoint>
          <Trackpoint>
            <Time>2020-05-25T07:18:18.000Z</Time>
            <Position>
              <LatitudeDegrees>38.10693128965795040130615234375</LatitudeDegrees>
              <LongitudeDegrees>-1.16658029146492481231689453125</LongitudeDegrees>
            </Position>
            <AltitudeMeters>179.600006103515625</AltitudeMeters>
            <DistanceMeters>NAN</DistanceMeters>
          </Trackpoint>
          <Trackpoint>
            <Time>2020-05-25T07:18:19.000Z</Time>
            <Position>
              <LatitudeDegrees>38.106896169483661651611328125</LatitudeDegrees>
              <LongitudeDegrees>-1.16666729561984539031982421875</LongitudeDegrees>
            </Position>
            <AltitudeMeters>180</AltitudeMeters>
            <DistanceMeters>NAN</DistanceMeters>
          </Trackpoint>
          <Trackpoint>
            <Time>2020-05-25T07:18:20.000Z</Time>
            <Position>
              <LatitudeDegrees>38.1068618036806583404541015625</LatitudeDegrees>
              <LongitudeDegrees>-1.1667547188699245452880859375</LongitudeDegrees>
            </Position>
            <AltitudeMeters>180.1999969482421875</AltitudeMeters>
            <DistanceMeters>NAN</DistanceMeters>
          </Trackpoint>
          <Trackpoint>
            <Time>2020-05-25T07:18:21.000Z</Time>
            <Position>
              <LatitudeDegrees>38.10682618059217929840087890625</LatitudeDegrees>
              <LongitudeDegrees>-1.1668422259390354156494140625</LongitudeDegrees>
            </Position>
            <AltitudeMeters>180.600006103515625</AltitudeMeters>
            <DistanceMeters>NAN</DistanceMeters>
          </Trackpoint>
          <Trackpoint>
            <Time>2020-05-25T07:18:22.000Z</Time>
            <Position>
              <LatitudeDegrees>38.10679332353174686431884765625</LatitudeDegrees>
              <LongitudeDegrees>-1.16693149320781230926513671875</LongitudeDegrees>
            </Position>
            <AltitudeMeters>181</AltitudeMeters>
            <DistanceMeters>NAN</DistanceMeters>
          </Trackpoint>
          <Trackpoint>
            <Time>2020-05-25T07:18:23.000Z</Time>
            <Position>
              <LatitudeDegrees>38.1067605502903461456298828125</LatitudeDegrees>
              <LongitudeDegrees>-1.1670226044952869415283203125</LongitudeDegrees>
            </Position>
            <AltitudeMeters>181.399993896484375</AltitudeMeters>
            <DistanceMeters>NAN</DistanceMeters>
          </Trackpoint>
          <Trackpoint>
            <Time>2020-05-25T07:18:24.000Z</Time>
            <Position>
              <LatitudeDegrees>38.10672643594443798065185546875</LatitudeDegrees>
              <LongitudeDegrees>-1.167113967239856719970703125</LongitudeDegrees>
            </Position>
            <AltitudeMeters>181.8000030517578125</AltitudeMeters>
            <DistanceMeters>NAN</DistanceMeters>
          </Trackpoint>
          <Trackpoint>
            <Time>2020-05-25T07:18:25.000Z</Time>
            <Position>
              <LatitudeDegrees>38.10669408179819583892822265625</LatitudeDegrees>
              <LongitudeDegrees>-1.16720574907958507537841796875</LongitudeDegrees>
            </Position>
            <AltitudeMeters>182</AltitudeMeters>
            <DistanceMeters>NAN</DistanceMeters>
          </Trackpoint>
          <Trackpoint>
            <Time>2020-05-25T07:18:26.000Z</Time>
            <Position>
              <LatitudeDegrees>38.10665912926197052001953125</LatitudeDegrees>
              <LongitudeDegrees>-1.167295686900615692138671875</LongitudeDegrees>
            </Position>
            <AltitudeMeters>182.1999969482421875</AltitudeMeters>
            <DistanceMeters>NAN</DistanceMeters>
          </Trackpoint>
          <Trackpoint>
            <Time>2020-05-25T07:18:27.000Z</Time>
            <Position>
              <LatitudeDegrees>38.106623925268650054931640625</LatitudeDegrees>
              <LongitudeDegrees>-1.16738386452198028564453125</LongitudeDegrees>
            </Position>
            <AltitudeMeters>182.399993896484375</AltitudeMeters>
            <DistanceMeters>NAN</DistanceMeters>
          </Trackpoint>
          <Trackpoint>
            <Time>2020-05-25T07:18:28.000Z</Time>
            <Position>
              <LatitudeDegrees>38.106589056551456451416015625</LatitudeDegrees>
              <LongitudeDegrees>-1.16747162304818630218505859375</LongitudeDegrees>
            </Position>
            <AltitudeMeters>182.399993896484375</AltitudeMeters>
            <DistanceMeters>NAN</DistanceMeters>
          </Trackpoint>
          <Trackpoint>
            <Time>2020-05-25T07:18:29.000Z</Time>
            <Position>
              <LatitudeDegrees>38.10655460692942142486572265625</LatitudeDegrees>
              <LongitudeDegrees>-1.167559884488582611083984375</LongitudeDegrees>
            </Position>
            <AltitudeMeters>182.1999969482421875</AltitudeMeters>
            <DistanceMeters>NAN</DistanceMeters>
          </Trackpoint>
          <Trackpoint>
            <Time>2020-05-25T07:18:30.000Z</Time>
            <Position>
              <LatitudeDegrees>38.10651940293610095977783203125</LatitudeDegrees>
              <LongitudeDegrees>-1.16764605045318603515625</LongitudeDegrees>
            </Position>
            <AltitudeMeters>182.1999969482421875</AltitudeMeters>
            <DistanceMeters>NAN</DistanceMeters>
          </Trackpoint>
          <Trackpoint>
            <Time>2020-05-25T07:18:31.000Z</Time>
            <Position>
              <LatitudeDegrees>38.1064852885901927947998046875</LatitudeDegrees>
              <LongitudeDegrees>-1.1677350662648677825927734375</LongitudeDegrees>
            </Position>
            <AltitudeMeters>182</AltitudeMeters>
            <DistanceMeters>NAN</DistanceMeters>
          </Trackpoint>
          <Trackpoint>
            <Time>2020-05-25T07:18:32.000Z</Time>
            <Position>
              <LatitudeDegrees>38.10645234771072864532470703125</LatitudeDegrees>
              <LongitudeDegrees>-1.16782508790493011474609375</LongitudeDegrees>
            </Position>
            <AltitudeMeters>182</AltitudeMeters>
            <DistanceMeters>NAN</DistanceMeters>
          </Trackpoint>
          <Trackpoint>
            <Time>2020-05-25T07:18:33.000Z</Time>
            <Position>
              <LatitudeDegrees>38.1064192391932010650634765625</LatitudeDegrees>
              <LongitudeDegrees>-1.16791569627821445465087890625</LongitudeDegrees>
            </Position>
            <AltitudeMeters>181.8000030517578125</AltitudeMeters>
            <DistanceMeters>NAN</DistanceMeters>
          </Trackpoint>
          <Trackpoint>
            <Time>2020-05-25T07:18:34.000Z</Time>
            <Position>
              <LatitudeDegrees>38.1063863821327686309814453125</LatitudeDegrees>
              <LongitudeDegrees>-1.168005466461181640625</LongitudeDegrees>
            </Position>
            <AltitudeMeters>181.600006103515625</AltitudeMeters>
            <DistanceMeters>NAN</DistanceMeters>
          </Trackpoint>
          <Trackpoint>
            <Time>2020-05-25T07:18:35.000Z</Time>
            <Position>
              <LatitudeDegrees>38.1063555367290973663330078125</LatitudeDegrees>
              <LongitudeDegrees>-1.16809473372995853424072265625</LongitudeDegrees>
            </Position>
            <AltitudeMeters>181.600006103515625</AltitudeMeters>
            <DistanceMeters>NAN</DistanceMeters>
          </Trackpoint>
          <Trackpoint>
            <Time>2020-05-25T07:18:36.000Z</Time>
            <Position>
              <LatitudeDegrees>38.1063236854970455169677734375</LatitudeDegrees>
              <LongitudeDegrees>-1.1681819893419742584228515625</LongitudeDegrees>
            </Position>
            <AltitudeMeters>181.600006103515625</AltitudeMeters>
            <DistanceMeters>NAN</DistanceMeters>
          </Trackpoint>
          <Trackpoint>
            <Time>2020-05-25T07:18:37.000Z</Time>
            <Position>
              <LatitudeDegrees>38.106290660798549652099609375</LatitudeDegrees>
              <LongitudeDegrees>-1.16827033460140228271484375</LongitudeDegrees>
            </Position>
            <AltitudeMeters>181.600006103515625</AltitudeMeters>
            <DistanceMeters>NAN</DistanceMeters>
          </Trackpoint>
          <Trackpoint>
            <Time>2020-05-25T07:18:38.000Z</Time>
            <Position>
              <LatitudeDegrees>38.10625570826232433319091796875</LatitudeDegrees>
              <LongitudeDegrees>-1.1683581769466400146484375</LongitudeDegrees>
            </Position>
            <AltitudeMeters>181.8000030517578125</AltitudeMeters>
            <DistanceMeters>NAN</DistanceMeters>
          </Trackpoint>
          <Trackpoint>
            <Time>2020-05-25T07:18:39.000Z</Time>
            <Position>
              <LatitudeDegrees>38.1062187440693378448486328125</LatitudeDegrees>
              <LongitudeDegrees>-1.168443001806735992431640625</LongitudeDegrees>
            </Position>
            <AltitudeMeters>181.8000030517578125</AltitudeMeters>
            <DistanceMeters>NAN</DistanceMeters>
          </Trackpoint>
          <Trackpoint>
            <Time>2020-05-25T07:18:40.000Z</Time>
            <Position>
              <LatitudeDegrees>38.10618027113378047943115234375</LatitudeDegrees>
              <LongitudeDegrees>-1.16852606646716594696044921875</LongitudeDegrees>
            </Position>
            <AltitudeMeters>182</AltitudeMeters>
            <DistanceMeters>NAN</DistanceMeters>
          </Trackpoint>
          <Trackpoint>
            <Time>2020-05-25T07:18:41.000Z</Time>
            <Position>
              <LatitudeDegrees>38.10614171437919139862060546875</LatitudeDegrees>
              <LongitudeDegrees>-1.1686084605753421783447265625</LongitudeDegrees>
            </Position>
            <AltitudeMeters>182.1999969482421875</AltitudeMeters>
            <DistanceMeters>NAN</DistanceMeters>
          </Trackpoint>
          <Trackpoint>
            <Time>2020-05-25T07:18:42.000Z</Time>
            <Position>
              <LatitudeDegrees>38.10610332526266574859619140625</LatitudeDegrees>
              <LongitudeDegrees>-1.1686879210174083709716796875</LongitudeDegrees>
            </Position>
            <AltitudeMeters>182.1999969482421875</AltitudeMeters>
            <DistanceMeters>NAN</DistanceMeters>
          </Trackpoint>
          <Trackpoint>
            <Time>2020-05-25T07:18:43.000Z</Time>
            <Position>
              <LatitudeDegrees>38.10606409795582294464111328125</LatitudeDegrees>
              <LongitudeDegrees>-1.1687653698027133941650390625</LongitudeDegrees>
            </Position>
            <AltitudeMeters>182.399993896484375</AltitudeMeters>
            <DistanceMeters>NAN</DistanceMeters>
          </Trackpoint>
          <Trackpoint>
            <Time>2020-05-25T07:18:44.000Z</Time>
            <Position>
              <LatitudeDegrees>38.1060252897441387176513671875</LatitudeDegrees>
              <LongitudeDegrees>-1.1688414774835109710693359375</LongitudeDegrees>
            </Position>
            <AltitudeMeters>182.600006103515625</AltitudeMeters>
            <DistanceMeters>NAN</DistanceMeters>
          </Trackpoint>
          <Trackpoint>
            <Time>2020-05-25T07:18:45.000Z</Time>
            <Position>
              <LatitudeDegrees>38.1059847213327884674072265625</LatitudeDegrees>
              <LongitudeDegrees>-1.16891414858400821685791015625</LongitudeDegrees>
            </Position>
            <AltitudeMeters>182.8000030517578125</AltitudeMeters>
            <DistanceMeters>NAN</DistanceMeters>
          </Trackpoint>
          <Trackpoint>
            <Time>2020-05-25T07:18:46.000Z</Time>
            <Position>
              <LatitudeDegrees>38.10594054870307445526123046875</LatitudeDegrees>
              <LongitudeDegrees>-1.1689836345613002777099609375</LongitudeDegrees>
            </Position>
            <AltitudeMeters>182.8000030517578125</AltitudeMeters>
            <DistanceMeters>NAN</DistanceMeters>
          </Trackpoint>
          <Trackpoint>
            <Time>2020-05-25T07:18:47.000Z</Time>
            <Position>
              <LatitudeDegrees>38.1058928556740283966064453125</LatitudeDegrees>
              <LongitudeDegrees>-1.16904951632022857666015625</LongitudeDegrees>
            </Position>
            <AltitudeMeters>182.600006103515625</AltitudeMeters>
            <DistanceMeters>NAN</DistanceMeters>
          </Trackpoint>
          <Trackpoint>
            <Time>2020-05-25T07:18:48.000Z</Time>
            <Position>
              <LatitudeDegrees>38.10584298335015773773193359375</LatitudeDegrees>
              <LongitudeDegrees>-1.1691140569746494293212890625</LongitudeDegrees>
            </Position>
            <AltitudeMeters>182.600006103515625</AltitudeMeters>
            <DistanceMeters>NAN</DistanceMeters>
          </Trackpoint>
          <Trackpoint>
            <Time>2020-05-25T07:18:49.000Z</Time>
            <Position>
              <LatitudeDegrees>38.105791099369525909423828125</LatitudeDegrees>
              <LongitudeDegrees>-1.16917583160102367401123046875</LongitudeDegrees>
            </Position>
            <AltitudeMeters>182.399993896484375</AltitudeMeters>
            <DistanceMeters>NAN</DistanceMeters>
          </Trackpoint>
          <Trackpoint>
            <Time>2020-05-25T07:18:50.000Z</Time>
            <Position>
              <LatitudeDegrees>38.10573703609406948089599609375</LatitudeDegrees>
              <LongitudeDegrees>-1.16923316381871700286865234375</LongitudeDegrees>
            </Position>
            <AltitudeMeters>182.399993896484375</AltitudeMeters>
            <DistanceMeters>NAN</DistanceMeters>
          </Trackpoint>
          <Trackpoint>
            <Time>2020-05-25T07:18:51.000Z</Time>
            <Position>
              <LatitudeDegrees>38.10567903332412242889404296875</LatitudeDegrees>
              <LongitudeDegrees>-1.16928664036095142364501953125</LongitudeDegrees>
            </Position>
            <AltitudeMeters>182.1999969482421875</AltitudeMeters>
            <DistanceMeters>NAN</DistanceMeters>
          </Trackpoint>
          <Trackpoint>
            <Time>2020-05-25T07:18:52.000Z</Time>
            <Position>
              <LatitudeDegrees>38.1056199409067630767822265625</LatitudeDegrees>
              <LongitudeDegrees>-1.169337518513202667236328125</LongitudeDegrees>
            </Position>
            <AltitudeMeters>182.1999969482421875</AltitudeMeters>
            <DistanceMeters>NAN</DistanceMeters>
          </Trackpoint>
          <Trackpoint>
            <Time>2020-05-25T07:18:53.000Z</Time>
            <Position>
              <LatitudeDegrees>38.10556001029908657073974609375</LatitudeDegrees>
              <LongitudeDegrees>-1.16938487626612186431884765625</LongitudeDegrees>
            </Position>
            <AltitudeMeters>182.1999969482421875</AltitudeMeters>
            <DistanceMeters>NAN</DistanceMeters>
          </Trackpoint>
          <Trackpoint>
            <Time>2020-05-25T07:18:54.000Z</Time>
            <Position>
              <LatitudeDegrees>38.1054979003965854644775390625</LatitudeDegrees>
              <LongitudeDegrees>-1.1694305576384067535400390625</LongitudeDegrees>
            </Position>
            <AltitudeMeters>182.1999969482421875</AltitudeMeters>
            <DistanceMeters>NAN</DistanceMeters>
          </Trackpoint>
          <Trackpoint>
            <Time>2020-05-25T07:18:55.000Z</Time>
            <Position>
              <LatitudeDegrees>38.1054341979324817657470703125</LatitudeDegrees>
              <LongitudeDegrees>-1.16947188042104244232177734375</LongitudeDegrees>
            </Position>
            <AltitudeMeters>182.1999969482421875</AltitudeMeters>
            <DistanceMeters>NAN</DistanceMeters>
          </Trackpoint>
          <Trackpoint>
            <Time>2020-05-25T07:18:56.000Z</Time>
            <Position>
              <LatitudeDegrees>38.105370663106441497802734375</LatitudeDegrees>
              <LongitudeDegrees>-1.1695127002894878387451171875</LongitudeDegrees>
            </Position>
            <AltitudeMeters>182.399993896484375</AltitudeMeters>
            <DistanceMeters>NAN</DistanceMeters>
          </Trackpoint>
          <Trackpoint>
            <Time>2020-05-25T07:18:57.000Z</Time>
            <Position>
              <LatitudeDegrees>38.10530603863298892974853515625</LatitudeDegrees>
              <LongitudeDegrees>-1.16955184377729892730712890625</LongitudeDegrees>
            </Position>
            <AltitudeMeters>182.399993896484375</AltitudeMeters>
            <DistanceMeters>NAN</DistanceMeters>
          </Trackpoint>
          <Trackpoint>
            <Time>2020-05-25T07:18:58.000Z</Time>
            <Position>
              <LatitudeDegrees>38.10524082742631435394287109375</LatitudeDegrees>
              <LongitudeDegrees>-1.16959023289382457733154296875</LongitudeDegrees>
            </Position>
            <AltitudeMeters>182.399993896484375</AltitudeMeters>
            <DistanceMeters>NAN</DistanceMeters>
          </Trackpoint>
          <Trackpoint>
            <Time>2020-05-25T07:18:59.000Z</Time>
            <Position>
              <LatitudeDegrees>38.10517595149576663970947265625</LatitudeDegrees>
              <LongitudeDegrees>-1.1696256883442401885986328125</LongitudeDegrees>
            </Position>
            <AltitudeMeters>182.399993896484375</AltitudeMeters>
            <DistanceMeters>NAN</DistanceMeters>
          </Trackpoint>
          <Trackpoint>
            <Time>2020-05-25T07:19:00.000Z</Time>
            <Position>
              <LatitudeDegrees>38.10511107556521892547607421875</LatitudeDegrees>
              <LongitudeDegrees>-1.1696592159569263458251953125</LongitudeDegrees>
            </Position>
            <AltitudeMeters>182.600006103515625</AltitudeMeters>
            <DistanceMeters>NAN</DistanceMeters>
          </Trackpoint>
          <Trackpoint>
            <Time>2020-05-25T07:19:01.000Z</Time>
            <Position>
              <LatitudeDegrees>38.10504636727273464202880859375</LatitudeDegrees>
              <LongitudeDegrees>-1.1696934141218662261962890625</LongitudeDegrees>
            </Position>
            <AltitudeMeters>182.399993896484375</AltitudeMeters>
            <DistanceMeters>NAN</DistanceMeters>
          </Trackpoint>
          <Trackpoint>
            <Time>2020-05-25T07:19:02.000Z</Time>
            <Position>
              <LatitudeDegrees>38.10498006641864776611328125</LatitudeDegrees>
              <LongitudeDegrees>-1.1697259359061717987060546875</LongitudeDegrees>
            </Position>
            <AltitudeMeters>182.399993896484375</AltitudeMeters>
            <DistanceMeters>NAN</DistanceMeters>
          </Trackpoint>
          <Trackpoint>
            <Time>2020-05-25T07:19:03.000Z</Time>
            <Position>
              <LatitudeDegrees>38.10491376556456089019775390625</LatitudeDegrees>
              <LongitudeDegrees>-1.16975627839565277099609375</LongitudeDegrees>
            </Position>
            <AltitudeMeters>182.399993896484375</AltitudeMeters>
            <DistanceMeters>NAN</DistanceMeters>
          </Trackpoint>
          <Trackpoint>
            <Time>2020-05-25T07:19:04.000Z</Time>
            <Position>
              <LatitudeDegrees>38.1048461236059665679931640625</LatitudeDegrees>
              <LongitudeDegrees>-1.169783771038055419921875</LongitudeDegrees>
            </Position>
            <AltitudeMeters>182.1999969482421875</AltitudeMeters>
            <DistanceMeters>NAN</DistanceMeters>
          </Trackpoint>
          <Trackpoint>
            <Time>2020-05-25T07:19:05.000Z</Time>
            <Position>
              <LatitudeDegrees>38.1047790683805942535400390625</LatitudeDegrees>
              <LongitudeDegrees>-1.1698147840797901153564453125</LongitudeDegrees>
            </Position>
            <AltitudeMeters>182.399993896484375</AltitudeMeters>
            <DistanceMeters>NAN</DistanceMeters>
          </Trackpoint>
          <Trackpoint>
            <Time>2020-05-25T07:19:06.000Z</Time>
            <Position>
              <LatitudeDegrees>38.10471176169812679290771484375</LatitudeDegrees>
              <LongitudeDegrees>-1.16984940133988857269287109375</LongitudeDegrees>
            </Position>
            <AltitudeMeters>182.399993896484375</AltitudeMeters>
            <DistanceMeters>NAN</DistanceMeters>
          </Trackpoint>
          <Trackpoint>
            <Time>2020-05-25T07:19:07.000Z</Time>
            <Position>
              <LatitudeDegrees>38.10464353300631046295166015625</LatitudeDegrees>
              <LongitudeDegrees>-1.16988343186676502227783203125</LongitudeDegrees>
            </Position>
            <AltitudeMeters>182.399993896484375</AltitudeMeters>
            <DistanceMeters>NAN</DistanceMeters>
          </Trackpoint>
          <Trackpoint>
            <Time>2020-05-25T07:19:08.000Z</Time>
            <Position>
              <LatitudeDegrees>38.1045738793909549713134765625</LatitudeDegrees>
              <LongitudeDegrees>-1.16991595365107059478759765625</LongitudeDegrees>
            </Position>
            <AltitudeMeters>182.399993896484375</AltitudeMeters>
            <DistanceMeters>NAN</DistanceMeters>
          </Trackpoint>
          <Trackpoint>
            <Time>2020-05-25T07:19:09.000Z</Time>
            <Position>
              <LatitudeDegrees>38.1045034714043140411376953125</LatitudeDegrees>
              <LongitudeDegrees>-1.1699473857879638671875</LongitudeDegrees>
            </Position>
            <AltitudeMeters>182.600006103515625</AltitudeMeters>
            <DistanceMeters>NAN</DistanceMeters>
          </Trackpoint>
          <Trackpoint>
            <Time>2020-05-25T07:19:10.000Z</Time>
            <Position>
              <LatitudeDegrees>38.1044327281415462493896484375</LatitudeDegrees>
              <LongitudeDegrees>-1.169979907572269439697265625</LongitudeDegrees>
            </Position>
            <AltitudeMeters>182.600006103515625</AltitudeMeters>
            <DistanceMeters>NAN</DistanceMeters>
          </Trackpoint>
          <Trackpoint>
            <Time>2020-05-25T07:19:11.000Z</Time>
            <Position>
              <LatitudeDegrees>38.10436340980231761932373046875</LatitudeDegrees>
              <LongitudeDegrees>-1.17001502774655818939208984375</LongitudeDegrees>
            </Position>
            <AltitudeMeters>182.600006103515625</AltitudeMeters>
            <DistanceMeters>NAN</DistanceMeters>
          </Trackpoint>
          <Trackpoint>
            <Time>2020-05-25T07:19:12.000Z</Time>
            <Position>
              <LatitudeDegrees>38.10429467819631099700927734375</LatitudeDegrees>
              <LongitudeDegrees>-1.1700538359582424163818359375</LongitudeDegrees>
            </Position>
            <AltitudeMeters>182.600006103515625</AltitudeMeters>
            <DistanceMeters>NAN</DistanceMeters>
          </Trackpoint>
          <Trackpoint>
            <Time>2020-05-25T07:19:13.000Z</Time>
            <Position>
              <LatitudeDegrees>38.104225359857082366943359375</LatitudeDegrees>
              <LongitudeDegrees>-1.170096583664417266845703125</LongitudeDegrees>
            </Position>
            <AltitudeMeters>182.399993896484375</AltitudeMeters>
            <DistanceMeters>NAN</DistanceMeters>
          </Trackpoint>
          <Trackpoint>
            <Time>2020-05-25T07:19:14.000Z</Time>
            <Position>
              <LatitudeDegrees>38.10415553860366344451904296875</LatitudeDegrees>
              <LongitudeDegrees>-1.1701450310647487640380859375</LongitudeDegrees>
            </Position>
            <AltitudeMeters>181.8000030517578125</AltitudeMeters>
            <DistanceMeters>NAN</DistanceMeters>
          </Trackpoint>
          <Trackpoint>
            <Time>2020-05-25T07:19:15.000Z</Time>
            <Position>
              <LatitudeDegrees>38.104083873331546783447265625</LatitudeDegrees>
              <LongitudeDegrees>-1.17020211182534694671630859375</LongitudeDegrees>
            </Position>
            <AltitudeMeters>181.1999969482421875</AltitudeMeters>
            <DistanceMeters>NAN</DistanceMeters>
          </Trackpoint>
          <Trackpoint>
            <Time>2020-05-25T07:19:16.000Z</Time>
            <Position>
              <LatitudeDegrees>38.1040097773075103759765625</LatitudeDegrees>
              <LongitudeDegrees>-1.17026195861399173736572265625</LongitudeDegrees>
            </Position>
            <AltitudeMeters>180.600006103515625</AltitudeMeters>
            <DistanceMeters>NAN</DistanceMeters>
          </Trackpoint>
          <Trackpoint>
            <Time>2020-05-25T07:19:17.000Z</Time>
            <Position>
              <LatitudeDegrees>38.10393291525542736053466796875</LatitudeDegrees>
              <LongitudeDegrees>-1.17032532580196857452392578125</LongitudeDegrees>
            </Position>
            <AltitudeMeters>180</AltitudeMeters>
            <DistanceMeters>NAN</DistanceMeters>
          </Trackpoint>
          <Trackpoint>
            <Time>2020-05-25T07:19:18.000Z</Time>
            <Position>
              <LatitudeDegrees>38.10385328717529773712158203125</LatitudeDegrees>
              <LongitudeDegrees>-1.1703894473612308502197265625</LongitudeDegrees>
            </Position>
            <AltitudeMeters>179.1999969482421875</AltitudeMeters>
            <DistanceMeters>NAN</DistanceMeters>
          </Trackpoint>
          <Trackpoint>
            <Time>2020-05-25T07:19:19.000Z</Time>
            <Position>
              <LatitudeDegrees>38.1037712283432483673095703125</LatitudeDegrees>
              <LongitudeDegrees>-1.1704556643962860107421875</LongitudeDegrees>
            </Position>
            <AltitudeMeters>178.600006103515625</AltitudeMeters>
            <DistanceMeters>NAN</DistanceMeters>
          </Trackpoint>
          <Trackpoint>
            <Time>2020-05-25T07:19:20.000Z</Time>
            <Position>
              <LatitudeDegrees>38.1036864034831523895263671875</LatitudeDegrees>
              <LongitudeDegrees>-1.17052280344069004058837890625</LongitudeDegrees>
            </Position>
            <AltitudeMeters>178</AltitudeMeters>
            <DistanceMeters>NAN</DistanceMeters>
          </Trackpoint>
          <Trackpoint>
            <Time>2020-05-25T07:19:21.000Z</Time>
            <Position>
              <LatitudeDegrees>38.1035999022424221038818359375</LatitudeDegrees>
              <LongitudeDegrees>-1.17059404961764812469482421875</LongitudeDegrees>
            </Position>
            <AltitudeMeters>177.1999969482421875</AltitudeMeters>
            <DistanceMeters>NAN</DistanceMeters>
          </Trackpoint>
          <Trackpoint>
            <Time>2020-05-25T07:19:22.000Z</Time>
            <Position>
              <LatitudeDegrees>38.10350929386913776397705078125</LatitudeDegrees>
              <LongitudeDegrees>-1.1706603504717350006103515625</LongitudeDegrees>
            </Position>
            <AltitudeMeters>176.1999969482421875</AltitudeMeters>
            <DistanceMeters>NAN</DistanceMeters>
          </Trackpoint>
          <Trackpoint>
            <Time>2020-05-25T07:19:23.000Z</Time>
            <Position>
              <LatitudeDegrees>38.10341524891555309295654296875</LatitudeDegrees>
              <LongitudeDegrees>-1.17072380147874355316162109375</LongitudeDegrees>
            </Position>
            <AltitudeMeters>175.399993896484375</AltitudeMeters>
            <DistanceMeters>NAN</DistanceMeters>
          </Trackpoint>
          <Trackpoint>
            <Time>2020-05-25T07:19:24.000Z</Time>
            <Position>
              <LatitudeDegrees>38.103317432105541229248046875</LatitudeDegrees>
              <LongitudeDegrees>-1.17078264243900775909423828125</LongitudeDegrees>
            </Position>
            <AltitudeMeters>174.8000030517578125</AltitudeMeters>
            <DistanceMeters>NAN</DistanceMeters>
          </Trackpoint>
          <Trackpoint>
            <Time>2020-05-25T07:19:25.000Z</Time>
            <Position>
              <LatitudeDegrees>38.103217184543609619140625</LatitudeDegrees>
              <LongitudeDegrees>-1.1708390526473522186279296875</LongitudeDegrees>
            </Position>
            <AltitudeMeters>174.399993896484375</AltitudeMeters>
            <DistanceMeters>NAN</DistanceMeters>
          </Trackpoint>
          <Trackpoint>
            <Time>2020-05-25T07:19:26.000Z</Time>
            <Position>
              <LatitudeDegrees>38.10311459004878997802734375</LatitudeDegrees>
              <LongitudeDegrees>-1.170894205570220947265625</LongitudeDegrees>
            </Position>
            <AltitudeMeters>173.8000030517578125</AltitudeMeters>
            <DistanceMeters>NAN</DistanceMeters>
          </Trackpoint>
          <Trackpoint>
            <Time>2020-05-25T07:19:27.000Z</Time>
            <Position>
              <LatitudeDegrees>38.10301191173493862152099609375</LatitudeDegrees>
              <LongitudeDegrees>-1.17094717919826507568359375</LongitudeDegrees>
            </Position>
            <AltitudeMeters>173</AltitudeMeters>
            <DistanceMeters>NAN</DistanceMeters>
          </Trackpoint>
          <Trackpoint>
            <Time>2020-05-25T07:19:28.000Z</Time>
            <Position>
              <LatitudeDegrees>38.10291082598268985748291015625</LatitudeDegrees>
              <LongitudeDegrees>-1.1709988117218017578125</LongitudeDegrees>
            </Position>
            <AltitudeMeters>172.399993896484375</AltitudeMeters>
            <DistanceMeters>NAN</DistanceMeters>
          </Trackpoint>
          <Trackpoint>
            <Time>2020-05-25T07:19:29.000Z</Time>
            <Position>
              <LatitudeDegrees>38.1028081476688385009765625</LatitudeDegrees>
              <LongitudeDegrees>-1.17104918695986270904541015625</LongitudeDegrees>
            </Position>
            <AltitudeMeters>171.8000030517578125</AltitudeMeters>
            <DistanceMeters>NAN</DistanceMeters>
          </Trackpoint>
          <Trackpoint>
            <Time>2020-05-25T07:19:30.000Z</Time>
            <Position>
              <LatitudeDegrees>38.10270563699305057525634765625</LatitudeDegrees>
              <LongitudeDegrees>-1.171098388731479644775390625</LongitudeDegrees>
            </Position>
            <AltitudeMeters>171</AltitudeMeters>
            <DistanceMeters>NAN</DistanceMeters>
          </Trackpoint>
          <Trackpoint>
            <Time>2020-05-25T07:19:31.000Z</Time>
            <Position>
              <LatitudeDegrees>38.10260505415499210357666015625</LatitudeDegrees>
              <LongitudeDegrees>-1.1711444891989231109619140625</LongitudeDegrees>
            </Position>
            <AltitudeMeters>170.399993896484375</AltitudeMeters>
            <DistanceMeters>NAN</DistanceMeters>
          </Trackpoint>
          <Trackpoint>
            <Time>2020-05-25T07:19:32.000Z</Time>
            <Position>
              <LatitudeDegrees>38.1025052256882190704345703125</LatitudeDegrees>
              <LongitudeDegrees>-1.1711904220283031463623046875</LongitudeDegrees>
            </Position>
            <AltitudeMeters>170.600006103515625</AltitudeMeters>
            <DistanceMeters>NAN</DistanceMeters>
          </Trackpoint>
          <Trackpoint>
            <Time>2020-05-25T07:19:33.000Z</Time>
            <Position>
              <LatitudeDegrees>38.10240522958338260650634765625</LatitudeDegrees>
              <LongitudeDegrees>-1.171235851943492889404296875</LongitudeDegrees>
            </Position>
            <AltitudeMeters>171</AltitudeMeters>
            <DistanceMeters>NAN</DistanceMeters>
          </Trackpoint>
          <Trackpoint>
            <Time>2020-05-25T07:19:34.000Z</Time>
            <Position>
              <LatitudeDegrees>38.1023065745830535888671875</LatitudeDegrees>
              <LongitudeDegrees>-1.171282120048999786376953125</LongitudeDegrees>
            </Position>
            <AltitudeMeters>171.1999969482421875</AltitudeMeters>
            <DistanceMeters>NAN</DistanceMeters>
          </Trackpoint>
          <Trackpoint>
            <Time>2020-05-25T07:19:35.000Z</Time>
            <Position>
              <LatitudeDegrees>38.102210350334644317626953125</LatitudeDegrees>
              <LongitudeDegrees>-1.17133216001093387603759765625</LongitudeDegrees>
            </Position>
            <AltitudeMeters>171.600006103515625</AltitudeMeters>
            <DistanceMeters>NAN</DistanceMeters>
          </Trackpoint>
          <Trackpoint>
            <Time>2020-05-25T07:19:36.000Z</Time>
            <Position>
              <LatitudeDegrees>38.102115802466869354248046875</LatitudeDegrees>
              <LongitudeDegrees>-1.1713815294206142425537109375</LongitudeDegrees>
            </Position>
            <AltitudeMeters>171.8000030517578125</AltitudeMeters>
            <DistanceMeters>NAN</DistanceMeters>
          </Trackpoint>
          <Trackpoint>
            <Time>2020-05-25T07:19:37.000Z</Time>
            <Position>
              <LatitudeDegrees>38.102020584046840667724609375</LatitudeDegrees>
              <LongitudeDegrees>-1.17143307812511920928955078125</LongitudeDegrees>
            </Position>
            <AltitudeMeters>172.1999969482421875</AltitudeMeters>
            <DistanceMeters>NAN</DistanceMeters>
          </Trackpoint>
          <Trackpoint>
            <Time>2020-05-25T07:19:38.000Z</Time>
            <Position>
              <LatitudeDegrees>38.10192729346454143524169921875</LatitudeDegrees>
              <LongitudeDegrees>-1.171483956277370452880859375</LongitudeDegrees>
            </Position>
            <AltitudeMeters>172.399993896484375</AltitudeMeters>
            <DistanceMeters>NAN</DistanceMeters>
          </Trackpoint>
          <Trackpoint>
            <Time>2020-05-25T07:19:39.000Z</Time>
            <Position>
              <LatitudeDegrees>38.10183458961546421051025390625</LatitudeDegrees>
              <LongitudeDegrees>-1.17153483442962169647216796875</LongitudeDegrees>
            </Position>
            <AltitudeMeters>172.600006103515625</AltitudeMeters>
            <DistanceMeters>NAN</DistanceMeters>
          </Trackpoint>
          <Trackpoint>
            <Time>2020-05-25T07:19:40.000Z</Time>
            <Position>
              <LatitudeDegrees>38.1017431430518627166748046875</LatitudeDegrees>
              <LongitudeDegrees>-1.17158562876284122467041015625</LongitudeDegrees>
            </Position>
            <AltitudeMeters>173</AltitudeMeters>
            <DistanceMeters>NAN</DistanceMeters>
          </Trackpoint>
          <Trackpoint>
            <Time>2020-05-25T07:19:41.000Z</Time>
            <Position>
              <LatitudeDegrees>38.10165169648826122283935546875</LatitudeDegrees>
              <LongitudeDegrees>-1.1716356687247753143310546875</LongitudeDegrees>
            </Position>
            <AltitudeMeters>173.1999969482421875</AltitudeMeters>
            <DistanceMeters>NAN</DistanceMeters>
          </Trackpoint>
          <Trackpoint>
            <Time>2020-05-25T07:19:42.000Z</Time>
            <Position>
              <LatitudeDegrees>38.10156083665788173675537109375</LatitudeDegrees>
              <LongitudeDegrees>-1.1716849543154239654541015625</LongitudeDegrees>
            </Position>
            <AltitudeMeters>173.399993896484375</AltitudeMeters>
            <DistanceMeters>NAN</DistanceMeters>
          </Trackpoint>
          <Trackpoint>
            <Time>2020-05-25T07:19:43.000Z</Time>
            <Position>
              <LatitudeDegrees>38.10147031210362911224365234375</LatitudeDegrees>
              <LongitudeDegrees>-1.1717355810105800628662109375</LongitudeDegrees>
            </Position>
            <AltitudeMeters>173.600006103515625</AltitudeMeters>
            <DistanceMeters>NAN</DistanceMeters>
          </Trackpoint>
          <Trackpoint>
            <Time>2020-05-25T07:19:44.000Z</Time>
            <Position>
              <LatitudeDegrees>38.10138179920613765716552734375</LatitudeDegrees>
              <LongitudeDegrees>-1.171786375343799591064453125</LongitudeDegrees>
            </Position>
            <AltitudeMeters>173.8000030517578125</AltitudeMeters>
            <DistanceMeters>NAN</DistanceMeters>
          </Trackpoint>
          <Trackpoint>
            <Time>2020-05-25T07:19:45.000Z</Time>
            <Position>
              <LatitudeDegrees>38.10129479505121707916259765625</LatitudeDegrees>
              <LongitudeDegrees>-1.17183658294379711151123046875</LongitudeDegrees>
            </Position>
            <AltitudeMeters>174</AltitudeMeters>
            <DistanceMeters>NAN</DistanceMeters>
          </Trackpoint>
          <Trackpoint>
            <Time>2020-05-25T07:19:46.000Z</Time>
            <Position>
              <LatitudeDegrees>38.10120846144855022430419921875</LatitudeDegrees>
              <LongitudeDegrees>-1.17188435979187488555908203125</LongitudeDegrees>
            </Position>
            <AltitudeMeters>174</AltitudeMeters>
            <DistanceMeters>NAN</DistanceMeters>
          </Trackpoint>
          <Trackpoint>
            <Time>2020-05-25T07:19:47.000Z</Time>
            <Position>
              <LatitudeDegrees>38.10112028382718563079833984375</LatitudeDegrees>
              <LongitudeDegrees>-1.17193079553544521331787109375</LongitudeDegrees>
            </Position>
            <AltitudeMeters>174.1999969482421875</AltitudeMeters>
            <DistanceMeters>NAN</DistanceMeters>
          </Trackpoint>
          <Trackpoint>
            <Time>2020-05-25T07:19:48.000Z</Time>
            <Position>
              <LatitudeDegrees>38.101033531129360198974609375</LatitudeDegrees>
              <LongitudeDegrees>-1.17197874002158641815185546875</LongitudeDegrees>
            </Position>
            <AltitudeMeters>174.1999969482421875</AltitudeMeters>
            <DistanceMeters>NAN</DistanceMeters>
          </Trackpoint>
          <Trackpoint>
            <Time>2020-05-25T07:19:49.000Z</Time>
            <Position>
              <LatitudeDegrees>38.1009482033550739288330078125</LatitudeDegrees>
              <LongitudeDegrees>-1.17202718742191791534423828125</LongitudeDegrees>
            </Position>
            <AltitudeMeters>174.399993896484375</AltitudeMeters>
            <DistanceMeters>NAN</DistanceMeters>
          </Trackpoint>
          <Trackpoint>
            <Time>2020-05-25T07:19:50.000Z</Time>
            <Position>
              <LatitudeDegrees>38.10086446814239025115966796875</LatitudeDegrees>
              <LongitudeDegrees>-1.1720732040703296661376953125</LongitudeDegrees>
            </Position>
            <AltitudeMeters>174.600006103515625</AltitudeMeters>
            <DistanceMeters>NAN</DistanceMeters>
          </Trackpoint>
          <Trackpoint>
            <Time>2020-05-25T07:19:51.000Z</Time>
            <Position>
              <LatitudeDegrees>38.10078031383454799652099609375</LatitudeDegrees>
              <LongitudeDegrees>-1.17212106473743915557861328125</LongitudeDegrees>
            </Position>
            <AltitudeMeters>175</AltitudeMeters>
            <DistanceMeters>NAN</DistanceMeters>
          </Trackpoint>
          <Trackpoint>
            <Time>2020-05-25T07:19:52.000Z</Time>
            <Position>
              <LatitudeDegrees>38.10069733299314975738525390625</LatitudeDegrees>
              <LongitudeDegrees>-1.17216917686164379119873046875</LongitudeDegrees>
            </Position>
            <AltitudeMeters>175.399993896484375</AltitudeMeters>
            <DistanceMeters>NAN</DistanceMeters>
          </Trackpoint>
          <Trackpoint>
            <Time>2020-05-25T07:19:53.000Z</Time>
            <Position>
              <LatitudeDegrees>38.10061669908463954925537109375</LatitudeDegrees>
              <LongitudeDegrees>-1.1722150258719921112060546875</LongitudeDegrees>
            </Position>
            <AltitudeMeters>175.600006103515625</AltitudeMeters>
            <DistanceMeters>NAN</DistanceMeters>
          </Trackpoint>
          <Trackpoint>
            <Time>2020-05-25T07:19:54.000Z</Time>
            <Position>
              <LatitudeDegrees>38.10053640045225620269775390625</LatitudeDegrees>
              <LongitudeDegrees>-1.1722592823207378387451171875</LongitudeDegrees>
            </Position>
            <AltitudeMeters>176</AltitudeMeters>
            <DistanceMeters>NAN</DistanceMeters>
          </Trackpoint>
          <Trackpoint>
            <Time>2020-05-25T07:19:55.000Z</Time>
            <Position>
              <LatitudeDegrees>38.1004566885530948638916015625</LatitudeDegrees>
              <LongitudeDegrees>-1.17230580188333988189697265625</LongitudeDegrees>
            </Position>
            <AltitudeMeters>176.1999969482421875</AltitudeMeters>
            <DistanceMeters>NAN</DistanceMeters>
          </Trackpoint>
          <Trackpoint>
            <Time>2020-05-25T07:19:56.000Z</Time>
            <Position>
              <LatitudeDegrees>38.10037739574909210205078125</LatitudeDegrees>
              <LongitudeDegrees>-1.172350309789180755615234375</LongitudeDegrees>
            </Position>
            <AltitudeMeters>176.600006103515625</AltitudeMeters>
            <DistanceMeters>NAN</DistanceMeters>
          </Trackpoint>
          <Trackpoint>
            <Time>2020-05-25T07:19:57.000Z</Time>
            <Position>
              <LatitudeDegrees>38.1002991087734699249267578125</LatitudeDegrees>
              <LongitudeDegrees>-1.1723940633237361907958984375</LongitudeDegrees>
            </Position>
            <AltitudeMeters>176.8000030517578125</AltitudeMeters>
            <DistanceMeters>NAN</DistanceMeters>
          </Trackpoint>
          <Trackpoint>
            <Time>2020-05-25T07:19:58.000Z</Time>
            <Position>
              <LatitudeDegrees>38.10022023506462574005126953125</LatitudeDegrees>
              <LongitudeDegrees>-1.172437481582164764404296875</LongitudeDegrees>
            </Position>
            <AltitudeMeters>177</AltitudeMeters>
            <DistanceMeters>NAN</DistanceMeters>
          </Trackpoint>
          <Trackpoint>
            <Time>2020-05-25T07:19:59.000Z</Time>
            <Position>
              <LatitudeDegrees>38.10014077462255954742431640625</LatitudeDegrees>
              <LongitudeDegrees>-1.17248081602156162261962890625</LongitudeDegrees>
            </Position>
            <AltitudeMeters>177.399993896484375</AltitudeMeters>
            <DistanceMeters>NAN</DistanceMeters>
          </Trackpoint>
          <Trackpoint>
            <Time>2020-05-25T07:20:00.000Z</Time>
            <Position>
              <LatitudeDegrees>38.10006181709468364715576171875</LatitudeDegrees>
              <LongitudeDegrees>-1.1725231446325778961181640625</LongitudeDegrees>
            </Position>
            <AltitudeMeters>177.399993896484375</AltitudeMeters>
            <DistanceMeters>NAN</DistanceMeters>
          </Trackpoint>
          <Trackpoint>
            <Time>2020-05-25T07:20:01.000Z</Time>
            <Position>
              <LatitudeDegrees>38.09998235665261745452880859375</LatitudeDegrees>
              <LongitudeDegrees>-1.17256647907197475433349609375</LongitudeDegrees>
            </Position>
            <AltitudeMeters>177.1999969482421875</AltitudeMeters>
            <DistanceMeters>NAN</DistanceMeters>
          </Trackpoint>
          <Trackpoint>
            <Time>2020-05-25T07:20:02.000Z</Time>
            <Position>
              <LatitudeDegrees>38.09990289621055126190185546875</LatitudeDegrees>
              <LongitudeDegrees>-1.172611154615879058837890625</LongitudeDegrees>
            </Position>
            <AltitudeMeters>176.8000030517578125</AltitudeMeters>
            <DistanceMeters>NAN</DistanceMeters>
          </Trackpoint>
          <Trackpoint>
            <Time>2020-05-25T07:20:03.000Z</Time>
            <Position>
              <LatitudeDegrees>38.0998236872255802154541015625</LatitudeDegrees>
              <LongitudeDegrees>-1.1726555787026882171630859375</LongitudeDegrees>
            </Position>
            <AltitudeMeters>176.600006103515625</AltitudeMeters>
            <DistanceMeters>NAN</DistanceMeters>
          </Trackpoint>
          <Trackpoint>
            <Time>2020-05-25T07:20:04.000Z</Time>
            <Position>
              <LatitudeDegrees>38.09974565170705318450927734375</LatitudeDegrees>
              <LongitudeDegrees>-1.172699667513370513916015625</LongitudeDegrees>
            </Position>
            <AltitudeMeters>176.399993896484375</AltitudeMeters>
            <DistanceMeters>NAN</DistanceMeters>
          </Trackpoint>
          <Trackpoint>
            <Time>2020-05-25T07:20:05.000Z</Time>
            <Position>
              <LatitudeDegrees>38.0996691249310970306396484375</LatitudeDegrees>
              <LongitudeDegrees>-1.1727420799434185028076171875</LongitudeDegrees>
            </Position>
            <AltitudeMeters>176</AltitudeMeters>
            <DistanceMeters>NAN</DistanceMeters>
          </Trackpoint>
          <Trackpoint>
            <Time>2020-05-25T07:20:06.000Z</Time>
            <Position>
              <LatitudeDegrees>38.0995946936309337615966796875</LatitudeDegrees>
              <LongitudeDegrees>-1.17278046905994415283203125</LongitudeDegrees>
            </Position>
            <AltitudeMeters>175.8000030517578125</AltitudeMeters>
            <DistanceMeters>NAN</DistanceMeters>
          </Trackpoint>
          <Trackpoint>
            <Time>2020-05-25T07:20:07.000Z</Time>
            <Position>
              <LatitudeDegrees>38.09952177107334136962890625</LatitudeDegrees>
              <LongitudeDegrees>-1.17282246239483356475830078125</LongitudeDegrees>
            </Position>
            <AltitudeMeters>175.600006103515625</AltitudeMeters>
            <DistanceMeters>NAN</DistanceMeters>
          </Trackpoint>
          <Trackpoint>
            <Time>2020-05-25T07:20:08.000Z</Time>
            <Position>
              <LatitudeDegrees>38.09945228509604930877685546875</LatitudeDegrees>
              <LongitudeDegrees>-1.17286839522421360015869140625</LongitudeDegrees>
            </Position>
            <AltitudeMeters>175.600006103515625</AltitudeMeters>
            <DistanceMeters>NAN</DistanceMeters>
          </Trackpoint>
          <Trackpoint>
            <Time>2020-05-25T07:20:09.000Z</Time>
            <Position>
              <LatitudeDegrees>38.09938640333712100982666015625</LatitudeDegrees>
              <LongitudeDegrees>-1.17291617207229137420654296875</LongitudeDegrees>
            </Position>
            <AltitudeMeters>175.399993896484375</AltitudeMeters>
            <DistanceMeters>NAN</DistanceMeters>
          </Trackpoint>
          <Trackpoint>
            <Time>2020-05-25T07:20:10.000Z</Time>
            <Position>
              <LatitudeDegrees>38.0993261374533176422119140625</LatitudeDegrees>
              <LongitudeDegrees>-1.17296956479549407958984375</LongitudeDegrees>
            </Position>
            <AltitudeMeters>175.1999969482421875</AltitudeMeters>
            <DistanceMeters>NAN</DistanceMeters>
          </Trackpoint>
          <Trackpoint>
            <Time>2020-05-25T07:20:11.000Z</Time>
            <Position>
              <LatitudeDegrees>38.09927291236817836761474609375</LatitudeDegrees>
              <LongitudeDegrees>-1.173030920326709747314453125</LongitudeDegrees>
            </Position>
            <AltitudeMeters>175.1999969482421875</AltitudeMeters>
            <DistanceMeters>NAN</DistanceMeters>
          </Trackpoint>
          <Trackpoint>
            <Time>2020-05-25T07:20:12.000Z</Time>
            <Position>
              <LatitudeDegrees>38.09922412969172000885009765625</LatitudeDegrees>
              <LongitudeDegrees>-1.173093952238559722900390625</LongitudeDegrees>
            </Position>
            <AltitudeMeters>174.8000030517578125</AltitudeMeters>
            <DistanceMeters>NAN</DistanceMeters>
          </Trackpoint>
          <Trackpoint>
            <Time>2020-05-25T07:20:13.000Z</Time>
            <Position>
              <LatitudeDegrees>38.0991776101291179656982421875</LatitudeDegrees>
              <LongitudeDegrees>-1.173157654702663421630859375</LongitudeDegrees>
            </Position>
            <AltitudeMeters>174.600006103515625</AltitudeMeters>
            <DistanceMeters>NAN</DistanceMeters>
          </Trackpoint>
          <Trackpoint>
            <Time>2020-05-25T07:20:14.000Z</Time>
            <Position>
              <LatitudeDegrees>38.0991268157958984375</LatitudeDegrees>
              <LongitudeDegrees>-1.17321540601551532745361328125</LongitudeDegrees>
            </Position>
            <AltitudeMeters>174.399993896484375</AltitudeMeters>
            <DistanceMeters>NAN</DistanceMeters>
          </Trackpoint>
          <Trackpoint>
            <Time>2020-05-25T07:20:15.000Z</Time>
            <Position>
              <LatitudeDegrees>38.09906780719757080078125</LatitudeDegrees>
              <LongitudeDegrees>-1.173258237540721893310546875</LongitudeDegrees>
            </Position>
            <AltitudeMeters>174.1999969482421875</AltitudeMeters>
            <DistanceMeters>NAN</DistanceMeters>
          </Trackpoint>
          <Trackpoint>
            <Time>2020-05-25T07:20:16.000Z</Time>
            <Position>
              <LatitudeDegrees>38.099000751972198486328125</LatitudeDegrees>
              <LongitudeDegrees>-1.17327391169965267181396484375</LongitudeDegrees>
            </Position>
            <AltitudeMeters>173.8000030517578125</AltitudeMeters>
            <DistanceMeters>NAN</DistanceMeters>
          </Trackpoint>
          <Trackpoint>
            <Time>2020-05-25T07:20:17.000Z</Time>
            <Position>
              <LatitudeDegrees>38.09893327765166759490966796875</LatitudeDegrees>
              <LongitudeDegrees>-1.1732563935220241546630859375</LongitudeDegrees>
            </Position>
            <AltitudeMeters>173.600006103515625</AltitudeMeters>
            <DistanceMeters>NAN</DistanceMeters>
          </Trackpoint>
          <Trackpoint>
            <Time>2020-05-25T07:20:18.000Z</Time>
            <Position>
              <LatitudeDegrees>38.09888533316552639007568359375</LatitudeDegrees>
              <LongitudeDegrees>-1.17320752702653408050537109375</LongitudeDegrees>
            </Position>
            <AltitudeMeters>173.600006103515625</AltitudeMeters>
            <DistanceMeters>NAN</DistanceMeters>
          </Trackpoint>
          <Trackpoint>
            <Time>2020-05-25T07:20:19.000Z</Time>
            <Position>
              <LatitudeDegrees>38.09885348193347454071044921875</LatitudeDegrees>
              <LongitudeDegrees>-1.1731450818479061126708984375</LongitudeDegrees>
            </Position>
            <AltitudeMeters>173.399993896484375</AltitudeMeters>
            <DistanceMeters>NAN</DistanceMeters>
          </Trackpoint>
          <Trackpoint>
            <Time>2020-05-25T07:20:20.000Z</Time>
            <Position>
              <LatitudeDegrees>38.098836801946163177490234375</LatitudeDegrees>
              <LongitudeDegrees>-1.17306905798614025115966796875</LongitudeDegrees>
            </Position>
            <AltitudeMeters>173.600006103515625</AltitudeMeters>
            <DistanceMeters>NAN</DistanceMeters>
          </Trackpoint>
          <Trackpoint>
            <Time>2020-05-25T07:20:21.000Z</Time>
            <Position>
              <LatitudeDegrees>38.098839819431304931640625</LatitudeDegrees>
              <LongitudeDegrees>-1.17298490367829799652099609375</LongitudeDegrees>
            </Position>
            <AltitudeMeters>173.600006103515625</AltitudeMeters>
            <DistanceMeters>NAN</DistanceMeters>
          </Trackpoint>
          <Trackpoint>
            <Time>2020-05-25T07:20:22.000Z</Time>
            <Position>
              <LatitudeDegrees>38.09885390102863311767578125</LatitudeDegrees>
              <LongitudeDegrees>-1.172902844846248626708984375</LongitudeDegrees>
            </Position>
            <AltitudeMeters>173.8000030517578125</AltitudeMeters>
            <DistanceMeters>NAN</DistanceMeters>
          </Trackpoint>
          <Trackpoint>
            <Time>2020-05-25T07:20:23.000Z</Time>
            <Position>
              <LatitudeDegrees>38.09886597096920013427734375</LatitudeDegrees>
              <LongitudeDegrees>-1.17282715626060962677001953125</LongitudeDegrees>
            </Position>
            <AltitudeMeters>173.8000030517578125</AltitudeMeters>
            <DistanceMeters>NAN</DistanceMeters>
          </Trackpoint>
          <Trackpoint>
            <Time>2020-05-25T07:20:24.000Z</Time>
            <Position>
              <LatitudeDegrees>38.09887879528105258941650390625</LatitudeDegrees>
              <LongitudeDegrees>-1.1727481149137020111083984375</LongitudeDegrees>
            </Position>
            <AltitudeMeters>174</AltitudeMeters>
            <DistanceMeters>NAN</DistanceMeters>
          </Trackpoint>
          <Trackpoint>
            <Time>2020-05-25T07:20:25.000Z</Time>
            <Position>
              <LatitudeDegrees>38.09889321215450763702392578125</LatitudeDegrees>
              <LongitudeDegrees>-1.1726720072329044342041015625</LongitudeDegrees>
            </Position>
            <AltitudeMeters>174.1999969482421875</AltitudeMeters>
            <DistanceMeters>NAN</DistanceMeters>
          </Trackpoint>
          <Trackpoint>
            <Time>2020-05-25T07:20:26.000Z</Time>
            <Position>
              <LatitudeDegrees>38.09890620410442352294921875</LatitudeDegrees>
              <LongitudeDegrees>-1.172600090503692626953125</LongitudeDegrees>
            </Position>
            <AltitudeMeters>174.399993896484375</AltitudeMeters>
            <DistanceMeters>NAN</DistanceMeters>
          </Trackpoint>
          <Trackpoint>
            <Time>2020-05-25T07:20:27.000Z</Time>
            <Position>
              <LatitudeDegrees>38.09891718439757823944091796875</LatitudeDegrees>
              <LongitudeDegrees>-1.17252968251705169677734375</LongitudeDegrees>
            </Position>
            <AltitudeMeters>174.600006103515625</AltitudeMeters>
            <DistanceMeters>NAN</DistanceMeters>
          </Trackpoint>
          <Trackpoint>
            <Time>2020-05-25T07:20:28.000Z</Time>
            <Position>
              <LatitudeDegrees>38.09892757795751094818115234375</LatitudeDegrees>
              <LongitudeDegrees>-1.1724604479968547821044921875</LongitudeDegrees>
            </Position>
            <AltitudeMeters>174.8000030517578125</AltitudeMeters>
            <DistanceMeters>NAN</DistanceMeters>
          </Trackpoint>
          <Trackpoint>
            <Time>2020-05-25T07:20:29.000Z</Time>
            <Position>
              <LatitudeDegrees>38.0989368818700313568115234375</LatitudeDegrees>
              <LongitudeDegrees>-1.17238995619118213653564453125</LongitudeDegrees>
            </Position>
            <AltitudeMeters>175</AltitudeMeters>
            <DistanceMeters>NAN</DistanceMeters>
          </Trackpoint>
          <Trackpoint>
            <Time>2020-05-25T07:20:30.000Z</Time>
            <Position>
              <LatitudeDegrees>38.09894367121160030364990234375</LatitudeDegrees>
              <LongitudeDegrees>-1.17231938056647777557373046875</LongitudeDegrees>
            </Position>
            <AltitudeMeters>175.1999969482421875</AltitudeMeters>
            <DistanceMeters>NAN</DistanceMeters>
          </Trackpoint>
          <Trackpoint>
            <Time>2020-05-25T07:20:31.000Z</Time>
            <Position>
              <LatitudeDegrees>38.09895037673413753509521484375</LatitudeDegrees>
              <LongitudeDegrees>-1.17224914021790027618408203125</LongitudeDegrees>
            </Position>
            <AltitudeMeters>175.1999969482421875</AltitudeMeters>
            <DistanceMeters>NAN</DistanceMeters>
          </Trackpoint>
          <Trackpoint>
            <Time>2020-05-25T07:20:32.000Z</Time>
            <Position>
              <LatitudeDegrees>38.09895758517086505889892578125</LatitudeDegrees>
              <LongitudeDegrees>-1.172177307307720184326171875</LongitudeDegrees>
            </Position>
            <AltitudeMeters>175.1999969482421875</AltitudeMeters>
            <DistanceMeters>NAN</DistanceMeters>
          </Trackpoint>
          <Trackpoint>
            <Time>2020-05-25T07:20:33.000Z</Time>
            <Position>
              <LatitudeDegrees>38.0989647097885608673095703125</LatitudeDegrees>
              <LongitudeDegrees>-1.17210530675947666168212890625</LongitudeDegrees>
            </Position>
            <AltitudeMeters>175.1999969482421875</AltitudeMeters>
            <DistanceMeters>NAN</DistanceMeters>
          </Trackpoint>
          <Trackpoint>
            <Time>2020-05-25T07:20:34.000Z</Time>
            <Position>
              <LatitudeDegrees>38.098968900740146636962890625</LatitudeDegrees>
              <LongitudeDegrees>-1.17203372530639171600341796875</LongitudeDegrees>
            </Position>
            <AltitudeMeters>175.1999969482421875</AltitudeMeters>
            <DistanceMeters>NAN</DistanceMeters>
          </Trackpoint>
          <Trackpoint>
            <Time>2020-05-25T07:20:35.000Z</Time>
            <Position>
              <LatitudeDegrees>38.09896965511143207550048828125</LatitudeDegrees>
              <LongitudeDegrees>-1.17196180857717990875244140625</LongitudeDegrees>
            </Position>
            <AltitudeMeters>175.1999969482421875</AltitudeMeters>
            <DistanceMeters>NAN</DistanceMeters>
          </Trackpoint>
          <Trackpoint>
            <Time>2020-05-25T07:20:36.000Z</Time>
            <Position>
              <LatitudeDegrees>38.09897200204432010650634765625</LatitudeDegrees>
              <LongitudeDegrees>-1.1718918196856975555419921875</LongitudeDegrees>
            </Position>
            <AltitudeMeters>175.1999969482421875</AltitudeMeters>
            <DistanceMeters>NAN</DistanceMeters>
          </Trackpoint>
          <Trackpoint>
            <Time>2020-05-25T07:20:37.000Z</Time>
            <Position>
              <LatitudeDegrees>38.098976947367191314697265625</LatitudeDegrees>
              <LongitudeDegrees>-1.171818561851978302001953125</LongitudeDegrees>
            </Position>
            <AltitudeMeters>175.399993896484375</AltitudeMeters>
            <DistanceMeters>NAN</DistanceMeters>
          </Trackpoint>
          <Trackpoint>
            <Time>2020-05-25T07:20:38.000Z</Time>
            <Position>
              <LatitudeDegrees>38.0989781208336353302001953125</LatitudeDegrees>
              <LongitudeDegrees>-1.17174781858921051025390625</LongitudeDegrees>
            </Position>
            <AltitudeMeters>175.399993896484375</AltitudeMeters>
            <DistanceMeters>NAN</DistanceMeters>
          </Trackpoint>
          <Trackpoint>
            <Time>2020-05-25T07:20:39.000Z</Time>
            <Position>
              <LatitudeDegrees>38.09897569008171558380126953125</LatitudeDegrees>
              <LongitudeDegrees>-1.17167883552610874176025390625</LongitudeDegrees>
            </Position>
            <AltitudeMeters>175.399993896484375</AltitudeMeters>
            <DistanceMeters>NAN</DistanceMeters>
          </Trackpoint>
          <Trackpoint>
            <Time>2020-05-25T07:20:40.000Z</Time>
            <Position>
              <LatitudeDegrees>38.0989717505872249603271484375</LatitudeDegrees>
              <LongitudeDegrees>-1.171610020101070404052734375</LongitudeDegrees>
            </Position>
            <AltitudeMeters>175.600006103515625</AltitudeMeters>
            <DistanceMeters>NAN</DistanceMeters>
          </Trackpoint>
          <Trackpoint>
            <Time>2020-05-25T07:20:41.000Z</Time>
            <Position>
              <LatitudeDegrees>38.09896630235016345977783203125</LatitudeDegrees>
              <LongitudeDegrees>-1.17154338397085666656494140625</LongitudeDegrees>
            </Position>
            <AltitudeMeters>175.8000030517578125</AltitudeMeters>
            <DistanceMeters>NAN</DistanceMeters>
          </Trackpoint>
          <Trackpoint>
            <Time>2020-05-25T07:20:42.000Z</Time>
            <Position>
              <LatitudeDegrees>38.0989573337137699127197265625</LatitudeDegrees>
              <LongitudeDegrees>-1.17147632874548435211181640625</LongitudeDegrees>
            </Position>
            <AltitudeMeters>176</AltitudeMeters>
            <DistanceMeters>NAN</DistanceMeters>
          </Trackpoint>
          <Trackpoint>
            <Time>2020-05-25T07:20:43.000Z</Time>
            <Position>
              <LatitudeDegrees>38.0989457666873931884765625</LatitudeDegrees>
              <LongitudeDegrees>-1.1714076809585094451904296875</LongitudeDegrees>
            </Position>
            <AltitudeMeters>176</AltitudeMeters>
            <DistanceMeters>NAN</DistanceMeters>
          </Trackpoint>
          <Trackpoint>
            <Time>2020-05-25T07:20:44.000Z</Time>
            <Position>
              <LatitudeDegrees>38.0989315174520015716552734375</LatitudeDegrees>
              <LongitudeDegrees>-1.17134070955216884613037109375</LongitudeDegrees>
            </Position>
            <AltitudeMeters>176</AltitudeMeters>
            <DistanceMeters>NAN</DistanceMeters>
          </Trackpoint>
          <Trackpoint>
            <Time>2020-05-25T07:20:45.000Z</Time>
            <Position>
              <LatitudeDegrees>38.09891827404499053955078125</LatitudeDegrees>
              <LongitudeDegrees>-1.17127466015517711639404296875</LongitudeDegrees>
            </Position>
            <AltitudeMeters>176</AltitudeMeters>
            <DistanceMeters>NAN</DistanceMeters>
          </Trackpoint>
          <Trackpoint>
            <Time>2020-05-25T07:20:46.000Z</Time>
            <Position>
              <LatitudeDegrees>38.09890310280025005340576171875</LatitudeDegrees>
              <LongitudeDegrees>-1.17120676673948764801025390625</LongitudeDegrees>
            </Position>
            <AltitudeMeters>176</AltitudeMeters>
            <DistanceMeters>NAN</DistanceMeters>
          </Trackpoint>
          <Trackpoint>
            <Time>2020-05-25T07:20:47.000Z</Time>
            <Position>
              <LatitudeDegrees>38.09888348914682865142822265625</LatitudeDegrees>
              <LongitudeDegrees>-1.1711371131241321563720703125</LongitudeDegrees>
            </Position>
            <AltitudeMeters>176</AltitudeMeters>
            <DistanceMeters>NAN</DistanceMeters>
          </Trackpoint>
          <Trackpoint>
            <Time>2020-05-25T07:20:48.000Z</Time>
            <Position>
              <LatitudeDegrees>38.09886354021728038787841796875</LatitudeDegrees>
              <LongitudeDegrees>-1.171068213880062103271484375</LongitudeDegrees>
            </Position>
            <AltitudeMeters>176</AltitudeMeters>
            <DistanceMeters>NAN</DistanceMeters>
          </Trackpoint>
          <Trackpoint>
            <Time>2020-05-25T07:20:49.000Z</Time>
            <Position>
              <LatitudeDegrees>38.09884409420192241668701171875</LatitudeDegrees>
              <LongitudeDegrees>-1.17099939845502376556396484375</LongitudeDegrees>
            </Position>
            <AltitudeMeters>176</AltitudeMeters>
            <DistanceMeters>NAN</DistanceMeters>
          </Trackpoint>
          <Trackpoint>
            <Time>2020-05-25T07:20:50.000Z</Time>
            <Position>
              <LatitudeDegrees>38.09882565401494503021240234375</LatitudeDegrees>
              <LongitudeDegrees>-1.17093016393482685089111328125</LongitudeDegrees>
            </Position>
            <AltitudeMeters>176</AltitudeMeters>
            <DistanceMeters>NAN</DistanceMeters>
          </Trackpoint>
          <Trackpoint>
            <Time>2020-05-25T07:20:51.000Z</Time>
            <Position>
              <LatitudeDegrees>38.098806627094745635986328125</LatitudeDegrees>
              <LongitudeDegrees>-1.1708591692149639129638671875</LongitudeDegrees>
            </Position>
            <AltitudeMeters>176</AltitudeMeters>
            <DistanceMeters>NAN</DistanceMeters>
          </Trackpoint>
          <Trackpoint>
            <Time>2020-05-25T07:20:52.000Z</Time>
            <Position>
              <LatitudeDegrees>38.0987866781651973724365234375</LatitudeDegrees>
              <LongitudeDegrees>-1.1707880906760692596435546875</LongitudeDegrees>
            </Position>
            <AltitudeMeters>176</AltitudeMeters>
            <DistanceMeters>NAN</DistanceMeters>
          </Trackpoint>
          <Trackpoint>
            <Time>2020-05-25T07:20:53.000Z</Time>
            <Position>
              <LatitudeDegrees>38.09876899234950542449951171875</LatitudeDegrees>
              <LongitudeDegrees>-1.17071785032749176025390625</LongitudeDegrees>
            </Position>
            <AltitudeMeters>176</AltitudeMeters>
            <DistanceMeters>NAN</DistanceMeters>
          </Trackpoint>
          <Trackpoint>
            <Time>2020-05-25T07:20:54.000Z</Time>
            <Position>
              <LatitudeDegrees>38.09874887578189373016357421875</LatitudeDegrees>
              <LongitudeDegrees>-1.1706472747027873992919921875</LongitudeDegrees>
            </Position>
            <AltitudeMeters>176</AltitudeMeters>
            <DistanceMeters>NAN</DistanceMeters>
          </Trackpoint>
          <Trackpoint>
            <Time>2020-05-25T07:20:55.000Z</Time>
            <Position>
              <LatitudeDegrees>38.09872808866202831268310546875</LatitudeDegrees>
              <LongitudeDegrees>-1.1705748550593852996826171875</LongitudeDegrees>
            </Position>
            <AltitudeMeters>176.1999969482421875</AltitudeMeters>
            <DistanceMeters>NAN</DistanceMeters>
          </Trackpoint>
          <Trackpoint>
            <Time>2020-05-25T07:20:56.000Z</Time>
            <Position>
              <LatitudeDegrees>38.098708726465702056884765625</LatitudeDegrees>
              <LongitudeDegrees>-1.1705037765204906463623046875</LongitudeDegrees>
            </Position>
            <AltitudeMeters>176.399993896484375</AltitudeMeters>
            <DistanceMeters>NAN</DistanceMeters>
          </Trackpoint>
          <Trackpoint>
            <Time>2020-05-25T07:20:57.000Z</Time>
            <Position>
              <LatitudeDegrees>38.09869070537388324737548828125</LatitudeDegrees>
              <LongitudeDegrees>-1.17043160833418369293212890625</LongitudeDegrees>
            </Position>
            <AltitudeMeters>176.600006103515625</AltitudeMeters>
            <DistanceMeters>NAN</DistanceMeters>
          </Trackpoint>
          <Trackpoint>
            <Time>2020-05-25T07:20:58.000Z</Time>
            <Position>
              <LatitudeDegrees>38.09867142699658870697021484375</LatitudeDegrees>
              <LongitudeDegrees>-1.17036304436624050140380859375</LongitudeDegrees>
            </Position>
            <AltitudeMeters>176.8000030517578125</AltitudeMeters>
            <DistanceMeters>NAN</DistanceMeters>
          </Trackpoint>
          <Trackpoint>
            <Time>2020-05-25T07:20:59.000Z</Time>
            <Position>
              <LatitudeDegrees>38.0986515618860721588134765625</LatitudeDegrees>
              <LongitudeDegrees>-1.1702938936650753021240234375</LongitudeDegrees>
            </Position>
            <AltitudeMeters>177.1999969482421875</AltitudeMeters>
            <DistanceMeters>NAN</DistanceMeters>
          </Trackpoint>
          <Trackpoint>
            <Time>2020-05-25T07:21:00.000Z</Time>
            <Position>
              <LatitudeDegrees>38.09863261878490447998046875</LatitudeDegrees>
              <LongitudeDegrees>-1.17022289894521236419677734375</LongitudeDegrees>
            </Position>
            <AltitudeMeters>177.399993896484375</AltitudeMeters>
            <DistanceMeters>NAN</DistanceMeters>
          </Trackpoint>
          <Trackpoint>
            <Time>2020-05-25T07:21:01.000Z</Time>
            <Position>
              <LatitudeDegrees>38.0986131727695465087890625</LatitudeDegrees>
              <LongitudeDegrees>-1.17015458643436431884765625</LongitudeDegrees>
            </Position>
            <AltitudeMeters>177.600006103515625</AltitudeMeters>
            <DistanceMeters>NAN</DistanceMeters>
          </Trackpoint>
          <Trackpoint>
            <Time>2020-05-25T07:21:02.000Z</Time>
            <Position>
              <LatitudeDegrees>38.0985955707728862762451171875</LatitudeDegrees>
              <LongitudeDegrees>-1.170086525380611419677734375</LongitudeDegrees>
            </Position>
            <AltitudeMeters>177.8000030517578125</AltitudeMeters>
            <DistanceMeters>NAN</DistanceMeters>
          </Trackpoint>
          <Trackpoint>
            <Time>2020-05-25T07:21:03.000Z</Time>
            <Position>
              <LatitudeDegrees>38.0985761247575283050537109375</LatitudeDegrees>
              <LongitudeDegrees>-1.1700182966887950897216796875</LongitudeDegrees>
            </Position>
            <AltitudeMeters>178.1999969482421875</AltitudeMeters>
            <DistanceMeters>NAN</DistanceMeters>
          </Trackpoint>
          <Trackpoint>
            <Time>2020-05-25T07:21:04.000Z</Time>
            <Position>
              <LatitudeDegrees>38.0985556729137897491455078125</LatitudeDegrees>
              <LongitudeDegrees>-1.1699488945305347442626953125</LongitudeDegrees>
            </Position>
            <AltitudeMeters>178.399993896484375</AltitudeMeters>
            <DistanceMeters>NAN</DistanceMeters>
          </Trackpoint>
          <Trackpoint>
            <Time>2020-05-25T07:21:05.000Z</Time>
            <Position>
              <LatitudeDegrees>38.09853765182197093963623046875</LatitudeDegrees>
              <LongitudeDegrees>-1.1698811687529087066650390625</LongitudeDegrees>
            </Position>
            <AltitudeMeters>178.600006103515625</AltitudeMeters>
            <DistanceMeters>NAN</DistanceMeters>
          </Trackpoint>
          <Trackpoint>
            <Time>2020-05-25T07:21:06.000Z</Time>
            <Position>
              <LatitudeDegrees>38.0985174514353275299072265625</LatitudeDegrees>
              <LongitudeDegrees>-1.169811598956584930419921875</LongitudeDegrees>
            </Position>
            <AltitudeMeters>178.8000030517578125</AltitudeMeters>
            <DistanceMeters>NAN</DistanceMeters>
          </Trackpoint>
          <Trackpoint>
            <Time>2020-05-25T07:21:07.000Z</Time>
            <Position>
              <LatitudeDegrees>38.0984951555728912353515625</LatitudeDegrees>
              <LongitudeDegrees>-1.16974144242703914642333984375</LongitudeDegrees>
            </Position>
            <AltitudeMeters>179</AltitudeMeters>
            <DistanceMeters>NAN</DistanceMeters>
          </Trackpoint>
          <Trackpoint>
            <Time>2020-05-25T07:21:08.000Z</Time>
            <Position>
              <LatitudeDegrees>38.09847327880561351776123046875</LatitudeDegrees>
              <LongitudeDegrees>-1.16967220790684223175048828125</LongitudeDegrees>
            </Position>
            <AltitudeMeters>179.1999969482421875</AltitudeMeters>
            <DistanceMeters>NAN</DistanceMeters>
          </Trackpoint>
          <Trackpoint>
            <Time>2020-05-25T07:21:09.000Z</Time>
            <Position>
              <LatitudeDegrees>38.09844863601028919219970703125</LatitudeDegrees>
              <LongitudeDegrees>-1.16960330866277217864990234375</LongitudeDegrees>
            </Position>
            <AltitudeMeters>179.600006103515625</AltitudeMeters>
            <DistanceMeters>NAN</DistanceMeters>
          </Trackpoint>
          <Trackpoint>
            <Time>2020-05-25T07:21:10.000Z</Time>
            <Position>
              <LatitudeDegrees>38.0984259210526943206787109375</LatitudeDegrees>
              <LongitudeDegrees>-1.1695311404764652252197265625</LongitudeDegrees>
            </Position>
            <AltitudeMeters>179.8000030517578125</AltitudeMeters>
            <DistanceMeters>NAN</DistanceMeters>
          </Trackpoint>
          <Trackpoint>
            <Time>2020-05-25T07:21:11.000Z</Time>
            <Position>
              <LatitudeDegrees>38.0984054692089557647705078125</LatitudeDegrees>
              <LongitudeDegrees>-1.16946081630885601043701171875</LongitudeDegrees>
            </Position>
            <AltitudeMeters>180.1999969482421875</AltitudeMeters>
            <DistanceMeters>NAN</DistanceMeters>
          </Trackpoint>
          <Trackpoint>
            <Time>2020-05-25T07:21:12.000Z</Time>
            <Position>
              <LatitudeDegrees>38.098385520279407501220703125</LatitudeDegrees>
              <LongitudeDegrees>-1.16939007304608821868896484375</LongitudeDegrees>
            </Position>
            <AltitudeMeters>180.399993896484375</AltitudeMeters>
            <DistanceMeters>NAN</DistanceMeters>
          </Trackpoint>
          <Trackpoint>
            <Time>2020-05-25T07:21:13.000Z</Time>
            <Position>
              <LatitudeDegrees>38.0983638949692249298095703125</LatitudeDegrees>
              <LongitudeDegrees>-1.1693222634494304656982421875</LongitudeDegrees>
            </Position>
            <AltitudeMeters>180.600006103515625</AltitudeMeters>
            <DistanceMeters>NAN</DistanceMeters>
          </Trackpoint>
          <Trackpoint>
            <Time>2020-05-25T07:21:14.000Z</Time>
            <Position>
              <LatitudeDegrees>38.09834025800228118896484375</LatitudeDegrees>
              <LongitudeDegrees>-1.169253028929233551025390625</LongitudeDegrees>
            </Position>
            <AltitudeMeters>180.8000030517578125</AltitudeMeters>
            <DistanceMeters>NAN</DistanceMeters>
          </Trackpoint>
          <Trackpoint>
            <Time>2020-05-25T07:21:15.000Z</Time>
            <Position>
              <LatitudeDegrees>38.09831519611179828643798828125</LatitudeDegrees>
              <LongitudeDegrees>-1.16918169893324375152587890625</LongitudeDegrees>
            </Position>
            <AltitudeMeters>181.1999969482421875</AltitudeMeters>
            <DistanceMeters>NAN</DistanceMeters>
          </Trackpoint>
          <Trackpoint>
            <Time>2020-05-25T07:21:16.000Z</Time>
            <Position>
              <LatitudeDegrees>38.09829005040228366851806640625</LatitudeDegrees>
              <LongitudeDegrees>-1.16911112330853939056396484375</LongitudeDegrees>
            </Position>
            <AltitudeMeters>181.399993896484375</AltitudeMeters>
            <DistanceMeters>NAN</DistanceMeters>
          </Trackpoint>
          <Trackpoint>
            <Time>2020-05-25T07:21:17.000Z</Time>
            <Position>
              <LatitudeDegrees>38.09826314449310302734375</LatitudeDegrees>
              <LongitudeDegrees>-1.16903987713158130645751953125</LongitudeDegrees>
            </Position>
            <AltitudeMeters>181.8000030517578125</AltitudeMeters>
            <DistanceMeters>NAN</DistanceMeters>
          </Trackpoint>
          <Trackpoint>
            <Time>2020-05-25T07:21:18.000Z</Time>
            <Position>
              <LatitudeDegrees>38.09823556803166866302490234375</LatitudeDegrees>
              <LongitudeDegrees>-1.16896578110754489898681640625</LongitudeDegrees>
            </Position>
            <AltitudeMeters>182.1999969482421875</AltitudeMeters>
            <DistanceMeters>NAN</DistanceMeters>
          </Trackpoint>
          <Trackpoint>
            <Time>2020-05-25T07:21:19.000Z</Time>
            <Position>
              <LatitudeDegrees>38.09820589609444141387939453125</LatitudeDegrees>
              <LongitudeDegrees>-1.16889654658734798431396484375</LongitudeDegrees>
            </Position>
            <AltitudeMeters>182.1999969482421875</AltitudeMeters>
            <DistanceMeters>NAN</DistanceMeters>
          </Trackpoint>
          <Trackpoint>
            <Time>2020-05-25T07:21:20.000Z</Time>
            <Position>
              <LatitudeDegrees>38.098174296319484710693359375</LatitudeDegrees>
              <LongitudeDegrees>-1.16883016191422939300537109375</LongitudeDegrees>
            </Position>
            <AltitudeMeters>182.399993896484375</AltitudeMeters>
            <DistanceMeters>NAN</DistanceMeters>
          </Trackpoint>
          <Trackpoint>
            <Time>2020-05-25T07:21:21.000Z</Time>
            <Position>
              <LatitudeDegrees>38.09813967905938625335693359375</LatitudeDegrees>
              <LongitudeDegrees>-1.16875941865146160125732421875</LongitudeDegrees>
            </Position>
            <AltitudeMeters>182.399993896484375</AltitudeMeters>
            <DistanceMeters>NAN</DistanceMeters>
          </Trackpoint>
          <Trackpoint>
            <Time>2020-05-25T07:21:22.000Z</Time>
            <Position>
              <LatitudeDegrees>38.09810413978993892669677734375</LatitudeDegrees>
              <LongitudeDegrees>-1.1686979793012142181396484375</LongitudeDegrees>
            </Position>
            <AltitudeMeters>182.399993896484375</AltitudeMeters>
            <DistanceMeters>NAN</DistanceMeters>
          </Trackpoint>
          <Trackpoint>
            <Time>2020-05-25T07:21:23.000Z</Time>
            <Position>
              <LatitudeDegrees>38.09806306846439838409423828125</LatitudeDegrees>
              <LongitudeDegrees>-1.16863838396966457366943359375</LongitudeDegrees>
            </Position>
            <AltitudeMeters>182.399993896484375</AltitudeMeters>
            <DistanceMeters>NAN</DistanceMeters>
          </Trackpoint>
          <Trackpoint>
            <Time>2020-05-25T07:21:24.000Z</Time>
            <Position>
              <LatitudeDegrees>38.098024092614650726318359375</LatitudeDegrees>
              <LongitudeDegrees>-1.1685809679329395294189453125</LongitudeDegrees>
            </Position>
            <AltitudeMeters>182.399993896484375</AltitudeMeters>
            <DistanceMeters>NAN</DistanceMeters>
          </Trackpoint>
          <Trackpoint>
            <Time>2020-05-25T07:21:25.000Z</Time>
            <Position>
              <LatitudeDegrees>38.09798444621264934539794921875</LatitudeDegrees>
              <LongitudeDegrees>-1.16852371953427791595458984375</LongitudeDegrees>
            </Position>
            <AltitudeMeters>182.600006103515625</AltitudeMeters>
            <DistanceMeters>NAN</DistanceMeters>
          </Trackpoint>
          <Trackpoint>
            <Time>2020-05-25T07:21:26.000Z</Time>
            <Position>
              <LatitudeDegrees>38.097941614687442779541015625</LatitudeDegrees>
              <LongitudeDegrees>-1.16846890188753604888916015625</LongitudeDegrees>
            </Position>
            <AltitudeMeters>183</AltitudeMeters>
            <DistanceMeters>NAN</DistanceMeters>
          </Trackpoint>
          <Trackpoint>
            <Time>2020-05-25T07:21:27.000Z</Time>
            <Position>
              <LatitudeDegrees>38.0978975258767604827880859375</LatitudeDegrees>
              <LongitudeDegrees>-1.16841592825949192047119140625</LongitudeDegrees>
            </Position>
            <AltitudeMeters>183.1999969482421875</AltitudeMeters>
            <DistanceMeters>NAN</DistanceMeters>
          </Trackpoint>
          <Trackpoint>
            <Time>2020-05-25T07:21:28.000Z</Time>
            <Position>
              <LatitudeDegrees>38.09785075485706329345703125</LatitudeDegrees>
              <LongitudeDegrees>-1.1683673970401287078857421875</LongitudeDegrees>
            </Position>
            <AltitudeMeters>183.399993896484375</AltitudeMeters>
            <DistanceMeters>NAN</DistanceMeters>
          </Trackpoint>
          <Trackpoint>
            <Time>2020-05-25T07:21:29.000Z</Time>
            <Position>
              <LatitudeDegrees>38.09780272655189037322998046875</LatitudeDegrees>
              <LongitudeDegrees>-1.1683231405913829803466796875</LongitudeDegrees>
            </Position>
            <AltitudeMeters>183.8000030517578125</AltitudeMeters>
            <DistanceMeters>NAN</DistanceMeters>
          </Trackpoint>
          <Trackpoint>
            <Time>2020-05-25T07:21:30.000Z</Time>
            <Position>
              <LatitudeDegrees>38.0977516807615756988525390625</LatitudeDegrees>
              <LongitudeDegrees>-1.1682765372097492218017578125</LongitudeDegrees>
            </Position>
            <AltitudeMeters>184</AltitudeMeters>
            <DistanceMeters>NAN</DistanceMeters>
          </Trackpoint>
          <Trackpoint>
            <Time>2020-05-25T07:21:31.000Z</Time>
            <Position>
              <LatitudeDegrees>38.0977000482380390167236328125</LatitudeDegrees>
              <LongitudeDegrees>-1.1682319454848766326904296875</LongitudeDegrees>
            </Position>
            <AltitudeMeters>184.399993896484375</AltitudeMeters>
            <DistanceMeters>NAN</DistanceMeters>
          </Trackpoint>
          <Trackpoint>
            <Time>2020-05-25T07:21:32.000Z</Time>
            <Position>
              <LatitudeDegrees>38.09765000827610492706298828125</LatitudeDegrees>
              <LongitudeDegrees>-1.1681886948645114898681640625</LongitudeDegrees>
            </Position>
            <AltitudeMeters>184.600006103515625</AltitudeMeters>
            <DistanceMeters>NAN</DistanceMeters>
          </Trackpoint>
          <Trackpoint>
            <Time>2020-05-25T07:21:33.000Z</Time>
            <Position>
              <LatitudeDegrees>38.0975981242954730987548828125</LatitudeDegrees>
              <LongitudeDegrees>-1.1681451089680194854736328125</LongitudeDegrees>
            </Position>
            <AltitudeMeters>185</AltitudeMeters>
            <DistanceMeters>NAN</DistanceMeters>
          </Trackpoint>
          <Trackpoint>
            <Time>2020-05-25T07:21:34.000Z</Time>
            <Position>
              <LatitudeDegrees>38.09754657559096813201904296875</LatitudeDegrees>
              <LongitudeDegrees>-1.16810076870024204254150390625</LongitudeDegrees>
            </Position>
            <AltitudeMeters>184.8000030517578125</AltitudeMeters>
            <DistanceMeters>NAN</DistanceMeters>
          </Trackpoint>
          <Trackpoint>
            <Time>2020-05-25T07:21:35.000Z</Time>
            <Position>
              <LatitudeDegrees>38.0974948592483997344970703125</LatitudeDegrees>
              <LongitudeDegrees>-1.16805852390825748443603515625</LongitudeDegrees>
            </Position>
            <AltitudeMeters>184.600006103515625</AltitudeMeters>
            <DistanceMeters>NAN</DistanceMeters>
          </Trackpoint>
          <Trackpoint>
            <Time>2020-05-25T07:21:36.000Z</Time>
            <Position>
              <LatitudeDegrees>38.0974422208964824676513671875</LatitudeDegrees>
              <LongitudeDegrees>-1.16801510564982891082763671875</LongitudeDegrees>
            </Position>
            <AltitudeMeters>184.399993896484375</AltitudeMeters>
            <DistanceMeters>NAN</DistanceMeters>
          </Trackpoint>
          <Trackpoint>
            <Time>2020-05-25T07:21:37.000Z</Time>
            <Position>
              <LatitudeDegrees>38.0973872356116771697998046875</LatitudeDegrees>
              <LongitudeDegrees>-1.16797403432428836822509765625</LongitudeDegrees>
            </Position>
            <AltitudeMeters>184.1999969482421875</AltitudeMeters>
            <DistanceMeters>NAN</DistanceMeters>
          </Trackpoint>
          <Trackpoint>
            <Time>2020-05-25T07:21:38.000Z</Time>
            <Position>
              <LatitudeDegrees>38.09733308851718902587890625</LatitudeDegrees>
              <LongitudeDegrees>-1.16792893968522548675537109375</LongitudeDegrees>
            </Position>
            <AltitudeMeters>184</AltitudeMeters>
            <DistanceMeters>NAN</DistanceMeters>
          </Trackpoint>
          <Trackpoint>
            <Time>2020-05-25T07:21:39.000Z</Time>
            <Position>
              <LatitudeDegrees>38.0972779355943202972412109375</LatitudeDegrees>
              <LongitudeDegrees>-1.1678874492645263671875</LongitudeDegrees>
            </Position>
            <AltitudeMeters>183.8000030517578125</AltitudeMeters>
            <DistanceMeters>NAN</DistanceMeters>
          </Trackpoint>
          <Trackpoint>
            <Time>2020-05-25T07:21:40.000Z</Time>
            <Position>
              <LatitudeDegrees>38.09722454287111759185791015625</LatitudeDegrees>
              <LongitudeDegrees>-1.16784118115901947021484375</LongitudeDegrees>
            </Position>
            <AltitudeMeters>183.600006103515625</AltitudeMeters>
            <DistanceMeters>NAN</DistanceMeters>
          </Trackpoint>
          <Trackpoint>
            <Time>2020-05-25T07:21:41.000Z</Time>
            <Position>
              <LatitudeDegrees>38.09716989286243915557861328125</LatitudeDegrees>
              <LongitudeDegrees>-1.16779566742479801177978515625</LongitudeDegrees>
            </Position>
            <AltitudeMeters>183.399993896484375</AltitudeMeters>
            <DistanceMeters>NAN</DistanceMeters>
          </Trackpoint>
          <Trackpoint>
            <Time>2020-05-25T07:21:42.000Z</Time>
            <Position>
              <LatitudeDegrees>38.09711641632020473480224609375</LatitudeDegrees>
              <LongitudeDegrees>-1.16775333881378173828125</LongitudeDegrees>
            </Position>
            <AltitudeMeters>183.1999969482421875</AltitudeMeters>
            <DistanceMeters>NAN</DistanceMeters>
          </Trackpoint>
          <Trackpoint>
            <Time>2020-05-25T07:21:43.000Z</Time>
            <Position>
              <LatitudeDegrees>38.0970626883208751678466796875</LatitudeDegrees>
              <LongitudeDegrees>-1.1677117645740509033203125</LongitudeDegrees>
            </Position>
            <AltitudeMeters>183.600006103515625</AltitudeMeters>
            <DistanceMeters>NAN</DistanceMeters>
          </Trackpoint>
          <Trackpoint>
            <Time>2020-05-25T07:21:44.000Z</Time>
            <Position>
              <LatitudeDegrees>38.097008205950260162353515625</LatitudeDegrees>
              <LongitudeDegrees>-1.16766742430627346038818359375</LongitudeDegrees>
            </Position>
            <AltitudeMeters>183.8000030517578125</AltitudeMeters>
            <DistanceMeters>NAN</DistanceMeters>
          </Trackpoint>
          <Trackpoint>
            <Time>2020-05-25T07:21:45.000Z</Time>
            <Position>
              <LatitudeDegrees>38.096953220665454864501953125</LatitudeDegrees>
              <LongitudeDegrees>-1.16762065328657627105712890625</LongitudeDegrees>
            </Position>
            <AltitudeMeters>184.1999969482421875</AltitudeMeters>
            <DistanceMeters>NAN</DistanceMeters>
          </Trackpoint>
          <Trackpoint>
            <Time>2020-05-25T07:21:46.000Z</Time>
            <Position>
              <LatitudeDegrees>38.09689764864742755889892578125</LatitudeDegrees>
              <LongitudeDegrees>-1.16757857613265514373779296875</LongitudeDegrees>
            </Position>
            <AltitudeMeters>184.399993896484375</AltitudeMeters>
            <DistanceMeters>NAN</DistanceMeters>
          </Trackpoint>
          <Trackpoint>
            <Time>2020-05-25T07:21:47.000Z</Time>
            <Position>
              <LatitudeDegrees>38.09683981351554393768310546875</LatitudeDegrees>
              <LongitudeDegrees>-1.16753515787422657012939453125</LongitudeDegrees>
            </Position>
            <AltitudeMeters>184.600006103515625</AltitudeMeters>
            <DistanceMeters>NAN</DistanceMeters>
          </Trackpoint>
          <Trackpoint>
            <Time>2020-05-25T07:21:48.000Z</Time>
            <Position>
              <LatitudeDegrees>38.09678323566913604736328125</LatitudeDegrees>
              <LongitudeDegrees>-1.1674896441400051116943359375</LongitudeDegrees>
            </Position>
            <AltitudeMeters>185</AltitudeMeters>
            <DistanceMeters>NAN</DistanceMeters>
          </Trackpoint>
          <Trackpoint>
            <Time>2020-05-25T07:21:49.000Z</Time>
            <Position>
              <LatitudeDegrees>38.09672816656529903411865234375</LatitudeDegrees>
              <LongitudeDegrees>-1.167443208396434783935546875</LongitudeDegrees>
            </Position>
            <AltitudeMeters>185.1999969482421875</AltitudeMeters>
            <DistanceMeters>NAN</DistanceMeters>
          </Trackpoint>
          <Trackpoint>
            <Time>2020-05-25T07:21:50.000Z</Time>
            <Position>
              <LatitudeDegrees>38.096672594547271728515625</LatitudeDegrees>
              <LongitudeDegrees>-1.16739685647189617156982421875</LongitudeDegrees>
            </Position>
            <AltitudeMeters>185.399993896484375</AltitudeMeters>
            <DistanceMeters>NAN</DistanceMeters>
          </Trackpoint>
          <Trackpoint>
            <Time>2020-05-25T07:21:51.000Z</Time>
            <Position>
              <LatitudeDegrees>38.096616268157958984375</LatitudeDegrees>
              <LongitudeDegrees>-1.16735293529927730560302734375</LongitudeDegrees>
            </Position>
            <AltitudeMeters>185.399993896484375</AltitudeMeters>
            <DistanceMeters>NAN</DistanceMeters>
          </Trackpoint>
          <Trackpoint>
            <Time>2020-05-25T07:21:52.000Z</Time>
            <Position>
              <LatitudeDegrees>38.096558935940265655517578125</LatitudeDegrees>
              <LongitudeDegrees>-1.1673085950314998626708984375</LongitudeDegrees>
            </Position>
            <AltitudeMeters>185.399993896484375</AltitudeMeters>
            <DistanceMeters>NAN</DistanceMeters>
          </Trackpoint>
          <Trackpoint>
            <Time>2020-05-25T07:21:53.000Z</Time>
            <Position>
              <LatitudeDegrees>38.09650252573192119598388671875</LatitudeDegrees>
              <LongitudeDegrees>-1.16726106964051723480224609375</LongitudeDegrees>
            </Position>
            <AltitudeMeters>185.399993896484375</AltitudeMeters>
            <DistanceMeters>NAN</DistanceMeters>
          </Trackpoint>
          <Trackpoint>
            <Time>2020-05-25T07:21:54.000Z</Time>
            <Position>
              <LatitudeDegrees>38.09644502587616443634033203125</LatitudeDegrees>
              <LongitudeDegrees>-1.16721362806856632232666015625</LongitudeDegrees>
            </Position>
            <AltitudeMeters>185.1999969482421875</AltitudeMeters>
            <DistanceMeters>NAN</DistanceMeters>
          </Trackpoint>
          <Trackpoint>
            <Time>2020-05-25T07:21:55.000Z</Time>
            <Position>
              <LatitudeDegrees>38.09639071114361286163330078125</LatitudeDegrees>
              <LongitudeDegrees>-1.1671701259911060333251953125</LongitudeDegrees>
            </Position>
            <AltitudeMeters>185</AltitudeMeters>
            <DistanceMeters>NAN</DistanceMeters>
          </Trackpoint>
          <Trackpoint>
            <Time>2020-05-25T07:21:56.000Z</Time>
            <Position>
              <LatitudeDegrees>38.09633673168718814849853515625</LatitudeDegrees>
              <LongitudeDegrees>-1.16712628863751888275146484375</LongitudeDegrees>
            </Position>
            <AltitudeMeters>185</AltitudeMeters>
            <DistanceMeters>NAN</DistanceMeters>
          </Trackpoint>
          <Trackpoint>
            <Time>2020-05-25T07:21:57.000Z</Time>
            <Position>
              <LatitudeDegrees>38.09628032147884368896484375</LatitudeDegrees>
              <LongitudeDegrees>-1.167079098522663116455078125</LongitudeDegrees>
            </Position>
            <AltitudeMeters>184.8000030517578125</AltitudeMeters>
            <DistanceMeters>NAN</DistanceMeters>
          </Trackpoint>
          <Trackpoint>
            <Time>2020-05-25T07:21:58.000Z</Time>
            <Position>
              <LatitudeDegrees>38.0962238274514675140380859375</LatitudeDegrees>
              <LongitudeDegrees>-1.1670289747416973114013671875</LongitudeDegrees>
            </Position>
            <AltitudeMeters>184.600006103515625</AltitudeMeters>
            <DistanceMeters>NAN</DistanceMeters>
          </Trackpoint>
          <Trackpoint>
            <Time>2020-05-25T07:21:59.000Z</Time>
            <Position>
              <LatitudeDegrees>38.096168674528598785400390625</LatitudeDegrees>
              <LongitudeDegrees>-1.16698128171265125274658203125</LongitudeDegrees>
            </Position>
            <AltitudeMeters>184.600006103515625</AltitudeMeters>
            <DistanceMeters>NAN</DistanceMeters>
          </Trackpoint>
          <Trackpoint>
            <Time>2020-05-25T07:22:00.000Z</Time>
            <Position>
              <LatitudeDegrees>38.0961131863296031951904296875</LatitudeDegrees>
              <LongitudeDegrees>-1.16693417541682720184326171875</LongitudeDegrees>
            </Position>
            <AltitudeMeters>184.600006103515625</AltitudeMeters>
            <DistanceMeters>NAN</DistanceMeters>
          </Trackpoint>
          <Trackpoint>
            <Time>2020-05-25T07:22:01.000Z</Time>
            <Position>
              <LatitudeDegrees>38.09605929069221019744873046875</LatitudeDegrees>
              <LongitudeDegrees>-1.1668918468058109283447265625</LongitudeDegrees>
            </Position>
            <AltitudeMeters>184.600006103515625</AltitudeMeters>
            <DistanceMeters>NAN</DistanceMeters>
          </Trackpoint>
          <Trackpoint>
            <Time>2020-05-25T07:22:02.000Z</Time>
            <Position>
              <LatitudeDegrees>38.0960079096257686614990234375</LatitudeDegrees>
              <LongitudeDegrees>-1.1668502725660800933837890625</LongitudeDegrees>
            </Position>
            <AltitudeMeters>184.600006103515625</AltitudeMeters>
            <DistanceMeters>NAN</DistanceMeters>
          </Trackpoint>
          <Trackpoint>
            <Time>2020-05-25T07:22:03.000Z</Time>
            <Position>
              <LatitudeDegrees>38.09595669619739055633544921875</LatitudeDegrees>
              <LongitudeDegrees>-1.1668078601360321044921875</LongitudeDegrees>
            </Position>
            <AltitudeMeters>184.600006103515625</AltitudeMeters>
            <DistanceMeters>NAN</DistanceMeters>
          </Trackpoint>
          <Trackpoint>
            <Time>2020-05-25T07:22:04.000Z</Time>
            <Position>
              <LatitudeDegrees>38.0959056504070758819580078125</LatitudeDegrees>
              <LongitudeDegrees>-1.1667657829821109771728515625</LongitudeDegrees>
            </Position>
            <AltitudeMeters>184.600006103515625</AltitudeMeters>
            <DistanceMeters>NAN</DistanceMeters>
          </Trackpoint>
          <Trackpoint>
            <Time>2020-05-25T07:22:05.000Z</Time>
            <Position>
              <LatitudeDegrees>38.09585477225482463836669921875</LatitudeDegrees>
              <LongitudeDegrees>-1.16672295145690441131591796875</LongitudeDegrees>
            </Position>
            <AltitudeMeters>184.399993896484375</AltitudeMeters>
            <DistanceMeters>NAN</DistanceMeters>
          </Trackpoint>
          <Trackpoint>
            <Time>2020-05-25T07:22:06.000Z</Time>
            <Position>
              <LatitudeDegrees>38.095798529684543609619140625</LatitudeDegrees>
              <LongitudeDegrees>-1.1666846461594104766845703125</LongitudeDegrees>
            </Position>
            <AltitudeMeters>184.1999969482421875</AltitudeMeters>
            <DistanceMeters>NAN</DistanceMeters>
          </Trackpoint>
          <Trackpoint>
            <Time>2020-05-25T07:22:07.000Z</Time>
            <Position>
              <LatitudeDegrees>38.0957432091236114501953125</LatitudeDegrees>
              <LongitudeDegrees>-1.166646592319011688232421875</LongitudeDegrees>
            </Position>
            <AltitudeMeters>184</AltitudeMeters>
            <DistanceMeters>NAN</DistanceMeters>
          </Trackpoint>
          <Trackpoint>
            <Time>2020-05-25T07:22:08.000Z</Time>
            <Position>
              <LatitudeDegrees>38.09569115750491619110107421875</LatitudeDegrees>
              <LongitudeDegrees>-1.16660174913704395294189453125</LongitudeDegrees>
            </Position>
            <AltitudeMeters>184.1999969482421875</AltitudeMeters>
            <DistanceMeters>NAN</DistanceMeters>
          </Trackpoint>
          <Trackpoint>
            <Time>2020-05-25T07:22:09.000Z</Time>
            <Position>
              <LatitudeDegrees>38.09563734568655490875244140625</LatitudeDegrees>
              <LongitudeDegrees>-1.16655564866960048675537109375</LongitudeDegrees>
            </Position>
            <AltitudeMeters>184.1999969482421875</AltitudeMeters>
            <DistanceMeters>NAN</DistanceMeters>
          </Trackpoint>
          <Trackpoint>
            <Time>2020-05-25T07:22:10.000Z</Time>
            <Position>
              <LatitudeDegrees>38.09558470733463764190673828125</LatitudeDegrees>
              <LongitudeDegrees>-1.16651172749698162078857421875</LongitudeDegrees>
            </Position>
            <AltitudeMeters>184.399993896484375</AltitudeMeters>
            <DistanceMeters>NAN</DistanceMeters>
          </Trackpoint>
          <Trackpoint>
            <Time>2020-05-25T07:22:11.000Z</Time>
            <Position>
              <LatitudeDegrees>38.09553240425884723663330078125</LatitudeDegrees>
              <LongitudeDegrees>-1.166468560695648193359375</LongitudeDegrees>
            </Position>
            <AltitudeMeters>184.399993896484375</AltitudeMeters>
            <DistanceMeters>NAN</DistanceMeters>
          </Trackpoint>
          <Trackpoint>
            <Time>2020-05-25T07:22:12.000Z</Time>
            <Position>
              <LatitudeDegrees>38.0954798497259616851806640625</LatitudeDegrees>
              <LongitudeDegrees>-1.166427321732044219970703125</LongitudeDegrees>
            </Position>
            <AltitudeMeters>184.600006103515625</AltitudeMeters>
            <DistanceMeters>NAN</DistanceMeters>
          </Trackpoint>
          <Trackpoint>
            <Time>2020-05-25T07:22:13.000Z</Time>
            <Position>
              <LatitudeDegrees>38.09542863629758358001708984375</LatitudeDegrees>
              <LongitudeDegrees>-1.16638549603521823883056640625</LongitudeDegrees>
            </Position>
            <AltitudeMeters>184.600006103515625</AltitudeMeters>
            <DistanceMeters>NAN</DistanceMeters>
          </Trackpoint>
          <Trackpoint>
            <Time>2020-05-25T07:22:14.000Z</Time>
            <Position>
              <LatitudeDegrees>38.09537800960242748260498046875</LatitudeDegrees>
              <LongitudeDegrees>-1.1663480289280414581298828125</LongitudeDegrees>
            </Position>
            <AltitudeMeters>184.8000030517578125</AltitudeMeters>
            <DistanceMeters>NAN</DistanceMeters>
          </Trackpoint>
          <Trackpoint>
            <Time>2020-05-25T07:22:15.000Z</Time>
            <Position>
              <LatitudeDegrees>38.0953266285359859466552734375</LatitudeDegrees>
              <LongitudeDegrees>-1.16631232202053070068359375</LongitudeDegrees>
            </Position>
            <AltitudeMeters>185</AltitudeMeters>
            <DistanceMeters>NAN</DistanceMeters>
          </Trackpoint>
          <Trackpoint>
            <Time>2020-05-25T07:22:16.000Z</Time>
            <Position>
              <LatitudeDegrees>38.09527524746954441070556640625</LatitudeDegrees>
              <LongitudeDegrees>-1.16627485491335391998291015625</LongitudeDegrees>
            </Position>
            <AltitudeMeters>185</AltitudeMeters>
            <DistanceMeters>NAN</DistanceMeters>
          </Trackpoint>
          <Trackpoint>
            <Time>2020-05-25T07:22:17.000Z</Time>
            <Position>
              <LatitudeDegrees>38.0952290631830692291259765625</LatitudeDegrees>
              <LongitudeDegrees>-1.1662343703210353851318359375</LongitudeDegrees>
            </Position>
            <AltitudeMeters>185.399993896484375</AltitudeMeters>
            <DistanceMeters>NAN</DistanceMeters>
          </Trackpoint>
          <Trackpoint>
            <Time>2020-05-25T07:22:18.000Z</Time>
            <Position>
              <LatitudeDegrees>38.09518866240978240966796875</LatitudeDegrees>
              <LongitudeDegrees>-1.16619438864290714263916015625</LongitudeDegrees>
            </Position>
            <AltitudeMeters>185.600006103515625</AltitudeMeters>
            <DistanceMeters>NAN</DistanceMeters>
          </Trackpoint>
          <Trackpoint>
            <Time>2020-05-25T07:22:19.000Z</Time>
            <Position>
              <LatitudeDegrees>38.09515270404517650604248046875</LatitudeDegrees>
              <LongitudeDegrees>-1.16615398786962032318115234375</LongitudeDegrees>
            </Position>
            <AltitudeMeters>186</AltitudeMeters>
            <DistanceMeters>NAN</DistanceMeters>
          </Trackpoint>
          <Trackpoint>
            <Time>2020-05-25T07:22:20.000Z</Time>
            <Position>
              <LatitudeDegrees>38.09511599130928516387939453125</LatitudeDegrees>
              <LongitudeDegrees>-1.1661185324192047119140625</LongitudeDegrees>
            </Position>
            <AltitudeMeters>186.399993896484375</AltitudeMeters>
            <DistanceMeters>NAN</DistanceMeters>
          </Trackpoint>
          <Trackpoint>
            <Time>2020-05-25T07:22:21.000Z</Time>
            <Position>
              <LatitudeDegrees>38.09507894329726696014404296875</LatitudeDegrees>
              <LongitudeDegrees>-1.166081987321376800537109375</LongitudeDegrees>
            </Position>
            <AltitudeMeters>186.600006103515625</AltitudeMeters>
            <DistanceMeters>NAN</DistanceMeters>
          </Trackpoint>
          <Trackpoint>
            <Time>2020-05-25T07:22:22.000Z</Time>
            <Position>
              <LatitudeDegrees>38.0950382910668849945068359375</LatitudeDegrees>
              <LongitudeDegrees>-1.16603965871036052703857421875</LongitudeDegrees>
            </Position>
            <AltitudeMeters>187</AltitudeMeters>
            <DistanceMeters>NAN</DistanceMeters>
          </Trackpoint>
          <Trackpoint>
            <Time>2020-05-25T07:22:23.000Z</Time>
            <Position>
              <LatitudeDegrees>38.09499043039977550506591796875</LatitudeDegrees>
              <LongitudeDegrees>-1.16600059904158115386962890625</LongitudeDegrees>
            </Position>
            <AltitudeMeters>187.399993896484375</AltitudeMeters>
            <DistanceMeters>NAN</DistanceMeters>
          </Trackpoint>
          <Trackpoint>
            <Time>2020-05-25T07:22:24.000Z</Time>
            <Position>
              <LatitudeDegrees>38.09494030661880970001220703125</LatitudeDegrees>
              <LongitudeDegrees>-1.1659695021808147430419921875</LongitudeDegrees>
            </Position>
            <AltitudeMeters>187.8000030517578125</AltitudeMeters>
            <DistanceMeters>NAN</DistanceMeters>
          </Trackpoint>
          <Trackpoint>
            <Time>2020-05-25T07:22:25.000Z</Time>
            <Position>
              <LatitudeDegrees>38.0948897637426853179931640625</LatitudeDegrees>
              <LongitudeDegrees>-1.165941171348094940185546875</LongitudeDegrees>
            </Position>
            <AltitudeMeters>188.1999969482421875</AltitudeMeters>
            <DistanceMeters>NAN</DistanceMeters>
          </Trackpoint>
          <Trackpoint>
            <Time>2020-05-25T07:22:26.000Z</Time>
            <Position>
              <LatitudeDegrees>38.0948398075997829437255859375</LatitudeDegrees>
              <LongitudeDegrees>-1.16591141559183597564697265625</LongitudeDegrees>
            </Position>
            <AltitudeMeters>188.399993896484375</AltitudeMeters>
            <DistanceMeters>NAN</DistanceMeters>
          </Trackpoint>
          <Trackpoint>
            <Time>2020-05-25T07:22:27.000Z</Time>
            <Position>
              <LatitudeDegrees>38.0947938747704029083251953125</LatitudeDegrees>
              <LongitudeDegrees>-1.1658813245594501495361328125</LongitudeDegrees>
            </Position>
            <AltitudeMeters>188.8000030517578125</AltitudeMeters>
            <DistanceMeters>NAN</DistanceMeters>
          </Trackpoint>
          <Trackpoint>
            <Time>2020-05-25T07:22:28.000Z</Time>
            <Position>
              <LatitudeDegrees>38.09475121088325977325439453125</LatitudeDegrees>
              <LongitudeDegrees>-1.16584905423223972320556640625</LongitudeDegrees>
            </Position>
            <AltitudeMeters>189</AltitudeMeters>
            <DistanceMeters>NAN</DistanceMeters>
          </Trackpoint>
          <Trackpoint>
            <Time>2020-05-25T07:22:29.000Z</Time>
            <Position>
              <LatitudeDegrees>38.09470913372933864593505859375</LatitudeDegrees>
              <LongitudeDegrees>-1.165816448628902435302734375</LongitudeDegrees>
            </Position>
            <AltitudeMeters>189.1999969482421875</AltitudeMeters>
            <DistanceMeters>NAN</DistanceMeters>
          </Trackpoint>
          <Trackpoint>
            <Time>2020-05-25T07:22:30.000Z</Time>
            <Position>
              <LatitudeDegrees>38.09466831386089324951171875</LatitudeDegrees>
              <LongitudeDegrees>-1.1657854355871677398681640625</LongitudeDegrees>
            </Position>
            <AltitudeMeters>189.399993896484375</AltitudeMeters>
            <DistanceMeters>NAN</DistanceMeters>
          </Trackpoint>
          <Trackpoint>
            <Time>2020-05-25T07:22:31.000Z</Time>
            <Position>
              <LatitudeDegrees>38.0946282483637332916259765625</LatitudeDegrees>
              <LongitudeDegrees>-1.16575383581221103668212890625</LongitudeDegrees>
            </Position>
            <AltitudeMeters>189.8000030517578125</AltitudeMeters>
            <DistanceMeters>NAN</DistanceMeters>
          </Trackpoint>
          <Trackpoint>
            <Time>2020-05-25T07:22:32.000Z</Time>
            <Position>
              <LatitudeDegrees>38.09458910487592220306396484375</LatitudeDegrees>
              <LongitudeDegrees>-1.16572030819952487945556640625</LongitudeDegrees>
            </Position>
            <AltitudeMeters>190</AltitudeMeters>
            <DistanceMeters>NAN</DistanceMeters>
          </Trackpoint>
          <Trackpoint>
            <Time>2020-05-25T07:22:33.000Z</Time>
            <Position>
              <LatitudeDegrees>38.0945496261119842529296875</LatitudeDegrees>
              <LongitudeDegrees>-1.1656878702342510223388671875</LongitudeDegrees>
            </Position>
            <AltitudeMeters>190.1999969482421875</AltitudeMeters>
            <DistanceMeters>NAN</DistanceMeters>
          </Trackpoint>
          <Trackpoint>
            <Time>2020-05-25T07:22:34.000Z</Time>
            <Position>
              <LatitudeDegrees>38.09451048262417316436767578125</LatitudeDegrees>
              <LongitudeDegrees>-1.1656550131738185882568359375</LongitudeDegrees>
            </Position>
            <AltitudeMeters>190.399993896484375</AltitudeMeters>
            <DistanceMeters>NAN</DistanceMeters>
          </Trackpoint>
          <Trackpoint>
            <Time>2020-05-25T07:22:35.000Z</Time>
            <Position>
              <LatitudeDegrees>38.094471506774425506591796875</LatitudeDegrees>
              <LongitudeDegrees>-1.1656228266656398773193359375</LongitudeDegrees>
            </Position>
            <AltitudeMeters>190.600006103515625</AltitudeMeters>
            <DistanceMeters>NAN</DistanceMeters>
          </Trackpoint>
          <Trackpoint>
            <Time>2020-05-25T07:22:36.000Z</Time>
            <Position>
              <LatitudeDegrees>38.0944317765533924102783203125</LatitudeDegrees>
              <LongitudeDegrees>-1.16559240035712718963623046875</LongitudeDegrees>
            </Position>
            <AltitudeMeters>191</AltitudeMeters>
            <DistanceMeters>NAN</DistanceMeters>
          </Trackpoint>
          <Trackpoint>
            <Time>2020-05-25T07:22:37.000Z</Time>
            <Position>
              <LatitudeDegrees>38.0943912081420421600341796875</LatitudeDegrees>
              <LongitudeDegrees>-1.1655654944479465484619140625</LongitudeDegrees>
            </Position>
            <AltitudeMeters>191.1999969482421875</AltitudeMeters>
            <DistanceMeters>NAN</DistanceMeters>
          </Trackpoint>
          <Trackpoint>
            <Time>2020-05-25T07:22:38.000Z</Time>
            <Position>
              <LatitudeDegrees>38.09435323812067508697509765625</LatitudeDegrees>
              <LongitudeDegrees>-1.16553657688200473785400390625</LongitudeDegrees>
            </Position>
            <AltitudeMeters>191.399993896484375</AltitudeMeters>
            <DistanceMeters>NAN</DistanceMeters>
          </Trackpoint>
          <Trackpoint>
            <Time>2020-05-25T07:22:39.000Z</Time>
            <Position>
              <LatitudeDegrees>38.09431518428027629852294921875</LatitudeDegrees>
              <LongitudeDegrees>-1.165506653487682342529296875</LongitudeDegrees>
            </Position>
            <AltitudeMeters>191.399993896484375</AltitudeMeters>
            <DistanceMeters>NAN</DistanceMeters>
          </Trackpoint>
          <Trackpoint>
            <Time>2020-05-25T07:22:40.000Z</Time>
            <Position>
              <LatitudeDegrees>38.0942785553634166717529296875</LatitudeDegrees>
              <LongitudeDegrees>-1.165475137531757354736328125</LongitudeDegrees>
            </Position>
            <AltitudeMeters>191.600006103515625</AltitudeMeters>
            <DistanceMeters>NAN</DistanceMeters>
          </Trackpoint>
          <Trackpoint>
            <Time>2020-05-25T07:22:41.000Z</Time>
            <Position>
              <LatitudeDegrees>38.09424125589430332183837890625</LatitudeDegrees>
              <LongitudeDegrees>-1.16544538177549839019775390625</LongitudeDegrees>
            </Position>
            <AltitudeMeters>191.8000030517578125</AltitudeMeters>
            <DistanceMeters>NAN</DistanceMeters>
          </Trackpoint>
          <Trackpoint>
            <Time>2020-05-25T07:22:42.000Z</Time>
            <Position>
              <LatitudeDegrees>38.09420471079647541046142578125</LatitudeDegrees>
              <LongitudeDegrees>-1.16541855968534946441650390625</LongitudeDegrees>
            </Position>
            <AltitudeMeters>192</AltitudeMeters>
            <DistanceMeters>NAN</DistanceMeters>
          </Trackpoint>
          <Trackpoint>
            <Time>2020-05-25T07:22:43.000Z</Time>
            <Position>
              <LatitudeDegrees>38.0941699258983135223388671875</LatitudeDegrees>
              <LongitudeDegrees>-1.16538989357650279998779296875</LongitudeDegrees>
            </Position>
            <AltitudeMeters>192</AltitudeMeters>
            <DistanceMeters>NAN</DistanceMeters>
          </Trackpoint>
          <Trackpoint>
            <Time>2020-05-25T07:22:44.000Z</Time>
            <Position>
              <LatitudeDegrees>38.094136230647563934326171875</LatitudeDegrees>
              <LongitudeDegrees>-1.16535879671573638916015625</LongitudeDegrees>
            </Position>
            <AltitudeMeters>192.1999969482421875</AltitudeMeters>
            <DistanceMeters>NAN</DistanceMeters>
          </Trackpoint>
          <Trackpoint>
            <Time>2020-05-25T07:22:45.000Z</Time>
            <Position>
              <LatitudeDegrees>38.09410245157778263092041015625</LatitudeDegrees>
              <LongitudeDegrees>-1.16532870568335056304931640625</LongitudeDegrees>
            </Position>
            <AltitudeMeters>192.399993896484375</AltitudeMeters>
            <DistanceMeters>NAN</DistanceMeters>
          </Trackpoint>
          <Trackpoint>
            <Time>2020-05-25T07:22:46.000Z</Time>
            <Position>
              <LatitudeDegrees>38.09406884014606475830078125</LatitudeDegrees>
              <LongitudeDegrees>-1.16529844701290130615234375</LongitudeDegrees>
            </Position>
            <AltitudeMeters>192.399993896484375</AltitudeMeters>
            <DistanceMeters>NAN</DistanceMeters>
          </Trackpoint>
          <Trackpoint>
            <Time>2020-05-25T07:22:47.000Z</Time>
            <Position>
              <LatitudeDegrees>38.09403757564723491668701171875</LatitudeDegrees>
              <LongitudeDegrees>-1.16526600904762744903564453125</LongitudeDegrees>
            </Position>
            <AltitudeMeters>192.600006103515625</AltitudeMeters>
            <DistanceMeters>NAN</DistanceMeters>
          </Trackpoint>
          <Trackpoint>
            <Time>2020-05-25T07:22:48.000Z</Time>
            <Position>
              <LatitudeDegrees>38.0940053053200244903564453125</LatitudeDegrees>
              <LongitudeDegrees>-1.16523466072976589202880859375</LongitudeDegrees>
            </Position>
            <AltitudeMeters>192.8000030517578125</AltitudeMeters>
            <DistanceMeters>NAN</DistanceMeters>
          </Trackpoint>
          <Trackpoint>
            <Time>2020-05-25T07:22:49.000Z</Time>
            <Position>
              <LatitudeDegrees>38.09397093951702117919921875</LatitudeDegrees>
              <LongitudeDegrees>-1.16520381532609462738037109375</LongitudeDegrees>
            </Position>
            <AltitudeMeters>193</AltitudeMeters>
            <DistanceMeters>NAN</DistanceMeters>
          </Trackpoint>
          <Trackpoint>
            <Time>2020-05-25T07:22:50.000Z</Time>
            <Position>
              <LatitudeDegrees>38.09393447823822498321533203125</LatitudeDegrees>
              <LongitudeDegrees>-1.16517531685531139373779296875</LongitudeDegrees>
            </Position>
            <AltitudeMeters>193</AltitudeMeters>
            <DistanceMeters>NAN</DistanceMeters>
          </Trackpoint>
          <Trackpoint>
            <Time>2020-05-25T07:22:51.000Z</Time>
            <Position>
              <LatitudeDegrees>38.0938986875116825103759765625</LatitudeDegrees>
              <LongitudeDegrees>-1.16514681838452816009521484375</LongitudeDegrees>
            </Position>
            <AltitudeMeters>193.1999969482421875</AltitudeMeters>
            <DistanceMeters>NAN</DistanceMeters>
          </Trackpoint>
          <Trackpoint>
            <Time>2020-05-25T07:22:52.000Z</Time>
            <Position>
              <LatitudeDegrees>38.093862645328044891357421875</LatitudeDegrees>
              <LongitudeDegrees>-1.16511630825698375701904296875</LongitudeDegrees>
            </Position>
            <AltitudeMeters>193.600006103515625</AltitudeMeters>
            <DistanceMeters>NAN</DistanceMeters>
          </Trackpoint>
          <Trackpoint>
            <Time>2020-05-25T07:22:53.000Z</Time>
            <Position>
              <LatitudeDegrees>38.0938276089727878570556640625</LatitudeDegrees>
              <LongitudeDegrees>-1.165084876120090484619140625</LongitudeDegrees>
            </Position>
            <AltitudeMeters>194</AltitudeMeters>
            <DistanceMeters>NAN</DistanceMeters>
          </Trackpoint>
          <Trackpoint>
            <Time>2020-05-25T07:22:54.000Z</Time>
            <Position>
              <LatitudeDegrees>38.09379131533205509185791015625</LatitudeDegrees>
              <LongitudeDegrees>-1.16505696438252925872802734375</LongitudeDegrees>
            </Position>
            <AltitudeMeters>194.399993896484375</AltitudeMeters>
            <DistanceMeters>NAN</DistanceMeters>
          </Trackpoint>
          <Trackpoint>
            <Time>2020-05-25T07:22:55.000Z</Time>
            <Position>
              <LatitudeDegrees>38.09375275857746601104736328125</LatitudeDegrees>
              <LongitudeDegrees>-1.1650290526449680328369140625</LongitudeDegrees>
            </Position>
            <AltitudeMeters>194.8000030517578125</AltitudeMeters>
            <DistanceMeters>NAN</DistanceMeters>
          </Trackpoint>
          <Trackpoint>
            <Time>2020-05-25T07:22:56.000Z</Time>
            <Position>
              <LatitudeDegrees>38.09371344745159149169921875</LatitudeDegrees>
              <LongitudeDegrees>-1.1649998836219310760498046875</LongitudeDegrees>
            </Position>
            <AltitudeMeters>195.1999969482421875</AltitudeMeters>
            <DistanceMeters>NAN</DistanceMeters>
          </Trackpoint>
          <Trackpoint>
            <Time>2020-05-25T07:22:57.000Z</Time>
            <Position>
              <LatitudeDegrees>38.09367380104959011077880859375</LatitudeDegrees>
              <LongitudeDegrees>-1.16497063077986240386962890625</LongitudeDegrees>
            </Position>
            <AltitudeMeters>195.600006103515625</AltitudeMeters>
            <DistanceMeters>NAN</DistanceMeters>
          </Trackpoint>
          <Trackpoint>
            <Time>2020-05-25T07:22:58.000Z</Time>
            <Position>
              <LatitudeDegrees>38.093635998666286468505859375</LatitudeDegrees>
              <LongitudeDegrees>-1.16494129411876201629638671875</LongitudeDegrees>
            </Position>
            <AltitudeMeters>195.8000030517578125</AltitudeMeters>
            <DistanceMeters>NAN</DistanceMeters>
          </Trackpoint>
          <Trackpoint>
            <Time>2020-05-25T07:22:59.000Z</Time>
            <Position>
              <LatitudeDegrees>38.0935972742736339569091796875</LatitudeDegrees>
              <LongitudeDegrees>-1.16491313092410564422607421875</LongitudeDegrees>
            </Position>
            <AltitudeMeters>196.1999969482421875</AltitudeMeters>
            <DistanceMeters>NAN</DistanceMeters>
          </Trackpoint>
          <Trackpoint>
            <Time>2020-05-25T07:23:00.000Z</Time>
            <Position>
              <LatitudeDegrees>38.09355796314775943756103515625</LatitudeDegrees>
              <LongitudeDegrees>-1.16488060913980007171630859375</LongitudeDegrees>
            </Position>
            <AltitudeMeters>196.600006103515625</AltitudeMeters>
            <DistanceMeters>NAN</DistanceMeters>
          </Trackpoint>
          <Trackpoint>
            <Time>2020-05-25T07:23:01.000Z</Time>
            <Position>
              <LatitudeDegrees>38.0935178138315677642822265625</LatitudeDegrees>
              <LongitudeDegrees>-1.164846830070018768310546875</LongitudeDegrees>
            </Position>
            <AltitudeMeters>197.1999969482421875</AltitudeMeters>
            <DistanceMeters>NAN</DistanceMeters>
          </Trackpoint>
          <Trackpoint>
            <Time>2020-05-25T07:23:02.000Z</Time>
            <Position>
              <LatitudeDegrees>38.09347816742956638336181640625</LatitudeDegrees>
              <LongitudeDegrees>-1.16481154225766658782958984375</LongitudeDegrees>
            </Position>
            <AltitudeMeters>197.600006103515625</AltitudeMeters>
            <DistanceMeters>NAN</DistanceMeters>
          </Trackpoint>
          <Trackpoint>
            <Time>2020-05-25T07:23:03.000Z</Time>
            <Position>
              <LatitudeDegrees>38.093438856303691864013671875</LatitudeDegrees>
              <LongitudeDegrees>-1.16477533243596553802490234375</LongitudeDegrees>
            </Position>
            <AltitudeMeters>198</AltitudeMeters>
            <DistanceMeters>NAN</DistanceMeters>
          </Trackpoint>
          <Trackpoint>
            <Time>2020-05-25T07:23:04.000Z</Time>
            <Position>
              <LatitudeDegrees>38.09339988045394420623779296875</LatitudeDegrees>
              <LongitudeDegrees>-1.1647433973848819732666015625</LongitudeDegrees>
            </Position>
            <AltitudeMeters>198.1999969482421875</AltitudeMeters>
            <DistanceMeters>NAN</DistanceMeters>
          </Trackpoint>
          <Trackpoint>
            <Time>2020-05-25T07:23:05.000Z</Time>
            <Position>
              <LatitudeDegrees>38.09335931204259395599365234375</LatitudeDegrees>
              <LongitudeDegrees>-1.16470928303897380828857421875</LongitudeDegrees>
            </Position>
            <AltitudeMeters>198.399993896484375</AltitudeMeters>
            <DistanceMeters>NAN</DistanceMeters>
          </Trackpoint>
          <Trackpoint>
            <Time>2020-05-25T07:23:06.000Z</Time>
            <Position>
              <LatitudeDegrees>38.0933213420212268829345703125</LatitudeDegrees>
              <LongitudeDegrees>-1.16467659361660480499267578125</LongitudeDegrees>
            </Position>
            <AltitudeMeters>198.8000030517578125</AltitudeMeters>
            <DistanceMeters>NAN</DistanceMeters>
          </Trackpoint>
          <Trackpoint>
            <Time>2020-05-25T07:23:07.000Z</Time>
            <Position>
              <LatitudeDegrees>38.0932821147143840789794921875</LatitudeDegrees>
              <LongitudeDegrees>-1.16464675404131412506103515625</LongitudeDegrees>
            </Position>
            <AltitudeMeters>199</AltitudeMeters>
            <DistanceMeters>NAN</DistanceMeters>
          </Trackpoint>
          <Trackpoint>
            <Time>2020-05-25T07:23:08.000Z</Time>
            <Position>
              <LatitudeDegrees>38.09324280358850955963134765625</LatitudeDegrees>
              <LongitudeDegrees>-1.164618842303752899169921875</LongitudeDegrees>
            </Position>
            <AltitudeMeters>199.1999969482421875</AltitudeMeters>
            <DistanceMeters>NAN</DistanceMeters>
          </Trackpoint>
          <Trackpoint>
            <Time>2020-05-25T07:23:09.000Z</Time>
            <Position>
              <LatitudeDegrees>38.09320592321455478668212890625</LatitudeDegrees>
              <LongitudeDegrees>-1.164589338004589080810546875</LongitudeDegrees>
            </Position>
            <AltitudeMeters>199.399993896484375</AltitudeMeters>
            <DistanceMeters>NAN</DistanceMeters>
          </Trackpoint>
          <Trackpoint>
            <Time>2020-05-25T07:23:10.000Z</Time>
            <Position>
              <LatitudeDegrees>38.0931709706783294677734375</LatitudeDegrees>
              <LongitudeDegrees>-1.16456025280058383941650390625</LongitudeDegrees>
            </Position>
            <AltitudeMeters>199.600006103515625</AltitudeMeters>
            <DistanceMeters>NAN</DistanceMeters>
          </Trackpoint>
          <Trackpoint>
            <Time>2020-05-25T07:23:11.000Z</Time>
            <Position>
              <LatitudeDegrees>38.09313735924661159515380859375</LatitudeDegrees>
              <LongitudeDegrees>-1.1645321734249591827392578125</LongitudeDegrees>
            </Position>
            <AltitudeMeters>199.8000030517578125</AltitudeMeters>
            <DistanceMeters>NAN</DistanceMeters>
          </Trackpoint>
          <Trackpoint>
            <Time>2020-05-25T07:23:12.000Z</Time>
            <Position>
              <LatitudeDegrees>38.0931027419865131378173828125</LatitudeDegrees>
              <LongitudeDegrees>-1.164504848420619964599609375</LongitudeDegrees>
            </Position>
            <AltitudeMeters>200</AltitudeMeters>
            <DistanceMeters>NAN</DistanceMeters>
          </Trackpoint>
          <Trackpoint>
            <Time>2020-05-25T07:23:13.000Z</Time>
            <Position>
              <LatitudeDegrees>38.09306644834578037261962890625</LatitudeDegrees>
              <LongitudeDegrees>-1.16447458975017070770263671875</LongitudeDegrees>
            </Position>
            <AltitudeMeters>200.1999969482421875</AltitudeMeters>
            <DistanceMeters>NAN</DistanceMeters>
          </Trackpoint>
          <Trackpoint>
            <Time>2020-05-25T07:23:14.000Z</Time>
            <Position>
              <LatitudeDegrees>38.09303090907633304595947265625</LatitudeDegrees>
              <LongitudeDegrees>-1.164443828165531158447265625</LongitudeDegrees>
            </Position>
            <AltitudeMeters>200.399993896484375</AltitudeMeters>
            <DistanceMeters>NAN</DistanceMeters>
          </Trackpoint>
          <Trackpoint>
            <Time>2020-05-25T07:23:15.000Z</Time>
            <Position>
              <LatitudeDegrees>38.0929954536259174346923828125</LatitudeDegrees>
              <LongitudeDegrees>-1.16441424004733562469482421875</LongitudeDegrees>
            </Position>
            <AltitudeMeters>200.600006103515625</AltitudeMeters>
            <DistanceMeters>NAN</DistanceMeters>
          </Trackpoint>
          <Trackpoint>
            <Time>2020-05-25T07:23:16.000Z</Time>
            <Position>
              <LatitudeDegrees>38.0929599143564701080322265625</LatitudeDegrees>
              <LongitudeDegrees>-1.16438406519591808319091796875</LongitudeDegrees>
            </Position>
            <AltitudeMeters>200.8000030517578125</AltitudeMeters>
            <DistanceMeters>NAN</DistanceMeters>
          </Trackpoint>
          <Trackpoint>
            <Time>2020-05-25T07:23:17.000Z</Time>
            <Position>
              <LatitudeDegrees>38.09292496182024478912353515625</LatitudeDegrees>
              <LongitudeDegrees>-1.164355985820293426513671875</LongitudeDegrees>
            </Position>
            <AltitudeMeters>201</AltitudeMeters>
            <DistanceMeters>NAN</DistanceMeters>
          </Trackpoint>
          <Trackpoint>
            <Time>2020-05-25T07:23:18.000Z</Time>
            <Position>
              <LatitudeDegrees>38.09289109893143177032470703125</LatitudeDegrees>
              <LongitudeDegrees>-1.164327822625637054443359375</LongitudeDegrees>
            </Position>
            <AltitudeMeters>201.1999969482421875</AltitudeMeters>
            <DistanceMeters>NAN</DistanceMeters>
          </Trackpoint>
          <Trackpoint>
            <Time>2020-05-25T07:23:19.000Z</Time>
            <Position>
              <LatitudeDegrees>38.092856146395206451416015625</LatitudeDegrees>
              <LongitudeDegrees>-1.16430091671645641326904296875</LongitudeDegrees>
            </Position>
            <AltitudeMeters>201.1999969482421875</AltitudeMeters>
            <DistanceMeters>NAN</DistanceMeters>
          </Trackpoint>
          <Trackpoint>
            <Time>2020-05-25T07:23:20.000Z</Time>
            <Position>
              <LatitudeDegrees>38.0928196012973785400390625</LatitudeDegrees>
              <LongitudeDegrees>-1.1642733402550220489501953125</LongitudeDegrees>
            </Position>
            <AltitudeMeters>201.399993896484375</AltitudeMeters>
            <DistanceMeters>NAN</DistanceMeters>
          </Trackpoint>
          <Trackpoint>
            <Time>2020-05-25T07:23:21.000Z</Time>
            <Position>
              <LatitudeDegrees>38.09278397820889949798583984375</LatitudeDegrees>
              <LongitudeDegrees>-1.16424609906971454620361328125</LongitudeDegrees>
            </Position>
            <AltitudeMeters>201.600006103515625</AltitudeMeters>
            <DistanceMeters>NAN</DistanceMeters>
          </Trackpoint>
          <Trackpoint>
            <Time>2020-05-25T07:23:22.000Z</Time>
            <Position>
              <LatitudeDegrees>38.09274743311107158660888671875</LatitudeDegrees>
              <LongitudeDegrees>-1.16421776823699474334716796875</LongitudeDegrees>
            </Position>
            <AltitudeMeters>201.600006103515625</AltitudeMeters>
            <DistanceMeters>NAN</DistanceMeters>
          </Trackpoint>
          <Trackpoint>
            <Time>2020-05-25T07:23:23.000Z</Time>
            <Position>
              <LatitudeDegrees>38.09271298348903656005859375</LatitudeDegrees>
              <LongitudeDegrees>-1.1641901917755603790283203125</LongitudeDegrees>
            </Position>
            <AltitudeMeters>201.8000030517578125</AltitudeMeters>
            <DistanceMeters>NAN</DistanceMeters>
          </Trackpoint>
          <Trackpoint>
            <Time>2020-05-25T07:23:24.000Z</Time>
            <Position>
              <LatitudeDegrees>38.092679791152477264404296875</LatitudeDegrees>
              <LongitudeDegrees>-1.16416177712380886077880859375</LongitudeDegrees>
            </Position>
            <AltitudeMeters>202</AltitudeMeters>
            <DistanceMeters>NAN</DistanceMeters>
          </Trackpoint>
          <Trackpoint>
            <Time>2020-05-25T07:23:25.000Z</Time>
            <Position>
              <LatitudeDegrees>38.09264584444463253021240234375</LatitudeDegrees>
              <LongitudeDegrees>-1.16413277573883533477783203125</LongitudeDegrees>
            </Position>
            <AltitudeMeters>202</AltitudeMeters>
            <DistanceMeters>NAN</DistanceMeters>
          </Trackpoint>
          <Trackpoint>
            <Time>2020-05-25T07:23:26.000Z</Time>
            <Position>
              <LatitudeDegrees>38.09261147864162921905517578125</LatitudeDegrees>
              <LongitudeDegrees>-1.16410427726805210113525390625</LongitudeDegrees>
            </Position>
            <AltitudeMeters>202.1999969482421875</AltitudeMeters>
            <DistanceMeters>NAN</DistanceMeters>
          </Trackpoint>
          <Trackpoint>
            <Time>2020-05-25T07:23:27.000Z</Time>
            <Position>
              <LatitudeDegrees>38.09257744811475276947021484375</LatitudeDegrees>
              <LongitudeDegrees>-1.16407695226371288299560546875</LongitudeDegrees>
            </Position>
            <AltitudeMeters>202.399993896484375</AltitudeMeters>
            <DistanceMeters>NAN</DistanceMeters>
          </Trackpoint>
          <Trackpoint>
            <Time>2020-05-25T07:23:28.000Z</Time>
            <Position>
              <LatitudeDegrees>38.09254400432109832763671875</LatitudeDegrees>
              <LongitudeDegrees>-1.16405264474451541900634765625</LongitudeDegrees>
            </Position>
            <AltitudeMeters>202.399993896484375</AltitudeMeters>
            <DistanceMeters>NAN</DistanceMeters>
          </Trackpoint>
          <Trackpoint>
            <Time>2020-05-25T07:23:29.000Z</Time>
            <Position>
              <LatitudeDegrees>38.09251072816550731658935546875</LatitudeDegrees>
              <LongitudeDegrees>-1.16402699612081050872802734375</LongitudeDegrees>
            </Position>
            <AltitudeMeters>202.399993896484375</AltitudeMeters>
            <DistanceMeters>NAN</DistanceMeters>
          </Trackpoint>
          <Trackpoint>
            <Time>2020-05-25T07:23:30.000Z</Time>
            <Position>
              <LatitudeDegrees>38.092477954924106597900390625</LatitudeDegrees>
              <LongitudeDegrees>-1.164000593125820159912109375</LongitudeDegrees>
            </Position>
            <AltitudeMeters>202.600006103515625</AltitudeMeters>
            <DistanceMeters>NAN</DistanceMeters>
          </Trackpoint>
          <Trackpoint>
            <Time>2020-05-25T07:23:31.000Z</Time>
            <Position>
              <LatitudeDegrees>38.09244317002594470977783203125</LatitudeDegrees>
              <LongitudeDegrees>-1.16397469304502010345458984375</LongitudeDegrees>
            </Position>
            <AltitudeMeters>202.600006103515625</AltitudeMeters>
            <DistanceMeters>NAN</DistanceMeters>
          </Trackpoint>
          <Trackpoint>
            <Time>2020-05-25T07:23:32.000Z</Time>
            <Position>
              <LatitudeDegrees>38.0924093909561634063720703125</LatitudeDegrees>
              <LongitudeDegrees>-1.16394988261163234710693359375</LongitudeDegrees>
            </Position>
            <AltitudeMeters>202.600006103515625</AltitudeMeters>
            <DistanceMeters>NAN</DistanceMeters>
          </Trackpoint>
          <Trackpoint>
            <Time>2020-05-25T07:23:33.000Z</Time>
            <Position>
              <LatitudeDegrees>38.09237343259155750274658203125</LatitudeDegrees>
              <LongitudeDegrees>-1.16392356343567371368408203125</LongitudeDegrees>
            </Position>
            <AltitudeMeters>202.600006103515625</AltitudeMeters>
            <DistanceMeters>NAN</DistanceMeters>
          </Trackpoint>
          <Trackpoint>
            <Time>2020-05-25T07:23:34.000Z</Time>
            <Position>
              <LatitudeDegrees>38.092337138950824737548828125</LatitudeDegrees>
              <LongitudeDegrees>-1.16389422677457332611083984375</LongitudeDegrees>
            </Position>
            <AltitudeMeters>202.600006103515625</AltitudeMeters>
            <DistanceMeters>NAN</DistanceMeters>
          </Trackpoint>
          <Trackpoint>
            <Time>2020-05-25T07:23:35.000Z</Time>
            <Position>
              <LatitudeDegrees>38.092299588024616241455078125</LatitudeDegrees>
              <LongitudeDegrees>-1.16386405192315578460693359375</LongitudeDegrees>
            </Position>
            <AltitudeMeters>202.600006103515625</AltitudeMeters>
            <DistanceMeters>NAN</DistanceMeters>
          </Trackpoint>
          <Trackpoint>
            <Time>2020-05-25T07:23:36.000Z</Time>
            <Position>
              <LatitudeDegrees>38.0922617018222808837890625</LatitudeDegrees>
              <LongitudeDegrees>-1.16383387707173824310302734375</LongitudeDegrees>
            </Position>
            <AltitudeMeters>202.8000030517578125</AltitudeMeters>
            <DistanceMeters>NAN</DistanceMeters>
          </Trackpoint>
          <Trackpoint>
            <Time>2020-05-25T07:23:37.000Z</Time>
            <Position>
              <LatitudeDegrees>38.09222540818154811859130859375</LatitudeDegrees>
              <LongitudeDegrees>-1.16380286403000354766845703125</LongitudeDegrees>
            </Position>
            <AltitudeMeters>202.8000030517578125</AltitudeMeters>
            <DistanceMeters>NAN</DistanceMeters>
          </Trackpoint>
          <Trackpoint>
            <Time>2020-05-25T07:23:38.000Z</Time>
            <Position>
              <LatitudeDegrees>38.09218970127403736114501953125</LatitudeDegrees>
              <LongitudeDegrees>-1.1637721024453639984130859375</LongitudeDegrees>
            </Position>
            <AltitudeMeters>202.8000030517578125</AltitudeMeters>
            <DistanceMeters>NAN</DistanceMeters>
          </Trackpoint>
          <Trackpoint>
            <Time>2020-05-25T07:23:39.000Z</Time>
            <Position>
              <LatitudeDegrees>38.092152737081050872802734375</LatitudeDegrees>
              <LongitudeDegrees>-1.16374301724135875701904296875</LongitudeDegrees>
            </Position>
            <AltitudeMeters>202.8000030517578125</AltitudeMeters>
            <DistanceMeters>NAN</DistanceMeters>
          </Trackpoint>
          <Trackpoint>
            <Time>2020-05-25T07:23:40.000Z</Time>
            <Position>
              <LatitudeDegrees>38.0921143479645252227783203125</LatitudeDegrees>
              <LongitudeDegrees>-1.16371460258960723876953125</LongitudeDegrees>
            </Position>
            <AltitudeMeters>203</AltitudeMeters>
            <DistanceMeters>NAN</DistanceMeters>
          </Trackpoint>
          <Trackpoint>
            <Time>2020-05-25T07:23:41.000Z</Time>
            <Position>
              <LatitudeDegrees>38.0920744501054286956787109375</LatitudeDegrees>
              <LongitudeDegrees>-1.163684427738189697265625</LongitudeDegrees>
            </Position>
            <AltitudeMeters>203</AltitudeMeters>
            <DistanceMeters>NAN</DistanceMeters>
          </Trackpoint>
          <Trackpoint>
            <Time>2020-05-25T07:23:42.000Z</Time>
            <Position>
              <LatitudeDegrees>38.0920379050076007843017578125</LatitudeDegrees>
              <LongitudeDegrees>-1.1636540852487087249755859375</LongitudeDegrees>
            </Position>
            <AltitudeMeters>203</AltitudeMeters>
            <DistanceMeters>NAN</DistanceMeters>
          </Trackpoint>
          <Trackpoint>
            <Time>2020-05-25T07:23:43.000Z</Time>
            <Position>
              <LatitudeDegrees>38.092002533376216888427734375</LatitudeDegrees>
              <LongitudeDegrees>-1.163623742759227752685546875</LongitudeDegrees>
            </Position>
            <AltitudeMeters>203.399993896484375</AltitudeMeters>
            <DistanceMeters>NAN</DistanceMeters>
          </Trackpoint>
          <Trackpoint>
            <Time>2020-05-25T07:23:44.000Z</Time>
            <Position>
              <LatitudeDegrees>38.09196406044065952301025390625</LatitudeDegrees>
              <LongitudeDegrees>-1.16359390318393707275390625</LongitudeDegrees>
            </Position>
            <AltitudeMeters>203.600006103515625</AltitudeMeters>
            <DistanceMeters>NAN</DistanceMeters>
          </Trackpoint>
          <Trackpoint>
            <Time>2020-05-25T07:23:45.000Z</Time>
            <Position>
              <LatitudeDegrees>38.091926090419292449951171875</LatitudeDegrees>
              <LongitudeDegrees>-1.16356582380831241607666015625</LongitudeDegrees>
            </Position>
            <AltitudeMeters>203.8000030517578125</AltitudeMeters>
            <DistanceMeters>NAN</DistanceMeters>
          </Trackpoint>
          <Trackpoint>
            <Time>2020-05-25T07:23:46.000Z</Time>
            <Position>
              <LatitudeDegrees>38.09188828803598880767822265625</LatitudeDegrees>
              <LongitudeDegrees>-1.16353414021432399749755859375</LongitudeDegrees>
            </Position>
            <AltitudeMeters>204</AltitudeMeters>
            <DistanceMeters>NAN</DistanceMeters>
          </Trackpoint>
          <Trackpoint>
            <Time>2020-05-25T07:23:47.000Z</Time>
            <Position>
              <LatitudeDegrees>38.091848306357860565185546875</LatitudeDegrees>
              <LongitudeDegrees>-1.16350212134420871734619140625</LongitudeDegrees>
            </Position>
            <AltitudeMeters>204.1999969482421875</AltitudeMeters>
            <DistanceMeters>NAN</DistanceMeters>
          </Trackpoint>
          <Trackpoint>
            <Time>2020-05-25T07:23:48.000Z</Time>
            <Position>
              <LatitudeDegrees>38.091807402670383453369140625</LatitudeDegrees>
              <LongitudeDegrees>-1.1634700186550617218017578125</LongitudeDegrees>
            </Position>
            <AltitudeMeters>204.399993896484375</AltitudeMeters>
            <DistanceMeters>NAN</DistanceMeters>
          </Trackpoint>
          <Trackpoint>
            <Time>2020-05-25T07:23:49.000Z</Time>
            <Position>
              <LatitudeDegrees>38.091767169535160064697265625</LatitudeDegrees>
              <LongitudeDegrees>-1.163438670337200164794921875</LongitudeDegrees>
            </Position>
            <AltitudeMeters>204.600006103515625</AltitudeMeters>
            <DistanceMeters>NAN</DistanceMeters>
          </Trackpoint>
          <Trackpoint>
            <Time>2020-05-25T07:23:50.000Z</Time>
            <Position>
              <LatitudeDegrees>38.09172685258090496063232421875</LatitudeDegrees>
              <LongitudeDegrees>-1.1634066514670848846435546875</LongitudeDegrees>
            </Position>
            <AltitudeMeters>205</AltitudeMeters>
            <DistanceMeters>NAN</DistanceMeters>
          </Trackpoint>
          <Trackpoint>
            <Time>2020-05-25T07:23:51.000Z</Time>
            <Position>
              <LatitudeDegrees>38.09168435633182525634765625</LatitudeDegrees>
              <LongitudeDegrees>-1.16337371058762073516845703125</LongitudeDegrees>
            </Position>
            <AltitudeMeters>205.1999969482421875</AltitudeMeters>
            <DistanceMeters>NAN</DistanceMeters>
          </Trackpoint>
          <Trackpoint>
            <Time>2020-05-25T07:23:52.000Z</Time>
            <Position>
              <LatitudeDegrees>38.0916439555585384368896484375</LatitudeDegrees>
              <LongitudeDegrees>-1.16333800368010997772216796875</LongitudeDegrees>
            </Position>
            <AltitudeMeters>205.600006103515625</AltitudeMeters>
            <DistanceMeters>NAN</DistanceMeters>
          </Trackpoint>
          <Trackpoint>
            <Time>2020-05-25T07:23:53.000Z</Time>
            <Position>
              <LatitudeDegrees>38.09160380624234676361083984375</LatitudeDegrees>
              <LongitudeDegrees>-1.16330145858228206634521484375</LongitudeDegrees>
            </Position>
            <AltitudeMeters>205.8000030517578125</AltitudeMeters>
            <DistanceMeters>NAN</DistanceMeters>
          </Trackpoint>
          <Trackpoint>
            <Time>2020-05-25T07:23:54.000Z</Time>
            <Position>
              <LatitudeDegrees>38.09156357310712337493896484375</LatitudeDegrees>
              <LongitudeDegrees>-1.1632661707699298858642578125</LongitudeDegrees>
            </Position>
            <AltitudeMeters>206.1999969482421875</AltitudeMeters>
            <DistanceMeters>NAN</DistanceMeters>
          </Trackpoint>
          <Trackpoint>
            <Time>2020-05-25T07:23:55.000Z</Time>
            <Position>
              <LatitudeDegrees>38.0915225856006145477294921875</LatitudeDegrees>
              <LongitudeDegrees>-1.1632311344146728515625</LongitudeDegrees>
            </Position>
            <AltitudeMeters>206.600006103515625</AltitudeMeters>
            <DistanceMeters>NAN</DistanceMeters>
          </Trackpoint>
          <Trackpoint>
            <Time>2020-05-25T07:23:56.000Z</Time>
            <Position>
              <LatitudeDegrees>38.09148092754185199737548828125</LatitudeDegrees>
              <LongitudeDegrees>-1.163197271525859832763671875</LongitudeDegrees>
            </Position>
            <AltitudeMeters>207</AltitudeMeters>
            <DistanceMeters>NAN</DistanceMeters>
          </Trackpoint>
          <Trackpoint>
            <Time>2020-05-25T07:23:57.000Z</Time>
            <Position>
              <LatitudeDegrees>38.091438598930835723876953125</LatitudeDegrees>
              <LongitudeDegrees>-1.163162402808666229248046875</LongitudeDegrees>
            </Position>
            <AltitudeMeters>207.399993896484375</AltitudeMeters>
            <DistanceMeters>NAN</DistanceMeters>
          </Trackpoint>
          <Trackpoint>
            <Time>2020-05-25T07:23:58.000Z</Time>
            <Position>
              <LatitudeDegrees>38.09139425866305828094482421875</LatitudeDegrees>
              <LongitudeDegrees>-1.16312594152987003326416015625</LongitudeDegrees>
            </Position>
            <AltitudeMeters>207.8000030517578125</AltitudeMeters>
            <DistanceMeters>NAN</DistanceMeters>
          </Trackpoint>
          <Trackpoint>
            <Time>2020-05-25T07:23:59.000Z</Time>
            <Position>
              <LatitudeDegrees>38.09135033749043941497802734375</LatitudeDegrees>
              <LongitudeDegrees>-1.163090653717517852783203125</LongitudeDegrees>
            </Position>
            <AltitudeMeters>208.1999969482421875</AltitudeMeters>
            <DistanceMeters>NAN</DistanceMeters>
          </Trackpoint>
          <Trackpoint>
            <Time>2020-05-25T07:24:00.000Z</Time>
            <Position>
              <LatitudeDegrees>38.09130725450813770294189453125</LatitudeDegrees>
              <LongitudeDegrees>-1.1630552820861339569091796875</LongitudeDegrees>
            </Position>
            <AltitudeMeters>208.600006103515625</AltitudeMeters>
            <DistanceMeters>NAN</DistanceMeters>
          </Trackpoint>
          <Trackpoint>
            <Time>2020-05-25T07:24:01.000Z</Time>
            <Position>
              <LatitudeDegrees>38.09126366861164569854736328125</LatitudeDegrees>
              <LongitudeDegrees>-1.16301882080733776092529296875</LongitudeDegrees>
            </Position>
            <AltitudeMeters>209</AltitudeMeters>
            <DistanceMeters>NAN</DistanceMeters>
          </Trackpoint>
          <Trackpoint>
            <Time>2020-05-25T07:24:02.000Z</Time>
            <Position>
              <LatitudeDegrees>38.09121974743902683258056640625</LatitudeDegrees>
              <LongitudeDegrees>-1.1629825271666049957275390625</LongitudeDegrees>
            </Position>
            <AltitudeMeters>209.399993896484375</AltitudeMeters>
            <DistanceMeters>NAN</DistanceMeters>
          </Trackpoint>
          <Trackpoint>
            <Time>2020-05-25T07:24:03.000Z</Time>
            <Position>
              <LatitudeDegrees>38.09117247350513935089111328125</LatitudeDegrees>
              <LongitudeDegrees>-1.162943802773952484130859375</LongitudeDegrees>
            </Position>
            <AltitudeMeters>209.8000030517578125</AltitudeMeters>
            <DistanceMeters>NAN</DistanceMeters>
          </Trackpoint>
          <Trackpoint>
            <Time>2020-05-25T07:24:04.000Z</Time>
            <Position>
              <LatitudeDegrees>38.0911276303231716156005859375</LatitudeDegrees>
              <LongitudeDegrees>-1.16290633566677570343017578125</LongitudeDegrees>
            </Position>
            <AltitudeMeters>210.1999969482421875</AltitudeMeters>
            <DistanceMeters>NAN</DistanceMeters>
          </Trackpoint>
          <Trackpoint>
            <Time>2020-05-25T07:24:05.000Z</Time>
            <Position>
              <LatitudeDegrees>38.0910823680460453033447265625</LatitudeDegrees>
              <LongitudeDegrees>-1.162870042026042938232421875</LongitudeDegrees>
            </Position>
            <AltitudeMeters>210.1999969482421875</AltitudeMeters>
            <DistanceMeters>NAN</DistanceMeters>
          </Trackpoint>
          <Trackpoint>
            <Time>2020-05-25T07:24:06.000Z</Time>
            <Position>
              <LatitudeDegrees>38.09103668667376041412353515625</LatitudeDegrees>
              <LongitudeDegrees>-1.162831820547580718994140625</LongitudeDegrees>
            </Position>
            <AltitudeMeters>210</AltitudeMeters>
            <DistanceMeters>NAN</DistanceMeters>
          </Trackpoint>
          <Trackpoint>
            <Time>2020-05-25T07:24:07.000Z</Time>
            <Position>
              <LatitudeDegrees>38.09099259786307811737060546875</LatitudeDegrees>
              <LongitudeDegrees>-1.16279326379299163818359375</LongitudeDegrees>
            </Position>
            <AltitudeMeters>210</AltitudeMeters>
            <DistanceMeters>NAN</DistanceMeters>
          </Trackpoint>
          <Trackpoint>
            <Time>2020-05-25T07:24:08.000Z</Time>
            <Position>
              <LatitudeDegrees>38.09094783850014209747314453125</LatitudeDegrees>
              <LongitudeDegrees>-1.16275479085743427276611328125</LongitudeDegrees>
            </Position>
            <AltitudeMeters>210</AltitudeMeters>
            <DistanceMeters>NAN</DistanceMeters>
          </Trackpoint>
          <Trackpoint>
            <Time>2020-05-25T07:24:09.000Z</Time>
            <Position>
              <LatitudeDegrees>38.09090224094688892364501953125</LatitudeDegrees>
              <LongitudeDegrees>-1.1627174913883209228515625</LongitudeDegrees>
            </Position>
            <AltitudeMeters>210.1999969482421875</AltitudeMeters>
            <DistanceMeters>NAN</DistanceMeters>
          </Trackpoint>
          <Trackpoint>
            <Time>2020-05-25T07:24:10.000Z</Time>
            <Position>
              <LatitudeDegrees>38.0908570624887943267822265625</LatitudeDegrees>
              <LongitudeDegrees>-1.16268061101436614990234375</LongitudeDegrees>
            </Position>
            <AltitudeMeters>210.8000030517578125</AltitudeMeters>
            <DistanceMeters>NAN</DistanceMeters>
          </Trackpoint>
          <Trackpoint>
            <Time>2020-05-25T07:24:11.000Z</Time>
            <Position>
              <LatitudeDegrees>38.09081397950649261474609375</LatitudeDegrees>
              <LongitudeDegrees>-1.1626438982784748077392578125</LongitudeDegrees>
            </Position>
            <AltitudeMeters>211.1999969482421875</AltitudeMeters>
            <DistanceMeters>NAN</DistanceMeters>
          </Trackpoint>
          <Trackpoint>
            <Time>2020-05-25T07:24:12.000Z</Time>
            <Position>
              <LatitudeDegrees>38.09077131561934947967529296875</LatitudeDegrees>
              <LongitudeDegrees>-1.16260743699967861175537109375</LongitudeDegrees>
            </Position>
            <AltitudeMeters>211.8000030517578125</AltitudeMeters>
            <DistanceMeters>NAN</DistanceMeters>
          </Trackpoint>
          <Trackpoint>
            <Time>2020-05-25T07:24:13.000Z</Time>
            <Position>
              <LatitudeDegrees>38.09072974137961864471435546875</LatitudeDegrees>
              <LongitudeDegrees>-1.162571646273136138916015625</LongitudeDegrees>
            </Position>
            <AltitudeMeters>212.1999969482421875</AltitudeMeters>
            <DistanceMeters>NAN</DistanceMeters>
          </Trackpoint>
          <Trackpoint>
            <Time>2020-05-25T07:24:14.000Z</Time>
            <Position>
              <LatitudeDegrees>38.09068732894957065582275390625</LatitudeDegrees>
              <LongitudeDegrees>-1.1625366099178791046142578125</LongitudeDegrees>
            </Position>
            <AltitudeMeters>212.8000030517578125</AltitudeMeters>
            <DistanceMeters>NAN</DistanceMeters>
          </Trackpoint>
          <Trackpoint>
            <Time>2020-05-25T07:24:15.000Z</Time>
            <Position>
              <LatitudeDegrees>38.09064508415758609771728515625</LatitudeDegrees>
              <LongitudeDegrees>-1.16250266321003437042236328125</LongitudeDegrees>
            </Position>
            <AltitudeMeters>213</AltitudeMeters>
            <DistanceMeters>NAN</DistanceMeters>
          </Trackpoint>
          <Trackpoint>
            <Time>2020-05-25T07:24:16.000Z</Time>
            <Position>
              <LatitudeDegrees>38.090601079165935516357421875</LatitudeDegrees>
              <LongitudeDegrees>-1.16246762685477733612060546875</LongitudeDegrees>
            </Position>
            <AltitudeMeters>213</AltitudeMeters>
            <DistanceMeters>NAN</DistanceMeters>
          </Trackpoint>
          <Trackpoint>
            <Time>2020-05-25T07:24:17.000Z</Time>
            <Position>
              <LatitudeDegrees>38.090557157993316650390625</LatitudeDegrees>
              <LongitudeDegrees>-1.1624323390424251556396484375</LongitudeDegrees>
            </Position>
            <AltitudeMeters>213.1999969482421875</AltitudeMeters>
            <DistanceMeters>NAN</DistanceMeters>
          </Trackpoint>
          <Trackpoint>
            <Time>2020-05-25T07:24:18.000Z</Time>
            <Position>
              <LatitudeDegrees>38.09051298536360263824462890625</LatitudeDegrees>
              <LongitudeDegrees>-1.1623951233923435211181640625</LongitudeDegrees>
            </Position>
            <AltitudeMeters>213.1999969482421875</AltitudeMeters>
            <DistanceMeters>NAN</DistanceMeters>
          </Trackpoint>
          <Trackpoint>
            <Time>2020-05-25T07:24:19.000Z</Time>
            <Position>
              <LatitudeDegrees>38.0904671363532543182373046875</LatitudeDegrees>
              <LongitudeDegrees>-1.16235698573291301727294921875</LongitudeDegrees>
            </Position>
            <AltitudeMeters>213.399993896484375</AltitudeMeters>
            <DistanceMeters>NAN</DistanceMeters>
          </Trackpoint>
          <Trackpoint>
            <Time>2020-05-25T07:24:20.000Z</Time>
            <Position>
              <LatitudeDegrees>38.09042212553322315216064453125</LatitudeDegrees>
              <LongitudeDegrees>-1.16231943480670452117919921875</LongitudeDegrees>
            </Position>
            <AltitudeMeters>213.600006103515625</AltitudeMeters>
            <DistanceMeters>NAN</DistanceMeters>
          </Trackpoint>
          <Trackpoint>
            <Time>2020-05-25T07:24:21.000Z</Time>
            <Position>
              <LatitudeDegrees>38.0903761088848114013671875</LatitudeDegrees>
              <LongitudeDegrees>-1.16228305734694004058837890625</LongitudeDegrees>
            </Position>
            <AltitudeMeters>213.600006103515625</AltitudeMeters>
            <DistanceMeters>NAN</DistanceMeters>
          </Trackpoint>
          <Trackpoint>
            <Time>2020-05-25T07:24:22.000Z</Time>
            <Position>
              <LatitudeDegrees>38.090328164398670196533203125</LatitudeDegrees>
              <LongitudeDegrees>-1.162246763706207275390625</LongitudeDegrees>
            </Position>
            <AltitudeMeters>214</AltitudeMeters>
            <DistanceMeters>NAN</DistanceMeters>
          </Trackpoint>
          <Trackpoint>
            <Time>2020-05-25T07:24:23.000Z</Time>
            <Position>
              <LatitudeDegrees>38.09027628041803836822509765625</LatitudeDegrees>
              <LongitudeDegrees>-1.1622056923806667327880859375</LongitudeDegrees>
            </Position>
            <AltitudeMeters>214.399993896484375</AltitudeMeters>
            <DistanceMeters>NAN</DistanceMeters>
          </Trackpoint>
          <Trackpoint>
            <Time>2020-05-25T07:24:24.000Z</Time>
            <Position>
              <LatitudeDegrees>38.0902264080941677093505859375</LatitudeDegrees>
              <LongitudeDegrees>-1.1621661297976970672607421875</LongitudeDegrees>
            </Position>
            <AltitudeMeters>214.600006103515625</AltitudeMeters>
            <DistanceMeters>NAN</DistanceMeters>
          </Trackpoint>
          <Trackpoint>
            <Time>2020-05-25T07:24:25.000Z</Time>
            <Position>
              <LatitudeDegrees>38.09017720632255077362060546875</LatitudeDegrees>
              <LongitudeDegrees>-1.16212665103375911712646484375</LongitudeDegrees>
            </Position>
            <AltitudeMeters>214.399993896484375</AltitudeMeters>
            <DistanceMeters>NAN</DistanceMeters>
          </Trackpoint>
          <Trackpoint>
            <Time>2020-05-25T07:24:26.000Z</Time>
            <Position>
              <LatitudeDegrees>38.0901308543980121612548828125</LatitudeDegrees>
              <LongitudeDegrees>-1.1620913632214069366455078125</LongitudeDegrees>
            </Position>
            <AltitudeMeters>214.1999969482421875</AltitudeMeters>
            <DistanceMeters>NAN</DistanceMeters>
          </Trackpoint>
          <Trackpoint>
            <Time>2020-05-25T07:24:27.000Z</Time>
            <Position>
              <LatitudeDegrees>38.09008483774960041046142578125</LatitudeDegrees>
              <LongitudeDegrees>-1.16205490194261074066162109375</LongitudeDegrees>
            </Position>
            <AltitudeMeters>213.8000030517578125</AltitudeMeters>
            <DistanceMeters>NAN</DistanceMeters>
          </Trackpoint>
          <Trackpoint>
            <Time>2020-05-25T07:24:28.000Z</Time>
            <Position>
              <LatitudeDegrees>38.090037815272808074951171875</LatitudeDegrees>
              <LongitudeDegrees>-1.16201718337833881378173828125</LongitudeDegrees>
            </Position>
            <AltitudeMeters>213.600006103515625</AltitudeMeters>
            <DistanceMeters>NAN</DistanceMeters>
          </Trackpoint>
          <Trackpoint>
            <Time>2020-05-25T07:24:29.000Z</Time>
            <Position>
              <LatitudeDegrees>38.08998928405344486236572265625</LatitudeDegrees>
              <LongitudeDegrees>-1.16198097355663776397705078125</LongitudeDegrees>
            </Position>
            <AltitudeMeters>213.1999969482421875</AltitudeMeters>
            <DistanceMeters>NAN</DistanceMeters>
          </Trackpoint>
          <Trackpoint>
            <Time>2020-05-25T07:24:30.000Z</Time>
            <Position>
              <LatitudeDegrees>38.08994360268115997314453125</LatitudeDegrees>
              <LongitudeDegrees>-1.16194543428719043731689453125</LongitudeDegrees>
            </Position>
            <AltitudeMeters>212.8000030517578125</AltitudeMeters>
            <DistanceMeters>NAN</DistanceMeters>
          </Trackpoint>
          <Trackpoint>
            <Time>2020-05-25T07:24:31.000Z</Time>
            <Position>
              <LatitudeDegrees>38.089898340404033660888671875</LatitudeDegrees>
              <LongitudeDegrees>-1.1619109846651554107666015625</LongitudeDegrees>
            </Position>
            <AltitudeMeters>212.600006103515625</AltitudeMeters>
            <DistanceMeters>NAN</DistanceMeters>
          </Trackpoint>
          <Trackpoint>
            <Time>2020-05-25T07:24:32.000Z</Time>
            <Position>
              <LatitudeDegrees>38.0898522399365901947021484375</LatitudeDegrees>
              <LongitudeDegrees>-1.1618764512240886688232421875</LongitudeDegrees>
            </Position>
            <AltitudeMeters>212.1999969482421875</AltitudeMeters>
            <DistanceMeters>NAN</DistanceMeters>
          </Trackpoint>
          <Trackpoint>
            <Time>2020-05-25T07:24:33.000Z</Time>
            <Position>
              <LatitudeDegrees>38.0898069776594638824462890625</LatitudeDegrees>
              <LongitudeDegrees>-1.16184099577367305755615234375</LongitudeDegrees>
            </Position>
            <AltitudeMeters>211.8000030517578125</AltitudeMeters>
            <DistanceMeters>NAN</DistanceMeters>
          </Trackpoint>
          <Trackpoint>
            <Time>2020-05-25T07:24:34.000Z</Time>
            <Position>
              <LatitudeDegrees>38.0897603742778301239013671875</LatitudeDegrees>
              <LongitudeDegrees>-1.16180746816098690032958984375</LongitudeDegrees>
            </Position>
            <AltitudeMeters>211.600006103515625</AltitudeMeters>
            <DistanceMeters>NAN</DistanceMeters>
          </Trackpoint>
          <Trackpoint>
            <Time>2020-05-25T07:24:35.000Z</Time>
            <Position>
              <LatitudeDegrees>38.0897082388401031494140625</LatitudeDegrees>
              <LongitudeDegrees>-1.16177544929087162017822265625</LongitudeDegrees>
            </Position>
            <AltitudeMeters>211.399993896484375</AltitudeMeters>
            <DistanceMeters>NAN</DistanceMeters>
          </Trackpoint>
          <Trackpoint>
            <Time>2020-05-25T07:24:36.000Z</Time>
            <Position>
              <LatitudeDegrees>38.08965669013559818267822265625</LatitudeDegrees>
              <LongitudeDegrees>-1.1617403291165828704833984375</LongitudeDegrees>
            </Position>
            <AltitudeMeters>211.600006103515625</AltitudeMeters>
            <DistanceMeters>NAN</DistanceMeters>
          </Trackpoint>
          <Trackpoint>
            <Time>2020-05-25T07:24:37.000Z</Time>
            <Position>
              <LatitudeDegrees>38.0896061472594738006591796875</LatitudeDegrees>
              <LongitudeDegrees>-1.1617047898471355438232421875</LongitudeDegrees>
            </Position>
            <AltitudeMeters>211.600006103515625</AltitudeMeters>
            <DistanceMeters>NAN</DistanceMeters>
          </Trackpoint>
          <Trackpoint>
            <Time>2020-05-25T07:24:38.000Z</Time>
            <Position>
              <LatitudeDegrees>38.089556358754634857177734375</LatitudeDegrees>
              <LongitudeDegrees>-1.16166941821575164794921875</LongitudeDegrees>
            </Position>
            <AltitudeMeters>211.600006103515625</AltitudeMeters>
            <DistanceMeters>NAN</DistanceMeters>
          </Trackpoint>
          <Trackpoint>
            <Time>2020-05-25T07:24:39.000Z</Time>
            <Position>
              <LatitudeDegrees>38.0895099230110645294189453125</LatitudeDegrees>
              <LongitudeDegrees>-1.1616333760321140289306640625</LongitudeDegrees>
            </Position>
            <AltitudeMeters>211.8000030517578125</AltitudeMeters>
            <DistanceMeters>NAN</DistanceMeters>
          </Trackpoint>
          <Trackpoint>
            <Time>2020-05-25T07:24:40.000Z</Time>
            <Position>
              <LatitudeDegrees>38.08946340344846248626708984375</LatitudeDegrees>
              <LongitudeDegrees>-1.16159699857234954833984375</LongitudeDegrees>
            </Position>
            <AltitudeMeters>211.8000030517578125</AltitudeMeters>
            <DistanceMeters>NAN</DistanceMeters>
          </Trackpoint>
          <Trackpoint>
            <Time>2020-05-25T07:24:41.000Z</Time>
            <Position>
              <LatitudeDegrees>38.08941428549587726593017578125</LatitudeDegrees>
              <LongitudeDegrees>-1.1615612916648387908935546875</LongitudeDegrees>
            </Position>
            <AltitudeMeters>211.8000030517578125</AltitudeMeters>
            <DistanceMeters>NAN</DistanceMeters>
          </Trackpoint>
          <Trackpoint>
            <Time>2020-05-25T07:24:42.000Z</Time>
            <Position>
              <LatitudeDegrees>38.089366257190704345703125</LatitudeDegrees>
              <LongitudeDegrees>-1.16152432747185230255126953125</LongitudeDegrees>
            </Position>
            <AltitudeMeters>211.8000030517578125</AltitudeMeters>
            <DistanceMeters>NAN</DistanceMeters>
          </Trackpoint>
          <Trackpoint>
            <Time>2020-05-25T07:24:43.000Z</Time>
            <Position>
              <LatitudeDegrees>38.08932040818035602569580078125</LatitudeDegrees>
              <LongitudeDegrees>-1.16148727945983409881591796875</LongitudeDegrees>
            </Position>
            <AltitudeMeters>212</AltitudeMeters>
            <DistanceMeters>NAN</DistanceMeters>
          </Trackpoint>
          <Trackpoint>
            <Time>2020-05-25T07:24:44.000Z</Time>
            <Position>
              <LatitudeDegrees>38.0892738886177539825439453125</LatitudeDegrees>
              <LongitudeDegrees>-1.161447130143642425537109375</LongitudeDegrees>
            </Position>
            <AltitudeMeters>212</AltitudeMeters>
            <DistanceMeters>NAN</DistanceMeters>
          </Trackpoint>
          <Trackpoint>
            <Time>2020-05-25T07:24:45.000Z</Time>
            <Position>
              <LatitudeDegrees>38.0892299674451351165771484375</LatitudeDegrees>
              <LongitudeDegrees>-1.1614117585122585296630859375</LongitudeDegrees>
            </Position>
            <AltitudeMeters>211.8000030517578125</AltitudeMeters>
            <DistanceMeters>NAN</DistanceMeters>
          </Trackpoint>
          <Trackpoint>
            <Time>2020-05-25T07:24:46.000Z</Time>
            <Position>
              <LatitudeDegrees>38.08918663300573825836181640625</LatitudeDegrees>
              <LongitudeDegrees>-1.16137831471860408782958984375</LongitudeDegrees>
            </Position>
            <AltitudeMeters>211.8000030517578125</AltitudeMeters>
            <DistanceMeters>NAN</DistanceMeters>
          </Trackpoint>
          <Trackpoint>
            <Time>2020-05-25T07:24:47.000Z</Time>
            <Position>
              <LatitudeDegrees>38.0891454778611660003662109375</LatitudeDegrees>
              <LongitudeDegrees>-1.1613457091152667999267578125</LongitudeDegrees>
            </Position>
            <AltitudeMeters>211.600006103515625</AltitudeMeters>
            <DistanceMeters>NAN</DistanceMeters>
          </Trackpoint>
          <Trackpoint>
            <Time>2020-05-25T07:24:48.000Z</Time>
            <Position>
              <LatitudeDegrees>38.0891042388975620269775390625</LatitudeDegrees>
              <LongitudeDegrees>-1.1613175459206104278564453125</LongitudeDegrees>
            </Position>
            <AltitudeMeters>211.399993896484375</AltitudeMeters>
            <DistanceMeters>NAN</DistanceMeters>
          </Trackpoint>
          <Trackpoint>
            <Time>2020-05-25T07:24:49.000Z</Time>
            <Position>
              <LatitudeDegrees>38.0890626646578311920166015625</LatitudeDegrees>
              <LongitudeDegrees>-1.1612893827259540557861328125</LongitudeDegrees>
            </Position>
            <AltitudeMeters>211.1999969482421875</AltitudeMeters>
            <DistanceMeters>NAN</DistanceMeters>
          </Trackpoint>
          <Trackpoint>
            <Time>2020-05-25T07:24:50.000Z</Time>
            <Position>
              <LatitudeDegrees>38.08901916258037090301513671875</LatitudeDegrees>
              <LongitudeDegrees>-1.16125426255166530609130859375</LongitudeDegrees>
            </Position>
            <AltitudeMeters>211</AltitudeMeters>
            <DistanceMeters>NAN</DistanceMeters>
          </Trackpoint>
          <Trackpoint>
            <Time>2020-05-25T07:24:51.000Z</Time>
            <Position>
              <LatitudeDegrees>38.08897859416902065277099609375</LatitudeDegrees>
              <LongitudeDegrees>-1.16121620871126651763916015625</LongitudeDegrees>
            </Position>
            <AltitudeMeters>210.8000030517578125</AltitudeMeters>
            <DistanceMeters>NAN</DistanceMeters>
          </Trackpoint>
          <Trackpoint>
            <Time>2020-05-25T07:24:52.000Z</Time>
            <Position>
              <LatitudeDegrees>38.08893852867186069488525390625</LatitudeDegrees>
              <LongitudeDegrees>-1.16117547266185283660888671875</LongitudeDegrees>
            </Position>
            <AltitudeMeters>210.8000030517578125</AltitudeMeters>
            <DistanceMeters>NAN</DistanceMeters>
          </Trackpoint>
          <Trackpoint>
            <Time>2020-05-25T07:24:53.000Z</Time>
            <Position>
              <LatitudeDegrees>38.088897205889225006103515625</LatitudeDegrees>
              <LongitudeDegrees>-1.16113591007888317108154296875</LongitudeDegrees>
            </Position>
            <AltitudeMeters>210.600006103515625</AltitudeMeters>
            <DistanceMeters>NAN</DistanceMeters>
          </Trackpoint>
          <Trackpoint>
            <Time>2020-05-25T07:24:54.000Z</Time>
            <Position>
              <LatitudeDegrees>38.08885185979306697845458984375</LatitudeDegrees>
              <LongitudeDegrees>-1.16109668277204036712646484375</LongitudeDegrees>
            </Position>
            <AltitudeMeters>210.399993896484375</AltitudeMeters>
            <DistanceMeters>NAN</DistanceMeters>
          </Trackpoint>
          <Trackpoint>
            <Time>2020-05-25T07:24:55.000Z</Time>
            <Position>
              <LatitudeDegrees>38.0888031609356403350830078125</LatitudeDegrees>
              <LongitudeDegrees>-1.16105728782713413238525390625</LongitudeDegrees>
            </Position>
            <AltitudeMeters>210.1999969482421875</AltitudeMeters>
            <DistanceMeters>NAN</DistanceMeters>
          </Trackpoint>
          <Trackpoint>
            <Time>2020-05-25T07:24:56.000Z</Time>
            <Position>
              <LatitudeDegrees>38.0887533724308013916015625</LatitudeDegrees>
              <LongitudeDegrees>-1.16101806052029132843017578125</LongitudeDegrees>
            </Position>
            <AltitudeMeters>210</AltitudeMeters>
            <DistanceMeters>NAN</DistanceMeters>
          </Trackpoint>
          <Trackpoint>
            <Time>2020-05-25T07:24:57.000Z</Time>
            <Position>
              <LatitudeDegrees>38.08870232664048671722412109375</LatitudeDegrees>
              <LongitudeDegrees>-1.16097874939441680908203125</LongitudeDegrees>
            </Position>
            <AltitudeMeters>209.8000030517578125</AltitudeMeters>
            <DistanceMeters>NAN</DistanceMeters>
          </Trackpoint>
          <Trackpoint>
            <Time>2020-05-25T07:24:58.000Z</Time>
            <Position>
              <LatitudeDegrees>38.08864868246018886566162109375</LatitudeDegrees>
              <LongitudeDegrees>-1.16093960590660572052001953125</LongitudeDegrees>
            </Position>
            <AltitudeMeters>209.600006103515625</AltitudeMeters>
            <DistanceMeters>NAN</DistanceMeters>
          </Trackpoint>
          <Trackpoint>
            <Time>2020-05-25T07:24:59.000Z</Time>
            <Position>
              <LatitudeDegrees>38.08859336189925670623779296875</LatitudeDegrees>
              <LongitudeDegrees>-1.16089602001011371612548828125</LongitudeDegrees>
            </Position>
            <AltitudeMeters>209.399993896484375</AltitudeMeters>
            <DistanceMeters>NAN</DistanceMeters>
          </Trackpoint>
          <Trackpoint>
            <Time>2020-05-25T07:25:00.000Z</Time>
            <Position>
              <LatitudeDegrees>38.0885361135005950927734375</LatitudeDegrees>
              <LongitudeDegrees>-1.1608495004475116729736328125</LongitudeDegrees>
            </Position>
            <AltitudeMeters>209.1999969482421875</AltitudeMeters>
            <DistanceMeters>NAN</DistanceMeters>
          </Trackpoint>
          <Trackpoint>
            <Time>2020-05-25T07:25:01.000Z</Time>
            <Position>
              <LatitudeDegrees>38.08847685344517230987548828125</LatitudeDegrees>
              <LongitudeDegrees>-1.1608023941516876220703125</LongitudeDegrees>
            </Position>
            <AltitudeMeters>209</AltitudeMeters>
            <DistanceMeters>NAN</DistanceMeters>
          </Trackpoint>
          <Trackpoint>
            <Time>2020-05-25T07:25:02.000Z</Time>
            <Position>
              <LatitudeDegrees>38.088415749371051788330078125</LatitudeDegrees>
              <LongitudeDegrees>-1.16075654514133930206298828125</LongitudeDegrees>
            </Position>
            <AltitudeMeters>208.8000030517578125</AltitudeMeters>
            <DistanceMeters>NAN</DistanceMeters>
          </Trackpoint>
          <Trackpoint>
            <Time>2020-05-25T07:25:03.000Z</Time>
            <Position>
              <LatitudeDegrees>38.08835229836404323577880859375</LatitudeDegrees>
              <LongitudeDegrees>-1.1607060022652149200439453125</LongitudeDegrees>
            </Position>
            <AltitudeMeters>208.399993896484375</AltitudeMeters>
            <DistanceMeters>NAN</DistanceMeters>
          </Trackpoint>
          <Trackpoint>
            <Time>2020-05-25T07:25:04.000Z</Time>
            <Position>
              <LatitudeDegrees>38.08828792534768581390380859375</LatitudeDegrees>
              <LongitudeDegrees>-1.16065294481813907623291015625</LongitudeDegrees>
            </Position>
            <AltitudeMeters>208.1999969482421875</AltitudeMeters>
            <DistanceMeters>NAN</DistanceMeters>
          </Trackpoint>
          <Trackpoint>
            <Time>2020-05-25T07:25:05.000Z</Time>
            <Position>
              <LatitudeDegrees>38.08822288177907466888427734375</LatitudeDegrees>
              <LongitudeDegrees>-1.16060064174234867095947265625</LongitudeDegrees>
            </Position>
            <AltitudeMeters>208</AltitudeMeters>
            <DistanceMeters>NAN</DistanceMeters>
          </Trackpoint>
          <Trackpoint>
            <Time>2020-05-25T07:25:06.000Z</Time>
            <Position>
              <LatitudeDegrees>38.0881554074585437774658203125</LatitudeDegrees>
              <LongitudeDegrees>-1.1605470813810825347900390625</LongitudeDegrees>
            </Position>
            <AltitudeMeters>207.600006103515625</AltitudeMeters>
            <DistanceMeters>NAN</DistanceMeters>
          </Trackpoint>
          <Trackpoint>
            <Time>2020-05-25T07:25:07.000Z</Time>
            <Position>
              <LatitudeDegrees>38.08808617293834686279296875</LatitudeDegrees>
              <LongitudeDegrees>-1.1604934372007846832275390625</LongitudeDegrees>
            </Position>
            <AltitudeMeters>207.399993896484375</AltitudeMeters>
            <DistanceMeters>NAN</DistanceMeters>
          </Trackpoint>
          <Trackpoint>
            <Time>2020-05-25T07:25:08.000Z</Time>
            <Position>
              <LatitudeDegrees>38.0880155973136425018310546875</LatitudeDegrees>
              <LongitudeDegrees>-1.16043828427791595458984375</LongitudeDegrees>
            </Position>
            <AltitudeMeters>207</AltitudeMeters>
            <DistanceMeters>NAN</DistanceMeters>
          </Trackpoint>
          <Trackpoint>
            <Time>2020-05-25T07:25:09.000Z</Time>
            <Position>
              <LatitudeDegrees>38.08794560842216014862060546875</LatitudeDegrees>
              <LongitudeDegrees>-1.16038271225988864898681640625</LongitudeDegrees>
            </Position>
            <AltitudeMeters>206.600006103515625</AltitudeMeters>
            <DistanceMeters>NAN</DistanceMeters>
          </Trackpoint>
          <Trackpoint>
            <Time>2020-05-25T07:25:10.000Z</Time>
            <Position>
              <LatitudeDegrees>38.0878736078739166259765625</LatitudeDegrees>
              <LongitudeDegrees>-1.16033141501247882843017578125</LongitudeDegrees>
            </Position>
            <AltitudeMeters>206.399993896484375</AltitudeMeters>
            <DistanceMeters>NAN</DistanceMeters>
          </Trackpoint>
          <Trackpoint>
            <Time>2020-05-25T07:25:11.000Z</Time>
            <Position>
              <LatitudeDegrees>38.0877996794879436492919921875</LatitudeDegrees>
              <LongitudeDegrees>-1.16028229705989360809326171875</LongitudeDegrees>
            </Position>
            <AltitudeMeters>206.1999969482421875</AltitudeMeters>
            <DistanceMeters>NAN</DistanceMeters>
          </Trackpoint>
          <Trackpoint>
            <Time>2020-05-25T07:25:12.000Z</Time>
            <Position>
              <LatitudeDegrees>38.08772181160748004913330078125</LatitudeDegrees>
              <LongitudeDegrees>-1.16023167036473751068115234375</LongitudeDegrees>
            </Position>
            <AltitudeMeters>206.1999969482421875</AltitudeMeters>
            <DistanceMeters>NAN</DistanceMeters>
          </Trackpoint>
          <Trackpoint>
            <Time>2020-05-25T07:25:13.000Z</Time>
            <Position>
              <LatitudeDegrees>38.08764117769896984100341796875</LatitudeDegrees>
              <LongitudeDegrees>-1.16018037311732769012451171875</LongitudeDegrees>
            </Position>
            <AltitudeMeters>206.1999969482421875</AltitudeMeters>
            <DistanceMeters>NAN</DistanceMeters>
          </Trackpoint>
          <Trackpoint>
            <Time>2020-05-25T07:25:14.000Z</Time>
            <Position>
              <LatitudeDegrees>38.087561465799808502197265625</LatitudeDegrees>
              <LongitudeDegrees>-1.16013259626924991607666015625</LongitudeDegrees>
            </Position>
            <AltitudeMeters>206</AltitudeMeters>
            <DistanceMeters>NAN</DistanceMeters>
          </Trackpoint>
          <Trackpoint>
            <Time>2020-05-25T07:25:15.000Z</Time>
            <Position>
              <LatitudeDegrees>38.08748125098645687103271484375</LatitudeDegrees>
              <LongitudeDegrees>-1.160086579620838165283203125</LongitudeDegrees>
            </Position>
            <AltitudeMeters>205.8000030517578125</AltitudeMeters>
            <DistanceMeters>NAN</DistanceMeters>
          </Trackpoint>
          <Trackpoint>
            <Time>2020-05-25T07:25:16.000Z</Time>
            <Position>
              <LatitudeDegrees>38.0874042212963104248046875</LatitudeDegrees>
              <LongitudeDegrees>-1.16004743613302707672119140625</LongitudeDegrees>
            </Position>
            <AltitudeMeters>205.600006103515625</AltitudeMeters>
            <DistanceMeters>NAN</DistanceMeters>
          </Trackpoint>
          <Trackpoint>
            <Time>2020-05-25T07:25:17.000Z</Time>
            <Position>
              <LatitudeDegrees>38.08732769452035427093505859375</LatitudeDegrees>
              <LongitudeDegrees>-1.16001239977777004241943359375</LongitudeDegrees>
            </Position>
            <AltitudeMeters>205.399993896484375</AltitudeMeters>
            <DistanceMeters>NAN</DistanceMeters>
          </Trackpoint>
          <Trackpoint>
            <Time>2020-05-25T07:25:18.000Z</Time>
            <Position>
              <LatitudeDegrees>38.087251670658588409423828125</LatitudeDegrees>
              <LongitudeDegrees>-1.15998105145990848541259765625</LongitudeDegrees>
            </Position>
            <AltitudeMeters>205.1999969482421875</AltitudeMeters>
            <DistanceMeters>NAN</DistanceMeters>
          </Trackpoint>
          <Trackpoint>
            <Time>2020-05-25T07:25:19.000Z</Time>
            <Position>
              <LatitudeDegrees>38.0871747247874736785888671875</LatitudeDegrees>
              <LongitudeDegrees>-1.1599502898752689361572265625</LongitudeDegrees>
            </Position>
            <AltitudeMeters>205</AltitudeMeters>
            <DistanceMeters>NAN</DistanceMeters>
          </Trackpoint>
          <Trackpoint>
            <Time>2020-05-25T07:25:20.000Z</Time>
            <Position>
              <LatitudeDegrees>38.0870984494686126708984375</LatitudeDegrees>
              <LongitudeDegrees>-1.1599199473857879638671875</LongitudeDegrees>
            </Position>
            <AltitudeMeters>204.8000030517578125</AltitudeMeters>
            <DistanceMeters>NAN</DistanceMeters>
          </Trackpoint>
          <Trackpoint>
            <Time>2020-05-25T07:25:21.000Z</Time>
            <Position>
              <LatitudeDegrees>38.0870225094258785247802734375</LatitudeDegrees>
              <LongitudeDegrees>-1.15988717414438724517822265625</LongitudeDegrees>
            </Position>
            <AltitudeMeters>204.600006103515625</AltitudeMeters>
            <DistanceMeters>NAN</DistanceMeters>
          </Trackpoint>
          <Trackpoint>
            <Time>2020-05-25T07:25:22.000Z</Time>
            <Position>
              <LatitudeDegrees>38.086948581039905548095703125</LatitudeDegrees>
              <LongitudeDegrees>-1.15986320190131664276123046875</LongitudeDegrees>
            </Position>
            <AltitudeMeters>204.399993896484375</AltitudeMeters>
            <DistanceMeters>NAN</DistanceMeters>
          </Trackpoint>
          <Trackpoint>
            <Time>2020-05-25T07:25:23.000Z</Time>
            <Position>
              <LatitudeDegrees>38.0868766643106937408447265625</LatitudeDegrees>
              <LongitudeDegrees>-1.15984174422919750213623046875</LongitudeDegrees>
            </Position>
            <AltitudeMeters>204.1999969482421875</AltitudeMeters>
            <DistanceMeters>NAN</DistanceMeters>
          </Trackpoint>
          <Trackpoint>
            <Time>2020-05-25T07:25:24.000Z</Time>
            <Position>
              <LatitudeDegrees>38.086803741753101348876953125</LatitudeDegrees>
              <LongitudeDegrees>-1.1598205380141735076904296875</LongitudeDegrees>
            </Position>
            <AltitudeMeters>204</AltitudeMeters>
            <DistanceMeters>NAN</DistanceMeters>
          </Trackpoint>
          <Trackpoint>
            <Time>2020-05-25T07:25:25.000Z</Time>
            <Position>
              <LatitudeDegrees>38.08673257939517498016357421875</LatitudeDegrees>
              <LongitudeDegrees>-1.159798912703990936279296875</LongitudeDegrees>
            </Position>
            <AltitudeMeters>204</AltitudeMeters>
            <DistanceMeters>NAN</DistanceMeters>
          </Trackpoint>
          <Trackpoint>
            <Time>2020-05-25T07:25:26.000Z</Time>
            <Position>
              <LatitudeDegrees>38.08666250668466091156005859375</LatitudeDegrees>
              <LongitudeDegrees>-1.15977737121284008026123046875</LongitudeDegrees>
            </Position>
            <AltitudeMeters>203.8000030517578125</AltitudeMeters>
            <DistanceMeters>NAN</DistanceMeters>
          </Trackpoint>
          <Trackpoint>
            <Time>2020-05-25T07:25:27.000Z</Time>
            <Position>
              <LatitudeDegrees>38.08659058995544910430908203125</LatitudeDegrees>
              <LongitudeDegrees>-1.15975474007427692413330078125</LongitudeDegrees>
            </Position>
            <AltitudeMeters>203.8000030517578125</AltitudeMeters>
            <DistanceMeters>NAN</DistanceMeters>
          </Trackpoint>
          <Trackpoint>
            <Time>2020-05-25T07:25:28.000Z</Time>
            <Position>
              <LatitudeDegrees>38.08651976287364959716796875</LatitudeDegrees>
              <LongitudeDegrees>-1.15973009727895259857177734375</LongitudeDegrees>
            </Position>
            <AltitudeMeters>203.8000030517578125</AltitudeMeters>
            <DistanceMeters>NAN</DistanceMeters>
          </Trackpoint>
          <Trackpoint>
            <Time>2020-05-25T07:25:29.000Z</Time>
            <Position>
              <LatitudeDegrees>38.086447007954120635986328125</LatitudeDegrees>
              <LongitudeDegrees>-1.15970478393137454986572265625</LongitudeDegrees>
            </Position>
            <AltitudeMeters>203.8000030517578125</AltitudeMeters>
            <DistanceMeters>NAN</DistanceMeters>
          </Trackpoint>
          <Trackpoint>
            <Time>2020-05-25T07:25:30.000Z</Time>
            <Position>
              <LatitudeDegrees>38.0863737501204013824462890625</LatitudeDegrees>
              <LongitudeDegrees>-1.1596813984215259552001953125</LongitudeDegrees>
            </Position>
            <AltitudeMeters>203.8000030517578125</AltitudeMeters>
            <DistanceMeters>NAN</DistanceMeters>
          </Trackpoint>
          <Trackpoint>
            <Time>2020-05-25T07:25:31.000Z</Time>
            <Position>
              <LatitudeDegrees>38.08630208484828472137451171875</LatitudeDegrees>
              <LongitudeDegrees>-1.159659437835216522216796875</LongitudeDegrees>
            </Position>
            <AltitudeMeters>203.8000030517578125</AltitudeMeters>
            <DistanceMeters>NAN</DistanceMeters>
          </Trackpoint>
          <Trackpoint>
            <Time>2020-05-25T07:25:32.000Z</Time>
            <Position>
              <LatitudeDegrees>38.0862309224903583526611328125</LatitudeDegrees>
              <LongitudeDegrees>-1.1596364714205265045166015625</LongitudeDegrees>
            </Position>
            <AltitudeMeters>203.8000030517578125</AltitudeMeters>
            <DistanceMeters>NAN</DistanceMeters>
          </Trackpoint>
          <Trackpoint>
            <Time>2020-05-25T07:25:33.000Z</Time>
            <Position>
              <LatitudeDegrees>38.086160682141780853271484375</LatitudeDegrees>
              <LongitudeDegrees>-1.15961551666259765625</LongitudeDegrees>
            </Position>
            <AltitudeMeters>203.8000030517578125</AltitudeMeters>
            <DistanceMeters>NAN</DistanceMeters>
          </Trackpoint>
          <Trackpoint>
            <Time>2020-05-25T07:25:34.000Z</Time>
            <Position>
              <LatitudeDegrees>38.0860904417932033538818359375</LatitudeDegrees>
              <LongitudeDegrees>-1.159595735371112823486328125</LongitudeDegrees>
            </Position>
            <AltitudeMeters>203.8000030517578125</AltitudeMeters>
            <DistanceMeters>NAN</DistanceMeters>
          </Trackpoint>
          <Trackpoint>
            <Time>2020-05-25T07:25:35.000Z</Time>
            <Position>
              <LatitudeDegrees>38.08602087199687957763671875</LatitudeDegrees>
              <LongitudeDegrees>-1.159574277698993682861328125</LongitudeDegrees>
            </Position>
            <AltitudeMeters>203.8000030517578125</AltitudeMeters>
            <DistanceMeters>NAN</DistanceMeters>
          </Trackpoint>
          <Trackpoint>
            <Time>2020-05-25T07:25:36.000Z</Time>
            <Position>
              <LatitudeDegrees>38.085953481495380401611328125</LatitudeDegrees>
              <LongitudeDegrees>-1.15955315530300140380859375</LongitudeDegrees>
            </Position>
            <AltitudeMeters>203.8000030517578125</AltitudeMeters>
            <DistanceMeters>NAN</DistanceMeters>
          </Trackpoint>
          <Trackpoint>
            <Time>2020-05-25T07:25:37.000Z</Time>
            <Position>
              <LatitudeDegrees>38.08588885702192783355712890625</LatitudeDegrees>
              <LongitudeDegrees>-1.15953437983989715576171875</LongitudeDegrees>
            </Position>
            <AltitudeMeters>204.399993896484375</AltitudeMeters>
            <DistanceMeters>NAN</DistanceMeters>
          </Trackpoint>
          <Trackpoint>
            <Time>2020-05-25T07:25:38.000Z</Time>
            <Position>
              <LatitudeDegrees>38.08582431636750698089599609375</LatitudeDegrees>
              <LongitudeDegrees>-1.15951518528163433074951171875</LongitudeDegrees>
            </Position>
            <AltitudeMeters>205</AltitudeMeters>
            <DistanceMeters>NAN</DistanceMeters>
          </Trackpoint>
          <Trackpoint>
            <Time>2020-05-25T07:25:39.000Z</Time>
            <Position>
              <LatitudeDegrees>38.08576069772243499755859375</LatitudeDegrees>
              <LongitudeDegrees>-1.159495823085308074951171875</LongitudeDegrees>
            </Position>
            <AltitudeMeters>205.8000030517578125</AltitudeMeters>
            <DistanceMeters>NAN</DistanceMeters>
          </Trackpoint>
          <Trackpoint>
            <Time>2020-05-25T07:25:40.000Z</Time>
            <Position>
              <LatitudeDegrees>38.08569909073412418365478515625</LatitudeDegrees>
              <LongitudeDegrees>-1.1594785563647747039794921875</LongitudeDegrees>
            </Position>
            <AltitudeMeters>206.600006103515625</AltitudeMeters>
            <DistanceMeters>NAN</DistanceMeters>
          </Trackpoint>
          <Trackpoint>
            <Time>2020-05-25T07:25:41.000Z</Time>
            <Position>
              <LatitudeDegrees>38.085636980831623077392578125</LatitudeDegrees>
              <LongitudeDegrees>-1.15946355275809764862060546875</LongitudeDegrees>
            </Position>
            <AltitudeMeters>207.399993896484375</AltitudeMeters>
            <DistanceMeters>NAN</DistanceMeters>
          </Trackpoint>
          <Trackpoint>
            <Time>2020-05-25T07:25:42.000Z</Time>
            <Position>
              <LatitudeDegrees>38.08557688258588314056396484375</LatitudeDegrees>
              <LongitudeDegrees>-1.159449554979801177978515625</LongitudeDegrees>
            </Position>
            <AltitudeMeters>208</AltitudeMeters>
            <DistanceMeters>NAN</DistanceMeters>
          </Trackpoint>
          <Trackpoint>
            <Time>2020-05-25T07:25:43.000Z</Time>
            <Position>
              <LatitudeDegrees>38.08551929891109466552734375</LatitudeDegrees>
              <LongitudeDegrees>-1.15943404845893383026123046875</LongitudeDegrees>
            </Position>
            <AltitudeMeters>208.600006103515625</AltitudeMeters>
            <DistanceMeters>NAN</DistanceMeters>
          </Trackpoint>
          <Trackpoint>
            <Time>2020-05-25T07:25:44.000Z</Time>
            <Position>
              <LatitudeDegrees>38.08546372689306735992431640625</LatitudeDegrees>
              <LongitudeDegrees>-1.15941544063389301300048828125</LongitudeDegrees>
            </Position>
            <AltitudeMeters>209.399993896484375</AltitudeMeters>
            <DistanceMeters>NAN</DistanceMeters>
          </Trackpoint>
          <Trackpoint>
            <Time>2020-05-25T07:25:45.000Z</Time>
            <Position>
              <LatitudeDegrees>38.08541025035083293914794921875</LatitudeDegrees>
              <LongitudeDegrees>-1.159394569694995880126953125</LongitudeDegrees>
            </Position>
            <AltitudeMeters>209.8000030517578125</AltitudeMeters>
            <DistanceMeters>NAN</DistanceMeters>
          </Trackpoint>
          <Trackpoint>
            <Time>2020-05-25T07:25:46.000Z</Time>
            <Position>
              <LatitudeDegrees>38.085359036922454833984375</LatitudeDegrees>
              <LongitudeDegrees>-1.1593749560415744781494140625</LongitudeDegrees>
            </Position>
            <AltitudeMeters>210.1999969482421875</AltitudeMeters>
            <DistanceMeters>NAN</DistanceMeters>
          </Trackpoint>
          <Trackpoint>
            <Time>2020-05-25T07:25:47.000Z</Time>
            <Position>
              <LatitudeDegrees>38.085307069122791290283203125</LatitudeDegrees>
              <LongitudeDegrees>-1.15935509093105792999267578125</LongitudeDegrees>
            </Position>
            <AltitudeMeters>210.8000030517578125</AltitudeMeters>
            <DistanceMeters>NAN</DistanceMeters>
          </Trackpoint>
          <Trackpoint>
            <Time>2020-05-25T07:25:48.000Z</Time>
            <Position>
              <LatitudeDegrees>38.0852544307708740234375</LatitudeDegrees>
              <LongitudeDegrees>-1.1593353934586048126220703125</LongitudeDegrees>
            </Position>
            <AltitudeMeters>211.1999969482421875</AltitudeMeters>
            <DistanceMeters>NAN</DistanceMeters>
          </Trackpoint>
          <Trackpoint>
            <Time>2020-05-25T07:25:49.000Z</Time>
            <Position>
              <LatitudeDegrees>38.08520221151411533355712890625</LatitudeDegrees>
              <LongitudeDegrees>-1.1593139357864856719970703125</LongitudeDegrees>
            </Position>
            <AltitudeMeters>211.600006103515625</AltitudeMeters>
            <DistanceMeters>NAN</DistanceMeters>
          </Trackpoint>
          <Trackpoint>
            <Time>2020-05-25T07:25:50.000Z</Time>
            <Position>
              <LatitudeDegrees>38.085153512656688690185546875</LatitudeDegrees>
              <LongitudeDegrees>-1.15928828716278076171875</LongitudeDegrees>
            </Position>
            <AltitudeMeters>212.1999969482421875</AltitudeMeters>
            <DistanceMeters>NAN</DistanceMeters>
          </Trackpoint>
          <Trackpoint>
            <Time>2020-05-25T07:25:51.000Z</Time>
            <Position>
              <LatitudeDegrees>38.08510355651378631591796875</LatitudeDegrees>
              <LongitudeDegrees>-1.15925802849233150482177734375</LongitudeDegrees>
            </Position>
            <AltitudeMeters>212.600006103515625</AltitudeMeters>
            <DistanceMeters>NAN</DistanceMeters>
          </Trackpoint>
          <Trackpoint>
            <Time>2020-05-25T07:25:52.000Z</Time>
            <Position>
              <LatitudeDegrees>38.08505259454250335693359375</LatitudeDegrees>
              <LongitudeDegrees>-1.15922433324158191680908203125</LongitudeDegrees>
            </Position>
            <AltitudeMeters>213</AltitudeMeters>
            <DistanceMeters>NAN</DistanceMeters>
          </Trackpoint>
          <Trackpoint>
            <Time>2020-05-25T07:25:53.000Z</Time>
            <Position>
              <LatitudeDegrees>38.085002638399600982666015625</LatitudeDegrees>
              <LongitudeDegrees>-1.1591902188956737518310546875</LongitudeDegrees>
            </Position>
            <AltitudeMeters>213.600006103515625</AltitudeMeters>
            <DistanceMeters>NAN</DistanceMeters>
          </Trackpoint>
          <Trackpoint>
            <Time>2020-05-25T07:25:54.000Z</Time>
            <Position>
              <LatitudeDegrees>38.0849545262753963470458984375</LatitudeDegrees>
              <LongitudeDegrees>-1.15915426053106784820556640625</LongitudeDegrees>
            </Position>
            <AltitudeMeters>214.1999969482421875</AltitudeMeters>
            <DistanceMeters>NAN</DistanceMeters>
          </Trackpoint>
          <Trackpoint>
            <Time>2020-05-25T07:25:55.000Z</Time>
            <Position>
              <LatitudeDegrees>38.0849052406847476959228515625</LatitudeDegrees>
              <LongitudeDegrees>-1.15911603905260562896728515625</LongitudeDegrees>
            </Position>
            <AltitudeMeters>214.600006103515625</AltitudeMeters>
            <DistanceMeters>NAN</DistanceMeters>
          </Trackpoint>
          <Trackpoint>
            <Time>2020-05-25T07:25:56.000Z</Time>
            <Position>
              <LatitudeDegrees>38.08485989458858966827392578125</LatitudeDegrees>
              <LongitudeDegrees>-1.15906943567097187042236328125</LongitudeDegrees>
            </Position>
            <AltitudeMeters>214.600006103515625</AltitudeMeters>
            <DistanceMeters>NAN</DistanceMeters>
          </Trackpoint>
          <Trackpoint>
            <Time>2020-05-25T07:25:57.000Z</Time>
            <Position>
              <LatitudeDegrees>38.0848173983395099639892578125</LatitudeDegrees>
              <LongitudeDegrees>-1.15901931189000606536865234375</LongitudeDegrees>
            </Position>
            <AltitudeMeters>214.600006103515625</AltitudeMeters>
            <DistanceMeters>NAN</DistanceMeters>
          </Trackpoint>
          <Trackpoint>
            <Time>2020-05-25T07:25:58.000Z</Time>
            <Position>
              <LatitudeDegrees>38.08477900922298431396484375</LatitudeDegrees>
              <LongitudeDegrees>-1.158966086804866790771484375</LongitudeDegrees>
            </Position>
            <AltitudeMeters>214.600006103515625</AltitudeMeters>
            <DistanceMeters>NAN</DistanceMeters>
          </Trackpoint>
          <Trackpoint>
            <Time>2020-05-25T07:25:59.000Z</Time>
            <Position>
              <LatitudeDegrees>38.0847436375916004180908203125</LatitudeDegrees>
              <LongitudeDegrees>-1.158910095691680908203125</LongitudeDegrees>
            </Position>
            <AltitudeMeters>214.600006103515625</AltitudeMeters>
            <DistanceMeters>NAN</DistanceMeters>
          </Trackpoint>
          <Trackpoint>
            <Time>2020-05-25T07:26:00.000Z</Time>
            <Position>
              <LatitudeDegrees>38.08471203781664371490478515625</LatitudeDegrees>
              <LongitudeDegrees>-1.15885100327432155609130859375</LongitudeDegrees>
            </Position>
            <AltitudeMeters>214.8000030517578125</AltitudeMeters>
            <DistanceMeters>NAN</DistanceMeters>
          </Trackpoint>
          <Trackpoint>
            <Time>2020-05-25T07:26:01.000Z</Time>
            <Position>
              <LatitudeDegrees>38.084678761661052703857421875</LatitudeDegrees>
              <LongitudeDegrees>-1.1587892286479473114013671875</LongitudeDegrees>
            </Position>
            <AltitudeMeters>214.8000030517578125</AltitudeMeters>
            <DistanceMeters>NAN</DistanceMeters>
          </Trackpoint>
          <Trackpoint>
            <Time>2020-05-25T07:26:02.000Z</Time>
            <Position>
              <LatitudeDegrees>38.0846487544476985931396484375</LatitudeDegrees>
              <LongitudeDegrees>-1.1587315611541271209716796875</LongitudeDegrees>
            </Position>
            <AltitudeMeters>215</AltitudeMeters>
            <DistanceMeters>NAN</DistanceMeters>
          </Trackpoint>
          <Trackpoint>
            <Time>2020-05-25T07:26:03.000Z</Time>
            <Position>
              <LatitudeDegrees>38.08462201617658138275146484375</LatitudeDegrees>
              <LongitudeDegrees>-1.15866978652775287628173828125</LongitudeDegrees>
            </Position>
            <AltitudeMeters>215</AltitudeMeters>
            <DistanceMeters>NAN</DistanceMeters>
          </Trackpoint>
          <Trackpoint>
            <Time>2020-05-25T07:26:04.000Z</Time>
            <Position>
              <LatitudeDegrees>38.08459670282900333404541015625</LatitudeDegrees>
              <LongitudeDegrees>-1.15860809572041034698486328125</LongitudeDegrees>
            </Position>
            <AltitudeMeters>215</AltitudeMeters>
            <DistanceMeters>NAN</DistanceMeters>
          </Trackpoint>
          <Trackpoint>
            <Time>2020-05-25T07:26:05.000Z</Time>
            <Position>
              <LatitudeDegrees>38.08457222767174243927001953125</LatitudeDegrees>
              <LongitudeDegrees>-1.15854355506598949432373046875</LongitudeDegrees>
            </Position>
            <AltitudeMeters>215</AltitudeMeters>
            <DistanceMeters>NAN</DistanceMeters>
          </Trackpoint>
          <Trackpoint>
            <Time>2020-05-25T07:26:06.000Z</Time>
            <Position>
              <LatitudeDegrees>38.084549345076084136962890625</LatitudeDegrees>
              <LongitudeDegrees>-1.15847851149737834930419921875</LongitudeDegrees>
            </Position>
            <AltitudeMeters>215</AltitudeMeters>
            <DistanceMeters>NAN</DistanceMeters>
          </Trackpoint>
          <Trackpoint>
            <Time>2020-05-25T07:26:07.000Z</Time>
            <Position>
              <LatitudeDegrees>38.08452847413718700408935546875</LatitudeDegrees>
              <LongitudeDegrees>-1.15841313265264034271240234375</LongitudeDegrees>
            </Position>
            <AltitudeMeters>215</AltitudeMeters>
            <DistanceMeters>NAN</DistanceMeters>
          </Trackpoint>
          <Trackpoint>
            <Time>2020-05-25T07:26:08.000Z</Time>
            <Position>
              <LatitudeDegrees>38.08450886048376560211181640625</LatitudeDegrees>
              <LongitudeDegrees>-1.15834507159888744354248046875</LongitudeDegrees>
            </Position>
            <AltitudeMeters>215.1999969482421875</AltitudeMeters>
            <DistanceMeters>NAN</DistanceMeters>
          </Trackpoint>
          <Trackpoint>
            <Time>2020-05-25T07:26:09.000Z</Time>
            <Position>
              <LatitudeDegrees>38.084488324820995330810546875</LatitudeDegrees>
              <LongitudeDegrees>-1.15827583707869052886962890625</LongitudeDegrees>
            </Position>
            <AltitudeMeters>215.1999969482421875</AltitudeMeters>
            <DistanceMeters>NAN</DistanceMeters>
          </Trackpoint>
          <Trackpoint>
            <Time>2020-05-25T07:26:10.000Z</Time>
            <Position>
              <LatitudeDegrees>38.08446695096790790557861328125</LatitudeDegrees>
              <LongitudeDegrees>-1.15820626728236675262451171875</LongitudeDegrees>
            </Position>
            <AltitudeMeters>215.1999969482421875</AltitudeMeters>
            <DistanceMeters>NAN</DistanceMeters>
          </Trackpoint>
          <Trackpoint>
            <Time>2020-05-25T07:26:11.000Z</Time>
            <Position>
              <LatitudeDegrees>38.08444532565772533416748046875</LatitudeDegrees>
              <LongitudeDegrees>-1.15813954733312129974365234375</LongitudeDegrees>
            </Position>
            <AltitudeMeters>215.1999969482421875</AltitudeMeters>
            <DistanceMeters>NAN</DistanceMeters>
          </Trackpoint>
          <Trackpoint>
            <Time>2020-05-25T07:26:12.000Z</Time>
            <Position>
              <LatitudeDegrees>38.0844251252710819244384765625</LatitudeDegrees>
              <LongitudeDegrees>-1.15807131864130496978759765625</LongitudeDegrees>
            </Position>
            <AltitudeMeters>215</AltitudeMeters>
            <DistanceMeters>NAN</DistanceMeters>
          </Trackpoint>
          <Trackpoint>
            <Time>2020-05-25T07:26:13.000Z</Time>
            <Position>
              <LatitudeDegrees>38.0844053439795970916748046875</LatitudeDegrees>
              <LongitudeDegrees>-1.15800040774047374725341796875</LongitudeDegrees>
            </Position>
            <AltitudeMeters>215</AltitudeMeters>
            <DistanceMeters>NAN</DistanceMeters>
          </Trackpoint>
          <Trackpoint>
            <Time>2020-05-25T07:26:14.000Z</Time>
            <Position>
              <LatitudeDegrees>38.08438338339328765869140625</LatitudeDegrees>
              <LongitudeDegrees>-1.15792815573513507843017578125</LongitudeDegrees>
            </Position>
            <AltitudeMeters>214.8000030517578125</AltitudeMeters>
            <DistanceMeters>NAN</DistanceMeters>
          </Trackpoint>
          <Trackpoint>
            <Time>2020-05-25T07:26:15.000Z</Time>
            <Position>
              <LatitudeDegrees>38.0843597464263439178466796875</LatitudeDegrees>
              <LongitudeDegrees>-1.15785724483430385589599609375</LongitudeDegrees>
            </Position>
            <AltitudeMeters>214.8000030517578125</AltitudeMeters>
            <DistanceMeters>NAN</DistanceMeters>
          </Trackpoint>
          <Trackpoint>
            <Time>2020-05-25T07:26:16.000Z</Time>
            <Position>
              <LatitudeDegrees>38.08433644473552703857421875</LatitudeDegrees>
              <LongitudeDegrees>-1.15778599865734577178955078125</LongitudeDegrees>
            </Position>
            <AltitudeMeters>214.8000030517578125</AltitudeMeters>
            <DistanceMeters>NAN</DistanceMeters>
          </Trackpoint>
          <Trackpoint>
            <Time>2020-05-25T07:26:17.000Z</Time>
            <Position>
              <LatitudeDegrees>38.0843138135969638824462890625</LatitudeDegrees>
              <LongitudeDegrees>-1.1577146686613559722900390625</LongitudeDegrees>
            </Position>
            <AltitudeMeters>214.8000030517578125</AltitudeMeters>
            <DistanceMeters>NAN</DistanceMeters>
          </Trackpoint>
          <Trackpoint>
            <Time>2020-05-25T07:26:18.000Z</Time>
            <Position>
              <LatitudeDegrees>38.08429093100130558013916015625</LatitudeDegrees>
              <LongitudeDegrees>-1.1576427519321441650390625</LongitudeDegrees>
            </Position>
            <AltitudeMeters>214.8000030517578125</AltitudeMeters>
            <DistanceMeters>NAN</DistanceMeters>
          </Trackpoint>
          <Trackpoint>
            <Time>2020-05-25T07:26:19.000Z</Time>
            <Position>
              <LatitudeDegrees>38.08427031151950359344482421875</LatitudeDegrees>
              <LongitudeDegrees>-1.1575715057551860809326171875</LongitudeDegrees>
            </Position>
            <AltitudeMeters>214.600006103515625</AltitudeMeters>
            <DistanceMeters>NAN</DistanceMeters>
          </Trackpoint>
          <Trackpoint>
            <Time>2020-05-25T07:26:20.000Z</Time>
            <Position>
              <LatitudeDegrees>38.08425019495189189910888671875</LatitudeDegrees>
              <LongitudeDegrees>-1.157500259578227996826171875</LongitudeDegrees>
            </Position>
            <AltitudeMeters>214.600006103515625</AltitudeMeters>
            <DistanceMeters>NAN</DistanceMeters>
          </Trackpoint>
          <Trackpoint>
            <Time>2020-05-25T07:26:21.000Z</Time>
            <Position>
              <LatitudeDegrees>38.0842303298413753509521484375</LatitudeDegrees>
              <LongitudeDegrees>-1.15742960013449192047119140625</LongitudeDegrees>
            </Position>
            <AltitudeMeters>214.600006103515625</AltitudeMeters>
            <DistanceMeters>NAN</DistanceMeters>
          </Trackpoint>
          <Trackpoint>
            <Time>2020-05-25T07:26:22.000Z</Time>
            <Position>
              <LatitudeDegrees>38.08420979417860507965087890625</LatitudeDegrees>
              <LongitudeDegrees>-1.15736070089042186737060546875</LongitudeDegrees>
            </Position>
            <AltitudeMeters>214.600006103515625</AltitudeMeters>
            <DistanceMeters>NAN</DistanceMeters>
          </Trackpoint>
          <Trackpoint>
            <Time>2020-05-25T07:26:23.000Z</Time>
            <Position>
              <LatitudeDegrees>38.08418892323970794677734375</LatitudeDegrees>
              <LongitudeDegrees>-1.15728978998959064483642578125</LongitudeDegrees>
            </Position>
            <AltitudeMeters>214.600006103515625</AltitudeMeters>
            <DistanceMeters>NAN</DistanceMeters>
          </Trackpoint>
          <Trackpoint>
            <Time>2020-05-25T07:26:24.000Z</Time>
            <Position>
              <LatitudeDegrees>38.0841693095862865447998046875</LatitudeDegrees>
              <LongitudeDegrees>-1.1572174541652202606201171875</LongitudeDegrees>
            </Position>
            <AltitudeMeters>214.8000030517578125</AltitudeMeters>
            <DistanceMeters>NAN</DistanceMeters>
          </Trackpoint>
          <Trackpoint>
            <Time>2020-05-25T07:26:25.000Z</Time>
            <Position>
              <LatitudeDegrees>38.0841505341231822967529296875</LatitudeDegrees>
              <LongitudeDegrees>-1.157144196331501007080078125</LongitudeDegrees>
            </Position>
            <AltitudeMeters>215.1999969482421875</AltitudeMeters>
            <DistanceMeters>NAN</DistanceMeters>
          </Trackpoint>
          <Trackpoint>
            <Time>2020-05-25T07:26:26.000Z</Time>
            <Position>
              <LatitudeDegrees>38.0841324292123317718505859375</LatitudeDegrees>
              <LongitudeDegrees>-1.15707077085971832275390625</LongitudeDegrees>
            </Position>
            <AltitudeMeters>215.399993896484375</AltitudeMeters>
            <DistanceMeters>NAN</DistanceMeters>
          </Trackpoint>
          <Trackpoint>
            <Time>2020-05-25T07:26:27.000Z</Time>
            <Position>
              <LatitudeDegrees>38.08411474339663982391357421875</LatitudeDegrees>
              <LongitudeDegrees>-1.15699642337858676910400390625</LongitudeDegrees>
            </Position>
            <AltitudeMeters>215.600006103515625</AltitudeMeters>
            <DistanceMeters>NAN</DistanceMeters>
          </Trackpoint>
          <Trackpoint>
            <Time>2020-05-25T07:26:28.000Z</Time>
            <Position>
              <LatitudeDegrees>38.08409898541867733001708984375</LatitudeDegrees>
              <LongitudeDegrees>-1.156922243535518646240234375</LongitudeDegrees>
            </Position>
            <AltitudeMeters>215.8000030517578125</AltitudeMeters>
            <DistanceMeters>NAN</DistanceMeters>
          </Trackpoint>
          <Trackpoint>
            <Time>2020-05-25T07:26:29.000Z</Time>
            <Position>
              <LatitudeDegrees>38.084084987640380859375</LatitudeDegrees>
              <LongitudeDegrees>-1.15684487856924533843994140625</LongitudeDegrees>
            </Position>
            <AltitudeMeters>216</AltitudeMeters>
            <DistanceMeters>NAN</DistanceMeters>
          </Trackpoint>
          <Trackpoint>
            <Time>2020-05-25T07:26:30.000Z</Time>
            <Position>
              <LatitudeDegrees>38.0840724147856235504150390625</LatitudeDegrees>
              <LongitudeDegrees>-1.15676902234554290771484375</LongitudeDegrees>
            </Position>
            <AltitudeMeters>216.1999969482421875</AltitudeMeters>
            <DistanceMeters>NAN</DistanceMeters>
          </Trackpoint>
          <Trackpoint>
            <Time>2020-05-25T07:26:31.000Z</Time>
            <Position>
              <LatitudeDegrees>38.0840610153973102569580078125</LatitudeDegrees>
              <LongitudeDegrees>-1.15669232793152332305908203125</LongitudeDegrees>
            </Position>
            <AltitudeMeters>216.399993896484375</AltitudeMeters>
            <DistanceMeters>NAN</DistanceMeters>
          </Trackpoint>
          <Trackpoint>
            <Time>2020-05-25T07:26:32.000Z</Time>
            <Position>
              <LatitudeDegrees>38.08405078947544097900390625</LatitudeDegrees>
              <LongitudeDegrees>-1.15661806426942348480224609375</LongitudeDegrees>
            </Position>
            <AltitudeMeters>216.399993896484375</AltitudeMeters>
            <DistanceMeters>NAN</DistanceMeters>
          </Trackpoint>
          <Trackpoint>
            <Time>2020-05-25T07:26:33.000Z</Time>
            <Position>
              <LatitudeDegrees>38.08404081501066684722900390625</LatitudeDegrees>
              <LongitudeDegrees>-1.15654028020799160003662109375</LongitudeDegrees>
            </Position>
            <AltitudeMeters>216.399993896484375</AltitudeMeters>
            <DistanceMeters>NAN</DistanceMeters>
          </Trackpoint>
          <Trackpoint>
            <Time>2020-05-25T07:26:34.000Z</Time>
            <Position>
              <LatitudeDegrees>38.08403360657393932342529296875</LatitudeDegrees>
              <LongitudeDegrees>-1.15646400488913059234619140625</LongitudeDegrees>
            </Position>
            <AltitudeMeters>216.399993896484375</AltitudeMeters>
            <DistanceMeters>NAN</DistanceMeters>
          </Trackpoint>
          <Trackpoint>
            <Time>2020-05-25T07:26:35.000Z</Time>
            <Position>
              <LatitudeDegrees>38.08402723632752895355224609375</LatitudeDegrees>
              <LongitudeDegrees>-1.1563896574079990386962890625</LongitudeDegrees>
            </Position>
            <AltitudeMeters>216.600006103515625</AltitudeMeters>
            <DistanceMeters>NAN</DistanceMeters>
          </Trackpoint>
          <Trackpoint>
            <Time>2020-05-25T07:26:36.000Z</Time>
            <Position>
              <LatitudeDegrees>38.08402254246175289154052734375</LatitudeDegrees>
              <LongitudeDegrees>-1.1563177406787872314453125</LongitudeDegrees>
            </Position>
            <AltitudeMeters>217</AltitudeMeters>
            <DistanceMeters>NAN</DistanceMeters>
          </Trackpoint>
          <Trackpoint>
            <Time>2020-05-25T07:26:37.000Z</Time>
            <Position>
              <LatitudeDegrees>38.0840160883963108062744140625</LatitudeDegrees>
              <LongitudeDegrees>-1.15624724887311458587646484375</LongitudeDegrees>
            </Position>
            <AltitudeMeters>217.399993896484375</AltitudeMeters>
            <DistanceMeters>NAN</DistanceMeters>
          </Trackpoint>
          <Trackpoint>
            <Time>2020-05-25T07:26:38.000Z</Time>
            <Position>
              <LatitudeDegrees>38.0840098857879638671875</LatitudeDegrees>
              <LongitudeDegrees>-1.15618019364774227142333984375</LongitudeDegrees>
            </Position>
            <AltitudeMeters>217.8000030517578125</AltitudeMeters>
            <DistanceMeters>NAN</DistanceMeters>
          </Trackpoint>
          <Trackpoint>
            <Time>2020-05-25T07:26:39.000Z</Time>
            <Position>
              <LatitudeDegrees>38.08400644920766353607177734375</LatitudeDegrees>
              <LongitudeDegrees>-1.15611582063138484954833984375</LongitudeDegrees>
            </Position>
            <AltitudeMeters>218.1999969482421875</AltitudeMeters>
            <DistanceMeters>NAN</DistanceMeters>
          </Trackpoint>
          <Trackpoint>
            <Time>2020-05-25T07:26:40.000Z</Time>
            <Position>
              <LatitudeDegrees>38.0840023420751094818115234375</LatitudeDegrees>
              <LongitudeDegrees>-1.156051196157932281494140625</LongitudeDegrees>
            </Position>
            <AltitudeMeters>218.399993896484375</AltitudeMeters>
            <DistanceMeters>NAN</DistanceMeters>
          </Trackpoint>
          <Trackpoint>
            <Time>2020-05-25T07:26:41.000Z</Time>
            <Position>
              <LatitudeDegrees>38.08399739675223827362060546875</LatitudeDegrees>
              <LongitudeDegrees>-1.1559863202273845672607421875</LongitudeDegrees>
            </Position>
            <AltitudeMeters>218.8000030517578125</AltitudeMeters>
            <DistanceMeters>NAN</DistanceMeters>
          </Trackpoint>
          <Trackpoint>
            <Time>2020-05-25T07:26:42.000Z</Time>
            <Position>
              <LatitudeDegrees>38.08399043977260589599609375</LatitudeDegrees>
              <LongitudeDegrees>-1.1559226177632808685302734375</LongitudeDegrees>
            </Position>
            <AltitudeMeters>219.1999969482421875</AltitudeMeters>
            <DistanceMeters>NAN</DistanceMeters>
          </Trackpoint>
          <Trackpoint>
            <Time>2020-05-25T07:26:43.000Z</Time>
            <Position>
              <LatitudeDegrees>38.0839844048023223876953125</LatitudeDegrees>
              <LongitudeDegrees>-1.1558599211275577545166015625</LongitudeDegrees>
            </Position>
            <AltitudeMeters>219.600006103515625</AltitudeMeters>
            <DistanceMeters>NAN</DistanceMeters>
          </Trackpoint>
          <Trackpoint>
            <Time>2020-05-25T07:26:44.000Z</Time>
            <Position>
              <LatitudeDegrees>38.0839802138507366180419921875</LatitudeDegrees>
              <LongitudeDegrees>-1.15579529665410518646240234375</LongitudeDegrees>
            </Position>
            <AltitudeMeters>220</AltitudeMeters>
            <DistanceMeters>NAN</DistanceMeters>
          </Trackpoint>
          <Trackpoint>
            <Time>2020-05-25T07:26:45.000Z</Time>
            <Position>
              <LatitudeDegrees>38.083976693451404571533203125</LatitudeDegrees>
              <LongitudeDegrees>-1.15572941489517688751220703125</LongitudeDegrees>
            </Position>
            <AltitudeMeters>220.399993896484375</AltitudeMeters>
            <DistanceMeters>NAN</DistanceMeters>
          </Trackpoint>
          <Trackpoint>
            <Time>2020-05-25T07:26:46.000Z</Time>
            <Position>
              <LatitudeDegrees>38.08397174812853336334228515625</LatitudeDegrees>
              <LongitudeDegrees>-1.1556621082127094268798828125</LongitudeDegrees>
            </Position>
            <AltitudeMeters>220.8000030517578125</AltitudeMeters>
            <DistanceMeters>NAN</DistanceMeters>
          </Trackpoint>
          <Trackpoint>
            <Time>2020-05-25T07:26:47.000Z</Time>
            <Position>
              <LatitudeDegrees>38.08396806009113788604736328125</LatitudeDegrees>
              <LongitudeDegrees>-1.15559421479701995849609375</LongitudeDegrees>
            </Position>
            <AltitudeMeters>221.1999969482421875</AltitudeMeters>
            <DistanceMeters>NAN</DistanceMeters>
          </Trackpoint>
          <Trackpoint>
            <Time>2020-05-25T07:26:48.000Z</Time>
            <Position>
              <LatitudeDegrees>38.08396495878696441650390625</LatitudeDegrees>
              <LongitudeDegrees>-1.15552573464810848236083984375</LongitudeDegrees>
            </Position>
            <AltitudeMeters>221.1999969482421875</AltitudeMeters>
            <DistanceMeters>NAN</DistanceMeters>
          </Trackpoint>
          <Trackpoint>
            <Time>2020-05-25T07:26:49.000Z</Time>
            <Position>
              <LatitudeDegrees>38.08396269567310810089111328125</LatitudeDegrees>
              <LongitudeDegrees>-1.155455075204372406005859375</LongitudeDegrees>
            </Position>
            <AltitudeMeters>221.399993896484375</AltitudeMeters>
            <DistanceMeters>NAN</DistanceMeters>
          </Trackpoint>
          <Trackpoint>
            <Time>2020-05-25T07:26:50.000Z</Time>
            <Position>
              <LatitudeDegrees>38.0839577503502368927001953125</LatitudeDegrees>
              <LongitudeDegrees>-1.1553843319416046142578125</LongitudeDegrees>
            </Position>
            <AltitudeMeters>221.399993896484375</AltitudeMeters>
            <DistanceMeters>NAN</DistanceMeters>
          </Trackpoint>
          <Trackpoint>
            <Time>2020-05-25T07:26:51.000Z</Time>
            <Position>
              <LatitudeDegrees>38.08395062573254108428955078125</LatitudeDegrees>
              <LongitudeDegrees>-1.1553132534027099609375</LongitudeDegrees>
            </Position>
            <AltitudeMeters>221.600006103515625</AltitudeMeters>
            <DistanceMeters>NAN</DistanceMeters>
          </Trackpoint>
          <Trackpoint>
            <Time>2020-05-25T07:26:52.000Z</Time>
            <Position>
              <LatitudeDegrees>38.08394626714289188385009765625</LatitudeDegrees>
              <LongitudeDegrees>-1.1552413366734981536865234375</LongitudeDegrees>
            </Position>
            <AltitudeMeters>221.8000030517578125</AltitudeMeters>
            <DistanceMeters>NAN</DistanceMeters>
          </Trackpoint>
          <Trackpoint>
            <Time>2020-05-25T07:26:53.000Z</Time>
            <Position>
              <LatitudeDegrees>38.08394090272486209869384765625</LatitudeDegrees>
              <LongitudeDegrees>-1.15517050959169864654541015625</LongitudeDegrees>
            </Position>
            <AltitudeMeters>221.8000030517578125</AltitudeMeters>
            <DistanceMeters>NAN</DistanceMeters>
          </Trackpoint>
          <Trackpoint>
            <Time>2020-05-25T07:26:54.000Z</Time>
            <Position>
              <LatitudeDegrees>38.083934783935546875</LatitudeDegrees>
              <LongitudeDegrees>-1.15510010160505771636962890625</LongitudeDegrees>
            </Position>
            <AltitudeMeters>222</AltitudeMeters>
            <DistanceMeters>NAN</DistanceMeters>
          </Trackpoint>
          <Trackpoint>
            <Time>2020-05-25T07:26:55.000Z</Time>
            <Position>
              <LatitudeDegrees>38.08392765931785106658935546875</LatitudeDegrees>
              <LongitudeDegrees>-1.155028603971004486083984375</LongitudeDegrees>
            </Position>
            <AltitudeMeters>222.399993896484375</AltitudeMeters>
            <DistanceMeters>NAN</DistanceMeters>
          </Trackpoint>
          <Trackpoint>
            <Time>2020-05-25T07:26:56.000Z</Time>
            <Position>
              <LatitudeDegrees>38.08392212726175785064697265625</LatitudeDegrees>
              <LongitudeDegrees>-1.15495827980339527130126953125</LongitudeDegrees>
            </Position>
            <AltitudeMeters>222.8000030517578125</AltitudeMeters>
            <DistanceMeters>NAN</DistanceMeters>
          </Trackpoint>
          <Trackpoint>
            <Time>2020-05-25T07:26:57.000Z</Time>
            <Position>
              <LatitudeDegrees>38.08391726575791835784912109375</LatitudeDegrees>
              <LongitudeDegrees>-1.15489088930189609527587890625</LongitudeDegrees>
            </Position>
            <AltitudeMeters>223.1999969482421875</AltitudeMeters>
            <DistanceMeters>NAN</DistanceMeters>
          </Trackpoint>
          <Trackpoint>
            <Time>2020-05-25T07:26:58.000Z</Time>
            <Position>
              <LatitudeDegrees>38.08391223661601543426513671875</LatitudeDegrees>
              <LongitudeDegrees>-1.15482383407652378082275390625</LongitudeDegrees>
            </Position>
            <AltitudeMeters>223.600006103515625</AltitudeMeters>
            <DistanceMeters>NAN</DistanceMeters>
          </Trackpoint>
          <Trackpoint>
            <Time>2020-05-25T07:26:59.000Z</Time>
            <Position>
              <LatitudeDegrees>38.083907626569271087646484375</LatitudeDegrees>
              <LongitudeDegrees>-1.15475627593696117401123046875</LongitudeDegrees>
            </Position>
            <AltitudeMeters>223.8000030517578125</AltitudeMeters>
            <DistanceMeters>NAN</DistanceMeters>
          </Trackpoint>
          <Trackpoint>
            <Time>2020-05-25T07:27:00.000Z</Time>
            <Position>
              <LatitudeDegrees>38.083905279636383056640625</LatitudeDegrees>
              <LongitudeDegrees>-1.15468989126384258270263671875</LongitudeDegrees>
            </Position>
            <AltitudeMeters>224</AltitudeMeters>
            <DistanceMeters>NAN</DistanceMeters>
          </Trackpoint>
          <Trackpoint>
            <Time>2020-05-25T07:27:01.000Z</Time>
            <Position>
              <LatitudeDegrees>38.0839014239609241485595703125</LatitudeDegrees>
              <LongitudeDegrees>-1.15462317131459712982177734375</LongitudeDegrees>
            </Position>
            <AltitudeMeters>224.1999969482421875</AltitudeMeters>
            <DistanceMeters>NAN</DistanceMeters>
          </Trackpoint>
          <Trackpoint>
            <Time>2020-05-25T07:27:02.000Z</Time>
            <Position>
              <LatitudeDegrees>38.083895556628704071044921875</LatitudeDegrees>
              <LongitudeDegrees>-1.154556535184383392333984375</LongitudeDegrees>
            </Position>
            <AltitudeMeters>224.600006103515625</AltitudeMeters>
            <DistanceMeters>NAN</DistanceMeters>
          </Trackpoint>
          <Trackpoint>
            <Time>2020-05-25T07:27:03.000Z</Time>
            <Position>
              <LatitudeDegrees>38.08389010839164257049560546875</LatitudeDegrees>
              <LongitudeDegrees>-1.1544866301119327545166015625</LongitudeDegrees>
            </Position>
            <AltitudeMeters>224.8000030517578125</AltitudeMeters>
            <DistanceMeters>NAN</DistanceMeters>
          </Trackpoint>
          <Trackpoint>
            <Time>2020-05-25T07:27:04.000Z</Time>
            <Position>
              <LatitudeDegrees>38.08388390578329563140869140625</LatitudeDegrees>
              <LongitudeDegrees>-1.1544145457446575164794921875</LongitudeDegrees>
            </Position>
            <AltitudeMeters>225</AltitudeMeters>
            <DistanceMeters>NAN</DistanceMeters>
          </Trackpoint>
          <Trackpoint>
            <Time>2020-05-25T07:27:05.000Z</Time>
            <Position>
              <LatitudeDegrees>38.0838792957365512847900390625</LatitudeDegrees>
              <LongitudeDegrees>-1.15434430539608001708984375</LongitudeDegrees>
            </Position>
            <AltitudeMeters>225.1999969482421875</AltitudeMeters>
            <DistanceMeters>NAN</DistanceMeters>
          </Trackpoint>
          <Trackpoint>
            <Time>2020-05-25T07:27:06.000Z</Time>
            <Position>
              <LatitudeDegrees>38.083870410919189453125</LatitudeDegrees>
              <LongitudeDegrees>-1.1542754061520099639892578125</LongitudeDegrees>
            </Position>
            <AltitudeMeters>225</AltitudeMeters>
            <DistanceMeters>NAN</DistanceMeters>
          </Trackpoint>
          <Trackpoint>
            <Time>2020-05-25T07:27:07.000Z</Time>
            <Position>
              <LatitudeDegrees>38.0838637053966522216796875</LatitudeDegrees>
              <LongitudeDegrees>-1.15420675836503505706787109375</LongitudeDegrees>
            </Position>
            <AltitudeMeters>224.8000030517578125</AltitudeMeters>
            <DistanceMeters>NAN</DistanceMeters>
          </Trackpoint>
          <Trackpoint>
            <Time>2020-05-25T07:27:08.000Z</Time>
            <Position>
              <LatitudeDegrees>38.08385825715959072113037109375</LatitudeDegrees>
              <LongitudeDegrees>-1.1541397869586944580078125</LongitudeDegrees>
            </Position>
            <AltitudeMeters>224.600006103515625</AltitudeMeters>
            <DistanceMeters>NAN</DistanceMeters>
          </Trackpoint>
          <Trackpoint>
            <Time>2020-05-25T07:27:09.000Z</Time>
            <Position>
              <LatitudeDegrees>38.08385138399899005889892578125</LatitudeDegrees>
              <LongitudeDegrees>-1.15407382138073444366455078125</LongitudeDegrees>
            </Position>
            <AltitudeMeters>224.399993896484375</AltitudeMeters>
            <DistanceMeters>NAN</DistanceMeters>
          </Trackpoint>
          <Trackpoint>
            <Time>2020-05-25T07:27:10.000Z</Time>
            <Position>
              <LatitudeDegrees>38.08384501375257968902587890625</LatitudeDegrees>
              <LongitudeDegrees>-1.15400441922247409820556640625</LongitudeDegrees>
            </Position>
            <AltitudeMeters>224.1999969482421875</AltitudeMeters>
            <DistanceMeters>NAN</DistanceMeters>
          </Trackpoint>
          <Trackpoint>
            <Time>2020-05-25T07:27:11.000Z</Time>
            <Position>
              <LatitudeDegrees>38.08383889496326446533203125</LatitudeDegrees>
              <LongitudeDegrees>-1.15393602289259433746337890625</LongitudeDegrees>
            </Position>
            <AltitudeMeters>224</AltitudeMeters>
            <DistanceMeters>NAN</DistanceMeters>
          </Trackpoint>
          <Trackpoint>
            <Time>2020-05-25T07:27:12.000Z</Time>
            <Position>
              <LatitudeDegrees>38.08383311145007610321044921875</LatitudeDegrees>
              <LongitudeDegrees>-1.15386729128658771514892578125</LongitudeDegrees>
            </Position>
            <AltitudeMeters>224.1999969482421875</AltitudeMeters>
            <DistanceMeters>NAN</DistanceMeters>
          </Trackpoint>
          <Trackpoint>
            <Time>2020-05-25T07:27:13.000Z</Time>
            <Position>
              <LatitudeDegrees>38.08382682502269744873046875</LatitudeDegrees>
              <LongitudeDegrees>-1.15380124188959598541259765625</LongitudeDegrees>
            </Position>
            <AltitudeMeters>224.399993896484375</AltitudeMeters>
            <DistanceMeters>NAN</DistanceMeters>
          </Trackpoint>
          <Trackpoint>
            <Time>2020-05-25T07:27:14.000Z</Time>
            <Position>
              <LatitudeDegrees>38.08382087387144565582275390625</LatitudeDegrees>
              <LongitudeDegrees>-1.1537369526922702789306640625</LongitudeDegrees>
            </Position>
            <AltitudeMeters>224.600006103515625</AltitudeMeters>
            <DistanceMeters>NAN</DistanceMeters>
          </Trackpoint>
          <Trackpoint>
            <Time>2020-05-25T07:27:15.000Z</Time>
            <Position>
              <LatitudeDegrees>38.08381433598697185516357421875</LatitudeDegrees>
              <LongitudeDegrees>-1.15367266349494457244873046875</LongitudeDegrees>
            </Position>
            <AltitudeMeters>224.8000030517578125</AltitudeMeters>
            <DistanceMeters>NAN</DistanceMeters>
          </Trackpoint>
          <Trackpoint>
            <Time>2020-05-25T07:27:16.000Z</Time>
            <Position>
              <LatitudeDegrees>38.0838075466454029083251953125</LatitudeDegrees>
              <LongitudeDegrees>-1.15360996685922145843505859375</LongitudeDegrees>
            </Position>
            <AltitudeMeters>225</AltitudeMeters>
            <DistanceMeters>NAN</DistanceMeters>
          </Trackpoint>
          <Trackpoint>
            <Time>2020-05-25T07:27:17.000Z</Time>
            <Position>
              <LatitudeDegrees>38.08379924856126308441162109375</LatitudeDegrees>
              <LongitudeDegrees>-1.15354877896606922149658203125</LongitudeDegrees>
            </Position>
            <AltitudeMeters>225</AltitudeMeters>
            <DistanceMeters>NAN</DistanceMeters>
          </Trackpoint>
          <Trackpoint>
            <Time>2020-05-25T07:27:18.000Z</Time>
            <Position>
              <LatitudeDegrees>38.08378851972520351409912109375</LatitudeDegrees>
              <LongitudeDegrees>-1.1534881778061389923095703125</LongitudeDegrees>
            </Position>
            <AltitudeMeters>225</AltitudeMeters>
            <DistanceMeters>NAN</DistanceMeters>
          </Trackpoint>
          <Trackpoint>
            <Time>2020-05-25T07:27:19.000Z</Time>
            <Position>
              <LatitudeDegrees>38.0837778747081756591796875</LatitudeDegrees>
              <LongitudeDegrees>-1.15342707373201847076416015625</LongitudeDegrees>
            </Position>
            <AltitudeMeters>225</AltitudeMeters>
            <DistanceMeters>NAN</DistanceMeters>
          </Trackpoint>
          <Trackpoint>
            <Time>2020-05-25T07:27:20.000Z</Time>
            <Position>
              <LatitudeDegrees>38.083771169185638427734375</LatitudeDegrees>
              <LongitudeDegrees>-1.15336890332400798797607421875</LongitudeDegrees>
            </Position>
            <AltitudeMeters>225</AltitudeMeters>
            <DistanceMeters>NAN</DistanceMeters>
          </Trackpoint>
          <Trackpoint>
            <Time>2020-05-25T07:27:21.000Z</Time>
            <Position>
              <LatitudeDegrees>38.0837592668831348419189453125</LatitudeDegrees>
              <LongitudeDegrees>-1.153309978544712066650390625</LongitudeDegrees>
            </Position>
            <AltitudeMeters>224.8000030517578125</AltitudeMeters>
            <DistanceMeters>NAN</DistanceMeters>
          </Trackpoint>
          <Trackpoint>
            <Time>2020-05-25T07:27:22.000Z</Time>
            <Position>
              <LatitudeDegrees>38.08374702930450439453125</LatitudeDegrees>
              <LongitudeDegrees>-1.1532521434128284454345703125</LongitudeDegrees>
            </Position>
            <AltitudeMeters>224.8000030517578125</AltitudeMeters>
            <DistanceMeters>NAN</DistanceMeters>
          </Trackpoint>
          <Trackpoint>
            <Time>2020-05-25T07:27:23.000Z</Time>
            <Position>
              <LatitudeDegrees>38.083739317953586578369140625</LatitudeDegrees>
              <LongitudeDegrees>-1.15319573320448398590087890625</LongitudeDegrees>
            </Position>
            <AltitudeMeters>224.8000030517578125</AltitudeMeters>
            <DistanceMeters>NAN</DistanceMeters>
          </Trackpoint>
          <Trackpoint>
            <Time>2020-05-25T07:27:24.000Z</Time>
            <Position>
              <LatitudeDegrees>38.0837304331362247467041015625</LatitudeDegrees>
              <LongitudeDegrees>-1.15314074791967868804931640625</LongitudeDegrees>
            </Position>
            <AltitudeMeters>224.600006103515625</AltitudeMeters>
            <DistanceMeters>NAN</DistanceMeters>
          </Trackpoint>
          <Trackpoint>
            <Time>2020-05-25T07:27:25.000Z</Time>
            <Position>
              <LatitudeDegrees>38.08371274732053279876708984375</LatitudeDegrees>
              <LongitudeDegrees>-1.15309037268161773681640625</LongitudeDegrees>
            </Position>
            <AltitudeMeters>224.600006103515625</AltitudeMeters>
            <DistanceMeters>NAN</DistanceMeters>
          </Trackpoint>
          <Trackpoint>
            <Time>2020-05-25T07:27:26.000Z</Time>
            <Position>
              <LatitudeDegrees>38.08368877507746219635009765625</LatitudeDegrees>
              <LongitudeDegrees>-1.1530436016619205474853515625</LongitudeDegrees>
            </Position>
            <AltitudeMeters>224.8000030517578125</AltitudeMeters>
            <DistanceMeters>NAN</DistanceMeters>
          </Trackpoint>
          <Trackpoint>
            <Time>2020-05-25T07:27:27.000Z</Time>
            <Position>
              <LatitudeDegrees>38.0836610309779644012451171875</LatitudeDegrees>
              <LongitudeDegrees>-1.15300026722252368927001953125</LongitudeDegrees>
            </Position>
            <AltitudeMeters>224.8000030517578125</AltitudeMeters>
            <DistanceMeters>NAN</DistanceMeters>
          </Trackpoint>
          <Trackpoint>
            <Time>2020-05-25T07:27:28.000Z</Time>
            <Position>
              <LatitudeDegrees>38.0836301855742931365966796875</LatitudeDegrees>
              <LongitudeDegrees>-1.152957938611507415771484375</LongitudeDegrees>
            </Position>
            <AltitudeMeters>225</AltitudeMeters>
            <DistanceMeters>NAN</DistanceMeters>
          </Trackpoint>
          <Trackpoint>
            <Time>2020-05-25T07:27:29.000Z</Time>
            <Position>
              <LatitudeDegrees>38.0835959874093532562255859375</LatitudeDegrees>
              <LongitudeDegrees>-1.152923405170440673828125</LongitudeDegrees>
            </Position>
            <AltitudeMeters>225</AltitudeMeters>
            <DistanceMeters>NAN</DistanceMeters>
          </Trackpoint>
          <Trackpoint>
            <Time>2020-05-25T07:27:30.000Z</Time>
            <Position>
              <LatitudeDegrees>38.08356103487312793731689453125</LatitudeDegrees>
              <LongitudeDegrees>-1.15289054811000823974609375</LongitudeDegrees>
            </Position>
            <AltitudeMeters>225.1999969482421875</AltitudeMeters>
            <DistanceMeters>NAN</DistanceMeters>
          </Trackpoint>
          <Trackpoint>
            <Time>2020-05-25T07:27:31.000Z</Time>
            <Position>
              <LatitudeDegrees>38.083522729575634002685546875</LatitudeDegrees>
              <LongitudeDegrees>-1.1528575234115123748779296875</LongitudeDegrees>
            </Position>
            <AltitudeMeters>225.399993896484375</AltitudeMeters>
            <DistanceMeters>NAN</DistanceMeters>
          </Trackpoint>
          <Trackpoint>
            <Time>2020-05-25T07:27:32.000Z</Time>
            <Position>
              <LatitudeDegrees>38.083481490612030029296875</LatitudeDegrees>
              <LongitudeDegrees>-1.15282508544623851776123046875</LongitudeDegrees>
            </Position>
            <AltitudeMeters>225.600006103515625</AltitudeMeters>
            <DistanceMeters>NAN</DistanceMeters>
          </Trackpoint>
          <Trackpoint>
            <Time>2020-05-25T07:27:33.000Z</Time>
            <Position>
              <LatitudeDegrees>38.08344033546745777130126953125</LatitudeDegrees>
              <LongitudeDegrees>-1.1527928151190280914306640625</LongitudeDegrees>
            </Position>
            <AltitudeMeters>225.8000030517578125</AltitudeMeters>
            <DistanceMeters>NAN</DistanceMeters>
          </Trackpoint>
          <Trackpoint>
            <Time>2020-05-25T07:27:34.000Z</Time>
            <Position>
              <LatitudeDegrees>38.08340060524642467498779296875</LatitudeDegrees>
              <LongitudeDegrees>-1.15275803022086620330810546875</LongitudeDegrees>
            </Position>
            <AltitudeMeters>226</AltitudeMeters>
            <DistanceMeters>NAN</DistanceMeters>
          </Trackpoint>
          <Trackpoint>
            <Time>2020-05-25T07:27:35.000Z</Time>
            <Position>
              <LatitudeDegrees>38.083360455930233001708984375</LatitudeDegrees>
              <LongitudeDegrees>-1.15272114984691143035888671875</LongitudeDegrees>
            </Position>
            <AltitudeMeters>226.1999969482421875</AltitudeMeters>
            <DistanceMeters>NAN</DistanceMeters>
          </Trackpoint>
          <Trackpoint>
            <Time>2020-05-25T07:27:36.000Z</Time>
            <Position>
              <LatitudeDegrees>38.08331854641437530517578125</LatitudeDegrees>
              <LongitudeDegrees>-1.15268494002521038055419921875</LongitudeDegrees>
            </Position>
            <AltitudeMeters>226.600006103515625</AltitudeMeters>
            <DistanceMeters>NAN</DistanceMeters>
          </Trackpoint>
          <Trackpoint>
            <Time>2020-05-25T07:27:37.000Z</Time>
            <Position>
              <LatitudeDegrees>38.083275295794010162353515625</LatitudeDegrees>
              <LongitudeDegrees>-1.152650155127048492431640625</LongitudeDegrees>
            </Position>
            <AltitudeMeters>226.8000030517578125</AltitudeMeters>
            <DistanceMeters>NAN</DistanceMeters>
          </Trackpoint>
          <Trackpoint>
            <Time>2020-05-25T07:27:38.000Z</Time>
            <Position>
              <LatitudeDegrees>38.083232380449771881103515625</LatitudeDegrees>
              <LongitudeDegrees>-1.15261562168598175048828125</LongitudeDegrees>
            </Position>
            <AltitudeMeters>227.1999969482421875</AltitudeMeters>
            <DistanceMeters>NAN</DistanceMeters>
          </Trackpoint>
          <Trackpoint>
            <Time>2020-05-25T07:27:39.000Z</Time>
            <Position>
              <LatitudeDegrees>38.08318938128650188446044921875</LatitudeDegrees>
              <LongitudeDegrees>-1.152581758797168731689453125</LongitudeDegrees>
            </Position>
            <AltitudeMeters>227.399993896484375</AltitudeMeters>
            <DistanceMeters>NAN</DistanceMeters>
          </Trackpoint>
          <Trackpoint>
            <Time>2020-05-25T07:27:40.000Z</Time>
            <Position>
              <LatitudeDegrees>38.0831460468471050262451171875</LatitudeDegrees>
              <LongitudeDegrees>-1.1525465548038482666015625</LongitudeDegrees>
            </Position>
            <AltitudeMeters>227.600006103515625</AltitudeMeters>
            <DistanceMeters>NAN</DistanceMeters>
          </Trackpoint>
          <Trackpoint>
            <Time>2020-05-25T07:27:41.000Z</Time>
            <Position>
              <LatitudeDegrees>38.0831014551222324371337890625</LatitudeDegrees>
              <LongitudeDegrees>-1.15251461975276470184326171875</LongitudeDegrees>
            </Position>
            <AltitudeMeters>227.600006103515625</AltitudeMeters>
            <DistanceMeters>NAN</DistanceMeters>
          </Trackpoint>
          <Trackpoint>
            <Time>2020-05-25T07:27:42.000Z</Time>
            <Position>
              <LatitudeDegrees>38.08305812068283557891845703125</LatitudeDegrees>
              <LongitudeDegrees>-1.15248343907296657562255859375</LongitudeDegrees>
            </Position>
            <AltitudeMeters>227.600006103515625</AltitudeMeters>
            <DistanceMeters>NAN</DistanceMeters>
          </Trackpoint>
          <Trackpoint>
            <Time>2020-05-25T07:27:43.000Z</Time>
            <Position>
              <LatitudeDegrees>38.0830134451389312744140625</LatitudeDegrees>
              <LongitudeDegrees>-1.15245225839316844940185546875</LongitudeDegrees>
            </Position>
            <AltitudeMeters>227.8000030517578125</AltitudeMeters>
            <DistanceMeters>NAN</DistanceMeters>
          </Trackpoint>
          <Trackpoint>
            <Time>2020-05-25T07:27:44.000Z</Time>
            <Position>
              <LatitudeDegrees>38.0829683504998683929443359375</LatitudeDegrees>
              <LongitudeDegrees>-1.15242040716111660003662109375</LongitudeDegrees>
            </Position>
            <AltitudeMeters>227.8000030517578125</AltitudeMeters>
            <DistanceMeters>NAN</DistanceMeters>
          </Trackpoint>
          <Trackpoint>
            <Time>2020-05-25T07:27:45.000Z</Time>
            <Position>
              <LatitudeDegrees>38.08292292058467864990234375</LatitudeDegrees>
              <LongitudeDegrees>-1.1523891426622867584228515625</LongitudeDegrees>
            </Position>
            <AltitudeMeters>227.8000030517578125</AltitudeMeters>
            <DistanceMeters>NAN</DistanceMeters>
          </Trackpoint>
          <Trackpoint>
            <Time>2020-05-25T07:27:46.000Z</Time>
            <Position>
              <LatitudeDegrees>38.08287656866014003753662109375</LatitudeDegrees>
              <LongitudeDegrees>-1.1523569561541080474853515625</LongitudeDegrees>
            </Position>
            <AltitudeMeters>227.8000030517578125</AltitudeMeters>
            <DistanceMeters>NAN</DistanceMeters>
          </Trackpoint>
          <Trackpoint>
            <Time>2020-05-25T07:27:47.000Z</Time>
            <Position>
              <LatitudeDegrees>38.08282912708818912506103515625</LatitudeDegrees>
              <LongitudeDegrees>-1.15232602693140506744384765625</LongitudeDegrees>
            </Position>
            <AltitudeMeters>227.8000030517578125</AltitudeMeters>
            <DistanceMeters>NAN</DistanceMeters>
          </Trackpoint>
          <Trackpoint>
            <Time>2020-05-25T07:27:48.000Z</Time>
            <Position>
              <LatitudeDegrees>38.08278084732592105865478515625</LatitudeDegrees>
              <LongitudeDegrees>-1.1522949300706386566162109375</LongitudeDegrees>
            </Position>
            <AltitudeMeters>227.8000030517578125</AltitudeMeters>
            <DistanceMeters>NAN</DistanceMeters>
          </Trackpoint>
          <Trackpoint>
            <Time>2020-05-25T07:27:49.000Z</Time>
            <Position>
              <LatitudeDegrees>38.08273374103009700775146484375</LatitudeDegrees>
              <LongitudeDegrees>-1.1522640846669673919677734375</LongitudeDegrees>
            </Position>
            <AltitudeMeters>228</AltitudeMeters>
            <DistanceMeters>NAN</DistanceMeters>
          </Trackpoint>
          <Trackpoint>
            <Time>2020-05-25T07:27:50.000Z</Time>
            <Position>
              <LatitudeDegrees>38.08268680237233638763427734375</LatitudeDegrees>
              <LongitudeDegrees>-1.152231395244598388671875</LongitudeDegrees>
            </Position>
            <AltitudeMeters>228.1999969482421875</AltitudeMeters>
            <DistanceMeters>NAN</DistanceMeters>
          </Trackpoint>
          <Trackpoint>
            <Time>2020-05-25T07:27:51.000Z</Time>
            <Position>
              <LatitudeDegrees>38.08264070190489292144775390625</LatitudeDegrees>
              <LongitudeDegrees>-1.15219929255545139312744140625</LongitudeDegrees>
            </Position>
            <AltitudeMeters>228.399993896484375</AltitudeMeters>
            <DistanceMeters>NAN</DistanceMeters>
          </Trackpoint>
          <Trackpoint>
            <Time>2020-05-25T07:27:52.000Z</Time>
            <Position>
              <LatitudeDegrees>38.08259644545614719390869140625</LatitudeDegrees>
              <LongitudeDegrees>-1.152168028056621551513671875</LongitudeDegrees>
            </Position>
            <AltitudeMeters>228.8000030517578125</AltitudeMeters>
            <DistanceMeters>NAN</DistanceMeters>
          </Trackpoint>
          <Trackpoint>
            <Time>2020-05-25T07:27:53.000Z</Time>
            <Position>
              <LatitudeDegrees>38.08255185373127460479736328125</LatitudeDegrees>
              <LongitudeDegrees>-1.15213626064360141754150390625</LongitudeDegrees>
            </Position>
            <AltitudeMeters>229.600006103515625</AltitudeMeters>
            <DistanceMeters>NAN</DistanceMeters>
          </Trackpoint>
          <Trackpoint>
            <Time>2020-05-25T07:27:54.000Z</Time>
            <Position>
              <LatitudeDegrees>38.08250776492059230804443359375</LatitudeDegrees>
              <LongitudeDegrees>-1.1521065048873424530029296875</LongitudeDegrees>
            </Position>
            <AltitudeMeters>230.1999969482421875</AltitudeMeters>
            <DistanceMeters>NAN</DistanceMeters>
          </Trackpoint>
          <Trackpoint>
            <Time>2020-05-25T07:27:55.000Z</Time>
            <Position>
              <LatitudeDegrees>38.082462586462497711181640625</LatitudeDegrees>
              <LongitudeDegrees>-1.1520776711404323577880859375</LongitudeDegrees>
            </Position>
            <AltitudeMeters>231</AltitudeMeters>
            <DistanceMeters>NAN</DistanceMeters>
          </Trackpoint>
          <Trackpoint>
            <Time>2020-05-25T07:27:56.000Z</Time>
            <Position>
              <LatitudeDegrees>38.0824164859950542449951171875</LatitudeDegrees>
              <LongitudeDegrees>-1.1520495079457759857177734375</LongitudeDegrees>
            </Position>
            <AltitudeMeters>231.8000030517578125</AltitudeMeters>
            <DistanceMeters>NAN</DistanceMeters>
          </Trackpoint>
          <Trackpoint>
            <Time>2020-05-25T07:27:57.000Z</Time>
            <Position>
              <LatitudeDegrees>38.082370050251483917236328125</LatitudeDegrees>
              <LongitudeDegrees>-1.152019500732421875</LongitudeDegrees>
            </Position>
            <AltitudeMeters>232.600006103515625</AltitudeMeters>
            <DistanceMeters>NAN</DistanceMeters>
          </Trackpoint>
          <Trackpoint>
            <Time>2020-05-25T07:27:58.000Z</Time>
            <Position>
              <LatitudeDegrees>38.0823242850601673126220703125</LatitudeDegrees>
              <LongitudeDegrees>-1.1519901640713214874267578125</LongitudeDegrees>
            </Position>
            <AltitudeMeters>233.399993896484375</AltitudeMeters>
            <DistanceMeters>NAN</DistanceMeters>
          </Trackpoint>
          <Trackpoint>
            <Time>2020-05-25T07:27:59.000Z</Time>
            <Position>
              <LatitudeDegrees>38.08227784931659698486328125</LatitudeDegrees>
              <LongitudeDegrees>-1.15196141414344310760498046875</LongitudeDegrees>
            </Position>
            <AltitudeMeters>234</AltitudeMeters>
            <DistanceMeters>NAN</DistanceMeters>
          </Trackpoint>
          <Trackpoint>
            <Time>2020-05-25T07:28:00.000Z</Time>
            <Position>
              <LatitudeDegrees>38.08223116211593151092529296875</LatitudeDegrees>
              <LongitudeDegrees>-1.15193325094878673553466796875</LongitudeDegrees>
            </Position>
            <AltitudeMeters>234.8000030517578125</AltitudeMeters>
            <DistanceMeters>NAN</DistanceMeters>
          </Trackpoint>
          <Trackpoint>
            <Time>2020-05-25T07:28:01.000Z</Time>
            <Position>
              <LatitudeDegrees>38.08218623511493206024169921875</LatitudeDegrees>
              <LongitudeDegrees>-1.1519050039350986480712890625</LongitudeDegrees>
            </Position>
            <AltitudeMeters>235.600006103515625</AltitudeMeters>
            <DistanceMeters>NAN</DistanceMeters>
          </Trackpoint>
          <Trackpoint>
            <Time>2020-05-25T07:28:02.000Z</Time>
            <Position>
              <LatitudeDegrees>38.08214214630424976348876953125</LatitudeDegrees>
              <LongitudeDegrees>-1.15187474526464939117431640625</LongitudeDegrees>
            </Position>
            <AltitudeMeters>236.1999969482421875</AltitudeMeters>
            <DistanceMeters>NAN</DistanceMeters>
          </Trackpoint>
          <Trackpoint>
            <Time>2020-05-25T07:28:03.000Z</Time>
            <Position>
              <LatitudeDegrees>38.0820988118648529052734375</LatitudeDegrees>
              <LongitudeDegrees>-1.151843480765819549560546875</LongitudeDegrees>
            </Position>
            <AltitudeMeters>236</AltitudeMeters>
            <DistanceMeters>NAN</DistanceMeters>
          </Trackpoint>
          <Trackpoint>
            <Time>2020-05-25T07:28:04.000Z</Time>
            <Position>
              <LatitudeDegrees>38.08205564506351947784423828125</LatitudeDegrees>
              <LongitudeDegrees>-1.15181338973343372344970703125</LongitudeDegrees>
            </Position>
            <AltitudeMeters>236</AltitudeMeters>
            <DistanceMeters>NAN</DistanceMeters>
          </Trackpoint>
          <Trackpoint>
            <Time>2020-05-25T07:28:05.000Z</Time>
            <Position>
              <LatitudeDegrees>38.08201231062412261962890625</LatitudeDegrees>
              <LongitudeDegrees>-1.15178489126265048980712890625</LongitudeDegrees>
            </Position>
            <AltitudeMeters>236</AltitudeMeters>
            <DistanceMeters>NAN</DistanceMeters>
          </Trackpoint>
          <Trackpoint>
            <Time>2020-05-25T07:28:06.000Z</Time>
            <Position>
              <LatitudeDegrees>38.08196696452796459197998046875</LatitudeDegrees>
              <LongitudeDegrees>-1.15175857208669185638427734375</LongitudeDegrees>
            </Position>
            <AltitudeMeters>235.8000030517578125</AltitudeMeters>
            <DistanceMeters>NAN</DistanceMeters>
          </Trackpoint>
          <Trackpoint>
            <Time>2020-05-25T07:28:07.000Z</Time>
            <Position>
              <LatitudeDegrees>38.08192388154566287994384765625</LatitudeDegrees>
              <LongitudeDegrees>-1.15173024125397205352783203125</LongitudeDegrees>
            </Position>
            <AltitudeMeters>235.8000030517578125</AltitudeMeters>
            <DistanceMeters>NAN</DistanceMeters>
          </Trackpoint>
          <Trackpoint>
            <Time>2020-05-25T07:28:08.000Z</Time>
            <Position>
              <LatitudeDegrees>38.08188063092529773712158203125</LatitudeDegrees>
              <LongitudeDegrees>-1.1517018266022205352783203125</LongitudeDegrees>
            </Position>
            <AltitudeMeters>235.8000030517578125</AltitudeMeters>
            <DistanceMeters>NAN</DistanceMeters>
          </Trackpoint>
          <Trackpoint>
            <Time>2020-05-25T07:28:09.000Z</Time>
            <Position>
              <LatitudeDegrees>38.08183821849524974822998046875</LatitudeDegrees>
              <LongitudeDegrees>-1.15167416632175445556640625</LongitudeDegrees>
            </Position>
            <AltitudeMeters>235.8000030517578125</AltitudeMeters>
            <DistanceMeters>NAN</DistanceMeters>
          </Trackpoint>
          <Trackpoint>
            <Time>2020-05-25T07:28:10.000Z</Time>
            <Position>
              <LatitudeDegrees>38.08179530315101146697998046875</LatitudeDegrees>
              <LongitudeDegrees>-1.15164374001324176788330078125</LongitudeDegrees>
            </Position>
            <AltitudeMeters>235.600006103515625</AltitudeMeters>
            <DistanceMeters>NAN</DistanceMeters>
          </Trackpoint>
          <Trackpoint>
            <Time>2020-05-25T07:28:11.000Z</Time>
            <Position>
              <LatitudeDegrees>38.08175356127321720123291015625</LatitudeDegrees>
              <LongitudeDegrees>-1.15161515772342681884765625</LongitudeDegrees>
            </Position>
            <AltitudeMeters>235.8000030517578125</AltitudeMeters>
            <DistanceMeters>NAN</DistanceMeters>
          </Trackpoint>
          <Trackpoint>
            <Time>2020-05-25T07:28:12.000Z</Time>
            <Position>
              <LatitudeDegrees>38.0817140825092792510986328125</LatitudeDegrees>
              <LongitudeDegrees>-1.1515871621668338775634765625</LongitudeDegrees>
            </Position>
            <AltitudeMeters>236.600006103515625</AltitudeMeters>
            <DistanceMeters>NAN</DistanceMeters>
          </Trackpoint>
          <Trackpoint>
            <Time>2020-05-25T07:28:13.000Z</Time>
            <Position>
              <LatitudeDegrees>38.081674017012119293212890625</LatitudeDegrees>
              <LongitudeDegrees>-1.1515583284199237823486328125</LongitudeDegrees>
            </Position>
            <AltitudeMeters>237.1999969482421875</AltitudeMeters>
            <DistanceMeters>NAN</DistanceMeters>
          </Trackpoint>
          <Trackpoint>
            <Time>2020-05-25T07:28:14.000Z</Time>
            <Position>
              <LatitudeDegrees>38.08163034729659557342529296875</LatitudeDegrees>
              <LongitudeDegrees>-1.1515321768820285797119140625</LongitudeDegrees>
            </Position>
            <AltitudeMeters>237.600006103515625</AltitudeMeters>
            <DistanceMeters>NAN</DistanceMeters>
          </Trackpoint>
          <Trackpoint>
            <Time>2020-05-25T07:28:15.000Z</Time>
            <Position>
              <LatitudeDegrees>38.0815870128571987152099609375</LatitudeDegrees>
              <LongitudeDegrees>-1.15150460042059421539306640625</LongitudeDegrees>
            </Position>
            <AltitudeMeters>237.600006103515625</AltitudeMeters>
            <DistanceMeters>NAN</DistanceMeters>
          </Trackpoint>
          <Trackpoint>
            <Time>2020-05-25T07:28:16.000Z</Time>
            <Position>
              <LatitudeDegrees>38.08154351077973842620849609375</LatitudeDegrees>
              <LongitudeDegrees>-1.15147702395915985107421875</LongitudeDegrees>
            </Position>
            <AltitudeMeters>237.600006103515625</AltitudeMeters>
            <DistanceMeters>NAN</DistanceMeters>
          </Trackpoint>
          <Trackpoint>
            <Time>2020-05-25T07:28:17.000Z</Time>
            <Position>
              <LatitudeDegrees>38.08150000870227813720703125</LatitudeDegrees>
              <LongitudeDegrees>-1.15145028568804264068603515625</LongitudeDegrees>
            </Position>
            <AltitudeMeters>237.600006103515625</AltitudeMeters>
            <DistanceMeters>NAN</DistanceMeters>
          </Trackpoint>
          <Trackpoint>
            <Time>2020-05-25T07:28:18.000Z</Time>
            <Position>
              <LatitudeDegrees>38.08145633898675441741943359375</LatitudeDegrees>
              <LongitudeDegrees>-1.1514227092266082763671875</LongitudeDegrees>
            </Position>
            <AltitudeMeters>238</AltitudeMeters>
            <DistanceMeters>NAN</DistanceMeters>
          </Trackpoint>
          <Trackpoint>
            <Time>2020-05-25T07:28:19.000Z</Time>
            <Position>
              <LatitudeDegrees>38.0814148485660552978515625</LatitudeDegrees>
              <LongitudeDegrees>-1.15139412693679332733154296875</LongitudeDegrees>
            </Position>
            <AltitudeMeters>238.399993896484375</AltitudeMeters>
            <DistanceMeters>NAN</DistanceMeters>
          </Trackpoint>
          <Trackpoint>
            <Time>2020-05-25T07:28:20.000Z</Time>
            <Position>
              <LatitudeDegrees>38.08137503452599048614501953125</LatitudeDegrees>
              <LongitudeDegrees>-1.1513631977140903472900390625</LongitudeDegrees>
            </Position>
            <AltitudeMeters>238.8000030517578125</AltitudeMeters>
            <DistanceMeters>NAN</DistanceMeters>
          </Trackpoint>
          <Trackpoint>
            <Time>2020-05-25T07:28:21.000Z</Time>
            <Position>
              <LatitudeDegrees>38.081335723400115966796875</LatitudeDegrees>
              <LongitudeDegrees>-1.15133243612945079803466796875</LongitudeDegrees>
            </Position>
            <AltitudeMeters>239.1999969482421875</AltitudeMeters>
            <DistanceMeters>NAN</DistanceMeters>
          </Trackpoint>
          <Trackpoint>
            <Time>2020-05-25T07:28:22.000Z</Time>
            <Position>
              <LatitudeDegrees>38.0812939815223217010498046875</LatitudeDegrees>
              <LongitudeDegrees>-1.15130444057285785675048828125</LongitudeDegrees>
            </Position>
            <AltitudeMeters>239.600006103515625</AltitudeMeters>
            <DistanceMeters>NAN</DistanceMeters>
          </Trackpoint>
          <Trackpoint>
            <Time>2020-05-25T07:28:23.000Z</Time>
            <Position>
              <LatitudeDegrees>38.0812524072825908660888671875</LatitudeDegrees>
              <LongitudeDegrees>-1.1512810550630092620849609375</LongitudeDegrees>
            </Position>
            <AltitudeMeters>240.1999969482421875</AltitudeMeters>
            <DistanceMeters>NAN</DistanceMeters>
          </Trackpoint>
          <Trackpoint>
            <Time>2020-05-25T07:28:24.000Z</Time>
            <Position>
              <LatitudeDegrees>38.0812121741473674774169921875</LatitudeDegrees>
              <LongitudeDegrees>-1.15125574171543121337890625</LongitudeDegrees>
            </Position>
            <AltitudeMeters>240.600006103515625</AltitudeMeters>
            <DistanceMeters>NAN</DistanceMeters>
          </Trackpoint>
          <Trackpoint>
            <Time>2020-05-25T07:28:25.000Z</Time>
            <Position>
              <LatitudeDegrees>38.081171102821826934814453125</LatitudeDegrees>
              <LongitudeDegrees>-1.15122883580625057220458984375</LongitudeDegrees>
            </Position>
            <AltitudeMeters>241</AltitudeMeters>
            <DistanceMeters>NAN</DistanceMeters>
          </Trackpoint>
          <Trackpoint>
            <Time>2020-05-25T07:28:26.000Z</Time>
            <Position>
              <LatitudeDegrees>38.08113179169595241546630859375</LatitudeDegrees>
              <LongitudeDegrees>-1.15120050497353076934814453125</LongitudeDegrees>
            </Position>
            <AltitudeMeters>241</AltitudeMeters>
            <DistanceMeters>NAN</DistanceMeters>
          </Trackpoint>
          <Trackpoint>
            <Time>2020-05-25T07:28:27.000Z</Time>
            <Position>
              <LatitudeDegrees>38.08109206147491931915283203125</LatitudeDegrees>
              <LongitudeDegrees>-1.15117183886468410491943359375</LongitudeDegrees>
            </Position>
            <AltitudeMeters>241</AltitudeMeters>
            <DistanceMeters>NAN</DistanceMeters>
          </Trackpoint>
          <Trackpoint>
            <Time>2020-05-25T07:28:28.000Z</Time>
            <Position>
              <LatitudeDegrees>38.081051744520664215087890625</LatitudeDegrees>
              <LongitudeDegrees>-1.1511449329555034637451171875</LongitudeDegrees>
            </Position>
            <AltitudeMeters>241</AltitudeMeters>
            <DistanceMeters>NAN</DistanceMeters>
          </Trackpoint>
          <Trackpoint>
            <Time>2020-05-25T07:28:29.000Z</Time>
            <Position>
              <LatitudeDegrees>38.08101125992834568023681640625</LatitudeDegrees>
              <LongitudeDegrees>-1.1511171050369739532470703125</LongitudeDegrees>
            </Position>
            <AltitudeMeters>240.8000030517578125</AltitudeMeters>
            <DistanceMeters>NAN</DistanceMeters>
          </Trackpoint>
          <Trackpoint>
            <Time>2020-05-25T07:28:30.000Z</Time>
            <Position>
              <LatitudeDegrees>38.08097253553569316864013671875</LatitudeDegrees>
              <LongitudeDegrees>-1.15109086968004703521728515625</LongitudeDegrees>
            </Position>
            <AltitudeMeters>240.8000030517578125</AltitudeMeters>
            <DistanceMeters>NAN</DistanceMeters>
          </Trackpoint>
          <Trackpoint>
            <Time>2020-05-25T07:28:31.000Z</Time>
            <Position>
              <LatitudeDegrees>38.080933727324008941650390625</LatitudeDegrees>
              <LongitudeDegrees>-1.1510659754276275634765625</LongitudeDegrees>
            </Position>
            <AltitudeMeters>240.8000030517578125</AltitudeMeters>
            <DistanceMeters>NAN</DistanceMeters>
          </Trackpoint>
          <Trackpoint>
            <Time>2020-05-25T07:28:32.000Z</Time>
            <Position>
              <LatitudeDegrees>38.08089315891265869140625</LatitudeDegrees>
              <LongitudeDegrees>-1.15104225464165210723876953125</LongitudeDegrees>
            </Position>
            <AltitudeMeters>241</AltitudeMeters>
            <DistanceMeters>NAN</DistanceMeters>
          </Trackpoint>
          <Trackpoint>
            <Time>2020-05-25T07:28:33.000Z</Time>
            <Position>
              <LatitudeDegrees>38.08085284195840358734130859375</LatitudeDegrees>
              <LongitudeDegrees>-1.15101836621761322021484375</LongitudeDegrees>
            </Position>
            <AltitudeMeters>241.399993896484375</AltitudeMeters>
            <DistanceMeters>NAN</DistanceMeters>
          </Trackpoint>
          <Trackpoint>
            <Time>2020-05-25T07:28:34.000Z</Time>
            <Position>
              <LatitudeDegrees>38.0808145366609096527099609375</LatitudeDegrees>
              <LongitudeDegrees>-1.15099431015551090240478515625</LongitudeDegrees>
            </Position>
            <AltitudeMeters>241.8000030517578125</AltitudeMeters>
            <DistanceMeters>NAN</DistanceMeters>
          </Trackpoint>
          <Trackpoint>
            <Time>2020-05-25T07:28:35.000Z</Time>
            <Position>
              <LatitudeDegrees>38.0807769857347011566162109375</LatitudeDegrees>
              <LongitudeDegrees>-1.1509699188172817230224609375</LongitudeDegrees>
            </Position>
            <AltitudeMeters>242.1999969482421875</AltitudeMeters>
            <DistanceMeters>NAN</DistanceMeters>
          </Trackpoint>
          <Trackpoint>
            <Time>2020-05-25T07:28:36.000Z</Time>
            <Position>
              <LatitudeDegrees>38.08074119500815868377685546875</LatitudeDegrees>
              <LongitudeDegrees>-1.1509444378316402435302734375</LongitudeDegrees>
            </Position>
            <AltitudeMeters>242.600006103515625</AltitudeMeters>
            <DistanceMeters>NAN</DistanceMeters>
          </Trackpoint>
          <Trackpoint>
            <Time>2020-05-25T07:28:37.000Z</Time>
            <Position>
              <LatitudeDegrees>38.08070666156709194183349609375</LatitudeDegrees>
              <LongitudeDegrees>-1.15092054940760135650634765625</LongitudeDegrees>
            </Position>
            <AltitudeMeters>242.8000030517578125</AltitudeMeters>
            <DistanceMeters>NAN</DistanceMeters>
          </Trackpoint>
          <Trackpoint>
            <Time>2020-05-25T07:28:38.000Z</Time>
            <Position>
              <LatitudeDegrees>38.0806718766689300537109375</LatitudeDegrees>
              <LongitudeDegrees>-1.15089775063097476959228515625</LongitudeDegrees>
            </Position>
            <AltitudeMeters>243.1999969482421875</AltitudeMeters>
            <DistanceMeters>NAN</DistanceMeters>
          </Trackpoint>
          <Trackpoint>
            <Time>2020-05-25T07:28:39.000Z</Time>
            <Position>
              <LatitudeDegrees>38.0806395225226879119873046875</LatitudeDegrees>
              <LongitudeDegrees>-1.1508728563785552978515625</LongitudeDegrees>
            </Position>
            <AltitudeMeters>243.1999969482421875</AltitudeMeters>
            <DistanceMeters>NAN</DistanceMeters>
          </Trackpoint>
          <Trackpoint>
            <Time>2020-05-25T07:28:40.000Z</Time>
            <Position>
              <LatitudeDegrees>38.0806075036525726318359375</LatitudeDegrees>
              <LongitudeDegrees>-1.150849051773548126220703125</LongitudeDegrees>
            </Position>
            <AltitudeMeters>243</AltitudeMeters>
            <DistanceMeters>NAN</DistanceMeters>
          </Trackpoint>
          <Trackpoint>
            <Time>2020-05-25T07:28:41.000Z</Time>
            <Position>
              <LatitudeDegrees>38.0805751495063304901123046875</LatitudeDegrees>
              <LongitudeDegrees>-1.150825917720794677734375</LongitudeDegrees>
            </Position>
            <AltitudeMeters>242.600006103515625</AltitudeMeters>
            <DistanceMeters>NAN</DistanceMeters>
          </Trackpoint>
          <Trackpoint>
            <Time>2020-05-25T07:28:42.000Z</Time>
            <Position>
              <LatitudeDegrees>38.08054287917912006378173828125</LatitudeDegrees>
              <LongitudeDegrees>-1.150802113115787506103515625</LongitudeDegrees>
            </Position>
            <AltitudeMeters>242.399993896484375</AltitudeMeters>
            <DistanceMeters>NAN</DistanceMeters>
          </Trackpoint>
          <Trackpoint>
            <Time>2020-05-25T07:28:43.000Z</Time>
            <Position>
              <LatitudeDegrees>38.08051086030900478363037109375</LatitudeDegrees>
              <LongitudeDegrees>-1.15077964961528778076171875</LongitudeDegrees>
            </Position>
            <AltitudeMeters>242.1999969482421875</AltitudeMeters>
            <DistanceMeters>NAN</DistanceMeters>
          </Trackpoint>
          <Trackpoint>
            <Time>2020-05-25T07:28:44.000Z</Time>
            <Position>
              <LatitudeDegrees>38.0804785899817943572998046875</LatitudeDegrees>
              <LongitudeDegrees>-1.15075928159058094024658203125</LongitudeDegrees>
            </Position>
            <AltitudeMeters>242</AltitudeMeters>
            <DistanceMeters>NAN</DistanceMeters>
          </Trackpoint>
          <Trackpoint>
            <Time>2020-05-25T07:28:45.000Z</Time>
            <Position>
              <LatitudeDegrees>38.08044313453137874603271484375</LatitudeDegrees>
              <LongitudeDegrees>-1.15074084140360355377197265625</LongitudeDegrees>
            </Position>
            <AltitudeMeters>241.8000030517578125</AltitudeMeters>
            <DistanceMeters>NAN</DistanceMeters>
          </Trackpoint>
          <Trackpoint>
            <Time>2020-05-25T07:28:46.000Z</Time>
            <Position>
              <LatitudeDegrees>38.08040742762386798858642578125</LatitudeDegrees>
              <LongitudeDegrees>-1.1507251672446727752685546875</LongitudeDegrees>
            </Position>
            <AltitudeMeters>241.8000030517578125</AltitudeMeters>
            <DistanceMeters>NAN</DistanceMeters>
          </Trackpoint>
          <Trackpoint>
            <Time>2020-05-25T07:28:47.000Z</Time>
            <Position>
              <LatitudeDegrees>38.080372475087642669677734375</LatitudeDegrees>
              <LongitudeDegrees>-1.15070714615285396575927734375</LongitudeDegrees>
            </Position>
            <AltitudeMeters>241.600006103515625</AltitudeMeters>
            <DistanceMeters>NAN</DistanceMeters>
          </Trackpoint>
          <Trackpoint>
            <Time>2020-05-25T07:28:48.000Z</Time>
            <Position>
              <LatitudeDegrees>38.08033869601786136627197265625</LatitudeDegrees>
              <LongitudeDegrees>-1.15068904124200344085693359375</LongitudeDegrees>
            </Position>
            <AltitudeMeters>241.399993896484375</AltitudeMeters>
            <DistanceMeters>NAN</DistanceMeters>
          </Trackpoint>
          <Trackpoint>
            <Time>2020-05-25T07:28:49.000Z</Time>
            <Position>
              <LatitudeDegrees>38.0803002230823040008544921875</LatitudeDegrees>
              <LongitudeDegrees>-1.1506755463778972625732421875</LongitudeDegrees>
            </Position>
            <AltitudeMeters>241.399993896484375</AltitudeMeters>
            <DistanceMeters>NAN</DistanceMeters>
          </Trackpoint>
          <Trackpoint>
            <Time>2020-05-25T07:28:50.000Z</Time>
            <Position>
              <LatitudeDegrees>38.080263845622539520263671875</LatitudeDegrees>
              <LongitudeDegrees>-1.15065920166671276092529296875</LongitudeDegrees>
            </Position>
            <AltitudeMeters>241.1999969482421875</AltitudeMeters>
            <DistanceMeters>NAN</DistanceMeters>
          </Trackpoint>
          <Trackpoint>
            <Time>2020-05-25T07:28:51.000Z</Time>
            <Position>
              <LatitudeDegrees>38.0802274681627750396728515625</LatitudeDegrees>
              <LongitudeDegrees>-1.150643527507781982421875</LongitudeDegrees>
            </Position>
            <AltitudeMeters>241</AltitudeMeters>
            <DistanceMeters>NAN</DistanceMeters>
          </Trackpoint>
          <Trackpoint>
            <Time>2020-05-25T07:28:52.000Z</Time>
            <Position>
              <LatitudeDegrees>38.08019033633172512054443359375</LatitudeDegrees>
              <LongitudeDegrees>-1.15062919445335865020751953125</LongitudeDegrees>
            </Position>
            <AltitudeMeters>241</AltitudeMeters>
            <DistanceMeters>NAN</DistanceMeters>
          </Trackpoint>
          <Trackpoint>
            <Time>2020-05-25T07:28:53.000Z</Time>
            <Position>
              <LatitudeDegrees>38.08015228249132633209228515625</LatitudeDegrees>
              <LongitudeDegrees>-1.1506155319511890411376953125</LongitudeDegrees>
            </Position>
            <AltitudeMeters>241</AltitudeMeters>
            <DistanceMeters>NAN</DistanceMeters>
          </Trackpoint>
          <Trackpoint>
            <Time>2020-05-25T07:28:54.000Z</Time>
            <Position>
              <LatitudeDegrees>38.08011355809867382049560546875</LatitudeDegrees>
              <LongitudeDegrees>-1.15060354582965373992919921875</LongitudeDegrees>
            </Position>
            <AltitudeMeters>241</AltitudeMeters>
            <DistanceMeters>NAN</DistanceMeters>
          </Trackpoint>
          <Trackpoint>
            <Time>2020-05-25T07:28:55.000Z</Time>
            <Position>
              <LatitudeDegrees>38.0800739116966724395751953125</LatitudeDegrees>
              <LongitudeDegrees>-1.1505930684506893157958984375</LongitudeDegrees>
            </Position>
            <AltitudeMeters>241.1999969482421875</AltitudeMeters>
            <DistanceMeters>NAN</DistanceMeters>
          </Trackpoint>
          <Trackpoint>
            <Time>2020-05-25T07:28:56.000Z</Time>
            <Position>
              <LatitudeDegrees>38.08003275655210018157958984375</LatitudeDegrees>
              <LongitudeDegrees>-1.1505836807191371917724609375</LongitudeDegrees>
            </Position>
            <AltitudeMeters>241.600006103515625</AltitudeMeters>
            <DistanceMeters>NAN</DistanceMeters>
          </Trackpoint>
          <Trackpoint>
            <Time>2020-05-25T07:28:57.000Z</Time>
            <Position>
              <LatitudeDegrees>38.07998799718916416168212890625</LatitudeDegrees>
              <LongitudeDegrees>-1.1505711078643798828125</LongitudeDegrees>
            </Position>
            <AltitudeMeters>242.1999969482421875</AltitudeMeters>
            <DistanceMeters>NAN</DistanceMeters>
          </Trackpoint>
          <Trackpoint>
            <Time>2020-05-25T07:28:58.000Z</Time>
            <Position>
              <LatitudeDegrees>38.0799458362162113189697265625</LatitudeDegrees>
              <LongitudeDegrees>-1.1505622230470180511474609375</LongitudeDegrees>
            </Position>
            <AltitudeMeters>242.600006103515625</AltitudeMeters>
            <DistanceMeters>NAN</DistanceMeters>
          </Trackpoint>
          <Trackpoint>
            <Time>2020-05-25T07:28:59.000Z</Time>
            <Position>
              <LatitudeDegrees>38.0799039267003536224365234375</LatitudeDegrees>
              <LongitudeDegrees>-1.15055358968675136566162109375</LongitudeDegrees>
            </Position>
            <AltitudeMeters>243</AltitudeMeters>
            <DistanceMeters>NAN</DistanceMeters>
          </Trackpoint>
          <Trackpoint>
            <Time>2020-05-25T07:29:00.000Z</Time>
            <Position>
              <LatitudeDegrees>38.07986319065093994140625</LatitudeDegrees>
              <LongitudeDegrees>-1.15055073983967304229736328125</LongitudeDegrees>
            </Position>
            <AltitudeMeters>243.399993896484375</AltitudeMeters>
            <DistanceMeters>NAN</DistanceMeters>
          </Trackpoint>
          <Trackpoint>
            <Time>2020-05-25T07:29:01.000Z</Time>
            <Position>
              <LatitudeDegrees>38.079822622239589691162109375</LatitudeDegrees>
              <LongitudeDegrees>-1.1505468003451824188232421875</LongitudeDegrees>
            </Position>
            <AltitudeMeters>243.8000030517578125</AltitudeMeters>
            <DistanceMeters>NAN</DistanceMeters>
          </Trackpoint>
          <Trackpoint>
            <Time>2020-05-25T07:29:02.000Z</Time>
            <Position>
              <LatitudeDegrees>38.07978012599050998687744140625</LatitudeDegrees>
              <LongitudeDegrees>-1.15053816698491573333740234375</LongitudeDegrees>
            </Position>
            <AltitudeMeters>244.1999969482421875</AltitudeMeters>
            <DistanceMeters>NAN</DistanceMeters>
          </Trackpoint>
          <Trackpoint>
            <Time>2020-05-25T07:29:03.000Z</Time>
            <Position>
              <LatitudeDegrees>38.079736791551113128662109375</LatitudeDegrees>
              <LongitudeDegrees>-1.15053162910044193267822265625</LongitudeDegrees>
            </Position>
            <AltitudeMeters>244.600006103515625</AltitudeMeters>
            <DistanceMeters>NAN</DistanceMeters>
          </Trackpoint>
          <Trackpoint>
            <Time>2020-05-25T07:29:04.000Z</Time>
            <Position>
              <LatitudeDegrees>38.0796923674643039703369140625</LatitudeDegrees>
              <LongitudeDegrees>-1.1505256779491901397705078125</LongitudeDegrees>
            </Position>
            <AltitudeMeters>245</AltitudeMeters>
            <DistanceMeters>NAN</DistanceMeters>
          </Trackpoint>
          <Trackpoint>
            <Time>2020-05-25T07:29:05.000Z</Time>
            <Position>
              <LatitudeDegrees>38.07964718900620937347412109375</LatitudeDegrees>
              <LongitudeDegrees>-1.15051972679793834686279296875</LongitudeDegrees>
            </Position>
            <AltitudeMeters>245.600006103515625</AltitudeMeters>
            <DistanceMeters>NAN</DistanceMeters>
          </Trackpoint>
          <Trackpoint>
            <Time>2020-05-25T07:29:06.000Z</Time>
            <Position>
              <LatitudeDegrees>38.07960142381489276885986328125</LatitudeDegrees>
              <LongitudeDegrees>-1.150520145893096923828125</LongitudeDegrees>
            </Position>
            <AltitudeMeters>246</AltitudeMeters>
            <DistanceMeters>NAN</DistanceMeters>
          </Trackpoint>
          <Trackpoint>
            <Time>2020-05-25T07:29:07.000Z</Time>
            <Position>
              <LatitudeDegrees>38.07955767028033733367919921875</LatitudeDegrees>
              <LongitudeDegrees>-1.15051704458892345428466796875</LongitudeDegrees>
            </Position>
            <AltitudeMeters>246.399993896484375</AltitudeMeters>
            <DistanceMeters>NAN</DistanceMeters>
          </Trackpoint>
          <Trackpoint>
            <Time>2020-05-25T07:29:08.000Z</Time>
            <Position>
              <LatitudeDegrees>38.07951517403125762939453125</LatitudeDegrees>
              <LongitudeDegrees>-1.15051453001797199249267578125</LongitudeDegrees>
            </Position>
            <AltitudeMeters>246.8000030517578125</AltitudeMeters>
            <DistanceMeters>NAN</DistanceMeters>
          </Trackpoint>
          <Trackpoint>
            <Time>2020-05-25T07:29:09.000Z</Time>
            <Position>
              <LatitudeDegrees>38.0794724263250827789306640625</LatitudeDegrees>
              <LongitudeDegrees>-1.15051100961863994598388671875</LongitudeDegrees>
            </Position>
            <AltitudeMeters>247.1999969482421875</AltitudeMeters>
            <DistanceMeters>NAN</DistanceMeters>
          </Trackpoint>
          <Trackpoint>
            <Time>2020-05-25T07:29:10.000Z</Time>
            <Position>
              <LatitudeDegrees>38.079428337514400482177734375</LatitudeDegrees>
              <LongitudeDegrees>-1.15050765685737133026123046875</LongitudeDegrees>
            </Position>
            <AltitudeMeters>247.600006103515625</AltitudeMeters>
            <DistanceMeters>NAN</DistanceMeters>
          </Trackpoint>
          <Trackpoint>
            <Time>2020-05-25T07:29:11.000Z</Time>
            <Position>
              <LatitudeDegrees>38.07938517071306705474853515625</LatitudeDegrees>
              <LongitudeDegrees>-1.15050346590578556060791015625</LongitudeDegrees>
            </Position>
            <AltitudeMeters>248</AltitudeMeters>
            <DistanceMeters>NAN</DistanceMeters>
          </Trackpoint>
          <Trackpoint>
            <Time>2020-05-25T07:29:12.000Z</Time>
            <Position>
              <LatitudeDegrees>38.0793436802923679351806640625</LatitudeDegrees>
              <LongitudeDegrees>-1.150501035153865814208984375</LongitudeDegrees>
            </Position>
            <AltitudeMeters>248.399993896484375</AltitudeMeters>
            <DistanceMeters>NAN</DistanceMeters>
          </Trackpoint>
          <Trackpoint>
            <Time>2020-05-25T07:29:13.000Z</Time>
            <Position>
              <LatitudeDegrees>38.07929967530071735382080078125</LatitudeDegrees>
              <LongitudeDegrees>-1.15049759857356548309326171875</LongitudeDegrees>
            </Position>
            <AltitudeMeters>248.8000030517578125</AltitudeMeters>
            <DistanceMeters>NAN</DistanceMeters>
          </Trackpoint>
          <Trackpoint>
            <Time>2020-05-25T07:29:14.000Z</Time>
            <Position>
              <LatitudeDegrees>38.07925558649003505706787109375</LatitudeDegrees>
              <LongitudeDegrees>-1.1504951678216457366943359375</LongitudeDegrees>
            </Position>
            <AltitudeMeters>249</AltitudeMeters>
            <DistanceMeters>NAN</DistanceMeters>
          </Trackpoint>
          <Trackpoint>
            <Time>2020-05-25T07:29:15.000Z</Time>
            <Position>
              <LatitudeDegrees>38.07921133004128932952880859375</LatitudeDegrees>
              <LongitudeDegrees>-1.1504931561648845672607421875</LongitudeDegrees>
            </Position>
            <AltitudeMeters>249.1999969482421875</AltitudeMeters>
            <DistanceMeters>NAN</DistanceMeters>
          </Trackpoint>
          <Trackpoint>
            <Time>2020-05-25T07:29:16.000Z</Time>
            <Position>
              <LatitudeDegrees>38.07916874997317790985107421875</LatitudeDegrees>
              <LongitudeDegrees>-1.15048988722264766693115234375</LongitudeDegrees>
            </Position>
            <AltitudeMeters>249.399993896484375</AltitudeMeters>
            <DistanceMeters>NAN</DistanceMeters>
          </Trackpoint>
          <Trackpoint>
            <Time>2020-05-25T07:29:17.000Z</Time>
            <Position>
              <LatitudeDegrees>38.07912650518119335174560546875</LatitudeDegrees>
              <LongitudeDegrees>-1.1504864506423473358154296875</LongitudeDegrees>
            </Position>
            <AltitudeMeters>249.399993896484375</AltitudeMeters>
            <DistanceMeters>NAN</DistanceMeters>
          </Trackpoint>
          <Trackpoint>
            <Time>2020-05-25T07:29:18.000Z</Time>
            <Position>
              <LatitudeDegrees>38.07908107526600360870361328125</LatitudeDegrees>
              <LongitudeDegrees>-1.1504841037094593048095703125</LongitudeDegrees>
            </Position>
            <AltitudeMeters>249.600006103515625</AltitudeMeters>
            <DistanceMeters>NAN</DistanceMeters>
          </Trackpoint>
          <Trackpoint>
            <Time>2020-05-25T07:29:19.000Z</Time>
            <Position>
              <LatitudeDegrees>38.07903648354113101959228515625</LatitudeDegrees>
              <LongitudeDegrees>-1.15047790110111236572265625</LongitudeDegrees>
            </Position>
            <AltitudeMeters>249.8000030517578125</AltitudeMeters>
            <DistanceMeters>NAN</DistanceMeters>
          </Trackpoint>
          <Trackpoint>
            <Time>2020-05-25T07:29:20.000Z</Time>
            <Position>
              <LatitudeDegrees>38.078992478549480438232421875</LatitudeDegrees>
              <LongitudeDegrees>-1.150471530854701995849609375</LongitudeDegrees>
            </Position>
            <AltitudeMeters>250</AltitudeMeters>
            <DistanceMeters>NAN</DistanceMeters>
          </Trackpoint>
          <Trackpoint>
            <Time>2020-05-25T07:29:21.000Z</Time>
            <Position>
              <LatitudeDegrees>38.07894864119589328765869140625</LatitudeDegrees>
              <LongitudeDegrees>-1.1504683457314968109130859375</LongitudeDegrees>
            </Position>
            <AltitudeMeters>250.1999969482421875</AltitudeMeters>
            <DistanceMeters>NAN</DistanceMeters>
          </Trackpoint>
          <Trackpoint>
            <Time>2020-05-25T07:29:22.000Z</Time>
            <Position>
              <LatitudeDegrees>38.078904636204242706298828125</LatitudeDegrees>
              <LongitudeDegrees>-1.15046557970345020294189453125</LongitudeDegrees>
            </Position>
            <AltitudeMeters>250.1999969482421875</AltitudeMeters>
            <DistanceMeters>NAN</DistanceMeters>
          </Trackpoint>
          <Trackpoint>
            <Time>2020-05-25T07:29:23.000Z</Time>
            <Position>
              <LatitudeDegrees>38.07885929010808467864990234375</LatitudeDegrees>
              <LongitudeDegrees>-1.15046038292348384857177734375</LongitudeDegrees>
            </Position>
            <AltitudeMeters>250.399993896484375</AltitudeMeters>
            <DistanceMeters>NAN</DistanceMeters>
          </Trackpoint>
          <Trackpoint>
            <Time>2020-05-25T07:29:24.000Z</Time>
            <Position>
              <LatitudeDegrees>38.07881620712578296661376953125</LatitudeDegrees>
              <LongitudeDegrees>-1.15045803599059581756591796875</LongitudeDegrees>
            </Position>
            <AltitudeMeters>250.600006103515625</AltitudeMeters>
            <DistanceMeters>NAN</DistanceMeters>
          </Trackpoint>
          <Trackpoint>
            <Time>2020-05-25T07:29:25.000Z</Time>
            <Position>
              <LatitudeDegrees>38.07877220213413238525390625</LatitudeDegrees>
              <LongitudeDegrees>-1.1504562757909297943115234375</LongitudeDegrees>
            </Position>
            <AltitudeMeters>250.8000030517578125</AltitudeMeters>
            <DistanceMeters>NAN</DistanceMeters>
          </Trackpoint>
          <Trackpoint>
            <Time>2020-05-25T07:29:26.000Z</Time>
            <Position>
              <LatitudeDegrees>38.07872685603797435760498046875</LatitudeDegrees>
              <LongitudeDegrees>-1.1504535935819149017333984375</LongitudeDegrees>
            </Position>
            <AltitudeMeters>251</AltitudeMeters>
            <DistanceMeters>NAN</DistanceMeters>
          </Trackpoint>
          <Trackpoint>
            <Time>2020-05-25T07:29:27.000Z</Time>
            <Position>
              <LatitudeDegrees>38.07868209667503833770751953125</LatitudeDegrees>
              <LongitudeDegrees>-1.15044948644936084747314453125</LongitudeDegrees>
            </Position>
            <AltitudeMeters>251</AltitudeMeters>
            <DistanceMeters>NAN</DistanceMeters>
          </Trackpoint>
          <Trackpoint>
            <Time>2020-05-25T07:29:28.000Z</Time>
            <Position>
              <LatitudeDegrees>38.0786372534930706024169921875</LatitudeDegrees>
              <LongitudeDegrees>-1.1504465527832508087158203125</LongitudeDegrees>
            </Position>
            <AltitudeMeters>251.1999969482421875</AltitudeMeters>
            <DistanceMeters>NAN</DistanceMeters>
          </Trackpoint>
          <Trackpoint>
            <Time>2020-05-25T07:29:29.000Z</Time>
            <Position>
              <LatitudeDegrees>38.0785923264920711517333984375</LatitudeDegrees>
              <LongitudeDegrees>-1.1504425294697284698486328125</LongitudeDegrees>
            </Position>
            <AltitudeMeters>251.399993896484375</AltitudeMeters>
            <DistanceMeters>NAN</DistanceMeters>
          </Trackpoint>
          <Trackpoint>
            <Time>2020-05-25T07:29:30.000Z</Time>
            <Position>
              <LatitudeDegrees>38.07854748331010341644287109375</LatitudeDegrees>
              <LongitudeDegrees>-1.150438003242015838623046875</LongitudeDegrees>
            </Position>
            <AltitudeMeters>251.399993896484375</AltitudeMeters>
            <DistanceMeters>NAN</DistanceMeters>
          </Trackpoint>
          <Trackpoint>
            <Time>2020-05-25T07:29:31.000Z</Time>
            <Position>
              <LatitudeDegrees>38.07850004173815250396728515625</LatitudeDegrees>
              <LongitudeDegrees>-1.1504321359097957611083984375</LongitudeDegrees>
            </Position>
            <AltitudeMeters>251.1999969482421875</AltitudeMeters>
            <DistanceMeters>NAN</DistanceMeters>
          </Trackpoint>
          <Trackpoint>
            <Time>2020-05-25T07:29:32.000Z</Time>
            <Position>
              <LatitudeDegrees>38.078452013432979583740234375</LatitudeDegrees>
              <LongitudeDegrees>-1.15042853169143199920654296875</LongitudeDegrees>
            </Position>
            <AltitudeMeters>251.1999969482421875</AltitudeMeters>
            <DistanceMeters>NAN</DistanceMeters>
          </Trackpoint>
          <Trackpoint>
            <Time>2020-05-25T07:29:33.000Z</Time>
            <Position>
              <LatitudeDegrees>38.07840649969875812530517578125</LatitudeDegrees>
              <LongitudeDegrees>-1.15042652003467082977294921875</LongitudeDegrees>
            </Position>
            <AltitudeMeters>251.1999969482421875</AltitudeMeters>
            <DistanceMeters>NAN</DistanceMeters>
          </Trackpoint>
          <Trackpoint>
            <Time>2020-05-25T07:29:34.000Z</Time>
            <Position>
              <LatitudeDegrees>38.07836106978356838226318359375</LatitudeDegrees>
              <LongitudeDegrees>-1.1504254303872585296630859375</LongitudeDegrees>
            </Position>
            <AltitudeMeters>251.399993896484375</AltitudeMeters>
            <DistanceMeters>NAN</DistanceMeters>
          </Trackpoint>
          <Trackpoint>
            <Time>2020-05-25T07:29:35.000Z</Time>
            <Position>
              <LatitudeDegrees>38.0783167295157909393310546875</LatitudeDegrees>
              <LongitudeDegrees>-1.15042517893016338348388671875</LongitudeDegrees>
            </Position>
            <AltitudeMeters>251.600006103515625</AltitudeMeters>
            <DistanceMeters>NAN</DistanceMeters>
          </Trackpoint>
          <Trackpoint>
            <Time>2020-05-25T07:29:36.000Z</Time>
            <Position>
              <LatitudeDegrees>38.07827062904834747314453125</LatitudeDegrees>
              <LongitudeDegrees>-1.1504271067678928375244140625</LongitudeDegrees>
            </Position>
            <AltitudeMeters>251.8000030517578125</AltitudeMeters>
            <DistanceMeters>NAN</DistanceMeters>
          </Trackpoint>
          <Trackpoint>
            <Time>2020-05-25T07:29:37.000Z</Time>
            <Position>
              <LatitudeDegrees>38.07822444476187229156494140625</LatitudeDegrees>
              <LongitudeDegrees>-1.15042719058692455291748046875</LongitudeDegrees>
            </Position>
            <AltitudeMeters>251.8000030517578125</AltitudeMeters>
            <DistanceMeters>NAN</DistanceMeters>
          </Trackpoint>
          <Trackpoint>
            <Time>2020-05-25T07:29:38.000Z</Time>
            <Position>
              <LatitudeDegrees>38.0781775899231433868408203125</LatitudeDegrees>
              <LongitudeDegrees>-1.1504257656633853912353515625</LongitudeDegrees>
            </Position>
            <AltitudeMeters>252</AltitudeMeters>
            <DistanceMeters>NAN</DistanceMeters>
          </Trackpoint>
          <Trackpoint>
            <Time>2020-05-25T07:29:39.000Z</Time>
            <Position>
              <LatitudeDegrees>38.07813174091279506683349609375</LatitudeDegrees>
              <LongitudeDegrees>-1.1504210717976093292236328125</LongitudeDegrees>
            </Position>
            <AltitudeMeters>252.1999969482421875</AltitudeMeters>
            <DistanceMeters>NAN</DistanceMeters>
          </Trackpoint>
          <Trackpoint>
            <Time>2020-05-25T07:29:40.000Z</Time>
            <Position>
              <LatitudeDegrees>38.07808647863566875457763671875</LatitudeDegrees>
              <LongitudeDegrees>-1.1504183895885944366455078125</LongitudeDegrees>
            </Position>
            <AltitudeMeters>252.399993896484375</AltitudeMeters>
            <DistanceMeters>NAN</DistanceMeters>
          </Trackpoint>
          <Trackpoint>
            <Time>2020-05-25T07:29:41.000Z</Time>
            <Position>
              <LatitudeDegrees>38.07804264128208160400390625</LatitudeDegrees>
              <LongitudeDegrees>-1.15041612647473812103271484375</LongitudeDegrees>
            </Position>
            <AltitudeMeters>252.399993896484375</AltitudeMeters>
            <DistanceMeters>NAN</DistanceMeters>
          </Trackpoint>
          <Trackpoint>
            <Time>2020-05-25T07:29:42.000Z</Time>
            <Position>
              <LatitudeDegrees>38.07799997739493846893310546875</LatitudeDegrees>
              <LongitudeDegrees>-1.1504147015511989593505859375</LongitudeDegrees>
            </Position>
            <AltitudeMeters>252.600006103515625</AltitudeMeters>
            <DistanceMeters>NAN</DistanceMeters>
          </Trackpoint>
          <Trackpoint>
            <Time>2020-05-25T07:29:43.000Z</Time>
            <Position>
              <LatitudeDegrees>38.0779579840600490570068359375</LatitudeDegrees>
              <LongitudeDegrees>-1.1504133604466915130615234375</LongitudeDegrees>
            </Position>
            <AltitudeMeters>252.8000030517578125</AltitudeMeters>
            <DistanceMeters>NAN</DistanceMeters>
          </Trackpoint>
          <Trackpoint>
            <Time>2020-05-25T07:29:44.000Z</Time>
            <Position>
              <LatitudeDegrees>38.07791532017290592193603515625</LatitudeDegrees>
              <LongitudeDegrees>-1.15041327662765979766845703125</LongitudeDegrees>
            </Position>
            <AltitudeMeters>253</AltitudeMeters>
            <DistanceMeters>NAN</DistanceMeters>
          </Trackpoint>
          <Trackpoint>
            <Time>2020-05-25T07:29:45.000Z</Time>
            <Position>
              <LatitudeDegrees>38.0778738297522068023681640625</LatitudeDegrees>
              <LongitudeDegrees>-1.150413192808628082275390625</LongitudeDegrees>
            </Position>
            <AltitudeMeters>253</AltitudeMeters>
            <DistanceMeters>NAN</DistanceMeters>
          </Trackpoint>
          <Trackpoint>
            <Time>2020-05-25T07:29:46.000Z</Time>
            <Position>
              <LatitudeDegrees>38.07783300988376140594482421875</LatitudeDegrees>
              <LongitudeDegrees>-1.1504160426557064056396484375</LongitudeDegrees>
            </Position>
            <AltitudeMeters>253.1999969482421875</AltitudeMeters>
            <DistanceMeters>NAN</DistanceMeters>
          </Trackpoint>
          <Trackpoint>
            <Time>2020-05-25T07:29:47.000Z</Time>
            <Position>
              <LatitudeDegrees>38.07779227383434772491455078125</LatitudeDegrees>
              <LongitudeDegrees>-1.150420568883419036865234375</LongitudeDegrees>
            </Position>
            <AltitudeMeters>253.399993896484375</AltitudeMeters>
            <DistanceMeters>NAN</DistanceMeters>
          </Trackpoint>
          <Trackpoint>
            <Time>2020-05-25T07:29:48.000Z</Time>
            <Position>
              <LatitudeDegrees>38.077752627432346343994140625</LatitudeDegrees>
              <LongitudeDegrees>-1.15042450837790966033935546875</LongitudeDegrees>
            </Position>
            <AltitudeMeters>253.600006103515625</AltitudeMeters>
            <DistanceMeters>NAN</DistanceMeters>
          </Trackpoint>
          <Trackpoint>
            <Time>2020-05-25T07:29:49.000Z</Time>
            <Position>
              <LatitudeDegrees>38.07771247811615467071533203125</LatitudeDegrees>
              <LongitudeDegrees>-1.15043054334819316864013671875</LongitudeDegrees>
            </Position>
            <AltitudeMeters>253.8000030517578125</AltitudeMeters>
            <DistanceMeters>NAN</DistanceMeters>
          </Trackpoint>
          <Trackpoint>
            <Time>2020-05-25T07:29:50.000Z</Time>
            <Position>
              <LatitudeDegrees>38.07767224498093128204345703125</LatitudeDegrees>
              <LongitudeDegrees>-1.15043758414685726165771484375</LongitudeDegrees>
            </Position>
            <AltitudeMeters>254.1999969482421875</AltitudeMeters>
            <DistanceMeters>NAN</DistanceMeters>
          </Trackpoint>
          <Trackpoint>
            <Time>2020-05-25T07:29:51.000Z</Time>
            <Position>
              <LatitudeDegrees>38.07763184420764446258544921875</LatitudeDegrees>
              <LongitudeDegrees>-1.15044328384101390838623046875</LongitudeDegrees>
            </Position>
            <AltitudeMeters>254.399993896484375</AltitudeMeters>
            <DistanceMeters>NAN</DistanceMeters>
          </Trackpoint>
          <Trackpoint>
            <Time>2020-05-25T07:29:52.000Z</Time>
            <Position>
              <LatitudeDegrees>38.07759077288210391998291015625</LatitudeDegrees>
              <LongitudeDegrees>-1.150448732078075408935546875</LongitudeDegrees>
            </Position>
            <AltitudeMeters>254.600006103515625</AltitudeMeters>
            <DistanceMeters>NAN</DistanceMeters>
          </Trackpoint>
          <Trackpoint>
            <Time>2020-05-25T07:29:53.000Z</Time>
            <Position>
              <LatitudeDegrees>38.07755171321332454681396484375</LatitudeDegrees>
              <LongitudeDegrees>-1.1504545994102954864501953125</LongitudeDegrees>
            </Position>
            <AltitudeMeters>254.8000030517578125</AltitudeMeters>
            <DistanceMeters>NAN</DistanceMeters>
          </Trackpoint>
          <Trackpoint>
            <Time>2020-05-25T07:29:54.000Z</Time>
            <Position>
              <LatitudeDegrees>38.07751416228711605072021484375</LatitudeDegrees>
              <LongitudeDegrees>-1.1504606343805789947509765625</LongitudeDegrees>
            </Position>
            <AltitudeMeters>255</AltitudeMeters>
            <DistanceMeters>NAN</DistanceMeters>
          </Trackpoint>
          <Trackpoint>
            <Time>2020-05-25T07:29:55.000Z</Time>
            <Position>
              <LatitudeDegrees>38.07747795246541500091552734375</LatitudeDegrees>
              <LongitudeDegrees>-1.15046893246471881866455078125</LongitudeDegrees>
            </Position>
            <AltitudeMeters>255</AltitudeMeters>
            <DistanceMeters>NAN</DistanceMeters>
          </Trackpoint>
          <Trackpoint>
            <Time>2020-05-25T07:29:56.000Z</Time>
            <Position>
              <LatitudeDegrees>38.0774413235485553741455078125</LatitudeDegrees>
              <LongitudeDegrees>-1.15047387778759002685546875</LongitudeDegrees>
            </Position>
            <AltitudeMeters>255.1999969482421875</AltitudeMeters>
            <DistanceMeters>NAN</DistanceMeters>
          </Trackpoint>
          <Trackpoint>
            <Time>2020-05-25T07:29:57.000Z</Time>
            <Position>
              <LatitudeDegrees>38.07740201242268085479736328125</LatitudeDegrees>
              <LongitudeDegrees>-1.15047647617757320404052734375</LongitudeDegrees>
            </Position>
            <AltitudeMeters>255.399993896484375</AltitudeMeters>
            <DistanceMeters>NAN</DistanceMeters>
          </Trackpoint>
          <Trackpoint>
            <Time>2020-05-25T07:29:58.000Z</Time>
            <Position>
              <LatitudeDegrees>38.0773655511438846588134765625</LatitudeDegrees>
              <LongitudeDegrees>-1.15048435516655445098876953125</LongitudeDegrees>
            </Position>
            <AltitudeMeters>255.600006103515625</AltitudeMeters>
            <DistanceMeters>NAN</DistanceMeters>
          </Trackpoint>
          <Trackpoint>
            <Time>2020-05-25T07:29:59.000Z</Time>
            <Position>
              <LatitudeDegrees>38.07733210735023021697998046875</LatitudeDegrees>
              <LongitudeDegrees>-1.15049533545970916748046875</LongitudeDegrees>
            </Position>
            <AltitudeMeters>255.600006103515625</AltitudeMeters>
            <DistanceMeters>NAN</DistanceMeters>
          </Trackpoint>
          <Trackpoint>
            <Time>2020-05-25T07:30:00.000Z</Time>
            <Position>
              <LatitudeDegrees>38.077300675213336944580078125</LatitudeDegrees>
              <LongitudeDegrees>-1.150510422885417938232421875</LongitudeDegrees>
            </Position>
            <AltitudeMeters>255.8000030517578125</AltitudeMeters>
            <DistanceMeters>NAN</DistanceMeters>
          </Trackpoint>
          <Trackpoint>
            <Time>2020-05-25T07:30:01.000Z</Time>
            <Position>
              <LatitudeDegrees>38.077269159257411956787109375</LatitudeDegrees>
              <LongitudeDegrees>-1.150525510311126708984375</LongitudeDegrees>
            </Position>
            <AltitudeMeters>256</AltitudeMeters>
            <DistanceMeters>NAN</DistanceMeters>
          </Trackpoint>
          <Trackpoint>
            <Time>2020-05-25T07:30:02.000Z</Time>
            <Position>
              <LatitudeDegrees>38.07723672129213809967041015625</LatitudeDegrees>
              <LongitudeDegrees>-1.1505421064794063568115234375</LongitudeDegrees>
            </Position>
            <AltitudeMeters>256.20001220703125</AltitudeMeters>
            <DistanceMeters>NAN</DistanceMeters>
          </Trackpoint>
          <Trackpoint>
            <Time>2020-05-25T07:30:03.000Z</Time>
            <Position>
              <LatitudeDegrees>38.0772066302597522735595703125</LatitudeDegrees>
              <LongitudeDegrees>-1.15056046284735202789306640625</LongitudeDegrees>
            </Position>
            <AltitudeMeters>256.20001220703125</AltitudeMeters>
            <DistanceMeters>NAN</DistanceMeters>
          </Trackpoint>
          <Trackpoint>
            <Time>2020-05-25T07:30:04.000Z</Time>
            <Position>
              <LatitudeDegrees>38.07717762887477874755859375</LatitudeDegrees>
              <LongitudeDegrees>-1.15058250725269317626953125</LongitudeDegrees>
            </Position>
            <AltitudeMeters>256.399993896484375</AltitudeMeters>
            <DistanceMeters>NAN</DistanceMeters>
          </Trackpoint>
          <Trackpoint>
            <Time>2020-05-25T07:30:05.000Z</Time>
            <Position>
              <LatitudeDegrees>38.0771479569375514984130859375</LatitudeDegrees>
              <LongitudeDegrees>-1.1506071500480175018310546875</LongitudeDegrees>
            </Position>
            <AltitudeMeters>256.600006103515625</AltitudeMeters>
            <DistanceMeters>NAN</DistanceMeters>
          </Trackpoint>
          <Trackpoint>
            <Time>2020-05-25T07:30:06.000Z</Time>
            <Position>
              <LatitudeDegrees>38.07712071575224399566650390625</LatitudeDegrees>
              <LongitudeDegrees>-1.1506349779665470123291015625</LongitudeDegrees>
            </Position>
            <AltitudeMeters>256.79998779296875</AltitudeMeters>
            <DistanceMeters>NAN</DistanceMeters>
          </Trackpoint>
          <Trackpoint>
            <Time>2020-05-25T07:30:07.000Z</Time>
            <Position>
              <LatitudeDegrees>38.07709255255758762359619140625</LatitudeDegrees>
              <LongitudeDegrees>-1.15066238678991794586181640625</LongitudeDegrees>
            </Position>
            <AltitudeMeters>257</AltitudeMeters>
            <DistanceMeters>NAN</DistanceMeters>
          </Trackpoint>
          <Trackpoint>
            <Time>2020-05-25T07:30:08.000Z</Time>
            <Position>
              <LatitudeDegrees>38.07706170715391635894775390625</LatitudeDegrees>
              <LongitudeDegrees>-1.1506899632513523101806640625</LongitudeDegrees>
            </Position>
            <AltitudeMeters>257.20001220703125</AltitudeMeters>
            <DistanceMeters>NAN</DistanceMeters>
          </Trackpoint>
          <Trackpoint>
            <Time>2020-05-25T07:30:09.000Z</Time>
            <Position>
              <LatitudeDegrees>38.07703019119799137115478515625</LatitudeDegrees>
              <LongitudeDegrees>-1.1507174558937549591064453125</LongitudeDegrees>
            </Position>
            <AltitudeMeters>257.399993896484375</AltitudeMeters>
            <DistanceMeters>NAN</DistanceMeters>
          </Trackpoint>
          <Trackpoint>
            <Time>2020-05-25T07:30:10.000Z</Time>
            <Position>
              <LatitudeDegrees>38.077000267803668975830078125</LatitudeDegrees>
              <LongitudeDegrees>-1.15074620582163333892822265625</LongitudeDegrees>
            </Position>
            <AltitudeMeters>257.600006103515625</AltitudeMeters>
            <DistanceMeters>NAN</DistanceMeters>
          </Trackpoint>
          <Trackpoint>
            <Time>2020-05-25T07:30:11.000Z</Time>
            <Position>
              <LatitudeDegrees>38.07697386480867862701416015625</LatitudeDegrees>
              <LongitudeDegrees>-1.15077696740627288818359375</LongitudeDegrees>
            </Position>
            <AltitudeMeters>257.79998779296875</AltitudeMeters>
            <DistanceMeters>NAN</DistanceMeters>
          </Trackpoint>
          <Trackpoint>
            <Time>2020-05-25T07:30:12.000Z</Time>
            <Position>
              <LatitudeDegrees>38.07694788090884685516357421875</LatitudeDegrees>
              <LongitudeDegrees>-1.150810159742832183837890625</LongitudeDegrees>
            </Position>
            <AltitudeMeters>258</AltitudeMeters>
            <DistanceMeters>NAN</DistanceMeters>
          </Trackpoint>
          <Trackpoint>
            <Time>2020-05-25T07:30:13.000Z</Time>
            <Position>
              <LatitudeDegrees>38.0769226513803005218505859375</LatitudeDegrees>
              <LongitudeDegrees>-1.15084142424166202545166015625</LongitudeDegrees>
            </Position>
            <AltitudeMeters>258.20001220703125</AltitudeMeters>
            <DistanceMeters>NAN</DistanceMeters>
          </Trackpoint>
          <Trackpoint>
            <Time>2020-05-25T07:30:14.000Z</Time>
            <Position>
              <LatitudeDegrees>38.0768958292901515960693359375</LatitudeDegrees>
              <LongitudeDegrees>-1.15087193436920642852783203125</LongitudeDegrees>
            </Position>
            <AltitudeMeters>258.399993896484375</AltitudeMeters>
            <DistanceMeters>NAN</DistanceMeters>
          </Trackpoint>
          <Trackpoint>
            <Time>2020-05-25T07:30:15.000Z</Time>
            <Position>
              <LatitudeDegrees>38.07687210850417613983154296875</LatitudeDegrees>
              <LongitudeDegrees>-1.15090546198189258575439453125</LongitudeDegrees>
            </Position>
            <AltitudeMeters>258.600006103515625</AltitudeMeters>
            <DistanceMeters>NAN</DistanceMeters>
          </Trackpoint>
          <Trackpoint>
            <Time>2020-05-25T07:30:16.000Z</Time>
            <Position>
              <LatitudeDegrees>38.0768497288227081298828125</LatitudeDegrees>
              <LongitudeDegrees>-1.150938235223293304443359375</LongitudeDegrees>
            </Position>
            <AltitudeMeters>258.79998779296875</AltitudeMeters>
            <DistanceMeters>NAN</DistanceMeters>
          </Trackpoint>
          <Trackpoint>
            <Time>2020-05-25T07:30:17.000Z</Time>
            <Position>
              <LatitudeDegrees>38.0768264271318912506103515625</LatitudeDegrees>
              <LongitudeDegrees>-1.150968074798583984375</LongitudeDegrees>
            </Position>
            <AltitudeMeters>259</AltitudeMeters>
            <DistanceMeters>NAN</DistanceMeters>
          </Trackpoint>
          <Trackpoint>
            <Time>2020-05-25T07:30:18.000Z</Time>
            <Position>
              <LatitudeDegrees>38.0768056400120258331298828125</LatitudeDegrees>
              <LongitudeDegrees>-1.15099917165935039520263671875</LongitudeDegrees>
            </Position>
            <AltitudeMeters>259.20001220703125</AltitudeMeters>
            <DistanceMeters>NAN</DistanceMeters>
          </Trackpoint>
          <Trackpoint>
            <Time>2020-05-25T07:30:19.000Z</Time>
            <Position>
              <LatitudeDegrees>38.07678409852087497711181640625</LatitudeDegrees>
              <LongitudeDegrees>-1.15103269927203655242919921875</LongitudeDegrees>
            </Position>
            <AltitudeMeters>259.399993896484375</AltitudeMeters>
            <DistanceMeters>NAN</DistanceMeters>
          </Trackpoint>
          <Trackpoint>
            <Time>2020-05-25T07:30:20.000Z</Time>
            <Position>
              <LatitudeDegrees>38.07676255702972412109375</LatitudeDegrees>
              <LongitudeDegrees>-1.15106740035116672515869140625</LongitudeDegrees>
            </Position>
            <AltitudeMeters>259.600006103515625</AltitudeMeters>
            <DistanceMeters>NAN</DistanceMeters>
          </Trackpoint>
          <Trackpoint>
            <Time>2020-05-25T07:30:21.000Z</Time>
            <Position>
              <LatitudeDegrees>38.07673799805343151092529296875</LatitudeDegrees>
              <LongitudeDegrees>-1.15110478363931179046630859375</LongitudeDegrees>
            </Position>
            <AltitudeMeters>260.20001220703125</AltitudeMeters>
            <DistanceMeters>NAN</DistanceMeters>
          </Trackpoint>
          <Trackpoint>
            <Time>2020-05-25T07:30:22.000Z</Time>
            <Position>
              <LatitudeDegrees>38.0767147801816463470458984375</LatitudeDegrees>
              <LongitudeDegrees>-1.1511399038136005401611328125</LongitudeDegrees>
            </Position>
            <AltitudeMeters>260.600006103515625</AltitudeMeters>
            <DistanceMeters>NAN</DistanceMeters>
          </Trackpoint>
          <Trackpoint>
            <Time>2020-05-25T07:30:23.000Z</Time>
            <Position>
              <LatitudeDegrees>38.076693825423717498779296875</LatitudeDegrees>
              <LongitudeDegrees>-1.1511747725307941436767578125</LongitudeDegrees>
            </Position>
            <AltitudeMeters>261</AltitudeMeters>
            <DistanceMeters>NAN</DistanceMeters>
          </Trackpoint>
          <Trackpoint>
            <Time>2020-05-25T07:30:24.000Z</Time>
            <Position>
              <LatitudeDegrees>38.07667362503707408905029296875</LatitudeDegrees>
              <LongitudeDegrees>-1.15120637230575084686279296875</LongitudeDegrees>
            </Position>
            <AltitudeMeters>261.399993896484375</AltitudeMeters>
            <DistanceMeters>NAN</DistanceMeters>
          </Trackpoint>
          <Trackpoint>
            <Time>2020-05-25T07:30:25.000Z</Time>
            <Position>
              <LatitudeDegrees>38.0766520835459232330322265625</LatitudeDegrees>
              <LongitudeDegrees>-1.151238642632961273193359375</LongitudeDegrees>
            </Position>
            <AltitudeMeters>261.79998779296875</AltitudeMeters>
            <DistanceMeters>NAN</DistanceMeters>
          </Trackpoint>
          <Trackpoint>
            <Time>2020-05-25T07:30:26.000Z</Time>
            <Position>
              <LatitudeDegrees>38.07662970386445522308349609375</LatitudeDegrees>
              <LongitudeDegrees>-1.15127451717853546142578125</LongitudeDegrees>
            </Position>
            <AltitudeMeters>262.20001220703125</AltitudeMeters>
            <DistanceMeters>NAN</DistanceMeters>
          </Trackpoint>
          <Trackpoint>
            <Time>2020-05-25T07:30:27.000Z</Time>
            <Position>
              <LatitudeDegrees>38.0766091682016849517822265625</LatitudeDegrees>
              <LongitudeDegrees>-1.1513082124292850494384765625</LongitudeDegrees>
            </Position>
            <AltitudeMeters>262.600006103515625</AltitudeMeters>
            <DistanceMeters>NAN</DistanceMeters>
          </Trackpoint>
          <Trackpoint>
            <Time>2020-05-25T07:30:28.000Z</Time>
            <Position>
              <LatitudeDegrees>38.07659081183373928070068359375</LatitudeDegrees>
              <LongitudeDegrees>-1.151338554918766021728515625</LongitudeDegrees>
            </Position>
            <AltitudeMeters>263</AltitudeMeters>
            <DistanceMeters>NAN</DistanceMeters>
          </Trackpoint>
          <Trackpoint>
            <Time>2020-05-25T07:30:29.000Z</Time>
            <Position>
              <LatitudeDegrees>38.07656834833323955535888671875</LatitudeDegrees>
              <LongitudeDegrees>-1.15137065760791301727294921875</LongitudeDegrees>
            </Position>
            <AltitudeMeters>263.399993896484375</AltitudeMeters>
            <DistanceMeters>NAN</DistanceMeters>
          </Trackpoint>
          <Trackpoint>
            <Time>2020-05-25T07:30:30.000Z</Time>
            <Position>
              <LatitudeDegrees>38.0765488184988498687744140625</LatitudeDegrees>
              <LongitudeDegrees>-1.15140100009739398956298828125</LongitudeDegrees>
            </Position>
            <AltitudeMeters>263.600006103515625</AltitudeMeters>
            <DistanceMeters>NAN</DistanceMeters>
          </Trackpoint>
          <Trackpoint>
            <Time>2020-05-25T07:30:31.000Z</Time>
            <Position>
              <LatitudeDegrees>38.076531551778316497802734375</LatitudeDegrees>
              <LongitudeDegrees>-1.15143285132944583892822265625</LongitudeDegrees>
            </Position>
            <AltitudeMeters>264</AltitudeMeters>
            <DistanceMeters>NAN</DistanceMeters>
          </Trackpoint>
          <Trackpoint>
            <Time>2020-05-25T07:30:32.000Z</Time>
            <Position>
              <LatitudeDegrees>38.076514787971973419189453125</LatitudeDegrees>
              <LongitudeDegrees>-1.1514667980372905731201171875</LongitudeDegrees>
            </Position>
            <AltitudeMeters>264.399993896484375</AltitudeMeters>
            <DistanceMeters>NAN</DistanceMeters>
          </Trackpoint>
          <Trackpoint>
            <Time>2020-05-25T07:30:33.000Z</Time>
            <Position>
              <LatitudeDegrees>38.07649726979434490203857421875</LatitudeDegrees>
              <LongitudeDegrees>-1.15150024183094501495361328125</LongitudeDegrees>
            </Position>
            <AltitudeMeters>264.79998779296875</AltitudeMeters>
            <DistanceMeters>NAN</DistanceMeters>
          </Trackpoint>
          <Trackpoint>
            <Time>2020-05-25T07:30:34.000Z</Time>
            <Position>
              <LatitudeDegrees>38.076480925083160400390625</LatitudeDegrees>
              <LongitudeDegrees>-1.1515325121581554412841796875</LongitudeDegrees>
            </Position>
            <AltitudeMeters>265.20001220703125</AltitudeMeters>
            <DistanceMeters>NAN</DistanceMeters>
          </Trackpoint>
          <Trackpoint>
            <Time>2020-05-25T07:30:35.000Z</Time>
            <Position>
              <LatitudeDegrees>38.07646214962005615234375</LatitudeDegrees>
              <LongitudeDegrees>-1.15156360901892185211181640625</LongitudeDegrees>
            </Position>
            <AltitudeMeters>265.600006103515625</AltitudeMeters>
            <DistanceMeters>NAN</DistanceMeters>
          </Trackpoint>
          <Trackpoint>
            <Time>2020-05-25T07:30:36.000Z</Time>
            <Position>
              <LatitudeDegrees>38.07644396089017391204833984375</LatitudeDegrees>
              <LongitudeDegrees>-1.1515916883945465087890625</LongitudeDegrees>
            </Position>
            <AltitudeMeters>266</AltitudeMeters>
            <DistanceMeters>NAN</DistanceMeters>
          </Trackpoint>
          <Trackpoint>
            <Time>2020-05-25T07:30:37.000Z</Time>
            <Position>
              <LatitudeDegrees>38.07642485015094280242919921875</LatitudeDegrees>
              <LongitudeDegrees>-1.1516180075705051422119140625</LongitudeDegrees>
            </Position>
            <AltitudeMeters>266.399993896484375</AltitudeMeters>
            <DistanceMeters>NAN</DistanceMeters>
          </Trackpoint>
          <Trackpoint>
            <Time>2020-05-25T07:30:38.000Z</Time>
            <Position>
              <LatitudeDegrees>38.07640573941171169281005859375</LatitudeDegrees>
              <LongitudeDegrees>-1.151646338403224945068359375</LongitudeDegrees>
            </Position>
            <AltitudeMeters>266.600006103515625</AltitudeMeters>
            <DistanceMeters>NAN</DistanceMeters>
          </Trackpoint>
          <Trackpoint>
            <Time>2020-05-25T07:30:39.000Z</Time>
            <Position>
              <LatitudeDegrees>38.0763888917863368988037109375</LatitudeDegrees>
              <LongitudeDegrees>-1.1516750045120716094970703125</LongitudeDegrees>
            </Position>
            <AltitudeMeters>267</AltitudeMeters>
            <DistanceMeters>NAN</DistanceMeters>
          </Trackpoint>
          <Trackpoint>
            <Time>2020-05-25T07:30:40.000Z</Time>
            <Position>
              <LatitudeDegrees>38.076371289789676666259765625</LatitudeDegrees>
              <LongitudeDegrees>-1.1517038382589817047119140625</LongitudeDegrees>
            </Position>
            <AltitudeMeters>267.399993896484375</AltitudeMeters>
            <DistanceMeters>NAN</DistanceMeters>
          </Trackpoint>
          <Trackpoint>
            <Time>2020-05-25T07:30:41.000Z</Time>
            <Position>
              <LatitudeDegrees>38.07635343633592128753662109375</LatitudeDegrees>
              <LongitudeDegrees>-1.15173258818686008453369140625</LongitudeDegrees>
            </Position>
            <AltitudeMeters>267.79998779296875</AltitudeMeters>
            <DistanceMeters>NAN</DistanceMeters>
          </Trackpoint>
          <Trackpoint>
            <Time>2020-05-25T07:30:42.000Z</Time>
            <Position>
              <LatitudeDegrees>38.0763359181582927703857421875</LatitudeDegrees>
              <LongitudeDegrees>-1.151761673390865325927734375</LongitudeDegrees>
            </Position>
            <AltitudeMeters>268.20001220703125</AltitudeMeters>
            <DistanceMeters>NAN</DistanceMeters>
          </Trackpoint>
          <Trackpoint>
            <Time>2020-05-25T07:30:43.000Z</Time>
            <Position>
              <LatitudeDegrees>38.07631907053291797637939453125</LatitudeDegrees>
              <LongitudeDegrees>-1.15179243497550487518310546875</LongitudeDegrees>
            </Position>
            <AltitudeMeters>268.600006103515625</AltitudeMeters>
            <DistanceMeters>NAN</DistanceMeters>
          </Trackpoint>
          <Trackpoint>
            <Time>2020-05-25T07:30:44.000Z</Time>
            <Position>
              <LatitudeDegrees>38.0763030610978603363037109375</LatitudeDegrees>
              <LongitudeDegrees>-1.15182143636047840118408203125</LongitudeDegrees>
            </Position>
            <AltitudeMeters>268.79998779296875</AltitudeMeters>
            <DistanceMeters>NAN</DistanceMeters>
          </Trackpoint>
          <Trackpoint>
            <Time>2020-05-25T07:30:45.000Z</Time>
            <Position>
              <LatitudeDegrees>38.0762876383960247039794921875</LatitudeDegrees>
              <LongitudeDegrees>-1.15184976719319820404052734375</LongitudeDegrees>
            </Position>
            <AltitudeMeters>269.20001220703125</AltitudeMeters>
            <DistanceMeters>NAN</DistanceMeters>
          </Trackpoint>
          <Trackpoint>
            <Time>2020-05-25T07:30:46.000Z</Time>
            <Position>
              <LatitudeDegrees>38.07627372443675994873046875</LatitudeDegrees>
              <LongitudeDegrees>-1.1518785171210765838623046875</LongitudeDegrees>
            </Position>
            <AltitudeMeters>269.600006103515625</AltitudeMeters>
            <DistanceMeters>NAN</DistanceMeters>
          </Trackpoint>
          <Trackpoint>
            <Time>2020-05-25T07:30:47.000Z</Time>
            <Position>
              <LatitudeDegrees>38.0762598104774951934814453125</LatitudeDegrees>
              <LongitudeDegrees>-1.15190994925796985626220703125</LongitudeDegrees>
            </Position>
            <AltitudeMeters>269.79998779296875</AltitudeMeters>
            <DistanceMeters>NAN</DistanceMeters>
          </Trackpoint>
          <Trackpoint>
            <Time>2020-05-25T07:30:48.000Z</Time>
            <Position>
              <LatitudeDegrees>38.0762477405369281768798828125</LatitudeDegrees>
              <LongitudeDegrees>-1.1519408784806728363037109375</LongitudeDegrees>
            </Position>
            <AltitudeMeters>270.20001220703125</AltitudeMeters>
            <DistanceMeters>NAN</DistanceMeters>
          </Trackpoint>
          <Trackpoint>
            <Time>2020-05-25T07:30:49.000Z</Time>
            <Position>
              <LatitudeDegrees>38.07623541913926601409912109375</LatitudeDegrees>
              <LongitudeDegrees>-1.15197013132274150848388671875</LongitudeDegrees>
            </Position>
            <AltitudeMeters>270.399993896484375</AltitudeMeters>
            <DistanceMeters>NAN</DistanceMeters>
          </Trackpoint>
          <Trackpoint>
            <Time>2020-05-25T07:30:50.000Z</Time>
            <Position>
              <LatitudeDegrees>38.07622267864644527435302734375</LatitudeDegrees>
              <LongitudeDegrees>-1.1519985459744930267333984375</LongitudeDegrees>
            </Position>
            <AltitudeMeters>270.79998779296875</AltitudeMeters>
            <DistanceMeters>NAN</DistanceMeters>
          </Trackpoint>
          <Trackpoint>
            <Time>2020-05-25T07:30:51.000Z</Time>
            <Position>
              <LatitudeDegrees>38.0762085132300853729248046875</LatitudeDegrees>
              <LongitudeDegrees>-1.15202561952173709869384765625</LongitudeDegrees>
            </Position>
            <AltitudeMeters>271</AltitudeMeters>
            <DistanceMeters>NAN</DistanceMeters>
          </Trackpoint>
          <Trackpoint>
            <Time>2020-05-25T07:30:52.000Z</Time>
            <Position>
              <LatitudeDegrees>38.07619317434728145599365234375</LatitudeDegrees>
              <LongitudeDegrees>-1.15205378271639347076416015625</LongitudeDegrees>
            </Position>
            <AltitudeMeters>271.399993896484375</AltitudeMeters>
            <DistanceMeters>NAN</DistanceMeters>
          </Trackpoint>
          <Trackpoint>
            <Time>2020-05-25T07:30:53.000Z</Time>
            <Position>
              <LatitudeDegrees>38.076177500188350677490234375</LatitudeDegrees>
              <LongitudeDegrees>-1.15208144299685955047607421875</LongitudeDegrees>
            </Position>
            <AltitudeMeters>271.600006103515625</AltitudeMeters>
            <DistanceMeters>NAN</DistanceMeters>
          </Trackpoint>
          <Trackpoint>
            <Time>2020-05-25T07:30:54.000Z</Time>
            <Position>
              <LatitudeDegrees>38.07616132311522960662841796875</LatitudeDegrees>
              <LongitudeDegrees>-1.1521098576486110687255859375</LongitudeDegrees>
            </Position>
            <AltitudeMeters>272</AltitudeMeters>
            <DistanceMeters>NAN</DistanceMeters>
          </Trackpoint>
          <Trackpoint>
            <Time>2020-05-25T07:30:55.000Z</Time>
            <Position>
              <LatitudeDegrees>38.076144643127918243408203125</LatitudeDegrees>
              <LongitudeDegrees>-1.15213952958583831787109375</LongitudeDegrees>
            </Position>
            <AltitudeMeters>272.20001220703125</AltitudeMeters>
            <DistanceMeters>NAN</DistanceMeters>
          </Trackpoint>
          <Trackpoint>
            <Time>2020-05-25T07:30:56.000Z</Time>
            <Position>
              <LatitudeDegrees>38.07612829841673374176025390625</LatitudeDegrees>
              <LongitudeDegrees>-1.1521671898663043975830078125</LongitudeDegrees>
            </Position>
            <AltitudeMeters>272.600006103515625</AltitudeMeters>
            <DistanceMeters>NAN</DistanceMeters>
          </Trackpoint>
          <Trackpoint>
            <Time>2020-05-25T07:30:57.000Z</Time>
            <Position>
              <LatitudeDegrees>38.076114468276500701904296875</LatitudeDegrees>
              <LongitudeDegrees>-1.15219593979418277740478515625</LongitudeDegrees>
            </Position>
            <AltitudeMeters>272.79998779296875</AltitudeMeters>
            <DistanceMeters>NAN</DistanceMeters>
          </Trackpoint>
          <Trackpoint>
            <Time>2020-05-25T07:30:58.000Z</Time>
            <Position>
              <LatitudeDegrees>38.076100051403045654296875</LatitudeDegrees>
              <LongitudeDegrees>-1.15222410298883914947509765625</LongitudeDegrees>
            </Position>
            <AltitudeMeters>273</AltitudeMeters>
            <DistanceMeters>NAN</DistanceMeters>
          </Trackpoint>
          <Trackpoint>
            <Time>2020-05-25T07:30:59.000Z</Time>
            <Position>
              <LatitudeDegrees>38.07608488015830516815185546875</LatitudeDegrees>
              <LongitudeDegrees>-1.1522541940212249755859375</LongitudeDegrees>
            </Position>
            <AltitudeMeters>273.399993896484375</AltitudeMeters>
            <DistanceMeters>NAN</DistanceMeters>
          </Trackpoint>
          <Trackpoint>
            <Time>2020-05-25T07:31:00.000Z</Time>
            <Position>
              <LatitudeDegrees>38.07607012800872325897216796875</LatitudeDegrees>
              <LongitudeDegrees>-1.1522848717868328094482421875</LongitudeDegrees>
            </Position>
            <AltitudeMeters>273.600006103515625</AltitudeMeters>
            <DistanceMeters>NAN</DistanceMeters>
          </Trackpoint>
          <Trackpoint>
            <Time>2020-05-25T07:31:01.000Z</Time>
            <Position>
              <LatitudeDegrees>38.07605537585914134979248046875</LatitudeDegrees>
              <LongitudeDegrees>-1.15231521427631378173828125</LongitudeDegrees>
            </Position>
            <AltitudeMeters>274</AltitudeMeters>
            <DistanceMeters>NAN</DistanceMeters>
          </Trackpoint>
          <Trackpoint>
            <Time>2020-05-25T07:31:02.000Z</Time>
            <Position>
              <LatitudeDegrees>38.07604280300438404083251953125</LatitudeDegrees>
              <LongitudeDegrees>-1.15234597586095333099365234375</LongitudeDegrees>
            </Position>
            <AltitudeMeters>274.399993896484375</AltitudeMeters>
            <DistanceMeters>NAN</DistanceMeters>
          </Trackpoint>
          <Trackpoint>
            <Time>2020-05-25T07:31:03.000Z</Time>
            <Position>
              <LatitudeDegrees>38.0760276317596435546875</LatitudeDegrees>
              <LongitudeDegrees>-1.1523764021694660186767578125</LongitudeDegrees>
            </Position>
            <AltitudeMeters>274.79998779296875</AltitudeMeters>
            <DistanceMeters>NAN</DistanceMeters>
          </Trackpoint>
          <Trackpoint>
            <Time>2020-05-25T07:31:04.000Z</Time>
            <Position>
              <LatitudeDegrees>38.07601346634328365325927734375</LatitudeDegrees>
              <LongitudeDegrees>-1.15240775048732757568359375</LongitudeDegrees>
            </Position>
            <AltitudeMeters>275.20001220703125</AltitudeMeters>
            <DistanceMeters>NAN</DistanceMeters>
          </Trackpoint>
          <Trackpoint>
            <Time>2020-05-25T07:31:05.000Z</Time>
            <Position>
              <LatitudeDegrees>38.07599821127951145172119140625</LatitudeDegrees>
              <LongitudeDegrees>-1.15243700332939624786376953125</LongitudeDegrees>
            </Position>
            <AltitudeMeters>275.600006103515625</AltitudeMeters>
            <DistanceMeters>NAN</DistanceMeters>
          </Trackpoint>
          <Trackpoint>
            <Time>2020-05-25T07:31:06.000Z</Time>
            <Position>
              <LatitudeDegrees>38.0759808607399463653564453125</LatitudeDegrees>
              <LongitudeDegrees>-1.15246499888598918914794921875</LongitudeDegrees>
            </Position>
            <AltitudeMeters>276</AltitudeMeters>
            <DistanceMeters>NAN</DistanceMeters>
          </Trackpoint>
          <Trackpoint>
            <Time>2020-05-25T07:31:07.000Z</Time>
            <Position>
              <LatitudeDegrees>38.0759661085903644561767578125</LatitudeDegrees>
              <LongitudeDegrees>-1.1524944193661212921142578125</LongitudeDegrees>
            </Position>
            <AltitudeMeters>276.399993896484375</AltitudeMeters>
            <DistanceMeters>NAN</DistanceMeters>
          </Trackpoint>
          <Trackpoint>
            <Time>2020-05-25T07:31:08.000Z</Time>
            <Position>
              <LatitudeDegrees>38.0759526975452899932861328125</LatitudeDegrees>
              <LongitudeDegrees>-1.15252350457012653350830078125</LongitudeDegrees>
            </Position>
            <AltitudeMeters>276.79998779296875</AltitudeMeters>
            <DistanceMeters>NAN</DistanceMeters>
          </Trackpoint>
          <Trackpoint>
            <Time>2020-05-25T07:31:09.000Z</Time>
            <Position>
              <LatitudeDegrees>38.0759350955486297607421875</LatitudeDegrees>
              <LongitudeDegrees>-1.15255284123122692108154296875</LongitudeDegrees>
            </Position>
            <AltitudeMeters>277.20001220703125</AltitudeMeters>
            <DistanceMeters>NAN</DistanceMeters>
          </Trackpoint>
          <Trackpoint>
            <Time>2020-05-25T07:31:10.000Z</Time>
            <Position>
              <LatitudeDegrees>38.07591640390455722808837890625</LatitudeDegrees>
              <LongitudeDegrees>-1.1525802500545978546142578125</LongitudeDegrees>
            </Position>
            <AltitudeMeters>277.399993896484375</AltitudeMeters>
            <DistanceMeters>NAN</DistanceMeters>
          </Trackpoint>
          <Trackpoint>
            <Time>2020-05-25T07:31:11.000Z</Time>
            <Position>
              <LatitudeDegrees>38.07589645497500896453857421875</LatitudeDegrees>
              <LongitudeDegrees>-1.1526057310402393341064453125</LongitudeDegrees>
            </Position>
            <AltitudeMeters>277.600006103515625</AltitudeMeters>
            <DistanceMeters>NAN</DistanceMeters>
          </Trackpoint>
          <Trackpoint>
            <Time>2020-05-25T07:31:12.000Z</Time>
            <Position>
              <LatitudeDegrees>38.0758742429316043853759765625</LatitudeDegrees>
              <LongitudeDegrees>-1.1526297032833099365234375</LongitudeDegrees>
            </Position>
            <AltitudeMeters>277.600006103515625</AltitudeMeters>
            <DistanceMeters>NAN</DistanceMeters>
          </Trackpoint>
          <Trackpoint>
            <Time>2020-05-25T07:31:13.000Z</Time>
            <Position>
              <LatitudeDegrees>38.07585169561207294464111328125</LatitudeDegrees>
              <LongitudeDegrees>-1.15265426225960254669189453125</LongitudeDegrees>
            </Position>
            <AltitudeMeters>277.79998779296875</AltitudeMeters>
            <DistanceMeters>NAN</DistanceMeters>
          </Trackpoint>
          <Trackpoint>
            <Time>2020-05-25T07:31:14.000Z</Time>
            <Position>
              <LatitudeDegrees>38.07582847774028778076171875</LatitudeDegrees>
              <LongitudeDegrees>-1.15267856977880001068115234375</LongitudeDegrees>
            </Position>
            <AltitudeMeters>277.79998779296875</AltitudeMeters>
            <DistanceMeters>NAN</DistanceMeters>
          </Trackpoint>
          <Trackpoint>
            <Time>2020-05-25T07:31:15.000Z</Time>
            <Position>
              <LatitudeDegrees>38.0758028291165828704833984375</LatitudeDegrees>
              <LongitudeDegrees>-1.15270053036510944366455078125</LongitudeDegrees>
            </Position>
            <AltitudeMeters>277.79998779296875</AltitudeMeters>
            <DistanceMeters>NAN</DistanceMeters>
          </Trackpoint>
          <Trackpoint>
            <Time>2020-05-25T07:31:16.000Z</Time>
            <Position>
              <LatitudeDegrees>38.07577592320740222930908203125</LatitudeDegrees>
              <LongitudeDegrees>-1.15272114984691143035888671875</LongitudeDegrees>
            </Position>
            <AltitudeMeters>278</AltitudeMeters>
            <DistanceMeters>NAN</DistanceMeters>
          </Trackpoint>
          <Trackpoint>
            <Time>2020-05-25T07:31:17.000Z</Time>
            <Position>
              <LatitudeDegrees>38.07575069367885589599609375</LatitudeDegrees>
              <LongitudeDegrees>-1.15274277515709400177001953125</LongitudeDegrees>
            </Position>
            <AltitudeMeters>278</AltitudeMeters>
            <DistanceMeters>NAN</DistanceMeters>
          </Trackpoint>
          <Trackpoint>
            <Time>2020-05-25T07:31:18.000Z</Time>
            <Position>
              <LatitudeDegrees>38.0757226981222629547119140625</LatitudeDegrees>
              <LongitudeDegrees>-1.1527659930288791656494140625</LongitudeDegrees>
            </Position>
            <AltitudeMeters>278.20001220703125</AltitudeMeters>
            <DistanceMeters>NAN</DistanceMeters>
          </Trackpoint>
          <Trackpoint>
            <Time>2020-05-25T07:31:19.000Z</Time>
            <Position>
              <LatitudeDegrees>38.07569378055632114410400390625</LatitudeDegrees>
              <LongitudeDegrees>-1.15278803743422031402587890625</LongitudeDegrees>
            </Position>
            <AltitudeMeters>278.20001220703125</AltitudeMeters>
            <DistanceMeters>NAN</DistanceMeters>
          </Trackpoint>
          <Trackpoint>
            <Time>2020-05-25T07:31:20.000Z</Time>
            <Position>
              <LatitudeDegrees>38.075663857161998748779296875</LatitudeDegrees>
              <LongitudeDegrees>-1.1528094112873077392578125</LongitudeDegrees>
            </Position>
            <AltitudeMeters>278.20001220703125</AltitudeMeters>
            <DistanceMeters>NAN</DistanceMeters>
          </Trackpoint>
          <Trackpoint>
            <Time>2020-05-25T07:31:21.000Z</Time>
            <Position>
              <LatitudeDegrees>38.07563410140573978424072265625</LatitudeDegrees>
              <LongitudeDegrees>-1.15283028222620487213134765625</LongitudeDegrees>
            </Position>
            <AltitudeMeters>278.399993896484375</AltitudeMeters>
            <DistanceMeters>NAN</DistanceMeters>
          </Trackpoint>
          <Trackpoint>
            <Time>2020-05-25T07:31:22.000Z</Time>
            <Position>
              <LatitudeDegrees>38.07560526765882968902587890625</LatitudeDegrees>
              <LongitudeDegrees>-1.1528531648218631744384765625</LongitudeDegrees>
            </Position>
            <AltitudeMeters>278.399993896484375</AltitudeMeters>
            <DistanceMeters>NAN</DistanceMeters>
          </Trackpoint>
          <Trackpoint>
            <Time>2020-05-25T07:31:23.000Z</Time>
            <Position>
              <LatitudeDegrees>38.0755761824548244476318359375</LatitudeDegrees>
              <LongitudeDegrees>-1.152874119579792022705078125</LongitudeDegrees>
            </Position>
            <AltitudeMeters>278.399993896484375</AltitudeMeters>
            <DistanceMeters>NAN</DistanceMeters>
          </Trackpoint>
          <Trackpoint>
            <Time>2020-05-25T07:31:24.000Z</Time>
            <Position>
              <LatitudeDegrees>38.07554273866117000579833984375</LatitudeDegrees>
              <LongitudeDegrees>-1.15289188921451568603515625</LongitudeDegrees>
            </Position>
            <AltitudeMeters>278.399993896484375</AltitudeMeters>
            <DistanceMeters>NAN</DistanceMeters>
          </Trackpoint>
          <Trackpoint>
            <Time>2020-05-25T07:31:25.000Z</Time>
            <Position>
              <LatitudeDegrees>38.075507618486881256103515625</LatitudeDegrees>
              <LongitudeDegrees>-1.15290907211601734161376953125</LongitudeDegrees>
            </Position>
            <AltitudeMeters>278.600006103515625</AltitudeMeters>
            <DistanceMeters>NAN</DistanceMeters>
          </Trackpoint>
          <Trackpoint>
            <Time>2020-05-25T07:31:26.000Z</Time>
            <Position>
              <LatitudeDegrees>38.07547308504581451416015625</LatitudeDegrees>
              <LongitudeDegrees>-1.1529245786368846893310546875</LongitudeDegrees>
            </Position>
            <AltitudeMeters>278.600006103515625</AltitudeMeters>
            <DistanceMeters>NAN</DistanceMeters>
          </Trackpoint>
          <Trackpoint>
            <Time>2020-05-25T07:31:27.000Z</Time>
            <Position>
              <LatitudeDegrees>38.07544089853763580322265625</LatitudeDegrees>
              <LongitudeDegrees>-1.152939163148403167724609375</LongitudeDegrees>
            </Position>
            <AltitudeMeters>278.600006103515625</AltitudeMeters>
            <DistanceMeters>NAN</DistanceMeters>
          </Trackpoint>
          <Trackpoint>
            <Time>2020-05-25T07:31:28.000Z</Time>
            <Position>
              <LatitudeDegrees>38.0754105560481548309326171875</LatitudeDegrees>
              <LongitudeDegrees>-1.152952574193477630615234375</LongitudeDegrees>
            </Position>
            <AltitudeMeters>278.600006103515625</AltitudeMeters>
            <DistanceMeters>NAN</DistanceMeters>
          </Trackpoint>
          <Trackpoint>
            <Time>2020-05-25T07:31:29.000Z</Time>
            <Position>
              <LatitudeDegrees>38.07538147084414958953857421875</LatitudeDegrees>
              <LongitudeDegrees>-1.152962632477283477783203125</LongitudeDegrees>
            </Position>
            <AltitudeMeters>278.600006103515625</AltitudeMeters>
            <DistanceMeters>NAN</DistanceMeters>
          </Trackpoint>
          <Trackpoint>
            <Time>2020-05-25T07:31:30.000Z</Time>
            <Position>
              <LatitudeDegrees>38.0753530561923980712890625</LatitudeDegrees>
              <LongitudeDegrees>-1.15297369658946990966796875</LongitudeDegrees>
            </Position>
            <AltitudeMeters>278.600006103515625</AltitudeMeters>
            <DistanceMeters>NAN</DistanceMeters>
          </Trackpoint>
          <Trackpoint>
            <Time>2020-05-25T07:31:31.000Z</Time>
            <Position>
              <LatitudeDegrees>38.07532313279807567596435546875</LatitudeDegrees>
              <LongitudeDegrees>-1.15298501215875148773193359375</LongitudeDegrees>
            </Position>
            <AltitudeMeters>278.600006103515625</AltitudeMeters>
            <DistanceMeters>NAN</DistanceMeters>
          </Trackpoint>
          <Trackpoint>
            <Time>2020-05-25T07:31:32.000Z</Time>
            <Position>
              <LatitudeDegrees>38.07529144920408725738525390625</LatitudeDegrees>
              <LongitudeDegrees>-1.15299456752836704254150390625</LongitudeDegrees>
            </Position>
            <AltitudeMeters>278.600006103515625</AltitudeMeters>
            <DistanceMeters>NAN</DistanceMeters>
          </Trackpoint>
          <Trackpoint>
            <Time>2020-05-25T07:31:33.000Z</Time>
            <Position>
              <LatitudeDegrees>38.0752591788768768310546875</LatitudeDegrees>
              <LongitudeDegrees>-1.15300479345023632049560546875</LongitudeDegrees>
            </Position>
            <AltitudeMeters>278.600006103515625</AltitudeMeters>
            <DistanceMeters>NAN</DistanceMeters>
          </Trackpoint>
          <Trackpoint>
            <Time>2020-05-25T07:31:34.000Z</Time>
            <Position>
              <LatitudeDegrees>38.07522498071193695068359375</LatitudeDegrees>
              <LongitudeDegrees>-1.15301367826759815216064453125</LongitudeDegrees>
            </Position>
            <AltitudeMeters>278.79998779296875</AltitudeMeters>
            <DistanceMeters>NAN</DistanceMeters>
          </Trackpoint>
          <Trackpoint>
            <Time>2020-05-25T07:31:35.000Z</Time>
            <Position>
              <LatitudeDegrees>38.07518969289958477020263671875</LatitudeDegrees>
              <LongitudeDegrees>-1.15302172489464282989501953125</LongitudeDegrees>
            </Position>
            <AltitudeMeters>278.600006103515625</AltitudeMeters>
            <DistanceMeters>NAN</DistanceMeters>
          </Trackpoint>
          <Trackpoint>
            <Time>2020-05-25T07:31:36.000Z</Time>
            <Position>
              <LatitudeDegrees>38.0751527287065982818603515625</LatitudeDegrees>
              <LongitudeDegrees>-1.15303060971200466156005859375</LongitudeDegrees>
            </Position>
            <AltitudeMeters>278.79998779296875</AltitudeMeters>
            <DistanceMeters>NAN</DistanceMeters>
          </Trackpoint>
          <Trackpoint>
            <Time>2020-05-25T07:31:37.000Z</Time>
            <Position>
              <LatitudeDegrees>38.07511375285685062408447265625</LatitudeDegrees>
              <LongitudeDegrees>-1.1530405841767787933349609375</LongitudeDegrees>
            </Position>
            <AltitudeMeters>278.79998779296875</AltitudeMeters>
            <DistanceMeters>NAN</DistanceMeters>
          </Trackpoint>
          <Trackpoint>
            <Time>2020-05-25T07:31:38.000Z</Time>
            <Position>
              <LatitudeDegrees>38.07507502846419811248779296875</LatitudeDegrees>
              <LongitudeDegrees>-1.1530516482889652252197265625</LongitudeDegrees>
            </Position>
            <AltitudeMeters>278.600006103515625</AltitudeMeters>
            <DistanceMeters>NAN</DistanceMeters>
          </Trackpoint>
          <Trackpoint>
            <Time>2020-05-25T07:31:39.000Z</Time>
            <Position>
              <LatitudeDegrees>38.07503630407154560089111328125</LatitudeDegrees>
              <LongitudeDegrees>-1.15306262858211994171142578125</LongitudeDegrees>
            </Position>
            <AltitudeMeters>278.20001220703125</AltitudeMeters>
            <DistanceMeters>NAN</DistanceMeters>
          </Trackpoint>
          <Trackpoint>
            <Time>2020-05-25T07:31:40.000Z</Time>
            <Position>
              <LatitudeDegrees>38.07499573566019535064697265625</LatitudeDegrees>
              <LongitudeDegrees>-1.1530731059610843658447265625</LongitudeDegrees>
            </Position>
            <AltitudeMeters>278</AltitudeMeters>
            <DistanceMeters>NAN</DistanceMeters>
          </Trackpoint>
          <Trackpoint>
            <Time>2020-05-25T07:31:41.000Z</Time>
            <Position>
              <LatitudeDegrees>38.0749549157917499542236328125</LatitudeDegrees>
              <LongitudeDegrees>-1.153081990778446197509765625</LongitudeDegrees>
            </Position>
            <AltitudeMeters>277.600006103515625</AltitudeMeters>
            <DistanceMeters>NAN</DistanceMeters>
          </Trackpoint>
          <Trackpoint>
            <Time>2020-05-25T07:31:42.000Z</Time>
            <Position>
              <LatitudeDegrees>38.074913509190082550048828125</LatitudeDegrees>
              <LongitudeDegrees>-1.15308827720582485198974609375</LongitudeDegrees>
            </Position>
            <AltitudeMeters>277.20001220703125</AltitudeMeters>
            <DistanceMeters>NAN</DistanceMeters>
          </Trackpoint>
          <Trackpoint>
            <Time>2020-05-25T07:31:43.000Z</Time>
            <Position>
              <LatitudeDegrees>38.0748731084167957305908203125</LatitudeDegrees>
              <LongitudeDegrees>-1.1530962400138378143310546875</LongitudeDegrees>
            </Position>
            <AltitudeMeters>276.79998779296875</AltitudeMeters>
            <DistanceMeters>NAN</DistanceMeters>
          </Trackpoint>
          <Trackpoint>
            <Time>2020-05-25T07:31:44.000Z</Time>
            <Position>
              <LatitudeDegrees>38.07483212091028690338134765625</LatitudeDegrees>
              <LongitudeDegrees>-1.1531076394021511077880859375</LongitudeDegrees>
            </Position>
            <AltitudeMeters>276.399993896484375</AltitudeMeters>
            <DistanceMeters>NAN</DistanceMeters>
          </Trackpoint>
          <Trackpoint>
            <Time>2020-05-25T07:31:45.000Z</Time>
            <Position>
              <LatitudeDegrees>38.07479188777506351470947265625</LatitudeDegrees>
              <LongitudeDegrees>-1.15311828441917896270751953125</LongitudeDegrees>
            </Position>
            <AltitudeMeters>276.20001220703125</AltitudeMeters>
            <DistanceMeters>NAN</DistanceMeters>
          </Trackpoint>
          <Trackpoint>
            <Time>2020-05-25T07:31:46.000Z</Time>
            <Position>
              <LatitudeDegrees>38.07475098408758640289306640625</LatitudeDegrees>
              <LongitudeDegrees>-1.1531277559697628021240234375</LongitudeDegrees>
            </Position>
            <AltitudeMeters>275.79998779296875</AltitudeMeters>
            <DistanceMeters>NAN</DistanceMeters>
          </Trackpoint>
          <Trackpoint>
            <Time>2020-05-25T07:31:47.000Z</Time>
            <Position>
              <LatitudeDegrees>38.0747093260288238525390625</LatitudeDegrees>
              <LongitudeDegrees>-1.1531358025968074798583984375</LongitudeDegrees>
            </Position>
            <AltitudeMeters>275.399993896484375</AltitudeMeters>
            <DistanceMeters>NAN</DistanceMeters>
          </Trackpoint>
          <Trackpoint>
            <Time>2020-05-25T07:31:48.000Z</Time>
            <Position>
              <LatitudeDegrees>38.07466800324618816375732421875</LatitudeDegrees>
              <LongitudeDegrees>-1.15314410068094730377197265625</LongitudeDegrees>
            </Position>
            <AltitudeMeters>275</AltitudeMeters>
            <DistanceMeters>NAN</DistanceMeters>
          </Trackpoint>
          <Trackpoint>
            <Time>2020-05-25T07:31:49.000Z</Time>
            <Position>
              <LatitudeDegrees>38.0746280215680599212646484375</LatitudeDegrees>
              <LongitudeDegrees>-1.15315432660281658172607421875</LongitudeDegrees>
            </Position>
            <AltitudeMeters>274.79998779296875</AltitudeMeters>
            <DistanceMeters>NAN</DistanceMeters>
          </Trackpoint>
          <Trackpoint>
            <Time>2020-05-25T07:31:50.000Z</Time>
            <Position>
              <LatitudeDegrees>38.07458736933767795562744140625</LatitudeDegrees>
              <LongitudeDegrees>-1.15316673181951045989990234375</LongitudeDegrees>
            </Position>
            <AltitudeMeters>274.399993896484375</AltitudeMeters>
            <DistanceMeters>NAN</DistanceMeters>
          </Trackpoint>
          <Trackpoint>
            <Time>2020-05-25T07:31:51.000Z</Time>
            <Position>
              <LatitudeDegrees>38.07454680092632770538330078125</LatitudeDegrees>
              <LongitudeDegrees>-1.1531790532171726226806640625</LongitudeDegrees>
            </Position>
            <AltitudeMeters>274</AltitudeMeters>
            <DistanceMeters>NAN</DistanceMeters>
          </Trackpoint>
          <Trackpoint>
            <Time>2020-05-25T07:31:52.000Z</Time>
            <Position>
              <LatitudeDegrees>38.0745029635727405548095703125</LatitudeDegrees>
              <LongitudeDegrees>-1.153187267482280731201171875</LongitudeDegrees>
            </Position>
            <AltitudeMeters>273.600006103515625</AltitudeMeters>
            <DistanceMeters>NAN</DistanceMeters>
          </Trackpoint>
          <Trackpoint>
            <Time>2020-05-25T07:31:53.000Z</Time>
            <Position>
              <LatitudeDegrees>38.07445652782917022705078125</LatitudeDegrees>
              <LongitudeDegrees>-1.15319707430899143218994140625</LongitudeDegrees>
            </Position>
            <AltitudeMeters>273.20001220703125</AltitudeMeters>
            <DistanceMeters>NAN</DistanceMeters>
          </Trackpoint>
          <Trackpoint>
            <Time>2020-05-25T07:31:54.000Z</Time>
            <Position>
              <LatitudeDegrees>38.07440699078142642974853515625</LatitudeDegrees>
              <LongitudeDegrees>-1.15320973098278045654296875</LongitudeDegrees>
            </Position>
            <AltitudeMeters>272.79998779296875</AltitudeMeters>
            <DistanceMeters>NAN</DistanceMeters>
          </Trackpoint>
          <Trackpoint>
            <Time>2020-05-25T07:31:55.000Z</Time>
            <Position>
              <LatitudeDegrees>38.07435418479144573211669921875</LatitudeDegrees>
              <LongitudeDegrees>-1.15322121419012546539306640625</LongitudeDegrees>
            </Position>
            <AltitudeMeters>272.399993896484375</AltitudeMeters>
            <DistanceMeters>NAN</DistanceMeters>
          </Trackpoint>
          <Trackpoint>
            <Time>2020-05-25T07:31:56.000Z</Time>
            <Position>
              <LatitudeDegrees>38.074301294982433319091796875</LatitudeDegrees>
              <LongitudeDegrees>-1.153232194483280181884765625</LongitudeDegrees>
            </Position>
            <AltitudeMeters>272</AltitudeMeters>
            <DistanceMeters>NAN</DistanceMeters>
          </Trackpoint>
          <Trackpoint>
            <Time>2020-05-25T07:31:57.000Z</Time>
            <Position>
              <LatitudeDegrees>38.0742471478879451751708984375</LatitudeDegrees>
              <LongitudeDegrees>-1.15324191749095916748046875</LongitudeDegrees>
            </Position>
            <AltitudeMeters>271.600006103515625</AltitudeMeters>
            <DistanceMeters>NAN</DistanceMeters>
          </Trackpoint>
          <Trackpoint>
            <Time>2020-05-25T07:31:58.000Z</Time>
            <Position>
              <LatitudeDegrees>38.07418788783252239227294921875</LatitudeDegrees>
              <LongitudeDegrees>-1.15325222723186016082763671875</LongitudeDegrees>
            </Position>
            <AltitudeMeters>271.399993896484375</AltitudeMeters>
            <DistanceMeters>NAN</DistanceMeters>
          </Trackpoint>
          <Trackpoint>
            <Time>2020-05-25T07:31:59.000Z</Time>
            <Position>
              <LatitudeDegrees>38.0741287954151630401611328125</LatitudeDegrees>
              <LongitudeDegrees>-1.1532605253159999847412109375</LongitudeDegrees>
            </Position>
            <AltitudeMeters>271.20001220703125</AltitudeMeters>
            <DistanceMeters>NAN</DistanceMeters>
          </Trackpoint>
          <Trackpoint>
            <Time>2020-05-25T07:32:00.000Z</Time>
            <Position>
              <LatitudeDegrees>38.07406836189329624176025390625</LatitudeDegrees>
              <LongitudeDegrees>-1.15327276289463043212890625</LongitudeDegrees>
            </Position>
            <AltitudeMeters>271.20001220703125</AltitudeMeters>
            <DistanceMeters>NAN</DistanceMeters>
          </Trackpoint>
          <Trackpoint>
            <Time>2020-05-25T07:32:01.000Z</Time>
            <Position>
              <LatitudeDegrees>38.074009604752063751220703125</LatitudeDegrees>
              <LongitudeDegrees>-1.15328793413937091827392578125</LongitudeDegrees>
            </Position>
            <AltitudeMeters>271.399993896484375</AltitudeMeters>
            <DistanceMeters>NAN</DistanceMeters>
          </Trackpoint>
          <Trackpoint>
            <Time>2020-05-25T07:32:02.000Z</Time>
            <Position>
              <LatitudeDegrees>38.07395227253437042236328125</LatitudeDegrees>
              <LongitudeDegrees>-1.15330235101282596588134765625</LongitudeDegrees>
            </Position>
            <AltitudeMeters>271.399993896484375</AltitudeMeters>
            <DistanceMeters>NAN</DistanceMeters>
          </Trackpoint>
          <Trackpoint>
            <Time>2020-05-25T07:32:03.000Z</Time>
            <Position>
              <LatitudeDegrees>38.0738947726786136627197265625</LatitudeDegrees>
              <LongitudeDegrees>-1.1533188633620738983154296875</LongitudeDegrees>
            </Position>
            <AltitudeMeters>271.399993896484375</AltitudeMeters>
            <DistanceMeters>NAN</DistanceMeters>
          </Trackpoint>
          <Trackpoint>
            <Time>2020-05-25T07:32:04.000Z</Time>
            <Position>
              <LatitudeDegrees>38.07383718900382518768310546875</LatitudeDegrees>
              <LongitudeDegrees>-1.15333713591098785400390625</LongitudeDegrees>
            </Position>
            <AltitudeMeters>271.600006103515625</AltitudeMeters>
            <DistanceMeters>NAN</DistanceMeters>
          </Trackpoint>
          <Trackpoint>
            <Time>2020-05-25T07:32:05.000Z</Time>
            <Position>
              <LatitudeDegrees>38.07378061115741729736328125</LatitudeDegrees>
              <LongitudeDegrees>-1.15335649810731410980224609375</LongitudeDegrees>
            </Position>
            <AltitudeMeters>271.600006103515625</AltitudeMeters>
            <DistanceMeters>NAN</DistanceMeters>
          </Trackpoint>
          <Trackpoint>
            <Time>2020-05-25T07:32:06.000Z</Time>
            <Position>
              <LatitudeDegrees>38.0737234465777873992919921875</LatitudeDegrees>
              <LongitudeDegrees>-1.1533788777887821197509765625</LongitudeDegrees>
            </Position>
            <AltitudeMeters>271.600006103515625</AltitudeMeters>
            <DistanceMeters>NAN</DistanceMeters>
          </Trackpoint>
          <Trackpoint>
            <Time>2020-05-25T07:32:07.000Z</Time>
            <Position>
              <LatitudeDegrees>38.07366686873137950897216796875</LatitudeDegrees>
              <LongitudeDegrees>-1.1534010060131549835205078125</LongitudeDegrees>
            </Position>
            <AltitudeMeters>271.79998779296875</AltitudeMeters>
            <DistanceMeters>NAN</DistanceMeters>
          </Trackpoint>
          <Trackpoint>
            <Time>2020-05-25T07:32:08.000Z</Time>
            <Position>
              <LatitudeDegrees>38.0736101232469081878662109375</LatitudeDegrees>
              <LongitudeDegrees>-1.15342430770397186279296875</LongitudeDegrees>
            </Position>
            <AltitudeMeters>271.79998779296875</AltitudeMeters>
            <DistanceMeters>NAN</DistanceMeters>
          </Trackpoint>
          <Trackpoint>
            <Time>2020-05-25T07:32:09.000Z</Time>
            <Position>
              <LatitudeDegrees>38.0735531263053417205810546875</LatitudeDegrees>
              <LongitudeDegrees>-1.15344936959445476531982421875</LongitudeDegrees>
            </Position>
            <AltitudeMeters>271.79998779296875</AltitudeMeters>
            <DistanceMeters>NAN</DistanceMeters>
          </Trackpoint>
          <Trackpoint>
            <Time>2020-05-25T07:32:10.000Z</Time>
            <Position>
              <LatitudeDegrees>38.0734951235353946685791015625</LatitudeDegrees>
              <LongitudeDegrees>-1.153474263846874237060546875</LongitudeDegrees>
            </Position>
            <AltitudeMeters>272</AltitudeMeters>
            <DistanceMeters>NAN</DistanceMeters>
          </Trackpoint>
          <Trackpoint>
            <Time>2020-05-25T07:32:11.000Z</Time>
            <Position>
              <LatitudeDegrees>38.073436953127384185791015625</LatitudeDegrees>
              <LongitudeDegrees>-1.15350033156573772430419921875</LongitudeDegrees>
            </Position>
            <AltitudeMeters>272</AltitudeMeters>
            <DistanceMeters>NAN</DistanceMeters>
          </Trackpoint>
          <Trackpoint>
            <Time>2020-05-25T07:32:12.000Z</Time>
            <Position>
              <LatitudeDegrees>38.0733789503574371337890625</LatitudeDegrees>
              <LongitudeDegrees>-1.15352598018944263458251953125</LongitudeDegrees>
            </Position>
            <AltitudeMeters>271.20001220703125</AltitudeMeters>
            <DistanceMeters>NAN</DistanceMeters>
          </Trackpoint>
          <Trackpoint>
            <Time>2020-05-25T07:32:13.000Z</Time>
            <Position>
              <LatitudeDegrees>38.073321282863616943359375</LatitudeDegrees>
              <LongitudeDegrees>-1.1535545624792575836181640625</LongitudeDegrees>
            </Position>
            <AltitudeMeters>270.399993896484375</AltitudeMeters>
            <DistanceMeters>NAN</DistanceMeters>
          </Trackpoint>
          <Trackpoint>
            <Time>2020-05-25T07:32:14.000Z</Time>
            <Position>
              <LatitudeDegrees>38.07326705195009708404541015625</LatitudeDegrees>
              <LongitudeDegrees>-1.15359135903418064117431640625</LongitudeDegrees>
            </Position>
            <AltitudeMeters>269.600006103515625</AltitudeMeters>
            <DistanceMeters>NAN</DistanceMeters>
          </Trackpoint>
          <Trackpoint>
            <Time>2020-05-25T07:32:15.000Z</Time>
            <Position>
              <LatitudeDegrees>38.07321592234075069427490234375</LatitudeDegrees>
              <LongitudeDegrees>-1.153637208044528961181640625</LongitudeDegrees>
            </Position>
            <AltitudeMeters>269</AltitudeMeters>
            <DistanceMeters>NAN</DistanceMeters>
          </Trackpoint>
          <Trackpoint>
            <Time>2020-05-25T07:32:16.000Z</Time>
            <Position>
              <LatitudeDegrees>38.07317149825394153594970703125</LatitudeDegrees>
              <LongitudeDegrees>-1.1536967195570468902587890625</LongitudeDegrees>
            </Position>
            <AltitudeMeters>268.20001220703125</AltitudeMeters>
            <DistanceMeters>NAN</DistanceMeters>
          </Trackpoint>
          <Trackpoint>
            <Time>2020-05-25T07:32:17.000Z</Time>
            <Position>
              <LatitudeDegrees>38.07312724180519580841064453125</LatitudeDegrees>
              <LongitudeDegrees>-1.153757572174072265625</LongitudeDegrees>
            </Position>
            <AltitudeMeters>267.600006103515625</AltitudeMeters>
            <DistanceMeters>NAN</DistanceMeters>
          </Trackpoint>
          <Trackpoint>
            <Time>2020-05-25T07:32:18.000Z</Time>
            <Position>
              <LatitudeDegrees>38.073075525462627410888671875</LatitudeDegrees>
              <LongitudeDegrees>-1.15381448529660701751708984375</LongitudeDegrees>
            </Position>
            <AltitudeMeters>267</AltitudeMeters>
            <DistanceMeters>NAN</DistanceMeters>
          </Trackpoint>
          <Trackpoint>
            <Time>2020-05-25T07:32:19.000Z</Time>
            <Position>
              <LatitudeDegrees>38.073013164103031158447265625</LatitudeDegrees>
              <LongitudeDegrees>-1.15385689772665500640869140625</LongitudeDegrees>
            </Position>
            <AltitudeMeters>266</AltitudeMeters>
            <DistanceMeters>NAN</DistanceMeters>
          </Trackpoint>
          <Trackpoint>
            <Time>2020-05-25T07:32:20.000Z</Time>
            <Position>
              <LatitudeDegrees>38.072938062250614166259765625</LatitudeDegrees>
              <LongitudeDegrees>-1.15386821329593658447265625</LongitudeDegrees>
            </Position>
            <AltitudeMeters>265</AltitudeMeters>
            <DistanceMeters>NAN</DistanceMeters>
          </Trackpoint>
          <Trackpoint>
            <Time>2020-05-25T07:32:21.000Z</Time>
            <Position>
              <LatitudeDegrees>38.0728587694466114044189453125</LatitudeDegrees>
              <LongitudeDegrees>-1.1538442410528659820556640625</LongitudeDegrees>
            </Position>
            <AltitudeMeters>263.79998779296875</AltitudeMeters>
            <DistanceMeters>NAN</DistanceMeters>
          </Trackpoint>
          <Trackpoint>
            <Time>2020-05-25T07:32:22.000Z</Time>
            <Position>
              <LatitudeDegrees>38.07278526015579700469970703125</LatitudeDegrees>
              <LongitudeDegrees>-1.1537986434996128082275390625</LongitudeDegrees>
            </Position>
            <AltitudeMeters>262.79998779296875</AltitudeMeters>
            <DistanceMeters>NAN</DistanceMeters>
          </Trackpoint>
          <Trackpoint>
            <Time>2020-05-25T07:32:23.000Z</Time>
            <Position>
              <LatitudeDegrees>38.07271166704595088958740234375</LatitudeDegrees>
              <LongitudeDegrees>-1.15374709479510784149169921875</LongitudeDegrees>
            </Position>
            <AltitudeMeters>262.399993896484375</AltitudeMeters>
            <DistanceMeters>NAN</DistanceMeters>
          </Trackpoint>
          <Trackpoint>
            <Time>2020-05-25T07:32:24.000Z</Time>
            <Position>
              <LatitudeDegrees>38.0726344697177410125732421875</LatitudeDegrees>
              <LongitudeDegrees>-1.15369646809995174407958984375</LongitudeDegrees>
            </Position>
            <AltitudeMeters>262.20001220703125</AltitudeMeters>
            <DistanceMeters>NAN</DistanceMeters>
          </Trackpoint>
          <Trackpoint>
            <Time>2020-05-25T07:32:25.000Z</Time>
            <Position>
              <LatitudeDegrees>38.07255006395280361175537109375</LatitudeDegrees>
              <LongitudeDegrees>-1.1536521278321743011474609375</LongitudeDegrees>
            </Position>
            <AltitudeMeters>262.20001220703125</AltitudeMeters>
            <DistanceMeters>NAN</DistanceMeters>
          </Trackpoint>
          <Trackpoint>
            <Time>2020-05-25T07:32:26.000Z</Time>
            <Position>
              <LatitudeDegrees>38.07246020995080471038818359375</LatitudeDegrees>
              <LongitudeDegrees>-1.1536159180104732513427734375</LongitudeDegrees>
            </Position>
            <AltitudeMeters>262</AltitudeMeters>
            <DistanceMeters>NAN</DistanceMeters>
          </Trackpoint>
          <Trackpoint>
            <Time>2020-05-25T07:32:27.000Z</Time>
            <Position>
              <LatitudeDegrees>38.07236331515014171600341796875</LatitudeDegrees>
              <LongitudeDegrees>-1.15359253250062465667724609375</LongitudeDegrees>
            </Position>
            <AltitudeMeters>261.79998779296875</AltitudeMeters>
            <DistanceMeters>NAN</DistanceMeters>
          </Trackpoint>
          <Trackpoint>
            <Time>2020-05-25T07:32:28.000Z</Time>
            <Position>
              <LatitudeDegrees>38.0722656659781932830810546875</LatitudeDegrees>
              <LongitudeDegrees>-1.15357710979878902435302734375</LongitudeDegrees>
            </Position>
            <AltitudeMeters>261.399993896484375</AltitudeMeters>
            <DistanceMeters>NAN</DistanceMeters>
          </Trackpoint>
          <Trackpoint>
            <Time>2020-05-25T07:32:29.000Z</Time>
            <Position>
              <LatitudeDegrees>38.072166256606578826904296875</LatitudeDegrees>
              <LongitudeDegrees>-1.15357057191431522369384765625</LongitudeDegrees>
            </Position>
            <AltitudeMeters>261</AltitudeMeters>
            <DistanceMeters>NAN</DistanceMeters>
          </Trackpoint>
          <Trackpoint>
            <Time>2020-05-25T07:32:30.000Z</Time>
            <Position>
              <LatitudeDegrees>38.072066344320774078369140625</LatitudeDegrees>
              <LongitudeDegrees>-1.15357174538075923919677734375</LongitudeDegrees>
            </Position>
            <AltitudeMeters>260</AltitudeMeters>
            <DistanceMeters>NAN</DistanceMeters>
          </Trackpoint>
          <Trackpoint>
            <Time>2020-05-25T07:32:31.000Z</Time>
            <Position>
              <LatitudeDegrees>38.071966432034969329833984375</LatitudeDegrees>
              <LongitudeDegrees>-1.1535807140171527862548828125</LongitudeDegrees>
            </Position>
            <AltitudeMeters>258.600006103515625</AltitudeMeters>
            <DistanceMeters>NAN</DistanceMeters>
          </Trackpoint>
          <Trackpoint>
            <Time>2020-05-25T07:32:32.000Z</Time>
            <Position>
              <LatitudeDegrees>38.07186710648238658905029296875</LatitudeDegrees>
              <LongitudeDegrees>-1.15359119139611721038818359375</LongitudeDegrees>
            </Position>
            <AltitudeMeters>257.399993896484375</AltitudeMeters>
            <DistanceMeters>NAN</DistanceMeters>
          </Trackpoint>
          <Trackpoint>
            <Time>2020-05-25T07:32:33.000Z</Time>
            <Position>
              <LatitudeDegrees>38.07176752947270870208740234375</LatitudeDegrees>
              <LongitudeDegrees>-1.1536051891744136810302734375</LongitudeDegrees>
            </Position>
            <AltitudeMeters>256</AltitudeMeters>
            <DistanceMeters>NAN</DistanceMeters>
          </Trackpoint>
          <Trackpoint>
            <Time>2020-05-25T07:32:34.000Z</Time>
            <Position>
              <LatitudeDegrees>38.0716695450246334075927734375</LatitudeDegrees>
              <LongitudeDegrees>-1.15362136624753475189208984375</LongitudeDegrees>
            </Position>
            <AltitudeMeters>256.79998779296875</AltitudeMeters>
            <DistanceMeters>NAN</DistanceMeters>
          </Trackpoint>
          <Trackpoint>
            <Time>2020-05-25T07:32:35.000Z</Time>
            <Position>
              <LatitudeDegrees>38.0715726502239704132080078125</LatitudeDegrees>
              <LongitudeDegrees>-1.15363745950162410736083984375</LongitudeDegrees>
            </Position>
            <AltitudeMeters>257.600006103515625</AltitudeMeters>
            <DistanceMeters>NAN</DistanceMeters>
          </Trackpoint>
          <Trackpoint>
            <Time>2020-05-25T07:32:36.000Z</Time>
            <Position>
              <LatitudeDegrees>38.07147718034684658050537109375</LatitudeDegrees>
              <LongitudeDegrees>-1.15365573205053806304931640625</LongitudeDegrees>
            </Position>
            <AltitudeMeters>258.399993896484375</AltitudeMeters>
            <DistanceMeters>NAN</DistanceMeters>
          </Trackpoint>
          <Trackpoint>
            <Time>2020-05-25T07:32:37.000Z</Time>
            <Position>
              <LatitudeDegrees>38.07138330303132534027099609375</LatitudeDegrees>
              <LongitudeDegrees>-1.1536739207804203033447265625</LongitudeDegrees>
            </Position>
            <AltitudeMeters>259.20001220703125</AltitudeMeters>
            <DistanceMeters>NAN</DistanceMeters>
          </Trackpoint>
          <Trackpoint>
            <Time>2020-05-25T07:32:38.000Z</Time>
            <Position>
              <LatitudeDegrees>38.07129026390612125396728515625</LatitudeDegrees>
              <LongitudeDegrees>-1.15368892438709735870361328125</LongitudeDegrees>
            </Position>
            <AltitudeMeters>260</AltitudeMeters>
            <DistanceMeters>NAN</DistanceMeters>
          </Trackpoint>
          <Trackpoint>
            <Time>2020-05-25T07:32:39.000Z</Time>
            <Position>
              <LatitudeDegrees>38.0711991526186466217041015625</LatitudeDegrees>
              <LongitudeDegrees>-1.15370082668960094451904296875</LongitudeDegrees>
            </Position>
            <AltitudeMeters>260.79998779296875</AltitudeMeters>
            <DistanceMeters>NAN</DistanceMeters>
          </Trackpoint>
          <Trackpoint>
            <Time>2020-05-25T07:32:40.000Z</Time>
            <Position>
              <LatitudeDegrees>38.07111038826406002044677734375</LatitudeDegrees>
              <LongitudeDegrees>-1.15370996296405792236328125</LongitudeDegrees>
            </Position>
            <AltitudeMeters>261.20001220703125</AltitudeMeters>
            <DistanceMeters>NAN</DistanceMeters>
          </Trackpoint>
          <Trackpoint>
            <Time>2020-05-25T07:32:41.000Z</Time>
            <Position>
              <LatitudeDegrees>38.07102438993752002716064453125</LatitudeDegrees>
              <LongitudeDegrees>-1.153717339038848876953125</LongitudeDegrees>
            </Position>
            <AltitudeMeters>261.600006103515625</AltitudeMeters>
            <DistanceMeters>NAN</DistanceMeters>
          </Trackpoint>
          <Trackpoint>
            <Time>2020-05-25T07:32:42.000Z</Time>
            <Position>
              <LatitudeDegrees>38.0709399841725826263427734375</LatitudeDegrees>
              <LongitudeDegrees>-1.1537225358188152313232421875</LongitudeDegrees>
            </Position>
            <AltitudeMeters>262</AltitudeMeters>
            <DistanceMeters>NAN</DistanceMeters>
          </Trackpoint>
          <Trackpoint>
            <Time>2020-05-25T07:32:43.000Z</Time>
            <Position>
              <LatitudeDegrees>38.0708561651408672332763671875</LatitudeDegrees>
              <LongitudeDegrees>-1.15372278727591037750244140625</LongitudeDegrees>
            </Position>
            <AltitudeMeters>261</AltitudeMeters>
            <DistanceMeters>NAN</DistanceMeters>
          </Trackpoint>
          <Trackpoint>
            <Time>2020-05-25T07:32:44.000Z</Time>
            <Position>
              <LatitudeDegrees>38.0707730166614055633544921875</LatitudeDegrees>
              <LongitudeDegrees>-1.15372111089527606964111328125</LongitudeDegrees>
            </Position>
            <AltitudeMeters>260</AltitudeMeters>
            <DistanceMeters>NAN</DistanceMeters>
          </Trackpoint>
          <Trackpoint>
            <Time>2020-05-25T07:32:45.000Z</Time>
            <Position>
              <LatitudeDegrees>38.0706902034580707550048828125</LatitudeDegrees>
              <LongitudeDegrees>-1.1537168361246585845947265625</LongitudeDegrees>
            </Position>
            <AltitudeMeters>259</AltitudeMeters>
            <DistanceMeters>NAN</DistanceMeters>
          </Trackpoint>
          <Trackpoint>
            <Time>2020-05-25T07:32:46.000Z</Time>
            <Position>
              <LatitudeDegrees>38.070608563721179962158203125</LatitudeDegrees>
              <LongitudeDegrees>-1.15370417945086956024169921875</LongitudeDegrees>
            </Position>
            <AltitudeMeters>258</AltitudeMeters>
            <DistanceMeters>NAN</DistanceMeters>
          </Trackpoint>
          <Trackpoint>
            <Time>2020-05-25T07:32:47.000Z</Time>
            <Position>
              <LatitudeDegrees>38.0705259181559085845947265625</LatitudeDegrees>
              <LongitudeDegrees>-1.15368372760713100433349609375</LongitudeDegrees>
            </Position>
            <AltitudeMeters>257</AltitudeMeters>
            <DistanceMeters>NAN</DistanceMeters>
          </Trackpoint>
          <Trackpoint>
            <Time>2020-05-25T07:32:48.000Z</Time>
            <Position>
              <LatitudeDegrees>38.0704424344003200531005859375</LatitudeDegrees>
              <LongitudeDegrees>-1.153657324612140655517578125</LongitudeDegrees>
            </Position>
            <AltitudeMeters>255.8000030517578125</AltitudeMeters>
            <DistanceMeters>NAN</DistanceMeters>
          </Trackpoint>
          <Trackpoint>
            <Time>2020-05-25T07:32:49.000Z</Time>
            <Position>
              <LatitudeDegrees>38.07035601697862148284912109375</LatitudeDegrees>
              <LongitudeDegrees>-1.15362706594169139862060546875</LongitudeDegrees>
            </Position>
            <AltitudeMeters>255.1999969482421875</AltitudeMeters>
            <DistanceMeters>NAN</DistanceMeters>
          </Trackpoint>
          <Trackpoint>
            <Time>2020-05-25T07:32:50.000Z</Time>
            <Position>
              <LatitudeDegrees>38.07026934809982776641845703125</LatitudeDegrees>
              <LongitudeDegrees>-1.1535947956144809722900390625</LongitudeDegrees>
            </Position>
            <AltitudeMeters>255.1999969482421875</AltitudeMeters>
            <DistanceMeters>NAN</DistanceMeters>
          </Trackpoint>
          <Trackpoint>
            <Time>2020-05-25T07:32:51.000Z</Time>
            <Position>
              <LatitudeDegrees>38.0701795779168605804443359375</LatitudeDegrees>
              <LongitudeDegrees>-1.15355908870697021484375</LongitudeDegrees>
            </Position>
            <AltitudeMeters>255.399993896484375</AltitudeMeters>
            <DistanceMeters>NAN</DistanceMeters>
          </Trackpoint>
          <Trackpoint>
            <Time>2020-05-25T07:32:52.000Z</Time>
            <Position>
              <LatitudeDegrees>38.07008855044841766357421875</LatitudeDegrees>
              <LongitudeDegrees>-1.15352178923785686492919921875</LongitudeDegrees>
            </Position>
            <AltitudeMeters>255.399993896484375</AltitudeMeters>
            <DistanceMeters>NAN</DistanceMeters>
          </Trackpoint>
          <Trackpoint>
            <Time>2020-05-25T07:32:53.000Z</Time>
            <Position>
              <LatitudeDegrees>38.0699955113232135772705078125</LatitudeDegrees>
              <LongitudeDegrees>-1.15348239429295063018798828125</LongitudeDegrees>
            </Position>
            <AltitudeMeters>254.600006103515625</AltitudeMeters>
            <DistanceMeters>NAN</DistanceMeters>
          </Trackpoint>
          <Trackpoint>
            <Time>2020-05-25T07:32:54.000Z</Time>
            <Position>
              <LatitudeDegrees>38.06990071199834346771240234375</LatitudeDegrees>
              <LongitudeDegrees>-1.15343914367258548736572265625</LongitudeDegrees>
            </Position>
            <AltitudeMeters>254</AltitudeMeters>
            <DistanceMeters>NAN</DistanceMeters>
          </Trackpoint>
          <Trackpoint>
            <Time>2020-05-25T07:32:55.000Z</Time>
            <Position>
              <LatitudeDegrees>38.06980448774993419647216796875</LatitudeDegrees>
              <LongitudeDegrees>-1.153394468128681182861328125</LongitudeDegrees>
            </Position>
            <AltitudeMeters>253.1999969482421875</AltitudeMeters>
            <DistanceMeters>NAN</DistanceMeters>
          </Trackpoint>
          <Trackpoint>
            <Time>2020-05-25T07:32:56.000Z</Time>
            <Position>
              <LatitudeDegrees>38.06970633566379547119140625</LatitudeDegrees>
              <LongitudeDegrees>-1.15334996022284030914306640625</LongitudeDegrees>
            </Position>
            <AltitudeMeters>252.600006103515625</AltitudeMeters>
            <DistanceMeters>NAN</DistanceMeters>
          </Trackpoint>
          <Trackpoint>
            <Time>2020-05-25T07:32:57.000Z</Time>
            <Position>
              <LatitudeDegrees>38.0696052499115467071533203125</LatitudeDegrees>
              <LongitudeDegrees>-1.1533077992498874664306640625</LongitudeDegrees>
            </Position>
            <AltitudeMeters>251.8000030517578125</AltitudeMeters>
            <DistanceMeters>NAN</DistanceMeters>
          </Trackpoint>
          <Trackpoint>
            <Time>2020-05-25T07:32:58.000Z</Time>
            <Position>
              <LatitudeDegrees>38.06950240395963191986083984375</LatitudeDegrees>
              <LongitudeDegrees>-1.1532632075250148773193359375</LongitudeDegrees>
            </Position>
            <AltitudeMeters>251.1999969482421875</AltitudeMeters>
            <DistanceMeters>NAN</DistanceMeters>
          </Trackpoint>
          <Trackpoint>
            <Time>2020-05-25T07:32:59.000Z</Time>
            <Position>
              <LatitudeDegrees>38.06939779780805110931396484375</LatitudeDegrees>
              <LongitudeDegrees>-1.15321601741015911102294921875</LongitudeDegrees>
            </Position>
            <AltitudeMeters>250.600006103515625</AltitudeMeters>
            <DistanceMeters>NAN</DistanceMeters>
          </Trackpoint>
          <Trackpoint>
            <Time>2020-05-25T07:33:00.000Z</Time>
            <Position>
              <LatitudeDegrees>38.0692917667329311370849609375</LatitudeDegrees>
              <LongitudeDegrees>-1.15316547453403472900390625</LongitudeDegrees>
            </Position>
            <AltitudeMeters>249.8000030517578125</AltitudeMeters>
            <DistanceMeters>NAN</DistanceMeters>
          </Trackpoint>
          <Trackpoint>
            <Time>2020-05-25T07:33:01.000Z</Time>
            <Position>
              <LatitudeDegrees>38.069183640182018280029296875</LatitudeDegrees>
              <LongitudeDegrees>-1.15311208181083202362060546875</LongitudeDegrees>
            </Position>
            <AltitudeMeters>249.399993896484375</AltitudeMeters>
            <DistanceMeters>NAN</DistanceMeters>
          </Trackpoint>
          <Trackpoint>
            <Time>2020-05-25T07:33:02.000Z</Time>
            <Position>
              <LatitudeDegrees>38.069073669612407684326171875</LatitudeDegrees>
              <LongitudeDegrees>-1.15305692888796329498291015625</LongitudeDegrees>
            </Position>
            <AltitudeMeters>248.8000030517578125</AltitudeMeters>
            <DistanceMeters>NAN</DistanceMeters>
          </Trackpoint>
          <Trackpoint>
            <Time>2020-05-25T07:33:03.000Z</Time>
            <Position>
              <LatitudeDegrees>38.06896143592894077301025390625</LatitudeDegrees>
              <LongitudeDegrees>-1.15300043486058712005615234375</LongitudeDegrees>
            </Position>
            <AltitudeMeters>248</AltitudeMeters>
            <DistanceMeters>NAN</DistanceMeters>
          </Trackpoint>
          <Trackpoint>
            <Time>2020-05-25T07:33:04.000Z</Time>
            <Position>
              <LatitudeDegrees>38.06884610094130039215087890625</LatitudeDegrees>
              <LongitudeDegrees>-1.1529430188238620758056640625</LongitudeDegrees>
            </Position>
            <AltitudeMeters>247.1999969482421875</AltitudeMeters>
            <DistanceMeters>NAN</DistanceMeters>
          </Trackpoint>
          <Trackpoint>
            <Time>2020-05-25T07:33:05.000Z</Time>
            <Position>
              <LatitudeDegrees>38.068729005753993988037109375</LatitudeDegrees>
              <LongitudeDegrees>-1.152882166206836700439453125</LongitudeDegrees>
            </Position>
            <AltitudeMeters>246.1999969482421875</AltitudeMeters>
            <DistanceMeters>NAN</DistanceMeters>
          </Trackpoint>
          <Trackpoint>
            <Time>2020-05-25T07:33:06.000Z</Time>
            <Position>
              <LatitudeDegrees>38.0686111561954021453857421875</LatitudeDegrees>
              <LongitudeDegrees>-1.152819804847240447998046875</LongitudeDegrees>
            </Position>
            <AltitudeMeters>245.8000030517578125</AltitudeMeters>
            <DistanceMeters>NAN</DistanceMeters>
          </Trackpoint>
          <Trackpoint>
            <Time>2020-05-25T07:33:07.000Z</Time>
            <Position>
              <LatitudeDegrees>38.06849129498004913330078125</LatitudeDegrees>
              <LongitudeDegrees>-1.1527576111257076263427734375</LongitudeDegrees>
            </Position>
            <AltitudeMeters>245.600006103515625</AltitudeMeters>
            <DistanceMeters>NAN</DistanceMeters>
          </Trackpoint>
          <Trackpoint>
            <Time>2020-05-25T07:33:08.000Z</Time>
            <Position>
              <LatitudeDegrees>38.068370260298252105712890625</LatitudeDegrees>
              <LongitudeDegrees>-1.15269348956644535064697265625</LongitudeDegrees>
            </Position>
            <AltitudeMeters>244.8000030517578125</AltitudeMeters>
            <DistanceMeters>NAN</DistanceMeters>
          </Trackpoint>
          <Trackpoint>
            <Time>2020-05-25T07:33:09.000Z</Time>
            <Position>
              <LatitudeDegrees>38.0682483874261379241943359375</LatitudeDegrees>
              <LongitudeDegrees>-1.1526302061975002288818359375</LongitudeDegrees>
            </Position>
            <AltitudeMeters>243.600006103515625</AltitudeMeters>
            <DistanceMeters>NAN</DistanceMeters>
          </Trackpoint>
          <Trackpoint>
            <Time>2020-05-25T07:33:10.000Z</Time>
            <Position>
              <LatitudeDegrees>38.0681236647069454193115234375</LatitudeDegrees>
              <LongitudeDegrees>-1.15257044322788715362548828125</LongitudeDegrees>
            </Position>
            <AltitudeMeters>242.399993896484375</AltitudeMeters>
            <DistanceMeters>NAN</DistanceMeters>
          </Trackpoint>
          <Trackpoint>
            <Time>2020-05-25T07:33:11.000Z</Time>
            <Position>
              <LatitudeDegrees>38.067997433245182037353515625</LatitudeDegrees>
              <LongitudeDegrees>-1.15251369774341583251953125</LongitudeDegrees>
            </Position>
            <AltitudeMeters>240.8000030517578125</AltitudeMeters>
            <DistanceMeters>NAN</DistanceMeters>
          </Trackpoint>
          <Trackpoint>
            <Time>2020-05-25T07:33:12.000Z</Time>
            <Position>
              <LatitudeDegrees>38.0678675137460231781005859375</LatitudeDegrees>
              <LongitudeDegrees>-1.152464412152767181396484375</LongitudeDegrees>
            </Position>
            <AltitudeMeters>239.1999969482421875</AltitudeMeters>
            <DistanceMeters>NAN</DistanceMeters>
          </Trackpoint>
          <Trackpoint>
            <Time>2020-05-25T07:33:13.000Z</Time>
            <Position>
              <LatitudeDegrees>38.0677350796759128570556640625</LatitudeDegrees>
              <LongitudeDegrees>-1.15242057479918003082275390625</LongitudeDegrees>
            </Position>
            <AltitudeMeters>237.600006103515625</AltitudeMeters>
            <DistanceMeters>NAN</DistanceMeters>
          </Trackpoint>
          <Trackpoint>
            <Time>2020-05-25T07:33:14.000Z</Time>
            <Position>
              <LatitudeDegrees>38.06760021485388278961181640625</LatitudeDegrees>
              <LongitudeDegrees>-1.1523844487965106964111328125</LongitudeDegrees>
            </Position>
            <AltitudeMeters>236</AltitudeMeters>
            <DistanceMeters>NAN</DistanceMeters>
          </Trackpoint>
          <Trackpoint>
            <Time>2020-05-25T07:33:15.000Z</Time>
            <Position>
              <LatitudeDegrees>38.067463673651218414306640625</LatitudeDegrees>
              <LongitudeDegrees>-1.15235519595444202423095703125</LongitudeDegrees>
            </Position>
            <AltitudeMeters>234.8000030517578125</AltitudeMeters>
            <DistanceMeters>NAN</DistanceMeters>
          </Trackpoint>
          <Trackpoint>
            <Time>2020-05-25T07:33:16.000Z</Time>
            <Position>
              <LatitudeDegrees>38.067325539886951446533203125</LatitudeDegrees>
              <LongitudeDegrees>-1.152337007224559783935546875</LongitudeDegrees>
            </Position>
            <AltitudeMeters>233.8000030517578125</AltitudeMeters>
            <DistanceMeters>NAN</DistanceMeters>
          </Trackpoint>
          <Trackpoint>
            <Time>2020-05-25T07:33:17.000Z</Time>
            <Position>
              <LatitudeDegrees>38.06718614883720874786376953125</LatitudeDegrees>
              <LongitudeDegrees>-1.15233256481587886810302734375</LongitudeDegrees>
            </Position>
            <AltitudeMeters>232.600006103515625</AltitudeMeters>
            <DistanceMeters>NAN</DistanceMeters>
          </Trackpoint>
          <Trackpoint>
            <Time>2020-05-25T07:33:18.000Z</Time>
            <Position>
              <LatitudeDegrees>38.0670467577874660491943359375</LatitudeDegrees>
              <LongitudeDegrees>-1.15234471857547760009765625</LongitudeDegrees>
            </Position>
            <AltitudeMeters>231.399993896484375</AltitudeMeters>
            <DistanceMeters>NAN</DistanceMeters>
          </Trackpoint>
          <Trackpoint>
            <Time>2020-05-25T07:33:19.000Z</Time>
            <Position>
              <LatitudeDegrees>38.06690820492804050445556640625</LatitudeDegrees>
              <LongitudeDegrees>-1.15237413905560970306396484375</LongitudeDegrees>
            </Position>
            <AltitudeMeters>230.1999969482421875</AltitudeMeters>
            <DistanceMeters>NAN</DistanceMeters>
          </Trackpoint>
          <Trackpoint>
            <Time>2020-05-25T07:33:20.000Z</Time>
            <Position>
              <LatitudeDegrees>38.0667731724679470062255859375</LatitudeDegrees>
              <LongitudeDegrees>-1.1524204909801483154296875</LongitudeDegrees>
            </Position>
            <AltitudeMeters>229.1999969482421875</AltitudeMeters>
            <DistanceMeters>NAN</DistanceMeters>
          </Trackpoint>
          <Trackpoint>
            <Time>2020-05-25T07:33:21.000Z</Time>
            <Position>
              <LatitudeDegrees>38.066642247140407562255859375</LatitudeDegrees>
              <LongitudeDegrees>-1.15248025394976139068603515625</LongitudeDegrees>
            </Position>
            <AltitudeMeters>228.8000030517578125</AltitudeMeters>
            <DistanceMeters>NAN</DistanceMeters>
          </Trackpoint>
          <Trackpoint>
            <Time>2020-05-25T07:33:22.000Z</Time>
            <Position>
              <LatitudeDegrees>38.0665146745741367340087890625</LatitudeDegrees>
              <LongitudeDegrees>-1.1525520868599414825439453125</LongitudeDegrees>
            </Position>
            <AltitudeMeters>228.8000030517578125</AltitudeMeters>
            <DistanceMeters>NAN</DistanceMeters>
          </Trackpoint>
          <Trackpoint>
            <Time>2020-05-25T07:33:23.000Z</Time>
            <Position>
              <LatitudeDegrees>38.066391460597515106201171875</LatitudeDegrees>
              <LongitudeDegrees>-1.15264018066227436065673828125</LongitudeDegrees>
            </Position>
            <AltitudeMeters>228.600006103515625</AltitudeMeters>
            <DistanceMeters>NAN</DistanceMeters>
          </Trackpoint>
          <Trackpoint>
            <Time>2020-05-25T07:33:24.000Z</Time>
            <Position>
              <LatitudeDegrees>38.066272772848606109619140625</LatitudeDegrees>
              <LongitudeDegrees>-1.152742691338062286376953125</LongitudeDegrees>
            </Position>
            <AltitudeMeters>228.399993896484375</AltitudeMeters>
            <DistanceMeters>NAN</DistanceMeters>
          </Trackpoint>
          <Trackpoint>
            <Time>2020-05-25T07:33:25.000Z</Time>
            <Position>
              <LatitudeDegrees>38.06616179645061492919921875</LatitudeDegrees>
              <LongitudeDegrees>-1.15285593084990978240966796875</LongitudeDegrees>
            </Position>
            <AltitudeMeters>228.399993896484375</AltitudeMeters>
            <DistanceMeters>NAN</DistanceMeters>
          </Trackpoint>
          <Trackpoint>
            <Time>2020-05-25T07:33:26.000Z</Time>
            <Position>
              <LatitudeDegrees>38.066057525575160980224609375</LatitudeDegrees>
              <LongitudeDegrees>-1.1529768817126750946044921875</LongitudeDegrees>
            </Position>
            <AltitudeMeters>228.1999969482421875</AltitudeMeters>
            <DistanceMeters>NAN</DistanceMeters>
          </Trackpoint>
          <Trackpoint>
            <Time>2020-05-25T07:33:27.000Z</Time>
            <Position>
              <LatitudeDegrees>38.06595928966999053955078125</LatitudeDegrees>
              <LongitudeDegrees>-1.15310847759246826171875</LongitudeDegrees>
            </Position>
            <AltitudeMeters>228</AltitudeMeters>
            <DistanceMeters>NAN</DistanceMeters>
          </Trackpoint>
          <Trackpoint>
            <Time>2020-05-25T07:33:28.000Z</Time>
            <Position>
              <LatitudeDegrees>38.0658662505447864532470703125</LatitudeDegrees>
              <LongitudeDegrees>-1.153244264423847198486328125</LongitudeDegrees>
            </Position>
            <AltitudeMeters>227.399993896484375</AltitudeMeters>
            <DistanceMeters>NAN</DistanceMeters>
          </Trackpoint>
          <Trackpoint>
            <Time>2020-05-25T07:33:29.000Z</Time>
            <Position>
              <LatitudeDegrees>38.06577212177217006683349609375</LatitudeDegrees>
              <LongitudeDegrees>-1.15338248200714588165283203125</LongitudeDegrees>
            </Position>
            <AltitudeMeters>226.8000030517578125</AltitudeMeters>
            <DistanceMeters>NAN</DistanceMeters>
          </Trackpoint>
          <Trackpoint>
            <Time>2020-05-25T07:33:30.000Z</Time>
            <Position>
              <LatitudeDegrees>38.06567841209471225738525390625</LatitudeDegrees>
              <LongitudeDegrees>-1.1535193584859371185302734375</LongitudeDegrees>
            </Position>
            <AltitudeMeters>226.1999969482421875</AltitudeMeters>
            <DistanceMeters>NAN</DistanceMeters>
          </Trackpoint>
          <Trackpoint>
            <Time>2020-05-25T07:33:31.000Z</Time>
            <Position>
              <LatitudeDegrees>38.0655873008072376251220703125</LatitudeDegrees>
              <LongitudeDegrees>-1.1536527983844280242919921875</LongitudeDegrees>
            </Position>
            <AltitudeMeters>225.600006103515625</AltitudeMeters>
            <DistanceMeters>NAN</DistanceMeters>
          </Trackpoint>
          <Trackpoint>
            <Time>2020-05-25T07:33:32.000Z</Time>
            <Position>
              <LatitudeDegrees>38.06549786590039730072021484375</LatitudeDegrees>
              <LongitudeDegrees>-1.153784058988094329833984375</LongitudeDegrees>
            </Position>
            <AltitudeMeters>225</AltitudeMeters>
            <DistanceMeters>NAN</DistanceMeters>
          </Trackpoint>
          <Trackpoint>
            <Time>2020-05-25T07:33:33.000Z</Time>
            <Position>
              <LatitudeDegrees>38.065408430993556976318359375</LatitudeDegrees>
              <LongitudeDegrees>-1.1539149843156337738037109375</LongitudeDegrees>
            </Position>
            <AltitudeMeters>224.399993896484375</AltitudeMeters>
            <DistanceMeters>NAN</DistanceMeters>
          </Trackpoint>
          <Trackpoint>
            <Time>2020-05-25T07:33:34.000Z</Time>
            <Position>
              <LatitudeDegrees>38.06532067246735095977783203125</LatitudeDegrees>
              <LongitudeDegrees>-1.1540430597960948944091796875</LongitudeDegrees>
            </Position>
            <AltitudeMeters>224.399993896484375</AltitudeMeters>
            <DistanceMeters>NAN</DistanceMeters>
          </Trackpoint>
          <Trackpoint>
            <Time>2020-05-25T07:33:35.000Z</Time>
            <Position>
              <LatitudeDegrees>38.06523400358855724334716796875</LatitudeDegrees>
              <LongitudeDegrees>-1.15416736342012882232666015625</LongitudeDegrees>
            </Position>
            <AltitudeMeters>224.399993896484375</AltitudeMeters>
            <DistanceMeters>NAN</DistanceMeters>
          </Trackpoint>
          <Trackpoint>
            <Time>2020-05-25T07:33:36.000Z</Time>
            <Position>
              <LatitudeDegrees>38.06514800526201725006103515625</LatitudeDegrees>
              <LongitudeDegrees>-1.154291331768035888671875</LongitudeDegrees>
            </Position>
            <AltitudeMeters>224.399993896484375</AltitudeMeters>
            <DistanceMeters>NAN</DistanceMeters>
          </Trackpoint>
          <Trackpoint>
            <Time>2020-05-25T07:33:37.000Z</Time>
            <Position>
              <LatitudeDegrees>38.06506351567804813385009765625</LatitudeDegrees>
              <LongitudeDegrees>-1.1544111929833889007568359375</LongitudeDegrees>
            </Position>
            <AltitudeMeters>224.399993896484375</AltitudeMeters>
            <DistanceMeters>NAN</DistanceMeters>
          </Trackpoint>
          <Trackpoint>
            <Time>2020-05-25T07:33:38.000Z</Time>
            <Position>
              <LatitudeDegrees>38.0649817921221256256103515625</LatitudeDegrees>
              <LongitudeDegrees>-1.15452577359974384307861328125</LongitudeDegrees>
            </Position>
            <AltitudeMeters>224.1999969482421875</AltitudeMeters>
            <DistanceMeters>NAN</DistanceMeters>
          </Trackpoint>
          <Trackpoint>
            <Time>2020-05-25T07:33:39.000Z</Time>
            <Position>
              <LatitudeDegrees>38.0649009905755519866943359375</LatitudeDegrees>
              <LongitudeDegrees>-1.15463390015065670013427734375</LongitudeDegrees>
            </Position>
            <AltitudeMeters>224.1999969482421875</AltitudeMeters>
            <DistanceMeters>NAN</DistanceMeters>
          </Trackpoint>
          <Trackpoint>
            <Time>2020-05-25T07:33:40.000Z</Time>
            <Position>
              <LatitudeDegrees>38.06482203304767608642578125</LatitudeDegrees>
              <LongitudeDegrees>-1.1547397635877132415771484375</LongitudeDegrees>
            </Position>
            <AltitudeMeters>224</AltitudeMeters>
            <DistanceMeters>NAN</DistanceMeters>
          </Trackpoint>
          <Trackpoint>
            <Time>2020-05-25T07:33:41.000Z</Time>
            <Position>
              <LatitudeDegrees>38.0647447519004344940185546875</LatitudeDegrees>
              <LongitudeDegrees>-1.15484093315899372100830078125</LongitudeDegrees>
            </Position>
            <AltitudeMeters>224</AltitudeMeters>
            <DistanceMeters>NAN</DistanceMeters>
          </Trackpoint>
          <Trackpoint>
            <Time>2020-05-25T07:33:42.000Z</Time>
            <Position>
              <LatitudeDegrees>38.0646679736673831939697265625</LatitudeDegrees>
              <LongitudeDegrees>-1.154940761625766754150390625</LongitudeDegrees>
            </Position>
            <AltitudeMeters>224</AltitudeMeters>
            <DistanceMeters>NAN</DistanceMeters>
          </Trackpoint>
          <Trackpoint>
            <Time>2020-05-25T07:33:43.000Z</Time>
            <Position>
              <LatitudeDegrees>38.0645906925201416015625</LatitudeDegrees>
              <LongitudeDegrees>-1.1550384946167469024658203125</LongitudeDegrees>
            </Position>
            <AltitudeMeters>224.1999969482421875</AltitudeMeters>
            <DistanceMeters>NAN</DistanceMeters>
          </Trackpoint>
          <Trackpoint>
            <Time>2020-05-25T07:33:44.000Z</Time>
            <Position>
              <LatitudeDegrees>38.06451483629643917083740234375</LatitudeDegrees>
              <LongitudeDegrees>-1.1551367305219173431396484375</LongitudeDegrees>
            </Position>
            <AltitudeMeters>224.1999969482421875</AltitudeMeters>
            <DistanceMeters>NAN</DistanceMeters>
          </Trackpoint>
          <Trackpoint>
            <Time>2020-05-25T07:33:45.000Z</Time>
            <Position>
              <LatitudeDegrees>38.06444090791046619415283203125</LatitudeDegrees>
              <LongitudeDegrees>-1.1552339605987071990966796875</LongitudeDegrees>
            </Position>
            <AltitudeMeters>224.1999969482421875</AltitudeMeters>
            <DistanceMeters>NAN</DistanceMeters>
          </Trackpoint>
          <Trackpoint>
            <Time>2020-05-25T07:33:46.000Z</Time>
            <Position>
              <LatitudeDegrees>38.06436798535287380218505859375</LatitudeDegrees>
              <LongitudeDegrees>-1.1553332023322582244873046875</LongitudeDegrees>
            </Position>
            <AltitudeMeters>224.399993896484375</AltitudeMeters>
            <DistanceMeters>NAN</DistanceMeters>
          </Trackpoint>
          <Trackpoint>
            <Time>2020-05-25T07:33:47.000Z</Time>
            <Position>
              <LatitudeDegrees>38.0642934702336788177490234375</LatitudeDegrees>
              <LongitudeDegrees>-1.15543370135128498077392578125</LongitudeDegrees>
            </Position>
            <AltitudeMeters>224.399993896484375</AltitudeMeters>
            <DistanceMeters>NAN</DistanceMeters>
          </Trackpoint>
          <Trackpoint>
            <Time>2020-05-25T07:33:48.000Z</Time>
            <Position>
              <LatitudeDegrees>38.064220212399959564208984375</LatitudeDegrees>
              <LongitudeDegrees>-1.155536882579326629638671875</LongitudeDegrees>
            </Position>
            <AltitudeMeters>224.600006103515625</AltitudeMeters>
            <DistanceMeters>NAN</DistanceMeters>
          </Trackpoint>
          <Trackpoint>
            <Time>2020-05-25T07:33:49.000Z</Time>
            <Position>
              <LatitudeDegrees>38.06415106169879436492919921875</LatitudeDegrees>
              <LongitudeDegrees>-1.1556445062160491943359375</LongitudeDegrees>
            </Position>
            <AltitudeMeters>224.600006103515625</AltitudeMeters>
            <DistanceMeters>NAN</DistanceMeters>
          </Trackpoint>
          <Trackpoint>
            <Time>2020-05-25T07:33:50.000Z</Time>
            <Position>
              <LatitudeDegrees>38.0640872754156589508056640625</LatitudeDegrees>
              <LongitudeDegrees>-1.1557610146701335906982421875</LongitudeDegrees>
            </Position>
            <AltitudeMeters>224.600006103515625</AltitudeMeters>
            <DistanceMeters>NAN</DistanceMeters>
          </Trackpoint>
          <Trackpoint>
            <Time>2020-05-25T07:33:51.000Z</Time>
            <Position>
              <LatitudeDegrees>38.0640265904366970062255859375</LatitudeDegrees>
              <LongitudeDegrees>-1.155882216989994049072265625</LongitudeDegrees>
            </Position>
            <AltitudeMeters>224.600006103515625</AltitudeMeters>
            <DistanceMeters>NAN</DistanceMeters>
          </Trackpoint>
          <Trackpoint>
            <Time>2020-05-25T07:33:52.000Z</Time>
            <Position>
              <LatitudeDegrees>38.06396909058094024658203125</LatitudeDegrees>
              <LongitudeDegrees>-1.15600719116628170013427734375</LongitudeDegrees>
            </Position>
            <AltitudeMeters>224.600006103515625</AltitudeMeters>
            <DistanceMeters>NAN</DistanceMeters>
          </Trackpoint>
          <Trackpoint>
            <Time>2020-05-25T07:33:53.000Z</Time>
            <Position>
              <LatitudeDegrees>38.0639136023819446563720703125</LatitudeDegrees>
              <LongitudeDegrees>-1.15613325498998165130615234375</LongitudeDegrees>
            </Position>
            <AltitudeMeters>224.8000030517578125</AltitudeMeters>
            <DistanceMeters>NAN</DistanceMeters>
          </Trackpoint>
          <Trackpoint>
            <Time>2020-05-25T07:33:54.000Z</Time>
            <Position>
              <LatitudeDegrees>38.0638611316680908203125</LatitudeDegrees>
              <LongitudeDegrees>-1.15626208484172821044921875</LongitudeDegrees>
            </Position>
            <AltitudeMeters>225</AltitudeMeters>
            <DistanceMeters>NAN</DistanceMeters>
          </Trackpoint>
          <Trackpoint>
            <Time>2020-05-25T07:33:55.000Z</Time>
            <Position>
              <LatitudeDegrees>38.06381042115390300750732421875</LatitudeDegrees>
              <LongitudeDegrees>-1.15639326162636280059814453125</LongitudeDegrees>
            </Position>
            <AltitudeMeters>225.1999969482421875</AltitudeMeters>
            <DistanceMeters>NAN</DistanceMeters>
          </Trackpoint>
          <Trackpoint>
            <Time>2020-05-25T07:33:56.000Z</Time>
            <Position>
              <LatitudeDegrees>38.06375962682068347930908203125</LatitudeDegrees>
              <LongitudeDegrees>-1.15652603097259998321533203125</LongitudeDegrees>
            </Position>
            <AltitudeMeters>225</AltitudeMeters>
            <DistanceMeters>NAN</DistanceMeters>
          </Trackpoint>
          <Trackpoint>
            <Time>2020-05-25T07:33:57.000Z</Time>
            <Position>
              <LatitudeDegrees>38.06371101178228855133056640625</LatitudeDegrees>
              <LongitudeDegrees>-1.15665997378528118133544921875</LongitudeDegrees>
            </Position>
            <AltitudeMeters>224.8000030517578125</AltitudeMeters>
            <DistanceMeters>NAN</DistanceMeters>
          </Trackpoint>
          <Trackpoint>
            <Time>2020-05-25T07:33:58.000Z</Time>
            <Position>
              <LatitudeDegrees>38.06366273202002048492431640625</LatitudeDegrees>
              <LongitudeDegrees>-1.15679609589278697967529296875</LongitudeDegrees>
            </Position>
            <AltitudeMeters>224.399993896484375</AltitudeMeters>
            <DistanceMeters>NAN</DistanceMeters>
          </Trackpoint>
          <Trackpoint>
            <Time>2020-05-25T07:33:59.000Z</Time>
            <Position>
              <LatitudeDegrees>38.06361495517194271087646484375</LatitudeDegrees>
              <LongitudeDegrees>-1.15693272091448307037353515625</LongitudeDegrees>
            </Position>
            <AltitudeMeters>224.1999969482421875</AltitudeMeters>
            <DistanceMeters>NAN</DistanceMeters>
          </Trackpoint>
          <Trackpoint>
            <Time>2020-05-25T07:34:00.000Z</Time>
            <Position>
              <LatitudeDegrees>38.06356667540967464447021484375</LatitudeDegrees>
              <LongitudeDegrees>-1.1570692621171474456787109375</LongitudeDegrees>
            </Position>
            <AltitudeMeters>223.8000030517578125</AltitudeMeters>
            <DistanceMeters>NAN</DistanceMeters>
          </Trackpoint>
          <Trackpoint>
            <Time>2020-05-25T07:34:01.000Z</Time>
            <Position>
              <LatitudeDegrees>38.06351856328547000885009765625</LatitudeDegrees>
              <LongitudeDegrees>-1.157205887138843536376953125</LongitudeDegrees>
            </Position>
            <AltitudeMeters>223.600006103515625</AltitudeMeters>
            <DistanceMeters>NAN</DistanceMeters>
          </Trackpoint>
          <Trackpoint>
            <Time>2020-05-25T07:34:02.000Z</Time>
            <Position>
              <LatitudeDegrees>38.06347229517996311187744140625</LatitudeDegrees>
              <LongitudeDegrees>-1.15734309889376163482666015625</LongitudeDegrees>
            </Position>
            <AltitudeMeters>223.1999969482421875</AltitudeMeters>
            <DistanceMeters>NAN</DistanceMeters>
          </Trackpoint>
          <Trackpoint>
            <Time>2020-05-25T07:34:03.000Z</Time>
            <Position>
              <LatitudeDegrees>38.0634264461696147918701171875</LatitudeDegrees>
              <LongitudeDegrees>-1.1574816517531871795654296875</LongitudeDegrees>
            </Position>
            <AltitudeMeters>222.600006103515625</AltitudeMeters>
            <DistanceMeters>NAN</DistanceMeters>
          </Trackpoint>
          <Trackpoint>
            <Time>2020-05-25T07:34:04.000Z</Time>
            <Position>
              <LatitudeDegrees>38.0633815191686153411865234375</LatitudeDegrees>
              <LongitudeDegrees>-1.1576204560697078704833984375</LongitudeDegrees>
            </Position>
            <AltitudeMeters>222</AltitudeMeters>
            <DistanceMeters>NAN</DistanceMeters>
          </Trackpoint>
          <Trackpoint>
            <Time>2020-05-25T07:34:05.000Z</Time>
            <Position>
              <LatitudeDegrees>38.06333432905375957489013671875</LatitudeDegrees>
              <LongitudeDegrees>-1.157759092748165130615234375</LongitudeDegrees>
            </Position>
            <AltitudeMeters>221.399993896484375</AltitudeMeters>
            <DistanceMeters>NAN</DistanceMeters>
          </Trackpoint>
          <Trackpoint>
            <Time>2020-05-25T07:34:06.000Z</Time>
            <Position>
              <LatitudeDegrees>38.063287474215030670166015625</LatitudeDegrees>
              <LongitudeDegrees>-1.1578990705311298370361328125</LongitudeDegrees>
            </Position>
            <AltitudeMeters>220.8000030517578125</AltitudeMeters>
            <DistanceMeters>NAN</DistanceMeters>
          </Trackpoint>
          <Trackpoint>
            <Time>2020-05-25T07:34:07.000Z</Time>
            <Position>
              <LatitudeDegrees>38.0632417090237140655517578125</LatitudeDegrees>
              <LongitudeDegrees>-1.15803980268537998199462890625</LongitudeDegrees>
            </Position>
            <AltitudeMeters>220.1999969482421875</AltitudeMeters>
            <DistanceMeters>NAN</DistanceMeters>
          </Trackpoint>
          <Trackpoint>
            <Time>2020-05-25T07:34:08.000Z</Time>
            <Position>
              <LatitudeDegrees>38.06319569237530231475830078125</LatitudeDegrees>
              <LongitudeDegrees>-1.15818179212510585784912109375</LongitudeDegrees>
            </Position>
            <AltitudeMeters>219.600006103515625</AltitudeMeters>
            <DistanceMeters>NAN</DistanceMeters>
          </Trackpoint>
          <Trackpoint>
            <Time>2020-05-25T07:34:09.000Z</Time>
            <Position>
              <LatitudeDegrees>38.063150681555271148681640625</LatitudeDegrees>
              <LongitudeDegrees>-1.15832361392676830291748046875</LongitudeDegrees>
            </Position>
            <AltitudeMeters>218.600006103515625</AltitudeMeters>
            <DistanceMeters>NAN</DistanceMeters>
          </Trackpoint>
          <Trackpoint>
            <Time>2020-05-25T07:34:10.000Z</Time>
            <Position>
              <LatitudeDegrees>38.0631079338490962982177734375</LatitudeDegrees>
              <LongitudeDegrees>-1.15846686065196990966796875</LongitudeDegrees>
            </Position>
            <AltitudeMeters>218</AltitudeMeters>
            <DistanceMeters>NAN</DistanceMeters>
          </Trackpoint>
          <Trackpoint>
            <Time>2020-05-25T07:34:11.000Z</Time>
            <Position>
              <LatitudeDegrees>38.06306342594325542449951171875</LatitudeDegrees>
              <LongitudeDegrees>-1.1586108617484569549560546875</LongitudeDegrees>
            </Position>
            <AltitudeMeters>217.600006103515625</AltitudeMeters>
            <DistanceMeters>NAN</DistanceMeters>
          </Trackpoint>
          <Trackpoint>
            <Time>2020-05-25T07:34:12.000Z</Time>
            <Position>
              <LatitudeDegrees>38.0630187503993511199951171875</LatitudeDegrees>
              <LongitudeDegrees>-1.1587530188262462615966796875</LongitudeDegrees>
            </Position>
            <AltitudeMeters>217</AltitudeMeters>
            <DistanceMeters>NAN</DistanceMeters>
          </Trackpoint>
          <Trackpoint>
            <Time>2020-05-25T07:34:13.000Z</Time>
            <Position>
              <LatitudeDegrees>38.0629721470177173614501953125</LatitudeDegrees>
              <LongitudeDegrees>-1.15889333188533782958984375</LongitudeDegrees>
            </Position>
            <AltitudeMeters>216.600006103515625</AltitudeMeters>
            <DistanceMeters>NAN</DistanceMeters>
          </Trackpoint>
          <Trackpoint>
            <Time>2020-05-25T07:34:14.000Z</Time>
            <Position>
              <LatitudeDegrees>38.06292613036930561065673828125</LatitudeDegrees>
              <LongitudeDegrees>-1.1590316332876682281494140625</LongitudeDegrees>
            </Position>
            <AltitudeMeters>216.1999969482421875</AltitudeMeters>
            <DistanceMeters>NAN</DistanceMeters>
          </Trackpoint>
          <Trackpoint>
            <Time>2020-05-25T07:34:15.000Z</Time>
            <Position>
              <LatitudeDegrees>38.06287868879735469818115234375</LatitudeDegrees>
              <LongitudeDegrees>-1.1591670848429203033447265625</LongitudeDegrees>
            </Position>
            <AltitudeMeters>215.8000030517578125</AltitudeMeters>
            <DistanceMeters>NAN</DistanceMeters>
          </Trackpoint>
          <Trackpoint>
            <Time>2020-05-25T07:34:16.000Z</Time>
            <Position>
              <LatitudeDegrees>38.06282605044543743133544921875</LatitudeDegrees>
              <LongitudeDegrees>-1.15929893217980861663818359375</LongitudeDegrees>
            </Position>
            <AltitudeMeters>215.1999969482421875</AltitudeMeters>
            <DistanceMeters>NAN</DistanceMeters>
          </Trackpoint>
          <Trackpoint>
            <Time>2020-05-25T07:34:17.000Z</Time>
            <Position>
              <LatitudeDegrees>38.0627672933042049407958984375</LatitudeDegrees>
              <LongitudeDegrees>-1.159426085650920867919921875</LongitudeDegrees>
            </Position>
            <AltitudeMeters>214.600006103515625</AltitudeMeters>
            <DistanceMeters>NAN</DistanceMeters>
          </Trackpoint>
          <Trackpoint>
            <Time>2020-05-25T07:34:18.000Z</Time>
            <Position>
              <LatitudeDegrees>38.062702752649784088134765625</LatitudeDegrees>
              <LongitudeDegrees>-1.15955072455108165740966796875</LongitudeDegrees>
            </Position>
            <AltitudeMeters>214</AltitudeMeters>
            <DistanceMeters>NAN</DistanceMeters>
          </Trackpoint>
          <Trackpoint>
            <Time>2020-05-25T07:34:19.000Z</Time>
            <Position>
              <LatitudeDegrees>38.062633015215396881103515625</LatitudeDegrees>
              <LongitudeDegrees>-1.15966605953872203826904296875</LongitudeDegrees>
            </Position>
            <AltitudeMeters>213.399993896484375</AltitudeMeters>
            <DistanceMeters>NAN</DistanceMeters>
          </Trackpoint>
          <Trackpoint>
            <Time>2020-05-25T07:34:20.000Z</Time>
            <Position>
              <LatitudeDegrees>38.06255690753459930419921875</LatitudeDegrees>
              <LongitudeDegrees>-1.159776784479618072509765625</LongitudeDegrees>
            </Position>
            <AltitudeMeters>212.8000030517578125</AltitudeMeters>
            <DistanceMeters>NAN</DistanceMeters>
          </Trackpoint>
          <Trackpoint>
            <Time>2020-05-25T07:34:21.000Z</Time>
            <Position>
              <LatitudeDegrees>38.0624749325215816497802734375</LatitudeDegrees>
              <LongitudeDegrees>-1.15987912751734256744384765625</LongitudeDegrees>
            </Position>
            <AltitudeMeters>211.600006103515625</AltitudeMeters>
            <DistanceMeters>NAN</DistanceMeters>
          </Trackpoint>
          <Trackpoint>
            <Time>2020-05-25T07:34:22.000Z</Time>
            <Position>
              <LatitudeDegrees>38.06238566525280475616455078125</LatitudeDegrees>
              <LongitudeDegrees>-1.1599735915660858154296875</LongitudeDegrees>
            </Position>
            <AltitudeMeters>210.399993896484375</AltitudeMeters>
            <DistanceMeters>NAN</DistanceMeters>
          </Trackpoint>
          <Trackpoint>
            <Time>2020-05-25T07:34:23.000Z</Time>
            <Position>
              <LatitudeDegrees>38.06229078210890293121337890625</LatitudeDegrees>
              <LongitudeDegrees>-1.16005850024521350860595703125</LongitudeDegrees>
            </Position>
            <AltitudeMeters>209.1999969482421875</AltitudeMeters>
            <DistanceMeters>NAN</DistanceMeters>
          </Trackpoint>
          <Trackpoint>
            <Time>2020-05-25T07:34:24.000Z</Time>
            <Position>
              <LatitudeDegrees>38.0621879361569881439208984375</LatitudeDegrees>
              <LongitudeDegrees>-1.16013444028794765472412109375</LongitudeDegrees>
            </Position>
            <AltitudeMeters>208</AltitudeMeters>
            <DistanceMeters>NAN</DistanceMeters>
          </Trackpoint>
          <Trackpoint>
            <Time>2020-05-25T07:34:25.000Z</Time>
            <Position>
              <LatitudeDegrees>38.062082827091217041015625</LatitudeDegrees>
              <LongitudeDegrees>-1.16020283661782741546630859375</LongitudeDegrees>
            </Position>
            <AltitudeMeters>207</AltitudeMeters>
            <DistanceMeters>NAN</DistanceMeters>
          </Trackpoint>
          <Trackpoint>
            <Time>2020-05-25T07:34:26.000Z</Time>
            <Position>
              <LatitudeDegrees>38.0619733594357967376708984375</LatitudeDegrees>
              <LongitudeDegrees>-1.1602632701396942138671875</LongitudeDegrees>
            </Position>
            <AltitudeMeters>206</AltitudeMeters>
            <DistanceMeters>NAN</DistanceMeters>
          </Trackpoint>
          <Trackpoint>
            <Time>2020-05-25T07:34:27.000Z</Time>
            <Position>
              <LatitudeDegrees>38.06185953319072723388671875</LatitudeDegrees>
              <LongitudeDegrees>-1.16031490266323089599609375</LongitudeDegrees>
            </Position>
            <AltitudeMeters>205.1999969482421875</AltitudeMeters>
            <DistanceMeters>NAN</DistanceMeters>
          </Trackpoint>
          <Trackpoint>
            <Time>2020-05-25T07:34:28.000Z</Time>
            <Position>
              <LatitudeDegrees>38.06174294091761112213134765625</LatitudeDegrees>
              <LongitudeDegrees>-1.1603598296642303466796875</LongitudeDegrees>
            </Position>
            <AltitudeMeters>204.1999969482421875</AltitudeMeters>
            <DistanceMeters>NAN</DistanceMeters>
          </Trackpoint>
          <Trackpoint>
            <Time>2020-05-25T07:34:29.000Z</Time>
            <Position>
              <LatitudeDegrees>38.06162525899708271026611328125</LatitudeDegrees>
              <LongitudeDegrees>-1.16039863787591457366943359375</LongitudeDegrees>
            </Position>
            <AltitudeMeters>202.8000030517578125</AltitudeMeters>
            <DistanceMeters>NAN</DistanceMeters>
          </Trackpoint>
          <Trackpoint>
            <Time>2020-05-25T07:34:30.000Z</Time>
            <Position>
              <LatitudeDegrees>38.0615059845149517059326171875</LatitudeDegrees>
              <LongitudeDegrees>-1.16043015383183956146240234375</LongitudeDegrees>
            </Position>
            <AltitudeMeters>201.600006103515625</AltitudeMeters>
            <DistanceMeters>NAN</DistanceMeters>
          </Trackpoint>
          <Trackpoint>
            <Time>2020-05-25T07:34:31.000Z</Time>
            <Position>
              <LatitudeDegrees>38.06138553656637668609619140625</LatitudeDegrees>
              <LongitudeDegrees>-1.16045773029327392578125</LongitudeDegrees>
            </Position>
            <AltitudeMeters>200.399993896484375</AltitudeMeters>
            <DistanceMeters>NAN</DistanceMeters>
          </Trackpoint>
          <Trackpoint>
            <Time>2020-05-25T07:34:32.000Z</Time>
            <Position>
              <LatitudeDegrees>38.061263747513294219970703125</LatitudeDegrees>
              <LongitudeDegrees>-1.160480864346027374267578125</LongitudeDegrees>
            </Position>
            <AltitudeMeters>199</AltitudeMeters>
            <DistanceMeters>NAN</DistanceMeters>
          </Trackpoint>
          <Trackpoint>
            <Time>2020-05-25T07:34:33.000Z</Time>
            <Position>
              <LatitudeDegrees>38.06114028207957744598388671875</LatitudeDegrees>
              <LongitudeDegrees>-1.16050140000879764556884765625</LongitudeDegrees>
            </Position>
            <AltitudeMeters>197.8000030517578125</AltitudeMeters>
            <DistanceMeters>NAN</DistanceMeters>
          </Trackpoint>
          <Trackpoint>
            <Time>2020-05-25T07:34:34.000Z</Time>
            <Position>
              <LatitudeDegrees>38.0610161460936069488525390625</LatitudeDegrees>
              <LongitudeDegrees>-1.16052017547190189361572265625</LongitudeDegrees>
            </Position>
            <AltitudeMeters>196.600006103515625</AltitudeMeters>
            <DistanceMeters>NAN</DistanceMeters>
          </Trackpoint>
          <Trackpoint>
            <Time>2020-05-25T07:34:35.000Z</Time>
            <Position>
              <LatitudeDegrees>38.06089184246957302093505859375</LatitudeDegrees>
              <LongitudeDegrees>-1.160540543496608734130859375</LongitudeDegrees>
            </Position>
            <AltitudeMeters>195.399993896484375</AltitudeMeters>
            <DistanceMeters>NAN</DistanceMeters>
          </Trackpoint>
          <Trackpoint>
            <Time>2020-05-25T07:34:36.000Z</Time>
            <Position>
              <LatitudeDegrees>38.06076661683619022369384765625</LatitudeDegrees>
              <LongitudeDegrees>-1.160562336444854736328125</LongitudeDegrees>
            </Position>
            <AltitudeMeters>194.600006103515625</AltitudeMeters>
            <DistanceMeters>NAN</DistanceMeters>
          </Trackpoint>
          <Trackpoint>
            <Time>2020-05-25T07:34:37.000Z</Time>
            <Position>
              <LatitudeDegrees>38.0606416426599025726318359375</LatitudeDegrees>
              <LongitudeDegrees>-1.160585470497608184814453125</LongitudeDegrees>
            </Position>
            <AltitudeMeters>193.8000030517578125</AltitudeMeters>
            <DistanceMeters>NAN</DistanceMeters>
          </Trackpoint>
          <Trackpoint>
            <Time>2020-05-25T07:34:38.000Z</Time>
            <Position>
              <LatitudeDegrees>38.06051750667393207550048828125</LatitudeDegrees>
              <LongitudeDegrees>-1.16061170585453510284423828125</LongitudeDegrees>
            </Position>
            <AltitudeMeters>193</AltitudeMeters>
            <DistanceMeters>NAN</DistanceMeters>
          </Trackpoint>
          <Trackpoint>
            <Time>2020-05-25T07:34:39.000Z</Time>
            <Position>
              <LatitudeDegrees>38.0603943765163421630859375</LatitudeDegrees>
              <LongitudeDegrees>-1.16064003668725490570068359375</LongitudeDegrees>
            </Position>
            <AltitudeMeters>192.600006103515625</AltitudeMeters>
            <DistanceMeters>NAN</DistanceMeters>
          </Trackpoint>
          <Trackpoint>
            <Time>2020-05-25T07:34:40.000Z</Time>
            <Position>
              <LatitudeDegrees>38.06027141399681568145751953125</LatitudeDegrees>
              <LongitudeDegrees>-1.16066819988191127777099609375</LongitudeDegrees>
            </Position>
            <AltitudeMeters>192</AltitudeMeters>
            <DistanceMeters>NAN</DistanceMeters>
          </Trackpoint>
          <Trackpoint>
            <Time>2020-05-25T07:34:41.000Z</Time>
            <Position>
              <LatitudeDegrees>38.0601491220295429229736328125</LatitudeDegrees>
              <LongitudeDegrees>-1.1606952734291553497314453125</LongitudeDegrees>
            </Position>
            <AltitudeMeters>191.399993896484375</AltitudeMeters>
            <DistanceMeters>NAN</DistanceMeters>
          </Trackpoint>
          <Trackpoint>
            <Time>2020-05-25T07:34:42.000Z</Time>
            <Position>
              <LatitudeDegrees>38.06002716533839702606201171875</LatitudeDegrees>
              <LongitudeDegrees>-1.1607227660715579986572265625</LongitudeDegrees>
            </Position>
            <AltitudeMeters>191</AltitudeMeters>
            <DistanceMeters>NAN</DistanceMeters>
          </Trackpoint>
          <Trackpoint>
            <Time>2020-05-25T07:34:43.000Z</Time>
            <Position>
              <LatitudeDegrees>38.05990646593272686004638671875</LatitudeDegrees>
              <LongitudeDegrees>-1.16075101308524608612060546875</LongitudeDegrees>
            </Position>
            <AltitudeMeters>190.8000030517578125</AltitudeMeters>
            <DistanceMeters>NAN</DistanceMeters>
          </Trackpoint>
          <Trackpoint>
            <Time>2020-05-25T07:34:44.000Z</Time>
            <Position>
              <LatitudeDegrees>38.059786856174468994140625</LatitudeDegrees>
              <LongitudeDegrees>-1.1607807688415050506591796875</LongitudeDegrees>
            </Position>
            <AltitudeMeters>190.600006103515625</AltitudeMeters>
            <DistanceMeters>NAN</DistanceMeters>
          </Trackpoint>
          <Trackpoint>
            <Time>2020-05-25T07:34:45.000Z</Time>
            <Position>
              <LatitudeDegrees>38.059667833149433135986328125</LatitudeDegrees>
              <LongitudeDegrees>-1.16081085987389087677001953125</LongitudeDegrees>
            </Position>
            <AltitudeMeters>190.399993896484375</AltitudeMeters>
            <DistanceMeters>NAN</DistanceMeters>
          </Trackpoint>
          <Trackpoint>
            <Time>2020-05-25T07:34:46.000Z</Time>
            <Position>
              <LatitudeDegrees>38.05954872630536556243896484375</LatitudeDegrees>
              <LongitudeDegrees>-1.16084053181111812591552734375</LongitudeDegrees>
            </Position>
            <AltitudeMeters>190.399993896484375</AltitudeMeters>
            <DistanceMeters>NAN</DistanceMeters>
          </Trackpoint>
          <Trackpoint>
            <Time>2020-05-25T07:34:47.000Z</Time>
            <Position>
              <LatitudeDegrees>38.059429787099361419677734375</LatitudeDegrees>
              <LongitudeDegrees>-1.160871125757694244384765625</LongitudeDegrees>
            </Position>
            <AltitudeMeters>190.1999969482421875</AltitudeMeters>
            <DistanceMeters>NAN</DistanceMeters>
          </Trackpoint>
          <Trackpoint>
            <Time>2020-05-25T07:34:48.000Z</Time>
            <Position>
              <LatitudeDegrees>38.05931143462657928466796875</LatitudeDegrees>
              <LongitudeDegrees>-1.16090138442814350128173828125</LongitudeDegrees>
            </Position>
            <AltitudeMeters>190</AltitudeMeters>
            <DistanceMeters>NAN</DistanceMeters>
          </Trackpoint>
          <Trackpoint>
            <Time>2020-05-25T07:34:49.000Z</Time>
            <Position>
              <LatitudeDegrees>38.0591935850679874420166015625</LatitudeDegrees>
              <LongitudeDegrees>-1.1609316430985927581787109375</LongitudeDegrees>
            </Position>
            <AltitudeMeters>189.8000030517578125</AltitudeMeters>
            <DistanceMeters>NAN</DistanceMeters>
          </Trackpoint>
          <Trackpoint>
            <Time>2020-05-25T07:34:50.000Z</Time>
            <Position>
              <LatitudeDegrees>38.05907598696649074554443359375</LatitudeDegrees>
              <LongitudeDegrees>-1.1609624885022640228271484375</LongitudeDegrees>
            </Position>
            <AltitudeMeters>189.399993896484375</AltitudeMeters>
            <DistanceMeters>NAN</DistanceMeters>
          </Trackpoint>
          <Trackpoint>
            <Time>2020-05-25T07:34:51.000Z</Time>
            <Position>
              <LatitudeDegrees>38.058959059417247772216796875</LatitudeDegrees>
              <LongitudeDegrees>-1.1609950102865695953369140625</LongitudeDegrees>
            </Position>
            <AltitudeMeters>189</AltitudeMeters>
            <DistanceMeters>NAN</DistanceMeters>
          </Trackpoint>
          <Trackpoint>
            <Time>2020-05-25T07:34:52.000Z</Time>
            <Position>
              <LatitudeDegrees>38.05884380824863910675048828125</LatitudeDegrees>
              <LongitudeDegrees>-1.1610292084515094757080078125</LongitudeDegrees>
            </Position>
            <AltitudeMeters>188.600006103515625</AltitudeMeters>
            <DistanceMeters>NAN</DistanceMeters>
          </Trackpoint>
          <Trackpoint>
            <Time>2020-05-25T07:34:53.000Z</Time>
            <Position>
              <LatitudeDegrees>38.05872738361358642578125</LatitudeDegrees>
              <LongitudeDegrees>-1.1610624007880687713623046875</LongitudeDegrees>
            </Position>
            <AltitudeMeters>188</AltitudeMeters>
            <DistanceMeters>NAN</DistanceMeters>
          </Trackpoint>
          <Trackpoint>
            <Time>2020-05-25T07:34:54.000Z</Time>
            <Position>
              <LatitudeDegrees>38.05861162953078746795654296875</LatitudeDegrees>
              <LongitudeDegrees>-1.1610947549343109130859375</LongitudeDegrees>
            </Position>
            <AltitudeMeters>187.399993896484375</AltitudeMeters>
            <DistanceMeters>NAN</DistanceMeters>
          </Trackpoint>
          <Trackpoint>
            <Time>2020-05-25T07:34:55.000Z</Time>
            <Position>
              <LatitudeDegrees>38.05849696509540081024169921875</LatitudeDegrees>
              <LongitudeDegrees>-1.16112786345183849334716796875</LongitudeDegrees>
            </Position>
            <AltitudeMeters>187</AltitudeMeters>
            <DistanceMeters>NAN</DistanceMeters>
          </Trackpoint>
          <Trackpoint>
            <Time>2020-05-25T07:34:56.000Z</Time>
            <Position>
              <LatitudeDegrees>38.05838330648839473724365234375</LatitudeDegrees>
              <LongitudeDegrees>-1.161159463226795196533203125</LongitudeDegrees>
            </Position>
            <AltitudeMeters>186.399993896484375</AltitudeMeters>
            <DistanceMeters>NAN</DistanceMeters>
          </Trackpoint>
          <Trackpoint>
            <Time>2020-05-25T07:34:57.000Z</Time>
            <Position>
              <LatitudeDegrees>38.0582709051668643951416015625</LatitudeDegrees>
              <LongitudeDegrees>-1.1611904762685298919677734375</LongitudeDegrees>
            </Position>
            <AltitudeMeters>186</AltitudeMeters>
            <DistanceMeters>NAN</DistanceMeters>
          </Trackpoint>
          <Trackpoint>
            <Time>2020-05-25T07:34:58.000Z</Time>
            <Position>
              <LatitudeDegrees>38.05815917439758777618408203125</LatitudeDegrees>
              <LongitudeDegrees>-1.1612206511199474334716796875</LongitudeDegrees>
            </Position>
            <AltitudeMeters>185.399993896484375</AltitudeMeters>
            <DistanceMeters>NAN</DistanceMeters>
          </Trackpoint>
          <Trackpoint>
            <Time>2020-05-25T07:34:59.000Z</Time>
            <Position>
              <LatitudeDegrees>38.05804803036153316497802734375</LatitudeDegrees>
              <LongitudeDegrees>-1.16125040687620639801025390625</LongitudeDegrees>
            </Position>
            <AltitudeMeters>185</AltitudeMeters>
            <DistanceMeters>NAN</DistanceMeters>
          </Trackpoint>
          <Trackpoint>
            <Time>2020-05-25T07:35:00.000Z</Time>
            <Position>
              <LatitudeDegrees>38.0579379759728908538818359375</LatitudeDegrees>
              <LongitudeDegrees>-1.16127957589924335479736328125</LongitudeDegrees>
            </Position>
            <AltitudeMeters>184.399993896484375</AltitudeMeters>
            <DistanceMeters>NAN</DistanceMeters>
          </Trackpoint>
          <Trackpoint>
            <Time>2020-05-25T07:35:01.000Z</Time>
            <Position>
              <LatitudeDegrees>38.05782825686037540435791015625</LatitudeDegrees>
              <LongitudeDegrees>-1.16130924783647060394287109375</LongitudeDegrees>
            </Position>
            <AltitudeMeters>184</AltitudeMeters>
            <DistanceMeters>NAN</DistanceMeters>
          </Trackpoint>
          <Trackpoint>
            <Time>2020-05-25T07:35:02.000Z</Time>
            <Position>
              <LatitudeDegrees>38.057721219956874847412109375</LatitudeDegrees>
              <LongitudeDegrees>-1.16133875213563442230224609375</LongitudeDegrees>
            </Position>
            <AltitudeMeters>183.399993896484375</AltitudeMeters>
            <DistanceMeters>NAN</DistanceMeters>
          </Trackpoint>
          <Trackpoint>
            <Time>2020-05-25T07:35:03.000Z</Time>
            <Position>
              <LatitudeDegrees>38.0576169490814208984375</LatitudeDegrees>
              <LongitudeDegrees>-1.16136942990124225616455078125</LongitudeDegrees>
            </Position>
            <AltitudeMeters>183</AltitudeMeters>
            <DistanceMeters>NAN</DistanceMeters>
          </Trackpoint>
          <Trackpoint>
            <Time>2020-05-25T07:35:04.000Z</Time>
            <Position>
              <LatitudeDegrees>38.057516701519489288330078125</LatitudeDegrees>
              <LongitudeDegrees>-1.16140530444681644439697265625</LongitudeDegrees>
            </Position>
            <AltitudeMeters>182.600006103515625</AltitudeMeters>
            <DistanceMeters>NAN</DistanceMeters>
          </Trackpoint>
          <Trackpoint>
            <Time>2020-05-25T07:35:05.000Z</Time>
            <Position>
              <LatitudeDegrees>38.057420141994953155517578125</LatitudeDegrees>
              <LongitudeDegrees>-1.1614566855132579803466796875</LongitudeDegrees>
            </Position>
            <AltitudeMeters>182.1999969482421875</AltitudeMeters>
            <DistanceMeters>NAN</DistanceMeters>
          </Trackpoint>
          <Trackpoint>
            <Time>2020-05-25T07:35:06.000Z</Time>
            <Position>
              <LatitudeDegrees>38.05732123553752899169921875</LatitudeDegrees>
              <LongitudeDegrees>-1.1615083180367946624755859375</LongitudeDegrees>
            </Position>
            <AltitudeMeters>181.8000030517578125</AltitudeMeters>
            <DistanceMeters>NAN</DistanceMeters>
          </Trackpoint>
          <Trackpoint>
            <Time>2020-05-25T07:35:07.000Z</Time>
            <Position>
              <LatitudeDegrees>38.05721956305205821990966796875</LatitudeDegrees>
              <LongitudeDegrees>-1.1615371517837047576904296875</LongitudeDegrees>
            </Position>
            <AltitudeMeters>181.399993896484375</AltitudeMeters>
            <DistanceMeters>NAN</DistanceMeters>
          </Trackpoint>
          <Trackpoint>
            <Time>2020-05-25T07:35:08.000Z</Time>
            <Position>
              <LatitudeDegrees>38.05711730383336544036865234375</LatitudeDegrees>
              <LongitudeDegrees>-1.161545030772686004638671875</LongitudeDegrees>
            </Position>
            <AltitudeMeters>180.8000030517578125</AltitudeMeters>
            <DistanceMeters>NAN</DistanceMeters>
          </Trackpoint>
          <Trackpoint>
            <Time>2020-05-25T07:35:09.000Z</Time>
            <Position>
              <LatitudeDegrees>38.05701521225273609161376953125</LatitudeDegrees>
              <LongitudeDegrees>-1.16154762916266918182373046875</LongitudeDegrees>
            </Position>
            <AltitudeMeters>180.399993896484375</AltitudeMeters>
            <DistanceMeters>NAN</DistanceMeters>
          </Trackpoint>
          <Trackpoint>
            <Time>2020-05-25T07:35:10.000Z</Time>
            <Position>
              <LatitudeDegrees>38.05691379122436046600341796875</LatitudeDegrees>
              <LongitudeDegrees>-1.1615646444261074066162109375</LongitudeDegrees>
            </Position>
            <AltitudeMeters>179.8000030517578125</AltitudeMeters>
            <DistanceMeters>NAN</DistanceMeters>
          </Trackpoint>
          <Trackpoint>
            <Time>2020-05-25T07:35:11.000Z</Time>
            <Position>
              <LatitudeDegrees>38.0568127892911434173583984375</LatitudeDegrees>
              <LongitudeDegrees>-1.1615887843072414398193359375</LongitudeDegrees>
            </Position>
            <AltitudeMeters>179.399993896484375</AltitudeMeters>
            <DistanceMeters>NAN</DistanceMeters>
          </Trackpoint>
          <Trackpoint>
            <Time>2020-05-25T07:35:12.000Z</Time>
            <Position>
              <LatitudeDegrees>38.0567125417292118072509765625</LatitudeDegrees>
              <LongitudeDegrees>-1.1616142652928829193115234375</LongitudeDegrees>
            </Position>
            <AltitudeMeters>179</AltitudeMeters>
            <DistanceMeters>NAN</DistanceMeters>
          </Trackpoint>
          <Trackpoint>
            <Time>2020-05-25T07:35:13.000Z</Time>
            <Position>
              <LatitudeDegrees>38.0566112883388996124267578125</LatitudeDegrees>
              <LongitudeDegrees>-1.161642931401729583740234375</LongitudeDegrees>
            </Position>
            <AltitudeMeters>178.399993896484375</AltitudeMeters>
            <DistanceMeters>NAN</DistanceMeters>
          </Trackpoint>
          <Trackpoint>
            <Time>2020-05-25T07:35:14.000Z</Time>
            <Position>
              <LatitudeDegrees>38.0565103702247142791748046875</LatitudeDegrees>
              <LongitudeDegrees>-1.161671765148639678955078125</LongitudeDegrees>
            </Position>
            <AltitudeMeters>177.8000030517578125</AltitudeMeters>
            <DistanceMeters>NAN</DistanceMeters>
          </Trackpoint>
          <Trackpoint>
            <Time>2020-05-25T07:35:15.000Z</Time>
            <Position>
              <LatitudeDegrees>38.05640970356762409210205078125</LatitudeDegrees>
              <LongitudeDegrees>-1.16170017980039119720458984375</LongitudeDegrees>
            </Position>
            <AltitudeMeters>177.399993896484375</AltitudeMeters>
            <DistanceMeters>NAN</DistanceMeters>
          </Trackpoint>
          <Trackpoint>
            <Time>2020-05-25T07:35:16.000Z</Time>
            <Position>
              <LatitudeDegrees>38.05630845017731189727783203125</LatitudeDegrees>
              <LongitudeDegrees>-1.1617292650043964385986328125</LongitudeDegrees>
            </Position>
            <AltitudeMeters>177</AltitudeMeters>
            <DistanceMeters>NAN</DistanceMeters>
          </Trackpoint>
          <Trackpoint>
            <Time>2020-05-25T07:35:17.000Z</Time>
            <Position>
              <LatitudeDegrees>38.05620585568249225616455078125</LatitudeDegrees>
              <LongitudeDegrees>-1.16175927221775054931640625</LongitudeDegrees>
            </Position>
            <AltitudeMeters>176.600006103515625</AltitudeMeters>
            <DistanceMeters>NAN</DistanceMeters>
          </Trackpoint>
          <Trackpoint>
            <Time>2020-05-25T07:35:18.000Z</Time>
            <Position>
              <LatitudeDegrees>38.0561030097305774688720703125</LatitudeDegrees>
              <LongitudeDegrees>-1.16179279983043670654296875</LongitudeDegrees>
            </Position>
            <AltitudeMeters>176.1999969482421875</AltitudeMeters>
            <DistanceMeters>NAN</DistanceMeters>
          </Trackpoint>
          <Trackpoint>
            <Time>2020-05-25T07:35:19.000Z</Time>
            <Position>
              <LatitudeDegrees>38.056001923978328704833984375</LatitudeDegrees>
              <LongitudeDegrees>-1.161825321614742279052734375</LongitudeDegrees>
            </Position>
            <AltitudeMeters>175.8000030517578125</AltitudeMeters>
            <DistanceMeters>NAN</DistanceMeters>
          </Trackpoint>
          <Trackpoint>
            <Time>2020-05-25T07:35:20.000Z</Time>
            <Position>
              <LatitudeDegrees>38.05590142495930194854736328125</LatitudeDegrees>
              <LongitudeDegrees>-1.1618586815893650054931640625</LongitudeDegrees>
            </Position>
            <AltitudeMeters>175.399993896484375</AltitudeMeters>
            <DistanceMeters>NAN</DistanceMeters>
          </Trackpoint>
          <Trackpoint>
            <Time>2020-05-25T07:35:21.000Z</Time>
            <Position>
              <LatitudeDegrees>38.05580310523509979248046875</LatitudeDegrees>
              <LongitudeDegrees>-1.1618962325155735015869140625</LongitudeDegrees>
            </Position>
            <AltitudeMeters>175.1999969482421875</AltitudeMeters>
            <DistanceMeters>NAN</DistanceMeters>
          </Trackpoint>
          <Trackpoint>
            <Time>2020-05-25T07:35:22.000Z</Time>
            <Position>
              <LatitudeDegrees>38.05570679716765880584716796875</LatitudeDegrees>
              <LongitudeDegrees>-1.16193705238401889801025390625</LongitudeDegrees>
            </Position>
            <AltitudeMeters>174.8000030517578125</AltitudeMeters>
            <DistanceMeters>NAN</DistanceMeters>
          </Trackpoint>
          <Trackpoint>
            <Time>2020-05-25T07:35:23.000Z</Time>
            <Position>
              <LatitudeDegrees>38.0556135065853595733642578125</LatitudeDegrees>
              <LongitudeDegrees>-1.1619827337563037872314453125</LongitudeDegrees>
            </Position>
            <AltitudeMeters>174.600006103515625</AltitudeMeters>
            <DistanceMeters>NAN</DistanceMeters>
          </Trackpoint>
          <Trackpoint>
            <Time>2020-05-25T07:35:24.000Z</Time>
            <Position>
              <LatitudeDegrees>38.0555239878594875335693359375</LatitudeDegrees>
              <LongitudeDegrees>-1.1620326898992061614990234375</LongitudeDegrees>
            </Position>
            <AltitudeMeters>174.399993896484375</AltitudeMeters>
            <DistanceMeters>NAN</DistanceMeters>
          </Trackpoint>
          <Trackpoint>
            <Time>2020-05-25T07:35:25.000Z</Time>
            <Position>
              <LatitudeDegrees>38.05543773807585239410400390625</LatitudeDegrees>
              <LongitudeDegrees>-1.16208407096564769744873046875</LongitudeDegrees>
            </Position>
            <AltitudeMeters>174</AltitudeMeters>
            <DistanceMeters>NAN</DistanceMeters>
          </Trackpoint>
          <Trackpoint>
            <Time>2020-05-25T07:35:26.000Z</Time>
            <Position>
              <LatitudeDegrees>38.05535375140607357025146484375</LatitudeDegrees>
              <LongitudeDegrees>-1.162135116755962371826171875</LongitudeDegrees>
            </Position>
            <AltitudeMeters>173.8000030517578125</AltitudeMeters>
            <DistanceMeters>NAN</DistanceMeters>
          </Trackpoint>
          <Trackpoint>
            <Time>2020-05-25T07:35:27.000Z</Time>
            <Position>
              <LatitudeDegrees>38.055271692574024200439453125</LatitudeDegrees>
              <LongitudeDegrees>-1.16218599490821361541748046875</LongitudeDegrees>
            </Position>
            <AltitudeMeters>173.600006103515625</AltitudeMeters>
            <DistanceMeters>NAN</DistanceMeters>
          </Trackpoint>
          <Trackpoint>
            <Time>2020-05-25T07:35:28.000Z</Time>
            <Position>
              <LatitudeDegrees>38.05519231595098972320556640625</LatitudeDegrees>
              <LongitudeDegrees>-1.16223511286079883575439453125</LongitudeDegrees>
            </Position>
            <AltitudeMeters>173.1999969482421875</AltitudeMeters>
            <DistanceMeters>NAN</DistanceMeters>
          </Trackpoint>
          <Trackpoint>
            <Time>2020-05-25T07:35:29.000Z</Time>
            <Position>
              <LatitudeDegrees>38.05511419661343097686767578125</LatitudeDegrees>
              <LongitudeDegrees>-1.1622834764420986175537109375</LongitudeDegrees>
            </Position>
            <AltitudeMeters>173</AltitudeMeters>
            <DistanceMeters>NAN</DistanceMeters>
          </Trackpoint>
          <Trackpoint>
            <Time>2020-05-25T07:35:30.000Z</Time>
            <Position>
              <LatitudeDegrees>38.05503674782812595367431640625</LatitudeDegrees>
              <LongitudeDegrees>-1.16233318112790584564208984375</LongitudeDegrees>
            </Position>
            <AltitudeMeters>173.1999969482421875</AltitudeMeters>
            <DistanceMeters>NAN</DistanceMeters>
          </Trackpoint>
          <Trackpoint>
            <Time>2020-05-25T07:35:31.000Z</Time>
            <Position>
              <LatitudeDegrees>38.05495896376669406890869140625</LatitudeDegrees>
              <LongitudeDegrees>-1.1623797006905078887939453125</LongitudeDegrees>
            </Position>
            <AltitudeMeters>173.600006103515625</AltitudeMeters>
            <DistanceMeters>NAN</DistanceMeters>
          </Trackpoint>
          <Trackpoint>
            <Time>2020-05-25T07:35:32.000Z</Time>
            <Position>
              <LatitudeDegrees>38.0548832751810550689697265625</LatitudeDegrees>
              <LongitudeDegrees>-1.16242437623441219329833984375</LongitudeDegrees>
            </Position>
            <AltitudeMeters>174</AltitudeMeters>
            <DistanceMeters>NAN</DistanceMeters>
          </Trackpoint>
          <Trackpoint>
            <Time>2020-05-25T07:35:33.000Z</Time>
            <Position>
              <LatitudeDegrees>38.0548098497092723846435546875</LatitudeDegrees>
              <LongitudeDegrees>-1.162472069263458251953125</LongitudeDegrees>
            </Position>
            <AltitudeMeters>174.1999969482421875</AltitudeMeters>
            <DistanceMeters>NAN</DistanceMeters>
          </Trackpoint>
          <Trackpoint>
            <Time>2020-05-25T07:35:34.000Z</Time>
            <Position>
              <LatitudeDegrees>38.05473826825618743896484375</LatitudeDegrees>
              <LongitudeDegrees>-1.16251976229250431060791015625</LongitudeDegrees>
            </Position>
            <AltitudeMeters>174.600006103515625</AltitudeMeters>
            <DistanceMeters>NAN</DistanceMeters>
          </Trackpoint>
          <Trackpoint>
            <Time>2020-05-25T07:35:35.000Z</Time>
            <Position>
              <LatitudeDegrees>38.054666854441165924072265625</LatitudeDegrees>
              <LongitudeDegrees>-1.16256502456963062286376953125</LongitudeDegrees>
            </Position>
            <AltitudeMeters>174.8000030517578125</AltitudeMeters>
            <DistanceMeters>NAN</DistanceMeters>
          </Trackpoint>
          <Trackpoint>
            <Time>2020-05-25T07:35:36.000Z</Time>
            <Position>
              <LatitudeDegrees>38.05459720082581043243408203125</LatitudeDegrees>
              <LongitudeDegrees>-1.1626093648374080657958984375</LongitudeDegrees>
            </Position>
            <AltitudeMeters>175.1999969482421875</AltitudeMeters>
            <DistanceMeters>NAN</DistanceMeters>
          </Trackpoint>
          <Trackpoint>
            <Time>2020-05-25T07:35:37.000Z</Time>
            <Position>
              <LatitudeDegrees>38.05452997796237468719482421875</LatitudeDegrees>
              <LongitudeDegrees>-1.1626542918384075164794921875</LongitudeDegrees>
            </Position>
            <AltitudeMeters>175.399993896484375</AltitudeMeters>
            <DistanceMeters>NAN</DistanceMeters>
          </Trackpoint>
          <Trackpoint>
            <Time>2020-05-25T07:35:38.000Z</Time>
            <Position>
              <LatitudeDegrees>38.05446208454668521881103515625</LatitudeDegrees>
              <LongitudeDegrees>-1.16269628517329692840576171875</LongitudeDegrees>
            </Position>
            <AltitudeMeters>175.8000030517578125</AltitudeMeters>
            <DistanceMeters>NAN</DistanceMeters>
          </Trackpoint>
          <Trackpoint>
            <Time>2020-05-25T07:35:39.000Z</Time>
            <Position>
              <LatitudeDegrees>38.05439452640712261199951171875</LatitudeDegrees>
              <LongitudeDegrees>-1.16273852996528148651123046875</LongitudeDegrees>
            </Position>
            <AltitudeMeters>176</AltitudeMeters>
            <DistanceMeters>NAN</DistanceMeters>
          </Trackpoint>
          <Trackpoint>
            <Time>2020-05-25T07:35:40.000Z</Time>
            <Position>
              <LatitudeDegrees>38.054328896105289459228515625</LatitudeDegrees>
              <LongitudeDegrees>-1.16277742199599742889404296875</LongitudeDegrees>
            </Position>
            <AltitudeMeters>176.399993896484375</AltitudeMeters>
            <DistanceMeters>NAN</DistanceMeters>
          </Trackpoint>
          <Trackpoint>
            <Time>2020-05-25T07:35:41.000Z</Time>
            <Position>
              <LatitudeDegrees>38.05426485836505889892578125</LatitudeDegrees>
              <LongitudeDegrees>-1.16281530819833278656005859375</LongitudeDegrees>
            </Position>
            <AltitudeMeters>176.600006103515625</AltitudeMeters>
            <DistanceMeters>NAN</DistanceMeters>
          </Trackpoint>
          <Trackpoint>
            <Time>2020-05-25T07:35:42.000Z</Time>
            <Position>
              <LatitudeDegrees>38.05420090444386005401611328125</LatitudeDegrees>
              <LongitudeDegrees>-1.16285470314323902130126953125</LongitudeDegrees>
            </Position>
            <AltitudeMeters>176.8000030517578125</AltitudeMeters>
            <DistanceMeters>NAN</DistanceMeters>
          </Trackpoint>
          <Trackpoint>
            <Time>2020-05-25T07:35:43.000Z</Time>
            <Position>
              <LatitudeDegrees>38.0541369505226612091064453125</LatitudeDegrees>
              <LongitudeDegrees>-1.16289728321135044097900390625</LongitudeDegrees>
            </Position>
            <AltitudeMeters>176.8000030517578125</AltitudeMeters>
            <DistanceMeters>NAN</DistanceMeters>
          </Trackpoint>
          <Trackpoint>
            <Time>2020-05-25T07:35:44.000Z</Time>
            <Position>
              <LatitudeDegrees>38.054074086248874664306640625</LatitudeDegrees>
              <LongitudeDegrees>-1.16293902508914470672607421875</LongitudeDegrees>
            </Position>
            <AltitudeMeters>176.8000030517578125</AltitudeMeters>
            <DistanceMeters>NAN</DistanceMeters>
          </Trackpoint>
          <Trackpoint>
            <Time>2020-05-25T07:35:45.000Z</Time>
            <Position>
              <LatitudeDegrees>38.05401130579411983489990234375</LatitudeDegrees>
              <LongitudeDegrees>-1.16297833621501922607421875</LongitudeDegrees>
            </Position>
            <AltitudeMeters>177</AltitudeMeters>
            <DistanceMeters>NAN</DistanceMeters>
          </Trackpoint>
          <Trackpoint>
            <Time>2020-05-25T07:35:46.000Z</Time>
            <Position>
              <LatitudeDegrees>38.05394810624420642852783203125</LatitudeDegrees>
              <LongitudeDegrees>-1.163017563521862030029296875</LongitudeDegrees>
            </Position>
            <AltitudeMeters>177</AltitudeMeters>
            <DistanceMeters>NAN</DistanceMeters>
          </Trackpoint>
          <Trackpoint>
            <Time>2020-05-25T07:35:47.000Z</Time>
            <Position>
              <LatitudeDegrees>38.05388624779880046844482421875</LatitudeDegrees>
              <LongitudeDegrees>-1.1630554497241973876953125</LongitudeDegrees>
            </Position>
            <AltitudeMeters>177</AltitudeMeters>
            <DistanceMeters>NAN</DistanceMeters>
          </Trackpoint>
          <Trackpoint>
            <Time>2020-05-25T07:35:48.000Z</Time>
            <Position>
              <LatitudeDegrees>38.0538227967917919158935546875</LatitudeDegrees>
              <LongitudeDegrees>-1.1630930006504058837890625</LongitudeDegrees>
            </Position>
            <AltitudeMeters>177</AltitudeMeters>
            <DistanceMeters>NAN</DistanceMeters>
          </Trackpoint>
          <Trackpoint>
            <Time>2020-05-25T07:35:49.000Z</Time>
            <Position>
              <LatitudeDegrees>38.05375917814671993255615234375</LatitudeDegrees>
              <LongitudeDegrees>-1.16312828846275806427001953125</LongitudeDegrees>
            </Position>
            <AltitudeMeters>177</AltitudeMeters>
            <DistanceMeters>NAN</DistanceMeters>
          </Trackpoint>
          <Trackpoint>
            <Time>2020-05-25T07:35:50.000Z</Time>
            <Position>
              <LatitudeDegrees>38.05369354784488677978515625</LatitudeDegrees>
              <LongitudeDegrees>-1.1631602235138416290283203125</LongitudeDegrees>
            </Position>
            <AltitudeMeters>177</AltitudeMeters>
            <DistanceMeters>NAN</DistanceMeters>
          </Trackpoint>
          <Trackpoint>
            <Time>2020-05-25T07:35:51.000Z</Time>
            <Position>
              <LatitudeDegrees>38.05362724699079990386962890625</LatitudeDegrees>
              <LongitudeDegrees>-1.16319266147911548614501953125</LongitudeDegrees>
            </Position>
            <AltitudeMeters>177</AltitudeMeters>
            <DistanceMeters>NAN</DistanceMeters>
          </Trackpoint>
          <Trackpoint>
            <Time>2020-05-25T07:35:52.000Z</Time>
            <Position>
              <LatitudeDegrees>38.05356186814606189727783203125</LatitudeDegrees>
              <LongitudeDegrees>-1.16322602145373821258544921875</LongitudeDegrees>
            </Position>
            <AltitudeMeters>177</AltitudeMeters>
            <DistanceMeters>NAN</DistanceMeters>
          </Trackpoint>
          <Trackpoint>
            <Time>2020-05-25T07:35:53.000Z</Time>
            <Position>
              <LatitudeDegrees>38.053498081862926483154296875</LatitudeDegrees>
              <LongitudeDegrees>-1.16325636394321918487548828125</LongitudeDegrees>
            </Position>
            <AltitudeMeters>177</AltitudeMeters>
            <DistanceMeters>NAN</DistanceMeters>
          </Trackpoint>
          <Trackpoint>
            <Time>2020-05-25T07:35:54.000Z</Time>
            <Position>
              <LatitudeDegrees>38.053435049951076507568359375</LatitudeDegrees>
              <LongitudeDegrees>-1.16328419186174869537353515625</LongitudeDegrees>
            </Position>
            <AltitudeMeters>177</AltitudeMeters>
            <DistanceMeters>NAN</DistanceMeters>
          </Trackpoint>
          <Trackpoint>
            <Time>2020-05-25T07:35:55.000Z</Time>
            <Position>
              <LatitudeDegrees>38.05337428115308284759521484375</LatitudeDegrees>
              <LongitudeDegrees>-1.16331067867577075958251953125</LongitudeDegrees>
            </Position>
            <AltitudeMeters>177.1999969482421875</AltitudeMeters>
            <DistanceMeters>NAN</DistanceMeters>
          </Trackpoint>
          <Trackpoint>
            <Time>2020-05-25T07:35:56.000Z</Time>
            <Position>
              <LatitudeDegrees>38.05331359617412090301513671875</LatitudeDegrees>
              <LongitudeDegrees>-1.16333599202334880828857421875</LongitudeDegrees>
            </Position>
            <AltitudeMeters>177.399993896484375</AltitudeMeters>
            <DistanceMeters>NAN</DistanceMeters>
          </Trackpoint>
          <Trackpoint>
            <Time>2020-05-25T07:35:57.000Z</Time>
            <Position>
              <LatitudeDegrees>38.053251989185810089111328125</LatitudeDegrees>
              <LongitudeDegrees>-1.16336046718060970306396484375</LongitudeDegrees>
            </Position>
            <AltitudeMeters>177.8000030517578125</AltitudeMeters>
            <DistanceMeters>NAN</DistanceMeters>
          </Trackpoint>
          <Trackpoint>
            <Time>2020-05-25T07:35:58.000Z</Time>
            <Position>
              <LatitudeDegrees>38.053189627826213836669921875</LatitudeDegrees>
              <LongitudeDegrees>-1.16338561289012432098388671875</LongitudeDegrees>
            </Position>
            <AltitudeMeters>178</AltitudeMeters>
            <DistanceMeters>NAN</DistanceMeters>
          </Trackpoint>
          <Trackpoint>
            <Time>2020-05-25T07:35:59.000Z</Time>
            <Position>
              <LatitudeDegrees>38.0531270988285541534423828125</LatitudeDegrees>
              <LongitudeDegrees>-1.16340857930481433868408203125</LongitudeDegrees>
            </Position>
            <AltitudeMeters>178.399993896484375</AltitudeMeters>
            <DistanceMeters>NAN</DistanceMeters>
          </Trackpoint>
          <Trackpoint>
            <Time>2020-05-25T07:36:00.000Z</Time>
            <Position>
              <LatitudeDegrees>38.0530644021928310394287109375</LatitudeDegrees>
              <LongitudeDegrees>-1.1634311266243457794189453125</LongitudeDegrees>
            </Position>
            <AltitudeMeters>178.600006103515625</AltitudeMeters>
            <DistanceMeters>NAN</DistanceMeters>
          </Trackpoint>
          <Trackpoint>
            <Time>2020-05-25T07:36:01.000Z</Time>
            <Position>
              <LatitudeDegrees>38.05300212465226650238037109375</LatitudeDegrees>
              <LongitudeDegrees>-1.16345367394387722015380859375</LongitudeDegrees>
            </Position>
            <AltitudeMeters>178.8000030517578125</AltitudeMeters>
            <DistanceMeters>NAN</DistanceMeters>
          </Trackpoint>
          <Trackpoint>
            <Time>2020-05-25T07:36:02.000Z</Time>
            <Position>
              <LatitudeDegrees>38.05294043384492397308349609375</LatitudeDegrees>
              <LongitudeDegrees>-1.16347462870180606842041015625</LongitudeDegrees>
            </Position>
            <AltitudeMeters>179</AltitudeMeters>
            <DistanceMeters>NAN</DistanceMeters>
          </Trackpoint>
          <Trackpoint>
            <Time>2020-05-25T07:36:03.000Z</Time>
            <Position>
              <LatitudeDegrees>38.0528783239424228668212890625</LatitudeDegrees>
              <LongitudeDegrees>-1.1634975112974643707275390625</LongitudeDegrees>
            </Position>
            <AltitudeMeters>179.1999969482421875</AltitudeMeters>
            <DistanceMeters>NAN</DistanceMeters>
          </Trackpoint>
          <Trackpoint>
            <Time>2020-05-25T07:36:04.000Z</Time>
            <Position>
              <LatitudeDegrees>38.05281738750636577606201171875</LatitudeDegrees>
              <LongitudeDegrees>-1.163517795503139495849609375</LongitudeDegrees>
            </Position>
            <AltitudeMeters>179.399993896484375</AltitudeMeters>
            <DistanceMeters>NAN</DistanceMeters>
          </Trackpoint>
          <Trackpoint>
            <Time>2020-05-25T07:36:05.000Z</Time>
            <Position>
              <LatitudeDegrees>38.052757792174816131591796875</LatitudeDegrees>
              <LongitudeDegrees>-1.1635404266417026519775390625</LongitudeDegrees>
            </Position>
            <AltitudeMeters>179.600006103515625</AltitudeMeters>
            <DistanceMeters>NAN</DistanceMeters>
          </Trackpoint>
          <Trackpoint>
            <Time>2020-05-25T07:36:06.000Z</Time>
            <Position>
              <LatitudeDegrees>38.05269735865294933319091796875</LatitudeDegrees>
              <LongitudeDegrees>-1.16356431506574153900146484375</LongitudeDegrees>
            </Position>
            <AltitudeMeters>179.8000030517578125</AltitudeMeters>
            <DistanceMeters>NAN</DistanceMeters>
          </Trackpoint>
          <Trackpoint>
            <Time>2020-05-25T07:36:07.000Z</Time>
            <Position>
              <LatitudeDegrees>38.052636086940765380859375</LatitudeDegrees>
              <LongitudeDegrees>-1.16358862258493900299072265625</LongitudeDegrees>
            </Position>
            <AltitudeMeters>180</AltitudeMeters>
            <DistanceMeters>NAN</DistanceMeters>
          </Trackpoint>
          <Trackpoint>
            <Time>2020-05-25T07:36:08.000Z</Time>
            <Position>
              <LatitudeDegrees>38.0525743961334228515625</LatitudeDegrees>
              <LongitudeDegrees>-1.16361401975154876708984375</LongitudeDegrees>
            </Position>
            <AltitudeMeters>180.1999969482421875</AltitudeMeters>
            <DistanceMeters>NAN</DistanceMeters>
          </Trackpoint>
          <Trackpoint>
            <Time>2020-05-25T07:36:09.000Z</Time>
            <Position>
              <LatitudeDegrees>38.0525125376880168914794921875</LatitudeDegrees>
              <LongitudeDegrees>-1.16363857872784137725830078125</LongitudeDegrees>
            </Position>
            <AltitudeMeters>180.399993896484375</AltitudeMeters>
            <DistanceMeters>NAN</DistanceMeters>
          </Trackpoint>
          <Trackpoint>
            <Time>2020-05-25T07:36:10.000Z</Time>
            <Position>
              <LatitudeDegrees>38.05245026014745235443115234375</LatitudeDegrees>
              <LongitudeDegrees>-1.1636638082563877105712890625</LongitudeDegrees>
            </Position>
            <AltitudeMeters>180.600006103515625</AltitudeMeters>
            <DistanceMeters>NAN</DistanceMeters>
          </Trackpoint>
          <Trackpoint>
            <Time>2020-05-25T07:36:11.000Z</Time>
            <Position>
              <LatitudeDegrees>38.05238840170204639434814453125</LatitudeDegrees>
              <LongitudeDegrees>-1.1636923067271709442138671875</LongitudeDegrees>
            </Position>
            <AltitudeMeters>180.8000030517578125</AltitudeMeters>
            <DistanceMeters>NAN</DistanceMeters>
          </Trackpoint>
          <Trackpoint>
            <Time>2020-05-25T07:36:12.000Z</Time>
            <Position>
              <LatitudeDegrees>38.05232696235179901123046875</LatitudeDegrees>
              <LongitudeDegrees>-1.1637179553508758544921875</LongitudeDegrees>
            </Position>
            <AltitudeMeters>181</AltitudeMeters>
            <DistanceMeters>NAN</DistanceMeters>
          </Trackpoint>
          <Trackpoint>
            <Time>2020-05-25T07:36:13.000Z</Time>
            <Position>
              <LatitudeDegrees>38.05226585827767848968505859375</LatitudeDegrees>
              <LongitudeDegrees>-1.1637472920119762420654296875</LongitudeDegrees>
            </Position>
            <AltitudeMeters>181.1999969482421875</AltitudeMeters>
            <DistanceMeters>NAN</DistanceMeters>
          </Trackpoint>
          <Trackpoint>
            <Time>2020-05-25T07:36:14.000Z</Time>
            <Position>
              <LatitudeDegrees>38.05220492184162139892578125</LatitudeDegrees>
              <LongitudeDegrees>-1.163780651986598968505859375</LongitudeDegrees>
            </Position>
            <AltitudeMeters>181.399993896484375</AltitudeMeters>
            <DistanceMeters>NAN</DistanceMeters>
          </Trackpoint>
          <Trackpoint>
            <Time>2020-05-25T07:36:15.000Z</Time>
            <Position>
              <LatitudeDegrees>38.05214365012943744659423828125</LatitudeDegrees>
              <LongitudeDegrees>-1.1638166941702365875244140625</LongitudeDegrees>
            </Position>
            <AltitudeMeters>181.600006103515625</AltitudeMeters>
            <DistanceMeters>NAN</DistanceMeters>
          </Trackpoint>
          <Trackpoint>
            <Time>2020-05-25T07:36:16.000Z</Time>
            <Position>
              <LatitudeDegrees>38.05208313278853893280029296875</LatitudeDegrees>
              <LongitudeDegrees>-1.16385231725871562957763671875</LongitudeDegrees>
            </Position>
            <AltitudeMeters>181.8000030517578125</AltitudeMeters>
            <DistanceMeters>NAN</DistanceMeters>
          </Trackpoint>
          <Trackpoint>
            <Time>2020-05-25T07:36:17.000Z</Time>
            <Position>
              <LatitudeDegrees>38.05202345363795757293701171875</LatitudeDegrees>
              <LongitudeDegrees>-1.16389028728008270263671875</LongitudeDegrees>
            </Position>
            <AltitudeMeters>182</AltitudeMeters>
            <DistanceMeters>NAN</DistanceMeters>
          </Trackpoint>
          <Trackpoint>
            <Time>2020-05-25T07:36:18.000Z</Time>
            <Position>
              <LatitudeDegrees>38.0519641935825347900390625</LatitudeDegrees>
              <LongitudeDegrees>-1.16392959840595722198486328125</LongitudeDegrees>
            </Position>
            <AltitudeMeters>182</AltitudeMeters>
            <DistanceMeters>NAN</DistanceMeters>
          </Trackpoint>
          <Trackpoint>
            <Time>2020-05-25T07:36:19.000Z</Time>
            <Position>
              <LatitudeDegrees>38.0519050173461437225341796875</LatitudeDegrees>
              <LongitudeDegrees>-1.16397150792181491851806640625</LongitudeDegrees>
            </Position>
            <AltitudeMeters>182.1999969482421875</AltitudeMeters>
            <DistanceMeters>NAN</DistanceMeters>
          </Trackpoint>
          <Trackpoint>
            <Time>2020-05-25T07:36:20.000Z</Time>
            <Position>
              <LatitudeDegrees>38.05184558965265750885009765625</LatitudeDegrees>
              <LongitudeDegrees>-1.16401341743767261505126953125</LongitudeDegrees>
            </Position>
            <AltitudeMeters>182.399993896484375</AltitudeMeters>
            <DistanceMeters>NAN</DistanceMeters>
          </Trackpoint>
          <Trackpoint>
            <Time>2020-05-25T07:36:21.000Z</Time>
            <Position>
              <LatitudeDegrees>38.05178507231175899505615234375</LatitudeDegrees>
              <LongitudeDegrees>-1.1640574224293231964111328125</LongitudeDegrees>
            </Position>
            <AltitudeMeters>182.399993896484375</AltitudeMeters>
            <DistanceMeters>NAN</DistanceMeters>
          </Trackpoint>
          <Trackpoint>
            <Time>2020-05-25T07:36:22.000Z</Time>
            <Position>
              <LatitudeDegrees>38.0517256446182727813720703125</LatitudeDegrees>
              <LongitudeDegrees>-1.16410084068775177001953125</LongitudeDegrees>
            </Position>
            <AltitudeMeters>182.600006103515625</AltitudeMeters>
            <DistanceMeters>NAN</DistanceMeters>
          </Trackpoint>
          <Trackpoint>
            <Time>2020-05-25T07:36:23.000Z</Time>
            <Position>
              <LatitudeDegrees>38.05166454054415225982666015625</LatitudeDegrees>
              <LongitudeDegrees>-1.1641466058790683746337890625</LongitudeDegrees>
            </Position>
            <AltitudeMeters>182.8000030517578125</AltitudeMeters>
            <DistanceMeters>NAN</DistanceMeters>
          </Trackpoint>
          <Trackpoint>
            <Time>2020-05-25T07:36:24.000Z</Time>
            <Position>
              <LatitudeDegrees>38.051603771746158599853515625</LatitudeDegrees>
              <LongitudeDegrees>-1.16419463418424129486083984375</LongitudeDegrees>
            </Position>
            <AltitudeMeters>183</AltitudeMeters>
            <DistanceMeters>NAN</DistanceMeters>
          </Trackpoint>
          <Trackpoint>
            <Time>2020-05-25T07:36:25.000Z</Time>
            <Position>
              <LatitudeDegrees>38.0515425838530063629150390625</LatitudeDegrees>
              <LongitudeDegrees>-1.16424257867038249969482421875</LongitudeDegrees>
            </Position>
            <AltitudeMeters>183.1999969482421875</AltitudeMeters>
            <DistanceMeters>NAN</DistanceMeters>
          </Trackpoint>
          <Trackpoint>
            <Time>2020-05-25T07:36:26.000Z</Time>
            <Position>
              <LatitudeDegrees>38.051479719579219818115234375</LatitudeDegrees>
              <LongitudeDegrees>-1.16429119370877742767333984375</LongitudeDegrees>
            </Position>
            <AltitudeMeters>183.399993896484375</AltitudeMeters>
            <DistanceMeters>NAN</DistanceMeters>
          </Trackpoint>
          <Trackpoint>
            <Time>2020-05-25T07:36:27.000Z</Time>
            <Position>
              <LatitudeDegrees>38.051416017115116119384765625</LatitudeDegrees>
              <LongitudeDegrees>-1.1643383838236331939697265625</LongitudeDegrees>
            </Position>
            <AltitudeMeters>183.600006103515625</AltitudeMeters>
            <DistanceMeters>NAN</DistanceMeters>
          </Trackpoint>
          <Trackpoint>
            <Time>2020-05-25T07:36:28.000Z</Time>
            <Position>
              <LatitudeDegrees>38.05135441012680530548095703125</LatitudeDegrees>
              <LongitudeDegrees>-1.16438289172947406768798828125</LongitudeDegrees>
            </Position>
            <AltitudeMeters>183.8000030517578125</AltitudeMeters>
            <DistanceMeters>NAN</DistanceMeters>
          </Trackpoint>
          <Trackpoint>
            <Time>2020-05-25T07:36:29.000Z</Time>
            <Position>
              <LatitudeDegrees>38.051292635500431060791015625</LatitudeDegrees>
              <LongitudeDegrees>-1.1644289083778858184814453125</LongitudeDegrees>
            </Position>
            <AltitudeMeters>184</AltitudeMeters>
            <DistanceMeters>NAN</DistanceMeters>
          </Trackpoint>
          <Trackpoint>
            <Time>2020-05-25T07:36:30.000Z</Time>
            <Position>
              <LatitudeDegrees>38.051230944693088531494140625</LatitudeDegrees>
              <LongitudeDegrees>-1.164474003016948699951171875</LongitudeDegrees>
            </Position>
            <AltitudeMeters>184.1999969482421875</AltitudeMeters>
            <DistanceMeters>NAN</DistanceMeters>
          </Trackpoint>
          <Trackpoint>
            <Time>2020-05-25T07:36:31.000Z</Time>
            <Position>
              <LatitudeDegrees>38.05116933770477771759033203125</LatitudeDegrees>
              <LongitudeDegrees>-1.16451867856085300445556640625</LongitudeDegrees>
            </Position>
            <AltitudeMeters>184.399993896484375</AltitudeMeters>
            <DistanceMeters>NAN</DistanceMeters>
          </Trackpoint>
          <Trackpoint>
            <Time>2020-05-25T07:36:32.000Z</Time>
            <Position>
              <LatitudeDegrees>38.05110697634518146514892578125</LatitudeDegrees>
              <LongitudeDegrees>-1.16456360556185245513916015625</LongitudeDegrees>
            </Position>
            <AltitudeMeters>184.600006103515625</AltitudeMeters>
            <DistanceMeters>NAN</DistanceMeters>
          </Trackpoint>
          <Trackpoint>
            <Time>2020-05-25T07:36:33.000Z</Time>
            <Position>
              <LatitudeDegrees>38.0510426871478557586669921875</LatitudeDegrees>
              <LongitudeDegrees>-1.16460953839123249053955078125</LongitudeDegrees>
            </Position>
            <AltitudeMeters>184.8000030517578125</AltitudeMeters>
            <DistanceMeters>NAN</DistanceMeters>
          </Trackpoint>
          <Trackpoint>
            <Time>2020-05-25T07:36:34.000Z</Time>
            <Position>
              <LatitudeDegrees>38.050976805388927459716796875</LatitudeDegrees>
              <LongitudeDegrees>-1.16465630941092967987060546875</LongitudeDegrees>
            </Position>
            <AltitudeMeters>185</AltitudeMeters>
            <DistanceMeters>NAN</DistanceMeters>
          </Trackpoint>
          <Trackpoint>
            <Time>2020-05-25T07:36:35.000Z</Time>
            <Position>
              <LatitudeDegrees>38.0509112589061260223388671875</LatitudeDegrees>
              <LongitudeDegrees>-1.1647028289735317230224609375</LongitudeDegrees>
            </Position>
            <AltitudeMeters>185</AltitudeMeters>
            <DistanceMeters>NAN</DistanceMeters>
          </Trackpoint>
          <Trackpoint>
            <Time>2020-05-25T07:36:36.000Z</Time>
            <Position>
              <LatitudeDegrees>38.05084378458559513092041015625</LatitudeDegrees>
              <LongitudeDegrees>-1.164748258888721466064453125</LongitudeDegrees>
            </Position>
            <AltitudeMeters>184.399993896484375</AltitudeMeters>
            <DistanceMeters>NAN</DistanceMeters>
          </Trackpoint>
          <Trackpoint>
            <Time>2020-05-25T07:36:37.000Z</Time>
            <Position>
              <LatitudeDegrees>38.05077404715120792388916015625</LatitudeDegrees>
              <LongitudeDegrees>-1.16479159332811832427978515625</LongitudeDegrees>
            </Position>
            <AltitudeMeters>183.8000030517578125</AltitudeMeters>
            <DistanceMeters>NAN</DistanceMeters>
          </Trackpoint>
          <Trackpoint>
            <Time>2020-05-25T07:36:38.000Z</Time>
            <Position>
              <LatitudeDegrees>38.05070229806005954742431640625</LatitudeDegrees>
              <LongitudeDegrees>-1.16483174264430999755859375</LongitudeDegrees>
            </Position>
            <AltitudeMeters>183.1999969482421875</AltitudeMeters>
            <DistanceMeters>NAN</DistanceMeters>
          </Trackpoint>
          <Trackpoint>
            <Time>2020-05-25T07:36:39.000Z</Time>
            <Position>
              <LatitudeDegrees>38.050629459321498870849609375</LatitudeDegrees>
              <LongitudeDegrees>-1.164869628846645355224609375</LongitudeDegrees>
            </Position>
            <AltitudeMeters>182.8000030517578125</AltitudeMeters>
            <DistanceMeters>NAN</DistanceMeters>
          </Trackpoint>
          <Trackpoint>
            <Time>2020-05-25T07:36:40.000Z</Time>
            <Position>
              <LatitudeDegrees>38.05055393837392330169677734375</LatitudeDegrees>
              <LongitudeDegrees>-1.164906509220600128173828125</LongitudeDegrees>
            </Position>
            <AltitudeMeters>182.1999969482421875</AltitudeMeters>
            <DistanceMeters>NAN</DistanceMeters>
          </Trackpoint>
          <Trackpoint>
            <Time>2020-05-25T07:36:41.000Z</Time>
            <Position>
              <LatitudeDegrees>38.05047749541699886322021484375</LatitudeDegrees>
              <LongitudeDegrees>-1.164941377937793731689453125</LongitudeDegrees>
            </Position>
            <AltitudeMeters>181.600006103515625</AltitudeMeters>
            <DistanceMeters>NAN</DistanceMeters>
          </Trackpoint>
          <Trackpoint>
            <Time>2020-05-25T07:36:42.000Z</Time>
            <Position>
              <LatitudeDegrees>38.05039845407009124755859375</LatitudeDegrees>
              <LongitudeDegrees>-1.16496962495148181915283203125</LongitudeDegrees>
            </Position>
            <AltitudeMeters>181</AltitudeMeters>
            <DistanceMeters>NAN</DistanceMeters>
          </Trackpoint>
          <Trackpoint>
            <Time>2020-05-25T07:36:43.000Z</Time>
            <Position>
              <LatitudeDegrees>38.05031673051416873931884765625</LatitudeDegrees>
              <LongitudeDegrees>-1.16499493829905986785888671875</LongitudeDegrees>
            </Position>
            <AltitudeMeters>180.399993896484375</AltitudeMeters>
            <DistanceMeters>NAN</DistanceMeters>
          </Trackpoint>
          <Trackpoint>
            <Time>2020-05-25T07:36:44.000Z</Time>
            <Position>
              <LatitudeDegrees>38.05023207329213619232177734375</LatitudeDegrees>
              <LongitudeDegrees>-1.165014468133449554443359375</LongitudeDegrees>
            </Position>
            <AltitudeMeters>179.8000030517578125</AltitudeMeters>
            <DistanceMeters>NAN</DistanceMeters>
          </Trackpoint>
          <Trackpoint>
            <Time>2020-05-25T07:36:45.000Z</Time>
            <Position>
              <LatitudeDegrees>38.05014624260365962982177734375</LatitudeDegrees>
              <LongitudeDegrees>-1.1650295555591583251953125</LongitudeDegrees>
            </Position>
            <AltitudeMeters>179</AltitudeMeters>
            <DistanceMeters>NAN</DistanceMeters>
          </Trackpoint>
          <Trackpoint>
            <Time>2020-05-25T07:36:46.000Z</Time>
            <Position>
              <LatitudeDegrees>38.0500596575438976287841796875</LatitudeDegrees>
              <LongitudeDegrees>-1.16503885947167873382568359375</LongitudeDegrees>
            </Position>
            <AltitudeMeters>178.600006103515625</AltitudeMeters>
            <DistanceMeters>NAN</DistanceMeters>
          </Trackpoint>
          <Trackpoint>
            <Time>2020-05-25T07:36:47.000Z</Time>
            <Position>
              <LatitudeDegrees>38.04997273720800876617431640625</LatitudeDegrees>
              <LongitudeDegrees>-1.165044642984867095947265625</LongitudeDegrees>
            </Position>
            <AltitudeMeters>178.600006103515625</AltitudeMeters>
            <DistanceMeters>NAN</DistanceMeters>
          </Trackpoint>
          <Trackpoint>
            <Time>2020-05-25T07:36:48.000Z</Time>
            <Position>
              <LatitudeDegrees>38.04988640360534191131591796875</LatitudeDegrees>
              <LongitudeDegrees>-1.165044642984867095947265625</LongitudeDegrees>
            </Position>
            <AltitudeMeters>178.600006103515625</AltitudeMeters>
            <DistanceMeters>NAN</DistanceMeters>
          </Trackpoint>
          <Trackpoint>
            <Time>2020-05-25T07:36:49.000Z</Time>
            <Position>
              <LatitudeDegrees>38.049800656735897064208984375</LatitudeDegrees>
              <LongitudeDegrees>-1.16504254750907421112060546875</LongitudeDegrees>
            </Position>
            <AltitudeMeters>178.600006103515625</AltitudeMeters>
            <DistanceMeters>NAN</DistanceMeters>
          </Trackpoint>
          <Trackpoint>
            <Time>2020-05-25T07:36:50.000Z</Time>
            <Position>
              <LatitudeDegrees>38.04971507750451564788818359375</LatitudeDegrees>
              <LongitudeDegrees>-1.1650374345481395721435546875</LongitudeDegrees>
            </Position>
            <AltitudeMeters>178.399993896484375</AltitudeMeters>
            <DistanceMeters>NAN</DistanceMeters>
          </Trackpoint>
          <Trackpoint>
            <Time>2020-05-25T07:36:51.000Z</Time>
            <Position>
              <LatitudeDegrees>38.04963000118732452392578125</LatitudeDegrees>
              <LongitudeDegrees>-1.1650268733501434326171875</LongitudeDegrees>
            </Position>
            <AltitudeMeters>178</AltitudeMeters>
            <DistanceMeters>NAN</DistanceMeters>
          </Trackpoint>
          <Trackpoint>
            <Time>2020-05-25T07:36:52.000Z</Time>
            <Position>
              <LatitudeDegrees>38.04954576306045055389404296875</LatitudeDegrees>
              <LongitudeDegrees>-1.165015138685703277587890625</LongitudeDegrees>
            </Position>
            <AltitudeMeters>177.8000030517578125</AltitudeMeters>
            <DistanceMeters>NAN</DistanceMeters>
          </Trackpoint>
          <Trackpoint>
            <Time>2020-05-25T07:36:53.000Z</Time>
            <Position>
              <LatitudeDegrees>38.04946026764810085296630859375</LatitudeDegrees>
              <LongitudeDegrees>-1.1650015600025653839111328125</LongitudeDegrees>
            </Position>
            <AltitudeMeters>177.600006103515625</AltitudeMeters>
            <DistanceMeters>NAN</DistanceMeters>
          </Trackpoint>
          <Trackpoint>
            <Time>2020-05-25T07:36:54.000Z</Time>
            <Position>
              <LatitudeDegrees>38.049374856054782867431640625</LatitudeDegrees>
              <LongitudeDegrees>-1.16498638875782489776611328125</LongitudeDegrees>
            </Position>
            <AltitudeMeters>177.1999969482421875</AltitudeMeters>
            <DistanceMeters>NAN</DistanceMeters>
          </Trackpoint>
          <Trackpoint>
            <Time>2020-05-25T07:36:55.000Z</Time>
            <Position>
              <LatitudeDegrees>38.0492895282804965972900390625</LatitudeDegrees>
              <LongitudeDegrees>-1.164968200027942657470703125</LongitudeDegrees>
            </Position>
            <AltitudeMeters>177</AltitudeMeters>
            <DistanceMeters>NAN</DistanceMeters>
          </Trackpoint>
          <Trackpoint>
            <Time>2020-05-25T07:36:56.000Z</Time>
            <Position>
              <LatitudeDegrees>38.04920478723943233489990234375</LatitudeDegrees>
              <LongitudeDegrees>-1.16495068185031414031982421875</LongitudeDegrees>
            </Position>
            <AltitudeMeters>176.600006103515625</AltitudeMeters>
            <DistanceMeters>NAN</DistanceMeters>
          </Trackpoint>
          <Trackpoint>
            <Time>2020-05-25T07:36:57.000Z</Time>
            <Position>
              <LatitudeDegrees>38.04911912418901920318603515625</LatitudeDegrees>
              <LongitudeDegrees>-1.164931990206241607666015625</LongitudeDegrees>
            </Position>
            <AltitudeMeters>176.1999969482421875</AltitudeMeters>
            <DistanceMeters>NAN</DistanceMeters>
          </Trackpoint>
          <Trackpoint>
            <Time>2020-05-25T07:36:58.000Z</Time>
            <Position>
              <LatitudeDegrees>38.04903396405279636383056640625</LatitudeDegrees>
              <LongitudeDegrees>-1.1649096943438053131103515625</LongitudeDegrees>
            </Position>
            <AltitudeMeters>175.600006103515625</AltitudeMeters>
            <DistanceMeters>NAN</DistanceMeters>
          </Trackpoint>
          <Trackpoint>
            <Time>2020-05-25T07:36:59.000Z</Time>
            <Position>
              <LatitudeDegrees>38.0489488877356052398681640625</LatitudeDegrees>
              <LongitudeDegrees>-1.1648868955671787261962890625</LongitudeDegrees>
            </Position>
            <AltitudeMeters>174.600006103515625</AltitudeMeters>
            <DistanceMeters>NAN</DistanceMeters>
          </Trackpoint>
          <Trackpoint>
            <Time>2020-05-25T07:37:00.000Z</Time>
            <Position>
              <LatitudeDegrees>38.048864901065826416015625</LatitudeDegrees>
              <LongitudeDegrees>-1.16486283950507640838623046875</LongitudeDegrees>
            </Position>
            <AltitudeMeters>173.8000030517578125</AltitudeMeters>
            <DistanceMeters>NAN</DistanceMeters>
          </Trackpoint>
          <Trackpoint>
            <Time>2020-05-25T07:37:01.000Z</Time>
            <Position>
              <LatitudeDegrees>38.04878242313861846923828125</LatitudeDegrees>
              <LongitudeDegrees>-1.164841465651988983154296875</LongitudeDegrees>
            </Position>
            <AltitudeMeters>173.1999969482421875</AltitudeMeters>
            <DistanceMeters>NAN</DistanceMeters>
          </Trackpoint>
          <Trackpoint>
            <Time>2020-05-25T07:37:02.000Z</Time>
            <Position>
              <LatitudeDegrees>38.04870120249688625335693359375</LatitudeDegrees>
              <LongitudeDegrees>-1.1648211814463138580322265625</LongitudeDegrees>
            </Position>
            <AltitudeMeters>172.399993896484375</AltitudeMeters>
            <DistanceMeters>NAN</DistanceMeters>
          </Trackpoint>
          <Trackpoint>
            <Time>2020-05-25T07:37:03.000Z</Time>
            <Position>
              <LatitudeDegrees>38.04862040095031261444091796875</LatitudeDegrees>
              <LongitudeDegrees>-1.1648030765354633331298828125</LongitudeDegrees>
            </Position>
            <AltitudeMeters>171.600006103515625</AltitudeMeters>
            <DistanceMeters>NAN</DistanceMeters>
          </Trackpoint>
          <Trackpoint>
            <Time>2020-05-25T07:37:04.000Z</Time>
            <Position>
              <LatitudeDegrees>38.04853993467986583709716796875</LatitudeDegrees>
              <LongitudeDegrees>-1.164787821471691131591796875</LongitudeDegrees>
            </Position>
            <AltitudeMeters>171</AltitudeMeters>
            <DistanceMeters>NAN</DistanceMeters>
          </Trackpoint>
          <Trackpoint>
            <Time>2020-05-25T07:37:05.000Z</Time>
            <Position>
              <LatitudeDegrees>38.04845997132360935211181640625</LatitudeDegrees>
              <LongitudeDegrees>-1.16477432660758495330810546875</LongitudeDegrees>
            </Position>
            <AltitudeMeters>170.1999969482421875</AltitudeMeters>
            <DistanceMeters>NAN</DistanceMeters>
          </Trackpoint>
          <Trackpoint>
            <Time>2020-05-25T07:37:06.000Z</Time>
            <Position>
              <LatitudeDegrees>38.04838067851960659027099609375</LatitudeDegrees>
              <LongitudeDegrees>-1.1647611670196056365966796875</LongitudeDegrees>
            </Position>
            <AltitudeMeters>169.600006103515625</AltitudeMeters>
            <DistanceMeters>NAN</DistanceMeters>
          </Trackpoint>
          <Trackpoint>
            <Time>2020-05-25T07:37:07.000Z</Time>
            <Position>
              <LatitudeDegrees>38.04830054752528667449951171875</LatitudeDegrees>
              <LongitudeDegrees>-1.1647507734596729278564453125</LongitudeDegrees>
            </Position>
            <AltitudeMeters>169</AltitudeMeters>
            <DistanceMeters>NAN</DistanceMeters>
          </Trackpoint>
          <Trackpoint>
            <Time>2020-05-25T07:37:08.000Z</Time>
            <Position>
              <LatitudeDegrees>38.0482213385403156280517578125</LatitudeDegrees>
              <LongitudeDegrees>-1.16474331356585025787353515625</LongitudeDegrees>
            </Position>
            <AltitudeMeters>168.399993896484375</AltitudeMeters>
            <DistanceMeters>NAN</DistanceMeters>
          </Trackpoint>
          <Trackpoint>
            <Time>2020-05-25T07:37:09.000Z</Time>
            <Position>
              <LatitudeDegrees>38.04814112372696399688720703125</LatitudeDegrees>
              <LongitudeDegrees>-1.164735853672027587890625</LongitudeDegrees>
            </Position>
            <AltitudeMeters>167.8000030517578125</AltitudeMeters>
            <DistanceMeters>NAN</DistanceMeters>
          </Trackpoint>
          <Trackpoint>
            <Time>2020-05-25T07:37:10.000Z</Time>
            <Position>
              <LatitudeDegrees>38.04806166328489780426025390625</LatitudeDegrees>
              <LongitudeDegrees>-1.1647291481494903564453125</LongitudeDegrees>
            </Position>
            <AltitudeMeters>167.1999969482421875</AltitudeMeters>
            <DistanceMeters>NAN</DistanceMeters>
          </Trackpoint>
          <Trackpoint>
            <Time>2020-05-25T07:37:11.000Z</Time>
            <Position>
              <LatitudeDegrees>38.0479789339005947113037109375</LatitudeDegrees>
              <LongitudeDegrees>-1.16472621448338031768798828125</LongitudeDegrees>
            </Position>
            <AltitudeMeters>166.600006103515625</AltitudeMeters>
            <DistanceMeters>NAN</DistanceMeters>
          </Trackpoint>
          <Trackpoint>
            <Time>2020-05-25T07:37:12.000Z</Time>
            <Position>
              <LatitudeDegrees>38.047896958887577056884765625</LatitudeDegrees>
              <LongitudeDegrees>-1.16472755558788776397705078125</LongitudeDegrees>
            </Position>
            <AltitudeMeters>166</AltitudeMeters>
            <DistanceMeters>NAN</DistanceMeters>
          </Trackpoint>
          <Trackpoint>
            <Time>2020-05-25T07:37:13.000Z</Time>
            <Position>
              <LatitudeDegrees>38.04781372658908367156982421875</LatitudeDegrees>
              <LongitudeDegrees>-1.1647309921681880950927734375</LongitudeDegrees>
            </Position>
            <AltitudeMeters>165.399993896484375</AltitudeMeters>
            <DistanceMeters>NAN</DistanceMeters>
          </Trackpoint>
          <Trackpoint>
            <Time>2020-05-25T07:37:14.000Z</Time>
            <Position>
              <LatitudeDegrees>38.04772940464317798614501953125</LatitudeDegrees>
              <LongitudeDegrees>-1.16473727859556674957275390625</LongitudeDegrees>
            </Position>
            <AltitudeMeters>164.8000030517578125</AltitudeMeters>
            <DistanceMeters>NAN</DistanceMeters>
          </Trackpoint>
          <Trackpoint>
            <Time>2020-05-25T07:37:15.000Z</Time>
            <Position>
              <LatitudeDegrees>38.0476443283259868621826171875</LatitudeDegrees>
              <LongitudeDegrees>-1.16474431939423084259033203125</LongitudeDegrees>
            </Position>
            <AltitudeMeters>164.399993896484375</AltitudeMeters>
            <DistanceMeters>NAN</DistanceMeters>
          </Trackpoint>
          <Trackpoint>
            <Time>2020-05-25T07:37:16.000Z</Time>
            <Position>
              <LatitudeDegrees>38.0475584976375102996826171875</LatitudeDegrees>
              <LongitudeDegrees>-1.1647551320493221282958984375</LongitudeDegrees>
            </Position>
            <AltitudeMeters>163.8000030517578125</AltitudeMeters>
            <DistanceMeters>NAN</DistanceMeters>
          </Trackpoint>
          <Trackpoint>
            <Time>2020-05-25T07:37:17.000Z</Time>
            <Position>
              <LatitudeDegrees>38.047472499310970306396484375</LatitudeDegrees>
              <LongitudeDegrees>-1.164768040180206298828125</LongitudeDegrees>
            </Position>
            <AltitudeMeters>163.8000030517578125</AltitudeMeters>
            <DistanceMeters>NAN</DistanceMeters>
          </Trackpoint>
          <Trackpoint>
            <Time>2020-05-25T07:37:18.000Z</Time>
            <Position>
              <LatitudeDegrees>38.04738624952733516693115234375</LatitudeDegrees>
              <LongitudeDegrees>-1.1647846363484859466552734375</LongitudeDegrees>
            </Position>
            <AltitudeMeters>163.600006103515625</AltitudeMeters>
            <DistanceMeters>NAN</DistanceMeters>
          </Trackpoint>
          <Trackpoint>
            <Time>2020-05-25T07:37:19.000Z</Time>
            <Position>
              <LatitudeDegrees>38.047299496829509735107421875</LatitudeDegrees>
              <LongitudeDegrees>-1.16480357944965362548828125</LongitudeDegrees>
            </Position>
            <AltitudeMeters>163.600006103515625</AltitudeMeters>
            <DistanceMeters>NAN</DistanceMeters>
          </Trackpoint>
          <Trackpoint>
            <Time>2020-05-25T07:37:20.000Z</Time>
            <Position>
              <LatitudeDegrees>38.047212325036525726318359375</LatitudeDegrees>
              <LongitudeDegrees>-1.164824701845645904541015625</LongitudeDegrees>
            </Position>
            <AltitudeMeters>163.600006103515625</AltitudeMeters>
            <DistanceMeters>NAN</DistanceMeters>
          </Trackpoint>
          <Trackpoint>
            <Time>2020-05-25T07:37:21.000Z</Time>
            <Position>
              <LatitudeDegrees>38.04712557233870029449462890625</LatitudeDegrees>
              <LongitudeDegrees>-1.1648490093648433685302734375</LongitudeDegrees>
            </Position>
            <AltitudeMeters>163.600006103515625</AltitudeMeters>
            <DistanceMeters>NAN</DistanceMeters>
          </Trackpoint>
          <Trackpoint>
            <Time>2020-05-25T07:37:22.000Z</Time>
            <Position>
              <LatitudeDegrees>38.04704057984054088592529296875</LatitudeDegrees>
              <LongitudeDegrees>-1.1648761667311191558837890625</LongitudeDegrees>
            </Position>
            <AltitudeMeters>163.600006103515625</AltitudeMeters>
            <DistanceMeters>NAN</DistanceMeters>
          </Trackpoint>
          <Trackpoint>
            <Time>2020-05-25T07:37:23.000Z</Time>
            <Position>
              <LatitudeDegrees>38.0469570122659206390380859375</LatitudeDegrees>
              <LongitudeDegrees>-1.16490424610674381256103515625</LongitudeDegrees>
            </Position>
            <AltitudeMeters>163.600006103515625</AltitudeMeters>
            <DistanceMeters>NAN</DistanceMeters>
          </Trackpoint>
          <Trackpoint>
            <Time>2020-05-25T07:37:24.000Z</Time>
            <Position>
              <LatitudeDegrees>38.04687545634806156158447265625</LatitudeDegrees>
              <LongitudeDegrees>-1.16493291221559047698974609375</LongitudeDegrees>
            </Position>
            <AltitudeMeters>163.8000030517578125</AltitudeMeters>
            <DistanceMeters>NAN</DistanceMeters>
          </Trackpoint>
          <Trackpoint>
            <Time>2020-05-25T07:37:25.000Z</Time>
            <Position>
              <LatitudeDegrees>38.046795241534709930419921875</LatitudeDegrees>
              <LongitudeDegrees>-1.1649626679718494415283203125</LongitudeDegrees>
            </Position>
            <AltitudeMeters>163.8000030517578125</AltitudeMeters>
            <DistanceMeters>NAN</DistanceMeters>
          </Trackpoint>
          <Trackpoint>
            <Time>2020-05-25T07:37:26.000Z</Time>
            <Position>
              <LatitudeDegrees>38.04671687074005603790283203125</LatitudeDegrees>
              <LongitudeDegrees>-1.16499192081391811370849609375</LongitudeDegrees>
            </Position>
            <AltitudeMeters>164</AltitudeMeters>
            <DistanceMeters>NAN</DistanceMeters>
          </Trackpoint>
          <Trackpoint>
            <Time>2020-05-25T07:37:27.000Z</Time>
            <Position>
              <LatitudeDegrees>38.04663992486894130706787109375</LatitudeDegrees>
              <LongitudeDegrees>-1.16502259857952594757080078125</LongitudeDegrees>
            </Position>
            <AltitudeMeters>164.1999969482421875</AltitudeMeters>
            <DistanceMeters>NAN</DistanceMeters>
          </Trackpoint>
          <Trackpoint>
            <Time>2020-05-25T07:37:28.000Z</Time>
            <Position>
              <LatitudeDegrees>38.04656381718814373016357421875</LatitudeDegrees>
              <LongitudeDegrees>-1.1650541983544826507568359375</LongitudeDegrees>
            </Position>
            <AltitudeMeters>164.399993896484375</AltitudeMeters>
            <DistanceMeters>NAN</DistanceMeters>
          </Trackpoint>
          <Trackpoint>
            <Time>2020-05-25T07:37:29.000Z</Time>
            <Position>
              <LatitudeDegrees>38.046488128602504730224609375</LatitudeDegrees>
              <LongitudeDegrees>-1.16508479230105876922607421875</LongitudeDegrees>
            </Position>
            <AltitudeMeters>164.600006103515625</AltitudeMeters>
            <DistanceMeters>NAN</DistanceMeters>
          </Trackpoint>
          <Trackpoint>
            <Time>2020-05-25T07:37:30.000Z</Time>
            <Position>
              <LatitudeDegrees>38.04641428403556346893310546875</LatitudeDegrees>
              <LongitudeDegrees>-1.165114380419254302978515625</LongitudeDegrees>
            </Position>
            <AltitudeMeters>164.8000030517578125</AltitudeMeters>
            <DistanceMeters>NAN</DistanceMeters>
          </Trackpoint>
          <Trackpoint>
            <Time>2020-05-25T07:37:31.000Z</Time>
            <Position>
              <LatitudeDegrees>38.04634161293506622314453125</LatitudeDegrees>
              <LongitudeDegrees>-1.165145225822925567626953125</LongitudeDegrees>
            </Position>
            <AltitudeMeters>165.1999969482421875</AltitudeMeters>
            <DistanceMeters>NAN</DistanceMeters>
          </Trackpoint>
          <Trackpoint>
            <Time>2020-05-25T07:37:32.000Z</Time>
            <Position>
              <LatitudeDegrees>38.046270869672298431396484375</LatitudeDegrees>
              <LongitudeDegrees>-1.16517263464629650115966796875</LongitudeDegrees>
            </Position>
            <AltitudeMeters>165.600006103515625</AltitudeMeters>
            <DistanceMeters>NAN</DistanceMeters>
          </Trackpoint>
          <Trackpoint>
            <Time>2020-05-25T07:37:33.000Z</Time>
            <Position>
              <LatitudeDegrees>38.04620155133306980133056640625</LatitudeDegrees>
              <LongitudeDegrees>-1.16519786417484283447265625</LongitudeDegrees>
            </Position>
            <AltitudeMeters>165.8000030517578125</AltitudeMeters>
            <DistanceMeters>NAN</DistanceMeters>
          </Trackpoint>
          <Trackpoint>
            <Time>2020-05-25T07:37:34.000Z</Time>
            <Position>
              <LatitudeDegrees>38.04613508284091949462890625</LatitudeDegrees>
              <LongitudeDegrees>-1.16522443480789661407470703125</LongitudeDegrees>
            </Position>
            <AltitudeMeters>166.1999969482421875</AltitudeMeters>
            <DistanceMeters>NAN</DistanceMeters>
          </Trackpoint>
          <Trackpoint>
            <Time>2020-05-25T07:37:35.000Z</Time>
            <Position>
              <LatitudeDegrees>38.046071045100688934326171875</LatitudeDegrees>
              <LongitudeDegrees>-1.16525360383093357086181640625</LongitudeDegrees>
            </Position>
            <AltitudeMeters>166.600006103515625</AltitudeMeters>
            <DistanceMeters>NAN</DistanceMeters>
          </Trackpoint>
          <Trackpoint>
            <Time>2020-05-25T07:37:36.000Z</Time>
            <Position>
              <LatitudeDegrees>38.0460091866552829742431640625</LatitudeDegrees>
              <LongitudeDegrees>-1.165280677378177642822265625</LongitudeDegrees>
            </Position>
            <AltitudeMeters>166.8000030517578125</AltitudeMeters>
            <DistanceMeters>NAN</DistanceMeters>
          </Trackpoint>
          <Trackpoint>
            <Time>2020-05-25T07:37:37.000Z</Time>
            <Position>
              <LatitudeDegrees>38.04594757966697216033935546875</LatitudeDegrees>
              <LongitudeDegrees>-1.16530573926866054534912109375</LongitudeDegrees>
            </Position>
            <AltitudeMeters>167.1999969482421875</AltitudeMeters>
            <DistanceMeters>NAN</DistanceMeters>
          </Trackpoint>
          <Trackpoint>
            <Time>2020-05-25T07:37:38.000Z</Time>
            <Position>
              <LatitudeDegrees>38.04588689468801021575927734375</LatitudeDegrees>
              <LongitudeDegrees>-1.16533122025430202484130859375</LongitudeDegrees>
            </Position>
            <AltitudeMeters>167.1999969482421875</AltitudeMeters>
            <DistanceMeters>NAN</DistanceMeters>
          </Trackpoint>
          <Trackpoint>
            <Time>2020-05-25T07:37:39.000Z</Time>
            <Position>
              <LatitudeDegrees>38.04582788608968257904052734375</LatitudeDegrees>
              <LongitudeDegrees>-1.165356449782848358154296875</LongitudeDegrees>
            </Position>
            <AltitudeMeters>167.1999969482421875</AltitudeMeters>
            <DistanceMeters>NAN</DistanceMeters>
          </Trackpoint>
          <Trackpoint>
            <Time>2020-05-25T07:37:40.000Z</Time>
            <Position>
              <LatitudeDegrees>38.045769631862640380859375</LatitudeDegrees>
              <LongitudeDegrees>-1.16538084112107753753662109375</LongitudeDegrees>
            </Position>
            <AltitudeMeters>167.1999969482421875</AltitudeMeters>
            <DistanceMeters>NAN</DistanceMeters>
          </Trackpoint>
          <Trackpoint>
            <Time>2020-05-25T07:37:41.000Z</Time>
            <Position>
              <LatitudeDegrees>38.045711629092693328857421875</LatitudeDegrees>
              <LongitudeDegrees>-1.16540296934545040130615234375</LongitudeDegrees>
            </Position>
            <AltitudeMeters>167.1999969482421875</AltitudeMeters>
            <DistanceMeters>NAN</DistanceMeters>
          </Trackpoint>
          <Trackpoint>
            <Time>2020-05-25T07:37:42.000Z</Time>
            <Position>
              <LatitudeDegrees>38.04565320722758769989013671875</LatitudeDegrees>
              <LongitudeDegrees>-1.165425516664981842041015625</LongitudeDegrees>
            </Position>
            <AltitudeMeters>167.1999969482421875</AltitudeMeters>
            <DistanceMeters>NAN</DistanceMeters>
          </Trackpoint>
          <Trackpoint>
            <Time>2020-05-25T07:37:43.000Z</Time>
            <Position>
              <LatitudeDegrees>38.04559520445764064788818359375</LatitudeDegrees>
              <LongitudeDegrees>-1.1654479801654815673828125</LongitudeDegrees>
            </Position>
            <AltitudeMeters>167.1999969482421875</AltitudeMeters>
            <DistanceMeters>NAN</DistanceMeters>
          </Trackpoint>
          <Trackpoint>
            <Time>2020-05-25T07:37:44.000Z</Time>
            <Position>
              <LatitudeDegrees>38.0455381236970424652099609375</LatitudeDegrees>
              <LongitudeDegrees>-1.16547086276113986968994140625</LongitudeDegrees>
            </Position>
            <AltitudeMeters>167.1999969482421875</AltitudeMeters>
            <DistanceMeters>NAN</DistanceMeters>
          </Trackpoint>
          <Trackpoint>
            <Time>2020-05-25T07:37:45.000Z</Time>
            <Position>
              <LatitudeDegrees>38.0454807914793491363525390625</LatitudeDegrees>
              <LongitudeDegrees>-1.1654920689761638641357421875</LongitudeDegrees>
            </Position>
            <AltitudeMeters>167.1999969482421875</AltitudeMeters>
            <DistanceMeters>NAN</DistanceMeters>
          </Trackpoint>
          <Trackpoint>
            <Time>2020-05-25T07:37:46.000Z</Time>
            <Position>
              <LatitudeDegrees>38.045423962175846099853515625</LatitudeDegrees>
              <LongitudeDegrees>-1.16551193408668041229248046875</LongitudeDegrees>
            </Position>
            <AltitudeMeters>167.1999969482421875</AltitudeMeters>
            <DistanceMeters>NAN</DistanceMeters>
          </Trackpoint>
          <Trackpoint>
            <Time>2020-05-25T07:37:47.000Z</Time>
            <Position>
              <LatitudeDegrees>38.0453684739768505096435546875</LatitudeDegrees>
              <LongitudeDegrees>-1.165532805025577545166015625</LongitudeDegrees>
            </Position>
            <AltitudeMeters>167.1999969482421875</AltitudeMeters>
            <DistanceMeters>NAN</DistanceMeters>
          </Trackpoint>
          <Trackpoint>
            <Time>2020-05-25T07:37:48.000Z</Time>
            <Position>
              <LatitudeDegrees>38.045315332710742950439453125</LatitudeDegrees>
              <LongitudeDegrees>-1.165554933249950408935546875</LongitudeDegrees>
            </Position>
            <AltitudeMeters>167.1999969482421875</AltitudeMeters>
            <DistanceMeters>NAN</DistanceMeters>
          </Trackpoint>
          <Trackpoint>
            <Time>2020-05-25T07:37:49.000Z</Time>
            <Position>
              <LatitudeDegrees>38.04526043124496936798095703125</LatitudeDegrees>
              <LongitudeDegrees>-1.1655778996646404266357421875</LongitudeDegrees>
            </Position>
            <AltitudeMeters>167.1999969482421875</AltitudeMeters>
            <DistanceMeters>NAN</DistanceMeters>
          </Trackpoint>
          <Trackpoint>
            <Time>2020-05-25T07:37:50.000Z</Time>
            <Position>
              <LatitudeDegrees>38.04520695470273494720458984375</LatitudeDegrees>
              <LongitudeDegrees>-1.16559944115579128265380859375</LongitudeDegrees>
            </Position>
            <AltitudeMeters>167.1999969482421875</AltitudeMeters>
            <DistanceMeters>NAN</DistanceMeters>
          </Trackpoint>
          <Trackpoint>
            <Time>2020-05-25T07:37:51.000Z</Time>
            <Position>
              <LatitudeDegrees>38.04515347816050052642822265625</LatitudeDegrees>
              <LongitudeDegrees>-1.1656196415424346923828125</LongitudeDegrees>
            </Position>
            <AltitudeMeters>167.1999969482421875</AltitudeMeters>
            <DistanceMeters>NAN</DistanceMeters>
          </Trackpoint>
          <Trackpoint>
            <Time>2020-05-25T07:37:52.000Z</Time>
            <Position>
              <LatitudeDegrees>38.0451002530753612518310546875</LatitudeDegrees>
              <LongitudeDegrees>-1.165640093386173248291015625</LongitudeDegrees>
            </Position>
            <AltitudeMeters>167</AltitudeMeters>
            <DistanceMeters>NAN</DistanceMeters>
          </Trackpoint>
          <Trackpoint>
            <Time>2020-05-25T07:37:53.000Z</Time>
            <Position>
              <LatitudeDegrees>38.04504736326634883880615234375</LatitudeDegrees>
              <LongitudeDegrees>-1.16566062904894351959228515625</LongitudeDegrees>
            </Position>
            <AltitudeMeters>167</AltitudeMeters>
            <DistanceMeters>NAN</DistanceMeters>
          </Trackpoint>
          <Trackpoint>
            <Time>2020-05-25T07:37:54.000Z</Time>
            <Position>
              <LatitudeDegrees>38.04499355144798755645751953125</LatitudeDegrees>
              <LongitudeDegrees>-1.16568124853074550628662109375</LongitudeDegrees>
            </Position>
            <AltitudeMeters>166.8000030517578125</AltitudeMeters>
            <DistanceMeters>NAN</DistanceMeters>
          </Trackpoint>
          <Trackpoint>
            <Time>2020-05-25T07:37:55.000Z</Time>
            <Position>
              <LatitudeDegrees>38.04493923671543598175048828125</LatitudeDegrees>
              <LongitudeDegrees>-1.1657009460031986236572265625</LongitudeDegrees>
            </Position>
            <AltitudeMeters>166.8000030517578125</AltitudeMeters>
            <DistanceMeters>NAN</DistanceMeters>
          </Trackpoint>
          <Trackpoint>
            <Time>2020-05-25T07:37:56.000Z</Time>
            <Position>
              <LatitudeDegrees>38.04488425143063068389892578125</LatitudeDegrees>
              <LongitudeDegrees>-1.16572030819952487945556640625</LongitudeDegrees>
            </Position>
            <AltitudeMeters>166.8000030517578125</AltitudeMeters>
            <DistanceMeters>NAN</DistanceMeters>
          </Trackpoint>
          <Trackpoint>
            <Time>2020-05-25T07:37:57.000Z</Time>
            <Position>
              <LatitudeDegrees>38.04482909850776195526123046875</LatitudeDegrees>
              <LongitudeDegrees>-1.165738999843597412109375</LongitudeDegrees>
            </Position>
            <AltitudeMeters>166.8000030517578125</AltitudeMeters>
            <DistanceMeters>NAN</DistanceMeters>
          </Trackpoint>
          <Trackpoint>
            <Time>2020-05-25T07:37:58.000Z</Time>
            <Position>
              <LatitudeDegrees>38.0447726882994174957275390625</LatitudeDegrees>
              <LongitudeDegrees>-1.16575836203992366790771484375</LongitudeDegrees>
            </Position>
            <AltitudeMeters>166.8000030517578125</AltitudeMeters>
            <DistanceMeters>NAN</DistanceMeters>
          </Trackpoint>
          <Trackpoint>
            <Time>2020-05-25T07:37:59.000Z</Time>
            <Position>
              <LatitudeDegrees>38.04471879266202449798583984375</LatitudeDegrees>
              <LongitudeDegrees>-1.1657747067511081695556640625</LongitudeDegrees>
            </Position>
            <AltitudeMeters>166.8000030517578125</AltitudeMeters>
            <DistanceMeters>NAN</DistanceMeters>
          </Trackpoint>
          <Trackpoint>
            <Time>2020-05-25T07:38:00.000Z</Time>
            <Position>
              <LatitudeDegrees>38.04466196335852146148681640625</LatitudeDegrees>
              <LongitudeDegrees>-1.16578920744359493255615234375</LongitudeDegrees>
            </Position>
            <AltitudeMeters>166.8000030517578125</AltitudeMeters>
            <DistanceMeters>NAN</DistanceMeters>
          </Trackpoint>
          <Trackpoint>
            <Time>2020-05-25T07:38:01.000Z</Time>
            <Position>
              <LatitudeDegrees>38.04460329003632068634033203125</LatitudeDegrees>
              <LongitudeDegrees>-1.16580530069768428802490234375</LongitudeDegrees>
            </Position>
            <AltitudeMeters>166.8000030517578125</AltitudeMeters>
            <DistanceMeters>NAN</DistanceMeters>
          </Trackpoint>
          <Trackpoint>
            <Time>2020-05-25T07:38:02.000Z</Time>
            <Position>
              <LatitudeDegrees>38.0445440299808979034423828125</LatitudeDegrees>
              <LongitudeDegrees>-1.1658213101327419281005859375</LongitudeDegrees>
            </Position>
            <AltitudeMeters>166.8000030517578125</AltitudeMeters>
            <DistanceMeters>NAN</DistanceMeters>
          </Trackpoint>
          <Trackpoint>
            <Time>2020-05-25T07:38:03.000Z</Time>
            <Position>
              <LatitudeDegrees>38.04448275826871395111083984375</LatitudeDegrees>
              <LongitudeDegrees>-1.165835559368133544921875</LongitudeDegrees>
            </Position>
            <AltitudeMeters>167</AltitudeMeters>
            <DistanceMeters>NAN</DistanceMeters>
          </Trackpoint>
          <Trackpoint>
            <Time>2020-05-25T07:38:04.000Z</Time>
            <Position>
              <LatitudeDegrees>38.044420145452022552490234375</LatitudeDegrees>
              <LongitudeDegrees>-1.16584821604192256927490234375</LongitudeDegrees>
            </Position>
            <AltitudeMeters>167</AltitudeMeters>
            <DistanceMeters>NAN</DistanceMeters>
          </Trackpoint>
          <Trackpoint>
            <Time>2020-05-25T07:38:05.000Z</Time>
            <Position>
              <LatitudeDegrees>38.04435753263533115386962890625</LatitudeDegrees>
              <LongitudeDegrees>-1.1658568494021892547607421875</LongitudeDegrees>
            </Position>
            <AltitudeMeters>167</AltitudeMeters>
            <DistanceMeters>NAN</DistanceMeters>
          </Trackpoint>
          <Trackpoint>
            <Time>2020-05-25T07:38:06.000Z</Time>
            <Position>
              <LatitudeDegrees>38.04429248906672000885009765625</LatitudeDegrees>
              <LongitudeDegrees>-1.1658645607531070709228515625</LongitudeDegrees>
            </Position>
            <AltitudeMeters>167</AltitudeMeters>
            <DistanceMeters>NAN</DistanceMeters>
          </Trackpoint>
          <Trackpoint>
            <Time>2020-05-25T07:38:07.000Z</Time>
            <Position>
              <LatitudeDegrees>38.04422677494585514068603515625</LatitudeDegrees>
              <LongitudeDegrees>-1.16587101481854915618896484375</LongitudeDegrees>
            </Position>
            <AltitudeMeters>167</AltitudeMeters>
            <DistanceMeters>NAN</DistanceMeters>
          </Trackpoint>
          <Trackpoint>
            <Time>2020-05-25T07:38:08.000Z</Time>
            <Position>
              <LatitudeDegrees>38.044159300625324249267578125</LatitudeDegrees>
              <LongitudeDegrees>-1.1658752895891666412353515625</LongitudeDegrees>
            </Position>
            <AltitudeMeters>167.1999969482421875</AltitudeMeters>
            <DistanceMeters>NAN</DistanceMeters>
          </Trackpoint>
          <Trackpoint>
            <Time>2020-05-25T07:38:09.000Z</Time>
            <Position>
              <LatitudeDegrees>38.0440914072096347808837890625</LatitudeDegrees>
              <LongitudeDegrees>-1.1658776365220546722412109375</LongitudeDegrees>
            </Position>
            <AltitudeMeters>167.1999969482421875</AltitudeMeters>
            <DistanceMeters>NAN</DistanceMeters>
          </Trackpoint>
          <Trackpoint>
            <Time>2020-05-25T07:38:10.000Z</Time>
            <Position>
              <LatitudeDegrees>38.044021166861057281494140625</LatitudeDegrees>
              <LongitudeDegrees>-1.16587788797914981842041015625</LongitudeDegrees>
            </Position>
            <AltitudeMeters>167.399993896484375</AltitudeMeters>
            <DistanceMeters>NAN</DistanceMeters>
          </Trackpoint>
          <Trackpoint>
            <Time>2020-05-25T07:38:11.000Z</Time>
            <Position>
              <LatitudeDegrees>38.04394983686506748199462890625</LatitudeDegrees>
              <LongitudeDegrees>-1.16587579250335693359375</LongitudeDegrees>
            </Position>
            <AltitudeMeters>167.399993896484375</AltitudeMeters>
            <DistanceMeters>NAN</DistanceMeters>
          </Trackpoint>
          <Trackpoint>
            <Time>2020-05-25T07:38:12.000Z</Time>
            <Position>
              <LatitudeDegrees>38.04387641139328479766845703125</LatitudeDegrees>
              <LongitudeDegrees>-1.16587243974208831787109375</LongitudeDegrees>
            </Position>
            <AltitudeMeters>167.600006103515625</AltitudeMeters>
            <DistanceMeters>NAN</DistanceMeters>
          </Trackpoint>
          <Trackpoint>
            <Time>2020-05-25T07:38:13.000Z</Time>
            <Position>
              <LatitudeDegrees>38.04380214773118495941162109375</LatitudeDegrees>
              <LongitudeDegrees>-1.1658675782382488250732421875</LongitudeDegrees>
            </Position>
            <AltitudeMeters>167.600006103515625</AltitudeMeters>
            <DistanceMeters>NAN</DistanceMeters>
          </Trackpoint>
          <Trackpoint>
            <Time>2020-05-25T07:38:14.000Z</Time>
            <Position>
              <LatitudeDegrees>38.04372704587876796722412109375</LatitudeDegrees>
              <LongitudeDegrees>-1.16585911251604557037353515625</LongitudeDegrees>
            </Position>
            <AltitudeMeters>167.8000030517578125</AltitudeMeters>
            <DistanceMeters>NAN</DistanceMeters>
          </Trackpoint>
          <Trackpoint>
            <Time>2020-05-25T07:38:15.000Z</Time>
            <Position>
              <LatitudeDegrees>38.04365043528378009796142578125</LatitudeDegrees>
              <LongitudeDegrees>-1.16584653966128826141357421875</LongitudeDegrees>
            </Position>
            <AltitudeMeters>167.8000030517578125</AltitudeMeters>
            <DistanceMeters>NAN</DistanceMeters>
          </Trackpoint>
          <Trackpoint>
            <Time>2020-05-25T07:38:16.000Z</Time>
            <Position>
              <LatitudeDegrees>38.04357198067009449005126953125</LatitudeDegrees>
              <LongitudeDegrees>-1.16583061404526233673095703125</LongitudeDegrees>
            </Position>
            <AltitudeMeters>168</AltitudeMeters>
            <DistanceMeters>NAN</DistanceMeters>
          </Trackpoint>
          <Trackpoint>
            <Time>2020-05-25T07:38:17.000Z</Time>
            <Position>
              <LatitudeDegrees>38.04349117912352085113525390625</LatitudeDegrees>
              <LongitudeDegrees>-1.16581141948699951171875</LongitudeDegrees>
            </Position>
            <AltitudeMeters>168.1999969482421875</AltitudeMeters>
            <DistanceMeters>NAN</DistanceMeters>
          </Trackpoint>
          <Trackpoint>
            <Time>2020-05-25T07:38:18.000Z</Time>
            <Position>
              <LatitudeDegrees>38.04340870119631290435791015625</LatitudeDegrees>
              <LongitudeDegrees>-1.16578920744359493255615234375</LongitudeDegrees>
            </Position>
            <AltitudeMeters>168.1999969482421875</AltitudeMeters>
            <DistanceMeters>NAN</DistanceMeters>
          </Trackpoint>
          <Trackpoint>
            <Time>2020-05-25T07:38:19.000Z</Time>
            <Position>
              <LatitudeDegrees>38.04332370869815349578857421875</LatitudeDegrees>
              <LongitudeDegrees>-1.1657629720866680145263671875</LongitudeDegrees>
            </Position>
            <AltitudeMeters>167.8000030517578125</AltitudeMeters>
            <DistanceMeters>NAN</DistanceMeters>
          </Trackpoint>
          <Trackpoint>
            <Time>2020-05-25T07:38:20.000Z</Time>
            <Position>
              <LatitudeDegrees>38.04323703981935977935791015625</LatitudeDegrees>
              <LongitudeDegrees>-1.16573271341621875762939453125</LongitudeDegrees>
            </Position>
            <AltitudeMeters>167</AltitudeMeters>
            <DistanceMeters>NAN</DistanceMeters>
          </Trackpoint>
          <Trackpoint>
            <Time>2020-05-25T07:38:21.000Z</Time>
            <Position>
              <LatitudeDegrees>38.04314651526510715484619140625</LatitudeDegrees>
              <LongitudeDegrees>-1.1656975932419300079345703125</LongitudeDegrees>
            </Position>
            <AltitudeMeters>166.1999969482421875</AltitudeMeters>
            <DistanceMeters>NAN</DistanceMeters>
          </Trackpoint>
          <Trackpoint>
            <Time>2020-05-25T07:38:22.000Z</Time>
            <Position>
              <LatitudeDegrees>38.0430503748357295989990234375</LatitudeDegrees>
              <LongitudeDegrees>-1.1656600423157215118408203125</LongitudeDegrees>
            </Position>
            <AltitudeMeters>165.399993896484375</AltitudeMeters>
            <DistanceMeters>NAN</DistanceMeters>
          </Trackpoint>
          <Trackpoint>
            <Time>2020-05-25T07:38:23.000Z</Time>
            <Position>
              <LatitudeDegrees>38.04295138455927371978759765625</LatitudeDegrees>
              <LongitudeDegrees>-1.16561989299952983856201171875</LongitudeDegrees>
            </Position>
            <AltitudeMeters>164.399993896484375</AltitudeMeters>
            <DistanceMeters>NAN</DistanceMeters>
          </Trackpoint>
          <Trackpoint>
            <Time>2020-05-25T07:38:24.000Z</Time>
            <Position>
              <LatitudeDegrees>38.0428482033312320709228515625</LatitudeDegrees>
              <LongitudeDegrees>-1.16557932458817958831787109375</LongitudeDegrees>
            </Position>
            <AltitudeMeters>163.399993896484375</AltitudeMeters>
            <DistanceMeters>NAN</DistanceMeters>
          </Trackpoint>
          <Trackpoint>
            <Time>2020-05-25T07:38:25.000Z</Time>
            <Position>
              <LatitudeDegrees>38.042740412056446075439453125</LatitudeDegrees>
              <LongitudeDegrees>-1.16553674452006816864013671875</LongitudeDegrees>
            </Position>
            <AltitudeMeters>162.399993896484375</AltitudeMeters>
            <DistanceMeters>NAN</DistanceMeters>
          </Trackpoint>
          <Trackpoint>
            <Time>2020-05-25T07:38:26.000Z</Time>
            <Position>
              <LatitudeDegrees>38.04262918420135974884033203125</LatitudeDegrees>
              <LongitudeDegrees>-1.165491230785846710205078125</LongitudeDegrees>
            </Position>
            <AltitudeMeters>161.1999969482421875</AltitudeMeters>
            <DistanceMeters>NAN</DistanceMeters>
          </Trackpoint>
          <Trackpoint>
            <Time>2020-05-25T07:38:27.000Z</Time>
            <Position>
              <LatitudeDegrees>38.042513094842433929443359375</LatitudeDegrees>
              <LongitudeDegrees>-1.16544471122324466705322265625</LongitudeDegrees>
            </Position>
            <AltitudeMeters>160</AltitudeMeters>
            <DistanceMeters>NAN</DistanceMeters>
          </Trackpoint>
          <Trackpoint>
            <Time>2020-05-25T07:38:28.000Z</Time>
            <Position>
              <LatitudeDegrees>38.0423939041793346405029296875</LatitudeDegrees>
              <LongitudeDegrees>-1.1653975211083889007568359375</LongitudeDegrees>
            </Position>
            <AltitudeMeters>158.8000030517578125</AltitudeMeters>
            <DistanceMeters>NAN</DistanceMeters>
          </Trackpoint>
          <Trackpoint>
            <Time>2020-05-25T07:38:29.000Z</Time>
            <Position>
              <LatitudeDegrees>38.042273037135601043701171875</LatitudeDegrees>
              <LongitudeDegrees>-1.16534831933677196502685546875</LongitudeDegrees>
            </Position>
            <AltitudeMeters>157.600006103515625</AltitudeMeters>
            <DistanceMeters>NAN</DistanceMeters>
          </Trackpoint>
          <Trackpoint>
            <Time>2020-05-25T07:38:30.000Z</Time>
            <Position>
              <LatitudeDegrees>38.0421491526067256927490234375</LatitudeDegrees>
              <LongitudeDegrees>-1.16529635153710842132568359375</LongitudeDegrees>
            </Position>
            <AltitudeMeters>156.399993896484375</AltitudeMeters>
            <DistanceMeters>NAN</DistanceMeters>
          </Trackpoint>
          <Trackpoint>
            <Time>2020-05-25T07:38:31.000Z</Time>
            <Position>
              <LatitudeDegrees>38.04202501662075519561767578125</LatitudeDegrees>
              <LongitudeDegrees>-1.1652449704706668853759765625</LongitudeDegrees>
            </Position>
            <AltitudeMeters>154.8000030517578125</AltitudeMeters>
            <DistanceMeters>NAN</DistanceMeters>
          </Trackpoint>
          <Trackpoint>
            <Time>2020-05-25T07:38:32.000Z</Time>
            <Position>
              <LatitudeDegrees>38.04189945571124553680419921875</LatitudeDegrees>
              <LongitudeDegrees>-1.16519258357584476470947265625</LongitudeDegrees>
            </Position>
            <AltitudeMeters>153.1999969482421875</AltitudeMeters>
            <DistanceMeters>NAN</DistanceMeters>
          </Trackpoint>
          <Trackpoint>
            <Time>2020-05-25T07:38:33.000Z</Time>
            <Position>
              <LatitudeDegrees>38.04177121259272098541259765625</LatitudeDegrees>
              <LongitudeDegrees>-1.1651373468339443206787109375</LongitudeDegrees>
            </Position>
            <AltitudeMeters>151.399993896484375</AltitudeMeters>
            <DistanceMeters>NAN</DistanceMeters>
          </Trackpoint>
          <Trackpoint>
            <Time>2020-05-25T07:38:34.000Z</Time>
            <Position>
              <LatitudeDegrees>38.04164079017937183380126953125</LatitudeDegrees>
              <LongitudeDegrees>-1.1650810204446315765380859375</LongitudeDegrees>
            </Position>
            <AltitudeMeters>150.1999969482421875</AltitudeMeters>
            <DistanceMeters>NAN</DistanceMeters>
          </Trackpoint>
          <Trackpoint>
            <Time>2020-05-25T07:38:35.000Z</Time>
            <Position>
              <LatitudeDegrees>38.0415081046521663665771484375</LatitudeDegrees>
              <LongitudeDegrees>-1.1650270409882068634033203125</LongitudeDegrees>
            </Position>
            <AltitudeMeters>148.8000030517578125</AltitudeMeters>
            <DistanceMeters>NAN</DistanceMeters>
          </Trackpoint>
          <Trackpoint>
            <Time>2020-05-25T07:38:36.000Z</Time>
            <Position>
              <LatitudeDegrees>38.04137575440108776092529296875</LatitudeDegrees>
              <LongitudeDegrees>-1.16497599519789218902587890625</LongitudeDegrees>
            </Position>
            <AltitudeMeters>147.1999969482421875</AltitudeMeters>
            <DistanceMeters>NAN</DistanceMeters>
          </Trackpoint>
          <Trackpoint>
            <Time>2020-05-25T07:38:37.000Z</Time>
            <Position>
              <LatitudeDegrees>38.041247762739658355712890625</LatitudeDegrees>
              <LongitudeDegrees>-1.16492520086467266082763671875</LongitudeDegrees>
            </Position>
            <AltitudeMeters>145.8000030517578125</AltitudeMeters>
            <DistanceMeters>NAN</DistanceMeters>
          </Trackpoint>
          <Trackpoint>
            <Time>2020-05-25T07:38:38.000Z</Time>
            <Position>
              <LatitudeDegrees>38.04112513549625873565673828125</LatitudeDegrees>
              <LongitudeDegrees>-1.16487792693078517913818359375</LongitudeDegrees>
            </Position>
            <AltitudeMeters>144.399993896484375</AltitudeMeters>
            <DistanceMeters>NAN</DistanceMeters>
          </Trackpoint>
          <Trackpoint>
            <Time>2020-05-25T07:38:39.000Z</Time>
            <Position>
              <LatitudeDegrees>38.04100929759442806243896484375</LatitudeDegrees>
              <LongitudeDegrees>-1.16483836434781551361083984375</LongitudeDegrees>
            </Position>
            <AltitudeMeters>143.1999969482421875</AltitudeMeters>
            <DistanceMeters>NAN</DistanceMeters>
          </Trackpoint>
          <Trackpoint>
            <Time>2020-05-25T07:38:40.000Z</Time>
            <Position>
              <LatitudeDegrees>38.04089538753032684326171875</LatitudeDegrees>
              <LongitudeDegrees>-1.16481623612344264984130859375</LongitudeDegrees>
            </Position>
            <AltitudeMeters>141.8000030517578125</AltitudeMeters>
            <DistanceMeters>NAN</DistanceMeters>
          </Trackpoint>
          <Trackpoint>
            <Time>2020-05-25T07:38:41.000Z</Time>
            <Position>
              <LatitudeDegrees>38.04078214801847934722900390625</LatitudeDegrees>
              <LongitudeDegrees>-1.16482394747436046600341796875</LongitudeDegrees>
            </Position>
            <AltitudeMeters>141.1999969482421875</AltitudeMeters>
            <DistanceMeters>NAN</DistanceMeters>
          </Trackpoint>
          <Trackpoint>
            <Time>2020-05-25T07:38:42.000Z</Time>
            <Position>
              <LatitudeDegrees>38.0406668968498706817626953125</LatitudeDegrees>
              <LongitudeDegrees>-1.1648355983197689056396484375</LongitudeDegrees>
            </Position>
            <AltitudeMeters>140.399993896484375</AltitudeMeters>
            <DistanceMeters>NAN</DistanceMeters>
          </Trackpoint>
          <Trackpoint>
            <Time>2020-05-25T07:38:43.000Z</Time>
            <Position>
              <LatitudeDegrees>38.04055214859545230865478515625</LatitudeDegrees>
              <LongitudeDegrees>-1.1648282222449779510498046875</LongitudeDegrees>
            </Position>
            <AltitudeMeters>139.8000030517578125</AltitudeMeters>
            <DistanceMeters>NAN</DistanceMeters>
          </Trackpoint>
          <Trackpoint>
            <Time>2020-05-25T07:38:44.000Z</Time>
            <Position>
              <LatitudeDegrees>38.04044100455939769744873046875</LatitudeDegrees>
              <LongitudeDegrees>-1.1647849716246128082275390625</LongitudeDegrees>
            </Position>
            <AltitudeMeters>139.1999969482421875</AltitudeMeters>
            <DistanceMeters>NAN</DistanceMeters>
          </Trackpoint>
          <Trackpoint>
            <Time>2020-05-25T07:38:45.000Z</Time>
            <Position>
              <LatitudeDegrees>38.0403376556932926177978515625</LatitudeDegrees>
              <LongitudeDegrees>-1.16470970213413238525390625</LongitudeDegrees>
            </Position>
            <AltitudeMeters>138.399993896484375</AltitudeMeters>
            <DistanceMeters>NAN</DistanceMeters>
          </Trackpoint>
          <Trackpoint>
            <Time>2020-05-25T07:38:46.000Z</Time>
            <Position>
              <LatitudeDegrees>38.04023933596909046173095703125</LatitudeDegrees>
              <LongitudeDegrees>-1.164616830646991729736328125</LongitudeDegrees>
            </Position>
            <AltitudeMeters>137.8000030517578125</AltitudeMeters>
            <DistanceMeters>NAN</DistanceMeters>
          </Trackpoint>
          <Trackpoint>
            <Time>2020-05-25T07:38:47.000Z</Time>
            <Position>
              <LatitudeDegrees>38.040137328207492828369140625</LatitudeDegrees>
              <LongitudeDegrees>-1.164526976644992828369140625</LongitudeDegrees>
            </Position>
            <AltitudeMeters>137</AltitudeMeters>
            <DistanceMeters>NAN</DistanceMeters>
          </Trackpoint>
          <Trackpoint>
            <Time>2020-05-25T07:38:48.000Z</Time>
            <Position>
              <LatitudeDegrees>38.04002769291400909423828125</LatitudeDegrees>
              <LongitudeDegrees>-1.16445145569741725921630859375</LongitudeDegrees>
            </Position>
            <AltitudeMeters>136.399993896484375</AltitudeMeters>
            <DistanceMeters>NAN</DistanceMeters>
          </Trackpoint>
          <Trackpoint>
            <Time>2020-05-25T07:38:49.000Z</Time>
            <Position>
              <LatitudeDegrees>38.0399088375270366668701171875</LatitudeDegrees>
              <LongitudeDegrees>-1.16438959725201129913330078125</LongitudeDegrees>
            </Position>
            <AltitudeMeters>135.600006103515625</AltitudeMeters>
            <DistanceMeters>NAN</DistanceMeters>
          </Trackpoint>
          <Trackpoint>
            <Time>2020-05-25T07:38:50.000Z</Time>
            <Position>
              <LatitudeDegrees>38.03978453390300273895263671875</LatitudeDegrees>
              <LongitudeDegrees>-1.16433762945234775543212890625</LongitudeDegrees>
            </Position>
            <AltitudeMeters>135</AltitudeMeters>
            <DistanceMeters>NAN</DistanceMeters>
          </Trackpoint>
          <Trackpoint>
            <Time>2020-05-25T07:38:51.000Z</Time>
            <Position>
              <LatitudeDegrees>38.0396568775177001953125</LatitudeDegrees>
              <LongitudeDegrees>-1.16429069079458713531494140625</LongitudeDegrees>
            </Position>
            <AltitudeMeters>134.399993896484375</AltitudeMeters>
            <DistanceMeters>NAN</DistanceMeters>
          </Trackpoint>
          <Trackpoint>
            <Time>2020-05-25T07:38:52.000Z</Time>
            <Position>
              <LatitudeDegrees>38.03952871821820735931396484375</LatitudeDegrees>
              <LongitudeDegrees>-1.1642431654036045074462890625</LongitudeDegrees>
            </Position>
            <AltitudeMeters>133.600006103515625</AltitudeMeters>
            <DistanceMeters>NAN</DistanceMeters>
          </Trackpoint>
          <Trackpoint>
            <Time>2020-05-25T07:38:53.000Z</Time>
            <Position>
              <LatitudeDegrees>38.03940114565193653106689453125</LatitudeDegrees>
              <LongitudeDegrees>-1.1641927063465118408203125</LongitudeDegrees>
            </Position>
            <AltitudeMeters>133</AltitudeMeters>
            <DistanceMeters>NAN</DistanceMeters>
          </Trackpoint>
          <Trackpoint>
            <Time>2020-05-25T07:38:54.000Z</Time>
            <Position>
              <LatitudeDegrees>38.03927156142890453338623046875</LatitudeDegrees>
              <LongitudeDegrees>-1.164142079651355743408203125</LongitudeDegrees>
            </Position>
            <AltitudeMeters>132.399993896484375</AltitudeMeters>
            <DistanceMeters>NAN</DistanceMeters>
          </Trackpoint>
          <Trackpoint>
            <Time>2020-05-25T07:38:55.000Z</Time>
            <Position>
              <LatitudeDegrees>38.03914164192974567413330078125</LatitudeDegrees>
              <LongitudeDegrees>-1.16409069858491420745849609375</LongitudeDegrees>
            </Position>
            <AltitudeMeters>131.399993896484375</AltitudeMeters>
            <DistanceMeters>NAN</DistanceMeters>
          </Trackpoint>
          <Trackpoint>
            <Time>2020-05-25T07:38:56.000Z</Time>
            <Position>
              <LatitudeDegrees>38.0390109680593013763427734375</LatitudeDegrees>
              <LongitudeDegrees>-1.1640393175184726715087890625</LongitudeDegrees>
            </Position>
            <AltitudeMeters>130.600006103515625</AltitudeMeters>
            <DistanceMeters>NAN</DistanceMeters>
          </Trackpoint>
          <Trackpoint>
            <Time>2020-05-25T07:38:57.000Z</Time>
            <Position>
              <LatitudeDegrees>38.03887962363660335540771484375</LatitudeDegrees>
              <LongitudeDegrees>-1.1639880202710628509521484375</LongitudeDegrees>
            </Position>
            <AltitudeMeters>129.8000030517578125</AltitudeMeters>
            <DistanceMeters>NAN</DistanceMeters>
          </Trackpoint>
          <Trackpoint>
            <Time>2020-05-25T07:38:58.000Z</Time>
            <Position>
              <LatitudeDegrees>38.038747608661651611328125</LatitudeDegrees>
              <LongitudeDegrees>-1.1639353819191455841064453125</LongitudeDegrees>
            </Position>
            <AltitudeMeters>129</AltitudeMeters>
            <DistanceMeters>NAN</DistanceMeters>
          </Trackpoint>
          <Trackpoint>
            <Time>2020-05-25T07:38:59.000Z</Time>
            <Position>
              <LatitudeDegrees>38.0386146716773509979248046875</LatitudeDegrees>
              <LongitudeDegrees>-1.1638830788433551788330078125</LongitudeDegrees>
            </Position>
            <AltitudeMeters>128</AltitudeMeters>
            <DistanceMeters>NAN</DistanceMeters>
          </Trackpoint>
          <Trackpoint>
            <Time>2020-05-25T07:39:00.000Z</Time>
            <Position>
              <LatitudeDegrees>38.0384795553982257843017578125</LatitudeDegrees>
              <LongitudeDegrees>-1.16383337415754795074462890625</LongitudeDegrees>
            </Position>
            <AltitudeMeters>127.1999969482421875</AltitudeMeters>
            <DistanceMeters>NAN</DistanceMeters>
          </Trackpoint>
          <Trackpoint>
            <Time>2020-05-25T07:39:01.000Z</Time>
            <Position>
              <LatitudeDegrees>38.03834267891943454742431640625</LatitudeDegrees>
              <LongitudeDegrees>-1.16378434002399444580078125</LongitudeDegrees>
            </Position>
            <AltitudeMeters>126.1999969482421875</AltitudeMeters>
            <DistanceMeters>NAN</DistanceMeters>
          </Trackpoint>
          <Trackpoint>
            <Time>2020-05-25T07:39:02.000Z</Time>
            <Position>
              <LatitudeDegrees>38.03820404224097728729248046875</LatitudeDegrees>
              <LongitudeDegrees>-1.1637367308139801025390625</LongitudeDegrees>
            </Position>
            <AltitudeMeters>125.1999969482421875</AltitudeMeters>
            <DistanceMeters>NAN</DistanceMeters>
          </Trackpoint>
          <Trackpoint>
            <Time>2020-05-25T07:39:03.000Z</Time>
            <Position>
              <LatitudeDegrees>38.0380661599338054656982421875</LatitudeDegrees>
              <LongitudeDegrees>-1.16368903778493404388427734375</LongitudeDegrees>
            </Position>
            <AltitudeMeters>124.1999969482421875</AltitudeMeters>
            <DistanceMeters>NAN</DistanceMeters>
          </Trackpoint>
          <Trackpoint>
            <Time>2020-05-25T07:39:04.000Z</Time>
            <Position>
              <LatitudeDegrees>38.03792794235050678253173828125</LatitudeDegrees>
              <LongitudeDegrees>-1.16364209912717342376708984375</LongitudeDegrees>
            </Position>
            <AltitudeMeters>123.40000152587890625</AltitudeMeters>
            <DistanceMeters>NAN</DistanceMeters>
          </Trackpoint>
          <Trackpoint>
            <Time>2020-05-25T07:39:05.000Z</Time>
            <Position>
              <LatitudeDegrees>38.03779073059558868408203125</LatitudeDegrees>
              <LongitudeDegrees>-1.16359700448811054229736328125</LongitudeDegrees>
            </Position>
            <AltitudeMeters>122.8000030517578125</AltitudeMeters>
            <DistanceMeters>NAN</DistanceMeters>
          </Trackpoint>
          <Trackpoint>
            <Time>2020-05-25T07:39:06.000Z</Time>
            <Position>
              <LatitudeDegrees>38.03765351884067058563232421875</LatitudeDegrees>
              <LongitudeDegrees>-1.1635528318583965301513671875</LongitudeDegrees>
            </Position>
            <AltitudeMeters>122.59999847412109375</AltitudeMeters>
            <DistanceMeters>NAN</DistanceMeters>
          </Trackpoint>
          <Trackpoint>
            <Time>2020-05-25T07:39:07.000Z</Time>
            <Position>
              <LatitudeDegrees>38.03751622326672077178955078125</LatitudeDegrees>
              <LongitudeDegrees>-1.16351402364671230316162109375</LongitudeDegrees>
            </Position>
            <AltitudeMeters>122.1999969482421875</AltitudeMeters>
            <DistanceMeters>NAN</DistanceMeters>
          </Trackpoint>
          <Trackpoint>
            <Time>2020-05-25T07:39:08.000Z</Time>
            <Position>
              <LatitudeDegrees>38.0373810231685638427734375</LatitudeDegrees>
              <LongitudeDegrees>-1.1634765565395355224609375</LongitudeDegrees>
            </Position>
            <AltitudeMeters>121.59999847412109375</AltitudeMeters>
            <DistanceMeters>NAN</DistanceMeters>
          </Trackpoint>
          <Trackpoint>
            <Time>2020-05-25T07:39:09.000Z</Time>
            <Position>
              <LatitudeDegrees>38.03724699653685092926025390625</LatitudeDegrees>
              <LongitudeDegrees>-1.16344193927943706512451171875</LongitudeDegrees>
            </Position>
            <AltitudeMeters>121</AltitudeMeters>
            <DistanceMeters>NAN</DistanceMeters>
          </Trackpoint>
          <Trackpoint>
            <Time>2020-05-25T07:39:10.000Z</Time>
            <Position>
              <LatitudeDegrees>38.0371154844760894775390625</LatitudeDegrees>
              <LongitudeDegrees>-1.16340958513319492340087890625</LongitudeDegrees>
            </Position>
            <AltitudeMeters>121</AltitudeMeters>
            <DistanceMeters>NAN</DistanceMeters>
          </Trackpoint>
          <Trackpoint>
            <Time>2020-05-25T07:39:11.000Z</Time>
            <Position>
              <LatitudeDegrees>38.03698740899562835693359375</LatitudeDegrees>
              <LongitudeDegrees>-1.16337706334888935089111328125</LongitudeDegrees>
            </Position>
            <AltitudeMeters>121</AltitudeMeters>
            <DistanceMeters>NAN</DistanceMeters>
          </Trackpoint>
          <Trackpoint>
            <Time>2020-05-25T07:39:12.000Z</Time>
            <Position>
              <LatitudeDegrees>38.0368635244667530059814453125</LatitudeDegrees>
              <LongitudeDegrees>-1.163346134126186370849609375</LongitudeDegrees>
            </Position>
            <AltitudeMeters>121</AltitudeMeters>
            <DistanceMeters>NAN</DistanceMeters>
          </Trackpoint>
          <Trackpoint>
            <Time>2020-05-25T07:39:13.000Z</Time>
            <Position>
              <LatitudeDegrees>38.036743663251399993896484375</LatitudeDegrees>
              <LongitudeDegrees>-1.16331587545573711395263671875</LongitudeDegrees>
            </Position>
            <AltitudeMeters>121</AltitudeMeters>
            <DistanceMeters>NAN</DistanceMeters>
          </Trackpoint>
          <Trackpoint>
            <Time>2020-05-25T07:39:14.000Z</Time>
            <Position>
              <LatitudeDegrees>38.03662992082536220550537109375</LatitudeDegrees>
              <LongitudeDegrees>-1.16328067146241664886474609375</LongitudeDegrees>
            </Position>
            <AltitudeMeters>122</AltitudeMeters>
            <DistanceMeters>NAN</DistanceMeters>
          </Trackpoint>
          <Trackpoint>
            <Time>2020-05-25T07:39:15.000Z</Time>
            <Position>
              <LatitudeDegrees>38.0365222133696079254150390625</LatitudeDegrees>
              <LongitudeDegrees>-1.163239181041717529296875</LongitudeDegrees>
            </Position>
            <AltitudeMeters>121.59999847412109375</AltitudeMeters>
            <DistanceMeters>NAN</DistanceMeters>
          </Trackpoint>
          <Trackpoint>
            <Time>2020-05-25T07:39:16.000Z</Time>
            <Position>
              <LatitudeDegrees>38.03642003796994686126708984375</LatitudeDegrees>
              <LongitudeDegrees>-1.16319064982235431671142578125</LongitudeDegrees>
            </Position>
            <AltitudeMeters>120.8000030517578125</AltitudeMeters>
            <DistanceMeters>NAN</DistanceMeters>
          </Trackpoint>
          <Trackpoint>
            <Time>2020-05-25T07:39:17.000Z</Time>
            <Position>
              <LatitudeDegrees>38.03632096387445926666259765625</LatitudeDegrees>
              <LongitudeDegrees>-1.16313767619431018829345703125</LongitudeDegrees>
            </Position>
            <AltitudeMeters>120</AltitudeMeters>
            <DistanceMeters>NAN</DistanceMeters>
          </Trackpoint>
          <Trackpoint>
            <Time>2020-05-25T07:39:18.000Z</Time>
            <Position>
              <LatitudeDegrees>38.0362268351018428802490234375</LatitudeDegrees>
              <LongitudeDegrees>-1.16307866759598255157470703125</LongitudeDegrees>
            </Position>
            <AltitudeMeters>120</AltitudeMeters>
            <DistanceMeters>NAN</DistanceMeters>
          </Trackpoint>
          <Trackpoint>
            <Time>2020-05-25T07:39:19.000Z</Time>
            <Position>
              <LatitudeDegrees>38.03613136522471904754638671875</LatitudeDegrees>
              <LongitudeDegrees>-1.16302049718797206878662109375</LongitudeDegrees>
            </Position>
            <AltitudeMeters>120.1999969482421875</AltitudeMeters>
            <DistanceMeters>NAN</DistanceMeters>
          </Trackpoint>
          <Trackpoint>
            <Time>2020-05-25T07:39:20.000Z</Time>
            <Position>
              <LatitudeDegrees>38.0360363982617855072021484375</LatitudeDegrees>
              <LongitudeDegrees>-1.16296014748513698577880859375</LongitudeDegrees>
            </Position>
            <AltitudeMeters>120.40000152587890625</AltitudeMeters>
            <DistanceMeters>NAN</DistanceMeters>
          </Trackpoint>
          <Trackpoint>
            <Time>2020-05-25T07:39:21.000Z</Time>
            <Position>
              <LatitudeDegrees>38.03594109602272510528564453125</LatitudeDegrees>
              <LongitudeDegrees>-1.16289921104907989501953125</LongitudeDegrees>
            </Position>
            <AltitudeMeters>120</AltitudeMeters>
            <DistanceMeters>NAN</DistanceMeters>
          </Trackpoint>
          <Trackpoint>
            <Time>2020-05-25T07:39:22.000Z</Time>
            <Position>
              <LatitudeDegrees>38.03584436886012554168701171875</LatitudeDegrees>
              <LongitudeDegrees>-1.1628430522978305816650390625</LongitudeDegrees>
            </Position>
            <AltitudeMeters>120</AltitudeMeters>
            <DistanceMeters>NAN</DistanceMeters>
          </Trackpoint>
          <Trackpoint>
            <Time>2020-05-25T07:39:23.000Z</Time>
            <Position>
              <LatitudeDegrees>38.0357473902404308319091796875</LatitudeDegrees>
              <LongitudeDegrees>-1.1627899110317230224609375</LongitudeDegrees>
            </Position>
            <AltitudeMeters>120</AltitudeMeters>
            <DistanceMeters>NAN</DistanceMeters>
          </Trackpoint>
          <Trackpoint>
            <Time>2020-05-25T07:39:24.000Z</Time>
            <Position>
              <LatitudeDegrees>38.03564907051622867584228515625</LatitudeDegrees>
              <LongitudeDegrees>-1.16274238564074039459228515625</LongitudeDegrees>
            </Position>
            <AltitudeMeters>120.1999969482421875</AltitudeMeters>
            <DistanceMeters>NAN</DistanceMeters>
          </Trackpoint>
          <Trackpoint>
            <Time>2020-05-25T07:39:25.000Z</Time>
            <Position>
              <LatitudeDegrees>38.03554915823042392730712890625</LatitudeDegrees>
              <LongitudeDegrees>-1.16269678808748722076416015625</LongitudeDegrees>
            </Position>
            <AltitudeMeters>120.1999969482421875</AltitudeMeters>
            <DistanceMeters>NAN</DistanceMeters>
          </Trackpoint>
          <Trackpoint>
            <Time>2020-05-25T07:39:26.000Z</Time>
            <Position>
              <LatitudeDegrees>38.03544807247817516326904296875</LatitudeDegrees>
              <LongitudeDegrees>-1.16265521384775638580322265625</LongitudeDegrees>
            </Position>
            <AltitudeMeters>119.40000152587890625</AltitudeMeters>
            <DistanceMeters>NAN</DistanceMeters>
          </Trackpoint>
          <Trackpoint>
            <Time>2020-05-25T07:39:27.000Z</Time>
            <Position>
              <LatitudeDegrees>38.03534531034529209136962890625</LatitudeDegrees>
              <LongitudeDegrees>-1.16261565126478672027587890625</LongitudeDegrees>
            </Position>
            <AltitudeMeters>118.40000152587890625</AltitudeMeters>
            <DistanceMeters>NAN</DistanceMeters>
          </Trackpoint>
          <Trackpoint>
            <Time>2020-05-25T07:39:28.000Z</Time>
            <Position>
              <LatitudeDegrees>38.035240955650806427001953125</LatitudeDegrees>
              <LongitudeDegrees>-1.16257868707180023193359375</LongitudeDegrees>
            </Position>
            <AltitudeMeters>117.1999969482421875</AltitudeMeters>
            <DistanceMeters>NAN</DistanceMeters>
          </Trackpoint>
          <Trackpoint>
            <Time>2020-05-25T07:39:29.000Z</Time>
            <Position>
              <LatitudeDegrees>38.03513358347117900848388671875</LatitudeDegrees>
              <LongitudeDegrees>-1.16254591383039951324462890625</LongitudeDegrees>
            </Position>
            <AltitudeMeters>116.1999969482421875</AltitudeMeters>
            <DistanceMeters>NAN</DistanceMeters>
          </Trackpoint>
          <Trackpoint>
            <Time>2020-05-25T07:39:30.000Z</Time>
            <Position>
              <LatitudeDegrees>38.03502394817769527435302734375</LatitudeDegrees>
              <LongitudeDegrees>-1.16252009756863117218017578125</LongitudeDegrees>
            </Position>
            <AltitudeMeters>115.8000030517578125</AltitudeMeters>
            <DistanceMeters>NAN</DistanceMeters>
          </Trackpoint>
          <Trackpoint>
            <Time>2020-05-25T07:39:31.000Z</Time>
            <Position>
              <LatitudeDegrees>38.0349125526845455169677734375</LatitudeDegrees>
              <LongitudeDegrees>-1.1624990589916706085205078125</LongitudeDegrees>
            </Position>
            <AltitudeMeters>116</AltitudeMeters>
            <DistanceMeters>NAN</DistanceMeters>
          </Trackpoint>
          <Trackpoint>
            <Time>2020-05-25T07:39:32.000Z</Time>
            <Position>
              <LatitudeDegrees>38.0347988940775394439697265625</LatitudeDegrees>
              <LongitudeDegrees>-1.1624814569950103759765625</LongitudeDegrees>
            </Position>
            <AltitudeMeters>115.1999969482421875</AltitudeMeters>
            <DistanceMeters>NAN</DistanceMeters>
          </Trackpoint>
          <Trackpoint>
            <Time>2020-05-25T07:39:33.000Z</Time>
            <Position>
              <LatitudeDegrees>38.0346832238137722015380859375</LatitudeDegrees>
              <LongitudeDegrees>-1.1624662019312381744384765625</LongitudeDegrees>
            </Position>
            <AltitudeMeters>114</AltitudeMeters>
            <DistanceMeters>NAN</DistanceMeters>
          </Trackpoint>
          <Trackpoint>
            <Time>2020-05-25T07:39:34.000Z</Time>
            <Position>
              <LatitudeDegrees>38.03456671535968780517578125</LatitudeDegrees>
              <LongitudeDegrees>-1.1624524556100368499755859375</LongitudeDegrees>
            </Position>
            <AltitudeMeters>112.59999847412109375</AltitudeMeters>
            <DistanceMeters>NAN</DistanceMeters>
          </Trackpoint>
          <Trackpoint>
            <Time>2020-05-25T07:39:35.000Z</Time>
            <Position>
              <LatitudeDegrees>38.03444811142981052398681640625</LatitudeDegrees>
              <LongitudeDegrees>-1.16244097240269184112548828125</LongitudeDegrees>
            </Position>
            <AltitudeMeters>111.40000152587890625</AltitudeMeters>
            <DistanceMeters>NAN</DistanceMeters>
          </Trackpoint>
          <Trackpoint>
            <Time>2020-05-25T07:39:36.000Z</Time>
            <Position>
              <LatitudeDegrees>38.03432875312864780426025390625</LatitudeDegrees>
              <LongitudeDegrees>-1.162431500852108001708984375</LongitudeDegrees>
            </Position>
            <AltitudeMeters>110.1999969482421875</AltitudeMeters>
            <DistanceMeters>NAN</DistanceMeters>
          </Trackpoint>
          <Trackpoint>
            <Time>2020-05-25T07:39:37.000Z</Time>
            <Position>
              <LatitudeDegrees>38.03420889191329479217529296875</LatitudeDegrees>
              <LongitudeDegrees>-1.16242269985377788543701171875</LongitudeDegrees>
            </Position>
            <AltitudeMeters>109.59999847412109375</AltitudeMeters>
            <DistanceMeters>NAN</DistanceMeters>
          </Trackpoint>
          <Trackpoint>
            <Time>2020-05-25T07:39:38.000Z</Time>
            <Position>
              <LatitudeDegrees>38.03408836014568805694580078125</LatitudeDegrees>
              <LongitudeDegrees>-1.1624152399599552154541015625</LongitudeDegrees>
            </Position>
            <AltitudeMeters>110</AltitudeMeters>
            <DistanceMeters>NAN</DistanceMeters>
          </Trackpoint>
          <Trackpoint>
            <Time>2020-05-25T07:39:39.000Z</Time>
            <Position>
              <LatitudeDegrees>38.03396833129227161407470703125</LatitudeDegrees>
              <LongitudeDegrees>-1.1624095402657985687255859375</LongitudeDegrees>
            </Position>
            <AltitudeMeters>110.40000152587890625</AltitudeMeters>
            <DistanceMeters>NAN</DistanceMeters>
          </Trackpoint>
          <Trackpoint>
            <Time>2020-05-25T07:39:40.000Z</Time>
            <Position>
              <LatitudeDegrees>38.0338493920862674713134765625</LatitudeDegrees>
              <LongitudeDegrees>-1.16240425966680049896240234375</LongitudeDegrees>
            </Position>
            <AltitudeMeters>110.59999847412109375</AltitudeMeters>
            <DistanceMeters>NAN</DistanceMeters>
          </Trackpoint>
          <Trackpoint>
            <Time>2020-05-25T07:39:41.000Z</Time>
            <Position>
              <LatitudeDegrees>38.03373129107058048248291015625</LatitudeDegrees>
              <LongitudeDegrees>-1.1623988114297389984130859375</LongitudeDegrees>
            </Position>
            <AltitudeMeters>111</AltitudeMeters>
            <DistanceMeters>NAN</DistanceMeters>
          </Trackpoint>
          <Trackpoint>
            <Time>2020-05-25T07:39:42.000Z</Time>
            <Position>
              <LatitudeDegrees>38.03361511789262294769287109375</LatitudeDegrees>
              <LongitudeDegrees>-1.1623941175639629364013671875</LongitudeDegrees>
            </Position>
            <AltitudeMeters>111.40000152587890625</AltitudeMeters>
            <DistanceMeters>NAN</DistanceMeters>
          </Trackpoint>
          <Trackpoint>
            <Time>2020-05-25T07:39:43.000Z</Time>
            <Position>
              <LatitudeDegrees>38.0335010401904582977294921875</LatitudeDegrees>
              <LongitudeDegrees>-1.16238783113658428192138671875</LongitudeDegrees>
            </Position>
            <AltitudeMeters>111.8000030517578125</AltitudeMeters>
            <DistanceMeters>NAN</DistanceMeters>
          </Trackpoint>
          <Trackpoint>
            <Time>2020-05-25T07:39:44.000Z</Time>
            <Position>
              <LatitudeDegrees>38.03338830359280109405517578125</LatitudeDegrees>
              <LongitudeDegrees>-1.16237794049084186553955078125</LongitudeDegrees>
            </Position>
            <AltitudeMeters>112</AltitudeMeters>
            <DistanceMeters>NAN</DistanceMeters>
          </Trackpoint>
          <Trackpoint>
            <Time>2020-05-25T07:39:45.000Z</Time>
            <Position>
              <LatitudeDegrees>38.03327799774706363677978515625</LatitudeDegrees>
              <LongitudeDegrees>-1.16236402653157711029052734375</LongitudeDegrees>
            </Position>
            <AltitudeMeters>112</AltitudeMeters>
            <DistanceMeters>NAN</DistanceMeters>
          </Trackpoint>
          <Trackpoint>
            <Time>2020-05-25T07:39:46.000Z</Time>
            <Position>
              <LatitudeDegrees>38.03316928446292877197265625</LatitudeDegrees>
              <LongitudeDegrees>-1.16234625689685344696044921875</LongitudeDegrees>
            </Position>
            <AltitudeMeters>112.40000152587890625</AltitudeMeters>
            <DistanceMeters>NAN</DistanceMeters>
          </Trackpoint>
          <Trackpoint>
            <Time>2020-05-25T07:39:47.000Z</Time>
            <Position>
              <LatitudeDegrees>38.03306442685425281524658203125</LatitudeDegrees>
              <LongitudeDegrees>-1.1623253859579563140869140625</LongitudeDegrees>
            </Position>
            <AltitudeMeters>112.8000030517578125</AltitudeMeters>
            <DistanceMeters>NAN</DistanceMeters>
          </Trackpoint>
          <Trackpoint>
            <Time>2020-05-25T07:39:48.000Z</Time>
            <Position>
              <LatitudeDegrees>38.032964766025543212890625</LatitudeDegrees>
              <LongitudeDegrees>-1.16229579783976078033447265625</LongitudeDegrees>
            </Position>
            <AltitudeMeters>113.1999969482421875</AltitudeMeters>
            <DistanceMeters>NAN</DistanceMeters>
          </Trackpoint>
          <Trackpoint>
            <Time>2020-05-25T07:39:49.000Z</Time>
            <Position>
              <LatitudeDegrees>38.0328668653964996337890625</LatitudeDegrees>
              <LongitudeDegrees>-1.16226294077932834625244140625</LongitudeDegrees>
            </Position>
            <AltitudeMeters>113.59999847412109375</AltitudeMeters>
            <DistanceMeters>NAN</DistanceMeters>
          </Trackpoint>
          <Trackpoint>
            <Time>2020-05-25T07:39:50.000Z</Time>
            <Position>
              <LatitudeDegrees>38.032773323357105255126953125</LatitudeDegrees>
              <LongitudeDegrees>-1.16222321055829524993896484375</LongitudeDegrees>
            </Position>
            <AltitudeMeters>114.1999969482421875</AltitudeMeters>
            <DistanceMeters>NAN</DistanceMeters>
          </Trackpoint>
          <Trackpoint>
            <Time>2020-05-25T07:39:51.000Z</Time>
            <Position>
              <LatitudeDegrees>38.0326836369931697845458984375</LatitudeDegrees>
              <LongitudeDegrees>-1.16217727772891521453857421875</LongitudeDegrees>
            </Position>
            <AltitudeMeters>114.59999847412109375</AltitudeMeters>
            <DistanceMeters>NAN</DistanceMeters>
          </Trackpoint>
          <Trackpoint>
            <Time>2020-05-25T07:39:52.000Z</Time>
            <Position>
              <LatitudeDegrees>38.0325981415808200836181640625</LatitudeDegrees>
              <LongitudeDegrees>-1.1621272377669811248779296875</LongitudeDegrees>
            </Position>
            <AltitudeMeters>114.1999969482421875</AltitudeMeters>
            <DistanceMeters>NAN</DistanceMeters>
          </Trackpoint>
          <Trackpoint>
            <Time>2020-05-25T07:39:53.000Z</Time>
            <Position>
              <LatitudeDegrees>38.0325190164148807525634765625</LatitudeDegrees>
              <LongitudeDegrees>-1.16207350976765155792236328125</LongitudeDegrees>
            </Position>
            <AltitudeMeters>114.59999847412109375</AltitudeMeters>
            <DistanceMeters>NAN</DistanceMeters>
          </Trackpoint>
          <Trackpoint>
            <Time>2020-05-25T07:39:54.000Z</Time>
            <Position>
              <LatitudeDegrees>38.03244114853441715240478515625</LatitudeDegrees>
              <LongitudeDegrees>-1.16202036850154399871826171875</LongitudeDegrees>
            </Position>
            <AltitudeMeters>115</AltitudeMeters>
            <DistanceMeters>NAN</DistanceMeters>
          </Trackpoint>
          <Trackpoint>
            <Time>2020-05-25T07:39:55.000Z</Time>
            <Position>
              <LatitudeDegrees>38.03236571140587329864501953125</LatitudeDegrees>
              <LongitudeDegrees>-1.16197326220571994781494140625</LongitudeDegrees>
            </Position>
            <AltitudeMeters>115.40000152587890625</AltitudeMeters>
            <DistanceMeters>NAN</DistanceMeters>
          </Trackpoint>
          <Trackpoint>
            <Time>2020-05-25T07:39:56.000Z</Time>
            <Position>
              <LatitudeDegrees>38.032294549047946929931640625</LatitudeDegrees>
              <LongitudeDegrees>-1.1619257368147373199462890625</LongitudeDegrees>
            </Position>
            <AltitudeMeters>115.8000030517578125</AltitudeMeters>
            <DistanceMeters>NAN</DistanceMeters>
          </Trackpoint>
          <Trackpoint>
            <Time>2020-05-25T07:39:57.000Z</Time>
            <Position>
              <LatitudeDegrees>38.0322243086993694305419921875</LatitudeDegrees>
              <LongitudeDegrees>-1.16188072599470615386962890625</LongitudeDegrees>
            </Position>
            <AltitudeMeters>116.1999969482421875</AltitudeMeters>
            <DistanceMeters>NAN</DistanceMeters>
          </Trackpoint>
          <Trackpoint>
            <Time>2020-05-25T07:39:58.000Z</Time>
            <Position>
              <LatitudeDegrees>38.0321565829217433929443359375</LatitudeDegrees>
              <LongitudeDegrees>-1.161834038794040679931640625</LongitudeDegrees>
            </Position>
            <AltitudeMeters>116.40000152587890625</AltitudeMeters>
            <DistanceMeters>NAN</DistanceMeters>
          </Trackpoint>
          <Trackpoint>
            <Time>2020-05-25T07:39:59.000Z</Time>
            <Position>
              <LatitudeDegrees>38.03208810277283191680908203125</LatitudeDegrees>
              <LongitudeDegrees>-1.16179036907851696014404296875</LongitudeDegrees>
            </Position>
            <AltitudeMeters>116.1999969482421875</AltitudeMeters>
            <DistanceMeters>NAN</DistanceMeters>
          </Trackpoint>
          <Trackpoint>
            <Time>2020-05-25T07:40:00.000Z</Time>
            <Position>
              <LatitudeDegrees>38.03202020935714244842529296875</LatitudeDegrees>
              <LongitudeDegrees>-1.16175164468586444854736328125</LongitudeDegrees>
            </Position>
            <AltitudeMeters>116</AltitudeMeters>
            <DistanceMeters>NAN</DistanceMeters>
          </Trackpoint>
          <Trackpoint>
            <Time>2020-05-25T07:40:01.000Z</Time>
            <Position>
              <LatitudeDegrees>38.0319497175514698028564453125</LatitudeDegrees>
              <LongitudeDegrees>-1.16172063164412975311279296875</LongitudeDegrees>
            </Position>
            <AltitudeMeters>116</AltitudeMeters>
            <DistanceMeters>NAN</DistanceMeters>
          </Trackpoint>
          <Trackpoint>
            <Time>2020-05-25T07:40:02.000Z</Time>
            <Position>
              <LatitudeDegrees>38.031880147755146026611328125</LatitudeDegrees>
              <LongitudeDegrees>-1.161688864231109619140625</LongitudeDegrees>
            </Position>
            <AltitudeMeters>116</AltitudeMeters>
            <DistanceMeters>NAN</DistanceMeters>
          </Trackpoint>
          <Trackpoint>
            <Time>2020-05-25T07:40:03.000Z</Time>
            <Position>
              <LatitudeDegrees>38.03180940449237823486328125</LatitudeDegrees>
              <LongitudeDegrees>-1.16165935993194580078125</LongitudeDegrees>
            </Position>
            <AltitudeMeters>115.8000030517578125</AltitudeMeters>
            <DistanceMeters>NAN</DistanceMeters>
          </Trackpoint>
          <Trackpoint>
            <Time>2020-05-25T07:40:04.000Z</Time>
            <Position>
              <LatitudeDegrees>38.0317381583154201507568359375</LatitudeDegrees>
              <LongitudeDegrees>-1.1616320349276065826416015625</LongitudeDegrees>
            </Position>
            <AltitudeMeters>115.59999847412109375</AltitudeMeters>
            <DistanceMeters>NAN</DistanceMeters>
          </Trackpoint>
          <Trackpoint>
            <Time>2020-05-25T07:40:05.000Z</Time>
            <Position>
              <LatitudeDegrees>38.03166666068136692047119140625</LatitudeDegrees>
              <LongitudeDegrees>-1.1616102419793605804443359375</LongitudeDegrees>
            </Position>
            <AltitudeMeters>114.8000030517578125</AltitudeMeters>
            <DistanceMeters>NAN</DistanceMeters>
          </Trackpoint>
          <Trackpoint>
            <Time>2020-05-25T07:40:06.000Z</Time>
            <Position>
              <LatitudeDegrees>38.03159222938120365142822265625</LatitudeDegrees>
              <LongitudeDegrees>-1.16159155033528804779052734375</LongitudeDegrees>
            </Position>
            <AltitudeMeters>114.1999969482421875</AltitudeMeters>
            <DistanceMeters>NAN</DistanceMeters>
          </Trackpoint>
          <Trackpoint>
            <Time>2020-05-25T07:40:07.000Z</Time>
            <Position>
              <LatitudeDegrees>38.0315172113478183746337890625</LatitudeDegrees>
              <LongitudeDegrees>-1.161571852862834930419921875</LongitudeDegrees>
            </Position>
            <AltitudeMeters>114</AltitudeMeters>
            <DistanceMeters>NAN</DistanceMeters>
          </Trackpoint>
          <Trackpoint>
            <Time>2020-05-25T07:40:08.000Z</Time>
            <Position>
              <LatitudeDegrees>38.031440265476703643798828125</LatitudeDegrees>
              <LongitudeDegrees>-1.16155182011425495147705078125</LongitudeDegrees>
            </Position>
            <AltitudeMeters>113.8000030517578125</AltitudeMeters>
            <DistanceMeters>NAN</DistanceMeters>
          </Trackpoint>
          <Trackpoint>
            <Time>2020-05-25T07:40:09.000Z</Time>
            <Position>
              <LatitudeDegrees>38.0313606373965740203857421875</LatitudeDegrees>
              <LongitudeDegrees>-1.1615304462611675262451171875</LongitudeDegrees>
            </Position>
            <AltitudeMeters>113.8000030517578125</AltitudeMeters>
            <DistanceMeters>NAN</DistanceMeters>
          </Trackpoint>
          <Trackpoint>
            <Time>2020-05-25T07:40:10.000Z</Time>
            <Position>
              <LatitudeDegrees>38.0312805064022541046142578125</LatitudeDegrees>
              <LongitudeDegrees>-1.1615069769322872161865234375</LongitudeDegrees>
            </Position>
            <AltitudeMeters>113.59999847412109375</AltitudeMeters>
            <DistanceMeters>NAN</DistanceMeters>
          </Trackpoint>
          <Trackpoint>
            <Time>2020-05-25T07:40:11.000Z</Time>
            <Position>
              <LatitudeDegrees>38.0311993695795536041259765625</LatitudeDegrees>
              <LongitudeDegrees>-1.1614838428795337677001953125</LongitudeDegrees>
            </Position>
            <AltitudeMeters>113.40000152587890625</AltitudeMeters>
            <DistanceMeters>NAN</DistanceMeters>
          </Trackpoint>
          <Trackpoint>
            <Time>2020-05-25T07:40:12.000Z</Time>
            <Position>
              <LatitudeDegrees>38.03111379034817218780517578125</LatitudeDegrees>
              <LongitudeDegrees>-1.16146163083612918853759765625</LongitudeDegrees>
            </Position>
            <AltitudeMeters>113.1999969482421875</AltitudeMeters>
            <DistanceMeters>NAN</DistanceMeters>
          </Trackpoint>
          <Trackpoint>
            <Time>2020-05-25T07:40:13.000Z</Time>
            <Position>
              <LatitudeDegrees>38.0310246907174587249755859375</LatitudeDegrees>
              <LongitudeDegrees>-1.16143765859305858612060546875</LongitudeDegrees>
            </Position>
            <AltitudeMeters>113</AltitudeMeters>
            <DistanceMeters>NAN</DistanceMeters>
          </Trackpoint>
          <Trackpoint>
            <Time>2020-05-25T07:40:14.000Z</Time>
            <Position>
              <LatitudeDegrees>38.0309345014393329620361328125</LatitudeDegrees>
              <LongitudeDegrees>-1.16140765137970447540283203125</LongitudeDegrees>
            </Position>
            <AltitudeMeters>113</AltitudeMeters>
            <DistanceMeters>NAN</DistanceMeters>
          </Trackpoint>
          <Trackpoint>
            <Time>2020-05-25T07:40:15.000Z</Time>
            <Position>
              <LatitudeDegrees>38.0308417975902557373046875</LatitudeDegrees>
              <LongitudeDegrees>-1.1613765545189380645751953125</LongitudeDegrees>
            </Position>
            <AltitudeMeters>112.8000030517578125</AltitudeMeters>
            <DistanceMeters>NAN</DistanceMeters>
          </Trackpoint>
          <Trackpoint>
            <Time>2020-05-25T07:40:16.000Z</Time>
            <Position>
              <LatitudeDegrees>38.03074724972248077392578125</LatitudeDegrees>
              <LongitudeDegrees>-1.16134361363947391510009765625</LongitudeDegrees>
            </Position>
            <AltitudeMeters>112.40000152587890625</AltitudeMeters>
            <DistanceMeters>NAN</DistanceMeters>
          </Trackpoint>
          <Trackpoint>
            <Time>2020-05-25T07:40:17.000Z</Time>
            <Position>
              <LatitudeDegrees>38.0306513607501983642578125</LatitudeDegrees>
              <LongitudeDegrees>-1.1613098345696926116943359375</LongitudeDegrees>
            </Position>
            <AltitudeMeters>112</AltitudeMeters>
            <DistanceMeters>NAN</DistanceMeters>
          </Trackpoint>
          <Trackpoint>
            <Time>2020-05-25T07:40:18.000Z</Time>
            <Position>
              <LatitudeDegrees>38.0305553041398525238037109375</LatitudeDegrees>
              <LongitudeDegrees>-1.161270439624786376953125</LongitudeDegrees>
            </Position>
            <AltitudeMeters>111.59999847412109375</AltitudeMeters>
            <DistanceMeters>NAN</DistanceMeters>
          </Trackpoint>
          <Trackpoint>
            <Time>2020-05-25T07:40:19.000Z</Time>
            <Position>
              <LatitudeDegrees>38.0304604209959506988525390625</LatitudeDegrees>
              <LongitudeDegrees>-1.16122995503246784210205078125</LongitudeDegrees>
            </Position>
            <AltitudeMeters>111.40000152587890625</AltitudeMeters>
            <DistanceMeters>NAN</DistanceMeters>
          </Trackpoint>
          <Trackpoint>
            <Time>2020-05-25T07:40:20.000Z</Time>
            <Position>
              <LatitudeDegrees>38.0303652025759220123291015625</LatitudeDegrees>
              <LongitudeDegrees>-1.1611908115446567535400390625</LongitudeDegrees>
            </Position>
            <AltitudeMeters>111</AltitudeMeters>
            <DistanceMeters>NAN</DistanceMeters>
          </Trackpoint>
          <Trackpoint>
            <Time>2020-05-25T07:40:21.000Z</Time>
            <Position>
              <LatitudeDegrees>38.030269145965576171875</LatitudeDegrees>
              <LongitudeDegrees>-1.1611556075513362884521484375</LongitudeDegrees>
            </Position>
            <AltitudeMeters>110.59999847412109375</AltitudeMeters>
            <DistanceMeters>NAN</DistanceMeters>
          </Trackpoint>
          <Trackpoint>
            <Time>2020-05-25T07:40:22.000Z</Time>
            <Position>
              <LatitudeDegrees>38.030173592269420623779296875</LatitudeDegrees>
              <LongitudeDegrees>-1.16111864335834980010986328125</LongitudeDegrees>
            </Position>
            <AltitudeMeters>110</AltitudeMeters>
            <DistanceMeters>NAN</DistanceMeters>
          </Trackpoint>
          <Trackpoint>
            <Time>2020-05-25T07:40:23.000Z</Time>
            <Position>
              <LatitudeDegrees>38.03007778711616992950439453125</LatitudeDegrees>
              <LongitudeDegrees>-1.1610815115272998809814453125</LongitudeDegrees>
            </Position>
            <AltitudeMeters>109.59999847412109375</AltitudeMeters>
            <DistanceMeters>NAN</DistanceMeters>
          </Trackpoint>
          <Trackpoint>
            <Time>2020-05-25T07:40:24.000Z</Time>
            <Position>
              <LatitudeDegrees>38.02998173050582408905029296875</LatitudeDegrees>
              <LongitudeDegrees>-1.161045134067535400390625</LongitudeDegrees>
            </Position>
            <AltitudeMeters>109.59999847412109375</AltitudeMeters>
            <DistanceMeters>NAN</DistanceMeters>
          </Trackpoint>
          <Trackpoint>
            <Time>2020-05-25T07:40:25.000Z</Time>
            <Position>
              <LatitudeDegrees>38.0298854224383831024169921875</LatitudeDegrees>
              <LongitudeDegrees>-1.16100682877004146575927734375</LongitudeDegrees>
            </Position>
            <AltitudeMeters>109.8000030517578125</AltitudeMeters>
            <DistanceMeters>NAN</DistanceMeters>
          </Trackpoint>
          <Trackpoint>
            <Time>2020-05-25T07:40:26.000Z</Time>
            <Position>
              <LatitudeDegrees>38.02978894673287868499755859375</LatitudeDegrees>
              <LongitudeDegrees>-1.16097112186253070831298828125</LongitudeDegrees>
            </Position>
            <AltitudeMeters>109.8000030517578125</AltitudeMeters>
            <DistanceMeters>NAN</DistanceMeters>
          </Trackpoint>
          <Trackpoint>
            <Time>2020-05-25T07:40:27.000Z</Time>
            <Position>
              <LatitudeDegrees>38.02969339303672313690185546875</LatitudeDegrees>
              <LongitudeDegrees>-1.1609329842031002044677734375</LongitudeDegrees>
            </Position>
            <AltitudeMeters>109.40000152587890625</AltitudeMeters>
            <DistanceMeters>NAN</DistanceMeters>
          </Trackpoint>
          <Trackpoint>
            <Time>2020-05-25T07:40:28.000Z</Time>
            <Position>
              <LatitudeDegrees>38.029598258435726165771484375</LatitudeDegrees>
              <LongitudeDegrees>-1.160897947847843170166015625</LongitudeDegrees>
            </Position>
            <AltitudeMeters>108.8000030517578125</AltitudeMeters>
            <DistanceMeters>NAN</DistanceMeters>
          </Trackpoint>
          <Trackpoint>
            <Time>2020-05-25T07:40:29.000Z</Time>
            <Position>
              <LatitudeDegrees>38.02950262092053890228271484375</LatitudeDegrees>
              <LongitudeDegrees>-1.16086802445352077484130859375</LongitudeDegrees>
            </Position>
            <AltitudeMeters>108</AltitudeMeters>
            <DistanceMeters>NAN</DistanceMeters>
          </Trackpoint>
          <Trackpoint>
            <Time>2020-05-25T07:40:30.000Z</Time>
            <Position>
              <LatitudeDegrees>38.02940924651920795440673828125</LatitudeDegrees>
              <LongitudeDegrees>-1.1608354188501834869384765625</LongitudeDegrees>
            </Position>
            <AltitudeMeters>107.40000152587890625</AltitudeMeters>
            <DistanceMeters>NAN</DistanceMeters>
          </Trackpoint>
          <Trackpoint>
            <Time>2020-05-25T07:40:31.000Z</Time>
            <Position>
              <LatitudeDegrees>38.0293177999556064605712890625</LatitudeDegrees>
              <LongitudeDegrees>-1.16080264560878276824951171875</LongitudeDegrees>
            </Position>
            <AltitudeMeters>106.59999847412109375</AltitudeMeters>
            <DistanceMeters>NAN</DistanceMeters>
          </Trackpoint>
          <Trackpoint>
            <Time>2020-05-25T07:40:32.000Z</Time>
            <Position>
              <LatitudeDegrees>38.029226772487163543701171875</LatitudeDegrees>
              <LongitudeDegrees>-1.160771213471889495849609375</LongitudeDegrees>
            </Position>
            <AltitudeMeters>106.1999969482421875</AltitudeMeters>
            <DistanceMeters>NAN</DistanceMeters>
          </Trackpoint>
          <Trackpoint>
            <Time>2020-05-25T07:40:33.000Z</Time>
            <Position>
              <LatitudeDegrees>38.0291360802948474884033203125</LatitudeDegrees>
              <LongitudeDegrees>-1.16073944605886936187744140625</LongitudeDegrees>
            </Position>
            <AltitudeMeters>106</AltitudeMeters>
            <DistanceMeters>NAN</DistanceMeters>
          </Trackpoint>
          <Trackpoint>
            <Time>2020-05-25T07:40:34.000Z</Time>
            <Position>
              <LatitudeDegrees>38.02904614247381687164306640625</LatitudeDegrees>
              <LongitudeDegrees>-1.16070457734167575836181640625</LongitudeDegrees>
            </Position>
            <AltitudeMeters>106</AltitudeMeters>
            <DistanceMeters>NAN</DistanceMeters>
          </Trackpoint>
          <Trackpoint>
            <Time>2020-05-25T07:40:35.000Z</Time>
            <Position>
              <LatitudeDegrees>38.0289560370147228240966796875</LatitudeDegrees>
              <LongitudeDegrees>-1.160673983395099639892578125</LongitudeDegrees>
            </Position>
            <AltitudeMeters>106.1999969482421875</AltitudeMeters>
            <DistanceMeters>NAN</DistanceMeters>
          </Trackpoint>
          <Trackpoint>
            <Time>2020-05-25T07:40:36.000Z</Time>
            <Position>
              <LatitudeDegrees>38.028868027031421661376953125</LatitudeDegrees>
              <LongitudeDegrees>-1.160641796886920928955078125</LongitudeDegrees>
            </Position>
            <AltitudeMeters>106.1999969482421875</AltitudeMeters>
            <DistanceMeters>NAN</DistanceMeters>
          </Trackpoint>
          <Trackpoint>
            <Time>2020-05-25T07:40:37.000Z</Time>
            <Position>
              <LatitudeDegrees>38.0287813581526279449462890625</LatitudeDegrees>
              <LongitudeDegrees>-1.16060986183583736419677734375</LongitudeDegrees>
            </Position>
            <AltitudeMeters>106.1999969482421875</AltitudeMeters>
            <DistanceMeters>NAN</DistanceMeters>
          </Trackpoint>
          <Trackpoint>
            <Time>2020-05-25T07:40:38.000Z</Time>
            <Position>
              <LatitudeDegrees>38.0286960303783416748046875</LatitudeDegrees>
              <LongitudeDegrees>-1.16057868115603923797607421875</LongitudeDegrees>
            </Position>
            <AltitudeMeters>106.40000152587890625</AltitudeMeters>
            <DistanceMeters>NAN</DistanceMeters>
          </Trackpoint>
          <Trackpoint>
            <Time>2020-05-25T07:40:39.000Z</Time>
            <Position>
              <LatitudeDegrees>38.02861212752759456634521484375</LatitudeDegrees>
              <LongitudeDegrees>-1.16054766811430454254150390625</LongitudeDegrees>
            </Position>
            <AltitudeMeters>106.59999847412109375</AltitudeMeters>
            <DistanceMeters>NAN</DistanceMeters>
          </Trackpoint>
          <Trackpoint>
            <Time>2020-05-25T07:40:40.000Z</Time>
            <Position>
              <LatitudeDegrees>38.02852830849587917327880859375</LatitudeDegrees>
              <LongitudeDegrees>-1.16052000783383846282958984375</LongitudeDegrees>
            </Position>
            <AltitudeMeters>106.8000030517578125</AltitudeMeters>
            <DistanceMeters>NAN</DistanceMeters>
          </Trackpoint>
          <Trackpoint>
            <Time>2020-05-25T07:40:41.000Z</Time>
            <Position>
              <LatitudeDegrees>38.02844482474029064178466796875</LatitudeDegrees>
              <LongitudeDegrees>-1.16050056181848049163818359375</LongitudeDegrees>
            </Position>
            <AltitudeMeters>106.8000030517578125</AltitudeMeters>
            <DistanceMeters>NAN</DistanceMeters>
          </Trackpoint>
          <Trackpoint>
            <Time>2020-05-25T07:40:42.000Z</Time>
            <Position>
              <LatitudeDegrees>38.028362095355987548828125</LatitudeDegrees>
              <LongitudeDegrees>-1.1605019867420196533203125</LongitudeDegrees>
            </Position>
            <AltitudeMeters>106.8000030517578125</AltitudeMeters>
            <DistanceMeters>NAN</DistanceMeters>
          </Trackpoint>
          <Trackpoint>
            <Time>2020-05-25T07:40:43.000Z</Time>
            <Position>
              <LatitudeDegrees>38.02828942425549030303955078125</LatitudeDegrees>
              <LongitudeDegrees>-1.1605460755527019500732421875</LongitudeDegrees>
            </Position>
            <AltitudeMeters>107</AltitudeMeters>
            <DistanceMeters>NAN</DistanceMeters>
          </Trackpoint>
          <Trackpoint>
            <Time>2020-05-25T07:40:44.000Z</Time>
            <Position>
              <LatitudeDegrees>38.028231672942638397216796875</LatitudeDegrees>
              <LongitudeDegrees>-1.16062964312732219696044921875</LongitudeDegrees>
            </Position>
            <AltitudeMeters>107.1999969482421875</AltitudeMeters>
            <DistanceMeters>NAN</DistanceMeters>
          </Trackpoint>
          <Trackpoint>
            <Time>2020-05-25T07:40:45.000Z</Time>
            <Position>
              <LatitudeDegrees>38.028186745941638946533203125</LatitudeDegrees>
              <LongitudeDegrees>-1.16072670556604862213134765625</LongitudeDegrees>
            </Position>
            <AltitudeMeters>108.1999969482421875</AltitudeMeters>
            <DistanceMeters>NAN</DistanceMeters>
          </Trackpoint>
          <Trackpoint>
            <Time>2020-05-25T07:40:46.000Z</Time>
            <Position>
              <LatitudeDegrees>38.02814894355833530426025390625</LatitudeDegrees>
              <LongitudeDegrees>-1.16083282046020030975341796875</LongitudeDegrees>
            </Position>
            <AltitudeMeters>109.40000152587890625</AltitudeMeters>
            <DistanceMeters>NAN</DistanceMeters>
          </Trackpoint>
          <Trackpoint>
            <Time>2020-05-25T07:40:47.000Z</Time>
            <Position>
              <LatitudeDegrees>38.028119690716266632080078125</LatitudeDegrees>
              <LongitudeDegrees>-1.16094312630593776702880859375</LongitudeDegrees>
            </Position>
            <AltitudeMeters>110.40000152587890625</AltitudeMeters>
            <DistanceMeters>NAN</DistanceMeters>
          </Trackpoint>
          <Trackpoint>
            <Time>2020-05-25T07:40:48.000Z</Time>
            <Position>
              <LatitudeDegrees>38.0280911922454833984375</LatitudeDegrees>
              <LongitudeDegrees>-1.1610580421984195709228515625</LongitudeDegrees>
            </Position>
            <AltitudeMeters>111.1999969482421875</AltitudeMeters>
            <DistanceMeters>NAN</DistanceMeters>
          </Trackpoint>
          <Trackpoint>
            <Time>2020-05-25T07:40:49.000Z</Time>
            <Position>
              <LatitudeDegrees>38.02806193940341472625732421875</LatitudeDegrees>
              <LongitudeDegrees>-1.16117262281477451324462890625</LongitudeDegrees>
            </Position>
            <AltitudeMeters>112.1999969482421875</AltitudeMeters>
            <DistanceMeters>NAN</DistanceMeters>
          </Trackpoint>
          <Trackpoint>
            <Time>2020-05-25T07:40:50.000Z</Time>
            <Position>
              <LatitudeDegrees>38.0280353687703609466552734375</LatitudeDegrees>
              <LongitudeDegrees>-1.161284856498241424560546875</LongitudeDegrees>
            </Position>
            <AltitudeMeters>113</AltitudeMeters>
            <DistanceMeters>NAN</DistanceMeters>
          </Trackpoint>
          <Trackpoint>
            <Time>2020-05-25T07:40:51.000Z</Time>
            <Position>
              <LatitudeDegrees>38.02800795994699001312255859375</LatitudeDegrees>
              <LongitudeDegrees>-1.1613963358104228973388671875</LongitudeDegrees>
            </Position>
            <AltitudeMeters>113.8000030517578125</AltitudeMeters>
            <DistanceMeters>NAN</DistanceMeters>
          </Trackpoint>
          <Trackpoint>
            <Time>2020-05-25T07:40:52.000Z</Time>
            <Position>
              <LatitudeDegrees>38.0279783718287944793701171875</LatitudeDegrees>
              <LongitudeDegrees>-1.16150571964681148529052734375</LongitudeDegrees>
            </Position>
            <AltitudeMeters>113.59999847412109375</AltitudeMeters>
            <DistanceMeters>NAN</DistanceMeters>
          </Trackpoint>
          <Trackpoint>
            <Time>2020-05-25T07:40:53.000Z</Time>
            <Position>
              <LatitudeDegrees>38.02794861607253551483154296875</LatitudeDegrees>
              <LongitudeDegrees>-1.1616139300167560577392578125</LongitudeDegrees>
            </Position>
            <AltitudeMeters>113</AltitudeMeters>
            <DistanceMeters>NAN</DistanceMeters>
          </Trackpoint>
          <Trackpoint>
            <Time>2020-05-25T07:40:54.000Z</Time>
            <Position>
              <LatitudeDegrees>38.0279190279543399810791015625</LatitudeDegrees>
              <LongitudeDegrees>-1.1617223918437957763671875</LongitudeDegrees>
            </Position>
            <AltitudeMeters>112.40000152587890625</AltitudeMeters>
            <DistanceMeters>NAN</DistanceMeters>
          </Trackpoint>
          <Trackpoint>
            <Time>2020-05-25T07:40:55.000Z</Time>
            <Position>
              <LatitudeDegrees>38.02789078094065189361572265625</LatitudeDegrees>
              <LongitudeDegrees>-1.1618315242230892181396484375</LongitudeDegrees>
            </Position>
            <AltitudeMeters>111.8000030517578125</AltitudeMeters>
            <DistanceMeters>NAN</DistanceMeters>
          </Trackpoint>
          <Trackpoint>
            <Time>2020-05-25T07:40:56.000Z</Time>
            <Position>
              <LatitudeDegrees>38.02786462940275669097900390625</LatitudeDegrees>
              <LongitudeDegrees>-1.16194090805947780609130859375</LongitudeDegrees>
            </Position>
            <AltitudeMeters>111</AltitudeMeters>
            <DistanceMeters>NAN</DistanceMeters>
          </Trackpoint>
          <Trackpoint>
            <Time>2020-05-25T07:40:57.000Z</Time>
            <Position>
              <LatitudeDegrees>38.02783763967454433441162109375</LatitudeDegrees>
              <LongitudeDegrees>-1.16204886697232723236083984375</LongitudeDegrees>
            </Position>
            <AltitudeMeters>110.8000030517578125</AltitudeMeters>
            <DistanceMeters>NAN</DistanceMeters>
          </Trackpoint>
          <Trackpoint>
            <Time>2020-05-25T07:40:58.000Z</Time>
            <Position>
              <LatitudeDegrees>38.02780930884182453155517578125</LatitudeDegrees>
              <LongitudeDegrees>-1.1621554009616374969482421875</LongitudeDegrees>
            </Position>
            <AltitudeMeters>111</AltitudeMeters>
            <DistanceMeters>NAN</DistanceMeters>
          </Trackpoint>
          <Trackpoint>
            <Time>2020-05-25T07:40:59.000Z</Time>
            <Position>
              <LatitudeDegrees>38.0277802236378192901611328125</LatitudeDegrees>
              <LongitudeDegrees>-1.1622600071132183074951171875</LongitudeDegrees>
            </Position>
            <AltitudeMeters>111.40000152587890625</AltitudeMeters>
            <DistanceMeters>NAN</DistanceMeters>
          </Trackpoint>
          <Trackpoint>
            <Time>2020-05-25T07:41:00.000Z</Time>
            <Position>
              <LatitudeDegrees>38.027751557528972625732421875</LatitudeDegrees>
              <LongitudeDegrees>-1.162367798388004302978515625</LongitudeDegrees>
            </Position>
            <AltitudeMeters>111.1999969482421875</AltitudeMeters>
            <DistanceMeters>NAN</DistanceMeters>
          </Trackpoint>
          <Trackpoint>
            <Time>2020-05-25T07:41:01.000Z</Time>
            <Position>
              <LatitudeDegrees>38.0277218855917453765869140625</LatitudeDegrees>
              <LongitudeDegrees>-1.162479110062122344970703125</LongitudeDegrees>
            </Position>
            <AltitudeMeters>111</AltitudeMeters>
            <DistanceMeters>NAN</DistanceMeters>
          </Trackpoint>
          <Trackpoint>
            <Time>2020-05-25T07:41:02.000Z</Time>
            <Position>
              <LatitudeDegrees>38.027691207826137542724609375</LatitudeDegrees>
              <LongitudeDegrees>-1.16259335540235042572021484375</LongitudeDegrees>
            </Position>
            <AltitudeMeters>110.8000030517578125</AltitudeMeters>
            <DistanceMeters>NAN</DistanceMeters>
          </Trackpoint>
          <Trackpoint>
            <Time>2020-05-25T07:41:03.000Z</Time>
            <Position>
              <LatitudeDegrees>38.02765742875635623931884765625</LatitudeDegrees>
              <LongitudeDegrees>-1.162708438932895660400390625</LongitudeDegrees>
            </Position>
            <AltitudeMeters>110.40000152587890625</AltitudeMeters>
            <DistanceMeters>NAN</DistanceMeters>
          </Trackpoint>
          <Trackpoint>
            <Time>2020-05-25T07:41:04.000Z</Time>
            <Position>
              <LatitudeDegrees>38.02761585451662540435791015625</LatitudeDegrees>
              <LongitudeDegrees>-1.16282000206410884857177734375</LongitudeDegrees>
            </Position>
            <AltitudeMeters>110.1999969482421875</AltitudeMeters>
            <DistanceMeters>NAN</DistanceMeters>
          </Trackpoint>
          <Trackpoint>
            <Time>2020-05-25T07:41:05.000Z</Time>
            <Position>
              <LatitudeDegrees>38.02756371907889842987060546875</LatitudeDegrees>
              <LongitudeDegrees>-1.16292460821568965911865234375</LongitudeDegrees>
            </Position>
            <AltitudeMeters>110</AltitudeMeters>
            <DistanceMeters>NAN</DistanceMeters>
          </Trackpoint>
          <Trackpoint>
            <Time>2020-05-25T07:41:06.000Z</Time>
            <Position>
              <LatitudeDegrees>38.02749716676771640777587890625</LatitudeDegrees>
              <LongitudeDegrees>-1.16301647387444972991943359375</LongitudeDegrees>
            </Position>
            <AltitudeMeters>109.59999847412109375</AltitudeMeters>
            <DistanceMeters>NAN</DistanceMeters>
          </Trackpoint>
          <Trackpoint>
            <Time>2020-05-25T07:41:07.000Z</Time>
            <Position>
              <LatitudeDegrees>38.02742491476237773895263671875</LatitudeDegrees>
              <LongitudeDegrees>-1.16309744305908679962158203125</LongitudeDegrees>
            </Position>
            <AltitudeMeters>109.40000152587890625</AltitudeMeters>
            <DistanceMeters>NAN</DistanceMeters>
          </Trackpoint>
          <Trackpoint>
            <Time>2020-05-25T07:41:08.000Z</Time>
            <Position>
              <LatitudeDegrees>38.02734511904418468475341796875</LatitudeDegrees>
              <LongitudeDegrees>-1.1631635762751102447509765625</LongitudeDegrees>
            </Position>
            <AltitudeMeters>109</AltitudeMeters>
            <DistanceMeters>NAN</DistanceMeters>
          </Trackpoint>
          <Trackpoint>
            <Time>2020-05-25T07:41:09.000Z</Time>
            <Position>
              <LatitudeDegrees>38.0272610485553741455078125</LatitudeDegrees>
              <LongitudeDegrees>-1.16321864537894725799560546875</LongitudeDegrees>
            </Position>
            <AltitudeMeters>108.59999847412109375</AltitudeMeters>
            <DistanceMeters>NAN</DistanceMeters>
          </Trackpoint>
          <Trackpoint>
            <Time>2020-05-25T07:41:10.000Z</Time>
            <Position>
              <LatitudeDegrees>38.0271830968558788299560546875</LatitudeDegrees>
              <LongitudeDegrees>-1.16326072253286838531494140625</LongitudeDegrees>
            </Position>
            <AltitudeMeters>108.40000152587890625</AltitudeMeters>
            <DistanceMeters>NAN</DistanceMeters>
          </Trackpoint>
          <Trackpoint>
            <Time>2020-05-25T07:41:11.000Z</Time>
            <Position>
              <LatitudeDegrees>38.0270734615623950958251953125</LatitudeDegrees>
              <LongitudeDegrees>-1.1632822640240192413330078125</LongitudeDegrees>
            </Position>
            <AltitudeMeters>108</AltitudeMeters>
            <DistanceMeters>NAN</DistanceMeters>
          </Trackpoint>
          <Trackpoint>
            <Time>2020-05-25T07:41:12.000Z</Time>
            <Position>
              <LatitudeDegrees>38.02697564475238323211669921875</LatitudeDegrees>
              <LongitudeDegrees>-1.16322107613086700439453125</LongitudeDegrees>
            </Position>
            <AltitudeMeters>107.59999847412109375</AltitudeMeters>
            <DistanceMeters>NAN</DistanceMeters>
          </Trackpoint>
          <Trackpoint>
            <Time>2020-05-25T07:41:13.000Z</Time>
            <Position>
              <LatitudeDegrees>38.026882521808147430419921875</LatitudeDegrees>
              <LongitudeDegrees>-1.1631525121629238128662109375</LongitudeDegrees>
            </Position>
            <AltitudeMeters>107.40000152587890625</AltitudeMeters>
            <DistanceMeters>NAN</DistanceMeters>
          </Trackpoint>
          <Trackpoint>
            <Time>2020-05-25T07:41:14.000Z</Time>
            <Position>
              <LatitudeDegrees>38.02680783905088901519775390625</LatitudeDegrees>
              <LongitudeDegrees>-1.16304866038262844085693359375</LongitudeDegrees>
            </Position>
            <AltitudeMeters>107.1999969482421875</AltitudeMeters>
            <DistanceMeters>NAN</DistanceMeters>
          </Trackpoint>
          <Trackpoint>
            <Time>2020-05-25T07:41:15.000Z</Time>
            <Position>
              <LatitudeDegrees>38.0267326533794403076171875</LatitudeDegrees>
              <LongitudeDegrees>-1.16296383552253246307373046875</LongitudeDegrees>
            </Position>
            <AltitudeMeters>107</AltitudeMeters>
            <DistanceMeters>NAN</DistanceMeters>
          </Trackpoint>
          <Trackpoint>
            <Time>2020-05-25T07:41:16.000Z</Time>
            <Position>
              <LatitudeDegrees>38.02665797062218189239501953125</LatitudeDegrees>
              <LongitudeDegrees>-1.16289384663105010986328125</LongitudeDegrees>
            </Position>
            <AltitudeMeters>106.59999847412109375</AltitudeMeters>
            <DistanceMeters>NAN</DistanceMeters>
          </Trackpoint>
          <Trackpoint>
            <Time>2020-05-25T07:41:17.000Z</Time>
            <Position>
              <LatitudeDegrees>38.0265829525887966156005859375</LatitudeDegrees>
              <LongitudeDegrees>-1.1628293059766292572021484375</LongitudeDegrees>
            </Position>
            <AltitudeMeters>106.1999969482421875</AltitudeMeters>
            <DistanceMeters>NAN</DistanceMeters>
          </Trackpoint>
          <Trackpoint>
            <Time>2020-05-25T07:41:18.000Z</Time>
            <Position>
              <LatitudeDegrees>38.02650810219347476959228515625</LatitudeDegrees>
              <LongitudeDegrees>-1.1627682857215404510498046875</LongitudeDegrees>
            </Position>
            <AltitudeMeters>105.59999847412109375</AltitudeMeters>
            <DistanceMeters>NAN</DistanceMeters>
          </Trackpoint>
          <Trackpoint>
            <Time>2020-05-25T07:41:19.000Z</Time>
            <Position>
              <LatitudeDegrees>38.02642428316175937652587890625</LatitudeDegrees>
              <LongitudeDegrees>-1.16267415694892406463623046875</LongitudeDegrees>
            </Position>
            <AltitudeMeters>105.1999969482421875</AltitudeMeters>
            <DistanceMeters>NAN</DistanceMeters>
          </Trackpoint>
          <Trackpoint>
            <Time>2020-05-25T07:41:20.000Z</Time>
            <Position>
              <LatitudeDegrees>38.02634448744356632232666015625</LatitudeDegrees>
              <LongitudeDegrees>-1.1626164056360721588134765625</LongitudeDegrees>
            </Position>
            <AltitudeMeters>104.8000030517578125</AltitudeMeters>
            <DistanceMeters>NAN</DistanceMeters>
          </Trackpoint>
          <Trackpoint>
            <Time>2020-05-25T07:41:21.000Z</Time>
            <Position>
              <LatitudeDegrees>38.02626050077378749847412109375</LatitudeDegrees>
              <LongitudeDegrees>-1.1625661142170429229736328125</LongitudeDegrees>
            </Position>
            <AltitudeMeters>104.8000030517578125</AltitudeMeters>
            <DistanceMeters>NAN</DistanceMeters>
          </Trackpoint>
          <Trackpoint>
            <Time>2020-05-25T07:41:22.000Z</Time>
            <Position>
              <LatitudeDegrees>38.02617785520851612091064453125</LatitudeDegrees>
              <LongitudeDegrees>-1.1625278927385807037353515625</LongitudeDegrees>
            </Position>
            <AltitudeMeters>104.8000030517578125</AltitudeMeters>
            <DistanceMeters>NAN</DistanceMeters>
          </Trackpoint>
          <Trackpoint>
            <Time>2020-05-25T07:41:23.000Z</Time>
            <Position>
              <LatitudeDegrees>38.02609470672905445098876953125</LatitudeDegrees>
              <LongitudeDegrees>-1.16249285638332366943359375</LongitudeDegrees>
            </Position>
            <AltitudeMeters>104.59999847412109375</AltitudeMeters>
            <DistanceMeters>NAN</DistanceMeters>
          </Trackpoint>
          <Trackpoint>
            <Time>2020-05-25T07:41:24.000Z</Time>
            <Position>
              <LatitudeDegrees>38.02601055242121219635009765625</LatitudeDegrees>
              <LongitudeDegrees>-1.1624739132821559906005859375</LongitudeDegrees>
            </Position>
            <AltitudeMeters>104.40000152587890625</AltitudeMeters>
            <DistanceMeters>NAN</DistanceMeters>
          </Trackpoint>
          <Trackpoint>
            <Time>2020-05-25T07:41:25.000Z</Time>
            <Position>
              <LatitudeDegrees>38.02592757157981395721435546875</LatitudeDegrees>
              <LongitudeDegrees>-1.16246125660836696624755859375</LongitudeDegrees>
            </Position>
            <AltitudeMeters>104.1999969482421875</AltitudeMeters>
            <DistanceMeters>NAN</DistanceMeters>
          </Trackpoint>
          <Trackpoint>
            <Time>2020-05-25T07:41:26.000Z</Time>
            <Position>
              <LatitudeDegrees>38.0258448421955108642578125</LatitudeDegrees>
              <LongitudeDegrees>-1.1624588258564472198486328125</LongitudeDegrees>
            </Position>
            <AltitudeMeters>103.8000030517578125</AltitudeMeters>
            <DistanceMeters>NAN</DistanceMeters>
          </Trackpoint>
          <Trackpoint>
            <Time>2020-05-25T07:41:27.000Z</Time>
            <Position>
              <LatitudeDegrees>38.02576160989701747894287109375</LatitudeDegrees>
              <LongitudeDegrees>-1.16246142424643039703369140625</LongitudeDegrees>
            </Position>
            <AltitudeMeters>103.40000152587890625</AltitudeMeters>
            <DistanceMeters>NAN</DistanceMeters>
          </Trackpoint>
          <Trackpoint>
            <Time>2020-05-25T07:41:28.000Z</Time>
            <Position>
              <LatitudeDegrees>38.025678880512714385986328125</LatitudeDegrees>
              <LongitudeDegrees>-1.1624789424240589141845703125</LongitudeDegrees>
            </Position>
            <AltitudeMeters>102.59999847412109375</AltitudeMeters>
            <DistanceMeters>NAN</DistanceMeters>
          </Trackpoint>
          <Trackpoint>
            <Time>2020-05-25T07:41:29.000Z</Time>
            <Position>
              <LatitudeDegrees>38.02559900097548961639404296875</LatitudeDegrees>
              <LongitudeDegrees>-1.16249830462038516998291015625</LongitudeDegrees>
            </Position>
            <AltitudeMeters>102</AltitudeMeters>
            <DistanceMeters>NAN</DistanceMeters>
          </Trackpoint>
          <Trackpoint>
            <Time>2020-05-25T07:41:30.000Z</Time>
            <Position>
              <LatitudeDegrees>38.0255207978188991546630859375</LatitudeDegrees>
              <LongitudeDegrees>-1.16252462379634380340576171875</LongitudeDegrees>
            </Position>
            <AltitudeMeters>101.1999969482421875</AltitudeMeters>
            <DistanceMeters>NAN</DistanceMeters>
          </Trackpoint>
          <Trackpoint>
            <Time>2020-05-25T07:41:31.000Z</Time>
            <Position>
              <LatitudeDegrees>38.02544577978551387786865234375</LatitudeDegrees>
              <LongitudeDegrees>-1.1625563912093639373779296875</LongitudeDegrees>
            </Position>
            <AltitudeMeters>100.40000152587890625</AltitudeMeters>
            <DistanceMeters>NAN</DistanceMeters>
          </Trackpoint>
          <Trackpoint>
            <Time>2020-05-25T07:41:32.000Z</Time>
            <Position>
              <LatitudeDegrees>38.02537470124661922454833984375</LatitudeDegrees>
              <LongitudeDegrees>-1.1625941097736358642578125</LongitudeDegrees>
            </Position>
            <AltitudeMeters>99.8000030517578125</AltitudeMeters>
            <DistanceMeters>NAN</DistanceMeters>
          </Trackpoint>
          <Trackpoint>
            <Time>2020-05-25T07:41:33.000Z</Time>
            <Position>
              <LatitudeDegrees>38.02530446089804172515869140625</LatitudeDegrees>
              <LongitudeDegrees>-1.16263995878398418426513671875</LongitudeDegrees>
            </Position>
            <AltitudeMeters>99</AltitudeMeters>
            <DistanceMeters>NAN</DistanceMeters>
          </Trackpoint>
          <Trackpoint>
            <Time>2020-05-25T07:41:34.000Z</Time>
            <Position>
              <LatitudeDegrees>38.02523531019687652587890625</LatitudeDegrees>
              <LongitudeDegrees>-1.16269058547914028167724609375</LongitudeDegrees>
            </Position>
            <AltitudeMeters>98.40000152587890625</AltitudeMeters>
            <DistanceMeters>NAN</DistanceMeters>
          </Trackpoint>
          <Trackpoint>
            <Time>2020-05-25T07:41:35.000Z</Time>
            <Position>
              <LatitudeDegrees>38.0251687578856945037841796875</LatitudeDegrees>
              <LongitudeDegrees>-1.16274439729750156402587890625</LongitudeDegrees>
            </Position>
            <AltitudeMeters>97.8000030517578125</AltitudeMeters>
            <DistanceMeters>NAN</DistanceMeters>
          </Trackpoint>
          <Trackpoint>
            <Time>2020-05-25T07:41:36.000Z</Time>
            <Position>
              <LatitudeDegrees>38.025104887783527374267578125</LatitudeDegrees>
              <LongitudeDegrees>-1.162802986800670623779296875</LongitudeDegrees>
            </Position>
            <AltitudeMeters>97.1999969482421875</AltitudeMeters>
            <DistanceMeters>NAN</DistanceMeters>
          </Trackpoint>
          <Trackpoint>
            <Time>2020-05-25T07:41:37.000Z</Time>
            <Position>
              <LatitudeDegrees>38.02504026331007480621337890625</LatitudeDegrees>
              <LongitudeDegrees>-1.1628658510744571685791015625</LongitudeDegrees>
            </Position>
            <AltitudeMeters>97</AltitudeMeters>
            <DistanceMeters>NAN</DistanceMeters>
          </Trackpoint>
          <Trackpoint>
            <Time>2020-05-25T07:41:38.000Z</Time>
            <Position>
              <LatitudeDegrees>38.0249722860753536224365234375</LatitudeDegrees>
              <LongitudeDegrees>-1.16292745806276798248291015625</LongitudeDegrees>
            </Position>
            <AltitudeMeters>97.1999969482421875</AltitudeMeters>
            <DistanceMeters>NAN</DistanceMeters>
          </Trackpoint>
          <Trackpoint>
            <Time>2020-05-25T07:41:39.000Z</Time>
            <Position>
              <LatitudeDegrees>38.024900369346141815185546875</LatitudeDegrees>
              <LongitudeDegrees>-1.16298546083271503448486328125</LongitudeDegrees>
            </Position>
            <AltitudeMeters>97.1999969482421875</AltitudeMeters>
            <DistanceMeters>NAN</DistanceMeters>
          </Trackpoint>
          <Trackpoint>
            <Time>2020-05-25T07:41:40.000Z</Time>
            <Position>
              <LatitudeDegrees>38.02482149563729763031005859375</LatitudeDegrees>
              <LongitudeDegrees>-1.16302954964339733123779296875</LongitudeDegrees>
            </Position>
            <AltitudeMeters>97.40000152587890625</AltitudeMeters>
            <DistanceMeters>NAN</DistanceMeters>
          </Trackpoint>
          <Trackpoint>
            <Time>2020-05-25T07:41:41.000Z</Time>
            <Position>
              <LatitudeDegrees>38.02473449148237705230712890625</LatitudeDegrees>
              <LongitudeDegrees>-1.16305469535291194915771484375</LongitudeDegrees>
            </Position>
            <AltitudeMeters>97.40000152587890625</AltitudeMeters>
            <DistanceMeters>NAN</DistanceMeters>
          </Trackpoint>
          <Trackpoint>
            <Time>2020-05-25T07:41:42.000Z</Time>
            <Position>
              <LatitudeDegrees>38.02464187145233154296875</LatitudeDegrees>
              <LongitudeDegrees>-1.1630619876086711883544921875</LongitudeDegrees>
            </Position>
            <AltitudeMeters>97.59999847412109375</AltitudeMeters>
            <DistanceMeters>NAN</DistanceMeters>
          </Trackpoint>
          <Trackpoint>
            <Time>2020-05-25T07:41:43.000Z</Time>
            <Position>
              <LatitudeDegrees>38.02454908378422260284423828125</LatitudeDegrees>
              <LongitudeDegrees>-1.16305184550583362579345703125</LongitudeDegrees>
            </Position>
            <AltitudeMeters>97.59999847412109375</AltitudeMeters>
            <DistanceMeters>NAN</DistanceMeters>
          </Trackpoint>
          <Trackpoint>
            <Time>2020-05-25T07:41:44.000Z</Time>
            <Position>
              <LatitudeDegrees>38.0244583077728748321533203125</LatitudeDegrees>
              <LongitudeDegrees>-1.16302267648279666900634765625</LongitudeDegrees>
            </Position>
            <AltitudeMeters>97.8000030517578125</AltitudeMeters>
            <DistanceMeters>NAN</DistanceMeters>
          </Trackpoint>
          <Trackpoint>
            <Time>2020-05-25T07:41:45.000Z</Time>
            <Position>
              <LatitudeDegrees>38.02436954341828823089599609375</LatitudeDegrees>
              <LongitudeDegrees>-1.16298579610884189605712890625</LongitudeDegrees>
            </Position>
            <AltitudeMeters>97.8000030517578125</AltitudeMeters>
            <DistanceMeters>NAN</DistanceMeters>
          </Trackpoint>
          <Trackpoint>
            <Time>2020-05-25T07:41:46.000Z</Time>
            <Position>
              <LatitudeDegrees>38.0242869816720485687255859375</LatitudeDegrees>
              <LongitudeDegrees>-1.16292159073054790496826171875</LongitudeDegrees>
            </Position>
            <AltitudeMeters>97.59999847412109375</AltitudeMeters>
            <DistanceMeters>NAN</DistanceMeters>
          </Trackpoint>
          <Trackpoint>
            <Time>2020-05-25T07:41:47.000Z</Time>
            <Position>
              <LatitudeDegrees>38.0242113769054412841796875</LatitudeDegrees>
              <LongitudeDegrees>-1.1628467403352260589599609375</LongitudeDegrees>
            </Position>
            <AltitudeMeters>97.40000152587890625</AltitudeMeters>
            <DistanceMeters>NAN</DistanceMeters>
          </Trackpoint>
          <Trackpoint>
            <Time>2020-05-25T07:41:48.000Z</Time>
            <Position>
              <LatitudeDegrees>38.02414440549910068511962890625</LatitudeDegrees>
              <LongitudeDegrees>-1.16276216693222522735595703125</LongitudeDegrees>
            </Position>
            <AltitudeMeters>97</AltitudeMeters>
            <DistanceMeters>NAN</DistanceMeters>
          </Trackpoint>
          <Trackpoint>
            <Time>2020-05-25T07:41:49.000Z</Time>
            <Position>
              <LatitudeDegrees>38.0240757577121257781982421875</LatitudeDegrees>
              <LongitudeDegrees>-1.16267901845276355743408203125</LongitudeDegrees>
            </Position>
            <AltitudeMeters>96.8000030517578125</AltitudeMeters>
            <DistanceMeters>NAN</DistanceMeters>
          </Trackpoint>
          <Trackpoint>
            <Time>2020-05-25T07:41:50.000Z</Time>
            <Position>
              <LatitudeDegrees>38.02400677464902400970458984375</LatitudeDegrees>
              <LongitudeDegrees>-1.16260156966745853424072265625</LongitudeDegrees>
            </Position>
            <AltitudeMeters>96.40000152587890625</AltitudeMeters>
            <DistanceMeters>NAN</DistanceMeters>
          </Trackpoint>
          <Trackpoint>
            <Time>2020-05-25T07:41:51.000Z</Time>
            <Position>
              <LatitudeDegrees>38.0239342711865901947021484375</LatitudeDegrees>
              <LongitudeDegrees>-1.16253216750919818878173828125</LongitudeDegrees>
            </Position>
            <AltitudeMeters>96.40000152587890625</AltitudeMeters>
            <DistanceMeters>NAN</DistanceMeters>
          </Trackpoint>
          <Trackpoint>
            <Time>2020-05-25T07:41:52.000Z</Time>
            <Position>
              <LatitudeDegrees>38.02386126480996608734130859375</LatitudeDegrees>
              <LongitudeDegrees>-1.1624655313789844512939453125</LongitudeDegrees>
            </Position>
            <AltitudeMeters>96.1999969482421875</AltitudeMeters>
            <DistanceMeters>NAN</DistanceMeters>
          </Trackpoint>
          <Trackpoint>
            <Time>2020-05-25T07:41:53.000Z</Time>
            <Position>
              <LatitudeDegrees>38.02378566004335880279541015625</LatitudeDegrees>
              <LongitudeDegrees>-1.16240325383841991424560546875</LongitudeDegrees>
            </Position>
            <AltitudeMeters>96.1999969482421875</AltitudeMeters>
            <DistanceMeters>NAN</DistanceMeters>
          </Trackpoint>
          <Trackpoint>
            <Time>2020-05-25T07:41:54.000Z</Time>
            <Position>
              <LatitudeDegrees>38.0237071216106414794921875</LatitudeDegrees>
              <LongitudeDegrees>-1.16234424524009227752685546875</LongitudeDegrees>
            </Position>
            <AltitudeMeters>96</AltitudeMeters>
            <DistanceMeters>NAN</DistanceMeters>
          </Trackpoint>
          <Trackpoint>
            <Time>2020-05-25T07:41:55.000Z</Time>
            <Position>
              <LatitudeDegrees>38.02362539805471897125244140625</LatitudeDegrees>
              <LongitudeDegrees>-1.162289679050445556640625</LongitudeDegrees>
            </Position>
            <AltitudeMeters>96</AltitudeMeters>
            <DistanceMeters>NAN</DistanceMeters>
          </Trackpoint>
          <Trackpoint>
            <Time>2020-05-25T07:41:56.000Z</Time>
            <Position>
              <LatitudeDegrees>38.0235436744987964630126953125</LatitudeDegrees>
              <LongitudeDegrees>-1.16223611868917942047119140625</LongitudeDegrees>
            </Position>
            <AltitudeMeters>95.8000030517578125</AltitudeMeters>
            <DistanceMeters>NAN</DistanceMeters>
          </Trackpoint>
          <Trackpoint>
            <Time>2020-05-25T07:41:57.000Z</Time>
            <Position>
              <LatitudeDegrees>38.02346094511449337005615234375</LatitudeDegrees>
              <LongitudeDegrees>-1.16218348033726215362548828125</LongitudeDegrees>
            </Position>
            <AltitudeMeters>95.40000152587890625</AltitudeMeters>
            <DistanceMeters>NAN</DistanceMeters>
          </Trackpoint>
          <Trackpoint>
            <Time>2020-05-25T07:41:58.000Z</Time>
            <Position>
              <LatitudeDegrees>38.02337595261633396148681640625</LatitudeDegrees>
              <LongitudeDegrees>-1.16213067434728145599365234375</LongitudeDegrees>
            </Position>
            <AltitudeMeters>94.8000030517578125</AltitudeMeters>
            <DistanceMeters>NAN</DistanceMeters>
          </Trackpoint>
          <Trackpoint>
            <Time>2020-05-25T07:41:59.000Z</Time>
            <Position>
              <LatitudeDegrees>38.0232913792133331298828125</LatitudeDegrees>
              <LongitudeDegrees>-1.16207736544311046600341796875</LongitudeDegrees>
            </Position>
            <AltitudeMeters>94.1999969482421875</AltitudeMeters>
            <DistanceMeters>NAN</DistanceMeters>
          </Trackpoint>
          <Trackpoint>
            <Time>2020-05-25T07:42:00.000Z</Time>
            <Position>
              <LatitudeDegrees>38.02320630289614200592041015625</LatitudeDegrees>
              <LongitudeDegrees>-1.16202615201473236083984375</LongitudeDegrees>
            </Position>
            <AltitudeMeters>93.40000152587890625</AltitudeMeters>
            <DistanceMeters>NAN</DistanceMeters>
          </Trackpoint>
          <Trackpoint>
            <Time>2020-05-25T07:42:01.000Z</Time>
            <Position>
              <LatitudeDegrees>38.02312147803604602813720703125</LatitudeDegrees>
              <LongitudeDegrees>-1.1619746871292591094970703125</LongitudeDegrees>
            </Position>
            <AltitudeMeters>92.8000030517578125</AltitudeMeters>
            <DistanceMeters>NAN</DistanceMeters>
          </Trackpoint>
          <Trackpoint>
            <Time>2020-05-25T07:42:02.000Z</Time>
            <Position>
              <LatitudeDegrees>38.0230387486517429351806640625</LatitudeDegrees>
              <LongitudeDegrees>-1.1619235575199127197265625</LongitudeDegrees>
            </Position>
            <AltitudeMeters>92</AltitudeMeters>
            <DistanceMeters>NAN</DistanceMeters>
          </Trackpoint>
          <Trackpoint>
            <Time>2020-05-25T07:42:03.000Z</Time>
            <Position>
              <LatitudeDegrees>38.02295635454356670379638671875</LatitudeDegrees>
              <LongitudeDegrees>-1.16187150590121746063232421875</LongitudeDegrees>
            </Position>
            <AltitudeMeters>91.40000152587890625</AltitudeMeters>
            <DistanceMeters>NAN</DistanceMeters>
          </Trackpoint>
          <Trackpoint>
            <Time>2020-05-25T07:42:04.000Z</Time>
            <Position>
              <LatitudeDegrees>38.0228756368160247802734375</LatitudeDegrees>
              <LongitudeDegrees>-1.1618201248347759246826171875</LongitudeDegrees>
            </Position>
            <AltitudeMeters>91.1999969482421875</AltitudeMeters>
            <DistanceMeters>NAN</DistanceMeters>
          </Trackpoint>
          <Trackpoint>
            <Time>2020-05-25T07:42:05.000Z</Time>
            <Position>
              <LatitudeDegrees>38.02279525436460971832275390625</LatitudeDegrees>
              <LongitudeDegrees>-1.1617668159306049346923828125</LongitudeDegrees>
            </Position>
            <AltitudeMeters>90.8000030517578125</AltitudeMeters>
            <DistanceMeters>NAN</DistanceMeters>
          </Trackpoint>
          <Trackpoint>
            <Time>2020-05-25T07:42:06.000Z</Time>
            <Position>
              <LatitudeDegrees>38.02271529100835323333740234375</LatitudeDegrees>
              <LongitudeDegrees>-1.1617161892354488372802734375</LongitudeDegrees>
            </Position>
            <AltitudeMeters>90.40000152587890625</AltitudeMeters>
            <DistanceMeters>NAN</DistanceMeters>
          </Trackpoint>
          <Trackpoint>
            <Time>2020-05-25T07:42:07.000Z</Time>
            <Position>
              <LatitudeDegrees>38.02263499237596988677978515625</LatitudeDegrees>
              <LongitudeDegrees>-1.16166673600673675537109375</LongitudeDegrees>
            </Position>
            <AltitudeMeters>90.1999969482421875</AltitudeMeters>
            <DistanceMeters>NAN</DistanceMeters>
          </Trackpoint>
          <Trackpoint>
            <Time>2020-05-25T07:42:08.000Z</Time>
            <Position>
              <LatitudeDegrees>38.0225569568574428558349609375</LatitudeDegrees>
              <LongitudeDegrees>-1.16161837242543697357177734375</LongitudeDegrees>
            </Position>
            <AltitudeMeters>89.8000030517578125</AltitudeMeters>
            <DistanceMeters>NAN</DistanceMeters>
          </Trackpoint>
          <Trackpoint>
            <Time>2020-05-25T07:42:09.000Z</Time>
            <Position>
              <LatitudeDegrees>38.0224813520908355712890625</LatitudeDegrees>
              <LongitudeDegrees>-1.161570847034454345703125</LongitudeDegrees>
            </Position>
            <AltitudeMeters>89.40000152587890625</AltitudeMeters>
            <DistanceMeters>NAN</DistanceMeters>
          </Trackpoint>
          <Trackpoint>
            <Time>2020-05-25T07:42:10.000Z</Time>
            <Position>
              <LatitudeDegrees>38.0224064178764820098876953125</LatitudeDegrees>
              <LongitudeDegrees>-1.1615265905857086181640625</LongitudeDegrees>
            </Position>
            <AltitudeMeters>89.1999969482421875</AltitudeMeters>
            <DistanceMeters>NAN</DistanceMeters>
          </Trackpoint>
          <Trackpoint>
            <Time>2020-05-25T07:42:11.000Z</Time>
            <Position>
              <LatitudeDegrees>38.02233139984309673309326171875</LatitudeDegrees>
              <LongitudeDegrees>-1.1614868603646755218505859375</LongitudeDegrees>
            </Position>
            <AltitudeMeters>89</AltitudeMeters>
            <DistanceMeters>NAN</DistanceMeters>
          </Trackpoint>
          <Trackpoint>
            <Time>2020-05-25T07:42:12.000Z</Time>
            <Position>
              <LatitudeDegrees>38.022255040705204010009765625</LatitudeDegrees>
              <LongitudeDegrees>-1.16145618259906768798828125</LongitudeDegrees>
            </Position>
            <AltitudeMeters>88.59999847412109375</AltitudeMeters>
            <DistanceMeters>NAN</DistanceMeters>
          </Trackpoint>
          <Trackpoint>
            <Time>2020-05-25T07:42:13.000Z</Time>
            <Position>
              <LatitudeDegrees>38.02217759191989898681640625</LatitudeDegrees>
              <LongitudeDegrees>-1.161443106830120086669921875</LongitudeDegrees>
            </Position>
            <AltitudeMeters>88.59999847412109375</AltitudeMeters>
            <DistanceMeters>NAN</DistanceMeters>
          </Trackpoint>
          <Trackpoint>
            <Time>2020-05-25T07:42:14.000Z</Time>
            <Position>
              <LatitudeDegrees>38.02210056222975254058837890625</LatitudeDegrees>
              <LongitudeDegrees>-1.161448471248149871826171875</LongitudeDegrees>
            </Position>
            <AltitudeMeters>88.40000152587890625</AltitudeMeters>
            <DistanceMeters>NAN</DistanceMeters>
          </Trackpoint>
          <Trackpoint>
            <Time>2020-05-25T07:42:15.000Z</Time>
            <Position>
              <LatitudeDegrees>38.02202470600605010986328125</LatitudeDegrees>
              <LongitudeDegrees>-1.161471270024776458740234375</LongitudeDegrees>
            </Position>
            <AltitudeMeters>88.40000152587890625</AltitudeMeters>
            <DistanceMeters>NAN</DistanceMeters>
          </Trackpoint>
          <Trackpoint>
            <Time>2020-05-25T07:42:16.000Z</Time>
            <Position>
              <LatitudeDegrees>38.02195136435329914093017578125</LatitudeDegrees>
              <LongitudeDegrees>-1.16150588728487491607666015625</LongitudeDegrees>
            </Position>
            <AltitudeMeters>88.59999847412109375</AltitudeMeters>
            <DistanceMeters>NAN</DistanceMeters>
          </Trackpoint>
          <Trackpoint>
            <Time>2020-05-25T07:42:17.000Z</Time>
            <Position>
              <LatitudeDegrees>38.0218807049095630645751953125</LatitudeDegrees>
              <LongitudeDegrees>-1.16154427640140056610107421875</LongitudeDegrees>
            </Position>
            <AltitudeMeters>88.59999847412109375</AltitudeMeters>
            <DistanceMeters>NAN</DistanceMeters>
          </Trackpoint>
          <Trackpoint>
            <Time>2020-05-25T07:42:18.000Z</Time>
            <Position>
              <LatitudeDegrees>38.02181323058903217315673828125</LatitudeDegrees>
              <LongitudeDegrees>-1.16158367134630680084228515625</LongitudeDegrees>
            </Position>
            <AltitudeMeters>88.8000030517578125</AltitudeMeters>
            <DistanceMeters>NAN</DistanceMeters>
          </Trackpoint>
          <Trackpoint>
            <Time>2020-05-25T07:42:19.000Z</Time>
            <Position>
              <LatitudeDegrees>38.0217576585710048675537109375</LatitudeDegrees>
              <LongitudeDegrees>-1.161622814834117889404296875</LongitudeDegrees>
            </Position>
            <AltitudeMeters>88.8000030517578125</AltitudeMeters>
            <DistanceMeters>NAN</DistanceMeters>
          </Trackpoint>
          <Trackpoint>
            <Time>2020-05-25T07:42:20.000Z</Time>
            <Position>
              <LatitudeDegrees>38.02171893417835235595703125</LatitudeDegrees>
              <LongitudeDegrees>-1.1616591922938823699951171875</LongitudeDegrees>
            </Position>
            <AltitudeMeters>88.8000030517578125</AltitudeMeters>
            <DistanceMeters>NAN</DistanceMeters>
          </Trackpoint>
          <Trackpoint>
            <Time>2020-05-25T07:42:21.000Z</Time>
            <Position>
              <LatitudeDegrees>38.0217003263533115386962890625</LatitudeDegrees>
              <LongitudeDegrees>-1.1616893671452999114990234375</LongitudeDegrees>
            </Position>
            <AltitudeMeters>88.59999847412109375</AltitudeMeters>
            <DistanceMeters>NAN</DistanceMeters>
          </Trackpoint>
          <Trackpoint>
            <Time>2020-05-25T07:42:22.000Z</Time>
            <Position>
              <LatitudeDegrees>38.0216919444501399993896484375</LatitudeDegrees>
              <LongitudeDegrees>-1.161714009940624237060546875</LongitudeDegrees>
            </Position>
            <AltitudeMeters>88.8000030517578125</AltitudeMeters>
            <DistanceMeters>NAN</DistanceMeters>
          </Trackpoint>
          <Trackpoint>
            <Time>2020-05-25T07:42:23.000Z</Time>
            <Position>
              <LatitudeDegrees>38.02168968133628368377685546875</LatitudeDegrees>
              <LongitudeDegrees>-1.16173706017434597015380859375</LongitudeDegrees>
            </Position>
            <AltitudeMeters>88.8000030517578125</AltitudeMeters>
            <DistanceMeters>NAN</DistanceMeters>
          </Trackpoint>
          <Trackpoint>
            <Time>2020-05-25T07:42:24.000Z</Time>
            <Position>
              <LatitudeDegrees>38.02168951369822025299072265625</LatitudeDegrees>
              <LongitudeDegrees>-1.16176388226449489593505859375</LongitudeDegrees>
            </Position>
            <AltitudeMeters>89</AltitudeMeters>
            <DistanceMeters>NAN</DistanceMeters>
          </Trackpoint>
          <Trackpoint>
            <Time>2020-05-25T07:42:25.000Z</Time>
            <Position>
              <LatitudeDegrees>38.021691106259822845458984375</LatitudeDegrees>
              <LongitudeDegrees>-1.16179254837334156036376953125</LongitudeDegrees>
            </Position>
            <AltitudeMeters>89</AltitudeMeters>
            <DistanceMeters>NAN</DistanceMeters>
          </Trackpoint>
          <Trackpoint>
            <Time>2020-05-25T07:42:26.000Z</Time>
            <Position>
              <LatitudeDegrees>38.02169211208820343017578125</LatitudeDegrees>
              <LongitudeDegrees>-1.16182557307183742523193359375</LongitudeDegrees>
            </Position>
            <AltitudeMeters>89.1999969482421875</AltitudeMeters>
            <DistanceMeters>NAN</DistanceMeters>
          </Trackpoint>
          <Trackpoint>
            <Time>2020-05-25T07:42:27.000Z</Time>
            <Position>
              <LatitudeDegrees>38.0216966383159160614013671875</LatitudeDegrees>
              <LongitudeDegrees>-1.161864213645458221435546875</LongitudeDegrees>
            </Position>
            <AltitudeMeters>89.40000152587890625</AltitudeMeters>
            <DistanceMeters>NAN</DistanceMeters>
          </Trackpoint>
          <Trackpoint>
            <Time>2020-05-25T07:42:28.000Z</Time>
            <Position>
              <LatitudeDegrees>38.021701835095882415771484375</LatitudeDegrees>
              <LongitudeDegrees>-1.1619062907993793487548828125</LongitudeDegrees>
            </Position>
            <AltitudeMeters>89.8000030517578125</AltitudeMeters>
            <DistanceMeters>NAN</DistanceMeters>
          </Trackpoint>
          <Trackpoint>
            <Time>2020-05-25T07:42:29.000Z</Time>
            <Position>
              <LatitudeDegrees>38.02169957198202610015869140625</LatitudeDegrees>
              <LongitudeDegrees>-1.1619488708674907684326171875</LongitudeDegrees>
            </Position>
            <AltitudeMeters>90</AltitudeMeters>
            <DistanceMeters>NAN</DistanceMeters>
          </Trackpoint>
          <Trackpoint>
            <Time>2020-05-25T07:42:30.000Z</Time>
            <Position>
              <LatitudeDegrees>38.021688424050807952880859375</LatitudeDegrees>
              <LongitudeDegrees>-1.161996982991695404052734375</LongitudeDegrees>
            </Position>
            <AltitudeMeters>90</AltitudeMeters>
            <DistanceMeters>NAN</DistanceMeters>
          </Trackpoint>
          <Trackpoint>
            <Time>2020-05-25T07:42:31.000Z</Time>
            <Position>
              <LatitudeDegrees>38.02167476154863834381103515625</LatitudeDegrees>
              <LongitudeDegrees>-1.16204618476331233978271484375</LongitudeDegrees>
            </Position>
            <AltitudeMeters>90.1999969482421875</AltitudeMeters>
            <DistanceMeters>NAN</DistanceMeters>
          </Trackpoint>
          <Trackpoint>
            <Time>2020-05-25T07:42:32.000Z</Time>
            <Position>
              <LatitudeDegrees>38.0216538906097412109375</LatitudeDegrees>
              <LongitudeDegrees>-1.1620947159826755523681640625</LongitudeDegrees>
            </Position>
            <AltitudeMeters>90.1999969482421875</AltitudeMeters>
            <DistanceMeters>NAN</DistanceMeters>
          </Trackpoint>
          <Trackpoint>
            <Time>2020-05-25T07:42:33.000Z</Time>
            <Position>
              <LatitudeDegrees>38.021624386310577392578125</LatitudeDegrees>
              <LongitudeDegrees>-1.16214391775429248809814453125</LongitudeDegrees>
            </Position>
            <AltitudeMeters>90.1999969482421875</AltitudeMeters>
            <DistanceMeters>NAN</DistanceMeters>
          </Trackpoint>
          <Trackpoint>
            <Time>2020-05-25T07:42:34.000Z</Time>
            <Position>
              <LatitudeDegrees>38.0215923674404621124267578125</LatitudeDegrees>
              <LongitudeDegrees>-1.16219303570687770843505859375</LongitudeDegrees>
            </Position>
            <AltitudeMeters>90</AltitudeMeters>
            <DistanceMeters>NAN</DistanceMeters>
          </Trackpoint>
          <Trackpoint>
            <Time>2020-05-25T07:42:35.000Z</Time>
            <Position>
              <LatitudeDegrees>38.02155590616166591644287109375</LatitudeDegrees>
              <LongitudeDegrees>-1.162242405116558074951171875</LongitudeDegrees>
            </Position>
            <AltitudeMeters>90</AltitudeMeters>
            <DistanceMeters>NAN</DistanceMeters>
          </Trackpoint>
          <Trackpoint>
            <Time>2020-05-25T07:42:36.000Z</Time>
            <Position>
              <LatitudeDegrees>38.02150578238070011138916015625</LatitudeDegrees>
              <LongitudeDegrees>-1.16228976286947727203369140625</LongitudeDegrees>
            </Position>
            <AltitudeMeters>89.59999847412109375</AltitudeMeters>
            <DistanceMeters>NAN</DistanceMeters>
          </Trackpoint>
          <Trackpoint>
            <Time>2020-05-25T07:42:37.000Z</Time>
            <Position>
              <LatitudeDegrees>38.021452389657497406005859375</LatitudeDegrees>
              <LongitudeDegrees>-1.162329576909542083740234375</LongitudeDegrees>
            </Position>
            <AltitudeMeters>89.1999969482421875</AltitudeMeters>
            <DistanceMeters>NAN</DistanceMeters>
          </Trackpoint>
          <Trackpoint>
            <Time>2020-05-25T07:42:38.000Z</Time>
            <Position>
              <LatitudeDegrees>38.0213898606598377227783203125</LatitudeDegrees>
              <LongitudeDegrees>-1.16235631518065929412841796875</LongitudeDegrees>
            </Position>
            <AltitudeMeters>88.59999847412109375</AltitudeMeters>
            <DistanceMeters>NAN</DistanceMeters>
          </Trackpoint>
          <Trackpoint>
            <Time>2020-05-25T07:42:39.000Z</Time>
            <Position>
              <LatitudeDegrees>38.02132305689156055450439453125</LatitudeDegrees>
              <LongitudeDegrees>-1.16236972622573375701904296875</LongitudeDegrees>
            </Position>
            <AltitudeMeters>87.8000030517578125</AltitudeMeters>
            <DistanceMeters>NAN</DistanceMeters>
          </Trackpoint>
          <Trackpoint>
            <Time>2020-05-25T07:42:40.000Z</Time>
            <Position>
              <LatitudeDegrees>38.021255247294902801513671875</LatitudeDegrees>
              <LongitudeDegrees>-1.1623686365783214569091796875</LongitudeDegrees>
            </Position>
            <AltitudeMeters>87.1999969482421875</AltitudeMeters>
            <DistanceMeters>NAN</DistanceMeters>
          </Trackpoint>
          <Trackpoint>
            <Time>2020-05-25T07:42:41.000Z</Time>
            <Position>
              <LatitudeDegrees>38.0211876891553401947021484375</LatitudeDegrees>
              <LongitudeDegrees>-1.16235262714326381683349609375</LongitudeDegrees>
            </Position>
            <AltitudeMeters>86.59999847412109375</AltitudeMeters>
            <DistanceMeters>NAN</DistanceMeters>
          </Trackpoint>
          <Trackpoint>
            <Time>2020-05-25T07:42:42.000Z</Time>
            <Position>
              <LatitudeDegrees>38.02111904136836528778076171875</LatitudeDegrees>
              <LongitudeDegrees>-1.16232513450086116790771484375</LongitudeDegrees>
            </Position>
            <AltitudeMeters>86</AltitudeMeters>
            <DistanceMeters>NAN</DistanceMeters>
          </Trackpoint>
          <Trackpoint>
            <Time>2020-05-25T07:42:43.000Z</Time>
            <Position>
              <LatitudeDegrees>38.02105374634265899658203125</LatitudeDegrees>
              <LongitudeDegrees>-1.16228506900370121002197265625</LongitudeDegrees>
            </Position>
            <AltitudeMeters>85.1999969482421875</AltitudeMeters>
            <DistanceMeters>NAN</DistanceMeters>
          </Trackpoint>
          <Trackpoint>
            <Time>2020-05-25T07:42:44.000Z</Time>
            <Position>
              <LatitudeDegrees>38.0209955759346485137939453125</LatitudeDegrees>
              <LongitudeDegrees>-1.16223176009953022003173828125</LongitudeDegrees>
            </Position>
            <AltitudeMeters>84.59999847412109375</AltitudeMeters>
            <DistanceMeters>NAN</DistanceMeters>
          </Trackpoint>
          <Trackpoint>
            <Time>2020-05-25T07:42:45.000Z</Time>
            <Position>
              <LatitudeDegrees>38.02094511687755584716796875</LatitudeDegrees>
              <LongitudeDegrees>-1.1621657945215702056884765625</LongitudeDegrees>
            </Position>
            <AltitudeMeters>84.59999847412109375</AltitudeMeters>
            <DistanceMeters>NAN</DistanceMeters>
          </Trackpoint>
          <Trackpoint>
            <Time>2020-05-25T07:42:46.000Z</Time>
            <Position>
              <LatitudeDegrees>38.02090664394199848175048828125</LatitudeDegrees>
              <LongitudeDegrees>-1.162091195583343505859375</LongitudeDegrees>
            </Position>
            <AltitudeMeters>85.1999969482421875</AltitudeMeters>
            <DistanceMeters>NAN</DistanceMeters>
          </Trackpoint>
          <Trackpoint>
            <Time>2020-05-25T07:42:47.000Z</Time>
            <Position>
              <LatitudeDegrees>38.0208792351186275482177734375</LatitudeDegrees>
              <LongitudeDegrees>-1.1620120704174041748046875</LongitudeDegrees>
            </Position>
            <AltitudeMeters>85.59999847412109375</AltitudeMeters>
            <DistanceMeters>NAN</DistanceMeters>
          </Trackpoint>
          <Trackpoint>
            <Time>2020-05-25T07:42:48.000Z</Time>
            <Position>
              <LatitudeDegrees>38.0208586156368255615234375</LatitudeDegrees>
              <LongitudeDegrees>-1.16192825138568878173828125</LongitudeDegrees>
            </Position>
            <AltitudeMeters>86</AltitudeMeters>
            <DistanceMeters>NAN</DistanceMeters>
          </Trackpoint>
          <Trackpoint>
            <Time>2020-05-25T07:42:49.000Z</Time>
            <Position>
              <LatitudeDegrees>38.02084210328757762908935546875</LatitudeDegrees>
              <LongitudeDegrees>-1.16184434853494167327880859375</LongitudeDegrees>
            </Position>
            <AltitudeMeters>86.59999847412109375</AltitudeMeters>
            <DistanceMeters>NAN</DistanceMeters>
          </Trackpoint>
          <Trackpoint>
            <Time>2020-05-25T07:42:50.000Z</Time>
            <Position>
              <LatitudeDegrees>38.02081846632063388824462890625</LatitudeDegrees>
              <LongitudeDegrees>-1.16176522336900234222412109375</LongitudeDegrees>
            </Position>
            <AltitudeMeters>87</AltitudeMeters>
            <DistanceMeters>NAN</DistanceMeters>
          </Trackpoint>
          <Trackpoint>
            <Time>2020-05-25T07:42:51.000Z</Time>
            <Position>
              <LatitudeDegrees>38.0207823403179645538330078125</LatitudeDegrees>
              <LongitudeDegrees>-1.16169297136366367340087890625</LongitudeDegrees>
            </Position>
            <AltitudeMeters>87.59999847412109375</AltitudeMeters>
            <DistanceMeters>NAN</DistanceMeters>
          </Trackpoint>
          <Trackpoint>
            <Time>2020-05-25T07:42:52.000Z</Time>
            <Position>
              <LatitudeDegrees>38.020736239850521087646484375</LatitudeDegrees>
              <LongitudeDegrees>-1.161626838147640228271484375</LongitudeDegrees>
            </Position>
            <AltitudeMeters>87.8000030517578125</AltitudeMeters>
            <DistanceMeters>NAN</DistanceMeters>
          </Trackpoint>
          <Trackpoint>
            <Time>2020-05-25T07:42:53.000Z</Time>
            <Position>
              <LatitudeDegrees>38.020678572356700897216796875</LatitudeDegrees>
              <LongitudeDegrees>-1.16157554090023040771484375</LongitudeDegrees>
            </Position>
            <AltitudeMeters>88</AltitudeMeters>
            <DistanceMeters>NAN</DistanceMeters>
          </Trackpoint>
          <Trackpoint>
            <Time>2020-05-25T07:42:54.000Z</Time>
            <Position>
              <LatitudeDegrees>38.0206145346164703369140625</LatitudeDegrees>
              <LongitudeDegrees>-1.1615294404327869415283203125</LongitudeDegrees>
            </Position>
            <AltitudeMeters>88.1999969482421875</AltitudeMeters>
            <DistanceMeters>NAN</DistanceMeters>
          </Trackpoint>
          <Trackpoint>
            <Time>2020-05-25T07:42:55.000Z</Time>
            <Position>
              <LatitudeDegrees>38.02054907195270061492919921875</LatitudeDegrees>
              <LongitudeDegrees>-1.1614888720214366912841796875</LongitudeDegrees>
            </Position>
            <AltitudeMeters>88.40000152587890625</AltitudeMeters>
            <DistanceMeters>NAN</DistanceMeters>
          </Trackpoint>
          <Trackpoint>
            <Time>2020-05-25T07:42:56.000Z</Time>
            <Position>
              <LatitudeDegrees>38.020482771098613739013671875</LatitudeDegrees>
              <LongitudeDegrees>-1.1614516563713550567626953125</LongitudeDegrees>
            </Position>
            <AltitudeMeters>88.40000152587890625</AltitudeMeters>
            <DistanceMeters>NAN</DistanceMeters>
          </Trackpoint>
          <Trackpoint>
            <Time>2020-05-25T07:42:57.000Z</Time>
            <Position>
              <LatitudeDegrees>38.02041563205420970916748046875</LatitudeDegrees>
              <LongitudeDegrees>-1.16140949539840221405029296875</LongitudeDegrees>
            </Position>
            <AltitudeMeters>88.59999847412109375</AltitudeMeters>
            <DistanceMeters>NAN</DistanceMeters>
          </Trackpoint>
          <Trackpoint>
            <Time>2020-05-25T07:42:58.000Z</Time>
            <Position>
              <LatitudeDegrees>38.02034622989594936370849609375</LatitudeDegrees>
              <LongitudeDegrees>-1.16136540658771991729736328125</LongitudeDegrees>
            </Position>
            <AltitudeMeters>88.59999847412109375</AltitudeMeters>
            <DistanceMeters>NAN</DistanceMeters>
          </Trackpoint>
          <Trackpoint>
            <Time>2020-05-25T07:42:59.000Z</Time>
            <Position>
              <LatitudeDegrees>38.020273558795452117919921875</LatitudeDegrees>
              <LongitudeDegrees>-1.16132232360541820526123046875</LongitudeDegrees>
            </Position>
            <AltitudeMeters>88.8000030517578125</AltitudeMeters>
            <DistanceMeters>NAN</DistanceMeters>
          </Trackpoint>
          <Trackpoint>
            <Time>2020-05-25T07:43:00.000Z</Time>
            <Position>
              <LatitudeDegrees>38.02019686438143253326416015625</LatitudeDegrees>
              <LongitudeDegrees>-1.1612783186137676239013671875</LongitudeDegrees>
            </Position>
            <AltitudeMeters>88.1999969482421875</AltitudeMeters>
            <DistanceMeters>NAN</DistanceMeters>
          </Trackpoint>
          <Trackpoint>
            <Time>2020-05-25T07:43:01.000Z</Time>
            <Position>
              <LatitudeDegrees>38.0201263725757598876953125</LatitudeDegrees>
              <LongitudeDegrees>-1.16123330779373645782470703125</LongitudeDegrees>
            </Position>
            <AltitudeMeters>87</AltitudeMeters>
            <DistanceMeters>NAN</DistanceMeters>
          </Trackpoint>
          <Trackpoint>
            <Time>2020-05-25T07:43:02.000Z</Time>
            <Position>
              <LatitudeDegrees>38.0200527794659137725830078125</LatitudeDegrees>
              <LongitudeDegrees>-1.161188967525959014892578125</LongitudeDegrees>
            </Position>
            <AltitudeMeters>86</AltitudeMeters>
            <DistanceMeters>NAN</DistanceMeters>
          </Trackpoint>
          <Trackpoint>
            <Time>2020-05-25T07:43:03.000Z</Time>
            <Position>
              <LatitudeDegrees>38.01998044364154338836669921875</LatitudeDegrees>
              <LongitudeDegrees>-1.16114194504916667938232421875</LongitudeDegrees>
            </Position>
            <AltitudeMeters>85.40000152587890625</AltitudeMeters>
            <DistanceMeters>NAN</DistanceMeters>
          </Trackpoint>
          <Trackpoint>
            <Time>2020-05-25T07:43:04.000Z</Time>
            <Position>
              <LatitudeDegrees>38.01990718580782413482666015625</LatitudeDegrees>
              <LongitudeDegrees>-1.16109349764883518218994140625</LongitudeDegrees>
            </Position>
            <AltitudeMeters>84.8000030517578125</AltitudeMeters>
            <DistanceMeters>NAN</DistanceMeters>
          </Trackpoint>
          <Trackpoint>
            <Time>2020-05-25T07:43:05.000Z</Time>
            <Position>
              <LatitudeDegrees>38.01983342505991458892822265625</LatitudeDegrees>
              <LongitudeDegrees>-1.161045469343662261962890625</LongitudeDegrees>
            </Position>
            <AltitudeMeters>84.1999969482421875</AltitudeMeters>
            <DistanceMeters>NAN</DistanceMeters>
          </Trackpoint>
          <Trackpoint>
            <Time>2020-05-25T07:43:06.000Z</Time>
            <Position>
              <LatitudeDegrees>38.019757904112339019775390625</LatitudeDegrees>
              <LongitudeDegrees>-1.16099677048623561859130859375</LongitudeDegrees>
            </Position>
            <AltitudeMeters>83.59999847412109375</AltitudeMeters>
            <DistanceMeters>NAN</DistanceMeters>
          </Trackpoint>
          <Trackpoint>
            <Time>2020-05-25T07:43:07.000Z</Time>
            <Position>
              <LatitudeDegrees>38.01968255080282688140869140625</LatitudeDegrees>
              <LongitudeDegrees>-1.16094782017171382904052734375</LongitudeDegrees>
            </Position>
            <AltitudeMeters>83.40000152587890625</AltitudeMeters>
            <DistanceMeters>NAN</DistanceMeters>
          </Trackpoint>
          <Trackpoint>
            <Time>2020-05-25T07:43:08.000Z</Time>
            <Position>
              <LatitudeDegrees>38.019607365131378173828125</LatitudeDegrees>
              <LongitudeDegrees>-1.16089836694300174713134765625</LongitudeDegrees>
            </Position>
            <AltitudeMeters>83.40000152587890625</AltitudeMeters>
            <DistanceMeters>NAN</DistanceMeters>
          </Trackpoint>
          <Trackpoint>
            <Time>2020-05-25T07:43:09.000Z</Time>
            <Position>
              <LatitudeDegrees>38.0195327661931514739990234375</LatitudeDegrees>
              <LongitudeDegrees>-1.1608481593430042266845703125</LongitudeDegrees>
            </Position>
            <AltitudeMeters>83.59999847412109375</AltitudeMeters>
            <DistanceMeters>NAN</DistanceMeters>
          </Trackpoint>
          <Trackpoint>
            <Time>2020-05-25T07:43:10.000Z</Time>
            <Position>
              <LatitudeDegrees>38.0194583348929882049560546875</LatitudeDegrees>
              <LongitudeDegrees>-1.16079661063849925994873046875</LongitudeDegrees>
            </Position>
            <AltitudeMeters>83.8000030517578125</AltitudeMeters>
            <DistanceMeters>NAN</DistanceMeters>
          </Trackpoint>
          <Trackpoint>
            <Time>2020-05-25T07:43:11.000Z</Time>
            <Position>
              <LatitudeDegrees>38.019385077059268951416015625</LatitudeDegrees>
              <LongitudeDegrees>-1.1607452295720577239990234375</LongitudeDegrees>
            </Position>
            <AltitudeMeters>83.8000030517578125</AltitudeMeters>
            <DistanceMeters>NAN</DistanceMeters>
          </Trackpoint>
          <Trackpoint>
            <Time>2020-05-25T07:43:12.000Z</Time>
            <Position>
              <LatitudeDegrees>38.0193141661584377288818359375</LatitudeDegrees>
              <LongitudeDegrees>-1.160695441067218780517578125</LongitudeDegrees>
            </Position>
            <AltitudeMeters>84</AltitudeMeters>
            <DistanceMeters>NAN</DistanceMeters>
          </Trackpoint>
          <Trackpoint>
            <Time>2020-05-25T07:43:13.000Z</Time>
            <Position>
              <LatitudeDegrees>38.01924266852438449859619140625</LatitudeDegrees>
              <LongitudeDegrees>-1.1606476642191410064697265625</LongitudeDegrees>
            </Position>
            <AltitudeMeters>84</AltitudeMeters>
            <DistanceMeters>NAN</DistanceMeters>
          </Trackpoint>
          <Trackpoint>
            <Time>2020-05-25T07:43:14.000Z</Time>
            <Position>
              <LatitudeDegrees>38.01917192526161670684814453125</LatitudeDegrees>
              <LongitudeDegrees>-1.16060080938041210174560546875</LongitudeDegrees>
            </Position>
            <AltitudeMeters>83.40000152587890625</AltitudeMeters>
            <DistanceMeters>NAN</DistanceMeters>
          </Trackpoint>
          <Trackpoint>
            <Time>2020-05-25T07:43:15.000Z</Time>
            <Position>
              <LatitudeDegrees>38.01910017617046833038330078125</LatitudeDegrees>
              <LongitudeDegrees>-1.1605527810752391815185546875</LongitudeDegrees>
            </Position>
            <AltitudeMeters>82.59999847412109375</AltitudeMeters>
            <DistanceMeters>NAN</DistanceMeters>
          </Trackpoint>
          <Trackpoint>
            <Time>2020-05-25T07:43:16.000Z</Time>
            <Position>
              <LatitudeDegrees>38.0190275050699710845947265625</LatitudeDegrees>
              <LongitudeDegrees>-1.16050274111330509185791015625</LongitudeDegrees>
            </Position>
            <AltitudeMeters>82</AltitudeMeters>
            <DistanceMeters>NAN</DistanceMeters>
          </Trackpoint>
          <Trackpoint>
            <Time>2020-05-25T07:43:17.000Z</Time>
            <Position>
              <LatitudeDegrees>38.01895223557949066162109375</LatitudeDegrees>
              <LongitudeDegrees>-1.16045412607491016387939453125</LongitudeDegrees>
            </Position>
            <AltitudeMeters>81.1999969482421875</AltitudeMeters>
            <DistanceMeters>NAN</DistanceMeters>
          </Trackpoint>
          <Trackpoint>
            <Time>2020-05-25T07:43:18.000Z</Time>
            <Position>
              <LatitudeDegrees>38.01887855865061283111572265625</LatitudeDegrees>
              <LongitudeDegrees>-1.16040341556072235107421875</LongitudeDegrees>
            </Position>
            <AltitudeMeters>80.59999847412109375</AltitudeMeters>
            <DistanceMeters>NAN</DistanceMeters>
          </Trackpoint>
          <Trackpoint>
            <Time>2020-05-25T07:43:19.000Z</Time>
            <Position>
              <LatitudeDegrees>38.01880513317883014678955078125</LatitudeDegrees>
              <LongitudeDegrees>-1.16035287268459796905517578125</LongitudeDegrees>
            </Position>
            <AltitudeMeters>79.8000030517578125</AltitudeMeters>
            <DistanceMeters>NAN</DistanceMeters>
          </Trackpoint>
          <Trackpoint>
            <Time>2020-05-25T07:43:20.000Z</Time>
            <Position>
              <LatitudeDegrees>38.01873120479285717010498046875</LatitudeDegrees>
              <LongitudeDegrees>-1.16030241362750530242919921875</LongitudeDegrees>
            </Position>
            <AltitudeMeters>79.1999969482421875</AltitudeMeters>
            <DistanceMeters>NAN</DistanceMeters>
          </Trackpoint>
          <Trackpoint>
            <Time>2020-05-25T07:43:21.000Z</Time>
            <Position>
              <LatitudeDegrees>38.01865828223526477813720703125</LatitudeDegrees>
              <LongitudeDegrees>-1.1602527089416980743408203125</LongitudeDegrees>
            </Position>
            <AltitudeMeters>79.59999847412109375</AltitudeMeters>
            <DistanceMeters>NAN</DistanceMeters>
          </Trackpoint>
          <Trackpoint>
            <Time>2020-05-25T07:43:22.000Z</Time>
            <Position>
              <LatitudeDegrees>38.01858284510672092437744140625</LatitudeDegrees>
              <LongitudeDegrees>-1.16020015440881252288818359375</LongitudeDegrees>
            </Position>
            <AltitudeMeters>80</AltitudeMeters>
            <DistanceMeters>NAN</DistanceMeters>
          </Trackpoint>
          <Trackpoint>
            <Time>2020-05-25T07:43:23.000Z</Time>
            <Position>
              <LatitudeDegrees>38.018507324159145355224609375</LatitudeDegrees>
              <LongitudeDegrees>-1.1601467616856098175048828125</LongitudeDegrees>
            </Position>
            <AltitudeMeters>80.59999847412109375</AltitudeMeters>
            <DistanceMeters>NAN</DistanceMeters>
          </Trackpoint>
          <Trackpoint>
            <Time>2020-05-25T07:43:24.000Z</Time>
            <Position>
              <LatitudeDegrees>38.01843163557350635528564453125</LatitudeDegrees>
              <LongitudeDegrees>-1.160093285143375396728515625</LongitudeDegrees>
            </Position>
            <AltitudeMeters>81</AltitudeMeters>
            <DistanceMeters>NAN</DistanceMeters>
          </Trackpoint>
          <Trackpoint>
            <Time>2020-05-25T07:43:25.000Z</Time>
            <Position>
              <LatitudeDegrees>38.0183572880923748016357421875</LatitudeDegrees>
              <LongitudeDegrees>-1.16004106588661670684814453125</LongitudeDegrees>
            </Position>
            <AltitudeMeters>81.40000152587890625</AltitudeMeters>
            <DistanceMeters>NAN</DistanceMeters>
          </Trackpoint>
          <Trackpoint>
            <Time>2020-05-25T07:43:26.000Z</Time>
            <Position>
              <LatitudeDegrees>38.018282353878021240234375</LatitudeDegrees>
              <LongitudeDegrees>-1.15998893044888973236083984375</LongitudeDegrees>
            </Position>
            <AltitudeMeters>81.8000030517578125</AltitudeMeters>
            <DistanceMeters>NAN</DistanceMeters>
          </Trackpoint>
          <Trackpoint>
            <Time>2020-05-25T07:43:27.000Z</Time>
            <Position>
              <LatitudeDegrees>38.0182057432830333709716796875</LatitudeDegrees>
              <LongitudeDegrees>-1.15993562154471874237060546875</LongitudeDegrees>
            </Position>
            <AltitudeMeters>82.1999969482421875</AltitudeMeters>
            <DistanceMeters>NAN</DistanceMeters>
          </Trackpoint>
          <Trackpoint>
            <Time>2020-05-25T07:43:28.000Z</Time>
            <Position>
              <LatitudeDegrees>38.01812946796417236328125</LatitudeDegrees>
              <LongitudeDegrees>-1.159882731735706329345703125</LongitudeDegrees>
            </Position>
            <AltitudeMeters>82.8000030517578125</AltitudeMeters>
            <DistanceMeters>NAN</DistanceMeters>
          </Trackpoint>
          <Trackpoint>
            <Time>2020-05-25T07:43:29.000Z</Time>
            <Position>
              <LatitudeDegrees>38.01805243827402591705322265625</LatitudeDegrees>
              <LongitudeDegrees>-1.15982833318412303924560546875</LongitudeDegrees>
            </Position>
            <AltitudeMeters>83.1999969482421875</AltitudeMeters>
            <DistanceMeters>NAN</DistanceMeters>
          </Trackpoint>
          <Trackpoint>
            <Time>2020-05-25T07:43:30.000Z</Time>
            <Position>
              <LatitudeDegrees>38.0179754085838794708251953125</LatitudeDegrees>
              <LongitudeDegrees>-1.1597746051847934722900390625</LongitudeDegrees>
            </Position>
            <AltitudeMeters>83.59999847412109375</AltitudeMeters>
            <DistanceMeters>NAN</DistanceMeters>
          </Trackpoint>
          <Trackpoint>
            <Time>2020-05-25T07:43:31.000Z</Time>
            <Position>
              <LatitudeDegrees>38.01789812743663787841796875</LatitudeDegrees>
              <LongitudeDegrees>-1.1597192846238613128662109375</LongitudeDegrees>
            </Position>
            <AltitudeMeters>83.59999847412109375</AltitudeMeters>
            <DistanceMeters>NAN</DistanceMeters>
          </Trackpoint>
          <Trackpoint>
            <Time>2020-05-25T07:43:32.000Z</Time>
            <Position>
              <LatitudeDegrees>38.01781992428004741668701171875</LatitudeDegrees>
              <LongitudeDegrees>-1.1596673168241977691650390625</LongitudeDegrees>
            </Position>
            <AltitudeMeters>83.59999847412109375</AltitudeMeters>
            <DistanceMeters>NAN</DistanceMeters>
          </Trackpoint>
          <Trackpoint>
            <Time>2020-05-25T07:43:33.000Z</Time>
            <Position>
              <LatitudeDegrees>38.01774297840893268585205078125</LatitudeDegrees>
              <LongitudeDegrees>-1.159614510834217071533203125</LongitudeDegrees>
            </Position>
            <AltitudeMeters>83.59999847412109375</AltitudeMeters>
            <DistanceMeters>NAN</DistanceMeters>
          </Trackpoint>
          <Trackpoint>
            <Time>2020-05-25T07:43:34.000Z</Time>
            <Position>
              <LatitudeDegrees>38.0176656134426593780517578125</LatitudeDegrees>
              <LongitudeDegrees>-1.15956262685358524322509765625</LongitudeDegrees>
            </Position>
            <AltitudeMeters>83.1999969482421875</AltitudeMeters>
            <DistanceMeters>NAN</DistanceMeters>
          </Trackpoint>
          <Trackpoint>
            <Time>2020-05-25T07:43:35.000Z</Time>
            <Position>
              <LatitudeDegrees>38.01758908666670322418212890625</LatitudeDegrees>
              <LongitudeDegrees>-1.1595104075968265533447265625</LongitudeDegrees>
            </Position>
            <AltitudeMeters>82.8000030517578125</AltitudeMeters>
            <DistanceMeters>NAN</DistanceMeters>
          </Trackpoint>
          <Trackpoint>
            <Time>2020-05-25T07:43:36.000Z</Time>
            <Position>
              <LatitudeDegrees>38.01751214079558849334716796875</LatitudeDegrees>
              <LongitudeDegrees>-1.15946304984390735626220703125</LongitudeDegrees>
            </Position>
            <AltitudeMeters>81.59999847412109375</AltitudeMeters>
            <DistanceMeters>NAN</DistanceMeters>
          </Trackpoint>
          <Trackpoint>
            <Time>2020-05-25T07:43:37.000Z</Time>
            <Position>
              <LatitudeDegrees>38.01743410527706146240234375</LatitudeDegrees>
              <LongitudeDegrees>-1.15941795520484447479248046875</LongitudeDegrees>
            </Position>
            <AltitudeMeters>80.1999969482421875</AltitudeMeters>
            <DistanceMeters>NAN</DistanceMeters>
          </Trackpoint>
          <Trackpoint>
            <Time>2020-05-25T07:43:38.000Z</Time>
            <Position>
              <LatitudeDegrees>38.01735590212047100067138671875</LatitudeDegrees>
              <LongitudeDegrees>-1.159385181963443756103515625</LongitudeDegrees>
            </Position>
            <AltitudeMeters>79</AltitudeMeters>
            <DistanceMeters>NAN</DistanceMeters>
          </Trackpoint>
          <Trackpoint>
            <Time>2020-05-25T07:43:39.000Z</Time>
            <Position>
              <LatitudeDegrees>38.01727325655519962310791015625</LatitudeDegrees>
              <LongitudeDegrees>-1.15938023664057254791259765625</LongitudeDegrees>
            </Position>
            <AltitudeMeters>78</AltitudeMeters>
            <DistanceMeters>NAN</DistanceMeters>
          </Trackpoint>
          <Trackpoint>
            <Time>2020-05-25T07:43:40.000Z</Time>
            <Position>
              <LatitudeDegrees>38.017191030085086822509765625</LatitudeDegrees>
              <LongitudeDegrees>-1.15938895381987094879150390625</LongitudeDegrees>
            </Position>
            <AltitudeMeters>77</AltitudeMeters>
            <DistanceMeters>NAN</DistanceMeters>
          </Trackpoint>
          <Trackpoint>
            <Time>2020-05-25T07:43:41.000Z</Time>
            <Position>
              <LatitudeDegrees>38.0171090550720691680908203125</LatitudeDegrees>
              <LongitudeDegrees>-1.15939431823790073394775390625</LongitudeDegrees>
            </Position>
            <AltitudeMeters>76</AltitudeMeters>
            <DistanceMeters>NAN</DistanceMeters>
          </Trackpoint>
          <Trackpoint>
            <Time>2020-05-25T07:43:42.000Z</Time>
            <Position>
              <LatitudeDegrees>38.0170284211635589599609375</LatitudeDegrees>
              <LongitudeDegrees>-1.1593843437731266021728515625</LongitudeDegrees>
            </Position>
            <AltitudeMeters>75.8000030517578125</AltitudeMeters>
            <DistanceMeters>NAN</DistanceMeters>
          </Trackpoint>
          <Trackpoint>
            <Time>2020-05-25T07:43:43.000Z</Time>
            <Position>
              <LatitudeDegrees>38.01695407368242740631103515625</LatitudeDegrees>
              <LongitudeDegrees>-1.15935039706528186798095703125</LongitudeDegrees>
            </Position>
            <AltitudeMeters>75.40000152587890625</AltitudeMeters>
            <DistanceMeters>NAN</DistanceMeters>
          </Trackpoint>
          <Trackpoint>
            <Time>2020-05-25T07:43:44.000Z</Time>
            <Position>
              <LatitudeDegrees>38.0168889462947845458984375</LatitudeDegrees>
              <LongitudeDegrees>-1.15928652696311473846435546875</LongitudeDegrees>
            </Position>
            <AltitudeMeters>75.40000152587890625</AltitudeMeters>
            <DistanceMeters>NAN</DistanceMeters>
          </Trackpoint>
          <Trackpoint>
            <Time>2020-05-25T07:43:45.000Z</Time>
            <Position>
              <LatitudeDegrees>38.01683790050446987152099609375</LatitudeDegrees>
              <LongitudeDegrees>-1.1592022888362407684326171875</LongitudeDegrees>
            </Position>
            <AltitudeMeters>75.40000152587890625</AltitudeMeters>
            <DistanceMeters>NAN</DistanceMeters>
          </Trackpoint>
          <Trackpoint>
            <Time>2020-05-25T07:43:46.000Z</Time>
            <Position>
              <LatitudeDegrees>38.01679917611181735992431640625</LatitudeDegrees>
              <LongitudeDegrees>-1.1591077409684658050537109375</LongitudeDegrees>
            </Position>
            <AltitudeMeters>75.59999847412109375</AltitudeMeters>
            <DistanceMeters>NAN</DistanceMeters>
          </Trackpoint>
          <Trackpoint>
            <Time>2020-05-25T07:43:47.000Z</Time>
            <Position>
              <LatitudeDegrees>38.0167603679001331329345703125</LatitudeDegrees>
              <LongitudeDegrees>-1.15901495330035686492919921875</LongitudeDegrees>
            </Position>
            <AltitudeMeters>75.8000030517578125</AltitudeMeters>
            <DistanceMeters>NAN</DistanceMeters>
          </Trackpoint>
          <Trackpoint>
            <Time>2020-05-25T07:43:48.000Z</Time>
            <Position>
              <LatitudeDegrees>38.01671535708010196685791015625</LatitudeDegrees>
              <LongitudeDegrees>-1.1589328944683074951171875</LongitudeDegrees>
            </Position>
            <AltitudeMeters>75.8000030517578125</AltitudeMeters>
            <DistanceMeters>NAN</DistanceMeters>
          </Trackpoint>
          <Trackpoint>
            <Time>2020-05-25T07:43:49.000Z</Time>
            <Position>
              <LatitudeDegrees>38.0166597850620746612548828125</LatitudeDegrees>
              <LongitudeDegrees>-1.15886257030069828033447265625</LongitudeDegrees>
            </Position>
            <AltitudeMeters>75.40000152587890625</AltitudeMeters>
            <DistanceMeters>NAN</DistanceMeters>
          </Trackpoint>
          <Trackpoint>
            <Time>2020-05-25T07:43:50.000Z</Time>
            <Position>
              <LatitudeDegrees>38.0165940709412097930908203125</LatitudeDegrees>
              <LongitudeDegrees>-1.15880574099719524383544921875</LongitudeDegrees>
            </Position>
            <AltitudeMeters>75</AltitudeMeters>
            <DistanceMeters>NAN</DistanceMeters>
          </Trackpoint>
          <Trackpoint>
            <Time>2020-05-25T07:43:51.000Z</Time>
            <Position>
              <LatitudeDegrees>38.016523160040378570556640625</LatitudeDegrees>
              <LongitudeDegrees>-1.1587526835501194000244140625</LongitudeDegrees>
            </Position>
            <AltitudeMeters>74.59999847412109375</AltitudeMeters>
            <DistanceMeters>NAN</DistanceMeters>
          </Trackpoint>
          <Trackpoint>
            <Time>2020-05-25T07:43:52.000Z</Time>
            <Position>
              <LatitudeDegrees>38.01645166240632534027099609375</LatitudeDegrees>
              <LongitudeDegrees>-1.15870130248367786407470703125</LongitudeDegrees>
            </Position>
            <AltitudeMeters>74.1999969482421875</AltitudeMeters>
            <DistanceMeters>NAN</DistanceMeters>
          </Trackpoint>
          <Trackpoint>
            <Time>2020-05-25T07:43:53.000Z</Time>
            <Position>
              <LatitudeDegrees>38.0163808353245258331298828125</LatitudeDegrees>
              <LongitudeDegrees>-1.1586477421224117279052734375</LongitudeDegrees>
            </Position>
            <AltitudeMeters>73.8000030517578125</AltitudeMeters>
            <DistanceMeters>NAN</DistanceMeters>
          </Trackpoint>
          <Trackpoint>
            <Time>2020-05-25T07:43:54.000Z</Time>
            <Position>
              <LatitudeDegrees>38.016308583319187164306640625</LatitudeDegrees>
              <LongitudeDegrees>-1.15859786979854106903076171875</LongitudeDegrees>
            </Position>
            <AltitudeMeters>73.40000152587890625</AltitudeMeters>
            <DistanceMeters>NAN</DistanceMeters>
          </Trackpoint>
          <Trackpoint>
            <Time>2020-05-25T07:43:55.000Z</Time>
            <Position>
              <LatitudeDegrees>38.01623574458062648773193359375</LatitudeDegrees>
              <LongitudeDegrees>-1.15854858420789241790771484375</LongitudeDegrees>
            </Position>
            <AltitudeMeters>73.40000152587890625</AltitudeMeters>
            <DistanceMeters>NAN</DistanceMeters>
          </Trackpoint>
          <Trackpoint>
            <Time>2020-05-25T07:43:56.000Z</Time>
            <Position>
              <LatitudeDegrees>38.01616282202303409576416015625</LatitudeDegrees>
              <LongitudeDegrees>-1.15849795751273632049560546875</LongitudeDegrees>
            </Position>
            <AltitudeMeters>73.40000152587890625</AltitudeMeters>
            <DistanceMeters>NAN</DistanceMeters>
          </Trackpoint>
          <Trackpoint>
            <Time>2020-05-25T07:43:57.000Z</Time>
            <Position>
              <LatitudeDegrees>38.0160908214747905731201171875</LatitudeDegrees>
              <LongitudeDegrees>-1.1584489233791828155517578125</LongitudeDegrees>
            </Position>
            <AltitudeMeters>73.40000152587890625</AltitudeMeters>
            <DistanceMeters>NAN</DistanceMeters>
          </Trackpoint>
          <Trackpoint>
            <Time>2020-05-25T07:43:58.000Z</Time>
            <Position>
              <LatitudeDegrees>38.016019575297832489013671875</LatitudeDegrees>
              <LongitudeDegrees>-1.15839838050305843353271484375</LongitudeDegrees>
            </Position>
            <AltitudeMeters>73.40000152587890625</AltitudeMeters>
            <DistanceMeters>NAN</DistanceMeters>
          </Trackpoint>
          <Trackpoint>
            <Time>2020-05-25T07:43:59.000Z</Time>
            <Position>
              <LatitudeDegrees>38.01594941876828670501708984375</LatitudeDegrees>
              <LongitudeDegrees>-1.1583463288843631744384765625</LongitudeDegrees>
            </Position>
            <AltitudeMeters>73.40000152587890625</AltitudeMeters>
            <DistanceMeters>NAN</DistanceMeters>
          </Trackpoint>
          <Trackpoint>
            <Time>2020-05-25T07:44:00.000Z</Time>
            <Position>
              <LatitudeDegrees>38.01587716676294803619384765625</LatitudeDegrees>
              <LongitudeDegrees>-1.1582940258085727691650390625</LongitudeDegrees>
            </Position>
            <AltitudeMeters>73.40000152587890625</AltitudeMeters>
            <DistanceMeters>NAN</DistanceMeters>
          </Trackpoint>
          <Trackpoint>
            <Time>2020-05-25T07:44:01.000Z</Time>
            <Position>
              <LatitudeDegrees>38.01580340601503849029541015625</LatitudeDegrees>
              <LongitudeDegrees>-1.15824046544730663299560546875</LongitudeDegrees>
            </Position>
            <AltitudeMeters>73.40000152587890625</AltitudeMeters>
            <DistanceMeters>NAN</DistanceMeters>
          </Trackpoint>
          <Trackpoint>
            <Time>2020-05-25T07:44:02.000Z</Time>
            <Position>
              <LatitudeDegrees>38.01573048345744609832763671875</LatitudeDegrees>
              <LongitudeDegrees>-1.1581917665898799896240234375</LongitudeDegrees>
            </Position>
            <AltitudeMeters>73</AltitudeMeters>
            <DistanceMeters>NAN</DistanceMeters>
          </Trackpoint>
          <Trackpoint>
            <Time>2020-05-25T07:44:03.000Z</Time>
            <Position>
              <LatitudeDegrees>38.0156593210995197296142578125</LatitudeDegrees>
              <LongitudeDegrees>-1.1581431515514850616455078125</LongitudeDegrees>
            </Position>
            <AltitudeMeters>72.8000030517578125</AltitudeMeters>
            <DistanceMeters>NAN</DistanceMeters>
          </Trackpoint>
          <Trackpoint>
            <Time>2020-05-25T07:44:04.000Z</Time>
            <Position>
              <LatitudeDegrees>38.0155862309038639068603515625</LatitudeDegrees>
              <LongitudeDegrees>-1.15809294395148754119873046875</LongitudeDegrees>
            </Position>
            <AltitudeMeters>72.40000152587890625</AltitudeMeters>
            <DistanceMeters>NAN</DistanceMeters>
          </Trackpoint>
          <Trackpoint>
            <Time>2020-05-25T07:44:05.000Z</Time>
            <Position>
              <LatitudeDegrees>38.01551163196563720703125</LatitudeDegrees>
              <LongitudeDegrees>-1.15804298780858516693115234375</LongitudeDegrees>
            </Position>
            <AltitudeMeters>71.8000030517578125</AltitudeMeters>
            <DistanceMeters>NAN</DistanceMeters>
          </Trackpoint>
          <Trackpoint>
            <Time>2020-05-25T07:44:06.000Z</Time>
            <Position>
              <LatitudeDegrees>38.01543627865612506866455078125</LatitudeDegrees>
              <LongitudeDegrees>-1.15799169056117534637451171875</LongitudeDegrees>
            </Position>
            <AltitudeMeters>71.1999969482421875</AltitudeMeters>
            <DistanceMeters>NAN</DistanceMeters>
          </Trackpoint>
          <Trackpoint>
            <Time>2020-05-25T07:44:07.000Z</Time>
            <Position>
              <LatitudeDegrees>38.01535799168050289154052734375</LatitudeDegrees>
              <LongitudeDegrees>-1.15793787874281406402587890625</LongitudeDegrees>
            </Position>
            <AltitudeMeters>70.59999847412109375</AltitudeMeters>
            <DistanceMeters>NAN</DistanceMeters>
          </Trackpoint>
          <Trackpoint>
            <Time>2020-05-25T07:44:08.000Z</Time>
            <Position>
              <LatitudeDegrees>38.0152794532477855682373046875</LatitudeDegrees>
              <LongitudeDegrees>-1.15788239054381847381591796875</LongitudeDegrees>
            </Position>
            <AltitudeMeters>70.40000152587890625</AltitudeMeters>
            <DistanceMeters>NAN</DistanceMeters>
          </Trackpoint>
          <Trackpoint>
            <Time>2020-05-25T07:44:09.000Z</Time>
            <Position>
              <LatitudeDegrees>38.015198819339275360107421875</LatitudeDegrees>
              <LongitudeDegrees>-1.1578286625444889068603515625</LongitudeDegrees>
            </Position>
            <AltitudeMeters>70.59999847412109375</AltitudeMeters>
            <DistanceMeters>NAN</DistanceMeters>
          </Trackpoint>
          <Trackpoint>
            <Time>2020-05-25T07:44:10.000Z</Time>
            <Position>
              <LatitudeDegrees>38.01512011326849460601806640625</LatitudeDegrees>
              <LongitudeDegrees>-1.15777485072612762451171875</LongitudeDegrees>
            </Position>
            <AltitudeMeters>70.8000030517578125</AltitudeMeters>
            <DistanceMeters>NAN</DistanceMeters>
          </Trackpoint>
          <Trackpoint>
            <Time>2020-05-25T07:44:11.000Z</Time>
            <Position>
              <LatitudeDegrees>38.01504132337868213653564453125</LatitudeDegrees>
              <LongitudeDegrees>-1.15772129036486148834228515625</LongitudeDegrees>
            </Position>
            <AltitudeMeters>71</AltitudeMeters>
            <DistanceMeters>NAN</DistanceMeters>
          </Trackpoint>
          <Trackpoint>
            <Time>2020-05-25T07:44:12.000Z</Time>
            <Position>
              <LatitudeDegrees>38.01496236585080623626708984375</LatitudeDegrees>
              <LongitudeDegrees>-1.15766831673681735992431640625</LongitudeDegrees>
            </Position>
            <AltitudeMeters>71.40000152587890625</AltitudeMeters>
            <DistanceMeters>NAN</DistanceMeters>
          </Trackpoint>
          <Trackpoint>
            <Time>2020-05-25T07:44:13.000Z</Time>
            <Position>
              <LatitudeDegrees>38.01488324068486690521240234375</LatitudeDegrees>
              <LongitudeDegrees>-1.1576134152710437774658203125</LongitudeDegrees>
            </Position>
            <AltitudeMeters>71.59999847412109375</AltitudeMeters>
            <DistanceMeters>NAN</DistanceMeters>
          </Trackpoint>
          <Trackpoint>
            <Time>2020-05-25T07:44:14.000Z</Time>
            <Position>
              <LatitudeDegrees>38.014806210994720458984375</LatitudeDegrees>
              <LongitudeDegrees>-1.15755834616720676422119140625</LongitudeDegrees>
            </Position>
            <AltitudeMeters>72</AltitudeMeters>
            <DistanceMeters>NAN</DistanceMeters>
          </Trackpoint>
          <Trackpoint>
            <Time>2020-05-25T07:44:15.000Z</Time>
            <Position>
              <LatitudeDegrees>38.01472918130457401275634765625</LatitudeDegrees>
              <LongitudeDegrees>-1.15750302560627460479736328125</LongitudeDegrees>
            </Position>
            <AltitudeMeters>72.40000152587890625</AltitudeMeters>
            <DistanceMeters>NAN</DistanceMeters>
          </Trackpoint>
          <Trackpoint>
            <Time>2020-05-25T07:44:16.000Z</Time>
            <Position>
              <LatitudeDegrees>38.0146524868905544281005859375</LatitudeDegrees>
              <LongitudeDegrees>-1.1574477888643741607666015625</LongitudeDegrees>
            </Position>
            <AltitudeMeters>73</AltitudeMeters>
            <DistanceMeters>NAN</DistanceMeters>
          </Trackpoint>
          <Trackpoint>
            <Time>2020-05-25T07:44:17.000Z</Time>
            <Position>
              <LatitudeDegrees>38.01457696594297885894775390625</LatitudeDegrees>
              <LongitudeDegrees>-1.15739137865602970123291015625</LongitudeDegrees>
            </Position>
            <AltitudeMeters>73.40000152587890625</AltitudeMeters>
            <DistanceMeters>NAN</DistanceMeters>
          </Trackpoint>
          <Trackpoint>
            <Time>2020-05-25T07:44:18.000Z</Time>
            <Position>
              <LatitudeDegrees>38.01450169645249843597412109375</LatitudeDegrees>
              <LongitudeDegrees>-1.1573344655334949493408203125</LongitudeDegrees>
            </Position>
            <AltitudeMeters>73.8000030517578125</AltitudeMeters>
            <DistanceMeters>NAN</DistanceMeters>
          </Trackpoint>
          <Trackpoint>
            <Time>2020-05-25T07:44:19.000Z</Time>
            <Position>
              <LatitudeDegrees>38.014429695904254913330078125</LatitudeDegrees>
              <LongitudeDegrees>-1.15727721713483333587646484375</LongitudeDegrees>
            </Position>
            <AltitudeMeters>74.40000152587890625</AltitudeMeters>
            <DistanceMeters>NAN</DistanceMeters>
          </Trackpoint>
          <Trackpoint>
            <Time>2020-05-25T07:44:20.000Z</Time>
            <Position>
              <LatitudeDegrees>38.01436222158372402191162109375</LatitudeDegrees>
              <LongitudeDegrees>-1.15721829235553741455078125</LongitudeDegrees>
            </Position>
            <AltitudeMeters>74.59999847412109375</AltitudeMeters>
            <DistanceMeters>NAN</DistanceMeters>
          </Trackpoint>
          <Trackpoint>
            <Time>2020-05-25T07:44:21.000Z</Time>
            <Position>
              <LatitudeDegrees>38.01429986022412776947021484375</LatitudeDegrees>
              <LongitudeDegrees>-1.1571597866714000701904296875</LongitudeDegrees>
            </Position>
            <AltitudeMeters>74.59999847412109375</AltitudeMeters>
            <DistanceMeters>NAN</DistanceMeters>
          </Trackpoint>
          <Trackpoint>
            <Time>2020-05-25T07:44:22.000Z</Time>
            <Position>
              <LatitudeDegrees>38.0142414383590221405029296875</LatitudeDegrees>
              <LongitudeDegrees>-1.157105304300785064697265625</LongitudeDegrees>
            </Position>
            <AltitudeMeters>74.8000030517578125</AltitudeMeters>
            <DistanceMeters>NAN</DistanceMeters>
          </Trackpoint>
          <Trackpoint>
            <Time>2020-05-25T07:44:23.000Z</Time>
            <Position>
              <LatitudeDegrees>38.01418460905551910400390625</LatitudeDegrees>
              <LongitudeDegrees>-1.1570521630346775054931640625</LongitudeDegrees>
            </Position>
            <AltitudeMeters>74.59999847412109375</AltitudeMeters>
            <DistanceMeters>NAN</DistanceMeters>
          </Trackpoint>
          <Trackpoint>
            <Time>2020-05-25T07:44:24.000Z</Time>
            <Position>
              <LatitudeDegrees>38.01412870176136493682861328125</LatitudeDegrees>
              <LongitudeDegrees>-1.15700128488242626190185546875</LongitudeDegrees>
            </Position>
            <AltitudeMeters>74.40000152587890625</AltitudeMeters>
            <DistanceMeters>NAN</DistanceMeters>
          </Trackpoint>
          <Trackpoint>
            <Time>2020-05-25T07:44:25.000Z</Time>
            <Position>
              <LatitudeDegrees>38.01407195627689361572265625</LatitudeDegrees>
              <LongitudeDegrees>-1.15695183165371417999267578125</LongitudeDegrees>
            </Position>
            <AltitudeMeters>74.1999969482421875</AltitudeMeters>
            <DistanceMeters>NAN</DistanceMeters>
          </Trackpoint>
          <Trackpoint>
            <Time>2020-05-25T07:44:26.000Z</Time>
            <Position>
              <LatitudeDegrees>38.0140151269733905792236328125</LatitudeDegrees>
              <LongitudeDegrees>-1.1569066531956195831298828125</LongitudeDegrees>
            </Position>
            <AltitudeMeters>74</AltitudeMeters>
            <DistanceMeters>NAN</DistanceMeters>
          </Trackpoint>
          <Trackpoint>
            <Time>2020-05-25T07:44:27.000Z</Time>
            <Position>
              <LatitudeDegrees>38.01395796239376068115234375</LatitudeDegrees>
              <LongitudeDegrees>-1.15686365403234958648681640625</LongitudeDegrees>
            </Position>
            <AltitudeMeters>73.8000030517578125</AltitudeMeters>
            <DistanceMeters>NAN</DistanceMeters>
          </Trackpoint>
          <Trackpoint>
            <Time>2020-05-25T07:44:28.000Z</Time>
            <Position>
              <LatitudeDegrees>38.013904653489589691162109375</LatitudeDegrees>
              <LongitudeDegrees>-1.15682191215455532073974609375</LongitudeDegrees>
            </Position>
            <AltitudeMeters>73.59999847412109375</AltitudeMeters>
            <DistanceMeters>NAN</DistanceMeters>
          </Trackpoint>
          <Trackpoint>
            <Time>2020-05-25T07:44:29.000Z</Time>
            <Position>
              <LatitudeDegrees>38.0138568766415119171142578125</LatitudeDegrees>
              <LongitudeDegrees>-1.1567815952003002166748046875</LongitudeDegrees>
            </Position>
            <AltitudeMeters>73.40000152587890625</AltitudeMeters>
            <DistanceMeters>NAN</DistanceMeters>
          </Trackpoint>
          <Trackpoint>
            <Time>2020-05-25T07:44:30.000Z</Time>
            <Position>
              <LatitudeDegrees>38.01381655968725681304931640625</LatitudeDegrees>
              <LongitudeDegrees>-1.156742870807647705078125</LongitudeDegrees>
            </Position>
            <AltitudeMeters>73</AltitudeMeters>
            <DistanceMeters>NAN</DistanceMeters>
          </Trackpoint>
          <Trackpoint>
            <Time>2020-05-25T07:44:31.000Z</Time>
            <Position>
              <LatitudeDegrees>38.01378403790295124053955078125</LatitudeDegrees>
              <LongitudeDegrees>-1.1567135341465473175048828125</LongitudeDegrees>
            </Position>
            <AltitudeMeters>72.8000030517578125</AltitudeMeters>
            <DistanceMeters>NAN</DistanceMeters>
          </Trackpoint>
          <Trackpoint>
            <Time>2020-05-25T07:44:32.000Z</Time>
            <Position>
              <LatitudeDegrees>38.0137589760124683380126953125</LatitudeDegrees>
              <LongitudeDegrees>-1.1566878855228424072265625</LongitudeDegrees>
            </Position>
            <AltitudeMeters>72.59999847412109375</AltitudeMeters>
            <DistanceMeters>NAN</DistanceMeters>
          </Trackpoint>
          <Trackpoint>
            <Time>2020-05-25T07:44:33.000Z</Time>
            <Position>
              <LatitudeDegrees>38.01374196074903011322021484375</LatitudeDegrees>
              <LongitudeDegrees>-1.1566691100597381591796875</LongitudeDegrees>
            </Position>
            <AltitudeMeters>72.40000152587890625</AltitudeMeters>
            <DistanceMeters>NAN</DistanceMeters>
          </Trackpoint>
          <Trackpoint>
            <Time>2020-05-25T07:44:34.000Z</Time>
            <Position>
              <LatitudeDegrees>38.0137281306087970733642578125</LatitudeDegrees>
              <LongitudeDegrees>-1.15665636956691741943359375</LongitudeDegrees>
            </Position>
            <AltitudeMeters>72.1999969482421875</AltitudeMeters>
            <DistanceMeters>NAN</DistanceMeters>
          </Trackpoint>
          <Trackpoint>
            <Time>2020-05-25T07:44:35.000Z</Time>
            <Position>
              <LatitudeDegrees>38.0137160606682300567626953125</LatitudeDegrees>
              <LongitudeDegrees>-1.15664639510214328765869140625</LongitudeDegrees>
            </Position>
            <AltitudeMeters>72.1999969482421875</AltitudeMeters>
            <DistanceMeters>NAN</DistanceMeters>
          </Trackpoint>
          <Trackpoint>
            <Time>2020-05-25T07:44:36.000Z</Time>
            <Position>
              <LatitudeDegrees>38.01370583474636077880859375</LatitudeDegrees>
              <LongitudeDegrees>-1.1566441319882869720458984375</LongitudeDegrees>
            </Position>
            <AltitudeMeters>72.1999969482421875</AltitudeMeters>
            <DistanceMeters>NAN</DistanceMeters>
          </Trackpoint>
          <Trackpoint>
            <Time>2020-05-25T07:44:37.000Z</Time>
            <Position>
              <LatitudeDegrees>38.013695441186428070068359375</LatitudeDegrees>
              <LongitudeDegrees>-1.1566427908837795257568359375</LongitudeDegrees>
            </Position>
            <AltitudeMeters>72</AltitudeMeters>
            <DistanceMeters>NAN</DistanceMeters>
          </Trackpoint>
          <Trackpoint>
            <Time>2020-05-25T07:44:38.000Z</Time>
            <Position>
              <LatitudeDegrees>38.01368194632232189178466796875</LatitudeDegrees>
              <LongitudeDegrees>-1.15664220415055751800537109375</LongitudeDegrees>
            </Position>
            <AltitudeMeters>72</AltitudeMeters>
            <DistanceMeters>NAN</DistanceMeters>
          </Trackpoint>
          <Trackpoint>
            <Time>2020-05-25T07:44:39.000Z</Time>
            <Position>
              <LatitudeDegrees>38.01366551779210567474365234375</LatitudeDegrees>
              <LongitudeDegrees>-1.156640946865081787109375</LongitudeDegrees>
            </Position>
            <AltitudeMeters>71.8000030517578125</AltitudeMeters>
            <DistanceMeters>NAN</DistanceMeters>
          </Trackpoint>
          <Trackpoint>
            <Time>2020-05-25T07:44:40.000Z</Time>
            <Position>
              <LatitudeDegrees>38.01364288665354251861572265625</LatitudeDegrees>
              <LongitudeDegrees>-1.15663734264671802520751953125</LongitudeDegrees>
            </Position>
            <AltitudeMeters>71.8000030517578125</AltitudeMeters>
            <DistanceMeters>NAN</DistanceMeters>
          </Trackpoint>
          <Trackpoint>
            <Time>2020-05-25T07:44:41.000Z</Time>
            <Position>
              <LatitudeDegrees>38.01361757330596446990966796875</LatitudeDegrees>
              <LongitudeDegrees>-1.15662552416324615478515625</LongitudeDegrees>
            </Position>
            <AltitudeMeters>71.59999847412109375</AltitudeMeters>
            <DistanceMeters>NAN</DistanceMeters>
          </Trackpoint>
          <Trackpoint>
            <Time>2020-05-25T07:44:42.000Z</Time>
            <Position>
              <LatitudeDegrees>38.0135876499116420745849609375</LatitudeDegrees>
              <LongitudeDegrees>-1.156603731215000152587890625</LongitudeDegrees>
            </Position>
            <AltitudeMeters>71.40000152587890625</AltitudeMeters>
            <DistanceMeters>NAN</DistanceMeters>
          </Trackpoint>
          <Trackpoint>
            <Time>2020-05-25T07:44:43.000Z</Time>
            <Position>
              <LatitudeDegrees>38.01355705596506595611572265625</LatitudeDegrees>
              <LongitudeDegrees>-1.15657967515289783477783203125</LongitudeDegrees>
            </Position>
            <AltitudeMeters>71.1999969482421875</AltitudeMeters>
            <DistanceMeters>NAN</DistanceMeters>
          </Trackpoint>
          <Trackpoint>
            <Time>2020-05-25T07:44:44.000Z</Time>
            <Position>
              <LatitudeDegrees>38.01352520473301410675048828125</LatitudeDegrees>
              <LongitudeDegrees>-1.15655721165239810943603515625</LongitudeDegrees>
            </Position>
            <AltitudeMeters>71</AltitudeMeters>
            <DistanceMeters>NAN</DistanceMeters>
          </Trackpoint>
          <Trackpoint>
            <Time>2020-05-25T07:44:45.000Z</Time>
            <Position>
              <LatitudeDegrees>38.0134920962154865264892578125</LatitudeDegrees>
              <LongitudeDegrees>-1.1565311439335346221923828125</LongitudeDegrees>
            </Position>
            <AltitudeMeters>70.59999847412109375</AltitudeMeters>
            <DistanceMeters>NAN</DistanceMeters>
          </Trackpoint>
          <Trackpoint>
            <Time>2020-05-25T07:44:46.000Z</Time>
            <Position>
              <LatitudeDegrees>38.01345546729862689971923828125</LatitudeDegrees>
              <LongitudeDegrees>-1.15650256164371967315673828125</LongitudeDegrees>
            </Position>
            <AltitudeMeters>70.40000152587890625</AltitudeMeters>
            <DistanceMeters>NAN</DistanceMeters>
          </Trackpoint>
          <Trackpoint>
            <Time>2020-05-25T07:44:47.000Z</Time>
            <Position>
              <LatitudeDegrees>38.01341506652534008026123046875</LatitudeDegrees>
              <LongitudeDegrees>-1.156473644077777862548828125</LongitudeDegrees>
            </Position>
            <AltitudeMeters>70</AltitudeMeters>
            <DistanceMeters>NAN</DistanceMeters>
          </Trackpoint>
          <Trackpoint>
            <Time>2020-05-25T07:44:48.000Z</Time>
            <Position>
              <LatitudeDegrees>38.01337215118110179901123046875</LatitudeDegrees>
              <LongitudeDegrees>-1.15644690580666065216064453125</LongitudeDegrees>
            </Position>
            <AltitudeMeters>69.8000030517578125</AltitudeMeters>
            <DistanceMeters>NAN</DistanceMeters>
          </Trackpoint>
          <Trackpoint>
            <Time>2020-05-25T07:44:49.000Z</Time>
            <Position>
              <LatitudeDegrees>38.013320267200469970703125</LatitudeDegrees>
              <LongitudeDegrees>-1.15641337819397449493408203125</LongitudeDegrees>
            </Position>
            <AltitudeMeters>69.1999969482421875</AltitudeMeters>
            <DistanceMeters>NAN</DistanceMeters>
          </Trackpoint>
          <Trackpoint>
            <Time>2020-05-25T07:44:50.000Z</Time>
            <Position>
              <LatitudeDegrees>38.0132724903523921966552734375</LatitudeDegrees>
              <LongitudeDegrees>-1.15637850947678089141845703125</LongitudeDegrees>
            </Position>
            <AltitudeMeters>68.59999847412109375</AltitudeMeters>
            <DistanceMeters>NAN</DistanceMeters>
          </Trackpoint>
          <Trackpoint>
            <Time>2020-05-25T07:44:51.000Z</Time>
            <Position>
              <LatitudeDegrees>38.01322513259947299957275390625</LatitudeDegrees>
              <LongitudeDegrees>-1.15634255111217498779296875</LongitudeDegrees>
            </Position>
            <AltitudeMeters>68.1999969482421875</AltitudeMeters>
            <DistanceMeters>NAN</DistanceMeters>
          </Trackpoint>
          <Trackpoint>
            <Time>2020-05-25T07:44:52.000Z</Time>
            <Position>
              <LatitudeDegrees>38.01317735575139522552490234375</LatitudeDegrees>
              <LongitudeDegrees>-1.15630625747144222259521484375</LongitudeDegrees>
            </Position>
            <AltitudeMeters>67.59999847412109375</AltitudeMeters>
            <DistanceMeters>NAN</DistanceMeters>
          </Trackpoint>
          <Trackpoint>
            <Time>2020-05-25T07:44:53.000Z</Time>
            <Position>
              <LatitudeDegrees>38.01312807016074657440185546875</LatitudeDegrees>
              <LongitudeDegrees>-1.1562721431255340576171875</LongitudeDegrees>
            </Position>
            <AltitudeMeters>67</AltitudeMeters>
            <DistanceMeters>NAN</DistanceMeters>
          </Trackpoint>
          <Trackpoint>
            <Time>2020-05-25T07:44:54.000Z</Time>
            <Position>
              <LatitudeDegrees>38.01307777874171733856201171875</LatitudeDegrees>
              <LongitudeDegrees>-1.1562381125986576080322265625</LongitudeDegrees>
            </Position>
            <AltitudeMeters>66.40000152587890625</AltitudeMeters>
            <DistanceMeters>NAN</DistanceMeters>
          </Trackpoint>
          <Trackpoint>
            <Time>2020-05-25T07:44:55.000Z</Time>
            <Position>
              <LatitudeDegrees>38.013028912246227264404296875</LatitudeDegrees>
              <LongitudeDegrees>-1.15620198659598827362060546875</LongitudeDegrees>
            </Position>
            <AltitudeMeters>66</AltitudeMeters>
            <DistanceMeters>NAN</DistanceMeters>
          </Trackpoint>
          <Trackpoint>
            <Time>2020-05-25T07:44:56.000Z</Time>
            <Position>
              <LatitudeDegrees>38.01298038102686405181884765625</LatitudeDegrees>
              <LongitudeDegrees>-1.15616410039365291595458984375</LongitudeDegrees>
            </Position>
            <AltitudeMeters>65.40000152587890625</AltitudeMeters>
            <DistanceMeters>NAN</DistanceMeters>
          </Trackpoint>
          <Trackpoint>
            <Time>2020-05-25T07:44:57.000Z</Time>
            <Position>
              <LatitudeDegrees>38.0129308439791202545166015625</LatitudeDegrees>
              <LongitudeDegrees>-1.1561234481632709503173828125</LongitudeDegrees>
            </Position>
            <AltitudeMeters>64.8000030517578125</AltitudeMeters>
            <DistanceMeters>NAN</DistanceMeters>
          </Trackpoint>
          <Trackpoint>
            <Time>2020-05-25T07:44:58.000Z</Time>
            <Position>
              <LatitudeDegrees>38.0128802172839641571044921875</LatitudeDegrees>
              <LongitudeDegrees>-1.15608514286577701568603515625</LongitudeDegrees>
            </Position>
            <AltitudeMeters>65</AltitudeMeters>
            <DistanceMeters>NAN</DistanceMeters>
          </Trackpoint>
          <Trackpoint>
            <Time>2020-05-25T07:44:59.000Z</Time>
            <Position>
              <LatitudeDegrees>38.0128272436559200286865234375</LatitudeDegrees>
              <LongitudeDegrees>-1.15604574792087078094482421875</LongitudeDegrees>
            </Position>
            <AltitudeMeters>65.59999847412109375</AltitudeMeters>
            <DistanceMeters>NAN</DistanceMeters>
          </Trackpoint>
          <Trackpoint>
            <Time>2020-05-25T07:45:00.000Z</Time>
            <Position>
              <LatitudeDegrees>38.01277577877044677734375</LatitudeDegrees>
              <LongitudeDegrees>-1.156001575291156768798828125</LongitudeDegrees>
            </Position>
            <AltitudeMeters>66.1999969482421875</AltitudeMeters>
            <DistanceMeters>NAN</DistanceMeters>
          </Trackpoint>
          <Trackpoint>
            <Time>2020-05-25T07:45:01.000Z</Time>
            <Position>
              <LatitudeDegrees>38.01272439770400524139404296875</LatitudeDegrees>
              <LongitudeDegrees>-1.1559581570327281951904296875</LongitudeDegrees>
            </Position>
            <AltitudeMeters>67</AltitudeMeters>
            <DistanceMeters>NAN</DistanceMeters>
          </Trackpoint>
          <Trackpoint>
            <Time>2020-05-25T07:45:02.000Z</Time>
            <Position>
              <LatitudeDegrees>38.012668155133724212646484375</LatitudeDegrees>
              <LongitudeDegrees>-1.1559182591736316680908203125</LongitudeDegrees>
            </Position>
            <AltitudeMeters>67.59999847412109375</AltitudeMeters>
            <DistanceMeters>NAN</DistanceMeters>
          </Trackpoint>
          <Trackpoint>
            <Time>2020-05-25T07:45:03.000Z</Time>
            <Position>
              <LatitudeDegrees>38.01261241547763347625732421875</LatitudeDegrees>
              <LongitudeDegrees>-1.15587660111486911773681640625</LongitudeDegrees>
            </Position>
            <AltitudeMeters>68.1999969482421875</AltitudeMeters>
            <DistanceMeters>NAN</DistanceMeters>
          </Trackpoint>
          <Trackpoint>
            <Time>2020-05-25T07:45:04.000Z</Time>
            <Position>
              <LatitudeDegrees>38.012560196220874786376953125</LatitudeDegrees>
              <LongitudeDegrees>-1.1558284051716327667236328125</LongitudeDegrees>
            </Position>
            <AltitudeMeters>68.59999847412109375</AltitudeMeters>
            <DistanceMeters>NAN</DistanceMeters>
          </Trackpoint>
          <Trackpoint>
            <Time>2020-05-25T07:45:05.000Z</Time>
            <Position>
              <LatitudeDegrees>38.0125067196786403656005859375</LatitudeDegrees>
              <LongitudeDegrees>-1.1557831428945064544677734375</LongitudeDegrees>
            </Position>
            <AltitudeMeters>68.59999847412109375</AltitudeMeters>
            <DistanceMeters>NAN</DistanceMeters>
          </Trackpoint>
          <Trackpoint>
            <Time>2020-05-25T07:45:06.000Z</Time>
            <Position>
              <LatitudeDegrees>38.01245299167931079864501953125</LatitudeDegrees>
              <LongitudeDegrees>-1.155734695494174957275390625</LongitudeDegrees>
            </Position>
            <AltitudeMeters>68.8000030517578125</AltitudeMeters>
            <DistanceMeters>NAN</DistanceMeters>
          </Trackpoint>
          <Trackpoint>
            <Time>2020-05-25T07:45:07.000Z</Time>
            <Position>
              <LatitudeDegrees>38.01239549182355403900146484375</LatitudeDegrees>
              <LongitudeDegrees>-1.15568582899868488311767578125</LongitudeDegrees>
            </Position>
            <AltitudeMeters>68.40000152587890625</AltitudeMeters>
            <DistanceMeters>NAN</DistanceMeters>
          </Trackpoint>
          <Trackpoint>
            <Time>2020-05-25T07:45:08.000Z</Time>
            <Position>
              <LatitudeDegrees>38.0123390816152095794677734375</LatitudeDegrees>
              <LongitudeDegrees>-1.1556356213986873626708984375</LongitudeDegrees>
            </Position>
            <AltitudeMeters>67.8000030517578125</AltitudeMeters>
            <DistanceMeters>NAN</DistanceMeters>
          </Trackpoint>
          <Trackpoint>
            <Time>2020-05-25T07:45:09.000Z</Time>
            <Position>
              <LatitudeDegrees>38.0122700147330760955810546875</LatitudeDegrees>
              <LongitudeDegrees>-1.15559756755828857421875</LongitudeDegrees>
            </Position>
            <AltitudeMeters>67.1999969482421875</AltitudeMeters>
            <DistanceMeters>NAN</DistanceMeters>
          </Trackpoint>
          <Trackpoint>
            <Time>2020-05-25T07:45:10.000Z</Time>
            <Position>
              <LatitudeDegrees>38.0122113414108753204345703125</LatitudeDegrees>
              <LongitudeDegrees>-1.1555474437773227691650390625</LongitudeDegrees>
            </Position>
            <AltitudeMeters>66.40000152587890625</AltitudeMeters>
            <DistanceMeters>NAN</DistanceMeters>
          </Trackpoint>
          <Trackpoint>
            <Time>2020-05-25T07:45:11.000Z</Time>
            <Position>
              <LatitudeDegrees>38.01215560175478458404541015625</LatitudeDegrees>
              <LongitudeDegrees>-1.15549455396831035614013671875</LongitudeDegrees>
            </Position>
            <AltitudeMeters>65.59999847412109375</AltitudeMeters>
            <DistanceMeters>NAN</DistanceMeters>
          </Trackpoint>
          <Trackpoint>
            <Time>2020-05-25T07:45:12.000Z</Time>
            <Position>
              <LatitudeDegrees>38.01210145466029644012451171875</LatitudeDegrees>
              <LongitudeDegrees>-1.155442334711551666259765625</LongitudeDegrees>
            </Position>
            <AltitudeMeters>64.8000030517578125</AltitudeMeters>
            <DistanceMeters>NAN</DistanceMeters>
          </Trackpoint>
          <Trackpoint>
            <Time>2020-05-25T07:45:13.000Z</Time>
            <Position>
              <LatitudeDegrees>38.012050576508045196533203125</LatitudeDegrees>
              <LongitudeDegrees>-1.155400760471820831298828125</LongitudeDegrees>
            </Position>
            <AltitudeMeters>64</AltitudeMeters>
            <DistanceMeters>NAN</DistanceMeters>
          </Trackpoint>
          <Trackpoint>
            <Time>2020-05-25T07:45:14.000Z</Time>
            <Position>
              <LatitudeDegrees>38.01200933754444122314453125</LatitudeDegrees>
              <LongitudeDegrees>-1.155359186232089996337890625</LongitudeDegrees>
            </Position>
            <AltitudeMeters>63.40000152587890625</AltitudeMeters>
            <DistanceMeters>NAN</DistanceMeters>
          </Trackpoint>
          <Trackpoint>
            <Time>2020-05-25T07:45:15.000Z</Time>
            <Position>
              <LatitudeDegrees>38.01197580993175506591796875</LatitudeDegrees>
              <LongitudeDegrees>-1.15532331168651580810546875</LongitudeDegrees>
            </Position>
            <AltitudeMeters>63.40000152587890625</AltitudeMeters>
            <DistanceMeters>NAN</DistanceMeters>
          </Trackpoint>
          <Trackpoint>
            <Time>2020-05-25T07:45:16.000Z</Time>
            <Position>
              <LatitudeDegrees>38.011947311460971832275390625</LatitudeDegrees>
              <LongitudeDegrees>-1.15528902970254421234130859375</LongitudeDegrees>
            </Position>
            <AltitudeMeters>63.40000152587890625</AltitudeMeters>
            <DistanceMeters>NAN</DistanceMeters>
          </Trackpoint>
          <Trackpoint>
            <Time>2020-05-25T07:45:17.000Z</Time>
            <Position>
              <LatitudeDegrees>38.01192493177950382232666015625</LatitudeDegrees>
              <LongitudeDegrees>-1.155259609222412109375</LongitudeDegrees>
            </Position>
            <AltitudeMeters>63.40000152587890625</AltitudeMeters>
            <DistanceMeters>NAN</DistanceMeters>
          </Trackpoint>
          <Trackpoint>
            <Time>2020-05-25T07:45:18.000Z</Time>
            <Position>
              <LatitudeDegrees>38.0119099281728267669677734375</LatitudeDegrees>
              <LongitudeDegrees>-1.155237145721912384033203125</LongitudeDegrees>
            </Position>
            <AltitudeMeters>63.40000152587890625</AltitudeMeters>
            <DistanceMeters>NAN</DistanceMeters>
          </Trackpoint>
          <Trackpoint>
            <Time>2020-05-25T07:45:19.000Z</Time>
            <Position>
              <LatitudeDegrees>38.0118991993367671966552734375</LatitudeDegrees>
              <LongitudeDegrees>-1.155223734676837921142578125</LongitudeDegrees>
            </Position>
            <AltitudeMeters>63.40000152587890625</AltitudeMeters>
            <DistanceMeters>NAN</DistanceMeters>
          </Trackpoint>
          <Trackpoint>
            <Time>2020-05-25T07:45:20.000Z</Time>
            <Position>
              <LatitudeDegrees>38.01189207471907138824462890625</LatitudeDegrees>
              <LongitudeDegrees>-1.15521443076431751251220703125</LongitudeDegrees>
            </Position>
            <AltitudeMeters>63.40000152587890625</AltitudeMeters>
            <DistanceMeters>NAN</DistanceMeters>
          </Trackpoint>
          <Trackpoint>
            <Time>2020-05-25T07:45:21.000Z</Time>
            <Position>
              <LatitudeDegrees>38.0118874646723270416259765625</LatitudeDegrees>
              <LongitudeDegrees>-1.15520529448986053466796875</LongitudeDegrees>
            </Position>
            <AltitudeMeters>63.40000152587890625</AltitudeMeters>
            <DistanceMeters>NAN</DistanceMeters>
          </Trackpoint>
          <Trackpoint>
            <Time>2020-05-25T07:45:22.000Z</Time>
            <Position>
              <LatitudeDegrees>38.0118837766349315643310546875</LatitudeDegrees>
              <LongitudeDegrees>-1.15519766695797443389892578125</LongitudeDegrees>
            </Position>
            <AltitudeMeters>63.40000152587890625</AltitudeMeters>
            <DistanceMeters>NAN</DistanceMeters>
          </Trackpoint>
          <Trackpoint>
            <Time>2020-05-25T07:45:23.000Z</Time>
            <Position>
              <LatitudeDegrees>38.011878244578838348388671875</LatitudeDegrees>
              <LongitudeDegrees>-1.155192553997039794921875</LongitudeDegrees>
            </Position>
            <AltitudeMeters>63.40000152587890625</AltitudeMeters>
            <DistanceMeters>NAN</DistanceMeters>
          </Trackpoint>
          <Trackpoint>
            <Time>2020-05-25T07:45:24.000Z</Time>
            <Position>
              <LatitudeDegrees>38.0118800885975360870361328125</LatitudeDegrees>
              <LongitudeDegrees>-1.15519230253994464874267578125</LongitudeDegrees>
            </Position>
            <AltitudeMeters>63.40000152587890625</AltitudeMeters>
            <DistanceMeters>NAN</DistanceMeters>
          </Trackpoint>
          <Trackpoint>
            <Time>2020-05-25T07:45:25.000Z</Time>
            <Position>
              <LatitudeDegrees>38.0118827708065509796142578125</LatitudeDegrees>
              <LongitudeDegrees>-1.15518987178802490234375</LongitudeDegrees>
            </Position>
            <AltitudeMeters>63.59999847412109375</AltitudeMeters>
            <DistanceMeters>NAN</DistanceMeters>
          </Trackpoint>
          <Trackpoint>
            <Time>2020-05-25T07:45:26.000Z</Time>
            <Position>
              <LatitudeDegrees>38.01188419573009014129638671875</LatitudeDegrees>
              <LongitudeDegrees>-1.1551903747022151947021484375</LongitudeDegrees>
            </Position>
            <AltitudeMeters>63.59999847412109375</AltitudeMeters>
            <DistanceMeters>NAN</DistanceMeters>
          </Trackpoint>
          <Trackpoint>
            <Time>2020-05-25T07:45:27.000Z</Time>
            <Position>
              <LatitudeDegrees>38.01188419573009014129638671875</LatitudeDegrees>
              <LongitudeDegrees>-1.1551903747022151947021484375</LongitudeDegrees>
            </Position>
            <AltitudeMeters>63.59999847412109375</AltitudeMeters>
            <DistanceMeters>NAN</DistanceMeters>
          </Trackpoint>
          <Trackpoint>
            <Time>2020-05-25T07:45:28.000Z</Time>
            <Position>
              <LatitudeDegrees>38.01188419573009014129638671875</LatitudeDegrees>
              <LongitudeDegrees>-1.1551903747022151947021484375</LongitudeDegrees>
            </Position>
            <AltitudeMeters>63.59999847412109375</AltitudeMeters>
            <DistanceMeters>NAN</DistanceMeters>
          </Trackpoint>
          <Trackpoint>
            <Time>2020-05-25T07:45:29.000Z</Time>
            <Position>
              <LatitudeDegrees>38.01188419573009014129638671875</LatitudeDegrees>
              <LongitudeDegrees>-1.1551903747022151947021484375</LongitudeDegrees>
            </Position>
            <AltitudeMeters>63.59999847412109375</AltitudeMeters>
            <DistanceMeters>NAN</DistanceMeters>
          </Trackpoint>
          <Trackpoint>
            <Time>2020-05-25T07:45:30.000Z</Time>
            <Position>
              <LatitudeDegrees>38.01188419573009014129638671875</LatitudeDegrees>
              <LongitudeDegrees>-1.1551903747022151947021484375</LongitudeDegrees>
            </Position>
            <AltitudeMeters>63.59999847412109375</AltitudeMeters>
            <DistanceMeters>NAN</DistanceMeters>
          </Trackpoint>
          <Trackpoint>
            <Time>2020-05-25T07:45:31.000Z</Time>
            <Position>
              <LatitudeDegrees>38.01188419573009014129638671875</LatitudeDegrees>
              <LongitudeDegrees>-1.1551903747022151947021484375</LongitudeDegrees>
            </Position>
            <AltitudeMeters>63.59999847412109375</AltitudeMeters>
            <DistanceMeters>NAN</DistanceMeters>
          </Trackpoint>
          <Trackpoint>
            <Time>2020-05-25T07:45:32.000Z</Time>
            <Position>
              <LatitudeDegrees>38.01188419573009014129638671875</LatitudeDegrees>
              <LongitudeDegrees>-1.1551903747022151947021484375</LongitudeDegrees>
            </Position>
            <AltitudeMeters>63.59999847412109375</AltitudeMeters>
            <DistanceMeters>NAN</DistanceMeters>
          </Trackpoint>
          <Trackpoint>
            <Time>2020-05-25T07:45:33.000Z</Time>
            <Position>
              <LatitudeDegrees>38.01188419573009014129638671875</LatitudeDegrees>
              <LongitudeDegrees>-1.1551903747022151947021484375</LongitudeDegrees>
            </Position>
            <AltitudeMeters>63.59999847412109375</AltitudeMeters>
            <DistanceMeters>NAN</DistanceMeters>
          </Trackpoint>
          <Trackpoint>
            <Time>2020-05-25T07:45:34.000Z</Time>
            <Position>
              <LatitudeDegrees>38.01188419573009014129638671875</LatitudeDegrees>
              <LongitudeDegrees>-1.1551903747022151947021484375</LongitudeDegrees>
            </Position>
            <AltitudeMeters>63.59999847412109375</AltitudeMeters>
            <DistanceMeters>NAN</DistanceMeters>
          </Trackpoint>
          <Trackpoint>
            <Time>2020-05-25T07:45:35.000Z</Time>
            <Position>
              <LatitudeDegrees>38.01188419573009014129638671875</LatitudeDegrees>
              <LongitudeDegrees>-1.1551903747022151947021484375</LongitudeDegrees>
            </Position>
            <AltitudeMeters>63.59999847412109375</AltitudeMeters>
            <DistanceMeters>NAN</DistanceMeters>
          </Trackpoint>
          <Trackpoint>
            <Time>2020-05-25T07:45:36.000Z</Time>
            <Position>
              <LatitudeDegrees>38.01188084296882152557373046875</LatitudeDegrees>
              <LongitudeDegrees>-1.15518626756966114044189453125</LongitudeDegrees>
            </Position>
            <AltitudeMeters>63.59999847412109375</AltitudeMeters>
            <DistanceMeters>NAN</DistanceMeters>
          </Trackpoint>
          <Trackpoint>
            <Time>2020-05-25T07:45:37.000Z</Time>
            <Position>
              <LatitudeDegrees>38.01187782548367977142333984375</LatitudeDegrees>
              <LongitudeDegrees>-1.15518140606582164764404296875</LongitudeDegrees>
            </Position>
            <AltitudeMeters>63.59999847412109375</AltitudeMeters>
            <DistanceMeters>NAN</DistanceMeters>
          </Trackpoint>
          <Trackpoint>
            <Time>2020-05-25T07:45:38.000Z</Time>
            <Position>
              <LatitudeDegrees>38.01186944358050823211669921875</LatitudeDegrees>
              <LongitudeDegrees>-1.15517302416265010833740234375</LongitudeDegrees>
            </Position>
            <AltitudeMeters>63.59999847412109375</AltitudeMeters>
            <DistanceMeters>NAN</DistanceMeters>
          </Trackpoint>
          <Trackpoint>
            <Time>2020-05-25T07:45:39.000Z</Time>
            <Position>
              <LatitudeDegrees>38.011860810220241546630859375</LatitudeDegrees>
              <LongitudeDegrees>-1.15516615100204944610595703125</LongitudeDegrees>
            </Position>
            <AltitudeMeters>63.59999847412109375</AltitudeMeters>
            <DistanceMeters>NAN</DistanceMeters>
          </Trackpoint>
          <Trackpoint>
            <Time>2020-05-25T07:45:40.000Z</Time>
            <Position>
              <LatitudeDegrees>38.011841364204883575439453125</LatitudeDegrees>
              <LongitudeDegrees>-1.155147962272167205810546875</LongitudeDegrees>
            </Position>
            <AltitudeMeters>63.59999847412109375</AltitudeMeters>
            <DistanceMeters>NAN</DistanceMeters>
          </Trackpoint>
          <Trackpoint>
            <Time>2020-05-25T07:45:41.000Z</Time>
            <Position>
              <LatitudeDegrees>38.01182317547500133514404296875</LatitudeDegrees>
              <LongitudeDegrees>-1.15512709133327007293701171875</LongitudeDegrees>
            </Position>
            <AltitudeMeters>63.59999847412109375</AltitudeMeters>
            <DistanceMeters>NAN</DistanceMeters>
          </Trackpoint>
          <Trackpoint>
            <Time>2020-05-25T07:45:42.000Z</Time>
            <Position>
              <LatitudeDegrees>38.01180037669837474822998046875</LatitudeDegrees>
              <LongitudeDegrees>-1.1551062203943729400634765625</LongitudeDegrees>
            </Position>
            <AltitudeMeters>63.59999847412109375</AltitudeMeters>
            <DistanceMeters>NAN</DistanceMeters>
          </Trackpoint>
          <Trackpoint>
            <Time>2020-05-25T07:45:43.000Z</Time>
            <Position>
              <LatitudeDegrees>38.01178109832108020782470703125</LatitudeDegrees>
              <LongitudeDegrees>-1.15508216433227062225341796875</LongitudeDegrees>
            </Position>
            <AltitudeMeters>63.59999847412109375</AltitudeMeters>
            <DistanceMeters>NAN</DistanceMeters>
          </Trackpoint>
          <Trackpoint>
            <Time>2020-05-25T07:45:44.000Z</Time>
            <Position>
              <LatitudeDegrees>38.0117607302963733673095703125</LatitudeDegrees>
              <LongitudeDegrees>-1.1550606228411197662353515625</LongitudeDegrees>
            </Position>
            <AltitudeMeters>63.59999847412109375</AltitudeMeters>
            <DistanceMeters>NAN</DistanceMeters>
          </Trackpoint>
          <Trackpoint>
            <Time>2020-05-25T07:45:45.000Z</Time>
            <Position>
              <LatitudeDegrees>38.0117404460906982421875</LatitudeDegrees>
              <LongitudeDegrees>-1.15504042245447635650634765625</LongitudeDegrees>
            </Position>
            <AltitudeMeters>63.59999847412109375</AltitudeMeters>
            <DistanceMeters>NAN</DistanceMeters>
          </Trackpoint>
          <Trackpoint>
            <Time>2020-05-25T07:45:46.000Z</Time>
            <Position>
              <LatitudeDegrees>38.01171873696148395538330078125</LatitudeDegrees>
              <LongitudeDegrees>-1.155017875134944915771484375</LongitudeDegrees>
            </Position>
            <AltitudeMeters>63.59999847412109375</AltitudeMeters>
            <DistanceMeters>NAN</DistanceMeters>
          </Trackpoint>
          <Trackpoint>
            <Time>2020-05-25T07:45:47.000Z</Time>
            <Position>
              <LatitudeDegrees>38.01169660873711109161376953125</LatitudeDegrees>
              <LongitudeDegrees>-1.15499281324446201324462890625</LongitudeDegrees>
            </Position>
            <AltitudeMeters>63.59999847412109375</AltitudeMeters>
            <DistanceMeters>NAN</DistanceMeters>
          </Trackpoint>
          <Trackpoint>
            <Time>2020-05-25T07:45:48.000Z</Time>
            <Position>
              <LatitudeDegrees>38.011673726141452789306640625</LatitudeDegrees>
              <LongitudeDegrees>-1.15496791899204254150390625</LongitudeDegrees>
            </Position>
            <AltitudeMeters>63.40000152587890625</AltitudeMeters>
            <DistanceMeters>NAN</DistanceMeters>
          </Trackpoint>
          <Trackpoint>
            <Time>2020-05-25T07:45:49.000Z</Time>
            <Position>
              <LatitudeDegrees>38.01164581440389156341552734375</LatitudeDegrees>
              <LongitudeDegrees>-1.15494285710155963897705078125</LongitudeDegrees>
            </Position>
            <AltitudeMeters>63.40000152587890625</AltitudeMeters>
            <DistanceMeters>NAN</DistanceMeters>
          </Trackpoint>
          <Trackpoint>
            <Time>2020-05-25T07:45:50.000Z</Time>
            <Position>
              <LatitudeDegrees>38.01161379553377628326416015625</LatitudeDegrees>
              <LongitudeDegrees>-1.1549161188304424285888671875</LongitudeDegrees>
            </Position>
            <AltitudeMeters>63.40000152587890625</AltitudeMeters>
            <DistanceMeters>NAN</DistanceMeters>
          </Trackpoint>
          <Trackpoint>
            <Time>2020-05-25T07:45:51.000Z</Time>
            <Position>
              <LatitudeDegrees>38.0115847103297710418701171875</LatitudeDegrees>
              <LongitudeDegrees>-1.1548869498074054718017578125</LongitudeDegrees>
            </Position>
            <AltitudeMeters>63.200000762939453125</AltitudeMeters>
            <DistanceMeters>NAN</DistanceMeters>
          </Trackpoint>
          <Trackpoint>
            <Time>2020-05-25T07:45:52.000Z</Time>
            <Position>
              <LatitudeDegrees>38.011548332870006561279296875</LatitudeDegrees>
              <LongitudeDegrees>-1.15484814159572124481201171875</LongitudeDegrees>
            </Position>
            <AltitudeMeters>63.200000762939453125</AltitudeMeters>
            <DistanceMeters>NAN</DistanceMeters>
          </Trackpoint>
          <Trackpoint>
            <Time>2020-05-25T07:45:53.000Z</Time>
            <Position>
              <LatitudeDegrees>38.011512123048305511474609375</LatitudeDegrees>
              <LongitudeDegrees>-1.15480639971792697906494140625</LongitudeDegrees>
            </Position>
            <AltitudeMeters>63</AltitudeMeters>
            <DistanceMeters>NAN</DistanceMeters>
          </Trackpoint>
          <Trackpoint>
            <Time>2020-05-25T07:45:54.000Z</Time>
            <Position>
              <LatitudeDegrees>38.0114804394543170928955078125</LatitudeDegrees>
              <LongitudeDegrees>-1.1547595448791980743408203125</LongitudeDegrees>
            </Position>
            <AltitudeMeters>63</AltitudeMeters>
            <DistanceMeters>NAN</DistanceMeters>
          </Trackpoint>
          <Trackpoint>
            <Time>2020-05-25T07:45:55.000Z</Time>
            <Position>
              <LatitudeDegrees>38.01144900731742382049560546875</LatitudeDegrees>
              <LongitudeDegrees>-1.1547136120498180389404296875</LongitudeDegrees>
            </Position>
            <AltitudeMeters>62.799999237060546875</AltitudeMeters>
            <DistanceMeters>NAN</DistanceMeters>
          </Trackpoint>
          <Trackpoint>
            <Time>2020-05-25T07:45:56.000Z</Time>
            <Position>
              <LatitudeDegrees>38.01141279749572277069091796875</LatitudeDegrees>
              <LongitudeDegrees>-1.154663152992725372314453125</LongitudeDegrees>
            </Position>
            <AltitudeMeters>62.59999847412109375</AltitudeMeters>
            <DistanceMeters>NAN</DistanceMeters>
          </Trackpoint>
          <Trackpoint>
            <Time>2020-05-25T07:45:57.000Z</Time>
            <Position>
              <LatitudeDegrees>38.01137239672243595123291015625</LatitudeDegrees>
              <LongitudeDegrees>-1.15461478941142559051513671875</LongitudeDegrees>
            </Position>
            <AltitudeMeters>62.40000152587890625</AltitudeMeters>
            <DistanceMeters>NAN</DistanceMeters>
          </Trackpoint>
          <Trackpoint>
            <Time>2020-05-25T07:45:58.000Z</Time>
            <Position>
              <LatitudeDegrees>38.0113329179584980010986328125</LatitudeDegrees>
              <LongitudeDegrees>-1.154567934572696685791015625</LongitudeDegrees>
            </Position>
            <AltitudeMeters>62.200000762939453125</AltitudeMeters>
            <DistanceMeters>NAN</DistanceMeters>
          </Trackpoint>
          <Trackpoint>
            <Time>2020-05-25T07:45:59.000Z</Time>
            <Position>
              <LatitudeDegrees>38.01129310391843318939208984375</LatitudeDegrees>
              <LongitudeDegrees>-1.154520325362682342529296875</LongitudeDegrees>
            </Position>
            <AltitudeMeters>62</AltitudeMeters>
            <DistanceMeters>NAN</DistanceMeters>
          </Trackpoint>
          <Trackpoint>
            <Time>2020-05-25T07:46:00.000Z</Time>
            <Position>
              <LatitudeDegrees>38.0112474225461483001708984375</LatitudeDegrees>
              <LongitudeDegrees>-1.15447833202779293060302734375</LongitudeDegrees>
            </Position>
            <AltitudeMeters>61.799999237060546875</AltitudeMeters>
            <DistanceMeters>NAN</DistanceMeters>
          </Trackpoint>
          <Trackpoint>
            <Time>2020-05-25T07:46:01.000Z</Time>
            <Position>
              <LatitudeDegrees>38.01119453273713588714599609375</LatitudeDegrees>
              <LongitudeDegrees>-1.1544396914541721343994140625</LongitudeDegrees>
            </Position>
            <AltitudeMeters>61.799999237060546875</AltitudeMeters>
            <DistanceMeters>NAN</DistanceMeters>
          </Trackpoint>
          <Trackpoint>
            <Time>2020-05-25T07:46:02.000Z</Time>
            <Position>
              <LatitudeDegrees>38.011150360107421875</LatitudeDegrees>
              <LongitudeDegrees>-1.15440239198505878448486328125</LongitudeDegrees>
            </Position>
            <AltitudeMeters>61.799999237060546875</AltitudeMeters>
            <DistanceMeters>NAN</DistanceMeters>
          </Trackpoint>
          <Trackpoint>
            <Time>2020-05-25T07:46:03.000Z</Time>
            <Position>
              <LatitudeDegrees>38.011111803352832794189453125</LatitudeDegrees>
              <LongitudeDegrees>-1.154370121657848358154296875</LongitudeDegrees>
            </Position>
            <AltitudeMeters>61.799999237060546875</AltitudeMeters>
            <DistanceMeters>NAN</DistanceMeters>
          </Trackpoint>
          <Trackpoint>
            <Time>2020-05-25T07:46:04.000Z</Time>
            <Position>
              <LatitudeDegrees>38.01107919774949550628662109375</LatitudeDegrees>
              <LongitudeDegrees>-1.15433902479708194732666015625</LongitudeDegrees>
            </Position>
            <AltitudeMeters>61.799999237060546875</AltitudeMeters>
            <DistanceMeters>NAN</DistanceMeters>
          </Trackpoint>
          <Trackpoint>
            <Time>2020-05-25T07:46:05.000Z</Time>
            <Position>
              <LatitudeDegrees>38.011052794754505157470703125</LatitudeDegrees>
              <LongitudeDegrees>-1.15431538783013820648193359375</LongitudeDegrees>
            </Position>
            <AltitudeMeters>61.799999237060546875</AltitudeMeters>
            <DistanceMeters>NAN</DistanceMeters>
          </Trackpoint>
          <Trackpoint>
            <Time>2020-05-25T07:46:06.000Z</Time>
            <Position>
              <LatitudeDegrees>38.011033348739147186279296875</LatitudeDegrees>
              <LongitudeDegrees>-1.15429895929992198944091796875</LongitudeDegrees>
            </Position>
            <AltitudeMeters>61.799999237060546875</AltitudeMeters>
            <DistanceMeters>NAN</DistanceMeters>
          </Trackpoint>
          <Trackpoint>
            <Time>2020-05-25T07:46:07.000Z</Time>
            <Position>
              <LatitudeDegrees>38.01101784221827983856201171875</LatitudeDegrees>
              <LongitudeDegrees>-1.15428521297872066497802734375</LongitudeDegrees>
            </Position>
            <AltitudeMeters>61.799999237060546875</AltitudeMeters>
            <DistanceMeters>NAN</DistanceMeters>
          </Trackpoint>
          <Trackpoint>
            <Time>2020-05-25T07:46:08.000Z</Time>
            <Position>
              <LatitudeDegrees>38.01100627519190311431884765625</LatitudeDegrees>
              <LongitudeDegrees>-1.15427481941878795623779296875</LongitudeDegrees>
            </Position>
            <AltitudeMeters>61.799999237060546875</AltitudeMeters>
            <DistanceMeters>NAN</DistanceMeters>
          </Trackpoint>
          <Trackpoint>
            <Time>2020-05-25T07:46:09.000Z</Time>
            <Position>
              <LatitudeDegrees>38.0109989829361438751220703125</LatitudeDegrees>
              <LongitudeDegrees>-1.15426643751561641693115234375</LongitudeDegrees>
            </Position>
            <AltitudeMeters>61.799999237060546875</AltitudeMeters>
            <DistanceMeters>NAN</DistanceMeters>
          </Trackpoint>
          <Trackpoint>
            <Time>2020-05-25T07:46:10.000Z</Time>
            <Position>
              <LatitudeDegrees>38.01099412143230438232421875</LatitudeDegrees>
              <LongitudeDegrees>-1.15425922907888889312744140625</LongitudeDegrees>
            </Position>
            <AltitudeMeters>61.799999237060546875</AltitudeMeters>
            <DistanceMeters>NAN</DistanceMeters>
          </Trackpoint>
          <Trackpoint>
            <Time>2020-05-25T07:46:11.000Z</Time>
            <Position>
              <LatitudeDegrees>38.01098867319524288177490234375</LatitudeDegrees>
              <LongitudeDegrees>-1.154252104461193084716796875</LongitudeDegrees>
            </Position>
            <AltitudeMeters>61.799999237060546875</AltitudeMeters>
            <DistanceMeters>NAN</DistanceMeters>
          </Trackpoint>
          <Trackpoint>
            <Time>2020-05-25T07:46:12.000Z</Time>
            <Position>
              <LatitudeDegrees>38.01098297350108623504638671875</LatitudeDegrees>
              <LongitudeDegrees>-1.15424774587154388427734375</LongitudeDegrees>
            </Position>
            <AltitudeMeters>61.799999237060546875</AltitudeMeters>
            <DistanceMeters>NAN</DistanceMeters>
          </Trackpoint>
          <Trackpoint>
            <Time>2020-05-25T07:46:13.000Z</Time>
            <Position>
              <LatitudeDegrees>38.01097928546369075775146484375</LatitudeDegrees>
              <LongitudeDegrees>-1.1542452313005924224853515625</LongitudeDegrees>
            </Position>
            <AltitudeMeters>61.799999237060546875</AltitudeMeters>
            <DistanceMeters>NAN</DistanceMeters>
          </Trackpoint>
          <Trackpoint>
            <Time>2020-05-25T07:46:14.000Z</Time>
            <Position>
              <LatitudeDegrees>38.01097744144499301910400390625</LatitudeDegrees>
              <LongitudeDegrees>-1.15424363873898983001708984375</LongitudeDegrees>
            </Position>
            <AltitudeMeters>61.799999237060546875</AltitudeMeters>
            <DistanceMeters>NAN</DistanceMeters>
          </Trackpoint>
          <Trackpoint>
            <Time>2020-05-25T07:46:15.000Z</Time>
            <Position>
              <LatitudeDegrees>38.01097744144499301910400390625</LatitudeDegrees>
              <LongitudeDegrees>-1.15424363873898983001708984375</LongitudeDegrees>
            </Position>
            <AltitudeMeters>61.799999237060546875</AltitudeMeters>
            <DistanceMeters>NAN</DistanceMeters>
          </Trackpoint>
          <Trackpoint>
            <Time>2020-05-25T07:46:16.000Z</Time>
            <Position>
              <LatitudeDegrees>38.01097744144499301910400390625</LatitudeDegrees>
              <LongitudeDegrees>-1.15424363873898983001708984375</LongitudeDegrees>
            </Position>
            <AltitudeMeters>61.799999237060546875</AltitudeMeters>
            <DistanceMeters>NAN</DistanceMeters>
          </Trackpoint>
          <Trackpoint>
            <Time>2020-05-25T07:46:17.000Z</Time>
            <Position>
              <LatitudeDegrees>38.01097744144499301910400390625</LatitudeDegrees>
              <LongitudeDegrees>-1.15424363873898983001708984375</LongitudeDegrees>
            </Position>
            <AltitudeMeters>61.799999237060546875</AltitudeMeters>
            <DistanceMeters>NAN</DistanceMeters>
          </Trackpoint>
          <Trackpoint>
            <Time>2020-05-25T07:46:18.000Z</Time>
            <Position>
              <LatitudeDegrees>38.01097744144499301910400390625</LatitudeDegrees>
              <LongitudeDegrees>-1.15424363873898983001708984375</LongitudeDegrees>
            </Position>
            <AltitudeMeters>61.799999237060546875</AltitudeMeters>
            <DistanceMeters>NAN</DistanceMeters>
          </Trackpoint>
          <Trackpoint>
            <Time>2020-05-25T07:46:19.000Z</Time>
            <Position>
              <LatitudeDegrees>38.01097744144499301910400390625</LatitudeDegrees>
              <LongitudeDegrees>-1.15424363873898983001708984375</LongitudeDegrees>
            </Position>
            <AltitudeMeters>61.799999237060546875</AltitudeMeters>
            <DistanceMeters>NAN</DistanceMeters>
          </Trackpoint>
          <Trackpoint>
            <Time>2020-05-25T07:46:20.000Z</Time>
            <Position>
              <LatitudeDegrees>38.01097744144499301910400390625</LatitudeDegrees>
              <LongitudeDegrees>-1.15424363873898983001708984375</LongitudeDegrees>
            </Position>
            <AltitudeMeters>61.799999237060546875</AltitudeMeters>
            <DistanceMeters>NAN</DistanceMeters>
          </Trackpoint>
          <Trackpoint>
            <Time>2020-05-25T07:46:21.000Z</Time>
            <Position>
              <LatitudeDegrees>38.01097744144499301910400390625</LatitudeDegrees>
              <LongitudeDegrees>-1.15424363873898983001708984375</LongitudeDegrees>
            </Position>
            <AltitudeMeters>61.799999237060546875</AltitudeMeters>
            <DistanceMeters>NAN</DistanceMeters>
          </Trackpoint>
          <Trackpoint>
            <Time>2020-05-25T07:46:22.000Z</Time>
            <Position>
              <LatitudeDegrees>38.01097744144499301910400390625</LatitudeDegrees>
              <LongitudeDegrees>-1.15424363873898983001708984375</LongitudeDegrees>
            </Position>
            <AltitudeMeters>61.799999237060546875</AltitudeMeters>
            <DistanceMeters>NAN</DistanceMeters>
          </Trackpoint>
          <Trackpoint>
            <Time>2020-05-25T07:46:23.000Z</Time>
            <Position>
              <LatitudeDegrees>38.01097744144499301910400390625</LatitudeDegrees>
              <LongitudeDegrees>-1.15424363873898983001708984375</LongitudeDegrees>
            </Position>
            <AltitudeMeters>61.799999237060546875</AltitudeMeters>
            <DistanceMeters>NAN</DistanceMeters>
          </Trackpoint>
          <Trackpoint>
            <Time>2020-05-25T07:46:24.000Z</Time>
            <Position>
              <LatitudeDegrees>38.01097744144499301910400390625</LatitudeDegrees>
              <LongitudeDegrees>-1.15424363873898983001708984375</LongitudeDegrees>
            </Position>
            <AltitudeMeters>61.799999237060546875</AltitudeMeters>
            <DistanceMeters>NAN</DistanceMeters>
          </Trackpoint>
          <Trackpoint>
            <Time>2020-05-25T07:46:25.000Z</Time>
            <Position>
              <LatitudeDegrees>38.01097744144499301910400390625</LatitudeDegrees>
              <LongitudeDegrees>-1.15424363873898983001708984375</LongitudeDegrees>
            </Position>
            <AltitudeMeters>61.799999237060546875</AltitudeMeters>
            <DistanceMeters>NAN</DistanceMeters>
          </Trackpoint>
          <Trackpoint>
            <Time>2020-05-25T07:46:26.000Z</Time>
            <Position>
              <LatitudeDegrees>38.01097744144499301910400390625</LatitudeDegrees>
              <LongitudeDegrees>-1.15424363873898983001708984375</LongitudeDegrees>
            </Position>
            <AltitudeMeters>61.799999237060546875</AltitudeMeters>
            <DistanceMeters>NAN</DistanceMeters>
          </Trackpoint>
          <Trackpoint>
            <Time>2020-05-25T07:46:27.000Z</Time>
            <Position>
              <LatitudeDegrees>38.01097744144499301910400390625</LatitudeDegrees>
              <LongitudeDegrees>-1.15424363873898983001708984375</LongitudeDegrees>
            </Position>
            <AltitudeMeters>61.799999237060546875</AltitudeMeters>
            <DistanceMeters>NAN</DistanceMeters>
          </Trackpoint>
          <Trackpoint>
            <Time>2020-05-25T07:46:28.000Z</Time>
            <Position>
              <LatitudeDegrees>38.01097744144499301910400390625</LatitudeDegrees>
              <LongitudeDegrees>-1.15424363873898983001708984375</LongitudeDegrees>
            </Position>
            <AltitudeMeters>61.799999237060546875</AltitudeMeters>
            <DistanceMeters>NAN</DistanceMeters>
          </Trackpoint>
          <Trackpoint>
            <Time>2020-05-25T07:46:29.000Z</Time>
            <Position>
              <LatitudeDegrees>38.01097744144499301910400390625</LatitudeDegrees>
              <LongitudeDegrees>-1.15424363873898983001708984375</LongitudeDegrees>
            </Position>
            <AltitudeMeters>61.799999237060546875</AltitudeMeters>
            <DistanceMeters>NAN</DistanceMeters>
          </Trackpoint>
          <Trackpoint>
            <Time>2020-05-25T07:46:30.000Z</Time>
            <Position>
              <LatitudeDegrees>38.01097744144499301910400390625</LatitudeDegrees>
              <LongitudeDegrees>-1.15424363873898983001708984375</LongitudeDegrees>
            </Position>
            <AltitudeMeters>61.799999237060546875</AltitudeMeters>
            <DistanceMeters>NAN</DistanceMeters>
          </Trackpoint>
          <Trackpoint>
            <Time>2020-05-25T07:46:31.000Z</Time>
            <Position>
              <LatitudeDegrees>38.01097744144499301910400390625</LatitudeDegrees>
              <LongitudeDegrees>-1.15424363873898983001708984375</LongitudeDegrees>
            </Position>
            <AltitudeMeters>61.799999237060546875</AltitudeMeters>
            <DistanceMeters>NAN</DistanceMeters>
          </Trackpoint>
          <Trackpoint>
            <Time>2020-05-25T07:46:32.000Z</Time>
            <Position>
              <LatitudeDegrees>38.01097744144499301910400390625</LatitudeDegrees>
              <LongitudeDegrees>-1.15424363873898983001708984375</LongitudeDegrees>
            </Position>
            <AltitudeMeters>61.799999237060546875</AltitudeMeters>
            <DistanceMeters>NAN</DistanceMeters>
          </Trackpoint>
          <Trackpoint>
            <Time>2020-05-25T07:46:33.000Z</Time>
            <Position>
              <LatitudeDegrees>38.01097744144499301910400390625</LatitudeDegrees>
              <LongitudeDegrees>-1.15424363873898983001708984375</LongitudeDegrees>
            </Position>
            <AltitudeMeters>61.799999237060546875</AltitudeMeters>
            <DistanceMeters>NAN</DistanceMeters>
          </Trackpoint>
          <Trackpoint>
            <Time>2020-05-25T07:46:34.000Z</Time>
            <Position>
              <LatitudeDegrees>38.01097744144499301910400390625</LatitudeDegrees>
              <LongitudeDegrees>-1.15424363873898983001708984375</LongitudeDegrees>
            </Position>
            <AltitudeMeters>61.799999237060546875</AltitudeMeters>
            <DistanceMeters>NAN</DistanceMeters>
          </Trackpoint>
          <Trackpoint>
            <Time>2020-05-25T07:46:35.000Z</Time>
            <Position>
              <LatitudeDegrees>38.01097744144499301910400390625</LatitudeDegrees>
              <LongitudeDegrees>-1.15424363873898983001708984375</LongitudeDegrees>
            </Position>
            <AltitudeMeters>61.799999237060546875</AltitudeMeters>
            <DistanceMeters>NAN</DistanceMeters>
          </Trackpoint>
          <Trackpoint>
            <Time>2020-05-25T07:46:36.000Z</Time>
            <Position>
              <LatitudeDegrees>38.01097744144499301910400390625</LatitudeDegrees>
              <LongitudeDegrees>-1.15424363873898983001708984375</LongitudeDegrees>
            </Position>
            <AltitudeMeters>61.799999237060546875</AltitudeMeters>
            <DistanceMeters>NAN</DistanceMeters>
          </Trackpoint>
          <Trackpoint>
            <Time>2020-05-25T07:46:37.000Z</Time>
            <Position>
              <LatitudeDegrees>38.01097744144499301910400390625</LatitudeDegrees>
              <LongitudeDegrees>-1.15424363873898983001708984375</LongitudeDegrees>
            </Position>
            <AltitudeMeters>61.799999237060546875</AltitudeMeters>
            <DistanceMeters>NAN</DistanceMeters>
          </Trackpoint>
          <Trackpoint>
            <Time>2020-05-25T07:46:38.000Z</Time>
            <Position>
              <LatitudeDegrees>38.01097744144499301910400390625</LatitudeDegrees>
              <LongitudeDegrees>-1.15424363873898983001708984375</LongitudeDegrees>
            </Position>
            <AltitudeMeters>61.799999237060546875</AltitudeMeters>
            <DistanceMeters>NAN</DistanceMeters>
          </Trackpoint>
          <Trackpoint>
            <Time>2020-05-25T07:46:39.000Z</Time>
            <Position>
              <LatitudeDegrees>38.01097744144499301910400390625</LatitudeDegrees>
              <LongitudeDegrees>-1.15424363873898983001708984375</LongitudeDegrees>
            </Position>
            <AltitudeMeters>61.799999237060546875</AltitudeMeters>
            <DistanceMeters>NAN</DistanceMeters>
          </Trackpoint>
          <Trackpoint>
            <Time>2020-05-25T07:46:40.000Z</Time>
            <Position>
              <LatitudeDegrees>38.01097744144499301910400390625</LatitudeDegrees>
              <LongitudeDegrees>-1.15424363873898983001708984375</LongitudeDegrees>
            </Position>
            <AltitudeMeters>61.799999237060546875</AltitudeMeters>
            <DistanceMeters>NAN</DistanceMeters>
          </Trackpoint>
          <Trackpoint>
            <Time>2020-05-25T07:46:41.000Z</Time>
            <Position>
              <LatitudeDegrees>38.01097744144499301910400390625</LatitudeDegrees>
              <LongitudeDegrees>-1.15424363873898983001708984375</LongitudeDegrees>
            </Position>
            <AltitudeMeters>61.799999237060546875</AltitudeMeters>
            <DistanceMeters>NAN</DistanceMeters>
          </Trackpoint>
          <Trackpoint>
            <Time>2020-05-25T07:46:42.000Z</Time>
            <Position>
              <LatitudeDegrees>38.01097744144499301910400390625</LatitudeDegrees>
              <LongitudeDegrees>-1.15424363873898983001708984375</LongitudeDegrees>
            </Position>
            <AltitudeMeters>61.799999237060546875</AltitudeMeters>
            <DistanceMeters>NAN</DistanceMeters>
          </Trackpoint>
          <Trackpoint>
            <Time>2020-05-25T07:46:43.000Z</Time>
            <Position>
              <LatitudeDegrees>38.01097744144499301910400390625</LatitudeDegrees>
              <LongitudeDegrees>-1.15424363873898983001708984375</LongitudeDegrees>
            </Position>
            <AltitudeMeters>61.799999237060546875</AltitudeMeters>
            <DistanceMeters>NAN</DistanceMeters>
          </Trackpoint>
          <Trackpoint>
            <Time>2020-05-25T07:46:44.000Z</Time>
            <Position>
              <LatitudeDegrees>38.01097744144499301910400390625</LatitudeDegrees>
              <LongitudeDegrees>-1.15424363873898983001708984375</LongitudeDegrees>
            </Position>
            <AltitudeMeters>61.799999237060546875</AltitudeMeters>
            <DistanceMeters>NAN</DistanceMeters>
          </Trackpoint>
          <Trackpoint>
            <Time>2020-05-25T07:46:45.000Z</Time>
            <Position>
              <LatitudeDegrees>38.01097744144499301910400390625</LatitudeDegrees>
              <LongitudeDegrees>-1.15424363873898983001708984375</LongitudeDegrees>
            </Position>
            <AltitudeMeters>61.799999237060546875</AltitudeMeters>
            <DistanceMeters>NAN</DistanceMeters>
          </Trackpoint>
          <Trackpoint>
            <Time>2020-05-25T07:46:46.000Z</Time>
            <Position>
              <LatitudeDegrees>38.01097744144499301910400390625</LatitudeDegrees>
              <LongitudeDegrees>-1.15424363873898983001708984375</LongitudeDegrees>
            </Position>
            <AltitudeMeters>61.799999237060546875</AltitudeMeters>
            <DistanceMeters>NAN</DistanceMeters>
          </Trackpoint>
          <Trackpoint>
            <Time>2020-05-25T07:46:47.000Z</Time>
            <Position>
              <LatitudeDegrees>38.01097744144499301910400390625</LatitudeDegrees>
              <LongitudeDegrees>-1.15424363873898983001708984375</LongitudeDegrees>
            </Position>
            <AltitudeMeters>61.799999237060546875</AltitudeMeters>
            <DistanceMeters>NAN</DistanceMeters>
          </Trackpoint>
          <Trackpoint>
            <Time>2020-05-25T07:46:48.000Z</Time>
            <Position>
              <LatitudeDegrees>38.01097744144499301910400390625</LatitudeDegrees>
              <LongitudeDegrees>-1.15424363873898983001708984375</LongitudeDegrees>
            </Position>
            <AltitudeMeters>61.799999237060546875</AltitudeMeters>
            <DistanceMeters>NAN</DistanceMeters>
          </Trackpoint>
          <Trackpoint>
            <Time>2020-05-25T07:46:49.000Z</Time>
            <Position>
              <LatitudeDegrees>38.01097744144499301910400390625</LatitudeDegrees>
              <LongitudeDegrees>-1.15424363873898983001708984375</LongitudeDegrees>
            </Position>
            <AltitudeMeters>61.799999237060546875</AltitudeMeters>
            <DistanceMeters>NAN</DistanceMeters>
          </Trackpoint>
          <Trackpoint>
            <Time>2020-05-25T07:46:50.000Z</Time>
            <Position>
              <LatitudeDegrees>38.01097744144499301910400390625</LatitudeDegrees>
              <LongitudeDegrees>-1.15424363873898983001708984375</LongitudeDegrees>
            </Position>
            <AltitudeMeters>61.799999237060546875</AltitudeMeters>
            <DistanceMeters>NAN</DistanceMeters>
          </Trackpoint>
          <Trackpoint>
            <Time>2020-05-25T07:46:51.000Z</Time>
            <Position>
              <LatitudeDegrees>38.01097744144499301910400390625</LatitudeDegrees>
              <LongitudeDegrees>-1.15424363873898983001708984375</LongitudeDegrees>
            </Position>
            <AltitudeMeters>61.799999237060546875</AltitudeMeters>
            <DistanceMeters>NAN</DistanceMeters>
          </Trackpoint>
          <Trackpoint>
            <Time>2020-05-25T07:46:52.000Z</Time>
            <Position>
              <LatitudeDegrees>38.01097744144499301910400390625</LatitudeDegrees>
              <LongitudeDegrees>-1.15424363873898983001708984375</LongitudeDegrees>
            </Position>
            <AltitudeMeters>61.799999237060546875</AltitudeMeters>
            <DistanceMeters>NAN</DistanceMeters>
          </Trackpoint>
          <Trackpoint>
            <Time>2020-05-25T07:46:53.000Z</Time>
            <Position>
              <LatitudeDegrees>38.01096989773213863372802734375</LatitudeDegrees>
              <LongitudeDegrees>-1.1542318202555179595947265625</LongitudeDegrees>
            </Position>
            <AltitudeMeters>61.799999237060546875</AltitudeMeters>
            <DistanceMeters>NAN</DistanceMeters>
          </Trackpoint>
          <Trackpoint>
            <Time>2020-05-25T07:46:54.000Z</Time>
            <Position>
              <LatitudeDegrees>38.0109560675919055938720703125</LatitudeDegrees>
              <LongitudeDegrees>-1.1542150564491748809814453125</LongitudeDegrees>
            </Position>
            <AltitudeMeters>61.799999237060546875</AltitudeMeters>
            <DistanceMeters>NAN</DistanceMeters>
          </Trackpoint>
          <Trackpoint>
            <Time>2020-05-25T07:46:55.000Z</Time>
            <Position>
              <LatitudeDegrees>38.010942153632640838623046875</LatitudeDegrees>
              <LongitudeDegrees>-1.15419703535735607147216796875</LongitudeDegrees>
            </Position>
            <AltitudeMeters>61.799999237060546875</AltitudeMeters>
            <DistanceMeters>NAN</DistanceMeters>
          </Trackpoint>
          <Trackpoint>
            <Time>2020-05-25T07:46:56.000Z</Time>
            <Position>
              <LatitudeDegrees>38.01092480309307575225830078125</LatitudeDegrees>
              <LongitudeDegrees>-1.15417289547622203826904296875</LongitudeDegrees>
            </Position>
            <AltitudeMeters>61.799999237060546875</AltitudeMeters>
            <DistanceMeters>NAN</DistanceMeters>
          </Trackpoint>
          <Trackpoint>
            <Time>2020-05-25T07:46:57.000Z</Time>
            <Position>
              <LatitudeDegrees>38.01090535707771778106689453125</LatitudeDegrees>
              <LongitudeDegrees>-1.15414456464350223541259765625</LongitudeDegrees>
            </Position>
            <AltitudeMeters>61.799999237060546875</AltitudeMeters>
            <DistanceMeters>NAN</DistanceMeters>
          </Trackpoint>
          <Trackpoint>
            <Time>2020-05-25T07:46:58.000Z</Time>
            <Position>
              <LatitudeDegrees>38.0108806304633617401123046875</LatitudeDegrees>
              <LongitudeDegrees>-1.15411237813532352447509765625</LongitudeDegrees>
            </Position>
            <AltitudeMeters>61.799999237060546875</AltitudeMeters>
            <DistanceMeters>NAN</DistanceMeters>
          </Trackpoint>
          <Trackpoint>
            <Time>2020-05-25T07:46:59.000Z</Time>
            <Position>
              <LatitudeDegrees>38.010853640735149383544921875</LatitudeDegrees>
              <LongitudeDegrees>-1.15408019162714481353759765625</LongitudeDegrees>
            </Position>
            <AltitudeMeters>61.799999237060546875</AltitudeMeters>
            <DistanceMeters>NAN</DistanceMeters>
          </Trackpoint>
          <Trackpoint>
            <Time>2020-05-25T07:47:00.000Z</Time>
            <Position>
              <LatitudeDegrees>38.01082606427371501922607421875</LatitudeDegrees>
              <LongitudeDegrees>-1.15404792129993438720703125</LongitudeDegrees>
            </Position>
            <AltitudeMeters>61.799999237060546875</AltitudeMeters>
            <DistanceMeters>NAN</DistanceMeters>
          </Trackpoint>
          <Trackpoint>
            <Time>2020-05-25T07:47:01.000Z</Time>
            <Position>
              <LatitudeDegrees>38.010796643793582916259765625</LatitudeDegrees>
              <LongitudeDegrees>-1.1540159024298191070556640625</LongitudeDegrees>
            </Position>
            <AltitudeMeters>61.59999847412109375</AltitudeMeters>
            <DistanceMeters>NAN</DistanceMeters>
          </Trackpoint>
          <Trackpoint>
            <Time>2020-05-25T07:47:02.000Z</Time>
            <Position>
              <LatitudeDegrees>38.01076554693281650543212890625</LatitudeDegrees>
              <LongitudeDegrees>-1.15398396737873554229736328125</LongitudeDegrees>
            </Position>
            <AltitudeMeters>61.40000152587890625</AltitudeMeters>
            <DistanceMeters>NAN</DistanceMeters>
          </Trackpoint>
          <Trackpoint>
            <Time>2020-05-25T07:47:03.000Z</Time>
            <Position>
              <LatitudeDegrees>38.01073419861495494842529296875</LatitudeDegrees>
              <LongitudeDegrees>-1.1539520323276519775390625</LongitudeDegrees>
            </Position>
            <AltitudeMeters>61.40000152587890625</AltitudeMeters>
            <DistanceMeters>NAN</DistanceMeters>
          </Trackpoint>
          <Trackpoint>
            <Time>2020-05-25T07:47:04.000Z</Time>
            <Position>
              <LatitudeDegrees>38.01070318557322025299072265625</LatitudeDegrees>
              <LongitudeDegrees>-1.1539185047149658203125</LongitudeDegrees>
            </Position>
            <AltitudeMeters>61.200000762939453125</AltitudeMeters>
            <DistanceMeters>NAN</DistanceMeters>
          </Trackpoint>
          <Trackpoint>
            <Time>2020-05-25T07:47:05.000Z</Time>
            <Position>
              <LatitudeDegrees>38.01066915504634380340576171875</LatitudeDegrees>
              <LongitudeDegrees>-1.15388707257807254791259765625</LongitudeDegrees>
            </Position>
            <AltitudeMeters>61</AltitudeMeters>
            <DistanceMeters>NAN</DistanceMeters>
          </Trackpoint>
          <Trackpoint>
            <Time>2020-05-25T07:47:06.000Z</Time>
            <Position>
              <LatitudeDegrees>38.01063445396721363067626953125</LatitudeDegrees>
              <LongitudeDegrees>-1.15385287441313266754150390625</LongitudeDegrees>
            </Position>
            <AltitudeMeters>60.799999237060546875</AltitudeMeters>
            <DistanceMeters>NAN</DistanceMeters>
          </Trackpoint>
          <Trackpoint>
            <Time>2020-05-25T07:47:07.000Z</Time>
            <Position>
              <LatitudeDegrees>38.010600171983242034912109375</LatitudeDegrees>
              <LongitudeDegrees>-1.15381498821079730987548828125</LongitudeDegrees>
            </Position>
            <AltitudeMeters>60.799999237060546875</AltitudeMeters>
            <DistanceMeters>NAN</DistanceMeters>
          </Trackpoint>
          <Trackpoint>
            <Time>2020-05-25T07:47:08.000Z</Time>
            <Position>
              <LatitudeDegrees>38.0105671472847461700439453125</LatitudeDegrees>
              <LongitudeDegrees>-1.15378062240779399871826171875</LongitudeDegrees>
            </Position>
            <AltitudeMeters>60.59999847412109375</AltitudeMeters>
            <DistanceMeters>NAN</DistanceMeters>
          </Trackpoint>
          <Trackpoint>
            <Time>2020-05-25T07:47:09.000Z</Time>
            <Position>
              <LatitudeDegrees>38.010533787310123443603515625</LatitudeDegrees>
              <LongitudeDegrees>-1.15374407730996608734130859375</LongitudeDegrees>
            </Position>
            <AltitudeMeters>60.40000152587890625</AltitudeMeters>
            <DistanceMeters>NAN</DistanceMeters>
          </Trackpoint>
          <Trackpoint>
            <Time>2020-05-25T07:47:10.000Z</Time>
            <Position>
              <LatitudeDegrees>38.0105007626116275787353515625</LatitudeDegrees>
              <LongitudeDegrees>-1.153705604374408721923828125</LongitudeDegrees>
            </Position>
            <AltitudeMeters>60.200000762939453125</AltitudeMeters>
            <DistanceMeters>NAN</DistanceMeters>
          </Trackpoint>
          <Trackpoint>
            <Time>2020-05-25T07:47:11.000Z</Time>
            <Position>
              <LatitudeDegrees>38.0104739405214786529541015625</LatitudeDegrees>
              <LongitudeDegrees>-1.15366226993501186370849609375</LongitudeDegrees>
            </Position>
            <AltitudeMeters>60</AltitudeMeters>
            <DistanceMeters>NAN</DistanceMeters>
          </Trackpoint>
          <Trackpoint>
            <Time>2020-05-25T07:47:12.000Z</Time>
            <Position>
              <LatitudeDegrees>38.0104447714984416961669921875</LatitudeDegrees>
              <LongitudeDegrees>-1.1536172591149806976318359375</LongitudeDegrees>
            </Position>
            <AltitudeMeters>60</AltitudeMeters>
            <DistanceMeters>NAN</DistanceMeters>
          </Trackpoint>
          <Trackpoint>
            <Time>2020-05-25T07:47:13.000Z</Time>
            <Position>
              <LatitudeDegrees>38.0104202963411808013916015625</LatitudeDegrees>
              <LongitudeDegrees>-1.15357107482850551605224609375</LongitudeDegrees>
            </Position>
            <AltitudeMeters>59.799999237060546875</AltitudeMeters>
            <DistanceMeters>NAN</DistanceMeters>
          </Trackpoint>
          <Trackpoint>
            <Time>2020-05-25T07:47:14.000Z</Time>
            <Position>
              <LatitudeDegrees>38.0103951506316661834716796875</LatitudeDegrees>
              <LongitudeDegrees>-1.1535317637026309967041015625</LongitudeDegrees>
            </Position>
            <AltitudeMeters>59.799999237060546875</AltitudeMeters>
            <DistanceMeters>NAN</DistanceMeters>
          </Trackpoint>
          <Trackpoint>
            <Time>2020-05-25T07:47:15.000Z</Time>
            <Position>
              <LatitudeDegrees>38.01039271987974643707275390625</LatitudeDegrees>
              <LongitudeDegrees>-1.1534745991230010986328125</LongitudeDegrees>
            </Position>
            <AltitudeMeters>60</AltitudeMeters>
            <DistanceMeters>NAN</DistanceMeters>
          </Trackpoint>
          <Trackpoint>
            <Time>2020-05-25T07:47:16.000Z</Time>
            <Position>
              <LatitudeDegrees>38.0104062147438526153564453125</LatitudeDegrees>
              <LongitudeDegrees>-1.15341215394437313079833984375</LongitudeDegrees>
            </Position>
            <AltitudeMeters>60</AltitudeMeters>
            <DistanceMeters>NAN</DistanceMeters>
          </Trackpoint>
          <Trackpoint>
            <Time>2020-05-25T07:47:17.000Z</Time>
            <Position>
              <LatitudeDegrees>38.01043177954852581024169921875</LatitudeDegrees>
              <LongitudeDegrees>-1.15333906374871730804443359375</LongitudeDegrees>
            </Position>
            <AltitudeMeters>60.200000762939453125</AltitudeMeters>
            <DistanceMeters>NAN</DistanceMeters>
          </Trackpoint>
          <Trackpoint>
            <Time>2020-05-25T07:47:18.000Z</Time>
            <Position>
              <LatitudeDegrees>38.01045860163867473602294921875</LatitudeDegrees>
              <LongitudeDegrees>-1.15327167324721813201904296875</LongitudeDegrees>
            </Position>
            <AltitudeMeters>60.200000762939453125</AltitudeMeters>
            <DistanceMeters>NAN</DistanceMeters>
          </Trackpoint>
          <Trackpoint>
            <Time>2020-05-25T07:47:19.000Z</Time>
            <Position>
              <LatitudeDegrees>38.01048927940428256988525390625</LatitudeDegrees>
              <LongitudeDegrees>-1.15320662967860698699951171875</LongitudeDegrees>
            </Position>
            <AltitudeMeters>60.40000152587890625</AltitudeMeters>
            <DistanceMeters>NAN</DistanceMeters>
          </Trackpoint>
          <Trackpoint>
            <Time>2020-05-25T07:47:20.000Z</Time>
            <Position>
              <LatitudeDegrees>38.0105212144553661346435546875</LatitudeDegrees>
              <LongitudeDegrees>-1.15313689224421977996826171875</LongitudeDegrees>
            </Position>
            <AltitudeMeters>60.40000152587890625</AltitudeMeters>
            <DistanceMeters>NAN</DistanceMeters>
          </Trackpoint>
          <Trackpoint>
            <Time>2020-05-25T07:47:21.000Z</Time>
            <Position>
              <LatitudeDegrees>38.010548539459705352783203125</LatitudeDegrees>
              <LongitudeDegrees>-1.15307050757110118865966796875</LongitudeDegrees>
            </Position>
            <AltitudeMeters>60.59999847412109375</AltitudeMeters>
            <DistanceMeters>NAN</DistanceMeters>
          </Trackpoint>
          <Trackpoint>
            <Time>2020-05-25T07:47:22.000Z</Time>
            <Position>
              <LatitudeDegrees>38.010589443147182464599609375</LatitudeDegrees>
              <LongitudeDegrees>-1.15300185978412628173828125</LongitudeDegrees>
            </Position>
            <AltitudeMeters>60.59999847412109375</AltitudeMeters>
            <DistanceMeters>NAN</DistanceMeters>
          </Trackpoint>
          <Trackpoint>
            <Time>2020-05-25T07:47:23.000Z</Time>
            <Position>
              <LatitudeDegrees>38.0106261558830738067626953125</LatitudeDegrees>
              <LongitudeDegrees>-1.1529366485774517059326171875</LongitudeDegrees>
            </Position>
            <AltitudeMeters>60.59999847412109375</AltitudeMeters>
            <DistanceMeters>NAN</DistanceMeters>
          </Trackpoint>
          <Trackpoint>
            <Time>2020-05-25T07:47:24.000Z</Time>
            <Position>
              <LatitudeDegrees>38.01066345535218715667724609375</LatitudeDegrees>
              <LongitudeDegrees>-1.1528722755610942840576171875</LongitudeDegrees>
            </Position>
            <AltitudeMeters>60.59999847412109375</AltitudeMeters>
            <DistanceMeters>NAN</DistanceMeters>
          </Trackpoint>
          <Trackpoint>
            <Time>2020-05-25T07:47:25.000Z</Time>
            <Position>
              <LatitudeDegrees>38.0107005871832370758056640625</LatitudeDegrees>
              <LongitudeDegrees>-1.152809746563434600830078125</LongitudeDegrees>
            </Position>
            <AltitudeMeters>60.799999237060546875</AltitudeMeters>
            <DistanceMeters>NAN</DistanceMeters>
          </Trackpoint>
          <Trackpoint>
            <Time>2020-05-25T07:47:26.000Z</Time>
            <Position>
              <LatitudeDegrees>38.01073553971946239471435546875</LatitudeDegrees>
              <LongitudeDegrees>-1.152746714651584625244140625</LongitudeDegrees>
            </Position>
            <AltitudeMeters>60.799999237060546875</AltitudeMeters>
            <DistanceMeters>NAN</DistanceMeters>
          </Trackpoint>
          <Trackpoint>
            <Time>2020-05-25T07:47:27.000Z</Time>
            <Position>
              <LatitudeDegrees>38.01076638512313365936279296875</LatitudeDegrees>
              <LongitudeDegrees>-1.15268401801586151123046875</LongitudeDegrees>
            </Position>
            <AltitudeMeters>60.799999237060546875</AltitudeMeters>
            <DistanceMeters>NAN</DistanceMeters>
          </Trackpoint>
          <Trackpoint>
            <Time>2020-05-25T07:47:28.000Z</Time>
            <Position>
              <LatitudeDegrees>38.01080209203064441680908203125</LatitudeDegrees>
              <LongitudeDegrees>-1.152620650827884674072265625</LongitudeDegrees>
            </Position>
            <AltitudeMeters>60.799999237060546875</AltitudeMeters>
            <DistanceMeters>NAN</DistanceMeters>
          </Trackpoint>
          <Trackpoint>
            <Time>2020-05-25T07:47:29.000Z</Time>
            <Position>
              <LatitudeDegrees>38.01085137762129306793212890625</LatitudeDegrees>
              <LongitudeDegrees>-1.15257178433239459991455078125</LongitudeDegrees>
            </Position>
            <AltitudeMeters>61</AltitudeMeters>
            <DistanceMeters>NAN</DistanceMeters>
          </Trackpoint>
          <Trackpoint>
            <Time>2020-05-25T07:47:30.000Z</Time>
            <Position>
              <LatitudeDegrees>38.010905943810939788818359375</LatitudeDegrees>
              <LongitudeDegrees>-1.15252710878849029541015625</LongitudeDegrees>
            </Position>
            <AltitudeMeters>61</AltitudeMeters>
            <DistanceMeters>NAN</DistanceMeters>
          </Trackpoint>
          <Trackpoint>
            <Time>2020-05-25T07:47:31.000Z</Time>
            <Position>
              <LatitudeDegrees>38.010955564677715301513671875</LatitudeDegrees>
              <LongitudeDegrees>-1.15247891284525394439697265625</LongitudeDegrees>
            </Position>
            <AltitudeMeters>61</AltitudeMeters>
            <DistanceMeters>NAN</DistanceMeters>
          </Trackpoint>
          <Trackpoint>
            <Time>2020-05-25T07:47:32.000Z</Time>
            <Position>
              <LatitudeDegrees>38.01100795157253742218017578125</LatitudeDegrees>
              <LongitudeDegrees>-1.152436919510364532470703125</LongitudeDegrees>
            </Position>
            <AltitudeMeters>61.200000762939453125</AltitudeMeters>
            <DistanceMeters>NAN</DistanceMeters>
          </Trackpoint>
          <Trackpoint>
            <Time>2020-05-25T07:47:33.000Z</Time>
            <Position>
              <LatitudeDegrees>38.0110658705234527587890625</LatitudeDegrees>
              <LongitudeDegrees>-1.152405403554439544677734375</LongitudeDegrees>
            </Position>
            <AltitudeMeters>61.40000152587890625</AltitudeMeters>
            <DistanceMeters>NAN</DistanceMeters>
          </Trackpoint>
          <Trackpoint>
            <Time>2020-05-25T07:47:34.000Z</Time>
            <Position>
              <LatitudeDegrees>38.01112362183630466461181640625</LatitudeDegrees>
              <LongitudeDegrees>-1.15236885845661163330078125</LongitudeDegrees>
            </Position>
            <AltitudeMeters>61.40000152587890625</AltitudeMeters>
            <DistanceMeters>NAN</DistanceMeters>
          </Trackpoint>
          <Trackpoint>
            <Time>2020-05-25T07:47:35.000Z</Time>
            <Position>
              <LatitudeDegrees>38.0111739970743656158447265625</LatitudeDegrees>
              <LongitudeDegrees>-1.15233440883457660675048828125</LongitudeDegrees>
            </Position>
            <AltitudeMeters>61.59999847412109375</AltitudeMeters>
            <DistanceMeters>NAN</DistanceMeters>
          </Trackpoint>
          <Trackpoint>
            <Time>2020-05-25T07:47:36.000Z</Time>
            <Position>
              <LatitudeDegrees>38.01121867261826992034912109375</LatitudeDegrees>
              <LongitudeDegrees>-1.1522999592125415802001953125</LongitudeDegrees>
            </Position>
            <AltitudeMeters>61.799999237060546875</AltitudeMeters>
            <DistanceMeters>NAN</DistanceMeters>
          </Trackpoint>
          <Trackpoint>
            <Time>2020-05-25T07:47:37.000Z</Time>
            <Position>
              <LatitudeDegrees>38.01126460544764995574951171875</LatitudeDegrees>
              <LongitudeDegrees>-1.1522676050662994384765625</LongitudeDegrees>
            </Position>
            <AltitudeMeters>61.799999237060546875</AltitudeMeters>
            <DistanceMeters>NAN</DistanceMeters>
          </Trackpoint>
          <Trackpoint>
            <Time>2020-05-25T07:47:38.000Z</Time>
            <Position>
              <LatitudeDegrees>38.01132260821759700775146484375</LatitudeDegrees>
              <LongitudeDegrees>-1.15224539302289485931396484375</LongitudeDegrees>
            </Position>
            <AltitudeMeters>62</AltitudeMeters>
            <DistanceMeters>NAN</DistanceMeters>
          </Trackpoint>
          <Trackpoint>
            <Time>2020-05-25T07:47:39.000Z</Time>
            <Position>
              <LatitudeDegrees>38.01140424795448780059814453125</LatitudeDegrees>
              <LongitudeDegrees>-1.15223131142556667327880859375</LongitudeDegrees>
            </Position>
            <AltitudeMeters>62.200000762939453125</AltitudeMeters>
            <DistanceMeters>NAN</DistanceMeters>
          </Trackpoint>
          <Trackpoint>
            <Time>2020-05-25T07:47:40.000Z</Time>
            <Position>
              <LatitudeDegrees>38.0114787630736827850341796875</LatitudeDegrees>
              <LongitudeDegrees>-1.1522164754569530487060546875</LongitudeDegrees>
            </Position>
            <AltitudeMeters>62.40000152587890625</AltitudeMeters>
            <DistanceMeters>NAN</DistanceMeters>
          </Trackpoint>
          <Trackpoint>
            <Time>2020-05-25T07:47:41.000Z</Time>
            <Position>
              <LatitudeDegrees>38.01153123378753662109375</LatitudeDegrees>
              <LongitudeDegrees>-1.15219376049935817718505859375</LongitudeDegrees>
            </Position>
            <AltitudeMeters>62.59999847412109375</AltitudeMeters>
            <DistanceMeters>NAN</DistanceMeters>
          </Trackpoint>
          <Trackpoint>
            <Time>2020-05-25T07:47:42.000Z</Time>
            <Position>
              <LatitudeDegrees>38.01158948801457881927490234375</LatitudeDegrees>
              <LongitudeDegrees>-1.15215755067765712738037109375</LongitudeDegrees>
            </Position>
            <AltitudeMeters>62.799999237060546875</AltitudeMeters>
            <DistanceMeters>NAN</DistanceMeters>
          </Trackpoint>
          <Trackpoint>
            <Time>2020-05-25T07:47:43.000Z</Time>
            <Position>
              <LatitudeDegrees>38.01163424737751483917236328125</LatitudeDegrees>
              <LongitudeDegrees>-1.1521336622536182403564453125</LongitudeDegrees>
            </Position>
            <AltitudeMeters>62.799999237060546875</AltitudeMeters>
            <DistanceMeters>NAN</DistanceMeters>
          </Trackpoint>
        </Track>
      </Lap>
    </Activity>
  </Activities>
</TrainingCenterDatabase>
